<?xml version="1.0" encoding="UTF-8"?>
<gpx version="1.1" creator="https://www.youtrack.es" xsi:schemaLocation="http://www.topografix.com/GPX/1/1 http://www.topografix.com/GPX/1/1/gpx.xsd http://www.garmin.com/xmlschemas/GpxExtensions/v3 http://www.garmin.com/xmlschemas/GpxExtensionsv3.xsd http://www.garmin.com/xmlschemas/TrackPointExtension/v1 http://www.garmin.com/xmlschemas/TrackPointExtensionv1.xsd" xmlns:gpxtpx="http://www.garmin.com/xmlschemas/TrackPointExtension/v1" xmlns:gpxx="http://www.garmin.com/xmlschemas/GpxExtensions/v3" xmlns:xsi="http://www.w3.org/2001/XMLSchema-instance">
  <metadata>
    <link href="https://www.youtrack.es">
      <text>YouTrack.es</text>
    </link>
    <time>2026-05-08T23:04:28Z</time>
  </metadata>
  <trk>
    <src>https://www.youtrack.es</src>
    <link href="https://www.youtrack.es/ruta/33149-aneto">
      <text>YouTrack.es</text>
    </link>
    <trkseg>
      <trkpt lat="42.6692" lon="0.650485">
        <ele>2135.3</ele>
        <time>1970-01-01T00:00:00.000Z</time>
      </trkpt>
      <trkpt lat="42.66925" lon="0.650506">
        <ele>2135.5</ele>
        <time>1970-01-01T00:00:01.000Z</time>
      </trkpt>
      <trkpt lat="42.669257" lon="0.650504">
        <ele>2135.5</ele>
        <time>1970-01-01T00:00:02.000Z</time>
      </trkpt>
      <trkpt lat="42.669262" lon="0.650498">
        <ele>2135.5</ele>
        <time>1970-01-01T00:00:03.000Z</time>
      </trkpt>
      <trkpt lat="42.669261" lon="0.650491">
        <ele>2135.5</ele>
        <time>1970-01-01T00:00:04.000Z</time>
      </trkpt>
      <trkpt lat="42.669256" lon="0.650485">
        <ele>2135.6</ele>
        <time>1970-01-01T00:00:05.000Z</time>
      </trkpt>
      <trkpt lat="42.669248" lon="0.650476">
        <ele>2135.6</ele>
        <time>1970-01-01T00:00:06.000Z</time>
      </trkpt>
      <trkpt lat="42.669247" lon="0.650475">
        <ele>2135.6</ele>
        <time>1970-01-01T00:00:07.000Z</time>
      </trkpt>
      <trkpt lat="42.669242" lon="0.650468">
        <ele>2135.6</ele>
        <time>1970-01-01T00:00:08.000Z</time>
      </trkpt>
      <trkpt lat="42.669241" lon="0.650464">
        <ele>2135.7</ele>
        <time>1970-01-01T00:00:09.000Z</time>
      </trkpt>
      <trkpt lat="42.669239" lon="0.650457">
        <ele>2135.7</ele>
        <time>1970-01-01T00:00:10.000Z</time>
      </trkpt>
      <trkpt lat="42.669238" lon="0.650453">
        <ele>2135.7</ele>
        <time>1970-01-01T00:00:11.000Z</time>
      </trkpt>
      <trkpt lat="42.669238" lon="0.650445">
        <ele>2135.7</ele>
        <time>1970-01-01T00:00:12.000Z</time>
      </trkpt>
      <trkpt lat="42.669237" lon="0.650434">
        <ele>2135.7</ele>
        <time>1970-01-01T00:00:13.000Z</time>
      </trkpt>
      <trkpt lat="42.669235" lon="0.650421">
        <ele>2136.2</ele>
        <time>1970-01-01T00:00:14.000Z</time>
      </trkpt>
      <trkpt lat="42.669233" lon="0.650412">
        <ele>2136.3</ele>
        <time>1970-01-01T00:00:15.000Z</time>
      </trkpt>
      <trkpt lat="42.669232" lon="0.650403">
        <ele>2136.3</ele>
        <time>1970-01-01T00:00:16.000Z</time>
      </trkpt>
      <trkpt lat="42.669232" lon="0.650391">
        <ele>2136.4</ele>
        <time>1970-01-01T00:00:17.000Z</time>
      </trkpt>
      <trkpt lat="42.669234" lon="0.65038">
        <ele>2136.5</ele>
        <time>1970-01-01T00:00:18.000Z</time>
      </trkpt>
      <trkpt lat="42.669233" lon="0.650371">
        <ele>2136.6</ele>
        <time>1970-01-01T00:00:19.000Z</time>
      </trkpt>
      <trkpt lat="42.669227" lon="0.650347">
        <ele>2136.8</ele>
        <time>1970-01-01T00:00:21.000Z</time>
      </trkpt>
      <trkpt lat="42.669217" lon="0.650339">
        <ele>2136.9</ele>
        <time>1970-01-01T00:00:22.000Z</time>
      </trkpt>
      <trkpt lat="42.669206" lon="0.650337">
        <ele>2137.1</ele>
        <time>1970-01-01T00:00:24.000Z</time>
      </trkpt>
      <trkpt lat="42.669194" lon="0.650339">
        <ele>2137.2</ele>
        <time>1970-01-01T00:00:25.000Z</time>
      </trkpt>
      <trkpt lat="42.669182" lon="0.650342">
        <ele>2137.3</ele>
        <time>1970-01-01T00:00:26.000Z</time>
      </trkpt>
      <trkpt lat="42.66917" lon="0.650347">
        <ele>2137.5</ele>
        <time>1970-01-01T00:00:28.000Z</time>
      </trkpt>
      <trkpt lat="42.669158" lon="0.650348">
        <ele>2137.6</ele>
        <time>1970-01-01T00:00:29.000Z</time>
      </trkpt>
      <trkpt lat="42.669149" lon="0.650348">
        <ele>2137.7</ele>
        <time>1970-01-01T00:00:30.000Z</time>
      </trkpt>
      <trkpt lat="42.66914" lon="0.650349">
        <ele>2137.8</ele>
        <time>1970-01-01T00:00:31.000Z</time>
      </trkpt>
      <trkpt lat="42.669131" lon="0.650353">
        <ele>2138</ele>
        <time>1970-01-01T00:00:32.000Z</time>
      </trkpt>
      <trkpt lat="42.669123" lon="0.650358">
        <ele>2138.1</ele>
        <time>1970-01-01T00:00:33.000Z</time>
      </trkpt>
      <trkpt lat="42.669118" lon="0.65036">
        <ele>2138.1</ele>
        <time>1970-01-01T00:00:34.000Z</time>
      </trkpt>
      <trkpt lat="42.669109" lon="0.650361">
        <ele>2138.2</ele>
        <time>1970-01-01T00:00:35.000Z</time>
      </trkpt>
      <trkpt lat="42.669098" lon="0.650362">
        <ele>2138.4</ele>
        <time>1970-01-01T00:00:37.000Z</time>
      </trkpt>
      <trkpt lat="42.669092" lon="0.650365">
        <ele>2138.5</ele>
        <time>1970-01-01T00:00:38.000Z</time>
      </trkpt>
      <trkpt lat="42.669082" lon="0.650371">
        <ele>2138.6</ele>
        <time>1970-01-01T00:00:40.000Z</time>
      </trkpt>
      <trkpt lat="42.669071" lon="0.650372">
        <ele>2138.7</ele>
        <time>1970-01-01T00:00:41.000Z</time>
      </trkpt>
      <trkpt lat="42.66906" lon="0.650373">
        <ele>2138.9</ele>
        <time>1970-01-01T00:00:43.000Z</time>
      </trkpt>
      <trkpt lat="42.669049" lon="0.65037">
        <ele>2139</ele>
        <time>1970-01-01T00:00:44.000Z</time>
      </trkpt>
      <trkpt lat="42.669028" lon="0.650364">
        <ele>2139.1</ele>
        <time>1970-01-01T00:00:45.000Z</time>
      </trkpt>
      <trkpt lat="42.66902" lon="0.650361">
        <ele>2139.1</ele>
        <time>1970-01-01T00:00:46.000Z</time>
      </trkpt>
      <trkpt lat="42.669012" lon="0.650358">
        <ele>2139.1</ele>
        <time>1970-01-01T00:00:47.000Z</time>
      </trkpt>
      <trkpt lat="42.669003" lon="0.650354">
        <ele>2139.1</ele>
        <time>1970-01-01T00:00:48.000Z</time>
      </trkpt>
      <trkpt lat="42.668986" lon="0.650349">
        <ele>2139.2</ele>
        <time>1970-01-01T00:00:49.000Z</time>
      </trkpt>
      <trkpt lat="42.668973" lon="0.650345">
        <ele>2139.2</ele>
        <time>1970-01-01T00:00:51.000Z</time>
      </trkpt>
      <trkpt lat="42.668958" lon="0.650339">
        <ele>2139.2</ele>
        <time>1970-01-01T00:00:52.000Z</time>
      </trkpt>
      <trkpt lat="42.668949" lon="0.650336">
        <ele>2139.2</ele>
        <time>1970-01-01T00:00:54.000Z</time>
      </trkpt>
      <trkpt lat="42.668938" lon="0.650337">
        <ele>2139.2</ele>
        <time>1970-01-01T00:00:55.000Z</time>
      </trkpt>
      <trkpt lat="42.668929" lon="0.650342">
        <ele>2139.2</ele>
        <time>1970-01-01T00:00:56.000Z</time>
      </trkpt>
      <trkpt lat="42.668921" lon="0.650349">
        <ele>2139.2</ele>
        <time>1970-01-01T00:00:57.000Z</time>
      </trkpt>
      <trkpt lat="42.668915" lon="0.650355">
        <ele>2139.1</ele>
        <time>1970-01-01T00:00:58.000Z</time>
      </trkpt>
      <trkpt lat="42.668907" lon="0.650359">
        <ele>2139.1</ele>
        <time>1970-01-01T00:00:59.000Z</time>
      </trkpt>
      <trkpt lat="42.668901" lon="0.650361">
        <ele>2139.1</ele>
        <time>1970-01-01T00:01:00.000Z</time>
      </trkpt>
      <trkpt lat="42.668892" lon="0.650356">
        <ele>2139.1</ele>
        <time>1970-01-01T00:01:01.000Z</time>
      </trkpt>
      <trkpt lat="42.668883" lon="0.65035">
        <ele>2139.1</ele>
        <time>1970-01-01T00:01:02.000Z</time>
      </trkpt>
      <trkpt lat="42.668875" lon="0.650343">
        <ele>2139</ele>
        <time>1970-01-01T00:01:04.000Z</time>
      </trkpt>
      <trkpt lat="42.668867" lon="0.650342">
        <ele>2139</ele>
        <time>1970-01-01T00:01:05.000Z</time>
      </trkpt>
      <trkpt lat="42.668861" lon="0.650346">
        <ele>2139</ele>
        <time>1970-01-01T00:01:06.000Z</time>
      </trkpt>
      <trkpt lat="42.668853" lon="0.65035">
        <ele>2139</ele>
        <time>1970-01-01T00:01:08.000Z</time>
      </trkpt>
      <trkpt lat="42.668844" lon="0.650352">
        <ele>2138.9</ele>
        <time>1970-01-01T00:01:09.000Z</time>
      </trkpt>
      <trkpt lat="42.668835" lon="0.650353">
        <ele>2138.9</ele>
        <time>1970-01-01T00:01:10.000Z</time>
      </trkpt>
      <trkpt lat="42.668822" lon="0.650351">
        <ele>2138.9</ele>
        <time>1970-01-01T00:01:11.000Z</time>
      </trkpt>
      <trkpt lat="42.668813" lon="0.650346">
        <ele>2138.8</ele>
        <time>1970-01-01T00:01:12.000Z</time>
      </trkpt>
      <trkpt lat="42.668802" lon="0.650338">
        <ele>2138.8</ele>
        <time>1970-01-01T00:01:14.000Z</time>
      </trkpt>
      <trkpt lat="42.668793" lon="0.650335">
        <ele>2138.8</ele>
        <time>1970-01-01T00:01:15.000Z</time>
      </trkpt>
      <trkpt lat="42.668782" lon="0.650332">
        <ele>2138.7</ele>
        <time>1970-01-01T00:01:16.000Z</time>
      </trkpt>
      <trkpt lat="42.66877" lon="0.650328">
        <ele>2138.7</ele>
        <time>1970-01-01T00:01:17.000Z</time>
      </trkpt>
      <trkpt lat="42.668761" lon="0.65032">
        <ele>2138.7</ele>
        <time>1970-01-01T00:01:18.000Z</time>
      </trkpt>
      <trkpt lat="42.668755" lon="0.650306">
        <ele>2138.7</ele>
        <time>1970-01-01T00:01:19.000Z</time>
      </trkpt>
      <trkpt lat="42.668747" lon="0.650292">
        <ele>2138.7</ele>
        <time>1970-01-01T00:01:20.000Z</time>
      </trkpt>
      <trkpt lat="42.66874" lon="0.650279">
        <ele>2138.7</ele>
        <time>1970-01-01T00:01:21.000Z</time>
      </trkpt>
      <trkpt lat="42.668734" lon="0.650264">
        <ele>2138.7</ele>
        <time>1970-01-01T00:01:23.000Z</time>
      </trkpt>
      <trkpt lat="42.668727" lon="0.650251">
        <ele>2138.7</ele>
        <time>1970-01-01T00:01:24.000Z</time>
      </trkpt>
      <trkpt lat="42.668717" lon="0.650247">
        <ele>2138.7</ele>
        <time>1970-01-01T00:01:25.000Z</time>
      </trkpt>
      <trkpt lat="42.668709" lon="0.650246">
        <ele>2138.7</ele>
        <time>1970-01-01T00:01:26.000Z</time>
      </trkpt>
      <trkpt lat="42.668699" lon="0.650249">
        <ele>2138.7</ele>
        <time>1970-01-01T00:01:27.000Z</time>
      </trkpt>
      <trkpt lat="42.668692" lon="0.650254">
        <ele>2138.7</ele>
        <time>1970-01-01T00:01:28.000Z</time>
      </trkpt>
      <trkpt lat="42.668687" lon="0.650259">
        <ele>2138.8</ele>
        <time>1970-01-01T00:01:29.000Z</time>
      </trkpt>
      <trkpt lat="42.668681" lon="0.650261">
        <ele>2138.8</ele>
        <time>1970-01-01T00:01:30.000Z</time>
      </trkpt>
      <trkpt lat="42.668675" lon="0.650261">
        <ele>2138.8</ele>
        <time>1970-01-01T00:01:31.000Z</time>
      </trkpt>
      <trkpt lat="42.668672" lon="0.650258">
        <ele>2138.8</ele>
        <time>1970-01-01T00:01:32.000Z</time>
      </trkpt>
      <trkpt lat="42.66867" lon="0.650254">
        <ele>2138.8</ele>
        <time>1970-01-01T00:01:33.000Z</time>
      </trkpt>
      <trkpt lat="42.668662" lon="0.650243">
        <ele>2138.9</ele>
        <time>1970-01-01T00:01:34.000Z</time>
      </trkpt>
      <trkpt lat="42.668655" lon="0.650235">
        <ele>2138.9</ele>
        <time>1970-01-01T00:01:36.000Z</time>
      </trkpt>
      <trkpt lat="42.668647" lon="0.65023">
        <ele>2138.9</ele>
        <time>1970-01-01T00:01:37.000Z</time>
      </trkpt>
      <trkpt lat="42.668636" lon="0.650224">
        <ele>2139</ele>
        <time>1970-01-01T00:01:38.000Z</time>
      </trkpt>
      <trkpt lat="42.668625" lon="0.650218">
        <ele>2139</ele>
        <time>1970-01-01T00:01:39.000Z</time>
      </trkpt>
      <trkpt lat="42.668616" lon="0.650211">
        <ele>2139.1</ele>
        <time>1970-01-01T00:01:40.000Z</time>
      </trkpt>
      <trkpt lat="42.668606" lon="0.650203">
        <ele>2139.1</ele>
        <time>1970-01-01T00:01:41.000Z</time>
      </trkpt>
      <trkpt lat="42.668598" lon="0.650196">
        <ele>2139.2</ele>
        <time>1970-01-01T00:01:42.000Z</time>
      </trkpt>
      <trkpt lat="42.668588" lon="0.650179">
        <ele>2139.3</ele>
        <time>1970-01-01T00:01:44.000Z</time>
      </trkpt>
      <trkpt lat="42.668585" lon="0.650158">
        <ele>2139.3</ele>
        <time>1970-01-01T00:01:46.000Z</time>
      </trkpt>
      <trkpt lat="42.668581" lon="0.650142">
        <ele>2139.4</ele>
        <time>1970-01-01T00:01:47.000Z</time>
      </trkpt>
      <trkpt lat="42.668577" lon="0.650129">
        <ele>2139.5</ele>
        <time>1970-01-01T00:01:48.000Z</time>
      </trkpt>
      <trkpt lat="42.668573" lon="0.650118">
        <ele>2139.5</ele>
        <time>1970-01-01T00:01:49.000Z</time>
      </trkpt>
      <trkpt lat="42.668567" lon="0.650106">
        <ele>2139.6</ele>
        <time>1970-01-01T00:01:51.000Z</time>
      </trkpt>
      <trkpt lat="42.668564" lon="0.650095">
        <ele>2139.6</ele>
        <time>1970-01-01T00:01:52.000Z</time>
      </trkpt>
      <trkpt lat="42.668563" lon="0.650084">
        <ele>2139.9</ele>
        <time>1970-01-01T00:01:53.000Z</time>
      </trkpt>
      <trkpt lat="42.668563" lon="0.650071">
        <ele>2140</ele>
        <time>1970-01-01T00:01:54.000Z</time>
      </trkpt>
      <trkpt lat="42.668557" lon="0.650052">
        <ele>2140</ele>
        <time>1970-01-01T00:01:55.000Z</time>
      </trkpt>
      <trkpt lat="42.668547" lon="0.650045">
        <ele>2140.1</ele>
        <time>1970-01-01T00:01:56.000Z</time>
      </trkpt>
      <trkpt lat="42.668536" lon="0.65004">
        <ele>2140.2</ele>
        <time>1970-01-01T00:01:58.000Z</time>
      </trkpt>
      <trkpt lat="42.668526" lon="0.650036">
        <ele>2140.2</ele>
        <time>1970-01-01T00:01:59.000Z</time>
      </trkpt>
      <trkpt lat="42.668516" lon="0.650029">
        <ele>2140.3</ele>
        <time>1970-01-01T00:02:00.000Z</time>
      </trkpt>
      <trkpt lat="42.668508" lon="0.650018">
        <ele>2140.3</ele>
        <time>1970-01-01T00:02:01.000Z</time>
      </trkpt>
      <trkpt lat="42.668503" lon="0.650005">
        <ele>2140.4</ele>
        <time>1970-01-01T00:02:02.000Z</time>
      </trkpt>
      <trkpt lat="42.668497" lon="0.64999">
        <ele>2140.5</ele>
        <time>1970-01-01T00:02:03.000Z</time>
      </trkpt>
      <trkpt lat="42.66849" lon="0.649964">
        <ele>2140.6</ele>
        <time>1970-01-01T00:02:04.000Z</time>
      </trkpt>
      <trkpt lat="42.668487" lon="0.649954">
        <ele>2140.6</ele>
        <time>1970-01-01T00:02:06.000Z</time>
      </trkpt>
      <trkpt lat="42.668484" lon="0.649944">
        <ele>2140.7</ele>
        <time>1970-01-01T00:02:07.000Z</time>
      </trkpt>
      <trkpt lat="42.668477" lon="0.649934">
        <ele>2140.8</ele>
        <time>1970-01-01T00:02:08.000Z</time>
      </trkpt>
      <trkpt lat="42.668469" lon="0.649925">
        <ele>2140.8</ele>
        <time>1970-01-01T00:02:09.000Z</time>
      </trkpt>
      <trkpt lat="42.668465" lon="0.649918">
        <ele>2140.9</ele>
        <time>1970-01-01T00:02:10.000Z</time>
      </trkpt>
      <trkpt lat="42.668459" lon="0.649908">
        <ele>2140.9</ele>
        <time>1970-01-01T00:02:11.000Z</time>
      </trkpt>
      <trkpt lat="42.668453" lon="0.649899">
        <ele>2141</ele>
        <time>1970-01-01T00:02:12.000Z</time>
      </trkpt>
      <trkpt lat="42.668446" lon="0.649889">
        <ele>2141</ele>
        <time>1970-01-01T00:02:13.000Z</time>
      </trkpt>
      <trkpt lat="42.668438" lon="0.649881">
        <ele>2141.1</ele>
        <time>1970-01-01T00:02:14.000Z</time>
      </trkpt>
      <trkpt lat="42.66843" lon="0.649873">
        <ele>2141.2</ele>
        <time>1970-01-01T00:02:15.000Z</time>
      </trkpt>
      <trkpt lat="42.668423" lon="0.649861">
        <ele>2141.2</ele>
        <time>1970-01-01T00:02:16.000Z</time>
      </trkpt>
      <trkpt lat="42.668416" lon="0.64985">
        <ele>2141.3</ele>
        <time>1970-01-01T00:02:18.000Z</time>
      </trkpt>
      <trkpt lat="42.668408" lon="0.649836">
        <ele>2141.4</ele>
        <time>1970-01-01T00:02:19.000Z</time>
      </trkpt>
      <trkpt lat="42.668404" lon="0.64983">
        <ele>2141.5</ele>
        <time>1970-01-01T00:02:20.000Z</time>
      </trkpt>
      <trkpt lat="42.6684" lon="0.649822">
        <ele>2141.5</ele>
        <time>1970-01-01T00:02:21.000Z</time>
      </trkpt>
      <trkpt lat="42.668395" lon="0.649814">
        <ele>2141.6</ele>
        <time>1970-01-01T00:02:22.000Z</time>
      </trkpt>
      <trkpt lat="42.668392" lon="0.649808">
        <ele>2141.6</ele>
        <time>1970-01-01T00:02:23.000Z</time>
      </trkpt>
      <trkpt lat="42.668387" lon="0.6498">
        <ele>2141.7</ele>
        <time>1970-01-01T00:02:24.000Z</time>
      </trkpt>
      <trkpt lat="42.66838" lon="0.649789">
        <ele>2141.7</ele>
        <time>1970-01-01T00:02:25.000Z</time>
      </trkpt>
      <trkpt lat="42.668374" lon="0.649775">
        <ele>2141.8</ele>
        <time>1970-01-01T00:02:27.000Z</time>
      </trkpt>
      <trkpt lat="42.668371" lon="0.649768">
        <ele>2141.9</ele>
        <time>1970-01-01T00:02:28.000Z</time>
      </trkpt>
      <trkpt lat="42.668362" lon="0.649751">
        <ele>2142</ele>
        <time>1970-01-01T00:02:30.000Z</time>
      </trkpt>
      <trkpt lat="42.668357" lon="0.649744">
        <ele>2142.1</ele>
        <time>1970-01-01T00:02:31.000Z</time>
      </trkpt>
      <trkpt lat="42.668356" lon="0.649742">
        <ele>2142.1</ele>
        <time>1970-01-01T00:02:32.000Z</time>
      </trkpt>
      <trkpt lat="42.668355" lon="0.649742">
        <ele>2142.1</ele>
        <time>1970-01-01T00:02:33.000Z</time>
      </trkpt>
      <trkpt lat="42.668356" lon="0.649744">
        <ele>2142.1</ele>
        <time>1970-01-01T00:02:34.000Z</time>
      </trkpt>
      <trkpt lat="42.668355" lon="0.649742">
        <ele>2142.1</ele>
        <time>1970-01-01T00:02:35.000Z</time>
      </trkpt>
      <trkpt lat="42.668353" lon="0.649741">
        <ele>2142.1</ele>
        <time>1970-01-01T00:02:36.000Z</time>
      </trkpt>
      <trkpt lat="42.668353" lon="0.649739">
        <ele>2142.1</ele>
        <time>1970-01-01T00:02:37.000Z</time>
      </trkpt>
      <trkpt lat="42.668351" lon="0.649736">
        <ele>2142.2</ele>
        <time>1970-01-01T00:02:38.000Z</time>
      </trkpt>
      <trkpt lat="42.668351" lon="0.649734">
        <ele>2142.2</ele>
        <time>1970-01-01T00:02:39.000Z</time>
      </trkpt>
      <trkpt lat="42.66835" lon="0.649731">
        <ele>2142.2</ele>
        <time>1970-01-01T00:02:40.000Z</time>
      </trkpt>
      <trkpt lat="42.668349" lon="0.649729">
        <ele>2142.2</ele>
        <time>1970-01-01T00:02:41.000Z</time>
      </trkpt>
      <trkpt lat="42.668349" lon="0.649727">
        <ele>2142.2</ele>
        <time>1970-01-01T00:02:42.000Z</time>
      </trkpt>
      <trkpt lat="42.668348" lon="0.649723">
        <ele>2142.3</ele>
        <time>1970-01-01T00:02:43.000Z</time>
      </trkpt>
      <trkpt lat="42.668347" lon="0.649721">
        <ele>2142.3</ele>
        <time>1970-01-01T00:02:44.000Z</time>
      </trkpt>
      <trkpt lat="42.668346" lon="0.649718">
        <ele>2142.3</ele>
        <time>1970-01-01T00:02:46.000Z</time>
      </trkpt>
      <trkpt lat="42.668344" lon="0.649717">
        <ele>2142.3</ele>
        <time>1970-01-01T00:02:47.000Z</time>
      </trkpt>
      <trkpt lat="42.668343" lon="0.649715">
        <ele>2142.4</ele>
        <time>1970-01-01T00:02:48.000Z</time>
      </trkpt>
      <trkpt lat="42.668341" lon="0.649713">
        <ele>2142.4</ele>
        <time>1970-01-01T00:02:49.000Z</time>
      </trkpt>
      <trkpt lat="42.668337" lon="0.649707">
        <ele>2142.5</ele>
        <time>1970-01-01T00:02:50.000Z</time>
      </trkpt>
      <trkpt lat="42.668331" lon="0.649701">
        <ele>2142.5</ele>
        <time>1970-01-01T00:02:51.000Z</time>
      </trkpt>
      <trkpt lat="42.668325" lon="0.649696">
        <ele>2142.6</ele>
        <time>1970-01-01T00:02:52.000Z</time>
      </trkpt>
      <trkpt lat="42.668311" lon="0.649692">
        <ele>2142.8</ele>
        <time>1970-01-01T00:02:54.000Z</time>
      </trkpt>
      <trkpt lat="42.668303" lon="0.649692">
        <ele>2142.9</ele>
        <time>1970-01-01T00:02:55.000Z</time>
      </trkpt>
      <trkpt lat="42.668295" lon="0.649692">
        <ele>2143</ele>
        <time>1970-01-01T00:02:56.000Z</time>
      </trkpt>
      <trkpt lat="42.668283" lon="0.649682">
        <ele>2143.2</ele>
        <time>1970-01-01T00:02:58.000Z</time>
      </trkpt>
      <trkpt lat="42.668277" lon="0.649672">
        <ele>2143.3</ele>
        <time>1970-01-01T00:03:00.000Z</time>
      </trkpt>
      <trkpt lat="42.668274" lon="0.649668">
        <ele>2143.4</ele>
        <time>1970-01-01T00:03:01.000Z</time>
      </trkpt>
      <trkpt lat="42.668266" lon="0.649664">
        <ele>2143.5</ele>
        <time>1970-01-01T00:03:02.000Z</time>
      </trkpt>
      <trkpt lat="42.668258" lon="0.649656">
        <ele>2143.7</ele>
        <time>1970-01-01T00:03:04.000Z</time>
      </trkpt>
      <trkpt lat="42.668256" lon="0.649649">
        <ele>2143.8</ele>
        <time>1970-01-01T00:03:05.000Z</time>
      </trkpt>
      <trkpt lat="42.668253" lon="0.649644">
        <ele>2143.9</ele>
        <time>1970-01-01T00:03:06.000Z</time>
      </trkpt>
      <trkpt lat="42.668248" lon="0.64964">
        <ele>2144</ele>
        <time>1970-01-01T00:03:07.000Z</time>
      </trkpt>
      <trkpt lat="42.668243" lon="0.649636">
        <ele>2144.1</ele>
        <time>1970-01-01T00:03:08.000Z</time>
      </trkpt>
      <trkpt lat="42.668239" lon="0.649632">
        <ele>2144.2</ele>
        <time>1970-01-01T00:03:09.000Z</time>
      </trkpt>
      <trkpt lat="42.668234" lon="0.649628">
        <ele>2144.3</ele>
        <time>1970-01-01T00:03:10.000Z</time>
      </trkpt>
      <trkpt lat="42.668231" lon="0.649627">
        <ele>2144.4</ele>
        <time>1970-01-01T00:03:11.000Z</time>
      </trkpt>
      <trkpt lat="42.668224" lon="0.649624">
        <ele>2144.5</ele>
        <time>1970-01-01T00:03:13.000Z</time>
      </trkpt>
      <trkpt lat="42.668217" lon="0.649623">
        <ele>2144.7</ele>
        <time>1970-01-01T00:03:14.000Z</time>
      </trkpt>
      <trkpt lat="42.668214" lon="0.649623">
        <ele>2144.7</ele>
        <time>1970-01-01T00:03:15.000Z</time>
      </trkpt>
      <trkpt lat="42.668212" lon="0.649622">
        <ele>2144.8</ele>
        <time>1970-01-01T00:03:16.000Z</time>
      </trkpt>
      <trkpt lat="42.668205" lon="0.649615">
        <ele>2145</ele>
        <time>1970-01-01T00:03:18.000Z</time>
      </trkpt>
      <trkpt lat="42.668198" lon="0.649616">
        <ele>2145.1</ele>
        <time>1970-01-01T00:03:19.000Z</time>
      </trkpt>
      <trkpt lat="42.668195" lon="0.649618">
        <ele>2145.2</ele>
        <time>1970-01-01T00:03:20.000Z</time>
      </trkpt>
      <trkpt lat="42.668187" lon="0.649626">
        <ele>2145.5</ele>
        <time>1970-01-01T00:03:22.000Z</time>
      </trkpt>
      <trkpt lat="42.66818" lon="0.649632">
        <ele>2145.7</ele>
        <time>1970-01-01T00:03:23.000Z</time>
      </trkpt>
      <trkpt lat="42.668179" lon="0.649637">
        <ele>2145.7</ele>
        <time>1970-01-01T00:03:24.000Z</time>
      </trkpt>
      <trkpt lat="42.668178" lon="0.649642">
        <ele>2145.8</ele>
        <time>1970-01-01T00:03:25.000Z</time>
      </trkpt>
      <trkpt lat="42.668177" lon="0.649648">
        <ele>2145.9</ele>
        <time>1970-01-01T00:03:26.000Z</time>
      </trkpt>
      <trkpt lat="42.66818" lon="0.64966">
        <ele>2146.2</ele>
        <time>1970-01-01T00:03:28.000Z</time>
      </trkpt>
      <trkpt lat="42.668183" lon="0.649668">
        <ele>2146.3</ele>
        <time>1970-01-01T00:03:29.000Z</time>
      </trkpt>
      <trkpt lat="42.668184" lon="0.649677">
        <ele>2146.5</ele>
        <time>1970-01-01T00:03:30.000Z</time>
      </trkpt>
      <trkpt lat="42.668184" lon="0.649683">
        <ele>2146.6</ele>
        <time>1970-01-01T00:03:32.000Z</time>
      </trkpt>
      <trkpt lat="42.668183" lon="0.649685">
        <ele>2146.7</ele>
        <time>1970-01-01T00:03:33.000Z</time>
      </trkpt>
      <trkpt lat="42.66818" lon="0.649689">
        <ele>2146.8</ele>
        <time>1970-01-01T00:03:34.000Z</time>
      </trkpt>
      <trkpt lat="42.668175" lon="0.649692">
        <ele>2146.9</ele>
        <time>1970-01-01T00:03:36.000Z</time>
      </trkpt>
      <trkpt lat="42.66817" lon="0.649695">
        <ele>2147.1</ele>
        <time>1970-01-01T00:03:37.000Z</time>
      </trkpt>
      <trkpt lat="42.668166" lon="0.649698">
        <ele>2147.2</ele>
        <time>1970-01-01T00:03:38.000Z</time>
      </trkpt>
      <trkpt lat="42.668161" lon="0.649704">
        <ele>2147.4</ele>
        <time>1970-01-01T00:03:40.000Z</time>
      </trkpt>
      <trkpt lat="42.668159" lon="0.649708">
        <ele>2147.5</ele>
        <time>1970-01-01T00:03:41.000Z</time>
      </trkpt>
      <trkpt lat="42.668156" lon="0.649711">
        <ele>2147.6</ele>
        <time>1970-01-01T00:03:42.000Z</time>
      </trkpt>
      <trkpt lat="42.668154" lon="0.649717">
        <ele>2147.7</ele>
        <time>1970-01-01T00:03:43.000Z</time>
      </trkpt>
      <trkpt lat="42.668153" lon="0.649724">
        <ele>2147.8</ele>
        <time>1970-01-01T00:03:45.000Z</time>
      </trkpt>
      <trkpt lat="42.668151" lon="0.649728">
        <ele>2147.9</ele>
        <time>1970-01-01T00:03:46.000Z</time>
      </trkpt>
      <trkpt lat="42.668147" lon="0.64973">
        <ele>2148</ele>
        <time>1970-01-01T00:03:47.000Z</time>
      </trkpt>
      <trkpt lat="42.668141" lon="0.649732">
        <ele>2148.2</ele>
        <time>1970-01-01T00:03:49.000Z</time>
      </trkpt>
      <trkpt lat="42.668134" lon="0.649736">
        <ele>2148.4</ele>
        <time>1970-01-01T00:03:50.000Z</time>
      </trkpt>
      <trkpt lat="42.668129" lon="0.64974">
        <ele>2148.6</ele>
        <time>1970-01-01T00:03:51.000Z</time>
      </trkpt>
      <trkpt lat="42.668128" lon="0.649743">
        <ele>2148.6</ele>
        <time>1970-01-01T00:03:52.000Z</time>
      </trkpt>
      <trkpt lat="42.668126" lon="0.64975">
        <ele>2148.8</ele>
        <time>1970-01-01T00:03:53.000Z</time>
      </trkpt>
      <trkpt lat="42.668122" lon="0.649757">
        <ele>2148.9</ele>
        <time>1970-01-01T00:03:54.000Z</time>
      </trkpt>
      <trkpt lat="42.668113" lon="0.64977">
        <ele>2149.3</ele>
        <time>1970-01-01T00:03:55.000Z</time>
      </trkpt>
      <trkpt lat="42.668108" lon="0.649778">
        <ele>2149.5</ele>
        <time>1970-01-01T00:03:56.000Z</time>
      </trkpt>
      <trkpt lat="42.668103" lon="0.649785">
        <ele>2149.7</ele>
        <time>1970-01-01T00:03:57.000Z</time>
      </trkpt>
      <trkpt lat="42.668099" lon="0.649793">
        <ele>2149.9</ele>
        <time>1970-01-01T00:03:59.000Z</time>
      </trkpt>
      <trkpt lat="42.668094" lon="0.6498">
        <ele>2150.1</ele>
        <time>1970-01-01T00:04:00.000Z</time>
      </trkpt>
      <trkpt lat="42.668089" lon="0.649807">
        <ele>2150.2</ele>
        <time>1970-01-01T00:04:01.000Z</time>
      </trkpt>
      <trkpt lat="42.668084" lon="0.649815">
        <ele>2150.4</ele>
        <time>1970-01-01T00:04:02.000Z</time>
      </trkpt>
      <trkpt lat="42.66808" lon="0.649822">
        <ele>2150.6</ele>
        <time>1970-01-01T00:04:03.000Z</time>
      </trkpt>
      <trkpt lat="42.668075" lon="0.649832">
        <ele>2150.9</ele>
        <time>1970-01-01T00:04:04.000Z</time>
      </trkpt>
      <trkpt lat="42.668069" lon="0.649842">
        <ele>2151.1</ele>
        <time>1970-01-01T00:04:06.000Z</time>
      </trkpt>
      <trkpt lat="42.668065" lon="0.64985">
        <ele>2151.3</ele>
        <time>1970-01-01T00:04:07.000Z</time>
      </trkpt>
      <trkpt lat="42.668063" lon="0.649858">
        <ele>2151.4</ele>
        <time>1970-01-01T00:04:08.000Z</time>
      </trkpt>
      <trkpt lat="42.668061" lon="0.649863">
        <ele>2151.5</ele>
        <time>1970-01-01T00:04:09.000Z</time>
      </trkpt>
      <trkpt lat="42.66806" lon="0.649866">
        <ele>2151.6</ele>
        <time>1970-01-01T00:04:10.000Z</time>
      </trkpt>
      <trkpt lat="42.668059" lon="0.649868">
        <ele>2151.6</ele>
        <time>1970-01-01T00:04:11.000Z</time>
      </trkpt>
      <trkpt lat="42.668058" lon="0.649869">
        <ele>2151.7</ele>
        <time>1970-01-01T00:04:12.000Z</time>
      </trkpt>
      <trkpt lat="42.668057" lon="0.649869">
        <ele>2151.7</ele>
        <time>1970-01-01T00:04:13.000Z</time>
      </trkpt>
      <trkpt lat="42.668055" lon="0.649868">
        <ele>2151.7</ele>
        <time>1970-01-01T00:04:14.000Z</time>
      </trkpt>
      <trkpt lat="42.668052" lon="0.649866">
        <ele>2151.8</ele>
        <time>1970-01-01T00:04:15.000Z</time>
      </trkpt>
      <trkpt lat="42.668047" lon="0.649863">
        <ele>2152</ele>
        <time>1970-01-01T00:04:16.000Z</time>
      </trkpt>
      <trkpt lat="42.66804" lon="0.649855">
        <ele>2152.2</ele>
        <time>1970-01-01T00:04:17.000Z</time>
      </trkpt>
      <trkpt lat="42.668033" lon="0.649848">
        <ele>2152.4</ele>
        <time>1970-01-01T00:04:18.000Z</time>
      </trkpt>
      <trkpt lat="42.668025" lon="0.649845">
        <ele>2152.6</ele>
        <time>1970-01-01T00:04:19.000Z</time>
      </trkpt>
      <trkpt lat="42.668017" lon="0.649842">
        <ele>2152.8</ele>
        <time>1970-01-01T00:04:20.000Z</time>
      </trkpt>
      <trkpt lat="42.66801" lon="0.64984">
        <ele>2153</ele>
        <time>1970-01-01T00:04:21.000Z</time>
      </trkpt>
      <trkpt lat="42.668004" lon="0.649837">
        <ele>2153.2</ele>
        <time>1970-01-01T00:04:22.000Z</time>
      </trkpt>
      <trkpt lat="42.667997" lon="0.649824">
        <ele>2153.5</ele>
        <time>1970-01-01T00:04:23.000Z</time>
      </trkpt>
      <trkpt lat="42.667997" lon="0.649814">
        <ele>2153.7</ele>
        <time>1970-01-01T00:04:24.000Z</time>
      </trkpt>
      <trkpt lat="42.668" lon="0.649803">
        <ele>2153.9</ele>
        <time>1970-01-01T00:04:26.000Z</time>
      </trkpt>
      <trkpt lat="42.668005" lon="0.649796">
        <ele>2154.1</ele>
        <time>1970-01-01T00:04:27.000Z</time>
      </trkpt>
      <trkpt lat="42.668009" lon="0.649792">
        <ele>2154.2</ele>
        <time>1970-01-01T00:04:28.000Z</time>
      </trkpt>
      <trkpt lat="42.668011" lon="0.649783">
        <ele>2154.4</ele>
        <time>1970-01-01T00:04:29.000Z</time>
      </trkpt>
      <trkpt lat="42.668011" lon="0.649778">
        <ele>2154.5</ele>
        <time>1970-01-01T00:04:30.000Z</time>
      </trkpt>
      <trkpt lat="42.668008" lon="0.649767">
        <ele>2154.7</ele>
        <time>1970-01-01T00:04:32.000Z</time>
      </trkpt>
      <trkpt lat="42.668006" lon="0.649756">
        <ele>2154.9</ele>
        <time>1970-01-01T00:04:33.000Z</time>
      </trkpt>
      <trkpt lat="42.668001" lon="0.649749">
        <ele>2155.1</ele>
        <time>1970-01-01T00:04:34.000Z</time>
      </trkpt>
      <trkpt lat="42.667994" lon="0.649749">
        <ele>2155.2</ele>
        <time>1970-01-01T00:04:35.000Z</time>
      </trkpt>
      <trkpt lat="42.667986" lon="0.649756">
        <ele>2155.5</ele>
        <time>1970-01-01T00:04:36.000Z</time>
      </trkpt>
      <trkpt lat="42.667981" lon="0.649762">
        <ele>2155.6</ele>
        <time>1970-01-01T00:04:37.000Z</time>
      </trkpt>
      <trkpt lat="42.667977" lon="0.64977">
        <ele>2155.8</ele>
        <time>1970-01-01T00:04:38.000Z</time>
      </trkpt>
      <trkpt lat="42.667973" lon="0.64978">
        <ele>2156</ele>
        <time>1970-01-01T00:04:39.000Z</time>
      </trkpt>
      <trkpt lat="42.667969" lon="0.649791">
        <ele>2156.3</ele>
        <time>1970-01-01T00:04:40.000Z</time>
      </trkpt>
      <trkpt lat="42.667967" lon="0.649805">
        <ele>2156.5</ele>
        <time>1970-01-01T00:04:41.000Z</time>
      </trkpt>
      <trkpt lat="42.667965" lon="0.649819">
        <ele>2156.8</ele>
        <time>1970-01-01T00:04:43.000Z</time>
      </trkpt>
      <trkpt lat="42.667964" lon="0.649834">
        <ele>2157.1</ele>
        <time>1970-01-01T00:04:44.000Z</time>
      </trkpt>
      <trkpt lat="42.667962" lon="0.649842">
        <ele>2157.3</ele>
        <time>1970-01-01T00:04:45.000Z</time>
      </trkpt>
      <trkpt lat="42.667958" lon="0.649851">
        <ele>2157.5</ele>
        <time>1970-01-01T00:04:46.000Z</time>
      </trkpt>
      <trkpt lat="42.667955" lon="0.649856">
        <ele>2157.6</ele>
        <time>1970-01-01T00:04:47.000Z</time>
      </trkpt>
      <trkpt lat="42.667951" lon="0.649862">
        <ele>2157.8</ele>
        <time>1970-01-01T00:04:48.000Z</time>
      </trkpt>
      <trkpt lat="42.667945" lon="0.649867">
        <ele>2158</ele>
        <time>1970-01-01T00:04:49.000Z</time>
      </trkpt>
      <trkpt lat="42.667941" lon="0.64987">
        <ele>2158.1</ele>
        <time>1970-01-01T00:04:50.000Z</time>
      </trkpt>
      <trkpt lat="42.667939" lon="0.649871">
        <ele>2158.1</ele>
        <time>1970-01-01T00:04:51.000Z</time>
      </trkpt>
      <trkpt lat="42.667937" lon="0.649872">
        <ele>2158.2</ele>
        <time>1970-01-01T00:04:53.000Z</time>
      </trkpt>
      <trkpt lat="42.667934" lon="0.649874">
        <ele>2158.3</ele>
        <time>1970-01-01T00:04:54.000Z</time>
      </trkpt>
      <trkpt lat="42.667931" lon="0.649875">
        <ele>2158.4</ele>
        <time>1970-01-01T00:04:55.000Z</time>
      </trkpt>
      <trkpt lat="42.667928" lon="0.649875">
        <ele>2158.5</ele>
        <time>1970-01-01T00:04:56.000Z</time>
      </trkpt>
      <trkpt lat="42.667917" lon="0.649872">
        <ele>2158.8</ele>
        <time>1970-01-01T00:04:58.000Z</time>
      </trkpt>
      <trkpt lat="42.667911" lon="0.649867">
        <ele>2159</ele>
        <time>1970-01-01T00:04:59.000Z</time>
      </trkpt>
      <trkpt lat="42.667905" lon="0.649861">
        <ele>2159.2</ele>
        <time>1970-01-01T00:05:00.000Z</time>
      </trkpt>
      <trkpt lat="42.6679" lon="0.649856">
        <ele>2159.3</ele>
        <time>1970-01-01T00:05:01.000Z</time>
      </trkpt>
      <trkpt lat="42.667895" lon="0.649853">
        <ele>2159.5</ele>
        <time>1970-01-01T00:05:02.000Z</time>
      </trkpt>
      <trkpt lat="42.667891" lon="0.649856">
        <ele>2159.6</ele>
        <time>1970-01-01T00:05:03.000Z</time>
      </trkpt>
      <trkpt lat="42.667886" lon="0.649862">
        <ele>2159.8</ele>
        <time>1970-01-01T00:05:04.000Z</time>
      </trkpt>
      <trkpt lat="42.667883" lon="0.649868">
        <ele>2159.9</ele>
        <time>1970-01-01T00:05:05.000Z</time>
      </trkpt>
      <trkpt lat="42.667882" lon="0.649873">
        <ele>2160</ele>
        <time>1970-01-01T00:05:06.000Z</time>
      </trkpt>
      <trkpt lat="42.667882" lon="0.649876">
        <ele>2160.1</ele>
        <time>1970-01-01T00:05:07.000Z</time>
      </trkpt>
      <trkpt lat="42.667881" lon="0.64988">
        <ele>2160.2</ele>
        <time>1970-01-01T00:05:08.000Z</time>
      </trkpt>
      <trkpt lat="42.667879" lon="0.649882">
        <ele>2160.2</ele>
        <time>1970-01-01T00:05:09.000Z</time>
      </trkpt>
      <trkpt lat="42.667877" lon="0.649885">
        <ele>2160.3</ele>
        <time>1970-01-01T00:05:11.000Z</time>
      </trkpt>
      <trkpt lat="42.667875" lon="0.649887">
        <ele>2160.4</ele>
        <time>1970-01-01T00:05:12.000Z</time>
      </trkpt>
      <trkpt lat="42.667872" lon="0.64989">
        <ele>2160.5</ele>
        <time>1970-01-01T00:05:13.000Z</time>
      </trkpt>
      <trkpt lat="42.667866" lon="0.649896">
        <ele>2160.7</ele>
        <time>1970-01-01T00:05:15.000Z</time>
      </trkpt>
      <trkpt lat="42.667864" lon="0.6499">
        <ele>2160.8</ele>
        <time>1970-01-01T00:05:16.000Z</time>
      </trkpt>
      <trkpt lat="42.667862" lon="0.649904">
        <ele>2160.9</ele>
        <time>1970-01-01T00:05:17.000Z</time>
      </trkpt>
      <trkpt lat="42.66786" lon="0.649913">
        <ele>2161.1</ele>
        <time>1970-01-01T00:05:18.000Z</time>
      </trkpt>
      <trkpt lat="42.667859" lon="0.649926">
        <ele>2161.3</ele>
        <time>1970-01-01T00:05:20.000Z</time>
      </trkpt>
      <trkpt lat="42.66786" lon="0.649938">
        <ele>2161.6</ele>
        <time>1970-01-01T00:05:21.000Z</time>
      </trkpt>
      <trkpt lat="42.667861" lon="0.649948">
        <ele>2161.8</ele>
        <time>1970-01-01T00:05:22.000Z</time>
      </trkpt>
      <trkpt lat="42.667862" lon="0.649955">
        <ele>2161.9</ele>
        <time>1970-01-01T00:05:23.000Z</time>
      </trkpt>
      <trkpt lat="42.667855" lon="0.649972">
        <ele>2162.3</ele>
        <time>1970-01-01T00:05:25.000Z</time>
      </trkpt>
      <trkpt lat="42.66785" lon="0.649977">
        <ele>2162.5</ele>
        <time>1970-01-01T00:05:26.000Z</time>
      </trkpt>
      <trkpt lat="42.667841" lon="0.649986">
        <ele>2162.8</ele>
        <time>1970-01-01T00:05:28.000Z</time>
      </trkpt>
      <trkpt lat="42.667838" lon="0.649991">
        <ele>2162.9</ele>
        <time>1970-01-01T00:05:29.000Z</time>
      </trkpt>
      <trkpt lat="42.667836" lon="0.649995">
        <ele>2163</ele>
        <time>1970-01-01T00:05:30.000Z</time>
      </trkpt>
      <trkpt lat="42.667834" lon="0.649997">
        <ele>2163.1</ele>
        <time>1970-01-01T00:05:31.000Z</time>
      </trkpt>
      <trkpt lat="42.667831" lon="0.649996">
        <ele>2163.2</ele>
        <time>1970-01-01T00:05:32.000Z</time>
      </trkpt>
      <trkpt lat="42.667827" lon="0.649996">
        <ele>2163.3</ele>
        <time>1970-01-01T00:05:33.000Z</time>
      </trkpt>
      <trkpt lat="42.667825" lon="0.649995">
        <ele>2163.3</ele>
        <time>1970-01-01T00:05:34.000Z</time>
      </trkpt>
      <trkpt lat="42.667821" lon="0.649995">
        <ele>2163.4</ele>
        <time>1970-01-01T00:05:35.000Z</time>
      </trkpt>
      <trkpt lat="42.667818" lon="0.649996">
        <ele>2163.5</ele>
        <time>1970-01-01T00:05:36.000Z</time>
      </trkpt>
      <trkpt lat="42.667815" lon="0.649998">
        <ele>2163.6</ele>
        <time>1970-01-01T00:05:37.000Z</time>
      </trkpt>
      <trkpt lat="42.667812" lon="0.650002">
        <ele>2163.7</ele>
        <time>1970-01-01T00:05:38.000Z</time>
      </trkpt>
      <trkpt lat="42.667806" lon="0.650009">
        <ele>2164</ele>
        <time>1970-01-01T00:05:40.000Z</time>
      </trkpt>
      <trkpt lat="42.667803" lon="0.650015">
        <ele>2164.1</ele>
        <time>1970-01-01T00:05:41.000Z</time>
      </trkpt>
      <trkpt lat="42.667801" lon="0.650019">
        <ele>2164.2</ele>
        <time>1970-01-01T00:05:42.000Z</time>
      </trkpt>
      <trkpt lat="42.667799" lon="0.650023">
        <ele>2164.3</ele>
        <time>1970-01-01T00:05:44.000Z</time>
      </trkpt>
      <trkpt lat="42.667794" lon="0.650024">
        <ele>2164.4</ele>
        <time>1970-01-01T00:05:45.000Z</time>
      </trkpt>
      <trkpt lat="42.667789" lon="0.650021">
        <ele>2164.6</ele>
        <time>1970-01-01T00:05:46.000Z</time>
      </trkpt>
      <trkpt lat="42.667785" lon="0.650017">
        <ele>2164.7</ele>
        <time>1970-01-01T00:05:47.000Z</time>
      </trkpt>
      <trkpt lat="42.667781" lon="0.650012">
        <ele>2164.9</ele>
        <time>1970-01-01T00:05:48.000Z</time>
      </trkpt>
      <trkpt lat="42.667778" lon="0.65001">
        <ele>2165</ele>
        <time>1970-01-01T00:05:49.000Z</time>
      </trkpt>
      <trkpt lat="42.667774" lon="0.650009">
        <ele>2165.1</ele>
        <time>1970-01-01T00:05:50.000Z</time>
      </trkpt>
      <trkpt lat="42.667771" lon="0.650008">
        <ele>2165.1</ele>
        <time>1970-01-01T00:05:51.000Z</time>
      </trkpt>
      <trkpt lat="42.667769" lon="0.650007">
        <ele>2165.2</ele>
        <time>1970-01-01T00:05:52.000Z</time>
      </trkpt>
      <trkpt lat="42.667765" lon="0.650006">
        <ele>2165.3</ele>
        <time>1970-01-01T00:05:53.000Z</time>
      </trkpt>
      <trkpt lat="42.667761" lon="0.650004">
        <ele>2165.4</ele>
        <time>1970-01-01T00:05:54.000Z</time>
      </trkpt>
      <trkpt lat="42.667756" lon="0.650002">
        <ele>2165.6</ele>
        <time>1970-01-01T00:05:55.000Z</time>
      </trkpt>
      <trkpt lat="42.667752" lon="0.650001">
        <ele>2165.7</ele>
        <time>1970-01-01T00:05:56.000Z</time>
      </trkpt>
      <trkpt lat="42.667749" lon="0.650003">
        <ele>2165.8</ele>
        <time>1970-01-01T00:05:57.000Z</time>
      </trkpt>
      <trkpt lat="42.667749" lon="0.65001">
        <ele>2165.9</ele>
        <time>1970-01-01T00:05:58.000Z</time>
      </trkpt>
      <trkpt lat="42.667748" lon="0.650018">
        <ele>2166.1</ele>
        <time>1970-01-01T00:05:59.000Z</time>
      </trkpt>
      <trkpt lat="42.667747" lon="0.650024">
        <ele>2166.2</ele>
        <time>1970-01-01T00:06:00.000Z</time>
      </trkpt>
      <trkpt lat="42.667742" lon="0.650032">
        <ele>2166.4</ele>
        <time>1970-01-01T00:06:01.000Z</time>
      </trkpt>
      <trkpt lat="42.667734" lon="0.650036">
        <ele>2166.6</ele>
        <time>1970-01-01T00:06:03.000Z</time>
      </trkpt>
      <trkpt lat="42.667725" lon="0.650034">
        <ele>2166.9</ele>
        <time>1970-01-01T00:06:04.000Z</time>
      </trkpt>
      <trkpt lat="42.667716" lon="0.650027">
        <ele>2167.1</ele>
        <time>1970-01-01T00:06:05.000Z</time>
      </trkpt>
      <trkpt lat="42.667711" lon="0.650015">
        <ele>2167.4</ele>
        <time>1970-01-01T00:06:07.000Z</time>
      </trkpt>
      <trkpt lat="42.66771" lon="0.650006">
        <ele>2167.6</ele>
        <time>1970-01-01T00:06:08.000Z</time>
      </trkpt>
      <trkpt lat="42.66771" lon="0.649998">
        <ele>2167.7</ele>
        <time>1970-01-01T00:06:09.000Z</time>
      </trkpt>
      <trkpt lat="42.667711" lon="0.649989">
        <ele>2167.9</ele>
        <time>1970-01-01T00:06:10.000Z</time>
      </trkpt>
      <trkpt lat="42.667712" lon="0.649981">
        <ele>2168.1</ele>
        <time>1970-01-01T00:06:11.000Z</time>
      </trkpt>
      <trkpt lat="42.667714" lon="0.649974">
        <ele>2168.2</ele>
        <time>1970-01-01T00:06:12.000Z</time>
      </trkpt>
      <trkpt lat="42.667717" lon="0.649966">
        <ele>2168.4</ele>
        <time>1970-01-01T00:06:14.000Z</time>
      </trkpt>
      <trkpt lat="42.66772" lon="0.649956">
        <ele>2168.6</ele>
        <time>1970-01-01T00:06:15.000Z</time>
      </trkpt>
      <trkpt lat="42.667721" lon="0.64995">
        <ele>2168.7</ele>
        <time>1970-01-01T00:06:16.000Z</time>
      </trkpt>
      <trkpt lat="42.667721" lon="0.649944">
        <ele>2168.8</ele>
        <time>1970-01-01T00:06:17.000Z</time>
      </trkpt>
      <trkpt lat="42.66772" lon="0.64994">
        <ele>2168.9</ele>
        <time>1970-01-01T00:06:18.000Z</time>
      </trkpt>
      <trkpt lat="42.667718" lon="0.649936">
        <ele>2169</ele>
        <time>1970-01-01T00:06:19.000Z</time>
      </trkpt>
      <trkpt lat="42.667715" lon="0.649932">
        <ele>2169.1</ele>
        <time>1970-01-01T00:06:20.000Z</time>
      </trkpt>
      <trkpt lat="42.667712" lon="0.64993">
        <ele>2169.2</ele>
        <time>1970-01-01T00:06:21.000Z</time>
      </trkpt>
      <trkpt lat="42.66771" lon="0.649923">
        <ele>2169.3</ele>
        <time>1970-01-01T00:06:23.000Z</time>
      </trkpt>
      <trkpt lat="42.667709" lon="0.649918">
        <ele>2169.4</ele>
        <time>1970-01-01T00:06:24.000Z</time>
      </trkpt>
      <trkpt lat="42.667709" lon="0.649912">
        <ele>2169.5</ele>
        <time>1970-01-01T00:06:25.000Z</time>
      </trkpt>
      <trkpt lat="42.667709" lon="0.649907">
        <ele>2169.6</ele>
        <time>1970-01-01T00:06:26.000Z</time>
      </trkpt>
      <trkpt lat="42.667709" lon="0.649901">
        <ele>2169.7</ele>
        <time>1970-01-01T00:06:27.000Z</time>
      </trkpt>
      <trkpt lat="42.667707" lon="0.649898">
        <ele>2169.8</ele>
        <time>1970-01-01T00:06:28.000Z</time>
      </trkpt>
      <trkpt lat="42.667706" lon="0.649895">
        <ele>2169.9</ele>
        <time>1970-01-01T00:06:29.000Z</time>
      </trkpt>
      <trkpt lat="42.667704" lon="0.649891">
        <ele>2170</ele>
        <time>1970-01-01T00:06:30.000Z</time>
      </trkpt>
      <trkpt lat="42.667702" lon="0.649888">
        <ele>2170</ele>
        <time>1970-01-01T00:06:31.000Z</time>
      </trkpt>
      <trkpt lat="42.667701" lon="0.649884">
        <ele>2170.1</ele>
        <time>1970-01-01T00:06:32.000Z</time>
      </trkpt>
      <trkpt lat="42.667701" lon="0.649881">
        <ele>2170.2</ele>
        <time>1970-01-01T00:06:33.000Z</time>
      </trkpt>
      <trkpt lat="42.6677" lon="0.649876">
        <ele>2170.3</ele>
        <time>1970-01-01T00:06:34.000Z</time>
      </trkpt>
      <trkpt lat="42.667699" lon="0.649865">
        <ele>2170.5</ele>
        <time>1970-01-01T00:06:36.000Z</time>
      </trkpt>
      <trkpt lat="42.6677" lon="0.649856">
        <ele>2170.7</ele>
        <time>1970-01-01T00:06:37.000Z</time>
      </trkpt>
      <trkpt lat="42.667705" lon="0.64985">
        <ele>2170.8</ele>
        <time>1970-01-01T00:06:39.000Z</time>
      </trkpt>
      <trkpt lat="42.667712" lon="0.649846">
        <ele>2171</ele>
        <time>1970-01-01T00:06:40.000Z</time>
      </trkpt>
      <trkpt lat="42.667716" lon="0.649846">
        <ele>2171.1</ele>
        <time>1970-01-01T00:06:41.000Z</time>
      </trkpt>
      <trkpt lat="42.667726" lon="0.64984">
        <ele>2171.4</ele>
        <time>1970-01-01T00:06:43.000Z</time>
      </trkpt>
      <trkpt lat="42.667726" lon="0.649835">
        <ele>2171.5</ele>
        <time>1970-01-01T00:06:44.000Z</time>
      </trkpt>
      <trkpt lat="42.667725" lon="0.649829">
        <ele>2171.6</ele>
        <time>1970-01-01T00:06:46.000Z</time>
      </trkpt>
      <trkpt lat="42.667726" lon="0.649828">
        <ele>2171.7</ele>
        <time>1970-01-01T00:06:47.000Z</time>
      </trkpt>
      <trkpt lat="42.667729" lon="0.649826">
        <ele>2171.8</ele>
        <time>1970-01-01T00:06:48.000Z</time>
      </trkpt>
      <trkpt lat="42.667731" lon="0.649824">
        <ele>2171.8</ele>
        <time>1970-01-01T00:06:49.000Z</time>
      </trkpt>
      <trkpt lat="42.667733" lon="0.649822">
        <ele>2171.9</ele>
        <time>1970-01-01T00:06:50.000Z</time>
      </trkpt>
      <trkpt lat="42.667734" lon="0.649817">
        <ele>2172</ele>
        <time>1970-01-01T00:06:51.000Z</time>
      </trkpt>
      <trkpt lat="42.667734" lon="0.649812">
        <ele>2172.1</ele>
        <time>1970-01-01T00:06:52.000Z</time>
      </trkpt>
      <trkpt lat="42.667734" lon="0.649807">
        <ele>2172.2</ele>
        <time>1970-01-01T00:06:53.000Z</time>
      </trkpt>
      <trkpt lat="42.667734" lon="0.649806">
        <ele>2172.2</ele>
        <time>1970-01-01T00:06:54.000Z</time>
      </trkpt>
      <trkpt lat="42.667736" lon="0.649805">
        <ele>2172.3</ele>
        <time>1970-01-01T00:06:55.000Z</time>
      </trkpt>
      <trkpt lat="42.66774" lon="0.649804">
        <ele>2172.4</ele>
        <time>1970-01-01T00:06:56.000Z</time>
      </trkpt>
      <trkpt lat="42.667744" lon="0.6498">
        <ele>2172.5</ele>
        <time>1970-01-01T00:06:57.000Z</time>
      </trkpt>
      <trkpt lat="42.667745" lon="0.649797">
        <ele>2172.5</ele>
        <time>1970-01-01T00:06:58.000Z</time>
      </trkpt>
      <trkpt lat="42.667747" lon="0.649792">
        <ele>2172.7</ele>
        <time>1970-01-01T00:06:59.000Z</time>
      </trkpt>
      <trkpt lat="42.66775" lon="0.649787">
        <ele>2172.8</ele>
        <time>1970-01-01T00:07:00.000Z</time>
      </trkpt>
      <trkpt lat="42.667755" lon="0.649783">
        <ele>2172.9</ele>
        <time>1970-01-01T00:07:01.000Z</time>
      </trkpt>
      <trkpt lat="42.66776" lon="0.649775">
        <ele>2173.1</ele>
        <time>1970-01-01T00:07:02.000Z</time>
      </trkpt>
      <trkpt lat="42.667763" lon="0.649768">
        <ele>2173.3</ele>
        <time>1970-01-01T00:07:03.000Z</time>
      </trkpt>
      <trkpt lat="42.667765" lon="0.649757">
        <ele>2173.5</ele>
        <time>1970-01-01T00:07:04.000Z</time>
      </trkpt>
      <trkpt lat="42.667765" lon="0.649744">
        <ele>2173.7</ele>
        <time>1970-01-01T00:07:05.000Z</time>
      </trkpt>
      <trkpt lat="42.667765" lon="0.649734">
        <ele>2173.9</ele>
        <time>1970-01-01T00:07:06.000Z</time>
      </trkpt>
      <trkpt lat="42.667762" lon="0.649716">
        <ele>2174.2</ele>
        <time>1970-01-01T00:07:07.000Z</time>
      </trkpt>
      <trkpt lat="42.667759" lon="0.649699">
        <ele>2174.5</ele>
        <time>1970-01-01T00:07:09.000Z</time>
      </trkpt>
      <trkpt lat="42.667752" lon="0.649683">
        <ele>2174.8</ele>
        <time>1970-01-01T00:07:10.000Z</time>
      </trkpt>
      <trkpt lat="42.667745" lon="0.649671">
        <ele>2175.1</ele>
        <time>1970-01-01T00:07:11.000Z</time>
      </trkpt>
      <trkpt lat="42.667738" lon="0.649663">
        <ele>2175.3</ele>
        <time>1970-01-01T00:07:12.000Z</time>
      </trkpt>
      <trkpt lat="42.667719" lon="0.649648">
        <ele>2175.8</ele>
        <time>1970-01-01T00:07:14.000Z</time>
      </trkpt>
      <trkpt lat="42.667711" lon="0.649644">
        <ele>2176</ele>
        <time>1970-01-01T00:07:15.000Z</time>
      </trkpt>
      <trkpt lat="42.667703" lon="0.649638">
        <ele>2176.2</ele>
        <time>1970-01-01T00:07:16.000Z</time>
      </trkpt>
      <trkpt lat="42.667696" lon="0.649632">
        <ele>2176.4</ele>
        <time>1970-01-01T00:07:17.000Z</time>
      </trkpt>
      <trkpt lat="42.667691" lon="0.649627">
        <ele>2176.6</ele>
        <time>1970-01-01T00:07:18.000Z</time>
      </trkpt>
      <trkpt lat="42.667689" lon="0.649621">
        <ele>2176.7</ele>
        <time>1970-01-01T00:07:19.000Z</time>
      </trkpt>
      <trkpt lat="42.667687" lon="0.649617">
        <ele>2176.7</ele>
        <time>1970-01-01T00:07:20.000Z</time>
      </trkpt>
      <trkpt lat="42.667685" lon="0.649613">
        <ele>2176.8</ele>
        <time>1970-01-01T00:07:21.000Z</time>
      </trkpt>
      <trkpt lat="42.667684" lon="0.649607">
        <ele>2176.9</ele>
        <time>1970-01-01T00:07:22.000Z</time>
      </trkpt>
      <trkpt lat="42.667682" lon="0.649599">
        <ele>2177.1</ele>
        <time>1970-01-01T00:07:23.000Z</time>
      </trkpt>
      <trkpt lat="42.66768" lon="0.649593">
        <ele>2177.2</ele>
        <time>1970-01-01T00:07:24.000Z</time>
      </trkpt>
      <trkpt lat="42.667677" lon="0.649588">
        <ele>2177.3</ele>
        <time>1970-01-01T00:07:25.000Z</time>
      </trkpt>
      <trkpt lat="42.667672" lon="0.649585">
        <ele>2177.4</ele>
        <time>1970-01-01T00:07:26.000Z</time>
      </trkpt>
      <trkpt lat="42.667669" lon="0.649582">
        <ele>2177.5</ele>
        <time>1970-01-01T00:07:27.000Z</time>
      </trkpt>
      <trkpt lat="42.667664" lon="0.649579">
        <ele>2177.6</ele>
        <time>1970-01-01T00:07:28.000Z</time>
      </trkpt>
      <trkpt lat="42.667659" lon="0.649576">
        <ele>2177.7</ele>
        <time>1970-01-01T00:07:29.000Z</time>
      </trkpt>
      <trkpt lat="42.667656" lon="0.649571">
        <ele>2177.9</ele>
        <time>1970-01-01T00:07:30.000Z</time>
      </trkpt>
      <trkpt lat="42.667654" lon="0.649564">
        <ele>2178</ele>
        <time>1970-01-01T00:07:31.000Z</time>
      </trkpt>
      <trkpt lat="42.667654" lon="0.649551">
        <ele>2178.2</ele>
        <time>1970-01-01T00:07:33.000Z</time>
      </trkpt>
      <trkpt lat="42.667656" lon="0.649533">
        <ele>2178.5</ele>
        <time>1970-01-01T00:07:35.000Z</time>
      </trkpt>
      <trkpt lat="42.667655" lon="0.649522">
        <ele>2178.7</ele>
        <time>1970-01-01T00:07:36.000Z</time>
      </trkpt>
      <trkpt lat="42.667654" lon="0.649514">
        <ele>2178.8</ele>
        <time>1970-01-01T00:07:37.000Z</time>
      </trkpt>
      <trkpt lat="42.667654" lon="0.6495">
        <ele>2179.1</ele>
        <time>1970-01-01T00:07:38.000Z</time>
      </trkpt>
      <trkpt lat="42.667652" lon="0.649489">
        <ele>2179.2</ele>
        <time>1970-01-01T00:07:40.000Z</time>
      </trkpt>
      <trkpt lat="42.66765" lon="0.649481">
        <ele>2179.4</ele>
        <time>1970-01-01T00:07:41.000Z</time>
      </trkpt>
      <trkpt lat="42.667648" lon="0.649473">
        <ele>2179.5</ele>
        <time>1970-01-01T00:07:42.000Z</time>
      </trkpt>
      <trkpt lat="42.667645" lon="0.649461">
        <ele>2179.7</ele>
        <time>1970-01-01T00:07:44.000Z</time>
      </trkpt>
      <trkpt lat="42.667643" lon="0.649455">
        <ele>2179.8</ele>
        <time>1970-01-01T00:07:45.000Z</time>
      </trkpt>
      <trkpt lat="42.667639" lon="0.649449">
        <ele>2180</ele>
        <time>1970-01-01T00:07:46.000Z</time>
      </trkpt>
      <trkpt lat="42.667633" lon="0.649444">
        <ele>2180.1</ele>
        <time>1970-01-01T00:07:47.000Z</time>
      </trkpt>
      <trkpt lat="42.667626" lon="0.649444">
        <ele>2180.3</ele>
        <time>1970-01-01T00:07:48.000Z</time>
      </trkpt>
      <trkpt lat="42.667622" lon="0.649447">
        <ele>2180.4</ele>
        <time>1970-01-01T00:07:49.000Z</time>
      </trkpt>
      <trkpt lat="42.667616" lon="0.649452">
        <ele>2180.6</ele>
        <time>1970-01-01T00:07:50.000Z</time>
      </trkpt>
      <trkpt lat="42.66761" lon="0.649457">
        <ele>2180.7</ele>
        <time>1970-01-01T00:07:51.000Z</time>
      </trkpt>
      <trkpt lat="42.667605" lon="0.649458">
        <ele>2180.8</ele>
        <time>1970-01-01T00:07:52.000Z</time>
      </trkpt>
      <trkpt lat="42.6676" lon="0.649456">
        <ele>2181</ele>
        <time>1970-01-01T00:07:53.000Z</time>
      </trkpt>
      <trkpt lat="42.667593" lon="0.649453">
        <ele>2181.1</ele>
        <time>1970-01-01T00:07:54.000Z</time>
      </trkpt>
      <trkpt lat="42.66759" lon="0.64945">
        <ele>2181.2</ele>
        <time>1970-01-01T00:07:55.000Z</time>
      </trkpt>
      <trkpt lat="42.667585" lon="0.649446">
        <ele>2181.3</ele>
        <time>1970-01-01T00:07:56.000Z</time>
      </trkpt>
      <trkpt lat="42.667583" lon="0.649441">
        <ele>2181.4</ele>
        <time>1970-01-01T00:07:57.000Z</time>
      </trkpt>
      <trkpt lat="42.667583" lon="0.649434">
        <ele>2181.6</ele>
        <time>1970-01-01T00:07:58.000Z</time>
      </trkpt>
      <trkpt lat="42.667582" lon="0.649425">
        <ele>2181.7</ele>
        <time>1970-01-01T00:07:59.000Z</time>
      </trkpt>
      <trkpt lat="42.667574" lon="0.649416">
        <ele>2181.9</ele>
        <time>1970-01-01T00:08:01.000Z</time>
      </trkpt>
      <trkpt lat="42.667568" lon="0.649413">
        <ele>2182.1</ele>
        <time>1970-01-01T00:08:02.000Z</time>
      </trkpt>
      <trkpt lat="42.667561" lon="0.649411">
        <ele>2182.2</ele>
        <time>1970-01-01T00:08:03.000Z</time>
      </trkpt>
      <trkpt lat="42.667552" lon="0.649408">
        <ele>2182.5</ele>
        <time>1970-01-01T00:08:04.000Z</time>
      </trkpt>
      <trkpt lat="42.667541" lon="0.649405">
        <ele>2182.7</ele>
        <time>1970-01-01T00:08:06.000Z</time>
      </trkpt>
      <trkpt lat="42.667537" lon="0.649398">
        <ele>2182.9</ele>
        <time>1970-01-01T00:08:08.000Z</time>
      </trkpt>
      <trkpt lat="42.667538" lon="0.64939">
        <ele>2183</ele>
        <time>1970-01-01T00:08:09.000Z</time>
      </trkpt>
      <trkpt lat="42.667542" lon="0.649383">
        <ele>2183.1</ele>
        <time>1970-01-01T00:08:10.000Z</time>
      </trkpt>
      <trkpt lat="42.667546" lon="0.649372">
        <ele>2183.3</ele>
        <time>1970-01-01T00:08:12.000Z</time>
      </trkpt>
      <trkpt lat="42.667548" lon="0.649367">
        <ele>2183.4</ele>
        <time>1970-01-01T00:08:13.000Z</time>
      </trkpt>
      <trkpt lat="42.667547" lon="0.64936">
        <ele>2183.6</ele>
        <time>1970-01-01T00:08:14.000Z</time>
      </trkpt>
      <trkpt lat="42.667545" lon="0.649358">
        <ele>2183.6</ele>
        <time>1970-01-01T00:08:15.000Z</time>
      </trkpt>
      <trkpt lat="42.667543" lon="0.649357">
        <ele>2183.7</ele>
        <time>1970-01-01T00:08:16.000Z</time>
      </trkpt>
      <trkpt lat="42.667539" lon="0.649353">
        <ele>2183.8</ele>
        <time>1970-01-01T00:08:17.000Z</time>
      </trkpt>
      <trkpt lat="42.667534" lon="0.649351">
        <ele>2183.9</ele>
        <time>1970-01-01T00:08:18.000Z</time>
      </trkpt>
      <trkpt lat="42.667528" lon="0.649348">
        <ele>2184</ele>
        <time>1970-01-01T00:08:19.000Z</time>
      </trkpt>
      <trkpt lat="42.667522" lon="0.649339">
        <ele>2184.2</ele>
        <time>1970-01-01T00:08:21.000Z</time>
      </trkpt>
      <trkpt lat="42.667518" lon="0.649331">
        <ele>2184.4</ele>
        <time>1970-01-01T00:08:22.000Z</time>
      </trkpt>
      <trkpt lat="42.667515" lon="0.649322">
        <ele>2184.6</ele>
        <time>1970-01-01T00:08:23.000Z</time>
      </trkpt>
      <trkpt lat="42.667512" lon="0.649316">
        <ele>2184.7</ele>
        <time>1970-01-01T00:08:24.000Z</time>
      </trkpt>
      <trkpt lat="42.667507" lon="0.649306">
        <ele>2184.9</ele>
        <time>1970-01-01T00:08:26.000Z</time>
      </trkpt>
      <trkpt lat="42.667502" lon="0.649303">
        <ele>2185</ele>
        <time>1970-01-01T00:08:27.000Z</time>
      </trkpt>
      <trkpt lat="42.667499" lon="0.6493">
        <ele>2185.1</ele>
        <time>1970-01-01T00:08:28.000Z</time>
      </trkpt>
      <trkpt lat="42.667493" lon="0.649297">
        <ele>2185.3</ele>
        <time>1970-01-01T00:08:29.000Z</time>
      </trkpt>
      <trkpt lat="42.667486" lon="0.649296">
        <ele>2185.4</ele>
        <time>1970-01-01T00:08:30.000Z</time>
      </trkpt>
      <trkpt lat="42.667479" lon="0.649297">
        <ele>2185.6</ele>
        <time>1970-01-01T00:08:31.000Z</time>
      </trkpt>
      <trkpt lat="42.667472" lon="0.6493">
        <ele>2185.8</ele>
        <time>1970-01-01T00:08:32.000Z</time>
      </trkpt>
      <trkpt lat="42.667462" lon="0.649306">
        <ele>2186</ele>
        <time>1970-01-01T00:08:33.000Z</time>
      </trkpt>
      <trkpt lat="42.667453" lon="0.649306">
        <ele>2186.3</ele>
        <time>1970-01-01T00:08:35.000Z</time>
      </trkpt>
      <trkpt lat="42.66745" lon="0.649304">
        <ele>2186.3</ele>
        <time>1970-01-01T00:08:36.000Z</time>
      </trkpt>
      <trkpt lat="42.667446" lon="0.6493">
        <ele>2186.5</ele>
        <time>1970-01-01T00:08:37.000Z</time>
      </trkpt>
      <trkpt lat="42.667443" lon="0.649294">
        <ele>2186.6</ele>
        <time>1970-01-01T00:08:38.000Z</time>
      </trkpt>
      <trkpt lat="42.667439" lon="0.649287">
        <ele>2186.7</ele>
        <time>1970-01-01T00:08:39.000Z</time>
      </trkpt>
      <trkpt lat="42.667434" lon="0.649281">
        <ele>2186.9</ele>
        <time>1970-01-01T00:08:40.000Z</time>
      </trkpt>
      <trkpt lat="42.667428" lon="0.64927">
        <ele>2187.1</ele>
        <time>1970-01-01T00:08:42.000Z</time>
      </trkpt>
      <trkpt lat="42.667424" lon="0.649264">
        <ele>2187.3</ele>
        <time>1970-01-01T00:08:43.000Z</time>
      </trkpt>
      <trkpt lat="42.66742" lon="0.649257">
        <ele>2187.4</ele>
        <time>1970-01-01T00:08:44.000Z</time>
      </trkpt>
      <trkpt lat="42.667419" lon="0.649251">
        <ele>2187.5</ele>
        <time>1970-01-01T00:08:45.000Z</time>
      </trkpt>
      <trkpt lat="42.667416" lon="0.649245">
        <ele>2187.7</ele>
        <time>1970-01-01T00:08:46.000Z</time>
      </trkpt>
      <trkpt lat="42.667413" lon="0.649241">
        <ele>2187.8</ele>
        <time>1970-01-01T00:08:48.000Z</time>
      </trkpt>
      <trkpt lat="42.667411" lon="0.649238">
        <ele>2187.8</ele>
        <time>1970-01-01T00:08:49.000Z</time>
      </trkpt>
      <trkpt lat="42.667409" lon="0.649236">
        <ele>2187.9</ele>
        <time>1970-01-01T00:08:50.000Z</time>
      </trkpt>
      <trkpt lat="42.667406" lon="0.649235">
        <ele>2188</ele>
        <time>1970-01-01T00:08:51.000Z</time>
      </trkpt>
      <trkpt lat="42.667403" lon="0.649232">
        <ele>2188</ele>
        <time>1970-01-01T00:08:53.000Z</time>
      </trkpt>
      <trkpt lat="42.667401" lon="0.64923">
        <ele>2188.1</ele>
        <time>1970-01-01T00:08:54.000Z</time>
      </trkpt>
      <trkpt lat="42.667399" lon="0.649232">
        <ele>2188.2</ele>
        <time>1970-01-01T00:08:55.000Z</time>
      </trkpt>
      <trkpt lat="42.667394" lon="0.649232">
        <ele>2188.3</ele>
        <time>1970-01-01T00:08:57.000Z</time>
      </trkpt>
      <trkpt lat="42.667388" lon="0.649231">
        <ele>2188.4</ele>
        <time>1970-01-01T00:08:58.000Z</time>
      </trkpt>
      <trkpt lat="42.667382" lon="0.649232">
        <ele>2188.6</ele>
        <time>1970-01-01T00:08:59.000Z</time>
      </trkpt>
      <trkpt lat="42.667377" lon="0.649233">
        <ele>2188.7</ele>
        <time>1970-01-01T00:09:00.000Z</time>
      </trkpt>
      <trkpt lat="42.667373" lon="0.649234">
        <ele>2188.8</ele>
        <time>1970-01-01T00:09:01.000Z</time>
      </trkpt>
      <trkpt lat="42.667366" lon="0.649234">
        <ele>2188.9</ele>
        <time>1970-01-01T00:09:02.000Z</time>
      </trkpt>
      <trkpt lat="42.667361" lon="0.649234">
        <ele>2189.1</ele>
        <time>1970-01-01T00:09:03.000Z</time>
      </trkpt>
      <trkpt lat="42.667355" lon="0.649229">
        <ele>2189.2</ele>
        <time>1970-01-01T00:09:04.000Z</time>
      </trkpt>
      <trkpt lat="42.667353" lon="0.649222">
        <ele>2189.4</ele>
        <time>1970-01-01T00:09:05.000Z</time>
      </trkpt>
      <trkpt lat="42.667348" lon="0.649212">
        <ele>2189.6</ele>
        <time>1970-01-01T00:09:07.000Z</time>
      </trkpt>
      <trkpt lat="42.667343" lon="0.649208">
        <ele>2189.7</ele>
        <time>1970-01-01T00:09:08.000Z</time>
      </trkpt>
      <trkpt lat="42.667338" lon="0.649206">
        <ele>2189.8</ele>
        <time>1970-01-01T00:09:09.000Z</time>
      </trkpt>
      <trkpt lat="42.667331" lon="0.6492">
        <ele>2190</ele>
        <time>1970-01-01T00:09:10.000Z</time>
      </trkpt>
      <trkpt lat="42.667322" lon="0.649193">
        <ele>2190.2</ele>
        <time>1970-01-01T00:09:11.000Z</time>
      </trkpt>
      <trkpt lat="42.667317" lon="0.649188">
        <ele>2190.4</ele>
        <time>1970-01-01T00:09:12.000Z</time>
      </trkpt>
      <trkpt lat="42.667309" lon="0.649181">
        <ele>2190.6</ele>
        <time>1970-01-01T00:09:13.000Z</time>
      </trkpt>
      <trkpt lat="42.667305" lon="0.649164">
        <ele>2190.8</ele>
        <time>1970-01-01T00:09:15.000Z</time>
      </trkpt>
      <trkpt lat="42.667305" lon="0.64915">
        <ele>2191</ele>
        <time>1970-01-01T00:09:16.000Z</time>
      </trkpt>
      <trkpt lat="42.667308" lon="0.649141">
        <ele>2191.2</ele>
        <time>1970-01-01T00:09:17.000Z</time>
      </trkpt>
      <trkpt lat="42.66731" lon="0.649136">
        <ele>2191.3</ele>
        <time>1970-01-01T00:09:18.000Z</time>
      </trkpt>
      <trkpt lat="42.667311" lon="0.649133">
        <ele>2191.3</ele>
        <time>1970-01-01T00:09:19.000Z</time>
      </trkpt>
      <trkpt lat="42.667309" lon="0.649129">
        <ele>2191.4</ele>
        <time>1970-01-01T00:09:20.000Z</time>
      </trkpt>
      <trkpt lat="42.667308" lon="0.649124">
        <ele>2191.4</ele>
        <time>1970-01-01T00:09:21.000Z</time>
      </trkpt>
      <trkpt lat="42.667307" lon="0.649119">
        <ele>2191.5</ele>
        <time>1970-01-01T00:09:22.000Z</time>
      </trkpt>
      <trkpt lat="42.667307" lon="0.649111">
        <ele>2191.6</ele>
        <time>1970-01-01T00:09:23.000Z</time>
      </trkpt>
      <trkpt lat="42.667308" lon="0.6491">
        <ele>2191.8</ele>
        <time>1970-01-01T00:09:25.000Z</time>
      </trkpt>
      <trkpt lat="42.667312" lon="0.64909">
        <ele>2191.9</ele>
        <time>1970-01-01T00:09:26.000Z</time>
      </trkpt>
      <trkpt lat="42.66732" lon="0.649077">
        <ele>2192.1</ele>
        <time>1970-01-01T00:09:28.000Z</time>
      </trkpt>
      <trkpt lat="42.667327" lon="0.649066">
        <ele>2192.3</ele>
        <time>1970-01-01T00:09:29.000Z</time>
      </trkpt>
      <trkpt lat="42.667326" lon="0.649055">
        <ele>2192.4</ele>
        <time>1970-01-01T00:09:30.000Z</time>
      </trkpt>
      <trkpt lat="42.667318" lon="0.64905">
        <ele>2192.5</ele>
        <time>1970-01-01T00:09:32.000Z</time>
      </trkpt>
      <trkpt lat="42.667306" lon="0.649052">
        <ele>2192.7</ele>
        <time>1970-01-01T00:09:33.000Z</time>
      </trkpt>
      <trkpt lat="42.667299" lon="0.649048">
        <ele>2192.8</ele>
        <time>1970-01-01T00:09:35.000Z</time>
      </trkpt>
      <trkpt lat="42.667293" lon="0.649038">
        <ele>2193</ele>
        <time>1970-01-01T00:09:36.000Z</time>
      </trkpt>
      <trkpt lat="42.667286" lon="0.649032">
        <ele>2193.1</ele>
        <time>1970-01-01T00:09:37.000Z</time>
      </trkpt>
      <trkpt lat="42.667279" lon="0.649027">
        <ele>2193.2</ele>
        <time>1970-01-01T00:09:38.000Z</time>
      </trkpt>
      <trkpt lat="42.667271" lon="0.649019">
        <ele>2193.3</ele>
        <time>1970-01-01T00:09:39.000Z</time>
      </trkpt>
      <trkpt lat="42.66726" lon="0.649007">
        <ele>2193.5</ele>
        <time>1970-01-01T00:09:41.000Z</time>
      </trkpt>
      <trkpt lat="42.667255" lon="0.649">
        <ele>2193.6</ele>
        <time>1970-01-01T00:09:42.000Z</time>
      </trkpt>
      <trkpt lat="42.667253" lon="0.648993">
        <ele>2193.7</ele>
        <time>1970-01-01T00:09:43.000Z</time>
      </trkpt>
      <trkpt lat="42.667251" lon="0.648978">
        <ele>2193.8</ele>
        <time>1970-01-01T00:09:44.000Z</time>
      </trkpt>
      <trkpt lat="42.667248" lon="0.648966">
        <ele>2193.9</ele>
        <time>1970-01-01T00:09:45.000Z</time>
      </trkpt>
      <trkpt lat="42.667244" lon="0.648956">
        <ele>2194</ele>
        <time>1970-01-01T00:09:47.000Z</time>
      </trkpt>
      <trkpt lat="42.667242" lon="0.648945">
        <ele>2194.1</ele>
        <time>1970-01-01T00:09:48.000Z</time>
      </trkpt>
      <trkpt lat="42.667241" lon="0.648933">
        <ele>2194.3</ele>
        <time>1970-01-01T00:09:49.000Z</time>
      </trkpt>
      <trkpt lat="42.667238" lon="0.648923">
        <ele>2194.4</ele>
        <time>1970-01-01T00:09:50.000Z</time>
      </trkpt>
      <trkpt lat="42.667231" lon="0.648914">
        <ele>2194.5</ele>
        <time>1970-01-01T00:09:51.000Z</time>
      </trkpt>
      <trkpt lat="42.667225" lon="0.648909">
        <ele>2194.6</ele>
        <time>1970-01-01T00:09:52.000Z</time>
      </trkpt>
      <trkpt lat="42.667216" lon="0.648903">
        <ele>2194.7</ele>
        <time>1970-01-01T00:09:53.000Z</time>
      </trkpt>
      <trkpt lat="42.66721" lon="0.648895">
        <ele>2194.8</ele>
        <time>1970-01-01T00:09:54.000Z</time>
      </trkpt>
      <trkpt lat="42.667205" lon="0.648887">
        <ele>2195</ele>
        <time>1970-01-01T00:09:55.000Z</time>
      </trkpt>
      <trkpt lat="42.667202" lon="0.648882">
        <ele>2195</ele>
        <time>1970-01-01T00:09:56.000Z</time>
      </trkpt>
      <trkpt lat="42.667197" lon="0.648875">
        <ele>2195.1</ele>
        <time>1970-01-01T00:09:57.000Z</time>
      </trkpt>
      <trkpt lat="42.667194" lon="0.648871">
        <ele>2195.2</ele>
        <time>1970-01-01T00:09:58.000Z</time>
      </trkpt>
      <trkpt lat="42.667193" lon="0.648872">
        <ele>2195.2</ele>
        <time>1970-01-01T00:09:59.000Z</time>
      </trkpt>
      <trkpt lat="42.667193" lon="0.648873">
        <ele>2195.2</ele>
        <time>1970-01-01T00:10:00.000Z</time>
      </trkpt>
      <trkpt lat="42.667193" lon="0.648874">
        <ele>2195.2</ele>
        <time>1970-01-01T00:10:01.000Z</time>
      </trkpt>
      <trkpt lat="42.667191" lon="0.648874">
        <ele>2195.3</ele>
        <time>1970-01-01T00:10:02.000Z</time>
      </trkpt>
      <trkpt lat="42.667189" lon="0.648873">
        <ele>2195.3</ele>
        <time>1970-01-01T00:10:03.000Z</time>
      </trkpt>
      <trkpt lat="42.667181" lon="0.648872">
        <ele>2195.4</ele>
        <time>1970-01-01T00:10:04.000Z</time>
      </trkpt>
      <trkpt lat="42.667175" lon="0.64887">
        <ele>2195.5</ele>
        <time>1970-01-01T00:10:06.000Z</time>
      </trkpt>
      <trkpt lat="42.667169" lon="0.648872">
        <ele>2195.6</ele>
        <time>1970-01-01T00:10:07.000Z</time>
      </trkpt>
      <trkpt lat="42.667164" lon="0.648874">
        <ele>2195.7</ele>
        <time>1970-01-01T00:10:08.000Z</time>
      </trkpt>
      <trkpt lat="42.66716" lon="0.648876">
        <ele>2195.8</ele>
        <time>1970-01-01T00:10:09.000Z</time>
      </trkpt>
      <trkpt lat="42.667157" lon="0.648877">
        <ele>2195.9</ele>
        <time>1970-01-01T00:10:10.000Z</time>
      </trkpt>
      <trkpt lat="42.667154" lon="0.648876">
        <ele>2195.9</ele>
        <time>1970-01-01T00:10:11.000Z</time>
      </trkpt>
      <trkpt lat="42.667154" lon="0.648875">
        <ele>2195.9</ele>
        <time>1970-01-01T00:10:12.000Z</time>
      </trkpt>
      <trkpt lat="42.667155" lon="0.648875">
        <ele>2195.9</ele>
        <time>1970-01-01T00:10:13.000Z</time>
      </trkpt>
      <trkpt lat="42.667156" lon="0.648874">
        <ele>2196</ele>
        <time>1970-01-01T00:10:14.000Z</time>
      </trkpt>
      <trkpt lat="42.667156" lon="0.648872">
        <ele>2196</ele>
        <time>1970-01-01T00:10:15.000Z</time>
      </trkpt>
      <trkpt lat="42.667156" lon="0.648869">
        <ele>2196</ele>
        <time>1970-01-01T00:10:16.000Z</time>
      </trkpt>
      <trkpt lat="42.667155" lon="0.648867">
        <ele>2196.1</ele>
        <time>1970-01-01T00:10:17.000Z</time>
      </trkpt>
      <trkpt lat="42.667154" lon="0.648865">
        <ele>2196.1</ele>
        <time>1970-01-01T00:10:18.000Z</time>
      </trkpt>
      <trkpt lat="42.667153" lon="0.648863">
        <ele>2196.1</ele>
        <time>1970-01-01T00:10:19.000Z</time>
      </trkpt>
      <trkpt lat="42.667153" lon="0.648862">
        <ele>2196.1</ele>
        <time>1970-01-01T00:10:20.000Z</time>
      </trkpt>
      <trkpt lat="42.667153" lon="0.648861">
        <ele>2196.2</ele>
        <time>1970-01-01T00:10:21.000Z</time>
      </trkpt>
      <trkpt lat="42.667152" lon="0.648861">
        <ele>2196.2</ele>
        <time>1970-01-01T00:10:22.000Z</time>
      </trkpt>
      <trkpt lat="42.667152" lon="0.648859">
        <ele>2196.2</ele>
        <time>1970-01-01T00:10:23.000Z</time>
      </trkpt>
      <trkpt lat="42.667151" lon="0.648856">
        <ele>2196.2</ele>
        <time>1970-01-01T00:10:24.000Z</time>
      </trkpt>
      <trkpt lat="42.667149" lon="0.648854">
        <ele>2196.3</ele>
        <time>1970-01-01T00:10:25.000Z</time>
      </trkpt>
      <trkpt lat="42.667146" lon="0.648851">
        <ele>2196.4</ele>
        <time>1970-01-01T00:10:26.000Z</time>
      </trkpt>
      <trkpt lat="42.667143" lon="0.648849">
        <ele>2196.4</ele>
        <time>1970-01-01T00:10:27.000Z</time>
      </trkpt>
      <trkpt lat="42.667138" lon="0.648845">
        <ele>2196.5</ele>
        <time>1970-01-01T00:10:28.000Z</time>
      </trkpt>
      <trkpt lat="42.66713" lon="0.648843">
        <ele>2196.7</ele>
        <time>1970-01-01T00:10:30.000Z</time>
      </trkpt>
      <trkpt lat="42.667126" lon="0.648842">
        <ele>2196.8</ele>
        <time>1970-01-01T00:10:31.000Z</time>
      </trkpt>
      <trkpt lat="42.667122" lon="0.648841">
        <ele>2196.9</ele>
        <time>1970-01-01T00:10:32.000Z</time>
      </trkpt>
      <trkpt lat="42.66712" lon="0.648841">
        <ele>2196.9</ele>
        <time>1970-01-01T00:10:33.000Z</time>
      </trkpt>
      <trkpt lat="42.667119" lon="0.64884">
        <ele>2197</ele>
        <time>1970-01-01T00:10:34.000Z</time>
      </trkpt>
      <trkpt lat="42.667119" lon="0.648839">
        <ele>2197</ele>
        <time>1970-01-01T00:10:35.000Z</time>
      </trkpt>
      <trkpt lat="42.667118" lon="0.648839">
        <ele>2197</ele>
        <time>1970-01-01T00:10:36.000Z</time>
      </trkpt>
      <trkpt lat="42.667117" lon="0.648839">
        <ele>2197</ele>
        <time>1970-01-01T00:10:37.000Z</time>
      </trkpt>
      <trkpt lat="42.667117" lon="0.648838">
        <ele>2197</ele>
        <time>1970-01-01T00:10:38.000Z</time>
      </trkpt>
      <trkpt lat="42.667116" lon="0.648835">
        <ele>2197.1</ele>
        <time>1970-01-01T00:10:39.000Z</time>
      </trkpt>
      <trkpt lat="42.667113" lon="0.648833">
        <ele>2197.2</ele>
        <time>1970-01-01T00:10:40.000Z</time>
      </trkpt>
      <trkpt lat="42.667109" lon="0.648833">
        <ele>2197.2</ele>
        <time>1970-01-01T00:10:41.000Z</time>
      </trkpt>
      <trkpt lat="42.667106" lon="0.648833">
        <ele>2197.3</ele>
        <time>1970-01-01T00:10:42.000Z</time>
      </trkpt>
      <trkpt lat="42.667104" lon="0.648834">
        <ele>2197.4</ele>
        <time>1970-01-01T00:10:43.000Z</time>
      </trkpt>
      <trkpt lat="42.667102" lon="0.648836">
        <ele>2197.4</ele>
        <time>1970-01-01T00:10:44.000Z</time>
      </trkpt>
      <trkpt lat="42.667101" lon="0.648837">
        <ele>2197.4</ele>
        <time>1970-01-01T00:10:45.000Z</time>
      </trkpt>
      <trkpt lat="42.667099" lon="0.648838">
        <ele>2197.5</ele>
        <time>1970-01-01T00:10:46.000Z</time>
      </trkpt>
      <trkpt lat="42.667097" lon="0.648838">
        <ele>2197.5</ele>
        <time>1970-01-01T00:10:47.000Z</time>
      </trkpt>
      <trkpt lat="42.667094" lon="0.648839">
        <ele>2197.6</ele>
        <time>1970-01-01T00:10:48.000Z</time>
      </trkpt>
      <trkpt lat="42.667088" lon="0.648839">
        <ele>2197.7</ele>
        <time>1970-01-01T00:10:50.000Z</time>
      </trkpt>
      <trkpt lat="42.667085" lon="0.648839">
        <ele>2197.8</ele>
        <time>1970-01-01T00:10:51.000Z</time>
      </trkpt>
      <trkpt lat="42.667079" lon="0.648837">
        <ele>2198</ele>
        <time>1970-01-01T00:10:52.000Z</time>
      </trkpt>
      <trkpt lat="42.667074" lon="0.648835">
        <ele>2198.1</ele>
        <time>1970-01-01T00:10:53.000Z</time>
      </trkpt>
      <trkpt lat="42.667072" lon="0.648834">
        <ele>2198.1</ele>
        <time>1970-01-01T00:10:54.000Z</time>
      </trkpt>
      <trkpt lat="42.66707" lon="0.648832">
        <ele>2198.2</ele>
        <time>1970-01-01T00:10:55.000Z</time>
      </trkpt>
      <trkpt lat="42.667068" lon="0.648831">
        <ele>2198.3</ele>
        <time>1970-01-01T00:10:56.000Z</time>
      </trkpt>
      <trkpt lat="42.667067" lon="0.648829">
        <ele>2198.3</ele>
        <time>1970-01-01T00:10:57.000Z</time>
      </trkpt>
      <trkpt lat="42.667064" lon="0.648826">
        <ele>2198.4</ele>
        <time>1970-01-01T00:10:58.000Z</time>
      </trkpt>
      <trkpt lat="42.667061" lon="0.648823">
        <ele>2198.5</ele>
        <time>1970-01-01T00:10:59.000Z</time>
      </trkpt>
      <trkpt lat="42.667058" lon="0.648821">
        <ele>2198.6</ele>
        <time>1970-01-01T00:11:00.000Z</time>
      </trkpt>
      <trkpt lat="42.667055" lon="0.648817">
        <ele>2198.7</ele>
        <time>1970-01-01T00:11:01.000Z</time>
      </trkpt>
      <trkpt lat="42.667055" lon="0.648814">
        <ele>2198.8</ele>
        <time>1970-01-01T00:11:02.000Z</time>
      </trkpt>
      <trkpt lat="42.667053" lon="0.64881">
        <ele>2198.9</ele>
        <time>1970-01-01T00:11:03.000Z</time>
      </trkpt>
      <trkpt lat="42.667051" lon="0.648805">
        <ele>2199</ele>
        <time>1970-01-01T00:11:04.000Z</time>
      </trkpt>
      <trkpt lat="42.667049" lon="0.648802">
        <ele>2199.1</ele>
        <time>1970-01-01T00:11:05.000Z</time>
      </trkpt>
      <trkpt lat="42.667049" lon="0.648799">
        <ele>2199.1</ele>
        <time>1970-01-01T00:11:06.000Z</time>
      </trkpt>
      <trkpt lat="42.667048" lon="0.648795">
        <ele>2199.2</ele>
        <time>1970-01-01T00:11:07.000Z</time>
      </trkpt>
      <trkpt lat="42.667048" lon="0.648792">
        <ele>2199.3</ele>
        <time>1970-01-01T00:11:08.000Z</time>
      </trkpt>
      <trkpt lat="42.667048" lon="0.648788">
        <ele>2199.3</ele>
        <time>1970-01-01T00:11:09.000Z</time>
      </trkpt>
      <trkpt lat="42.667047" lon="0.648782">
        <ele>2199.5</ele>
        <time>1970-01-01T00:11:11.000Z</time>
      </trkpt>
      <trkpt lat="42.667048" lon="0.64878">
        <ele>2199.5</ele>
        <time>1970-01-01T00:11:12.000Z</time>
      </trkpt>
      <trkpt lat="42.66705" lon="0.648779">
        <ele>2199.6</ele>
        <time>1970-01-01T00:11:13.000Z</time>
      </trkpt>
      <trkpt lat="42.667051" lon="0.648777">
        <ele>2199.6</ele>
        <time>1970-01-01T00:11:14.000Z</time>
      </trkpt>
      <trkpt lat="42.66705" lon="0.648774">
        <ele>2199.7</ele>
        <time>1970-01-01T00:11:15.000Z</time>
      </trkpt>
      <trkpt lat="42.66705" lon="0.648774">
        <ele>2199.7</ele>
        <time>1970-01-01T00:11:16.000Z</time>
      </trkpt>
      <trkpt lat="42.667047" lon="0.648775">
        <ele>2199.8</ele>
        <time>1970-01-01T00:11:18.000Z</time>
      </trkpt>
      <trkpt lat="42.667042" lon="0.648778">
        <ele>2200</ele>
        <time>1970-01-01T00:11:20.000Z</time>
      </trkpt>
      <trkpt lat="42.667037" lon="0.648779">
        <ele>2200.1</ele>
        <time>1970-01-01T00:11:21.000Z</time>
      </trkpt>
      <trkpt lat="42.667032" lon="0.648779">
        <ele>2200.3</ele>
        <time>1970-01-01T00:11:22.000Z</time>
      </trkpt>
      <trkpt lat="42.667027" lon="0.648777">
        <ele>2200.4</ele>
        <time>1970-01-01T00:11:23.000Z</time>
      </trkpt>
      <trkpt lat="42.66702" lon="0.64877">
        <ele>2200.7</ele>
        <time>1970-01-01T00:11:24.000Z</time>
      </trkpt>
      <trkpt lat="42.667017" lon="0.648764">
        <ele>2200.9</ele>
        <time>1970-01-01T00:11:25.000Z</time>
      </trkpt>
      <trkpt lat="42.667014" lon="0.648756">
        <ele>2201.1</ele>
        <time>1970-01-01T00:11:26.000Z</time>
      </trkpt>
      <trkpt lat="42.667011" lon="0.648749">
        <ele>2201.2</ele>
        <time>1970-01-01T00:11:27.000Z</time>
      </trkpt>
      <trkpt lat="42.667007" lon="0.648746">
        <ele>2201.4</ele>
        <time>1970-01-01T00:11:28.000Z</time>
      </trkpt>
      <trkpt lat="42.667004" lon="0.648745">
        <ele>2201.5</ele>
        <time>1970-01-01T00:11:29.000Z</time>
      </trkpt>
      <trkpt lat="42.666999" lon="0.648744">
        <ele>2201.6</ele>
        <time>1970-01-01T00:11:31.000Z</time>
      </trkpt>
      <trkpt lat="42.666996" lon="0.648744">
        <ele>2201.7</ele>
        <time>1970-01-01T00:11:32.000Z</time>
      </trkpt>
      <trkpt lat="42.666992" lon="0.648741">
        <ele>2201.9</ele>
        <time>1970-01-01T00:11:33.000Z</time>
      </trkpt>
      <trkpt lat="42.666989" lon="0.648734">
        <ele>2202.1</ele>
        <time>1970-01-01T00:11:35.000Z</time>
      </trkpt>
      <trkpt lat="42.66699" lon="0.648728">
        <ele>2202.2</ele>
        <time>1970-01-01T00:11:36.000Z</time>
      </trkpt>
      <trkpt lat="42.666992" lon="0.64872">
        <ele>2202.4</ele>
        <time>1970-01-01T00:11:37.000Z</time>
      </trkpt>
      <trkpt lat="42.666993" lon="0.648713">
        <ele>2202.5</ele>
        <time>1970-01-01T00:11:38.000Z</time>
      </trkpt>
      <trkpt lat="42.666992" lon="0.648708">
        <ele>2202.7</ele>
        <time>1970-01-01T00:11:39.000Z</time>
      </trkpt>
      <trkpt lat="42.666988" lon="0.648691">
        <ele>2203.1</ele>
        <time>1970-01-01T00:11:41.000Z</time>
      </trkpt>
      <trkpt lat="42.666987" lon="0.648687">
        <ele>2203.2</ele>
        <time>1970-01-01T00:11:42.000Z</time>
      </trkpt>
      <trkpt lat="42.666987" lon="0.648681">
        <ele>2203.3</ele>
        <time>1970-01-01T00:11:44.000Z</time>
      </trkpt>
      <trkpt lat="42.666986" lon="0.648675">
        <ele>2203.4</ele>
        <time>1970-01-01T00:11:45.000Z</time>
      </trkpt>
      <trkpt lat="42.666983" lon="0.648669">
        <ele>2203.6</ele>
        <time>1970-01-01T00:11:46.000Z</time>
      </trkpt>
      <trkpt lat="42.666978" lon="0.648664">
        <ele>2203.8</ele>
        <time>1970-01-01T00:11:47.000Z</time>
      </trkpt>
      <trkpt lat="42.666972" lon="0.648662">
        <ele>2204</ele>
        <time>1970-01-01T00:11:48.000Z</time>
      </trkpt>
      <trkpt lat="42.666966" lon="0.648662">
        <ele>2204.2</ele>
        <time>1970-01-01T00:11:49.000Z</time>
      </trkpt>
      <trkpt lat="42.66696" lon="0.648662">
        <ele>2204.4</ele>
        <time>1970-01-01T00:11:50.000Z</time>
      </trkpt>
      <trkpt lat="42.666955" lon="0.64866">
        <ele>2204.5</ele>
        <time>1970-01-01T00:11:51.000Z</time>
      </trkpt>
      <trkpt lat="42.666948" lon="0.648649">
        <ele>2204.8</ele>
        <time>1970-01-01T00:11:52.000Z</time>
      </trkpt>
      <trkpt lat="42.666939" lon="0.648639">
        <ele>2205.2</ele>
        <time>1970-01-01T00:11:54.000Z</time>
      </trkpt>
      <trkpt lat="42.666932" lon="0.648639">
        <ele>2205.4</ele>
        <time>1970-01-01T00:11:55.000Z</time>
      </trkpt>
      <trkpt lat="42.666924" lon="0.648639">
        <ele>2205.6</ele>
        <time>1970-01-01T00:11:56.000Z</time>
      </trkpt>
      <trkpt lat="42.666923" lon="0.648631">
        <ele>2205.8</ele>
        <time>1970-01-01T00:11:58.000Z</time>
      </trkpt>
      <trkpt lat="42.666922" lon="0.648622">
        <ele>2206</ele>
        <time>1970-01-01T00:11:59.000Z</time>
      </trkpt>
      <trkpt lat="42.666922" lon="0.648614">
        <ele>2206.2</ele>
        <time>1970-01-01T00:12:00.000Z</time>
      </trkpt>
      <trkpt lat="42.666922" lon="0.648603">
        <ele>2206.4</ele>
        <time>1970-01-01T00:12:01.000Z</time>
      </trkpt>
      <trkpt lat="42.666917" lon="0.648594">
        <ele>2206.7</ele>
        <time>1970-01-01T00:12:03.000Z</time>
      </trkpt>
      <trkpt lat="42.666913" lon="0.648595">
        <ele>2206.8</ele>
        <time>1970-01-01T00:12:04.000Z</time>
      </trkpt>
      <trkpt lat="42.666908" lon="0.648601">
        <ele>2207</ele>
        <time>1970-01-01T00:12:05.000Z</time>
      </trkpt>
      <trkpt lat="42.666899" lon="0.648608">
        <ele>2207.3</ele>
        <time>1970-01-01T00:12:07.000Z</time>
      </trkpt>
      <trkpt lat="42.666893" lon="0.648612">
        <ele>2207.5</ele>
        <time>1970-01-01T00:12:08.000Z</time>
      </trkpt>
      <trkpt lat="42.666885" lon="0.648612">
        <ele>2207.7</ele>
        <time>1970-01-01T00:12:09.000Z</time>
      </trkpt>
      <trkpt lat="42.666881" lon="0.648606">
        <ele>2207.9</ele>
        <time>1970-01-01T00:12:10.000Z</time>
      </trkpt>
      <trkpt lat="42.666874" lon="0.648593">
        <ele>2208.3</ele>
        <time>1970-01-01T00:12:11.000Z</time>
      </trkpt>
      <trkpt lat="42.66687" lon="0.648584">
        <ele>2208.5</ele>
        <time>1970-01-01T00:12:12.000Z</time>
      </trkpt>
      <trkpt lat="42.666865" lon="0.64858">
        <ele>2208.7</ele>
        <time>1970-01-01T00:12:13.000Z</time>
      </trkpt>
      <trkpt lat="42.666861" lon="0.648578">
        <ele>2208.8</ele>
        <time>1970-01-01T00:12:15.000Z</time>
      </trkpt>
      <trkpt lat="42.666859" lon="0.648576">
        <ele>2208.9</ele>
        <time>1970-01-01T00:12:16.000Z</time>
      </trkpt>
      <trkpt lat="42.666857" lon="0.648576">
        <ele>2208.9</ele>
        <time>1970-01-01T00:12:17.000Z</time>
      </trkpt>
      <trkpt lat="42.666854" lon="0.64858">
        <ele>2209.1</ele>
        <time>1970-01-01T00:12:18.000Z</time>
      </trkpt>
      <trkpt lat="42.666852" lon="0.648583">
        <ele>2209.1</ele>
        <time>1970-01-01T00:12:19.000Z</time>
      </trkpt>
      <trkpt lat="42.66685" lon="0.648583">
        <ele>2209.2</ele>
        <time>1970-01-01T00:12:20.000Z</time>
      </trkpt>
      <trkpt lat="42.666846" lon="0.64858">
        <ele>2209.3</ele>
        <time>1970-01-01T00:12:21.000Z</time>
      </trkpt>
      <trkpt lat="42.666842" lon="0.648577">
        <ele>2209.5</ele>
        <time>1970-01-01T00:12:22.000Z</time>
      </trkpt>
      <trkpt lat="42.666839" lon="0.648577">
        <ele>2209.6</ele>
        <time>1970-01-01T00:12:23.000Z</time>
      </trkpt>
      <trkpt lat="42.666836" lon="0.648577">
        <ele>2209.7</ele>
        <time>1970-01-01T00:12:24.000Z</time>
      </trkpt>
      <trkpt lat="42.666832" lon="0.648577">
        <ele>2209.8</ele>
        <time>1970-01-01T00:12:25.000Z</time>
      </trkpt>
      <trkpt lat="42.666829" lon="0.64858">
        <ele>2209.9</ele>
        <time>1970-01-01T00:12:26.000Z</time>
      </trkpt>
      <trkpt lat="42.666826" lon="0.648586">
        <ele>2210.1</ele>
        <time>1970-01-01T00:12:27.000Z</time>
      </trkpt>
      <trkpt lat="42.666825" lon="0.64859">
        <ele>2210.2</ele>
        <time>1970-01-01T00:12:28.000Z</time>
      </trkpt>
      <trkpt lat="42.666822" lon="0.648596">
        <ele>2210.3</ele>
        <time>1970-01-01T00:12:29.000Z</time>
      </trkpt>
      <trkpt lat="42.666819" lon="0.6486">
        <ele>2210.5</ele>
        <time>1970-01-01T00:12:30.000Z</time>
      </trkpt>
      <trkpt lat="42.666815" lon="0.648603">
        <ele>2210.6</ele>
        <time>1970-01-01T00:12:31.000Z</time>
      </trkpt>
      <trkpt lat="42.666813" lon="0.648606">
        <ele>2210.7</ele>
        <time>1970-01-01T00:12:32.000Z</time>
      </trkpt>
      <trkpt lat="42.666811" lon="0.648607">
        <ele>2210.8</ele>
        <time>1970-01-01T00:12:33.000Z</time>
      </trkpt>
      <trkpt lat="42.666806" lon="0.648608">
        <ele>2210.9</ele>
        <time>1970-01-01T00:12:34.000Z</time>
      </trkpt>
      <trkpt lat="42.666803" lon="0.648608">
        <ele>2211</ele>
        <time>1970-01-01T00:12:35.000Z</time>
      </trkpt>
      <trkpt lat="42.666801" lon="0.648607">
        <ele>2211.1</ele>
        <time>1970-01-01T00:12:36.000Z</time>
      </trkpt>
      <trkpt lat="42.6668" lon="0.648604">
        <ele>2211.2</ele>
        <time>1970-01-01T00:12:38.000Z</time>
      </trkpt>
      <trkpt lat="42.6668" lon="0.648602">
        <ele>2211.2</ele>
        <time>1970-01-01T00:12:39.000Z</time>
      </trkpt>
      <trkpt lat="42.6668" lon="0.648599">
        <ele>2211.3</ele>
        <time>1970-01-01T00:12:40.000Z</time>
      </trkpt>
      <trkpt lat="42.666798" lon="0.648597">
        <ele>2211.4</ele>
        <time>1970-01-01T00:12:42.000Z</time>
      </trkpt>
      <trkpt lat="42.666792" lon="0.648593">
        <ele>2211.6</ele>
        <time>1970-01-01T00:12:43.000Z</time>
      </trkpt>
      <trkpt lat="42.666788" lon="0.64859">
        <ele>2211.7</ele>
        <time>1970-01-01T00:12:44.000Z</time>
      </trkpt>
      <trkpt lat="42.666784" lon="0.648585">
        <ele>2211.9</ele>
        <time>1970-01-01T00:12:45.000Z</time>
      </trkpt>
      <trkpt lat="42.666778" lon="0.648583">
        <ele>2212.1</ele>
        <time>1970-01-01T00:12:46.000Z</time>
      </trkpt>
      <trkpt lat="42.666773" lon="0.648583">
        <ele>2212.2</ele>
        <time>1970-01-01T00:12:47.000Z</time>
      </trkpt>
      <trkpt lat="42.666768" lon="0.648581">
        <ele>2212.4</ele>
        <time>1970-01-01T00:12:48.000Z</time>
      </trkpt>
      <trkpt lat="42.666766" lon="0.648577">
        <ele>2212.5</ele>
        <time>1970-01-01T00:12:49.000Z</time>
      </trkpt>
      <trkpt lat="42.666766" lon="0.648572">
        <ele>2212.6</ele>
        <time>1970-01-01T00:12:50.000Z</time>
      </trkpt>
      <trkpt lat="42.666763" lon="0.648564">
        <ele>2212.8</ele>
        <time>1970-01-01T00:12:51.000Z</time>
      </trkpt>
      <trkpt lat="42.66676" lon="0.648563">
        <ele>2212.9</ele>
        <time>1970-01-01T00:12:52.000Z</time>
      </trkpt>
      <trkpt lat="42.666759" lon="0.648564">
        <ele>2213</ele>
        <time>1970-01-01T00:12:53.000Z</time>
      </trkpt>
      <trkpt lat="42.666758" lon="0.648567">
        <ele>2213.1</ele>
        <time>1970-01-01T00:12:54.000Z</time>
      </trkpt>
      <trkpt lat="42.666756" lon="0.648569">
        <ele>2213.1</ele>
        <time>1970-01-01T00:12:55.000Z</time>
      </trkpt>
      <trkpt lat="42.666756" lon="0.648572">
        <ele>2213.2</ele>
        <time>1970-01-01T00:12:56.000Z</time>
      </trkpt>
      <trkpt lat="42.666752" lon="0.648572">
        <ele>2213.3</ele>
        <time>1970-01-01T00:12:57.000Z</time>
      </trkpt>
      <trkpt lat="42.66675" lon="0.648572">
        <ele>2213.4</ele>
        <time>1970-01-01T00:12:58.000Z</time>
      </trkpt>
      <trkpt lat="42.666747" lon="0.648573">
        <ele>2213.5</ele>
        <time>1970-01-01T00:13:00.000Z</time>
      </trkpt>
      <trkpt lat="42.666744" lon="0.648576">
        <ele>2213.6</ele>
        <time>1970-01-01T00:13:01.000Z</time>
      </trkpt>
      <trkpt lat="42.666742" lon="0.64858">
        <ele>2213.7</ele>
        <time>1970-01-01T00:13:02.000Z</time>
      </trkpt>
      <trkpt lat="42.666739" lon="0.648581">
        <ele>2213.8</ele>
        <time>1970-01-01T00:13:03.000Z</time>
      </trkpt>
      <trkpt lat="42.666736" lon="0.64858">
        <ele>2213.9</ele>
        <time>1970-01-01T00:13:04.000Z</time>
      </trkpt>
      <trkpt lat="42.666733" lon="0.648575">
        <ele>2214.1</ele>
        <time>1970-01-01T00:13:05.000Z</time>
      </trkpt>
      <trkpt lat="42.666728" lon="0.64857">
        <ele>2214.3</ele>
        <time>1970-01-01T00:13:06.000Z</time>
      </trkpt>
      <trkpt lat="42.666722" lon="0.648566">
        <ele>2214.5</ele>
        <time>1970-01-01T00:13:07.000Z</time>
      </trkpt>
      <trkpt lat="42.666713" lon="0.648557">
        <ele>2214.9</ele>
        <time>1970-01-01T00:13:09.000Z</time>
      </trkpt>
      <trkpt lat="42.666708" lon="0.648546">
        <ele>2215.2</ele>
        <time>1970-01-01T00:13:10.000Z</time>
      </trkpt>
      <trkpt lat="42.666702" lon="0.648535">
        <ele>2215.5</ele>
        <time>1970-01-01T00:13:12.000Z</time>
      </trkpt>
      <trkpt lat="42.666691" lon="0.648538">
        <ele>2215.9</ele>
        <time>1970-01-01T00:13:13.000Z</time>
      </trkpt>
      <trkpt lat="42.666685" lon="0.648547">
        <ele>2216.2</ele>
        <time>1970-01-01T00:13:15.000Z</time>
      </trkpt>
      <trkpt lat="42.666678" lon="0.648557">
        <ele>2216.5</ele>
        <time>1970-01-01T00:13:17.000Z</time>
      </trkpt>
      <trkpt lat="42.666669" lon="0.648562">
        <ele>2216.9</ele>
        <time>1970-01-01T00:13:18.000Z</time>
      </trkpt>
      <trkpt lat="42.666663" lon="0.648557">
        <ele>2217.7</ele>
        <time>1970-01-01T00:13:19.000Z</time>
      </trkpt>
      <trkpt lat="42.666662" lon="0.648548">
        <ele>2217.9</ele>
        <time>1970-01-01T00:13:20.000Z</time>
      </trkpt>
      <trkpt lat="42.666666" lon="0.648541">
        <ele>2218.1</ele>
        <time>1970-01-01T00:13:21.000Z</time>
      </trkpt>
      <trkpt lat="42.666671" lon="0.648535">
        <ele>2218.3</ele>
        <time>1970-01-01T00:13:22.000Z</time>
      </trkpt>
      <trkpt lat="42.666678" lon="0.648532">
        <ele>2218.5</ele>
        <time>1970-01-01T00:13:23.000Z</time>
      </trkpt>
      <trkpt lat="42.666684" lon="0.648531">
        <ele>2218.6</ele>
        <time>1970-01-01T00:13:24.000Z</time>
      </trkpt>
      <trkpt lat="42.666687" lon="0.648529">
        <ele>2218.7</ele>
        <time>1970-01-01T00:13:25.000Z</time>
      </trkpt>
      <trkpt lat="42.666689" lon="0.648526">
        <ele>2218.8</ele>
        <time>1970-01-01T00:13:26.000Z</time>
      </trkpt>
      <trkpt lat="42.666686" lon="0.648523">
        <ele>2218.9</ele>
        <time>1970-01-01T00:13:28.000Z</time>
      </trkpt>
      <trkpt lat="42.666684" lon="0.648522">
        <ele>2218.9</ele>
        <time>1970-01-01T00:13:29.000Z</time>
      </trkpt>
      <trkpt lat="42.666679" lon="0.64852">
        <ele>2219.1</ele>
        <time>1970-01-01T00:13:31.000Z</time>
      </trkpt>
      <trkpt lat="42.666676" lon="0.64852">
        <ele>2219.1</ele>
        <time>1970-01-01T00:13:32.000Z</time>
      </trkpt>
      <trkpt lat="42.666673" lon="0.648521">
        <ele>2219.2</ele>
        <time>1970-01-01T00:13:33.000Z</time>
      </trkpt>
      <trkpt lat="42.66667" lon="0.648521">
        <ele>2219.3</ele>
        <time>1970-01-01T00:13:34.000Z</time>
      </trkpt>
      <trkpt lat="42.666663" lon="0.648518">
        <ele>2219.5</ele>
        <time>1970-01-01T00:13:36.000Z</time>
      </trkpt>
      <trkpt lat="42.666658" lon="0.648514">
        <ele>2219.6</ele>
        <time>1970-01-01T00:13:37.000Z</time>
      </trkpt>
      <trkpt lat="42.666655" lon="0.648511">
        <ele>2219.7</ele>
        <time>1970-01-01T00:13:38.000Z</time>
      </trkpt>
      <trkpt lat="42.666645" lon="0.6485">
        <ele>2220.1</ele>
        <time>1970-01-01T00:13:39.000Z</time>
      </trkpt>
      <trkpt lat="42.666639" lon="0.648484">
        <ele>2220.4</ele>
        <time>1970-01-01T00:13:41.000Z</time>
      </trkpt>
      <trkpt lat="42.666636" lon="0.648475">
        <ele>2220.6</ele>
        <time>1970-01-01T00:13:42.000Z</time>
      </trkpt>
      <trkpt lat="42.666631" lon="0.648466">
        <ele>2220.8</ele>
        <time>1970-01-01T00:13:43.000Z</time>
      </trkpt>
      <trkpt lat="42.666627" lon="0.648461">
        <ele>2221</ele>
        <time>1970-01-01T00:13:44.000Z</time>
      </trkpt>
      <trkpt lat="42.666622" lon="0.648461">
        <ele>2221.1</ele>
        <time>1970-01-01T00:13:45.000Z</time>
      </trkpt>
      <trkpt lat="42.666619" lon="0.648461">
        <ele>2221.2</ele>
        <time>1970-01-01T00:13:46.000Z</time>
      </trkpt>
      <trkpt lat="42.666618" lon="0.648462">
        <ele>2221.2</ele>
        <time>1970-01-01T00:13:47.000Z</time>
      </trkpt>
      <trkpt lat="42.666618" lon="0.648463">
        <ele>2221.2</ele>
        <time>1970-01-01T00:13:48.000Z</time>
      </trkpt>
      <trkpt lat="42.666619" lon="0.648463">
        <ele>2221.2</ele>
        <time>1970-01-01T00:13:49.000Z</time>
      </trkpt>
      <trkpt lat="42.666619" lon="0.648464">
        <ele>2221.3</ele>
        <time>1970-01-01T00:13:50.000Z</time>
      </trkpt>
      <trkpt lat="42.666619" lon="0.648465">
        <ele>2221.3</ele>
        <time>1970-01-01T00:13:51.000Z</time>
      </trkpt>
      <trkpt lat="42.666619" lon="0.648466">
        <ele>2221.3</ele>
        <time>1970-01-01T00:13:52.000Z</time>
      </trkpt>
      <trkpt lat="42.666619" lon="0.648466">
        <ele>2221.3</ele>
        <time>1970-01-01T00:13:53.000Z</time>
      </trkpt>
      <trkpt lat="42.666619" lon="0.648467">
        <ele>2221.3</ele>
        <time>1970-01-01T00:13:54.000Z</time>
      </trkpt>
      <trkpt lat="42.66662" lon="0.648466">
        <ele>2221.4</ele>
        <time>1970-01-01T00:13:55.000Z</time>
      </trkpt>
      <trkpt lat="42.66662" lon="0.648465">
        <ele>2221.4</ele>
        <time>1970-01-01T00:13:56.000Z</time>
      </trkpt>
      <trkpt lat="42.66662" lon="0.648461">
        <ele>2221.5</ele>
        <time>1970-01-01T00:13:57.000Z</time>
      </trkpt>
      <trkpt lat="42.66662" lon="0.64846">
        <ele>2221.5</ele>
        <time>1970-01-01T00:13:58.000Z</time>
      </trkpt>
      <trkpt lat="42.66662" lon="0.648459">
        <ele>2221.5</ele>
        <time>1970-01-01T00:13:59.000Z</time>
      </trkpt>
      <trkpt lat="42.666619" lon="0.648459">
        <ele>2221.5</ele>
        <time>1970-01-01T00:14:00.000Z</time>
      </trkpt>
      <trkpt lat="42.666618" lon="0.648459">
        <ele>2221.5</ele>
        <time>1970-01-01T00:14:01.000Z</time>
      </trkpt>
      <trkpt lat="42.666615" lon="0.648458">
        <ele>2221.6</ele>
        <time>1970-01-01T00:14:02.000Z</time>
      </trkpt>
      <trkpt lat="42.666612" lon="0.648458">
        <ele>2221.7</ele>
        <time>1970-01-01T00:14:03.000Z</time>
      </trkpt>
      <trkpt lat="42.66661" lon="0.64846">
        <ele>2221.8</ele>
        <time>1970-01-01T00:14:04.000Z</time>
      </trkpt>
      <trkpt lat="42.666608" lon="0.648462">
        <ele>2221.8</ele>
        <time>1970-01-01T00:14:05.000Z</time>
      </trkpt>
      <trkpt lat="42.666603" lon="0.648468">
        <ele>2222</ele>
        <time>1970-01-01T00:14:07.000Z</time>
      </trkpt>
      <trkpt lat="42.666601" lon="0.648472">
        <ele>2222.1</ele>
        <time>1970-01-01T00:14:08.000Z</time>
      </trkpt>
      <trkpt lat="42.666598" lon="0.648477">
        <ele>2222.2</ele>
        <time>1970-01-01T00:14:09.000Z</time>
      </trkpt>
      <trkpt lat="42.666596" lon="0.648481">
        <ele>2222.3</ele>
        <time>1970-01-01T00:14:10.000Z</time>
      </trkpt>
      <trkpt lat="42.666591" lon="0.648483">
        <ele>2222.4</ele>
        <time>1970-01-01T00:14:11.000Z</time>
      </trkpt>
      <trkpt lat="42.666588" lon="0.648481">
        <ele>2222.5</ele>
        <time>1970-01-01T00:14:12.000Z</time>
      </trkpt>
      <trkpt lat="42.666585" lon="0.648479">
        <ele>2222.6</ele>
        <time>1970-01-01T00:14:13.000Z</time>
      </trkpt>
      <trkpt lat="42.666582" lon="0.648475">
        <ele>2222.7</ele>
        <time>1970-01-01T00:14:14.000Z</time>
      </trkpt>
      <trkpt lat="42.666579" lon="0.648472">
        <ele>2222.8</ele>
        <time>1970-01-01T00:14:15.000Z</time>
      </trkpt>
      <trkpt lat="42.666578" lon="0.64847">
        <ele>2222.9</ele>
        <time>1970-01-01T00:14:16.000Z</time>
      </trkpt>
      <trkpt lat="42.666577" lon="0.648468">
        <ele>2222.9</ele>
        <time>1970-01-01T00:14:17.000Z</time>
      </trkpt>
      <trkpt lat="42.666577" lon="0.648468">
        <ele>2222.9</ele>
        <time>1970-01-01T00:14:18.000Z</time>
      </trkpt>
      <trkpt lat="42.666576" lon="0.648467">
        <ele>2222.9</ele>
        <time>1970-01-01T00:14:19.000Z</time>
      </trkpt>
      <trkpt lat="42.666576" lon="0.648466">
        <ele>2223</ele>
        <time>1970-01-01T00:14:20.000Z</time>
      </trkpt>
      <trkpt lat="42.666575" lon="0.648466">
        <ele>2223</ele>
        <time>1970-01-01T00:14:21.000Z</time>
      </trkpt>
      <trkpt lat="42.666575" lon="0.648466">
        <ele>2223</ele>
        <time>1970-01-01T00:14:22.000Z</time>
      </trkpt>
      <trkpt lat="42.666575" lon="0.648466">
        <ele>2223</ele>
        <time>1970-01-01T00:14:23.000Z</time>
      </trkpt>
      <trkpt lat="42.666575" lon="0.648466">
        <ele>2223</ele>
        <time>1970-01-01T00:14:24.000Z</time>
      </trkpt>
      <trkpt lat="42.666573" lon="0.648465">
        <ele>2223</ele>
        <time>1970-01-01T00:14:25.000Z</time>
      </trkpt>
      <trkpt lat="42.666572" lon="0.648465">
        <ele>2223.1</ele>
        <time>1970-01-01T00:14:26.000Z</time>
      </trkpt>
      <trkpt lat="42.666567" lon="0.648461">
        <ele>2223.2</ele>
        <time>1970-01-01T00:14:28.000Z</time>
      </trkpt>
      <trkpt lat="42.666564" lon="0.648456">
        <ele>2223.3</ele>
        <time>1970-01-01T00:14:29.000Z</time>
      </trkpt>
      <trkpt lat="42.666561" lon="0.648452">
        <ele>2223.4</ele>
        <time>1970-01-01T00:14:30.000Z</time>
      </trkpt>
      <trkpt lat="42.666558" lon="0.64845">
        <ele>2223.5</ele>
        <time>1970-01-01T00:14:31.000Z</time>
      </trkpt>
      <trkpt lat="42.666554" lon="0.648449">
        <ele>2223.6</ele>
        <time>1970-01-01T00:14:33.000Z</time>
      </trkpt>
      <trkpt lat="42.666552" lon="0.648449">
        <ele>2223.6</ele>
        <time>1970-01-01T00:14:34.000Z</time>
      </trkpt>
      <trkpt lat="42.66655" lon="0.64845">
        <ele>2223.7</ele>
        <time>1970-01-01T00:14:35.000Z</time>
      </trkpt>
      <trkpt lat="42.66655" lon="0.648451">
        <ele>2223.7</ele>
        <time>1970-01-01T00:14:36.000Z</time>
      </trkpt>
      <trkpt lat="42.666548" lon="0.64845">
        <ele>2223.8</ele>
        <time>1970-01-01T00:14:37.000Z</time>
      </trkpt>
      <trkpt lat="42.666547" lon="0.648449">
        <ele>2223.8</ele>
        <time>1970-01-01T00:14:38.000Z</time>
      </trkpt>
      <trkpt lat="42.666546" lon="0.648449">
        <ele>2223.8</ele>
        <time>1970-01-01T00:14:39.000Z</time>
      </trkpt>
      <trkpt lat="42.666546" lon="0.648449">
        <ele>2223.8</ele>
        <time>1970-01-01T00:14:40.000Z</time>
      </trkpt>
      <trkpt lat="42.666545" lon="0.648449">
        <ele>2223.8</ele>
        <time>1970-01-01T00:14:41.000Z</time>
      </trkpt>
      <trkpt lat="42.666544" lon="0.648448">
        <ele>2223.9</ele>
        <time>1970-01-01T00:14:42.000Z</time>
      </trkpt>
      <trkpt lat="42.666543" lon="0.648447">
        <ele>2223.9</ele>
        <time>1970-01-01T00:14:43.000Z</time>
      </trkpt>
      <trkpt lat="42.666542" lon="0.648445">
        <ele>2223.9</ele>
        <time>1970-01-01T00:14:44.000Z</time>
      </trkpt>
      <trkpt lat="42.666541" lon="0.648444">
        <ele>2224</ele>
        <time>1970-01-01T00:14:45.000Z</time>
      </trkpt>
      <trkpt lat="42.666538" lon="0.648442">
        <ele>2224.1</ele>
        <time>1970-01-01T00:14:46.000Z</time>
      </trkpt>
      <trkpt lat="42.666535" lon="0.648441">
        <ele>2224.1</ele>
        <time>1970-01-01T00:14:47.000Z</time>
      </trkpt>
      <trkpt lat="42.66653" lon="0.64844">
        <ele>2224.3</ele>
        <time>1970-01-01T00:14:48.000Z</time>
      </trkpt>
      <trkpt lat="42.666526" lon="0.648439">
        <ele>2224.4</ele>
        <time>1970-01-01T00:14:49.000Z</time>
      </trkpt>
      <trkpt lat="42.666523" lon="0.648438">
        <ele>2224.4</ele>
        <time>1970-01-01T00:14:50.000Z</time>
      </trkpt>
      <trkpt lat="42.66652" lon="0.648435">
        <ele>2224.5</ele>
        <time>1970-01-01T00:14:51.000Z</time>
      </trkpt>
      <trkpt lat="42.666517" lon="0.648433">
        <ele>2224.6</ele>
        <time>1970-01-01T00:14:52.000Z</time>
      </trkpt>
      <trkpt lat="42.666513" lon="0.648428">
        <ele>2224.7</ele>
        <time>1970-01-01T00:14:54.000Z</time>
      </trkpt>
      <trkpt lat="42.666511" lon="0.648426">
        <ele>2224.8</ele>
        <time>1970-01-01T00:14:55.000Z</time>
      </trkpt>
      <trkpt lat="42.666508" lon="0.648422">
        <ele>2224.8</ele>
        <time>1970-01-01T00:14:56.000Z</time>
      </trkpt>
      <trkpt lat="42.666506" lon="0.648417">
        <ele>2224.9</ele>
        <time>1970-01-01T00:14:57.000Z</time>
      </trkpt>
      <trkpt lat="42.666504" lon="0.648413">
        <ele>2225</ele>
        <time>1970-01-01T00:14:58.000Z</time>
      </trkpt>
      <trkpt lat="42.666503" lon="0.648407">
        <ele>2225.1</ele>
        <time>1970-01-01T00:14:59.000Z</time>
      </trkpt>
      <trkpt lat="42.666501" lon="0.648402">
        <ele>2225.2</ele>
        <time>1970-01-01T00:15:00.000Z</time>
      </trkpt>
      <trkpt lat="42.666499" lon="0.648397">
        <ele>2225.3</ele>
        <time>1970-01-01T00:15:01.000Z</time>
      </trkpt>
      <trkpt lat="42.666496" lon="0.648394">
        <ele>2225.4</ele>
        <time>1970-01-01T00:15:03.000Z</time>
      </trkpt>
      <trkpt lat="42.666494" lon="0.648392">
        <ele>2225.4</ele>
        <time>1970-01-01T00:15:04.000Z</time>
      </trkpt>
      <trkpt lat="42.666491" lon="0.64839">
        <ele>2225.5</ele>
        <time>1970-01-01T00:15:05.000Z</time>
      </trkpt>
      <trkpt lat="42.66649" lon="0.648389">
        <ele>2225.5</ele>
        <time>1970-01-01T00:15:06.000Z</time>
      </trkpt>
      <trkpt lat="42.666489" lon="0.648388">
        <ele>2225.5</ele>
        <time>1970-01-01T00:15:07.000Z</time>
      </trkpt>
      <trkpt lat="42.666487" lon="0.648386">
        <ele>2225.6</ele>
        <time>1970-01-01T00:15:08.000Z</time>
      </trkpt>
      <trkpt lat="42.666485" lon="0.648385">
        <ele>2225.6</ele>
        <time>1970-01-01T00:15:09.000Z</time>
      </trkpt>
      <trkpt lat="42.666484" lon="0.648384">
        <ele>2225.7</ele>
        <time>1970-01-01T00:15:10.000Z</time>
      </trkpt>
      <trkpt lat="42.666483" lon="0.648384">
        <ele>2225.7</ele>
        <time>1970-01-01T00:15:11.000Z</time>
      </trkpt>
      <trkpt lat="42.666483" lon="0.648382">
        <ele>2225.7</ele>
        <time>1970-01-01T00:15:12.000Z</time>
      </trkpt>
      <trkpt lat="42.666482" lon="0.64838">
        <ele>2225.8</ele>
        <time>1970-01-01T00:15:13.000Z</time>
      </trkpt>
      <trkpt lat="42.666481" lon="0.648378">
        <ele>2225.8</ele>
        <time>1970-01-01T00:15:14.000Z</time>
      </trkpt>
      <trkpt lat="42.666479" lon="0.648367">
        <ele>2226</ele>
        <time>1970-01-01T00:15:16.000Z</time>
      </trkpt>
      <trkpt lat="42.666479" lon="0.648364">
        <ele>2226</ele>
        <time>1970-01-01T00:15:17.000Z</time>
      </trkpt>
      <trkpt lat="42.666478" lon="0.64836">
        <ele>2226.1</ele>
        <time>1970-01-01T00:15:19.000Z</time>
      </trkpt>
      <trkpt lat="42.666472" lon="0.648355">
        <ele>2226.2</ele>
        <time>1970-01-01T00:15:20.000Z</time>
      </trkpt>
      <trkpt lat="42.666465" lon="0.648349">
        <ele>2226.3</ele>
        <time>1970-01-01T00:15:22.000Z</time>
      </trkpt>
      <trkpt lat="42.666455" lon="0.648338">
        <ele>2226.5</ele>
        <time>1970-01-01T00:15:23.000Z</time>
      </trkpt>
      <trkpt lat="42.666443" lon="0.648317">
        <ele>2226.9</ele>
        <time>1970-01-01T00:15:25.000Z</time>
      </trkpt>
      <trkpt lat="42.666439" lon="0.648306">
        <ele>2227</ele>
        <time>1970-01-01T00:15:26.000Z</time>
      </trkpt>
      <trkpt lat="42.666436" lon="0.648295">
        <ele>2227.2</ele>
        <time>1970-01-01T00:15:27.000Z</time>
      </trkpt>
      <trkpt lat="42.666433" lon="0.64828">
        <ele>2227.3</ele>
        <time>1970-01-01T00:15:28.000Z</time>
      </trkpt>
      <trkpt lat="42.666427" lon="0.648265">
        <ele>2227.5</ele>
        <time>1970-01-01T00:15:30.000Z</time>
      </trkpt>
      <trkpt lat="42.666417" lon="0.648261">
        <ele>2227.7</ele>
        <time>1970-01-01T00:15:32.000Z</time>
      </trkpt>
      <trkpt lat="42.66641" lon="0.648261">
        <ele>2227.8</ele>
        <time>1970-01-01T00:15:33.000Z</time>
      </trkpt>
      <trkpt lat="42.666406" lon="0.648256">
        <ele>2227.8</ele>
        <time>1970-01-01T00:15:34.000Z</time>
      </trkpt>
      <trkpt lat="42.666403" lon="0.64825">
        <ele>2227.9</ele>
        <time>1970-01-01T00:15:35.000Z</time>
      </trkpt>
      <trkpt lat="42.666396" lon="0.648237">
        <ele>2228.1</ele>
        <time>1970-01-01T00:15:37.000Z</time>
      </trkpt>
      <trkpt lat="42.666391" lon="0.648233">
        <ele>2228.1</ele>
        <time>1970-01-01T00:15:38.000Z</time>
      </trkpt>
      <trkpt lat="42.666385" lon="0.64823">
        <ele>2228.2</ele>
        <time>1970-01-01T00:15:39.000Z</time>
      </trkpt>
      <trkpt lat="42.66638" lon="0.648227">
        <ele>2228.3</ele>
        <time>1970-01-01T00:15:40.000Z</time>
      </trkpt>
      <trkpt lat="42.666376" lon="0.648224">
        <ele>2228.4</ele>
        <time>1970-01-01T00:15:41.000Z</time>
      </trkpt>
      <trkpt lat="42.666374" lon="0.64822">
        <ele>2228.4</ele>
        <time>1970-01-01T00:15:43.000Z</time>
      </trkpt>
      <trkpt lat="42.666373" lon="0.648217">
        <ele>2228.4</ele>
        <time>1970-01-01T00:15:44.000Z</time>
      </trkpt>
      <trkpt lat="42.666372" lon="0.648213">
        <ele>2228.5</ele>
        <time>1970-01-01T00:15:45.000Z</time>
      </trkpt>
      <trkpt lat="42.666368" lon="0.648205">
        <ele>2228.6</ele>
        <time>1970-01-01T00:15:47.000Z</time>
      </trkpt>
      <trkpt lat="42.666366" lon="0.648201">
        <ele>2228.6</ele>
        <time>1970-01-01T00:15:48.000Z</time>
      </trkpt>
      <trkpt lat="42.666364" lon="0.648197">
        <ele>2228.7</ele>
        <time>1970-01-01T00:15:49.000Z</time>
      </trkpt>
      <trkpt lat="42.666363" lon="0.648193">
        <ele>2228.7</ele>
        <time>1970-01-01T00:15:50.000Z</time>
      </trkpt>
      <trkpt lat="42.666361" lon="0.648191">
        <ele>2228.7</ele>
        <time>1970-01-01T00:15:51.000Z</time>
      </trkpt>
      <trkpt lat="42.66636" lon="0.648189">
        <ele>2228.7</ele>
        <time>1970-01-01T00:15:52.000Z</time>
      </trkpt>
      <trkpt lat="42.666358" lon="0.648186">
        <ele>2228.8</ele>
        <time>1970-01-01T00:15:53.000Z</time>
      </trkpt>
      <trkpt lat="42.666355" lon="0.648183">
        <ele>2228.8</ele>
        <time>1970-01-01T00:15:54.000Z</time>
      </trkpt>
      <trkpt lat="42.666351" lon="0.648179">
        <ele>2228.9</ele>
        <time>1970-01-01T00:15:55.000Z</time>
      </trkpt>
      <trkpt lat="42.666347" lon="0.648175">
        <ele>2229</ele>
        <time>1970-01-01T00:15:56.000Z</time>
      </trkpt>
      <trkpt lat="42.666342" lon="0.648168">
        <ele>2229.1</ele>
        <time>1970-01-01T00:15:57.000Z</time>
      </trkpt>
      <trkpt lat="42.666337" lon="0.648158">
        <ele>2229.2</ele>
        <time>1970-01-01T00:15:58.000Z</time>
      </trkpt>
      <trkpt lat="42.666333" lon="0.648147">
        <ele>2229.3</ele>
        <time>1970-01-01T00:15:59.000Z</time>
      </trkpt>
      <trkpt lat="42.666327" lon="0.648136">
        <ele>2229.4</ele>
        <time>1970-01-01T00:16:00.000Z</time>
      </trkpt>
      <trkpt lat="42.666318" lon="0.648128">
        <ele>2229.6</ele>
        <time>1970-01-01T00:16:02.000Z</time>
      </trkpt>
      <trkpt lat="42.666306" lon="0.648123">
        <ele>2229.8</ele>
        <time>1970-01-01T00:16:03.000Z</time>
      </trkpt>
      <trkpt lat="42.6663" lon="0.648121">
        <ele>2229.8</ele>
        <time>1970-01-01T00:16:04.000Z</time>
      </trkpt>
      <trkpt lat="42.666296" lon="0.648117">
        <ele>2229.9</ele>
        <time>1970-01-01T00:16:05.000Z</time>
      </trkpt>
      <trkpt lat="42.666285" lon="0.648116">
        <ele>2230.1</ele>
        <time>1970-01-01T00:16:07.000Z</time>
      </trkpt>
      <trkpt lat="42.666278" lon="0.648113">
        <ele>2230.2</ele>
        <time>1970-01-01T00:16:08.000Z</time>
      </trkpt>
      <trkpt lat="42.666276" lon="0.64811">
        <ele>2230.2</ele>
        <time>1970-01-01T00:16:09.000Z</time>
      </trkpt>
      <trkpt lat="42.666268" lon="0.648101">
        <ele>2230.4</ele>
        <time>1970-01-01T00:16:11.000Z</time>
      </trkpt>
      <trkpt lat="42.666262" lon="0.648102">
        <ele>2230.5</ele>
        <time>1970-01-01T00:16:12.000Z</time>
      </trkpt>
      <trkpt lat="42.666258" lon="0.6481">
        <ele>2230.6</ele>
        <time>1970-01-01T00:16:13.000Z</time>
      </trkpt>
      <trkpt lat="42.666256" lon="0.648101">
        <ele>2230.6</ele>
        <time>1970-01-01T00:16:14.000Z</time>
      </trkpt>
      <trkpt lat="42.666258" lon="0.648104">
        <ele>2230.7</ele>
        <time>1970-01-01T00:16:15.000Z</time>
      </trkpt>
      <trkpt lat="42.666258" lon="0.648105">
        <ele>2230.7</ele>
        <time>1970-01-01T00:16:16.000Z</time>
      </trkpt>
      <trkpt lat="42.666256" lon="0.648103">
        <ele>2230.7</ele>
        <time>1970-01-01T00:16:17.000Z</time>
      </trkpt>
      <trkpt lat="42.666253" lon="0.648103">
        <ele>2230.8</ele>
        <time>1970-01-01T00:16:18.000Z</time>
      </trkpt>
      <trkpt lat="42.666248" lon="0.6481">
        <ele>2230.9</ele>
        <time>1970-01-01T00:16:19.000Z</time>
      </trkpt>
      <trkpt lat="42.666243" lon="0.648097">
        <ele>2230.9</ele>
        <time>1970-01-01T00:16:20.000Z</time>
      </trkpt>
      <trkpt lat="42.66624" lon="0.648093">
        <ele>2231</ele>
        <time>1970-01-01T00:16:21.000Z</time>
      </trkpt>
      <trkpt lat="42.666235" lon="0.648087">
        <ele>2231.1</ele>
        <time>1970-01-01T00:16:22.000Z</time>
      </trkpt>
      <trkpt lat="42.66623" lon="0.648085">
        <ele>2231.2</ele>
        <time>1970-01-01T00:16:23.000Z</time>
      </trkpt>
      <trkpt lat="42.666223" lon="0.648084">
        <ele>2231.4</ele>
        <time>1970-01-01T00:16:25.000Z</time>
      </trkpt>
      <trkpt lat="42.666219" lon="0.648085">
        <ele>2231.4</ele>
        <time>1970-01-01T00:16:26.000Z</time>
      </trkpt>
      <trkpt lat="42.666216" lon="0.648089">
        <ele>2231.5</ele>
        <time>1970-01-01T00:16:27.000Z</time>
      </trkpt>
      <trkpt lat="42.666215" lon="0.648092">
        <ele>2231.6</ele>
        <time>1970-01-01T00:16:28.000Z</time>
      </trkpt>
      <trkpt lat="42.666214" lon="0.648095">
        <ele>2231.6</ele>
        <time>1970-01-01T00:16:29.000Z</time>
      </trkpt>
      <trkpt lat="42.666212" lon="0.648098">
        <ele>2231.7</ele>
        <time>1970-01-01T00:16:30.000Z</time>
      </trkpt>
      <trkpt lat="42.666211" lon="0.648102">
        <ele>2231.7</ele>
        <time>1970-01-01T00:16:31.000Z</time>
      </trkpt>
      <trkpt lat="42.666209" lon="0.648107">
        <ele>2231.8</ele>
        <time>1970-01-01T00:16:32.000Z</time>
      </trkpt>
      <trkpt lat="42.666207" lon="0.648111">
        <ele>2231.9</ele>
        <time>1970-01-01T00:16:33.000Z</time>
      </trkpt>
      <trkpt lat="42.666203" lon="0.648114">
        <ele>2232</ele>
        <time>1970-01-01T00:16:34.000Z</time>
      </trkpt>
      <trkpt lat="42.666192" lon="0.648106">
        <ele>2232.2</ele>
        <time>1970-01-01T00:16:36.000Z</time>
      </trkpt>
      <trkpt lat="42.666187" lon="0.648098">
        <ele>2232.4</ele>
        <time>1970-01-01T00:16:37.000Z</time>
      </trkpt>
      <trkpt lat="42.666182" lon="0.648092">
        <ele>2232.5</ele>
        <time>1970-01-01T00:16:38.000Z</time>
      </trkpt>
      <trkpt lat="42.666175" lon="0.648083">
        <ele>2232.7</ele>
        <time>1970-01-01T00:16:40.000Z</time>
      </trkpt>
      <trkpt lat="42.66617" lon="0.648081">
        <ele>2232.8</ele>
        <time>1970-01-01T00:16:42.000Z</time>
      </trkpt>
      <trkpt lat="42.666168" lon="0.648081">
        <ele>2232.9</ele>
        <time>1970-01-01T00:16:43.000Z</time>
      </trkpt>
      <trkpt lat="42.666166" lon="0.64808">
        <ele>2232.9</ele>
        <time>1970-01-01T00:16:44.000Z</time>
      </trkpt>
      <trkpt lat="42.666166" lon="0.648081">
        <ele>2232.9</ele>
        <time>1970-01-01T00:16:45.000Z</time>
      </trkpt>
      <trkpt lat="42.666165" lon="0.648081">
        <ele>2233</ele>
        <time>1970-01-01T00:16:46.000Z</time>
      </trkpt>
      <trkpt lat="42.666163" lon="0.64808">
        <ele>2233</ele>
        <time>1970-01-01T00:16:47.000Z</time>
      </trkpt>
      <trkpt lat="42.666162" lon="0.64808">
        <ele>2233</ele>
        <time>1970-01-01T00:16:48.000Z</time>
      </trkpt>
      <trkpt lat="42.666161" lon="0.64808">
        <ele>2233.1</ele>
        <time>1970-01-01T00:16:49.000Z</time>
      </trkpt>
      <trkpt lat="42.66616" lon="0.64808">
        <ele>2233.1</ele>
        <time>1970-01-01T00:16:50.000Z</time>
      </trkpt>
      <trkpt lat="42.66616" lon="0.648081">
        <ele>2233.1</ele>
        <time>1970-01-01T00:16:51.000Z</time>
      </trkpt>
      <trkpt lat="42.666161" lon="0.648082">
        <ele>2233.1</ele>
        <time>1970-01-01T00:16:52.000Z</time>
      </trkpt>
      <trkpt lat="42.666162" lon="0.648086">
        <ele>2233.2</ele>
        <time>1970-01-01T00:16:54.000Z</time>
      </trkpt>
      <trkpt lat="42.666161" lon="0.648088">
        <ele>2233.2</ele>
        <time>1970-01-01T00:16:55.000Z</time>
      </trkpt>
      <trkpt lat="42.666162" lon="0.648088">
        <ele>2233.3</ele>
        <time>1970-01-01T00:16:57.000Z</time>
      </trkpt>
      <trkpt lat="42.666163" lon="0.648089">
        <ele>2233.3</ele>
        <time>1970-01-01T00:16:58.000Z</time>
      </trkpt>
      <trkpt lat="42.666164" lon="0.648091">
        <ele>2233.3</ele>
        <time>1970-01-01T00:16:59.000Z</time>
      </trkpt>
      <trkpt lat="42.666166" lon="0.648094">
        <ele>2233.4</ele>
        <time>1970-01-01T00:17:00.000Z</time>
      </trkpt>
      <trkpt lat="42.666168" lon="0.648096">
        <ele>2233.4</ele>
        <time>1970-01-01T00:17:02.000Z</time>
      </trkpt>
      <trkpt lat="42.666168" lon="0.648098">
        <ele>2233.5</ele>
        <time>1970-01-01T00:17:03.000Z</time>
      </trkpt>
      <trkpt lat="42.666167" lon="0.648099">
        <ele>2233.5</ele>
        <time>1970-01-01T00:17:04.000Z</time>
      </trkpt>
      <trkpt lat="42.666165" lon="0.648101">
        <ele>2233.6</ele>
        <time>1970-01-01T00:17:05.000Z</time>
      </trkpt>
      <trkpt lat="42.666162" lon="0.648104">
        <ele>2233.6</ele>
        <time>1970-01-01T00:17:06.000Z</time>
      </trkpt>
      <trkpt lat="42.66616" lon="0.648107">
        <ele>2233.7</ele>
        <time>1970-01-01T00:17:07.000Z</time>
      </trkpt>
      <trkpt lat="42.666156" lon="0.64811">
        <ele>2233.8</ele>
        <time>1970-01-01T00:17:08.000Z</time>
      </trkpt>
      <trkpt lat="42.666151" lon="0.64811">
        <ele>2233.9</ele>
        <time>1970-01-01T00:17:09.000Z</time>
      </trkpt>
      <trkpt lat="42.666147" lon="0.648108">
        <ele>2234</ele>
        <time>1970-01-01T00:17:10.000Z</time>
      </trkpt>
      <trkpt lat="42.666143" lon="0.648106">
        <ele>2234.1</ele>
        <time>1970-01-01T00:17:11.000Z</time>
      </trkpt>
      <trkpt lat="42.666141" lon="0.648106">
        <ele>2234.2</ele>
        <time>1970-01-01T00:17:12.000Z</time>
      </trkpt>
      <trkpt lat="42.66614" lon="0.648105">
        <ele>2234.2</ele>
        <time>1970-01-01T00:17:14.000Z</time>
      </trkpt>
      <trkpt lat="42.666139" lon="0.648103">
        <ele>2234.2</ele>
        <time>1970-01-01T00:17:15.000Z</time>
      </trkpt>
      <trkpt lat="42.666139" lon="0.648102">
        <ele>2234.3</ele>
        <time>1970-01-01T00:17:16.000Z</time>
      </trkpt>
      <trkpt lat="42.666139" lon="0.648101">
        <ele>2234.3</ele>
        <time>1970-01-01T00:17:17.000Z</time>
      </trkpt>
      <trkpt lat="42.666138" lon="0.648101">
        <ele>2234.3</ele>
        <time>1970-01-01T00:17:18.000Z</time>
      </trkpt>
      <trkpt lat="42.666138" lon="0.6481">
        <ele>2234.3</ele>
        <time>1970-01-01T00:17:19.000Z</time>
      </trkpt>
      <trkpt lat="42.666137" lon="0.648099">
        <ele>2234.4</ele>
        <time>1970-01-01T00:17:20.000Z</time>
      </trkpt>
      <trkpt lat="42.666135" lon="0.648097">
        <ele>2234.4</ele>
        <time>1970-01-01T00:17:21.000Z</time>
      </trkpt>
      <trkpt lat="42.666134" lon="0.648096">
        <ele>2234.4</ele>
        <time>1970-01-01T00:17:22.000Z</time>
      </trkpt>
      <trkpt lat="42.66613" lon="0.648097">
        <ele>2234.5</ele>
        <time>1970-01-01T00:17:23.000Z</time>
      </trkpt>
      <trkpt lat="42.666128" lon="0.648097">
        <ele>2234.6</ele>
        <time>1970-01-01T00:17:24.000Z</time>
      </trkpt>
      <trkpt lat="42.666125" lon="0.648097">
        <ele>2234.7</ele>
        <time>1970-01-01T00:17:25.000Z</time>
      </trkpt>
      <trkpt lat="42.66612" lon="0.648092">
        <ele>2234.8</ele>
        <time>1970-01-01T00:17:26.000Z</time>
      </trkpt>
      <trkpt lat="42.666114" lon="0.648078">
        <ele>2235.1</ele>
        <time>1970-01-01T00:17:28.000Z</time>
      </trkpt>
      <trkpt lat="42.666113" lon="0.648072">
        <ele>2235.2</ele>
        <time>1970-01-01T00:17:29.000Z</time>
      </trkpt>
      <trkpt lat="42.666112" lon="0.648059">
        <ele>2235.5</ele>
        <time>1970-01-01T00:17:30.000Z</time>
      </trkpt>
      <trkpt lat="42.666111" lon="0.648047">
        <ele>2235.7</ele>
        <time>1970-01-01T00:17:31.000Z</time>
      </trkpt>
      <trkpt lat="42.66611" lon="0.648043">
        <ele>2235.8</ele>
        <time>1970-01-01T00:17:32.000Z</time>
      </trkpt>
      <trkpt lat="42.666108" lon="0.648041">
        <ele>2235.8</ele>
        <time>1970-01-01T00:17:33.000Z</time>
      </trkpt>
      <trkpt lat="42.666106" lon="0.648035">
        <ele>2236</ele>
        <time>1970-01-01T00:17:34.000Z</time>
      </trkpt>
      <trkpt lat="42.666105" lon="0.64803">
        <ele>2236.1</ele>
        <time>1970-01-01T00:17:35.000Z</time>
      </trkpt>
      <trkpt lat="42.666104" lon="0.648025">
        <ele>2236.1</ele>
        <time>1970-01-01T00:17:36.000Z</time>
      </trkpt>
      <trkpt lat="42.666104" lon="0.648023">
        <ele>2236.2</ele>
        <time>1970-01-01T00:17:37.000Z</time>
      </trkpt>
      <trkpt lat="42.666102" lon="0.648021">
        <ele>2236.3</ele>
        <time>1970-01-01T00:17:38.000Z</time>
      </trkpt>
      <trkpt lat="42.666098" lon="0.648019">
        <ele>2236.4</ele>
        <time>1970-01-01T00:17:39.000Z</time>
      </trkpt>
      <trkpt lat="42.666095" lon="0.648018">
        <ele>2236.4</ele>
        <time>1970-01-01T00:17:40.000Z</time>
      </trkpt>
      <trkpt lat="42.666091" lon="0.648018">
        <ele>2236.5</ele>
        <time>1970-01-01T00:17:42.000Z</time>
      </trkpt>
      <trkpt lat="42.666088" lon="0.648017">
        <ele>2236.6</ele>
        <time>1970-01-01T00:17:43.000Z</time>
      </trkpt>
      <trkpt lat="42.666085" lon="0.648017">
        <ele>2236.7</ele>
        <time>1970-01-01T00:17:44.000Z</time>
      </trkpt>
      <trkpt lat="42.666081" lon="0.648019">
        <ele>2236.8</ele>
        <time>1970-01-01T00:17:45.000Z</time>
      </trkpt>
      <trkpt lat="42.666074" lon="0.648024">
        <ele>2237</ele>
        <time>1970-01-01T00:17:46.000Z</time>
      </trkpt>
      <trkpt lat="42.666071" lon="0.648027">
        <ele>2237.1</ele>
        <time>1970-01-01T00:17:47.000Z</time>
      </trkpt>
      <trkpt lat="42.666069" lon="0.648031">
        <ele>2237.2</ele>
        <time>1970-01-01T00:17:48.000Z</time>
      </trkpt>
      <trkpt lat="42.666068" lon="0.648033">
        <ele>2237.3</ele>
        <time>1970-01-01T00:17:49.000Z</time>
      </trkpt>
      <trkpt lat="42.666067" lon="0.648038">
        <ele>2237.4</ele>
        <time>1970-01-01T00:17:50.000Z</time>
      </trkpt>
      <trkpt lat="42.666066" lon="0.648041">
        <ele>2237.4</ele>
        <time>1970-01-01T00:17:51.000Z</time>
      </trkpt>
      <trkpt lat="42.666058" lon="0.648054">
        <ele>2237.8</ele>
        <time>1970-01-01T00:17:53.000Z</time>
      </trkpt>
      <trkpt lat="42.666044" lon="0.648066">
        <ele>2238.3</ele>
        <time>1970-01-01T00:17:54.000Z</time>
      </trkpt>
      <trkpt lat="42.666033" lon="0.648078">
        <ele>2238.7</ele>
        <time>1970-01-01T00:17:55.000Z</time>
      </trkpt>
      <trkpt lat="42.66603" lon="0.648086">
        <ele>2238.8</ele>
        <time>1970-01-01T00:17:56.000Z</time>
      </trkpt>
      <trkpt lat="42.666028" lon="0.648094">
        <ele>2239</ele>
        <time>1970-01-01T00:17:57.000Z</time>
      </trkpt>
      <trkpt lat="42.666025" lon="0.6481">
        <ele>2239.2</ele>
        <time>1970-01-01T00:17:58.000Z</time>
      </trkpt>
      <trkpt lat="42.666023" lon="0.648103">
        <ele>2239.3</ele>
        <time>1970-01-01T00:17:59.000Z</time>
      </trkpt>
      <trkpt lat="42.666021" lon="0.648105">
        <ele>2239.3</ele>
        <time>1970-01-01T00:18:00.000Z</time>
      </trkpt>
      <trkpt lat="42.666017" lon="0.648104">
        <ele>2239.5</ele>
        <time>1970-01-01T00:18:01.000Z</time>
      </trkpt>
      <trkpt lat="42.666012" lon="0.648098">
        <ele>2239.7</ele>
        <time>1970-01-01T00:18:02.000Z</time>
      </trkpt>
      <trkpt lat="42.666009" lon="0.648087">
        <ele>2239.9</ele>
        <time>1970-01-01T00:18:03.000Z</time>
      </trkpt>
      <trkpt lat="42.666003" lon="0.648065">
        <ele>2240.4</ele>
        <time>1970-01-01T00:18:05.000Z</time>
      </trkpt>
      <trkpt lat="42.666" lon="0.648052">
        <ele>2240.7</ele>
        <time>1970-01-01T00:18:06.000Z</time>
      </trkpt>
      <trkpt lat="42.665998" lon="0.648045">
        <ele>2240.9</ele>
        <time>1970-01-01T00:18:07.000Z</time>
      </trkpt>
      <trkpt lat="42.665992" lon="0.64804">
        <ele>2241.1</ele>
        <time>1970-01-01T00:18:09.000Z</time>
      </trkpt>
      <trkpt lat="42.665981" lon="0.648036">
        <ele>2241.4</ele>
        <time>1970-01-01T00:18:10.000Z</time>
      </trkpt>
      <trkpt lat="42.665978" lon="0.648035">
        <ele>2241.5</ele>
        <time>1970-01-01T00:18:11.000Z</time>
      </trkpt>
      <trkpt lat="42.665976" lon="0.64803">
        <ele>2241.6</ele>
        <time>1970-01-01T00:18:13.000Z</time>
      </trkpt>
      <trkpt lat="42.665977" lon="0.64803">
        <ele>2241.7</ele>
        <time>1970-01-01T00:18:14.000Z</time>
      </trkpt>
      <trkpt lat="42.665979" lon="0.64803">
        <ele>2241.7</ele>
        <time>1970-01-01T00:18:15.000Z</time>
      </trkpt>
      <trkpt lat="42.665981" lon="0.64803">
        <ele>2241.8</ele>
        <time>1970-01-01T00:18:16.000Z</time>
      </trkpt>
      <trkpt lat="42.665983" lon="0.64803">
        <ele>2241.9</ele>
        <time>1970-01-01T00:18:17.000Z</time>
      </trkpt>
      <trkpt lat="42.665983" lon="0.648028">
        <ele>2241.9</ele>
        <time>1970-01-01T00:18:18.000Z</time>
      </trkpt>
      <trkpt lat="42.665983" lon="0.648026">
        <ele>2241.9</ele>
        <time>1970-01-01T00:18:19.000Z</time>
      </trkpt>
      <trkpt lat="42.665983" lon="0.648023">
        <ele>2242</ele>
        <time>1970-01-01T00:18:20.000Z</time>
      </trkpt>
      <trkpt lat="42.665983" lon="0.648021">
        <ele>2242.1</ele>
        <time>1970-01-01T00:18:21.000Z</time>
      </trkpt>
      <trkpt lat="42.665983" lon="0.64802">
        <ele>2242.1</ele>
        <time>1970-01-01T00:18:22.000Z</time>
      </trkpt>
      <trkpt lat="42.665983" lon="0.64802">
        <ele>2242.1</ele>
        <time>1970-01-01T00:18:23.000Z</time>
      </trkpt>
      <trkpt lat="42.665984" lon="0.648019">
        <ele>2242.1</ele>
        <time>1970-01-01T00:18:24.000Z</time>
      </trkpt>
      <trkpt lat="42.665985" lon="0.648019">
        <ele>2242.1</ele>
        <time>1970-01-01T00:18:26.000Z</time>
      </trkpt>
      <trkpt lat="42.665984" lon="0.648017">
        <ele>2242.2</ele>
        <time>1970-01-01T00:18:27.000Z</time>
      </trkpt>
      <trkpt lat="42.665983" lon="0.648017">
        <ele>2242.2</ele>
        <time>1970-01-01T00:18:28.000Z</time>
      </trkpt>
      <trkpt lat="42.665983" lon="0.648017">
        <ele>2242.2</ele>
        <time>1970-01-01T00:18:29.000Z</time>
      </trkpt>
      <trkpt lat="42.665978" lon="0.648009">
        <ele>2242.5</ele>
        <time>1970-01-01T00:18:30.000Z</time>
      </trkpt>
      <trkpt lat="42.665974" lon="0.648004">
        <ele>2242.6</ele>
        <time>1970-01-01T00:18:31.000Z</time>
      </trkpt>
      <trkpt lat="42.665969" lon="0.647998">
        <ele>2242.8</ele>
        <time>1970-01-01T00:18:32.000Z</time>
      </trkpt>
      <trkpt lat="42.665967" lon="0.647994">
        <ele>2242.9</ele>
        <time>1970-01-01T00:18:33.000Z</time>
      </trkpt>
      <trkpt lat="42.665965" lon="0.647992">
        <ele>2243</ele>
        <time>1970-01-01T00:18:34.000Z</time>
      </trkpt>
      <trkpt lat="42.665963" lon="0.64799">
        <ele>2243.1</ele>
        <time>1970-01-01T00:18:35.000Z</time>
      </trkpt>
      <trkpt lat="42.665963" lon="0.647989">
        <ele>2243.1</ele>
        <time>1970-01-01T00:18:36.000Z</time>
      </trkpt>
      <trkpt lat="42.665961" lon="0.647987">
        <ele>2243.2</ele>
        <time>1970-01-01T00:18:37.000Z</time>
      </trkpt>
      <trkpt lat="42.66596" lon="0.647986">
        <ele>2243.2</ele>
        <time>1970-01-01T00:18:38.000Z</time>
      </trkpt>
      <trkpt lat="42.665959" lon="0.647986">
        <ele>2243.2</ele>
        <time>1970-01-01T00:18:39.000Z</time>
      </trkpt>
      <trkpt lat="42.665958" lon="0.647984">
        <ele>2243.3</ele>
        <time>1970-01-01T00:18:40.000Z</time>
      </trkpt>
      <trkpt lat="42.665958" lon="0.647984">
        <ele>2243.3</ele>
        <time>1970-01-01T00:18:41.000Z</time>
      </trkpt>
      <trkpt lat="42.665958" lon="0.647983">
        <ele>2243.3</ele>
        <time>1970-01-01T00:18:43.000Z</time>
      </trkpt>
      <trkpt lat="42.665958" lon="0.647982">
        <ele>2243.3</ele>
        <time>1970-01-01T00:18:44.000Z</time>
      </trkpt>
      <trkpt lat="42.665957" lon="0.647979">
        <ele>2243.4</ele>
        <time>1970-01-01T00:18:45.000Z</time>
      </trkpt>
      <trkpt lat="42.665954" lon="0.647976">
        <ele>2243.5</ele>
        <time>1970-01-01T00:18:46.000Z</time>
      </trkpt>
      <trkpt lat="42.665951" lon="0.647972">
        <ele>2243.6</ele>
        <time>1970-01-01T00:18:47.000Z</time>
      </trkpt>
      <trkpt lat="42.665947" lon="0.64797">
        <ele>2243.8</ele>
        <time>1970-01-01T00:18:48.000Z</time>
      </trkpt>
      <trkpt lat="42.665943" lon="0.647969">
        <ele>2243.9</ele>
        <time>1970-01-01T00:18:49.000Z</time>
      </trkpt>
      <trkpt lat="42.665939" lon="0.647968">
        <ele>2244</ele>
        <time>1970-01-01T00:18:50.000Z</time>
      </trkpt>
      <trkpt lat="42.665935" lon="0.647967">
        <ele>2244.1</ele>
        <time>1970-01-01T00:18:51.000Z</time>
      </trkpt>
      <trkpt lat="42.665933" lon="0.647964">
        <ele>2244.2</ele>
        <time>1970-01-01T00:18:52.000Z</time>
      </trkpt>
      <trkpt lat="42.665929" lon="0.647962">
        <ele>2244.3</ele>
        <time>1970-01-01T00:18:53.000Z</time>
      </trkpt>
      <trkpt lat="42.665927" lon="0.647959">
        <ele>2244.4</ele>
        <time>1970-01-01T00:18:54.000Z</time>
      </trkpt>
      <trkpt lat="42.665925" lon="0.647954">
        <ele>2244.6</ele>
        <time>1970-01-01T00:18:56.000Z</time>
      </trkpt>
      <trkpt lat="42.665923" lon="0.647952">
        <ele>2244.6</ele>
        <time>1970-01-01T00:18:57.000Z</time>
      </trkpt>
      <trkpt lat="42.665923" lon="0.647951">
        <ele>2244.6</ele>
        <time>1970-01-01T00:18:58.000Z</time>
      </trkpt>
      <trkpt lat="42.665921" lon="0.647953">
        <ele>2244.7</ele>
        <time>1970-01-01T00:18:59.000Z</time>
      </trkpt>
      <trkpt lat="42.665919" lon="0.647954">
        <ele>2244.8</ele>
        <time>1970-01-01T00:19:00.000Z</time>
      </trkpt>
      <trkpt lat="42.665917" lon="0.647955">
        <ele>2244.8</ele>
        <time>1970-01-01T00:19:01.000Z</time>
      </trkpt>
      <trkpt lat="42.665914" lon="0.647956">
        <ele>2244.9</ele>
        <time>1970-01-01T00:19:02.000Z</time>
      </trkpt>
      <trkpt lat="42.665911" lon="0.647954">
        <ele>2245</ele>
        <time>1970-01-01T00:19:04.000Z</time>
      </trkpt>
      <trkpt lat="42.665908" lon="0.647957">
        <ele>2245.1</ele>
        <time>1970-01-01T00:19:05.000Z</time>
      </trkpt>
      <trkpt lat="42.665906" lon="0.647959">
        <ele>2245.2</ele>
        <time>1970-01-01T00:19:06.000Z</time>
      </trkpt>
      <trkpt lat="42.665905" lon="0.647962">
        <ele>2245.3</ele>
        <time>1970-01-01T00:19:07.000Z</time>
      </trkpt>
      <trkpt lat="42.665903" lon="0.647965">
        <ele>2245.4</ele>
        <time>1970-01-01T00:19:08.000Z</time>
      </trkpt>
      <trkpt lat="42.665901" lon="0.647971">
        <ele>2245.5</ele>
        <time>1970-01-01T00:19:09.000Z</time>
      </trkpt>
      <trkpt lat="42.6659" lon="0.647971">
        <ele>2245.6</ele>
        <time>1970-01-01T00:19:10.000Z</time>
      </trkpt>
      <trkpt lat="42.665898" lon="0.647973">
        <ele>2245.6</ele>
        <time>1970-01-01T00:19:11.000Z</time>
      </trkpt>
      <trkpt lat="42.665893" lon="0.647975">
        <ele>2245.8</ele>
        <time>1970-01-01T00:19:13.000Z</time>
      </trkpt>
      <trkpt lat="42.665889" lon="0.647977">
        <ele>2245.9</ele>
        <time>1970-01-01T00:19:14.000Z</time>
      </trkpt>
      <trkpt lat="42.665885" lon="0.64798">
        <ele>2246</ele>
        <time>1970-01-01T00:19:15.000Z</time>
      </trkpt>
      <trkpt lat="42.665882" lon="0.647985">
        <ele>2246.2</ele>
        <time>1970-01-01T00:19:16.000Z</time>
      </trkpt>
      <trkpt lat="42.66588" lon="0.647988">
        <ele>2246.2</ele>
        <time>1970-01-01T00:19:17.000Z</time>
      </trkpt>
      <trkpt lat="42.665878" lon="0.647992">
        <ele>2246.3</ele>
        <time>1970-01-01T00:19:18.000Z</time>
      </trkpt>
      <trkpt lat="42.665877" lon="0.647994">
        <ele>2246.4</ele>
        <time>1970-01-01T00:19:19.000Z</time>
      </trkpt>
      <trkpt lat="42.665875" lon="0.647998">
        <ele>2246.5</ele>
        <time>1970-01-01T00:19:20.000Z</time>
      </trkpt>
      <trkpt lat="42.665872" lon="0.648002">
        <ele>2246.6</ele>
        <time>1970-01-01T00:19:22.000Z</time>
      </trkpt>
      <trkpt lat="42.665871" lon="0.648004">
        <ele>2246.7</ele>
        <time>1970-01-01T00:19:23.000Z</time>
      </trkpt>
      <trkpt lat="42.66587" lon="0.648005">
        <ele>2246.7</ele>
        <time>1970-01-01T00:19:24.000Z</time>
      </trkpt>
      <trkpt lat="42.665869" lon="0.648006">
        <ele>2246.7</ele>
        <time>1970-01-01T00:19:25.000Z</time>
      </trkpt>
      <trkpt lat="42.665867" lon="0.648009">
        <ele>2246.8</ele>
        <time>1970-01-01T00:19:26.000Z</time>
      </trkpt>
      <trkpt lat="42.665866" lon="0.648011">
        <ele>2246.9</ele>
        <time>1970-01-01T00:19:27.000Z</time>
      </trkpt>
      <trkpt lat="42.665865" lon="0.648013">
        <ele>2246.9</ele>
        <time>1970-01-01T00:19:28.000Z</time>
      </trkpt>
      <trkpt lat="42.665863" lon="0.648015">
        <ele>2247</ele>
        <time>1970-01-01T00:19:29.000Z</time>
      </trkpt>
      <trkpt lat="42.665859" lon="0.648016">
        <ele>2247.1</ele>
        <time>1970-01-01T00:19:30.000Z</time>
      </trkpt>
      <trkpt lat="42.665856" lon="0.648016">
        <ele>2247.2</ele>
        <time>1970-01-01T00:19:31.000Z</time>
      </trkpt>
      <trkpt lat="42.665854" lon="0.648016">
        <ele>2247.3</ele>
        <time>1970-01-01T00:19:32.000Z</time>
      </trkpt>
      <trkpt lat="42.665852" lon="0.648016">
        <ele>2247.3</ele>
        <time>1970-01-01T00:19:33.000Z</time>
      </trkpt>
      <trkpt lat="42.665851" lon="0.648016">
        <ele>2247.3</ele>
        <time>1970-01-01T00:19:34.000Z</time>
      </trkpt>
      <trkpt lat="42.665849" lon="0.648016">
        <ele>2247.4</ele>
        <time>1970-01-01T00:19:35.000Z</time>
      </trkpt>
      <trkpt lat="42.665847" lon="0.648013">
        <ele>2247.5</ele>
        <time>1970-01-01T00:19:37.000Z</time>
      </trkpt>
      <trkpt lat="42.665846" lon="0.648009">
        <ele>2247.6</ele>
        <time>1970-01-01T00:19:38.000Z</time>
      </trkpt>
      <trkpt lat="42.665843" lon="0.648005">
        <ele>2247.7</ele>
        <time>1970-01-01T00:19:39.000Z</time>
      </trkpt>
      <trkpt lat="42.665841" lon="0.647999">
        <ele>2247.8</ele>
        <time>1970-01-01T00:19:40.000Z</time>
      </trkpt>
      <trkpt lat="42.665843" lon="0.647991">
        <ele>2248</ele>
        <time>1970-01-01T00:19:42.000Z</time>
      </trkpt>
      <trkpt lat="42.665847" lon="0.647981">
        <ele>2248.2</ele>
        <time>1970-01-01T00:19:43.000Z</time>
      </trkpt>
      <trkpt lat="42.66585" lon="0.647975">
        <ele>2248.4</ele>
        <time>1970-01-01T00:19:44.000Z</time>
      </trkpt>
      <trkpt lat="42.665854" lon="0.647968">
        <ele>2248.6</ele>
        <time>1970-01-01T00:19:45.000Z</time>
      </trkpt>
      <trkpt lat="42.665858" lon="0.647962">
        <ele>2248.7</ele>
        <time>1970-01-01T00:19:46.000Z</time>
      </trkpt>
      <trkpt lat="42.665864" lon="0.647951">
        <ele>2249</ele>
        <time>1970-01-01T00:19:47.000Z</time>
      </trkpt>
      <trkpt lat="42.665868" lon="0.647944">
        <ele>2249.2</ele>
        <time>1970-01-01T00:19:48.000Z</time>
      </trkpt>
      <trkpt lat="42.665866" lon="0.647941">
        <ele>2249.3</ele>
        <time>1970-01-01T00:19:49.000Z</time>
      </trkpt>
      <trkpt lat="42.665863" lon="0.647941">
        <ele>2249.4</ele>
        <time>1970-01-01T00:19:50.000Z</time>
      </trkpt>
      <trkpt lat="42.665858" lon="0.647941">
        <ele>2249.5</ele>
        <time>1970-01-01T00:19:51.000Z</time>
      </trkpt>
      <trkpt lat="42.66585" lon="0.647942">
        <ele>2249.8</ele>
        <time>1970-01-01T00:19:53.000Z</time>
      </trkpt>
      <trkpt lat="42.665845" lon="0.647941">
        <ele>2249.9</ele>
        <time>1970-01-01T00:19:54.000Z</time>
      </trkpt>
      <trkpt lat="42.66584" lon="0.647939">
        <ele>2250.1</ele>
        <time>1970-01-01T00:19:55.000Z</time>
      </trkpt>
      <trkpt lat="42.665834" lon="0.647937">
        <ele>2250.2</ele>
        <time>1970-01-01T00:19:56.000Z</time>
      </trkpt>
      <trkpt lat="42.665832" lon="0.647936">
        <ele>2250.3</ele>
        <time>1970-01-01T00:19:57.000Z</time>
      </trkpt>
      <trkpt lat="42.665823" lon="0.647925">
        <ele>2250.6</ele>
        <time>1970-01-01T00:19:58.000Z</time>
      </trkpt>
      <trkpt lat="42.665817" lon="0.647917">
        <ele>2250.9</ele>
        <time>1970-01-01T00:19:59.000Z</time>
      </trkpt>
      <trkpt lat="42.665812" lon="0.647906">
        <ele>2251.1</ele>
        <time>1970-01-01T00:20:00.000Z</time>
      </trkpt>
      <trkpt lat="42.665807" lon="0.647896">
        <ele>2251.4</ele>
        <time>1970-01-01T00:20:01.000Z</time>
      </trkpt>
      <trkpt lat="42.665805" lon="0.64789">
        <ele>2251.5</ele>
        <time>1970-01-01T00:20:02.000Z</time>
      </trkpt>
      <trkpt lat="42.665802" lon="0.647886">
        <ele>2251.7</ele>
        <time>1970-01-01T00:20:03.000Z</time>
      </trkpt>
      <trkpt lat="42.665801" lon="0.647883">
        <ele>2251.7</ele>
        <time>1970-01-01T00:20:04.000Z</time>
      </trkpt>
      <trkpt lat="42.665801" lon="0.647882">
        <ele>2251.7</ele>
        <time>1970-01-01T00:20:05.000Z</time>
      </trkpt>
      <trkpt lat="42.665801" lon="0.647881">
        <ele>2251.8</ele>
        <time>1970-01-01T00:20:06.000Z</time>
      </trkpt>
      <trkpt lat="42.665801" lon="0.647882">
        <ele>2251.8</ele>
        <time>1970-01-01T00:20:07.000Z</time>
      </trkpt>
      <trkpt lat="42.665801" lon="0.647884">
        <ele>2251.8</ele>
        <time>1970-01-01T00:20:08.000Z</time>
      </trkpt>
      <trkpt lat="42.665801" lon="0.647885">
        <ele>2251.8</ele>
        <time>1970-01-01T00:20:09.000Z</time>
      </trkpt>
      <trkpt lat="42.6658" lon="0.647885">
        <ele>2251.9</ele>
        <time>1970-01-01T00:20:10.000Z</time>
      </trkpt>
      <trkpt lat="42.6658" lon="0.647885">
        <ele>2251.9</ele>
        <time>1970-01-01T00:20:11.000Z</time>
      </trkpt>
      <trkpt lat="42.665799" lon="0.647885">
        <ele>2251.9</ele>
        <time>1970-01-01T00:20:12.000Z</time>
      </trkpt>
      <trkpt lat="42.665799" lon="0.647885">
        <ele>2251.9</ele>
        <time>1970-01-01T00:20:13.000Z</time>
      </trkpt>
      <trkpt lat="42.665798" lon="0.647885">
        <ele>2251.9</ele>
        <time>1970-01-01T00:20:15.000Z</time>
      </trkpt>
      <trkpt lat="42.665797" lon="0.647884">
        <ele>2252</ele>
        <time>1970-01-01T00:20:16.000Z</time>
      </trkpt>
      <trkpt lat="42.66579" lon="0.647875">
        <ele>2252.2</ele>
        <time>1970-01-01T00:20:17.000Z</time>
      </trkpt>
      <trkpt lat="42.665784" lon="0.647868">
        <ele>2252.5</ele>
        <time>1970-01-01T00:20:18.000Z</time>
      </trkpt>
      <trkpt lat="42.665779" lon="0.64786">
        <ele>2252.7</ele>
        <time>1970-01-01T00:20:19.000Z</time>
      </trkpt>
      <trkpt lat="42.665777" lon="0.647852">
        <ele>2252.9</ele>
        <time>1970-01-01T00:20:20.000Z</time>
      </trkpt>
      <trkpt lat="42.665778" lon="0.647846">
        <ele>2253</ele>
        <time>1970-01-01T00:20:21.000Z</time>
      </trkpt>
      <trkpt lat="42.665778" lon="0.647842">
        <ele>2253.1</ele>
        <time>1970-01-01T00:20:22.000Z</time>
      </trkpt>
      <trkpt lat="42.665778" lon="0.647837">
        <ele>2253.2</ele>
        <time>1970-01-01T00:20:23.000Z</time>
      </trkpt>
      <trkpt lat="42.665774" lon="0.647831">
        <ele>2253.4</ele>
        <time>1970-01-01T00:20:25.000Z</time>
      </trkpt>
      <trkpt lat="42.665768" lon="0.64782">
        <ele>2253.7</ele>
        <time>1970-01-01T00:20:26.000Z</time>
      </trkpt>
      <trkpt lat="42.665765" lon="0.647813">
        <ele>2253.8</ele>
        <time>1970-01-01T00:20:27.000Z</time>
      </trkpt>
      <trkpt lat="42.665764" lon="0.64781">
        <ele>2253.9</ele>
        <time>1970-01-01T00:20:28.000Z</time>
      </trkpt>
      <trkpt lat="42.665763" lon="0.647808">
        <ele>2254</ele>
        <time>1970-01-01T00:20:29.000Z</time>
      </trkpt>
      <trkpt lat="42.665761" lon="0.647809">
        <ele>2254</ele>
        <time>1970-01-01T00:20:30.000Z</time>
      </trkpt>
      <trkpt lat="42.66576" lon="0.647811">
        <ele>2254.1</ele>
        <time>1970-01-01T00:20:31.000Z</time>
      </trkpt>
      <trkpt lat="42.665758" lon="0.647814">
        <ele>2254.2</ele>
        <time>1970-01-01T00:20:32.000Z</time>
      </trkpt>
      <trkpt lat="42.665757" lon="0.647817">
        <ele>2254.2</ele>
        <time>1970-01-01T00:20:33.000Z</time>
      </trkpt>
      <trkpt lat="42.665756" lon="0.647818">
        <ele>2254.3</ele>
        <time>1970-01-01T00:20:34.000Z</time>
      </trkpt>
      <trkpt lat="42.665756" lon="0.647822">
        <ele>2254.4</ele>
        <time>1970-01-01T00:20:35.000Z</time>
      </trkpt>
      <trkpt lat="42.665755" lon="0.647829">
        <ele>2254.5</ele>
        <time>1970-01-01T00:20:36.000Z</time>
      </trkpt>
      <trkpt lat="42.665756" lon="0.647836">
        <ele>2254.7</ele>
        <time>1970-01-01T00:20:37.000Z</time>
      </trkpt>
      <trkpt lat="42.665757" lon="0.647839">
        <ele>2254.8</ele>
        <time>1970-01-01T00:20:38.000Z</time>
      </trkpt>
      <trkpt lat="42.665758" lon="0.647843">
        <ele>2254.9</ele>
        <time>1970-01-01T00:20:39.000Z</time>
      </trkpt>
      <trkpt lat="42.665759" lon="0.647845">
        <ele>2254.9</ele>
        <time>1970-01-01T00:20:40.000Z</time>
      </trkpt>
      <trkpt lat="42.665759" lon="0.647847">
        <ele>2254.9</ele>
        <time>1970-01-01T00:20:41.000Z</time>
      </trkpt>
      <trkpt lat="42.66576" lon="0.647848">
        <ele>2255</ele>
        <time>1970-01-01T00:20:42.000Z</time>
      </trkpt>
      <trkpt lat="42.66576" lon="0.647848">
        <ele>2255</ele>
        <time>1970-01-01T00:20:43.000Z</time>
      </trkpt>
      <trkpt lat="42.66576" lon="0.647849">
        <ele>2255</ele>
        <time>1970-01-01T00:20:44.000Z</time>
      </trkpt>
      <trkpt lat="42.66576" lon="0.64785">
        <ele>2255</ele>
        <time>1970-01-01T00:20:45.000Z</time>
      </trkpt>
      <trkpt lat="42.66576" lon="0.647851">
        <ele>2255.1</ele>
        <time>1970-01-01T00:20:46.000Z</time>
      </trkpt>
      <trkpt lat="42.66576" lon="0.647852">
        <ele>2255.1</ele>
        <time>1970-01-01T00:20:48.000Z</time>
      </trkpt>
      <trkpt lat="42.66576" lon="0.647853">
        <ele>2255.1</ele>
        <time>1970-01-01T00:20:49.000Z</time>
      </trkpt>
      <trkpt lat="42.665759" lon="0.647854">
        <ele>2255.1</ele>
        <time>1970-01-01T00:20:50.000Z</time>
      </trkpt>
      <trkpt lat="42.665759" lon="0.647855">
        <ele>2255.2</ele>
        <time>1970-01-01T00:20:52.000Z</time>
      </trkpt>
      <trkpt lat="42.66576" lon="0.647856">
        <ele>2255.2</ele>
        <time>1970-01-01T00:20:53.000Z</time>
      </trkpt>
      <trkpt lat="42.665761" lon="0.647854">
        <ele>2255.2</ele>
        <time>1970-01-01T00:20:54.000Z</time>
      </trkpt>
      <trkpt lat="42.665763" lon="0.647848">
        <ele>2255.4</ele>
        <time>1970-01-01T00:20:55.000Z</time>
      </trkpt>
      <trkpt lat="42.665763" lon="0.64784">
        <ele>2255.6</ele>
        <time>1970-01-01T00:20:56.000Z</time>
      </trkpt>
      <trkpt lat="42.66576" lon="0.647836">
        <ele>2255.7</ele>
        <time>1970-01-01T00:20:57.000Z</time>
      </trkpt>
      <trkpt lat="42.665756" lon="0.647834">
        <ele>2255.8</ele>
        <time>1970-01-01T00:20:58.000Z</time>
      </trkpt>
      <trkpt lat="42.665752" lon="0.647832">
        <ele>2256</ele>
        <time>1970-01-01T00:20:59.000Z</time>
      </trkpt>
      <trkpt lat="42.665749" lon="0.647831">
        <ele>2256</ele>
        <time>1970-01-01T00:21:00.000Z</time>
      </trkpt>
      <trkpt lat="42.665746" lon="0.64783">
        <ele>2256.1</ele>
        <time>1970-01-01T00:21:01.000Z</time>
      </trkpt>
      <trkpt lat="42.665744" lon="0.64783">
        <ele>2256.2</ele>
        <time>1970-01-01T00:21:02.000Z</time>
      </trkpt>
      <trkpt lat="42.665741" lon="0.64783">
        <ele>2256.3</ele>
        <time>1970-01-01T00:21:03.000Z</time>
      </trkpt>
      <trkpt lat="42.665738" lon="0.647831">
        <ele>2256.4</ele>
        <time>1970-01-01T00:21:04.000Z</time>
      </trkpt>
      <trkpt lat="42.665735" lon="0.647832">
        <ele>2256.5</ele>
        <time>1970-01-01T00:21:06.000Z</time>
      </trkpt>
      <trkpt lat="42.665733" lon="0.647832">
        <ele>2256.5</ele>
        <time>1970-01-01T00:21:07.000Z</time>
      </trkpt>
      <trkpt lat="42.665732" lon="0.647832">
        <ele>2256.6</ele>
        <time>1970-01-01T00:21:08.000Z</time>
      </trkpt>
      <trkpt lat="42.665732" lon="0.647832">
        <ele>2256.6</ele>
        <time>1970-01-01T00:21:09.000Z</time>
      </trkpt>
      <trkpt lat="42.665731" lon="0.647831">
        <ele>2256.6</ele>
        <time>1970-01-01T00:21:10.000Z</time>
      </trkpt>
      <trkpt lat="42.66573" lon="0.64783">
        <ele>2256.6</ele>
        <time>1970-01-01T00:21:11.000Z</time>
      </trkpt>
      <trkpt lat="42.66573" lon="0.64783">
        <ele>2256.6</ele>
        <time>1970-01-01T00:21:12.000Z</time>
      </trkpt>
      <trkpt lat="42.665731" lon="0.64783">
        <ele>2256.7</ele>
        <time>1970-01-01T00:21:14.000Z</time>
      </trkpt>
      <trkpt lat="42.665731" lon="0.647831">
        <ele>2256.7</ele>
        <time>1970-01-01T00:21:15.000Z</time>
      </trkpt>
      <trkpt lat="42.665731" lon="0.647832">
        <ele>2256.7</ele>
        <time>1970-01-01T00:21:16.000Z</time>
      </trkpt>
      <trkpt lat="42.665732" lon="0.647834">
        <ele>2256.8</ele>
        <time>1970-01-01T00:21:17.000Z</time>
      </trkpt>
      <trkpt lat="42.665732" lon="0.647836">
        <ele>2256.8</ele>
        <time>1970-01-01T00:21:18.000Z</time>
      </trkpt>
      <trkpt lat="42.665731" lon="0.647836">
        <ele>2256.8</ele>
        <time>1970-01-01T00:21:19.000Z</time>
      </trkpt>
      <trkpt lat="42.66573" lon="0.647838">
        <ele>2256.9</ele>
        <time>1970-01-01T00:21:20.000Z</time>
      </trkpt>
      <trkpt lat="42.665729" lon="0.64784">
        <ele>2257</ele>
        <time>1970-01-01T00:21:21.000Z</time>
      </trkpt>
      <trkpt lat="42.665726" lon="0.647844">
        <ele>2257.1</ele>
        <time>1970-01-01T00:21:22.000Z</time>
      </trkpt>
      <trkpt lat="42.665724" lon="0.647847">
        <ele>2257.2</ele>
        <time>1970-01-01T00:21:23.000Z</time>
      </trkpt>
      <trkpt lat="42.665719" lon="0.64785">
        <ele>2257.3</ele>
        <time>1970-01-01T00:21:24.000Z</time>
      </trkpt>
      <trkpt lat="42.665714" lon="0.647848">
        <ele>2257.5</ele>
        <time>1970-01-01T00:21:25.000Z</time>
      </trkpt>
      <trkpt lat="42.665707" lon="0.647847">
        <ele>2257.7</ele>
        <time>1970-01-01T00:21:26.000Z</time>
      </trkpt>
      <trkpt lat="42.665702" lon="0.647847">
        <ele>2257.9</ele>
        <time>1970-01-01T00:21:27.000Z</time>
      </trkpt>
      <trkpt lat="42.665696" lon="0.647845">
        <ele>2258.1</ele>
        <time>1970-01-01T00:21:28.000Z</time>
      </trkpt>
      <trkpt lat="42.66569" lon="0.64784">
        <ele>2258.3</ele>
        <time>1970-01-01T00:21:30.000Z</time>
      </trkpt>
      <trkpt lat="42.665686" lon="0.647834">
        <ele>2258.5</ele>
        <time>1970-01-01T00:21:31.000Z</time>
      </trkpt>
      <trkpt lat="42.665682" lon="0.647827">
        <ele>2258.7</ele>
        <time>1970-01-01T00:21:32.000Z</time>
      </trkpt>
      <trkpt lat="42.665677" lon="0.647822">
        <ele>2258.9</ele>
        <time>1970-01-01T00:21:33.000Z</time>
      </trkpt>
      <trkpt lat="42.665672" lon="0.647815">
        <ele>2259.1</ele>
        <time>1970-01-01T00:21:35.000Z</time>
      </trkpt>
      <trkpt lat="42.665671" lon="0.647811">
        <ele>2259.2</ele>
        <time>1970-01-01T00:21:36.000Z</time>
      </trkpt>
      <trkpt lat="42.665671" lon="0.64781">
        <ele>2259.3</ele>
        <time>1970-01-01T00:21:37.000Z</time>
      </trkpt>
      <trkpt lat="42.66567" lon="0.647808">
        <ele>2259.3</ele>
        <time>1970-01-01T00:21:38.000Z</time>
      </trkpt>
      <trkpt lat="42.665669" lon="0.647806">
        <ele>2259.4</ele>
        <time>1970-01-01T00:21:39.000Z</time>
      </trkpt>
      <trkpt lat="42.665667" lon="0.647804">
        <ele>2259.5</ele>
        <time>1970-01-01T00:21:40.000Z</time>
      </trkpt>
      <trkpt lat="42.665664" lon="0.647804">
        <ele>2259.6</ele>
        <time>1970-01-01T00:21:41.000Z</time>
      </trkpt>
      <trkpt lat="42.665661" lon="0.647803">
        <ele>2259.6</ele>
        <time>1970-01-01T00:21:42.000Z</time>
      </trkpt>
      <trkpt lat="42.665658" lon="0.647802">
        <ele>2259.7</ele>
        <time>1970-01-01T00:21:43.000Z</time>
      </trkpt>
      <trkpt lat="42.665656" lon="0.647799">
        <ele>2259.8</ele>
        <time>1970-01-01T00:21:45.000Z</time>
      </trkpt>
      <trkpt lat="42.665652" lon="0.647799">
        <ele>2260</ele>
        <time>1970-01-01T00:21:46.000Z</time>
      </trkpt>
      <trkpt lat="42.665647" lon="0.647798">
        <ele>2260.1</ele>
        <time>1970-01-01T00:21:48.000Z</time>
      </trkpt>
      <trkpt lat="42.665644" lon="0.647803">
        <ele>2260.3</ele>
        <time>1970-01-01T00:21:49.000Z</time>
      </trkpt>
      <trkpt lat="42.665642" lon="0.647806">
        <ele>2260.4</ele>
        <time>1970-01-01T00:21:50.000Z</time>
      </trkpt>
      <trkpt lat="42.66564" lon="0.647809">
        <ele>2260.5</ele>
        <time>1970-01-01T00:21:51.000Z</time>
      </trkpt>
      <trkpt lat="42.665638" lon="0.647811">
        <ele>2260.6</ele>
        <time>1970-01-01T00:21:52.000Z</time>
      </trkpt>
      <trkpt lat="42.665635" lon="0.647814">
        <ele>2260.7</ele>
        <time>1970-01-01T00:21:53.000Z</time>
      </trkpt>
      <trkpt lat="42.665631" lon="0.647816">
        <ele>2260.8</ele>
        <time>1970-01-01T00:21:55.000Z</time>
      </trkpt>
      <trkpt lat="42.665628" lon="0.647818">
        <ele>2260.9</ele>
        <time>1970-01-01T00:21:56.000Z</time>
      </trkpt>
      <trkpt lat="42.665623" lon="0.64782">
        <ele>2261.1</ele>
        <time>1970-01-01T00:21:57.000Z</time>
      </trkpt>
      <trkpt lat="42.665618" lon="0.647826">
        <ele>2261.3</ele>
        <time>1970-01-01T00:21:58.000Z</time>
      </trkpt>
      <trkpt lat="42.665611" lon="0.647831">
        <ele>2261.6</ele>
        <time>1970-01-01T00:22:00.000Z</time>
      </trkpt>
      <trkpt lat="42.665608" lon="0.647833">
        <ele>2261.7</ele>
        <time>1970-01-01T00:22:01.000Z</time>
      </trkpt>
      <trkpt lat="42.665605" lon="0.647836">
        <ele>2261.8</ele>
        <time>1970-01-01T00:22:02.000Z</time>
      </trkpt>
      <trkpt lat="42.665602" lon="0.647836">
        <ele>2261.9</ele>
        <time>1970-01-01T00:22:03.000Z</time>
      </trkpt>
      <trkpt lat="42.665597" lon="0.647836">
        <ele>2262.1</ele>
        <time>1970-01-01T00:22:04.000Z</time>
      </trkpt>
      <trkpt lat="42.665593" lon="0.647836">
        <ele>2262.2</ele>
        <time>1970-01-01T00:22:05.000Z</time>
      </trkpt>
      <trkpt lat="42.66559" lon="0.647838">
        <ele>2262.3</ele>
        <time>1970-01-01T00:22:06.000Z</time>
      </trkpt>
      <trkpt lat="42.665589" lon="0.64784">
        <ele>2262.4</ele>
        <time>1970-01-01T00:22:08.000Z</time>
      </trkpt>
      <trkpt lat="42.665588" lon="0.647843">
        <ele>2262.4</ele>
        <time>1970-01-01T00:22:09.000Z</time>
      </trkpt>
      <trkpt lat="42.665587" lon="0.647847">
        <ele>2262.5</ele>
        <time>1970-01-01T00:22:10.000Z</time>
      </trkpt>
      <trkpt lat="42.665586" lon="0.647848">
        <ele>2262.6</ele>
        <time>1970-01-01T00:22:11.000Z</time>
      </trkpt>
      <trkpt lat="42.665586" lon="0.647848">
        <ele>2262.6</ele>
        <time>1970-01-01T00:22:12.000Z</time>
      </trkpt>
      <trkpt lat="42.665585" lon="0.647846">
        <ele>2262.6</ele>
        <time>1970-01-01T00:22:13.000Z</time>
      </trkpt>
      <trkpt lat="42.665581" lon="0.647842">
        <ele>2262.8</ele>
        <time>1970-01-01T00:22:14.000Z</time>
      </trkpt>
      <trkpt lat="42.665579" lon="0.647838">
        <ele>2262.9</ele>
        <time>1970-01-01T00:22:15.000Z</time>
      </trkpt>
      <trkpt lat="42.665577" lon="0.647833">
        <ele>2263.1</ele>
        <time>1970-01-01T00:22:16.000Z</time>
      </trkpt>
      <trkpt lat="42.665575" lon="0.64783">
        <ele>2263.2</ele>
        <time>1970-01-01T00:22:17.000Z</time>
      </trkpt>
      <trkpt lat="42.665573" lon="0.647829">
        <ele>2263.2</ele>
        <time>1970-01-01T00:22:18.000Z</time>
      </trkpt>
      <trkpt lat="42.665572" lon="0.647829">
        <ele>2263.3</ele>
        <time>1970-01-01T00:22:19.000Z</time>
      </trkpt>
      <trkpt lat="42.66557" lon="0.647831">
        <ele>2263.4</ele>
        <time>1970-01-01T00:22:20.000Z</time>
      </trkpt>
      <trkpt lat="42.665568" lon="0.647833">
        <ele>2263.4</ele>
        <time>1970-01-01T00:22:21.000Z</time>
      </trkpt>
      <trkpt lat="42.665564" lon="0.647831">
        <ele>2263.6</ele>
        <time>1970-01-01T00:22:22.000Z</time>
      </trkpt>
      <trkpt lat="42.665561" lon="0.647829">
        <ele>2263.7</ele>
        <time>1970-01-01T00:22:23.000Z</time>
      </trkpt>
      <trkpt lat="42.665558" lon="0.647825">
        <ele>2263.8</ele>
        <time>1970-01-01T00:22:24.000Z</time>
      </trkpt>
      <trkpt lat="42.665554" lon="0.647821">
        <ele>2264</ele>
        <time>1970-01-01T00:22:25.000Z</time>
      </trkpt>
      <trkpt lat="42.66555" lon="0.647815">
        <ele>2264.2</ele>
        <time>1970-01-01T00:22:26.000Z</time>
      </trkpt>
      <trkpt lat="42.665545" lon="0.647812">
        <ele>2264.4</ele>
        <time>1970-01-01T00:22:27.000Z</time>
      </trkpt>
      <trkpt lat="42.665541" lon="0.647811">
        <ele>2264.5</ele>
        <time>1970-01-01T00:22:28.000Z</time>
      </trkpt>
      <trkpt lat="42.665539" lon="0.647812">
        <ele>2264.6</ele>
        <time>1970-01-01T00:22:30.000Z</time>
      </trkpt>
      <trkpt lat="42.665536" lon="0.647814">
        <ele>2264.7</ele>
        <time>1970-01-01T00:22:31.000Z</time>
      </trkpt>
      <trkpt lat="42.665532" lon="0.647813">
        <ele>2264.8</ele>
        <time>1970-01-01T00:22:32.000Z</time>
      </trkpt>
      <trkpt lat="42.665525" lon="0.647809">
        <ele>2265.1</ele>
        <time>1970-01-01T00:22:33.000Z</time>
      </trkpt>
      <trkpt lat="42.665522" lon="0.647806">
        <ele>2265.2</ele>
        <time>1970-01-01T00:22:34.000Z</time>
      </trkpt>
      <trkpt lat="42.66551" lon="0.647806">
        <ele>2265.6</ele>
        <time>1970-01-01T00:22:36.000Z</time>
      </trkpt>
      <trkpt lat="42.665491" lon="0.647804">
        <ele>2266.3</ele>
        <time>1970-01-01T00:22:38.000Z</time>
      </trkpt>
      <trkpt lat="42.665477" lon="0.647801">
        <ele>2266.7</ele>
        <time>1970-01-01T00:22:39.000Z</time>
      </trkpt>
      <trkpt lat="42.665465" lon="0.647794">
        <ele>2267.2</ele>
        <time>1970-01-01T00:22:41.000Z</time>
      </trkpt>
      <trkpt lat="42.665462" lon="0.647793">
        <ele>2267.3</ele>
        <time>1970-01-01T00:22:42.000Z</time>
      </trkpt>
      <trkpt lat="42.665456" lon="0.647791">
        <ele>2267.5</ele>
        <time>1970-01-01T00:22:44.000Z</time>
      </trkpt>
      <trkpt lat="42.665455" lon="0.64779">
        <ele>2267.5</ele>
        <time>1970-01-01T00:22:45.000Z</time>
      </trkpt>
      <trkpt lat="42.665453" lon="0.647785">
        <ele>2267.7</ele>
        <time>1970-01-01T00:22:46.000Z</time>
      </trkpt>
      <trkpt lat="42.665452" lon="0.647777">
        <ele>2267.9</ele>
        <time>1970-01-01T00:22:47.000Z</time>
      </trkpt>
      <trkpt lat="42.665451" lon="0.647769">
        <ele>2268.1</ele>
        <time>1970-01-01T00:22:48.000Z</time>
      </trkpt>
      <trkpt lat="42.665451" lon="0.647763">
        <ele>2268.2</ele>
        <time>1970-01-01T00:22:49.000Z</time>
      </trkpt>
      <trkpt lat="42.665452" lon="0.647751">
        <ele>2268.5</ele>
        <time>1970-01-01T00:22:50.000Z</time>
      </trkpt>
      <trkpt lat="42.665454" lon="0.647738">
        <ele>2268.8</ele>
        <time>1970-01-01T00:22:52.000Z</time>
      </trkpt>
      <trkpt lat="42.665457" lon="0.647728">
        <ele>2269.1</ele>
        <time>1970-01-01T00:22:53.000Z</time>
      </trkpt>
      <trkpt lat="42.665456" lon="0.647719">
        <ele>2269.3</ele>
        <time>1970-01-01T00:22:54.000Z</time>
      </trkpt>
      <trkpt lat="42.665461" lon="0.647708">
        <ele>2269.6</ele>
        <time>1970-01-01T00:22:56.000Z</time>
      </trkpt>
      <trkpt lat="42.665464" lon="0.647703">
        <ele>2269.8</ele>
        <time>1970-01-01T00:22:58.000Z</time>
      </trkpt>
      <trkpt lat="42.665465" lon="0.647705">
        <ele>2269.9</ele>
        <time>1970-01-01T00:22:59.000Z</time>
      </trkpt>
      <trkpt lat="42.665465" lon="0.647711">
        <ele>2270</ele>
        <time>1970-01-01T00:23:01.000Z</time>
      </trkpt>
      <trkpt lat="42.665468" lon="0.647714">
        <ele>2270.1</ele>
        <time>1970-01-01T00:23:02.000Z</time>
      </trkpt>
      <trkpt lat="42.665474" lon="0.647715">
        <ele>2270.3</ele>
        <time>1970-01-01T00:23:03.000Z</time>
      </trkpt>
      <trkpt lat="42.665486" lon="0.647719">
        <ele>2270.8</ele>
        <time>1970-01-01T00:23:05.000Z</time>
      </trkpt>
      <trkpt lat="42.665493" lon="0.64772">
        <ele>2271</ele>
        <time>1970-01-01T00:23:06.000Z</time>
      </trkpt>
      <trkpt lat="42.665502" lon="0.647719">
        <ele>2271.3</ele>
        <time>1970-01-01T00:23:07.000Z</time>
      </trkpt>
      <trkpt lat="42.665504" lon="0.647718">
        <ele>2271.3</ele>
        <time>1970-01-01T00:23:08.000Z</time>
      </trkpt>
      <trkpt lat="42.665504" lon="0.647712">
        <ele>2271.5</ele>
        <time>1970-01-01T00:23:09.000Z</time>
      </trkpt>
      <trkpt lat="42.6655" lon="0.647711">
        <ele>2271.6</ele>
        <time>1970-01-01T00:23:11.000Z</time>
      </trkpt>
      <trkpt lat="42.665495" lon="0.647711">
        <ele>2271.9</ele>
        <time>1970-01-01T00:23:12.000Z</time>
      </trkpt>
      <trkpt lat="42.665492" lon="0.647713">
        <ele>2272</ele>
        <time>1970-01-01T00:23:13.000Z</time>
      </trkpt>
      <trkpt lat="42.665489" lon="0.647718">
        <ele>2272.2</ele>
        <time>1970-01-01T00:23:14.000Z</time>
      </trkpt>
      <trkpt lat="42.665485" lon="0.647724">
        <ele>2272.5</ele>
        <time>1970-01-01T00:23:15.000Z</time>
      </trkpt>
      <trkpt lat="42.665481" lon="0.647731">
        <ele>2272.8</ele>
        <time>1970-01-01T00:23:16.000Z</time>
      </trkpt>
      <trkpt lat="42.665479" lon="0.647734">
        <ele>2273</ele>
        <time>1970-01-01T00:23:17.000Z</time>
      </trkpt>
      <trkpt lat="42.665475" lon="0.647739">
        <ele>2273.2</ele>
        <time>1970-01-01T00:23:18.000Z</time>
      </trkpt>
      <trkpt lat="42.665471" lon="0.647744">
        <ele>2273.5</ele>
        <time>1970-01-01T00:23:19.000Z</time>
      </trkpt>
      <trkpt lat="42.665467" lon="0.647749">
        <ele>2273.6</ele>
        <time>1970-01-01T00:23:20.000Z</time>
      </trkpt>
      <trkpt lat="42.665454" lon="0.647759">
        <ele>2274.3</ele>
        <time>1970-01-01T00:23:22.000Z</time>
      </trkpt>
      <trkpt lat="42.665445" lon="0.647762">
        <ele>2274.6</ele>
        <time>1970-01-01T00:23:23.000Z</time>
      </trkpt>
      <trkpt lat="42.665434" lon="0.647765">
        <ele>2275.1</ele>
        <time>1970-01-01T00:23:24.000Z</time>
      </trkpt>
      <trkpt lat="42.665427" lon="0.647765">
        <ele>2275.5</ele>
        <time>1970-01-01T00:23:25.000Z</time>
      </trkpt>
      <trkpt lat="42.66542" lon="0.647768">
        <ele>2275.8</ele>
        <time>1970-01-01T00:23:26.000Z</time>
      </trkpt>
      <trkpt lat="42.665413" lon="0.647779">
        <ele>2276.1</ele>
        <time>1970-01-01T00:23:27.000Z</time>
      </trkpt>
      <trkpt lat="42.665406" lon="0.647787">
        <ele>2276.4</ele>
        <time>1970-01-01T00:23:28.000Z</time>
      </trkpt>
      <trkpt lat="42.665393" lon="0.647794">
        <ele>2277.2</ele>
        <time>1970-01-01T00:23:30.000Z</time>
      </trkpt>
      <trkpt lat="42.665388" lon="0.647796">
        <ele>2277.3</ele>
        <time>1970-01-01T00:23:31.000Z</time>
      </trkpt>
      <trkpt lat="42.665382" lon="0.647794">
        <ele>2277.6</ele>
        <time>1970-01-01T00:23:32.000Z</time>
      </trkpt>
      <trkpt lat="42.665381" lon="0.647791">
        <ele>2277.8</ele>
        <time>1970-01-01T00:23:33.000Z</time>
      </trkpt>
      <trkpt lat="42.665382" lon="0.647787">
        <ele>2277.9</ele>
        <time>1970-01-01T00:23:34.000Z</time>
      </trkpt>
      <trkpt lat="42.665386" lon="0.647781">
        <ele>2278.1</ele>
        <time>1970-01-01T00:23:35.000Z</time>
      </trkpt>
      <trkpt lat="42.665389" lon="0.647774">
        <ele>2278.3</ele>
        <time>1970-01-01T00:23:37.000Z</time>
      </trkpt>
      <trkpt lat="42.665389" lon="0.647771">
        <ele>2278.5</ele>
        <time>1970-01-01T00:23:38.000Z</time>
      </trkpt>
      <trkpt lat="42.66539" lon="0.647769">
        <ele>2278.5</ele>
        <time>1970-01-01T00:23:39.000Z</time>
      </trkpt>
      <trkpt lat="42.665389" lon="0.647768">
        <ele>2278.7</ele>
        <time>1970-01-01T00:23:40.000Z</time>
      </trkpt>
      <trkpt lat="42.665386" lon="0.647766">
        <ele>2278.9</ele>
        <time>1970-01-01T00:23:41.000Z</time>
      </trkpt>
      <trkpt lat="42.665384" lon="0.647764">
        <ele>2279</ele>
        <time>1970-01-01T00:23:42.000Z</time>
      </trkpt>
      <trkpt lat="42.665379" lon="0.647754">
        <ele>2279.2</ele>
        <time>1970-01-01T00:23:43.000Z</time>
      </trkpt>
      <trkpt lat="42.665373" lon="0.647743">
        <ele>2279.5</ele>
        <time>1970-01-01T00:23:44.000Z</time>
      </trkpt>
      <trkpt lat="42.66537" lon="0.647731">
        <ele>2279.7</ele>
        <time>1970-01-01T00:23:45.000Z</time>
      </trkpt>
      <trkpt lat="42.66537" lon="0.647718">
        <ele>2280</ele>
        <time>1970-01-01T00:23:46.000Z</time>
      </trkpt>
      <trkpt lat="42.665371" lon="0.647705">
        <ele>2280.2</ele>
        <time>1970-01-01T00:23:47.000Z</time>
      </trkpt>
      <trkpt lat="42.665371" lon="0.64769">
        <ele>2280.4</ele>
        <time>1970-01-01T00:23:48.000Z</time>
      </trkpt>
      <trkpt lat="42.665367" lon="0.647684">
        <ele>2280.6</ele>
        <time>1970-01-01T00:23:49.000Z</time>
      </trkpt>
      <trkpt lat="42.665363" lon="0.647684">
        <ele>2281.2</ele>
        <time>1970-01-01T00:23:50.000Z</time>
      </trkpt>
      <trkpt lat="42.665359" lon="0.647683">
        <ele>2281.4</ele>
        <time>1970-01-01T00:23:51.000Z</time>
      </trkpt>
      <trkpt lat="42.665355" lon="0.647681">
        <ele>2281.5</ele>
        <time>1970-01-01T00:23:52.000Z</time>
      </trkpt>
      <trkpt lat="42.665354" lon="0.647681">
        <ele>2281.6</ele>
        <time>1970-01-01T00:23:53.000Z</time>
      </trkpt>
      <trkpt lat="42.665347" lon="0.647674">
        <ele>2281.8</ele>
        <time>1970-01-01T00:23:54.000Z</time>
      </trkpt>
      <trkpt lat="42.665341" lon="0.647666">
        <ele>2282</ele>
        <time>1970-01-01T00:23:55.000Z</time>
      </trkpt>
      <trkpt lat="42.665339" lon="0.647664">
        <ele>2282.1</ele>
        <time>1970-01-01T00:23:56.000Z</time>
      </trkpt>
      <trkpt lat="42.665336" lon="0.647666">
        <ele>2282.2</ele>
        <time>1970-01-01T00:23:57.000Z</time>
      </trkpt>
      <trkpt lat="42.665333" lon="0.647678">
        <ele>2283</ele>
        <time>1970-01-01T00:23:58.000Z</time>
      </trkpt>
      <trkpt lat="42.66533" lon="0.647687">
        <ele>2283.3</ele>
        <time>1970-01-01T00:23:59.000Z</time>
      </trkpt>
      <trkpt lat="42.665322" lon="0.647715">
        <ele>2283.7</ele>
        <time>1970-01-01T00:24:00.000Z</time>
      </trkpt>
      <trkpt lat="42.665319" lon="0.64773">
        <ele>2284</ele>
        <time>1970-01-01T00:24:01.000Z</time>
      </trkpt>
      <trkpt lat="42.665316" lon="0.647745">
        <ele>2284.2</ele>
        <time>1970-01-01T00:24:02.000Z</time>
      </trkpt>
      <trkpt lat="42.66531" lon="0.647765">
        <ele>2284.5</ele>
        <time>1970-01-01T00:24:03.000Z</time>
      </trkpt>
      <trkpt lat="42.6653" lon="0.647783">
        <ele>2285.6</ele>
        <time>1970-01-01T00:24:05.000Z</time>
      </trkpt>
      <trkpt lat="42.665284" lon="0.647786">
        <ele>2285.9</ele>
        <time>1970-01-01T00:24:06.000Z</time>
      </trkpt>
      <trkpt lat="42.665278" lon="0.647782">
        <ele>2286.1</ele>
        <time>1970-01-01T00:24:07.000Z</time>
      </trkpt>
      <trkpt lat="42.665274" lon="0.647778">
        <ele>2286.2</ele>
        <time>1970-01-01T00:24:08.000Z</time>
      </trkpt>
      <trkpt lat="42.665273" lon="0.647775">
        <ele>2286.3</ele>
        <time>1970-01-01T00:24:09.000Z</time>
      </trkpt>
      <trkpt lat="42.665273" lon="0.647774">
        <ele>2286.4</ele>
        <time>1970-01-01T00:24:10.000Z</time>
      </trkpt>
      <trkpt lat="42.665275" lon="0.647775">
        <ele>2286.5</ele>
        <time>1970-01-01T00:24:11.000Z</time>
      </trkpt>
      <trkpt lat="42.665277" lon="0.647776">
        <ele>2286.5</ele>
        <time>1970-01-01T00:24:12.000Z</time>
      </trkpt>
      <trkpt lat="42.665279" lon="0.647775">
        <ele>2286.6</ele>
        <time>1970-01-01T00:24:13.000Z</time>
      </trkpt>
      <trkpt lat="42.66528" lon="0.647767">
        <ele>2286.7</ele>
        <time>1970-01-01T00:24:14.000Z</time>
      </trkpt>
      <trkpt lat="42.665284" lon="0.647763">
        <ele>2286.7</ele>
        <time>1970-01-01T00:24:15.000Z</time>
      </trkpt>
      <trkpt lat="42.665289" lon="0.647761">
        <ele>2286.8</ele>
        <time>1970-01-01T00:24:16.000Z</time>
      </trkpt>
      <trkpt lat="42.665293" lon="0.647762">
        <ele>2286.9</ele>
        <time>1970-01-01T00:24:17.000Z</time>
      </trkpt>
      <trkpt lat="42.665296" lon="0.647761">
        <ele>2287</ele>
        <time>1970-01-01T00:24:18.000Z</time>
      </trkpt>
      <trkpt lat="42.6653" lon="0.647761">
        <ele>2287.1</ele>
        <time>1970-01-01T00:24:19.000Z</time>
      </trkpt>
      <trkpt lat="42.6653" lon="0.647757">
        <ele>2287.2</ele>
        <time>1970-01-01T00:24:20.000Z</time>
      </trkpt>
      <trkpt lat="42.665298" lon="0.647751">
        <ele>2287.2</ele>
        <time>1970-01-01T00:24:21.000Z</time>
      </trkpt>
      <trkpt lat="42.665295" lon="0.647746">
        <ele>2287.3</ele>
        <time>1970-01-01T00:24:22.000Z</time>
      </trkpt>
      <trkpt lat="42.665291" lon="0.647739">
        <ele>2287.4</ele>
        <time>1970-01-01T00:24:23.000Z</time>
      </trkpt>
      <trkpt lat="42.665289" lon="0.647731">
        <ele>2287.5</ele>
        <time>1970-01-01T00:24:24.000Z</time>
      </trkpt>
      <trkpt lat="42.665288" lon="0.647722">
        <ele>2287.6</ele>
        <time>1970-01-01T00:24:25.000Z</time>
      </trkpt>
      <trkpt lat="42.665286" lon="0.64771">
        <ele>2287.6</ele>
        <time>1970-01-01T00:24:26.000Z</time>
      </trkpt>
      <trkpt lat="42.665288" lon="0.647705">
        <ele>2287.7</ele>
        <time>1970-01-01T00:24:27.000Z</time>
      </trkpt>
      <trkpt lat="42.665288" lon="0.6477">
        <ele>2287.8</ele>
        <time>1970-01-01T00:24:28.000Z</time>
      </trkpt>
      <trkpt lat="42.665288" lon="0.647692">
        <ele>2287.8</ele>
        <time>1970-01-01T00:24:29.000Z</time>
      </trkpt>
      <trkpt lat="42.665287" lon="0.647684">
        <ele>2287.9</ele>
        <time>1970-01-01T00:24:30.000Z</time>
      </trkpt>
      <trkpt lat="42.665288" lon="0.647681">
        <ele>2288</ele>
        <time>1970-01-01T00:24:31.000Z</time>
      </trkpt>
      <trkpt lat="42.665289" lon="0.64768">
        <ele>2288</ele>
        <time>1970-01-01T00:24:32.000Z</time>
      </trkpt>
      <trkpt lat="42.66529" lon="0.647679">
        <ele>2288.1</ele>
        <time>1970-01-01T00:24:33.000Z</time>
      </trkpt>
      <trkpt lat="42.66529" lon="0.64768">
        <ele>2288.1</ele>
        <time>1970-01-01T00:24:34.000Z</time>
      </trkpt>
      <trkpt lat="42.665289" lon="0.647681">
        <ele>2288.1</ele>
        <time>1970-01-01T00:24:35.000Z</time>
      </trkpt>
      <trkpt lat="42.665288" lon="0.647681">
        <ele>2288.2</ele>
        <time>1970-01-01T00:24:36.000Z</time>
      </trkpt>
      <trkpt lat="42.665287" lon="0.647683">
        <ele>2288.2</ele>
        <time>1970-01-01T00:24:37.000Z</time>
      </trkpt>
      <trkpt lat="42.665286" lon="0.647683">
        <ele>2288.2</ele>
        <time>1970-01-01T00:24:38.000Z</time>
      </trkpt>
      <trkpt lat="42.665285" lon="0.647685">
        <ele>2288.3</ele>
        <time>1970-01-01T00:24:39.000Z</time>
      </trkpt>
      <trkpt lat="42.665285" lon="0.647685">
        <ele>2288.3</ele>
        <time>1970-01-01T00:24:40.000Z</time>
      </trkpt>
      <trkpt lat="42.665283" lon="0.647685">
        <ele>2288.4</ele>
        <time>1970-01-01T00:24:41.000Z</time>
      </trkpt>
      <trkpt lat="42.665282" lon="0.647686">
        <ele>2288.4</ele>
        <time>1970-01-01T00:24:42.000Z</time>
      </trkpt>
      <trkpt lat="42.665282" lon="0.647687">
        <ele>2288.4</ele>
        <time>1970-01-01T00:24:43.000Z</time>
      </trkpt>
      <trkpt lat="42.665281" lon="0.647688">
        <ele>2288.5</ele>
        <time>1970-01-01T00:24:44.000Z</time>
      </trkpt>
      <trkpt lat="42.665281" lon="0.647689">
        <ele>2288.5</ele>
        <time>1970-01-01T00:24:45.000Z</time>
      </trkpt>
      <trkpt lat="42.66528" lon="0.647689">
        <ele>2288.5</ele>
        <time>1970-01-01T00:24:46.000Z</time>
      </trkpt>
      <trkpt lat="42.665279" lon="0.647689">
        <ele>2288.6</ele>
        <time>1970-01-01T00:24:47.000Z</time>
      </trkpt>
      <trkpt lat="42.665281" lon="0.647692">
        <ele>2288.6</ele>
        <time>1970-01-01T00:24:48.000Z</time>
      </trkpt>
      <trkpt lat="42.665282" lon="0.647694">
        <ele>2288.6</ele>
        <time>1970-01-01T00:24:49.000Z</time>
      </trkpt>
      <trkpt lat="42.665283" lon="0.647695">
        <ele>2288.7</ele>
        <time>1970-01-01T00:24:50.000Z</time>
      </trkpt>
      <trkpt lat="42.665283" lon="0.647695">
        <ele>2288.7</ele>
        <time>1970-01-01T00:24:51.000Z</time>
      </trkpt>
      <trkpt lat="42.665284" lon="0.647695">
        <ele>2288.7</ele>
        <time>1970-01-01T00:24:52.000Z</time>
      </trkpt>
      <trkpt lat="42.665284" lon="0.647695">
        <ele>2288.7</ele>
        <time>1970-01-01T00:24:53.000Z</time>
      </trkpt>
      <trkpt lat="42.665284" lon="0.647695">
        <ele>2288.8</ele>
        <time>1970-01-01T00:24:54.000Z</time>
      </trkpt>
      <trkpt lat="42.665284" lon="0.647695">
        <ele>2288.8</ele>
        <time>1970-01-01T00:24:55.000Z</time>
      </trkpt>
      <trkpt lat="42.665284" lon="0.647695">
        <ele>2288.8</ele>
        <time>1970-01-01T00:24:56.000Z</time>
      </trkpt>
      <trkpt lat="42.665284" lon="0.647694">
        <ele>2288.8</ele>
        <time>1970-01-01T00:24:57.000Z</time>
      </trkpt>
      <trkpt lat="42.665284" lon="0.647694">
        <ele>2288.8</ele>
        <time>1970-01-01T00:24:58.000Z</time>
      </trkpt>
      <trkpt lat="42.665284" lon="0.647694">
        <ele>2288.8</ele>
        <time>1970-01-01T00:24:59.000Z</time>
      </trkpt>
      <trkpt lat="42.665284" lon="0.647694">
        <ele>2288.8</ele>
        <time>1970-01-01T00:25:00.000Z</time>
      </trkpt>
      <trkpt lat="42.665283" lon="0.647695">
        <ele>2288.8</ele>
        <time>1970-01-01T00:25:01.000Z</time>
      </trkpt>
      <trkpt lat="42.665282" lon="0.647697">
        <ele>2288.8</ele>
        <time>1970-01-01T00:25:02.000Z</time>
      </trkpt>
      <trkpt lat="42.66528" lon="0.647699">
        <ele>2288.8</ele>
        <time>1970-01-01T00:25:03.000Z</time>
      </trkpt>
      <trkpt lat="42.665279" lon="0.6477">
        <ele>2288.8</ele>
        <time>1970-01-01T00:25:04.000Z</time>
      </trkpt>
      <trkpt lat="42.665278" lon="0.647701">
        <ele>2288.8</ele>
        <time>1970-01-01T00:25:05.000Z</time>
      </trkpt>
      <trkpt lat="42.665278" lon="0.647701">
        <ele>2288.8</ele>
        <time>1970-01-01T00:25:06.000Z</time>
      </trkpt>
      <trkpt lat="42.665277" lon="0.647701">
        <ele>2288.8</ele>
        <time>1970-01-01T00:25:07.000Z</time>
      </trkpt>
      <trkpt lat="42.665277" lon="0.647701">
        <ele>2288.8</ele>
        <time>1970-01-01T00:25:08.000Z</time>
      </trkpt>
      <trkpt lat="42.665277" lon="0.647701">
        <ele>2288.8</ele>
        <time>1970-01-01T00:25:09.000Z</time>
      </trkpt>
      <trkpt lat="42.665277" lon="0.647701">
        <ele>2288.8</ele>
        <time>1970-01-01T00:25:10.000Z</time>
      </trkpt>
      <trkpt lat="42.665277" lon="0.647701">
        <ele>2288.8</ele>
        <time>1970-01-01T00:25:11.000Z</time>
      </trkpt>
      <trkpt lat="42.665277" lon="0.647701">
        <ele>2288.8</ele>
        <time>1970-01-01T00:25:12.000Z</time>
      </trkpt>
      <trkpt lat="42.665277" lon="0.647701">
        <ele>2288.8</ele>
        <time>1970-01-01T00:25:13.000Z</time>
      </trkpt>
      <trkpt lat="42.665275" lon="0.647703">
        <ele>2288.8</ele>
        <time>1970-01-01T00:25:14.000Z</time>
      </trkpt>
      <trkpt lat="42.665273" lon="0.647703">
        <ele>2288.8</ele>
        <time>1970-01-01T00:25:15.000Z</time>
      </trkpt>
      <trkpt lat="42.665272" lon="0.647703">
        <ele>2288.8</ele>
        <time>1970-01-01T00:25:16.000Z</time>
      </trkpt>
      <trkpt lat="42.66527" lon="0.647703">
        <ele>2290.4</ele>
        <time>1970-01-01T00:25:17.000Z</time>
      </trkpt>
      <trkpt lat="42.665268" lon="0.647701">
        <ele>2290.4</ele>
        <time>1970-01-01T00:25:18.000Z</time>
      </trkpt>
      <trkpt lat="42.665265" lon="0.6477">
        <ele>2290.4</ele>
        <time>1970-01-01T00:25:19.000Z</time>
      </trkpt>
      <trkpt lat="42.665265" lon="0.647697">
        <ele>2290.4</ele>
        <time>1970-01-01T00:25:20.000Z</time>
      </trkpt>
      <trkpt lat="42.665264" lon="0.647695">
        <ele>2290.4</ele>
        <time>1970-01-01T00:25:21.000Z</time>
      </trkpt>
      <trkpt lat="42.665264" lon="0.647694">
        <ele>2290.4</ele>
        <time>1970-01-01T00:25:22.000Z</time>
      </trkpt>
      <trkpt lat="42.665263" lon="0.647694">
        <ele>2290.4</ele>
        <time>1970-01-01T00:25:23.000Z</time>
      </trkpt>
      <trkpt lat="42.665261" lon="0.647697">
        <ele>2290.4</ele>
        <time>1970-01-01T00:25:24.000Z</time>
      </trkpt>
      <trkpt lat="42.66526" lon="0.647699">
        <ele>2290.4</ele>
        <time>1970-01-01T00:25:25.000Z</time>
      </trkpt>
      <trkpt lat="42.665259" lon="0.6477">
        <ele>2290.4</ele>
        <time>1970-01-01T00:25:26.000Z</time>
      </trkpt>
      <trkpt lat="42.665259" lon="0.647701">
        <ele>2290.4</ele>
        <time>1970-01-01T00:25:27.000Z</time>
      </trkpt>
      <trkpt lat="42.665259" lon="0.647701">
        <ele>2290.4</ele>
        <time>1970-01-01T00:25:28.000Z</time>
      </trkpt>
      <trkpt lat="42.665259" lon="0.647701">
        <ele>2290.4</ele>
        <time>1970-01-01T00:25:29.000Z</time>
      </trkpt>
      <trkpt lat="42.665259" lon="0.647701">
        <ele>2290.4</ele>
        <time>1970-01-01T00:25:30.000Z</time>
      </trkpt>
      <trkpt lat="42.665259" lon="0.647701">
        <ele>2290.4</ele>
        <time>1970-01-01T00:25:31.000Z</time>
      </trkpt>
      <trkpt lat="42.665259" lon="0.6477">
        <ele>2290.4</ele>
        <time>1970-01-01T00:25:32.000Z</time>
      </trkpt>
      <trkpt lat="42.665259" lon="0.6477">
        <ele>2290.4</ele>
        <time>1970-01-01T00:25:33.000Z</time>
      </trkpt>
      <trkpt lat="42.665258" lon="0.647695">
        <ele>2290.4</ele>
        <time>1970-01-01T00:25:34.000Z</time>
      </trkpt>
      <trkpt lat="42.665257" lon="0.647695">
        <ele>2290.4</ele>
        <time>1970-01-01T00:25:35.000Z</time>
      </trkpt>
      <trkpt lat="42.665257" lon="0.647694">
        <ele>2290.4</ele>
        <time>1970-01-01T00:25:36.000Z</time>
      </trkpt>
      <trkpt lat="42.665256" lon="0.647695">
        <ele>2290.4</ele>
        <time>1970-01-01T00:25:37.000Z</time>
      </trkpt>
      <trkpt lat="42.665256" lon="0.647695">
        <ele>2290.4</ele>
        <time>1970-01-01T00:25:38.000Z</time>
      </trkpt>
      <trkpt lat="42.665255" lon="0.647695">
        <ele>2290.4</ele>
        <time>1970-01-01T00:25:39.000Z</time>
      </trkpt>
      <trkpt lat="42.665255" lon="0.647694">
        <ele>2290.4</ele>
        <time>1970-01-01T00:25:40.000Z</time>
      </trkpt>
      <trkpt lat="42.665254" lon="0.647694">
        <ele>2290.4</ele>
        <time>1970-01-01T00:25:41.000Z</time>
      </trkpt>
      <trkpt lat="42.665254" lon="0.647695">
        <ele>2290.4</ele>
        <time>1970-01-01T00:25:42.000Z</time>
      </trkpt>
      <trkpt lat="42.665253" lon="0.647695">
        <ele>2290.4</ele>
        <time>1970-01-01T00:25:43.000Z</time>
      </trkpt>
      <trkpt lat="42.665253" lon="0.647694">
        <ele>2290.4</ele>
        <time>1970-01-01T00:25:45.000Z</time>
      </trkpt>
      <trkpt lat="42.665253" lon="0.647693">
        <ele>2290.4</ele>
        <time>1970-01-01T00:25:46.000Z</time>
      </trkpt>
      <trkpt lat="42.665252" lon="0.647693">
        <ele>2290.4</ele>
        <time>1970-01-01T00:25:47.000Z</time>
      </trkpt>
      <trkpt lat="42.665253" lon="0.647694">
        <ele>2290.4</ele>
        <time>1970-01-01T00:25:48.000Z</time>
      </trkpt>
      <trkpt lat="42.665253" lon="0.647694">
        <ele>2290.4</ele>
        <time>1970-01-01T00:25:49.000Z</time>
      </trkpt>
      <trkpt lat="42.665252" lon="0.647694">
        <ele>2290.4</ele>
        <time>1970-01-01T00:25:50.000Z</time>
      </trkpt>
      <trkpt lat="42.665252" lon="0.647694">
        <ele>2290.4</ele>
        <time>1970-01-01T00:25:51.000Z</time>
      </trkpt>
      <trkpt lat="42.665252" lon="0.647694">
        <ele>2290.4</ele>
        <time>1970-01-01T00:25:52.000Z</time>
      </trkpt>
      <trkpt lat="42.665252" lon="0.647695">
        <ele>2290.4</ele>
        <time>1970-01-01T00:25:53.000Z</time>
      </trkpt>
      <trkpt lat="42.665252" lon="0.647695">
        <ele>2290.4</ele>
        <time>1970-01-01T00:25:54.000Z</time>
      </trkpt>
      <trkpt lat="42.665253" lon="0.647696">
        <ele>2290.4</ele>
        <time>1970-01-01T00:25:55.000Z</time>
      </trkpt>
      <trkpt lat="42.665253" lon="0.647696">
        <ele>2290.4</ele>
        <time>1970-01-01T00:25:56.000Z</time>
      </trkpt>
      <trkpt lat="42.665254" lon="0.647695">
        <ele>2290.4</ele>
        <time>1970-01-01T00:25:57.000Z</time>
      </trkpt>
      <trkpt lat="42.665254" lon="0.647696">
        <ele>2290.4</ele>
        <time>1970-01-01T00:25:58.000Z</time>
      </trkpt>
      <trkpt lat="42.665255" lon="0.647696">
        <ele>2290.4</ele>
        <time>1970-01-01T00:25:59.000Z</time>
      </trkpt>
      <trkpt lat="42.665255" lon="0.647695">
        <ele>2290.4</ele>
        <time>1970-01-01T00:26:00.000Z</time>
      </trkpt>
      <trkpt lat="42.665255" lon="0.647695">
        <ele>2290.4</ele>
        <time>1970-01-01T00:26:01.000Z</time>
      </trkpt>
      <trkpt lat="42.665255" lon="0.647695">
        <ele>2290.4</ele>
        <time>1970-01-01T00:26:02.000Z</time>
      </trkpt>
      <trkpt lat="42.665255" lon="0.647695">
        <ele>2290.4</ele>
        <time>1970-01-01T00:26:03.000Z</time>
      </trkpt>
      <trkpt lat="42.665257" lon="0.647698">
        <ele>2290.4</ele>
        <time>1970-01-01T00:26:04.000Z</time>
      </trkpt>
      <trkpt lat="42.665258" lon="0.647699">
        <ele>2290.4</ele>
        <time>1970-01-01T00:26:05.000Z</time>
      </trkpt>
      <trkpt lat="42.665258" lon="0.6477">
        <ele>2290.4</ele>
        <time>1970-01-01T00:26:06.000Z</time>
      </trkpt>
      <trkpt lat="42.665259" lon="0.647701">
        <ele>2290.4</ele>
        <time>1970-01-01T00:26:07.000Z</time>
      </trkpt>
      <trkpt lat="42.665259" lon="0.647701">
        <ele>2290.4</ele>
        <time>1970-01-01T00:26:08.000Z</time>
      </trkpt>
      <trkpt lat="42.665259" lon="0.647701">
        <ele>2290.4</ele>
        <time>1970-01-01T00:26:09.000Z</time>
      </trkpt>
      <trkpt lat="42.665259" lon="0.647701">
        <ele>2290.4</ele>
        <time>1970-01-01T00:26:10.000Z</time>
      </trkpt>
      <trkpt lat="42.665259" lon="0.647701">
        <ele>2290.4</ele>
        <time>1970-01-01T00:26:11.000Z</time>
      </trkpt>
      <trkpt lat="42.665259" lon="0.647701">
        <ele>2290.4</ele>
        <time>1970-01-01T00:26:12.000Z</time>
      </trkpt>
      <trkpt lat="42.665259" lon="0.647701">
        <ele>2290.4</ele>
        <time>1970-01-01T00:26:13.000Z</time>
      </trkpt>
      <trkpt lat="42.665259" lon="0.647701">
        <ele>2290.4</ele>
        <time>1970-01-01T00:26:14.000Z</time>
      </trkpt>
      <trkpt lat="42.665258" lon="0.647701">
        <ele>2290.4</ele>
        <time>1970-01-01T00:26:15.000Z</time>
      </trkpt>
      <trkpt lat="42.665258" lon="0.647701">
        <ele>2290.4</ele>
        <time>1970-01-01T00:26:16.000Z</time>
      </trkpt>
      <trkpt lat="42.665258" lon="0.647701">
        <ele>2290.4</ele>
        <time>1970-01-01T00:26:17.000Z</time>
      </trkpt>
      <trkpt lat="42.665258" lon="0.647703">
        <ele>2290.4</ele>
        <time>1970-01-01T00:26:18.000Z</time>
      </trkpt>
      <trkpt lat="42.665257" lon="0.647704">
        <ele>2290.4</ele>
        <time>1970-01-01T00:26:19.000Z</time>
      </trkpt>
      <trkpt lat="42.665255" lon="0.647704">
        <ele>2290.4</ele>
        <time>1970-01-01T00:26:20.000Z</time>
      </trkpt>
      <trkpt lat="42.665252" lon="0.647704">
        <ele>2290.4</ele>
        <time>1970-01-01T00:26:21.000Z</time>
      </trkpt>
      <trkpt lat="42.665248" lon="0.647705">
        <ele>2290.4</ele>
        <time>1970-01-01T00:26:22.000Z</time>
      </trkpt>
      <trkpt lat="42.665244" lon="0.647706">
        <ele>2290.4</ele>
        <time>1970-01-01T00:26:23.000Z</time>
      </trkpt>
      <trkpt lat="42.66524" lon="0.647706">
        <ele>2290.4</ele>
        <time>1970-01-01T00:26:24.000Z</time>
      </trkpt>
      <trkpt lat="42.665237" lon="0.647704">
        <ele>2292</ele>
        <time>1970-01-01T00:26:25.000Z</time>
      </trkpt>
      <trkpt lat="42.665235" lon="0.647703">
        <ele>2292</ele>
        <time>1970-01-01T00:26:26.000Z</time>
      </trkpt>
      <trkpt lat="42.665233" lon="0.647703">
        <ele>2292</ele>
        <time>1970-01-01T00:26:27.000Z</time>
      </trkpt>
      <trkpt lat="42.665231" lon="0.647703">
        <ele>2292</ele>
        <time>1970-01-01T00:26:28.000Z</time>
      </trkpt>
      <trkpt lat="42.665231" lon="0.647704">
        <ele>2292</ele>
        <time>1970-01-01T00:26:29.000Z</time>
      </trkpt>
      <trkpt lat="42.665231" lon="0.647705">
        <ele>2292</ele>
        <time>1970-01-01T00:26:30.000Z</time>
      </trkpt>
      <trkpt lat="42.665231" lon="0.647705">
        <ele>2292</ele>
        <time>1970-01-01T00:26:31.000Z</time>
      </trkpt>
      <trkpt lat="42.66523" lon="0.647707">
        <ele>2292</ele>
        <time>1970-01-01T00:26:32.000Z</time>
      </trkpt>
      <trkpt lat="42.665227" lon="0.647713">
        <ele>2292</ele>
        <time>1970-01-01T00:26:33.000Z</time>
      </trkpt>
      <trkpt lat="42.665223" lon="0.647718">
        <ele>2292</ele>
        <time>1970-01-01T00:26:35.000Z</time>
      </trkpt>
      <trkpt lat="42.665219" lon="0.647723">
        <ele>2292.1</ele>
        <time>1970-01-01T00:26:36.000Z</time>
      </trkpt>
      <trkpt lat="42.665214" lon="0.64773">
        <ele>2292.1</ele>
        <time>1970-01-01T00:26:37.000Z</time>
      </trkpt>
      <trkpt lat="42.665211" lon="0.647736">
        <ele>2292.1</ele>
        <time>1970-01-01T00:26:38.000Z</time>
      </trkpt>
      <trkpt lat="42.665204" lon="0.647748">
        <ele>2293.5</ele>
        <time>1970-01-01T00:26:39.000Z</time>
      </trkpt>
      <trkpt lat="42.665194" lon="0.647765">
        <ele>2293.8</ele>
        <time>1970-01-01T00:26:40.000Z</time>
      </trkpt>
      <trkpt lat="42.665187" lon="0.64777">
        <ele>2293.8</ele>
        <time>1970-01-01T00:26:41.000Z</time>
      </trkpt>
      <trkpt lat="42.665181" lon="0.647772">
        <ele>2293.8</ele>
        <time>1970-01-01T00:26:42.000Z</time>
      </trkpt>
      <trkpt lat="42.665172" lon="0.647768">
        <ele>2295</ele>
        <time>1970-01-01T00:26:43.000Z</time>
      </trkpt>
      <trkpt lat="42.665166" lon="0.647765">
        <ele>2295</ele>
        <time>1970-01-01T00:26:44.000Z</time>
      </trkpt>
      <trkpt lat="42.66516" lon="0.647759">
        <ele>2294.8</ele>
        <time>1970-01-01T00:26:45.000Z</time>
      </trkpt>
      <trkpt lat="42.665156" lon="0.647751">
        <ele>2294.8</ele>
        <time>1970-01-01T00:26:46.000Z</time>
      </trkpt>
      <trkpt lat="42.665153" lon="0.647746">
        <ele>2294.8</ele>
        <time>1970-01-01T00:26:47.000Z</time>
      </trkpt>
      <trkpt lat="42.665151" lon="0.647754">
        <ele>2294.8</ele>
        <time>1970-01-01T00:26:49.000Z</time>
      </trkpt>
      <trkpt lat="42.66515" lon="0.647763">
        <ele>2294.8</ele>
        <time>1970-01-01T00:26:50.000Z</time>
      </trkpt>
      <trkpt lat="42.665146" lon="0.647776">
        <ele>2295</ele>
        <time>1970-01-01T00:26:51.000Z</time>
      </trkpt>
      <trkpt lat="42.665141" lon="0.647783">
        <ele>2296.3</ele>
        <time>1970-01-01T00:26:52.000Z</time>
      </trkpt>
      <trkpt lat="42.665124" lon="0.647799">
        <ele>2296.3</ele>
        <time>1970-01-01T00:26:53.000Z</time>
      </trkpt>
      <trkpt lat="42.665117" lon="0.647806">
        <ele>2296.3</ele>
        <time>1970-01-01T00:26:54.000Z</time>
      </trkpt>
      <trkpt lat="42.66511" lon="0.647813">
        <ele>2297.8</ele>
        <time>1970-01-01T00:26:55.000Z</time>
      </trkpt>
      <trkpt lat="42.665101" lon="0.647827">
        <ele>2297.8</ele>
        <time>1970-01-01T00:26:56.000Z</time>
      </trkpt>
      <trkpt lat="42.665092" lon="0.64783">
        <ele>2297.8</ele>
        <time>1970-01-01T00:26:58.000Z</time>
      </trkpt>
      <trkpt lat="42.665088" lon="0.647823">
        <ele>2297.8</ele>
        <time>1970-01-01T00:26:59.000Z</time>
      </trkpt>
      <trkpt lat="42.665084" lon="0.647815">
        <ele>2297.8</ele>
        <time>1970-01-01T00:27:00.000Z</time>
      </trkpt>
      <trkpt lat="42.665082" lon="0.647812">
        <ele>2297.8</ele>
        <time>1970-01-01T00:27:01.000Z</time>
      </trkpt>
      <trkpt lat="42.665079" lon="0.647813">
        <ele>2299.2</ele>
        <time>1970-01-01T00:27:02.000Z</time>
      </trkpt>
      <trkpt lat="42.665076" lon="0.647816">
        <ele>2299.2</ele>
        <time>1970-01-01T00:27:03.000Z</time>
      </trkpt>
      <trkpt lat="42.665073" lon="0.647822">
        <ele>2299.2</ele>
        <time>1970-01-01T00:27:04.000Z</time>
      </trkpt>
      <trkpt lat="42.665069" lon="0.647832">
        <ele>2299.2</ele>
        <time>1970-01-01T00:27:06.000Z</time>
      </trkpt>
      <trkpt lat="42.665069" lon="0.647839">
        <ele>2299.2</ele>
        <time>1970-01-01T00:27:07.000Z</time>
      </trkpt>
      <trkpt lat="42.665067" lon="0.647848">
        <ele>2299.2</ele>
        <time>1970-01-01T00:27:08.000Z</time>
      </trkpt>
      <trkpt lat="42.665065" lon="0.647852">
        <ele>2299.5</ele>
        <time>1970-01-01T00:27:09.000Z</time>
      </trkpt>
      <trkpt lat="42.66506" lon="0.647857">
        <ele>2299.5</ele>
        <time>1970-01-01T00:27:11.000Z</time>
      </trkpt>
      <trkpt lat="42.665057" lon="0.647862">
        <ele>2299.5</ele>
        <time>1970-01-01T00:27:12.000Z</time>
      </trkpt>
      <trkpt lat="42.665052" lon="0.647869">
        <ele>2299.5</ele>
        <time>1970-01-01T00:27:13.000Z</time>
      </trkpt>
      <trkpt lat="42.665048" lon="0.647873">
        <ele>2301.1</ele>
        <time>1970-01-01T00:27:14.000Z</time>
      </trkpt>
      <trkpt lat="42.665038" lon="0.647886">
        <ele>2301.1</ele>
        <time>1970-01-01T00:27:16.000Z</time>
      </trkpt>
      <trkpt lat="42.66502" lon="0.647902">
        <ele>2301.4</ele>
        <time>1970-01-01T00:27:17.000Z</time>
      </trkpt>
      <trkpt lat="42.665013" lon="0.647907">
        <ele>2303</ele>
        <time>1970-01-01T00:27:18.000Z</time>
      </trkpt>
      <trkpt lat="42.665006" lon="0.647911">
        <ele>2303</ele>
        <time>1970-01-01T00:27:19.000Z</time>
      </trkpt>
      <trkpt lat="42.664991" lon="0.647916">
        <ele>2303</ele>
        <time>1970-01-01T00:27:21.000Z</time>
      </trkpt>
      <trkpt lat="42.664982" lon="0.64792">
        <ele>2304.4</ele>
        <time>1970-01-01T00:27:22.000Z</time>
      </trkpt>
      <trkpt lat="42.664979" lon="0.647921">
        <ele>2304.4</ele>
        <time>1970-01-01T00:27:23.000Z</time>
      </trkpt>
      <trkpt lat="42.664978" lon="0.647923">
        <ele>2304.4</ele>
        <time>1970-01-01T00:27:24.000Z</time>
      </trkpt>
      <trkpt lat="42.664977" lon="0.647927">
        <ele>2304.4</ele>
        <time>1970-01-01T00:27:25.000Z</time>
      </trkpt>
      <trkpt lat="42.664979" lon="0.647933">
        <ele>2304.4</ele>
        <time>1970-01-01T00:27:26.000Z</time>
      </trkpt>
      <trkpt lat="42.664981" lon="0.647935">
        <ele>2304.4</ele>
        <time>1970-01-01T00:27:27.000Z</time>
      </trkpt>
      <trkpt lat="42.664983" lon="0.647939">
        <ele>2304.8</ele>
        <time>1970-01-01T00:27:28.000Z</time>
      </trkpt>
      <trkpt lat="42.664986" lon="0.647945">
        <ele>2304.8</ele>
        <time>1970-01-01T00:27:29.000Z</time>
      </trkpt>
      <trkpt lat="42.664987" lon="0.647951">
        <ele>2303.3</ele>
        <time>1970-01-01T00:27:30.000Z</time>
      </trkpt>
      <trkpt lat="42.664988" lon="0.647956">
        <ele>2303.3</ele>
        <time>1970-01-01T00:27:31.000Z</time>
      </trkpt>
      <trkpt lat="42.664989" lon="0.64796">
        <ele>2303.3</ele>
        <time>1970-01-01T00:27:32.000Z</time>
      </trkpt>
      <trkpt lat="42.664987" lon="0.647963">
        <ele>2303.3</ele>
        <time>1970-01-01T00:27:33.000Z</time>
      </trkpt>
      <trkpt lat="42.664988" lon="0.647973">
        <ele>2303.3</ele>
        <time>1970-01-01T00:27:35.000Z</time>
      </trkpt>
      <trkpt lat="42.664989" lon="0.647981">
        <ele>2303.8</ele>
        <time>1970-01-01T00:27:36.000Z</time>
      </trkpt>
      <trkpt lat="42.66499" lon="0.647996">
        <ele>2303.8</ele>
        <time>1970-01-01T00:27:37.000Z</time>
      </trkpt>
      <trkpt lat="42.664991" lon="0.648008">
        <ele>2303.8</ele>
        <time>1970-01-01T00:27:38.000Z</time>
      </trkpt>
      <trkpt lat="42.664991" lon="0.64802">
        <ele>2303.8</ele>
        <time>1970-01-01T00:27:39.000Z</time>
      </trkpt>
      <trkpt lat="42.664984" lon="0.648033">
        <ele>2305.7</ele>
        <time>1970-01-01T00:27:40.000Z</time>
      </trkpt>
      <trkpt lat="42.664976" lon="0.648043">
        <ele>2305.7</ele>
        <time>1970-01-01T00:27:41.000Z</time>
      </trkpt>
      <trkpt lat="42.66497" lon="0.648045">
        <ele>2305.7</ele>
        <time>1970-01-01T00:27:42.000Z</time>
      </trkpt>
      <trkpt lat="42.664965" lon="0.648042">
        <ele>2305.7</ele>
        <time>1970-01-01T00:27:44.000Z</time>
      </trkpt>
      <trkpt lat="42.664964" lon="0.648041">
        <ele>2305.7</ele>
        <time>1970-01-01T00:27:45.000Z</time>
      </trkpt>
      <trkpt lat="42.664963" lon="0.648042">
        <ele>2305.7</ele>
        <time>1970-01-01T00:27:46.000Z</time>
      </trkpt>
      <trkpt lat="42.664955" lon="0.648048">
        <ele>2307</ele>
        <time>1970-01-01T00:27:47.000Z</time>
      </trkpt>
      <trkpt lat="42.66495" lon="0.648052">
        <ele>2307</ele>
        <time>1970-01-01T00:27:48.000Z</time>
      </trkpt>
      <trkpt lat="42.664947" lon="0.648056">
        <ele>2307</ele>
        <time>1970-01-01T00:27:49.000Z</time>
      </trkpt>
      <trkpt lat="42.664946" lon="0.64806">
        <ele>2307</ele>
        <time>1970-01-01T00:27:50.000Z</time>
      </trkpt>
      <trkpt lat="42.664944" lon="0.648066">
        <ele>2307.5</ele>
        <time>1970-01-01T00:27:52.000Z</time>
      </trkpt>
      <trkpt lat="42.664943" lon="0.64807">
        <ele>2307.5</ele>
        <time>1970-01-01T00:27:53.000Z</time>
      </trkpt>
      <trkpt lat="42.66494" lon="0.648074">
        <ele>2307.5</ele>
        <time>1970-01-01T00:27:54.000Z</time>
      </trkpt>
      <trkpt lat="42.664938" lon="0.648077">
        <ele>2307.5</ele>
        <time>1970-01-01T00:27:55.000Z</time>
      </trkpt>
      <trkpt lat="42.664932" lon="0.648075">
        <ele>2307.5</ele>
        <time>1970-01-01T00:27:57.000Z</time>
      </trkpt>
      <trkpt lat="42.664929" lon="0.648065">
        <ele>2307.5</ele>
        <time>1970-01-01T00:27:59.000Z</time>
      </trkpt>
      <trkpt lat="42.664934" lon="0.648058">
        <ele>2307</ele>
        <time>1970-01-01T00:28:00.000Z</time>
      </trkpt>
      <trkpt lat="42.664935" lon="0.648055">
        <ele>2307</ele>
        <time>1970-01-01T00:28:01.000Z</time>
      </trkpt>
      <trkpt lat="42.664936" lon="0.648053">
        <ele>2307</ele>
        <time>1970-01-01T00:28:02.000Z</time>
      </trkpt>
      <trkpt lat="42.664938" lon="0.648053">
        <ele>2307</ele>
        <time>1970-01-01T00:28:03.000Z</time>
      </trkpt>
      <trkpt lat="42.664941" lon="0.648054">
        <ele>2307</ele>
        <time>1970-01-01T00:28:04.000Z</time>
      </trkpt>
      <trkpt lat="42.664945" lon="0.648055">
        <ele>2307</ele>
        <time>1970-01-01T00:28:05.000Z</time>
      </trkpt>
      <trkpt lat="42.664946" lon="0.648056">
        <ele>2307</ele>
        <time>1970-01-01T00:28:07.000Z</time>
      </trkpt>
      <trkpt lat="42.664945" lon="0.648058">
        <ele>2307</ele>
        <time>1970-01-01T00:28:08.000Z</time>
      </trkpt>
      <trkpt lat="42.664945" lon="0.648061">
        <ele>2307</ele>
        <time>1970-01-01T00:28:10.000Z</time>
      </trkpt>
      <trkpt lat="42.664944" lon="0.648064">
        <ele>2307</ele>
        <time>1970-01-01T00:28:11.000Z</time>
      </trkpt>
      <trkpt lat="42.664944" lon="0.648068">
        <ele>2307.5</ele>
        <time>1970-01-01T00:28:12.000Z</time>
      </trkpt>
      <trkpt lat="42.664944" lon="0.648072">
        <ele>2307.5</ele>
        <time>1970-01-01T00:28:13.000Z</time>
      </trkpt>
      <trkpt lat="42.664944" lon="0.648079">
        <ele>2307.5</ele>
        <time>1970-01-01T00:28:14.000Z</time>
      </trkpt>
      <trkpt lat="42.664945" lon="0.648087">
        <ele>2307.5</ele>
        <time>1970-01-01T00:28:15.000Z</time>
      </trkpt>
      <trkpt lat="42.664944" lon="0.648099">
        <ele>2307.5</ele>
        <time>1970-01-01T00:28:16.000Z</time>
      </trkpt>
      <trkpt lat="42.664944" lon="0.648106">
        <ele>2307.5</ele>
        <time>1970-01-01T00:28:17.000Z</time>
      </trkpt>
      <trkpt lat="42.664942" lon="0.64811">
        <ele>2307.9</ele>
        <time>1970-01-01T00:28:18.000Z</time>
      </trkpt>
      <trkpt lat="42.66494" lon="0.648115">
        <ele>2307.9</ele>
        <time>1970-01-01T00:28:19.000Z</time>
      </trkpt>
      <trkpt lat="42.664936" lon="0.648124">
        <ele>2307.9</ele>
        <time>1970-01-01T00:28:20.000Z</time>
      </trkpt>
      <trkpt lat="42.664932" lon="0.648134">
        <ele>2307.9</ele>
        <time>1970-01-01T00:28:21.000Z</time>
      </trkpt>
      <trkpt lat="42.664925" lon="0.64814">
        <ele>2307.9</ele>
        <time>1970-01-01T00:28:22.000Z</time>
      </trkpt>
      <trkpt lat="42.664915" lon="0.648147">
        <ele>2309.1</ele>
        <time>1970-01-01T00:28:24.000Z</time>
      </trkpt>
      <trkpt lat="42.664907" lon="0.64815">
        <ele>2309.1</ele>
        <time>1970-01-01T00:28:25.000Z</time>
      </trkpt>
      <trkpt lat="42.664901" lon="0.648151">
        <ele>2309.5</ele>
        <time>1970-01-01T00:28:26.000Z</time>
      </trkpt>
      <trkpt lat="42.664894" lon="0.648148">
        <ele>2309.1</ele>
        <time>1970-01-01T00:28:27.000Z</time>
      </trkpt>
      <trkpt lat="42.664888" lon="0.648134">
        <ele>2310.4</ele>
        <time>1970-01-01T00:28:28.000Z</time>
      </trkpt>
      <trkpt lat="42.664887" lon="0.648118">
        <ele>2310.4</ele>
        <time>1970-01-01T00:28:29.000Z</time>
      </trkpt>
      <trkpt lat="42.66489" lon="0.6481">
        <ele>2309.9</ele>
        <time>1970-01-01T00:28:30.000Z</time>
      </trkpt>
      <trkpt lat="42.664914" lon="0.648074">
        <ele>2308.7</ele>
        <time>1970-01-01T00:28:32.000Z</time>
      </trkpt>
      <trkpt lat="42.664934" lon="0.648066">
        <ele>2307.5</ele>
        <time>1970-01-01T00:28:33.000Z</time>
      </trkpt>
      <trkpt lat="42.664944" lon="0.648064">
        <ele>2307</ele>
        <time>1970-01-01T00:28:34.000Z</time>
      </trkpt>
      <trkpt lat="42.66495" lon="0.648065">
        <ele>2307.5</ele>
        <time>1970-01-01T00:28:35.000Z</time>
      </trkpt>
      <trkpt lat="42.664954" lon="0.648067">
        <ele>2307.5</ele>
        <time>1970-01-01T00:28:36.000Z</time>
      </trkpt>
      <trkpt lat="42.664959" lon="0.648069">
        <ele>2306.1</ele>
        <time>1970-01-01T00:28:37.000Z</time>
      </trkpt>
      <trkpt lat="42.664962" lon="0.648071">
        <ele>2306.1</ele>
        <time>1970-01-01T00:28:38.000Z</time>
      </trkpt>
      <trkpt lat="42.664964" lon="0.648072">
        <ele>2306.1</ele>
        <time>1970-01-01T00:28:40.000Z</time>
      </trkpt>
      <trkpt lat="42.664964" lon="0.648071">
        <ele>2306.1</ele>
        <time>1970-01-01T00:28:41.000Z</time>
      </trkpt>
      <trkpt lat="42.664967" lon="0.648061">
        <ele>2305.7</ele>
        <time>1970-01-01T00:28:42.000Z</time>
      </trkpt>
      <trkpt lat="42.664967" lon="0.648054">
        <ele>2305.7</ele>
        <time>1970-01-01T00:28:43.000Z</time>
      </trkpt>
      <trkpt lat="42.664965" lon="0.64805">
        <ele>2305.7</ele>
        <time>1970-01-01T00:28:44.000Z</time>
      </trkpt>
      <trkpt lat="42.664963" lon="0.648051">
        <ele>2305.7</ele>
        <time>1970-01-01T00:28:45.000Z</time>
      </trkpt>
      <trkpt lat="42.66496" lon="0.648052">
        <ele>2305.7</ele>
        <time>1970-01-01T00:28:46.000Z</time>
      </trkpt>
      <trkpt lat="42.664958" lon="0.648055">
        <ele>2305.7</ele>
        <time>1970-01-01T00:28:47.000Z</time>
      </trkpt>
      <trkpt lat="42.664958" lon="0.648058">
        <ele>2305.7</ele>
        <time>1970-01-01T00:28:48.000Z</time>
      </trkpt>
      <trkpt lat="42.664958" lon="0.648058">
        <ele>2305.7</ele>
        <time>1970-01-01T00:28:49.000Z</time>
      </trkpt>
      <trkpt lat="42.664961" lon="0.64805">
        <ele>2305.7</ele>
        <time>1970-01-01T00:28:50.000Z</time>
      </trkpt>
      <trkpt lat="42.66496" lon="0.648041">
        <ele>2305.7</ele>
        <time>1970-01-01T00:28:51.000Z</time>
      </trkpt>
      <trkpt lat="42.664952" lon="0.648018">
        <ele>2306.6</ele>
        <time>1970-01-01T00:28:53.000Z</time>
      </trkpt>
      <trkpt lat="42.664945" lon="0.648007">
        <ele>2306.6</ele>
        <time>1970-01-01T00:28:54.000Z</time>
      </trkpt>
      <trkpt lat="42.664937" lon="0.647997">
        <ele>2306.6</ele>
        <time>1970-01-01T00:28:56.000Z</time>
      </trkpt>
      <trkpt lat="42.664933" lon="0.647989">
        <ele>2306.6</ele>
        <time>1970-01-01T00:28:57.000Z</time>
      </trkpt>
      <trkpt lat="42.664933" lon="0.647976">
        <ele>2306.2</ele>
        <time>1970-01-01T00:28:58.000Z</time>
      </trkpt>
      <trkpt lat="42.664938" lon="0.647967">
        <ele>2306.2</ele>
        <time>1970-01-01T00:28:59.000Z</time>
      </trkpt>
      <trkpt lat="42.664943" lon="0.647961">
        <ele>2306.2</ele>
        <time>1970-01-01T00:29:00.000Z</time>
      </trkpt>
      <trkpt lat="42.664949" lon="0.64795">
        <ele>2306.2</ele>
        <time>1970-01-01T00:29:02.000Z</time>
      </trkpt>
      <trkpt lat="42.664953" lon="0.64794">
        <ele>2306.2</ele>
        <time>1970-01-01T00:29:03.000Z</time>
      </trkpt>
      <trkpt lat="42.664958" lon="0.647935">
        <ele>2304.4</ele>
        <time>1970-01-01T00:29:04.000Z</time>
      </trkpt>
      <trkpt lat="42.664963" lon="0.647931">
        <ele>2304.4</ele>
        <time>1970-01-01T00:29:05.000Z</time>
      </trkpt>
      <trkpt lat="42.664963" lon="0.647931">
        <ele>2304.4</ele>
        <time>1970-01-01T00:29:06.000Z</time>
      </trkpt>
      <trkpt lat="42.664961" lon="0.647925">
        <ele>2304.4</ele>
        <time>1970-01-01T00:29:07.000Z</time>
      </trkpt>
      <trkpt lat="42.664958" lon="0.647924">
        <ele>2304.4</ele>
        <time>1970-01-01T00:29:08.000Z</time>
      </trkpt>
      <trkpt lat="42.664956" lon="0.647926">
        <ele>2304.4</ele>
        <time>1970-01-01T00:29:09.000Z</time>
      </trkpt>
      <trkpt lat="42.664953" lon="0.647933">
        <ele>2305.8</ele>
        <time>1970-01-01T00:29:10.000Z</time>
      </trkpt>
      <trkpt lat="42.664949" lon="0.647941">
        <ele>2306.2</ele>
        <time>1970-01-01T00:29:11.000Z</time>
      </trkpt>
      <trkpt lat="42.664944" lon="0.647945">
        <ele>2306.2</ele>
        <time>1970-01-01T00:29:13.000Z</time>
      </trkpt>
      <trkpt lat="42.664937" lon="0.647955">
        <ele>2306.2</ele>
        <time>1970-01-01T00:29:14.000Z</time>
      </trkpt>
      <trkpt lat="42.664928" lon="0.647971">
        <ele>2306.2</ele>
        <time>1970-01-01T00:29:15.000Z</time>
      </trkpt>
      <trkpt lat="42.664919" lon="0.647981">
        <ele>2307.9</ele>
        <time>1970-01-01T00:29:17.000Z</time>
      </trkpt>
      <trkpt lat="42.664903" lon="0.647991">
        <ele>2307.9</ele>
        <time>1970-01-01T00:29:18.000Z</time>
      </trkpt>
      <trkpt lat="42.664892" lon="0.647995">
        <ele>2309</ele>
        <time>1970-01-01T00:29:20.000Z</time>
      </trkpt>
      <trkpt lat="42.664881" lon="0.647999">
        <ele>2309</ele>
        <time>1970-01-01T00:29:21.000Z</time>
      </trkpt>
      <trkpt lat="42.664871" lon="0.648002">
        <ele>2309</ele>
        <time>1970-01-01T00:29:22.000Z</time>
      </trkpt>
      <trkpt lat="42.664863" lon="0.648003">
        <ele>2309</ele>
        <time>1970-01-01T00:29:23.000Z</time>
      </trkpt>
      <trkpt lat="42.664855" lon="0.647994">
        <ele>2310.3</ele>
        <time>1970-01-01T00:29:25.000Z</time>
      </trkpt>
      <trkpt lat="42.664855" lon="0.647992">
        <ele>2310.3</ele>
        <time>1970-01-01T00:29:26.000Z</time>
      </trkpt>
      <trkpt lat="42.664851" lon="0.64799">
        <ele>2310.3</ele>
        <time>1970-01-01T00:29:27.000Z</time>
      </trkpt>
      <trkpt lat="42.664847" lon="0.647997">
        <ele>2310.3</ele>
        <time>1970-01-01T00:29:28.000Z</time>
      </trkpt>
      <trkpt lat="42.664838" lon="0.648002">
        <ele>2310.3</ele>
        <time>1970-01-01T00:29:29.000Z</time>
      </trkpt>
      <trkpt lat="42.664832" lon="0.648003">
        <ele>2310.3</ele>
        <time>1970-01-01T00:29:30.000Z</time>
      </trkpt>
      <trkpt lat="42.664826" lon="0.648003">
        <ele>2311.6</ele>
        <time>1970-01-01T00:29:31.000Z</time>
      </trkpt>
      <trkpt lat="42.664823" lon="0.648001">
        <ele>2311.6</ele>
        <time>1970-01-01T00:29:32.000Z</time>
      </trkpt>
      <trkpt lat="42.664819" lon="0.648">
        <ele>2311.6</ele>
        <time>1970-01-01T00:29:33.000Z</time>
      </trkpt>
      <trkpt lat="42.664814" lon="0.648001">
        <ele>2311.6</ele>
        <time>1970-01-01T00:29:34.000Z</time>
      </trkpt>
      <trkpt lat="42.664811" lon="0.648004">
        <ele>2311.6</ele>
        <time>1970-01-01T00:29:35.000Z</time>
      </trkpt>
      <trkpt lat="42.664807" lon="0.648005">
        <ele>2311.6</ele>
        <time>1970-01-01T00:29:36.000Z</time>
      </trkpt>
      <trkpt lat="42.664803" lon="0.648006">
        <ele>2311.6</ele>
        <time>1970-01-01T00:29:37.000Z</time>
      </trkpt>
      <trkpt lat="42.664799" lon="0.648006">
        <ele>2311.6</ele>
        <time>1970-01-01T00:29:38.000Z</time>
      </trkpt>
      <trkpt lat="42.664796" lon="0.648008">
        <ele>2313.1</ele>
        <time>1970-01-01T00:29:39.000Z</time>
      </trkpt>
      <trkpt lat="42.664795" lon="0.648009">
        <ele>2313.1</ele>
        <time>1970-01-01T00:29:40.000Z</time>
      </trkpt>
      <trkpt lat="42.664795" lon="0.64801">
        <ele>2313.1</ele>
        <time>1970-01-01T00:29:41.000Z</time>
      </trkpt>
      <trkpt lat="42.66479" lon="0.648002">
        <ele>2313.1</ele>
        <time>1970-01-01T00:29:42.000Z</time>
      </trkpt>
      <trkpt lat="42.664788" lon="0.647995">
        <ele>2313.1</ele>
        <time>1970-01-01T00:29:43.000Z</time>
      </trkpt>
      <trkpt lat="42.66478" lon="0.647985">
        <ele>2313.1</ele>
        <time>1970-01-01T00:29:44.000Z</time>
      </trkpt>
      <trkpt lat="42.664774" lon="0.647977">
        <ele>2312.6</ele>
        <time>1970-01-01T00:29:45.000Z</time>
      </trkpt>
      <trkpt lat="42.664767" lon="0.647972">
        <ele>2312.6</ele>
        <time>1970-01-01T00:29:46.000Z</time>
      </trkpt>
      <trkpt lat="42.664765" lon="0.647979">
        <ele>2314.6</ele>
        <time>1970-01-01T00:29:47.000Z</time>
      </trkpt>
      <trkpt lat="42.664763" lon="0.647985">
        <ele>2314.6</ele>
        <time>1970-01-01T00:29:48.000Z</time>
      </trkpt>
      <trkpt lat="42.664761" lon="0.647992">
        <ele>2314.6</ele>
        <time>1970-01-01T00:29:49.000Z</time>
      </trkpt>
      <trkpt lat="42.664759" lon="0.647998">
        <ele>2314.6</ele>
        <time>1970-01-01T00:29:50.000Z</time>
      </trkpt>
      <trkpt lat="42.664757" lon="0.648005">
        <ele>2314.6</ele>
        <time>1970-01-01T00:29:51.000Z</time>
      </trkpt>
      <trkpt lat="42.664756" lon="0.648012">
        <ele>2314.6</ele>
        <time>1970-01-01T00:29:52.000Z</time>
      </trkpt>
      <trkpt lat="42.664754" lon="0.648018">
        <ele>2314.6</ele>
        <time>1970-01-01T00:29:53.000Z</time>
      </trkpt>
      <trkpt lat="42.664751" lon="0.648023">
        <ele>2315.1</ele>
        <time>1970-01-01T00:29:54.000Z</time>
      </trkpt>
      <trkpt lat="42.664748" lon="0.648028">
        <ele>2315.1</ele>
        <time>1970-01-01T00:29:55.000Z</time>
      </trkpt>
      <trkpt lat="42.664744" lon="0.648034">
        <ele>2315.1</ele>
        <time>1970-01-01T00:29:56.000Z</time>
      </trkpt>
      <trkpt lat="42.66474" lon="0.648044">
        <ele>2315.1</ele>
        <time>1970-01-01T00:29:57.000Z</time>
      </trkpt>
      <trkpt lat="42.664738" lon="0.648047">
        <ele>2315.1</ele>
        <time>1970-01-01T00:29:58.000Z</time>
      </trkpt>
      <trkpt lat="42.664734" lon="0.648053">
        <ele>2316.7</ele>
        <time>1970-01-01T00:29:59.000Z</time>
      </trkpt>
      <trkpt lat="42.664727" lon="0.648065">
        <ele>2317.2</ele>
        <time>1970-01-01T00:30:00.000Z</time>
      </trkpt>
      <trkpt lat="42.664722" lon="0.648078">
        <ele>2317.2</ele>
        <time>1970-01-01T00:30:01.000Z</time>
      </trkpt>
      <trkpt lat="42.664718" lon="0.648089">
        <ele>2317.2</ele>
        <time>1970-01-01T00:30:02.000Z</time>
      </trkpt>
      <trkpt lat="42.664714" lon="0.6481">
        <ele>2317.2</ele>
        <time>1970-01-01T00:30:03.000Z</time>
      </trkpt>
      <trkpt lat="42.664709" lon="0.648108">
        <ele>2317.7</ele>
        <time>1970-01-01T00:30:04.000Z</time>
      </trkpt>
      <trkpt lat="42.664702" lon="0.648112">
        <ele>2319.2</ele>
        <time>1970-01-01T00:30:05.000Z</time>
      </trkpt>
      <trkpt lat="42.664687" lon="0.64812">
        <ele>2319.2</ele>
        <time>1970-01-01T00:30:07.000Z</time>
      </trkpt>
      <trkpt lat="42.664682" lon="0.648125">
        <ele>2319.2</ele>
        <time>1970-01-01T00:30:08.000Z</time>
      </trkpt>
      <trkpt lat="42.664677" lon="0.648132">
        <ele>2319.2</ele>
        <time>1970-01-01T00:30:09.000Z</time>
      </trkpt>
      <trkpt lat="42.664674" lon="0.648135">
        <ele>2319.2</ele>
        <time>1970-01-01T00:30:10.000Z</time>
      </trkpt>
      <trkpt lat="42.66467" lon="0.648135">
        <ele>2320.7</ele>
        <time>1970-01-01T00:30:11.000Z</time>
      </trkpt>
      <trkpt lat="42.664667" lon="0.648135">
        <ele>2320.7</ele>
        <time>1970-01-01T00:30:12.000Z</time>
      </trkpt>
      <trkpt lat="42.664665" lon="0.648133">
        <ele>2320.7</ele>
        <time>1970-01-01T00:30:13.000Z</time>
      </trkpt>
      <trkpt lat="42.664663" lon="0.648133">
        <ele>2320.7</ele>
        <time>1970-01-01T00:30:14.000Z</time>
      </trkpt>
      <trkpt lat="42.664663" lon="0.648134">
        <ele>2320.7</ele>
        <time>1970-01-01T00:30:15.000Z</time>
      </trkpt>
      <trkpt lat="42.664662" lon="0.648136">
        <ele>2320.7</ele>
        <time>1970-01-01T00:30:16.000Z</time>
      </trkpt>
      <trkpt lat="42.664665" lon="0.64814">
        <ele>2320.7</ele>
        <time>1970-01-01T00:30:17.000Z</time>
      </trkpt>
      <trkpt lat="42.664667" lon="0.648145">
        <ele>2320.7</ele>
        <time>1970-01-01T00:30:18.000Z</time>
      </trkpt>
      <trkpt lat="42.664668" lon="0.648151">
        <ele>2321.2</ele>
        <time>1970-01-01T00:30:19.000Z</time>
      </trkpt>
      <trkpt lat="42.664669" lon="0.648156">
        <ele>2321.2</ele>
        <time>1970-01-01T00:30:20.000Z</time>
      </trkpt>
      <trkpt lat="42.664671" lon="0.648161">
        <ele>2321.2</ele>
        <time>1970-01-01T00:30:21.000Z</time>
      </trkpt>
      <trkpt lat="42.664672" lon="0.648167">
        <ele>2319.7</ele>
        <time>1970-01-01T00:30:23.000Z</time>
      </trkpt>
      <trkpt lat="42.664673" lon="0.648172">
        <ele>2319.7</ele>
        <time>1970-01-01T00:30:24.000Z</time>
      </trkpt>
      <trkpt lat="42.664674" lon="0.648177">
        <ele>2319.7</ele>
        <time>1970-01-01T00:30:25.000Z</time>
      </trkpt>
      <trkpt lat="42.664676" lon="0.648182">
        <ele>2319.7</ele>
        <time>1970-01-01T00:30:26.000Z</time>
      </trkpt>
      <trkpt lat="42.664657" lon="0.648213">
        <ele>2322</ele>
        <time>1970-01-01T00:30:28.000Z</time>
      </trkpt>
      <trkpt lat="42.664649" lon="0.648218">
        <ele>2322</ele>
        <time>1970-01-01T00:30:29.000Z</time>
      </trkpt>
      <trkpt lat="42.664648" lon="0.648214">
        <ele>2322</ele>
        <time>1970-01-01T00:30:30.000Z</time>
      </trkpt>
      <trkpt lat="42.664651" lon="0.648207">
        <ele>2322</ele>
        <time>1970-01-01T00:30:31.000Z</time>
      </trkpt>
      <trkpt lat="42.664655" lon="0.6482">
        <ele>2322</ele>
        <time>1970-01-01T00:30:32.000Z</time>
      </trkpt>
      <trkpt lat="42.664658" lon="0.648193">
        <ele>2321.2</ele>
        <time>1970-01-01T00:30:34.000Z</time>
      </trkpt>
      <trkpt lat="42.664662" lon="0.648185">
        <ele>2321.2</ele>
        <time>1970-01-01T00:30:35.000Z</time>
      </trkpt>
      <trkpt lat="42.664665" lon="0.648178">
        <ele>2321.2</ele>
        <time>1970-01-01T00:30:36.000Z</time>
      </trkpt>
      <trkpt lat="42.664669" lon="0.648171">
        <ele>2321.2</ele>
        <time>1970-01-01T00:30:37.000Z</time>
      </trkpt>
      <trkpt lat="42.664672" lon="0.648164">
        <ele>2319.7</ele>
        <time>1970-01-01T00:30:38.000Z</time>
      </trkpt>
      <trkpt lat="42.664683" lon="0.648155">
        <ele>2319.7</ele>
        <time>1970-01-01T00:30:39.000Z</time>
      </trkpt>
      <trkpt lat="42.664688" lon="0.648151">
        <ele>2319.7</ele>
        <time>1970-01-01T00:30:40.000Z</time>
      </trkpt>
      <trkpt lat="42.6647" lon="0.648147">
        <ele>2319.2</ele>
        <time>1970-01-01T00:30:41.000Z</time>
      </trkpt>
      <trkpt lat="42.664711" lon="0.648152">
        <ele>2318.2</ele>
        <time>1970-01-01T00:30:42.000Z</time>
      </trkpt>
      <trkpt lat="42.664718" lon="0.648161">
        <ele>2318.2</ele>
        <time>1970-01-01T00:30:43.000Z</time>
      </trkpt>
      <trkpt lat="42.664743" lon="0.648179">
        <ele>2316.6</ele>
        <time>1970-01-01T00:30:45.000Z</time>
      </trkpt>
      <trkpt lat="42.664758" lon="0.648184">
        <ele>2316.6</ele>
        <time>1970-01-01T00:30:46.000Z</time>
      </trkpt>
      <trkpt lat="42.664765" lon="0.648188">
        <ele>2316.6</ele>
        <time>1970-01-01T00:30:47.000Z</time>
      </trkpt>
      <trkpt lat="42.664775" lon="0.648192">
        <ele>2315</ele>
        <time>1970-01-01T00:30:48.000Z</time>
      </trkpt>
      <trkpt lat="42.664793" lon="0.648167">
        <ele>2315</ele>
        <time>1970-01-01T00:30:50.000Z</time>
      </trkpt>
      <trkpt lat="42.664793" lon="0.648148">
        <ele>2314.5</ele>
        <time>1970-01-01T00:30:52.000Z</time>
      </trkpt>
      <trkpt lat="42.664789" lon="0.648138">
        <ele>2314.5</ele>
        <time>1970-01-01T00:30:53.000Z</time>
      </trkpt>
      <trkpt lat="42.664779" lon="0.648131">
        <ele>2314.5</ele>
        <time>1970-01-01T00:30:54.000Z</time>
      </trkpt>
      <trkpt lat="42.664766" lon="0.648133">
        <ele>2314.5</ele>
        <time>1970-01-01T00:30:55.000Z</time>
      </trkpt>
      <trkpt lat="42.664752" lon="0.648134">
        <ele>2316.1</ele>
        <time>1970-01-01T00:30:56.000Z</time>
      </trkpt>
      <trkpt lat="42.664743" lon="0.648136">
        <ele>2316.1</ele>
        <time>1970-01-01T00:30:57.000Z</time>
      </trkpt>
      <trkpt lat="42.664733" lon="0.648143">
        <ele>2317.7</ele>
        <time>1970-01-01T00:30:58.000Z</time>
      </trkpt>
      <trkpt lat="42.664711" lon="0.648151">
        <ele>2318.2</ele>
        <time>1970-01-01T00:30:59.000Z</time>
      </trkpt>
      <trkpt lat="42.664706" lon="0.648159">
        <ele>2318.2</ele>
        <time>1970-01-01T00:31:00.000Z</time>
      </trkpt>
      <trkpt lat="42.664699" lon="0.648164">
        <ele>2319.7</ele>
        <time>1970-01-01T00:31:01.000Z</time>
      </trkpt>
      <trkpt lat="42.664697" lon="0.648165">
        <ele>2319.7</ele>
        <time>1970-01-01T00:31:02.000Z</time>
      </trkpt>
      <trkpt lat="42.664693" lon="0.648161">
        <ele>2319.7</ele>
        <time>1970-01-01T00:31:03.000Z</time>
      </trkpt>
      <trkpt lat="42.664691" lon="0.648155">
        <ele>2319.7</ele>
        <time>1970-01-01T00:31:04.000Z</time>
      </trkpt>
      <trkpt lat="42.664687" lon="0.648145">
        <ele>2319.2</ele>
        <time>1970-01-01T00:31:05.000Z</time>
      </trkpt>
      <trkpt lat="42.664679" lon="0.648139">
        <ele>2319.2</ele>
        <time>1970-01-01T00:31:07.000Z</time>
      </trkpt>
      <trkpt lat="42.664675" lon="0.648141">
        <ele>2319.2</ele>
        <time>1970-01-01T00:31:08.000Z</time>
      </trkpt>
      <trkpt lat="42.664672" lon="0.648145">
        <ele>2319.2</ele>
        <time>1970-01-01T00:31:09.000Z</time>
      </trkpt>
      <trkpt lat="42.664671" lon="0.648149">
        <ele>2320.7</ele>
        <time>1970-01-01T00:31:10.000Z</time>
      </trkpt>
      <trkpt lat="42.66467" lon="0.648152">
        <ele>2321.2</ele>
        <time>1970-01-01T00:31:11.000Z</time>
      </trkpt>
      <trkpt lat="42.664671" lon="0.648157">
        <ele>2321.2</ele>
        <time>1970-01-01T00:31:12.000Z</time>
      </trkpt>
      <trkpt lat="42.664672" lon="0.648159">
        <ele>2319.7</ele>
        <time>1970-01-01T00:31:13.000Z</time>
      </trkpt>
      <trkpt lat="42.664672" lon="0.648161">
        <ele>2319.7</ele>
        <time>1970-01-01T00:31:14.000Z</time>
      </trkpt>
      <trkpt lat="42.664672" lon="0.648163">
        <ele>2319.7</ele>
        <time>1970-01-01T00:31:15.000Z</time>
      </trkpt>
      <trkpt lat="42.664672" lon="0.648165">
        <ele>2319.7</ele>
        <time>1970-01-01T00:31:16.000Z</time>
      </trkpt>
      <trkpt lat="42.664671" lon="0.648168">
        <ele>2321.2</ele>
        <time>1970-01-01T00:31:17.000Z</time>
      </trkpt>
      <trkpt lat="42.664671" lon="0.648172">
        <ele>2321.2</ele>
        <time>1970-01-01T00:31:18.000Z</time>
      </trkpt>
      <trkpt lat="42.664671" lon="0.648177">
        <ele>2321.2</ele>
        <time>1970-01-01T00:31:19.000Z</time>
      </trkpt>
      <trkpt lat="42.664671" lon="0.648183">
        <ele>2321.2</ele>
        <time>1970-01-01T00:31:20.000Z</time>
      </trkpt>
      <trkpt lat="42.664671" lon="0.648192">
        <ele>2321.2</ele>
        <time>1970-01-01T00:31:21.000Z</time>
      </trkpt>
      <trkpt lat="42.664671" lon="0.648198">
        <ele>2322</ele>
        <time>1970-01-01T00:31:22.000Z</time>
      </trkpt>
      <trkpt lat="42.664669" lon="0.648204">
        <ele>2322</ele>
        <time>1970-01-01T00:31:23.000Z</time>
      </trkpt>
      <trkpt lat="42.664667" lon="0.648213">
        <ele>2322</ele>
        <time>1970-01-01T00:31:24.000Z</time>
      </trkpt>
      <trkpt lat="42.664665" lon="0.648223">
        <ele>2322</ele>
        <time>1970-01-01T00:31:25.000Z</time>
      </trkpt>
      <trkpt lat="42.664663" lon="0.64823">
        <ele>2322</ele>
        <time>1970-01-01T00:31:26.000Z</time>
      </trkpt>
      <trkpt lat="42.664657" lon="0.648248">
        <ele>2322.5</ele>
        <time>1970-01-01T00:31:28.000Z</time>
      </trkpt>
      <trkpt lat="42.664652" lon="0.648261">
        <ele>2322.5</ele>
        <time>1970-01-01T00:31:29.000Z</time>
      </trkpt>
      <trkpt lat="42.664648" lon="0.64827">
        <ele>2322.5</ele>
        <time>1970-01-01T00:31:30.000Z</time>
      </trkpt>
      <trkpt lat="42.664642" lon="0.648286">
        <ele>2323.1</ele>
        <time>1970-01-01T00:31:32.000Z</time>
      </trkpt>
      <trkpt lat="42.664639" lon="0.648295">
        <ele>2324.6</ele>
        <time>1970-01-01T00:31:33.000Z</time>
      </trkpt>
      <trkpt lat="42.664633" lon="0.648311">
        <ele>2324.6</ele>
        <time>1970-01-01T00:31:35.000Z</time>
      </trkpt>
      <trkpt lat="42.66463" lon="0.648317">
        <ele>2324.6</ele>
        <time>1970-01-01T00:31:36.000Z</time>
      </trkpt>
      <trkpt lat="42.664628" lon="0.648323">
        <ele>2325.2</ele>
        <time>1970-01-01T00:31:37.000Z</time>
      </trkpt>
      <trkpt lat="42.664626" lon="0.648328">
        <ele>2325.2</ele>
        <time>1970-01-01T00:31:38.000Z</time>
      </trkpt>
      <trkpt lat="42.664624" lon="0.648335">
        <ele>2325.2</ele>
        <time>1970-01-01T00:31:39.000Z</time>
      </trkpt>
      <trkpt lat="42.664621" lon="0.648341">
        <ele>2325.2</ele>
        <time>1970-01-01T00:31:40.000Z</time>
      </trkpt>
      <trkpt lat="42.664619" lon="0.648345">
        <ele>2325.2</ele>
        <time>1970-01-01T00:31:41.000Z</time>
      </trkpt>
      <trkpt lat="42.664615" lon="0.648353">
        <ele>2325.2</ele>
        <time>1970-01-01T00:31:42.000Z</time>
      </trkpt>
      <trkpt lat="42.664613" lon="0.648358">
        <ele>2325.2</ele>
        <time>1970-01-01T00:31:43.000Z</time>
      </trkpt>
      <trkpt lat="42.664611" lon="0.648362">
        <ele>2325.2</ele>
        <time>1970-01-01T00:31:44.000Z</time>
      </trkpt>
      <trkpt lat="42.664608" lon="0.648368">
        <ele>2327.3</ele>
        <time>1970-01-01T00:31:45.000Z</time>
      </trkpt>
      <trkpt lat="42.664605" lon="0.648375">
        <ele>2327.3</ele>
        <time>1970-01-01T00:31:46.000Z</time>
      </trkpt>
      <trkpt lat="42.664603" lon="0.648378">
        <ele>2327.3</ele>
        <time>1970-01-01T00:31:47.000Z</time>
      </trkpt>
      <trkpt lat="42.664601" lon="0.648383">
        <ele>2327.3</ele>
        <time>1970-01-01T00:31:48.000Z</time>
      </trkpt>
      <trkpt lat="42.664598" lon="0.648387">
        <ele>2327.3</ele>
        <time>1970-01-01T00:31:49.000Z</time>
      </trkpt>
      <trkpt lat="42.664594" lon="0.648386">
        <ele>2327.3</ele>
        <time>1970-01-01T00:31:50.000Z</time>
      </trkpt>
      <trkpt lat="42.664592" lon="0.648383">
        <ele>2327.3</ele>
        <time>1970-01-01T00:31:51.000Z</time>
      </trkpt>
      <trkpt lat="42.664595" lon="0.648371">
        <ele>2327.3</ele>
        <time>1970-01-01T00:31:53.000Z</time>
      </trkpt>
      <trkpt lat="42.6646" lon="0.648366">
        <ele>2327.3</ele>
        <time>1970-01-01T00:31:54.000Z</time>
      </trkpt>
      <trkpt lat="42.664607" lon="0.648365">
        <ele>2326.7</ele>
        <time>1970-01-01T00:31:55.000Z</time>
      </trkpt>
      <trkpt lat="42.66461" lon="0.648366">
        <ele>2325.8</ele>
        <time>1970-01-01T00:31:56.000Z</time>
      </trkpt>
      <trkpt lat="42.664614" lon="0.648367">
        <ele>2325.8</ele>
        <time>1970-01-01T00:31:57.000Z</time>
      </trkpt>
      <trkpt lat="42.664614" lon="0.648365">
        <ele>2325.2</ele>
        <time>1970-01-01T00:31:58.000Z</time>
      </trkpt>
      <trkpt lat="42.664611" lon="0.64837">
        <ele>2325.8</ele>
        <time>1970-01-01T00:31:59.000Z</time>
      </trkpt>
      <trkpt lat="42.664606" lon="0.648373">
        <ele>2327.3</ele>
        <time>1970-01-01T00:32:00.000Z</time>
      </trkpt>
      <trkpt lat="42.664606" lon="0.648376">
        <ele>2327.3</ele>
        <time>1970-01-01T00:32:01.000Z</time>
      </trkpt>
      <trkpt lat="42.664606" lon="0.64838">
        <ele>2327.3</ele>
        <time>1970-01-01T00:32:02.000Z</time>
      </trkpt>
      <trkpt lat="42.66461" lon="0.648398">
        <ele>2325.8</ele>
        <time>1970-01-01T00:32:03.000Z</time>
      </trkpt>
      <trkpt lat="42.664613" lon="0.648412">
        <ele>2326.5</ele>
        <time>1970-01-01T00:32:05.000Z</time>
      </trkpt>
      <trkpt lat="42.664613" lon="0.648417">
        <ele>2326.5</ele>
        <time>1970-01-01T00:32:06.000Z</time>
      </trkpt>
      <trkpt lat="42.664612" lon="0.64842">
        <ele>2326.5</ele>
        <time>1970-01-01T00:32:07.000Z</time>
      </trkpt>
      <trkpt lat="42.664611" lon="0.648423">
        <ele>2326.5</ele>
        <time>1970-01-01T00:32:08.000Z</time>
      </trkpt>
      <trkpt lat="42.66461" lon="0.648426">
        <ele>2326.5</ele>
        <time>1970-01-01T00:32:09.000Z</time>
      </trkpt>
      <trkpt lat="42.664614" lon="0.648435">
        <ele>2326.5</ele>
        <time>1970-01-01T00:32:10.000Z</time>
      </trkpt>
      <trkpt lat="42.664617" lon="0.648444">
        <ele>2326.5</ele>
        <time>1970-01-01T00:32:11.000Z</time>
      </trkpt>
      <trkpt lat="42.664621" lon="0.648453">
        <ele>2327.1</ele>
        <time>1970-01-01T00:32:12.000Z</time>
      </trkpt>
      <trkpt lat="42.66462" lon="0.648441">
        <ele>2326.5</ele>
        <time>1970-01-01T00:32:13.000Z</time>
      </trkpt>
      <trkpt lat="42.664615" lon="0.648434">
        <ele>2326.5</ele>
        <time>1970-01-01T00:32:15.000Z</time>
      </trkpt>
      <trkpt lat="42.66461" lon="0.648427">
        <ele>2326.5</ele>
        <time>1970-01-01T00:32:16.000Z</time>
      </trkpt>
      <trkpt lat="42.664604" lon="0.64842">
        <ele>2328</ele>
        <time>1970-01-01T00:32:17.000Z</time>
      </trkpt>
      <trkpt lat="42.664599" lon="0.648413">
        <ele>2328</ele>
        <time>1970-01-01T00:32:18.000Z</time>
      </trkpt>
      <trkpt lat="42.664582" lon="0.648411">
        <ele>2328</ele>
        <time>1970-01-01T00:32:20.000Z</time>
      </trkpt>
      <trkpt lat="42.664576" lon="0.648409">
        <ele>2329.5</ele>
        <time>1970-01-01T00:32:21.000Z</time>
      </trkpt>
      <trkpt lat="42.664571" lon="0.648411">
        <ele>2329.5</ele>
        <time>1970-01-01T00:32:22.000Z</time>
      </trkpt>
      <trkpt lat="42.664554" lon="0.648423">
        <ele>2329.5</ele>
        <time>1970-01-01T00:32:23.000Z</time>
      </trkpt>
      <trkpt lat="42.664548" lon="0.648434">
        <ele>2329.5</ele>
        <time>1970-01-01T00:32:24.000Z</time>
      </trkpt>
      <trkpt lat="42.664542" lon="0.648445">
        <ele>2331.1</ele>
        <time>1970-01-01T00:32:25.000Z</time>
      </trkpt>
      <trkpt lat="42.664538" lon="0.648455">
        <ele>2331.8</ele>
        <time>1970-01-01T00:32:26.000Z</time>
      </trkpt>
      <trkpt lat="42.664534" lon="0.648466">
        <ele>2331.8</ele>
        <time>1970-01-01T00:32:27.000Z</time>
      </trkpt>
      <trkpt lat="42.664533" lon="0.64847">
        <ele>2331.8</ele>
        <time>1970-01-01T00:32:28.000Z</time>
      </trkpt>
      <trkpt lat="42.664532" lon="0.648471">
        <ele>2331.8</ele>
        <time>1970-01-01T00:32:29.000Z</time>
      </trkpt>
      <trkpt lat="42.66453" lon="0.648473">
        <ele>2331.8</ele>
        <time>1970-01-01T00:32:30.000Z</time>
      </trkpt>
      <trkpt lat="42.664529" lon="0.648474">
        <ele>2331.8</ele>
        <time>1970-01-01T00:32:31.000Z</time>
      </trkpt>
      <trkpt lat="42.664528" lon="0.648474">
        <ele>2331.8</ele>
        <time>1970-01-01T00:32:32.000Z</time>
      </trkpt>
      <trkpt lat="42.664527" lon="0.648476">
        <ele>2331.8</ele>
        <time>1970-01-01T00:32:33.000Z</time>
      </trkpt>
      <trkpt lat="42.664524" lon="0.64848">
        <ele>2331.8</ele>
        <time>1970-01-01T00:32:34.000Z</time>
      </trkpt>
      <trkpt lat="42.664523" lon="0.648482">
        <ele>2331.8</ele>
        <time>1970-01-01T00:32:35.000Z</time>
      </trkpt>
      <trkpt lat="42.66452" lon="0.648487">
        <ele>2331.8</ele>
        <time>1970-01-01T00:32:36.000Z</time>
      </trkpt>
      <trkpt lat="42.664517" lon="0.648491">
        <ele>2331.8</ele>
        <time>1970-01-01T00:32:37.000Z</time>
      </trkpt>
      <trkpt lat="42.664514" lon="0.648493">
        <ele>2331.8</ele>
        <time>1970-01-01T00:32:38.000Z</time>
      </trkpt>
      <trkpt lat="42.664509" lon="0.648495">
        <ele>2334.2</ele>
        <time>1970-01-01T00:32:39.000Z</time>
      </trkpt>
      <trkpt lat="42.664503" lon="0.648498">
        <ele>2334.2</ele>
        <time>1970-01-01T00:32:41.000Z</time>
      </trkpt>
      <trkpt lat="42.664494" lon="0.648506">
        <ele>2334.2</ele>
        <time>1970-01-01T00:32:42.000Z</time>
      </trkpt>
      <trkpt lat="42.664491" lon="0.648509">
        <ele>2334.2</ele>
        <time>1970-01-01T00:32:43.000Z</time>
      </trkpt>
      <trkpt lat="42.664488" lon="0.648513">
        <ele>2334.2</ele>
        <time>1970-01-01T00:32:44.000Z</time>
      </trkpt>
      <trkpt lat="42.664484" lon="0.648518">
        <ele>2334.2</ele>
        <time>1970-01-01T00:32:45.000Z</time>
      </trkpt>
      <trkpt lat="42.664479" lon="0.648524">
        <ele>2336</ele>
        <time>1970-01-01T00:32:46.000Z</time>
      </trkpt>
      <trkpt lat="42.664476" lon="0.64853">
        <ele>2336</ele>
        <time>1970-01-01T00:32:47.000Z</time>
      </trkpt>
      <trkpt lat="42.664474" lon="0.648538">
        <ele>2336.8</ele>
        <time>1970-01-01T00:32:48.000Z</time>
      </trkpt>
      <trkpt lat="42.664472" lon="0.648542">
        <ele>2336.8</ele>
        <time>1970-01-01T00:32:49.000Z</time>
      </trkpt>
      <trkpt lat="42.664469" lon="0.648551">
        <ele>2336.8</ele>
        <time>1970-01-01T00:32:50.000Z</time>
      </trkpt>
      <trkpt lat="42.664453" lon="0.648552">
        <ele>2336.8</ele>
        <time>1970-01-01T00:32:51.000Z</time>
      </trkpt>
      <trkpt lat="42.664449" lon="0.648551">
        <ele>2338.7</ele>
        <time>1970-01-01T00:32:52.000Z</time>
      </trkpt>
      <trkpt lat="42.664445" lon="0.648554">
        <ele>2338.7</ele>
        <time>1970-01-01T00:32:53.000Z</time>
      </trkpt>
      <trkpt lat="42.664443" lon="0.648548">
        <ele>2338.7</ele>
        <time>1970-01-01T00:32:54.000Z</time>
      </trkpt>
      <trkpt lat="42.664442" lon="0.648537">
        <ele>2338.7</ele>
        <time>1970-01-01T00:32:55.000Z</time>
      </trkpt>
      <trkpt lat="42.66444" lon="0.648538">
        <ele>2338.7</ele>
        <time>1970-01-01T00:32:56.000Z</time>
      </trkpt>
      <trkpt lat="42.664436" lon="0.648539">
        <ele>2338.7</ele>
        <time>1970-01-01T00:32:57.000Z</time>
      </trkpt>
      <trkpt lat="42.664435" lon="0.648539">
        <ele>2338.7</ele>
        <time>1970-01-01T00:32:58.000Z</time>
      </trkpt>
      <trkpt lat="42.664432" lon="0.648542">
        <ele>2338.7</ele>
        <time>1970-01-01T00:32:59.000Z</time>
      </trkpt>
      <trkpt lat="42.664437" lon="0.648551">
        <ele>2338.7</ele>
        <time>1970-01-01T00:33:01.000Z</time>
      </trkpt>
      <trkpt lat="42.664442" lon="0.648553">
        <ele>2338.7</ele>
        <time>1970-01-01T00:33:02.000Z</time>
      </trkpt>
      <trkpt lat="42.664446" lon="0.648554">
        <ele>2338.7</ele>
        <time>1970-01-01T00:33:03.000Z</time>
      </trkpt>
      <trkpt lat="42.664449" lon="0.648557">
        <ele>2338.7</ele>
        <time>1970-01-01T00:33:04.000Z</time>
      </trkpt>
      <trkpt lat="42.664451" lon="0.648561">
        <ele>2336.8</ele>
        <time>1970-01-01T00:33:05.000Z</time>
      </trkpt>
      <trkpt lat="42.664448" lon="0.648576">
        <ele>2338.7</ele>
        <time>1970-01-01T00:33:06.000Z</time>
      </trkpt>
      <trkpt lat="42.664446" lon="0.648581">
        <ele>2339.5</ele>
        <time>1970-01-01T00:33:07.000Z</time>
      </trkpt>
      <trkpt lat="42.664444" lon="0.648576">
        <ele>2338.7</ele>
        <time>1970-01-01T00:33:08.000Z</time>
      </trkpt>
      <trkpt lat="42.664441" lon="0.64857">
        <ele>2338.7</ele>
        <time>1970-01-01T00:33:09.000Z</time>
      </trkpt>
      <trkpt lat="42.664439" lon="0.648547">
        <ele>2338.7</ele>
        <time>1970-01-01T00:33:10.000Z</time>
      </trkpt>
      <trkpt lat="42.664438" lon="0.648539">
        <ele>2338.7</ele>
        <time>1970-01-01T00:33:11.000Z</time>
      </trkpt>
      <trkpt lat="42.664442" lon="0.648538">
        <ele>2338.7</ele>
        <time>1970-01-01T00:33:12.000Z</time>
      </trkpt>
      <trkpt lat="42.664447" lon="0.648539">
        <ele>2338.7</ele>
        <time>1970-01-01T00:33:14.000Z</time>
      </trkpt>
      <trkpt lat="42.664448" lon="0.64854">
        <ele>2338.7</ele>
        <time>1970-01-01T00:33:15.000Z</time>
      </trkpt>
      <trkpt lat="42.664448" lon="0.648543">
        <ele>2338.7</ele>
        <time>1970-01-01T00:33:16.000Z</time>
      </trkpt>
      <trkpt lat="42.664448" lon="0.648546">
        <ele>2338.7</ele>
        <time>1970-01-01T00:33:17.000Z</time>
      </trkpt>
      <trkpt lat="42.664449" lon="0.648536">
        <ele>2337.9</ele>
        <time>1970-01-01T00:33:19.000Z</time>
      </trkpt>
      <trkpt lat="42.664449" lon="0.648535">
        <ele>2337.9</ele>
        <time>1970-01-01T00:33:20.000Z</time>
      </trkpt>
      <trkpt lat="42.66445" lon="0.648538">
        <ele>2338.7</ele>
        <time>1970-01-01T00:33:21.000Z</time>
      </trkpt>
      <trkpt lat="42.664451" lon="0.64854">
        <ele>2336.8</ele>
        <time>1970-01-01T00:33:22.000Z</time>
      </trkpt>
      <trkpt lat="42.664451" lon="0.648542">
        <ele>2336.8</ele>
        <time>1970-01-01T00:33:23.000Z</time>
      </trkpt>
      <trkpt lat="42.664452" lon="0.648544">
        <ele>2336.8</ele>
        <time>1970-01-01T00:33:24.000Z</time>
      </trkpt>
      <trkpt lat="42.664457" lon="0.648548">
        <ele>2336.8</ele>
        <time>1970-01-01T00:33:25.000Z</time>
      </trkpt>
      <trkpt lat="42.664461" lon="0.64855">
        <ele>2336.8</ele>
        <time>1970-01-01T00:33:26.000Z</time>
      </trkpt>
      <trkpt lat="42.664465" lon="0.648553">
        <ele>2336.8</ele>
        <time>1970-01-01T00:33:27.000Z</time>
      </trkpt>
      <trkpt lat="42.664471" lon="0.648561">
        <ele>2336.8</ele>
        <time>1970-01-01T00:33:28.000Z</time>
      </trkpt>
      <trkpt lat="42.664473" lon="0.648568">
        <ele>2336.8</ele>
        <time>1970-01-01T00:33:29.000Z</time>
      </trkpt>
      <trkpt lat="42.664475" lon="0.648571">
        <ele>2336.8</ele>
        <time>1970-01-01T00:33:30.000Z</time>
      </trkpt>
      <trkpt lat="42.664478" lon="0.648579">
        <ele>2336.8</ele>
        <time>1970-01-01T00:33:31.000Z</time>
      </trkpt>
      <trkpt lat="42.664482" lon="0.648584">
        <ele>2335.7</ele>
        <time>1970-01-01T00:33:32.000Z</time>
      </trkpt>
      <trkpt lat="42.664485" lon="0.648588">
        <ele>2335.7</ele>
        <time>1970-01-01T00:33:33.000Z</time>
      </trkpt>
      <trkpt lat="42.664488" lon="0.648593">
        <ele>2335.7</ele>
        <time>1970-01-01T00:33:35.000Z</time>
      </trkpt>
      <trkpt lat="42.664487" lon="0.648596">
        <ele>2335.7</ele>
        <time>1970-01-01T00:33:36.000Z</time>
      </trkpt>
      <trkpt lat="42.664484" lon="0.648592">
        <ele>2335.7</ele>
        <time>1970-01-01T00:33:37.000Z</time>
      </trkpt>
      <trkpt lat="42.664492" lon="0.648611">
        <ele>2335.7</ele>
        <time>1970-01-01T00:33:39.000Z</time>
      </trkpt>
      <trkpt lat="42.664494" lon="0.648617">
        <ele>2335.7</ele>
        <time>1970-01-01T00:33:40.000Z</time>
      </trkpt>
      <trkpt lat="42.664495" lon="0.648621">
        <ele>2335.7</ele>
        <time>1970-01-01T00:33:41.000Z</time>
      </trkpt>
      <trkpt lat="42.664498" lon="0.64862">
        <ele>2335.7</ele>
        <time>1970-01-01T00:33:43.000Z</time>
      </trkpt>
      <trkpt lat="42.664501" lon="0.648613">
        <ele>2335.7</ele>
        <time>1970-01-01T00:33:44.000Z</time>
      </trkpt>
      <trkpt lat="42.664506" lon="0.648608">
        <ele>2335.7</ele>
        <time>1970-01-01T00:33:45.000Z</time>
      </trkpt>
      <trkpt lat="42.664509" lon="0.648605">
        <ele>2335.7</ele>
        <time>1970-01-01T00:33:46.000Z</time>
      </trkpt>
      <trkpt lat="42.664509" lon="0.648603">
        <ele>2335.7</ele>
        <time>1970-01-01T00:33:48.000Z</time>
      </trkpt>
      <trkpt lat="42.664508" lon="0.648602">
        <ele>2335.7</ele>
        <time>1970-01-01T00:33:49.000Z</time>
      </trkpt>
      <trkpt lat="42.6645" lon="0.648599">
        <ele>2335.7</ele>
        <time>1970-01-01T00:33:50.000Z</time>
      </trkpt>
      <trkpt lat="42.664494" lon="0.648592">
        <ele>2335.7</ele>
        <time>1970-01-01T00:33:51.000Z</time>
      </trkpt>
      <trkpt lat="42.66449" lon="0.648587">
        <ele>2335.7</ele>
        <time>1970-01-01T00:33:52.000Z</time>
      </trkpt>
      <trkpt lat="42.664489" lon="0.648583">
        <ele>2335.7</ele>
        <time>1970-01-01T00:33:53.000Z</time>
      </trkpt>
      <trkpt lat="42.664484" lon="0.648578">
        <ele>2335</ele>
        <time>1970-01-01T00:33:54.000Z</time>
      </trkpt>
      <trkpt lat="42.664477" lon="0.648587">
        <ele>2337.5</ele>
        <time>1970-01-01T00:33:55.000Z</time>
      </trkpt>
      <trkpt lat="42.664457" lon="0.648617">
        <ele>2337.5</ele>
        <time>1970-01-01T00:33:57.000Z</time>
      </trkpt>
      <trkpt lat="42.664444" lon="0.648632">
        <ele>2340.3</ele>
        <time>1970-01-01T00:33:58.000Z</time>
      </trkpt>
      <trkpt lat="42.664438" lon="0.64863">
        <ele>2340.3</ele>
        <time>1970-01-01T00:33:59.000Z</time>
      </trkpt>
      <trkpt lat="42.664433" lon="0.648627">
        <ele>2340.3</ele>
        <time>1970-01-01T00:34:00.000Z</time>
      </trkpt>
      <trkpt lat="42.664428" lon="0.648626">
        <ele>2340.3</ele>
        <time>1970-01-01T00:34:01.000Z</time>
      </trkpt>
      <trkpt lat="42.664424" lon="0.648631">
        <ele>2340.3</ele>
        <time>1970-01-01T00:34:02.000Z</time>
      </trkpt>
      <trkpt lat="42.66442" lon="0.648636">
        <ele>2340.3</ele>
        <time>1970-01-01T00:34:03.000Z</time>
      </trkpt>
      <trkpt lat="42.66442" lon="0.648639">
        <ele>2340.3</ele>
        <time>1970-01-01T00:34:04.000Z</time>
      </trkpt>
      <trkpt lat="42.664421" lon="0.648643">
        <ele>2340.3</ele>
        <time>1970-01-01T00:34:05.000Z</time>
      </trkpt>
      <trkpt lat="42.664422" lon="0.648644">
        <ele>2340.3</ele>
        <time>1970-01-01T00:34:06.000Z</time>
      </trkpt>
      <trkpt lat="42.664423" lon="0.648643">
        <ele>2340.3</ele>
        <time>1970-01-01T00:34:07.000Z</time>
      </trkpt>
      <trkpt lat="42.664426" lon="0.648642">
        <ele>2340.3</ele>
        <time>1970-01-01T00:34:08.000Z</time>
      </trkpt>
      <trkpt lat="42.664433" lon="0.648638">
        <ele>2340.3</ele>
        <time>1970-01-01T00:34:09.000Z</time>
      </trkpt>
      <trkpt lat="42.66444" lon="0.648636">
        <ele>2340.3</ele>
        <time>1970-01-01T00:34:10.000Z</time>
      </trkpt>
      <trkpt lat="42.664451" lon="0.648637">
        <ele>2338.4</ele>
        <time>1970-01-01T00:34:11.000Z</time>
      </trkpt>
      <trkpt lat="42.664459" lon="0.648636">
        <ele>2338.4</ele>
        <time>1970-01-01T00:34:12.000Z</time>
      </trkpt>
      <trkpt lat="42.664466" lon="0.648636">
        <ele>2338.4</ele>
        <time>1970-01-01T00:34:13.000Z</time>
      </trkpt>
      <trkpt lat="42.664469" lon="0.648638">
        <ele>2338.4</ele>
        <time>1970-01-01T00:34:14.000Z</time>
      </trkpt>
      <trkpt lat="42.664474" lon="0.648643">
        <ele>2338.4</ele>
        <time>1970-01-01T00:34:15.000Z</time>
      </trkpt>
      <trkpt lat="42.664477" lon="0.648648">
        <ele>2338.4</ele>
        <time>1970-01-01T00:34:16.000Z</time>
      </trkpt>
      <trkpt lat="42.664482" lon="0.648649">
        <ele>2336.5</ele>
        <time>1970-01-01T00:34:17.000Z</time>
      </trkpt>
      <trkpt lat="42.664484" lon="0.648647">
        <ele>2336.5</ele>
        <time>1970-01-01T00:34:19.000Z</time>
      </trkpt>
      <trkpt lat="42.664485" lon="0.648648">
        <ele>2336.5</ele>
        <time>1970-01-01T00:34:20.000Z</time>
      </trkpt>
      <trkpt lat="42.664485" lon="0.64865">
        <ele>2336.5</ele>
        <time>1970-01-01T00:34:21.000Z</time>
      </trkpt>
      <trkpt lat="42.664485" lon="0.648651">
        <ele>2336.5</ele>
        <time>1970-01-01T00:34:22.000Z</time>
      </trkpt>
      <trkpt lat="42.664486" lon="0.648653">
        <ele>2336.5</ele>
        <time>1970-01-01T00:34:23.000Z</time>
      </trkpt>
      <trkpt lat="42.664486" lon="0.648654">
        <ele>2336.5</ele>
        <time>1970-01-01T00:34:24.000Z</time>
      </trkpt>
      <trkpt lat="42.664487" lon="0.648656">
        <ele>2336.5</ele>
        <time>1970-01-01T00:34:25.000Z</time>
      </trkpt>
      <trkpt lat="42.664488" lon="0.648657">
        <ele>2336.5</ele>
        <time>1970-01-01T00:34:26.000Z</time>
      </trkpt>
      <trkpt lat="42.664489" lon="0.648658">
        <ele>2336.5</ele>
        <time>1970-01-01T00:34:27.000Z</time>
      </trkpt>
      <trkpt lat="42.664489" lon="0.648658">
        <ele>2336.5</ele>
        <time>1970-01-01T00:34:28.000Z</time>
      </trkpt>
      <trkpt lat="42.664489" lon="0.648657">
        <ele>2336.5</ele>
        <time>1970-01-01T00:34:29.000Z</time>
      </trkpt>
      <trkpt lat="42.664489" lon="0.648657">
        <ele>2336.5</ele>
        <time>1970-01-01T00:34:30.000Z</time>
      </trkpt>
      <trkpt lat="42.664489" lon="0.648658">
        <ele>2336.5</ele>
        <time>1970-01-01T00:34:31.000Z</time>
      </trkpt>
      <trkpt lat="42.66449" lon="0.648659">
        <ele>2336.5</ele>
        <time>1970-01-01T00:34:32.000Z</time>
      </trkpt>
      <trkpt lat="42.66449" lon="0.64866">
        <ele>2336.5</ele>
        <time>1970-01-01T00:34:33.000Z</time>
      </trkpt>
      <trkpt lat="42.664491" lon="0.648663">
        <ele>2336.5</ele>
        <time>1970-01-01T00:34:35.000Z</time>
      </trkpt>
      <trkpt lat="42.664492" lon="0.648666">
        <ele>2337.3</ele>
        <time>1970-01-01T00:34:36.000Z</time>
      </trkpt>
      <trkpt lat="42.664492" lon="0.648671">
        <ele>2337.3</ele>
        <time>1970-01-01T00:34:37.000Z</time>
      </trkpt>
      <trkpt lat="42.66449" lon="0.648678">
        <ele>2337.3</ele>
        <time>1970-01-01T00:34:38.000Z</time>
      </trkpt>
      <trkpt lat="42.664487" lon="0.648689">
        <ele>2337.3</ele>
        <time>1970-01-01T00:34:39.000Z</time>
      </trkpt>
      <trkpt lat="42.664477" lon="0.648731">
        <ele>2340.1</ele>
        <time>1970-01-01T00:34:41.000Z</time>
      </trkpt>
      <trkpt lat="42.664474" lon="0.648745">
        <ele>2340.1</ele>
        <time>1970-01-01T00:34:42.000Z</time>
      </trkpt>
      <trkpt lat="42.664474" lon="0.648761">
        <ele>2341.1</ele>
        <time>1970-01-01T00:34:43.000Z</time>
      </trkpt>
      <trkpt lat="42.664476" lon="0.648776">
        <ele>2341.1</ele>
        <time>1970-01-01T00:34:44.000Z</time>
      </trkpt>
      <trkpt lat="42.664484" lon="0.648784">
        <ele>2339.2</ele>
        <time>1970-01-01T00:34:45.000Z</time>
      </trkpt>
      <trkpt lat="42.664486" lon="0.648784">
        <ele>2339.2</ele>
        <time>1970-01-01T00:34:46.000Z</time>
      </trkpt>
      <trkpt lat="42.664491" lon="0.648784">
        <ele>2339.2</ele>
        <time>1970-01-01T00:34:47.000Z</time>
      </trkpt>
      <trkpt lat="42.664495" lon="0.648782">
        <ele>2339.2</ele>
        <time>1970-01-01T00:34:48.000Z</time>
      </trkpt>
      <trkpt lat="42.664504" lon="0.648792">
        <ele>2339.2</ele>
        <time>1970-01-01T00:34:49.000Z</time>
      </trkpt>
      <trkpt lat="42.664509" lon="0.648803">
        <ele>2340.2</ele>
        <time>1970-01-01T00:34:50.000Z</time>
      </trkpt>
      <trkpt lat="42.664509" lon="0.648808">
        <ele>2340.2</ele>
        <time>1970-01-01T00:34:51.000Z</time>
      </trkpt>
      <trkpt lat="42.664509" lon="0.648812">
        <ele>2340.2</ele>
        <time>1970-01-01T00:34:52.000Z</time>
      </trkpt>
      <trkpt lat="42.664515" lon="0.648824">
        <ele>2338.3</ele>
        <time>1970-01-01T00:34:54.000Z</time>
      </trkpt>
      <trkpt lat="42.664521" lon="0.648827">
        <ele>2338.3</ele>
        <time>1970-01-01T00:34:56.000Z</time>
      </trkpt>
      <trkpt lat="42.664525" lon="0.648829">
        <ele>2338.3</ele>
        <time>1970-01-01T00:34:57.000Z</time>
      </trkpt>
      <trkpt lat="42.664529" lon="0.648832">
        <ele>2338.3</ele>
        <time>1970-01-01T00:34:58.000Z</time>
      </trkpt>
      <trkpt lat="42.664532" lon="0.648837">
        <ele>2338.3</ele>
        <time>1970-01-01T00:34:59.000Z</time>
      </trkpt>
      <trkpt lat="42.664533" lon="0.648842">
        <ele>2339.5</ele>
        <time>1970-01-01T00:35:00.000Z</time>
      </trkpt>
      <trkpt lat="42.664529" lon="0.648844">
        <ele>2339.5</ele>
        <time>1970-01-01T00:35:01.000Z</time>
      </trkpt>
      <trkpt lat="42.664525" lon="0.648845">
        <ele>2339.5</ele>
        <time>1970-01-01T00:35:02.000Z</time>
      </trkpt>
      <trkpt lat="42.66452" lon="0.648845">
        <ele>2339.5</ele>
        <time>1970-01-01T00:35:03.000Z</time>
      </trkpt>
      <trkpt lat="42.664515" lon="0.648844">
        <ele>2339.5</ele>
        <time>1970-01-01T00:35:04.000Z</time>
      </trkpt>
      <trkpt lat="42.664512" lon="0.648844">
        <ele>2341.4</ele>
        <time>1970-01-01T00:35:05.000Z</time>
      </trkpt>
      <trkpt lat="42.664509" lon="0.648844">
        <ele>2341.4</ele>
        <time>1970-01-01T00:35:06.000Z</time>
      </trkpt>
      <trkpt lat="42.664507" lon="0.648844">
        <ele>2341.4</ele>
        <time>1970-01-01T00:35:07.000Z</time>
      </trkpt>
      <trkpt lat="42.664501" lon="0.648843">
        <ele>2341.4</ele>
        <time>1970-01-01T00:35:08.000Z</time>
      </trkpt>
      <trkpt lat="42.664499" lon="0.648843">
        <ele>2341.4</ele>
        <time>1970-01-01T00:35:09.000Z</time>
      </trkpt>
      <trkpt lat="42.664495" lon="0.648842">
        <ele>2341.4</ele>
        <time>1970-01-01T00:35:10.000Z</time>
      </trkpt>
      <trkpt lat="42.664486" lon="0.648842">
        <ele>2341.4</ele>
        <time>1970-01-01T00:35:12.000Z</time>
      </trkpt>
      <trkpt lat="42.664483" lon="0.648842">
        <ele>2341.4</ele>
        <time>1970-01-01T00:35:13.000Z</time>
      </trkpt>
      <trkpt lat="42.66448" lon="0.648841">
        <ele>2343.4</ele>
        <time>1970-01-01T00:35:14.000Z</time>
      </trkpt>
      <trkpt lat="42.664477" lon="0.648841">
        <ele>2343.4</ele>
        <time>1970-01-01T00:35:15.000Z</time>
      </trkpt>
      <trkpt lat="42.664475" lon="0.648841">
        <ele>2343.4</ele>
        <time>1970-01-01T00:35:16.000Z</time>
      </trkpt>
      <trkpt lat="42.664473" lon="0.648841">
        <ele>2343.4</ele>
        <time>1970-01-01T00:35:17.000Z</time>
      </trkpt>
      <trkpt lat="42.664471" lon="0.64884">
        <ele>2343.4</ele>
        <time>1970-01-01T00:35:18.000Z</time>
      </trkpt>
      <trkpt lat="42.66447" lon="0.64884">
        <ele>2343.4</ele>
        <time>1970-01-01T00:35:19.000Z</time>
      </trkpt>
      <trkpt lat="42.664458" lon="0.648833">
        <ele>2342.2</ele>
        <time>1970-01-01T00:35:20.000Z</time>
      </trkpt>
      <trkpt lat="42.664449" lon="0.64883">
        <ele>2344.2</ele>
        <time>1970-01-01T00:35:21.000Z</time>
      </trkpt>
      <trkpt lat="42.664444" lon="0.648828">
        <ele>2344.2</ele>
        <time>1970-01-01T00:35:22.000Z</time>
      </trkpt>
      <trkpt lat="42.664438" lon="0.648826">
        <ele>2344.2</ele>
        <time>1970-01-01T00:35:23.000Z</time>
      </trkpt>
      <trkpt lat="42.664432" lon="0.648825">
        <ele>2344.2</ele>
        <time>1970-01-01T00:35:24.000Z</time>
      </trkpt>
      <trkpt lat="42.664444" lon="0.648831">
        <ele>2344.2</ele>
        <time>1970-01-01T00:35:25.000Z</time>
      </trkpt>
      <trkpt lat="42.664445" lon="0.648842">
        <ele>2345.4</ele>
        <time>1970-01-01T00:35:27.000Z</time>
      </trkpt>
      <trkpt lat="42.664438" lon="0.64885">
        <ele>2345.4</ele>
        <time>1970-01-01T00:35:28.000Z</time>
      </trkpt>
      <trkpt lat="42.664434" lon="0.648856">
        <ele>2345.4</ele>
        <time>1970-01-01T00:35:29.000Z</time>
      </trkpt>
      <trkpt lat="42.664428" lon="0.648863">
        <ele>2345.4</ele>
        <time>1970-01-01T00:35:30.000Z</time>
      </trkpt>
      <trkpt lat="42.664423" lon="0.648868">
        <ele>2345.4</ele>
        <time>1970-01-01T00:35:31.000Z</time>
      </trkpt>
      <trkpt lat="42.664419" lon="0.64887">
        <ele>2345.4</ele>
        <time>1970-01-01T00:35:32.000Z</time>
      </trkpt>
      <trkpt lat="42.664413" lon="0.648871">
        <ele>2347.6</ele>
        <time>1970-01-01T00:35:33.000Z</time>
      </trkpt>
      <trkpt lat="42.664408" lon="0.648872">
        <ele>2347.6</ele>
        <time>1970-01-01T00:35:34.000Z</time>
      </trkpt>
      <trkpt lat="42.664403" lon="0.648871">
        <ele>2347.6</ele>
        <time>1970-01-01T00:35:35.000Z</time>
      </trkpt>
      <trkpt lat="42.664398" lon="0.648867">
        <ele>2347.6</ele>
        <time>1970-01-01T00:35:36.000Z</time>
      </trkpt>
      <trkpt lat="42.664394" lon="0.648863">
        <ele>2347.6</ele>
        <time>1970-01-01T00:35:37.000Z</time>
      </trkpt>
      <trkpt lat="42.664391" lon="0.648859">
        <ele>2347.6</ele>
        <time>1970-01-01T00:35:38.000Z</time>
      </trkpt>
      <trkpt lat="42.664389" lon="0.648857">
        <ele>2347.6</ele>
        <time>1970-01-01T00:35:39.000Z</time>
      </trkpt>
      <trkpt lat="42.664386" lon="0.648857">
        <ele>2349.8</ele>
        <time>1970-01-01T00:35:40.000Z</time>
      </trkpt>
      <trkpt lat="42.664381" lon="0.648863">
        <ele>2349.8</ele>
        <time>1970-01-01T00:35:41.000Z</time>
      </trkpt>
      <trkpt lat="42.664377" lon="0.648865">
        <ele>2349.8</ele>
        <time>1970-01-01T00:35:42.000Z</time>
      </trkpt>
      <trkpt lat="42.664371" lon="0.648867">
        <ele>2349.8</ele>
        <time>1970-01-01T00:35:43.000Z</time>
      </trkpt>
      <trkpt lat="42.664368" lon="0.648867">
        <ele>2349.8</ele>
        <time>1970-01-01T00:35:44.000Z</time>
      </trkpt>
      <trkpt lat="42.664361" lon="0.648866">
        <ele>2349.8</ele>
        <time>1970-01-01T00:35:45.000Z</time>
      </trkpt>
      <trkpt lat="42.664357" lon="0.648866">
        <ele>2349.8</ele>
        <time>1970-01-01T00:35:46.000Z</time>
      </trkpt>
      <trkpt lat="42.664352" lon="0.648863">
        <ele>2351.9</ele>
        <time>1970-01-01T00:35:48.000Z</time>
      </trkpt>
      <trkpt lat="42.664348" lon="0.64886">
        <ele>2351.9</ele>
        <time>1970-01-01T00:35:49.000Z</time>
      </trkpt>
      <trkpt lat="42.664341" lon="0.648849">
        <ele>2351.9</ele>
        <time>1970-01-01T00:35:50.000Z</time>
      </trkpt>
      <trkpt lat="42.664339" lon="0.648834">
        <ele>2350.7</ele>
        <time>1970-01-01T00:35:52.000Z</time>
      </trkpt>
      <trkpt lat="42.664341" lon="0.648819">
        <ele>2350.7</ele>
        <time>1970-01-01T00:35:53.000Z</time>
      </trkpt>
      <trkpt lat="42.664341" lon="0.64881">
        <ele>2350.7</ele>
        <time>1970-01-01T00:35:54.000Z</time>
      </trkpt>
      <trkpt lat="42.664344" lon="0.648806">
        <ele>2350.7</ele>
        <time>1970-01-01T00:35:55.000Z</time>
      </trkpt>
      <trkpt lat="42.664347" lon="0.648802">
        <ele>2350.7</ele>
        <time>1970-01-01T00:35:56.000Z</time>
      </trkpt>
      <trkpt lat="42.664349" lon="0.648798">
        <ele>2350.7</ele>
        <time>1970-01-01T00:35:57.000Z</time>
      </trkpt>
      <trkpt lat="42.664347" lon="0.648793">
        <ele>2349.5</ele>
        <time>1970-01-01T00:35:59.000Z</time>
      </trkpt>
      <trkpt lat="42.664344" lon="0.648786">
        <ele>2349.5</ele>
        <time>1970-01-01T00:36:00.000Z</time>
      </trkpt>
      <trkpt lat="42.664339" lon="0.648782">
        <ele>2349.5</ele>
        <time>1970-01-01T00:36:01.000Z</time>
      </trkpt>
      <trkpt lat="42.664317" lon="0.648779">
        <ele>2351.6</ele>
        <time>1970-01-01T00:36:03.000Z</time>
      </trkpt>
      <trkpt lat="42.664305" lon="0.648789">
        <ele>2351.6</ele>
        <time>1970-01-01T00:36:04.000Z</time>
      </trkpt>
      <trkpt lat="42.664295" lon="0.648792">
        <ele>2351.6</ele>
        <time>1970-01-01T00:36:05.000Z</time>
      </trkpt>
      <trkpt lat="42.664288" lon="0.648792">
        <ele>2353.7</ele>
        <time>1970-01-01T00:36:06.000Z</time>
      </trkpt>
      <trkpt lat="42.664282" lon="0.648783">
        <ele>2353.7</ele>
        <time>1970-01-01T00:36:08.000Z</time>
      </trkpt>
      <trkpt lat="42.664285" lon="0.648784">
        <ele>2353.7</ele>
        <time>1970-01-01T00:36:09.000Z</time>
      </trkpt>
      <trkpt lat="42.664288" lon="0.648783">
        <ele>2353.7</ele>
        <time>1970-01-01T00:36:10.000Z</time>
      </trkpt>
      <trkpt lat="42.664304" lon="0.648776">
        <ele>2351.6</ele>
        <time>1970-01-01T00:36:12.000Z</time>
      </trkpt>
      <trkpt lat="42.6643" lon="0.648765">
        <ele>2351.6</ele>
        <time>1970-01-01T00:36:13.000Z</time>
      </trkpt>
      <trkpt lat="42.664297" lon="0.648755">
        <ele>2351.6</ele>
        <time>1970-01-01T00:36:14.000Z</time>
      </trkpt>
      <trkpt lat="42.664294" lon="0.64875">
        <ele>2350.5</ele>
        <time>1970-01-01T00:36:15.000Z</time>
      </trkpt>
      <trkpt lat="42.664289" lon="0.648749">
        <ele>2352.5</ele>
        <time>1970-01-01T00:36:16.000Z</time>
      </trkpt>
      <trkpt lat="42.664283" lon="0.648747">
        <ele>2352.5</ele>
        <time>1970-01-01T00:36:17.000Z</time>
      </trkpt>
      <trkpt lat="42.664277" lon="0.648751">
        <ele>2352.5</ele>
        <time>1970-01-01T00:36:18.000Z</time>
      </trkpt>
      <trkpt lat="42.664273" lon="0.64876">
        <ele>2353.7</ele>
        <time>1970-01-01T00:36:19.000Z</time>
      </trkpt>
      <trkpt lat="42.664269" lon="0.648773">
        <ele>2353.7</ele>
        <time>1970-01-01T00:36:20.000Z</time>
      </trkpt>
      <trkpt lat="42.664261" lon="0.64878">
        <ele>2355.8</ele>
        <time>1970-01-01T00:36:21.000Z</time>
      </trkpt>
      <trkpt lat="42.664253" lon="0.648787">
        <ele>2355.8</ele>
        <time>1970-01-01T00:36:22.000Z</time>
      </trkpt>
      <trkpt lat="42.664246" lon="0.64881">
        <ele>2357</ele>
        <time>1970-01-01T00:36:23.000Z</time>
      </trkpt>
      <trkpt lat="42.664244" lon="0.648822">
        <ele>2357</ele>
        <time>1970-01-01T00:36:24.000Z</time>
      </trkpt>
      <trkpt lat="42.664247" lon="0.648833">
        <ele>2357</ele>
        <time>1970-01-01T00:36:25.000Z</time>
      </trkpt>
      <trkpt lat="42.664258" lon="0.648843">
        <ele>2358.3</ele>
        <time>1970-01-01T00:36:26.000Z</time>
      </trkpt>
      <trkpt lat="42.664269" lon="0.648846">
        <ele>2356.2</ele>
        <time>1970-01-01T00:36:27.000Z</time>
      </trkpt>
      <trkpt lat="42.664283" lon="0.648847">
        <ele>2356.2</ele>
        <time>1970-01-01T00:36:28.000Z</time>
      </trkpt>
      <trkpt lat="42.664294" lon="0.648848">
        <ele>2354.1</ele>
        <time>1970-01-01T00:36:30.000Z</time>
      </trkpt>
      <trkpt lat="42.6643" lon="0.648847">
        <ele>2354.1</ele>
        <time>1970-01-01T00:36:31.000Z</time>
      </trkpt>
      <trkpt lat="42.664304" lon="0.648845">
        <ele>2354.1</ele>
        <time>1970-01-01T00:36:32.000Z</time>
      </trkpt>
      <trkpt lat="42.664311" lon="0.648842">
        <ele>2354.1</ele>
        <time>1970-01-01T00:36:34.000Z</time>
      </trkpt>
      <trkpt lat="42.664311" lon="0.648842">
        <ele>2354.1</ele>
        <time>1970-01-01T00:36:35.000Z</time>
      </trkpt>
      <trkpt lat="42.664308" lon="0.648836">
        <ele>2352.8</ele>
        <time>1970-01-01T00:36:36.000Z</time>
      </trkpt>
      <trkpt lat="42.664302" lon="0.648825">
        <ele>2352.8</ele>
        <time>1970-01-01T00:36:37.000Z</time>
      </trkpt>
      <trkpt lat="42.664301" lon="0.648823">
        <ele>2352.8</ele>
        <time>1970-01-01T00:36:38.000Z</time>
      </trkpt>
      <trkpt lat="42.6643" lon="0.64882">
        <ele>2352.8</ele>
        <time>1970-01-01T00:36:39.000Z</time>
      </trkpt>
      <trkpt lat="42.664299" lon="0.648816">
        <ele>2352.8</ele>
        <time>1970-01-01T00:36:40.000Z</time>
      </trkpt>
      <trkpt lat="42.664299" lon="0.648812">
        <ele>2352.8</ele>
        <time>1970-01-01T00:36:41.000Z</time>
      </trkpt>
      <trkpt lat="42.664299" lon="0.648807">
        <ele>2352.8</ele>
        <time>1970-01-01T00:36:42.000Z</time>
      </trkpt>
      <trkpt lat="42.664299" lon="0.648801">
        <ele>2352.8</ele>
        <time>1970-01-01T00:36:43.000Z</time>
      </trkpt>
      <trkpt lat="42.664299" lon="0.648799">
        <ele>2352.8</ele>
        <time>1970-01-01T00:36:44.000Z</time>
      </trkpt>
      <trkpt lat="42.664298" lon="0.648795">
        <ele>2352.8</ele>
        <time>1970-01-01T00:36:45.000Z</time>
      </trkpt>
      <trkpt lat="42.664294" lon="0.648797">
        <ele>2352.8</ele>
        <time>1970-01-01T00:36:47.000Z</time>
      </trkpt>
      <trkpt lat="42.664287" lon="0.648788">
        <ele>2353.7</ele>
        <time>1970-01-01T00:36:49.000Z</time>
      </trkpt>
      <trkpt lat="42.664282" lon="0.64878">
        <ele>2353.7</ele>
        <time>1970-01-01T00:36:51.000Z</time>
      </trkpt>
      <trkpt lat="42.664277" lon="0.648776">
        <ele>2353.7</ele>
        <time>1970-01-01T00:36:52.000Z</time>
      </trkpt>
      <trkpt lat="42.664271" lon="0.648772">
        <ele>2353.7</ele>
        <time>1970-01-01T00:36:53.000Z</time>
      </trkpt>
      <trkpt lat="42.664268" lon="0.64877">
        <ele>2353.7</ele>
        <time>1970-01-01T00:36:54.000Z</time>
      </trkpt>
      <trkpt lat="42.664264" lon="0.648767">
        <ele>2353.7</ele>
        <time>1970-01-01T00:36:55.000Z</time>
      </trkpt>
      <trkpt lat="42.66426" lon="0.648765">
        <ele>2355.8</ele>
        <time>1970-01-01T00:36:56.000Z</time>
      </trkpt>
      <trkpt lat="42.664253" lon="0.64876">
        <ele>2355.8</ele>
        <time>1970-01-01T00:36:57.000Z</time>
      </trkpt>
      <trkpt lat="42.664248" lon="0.648757">
        <ele>2355.8</ele>
        <time>1970-01-01T00:36:58.000Z</time>
      </trkpt>
      <trkpt lat="42.664244" lon="0.648753">
        <ele>2355.8</ele>
        <time>1970-01-01T00:36:59.000Z</time>
      </trkpt>
      <trkpt lat="42.66424" lon="0.648749">
        <ele>2354.6</ele>
        <time>1970-01-01T00:37:00.000Z</time>
      </trkpt>
      <trkpt lat="42.664234" lon="0.648743">
        <ele>2354.6</ele>
        <time>1970-01-01T00:37:01.000Z</time>
      </trkpt>
      <trkpt lat="42.664229" lon="0.648737">
        <ele>2356.8</ele>
        <time>1970-01-01T00:37:02.000Z</time>
      </trkpt>
      <trkpt lat="42.664223" lon="0.648731">
        <ele>2356.8</ele>
        <time>1970-01-01T00:37:03.000Z</time>
      </trkpt>
      <trkpt lat="42.664216" lon="0.648722">
        <ele>2356.8</ele>
        <time>1970-01-01T00:37:04.000Z</time>
      </trkpt>
      <trkpt lat="42.664195" lon="0.648701">
        <ele>2358</ele>
        <time>1970-01-01T00:37:06.000Z</time>
      </trkpt>
      <trkpt lat="42.664184" lon="0.648693">
        <ele>2358</ele>
        <time>1970-01-01T00:37:07.000Z</time>
      </trkpt>
      <trkpt lat="42.664179" lon="0.648694">
        <ele>2358</ele>
        <time>1970-01-01T00:37:08.000Z</time>
      </trkpt>
      <trkpt lat="42.664175" lon="0.648698">
        <ele>2358</ele>
        <time>1970-01-01T00:37:09.000Z</time>
      </trkpt>
      <trkpt lat="42.664171" lon="0.648704">
        <ele>2358</ele>
        <time>1970-01-01T00:37:10.000Z</time>
      </trkpt>
      <trkpt lat="42.664168" lon="0.648707">
        <ele>2358</ele>
        <time>1970-01-01T00:37:11.000Z</time>
      </trkpt>
      <trkpt lat="42.664165" lon="0.648709">
        <ele>2361.7</ele>
        <time>1970-01-01T00:37:12.000Z</time>
      </trkpt>
      <trkpt lat="42.664161" lon="0.648709">
        <ele>2361.7</ele>
        <time>1970-01-01T00:37:13.000Z</time>
      </trkpt>
      <trkpt lat="42.664156" lon="0.648708">
        <ele>2360.6</ele>
        <time>1970-01-01T00:37:14.000Z</time>
      </trkpt>
      <trkpt lat="42.664151" lon="0.648707">
        <ele>2360.6</ele>
        <time>1970-01-01T00:37:15.000Z</time>
      </trkpt>
      <trkpt lat="42.664146" lon="0.648707">
        <ele>2360.6</ele>
        <time>1970-01-01T00:37:16.000Z</time>
      </trkpt>
      <trkpt lat="42.664135" lon="0.648709">
        <ele>2361.7</ele>
        <time>1970-01-01T00:37:18.000Z</time>
      </trkpt>
      <trkpt lat="42.664129" lon="0.64871">
        <ele>2364.3</ele>
        <time>1970-01-01T00:37:19.000Z</time>
      </trkpt>
      <trkpt lat="42.664123" lon="0.64871">
        <ele>2364.3</ele>
        <time>1970-01-01T00:37:20.000Z</time>
      </trkpt>
      <trkpt lat="42.664117" lon="0.64871">
        <ele>2364.3</ele>
        <time>1970-01-01T00:37:21.000Z</time>
      </trkpt>
      <trkpt lat="42.664108" lon="0.648707">
        <ele>2363.1</ele>
        <time>1970-01-01T00:37:23.000Z</time>
      </trkpt>
      <trkpt lat="42.664105" lon="0.648705">
        <ele>2363.1</ele>
        <time>1970-01-01T00:37:24.000Z</time>
      </trkpt>
      <trkpt lat="42.664103" lon="0.648703">
        <ele>2365.6</ele>
        <time>1970-01-01T00:37:25.000Z</time>
      </trkpt>
      <trkpt lat="42.6641" lon="0.648701">
        <ele>2365.6</ele>
        <time>1970-01-01T00:37:26.000Z</time>
      </trkpt>
      <trkpt lat="42.664097" lon="0.648699">
        <ele>2365.6</ele>
        <time>1970-01-01T00:37:27.000Z</time>
      </trkpt>
      <trkpt lat="42.664095" lon="0.648697">
        <ele>2365.6</ele>
        <time>1970-01-01T00:37:28.000Z</time>
      </trkpt>
      <trkpt lat="42.664092" lon="0.648696">
        <ele>2365.6</ele>
        <time>1970-01-01T00:37:29.000Z</time>
      </trkpt>
      <trkpt lat="42.664087" lon="0.648695">
        <ele>2365.6</ele>
        <time>1970-01-01T00:37:30.000Z</time>
      </trkpt>
      <trkpt lat="42.664079" lon="0.648698">
        <ele>2365.6</ele>
        <time>1970-01-01T00:37:31.000Z</time>
      </trkpt>
      <trkpt lat="42.664076" lon="0.648699">
        <ele>2365.6</ele>
        <time>1970-01-01T00:37:32.000Z</time>
      </trkpt>
      <trkpt lat="42.664074" lon="0.648701">
        <ele>2365.6</ele>
        <time>1970-01-01T00:37:33.000Z</time>
      </trkpt>
      <trkpt lat="42.664073" lon="0.648702">
        <ele>2365.6</ele>
        <time>1970-01-01T00:37:34.000Z</time>
      </trkpt>
      <trkpt lat="42.664074" lon="0.648704">
        <ele>2365.6</ele>
        <time>1970-01-01T00:37:35.000Z</time>
      </trkpt>
      <trkpt lat="42.664074" lon="0.648705">
        <ele>2365.6</ele>
        <time>1970-01-01T00:37:36.000Z</time>
      </trkpt>
      <trkpt lat="42.664074" lon="0.648707">
        <ele>2365.6</ele>
        <time>1970-01-01T00:37:37.000Z</time>
      </trkpt>
      <trkpt lat="42.664074" lon="0.648709">
        <ele>2366.8</ele>
        <time>1970-01-01T00:37:38.000Z</time>
      </trkpt>
      <trkpt lat="42.664074" lon="0.64871">
        <ele>2366.8</ele>
        <time>1970-01-01T00:37:39.000Z</time>
      </trkpt>
      <trkpt lat="42.664074" lon="0.648711">
        <ele>2366.8</ele>
        <time>1970-01-01T00:37:40.000Z</time>
      </trkpt>
      <trkpt lat="42.664074" lon="0.648711">
        <ele>2366.8</ele>
        <time>1970-01-01T00:37:41.000Z</time>
      </trkpt>
      <trkpt lat="42.664074" lon="0.648709">
        <ele>2366.8</ele>
        <time>1970-01-01T00:37:42.000Z</time>
      </trkpt>
      <trkpt lat="42.664072" lon="0.648707">
        <ele>2365.6</ele>
        <time>1970-01-01T00:37:43.000Z</time>
      </trkpt>
      <trkpt lat="42.664071" lon="0.648703">
        <ele>2367.9</ele>
        <time>1970-01-01T00:37:44.000Z</time>
      </trkpt>
      <trkpt lat="42.66407" lon="0.6487">
        <ele>2367.9</ele>
        <time>1970-01-01T00:37:45.000Z</time>
      </trkpt>
      <trkpt lat="42.664069" lon="0.648696">
        <ele>2367.9</ele>
        <time>1970-01-01T00:37:46.000Z</time>
      </trkpt>
      <trkpt lat="42.664068" lon="0.648693">
        <ele>2367.9</ele>
        <time>1970-01-01T00:37:47.000Z</time>
      </trkpt>
      <trkpt lat="42.664066" lon="0.648688">
        <ele>2367.9</ele>
        <time>1970-01-01T00:37:48.000Z</time>
      </trkpt>
      <trkpt lat="42.664064" lon="0.648683">
        <ele>2367.9</ele>
        <time>1970-01-01T00:37:50.000Z</time>
      </trkpt>
      <trkpt lat="42.664062" lon="0.648681">
        <ele>2367.9</ele>
        <time>1970-01-01T00:37:51.000Z</time>
      </trkpt>
      <trkpt lat="42.664061" lon="0.648677">
        <ele>2367.9</ele>
        <time>1970-01-01T00:37:52.000Z</time>
      </trkpt>
      <trkpt lat="42.66406" lon="0.648676">
        <ele>2367.9</ele>
        <time>1970-01-01T00:37:53.000Z</time>
      </trkpt>
      <trkpt lat="42.664058" lon="0.648674">
        <ele>2367.9</ele>
        <time>1970-01-01T00:37:54.000Z</time>
      </trkpt>
      <trkpt lat="42.664055" lon="0.648672">
        <ele>2367.9</ele>
        <time>1970-01-01T00:37:55.000Z</time>
      </trkpt>
      <trkpt lat="42.664053" lon="0.648667">
        <ele>2367.9</ele>
        <time>1970-01-01T00:37:56.000Z</time>
      </trkpt>
      <trkpt lat="42.66405" lon="0.648662">
        <ele>2366.7</ele>
        <time>1970-01-01T00:37:57.000Z</time>
      </trkpt>
      <trkpt lat="42.664049" lon="0.648659">
        <ele>2366.7</ele>
        <time>1970-01-01T00:37:58.000Z</time>
      </trkpt>
      <trkpt lat="42.664048" lon="0.648655">
        <ele>2366.7</ele>
        <time>1970-01-01T00:37:59.000Z</time>
      </trkpt>
      <trkpt lat="42.664048" lon="0.64865">
        <ele>2366.7</ele>
        <time>1970-01-01T00:38:00.000Z</time>
      </trkpt>
      <trkpt lat="42.664048" lon="0.648647">
        <ele>2366.7</ele>
        <time>1970-01-01T00:38:01.000Z</time>
      </trkpt>
      <trkpt lat="42.664049" lon="0.648642">
        <ele>2366.7</ele>
        <time>1970-01-01T00:38:02.000Z</time>
      </trkpt>
      <trkpt lat="42.664049" lon="0.648637">
        <ele>2366.7</ele>
        <time>1970-01-01T00:38:03.000Z</time>
      </trkpt>
      <trkpt lat="42.66405" lon="0.648631">
        <ele>2366.7</ele>
        <time>1970-01-01T00:38:04.000Z</time>
      </trkpt>
      <trkpt lat="42.664052" lon="0.648623">
        <ele>2366.7</ele>
        <time>1970-01-01T00:38:05.000Z</time>
      </trkpt>
      <trkpt lat="42.664053" lon="0.648618">
        <ele>2365.7</ele>
        <time>1970-01-01T00:38:06.000Z</time>
      </trkpt>
      <trkpt lat="42.664053" lon="0.648613">
        <ele>2365.7</ele>
        <time>1970-01-01T00:38:07.000Z</time>
      </trkpt>
      <trkpt lat="42.664054" lon="0.648606">
        <ele>2365.7</ele>
        <time>1970-01-01T00:38:08.000Z</time>
      </trkpt>
      <trkpt lat="42.664054" lon="0.648597">
        <ele>2365.7</ele>
        <time>1970-01-01T00:38:09.000Z</time>
      </trkpt>
      <trkpt lat="42.664053" lon="0.64859">
        <ele>2365.7</ele>
        <time>1970-01-01T00:38:10.000Z</time>
      </trkpt>
      <trkpt lat="42.664052" lon="0.648584">
        <ele>2365.7</ele>
        <time>1970-01-01T00:38:11.000Z</time>
      </trkpt>
      <trkpt lat="42.66405" lon="0.64858">
        <ele>2365.7</ele>
        <time>1970-01-01T00:38:12.000Z</time>
      </trkpt>
      <trkpt lat="42.664048" lon="0.648577">
        <ele>2364.6</ele>
        <time>1970-01-01T00:38:13.000Z</time>
      </trkpt>
      <trkpt lat="42.664047" lon="0.648574">
        <ele>2364.6</ele>
        <time>1970-01-01T00:38:14.000Z</time>
      </trkpt>
      <trkpt lat="42.664045" lon="0.648571">
        <ele>2364.6</ele>
        <time>1970-01-01T00:38:15.000Z</time>
      </trkpt>
      <trkpt lat="42.664043" lon="0.648567">
        <ele>2364.6</ele>
        <time>1970-01-01T00:38:16.000Z</time>
      </trkpt>
      <trkpt lat="42.664041" lon="0.648565">
        <ele>2364.6</ele>
        <time>1970-01-01T00:38:17.000Z</time>
      </trkpt>
      <trkpt lat="42.664039" lon="0.648563">
        <ele>2366.7</ele>
        <time>1970-01-01T00:38:18.000Z</time>
      </trkpt>
      <trkpt lat="42.664035" lon="0.648557">
        <ele>2366.7</ele>
        <time>1970-01-01T00:38:20.000Z</time>
      </trkpt>
      <trkpt lat="42.664032" lon="0.648553">
        <ele>2366.7</ele>
        <time>1970-01-01T00:38:21.000Z</time>
      </trkpt>
      <trkpt lat="42.66403" lon="0.648549">
        <ele>2366.7</ele>
        <time>1970-01-01T00:38:22.000Z</time>
      </trkpt>
      <trkpt lat="42.664027" lon="0.648546">
        <ele>2366.7</ele>
        <time>1970-01-01T00:38:23.000Z</time>
      </trkpt>
      <trkpt lat="42.664022" lon="0.648539">
        <ele>2366.7</ele>
        <time>1970-01-01T00:38:25.000Z</time>
      </trkpt>
      <trkpt lat="42.664019" lon="0.648534">
        <ele>2365.7</ele>
        <time>1970-01-01T00:38:26.000Z</time>
      </trkpt>
      <trkpt lat="42.664016" lon="0.648529">
        <ele>2365.7</ele>
        <time>1970-01-01T00:38:27.000Z</time>
      </trkpt>
      <trkpt lat="42.664012" lon="0.648523">
        <ele>2365.7</ele>
        <time>1970-01-01T00:38:28.000Z</time>
      </trkpt>
      <trkpt lat="42.664009" lon="0.648518">
        <ele>2365.7</ele>
        <time>1970-01-01T00:38:29.000Z</time>
      </trkpt>
      <trkpt lat="42.664006" lon="0.648514">
        <ele>2367.8</ele>
        <time>1970-01-01T00:38:30.000Z</time>
      </trkpt>
      <trkpt lat="42.664002" lon="0.648511">
        <ele>2367.8</ele>
        <time>1970-01-01T00:38:31.000Z</time>
      </trkpt>
      <trkpt lat="42.663998" lon="0.648507">
        <ele>2367.8</ele>
        <time>1970-01-01T00:38:32.000Z</time>
      </trkpt>
      <trkpt lat="42.663994" lon="0.648502">
        <ele>2367.8</ele>
        <time>1970-01-01T00:38:33.000Z</time>
      </trkpt>
      <trkpt lat="42.66399" lon="0.648495">
        <ele>2367.8</ele>
        <time>1970-01-01T00:38:34.000Z</time>
      </trkpt>
      <trkpt lat="42.663987" lon="0.648485">
        <ele>2366.8</ele>
        <time>1970-01-01T00:38:36.000Z</time>
      </trkpt>
      <trkpt lat="42.663985" lon="0.648478">
        <ele>2366.8</ele>
        <time>1970-01-01T00:38:37.000Z</time>
      </trkpt>
      <trkpt lat="42.663978" lon="0.648461">
        <ele>2366.8</ele>
        <time>1970-01-01T00:38:39.000Z</time>
      </trkpt>
      <trkpt lat="42.663972" lon="0.648456">
        <ele>2369</ele>
        <time>1970-01-01T00:38:40.000Z</time>
      </trkpt>
      <trkpt lat="42.663967" lon="0.648451">
        <ele>2369</ele>
        <time>1970-01-01T00:38:41.000Z</time>
      </trkpt>
      <trkpt lat="42.663964" lon="0.648447">
        <ele>2368</ele>
        <time>1970-01-01T00:38:42.000Z</time>
      </trkpt>
      <trkpt lat="42.663962" lon="0.648442">
        <ele>2368</ele>
        <time>1970-01-01T00:38:43.000Z</time>
      </trkpt>
      <trkpt lat="42.663962" lon="0.648438">
        <ele>2368</ele>
        <time>1970-01-01T00:38:44.000Z</time>
      </trkpt>
      <trkpt lat="42.663961" lon="0.648438">
        <ele>2368</ele>
        <time>1970-01-01T00:38:45.000Z</time>
      </trkpt>
      <trkpt lat="42.663961" lon="0.648436">
        <ele>2368</ele>
        <time>1970-01-01T00:38:46.000Z</time>
      </trkpt>
      <trkpt lat="42.663961" lon="0.648431">
        <ele>2368</ele>
        <time>1970-01-01T00:38:48.000Z</time>
      </trkpt>
      <trkpt lat="42.663958" lon="0.648428">
        <ele>2368</ele>
        <time>1970-01-01T00:38:49.000Z</time>
      </trkpt>
      <trkpt lat="42.663957" lon="0.648424">
        <ele>2368</ele>
        <time>1970-01-01T00:38:50.000Z</time>
      </trkpt>
      <trkpt lat="42.663954" lon="0.648419">
        <ele>2368</ele>
        <time>1970-01-01T00:38:51.000Z</time>
      </trkpt>
      <trkpt lat="42.66395" lon="0.648413">
        <ele>2368</ele>
        <time>1970-01-01T00:38:52.000Z</time>
      </trkpt>
      <trkpt lat="42.663947" lon="0.648406">
        <ele>2367</ele>
        <time>1970-01-01T00:38:53.000Z</time>
      </trkpt>
      <trkpt lat="42.66394" lon="0.648397">
        <ele>2369.4</ele>
        <time>1970-01-01T00:38:54.000Z</time>
      </trkpt>
      <trkpt lat="42.663926" lon="0.648384">
        <ele>2369.4</ele>
        <time>1970-01-01T00:38:56.000Z</time>
      </trkpt>
      <trkpt lat="42.663912" lon="0.648377">
        <ele>2372</ele>
        <time>1970-01-01T00:38:57.000Z</time>
      </trkpt>
      <trkpt lat="42.663897" lon="0.648378">
        <ele>2372</ele>
        <time>1970-01-01T00:38:58.000Z</time>
      </trkpt>
      <trkpt lat="42.663882" lon="0.648388">
        <ele>2374.6</ele>
        <time>1970-01-01T00:38:59.000Z</time>
      </trkpt>
      <trkpt lat="42.663866" lon="0.648424">
        <ele>2375.5</ele>
        <time>1970-01-01T00:39:00.000Z</time>
      </trkpt>
      <trkpt lat="42.663863" lon="0.648434">
        <ele>2375.5</ele>
        <time>1970-01-01T00:39:01.000Z</time>
      </trkpt>
      <trkpt lat="42.663861" lon="0.648451">
        <ele>2376.5</ele>
        <time>1970-01-01T00:39:02.000Z</time>
      </trkpt>
      <trkpt lat="42.663861" lon="0.648464">
        <ele>2376.5</ele>
        <time>1970-01-01T00:39:03.000Z</time>
      </trkpt>
      <trkpt lat="42.663864" lon="0.648472">
        <ele>2376.5</ele>
        <time>1970-01-01T00:39:04.000Z</time>
      </trkpt>
      <trkpt lat="42.663869" lon="0.648477">
        <ele>2376.5</ele>
        <time>1970-01-01T00:39:05.000Z</time>
      </trkpt>
      <trkpt lat="42.663873" lon="0.648479">
        <ele>2376.5</ele>
        <time>1970-01-01T00:39:06.000Z</time>
      </trkpt>
      <trkpt lat="42.663877" lon="0.648481">
        <ele>2376.5</ele>
        <time>1970-01-01T00:39:07.000Z</time>
      </trkpt>
      <trkpt lat="42.663881" lon="0.648483">
        <ele>2376.5</ele>
        <time>1970-01-01T00:39:08.000Z</time>
      </trkpt>
      <trkpt lat="42.663884" lon="0.648486">
        <ele>2373.9</ele>
        <time>1970-01-01T00:39:09.000Z</time>
      </trkpt>
      <trkpt lat="42.663889" lon="0.648505">
        <ele>2375</ele>
        <time>1970-01-01T00:39:11.000Z</time>
      </trkpt>
      <trkpt lat="42.663889" lon="0.648512">
        <ele>2375</ele>
        <time>1970-01-01T00:39:12.000Z</time>
      </trkpt>
      <trkpt lat="42.663886" lon="0.648519">
        <ele>2375</ele>
        <time>1970-01-01T00:39:13.000Z</time>
      </trkpt>
      <trkpt lat="42.663882" lon="0.648518">
        <ele>2377.6</ele>
        <time>1970-01-01T00:39:14.000Z</time>
      </trkpt>
      <trkpt lat="42.663877" lon="0.648519">
        <ele>2377.6</ele>
        <time>1970-01-01T00:39:15.000Z</time>
      </trkpt>
      <trkpt lat="42.663866" lon="0.648524">
        <ele>2377.6</ele>
        <time>1970-01-01T00:39:16.000Z</time>
      </trkpt>
      <trkpt lat="42.66385" lon="0.648524">
        <ele>2380.1</ele>
        <time>1970-01-01T00:39:18.000Z</time>
      </trkpt>
      <trkpt lat="42.663838" lon="0.648522">
        <ele>2380.1</ele>
        <time>1970-01-01T00:39:19.000Z</time>
      </trkpt>
      <trkpt lat="42.663823" lon="0.648524">
        <ele>2380.1</ele>
        <time>1970-01-01T00:39:20.000Z</time>
      </trkpt>
      <trkpt lat="42.663821" lon="0.648533">
        <ele>2380.1</ele>
        <time>1970-01-01T00:39:21.000Z</time>
      </trkpt>
      <trkpt lat="42.663826" lon="0.648543">
        <ele>2381.2</ele>
        <time>1970-01-01T00:39:22.000Z</time>
      </trkpt>
      <trkpt lat="42.663835" lon="0.64855">
        <ele>2381.2</ele>
        <time>1970-01-01T00:39:23.000Z</time>
      </trkpt>
      <trkpt lat="42.663843" lon="0.648558">
        <ele>2381.2</ele>
        <time>1970-01-01T00:39:24.000Z</time>
      </trkpt>
      <trkpt lat="42.66386" lon="0.64857">
        <ele>2378.6</ele>
        <time>1970-01-01T00:39:25.000Z</time>
      </trkpt>
      <trkpt lat="42.663864" lon="0.648575">
        <ele>2378.6</ele>
        <time>1970-01-01T00:39:26.000Z</time>
      </trkpt>
      <trkpt lat="42.663863" lon="0.648572">
        <ele>2378.6</ele>
        <time>1970-01-01T00:39:27.000Z</time>
      </trkpt>
      <trkpt lat="42.663863" lon="0.64857">
        <ele>2378.6</ele>
        <time>1970-01-01T00:39:28.000Z</time>
      </trkpt>
      <trkpt lat="42.663862" lon="0.648566">
        <ele>2378.6</ele>
        <time>1970-01-01T00:39:29.000Z</time>
      </trkpt>
      <trkpt lat="42.663861" lon="0.648562">
        <ele>2378.6</ele>
        <time>1970-01-01T00:39:30.000Z</time>
      </trkpt>
      <trkpt lat="42.663859" lon="0.648555">
        <ele>2378.6</ele>
        <time>1970-01-01T00:39:31.000Z</time>
      </trkpt>
      <trkpt lat="42.663858" lon="0.648551">
        <ele>2378.6</ele>
        <time>1970-01-01T00:39:32.000Z</time>
      </trkpt>
      <trkpt lat="42.663857" lon="0.648548">
        <ele>2378.6</ele>
        <time>1970-01-01T00:39:33.000Z</time>
      </trkpt>
      <trkpt lat="42.663857" lon="0.648545">
        <ele>2378.6</ele>
        <time>1970-01-01T00:39:34.000Z</time>
      </trkpt>
      <trkpt lat="42.663858" lon="0.648544">
        <ele>2378.6</ele>
        <time>1970-01-01T00:39:35.000Z</time>
      </trkpt>
      <trkpt lat="42.663858" lon="0.648542">
        <ele>2378.6</ele>
        <time>1970-01-01T00:39:36.000Z</time>
      </trkpt>
      <trkpt lat="42.663857" lon="0.648541">
        <ele>2378.6</ele>
        <time>1970-01-01T00:39:37.000Z</time>
      </trkpt>
      <trkpt lat="42.663856" lon="0.648539">
        <ele>2378.6</ele>
        <time>1970-01-01T00:39:38.000Z</time>
      </trkpt>
      <trkpt lat="42.663855" lon="0.648538">
        <ele>2378.6</ele>
        <time>1970-01-01T00:39:39.000Z</time>
      </trkpt>
      <trkpt lat="42.663852" lon="0.648535">
        <ele>2377.6</ele>
        <time>1970-01-01T00:39:40.000Z</time>
      </trkpt>
      <trkpt lat="42.663852" lon="0.648535">
        <ele>2377.6</ele>
        <time>1970-01-01T00:39:41.000Z</time>
      </trkpt>
      <trkpt lat="42.663851" lon="0.648532">
        <ele>2377.6</ele>
        <time>1970-01-01T00:39:42.000Z</time>
      </trkpt>
      <trkpt lat="42.663849" lon="0.648524">
        <ele>2380.1</ele>
        <time>1970-01-01T00:39:43.000Z</time>
      </trkpt>
      <trkpt lat="42.663847" lon="0.648518">
        <ele>2380.1</ele>
        <time>1970-01-01T00:39:45.000Z</time>
      </trkpt>
      <trkpt lat="42.663845" lon="0.648511">
        <ele>2380.1</ele>
        <time>1970-01-01T00:39:46.000Z</time>
      </trkpt>
      <trkpt lat="42.663842" lon="0.648504">
        <ele>2380.1</ele>
        <time>1970-01-01T00:39:47.000Z</time>
      </trkpt>
      <trkpt lat="42.663841" lon="0.648499">
        <ele>2380.1</ele>
        <time>1970-01-01T00:39:48.000Z</time>
      </trkpt>
      <trkpt lat="42.663838" lon="0.648489">
        <ele>2379.1</ele>
        <time>1970-01-01T00:39:49.000Z</time>
      </trkpt>
      <trkpt lat="42.663832" lon="0.64848">
        <ele>2379.1</ele>
        <time>1970-01-01T00:39:50.000Z</time>
      </trkpt>
      <trkpt lat="42.663824" lon="0.648472">
        <ele>2379.1</ele>
        <time>1970-01-01T00:39:51.000Z</time>
      </trkpt>
      <trkpt lat="42.663813" lon="0.648463">
        <ele>2381.5</ele>
        <time>1970-01-01T00:39:52.000Z</time>
      </trkpt>
      <trkpt lat="42.663812" lon="0.648454">
        <ele>2381.5</ele>
        <time>1970-01-01T00:39:53.000Z</time>
      </trkpt>
      <trkpt lat="42.663818" lon="0.648432">
        <ele>2380.5</ele>
        <time>1970-01-01T00:39:54.000Z</time>
      </trkpt>
      <trkpt lat="42.663824" lon="0.64842">
        <ele>2378.1</ele>
        <time>1970-01-01T00:39:56.000Z</time>
      </trkpt>
      <trkpt lat="42.66383" lon="0.648407">
        <ele>2377.1</ele>
        <time>1970-01-01T00:39:57.000Z</time>
      </trkpt>
      <trkpt lat="42.663835" lon="0.648396">
        <ele>2377.1</ele>
        <time>1970-01-01T00:39:58.000Z</time>
      </trkpt>
      <trkpt lat="42.663838" lon="0.64839">
        <ele>2377.1</ele>
        <time>1970-01-01T00:39:59.000Z</time>
      </trkpt>
      <trkpt lat="42.663842" lon="0.648382">
        <ele>2377.1</ele>
        <time>1970-01-01T00:40:00.000Z</time>
      </trkpt>
      <trkpt lat="42.663843" lon="0.648379">
        <ele>2377.1</ele>
        <time>1970-01-01T00:40:01.000Z</time>
      </trkpt>
      <trkpt lat="42.66384" lon="0.648392">
        <ele>2377.1</ele>
        <time>1970-01-01T00:40:03.000Z</time>
      </trkpt>
      <trkpt lat="42.663832" lon="0.648403">
        <ele>2377.1</ele>
        <time>1970-01-01T00:40:04.000Z</time>
      </trkpt>
      <trkpt lat="42.663828" lon="0.648408">
        <ele>2378.1</ele>
        <time>1970-01-01T00:40:05.000Z</time>
      </trkpt>
      <trkpt lat="42.663818" lon="0.648425">
        <ele>2380.5</ele>
        <time>1970-01-01T00:40:07.000Z</time>
      </trkpt>
      <trkpt lat="42.66381" lon="0.648434">
        <ele>2380.5</ele>
        <time>1970-01-01T00:40:08.000Z</time>
      </trkpt>
      <trkpt lat="42.663806" lon="0.648443">
        <ele>2380.5</ele>
        <time>1970-01-01T00:40:09.000Z</time>
      </trkpt>
      <trkpt lat="42.663803" lon="0.648448">
        <ele>2380.5</ele>
        <time>1970-01-01T00:40:10.000Z</time>
      </trkpt>
      <trkpt lat="42.6638" lon="0.648448">
        <ele>2380.5</ele>
        <time>1970-01-01T00:40:11.000Z</time>
      </trkpt>
      <trkpt lat="42.663796" lon="0.648449">
        <ele>2380.5</ele>
        <time>1970-01-01T00:40:12.000Z</time>
      </trkpt>
      <trkpt lat="42.663795" lon="0.648449">
        <ele>2380.5</ele>
        <time>1970-01-01T00:40:13.000Z</time>
      </trkpt>
      <trkpt lat="42.663795" lon="0.64845">
        <ele>2380.5</ele>
        <time>1970-01-01T00:40:14.000Z</time>
      </trkpt>
      <trkpt lat="42.663792" lon="0.648461">
        <ele>2381.5</ele>
        <time>1970-01-01T00:40:15.000Z</time>
      </trkpt>
      <trkpt lat="42.66379" lon="0.648469">
        <ele>2381.5</ele>
        <time>1970-01-01T00:40:16.000Z</time>
      </trkpt>
      <trkpt lat="42.663787" lon="0.648474">
        <ele>2383.7</ele>
        <time>1970-01-01T00:40:17.000Z</time>
      </trkpt>
      <trkpt lat="42.663785" lon="0.648476">
        <ele>2383.7</ele>
        <time>1970-01-01T00:40:18.000Z</time>
      </trkpt>
      <trkpt lat="42.663781" lon="0.648475">
        <ele>2383.7</ele>
        <time>1970-01-01T00:40:19.000Z</time>
      </trkpt>
      <trkpt lat="42.663776" lon="0.648473">
        <ele>2383.7</ele>
        <time>1970-01-01T00:40:20.000Z</time>
      </trkpt>
      <trkpt lat="42.663774" lon="0.648472">
        <ele>2383.7</ele>
        <time>1970-01-01T00:40:21.000Z</time>
      </trkpt>
      <trkpt lat="42.663771" lon="0.648469">
        <ele>2383.7</ele>
        <time>1970-01-01T00:40:22.000Z</time>
      </trkpt>
      <trkpt lat="42.663767" lon="0.648467">
        <ele>2383.7</ele>
        <time>1970-01-01T00:40:23.000Z</time>
      </trkpt>
      <trkpt lat="42.663764" lon="0.648466">
        <ele>2383.7</ele>
        <time>1970-01-01T00:40:24.000Z</time>
      </trkpt>
      <trkpt lat="42.663759" lon="0.648462">
        <ele>2383.7</ele>
        <time>1970-01-01T00:40:25.000Z</time>
      </trkpt>
      <trkpt lat="42.663756" lon="0.648461">
        <ele>2385.9</ele>
        <time>1970-01-01T00:40:26.000Z</time>
      </trkpt>
      <trkpt lat="42.663751" lon="0.648459">
        <ele>2385.9</ele>
        <time>1970-01-01T00:40:27.000Z</time>
      </trkpt>
      <trkpt lat="42.663748" lon="0.648458">
        <ele>2385.9</ele>
        <time>1970-01-01T00:40:28.000Z</time>
      </trkpt>
      <trkpt lat="42.663743" lon="0.648453">
        <ele>2385.9</ele>
        <time>1970-01-01T00:40:29.000Z</time>
      </trkpt>
      <trkpt lat="42.663738" lon="0.648451">
        <ele>2385.9</ele>
        <time>1970-01-01T00:40:31.000Z</time>
      </trkpt>
      <trkpt lat="42.663732" lon="0.64845">
        <ele>2384.9</ele>
        <time>1970-01-01T00:40:32.000Z</time>
      </trkpt>
      <trkpt lat="42.663729" lon="0.648449">
        <ele>2384.9</ele>
        <time>1970-01-01T00:40:33.000Z</time>
      </trkpt>
      <trkpt lat="42.663726" lon="0.648446">
        <ele>2384.9</ele>
        <time>1970-01-01T00:40:34.000Z</time>
      </trkpt>
      <trkpt lat="42.663723" lon="0.648444">
        <ele>2387.2</ele>
        <time>1970-01-01T00:40:35.000Z</time>
      </trkpt>
      <trkpt lat="42.663719" lon="0.648442">
        <ele>2387.2</ele>
        <time>1970-01-01T00:40:36.000Z</time>
      </trkpt>
      <trkpt lat="42.663713" lon="0.64844">
        <ele>2387.2</ele>
        <time>1970-01-01T00:40:37.000Z</time>
      </trkpt>
      <trkpt lat="42.663708" lon="0.648439">
        <ele>2387.2</ele>
        <time>1970-01-01T00:40:38.000Z</time>
      </trkpt>
      <trkpt lat="42.663687" lon="0.648452">
        <ele>2390.6</ele>
        <time>1970-01-01T00:40:39.000Z</time>
      </trkpt>
      <trkpt lat="42.663681" lon="0.648459">
        <ele>2390.6</ele>
        <time>1970-01-01T00:40:40.000Z</time>
      </trkpt>
      <trkpt lat="42.663675" lon="0.648467">
        <ele>2390.6</ele>
        <time>1970-01-01T00:40:41.000Z</time>
      </trkpt>
      <trkpt lat="42.663667" lon="0.648487">
        <ele>2390.6</ele>
        <time>1970-01-01T00:40:43.000Z</time>
      </trkpt>
      <trkpt lat="42.663665" lon="0.648497">
        <ele>2391.6</ele>
        <time>1970-01-01T00:40:44.000Z</time>
      </trkpt>
      <trkpt lat="42.66366" lon="0.648506">
        <ele>2394.2</ele>
        <time>1970-01-01T00:40:45.000Z</time>
      </trkpt>
      <trkpt lat="42.663654" lon="0.648531">
        <ele>2394.2</ele>
        <time>1970-01-01T00:40:46.000Z</time>
      </trkpt>
      <trkpt lat="42.663652" lon="0.648543">
        <ele>2395.2</ele>
        <time>1970-01-01T00:40:47.000Z</time>
      </trkpt>
      <trkpt lat="42.66365" lon="0.648556">
        <ele>2395.2</ele>
        <time>1970-01-01T00:40:48.000Z</time>
      </trkpt>
      <trkpt lat="42.663653" lon="0.648576">
        <ele>2395.2</ele>
        <time>1970-01-01T00:40:49.000Z</time>
      </trkpt>
      <trkpt lat="42.663655" lon="0.648581">
        <ele>2396.2</ele>
        <time>1970-01-01T00:40:50.000Z</time>
      </trkpt>
      <trkpt lat="42.663658" lon="0.648577">
        <ele>2395.2</ele>
        <time>1970-01-01T00:40:52.000Z</time>
      </trkpt>
      <trkpt lat="42.663659" lon="0.648565">
        <ele>2395.2</ele>
        <time>1970-01-01T00:40:53.000Z</time>
      </trkpt>
      <trkpt lat="42.663658" lon="0.648563">
        <ele>2395.2</ele>
        <time>1970-01-01T00:40:54.000Z</time>
      </trkpt>
      <trkpt lat="42.663658" lon="0.64856">
        <ele>2395.2</ele>
        <time>1970-01-01T00:40:55.000Z</time>
      </trkpt>
      <trkpt lat="42.663658" lon="0.648557">
        <ele>2395.2</ele>
        <time>1970-01-01T00:40:56.000Z</time>
      </trkpt>
      <trkpt lat="42.663658" lon="0.648555">
        <ele>2395.2</ele>
        <time>1970-01-01T00:40:57.000Z</time>
      </trkpt>
      <trkpt lat="42.663658" lon="0.648552">
        <ele>2395.2</ele>
        <time>1970-01-01T00:40:58.000Z</time>
      </trkpt>
      <trkpt lat="42.663658" lon="0.648548">
        <ele>2395.2</ele>
        <time>1970-01-01T00:40:59.000Z</time>
      </trkpt>
      <trkpt lat="42.663657" lon="0.648547">
        <ele>2395.2</ele>
        <time>1970-01-01T00:41:00.000Z</time>
      </trkpt>
      <trkpt lat="42.663655" lon="0.648546">
        <ele>2395.2</ele>
        <time>1970-01-01T00:41:01.000Z</time>
      </trkpt>
      <trkpt lat="42.663652" lon="0.648544">
        <ele>2395.2</ele>
        <time>1970-01-01T00:41:02.000Z</time>
      </trkpt>
      <trkpt lat="42.663648" lon="0.648541">
        <ele>2395.2</ele>
        <time>1970-01-01T00:41:03.000Z</time>
      </trkpt>
      <trkpt lat="42.663645" lon="0.648539">
        <ele>2395.2</ele>
        <time>1970-01-01T00:41:04.000Z</time>
      </trkpt>
      <trkpt lat="42.663641" lon="0.648538">
        <ele>2395.2</ele>
        <time>1970-01-01T00:41:05.000Z</time>
      </trkpt>
      <trkpt lat="42.663638" lon="0.648535">
        <ele>2394.2</ele>
        <time>1970-01-01T00:41:06.000Z</time>
      </trkpt>
      <trkpt lat="42.663634" lon="0.648533">
        <ele>2394.2</ele>
        <time>1970-01-01T00:41:07.000Z</time>
      </trkpt>
      <trkpt lat="42.663632" lon="0.648531">
        <ele>2394.2</ele>
        <time>1970-01-01T00:41:08.000Z</time>
      </trkpt>
      <trkpt lat="42.663628" lon="0.648529">
        <ele>2396.8</ele>
        <time>1970-01-01T00:41:09.000Z</time>
      </trkpt>
      <trkpt lat="42.663626" lon="0.648528">
        <ele>2396.8</ele>
        <time>1970-01-01T00:41:10.000Z</time>
      </trkpt>
      <trkpt lat="42.663618" lon="0.648532">
        <ele>2396.8</ele>
        <time>1970-01-01T00:41:12.000Z</time>
      </trkpt>
      <trkpt lat="42.663611" lon="0.648537">
        <ele>2397.9</ele>
        <time>1970-01-01T00:41:13.000Z</time>
      </trkpt>
      <trkpt lat="42.663603" lon="0.648544">
        <ele>2397.9</ele>
        <time>1970-01-01T00:41:14.000Z</time>
      </trkpt>
      <trkpt lat="42.663596" lon="0.648554">
        <ele>2400.4</ele>
        <time>1970-01-01T00:41:15.000Z</time>
      </trkpt>
      <trkpt lat="42.66359" lon="0.648576">
        <ele>2400.4</ele>
        <time>1970-01-01T00:41:17.000Z</time>
      </trkpt>
      <trkpt lat="42.663587" lon="0.648587">
        <ele>2401.4</ele>
        <time>1970-01-01T00:41:18.000Z</time>
      </trkpt>
      <trkpt lat="42.663582" lon="0.648596">
        <ele>2401.4</ele>
        <time>1970-01-01T00:41:19.000Z</time>
      </trkpt>
      <trkpt lat="42.663578" lon="0.648597">
        <ele>2401.4</ele>
        <time>1970-01-01T00:41:21.000Z</time>
      </trkpt>
      <trkpt lat="42.66358" lon="0.648591">
        <ele>2401.4</ele>
        <time>1970-01-01T00:41:22.000Z</time>
      </trkpt>
      <trkpt lat="42.663584" lon="0.648582">
        <ele>2401.4</ele>
        <time>1970-01-01T00:41:23.000Z</time>
      </trkpt>
      <trkpt lat="42.663586" lon="0.648577">
        <ele>2400.4</ele>
        <time>1970-01-01T00:41:24.000Z</time>
      </trkpt>
      <trkpt lat="42.663589" lon="0.648574">
        <ele>2400.4</ele>
        <time>1970-01-01T00:41:25.000Z</time>
      </trkpt>
      <trkpt lat="42.66359" lon="0.64857">
        <ele>2400.4</ele>
        <time>1970-01-01T00:41:26.000Z</time>
      </trkpt>
      <trkpt lat="42.663592" lon="0.648566">
        <ele>2400.4</ele>
        <time>1970-01-01T00:41:27.000Z</time>
      </trkpt>
      <trkpt lat="42.663594" lon="0.648564">
        <ele>2400.4</ele>
        <time>1970-01-01T00:41:28.000Z</time>
      </trkpt>
      <trkpt lat="42.663594" lon="0.648562">
        <ele>2400.4</ele>
        <time>1970-01-01T00:41:29.000Z</time>
      </trkpt>
      <trkpt lat="42.663595" lon="0.64856">
        <ele>2400.4</ele>
        <time>1970-01-01T00:41:30.000Z</time>
      </trkpt>
      <trkpt lat="42.663596" lon="0.648559">
        <ele>2400.4</ele>
        <time>1970-01-01T00:41:31.000Z</time>
      </trkpt>
      <trkpt lat="42.663597" lon="0.648557">
        <ele>2400.4</ele>
        <time>1970-01-01T00:41:32.000Z</time>
      </trkpt>
      <trkpt lat="42.663598" lon="0.648555">
        <ele>2400.4</ele>
        <time>1970-01-01T00:41:33.000Z</time>
      </trkpt>
      <trkpt lat="42.663599" lon="0.648553">
        <ele>2397.9</ele>
        <time>1970-01-01T00:41:34.000Z</time>
      </trkpt>
      <trkpt lat="42.6636" lon="0.648553">
        <ele>2397.9</ele>
        <time>1970-01-01T00:41:35.000Z</time>
      </trkpt>
      <trkpt lat="42.663601" lon="0.648552">
        <ele>2397.9</ele>
        <time>1970-01-01T00:41:36.000Z</time>
      </trkpt>
      <trkpt lat="42.663601" lon="0.64855">
        <ele>2397.9</ele>
        <time>1970-01-01T00:41:37.000Z</time>
      </trkpt>
      <trkpt lat="42.663602" lon="0.648548">
        <ele>2397.9</ele>
        <time>1970-01-01T00:41:38.000Z</time>
      </trkpt>
      <trkpt lat="42.663601" lon="0.648546">
        <ele>2397.9</ele>
        <time>1970-01-01T00:41:39.000Z</time>
      </trkpt>
      <trkpt lat="42.663599" lon="0.648543">
        <ele>2397.9</ele>
        <time>1970-01-01T00:41:40.000Z</time>
      </trkpt>
      <trkpt lat="42.663598" lon="0.648543">
        <ele>2400.4</ele>
        <time>1970-01-01T00:41:41.000Z</time>
      </trkpt>
      <trkpt lat="42.663597" lon="0.648543">
        <ele>2400.4</ele>
        <time>1970-01-01T00:41:42.000Z</time>
      </trkpt>
      <trkpt lat="42.663595" lon="0.648543">
        <ele>2400.4</ele>
        <time>1970-01-01T00:41:43.000Z</time>
      </trkpt>
      <trkpt lat="42.663593" lon="0.648544">
        <ele>2400.4</ele>
        <time>1970-01-01T00:41:44.000Z</time>
      </trkpt>
      <trkpt lat="42.663587" lon="0.648544">
        <ele>2400.4</ele>
        <time>1970-01-01T00:41:45.000Z</time>
      </trkpt>
      <trkpt lat="42.663583" lon="0.648543">
        <ele>2400.4</ele>
        <time>1970-01-01T00:41:46.000Z</time>
      </trkpt>
      <trkpt lat="42.663577" lon="0.648541">
        <ele>2400.4</ele>
        <time>1970-01-01T00:41:47.000Z</time>
      </trkpt>
      <trkpt lat="42.663573" lon="0.64854">
        <ele>2400.4</ele>
        <time>1970-01-01T00:41:48.000Z</time>
      </trkpt>
      <trkpt lat="42.663561" lon="0.648544">
        <ele>2402.8</ele>
        <time>1970-01-01T00:41:49.000Z</time>
      </trkpt>
      <trkpt lat="42.66355" lon="0.64855">
        <ele>2402.8</ele>
        <time>1970-01-01T00:41:50.000Z</time>
      </trkpt>
      <trkpt lat="42.663542" lon="0.648554">
        <ele>2402.8</ele>
        <time>1970-01-01T00:41:51.000Z</time>
      </trkpt>
      <trkpt lat="42.663527" lon="0.648557">
        <ele>2404.9</ele>
        <time>1970-01-01T00:41:52.000Z</time>
      </trkpt>
      <trkpt lat="42.663517" lon="0.648555">
        <ele>2404.9</ele>
        <time>1970-01-01T00:41:53.000Z</time>
      </trkpt>
      <trkpt lat="42.663512" lon="0.648544">
        <ele>2404.9</ele>
        <time>1970-01-01T00:41:54.000Z</time>
      </trkpt>
      <trkpt lat="42.663511" lon="0.648541">
        <ele>2404.9</ele>
        <time>1970-01-01T00:41:55.000Z</time>
      </trkpt>
      <trkpt lat="42.663511" lon="0.648536">
        <ele>2403.9</ele>
        <time>1970-01-01T00:41:56.000Z</time>
      </trkpt>
      <trkpt lat="42.663511" lon="0.64853">
        <ele>2403.9</ele>
        <time>1970-01-01T00:41:57.000Z</time>
      </trkpt>
      <trkpt lat="42.663512" lon="0.64852">
        <ele>2403.9</ele>
        <time>1970-01-01T00:41:58.000Z</time>
      </trkpt>
      <trkpt lat="42.663511" lon="0.648513">
        <ele>2403.9</ele>
        <time>1970-01-01T00:41:59.000Z</time>
      </trkpt>
      <trkpt lat="42.66351" lon="0.648504">
        <ele>2403.9</ele>
        <time>1970-01-01T00:42:00.000Z</time>
      </trkpt>
      <trkpt lat="42.663508" lon="0.648492">
        <ele>2403</ele>
        <time>1970-01-01T00:42:01.000Z</time>
      </trkpt>
      <trkpt lat="42.663506" lon="0.648483">
        <ele>2403</ele>
        <time>1970-01-01T00:42:02.000Z</time>
      </trkpt>
      <trkpt lat="42.663504" lon="0.648478">
        <ele>2403</ele>
        <time>1970-01-01T00:42:03.000Z</time>
      </trkpt>
      <trkpt lat="42.663504" lon="0.64847">
        <ele>2403</ele>
        <time>1970-01-01T00:42:04.000Z</time>
      </trkpt>
      <trkpt lat="42.663502" lon="0.648465">
        <ele>2405</ele>
        <time>1970-01-01T00:42:05.000Z</time>
      </trkpt>
      <trkpt lat="42.663499" lon="0.648458">
        <ele>2405</ele>
        <time>1970-01-01T00:42:06.000Z</time>
      </trkpt>
      <trkpt lat="42.663498" lon="0.648453">
        <ele>2405</ele>
        <time>1970-01-01T00:42:07.000Z</time>
      </trkpt>
      <trkpt lat="42.663493" lon="0.648443">
        <ele>2404</ele>
        <time>1970-01-01T00:42:09.000Z</time>
      </trkpt>
      <trkpt lat="42.663485" lon="0.648435">
        <ele>2404</ele>
        <time>1970-01-01T00:42:10.000Z</time>
      </trkpt>
      <trkpt lat="42.663474" lon="0.648431">
        <ele>2404</ele>
        <time>1970-01-01T00:42:11.000Z</time>
      </trkpt>
      <trkpt lat="42.663472" lon="0.648433">
        <ele>2406</ele>
        <time>1970-01-01T00:42:12.000Z</time>
      </trkpt>
      <trkpt lat="42.663469" lon="0.648434">
        <ele>2406</ele>
        <time>1970-01-01T00:42:13.000Z</time>
      </trkpt>
      <trkpt lat="42.663466" lon="0.648436">
        <ele>2406</ele>
        <time>1970-01-01T00:42:15.000Z</time>
      </trkpt>
      <trkpt lat="42.663463" lon="0.648438">
        <ele>2406</ele>
        <time>1970-01-01T00:42:16.000Z</time>
      </trkpt>
      <trkpt lat="42.663461" lon="0.648439">
        <ele>2406</ele>
        <time>1970-01-01T00:42:17.000Z</time>
      </trkpt>
      <trkpt lat="42.663458" lon="0.648441">
        <ele>2406</ele>
        <time>1970-01-01T00:42:18.000Z</time>
      </trkpt>
      <trkpt lat="42.663455" lon="0.648442">
        <ele>2406</ele>
        <time>1970-01-01T00:42:19.000Z</time>
      </trkpt>
      <trkpt lat="42.663453" lon="0.648444">
        <ele>2406</ele>
        <time>1970-01-01T00:42:20.000Z</time>
      </trkpt>
      <trkpt lat="42.66345" lon="0.648445">
        <ele>2406</ele>
        <time>1970-01-01T00:42:21.000Z</time>
      </trkpt>
      <trkpt lat="42.663447" lon="0.648447">
        <ele>2406</ele>
        <time>1970-01-01T00:42:22.000Z</time>
      </trkpt>
      <trkpt lat="42.663445" lon="0.648449">
        <ele>2406</ele>
        <time>1970-01-01T00:42:23.000Z</time>
      </trkpt>
      <trkpt lat="42.663442" lon="0.64845">
        <ele>2406</ele>
        <time>1970-01-01T00:42:24.000Z</time>
      </trkpt>
      <trkpt lat="42.663439" lon="0.648452">
        <ele>2409.1</ele>
        <time>1970-01-01T00:42:25.000Z</time>
      </trkpt>
      <trkpt lat="42.663437" lon="0.648453">
        <ele>2409.1</ele>
        <time>1970-01-01T00:42:27.000Z</time>
      </trkpt>
      <trkpt lat="42.663434" lon="0.648455">
        <ele>2409.1</ele>
        <time>1970-01-01T00:42:28.000Z</time>
      </trkpt>
      <trkpt lat="42.663431" lon="0.648456">
        <ele>2409.1</ele>
        <time>1970-01-01T00:42:29.000Z</time>
      </trkpt>
      <trkpt lat="42.663428" lon="0.648458">
        <ele>2409.1</ele>
        <time>1970-01-01T00:42:31.000Z</time>
      </trkpt>
      <trkpt lat="42.663426" lon="0.64846">
        <ele>2409.1</ele>
        <time>1970-01-01T00:42:32.000Z</time>
      </trkpt>
      <trkpt lat="42.663423" lon="0.648461">
        <ele>2409.1</ele>
        <time>1970-01-01T00:42:33.000Z</time>
      </trkpt>
      <trkpt lat="42.66342" lon="0.648463">
        <ele>2409.1</ele>
        <time>1970-01-01T00:42:34.000Z</time>
      </trkpt>
      <trkpt lat="42.663418" lon="0.648464">
        <ele>2409.1</ele>
        <time>1970-01-01T00:42:35.000Z</time>
      </trkpt>
      <trkpt lat="42.663415" lon="0.648466">
        <ele>2409.1</ele>
        <time>1970-01-01T00:42:36.000Z</time>
      </trkpt>
      <trkpt lat="42.663412" lon="0.648467">
        <ele>2409.1</ele>
        <time>1970-01-01T00:42:37.000Z</time>
      </trkpt>
      <trkpt lat="42.66341" lon="0.648469">
        <ele>2409.1</ele>
        <time>1970-01-01T00:42:38.000Z</time>
      </trkpt>
      <trkpt lat="42.663407" lon="0.648471">
        <ele>2411.2</ele>
        <time>1970-01-01T00:42:39.000Z</time>
      </trkpt>
      <trkpt lat="42.663389" lon="0.648463">
        <ele>2411.2</ele>
        <time>1970-01-01T00:42:40.000Z</time>
      </trkpt>
      <trkpt lat="42.663374" lon="0.648464">
        <ele>2413.4</ele>
        <time>1970-01-01T00:42:41.000Z</time>
      </trkpt>
      <trkpt lat="42.663363" lon="0.648476">
        <ele>2413.4</ele>
        <time>1970-01-01T00:42:43.000Z</time>
      </trkpt>
      <trkpt lat="42.66336" lon="0.648487">
        <ele>2413.4</ele>
        <time>1970-01-01T00:42:44.000Z</time>
      </trkpt>
      <trkpt lat="42.663359" lon="0.648496">
        <ele>2414.3</ele>
        <time>1970-01-01T00:42:45.000Z</time>
      </trkpt>
      <trkpt lat="42.663359" lon="0.6485">
        <ele>2414.3</ele>
        <time>1970-01-01T00:42:46.000Z</time>
      </trkpt>
      <trkpt lat="42.663361" lon="0.648508">
        <ele>2414.3</ele>
        <time>1970-01-01T00:42:47.000Z</time>
      </trkpt>
      <trkpt lat="42.663363" lon="0.648512">
        <ele>2414.3</ele>
        <time>1970-01-01T00:42:48.000Z</time>
      </trkpt>
      <trkpt lat="42.663362" lon="0.648526">
        <ele>2414.3</ele>
        <time>1970-01-01T00:42:49.000Z</time>
      </trkpt>
      <trkpt lat="42.663358" lon="0.648537">
        <ele>2415.3</ele>
        <time>1970-01-01T00:42:50.000Z</time>
      </trkpt>
      <trkpt lat="42.663349" lon="0.648546">
        <ele>2415.3</ele>
        <time>1970-01-01T00:42:52.000Z</time>
      </trkpt>
      <trkpt lat="42.663341" lon="0.648551">
        <ele>2417.4</ele>
        <time>1970-01-01T00:42:53.000Z</time>
      </trkpt>
      <trkpt lat="42.663332" lon="0.648559">
        <ele>2417.4</ele>
        <time>1970-01-01T00:42:54.000Z</time>
      </trkpt>
      <trkpt lat="42.663328" lon="0.648566">
        <ele>2417.4</ele>
        <time>1970-01-01T00:42:56.000Z</time>
      </trkpt>
      <trkpt lat="42.663328" lon="0.648568">
        <ele>2417.4</ele>
        <time>1970-01-01T00:42:57.000Z</time>
      </trkpt>
      <trkpt lat="42.663328" lon="0.648563">
        <ele>2417.4</ele>
        <time>1970-01-01T00:42:58.000Z</time>
      </trkpt>
      <trkpt lat="42.663329" lon="0.64856">
        <ele>2417.4</ele>
        <time>1970-01-01T00:42:59.000Z</time>
      </trkpt>
      <trkpt lat="42.66333" lon="0.648551">
        <ele>2417.4</ele>
        <time>1970-01-01T00:43:01.000Z</time>
      </trkpt>
      <trkpt lat="42.663328" lon="0.648543">
        <ele>2417.4</ele>
        <time>1970-01-01T00:43:03.000Z</time>
      </trkpt>
      <trkpt lat="42.663327" lon="0.648539">
        <ele>2417.4</ele>
        <time>1970-01-01T00:43:04.000Z</time>
      </trkpt>
      <trkpt lat="42.663326" lon="0.648535">
        <ele>2416.4</ele>
        <time>1970-01-01T00:43:05.000Z</time>
      </trkpt>
      <trkpt lat="42.663326" lon="0.648531">
        <ele>2416.4</ele>
        <time>1970-01-01T00:43:06.000Z</time>
      </trkpt>
      <trkpt lat="42.663326" lon="0.648531">
        <ele>2416.4</ele>
        <time>1970-01-01T00:43:07.000Z</time>
      </trkpt>
      <trkpt lat="42.663326" lon="0.648528">
        <ele>2416.4</ele>
        <time>1970-01-01T00:43:08.000Z</time>
      </trkpt>
      <trkpt lat="42.663325" lon="0.648525">
        <ele>2416.4</ele>
        <time>1970-01-01T00:43:09.000Z</time>
      </trkpt>
      <trkpt lat="42.663323" lon="0.648523">
        <ele>2416.4</ele>
        <time>1970-01-01T00:43:10.000Z</time>
      </trkpt>
      <trkpt lat="42.663322" lon="0.648527">
        <ele>2416.4</ele>
        <time>1970-01-01T00:43:11.000Z</time>
      </trkpt>
      <trkpt lat="42.663318" lon="0.648529">
        <ele>2416.4</ele>
        <time>1970-01-01T00:43:13.000Z</time>
      </trkpt>
      <trkpt lat="42.663314" lon="0.648529">
        <ele>2418.3</ele>
        <time>1970-01-01T00:43:14.000Z</time>
      </trkpt>
      <trkpt lat="42.663312" lon="0.648524">
        <ele>2418.3</ele>
        <time>1970-01-01T00:43:15.000Z</time>
      </trkpt>
      <trkpt lat="42.663309" lon="0.648527">
        <ele>2418.3</ele>
        <time>1970-01-01T00:43:16.000Z</time>
      </trkpt>
      <trkpt lat="42.663308" lon="0.648529">
        <ele>2418.3</ele>
        <time>1970-01-01T00:43:17.000Z</time>
      </trkpt>
      <trkpt lat="42.663308" lon="0.648531">
        <ele>2418.3</ele>
        <time>1970-01-01T00:43:18.000Z</time>
      </trkpt>
      <trkpt lat="42.66331" lon="0.648532">
        <ele>2418.3</ele>
        <time>1970-01-01T00:43:19.000Z</time>
      </trkpt>
      <trkpt lat="42.663309" lon="0.648531">
        <ele>2418.3</ele>
        <time>1970-01-01T00:43:20.000Z</time>
      </trkpt>
      <trkpt lat="42.66331" lon="0.648528">
        <ele>2418.3</ele>
        <time>1970-01-01T00:43:22.000Z</time>
      </trkpt>
      <trkpt lat="42.663313" lon="0.64852">
        <ele>2418.3</ele>
        <time>1970-01-01T00:43:23.000Z</time>
      </trkpt>
      <trkpt lat="42.663313" lon="0.648518">
        <ele>2418.3</ele>
        <time>1970-01-01T00:43:24.000Z</time>
      </trkpt>
      <trkpt lat="42.663314" lon="0.648514">
        <ele>2418.3</ele>
        <time>1970-01-01T00:43:25.000Z</time>
      </trkpt>
      <trkpt lat="42.663314" lon="0.648504">
        <ele>2418.3</ele>
        <time>1970-01-01T00:43:27.000Z</time>
      </trkpt>
      <trkpt lat="42.663313" lon="0.6485">
        <ele>2418.3</ele>
        <time>1970-01-01T00:43:28.000Z</time>
      </trkpt>
      <trkpt lat="42.663312" lon="0.648495">
        <ele>2418.3</ele>
        <time>1970-01-01T00:43:29.000Z</time>
      </trkpt>
      <trkpt lat="42.663311" lon="0.648491">
        <ele>2417.3</ele>
        <time>1970-01-01T00:43:30.000Z</time>
      </trkpt>
      <trkpt lat="42.66331" lon="0.648484">
        <ele>2417.3</ele>
        <time>1970-01-01T00:43:32.000Z</time>
      </trkpt>
      <trkpt lat="42.663308" lon="0.648482">
        <ele>2417.3</ele>
        <time>1970-01-01T00:43:33.000Z</time>
      </trkpt>
      <trkpt lat="42.663306" lon="0.648481">
        <ele>2417.3</ele>
        <time>1970-01-01T00:43:34.000Z</time>
      </trkpt>
      <trkpt lat="42.663303" lon="0.648483">
        <ele>2417.3</ele>
        <time>1970-01-01T00:43:35.000Z</time>
      </trkpt>
      <trkpt lat="42.663302" lon="0.648482">
        <ele>2417.3</ele>
        <time>1970-01-01T00:43:36.000Z</time>
      </trkpt>
      <trkpt lat="42.663302" lon="0.648481">
        <ele>2417.3</ele>
        <time>1970-01-01T00:43:38.000Z</time>
      </trkpt>
      <trkpt lat="42.663301" lon="0.648479">
        <ele>2417.3</ele>
        <time>1970-01-01T00:43:39.000Z</time>
      </trkpt>
      <trkpt lat="42.6633" lon="0.648475">
        <ele>2417.3</ele>
        <time>1970-01-01T00:43:40.000Z</time>
      </trkpt>
      <trkpt lat="42.663298" lon="0.648471">
        <ele>2417.3</ele>
        <time>1970-01-01T00:43:41.000Z</time>
      </trkpt>
      <trkpt lat="42.663296" lon="0.648468">
        <ele>2417.3</ele>
        <time>1970-01-01T00:43:42.000Z</time>
      </trkpt>
      <trkpt lat="42.663292" lon="0.648464">
        <ele>2417.3</ele>
        <time>1970-01-01T00:43:44.000Z</time>
      </trkpt>
      <trkpt lat="42.66329" lon="0.648461">
        <ele>2417.3</ele>
        <time>1970-01-01T00:43:45.000Z</time>
      </trkpt>
      <trkpt lat="42.663288" lon="0.64846">
        <ele>2417.3</ele>
        <time>1970-01-01T00:43:46.000Z</time>
      </trkpt>
      <trkpt lat="42.663286" lon="0.648458">
        <ele>2417.3</ele>
        <time>1970-01-01T00:43:47.000Z</time>
      </trkpt>
      <trkpt lat="42.663285" lon="0.648457">
        <ele>2417.3</ele>
        <time>1970-01-01T00:43:48.000Z</time>
      </trkpt>
      <trkpt lat="42.663283" lon="0.648456">
        <ele>2417.3</ele>
        <time>1970-01-01T00:43:50.000Z</time>
      </trkpt>
      <trkpt lat="42.663282" lon="0.648455">
        <ele>2419.1</ele>
        <time>1970-01-01T00:43:51.000Z</time>
      </trkpt>
      <trkpt lat="42.66328" lon="0.648455">
        <ele>2419.1</ele>
        <time>1970-01-01T00:43:52.000Z</time>
      </trkpt>
      <trkpt lat="42.663278" lon="0.648455">
        <ele>2419.1</ele>
        <time>1970-01-01T00:43:53.000Z</time>
      </trkpt>
      <trkpt lat="42.663275" lon="0.648454">
        <ele>2419.1</ele>
        <time>1970-01-01T00:43:55.000Z</time>
      </trkpt>
      <trkpt lat="42.663274" lon="0.648453">
        <ele>2419.1</ele>
        <time>1970-01-01T00:43:56.000Z</time>
      </trkpt>
      <trkpt lat="42.663273" lon="0.648453">
        <ele>2419.1</ele>
        <time>1970-01-01T00:43:57.000Z</time>
      </trkpt>
      <trkpt lat="42.66327" lon="0.648455">
        <ele>2419.1</ele>
        <time>1970-01-01T00:43:58.000Z</time>
      </trkpt>
      <trkpt lat="42.663269" lon="0.648457">
        <ele>2419.1</ele>
        <time>1970-01-01T00:43:59.000Z</time>
      </trkpt>
      <trkpt lat="42.663269" lon="0.64846">
        <ele>2419.1</ele>
        <time>1970-01-01T00:44:00.000Z</time>
      </trkpt>
      <trkpt lat="42.663269" lon="0.648461">
        <ele>2419.1</ele>
        <time>1970-01-01T00:44:01.000Z</time>
      </trkpt>
      <trkpt lat="42.663269" lon="0.648462">
        <ele>2419.1</ele>
        <time>1970-01-01T00:44:02.000Z</time>
      </trkpt>
      <trkpt lat="42.663269" lon="0.648463">
        <ele>2419.1</ele>
        <time>1970-01-01T00:44:03.000Z</time>
      </trkpt>
      <trkpt lat="42.663267" lon="0.648463">
        <ele>2419.1</ele>
        <time>1970-01-01T00:44:04.000Z</time>
      </trkpt>
      <trkpt lat="42.663266" lon="0.648462">
        <ele>2419.1</ele>
        <time>1970-01-01T00:44:05.000Z</time>
      </trkpt>
      <trkpt lat="42.663265" lon="0.648461">
        <ele>2419.1</ele>
        <time>1970-01-01T00:44:06.000Z</time>
      </trkpt>
      <trkpt lat="42.663262" lon="0.648461">
        <ele>2419.1</ele>
        <time>1970-01-01T00:44:07.000Z</time>
      </trkpt>
      <trkpt lat="42.663257" lon="0.648463">
        <ele>2419.1</ele>
        <time>1970-01-01T00:44:08.000Z</time>
      </trkpt>
      <trkpt lat="42.663248" lon="0.648471">
        <ele>2420.8</ele>
        <time>1970-01-01T00:44:10.000Z</time>
      </trkpt>
      <trkpt lat="42.663241" lon="0.648482">
        <ele>2420.8</ele>
        <time>1970-01-01T00:44:11.000Z</time>
      </trkpt>
      <trkpt lat="42.663238" lon="0.648483">
        <ele>2420.8</ele>
        <time>1970-01-01T00:44:12.000Z</time>
      </trkpt>
      <trkpt lat="42.663237" lon="0.648482">
        <ele>2420.8</ele>
        <time>1970-01-01T00:44:13.000Z</time>
      </trkpt>
      <trkpt lat="42.663235" lon="0.648479">
        <ele>2420.8</ele>
        <time>1970-01-01T00:44:15.000Z</time>
      </trkpt>
      <trkpt lat="42.663232" lon="0.648475">
        <ele>2420.8</ele>
        <time>1970-01-01T00:44:16.000Z</time>
      </trkpt>
      <trkpt lat="42.663229" lon="0.648469">
        <ele>2420.8</ele>
        <time>1970-01-01T00:44:17.000Z</time>
      </trkpt>
      <trkpt lat="42.663227" lon="0.648464">
        <ele>2420.8</ele>
        <time>1970-01-01T00:44:18.000Z</time>
      </trkpt>
      <trkpt lat="42.663224" lon="0.648459">
        <ele>2420.8</ele>
        <time>1970-01-01T00:44:19.000Z</time>
      </trkpt>
      <trkpt lat="42.663211" lon="0.648453">
        <ele>2422.4</ele>
        <time>1970-01-01T00:44:20.000Z</time>
      </trkpt>
      <trkpt lat="42.663204" lon="0.648456">
        <ele>2422.4</ele>
        <time>1970-01-01T00:44:21.000Z</time>
      </trkpt>
      <trkpt lat="42.663201" lon="0.648461">
        <ele>2422.4</ele>
        <time>1970-01-01T00:44:22.000Z</time>
      </trkpt>
      <trkpt lat="42.663196" lon="0.648464">
        <ele>2422.4</ele>
        <time>1970-01-01T00:44:23.000Z</time>
      </trkpt>
      <trkpt lat="42.66319" lon="0.648469">
        <ele>2422.4</ele>
        <time>1970-01-01T00:44:25.000Z</time>
      </trkpt>
      <trkpt lat="42.663184" lon="0.64847">
        <ele>2424.1</ele>
        <time>1970-01-01T00:44:26.000Z</time>
      </trkpt>
      <trkpt lat="42.663181" lon="0.648467">
        <ele>2424.1</ele>
        <time>1970-01-01T00:44:27.000Z</time>
      </trkpt>
      <trkpt lat="42.663178" lon="0.64846">
        <ele>2424.1</ele>
        <time>1970-01-01T00:44:28.000Z</time>
      </trkpt>
      <trkpt lat="42.663175" lon="0.648452">
        <ele>2424.1</ele>
        <time>1970-01-01T00:44:29.000Z</time>
      </trkpt>
      <trkpt lat="42.663168" lon="0.648443">
        <ele>2423.1</ele>
        <time>1970-01-01T00:44:30.000Z</time>
      </trkpt>
      <trkpt lat="42.663162" lon="0.648439">
        <ele>2423.1</ele>
        <time>1970-01-01T00:44:31.000Z</time>
      </trkpt>
      <trkpt lat="42.663156" lon="0.648435">
        <ele>2424.8</ele>
        <time>1970-01-01T00:44:32.000Z</time>
      </trkpt>
      <trkpt lat="42.663142" lon="0.648431">
        <ele>2424.8</ele>
        <time>1970-01-01T00:44:34.000Z</time>
      </trkpt>
      <trkpt lat="42.663137" lon="0.648435">
        <ele>2424.8</ele>
        <time>1970-01-01T00:44:35.000Z</time>
      </trkpt>
      <trkpt lat="42.663133" lon="0.64844">
        <ele>2424.8</ele>
        <time>1970-01-01T00:44:36.000Z</time>
      </trkpt>
      <trkpt lat="42.66313" lon="0.648442">
        <ele>2424.8</ele>
        <time>1970-01-01T00:44:37.000Z</time>
      </trkpt>
      <trkpt lat="42.663134" lon="0.648442">
        <ele>2424.8</ele>
        <time>1970-01-01T00:44:38.000Z</time>
      </trkpt>
      <trkpt lat="42.663139" lon="0.64844">
        <ele>2424.8</ele>
        <time>1970-01-01T00:44:39.000Z</time>
      </trkpt>
      <trkpt lat="42.663143" lon="0.648437">
        <ele>2424.8</ele>
        <time>1970-01-01T00:44:40.000Z</time>
      </trkpt>
      <trkpt lat="42.663147" lon="0.648432">
        <ele>2424.8</ele>
        <time>1970-01-01T00:44:41.000Z</time>
      </trkpt>
      <trkpt lat="42.663142" lon="0.648405">
        <ele>2423.8</ele>
        <time>1970-01-01T00:44:43.000Z</time>
      </trkpt>
      <trkpt lat="42.66314" lon="0.648396">
        <ele>2423.8</ele>
        <time>1970-01-01T00:44:44.000Z</time>
      </trkpt>
      <trkpt lat="42.66314" lon="0.648384">
        <ele>2423.8</ele>
        <time>1970-01-01T00:44:46.000Z</time>
      </trkpt>
      <trkpt lat="42.663137" lon="0.648376">
        <ele>2423.8</ele>
        <time>1970-01-01T00:44:47.000Z</time>
      </trkpt>
      <trkpt lat="42.663128" lon="0.648373">
        <ele>2423.8</ele>
        <time>1970-01-01T00:44:48.000Z</time>
      </trkpt>
      <trkpt lat="42.663123" lon="0.648374">
        <ele>2425.4</ele>
        <time>1970-01-01T00:44:49.000Z</time>
      </trkpt>
      <trkpt lat="42.663114" lon="0.648378">
        <ele>2425.4</ele>
        <time>1970-01-01T00:44:50.000Z</time>
      </trkpt>
      <trkpt lat="42.663104" lon="0.648386">
        <ele>2425.4</ele>
        <time>1970-01-01T00:44:51.000Z</time>
      </trkpt>
      <trkpt lat="42.663099" lon="0.648393">
        <ele>2425.4</ele>
        <time>1970-01-01T00:44:52.000Z</time>
      </trkpt>
      <trkpt lat="42.663096" lon="0.648398">
        <ele>2425.4</ele>
        <time>1970-01-01T00:44:53.000Z</time>
      </trkpt>
      <trkpt lat="42.663085" lon="0.648402">
        <ele>2427.1</ele>
        <time>1970-01-01T00:44:55.000Z</time>
      </trkpt>
      <trkpt lat="42.663078" lon="0.648409">
        <ele>2428.1</ele>
        <time>1970-01-01T00:44:56.000Z</time>
      </trkpt>
      <trkpt lat="42.663071" lon="0.648425">
        <ele>2428.1</ele>
        <time>1970-01-01T00:44:57.000Z</time>
      </trkpt>
      <trkpt lat="42.663066" lon="0.648434">
        <ele>2428.1</ele>
        <time>1970-01-01T00:44:58.000Z</time>
      </trkpt>
      <trkpt lat="42.663059" lon="0.648448">
        <ele>2429.7</ele>
        <time>1970-01-01T00:45:00.000Z</time>
      </trkpt>
      <trkpt lat="42.66306" lon="0.648454">
        <ele>2430.7</ele>
        <time>1970-01-01T00:45:01.000Z</time>
      </trkpt>
      <trkpt lat="42.66306" lon="0.648459">
        <ele>2430.7</ele>
        <time>1970-01-01T00:45:02.000Z</time>
      </trkpt>
      <trkpt lat="42.663058" lon="0.648457">
        <ele>2430.7</ele>
        <time>1970-01-01T00:45:04.000Z</time>
      </trkpt>
      <trkpt lat="42.66306" lon="0.648454">
        <ele>2430.7</ele>
        <time>1970-01-01T00:45:05.000Z</time>
      </trkpt>
      <trkpt lat="42.663063" lon="0.648443">
        <ele>2428.1</ele>
        <time>1970-01-01T00:45:06.000Z</time>
      </trkpt>
      <trkpt lat="42.663065" lon="0.648434">
        <ele>2428.1</ele>
        <time>1970-01-01T00:45:08.000Z</time>
      </trkpt>
      <trkpt lat="42.66307" lon="0.648418">
        <ele>2428.1</ele>
        <time>1970-01-01T00:45:10.000Z</time>
      </trkpt>
      <trkpt lat="42.663071" lon="0.648408">
        <ele>2428.1</ele>
        <time>1970-01-01T00:45:11.000Z</time>
      </trkpt>
      <trkpt lat="42.66307" lon="0.648399">
        <ele>2427.1</ele>
        <time>1970-01-01T00:45:12.000Z</time>
      </trkpt>
      <trkpt lat="42.663066" lon="0.64839">
        <ele>2427.1</ele>
        <time>1970-01-01T00:45:13.000Z</time>
      </trkpt>
      <trkpt lat="42.663062" lon="0.64838">
        <ele>2427.1</ele>
        <time>1970-01-01T00:45:14.000Z</time>
      </trkpt>
      <trkpt lat="42.663058" lon="0.648372">
        <ele>2428.7</ele>
        <time>1970-01-01T00:45:15.000Z</time>
      </trkpt>
      <trkpt lat="42.663054" lon="0.648366">
        <ele>2428.7</ele>
        <time>1970-01-01T00:45:16.000Z</time>
      </trkpt>
      <trkpt lat="42.663051" lon="0.648363">
        <ele>2427.7</ele>
        <time>1970-01-01T00:45:17.000Z</time>
      </trkpt>
      <trkpt lat="42.663049" lon="0.648361">
        <ele>2427.7</ele>
        <time>1970-01-01T00:45:18.000Z</time>
      </trkpt>
      <trkpt lat="42.663046" lon="0.648361">
        <ele>2427.7</ele>
        <time>1970-01-01T00:45:19.000Z</time>
      </trkpt>
      <trkpt lat="42.663037" lon="0.648367">
        <ele>2428.7</ele>
        <time>1970-01-01T00:45:20.000Z</time>
      </trkpt>
      <trkpt lat="42.663035" lon="0.648367">
        <ele>2428.7</ele>
        <time>1970-01-01T00:45:21.000Z</time>
      </trkpt>
      <trkpt lat="42.663035" lon="0.648367">
        <ele>2428.7</ele>
        <time>1970-01-01T00:45:22.000Z</time>
      </trkpt>
      <trkpt lat="42.663035" lon="0.648366">
        <ele>2428.7</ele>
        <time>1970-01-01T00:45:23.000Z</time>
      </trkpt>
      <trkpt lat="42.663034" lon="0.648366">
        <ele>2428.7</ele>
        <time>1970-01-01T00:45:24.000Z</time>
      </trkpt>
      <trkpt lat="42.663034" lon="0.648365">
        <ele>2427.7</ele>
        <time>1970-01-01T00:45:25.000Z</time>
      </trkpt>
      <trkpt lat="42.663033" lon="0.648364">
        <ele>2427.7</ele>
        <time>1970-01-01T00:45:26.000Z</time>
      </trkpt>
      <trkpt lat="42.663033" lon="0.648362">
        <ele>2427.7</ele>
        <time>1970-01-01T00:45:27.000Z</time>
      </trkpt>
      <trkpt lat="42.663032" lon="0.64836">
        <ele>2427.7</ele>
        <time>1970-01-01T00:45:28.000Z</time>
      </trkpt>
      <trkpt lat="42.663033" lon="0.648357">
        <ele>2427.7</ele>
        <time>1970-01-01T00:45:29.000Z</time>
      </trkpt>
      <trkpt lat="42.663033" lon="0.648355">
        <ele>2427.7</ele>
        <time>1970-01-01T00:45:30.000Z</time>
      </trkpt>
      <trkpt lat="42.663033" lon="0.648353">
        <ele>2427.7</ele>
        <time>1970-01-01T00:45:31.000Z</time>
      </trkpt>
      <trkpt lat="42.663033" lon="0.648351">
        <ele>2427.7</ele>
        <time>1970-01-01T00:45:32.000Z</time>
      </trkpt>
      <trkpt lat="42.663034" lon="0.648349">
        <ele>2427.7</ele>
        <time>1970-01-01T00:45:33.000Z</time>
      </trkpt>
      <trkpt lat="42.663034" lon="0.648348">
        <ele>2427.7</ele>
        <time>1970-01-01T00:45:34.000Z</time>
      </trkpt>
      <trkpt lat="42.663036" lon="0.648346">
        <ele>2427.7</ele>
        <time>1970-01-01T00:45:35.000Z</time>
      </trkpt>
      <trkpt lat="42.663035" lon="0.648343">
        <ele>2427.7</ele>
        <time>1970-01-01T00:45:36.000Z</time>
      </trkpt>
      <trkpt lat="42.663033" lon="0.648341">
        <ele>2427.7</ele>
        <time>1970-01-01T00:45:37.000Z</time>
      </trkpt>
      <trkpt lat="42.663021" lon="0.648344">
        <ele>2429.3</ele>
        <time>1970-01-01T00:45:39.000Z</time>
      </trkpt>
      <trkpt lat="42.663017" lon="0.64835">
        <ele>2429.3</ele>
        <time>1970-01-01T00:45:40.000Z</time>
      </trkpt>
      <trkpt lat="42.663015" lon="0.64835">
        <ele>2429.3</ele>
        <time>1970-01-01T00:45:41.000Z</time>
      </trkpt>
      <trkpt lat="42.663015" lon="0.648349">
        <ele>2429.3</ele>
        <time>1970-01-01T00:45:42.000Z</time>
      </trkpt>
      <trkpt lat="42.663016" lon="0.648348">
        <ele>2429.3</ele>
        <time>1970-01-01T00:45:43.000Z</time>
      </trkpt>
      <trkpt lat="42.663017" lon="0.648343">
        <ele>2429.3</ele>
        <time>1970-01-01T00:45:45.000Z</time>
      </trkpt>
      <trkpt lat="42.663015" lon="0.648342">
        <ele>2429.3</ele>
        <time>1970-01-01T00:45:46.000Z</time>
      </trkpt>
      <trkpt lat="42.663009" lon="0.64834">
        <ele>2429.3</ele>
        <time>1970-01-01T00:45:48.000Z</time>
      </trkpt>
      <trkpt lat="42.663006" lon="0.648338">
        <ele>2429.3</ele>
        <time>1970-01-01T00:45:49.000Z</time>
      </trkpt>
      <trkpt lat="42.662995" lon="0.648334">
        <ele>2430.9</ele>
        <time>1970-01-01T00:45:51.000Z</time>
      </trkpt>
      <trkpt lat="42.662991" lon="0.648333">
        <ele>2430.9</ele>
        <time>1970-01-01T00:45:53.000Z</time>
      </trkpt>
      <trkpt lat="42.662984" lon="0.648337">
        <ele>2430.9</ele>
        <time>1970-01-01T00:45:54.000Z</time>
      </trkpt>
      <trkpt lat="42.66298" lon="0.648341">
        <ele>2430.9</ele>
        <time>1970-01-01T00:45:55.000Z</time>
      </trkpt>
      <trkpt lat="42.662973" lon="0.648346">
        <ele>2430.9</ele>
        <time>1970-01-01T00:45:57.000Z</time>
      </trkpt>
      <trkpt lat="42.662972" lon="0.648344">
        <ele>2430.9</ele>
        <time>1970-01-01T00:45:58.000Z</time>
      </trkpt>
      <trkpt lat="42.662975" lon="0.648339">
        <ele>2430.9</ele>
        <time>1970-01-01T00:45:59.000Z</time>
      </trkpt>
      <trkpt lat="42.662975" lon="0.648337">
        <ele>2430.9</ele>
        <time>1970-01-01T00:46:00.000Z</time>
      </trkpt>
      <trkpt lat="42.662975" lon="0.648336">
        <ele>2430.9</ele>
        <time>1970-01-01T00:46:01.000Z</time>
      </trkpt>
      <trkpt lat="42.662974" lon="0.648333">
        <ele>2430.9</ele>
        <time>1970-01-01T00:46:02.000Z</time>
      </trkpt>
      <trkpt lat="42.662975" lon="0.648327">
        <ele>2430.9</ele>
        <time>1970-01-01T00:46:03.000Z</time>
      </trkpt>
      <trkpt lat="42.662974" lon="0.648323">
        <ele>2430.9</ele>
        <time>1970-01-01T00:46:04.000Z</time>
      </trkpt>
      <trkpt lat="42.662968" lon="0.648319">
        <ele>2429.8</ele>
        <time>1970-01-01T00:46:05.000Z</time>
      </trkpt>
      <trkpt lat="42.662962" lon="0.648318">
        <ele>2431.3</ele>
        <time>1970-01-01T00:46:06.000Z</time>
      </trkpt>
      <trkpt lat="42.662956" lon="0.64832">
        <ele>2431.3</ele>
        <time>1970-01-01T00:46:07.000Z</time>
      </trkpt>
      <trkpt lat="42.662947" lon="0.648324">
        <ele>2432.3</ele>
        <time>1970-01-01T00:46:09.000Z</time>
      </trkpt>
      <trkpt lat="42.66294" lon="0.648326">
        <ele>2432.3</ele>
        <time>1970-01-01T00:46:10.000Z</time>
      </trkpt>
      <trkpt lat="42.662938" lon="0.648322">
        <ele>2431.3</ele>
        <time>1970-01-01T00:46:11.000Z</time>
      </trkpt>
      <trkpt lat="42.662937" lon="0.648321">
        <ele>2431.3</ele>
        <time>1970-01-01T00:46:12.000Z</time>
      </trkpt>
      <trkpt lat="42.662936" lon="0.648324">
        <ele>2432.3</ele>
        <time>1970-01-01T00:46:13.000Z</time>
      </trkpt>
      <trkpt lat="42.662937" lon="0.648334">
        <ele>2432.3</ele>
        <time>1970-01-01T00:46:15.000Z</time>
      </trkpt>
      <trkpt lat="42.662938" lon="0.648344">
        <ele>2432.3</ele>
        <time>1970-01-01T00:46:16.000Z</time>
      </trkpt>
      <trkpt lat="42.662944" lon="0.648356">
        <ele>2432.3</ele>
        <time>1970-01-01T00:46:17.000Z</time>
      </trkpt>
      <trkpt lat="42.662948" lon="0.648362">
        <ele>2432.3</ele>
        <time>1970-01-01T00:46:18.000Z</time>
      </trkpt>
      <trkpt lat="42.662957" lon="0.648371">
        <ele>2433.3</ele>
        <time>1970-01-01T00:46:20.000Z</time>
      </trkpt>
      <trkpt lat="42.662966" lon="0.648373">
        <ele>2433.3</ele>
        <time>1970-01-01T00:46:21.000Z</time>
      </trkpt>
      <trkpt lat="42.662973" lon="0.648375">
        <ele>2431.9</ele>
        <time>1970-01-01T00:46:22.000Z</time>
      </trkpt>
      <trkpt lat="42.662978" lon="0.648379">
        <ele>2431.9</ele>
        <time>1970-01-01T00:46:23.000Z</time>
      </trkpt>
      <trkpt lat="42.662982" lon="0.648376">
        <ele>2431.9</ele>
        <time>1970-01-01T00:46:24.000Z</time>
      </trkpt>
      <trkpt lat="42.662985" lon="0.648372">
        <ele>2431.9</ele>
        <time>1970-01-01T00:46:25.000Z</time>
      </trkpt>
      <trkpt lat="42.662987" lon="0.648363">
        <ele>2430.9</ele>
        <time>1970-01-01T00:46:26.000Z</time>
      </trkpt>
      <trkpt lat="42.662986" lon="0.648363">
        <ele>2430.9</ele>
        <time>1970-01-01T00:46:28.000Z</time>
      </trkpt>
      <trkpt lat="42.662979" lon="0.648371">
        <ele>2431.9</ele>
        <time>1970-01-01T00:46:29.000Z</time>
      </trkpt>
      <trkpt lat="42.662983" lon="0.648373">
        <ele>2431.9</ele>
        <time>1970-01-01T00:46:30.000Z</time>
      </trkpt>
      <trkpt lat="42.662986" lon="0.648375">
        <ele>2431.9</ele>
        <time>1970-01-01T00:46:31.000Z</time>
      </trkpt>
      <trkpt lat="42.662993" lon="0.648378">
        <ele>2431.9</ele>
        <time>1970-01-01T00:46:32.000Z</time>
      </trkpt>
      <trkpt lat="42.663" lon="0.648381">
        <ele>2430.3</ele>
        <time>1970-01-01T00:46:33.000Z</time>
      </trkpt>
      <trkpt lat="42.663008" lon="0.648376">
        <ele>2430.3</ele>
        <time>1970-01-01T00:46:34.000Z</time>
      </trkpt>
      <trkpt lat="42.663013" lon="0.648369">
        <ele>2430.3</ele>
        <time>1970-01-01T00:46:35.000Z</time>
      </trkpt>
      <trkpt lat="42.663021" lon="0.648367">
        <ele>2430.3</ele>
        <time>1970-01-01T00:46:37.000Z</time>
      </trkpt>
      <trkpt lat="42.663032" lon="0.648357">
        <ele>2427.7</ele>
        <time>1970-01-01T00:46:38.000Z</time>
      </trkpt>
      <trkpt lat="42.66304" lon="0.648348">
        <ele>2427.7</ele>
        <time>1970-01-01T00:46:40.000Z</time>
      </trkpt>
      <trkpt lat="42.663044" lon="0.648342">
        <ele>2427.7</ele>
        <time>1970-01-01T00:46:41.000Z</time>
      </trkpt>
      <trkpt lat="42.663045" lon="0.64834">
        <ele>2427.7</ele>
        <time>1970-01-01T00:46:42.000Z</time>
      </trkpt>
      <trkpt lat="42.663044" lon="0.64834">
        <ele>2427.7</ele>
        <time>1970-01-01T00:46:43.000Z</time>
      </trkpt>
      <trkpt lat="42.663052" lon="0.648339">
        <ele>2427.7</ele>
        <time>1970-01-01T00:46:44.000Z</time>
      </trkpt>
      <trkpt lat="42.663055" lon="0.648337">
        <ele>2427.7</ele>
        <time>1970-01-01T00:46:45.000Z</time>
      </trkpt>
      <trkpt lat="42.663059" lon="0.648342">
        <ele>2427.7</ele>
        <time>1970-01-01T00:46:46.000Z</time>
      </trkpt>
      <trkpt lat="42.663047" lon="0.648352">
        <ele>2427.7</ele>
        <time>1970-01-01T00:46:48.000Z</time>
      </trkpt>
      <trkpt lat="42.663029" lon="0.648366">
        <ele>2430.3</ele>
        <time>1970-01-01T00:46:49.000Z</time>
      </trkpt>
      <trkpt lat="42.663019" lon="0.64837">
        <ele>2430.3</ele>
        <time>1970-01-01T00:46:50.000Z</time>
      </trkpt>
      <trkpt lat="42.662995" lon="0.648376">
        <ele>2431.9</ele>
        <time>1970-01-01T00:46:52.000Z</time>
      </trkpt>
      <trkpt lat="42.662983" lon="0.648379">
        <ele>2431.9</ele>
        <time>1970-01-01T00:46:53.000Z</time>
      </trkpt>
      <trkpt lat="42.66297" lon="0.648382">
        <ele>2431.9</ele>
        <time>1970-01-01T00:46:54.000Z</time>
      </trkpt>
      <trkpt lat="42.662961" lon="0.648388">
        <ele>2433.3</ele>
        <time>1970-01-01T00:46:55.000Z</time>
      </trkpt>
      <trkpt lat="42.662956" lon="0.648394">
        <ele>2433.3</ele>
        <time>1970-01-01T00:46:56.000Z</time>
      </trkpt>
      <trkpt lat="42.662956" lon="0.648407">
        <ele>2433.3</ele>
        <time>1970-01-01T00:46:57.000Z</time>
      </trkpt>
      <trkpt lat="42.662959" lon="0.648415">
        <ele>2434.4</ele>
        <time>1970-01-01T00:46:58.000Z</time>
      </trkpt>
      <trkpt lat="42.662967" lon="0.648429">
        <ele>2434.4</ele>
        <time>1970-01-01T00:47:00.000Z</time>
      </trkpt>
      <trkpt lat="42.662967" lon="0.648429">
        <ele>2434.4</ele>
        <time>1970-01-01T00:47:01.000Z</time>
      </trkpt>
      <trkpt lat="42.662966" lon="0.648433">
        <ele>2434.4</ele>
        <time>1970-01-01T00:47:02.000Z</time>
      </trkpt>
      <trkpt lat="42.662965" lon="0.648434">
        <ele>2434.4</ele>
        <time>1970-01-01T00:47:03.000Z</time>
      </trkpt>
      <trkpt lat="42.662965" lon="0.64843">
        <ele>2434.4</ele>
        <time>1970-01-01T00:47:04.000Z</time>
      </trkpt>
      <trkpt lat="42.662962" lon="0.648437">
        <ele>2434.4</ele>
        <time>1970-01-01T00:47:05.000Z</time>
      </trkpt>
      <trkpt lat="42.662962" lon="0.648439">
        <ele>2434.4</ele>
        <time>1970-01-01T00:47:06.000Z</time>
      </trkpt>
      <trkpt lat="42.662963" lon="0.648439">
        <ele>2434.4</ele>
        <time>1970-01-01T00:47:07.000Z</time>
      </trkpt>
      <trkpt lat="42.662964" lon="0.648436">
        <ele>2434.4</ele>
        <time>1970-01-01T00:47:08.000Z</time>
      </trkpt>
      <trkpt lat="42.662964" lon="0.648437">
        <ele>2434.4</ele>
        <time>1970-01-01T00:47:09.000Z</time>
      </trkpt>
      <trkpt lat="42.662962" lon="0.648439">
        <ele>2434.4</ele>
        <time>1970-01-01T00:47:10.000Z</time>
      </trkpt>
      <trkpt lat="42.662961" lon="0.64844">
        <ele>2434.4</ele>
        <time>1970-01-01T00:47:11.000Z</time>
      </trkpt>
      <trkpt lat="42.662958" lon="0.648442">
        <ele>2434.4</ele>
        <time>1970-01-01T00:47:13.000Z</time>
      </trkpt>
      <trkpt lat="42.662957" lon="0.648443">
        <ele>2434.4</ele>
        <time>1970-01-01T00:47:14.000Z</time>
      </trkpt>
      <trkpt lat="42.662954" lon="0.648447">
        <ele>2434.4</ele>
        <time>1970-01-01T00:47:15.000Z</time>
      </trkpt>
      <trkpt lat="42.662952" lon="0.648458">
        <ele>2435.4</ele>
        <time>1970-01-01T00:47:17.000Z</time>
      </trkpt>
      <trkpt lat="42.66295" lon="0.64847">
        <ele>2435.4</ele>
        <time>1970-01-01T00:47:18.000Z</time>
      </trkpt>
      <trkpt lat="42.66295" lon="0.64848">
        <ele>2435.4</ele>
        <time>1970-01-01T00:47:19.000Z</time>
      </trkpt>
      <trkpt lat="42.662951" lon="0.648495">
        <ele>2436.4</ele>
        <time>1970-01-01T00:47:20.000Z</time>
      </trkpt>
      <trkpt lat="42.662953" lon="0.648505">
        <ele>2436.4</ele>
        <time>1970-01-01T00:47:21.000Z</time>
      </trkpt>
      <trkpt lat="42.662955" lon="0.648494">
        <ele>2436.4</ele>
        <time>1970-01-01T00:47:22.000Z</time>
      </trkpt>
      <trkpt lat="42.662961" lon="0.648497">
        <ele>2436.4</ele>
        <time>1970-01-01T00:47:23.000Z</time>
      </trkpt>
      <trkpt lat="42.662962" lon="0.648498">
        <ele>2436.4</ele>
        <time>1970-01-01T00:47:24.000Z</time>
      </trkpt>
      <trkpt lat="42.662966" lon="0.648499">
        <ele>2436.4</ele>
        <time>1970-01-01T00:47:25.000Z</time>
      </trkpt>
      <trkpt lat="42.662971" lon="0.648505">
        <ele>2434.9</ele>
        <time>1970-01-01T00:47:26.000Z</time>
      </trkpt>
      <trkpt lat="42.662963" lon="0.648515">
        <ele>2436.4</ele>
        <time>1970-01-01T00:47:27.000Z</time>
      </trkpt>
      <trkpt lat="42.662955" lon="0.648523">
        <ele>2436.4</ele>
        <time>1970-01-01T00:47:28.000Z</time>
      </trkpt>
      <trkpt lat="42.662948" lon="0.648531">
        <ele>2436.4</ele>
        <time>1970-01-01T00:47:30.000Z</time>
      </trkpt>
      <trkpt lat="42.662941" lon="0.648538">
        <ele>2437.3</ele>
        <time>1970-01-01T00:47:31.000Z</time>
      </trkpt>
      <trkpt lat="42.662931" lon="0.648553">
        <ele>2438.7</ele>
        <time>1970-01-01T00:47:32.000Z</time>
      </trkpt>
      <trkpt lat="42.662928" lon="0.64856">
        <ele>2438.7</ele>
        <time>1970-01-01T00:47:33.000Z</time>
      </trkpt>
      <trkpt lat="42.662924" lon="0.648566">
        <ele>2438.7</ele>
        <time>1970-01-01T00:47:34.000Z</time>
      </trkpt>
      <trkpt lat="42.662922" lon="0.648575">
        <ele>2438.7</ele>
        <time>1970-01-01T00:47:35.000Z</time>
      </trkpt>
      <trkpt lat="42.662921" lon="0.648579">
        <ele>2438.7</ele>
        <time>1970-01-01T00:47:36.000Z</time>
      </trkpt>
      <trkpt lat="42.662919" lon="0.648591">
        <ele>2439.6</ele>
        <time>1970-01-01T00:47:37.000Z</time>
      </trkpt>
      <trkpt lat="42.66292" lon="0.648597">
        <ele>2439.6</ele>
        <time>1970-01-01T00:47:38.000Z</time>
      </trkpt>
      <trkpt lat="42.662922" lon="0.648602">
        <ele>2439.6</ele>
        <time>1970-01-01T00:47:39.000Z</time>
      </trkpt>
      <trkpt lat="42.662921" lon="0.648608">
        <ele>2439.6</ele>
        <time>1970-01-01T00:47:40.000Z</time>
      </trkpt>
      <trkpt lat="42.66292" lon="0.648619">
        <ele>2439.6</ele>
        <time>1970-01-01T00:47:41.000Z</time>
      </trkpt>
      <trkpt lat="42.662919" lon="0.648626">
        <ele>2440.6</ele>
        <time>1970-01-01T00:47:42.000Z</time>
      </trkpt>
      <trkpt lat="42.662918" lon="0.64864">
        <ele>2440.6</ele>
        <time>1970-01-01T00:47:43.000Z</time>
      </trkpt>
      <trkpt lat="42.662918" lon="0.648647">
        <ele>2440.6</ele>
        <time>1970-01-01T00:47:44.000Z</time>
      </trkpt>
      <trkpt lat="42.662917" lon="0.648657">
        <ele>2440.6</ele>
        <time>1970-01-01T00:47:45.000Z</time>
      </trkpt>
      <trkpt lat="42.662917" lon="0.648664">
        <ele>2440.6</ele>
        <time>1970-01-01T00:47:46.000Z</time>
      </trkpt>
      <trkpt lat="42.662919" lon="0.648668">
        <ele>2441.5</ele>
        <time>1970-01-01T00:47:47.000Z</time>
      </trkpt>
      <trkpt lat="42.662919" lon="0.648672">
        <ele>2441.5</ele>
        <time>1970-01-01T00:47:49.000Z</time>
      </trkpt>
      <trkpt lat="42.662919" lon="0.648677">
        <ele>2441.5</ele>
        <time>1970-01-01T00:47:50.000Z</time>
      </trkpt>
      <trkpt lat="42.66292" lon="0.648681">
        <ele>2441.5</ele>
        <time>1970-01-01T00:47:51.000Z</time>
      </trkpt>
      <trkpt lat="42.66292" lon="0.648684">
        <ele>2441.5</ele>
        <time>1970-01-01T00:47:52.000Z</time>
      </trkpt>
      <trkpt lat="42.66292" lon="0.648688">
        <ele>2441.5</ele>
        <time>1970-01-01T00:47:53.000Z</time>
      </trkpt>
      <trkpt lat="42.662921" lon="0.648696">
        <ele>2441.5</ele>
        <time>1970-01-01T00:47:54.000Z</time>
      </trkpt>
      <trkpt lat="42.662923" lon="0.648705">
        <ele>2441.5</ele>
        <time>1970-01-01T00:47:55.000Z</time>
      </trkpt>
      <trkpt lat="42.662924" lon="0.64871">
        <ele>2442.4</ele>
        <time>1970-01-01T00:47:56.000Z</time>
      </trkpt>
      <trkpt lat="42.662925" lon="0.648717">
        <ele>2442.4</ele>
        <time>1970-01-01T00:47:58.000Z</time>
      </trkpt>
      <trkpt lat="42.662925" lon="0.648722">
        <ele>2442.4</ele>
        <time>1970-01-01T00:47:59.000Z</time>
      </trkpt>
      <trkpt lat="42.662923" lon="0.648725">
        <ele>2442.4</ele>
        <time>1970-01-01T00:48:00.000Z</time>
      </trkpt>
      <trkpt lat="42.662919" lon="0.648727">
        <ele>2442.4</ele>
        <time>1970-01-01T00:48:01.000Z</time>
      </trkpt>
      <trkpt lat="42.662915" lon="0.648731">
        <ele>2442.4</ele>
        <time>1970-01-01T00:48:02.000Z</time>
      </trkpt>
      <trkpt lat="42.662911" lon="0.648734">
        <ele>2442.4</ele>
        <time>1970-01-01T00:48:03.000Z</time>
      </trkpt>
      <trkpt lat="42.66291" lon="0.648735">
        <ele>2442.4</ele>
        <time>1970-01-01T00:48:04.000Z</time>
      </trkpt>
      <trkpt lat="42.662909" lon="0.648736">
        <ele>2442.4</ele>
        <time>1970-01-01T00:48:05.000Z</time>
      </trkpt>
      <trkpt lat="42.662909" lon="0.648734">
        <ele>2442.4</ele>
        <time>1970-01-01T00:48:07.000Z</time>
      </trkpt>
      <trkpt lat="42.662907" lon="0.648733">
        <ele>2442.4</ele>
        <time>1970-01-01T00:48:08.000Z</time>
      </trkpt>
      <trkpt lat="42.662903" lon="0.648733">
        <ele>2443.6</ele>
        <time>1970-01-01T00:48:09.000Z</time>
      </trkpt>
      <trkpt lat="42.662899" lon="0.648738">
        <ele>2443.6</ele>
        <time>1970-01-01T00:48:10.000Z</time>
      </trkpt>
      <trkpt lat="42.662893" lon="0.648746">
        <ele>2443.6</ele>
        <time>1970-01-01T00:48:11.000Z</time>
      </trkpt>
      <trkpt lat="42.66289" lon="0.648752">
        <ele>2444.6</ele>
        <time>1970-01-01T00:48:12.000Z</time>
      </trkpt>
      <trkpt lat="42.662884" lon="0.648753">
        <ele>2444.6</ele>
        <time>1970-01-01T00:48:14.000Z</time>
      </trkpt>
      <trkpt lat="42.662879" lon="0.648753">
        <ele>2444.6</ele>
        <time>1970-01-01T00:48:15.000Z</time>
      </trkpt>
      <trkpt lat="42.662868" lon="0.648752">
        <ele>2445.8</ele>
        <time>1970-01-01T00:48:16.000Z</time>
      </trkpt>
      <trkpt lat="42.662863" lon="0.648749">
        <ele>2444.9</ele>
        <time>1970-01-01T00:48:17.000Z</time>
      </trkpt>
      <trkpt lat="42.662852" lon="0.648746">
        <ele>2444.9</ele>
        <time>1970-01-01T00:48:19.000Z</time>
      </trkpt>
      <trkpt lat="42.662847" lon="0.64875">
        <ele>2444.9</ele>
        <time>1970-01-01T00:48:20.000Z</time>
      </trkpt>
      <trkpt lat="42.662845" lon="0.648759">
        <ele>2445.8</ele>
        <time>1970-01-01T00:48:21.000Z</time>
      </trkpt>
      <trkpt lat="42.662849" lon="0.648763">
        <ele>2445.8</ele>
        <time>1970-01-01T00:48:23.000Z</time>
      </trkpt>
      <trkpt lat="42.662855" lon="0.648769">
        <ele>2445.8</ele>
        <time>1970-01-01T00:48:24.000Z</time>
      </trkpt>
      <trkpt lat="42.662863" lon="0.64877">
        <ele>2445.8</ele>
        <time>1970-01-01T00:48:25.000Z</time>
      </trkpt>
      <trkpt lat="42.662868" lon="0.648764">
        <ele>2445.8</ele>
        <time>1970-01-01T00:48:26.000Z</time>
      </trkpt>
      <trkpt lat="42.662868" lon="0.648759">
        <ele>2445.8</ele>
        <time>1970-01-01T00:48:27.000Z</time>
      </trkpt>
      <trkpt lat="42.662867" lon="0.648756">
        <ele>2445.8</ele>
        <time>1970-01-01T00:48:29.000Z</time>
      </trkpt>
      <trkpt lat="42.662866" lon="0.648752">
        <ele>2445.8</ele>
        <time>1970-01-01T00:48:30.000Z</time>
      </trkpt>
      <trkpt lat="42.662864" lon="0.648747">
        <ele>2444.9</ele>
        <time>1970-01-01T00:48:31.000Z</time>
      </trkpt>
      <trkpt lat="42.662863" lon="0.64874">
        <ele>2444.9</ele>
        <time>1970-01-01T00:48:32.000Z</time>
      </trkpt>
      <trkpt lat="42.662861" lon="0.648734">
        <ele>2444.9</ele>
        <time>1970-01-01T00:48:33.000Z</time>
      </trkpt>
      <trkpt lat="42.662857" lon="0.64873">
        <ele>2444.9</ele>
        <time>1970-01-01T00:48:35.000Z</time>
      </trkpt>
      <trkpt lat="42.662853" lon="0.648732">
        <ele>2444.9</ele>
        <time>1970-01-01T00:48:36.000Z</time>
      </trkpt>
      <trkpt lat="42.662852" lon="0.648732">
        <ele>2444.9</ele>
        <time>1970-01-01T00:48:37.000Z</time>
      </trkpt>
      <trkpt lat="42.66285" lon="0.648733">
        <ele>2444.9</ele>
        <time>1970-01-01T00:48:38.000Z</time>
      </trkpt>
      <trkpt lat="42.662847" lon="0.648734">
        <ele>2444.9</ele>
        <time>1970-01-01T00:48:39.000Z</time>
      </trkpt>
      <trkpt lat="42.662844" lon="0.648735">
        <ele>2444.9</ele>
        <time>1970-01-01T00:48:40.000Z</time>
      </trkpt>
      <trkpt lat="42.66284" lon="0.648734">
        <ele>2446.1</ele>
        <time>1970-01-01T00:48:41.000Z</time>
      </trkpt>
      <trkpt lat="42.662838" lon="0.648733">
        <ele>2446.1</ele>
        <time>1970-01-01T00:48:42.000Z</time>
      </trkpt>
      <trkpt lat="42.662836" lon="0.648732">
        <ele>2446.1</ele>
        <time>1970-01-01T00:48:43.000Z</time>
      </trkpt>
      <trkpt lat="42.662833" lon="0.648731">
        <ele>2446.1</ele>
        <time>1970-01-01T00:48:44.000Z</time>
      </trkpt>
      <trkpt lat="42.662829" lon="0.648732">
        <ele>2446.1</ele>
        <time>1970-01-01T00:48:45.000Z</time>
      </trkpt>
      <trkpt lat="42.662825" lon="0.648735">
        <ele>2446.1</ele>
        <time>1970-01-01T00:48:46.000Z</time>
      </trkpt>
      <trkpt lat="42.66282" lon="0.648739">
        <ele>2446.1</ele>
        <time>1970-01-01T00:48:47.000Z</time>
      </trkpt>
      <trkpt lat="42.662817" lon="0.648743">
        <ele>2446.1</ele>
        <time>1970-01-01T00:48:48.000Z</time>
      </trkpt>
      <trkpt lat="42.662813" lon="0.648746">
        <ele>2446.1</ele>
        <time>1970-01-01T00:48:49.000Z</time>
      </trkpt>
      <trkpt lat="42.66281" lon="0.648751">
        <ele>2446.1</ele>
        <time>1970-01-01T00:48:50.000Z</time>
      </trkpt>
      <trkpt lat="42.662807" lon="0.648755">
        <ele>2448.5</ele>
        <time>1970-01-01T00:48:51.000Z</time>
      </trkpt>
      <trkpt lat="42.662805" lon="0.648756">
        <ele>2448.5</ele>
        <time>1970-01-01T00:48:52.000Z</time>
      </trkpt>
      <trkpt lat="42.662803" lon="0.648756">
        <ele>2448.5</ele>
        <time>1970-01-01T00:48:53.000Z</time>
      </trkpt>
      <trkpt lat="42.662802" lon="0.648755">
        <ele>2448.5</ele>
        <time>1970-01-01T00:48:54.000Z</time>
      </trkpt>
      <trkpt lat="42.662801" lon="0.648752">
        <ele>2448.5</ele>
        <time>1970-01-01T00:48:55.000Z</time>
      </trkpt>
      <trkpt lat="42.662798" lon="0.648751">
        <ele>2447.5</ele>
        <time>1970-01-01T00:48:56.000Z</time>
      </trkpt>
      <trkpt lat="42.66279" lon="0.648753">
        <ele>2448.5</ele>
        <time>1970-01-01T00:48:58.000Z</time>
      </trkpt>
      <trkpt lat="42.662783" lon="0.648758">
        <ele>2448.5</ele>
        <time>1970-01-01T00:49:00.000Z</time>
      </trkpt>
      <trkpt lat="42.662777" lon="0.648765">
        <ele>2449.9</ele>
        <time>1970-01-01T00:49:01.000Z</time>
      </trkpt>
      <trkpt lat="42.662774" lon="0.64877">
        <ele>2449.9</ele>
        <time>1970-01-01T00:49:02.000Z</time>
      </trkpt>
      <trkpt lat="42.662773" lon="0.648776">
        <ele>2449.9</ele>
        <time>1970-01-01T00:49:03.000Z</time>
      </trkpt>
      <trkpt lat="42.662773" lon="0.648781">
        <ele>2449.9</ele>
        <time>1970-01-01T00:49:04.000Z</time>
      </trkpt>
      <trkpt lat="42.662773" lon="0.648785">
        <ele>2449.9</ele>
        <time>1970-01-01T00:49:05.000Z</time>
      </trkpt>
      <trkpt lat="42.662772" lon="0.648788">
        <ele>2449.9</ele>
        <time>1970-01-01T00:49:06.000Z</time>
      </trkpt>
      <trkpt lat="42.662771" lon="0.64879">
        <ele>2449.9</ele>
        <time>1970-01-01T00:49:07.000Z</time>
      </trkpt>
      <trkpt lat="42.66277" lon="0.648791">
        <ele>2449.9</ele>
        <time>1970-01-01T00:49:08.000Z</time>
      </trkpt>
      <trkpt lat="42.662768" lon="0.648792">
        <ele>2449.9</ele>
        <time>1970-01-01T00:49:09.000Z</time>
      </trkpt>
      <trkpt lat="42.662767" lon="0.648793">
        <ele>2449.9</ele>
        <time>1970-01-01T00:49:10.000Z</time>
      </trkpt>
      <trkpt lat="42.662765" lon="0.648795">
        <ele>2450.9</ele>
        <time>1970-01-01T00:49:12.000Z</time>
      </trkpt>
      <trkpt lat="42.66276" lon="0.648799">
        <ele>2450.9</ele>
        <time>1970-01-01T00:49:13.000Z</time>
      </trkpt>
      <trkpt lat="42.662755" lon="0.648806">
        <ele>2450.9</ele>
        <time>1970-01-01T00:49:14.000Z</time>
      </trkpt>
      <trkpt lat="42.662748" lon="0.648816">
        <ele>2450.9</ele>
        <time>1970-01-01T00:49:16.000Z</time>
      </trkpt>
      <trkpt lat="42.662741" lon="0.648826">
        <ele>2452.4</ele>
        <time>1970-01-01T00:49:18.000Z</time>
      </trkpt>
      <trkpt lat="42.662734" lon="0.648828">
        <ele>2452.4</ele>
        <time>1970-01-01T00:49:19.000Z</time>
      </trkpt>
      <trkpt lat="42.662726" lon="0.648825">
        <ele>2452.4</ele>
        <time>1970-01-01T00:49:20.000Z</time>
      </trkpt>
      <trkpt lat="42.66272" lon="0.648819">
        <ele>2452.4</ele>
        <time>1970-01-01T00:49:21.000Z</time>
      </trkpt>
      <trkpt lat="42.662713" lon="0.648814">
        <ele>2453.8</ele>
        <time>1970-01-01T00:49:22.000Z</time>
      </trkpt>
      <trkpt lat="42.662709" lon="0.648812">
        <ele>2453.8</ele>
        <time>1970-01-01T00:49:23.000Z</time>
      </trkpt>
      <trkpt lat="42.662705" lon="0.648813">
        <ele>2453.8</ele>
        <time>1970-01-01T00:49:24.000Z</time>
      </trkpt>
      <trkpt lat="42.662702" lon="0.648815">
        <ele>2453.8</ele>
        <time>1970-01-01T00:49:25.000Z</time>
      </trkpt>
      <trkpt lat="42.6627" lon="0.648816">
        <ele>2453.8</ele>
        <time>1970-01-01T00:49:26.000Z</time>
      </trkpt>
      <trkpt lat="42.6627" lon="0.648817">
        <ele>2453.8</ele>
        <time>1970-01-01T00:49:27.000Z</time>
      </trkpt>
      <trkpt lat="42.662698" lon="0.648817">
        <ele>2453.8</ele>
        <time>1970-01-01T00:49:28.000Z</time>
      </trkpt>
      <trkpt lat="42.662695" lon="0.648814">
        <ele>2453.8</ele>
        <time>1970-01-01T00:49:30.000Z</time>
      </trkpt>
      <trkpt lat="42.662692" lon="0.648811">
        <ele>2453.8</ele>
        <time>1970-01-01T00:49:31.000Z</time>
      </trkpt>
      <trkpt lat="42.662689" lon="0.648808">
        <ele>2453.8</ele>
        <time>1970-01-01T00:49:32.000Z</time>
      </trkpt>
      <trkpt lat="42.662682" lon="0.648811">
        <ele>2455</ele>
        <time>1970-01-01T00:49:33.000Z</time>
      </trkpt>
      <trkpt lat="42.662678" lon="0.648814">
        <ele>2455</ele>
        <time>1970-01-01T00:49:34.000Z</time>
      </trkpt>
      <trkpt lat="42.662673" lon="0.648819">
        <ele>2455</ele>
        <time>1970-01-01T00:49:35.000Z</time>
      </trkpt>
      <trkpt lat="42.66267" lon="0.648824">
        <ele>2455</ele>
        <time>1970-01-01T00:49:36.000Z</time>
      </trkpt>
      <trkpt lat="42.66267" lon="0.648827">
        <ele>2455</ele>
        <time>1970-01-01T00:49:37.000Z</time>
      </trkpt>
      <trkpt lat="42.662668" lon="0.648832">
        <ele>2455</ele>
        <time>1970-01-01T00:49:38.000Z</time>
      </trkpt>
      <trkpt lat="42.662666" lon="0.648838">
        <ele>2456.1</ele>
        <time>1970-01-01T00:49:39.000Z</time>
      </trkpt>
      <trkpt lat="42.662664" lon="0.648845">
        <ele>2456.1</ele>
        <time>1970-01-01T00:49:40.000Z</time>
      </trkpt>
      <trkpt lat="42.662662" lon="0.648848">
        <ele>2456.1</ele>
        <time>1970-01-01T00:49:41.000Z</time>
      </trkpt>
      <trkpt lat="42.662659" lon="0.648853">
        <ele>2456.1</ele>
        <time>1970-01-01T00:49:42.000Z</time>
      </trkpt>
      <trkpt lat="42.662658" lon="0.648854">
        <ele>2456.1</ele>
        <time>1970-01-01T00:49:43.000Z</time>
      </trkpt>
      <trkpt lat="42.662656" lon="0.648854">
        <ele>2456.1</ele>
        <time>1970-01-01T00:49:44.000Z</time>
      </trkpt>
      <trkpt lat="42.662656" lon="0.648852">
        <ele>2456.1</ele>
        <time>1970-01-01T00:49:45.000Z</time>
      </trkpt>
      <trkpt lat="42.662655" lon="0.648852">
        <ele>2456.1</ele>
        <time>1970-01-01T00:49:46.000Z</time>
      </trkpt>
      <trkpt lat="42.662654" lon="0.648851">
        <ele>2456.1</ele>
        <time>1970-01-01T00:49:47.000Z</time>
      </trkpt>
      <trkpt lat="42.662654" lon="0.648851">
        <ele>2456.1</ele>
        <time>1970-01-01T00:49:48.000Z</time>
      </trkpt>
      <trkpt lat="42.662654" lon="0.64885">
        <ele>2456.1</ele>
        <time>1970-01-01T00:49:49.000Z</time>
      </trkpt>
      <trkpt lat="42.662655" lon="0.648849">
        <ele>2456.1</ele>
        <time>1970-01-01T00:49:50.000Z</time>
      </trkpt>
      <trkpt lat="42.662654" lon="0.648849">
        <ele>2456.1</ele>
        <time>1970-01-01T00:49:51.000Z</time>
      </trkpt>
      <trkpt lat="42.662655" lon="0.648848">
        <ele>2456.1</ele>
        <time>1970-01-01T00:49:52.000Z</time>
      </trkpt>
      <trkpt lat="42.662654" lon="0.648848">
        <ele>2456.1</ele>
        <time>1970-01-01T00:49:53.000Z</time>
      </trkpt>
      <trkpt lat="42.662654" lon="0.648848">
        <ele>2456.1</ele>
        <time>1970-01-01T00:49:54.000Z</time>
      </trkpt>
      <trkpt lat="42.662653" lon="0.648847">
        <ele>2456.1</ele>
        <time>1970-01-01T00:49:55.000Z</time>
      </trkpt>
      <trkpt lat="42.662653" lon="0.648847">
        <ele>2456.1</ele>
        <time>1970-01-01T00:49:56.000Z</time>
      </trkpt>
      <trkpt lat="42.662653" lon="0.648848">
        <ele>2456.1</ele>
        <time>1970-01-01T00:49:57.000Z</time>
      </trkpt>
      <trkpt lat="42.662654" lon="0.648847">
        <ele>2456.1</ele>
        <time>1970-01-01T00:49:58.000Z</time>
      </trkpt>
      <trkpt lat="42.662654" lon="0.648847">
        <ele>2456.1</ele>
        <time>1970-01-01T00:49:59.000Z</time>
      </trkpt>
      <trkpt lat="42.662656" lon="0.648844">
        <ele>2456.1</ele>
        <time>1970-01-01T00:50:00.000Z</time>
      </trkpt>
      <trkpt lat="42.662658" lon="0.648842">
        <ele>2456.1</ele>
        <time>1970-01-01T00:50:01.000Z</time>
      </trkpt>
      <trkpt lat="42.662659" lon="0.648842">
        <ele>2456.1</ele>
        <time>1970-01-01T00:50:02.000Z</time>
      </trkpt>
      <trkpt lat="42.662659" lon="0.648841">
        <ele>2456.1</ele>
        <time>1970-01-01T00:50:03.000Z</time>
      </trkpt>
      <trkpt lat="42.662659" lon="0.648841">
        <ele>2456.1</ele>
        <time>1970-01-01T00:50:04.000Z</time>
      </trkpt>
      <trkpt lat="42.662659" lon="0.648841">
        <ele>2456.1</ele>
        <time>1970-01-01T00:50:05.000Z</time>
      </trkpt>
      <trkpt lat="42.662659" lon="0.64884">
        <ele>2456.1</ele>
        <time>1970-01-01T00:50:06.000Z</time>
      </trkpt>
      <trkpt lat="42.662659" lon="0.64884">
        <ele>2456.1</ele>
        <time>1970-01-01T00:50:07.000Z</time>
      </trkpt>
      <trkpt lat="42.662659" lon="0.64884">
        <ele>2456.1</ele>
        <time>1970-01-01T00:50:08.000Z</time>
      </trkpt>
      <trkpt lat="42.662659" lon="0.64884">
        <ele>2456.1</ele>
        <time>1970-01-01T00:50:09.000Z</time>
      </trkpt>
      <trkpt lat="42.662659" lon="0.64884">
        <ele>2456.1</ele>
        <time>1970-01-01T00:50:10.000Z</time>
      </trkpt>
      <trkpt lat="42.662659" lon="0.64884">
        <ele>2456.1</ele>
        <time>1970-01-01T00:50:11.000Z</time>
      </trkpt>
      <trkpt lat="42.662659" lon="0.64884">
        <ele>2456.1</ele>
        <time>1970-01-01T00:50:12.000Z</time>
      </trkpt>
      <trkpt lat="42.662659" lon="0.64884">
        <ele>2456.1</ele>
        <time>1970-01-01T00:50:13.000Z</time>
      </trkpt>
      <trkpt lat="42.662659" lon="0.64884">
        <ele>2456.1</ele>
        <time>1970-01-01T00:50:14.000Z</time>
      </trkpt>
      <trkpt lat="42.662659" lon="0.64884">
        <ele>2456.1</ele>
        <time>1970-01-01T00:50:15.000Z</time>
      </trkpt>
      <trkpt lat="42.662659" lon="0.64884">
        <ele>2456.1</ele>
        <time>1970-01-01T00:50:16.000Z</time>
      </trkpt>
      <trkpt lat="42.662659" lon="0.64884">
        <ele>2456.1</ele>
        <time>1970-01-01T00:50:17.000Z</time>
      </trkpt>
      <trkpt lat="42.662659" lon="0.64884">
        <ele>2456.1</ele>
        <time>1970-01-01T00:50:18.000Z</time>
      </trkpt>
      <trkpt lat="42.662659" lon="0.64884">
        <ele>2456.1</ele>
        <time>1970-01-01T00:50:19.000Z</time>
      </trkpt>
      <trkpt lat="42.662659" lon="0.64884">
        <ele>2456.1</ele>
        <time>1970-01-01T00:50:20.000Z</time>
      </trkpt>
      <trkpt lat="42.662659" lon="0.64884">
        <ele>2456.1</ele>
        <time>1970-01-01T00:50:21.000Z</time>
      </trkpt>
      <trkpt lat="42.662659" lon="0.64884">
        <ele>2456.1</ele>
        <time>1970-01-01T00:50:22.000Z</time>
      </trkpt>
      <trkpt lat="42.662659" lon="0.64884">
        <ele>2456.1</ele>
        <time>1970-01-01T00:50:23.000Z</time>
      </trkpt>
      <trkpt lat="42.662659" lon="0.64884">
        <ele>2456.1</ele>
        <time>1970-01-01T00:50:24.000Z</time>
      </trkpt>
      <trkpt lat="42.662659" lon="0.64884">
        <ele>2456.1</ele>
        <time>1970-01-01T00:50:25.000Z</time>
      </trkpt>
      <trkpt lat="42.662659" lon="0.64884">
        <ele>2456.1</ele>
        <time>1970-01-01T00:50:26.000Z</time>
      </trkpt>
      <trkpt lat="42.662659" lon="0.64884">
        <ele>2456.1</ele>
        <time>1970-01-01T00:50:27.000Z</time>
      </trkpt>
      <trkpt lat="42.662659" lon="0.64884">
        <ele>2456.1</ele>
        <time>1970-01-01T00:50:28.000Z</time>
      </trkpt>
      <trkpt lat="42.66266" lon="0.64884">
        <ele>2456.1</ele>
        <time>1970-01-01T00:50:29.000Z</time>
      </trkpt>
      <trkpt lat="42.662659" lon="0.64884">
        <ele>2456.1</ele>
        <time>1970-01-01T00:50:30.000Z</time>
      </trkpt>
      <trkpt lat="42.662659" lon="0.64884">
        <ele>2456.1</ele>
        <time>1970-01-01T00:50:31.000Z</time>
      </trkpt>
      <trkpt lat="42.662659" lon="0.64884">
        <ele>2456.1</ele>
        <time>1970-01-01T00:50:32.000Z</time>
      </trkpt>
      <trkpt lat="42.662659" lon="0.64884">
        <ele>2456.1</ele>
        <time>1970-01-01T00:50:33.000Z</time>
      </trkpt>
      <trkpt lat="42.662659" lon="0.64884">
        <ele>2456.1</ele>
        <time>1970-01-01T00:50:34.000Z</time>
      </trkpt>
      <trkpt lat="42.66266" lon="0.64884">
        <ele>2456.1</ele>
        <time>1970-01-01T00:50:35.000Z</time>
      </trkpt>
      <trkpt lat="42.662662" lon="0.648835">
        <ele>2455</ele>
        <time>1970-01-01T00:50:36.000Z</time>
      </trkpt>
      <trkpt lat="42.662663" lon="0.648829">
        <ele>2455</ele>
        <time>1970-01-01T00:50:37.000Z</time>
      </trkpt>
      <trkpt lat="42.662663" lon="0.648824">
        <ele>2455</ele>
        <time>1970-01-01T00:50:38.000Z</time>
      </trkpt>
      <trkpt lat="42.662662" lon="0.648819">
        <ele>2455</ele>
        <time>1970-01-01T00:50:39.000Z</time>
      </trkpt>
      <trkpt lat="42.662661" lon="0.648817">
        <ele>2455</ele>
        <time>1970-01-01T00:50:40.000Z</time>
      </trkpt>
      <trkpt lat="42.662661" lon="0.648816">
        <ele>2455</ele>
        <time>1970-01-01T00:50:41.000Z</time>
      </trkpt>
      <trkpt lat="42.662661" lon="0.648816">
        <ele>2455</ele>
        <time>1970-01-01T00:50:42.000Z</time>
      </trkpt>
      <trkpt lat="42.662661" lon="0.648821">
        <ele>2455</ele>
        <time>1970-01-01T00:50:43.000Z</time>
      </trkpt>
      <trkpt lat="42.662661" lon="0.648822">
        <ele>2455</ele>
        <time>1970-01-01T00:50:44.000Z</time>
      </trkpt>
      <trkpt lat="42.662661" lon="0.648823">
        <ele>2455</ele>
        <time>1970-01-01T00:50:45.000Z</time>
      </trkpt>
      <trkpt lat="42.662662" lon="0.648823">
        <ele>2455</ele>
        <time>1970-01-01T00:50:46.000Z</time>
      </trkpt>
      <trkpt lat="42.662662" lon="0.648823">
        <ele>2455</ele>
        <time>1970-01-01T00:50:47.000Z</time>
      </trkpt>
      <trkpt lat="42.662663" lon="0.648823">
        <ele>2455</ele>
        <time>1970-01-01T00:50:48.000Z</time>
      </trkpt>
      <trkpt lat="42.662664" lon="0.648823">
        <ele>2455</ele>
        <time>1970-01-01T00:50:49.000Z</time>
      </trkpt>
      <trkpt lat="42.662667" lon="0.648823">
        <ele>2455</ele>
        <time>1970-01-01T00:50:50.000Z</time>
      </trkpt>
      <trkpt lat="42.66267" lon="0.648821">
        <ele>2455</ele>
        <time>1970-01-01T00:50:51.000Z</time>
      </trkpt>
      <trkpt lat="42.662672" lon="0.648819">
        <ele>2455</ele>
        <time>1970-01-01T00:50:52.000Z</time>
      </trkpt>
      <trkpt lat="42.662673" lon="0.648817">
        <ele>2455</ele>
        <time>1970-01-01T00:50:53.000Z</time>
      </trkpt>
      <trkpt lat="42.662674" lon="0.648815">
        <ele>2455</ele>
        <time>1970-01-01T00:50:54.000Z</time>
      </trkpt>
      <trkpt lat="42.662676" lon="0.648813">
        <ele>2455</ele>
        <time>1970-01-01T00:50:55.000Z</time>
      </trkpt>
      <trkpt lat="42.662677" lon="0.648812">
        <ele>2455</ele>
        <time>1970-01-01T00:50:56.000Z</time>
      </trkpt>
      <trkpt lat="42.662677" lon="0.64881">
        <ele>2455</ele>
        <time>1970-01-01T00:50:57.000Z</time>
      </trkpt>
      <trkpt lat="42.662678" lon="0.64881">
        <ele>2455</ele>
        <time>1970-01-01T00:50:58.000Z</time>
      </trkpt>
      <trkpt lat="42.662678" lon="0.64881">
        <ele>2455</ele>
        <time>1970-01-01T00:50:59.000Z</time>
      </trkpt>
      <trkpt lat="42.662678" lon="0.64881">
        <ele>2455</ele>
        <time>1970-01-01T00:51:00.000Z</time>
      </trkpt>
      <trkpt lat="42.662678" lon="0.64881">
        <ele>2455</ele>
        <time>1970-01-01T00:51:01.000Z</time>
      </trkpt>
      <trkpt lat="42.662678" lon="0.648811">
        <ele>2455</ele>
        <time>1970-01-01T00:51:03.000Z</time>
      </trkpt>
      <trkpt lat="42.662678" lon="0.648811">
        <ele>2455</ele>
        <time>1970-01-01T00:51:04.000Z</time>
      </trkpt>
      <trkpt lat="42.662679" lon="0.64881">
        <ele>2455</ele>
        <time>1970-01-01T00:51:05.000Z</time>
      </trkpt>
      <trkpt lat="42.66268" lon="0.648809">
        <ele>2455</ele>
        <time>1970-01-01T00:51:06.000Z</time>
      </trkpt>
      <trkpt lat="42.662682" lon="0.648808">
        <ele>2455</ele>
        <time>1970-01-01T00:51:07.000Z</time>
      </trkpt>
      <trkpt lat="42.662692" lon="0.648817">
        <ele>2453.8</ele>
        <time>1970-01-01T00:51:09.000Z</time>
      </trkpt>
      <trkpt lat="42.662695" lon="0.648828">
        <ele>2453.8</ele>
        <time>1970-01-01T00:51:10.000Z</time>
      </trkpt>
      <trkpt lat="42.662701" lon="0.648839">
        <ele>2454.8</ele>
        <time>1970-01-01T00:51:11.000Z</time>
      </trkpt>
      <trkpt lat="42.662707" lon="0.648848">
        <ele>2454.8</ele>
        <time>1970-01-01T00:51:12.000Z</time>
      </trkpt>
      <trkpt lat="42.662717" lon="0.648863">
        <ele>2453.4</ele>
        <time>1970-01-01T00:51:13.000Z</time>
      </trkpt>
      <trkpt lat="42.662721" lon="0.648876">
        <ele>2453.4</ele>
        <time>1970-01-01T00:51:15.000Z</time>
      </trkpt>
      <trkpt lat="42.662726" lon="0.648888">
        <ele>2454.4</ele>
        <time>1970-01-01T00:51:16.000Z</time>
      </trkpt>
      <trkpt lat="42.662734" lon="0.648896">
        <ele>2454.4</ele>
        <time>1970-01-01T00:51:17.000Z</time>
      </trkpt>
      <trkpt lat="42.662747" lon="0.648902">
        <ele>2453</ele>
        <time>1970-01-01T00:51:18.000Z</time>
      </trkpt>
      <trkpt lat="42.662757" lon="0.648904">
        <ele>2453</ele>
        <time>1970-01-01T00:51:20.000Z</time>
      </trkpt>
      <trkpt lat="42.662763" lon="0.648905">
        <ele>2453</ele>
        <time>1970-01-01T00:51:21.000Z</time>
      </trkpt>
      <trkpt lat="42.662767" lon="0.648908">
        <ele>2453</ele>
        <time>1970-01-01T00:51:22.000Z</time>
      </trkpt>
      <trkpt lat="42.66277" lon="0.64891">
        <ele>2453</ele>
        <time>1970-01-01T00:51:23.000Z</time>
      </trkpt>
      <trkpt lat="42.662771" lon="0.648913">
        <ele>2453</ele>
        <time>1970-01-01T00:51:24.000Z</time>
      </trkpt>
      <trkpt lat="42.662773" lon="0.648923">
        <ele>2454</ele>
        <time>1970-01-01T00:51:25.000Z</time>
      </trkpt>
      <trkpt lat="42.662775" lon="0.648935">
        <ele>2454</ele>
        <time>1970-01-01T00:51:27.000Z</time>
      </trkpt>
      <trkpt lat="42.66278" lon="0.648951">
        <ele>2452.6</ele>
        <time>1970-01-01T00:51:28.000Z</time>
      </trkpt>
      <trkpt lat="42.662784" lon="0.648964">
        <ele>2452.6</ele>
        <time>1970-01-01T00:51:29.000Z</time>
      </trkpt>
      <trkpt lat="42.662788" lon="0.648975">
        <ele>2453.6</ele>
        <time>1970-01-01T00:51:31.000Z</time>
      </trkpt>
      <trkpt lat="42.662792" lon="0.648989">
        <ele>2453.6</ele>
        <time>1970-01-01T00:51:32.000Z</time>
      </trkpt>
      <trkpt lat="42.662796" lon="0.649001">
        <ele>2453.6</ele>
        <time>1970-01-01T00:51:33.000Z</time>
      </trkpt>
      <trkpt lat="42.662799" lon="0.649015">
        <ele>2454.6</ele>
        <time>1970-01-01T00:51:34.000Z</time>
      </trkpt>
      <trkpt lat="42.662802" lon="0.64903">
        <ele>2454.6</ele>
        <time>1970-01-01T00:51:36.000Z</time>
      </trkpt>
      <trkpt lat="42.662804" lon="0.649043">
        <ele>2454.6</ele>
        <time>1970-01-01T00:51:37.000Z</time>
      </trkpt>
      <trkpt lat="42.662807" lon="0.649053">
        <ele>2455.6</ele>
        <time>1970-01-01T00:51:38.000Z</time>
      </trkpt>
      <trkpt lat="42.662811" lon="0.649066">
        <ele>2454.3</ele>
        <time>1970-01-01T00:51:39.000Z</time>
      </trkpt>
      <trkpt lat="42.662815" lon="0.649076">
        <ele>2454.3</ele>
        <time>1970-01-01T00:51:41.000Z</time>
      </trkpt>
      <trkpt lat="42.662819" lon="0.649087">
        <ele>2454.3</ele>
        <time>1970-01-01T00:51:42.000Z</time>
      </trkpt>
      <trkpt lat="42.662823" lon="0.649099">
        <ele>2455.3</ele>
        <time>1970-01-01T00:51:44.000Z</time>
      </trkpt>
      <trkpt lat="42.662827" lon="0.649105">
        <ele>2455.3</ele>
        <time>1970-01-01T00:51:45.000Z</time>
      </trkpt>
      <trkpt lat="42.66283" lon="0.649111">
        <ele>2455.3</ele>
        <time>1970-01-01T00:51:46.000Z</time>
      </trkpt>
      <trkpt lat="42.662829" lon="0.64912">
        <ele>2455.3</ele>
        <time>1970-01-01T00:51:47.000Z</time>
      </trkpt>
      <trkpt lat="42.662828" lon="0.649131">
        <ele>2455.3</ele>
        <time>1970-01-01T00:51:48.000Z</time>
      </trkpt>
      <trkpt lat="42.662829" lon="0.649143">
        <ele>2456.4</ele>
        <time>1970-01-01T00:51:49.000Z</time>
      </trkpt>
      <trkpt lat="42.66283" lon="0.649155">
        <ele>2456.4</ele>
        <time>1970-01-01T00:51:51.000Z</time>
      </trkpt>
      <trkpt lat="42.662833" lon="0.649168">
        <ele>2456.4</ele>
        <time>1970-01-01T00:51:53.000Z</time>
      </trkpt>
      <trkpt lat="42.662836" lon="0.649181">
        <ele>2457.5</ele>
        <time>1970-01-01T00:51:54.000Z</time>
      </trkpt>
      <trkpt lat="42.662835" lon="0.649186">
        <ele>2457.5</ele>
        <time>1970-01-01T00:51:55.000Z</time>
      </trkpt>
      <trkpt lat="42.662834" lon="0.649194">
        <ele>2457.5</ele>
        <time>1970-01-01T00:51:56.000Z</time>
      </trkpt>
      <trkpt lat="42.662832" lon="0.649205">
        <ele>2457.5</ele>
        <time>1970-01-01T00:51:58.000Z</time>
      </trkpt>
      <trkpt lat="42.662834" lon="0.64921">
        <ele>2457.5</ele>
        <time>1970-01-01T00:51:59.000Z</time>
      </trkpt>
      <trkpt lat="42.662839" lon="0.649215">
        <ele>2457.5</ele>
        <time>1970-01-01T00:52:01.000Z</time>
      </trkpt>
      <trkpt lat="42.662842" lon="0.649224">
        <ele>2457.5</ele>
        <time>1970-01-01T00:52:03.000Z</time>
      </trkpt>
      <trkpt lat="42.662842" lon="0.649236">
        <ele>2457.5</ele>
        <time>1970-01-01T00:52:04.000Z</time>
      </trkpt>
      <trkpt lat="42.662844" lon="0.649243">
        <ele>2457.5</ele>
        <time>1970-01-01T00:52:05.000Z</time>
      </trkpt>
      <trkpt lat="42.662849" lon="0.649254">
        <ele>2457.5</ele>
        <time>1970-01-01T00:52:06.000Z</time>
      </trkpt>
      <trkpt lat="42.662854" lon="0.649264">
        <ele>2457.5</ele>
        <time>1970-01-01T00:52:08.000Z</time>
      </trkpt>
      <trkpt lat="42.662858" lon="0.649276">
        <ele>2458.7</ele>
        <time>1970-01-01T00:52:09.000Z</time>
      </trkpt>
      <trkpt lat="42.662861" lon="0.649288">
        <ele>2458.7</ele>
        <time>1970-01-01T00:52:11.000Z</time>
      </trkpt>
      <trkpt lat="42.662866" lon="0.649301">
        <ele>2458.7</ele>
        <time>1970-01-01T00:52:12.000Z</time>
      </trkpt>
      <trkpt lat="42.662871" lon="0.649312">
        <ele>2460</ele>
        <time>1970-01-01T00:52:13.000Z</time>
      </trkpt>
      <trkpt lat="42.662878" lon="0.649326">
        <ele>2458.8</ele>
        <time>1970-01-01T00:52:15.000Z</time>
      </trkpt>
      <trkpt lat="42.662882" lon="0.649336">
        <ele>2458.8</ele>
        <time>1970-01-01T00:52:16.000Z</time>
      </trkpt>
      <trkpt lat="42.662884" lon="0.649342">
        <ele>2458.8</ele>
        <time>1970-01-01T00:52:17.000Z</time>
      </trkpt>
      <trkpt lat="42.662885" lon="0.649351">
        <ele>2458.8</ele>
        <time>1970-01-01T00:52:18.000Z</time>
      </trkpt>
      <trkpt lat="42.662885" lon="0.649361">
        <ele>2460.1</ele>
        <time>1970-01-01T00:52:19.000Z</time>
      </trkpt>
      <trkpt lat="42.662886" lon="0.64937">
        <ele>2460.1</ele>
        <time>1970-01-01T00:52:20.000Z</time>
      </trkpt>
      <trkpt lat="42.662891" lon="0.649385">
        <ele>2460.1</ele>
        <time>1970-01-01T00:52:22.000Z</time>
      </trkpt>
      <trkpt lat="42.662892" lon="0.649395">
        <ele>2461.2</ele>
        <time>1970-01-01T00:52:23.000Z</time>
      </trkpt>
      <trkpt lat="42.662892" lon="0.649405">
        <ele>2461.2</ele>
        <time>1970-01-01T00:52:24.000Z</time>
      </trkpt>
      <trkpt lat="42.662889" lon="0.649424">
        <ele>2461.2</ele>
        <time>1970-01-01T00:52:26.000Z</time>
      </trkpt>
      <trkpt lat="42.66289" lon="0.649439">
        <ele>2462.4</ele>
        <time>1970-01-01T00:52:27.000Z</time>
      </trkpt>
      <trkpt lat="42.662893" lon="0.649452">
        <ele>2462.4</ele>
        <time>1970-01-01T00:52:28.000Z</time>
      </trkpt>
      <trkpt lat="42.662895" lon="0.649461">
        <ele>2462.4</ele>
        <time>1970-01-01T00:52:29.000Z</time>
      </trkpt>
      <trkpt lat="42.662888" lon="0.649474">
        <ele>2462.4</ele>
        <time>1970-01-01T00:52:31.000Z</time>
      </trkpt>
      <trkpt lat="42.662882" lon="0.649477">
        <ele>2462.4</ele>
        <time>1970-01-01T00:52:32.000Z</time>
      </trkpt>
      <trkpt lat="42.662879" lon="0.649479">
        <ele>2462.4</ele>
        <time>1970-01-01T00:52:33.000Z</time>
      </trkpt>
      <trkpt lat="42.662877" lon="0.649481">
        <ele>2463.5</ele>
        <time>1970-01-01T00:52:34.000Z</time>
      </trkpt>
      <trkpt lat="42.662873" lon="0.649483">
        <ele>2463.5</ele>
        <time>1970-01-01T00:52:35.000Z</time>
      </trkpt>
      <trkpt lat="42.662868" lon="0.649488">
        <ele>2464.6</ele>
        <time>1970-01-01T00:52:36.000Z</time>
      </trkpt>
      <trkpt lat="42.662863" lon="0.64949">
        <ele>2464.6</ele>
        <time>1970-01-01T00:52:37.000Z</time>
      </trkpt>
      <trkpt lat="42.662859" lon="0.649497">
        <ele>2464.6</ele>
        <time>1970-01-01T00:52:39.000Z</time>
      </trkpt>
      <trkpt lat="42.662859" lon="0.649503">
        <ele>2464.6</ele>
        <time>1970-01-01T00:52:40.000Z</time>
      </trkpt>
      <trkpt lat="42.662863" lon="0.649511">
        <ele>2464.6</ele>
        <time>1970-01-01T00:52:41.000Z</time>
      </trkpt>
      <trkpt lat="42.662868" lon="0.64952">
        <ele>2464.6</ele>
        <time>1970-01-01T00:52:42.000Z</time>
      </trkpt>
      <trkpt lat="42.662869" lon="0.64953">
        <ele>2465.7</ele>
        <time>1970-01-01T00:52:44.000Z</time>
      </trkpt>
      <trkpt lat="42.662871" lon="0.64954">
        <ele>2465.7</ele>
        <time>1970-01-01T00:52:45.000Z</time>
      </trkpt>
      <trkpt lat="42.662873" lon="0.649546">
        <ele>2464.5</ele>
        <time>1970-01-01T00:52:46.000Z</time>
      </trkpt>
      <trkpt lat="42.662876" lon="0.649554">
        <ele>2464.5</ele>
        <time>1970-01-01T00:52:47.000Z</time>
      </trkpt>
      <trkpt lat="42.662879" lon="0.649568">
        <ele>2465.6</ele>
        <time>1970-01-01T00:52:49.000Z</time>
      </trkpt>
      <trkpt lat="42.662881" lon="0.649578">
        <ele>2465.6</ele>
        <time>1970-01-01T00:52:50.000Z</time>
      </trkpt>
      <trkpt lat="42.662882" lon="0.649584">
        <ele>2465.6</ele>
        <time>1970-01-01T00:52:51.000Z</time>
      </trkpt>
      <trkpt lat="42.662885" lon="0.649591">
        <ele>2465.6</ele>
        <time>1970-01-01T00:52:52.000Z</time>
      </trkpt>
      <trkpt lat="42.662888" lon="0.649596">
        <ele>2465.6</ele>
        <time>1970-01-01T00:52:53.000Z</time>
      </trkpt>
      <trkpt lat="42.662889" lon="0.649602">
        <ele>2465.6</ele>
        <time>1970-01-01T00:52:54.000Z</time>
      </trkpt>
      <trkpt lat="42.662888" lon="0.649609">
        <ele>2465.6</ele>
        <time>1970-01-01T00:52:55.000Z</time>
      </trkpt>
      <trkpt lat="42.662886" lon="0.649623">
        <ele>2466.7</ele>
        <time>1970-01-01T00:52:57.000Z</time>
      </trkpt>
      <trkpt lat="42.662887" lon="0.649629">
        <ele>2466.7</ele>
        <time>1970-01-01T00:52:58.000Z</time>
      </trkpt>
      <trkpt lat="42.662891" lon="0.649635">
        <ele>2466.7</ele>
        <time>1970-01-01T00:52:59.000Z</time>
      </trkpt>
      <trkpt lat="42.662896" lon="0.649637">
        <ele>2466.7</ele>
        <time>1970-01-01T00:53:00.000Z</time>
      </trkpt>
      <trkpt lat="42.66291" lon="0.649639">
        <ele>2465.5</ele>
        <time>1970-01-01T00:53:02.000Z</time>
      </trkpt>
      <trkpt lat="42.662916" lon="0.649639">
        <ele>2465.5</ele>
        <time>1970-01-01T00:53:03.000Z</time>
      </trkpt>
      <trkpt lat="42.662925" lon="0.649642">
        <ele>2465.5</ele>
        <time>1970-01-01T00:53:05.000Z</time>
      </trkpt>
      <trkpt lat="42.662929" lon="0.649644">
        <ele>2465.5</ele>
        <time>1970-01-01T00:53:06.000Z</time>
      </trkpt>
      <trkpt lat="42.662935" lon="0.64965">
        <ele>2465.5</ele>
        <time>1970-01-01T00:53:07.000Z</time>
      </trkpt>
      <trkpt lat="42.662936" lon="0.649661">
        <ele>2465.5</ele>
        <time>1970-01-01T00:53:09.000Z</time>
      </trkpt>
      <trkpt lat="42.662934" lon="0.64967">
        <ele>2466.7</ele>
        <time>1970-01-01T00:53:10.000Z</time>
      </trkpt>
      <trkpt lat="42.66293" lon="0.649677">
        <ele>2466.7</ele>
        <time>1970-01-01T00:53:11.000Z</time>
      </trkpt>
      <trkpt lat="42.662927" lon="0.649682">
        <ele>2466.7</ele>
        <time>1970-01-01T00:53:12.000Z</time>
      </trkpt>
      <trkpt lat="42.662924" lon="0.64969">
        <ele>2466.7</ele>
        <time>1970-01-01T00:53:13.000Z</time>
      </trkpt>
      <trkpt lat="42.662921" lon="0.649706">
        <ele>2467.9</ele>
        <time>1970-01-01T00:53:15.000Z</time>
      </trkpt>
      <trkpt lat="42.662923" lon="0.649723">
        <ele>2467.9</ele>
        <time>1970-01-01T00:53:17.000Z</time>
      </trkpt>
      <trkpt lat="42.662927" lon="0.649731">
        <ele>2467.9</ele>
        <time>1970-01-01T00:53:18.000Z</time>
      </trkpt>
      <trkpt lat="42.662931" lon="0.649735">
        <ele>2467.9</ele>
        <time>1970-01-01T00:53:19.000Z</time>
      </trkpt>
      <trkpt lat="42.662933" lon="0.649739">
        <ele>2469.2</ele>
        <time>1970-01-01T00:53:20.000Z</time>
      </trkpt>
      <trkpt lat="42.662933" lon="0.649743">
        <ele>2469.2</ele>
        <time>1970-01-01T00:53:21.000Z</time>
      </trkpt>
      <trkpt lat="42.662928" lon="0.649751">
        <ele>2469.2</ele>
        <time>1970-01-01T00:53:23.000Z</time>
      </trkpt>
      <trkpt lat="42.662927" lon="0.649755">
        <ele>2469.2</ele>
        <time>1970-01-01T00:53:24.000Z</time>
      </trkpt>
      <trkpt lat="42.662925" lon="0.649758">
        <ele>2469.2</ele>
        <time>1970-01-01T00:53:25.000Z</time>
      </trkpt>
      <trkpt lat="42.662925" lon="0.649763">
        <ele>2469.2</ele>
        <time>1970-01-01T00:53:26.000Z</time>
      </trkpt>
      <trkpt lat="42.662926" lon="0.649763">
        <ele>2469.2</ele>
        <time>1970-01-01T00:53:27.000Z</time>
      </trkpt>
      <trkpt lat="42.662926" lon="0.64976">
        <ele>2469.2</ele>
        <time>1970-01-01T00:53:28.000Z</time>
      </trkpt>
      <trkpt lat="42.662927" lon="0.649757">
        <ele>2469.2</ele>
        <time>1970-01-01T00:53:29.000Z</time>
      </trkpt>
      <trkpt lat="42.662927" lon="0.649753">
        <ele>2469.2</ele>
        <time>1970-01-01T00:53:30.000Z</time>
      </trkpt>
      <trkpt lat="42.662927" lon="0.649752">
        <ele>2469.2</ele>
        <time>1970-01-01T00:53:31.000Z</time>
      </trkpt>
      <trkpt lat="42.662926" lon="0.649752">
        <ele>2469.2</ele>
        <time>1970-01-01T00:53:32.000Z</time>
      </trkpt>
      <trkpt lat="42.662925" lon="0.649753">
        <ele>2469.2</ele>
        <time>1970-01-01T00:53:34.000Z</time>
      </trkpt>
      <trkpt lat="42.662925" lon="0.649753">
        <ele>2469.2</ele>
        <time>1970-01-01T00:53:35.000Z</time>
      </trkpt>
      <trkpt lat="42.662926" lon="0.649754">
        <ele>2469.2</ele>
        <time>1970-01-01T00:53:36.000Z</time>
      </trkpt>
      <trkpt lat="42.662926" lon="0.649754">
        <ele>2469.2</ele>
        <time>1970-01-01T00:53:37.000Z</time>
      </trkpt>
      <trkpt lat="42.662926" lon="0.649754">
        <ele>2469.2</ele>
        <time>1970-01-01T00:53:38.000Z</time>
      </trkpt>
      <trkpt lat="42.662927" lon="0.649755">
        <ele>2469.2</ele>
        <time>1970-01-01T00:53:39.000Z</time>
      </trkpt>
      <trkpt lat="42.662928" lon="0.649757">
        <ele>2469.2</ele>
        <time>1970-01-01T00:53:40.000Z</time>
      </trkpt>
      <trkpt lat="42.66293" lon="0.649759">
        <ele>2469.2</ele>
        <time>1970-01-01T00:53:41.000Z</time>
      </trkpt>
      <trkpt lat="42.662934" lon="0.649764">
        <ele>2469.2</ele>
        <time>1970-01-01T00:53:42.000Z</time>
      </trkpt>
      <trkpt lat="42.662937" lon="0.649769">
        <ele>2468</ele>
        <time>1970-01-01T00:53:43.000Z</time>
      </trkpt>
      <trkpt lat="42.662939" lon="0.649772">
        <ele>2468</ele>
        <time>1970-01-01T00:53:44.000Z</time>
      </trkpt>
      <trkpt lat="42.66294" lon="0.649778">
        <ele>2468</ele>
        <time>1970-01-01T00:53:45.000Z</time>
      </trkpt>
      <trkpt lat="42.662943" lon="0.649782">
        <ele>2469.2</ele>
        <time>1970-01-01T00:53:47.000Z</time>
      </trkpt>
      <trkpt lat="42.662947" lon="0.649777">
        <ele>2468</ele>
        <time>1970-01-01T00:53:48.000Z</time>
      </trkpt>
      <trkpt lat="42.662948" lon="0.649774">
        <ele>2468</ele>
        <time>1970-01-01T00:53:49.000Z</time>
      </trkpt>
      <trkpt lat="42.66295" lon="0.64977">
        <ele>2468</ele>
        <time>1970-01-01T00:53:50.000Z</time>
      </trkpt>
      <trkpt lat="42.662951" lon="0.649767">
        <ele>2468</ele>
        <time>1970-01-01T00:53:51.000Z</time>
      </trkpt>
      <trkpt lat="42.662953" lon="0.649766">
        <ele>2468</ele>
        <time>1970-01-01T00:53:52.000Z</time>
      </trkpt>
      <trkpt lat="42.662954" lon="0.649765">
        <ele>2468</ele>
        <time>1970-01-01T00:53:53.000Z</time>
      </trkpt>
      <trkpt lat="42.662954" lon="0.649764">
        <ele>2468</ele>
        <time>1970-01-01T00:53:54.000Z</time>
      </trkpt>
      <trkpt lat="42.662955" lon="0.649763">
        <ele>2468</ele>
        <time>1970-01-01T00:53:55.000Z</time>
      </trkpt>
      <trkpt lat="42.662955" lon="0.649761">
        <ele>2468</ele>
        <time>1970-01-01T00:53:56.000Z</time>
      </trkpt>
      <trkpt lat="42.662956" lon="0.64976">
        <ele>2468</ele>
        <time>1970-01-01T00:53:57.000Z</time>
      </trkpt>
      <trkpt lat="42.662957" lon="0.649759">
        <ele>2468</ele>
        <time>1970-01-01T00:53:58.000Z</time>
      </trkpt>
      <trkpt lat="42.662957" lon="0.649759">
        <ele>2468</ele>
        <time>1970-01-01T00:53:59.000Z</time>
      </trkpt>
      <trkpt lat="42.662957" lon="0.649758">
        <ele>2468</ele>
        <time>1970-01-01T00:54:00.000Z</time>
      </trkpt>
      <trkpt lat="42.662957" lon="0.649758">
        <ele>2468</ele>
        <time>1970-01-01T00:54:01.000Z</time>
      </trkpt>
      <trkpt lat="42.662958" lon="0.649758">
        <ele>2468</ele>
        <time>1970-01-01T00:54:02.000Z</time>
      </trkpt>
      <trkpt lat="42.662958" lon="0.649758">
        <ele>2468</ele>
        <time>1970-01-01T00:54:03.000Z</time>
      </trkpt>
      <trkpt lat="42.662959" lon="0.649758">
        <ele>2468</ele>
        <time>1970-01-01T00:54:04.000Z</time>
      </trkpt>
      <trkpt lat="42.662959" lon="0.649758">
        <ele>2468</ele>
        <time>1970-01-01T00:54:05.000Z</time>
      </trkpt>
      <trkpt lat="42.662959" lon="0.649762">
        <ele>2468</ele>
        <time>1970-01-01T00:54:06.000Z</time>
      </trkpt>
      <trkpt lat="42.662959" lon="0.649764">
        <ele>2468</ele>
        <time>1970-01-01T00:54:07.000Z</time>
      </trkpt>
      <trkpt lat="42.662959" lon="0.649765">
        <ele>2468</ele>
        <time>1970-01-01T00:54:08.000Z</time>
      </trkpt>
      <trkpt lat="42.662959" lon="0.649766">
        <ele>2468</ele>
        <time>1970-01-01T00:54:09.000Z</time>
      </trkpt>
      <trkpt lat="42.662959" lon="0.649766">
        <ele>2468</ele>
        <time>1970-01-01T00:54:10.000Z</time>
      </trkpt>
      <trkpt lat="42.662959" lon="0.649766">
        <ele>2468</ele>
        <time>1970-01-01T00:54:11.000Z</time>
      </trkpt>
      <trkpt lat="42.662959" lon="0.649766">
        <ele>2468</ele>
        <time>1970-01-01T00:54:12.000Z</time>
      </trkpt>
      <trkpt lat="42.662959" lon="0.649766">
        <ele>2468</ele>
        <time>1970-01-01T00:54:13.000Z</time>
      </trkpt>
      <trkpt lat="42.662959" lon="0.649766">
        <ele>2468</ele>
        <time>1970-01-01T00:54:14.000Z</time>
      </trkpt>
      <trkpt lat="42.662959" lon="0.649766">
        <ele>2468</ele>
        <time>1970-01-01T00:54:15.000Z</time>
      </trkpt>
      <trkpt lat="42.662959" lon="0.649766">
        <ele>2468</ele>
        <time>1970-01-01T00:54:16.000Z</time>
      </trkpt>
      <trkpt lat="42.662959" lon="0.649766">
        <ele>2468</ele>
        <time>1970-01-01T00:54:17.000Z</time>
      </trkpt>
      <trkpt lat="42.662959" lon="0.649766">
        <ele>2468</ele>
        <time>1970-01-01T00:54:18.000Z</time>
      </trkpt>
      <trkpt lat="42.662959" lon="0.649766">
        <ele>2468</ele>
        <time>1970-01-01T00:54:19.000Z</time>
      </trkpt>
      <trkpt lat="42.662959" lon="0.649766">
        <ele>2468</ele>
        <time>1970-01-01T00:54:20.000Z</time>
      </trkpt>
      <trkpt lat="42.662959" lon="0.649766">
        <ele>2468</ele>
        <time>1970-01-01T00:54:21.000Z</time>
      </trkpt>
      <trkpt lat="42.662959" lon="0.649766">
        <ele>2468</ele>
        <time>1970-01-01T00:54:22.000Z</time>
      </trkpt>
      <trkpt lat="42.662959" lon="0.649766">
        <ele>2468</ele>
        <time>1970-01-01T00:54:23.000Z</time>
      </trkpt>
      <trkpt lat="42.662959" lon="0.649766">
        <ele>2468</ele>
        <time>1970-01-01T00:54:24.000Z</time>
      </trkpt>
      <trkpt lat="42.662959" lon="0.649766">
        <ele>2468</ele>
        <time>1970-01-01T00:54:25.000Z</time>
      </trkpt>
      <trkpt lat="42.662959" lon="0.649766">
        <ele>2468</ele>
        <time>1970-01-01T00:54:26.000Z</time>
      </trkpt>
      <trkpt lat="42.662959" lon="0.649766">
        <ele>2468</ele>
        <time>1970-01-01T00:54:27.000Z</time>
      </trkpt>
      <trkpt lat="42.662959" lon="0.649766">
        <ele>2468</ele>
        <time>1970-01-01T00:54:28.000Z</time>
      </trkpt>
      <trkpt lat="42.662959" lon="0.649766">
        <ele>2468</ele>
        <time>1970-01-01T00:54:29.000Z</time>
      </trkpt>
      <trkpt lat="42.662959" lon="0.649766">
        <ele>2468</ele>
        <time>1970-01-01T00:54:30.000Z</time>
      </trkpt>
      <trkpt lat="42.662959" lon="0.649766">
        <ele>2468</ele>
        <time>1970-01-01T00:54:31.000Z</time>
      </trkpt>
      <trkpt lat="42.662959" lon="0.649766">
        <ele>2468</ele>
        <time>1970-01-01T00:54:32.000Z</time>
      </trkpt>
      <trkpt lat="42.662959" lon="0.649766">
        <ele>2468</ele>
        <time>1970-01-01T00:54:33.000Z</time>
      </trkpt>
      <trkpt lat="42.662959" lon="0.649766">
        <ele>2468</ele>
        <time>1970-01-01T00:54:34.000Z</time>
      </trkpt>
      <trkpt lat="42.662959" lon="0.649766">
        <ele>2468</ele>
        <time>1970-01-01T00:54:35.000Z</time>
      </trkpt>
      <trkpt lat="42.662959" lon="0.649766">
        <ele>2468</ele>
        <time>1970-01-01T00:54:36.000Z</time>
      </trkpt>
      <trkpt lat="42.662959" lon="0.649766">
        <ele>2468</ele>
        <time>1970-01-01T00:54:37.000Z</time>
      </trkpt>
      <trkpt lat="42.662959" lon="0.649766">
        <ele>2468</ele>
        <time>1970-01-01T00:54:38.000Z</time>
      </trkpt>
      <trkpt lat="42.662959" lon="0.649766">
        <ele>2468</ele>
        <time>1970-01-01T00:54:39.000Z</time>
      </trkpt>
      <trkpt lat="42.662959" lon="0.649766">
        <ele>2468</ele>
        <time>1970-01-01T00:54:40.000Z</time>
      </trkpt>
      <trkpt lat="42.662959" lon="0.649766">
        <ele>2468</ele>
        <time>1970-01-01T00:54:41.000Z</time>
      </trkpt>
      <trkpt lat="42.662959" lon="0.649766">
        <ele>2468</ele>
        <time>1970-01-01T00:54:42.000Z</time>
      </trkpt>
      <trkpt lat="42.662959" lon="0.649766">
        <ele>2468</ele>
        <time>1970-01-01T00:54:43.000Z</time>
      </trkpt>
      <trkpt lat="42.662959" lon="0.649766">
        <ele>2468</ele>
        <time>1970-01-01T00:54:44.000Z</time>
      </trkpt>
      <trkpt lat="42.662959" lon="0.649766">
        <ele>2468</ele>
        <time>1970-01-01T00:54:45.000Z</time>
      </trkpt>
      <trkpt lat="42.662959" lon="0.649766">
        <ele>2468</ele>
        <time>1970-01-01T00:54:46.000Z</time>
      </trkpt>
      <trkpt lat="42.662959" lon="0.649766">
        <ele>2468</ele>
        <time>1970-01-01T00:54:47.000Z</time>
      </trkpt>
      <trkpt lat="42.662959" lon="0.649766">
        <ele>2468</ele>
        <time>1970-01-01T00:54:48.000Z</time>
      </trkpt>
      <trkpt lat="42.662958" lon="0.649766">
        <ele>2468</ele>
        <time>1970-01-01T00:54:49.000Z</time>
      </trkpt>
      <trkpt lat="42.662959" lon="0.649766">
        <ele>2468</ele>
        <time>1970-01-01T00:54:50.000Z</time>
      </trkpt>
      <trkpt lat="42.662959" lon="0.649766">
        <ele>2468</ele>
        <time>1970-01-01T00:54:51.000Z</time>
      </trkpt>
      <trkpt lat="42.662959" lon="0.649766">
        <ele>2468</ele>
        <time>1970-01-01T00:54:52.000Z</time>
      </trkpt>
      <trkpt lat="42.662959" lon="0.649766">
        <ele>2468</ele>
        <time>1970-01-01T00:54:53.000Z</time>
      </trkpt>
      <trkpt lat="42.662958" lon="0.649766">
        <ele>2468</ele>
        <time>1970-01-01T00:54:54.000Z</time>
      </trkpt>
      <trkpt lat="42.662958" lon="0.649766">
        <ele>2468</ele>
        <time>1970-01-01T00:54:55.000Z</time>
      </trkpt>
      <trkpt lat="42.662958" lon="0.649766">
        <ele>2468</ele>
        <time>1970-01-01T00:54:56.000Z</time>
      </trkpt>
      <trkpt lat="42.662958" lon="0.649766">
        <ele>2468</ele>
        <time>1970-01-01T00:54:57.000Z</time>
      </trkpt>
      <trkpt lat="42.662958" lon="0.649766">
        <ele>2468</ele>
        <time>1970-01-01T00:54:58.000Z</time>
      </trkpt>
      <trkpt lat="42.662958" lon="0.649766">
        <ele>2468</ele>
        <time>1970-01-01T00:54:59.000Z</time>
      </trkpt>
      <trkpt lat="42.662958" lon="0.649766">
        <ele>2468</ele>
        <time>1970-01-01T00:55:00.000Z</time>
      </trkpt>
      <trkpt lat="42.662958" lon="0.649766">
        <ele>2468</ele>
        <time>1970-01-01T00:55:01.000Z</time>
      </trkpt>
      <trkpt lat="42.662958" lon="0.649766">
        <ele>2468</ele>
        <time>1970-01-01T00:55:02.000Z</time>
      </trkpt>
      <trkpt lat="42.662958" lon="0.649766">
        <ele>2468</ele>
        <time>1970-01-01T00:55:03.000Z</time>
      </trkpt>
      <trkpt lat="42.662958" lon="0.649766">
        <ele>2468</ele>
        <time>1970-01-01T00:55:04.000Z</time>
      </trkpt>
      <trkpt lat="42.662958" lon="0.649766">
        <ele>2468</ele>
        <time>1970-01-01T00:55:05.000Z</time>
      </trkpt>
      <trkpt lat="42.662958" lon="0.649766">
        <ele>2468</ele>
        <time>1970-01-01T00:55:06.000Z</time>
      </trkpt>
      <trkpt lat="42.662958" lon="0.649766">
        <ele>2468</ele>
        <time>1970-01-01T00:55:07.000Z</time>
      </trkpt>
      <trkpt lat="42.662958" lon="0.649766">
        <ele>2468</ele>
        <time>1970-01-01T00:55:08.000Z</time>
      </trkpt>
      <trkpt lat="42.662958" lon="0.649766">
        <ele>2468</ele>
        <time>1970-01-01T00:55:09.000Z</time>
      </trkpt>
      <trkpt lat="42.662958" lon="0.649766">
        <ele>2468</ele>
        <time>1970-01-01T00:55:10.000Z</time>
      </trkpt>
      <trkpt lat="42.662958" lon="0.649766">
        <ele>2468</ele>
        <time>1970-01-01T00:55:11.000Z</time>
      </trkpt>
      <trkpt lat="42.662958" lon="0.649766">
        <ele>2468</ele>
        <time>1970-01-01T00:55:12.000Z</time>
      </trkpt>
      <trkpt lat="42.662958" lon="0.649766">
        <ele>2468</ele>
        <time>1970-01-01T00:55:13.000Z</time>
      </trkpt>
      <trkpt lat="42.662958" lon="0.649766">
        <ele>2468</ele>
        <time>1970-01-01T00:55:14.000Z</time>
      </trkpt>
      <trkpt lat="42.662958" lon="0.649766">
        <ele>2468</ele>
        <time>1970-01-01T00:55:15.000Z</time>
      </trkpt>
      <trkpt lat="42.662958" lon="0.649766">
        <ele>2468</ele>
        <time>1970-01-01T00:55:16.000Z</time>
      </trkpt>
      <trkpt lat="42.662958" lon="0.649766">
        <ele>2468</ele>
        <time>1970-01-01T00:55:17.000Z</time>
      </trkpt>
      <trkpt lat="42.662958" lon="0.649766">
        <ele>2468</ele>
        <time>1970-01-01T00:55:18.000Z</time>
      </trkpt>
      <trkpt lat="42.662959" lon="0.649766">
        <ele>2468</ele>
        <time>1970-01-01T00:55:19.000Z</time>
      </trkpt>
      <trkpt lat="42.662959" lon="0.649766">
        <ele>2468</ele>
        <time>1970-01-01T00:55:20.000Z</time>
      </trkpt>
      <trkpt lat="42.662959" lon="0.649765">
        <ele>2468</ele>
        <time>1970-01-01T00:55:21.000Z</time>
      </trkpt>
      <trkpt lat="42.66296" lon="0.649764">
        <ele>2468</ele>
        <time>1970-01-01T00:55:22.000Z</time>
      </trkpt>
      <trkpt lat="42.662961" lon="0.649763">
        <ele>2468</ele>
        <time>1970-01-01T00:55:23.000Z</time>
      </trkpt>
      <trkpt lat="42.662962" lon="0.649763">
        <ele>2468</ele>
        <time>1970-01-01T00:55:24.000Z</time>
      </trkpt>
      <trkpt lat="42.662962" lon="0.649763">
        <ele>2468</ele>
        <time>1970-01-01T00:55:25.000Z</time>
      </trkpt>
      <trkpt lat="42.662962" lon="0.649762">
        <ele>2468</ele>
        <time>1970-01-01T00:55:26.000Z</time>
      </trkpt>
      <trkpt lat="42.662962" lon="0.649762">
        <ele>2468</ele>
        <time>1970-01-01T00:55:27.000Z</time>
      </trkpt>
      <trkpt lat="42.662962" lon="0.649762">
        <ele>2468</ele>
        <time>1970-01-01T00:55:28.000Z</time>
      </trkpt>
      <trkpt lat="42.662962" lon="0.649762">
        <ele>2468</ele>
        <time>1970-01-01T00:55:29.000Z</time>
      </trkpt>
      <trkpt lat="42.662961" lon="0.649763">
        <ele>2468</ele>
        <time>1970-01-01T00:55:30.000Z</time>
      </trkpt>
      <trkpt lat="42.662958" lon="0.649766">
        <ele>2468</ele>
        <time>1970-01-01T00:55:31.000Z</time>
      </trkpt>
      <trkpt lat="42.662957" lon="0.649768">
        <ele>2468</ele>
        <time>1970-01-01T00:55:32.000Z</time>
      </trkpt>
      <trkpt lat="42.662956" lon="0.64977">
        <ele>2468</ele>
        <time>1970-01-01T00:55:33.000Z</time>
      </trkpt>
      <trkpt lat="42.662956" lon="0.649771">
        <ele>2468</ele>
        <time>1970-01-01T00:55:34.000Z</time>
      </trkpt>
      <trkpt lat="42.662956" lon="0.649772">
        <ele>2468</ele>
        <time>1970-01-01T00:55:35.000Z</time>
      </trkpt>
      <trkpt lat="42.662956" lon="0.649772">
        <ele>2468</ele>
        <time>1970-01-01T00:55:36.000Z</time>
      </trkpt>
      <trkpt lat="42.662955" lon="0.649773">
        <ele>2468</ele>
        <time>1970-01-01T00:55:37.000Z</time>
      </trkpt>
      <trkpt lat="42.662955" lon="0.649773">
        <ele>2468</ele>
        <time>1970-01-01T00:55:38.000Z</time>
      </trkpt>
      <trkpt lat="42.662955" lon="0.649773">
        <ele>2468</ele>
        <time>1970-01-01T00:55:39.000Z</time>
      </trkpt>
      <trkpt lat="42.662956" lon="0.649773">
        <ele>2468</ele>
        <time>1970-01-01T00:55:40.000Z</time>
      </trkpt>
      <trkpt lat="42.662956" lon="0.649773">
        <ele>2468</ele>
        <time>1970-01-01T00:55:41.000Z</time>
      </trkpt>
      <trkpt lat="42.662956" lon="0.649773">
        <ele>2468</ele>
        <time>1970-01-01T00:55:42.000Z</time>
      </trkpt>
      <trkpt lat="42.662956" lon="0.649773">
        <ele>2468</ele>
        <time>1970-01-01T00:55:43.000Z</time>
      </trkpt>
      <trkpt lat="42.662956" lon="0.649773">
        <ele>2468</ele>
        <time>1970-01-01T00:55:44.000Z</time>
      </trkpt>
      <trkpt lat="42.662956" lon="0.649773">
        <ele>2468</ele>
        <time>1970-01-01T00:55:45.000Z</time>
      </trkpt>
      <trkpt lat="42.662956" lon="0.649773">
        <ele>2468</ele>
        <time>1970-01-01T00:55:46.000Z</time>
      </trkpt>
      <trkpt lat="42.662956" lon="0.649773">
        <ele>2468</ele>
        <time>1970-01-01T00:55:47.000Z</time>
      </trkpt>
      <trkpt lat="42.662956" lon="0.649773">
        <ele>2468</ele>
        <time>1970-01-01T00:55:48.000Z</time>
      </trkpt>
      <trkpt lat="42.662956" lon="0.649773">
        <ele>2468</ele>
        <time>1970-01-01T00:55:49.000Z</time>
      </trkpt>
      <trkpt lat="42.662956" lon="0.649773">
        <ele>2468</ele>
        <time>1970-01-01T00:55:50.000Z</time>
      </trkpt>
      <trkpt lat="42.662956" lon="0.649773">
        <ele>2468</ele>
        <time>1970-01-01T00:55:51.000Z</time>
      </trkpt>
      <trkpt lat="42.662956" lon="0.649773">
        <ele>2468</ele>
        <time>1970-01-01T00:55:52.000Z</time>
      </trkpt>
      <trkpt lat="42.662956" lon="0.649773">
        <ele>2468</ele>
        <time>1970-01-01T00:55:53.000Z</time>
      </trkpt>
      <trkpt lat="42.662956" lon="0.649777">
        <ele>2468</ele>
        <time>1970-01-01T00:55:54.000Z</time>
      </trkpt>
      <trkpt lat="42.662957" lon="0.64978">
        <ele>2468</ele>
        <time>1970-01-01T00:55:55.000Z</time>
      </trkpt>
      <trkpt lat="42.662953" lon="0.649788">
        <ele>2469.2</ele>
        <time>1970-01-01T00:55:56.000Z</time>
      </trkpt>
      <trkpt lat="42.662946" lon="0.649796">
        <ele>2469.2</ele>
        <time>1970-01-01T00:55:57.000Z</time>
      </trkpt>
      <trkpt lat="42.662943" lon="0.649801">
        <ele>2469.2</ele>
        <time>1970-01-01T00:55:58.000Z</time>
      </trkpt>
      <trkpt lat="42.662947" lon="0.649797">
        <ele>2469.2</ele>
        <time>1970-01-01T00:55:59.000Z</time>
      </trkpt>
      <trkpt lat="42.662946" lon="0.649798">
        <ele>2469.2</ele>
        <time>1970-01-01T00:56:00.000Z</time>
      </trkpt>
      <trkpt lat="42.662945" lon="0.6498">
        <ele>2469.2</ele>
        <time>1970-01-01T00:56:01.000Z</time>
      </trkpt>
      <trkpt lat="42.662941" lon="0.649808">
        <ele>2469.2</ele>
        <time>1970-01-01T00:56:03.000Z</time>
      </trkpt>
      <trkpt lat="42.66294" lon="0.649813">
        <ele>2469.2</ele>
        <time>1970-01-01T00:56:04.000Z</time>
      </trkpt>
      <trkpt lat="42.662939" lon="0.649818">
        <ele>2469.2</ele>
        <time>1970-01-01T00:56:05.000Z</time>
      </trkpt>
      <trkpt lat="42.662938" lon="0.649823">
        <ele>2469.2</ele>
        <time>1970-01-01T00:56:06.000Z</time>
      </trkpt>
      <trkpt lat="42.662937" lon="0.649826">
        <ele>2470.4</ele>
        <time>1970-01-01T00:56:07.000Z</time>
      </trkpt>
      <trkpt lat="42.662936" lon="0.64983">
        <ele>2470.4</ele>
        <time>1970-01-01T00:56:08.000Z</time>
      </trkpt>
      <trkpt lat="42.662937" lon="0.649838">
        <ele>2470.4</ele>
        <time>1970-01-01T00:56:09.000Z</time>
      </trkpt>
      <trkpt lat="42.662938" lon="0.649844">
        <ele>2470.4</ele>
        <time>1970-01-01T00:56:10.000Z</time>
      </trkpt>
      <trkpt lat="42.66294" lon="0.64985">
        <ele>2470.4</ele>
        <time>1970-01-01T00:56:12.000Z</time>
      </trkpt>
      <trkpt lat="42.662943" lon="0.649854">
        <ele>2470.4</ele>
        <time>1970-01-01T00:56:13.000Z</time>
      </trkpt>
      <trkpt lat="42.662946" lon="0.649858">
        <ele>2470.4</ele>
        <time>1970-01-01T00:56:14.000Z</time>
      </trkpt>
      <trkpt lat="42.662949" lon="0.649863">
        <ele>2470.4</ele>
        <time>1970-01-01T00:56:15.000Z</time>
      </trkpt>
      <trkpt lat="42.662952" lon="0.649868">
        <ele>2471.6</ele>
        <time>1970-01-01T00:56:16.000Z</time>
      </trkpt>
      <trkpt lat="42.662956" lon="0.649875">
        <ele>2471.6</ele>
        <time>1970-01-01T00:56:17.000Z</time>
      </trkpt>
      <trkpt lat="42.662961" lon="0.649884">
        <ele>2471.6</ele>
        <time>1970-01-01T00:56:19.000Z</time>
      </trkpt>
      <trkpt lat="42.662964" lon="0.649891">
        <ele>2471.6</ele>
        <time>1970-01-01T00:56:20.000Z</time>
      </trkpt>
      <trkpt lat="42.662965" lon="0.649895">
        <ele>2471.6</ele>
        <time>1970-01-01T00:56:21.000Z</time>
      </trkpt>
      <trkpt lat="42.662964" lon="0.649896">
        <ele>2471.6</ele>
        <time>1970-01-01T00:56:22.000Z</time>
      </trkpt>
      <trkpt lat="42.662963" lon="0.649898">
        <ele>2471.6</ele>
        <time>1970-01-01T00:56:23.000Z</time>
      </trkpt>
      <trkpt lat="42.662963" lon="0.6499">
        <ele>2471.6</ele>
        <time>1970-01-01T00:56:24.000Z</time>
      </trkpt>
      <trkpt lat="42.662964" lon="0.649904">
        <ele>2471.6</ele>
        <time>1970-01-01T00:56:25.000Z</time>
      </trkpt>
      <trkpt lat="42.662965" lon="0.649906">
        <ele>2471.6</ele>
        <time>1970-01-01T00:56:26.000Z</time>
      </trkpt>
      <trkpt lat="42.662967" lon="0.649908">
        <ele>2471.6</ele>
        <time>1970-01-01T00:56:27.000Z</time>
      </trkpt>
      <trkpt lat="42.662968" lon="0.649909">
        <ele>2470.3</ele>
        <time>1970-01-01T00:56:28.000Z</time>
      </trkpt>
      <trkpt lat="42.662968" lon="0.649912">
        <ele>2471.4</ele>
        <time>1970-01-01T00:56:29.000Z</time>
      </trkpt>
      <trkpt lat="42.662969" lon="0.649915">
        <ele>2471.4</ele>
        <time>1970-01-01T00:56:30.000Z</time>
      </trkpt>
      <trkpt lat="42.662969" lon="0.64992">
        <ele>2471.4</ele>
        <time>1970-01-01T00:56:32.000Z</time>
      </trkpt>
      <trkpt lat="42.662969" lon="0.649923">
        <ele>2471.4</ele>
        <time>1970-01-01T00:56:33.000Z</time>
      </trkpt>
      <trkpt lat="42.66297" lon="0.649925">
        <ele>2471.4</ele>
        <time>1970-01-01T00:56:34.000Z</time>
      </trkpt>
      <trkpt lat="42.662969" lon="0.649928">
        <ele>2471.4</ele>
        <time>1970-01-01T00:56:35.000Z</time>
      </trkpt>
      <trkpt lat="42.662969" lon="0.64993">
        <ele>2471.4</ele>
        <time>1970-01-01T00:56:36.000Z</time>
      </trkpt>
      <trkpt lat="42.662968" lon="0.649931">
        <ele>2471.4</ele>
        <time>1970-01-01T00:56:37.000Z</time>
      </trkpt>
      <trkpt lat="42.662968" lon="0.649933">
        <ele>2471.4</ele>
        <time>1970-01-01T00:56:38.000Z</time>
      </trkpt>
      <trkpt lat="42.662967" lon="0.649934">
        <ele>2472.8</ele>
        <time>1970-01-01T00:56:39.000Z</time>
      </trkpt>
      <trkpt lat="42.662967" lon="0.649935">
        <ele>2472.8</ele>
        <time>1970-01-01T00:56:40.000Z</time>
      </trkpt>
      <trkpt lat="42.662967" lon="0.649936">
        <ele>2472.8</ele>
        <time>1970-01-01T00:56:41.000Z</time>
      </trkpt>
      <trkpt lat="42.662966" lon="0.649937">
        <ele>2472.8</ele>
        <time>1970-01-01T00:56:42.000Z</time>
      </trkpt>
      <trkpt lat="42.662965" lon="0.649937">
        <ele>2472.8</ele>
        <time>1970-01-01T00:56:43.000Z</time>
      </trkpt>
      <trkpt lat="42.662965" lon="0.649937">
        <ele>2472.8</ele>
        <time>1970-01-01T00:56:44.000Z</time>
      </trkpt>
      <trkpt lat="42.662964" lon="0.649937">
        <ele>2472.8</ele>
        <time>1970-01-01T00:56:45.000Z</time>
      </trkpt>
      <trkpt lat="42.662964" lon="0.649937">
        <ele>2472.8</ele>
        <time>1970-01-01T00:56:46.000Z</time>
      </trkpt>
      <trkpt lat="42.662964" lon="0.649933">
        <ele>2472.8</ele>
        <time>1970-01-01T00:56:47.000Z</time>
      </trkpt>
      <trkpt lat="42.662964" lon="0.64993">
        <ele>2472.8</ele>
        <time>1970-01-01T00:56:48.000Z</time>
      </trkpt>
      <trkpt lat="42.662963" lon="0.649929">
        <ele>2472.8</ele>
        <time>1970-01-01T00:56:49.000Z</time>
      </trkpt>
      <trkpt lat="42.662963" lon="0.649929">
        <ele>2472.8</ele>
        <time>1970-01-01T00:56:50.000Z</time>
      </trkpt>
      <trkpt lat="42.662963" lon="0.649928">
        <ele>2472.8</ele>
        <time>1970-01-01T00:56:51.000Z</time>
      </trkpt>
      <trkpt lat="42.662963" lon="0.649928">
        <ele>2472.8</ele>
        <time>1970-01-01T00:56:52.000Z</time>
      </trkpt>
      <trkpt lat="42.662963" lon="0.649928">
        <ele>2472.8</ele>
        <time>1970-01-01T00:56:53.000Z</time>
      </trkpt>
      <trkpt lat="42.662963" lon="0.649928">
        <ele>2472.8</ele>
        <time>1970-01-01T00:56:54.000Z</time>
      </trkpt>
      <trkpt lat="42.662963" lon="0.649928">
        <ele>2472.8</ele>
        <time>1970-01-01T00:56:55.000Z</time>
      </trkpt>
      <trkpt lat="42.662963" lon="0.649928">
        <ele>2472.8</ele>
        <time>1970-01-01T00:56:56.000Z</time>
      </trkpt>
      <trkpt lat="42.662963" lon="0.649928">
        <ele>2472.8</ele>
        <time>1970-01-01T00:56:57.000Z</time>
      </trkpt>
      <trkpt lat="42.662963" lon="0.649928">
        <ele>2472.8</ele>
        <time>1970-01-01T00:56:58.000Z</time>
      </trkpt>
      <trkpt lat="42.662963" lon="0.649928">
        <ele>2472.8</ele>
        <time>1970-01-01T00:56:59.000Z</time>
      </trkpt>
      <trkpt lat="42.662963" lon="0.649928">
        <ele>2472.8</ele>
        <time>1970-01-01T00:57:00.000Z</time>
      </trkpt>
      <trkpt lat="42.662963" lon="0.649928">
        <ele>2472.8</ele>
        <time>1970-01-01T00:57:01.000Z</time>
      </trkpt>
      <trkpt lat="42.662963" lon="0.649928">
        <ele>2472.8</ele>
        <time>1970-01-01T00:57:02.000Z</time>
      </trkpt>
      <trkpt lat="42.662963" lon="0.649928">
        <ele>2472.8</ele>
        <time>1970-01-01T00:57:03.000Z</time>
      </trkpt>
      <trkpt lat="42.662963" lon="0.649928">
        <ele>2472.8</ele>
        <time>1970-01-01T00:57:04.000Z</time>
      </trkpt>
      <trkpt lat="42.662964" lon="0.64993">
        <ele>2472.8</ele>
        <time>1970-01-01T00:57:05.000Z</time>
      </trkpt>
      <trkpt lat="42.662964" lon="0.649932">
        <ele>2472.8</ele>
        <time>1970-01-01T00:57:06.000Z</time>
      </trkpt>
      <trkpt lat="42.662966" lon="0.649935">
        <ele>2472.8</ele>
        <time>1970-01-01T00:57:07.000Z</time>
      </trkpt>
      <trkpt lat="42.662965" lon="0.649944">
        <ele>2472.8</ele>
        <time>1970-01-01T00:57:08.000Z</time>
      </trkpt>
      <trkpt lat="42.662962" lon="0.649953">
        <ele>2473.9</ele>
        <time>1970-01-01T00:57:09.000Z</time>
      </trkpt>
      <trkpt lat="42.662958" lon="0.64996">
        <ele>2473.9</ele>
        <time>1970-01-01T00:57:10.000Z</time>
      </trkpt>
      <trkpt lat="42.662955" lon="0.649963">
        <ele>2473.9</ele>
        <time>1970-01-01T00:57:11.000Z</time>
      </trkpt>
      <trkpt lat="42.662954" lon="0.649965">
        <ele>2473.9</ele>
        <time>1970-01-01T00:57:12.000Z</time>
      </trkpt>
      <trkpt lat="42.662952" lon="0.649969">
        <ele>2473.9</ele>
        <time>1970-01-01T00:57:13.000Z</time>
      </trkpt>
      <trkpt lat="42.662953" lon="0.649971">
        <ele>2473.9</ele>
        <time>1970-01-01T00:57:14.000Z</time>
      </trkpt>
      <trkpt lat="42.662954" lon="0.649972">
        <ele>2473.9</ele>
        <time>1970-01-01T00:57:15.000Z</time>
      </trkpt>
      <trkpt lat="42.662954" lon="0.649972">
        <ele>2473.9</ele>
        <time>1970-01-01T00:57:16.000Z</time>
      </trkpt>
      <trkpt lat="42.662954" lon="0.649973">
        <ele>2473.9</ele>
        <time>1970-01-01T00:57:18.000Z</time>
      </trkpt>
      <trkpt lat="42.662954" lon="0.649974">
        <ele>2473.9</ele>
        <time>1970-01-01T00:57:19.000Z</time>
      </trkpt>
      <trkpt lat="42.662954" lon="0.649974">
        <ele>2473.9</ele>
        <time>1970-01-01T00:57:20.000Z</time>
      </trkpt>
      <trkpt lat="42.662954" lon="0.649975">
        <ele>2473.9</ele>
        <time>1970-01-01T00:57:21.000Z</time>
      </trkpt>
      <trkpt lat="42.662955" lon="0.649975">
        <ele>2473.9</ele>
        <time>1970-01-01T00:57:22.000Z</time>
      </trkpt>
      <trkpt lat="42.662954" lon="0.649976">
        <ele>2473.9</ele>
        <time>1970-01-01T00:57:23.000Z</time>
      </trkpt>
      <trkpt lat="42.662954" lon="0.649975">
        <ele>2473.9</ele>
        <time>1970-01-01T00:57:24.000Z</time>
      </trkpt>
      <trkpt lat="42.662954" lon="0.649975">
        <ele>2473.9</ele>
        <time>1970-01-01T00:57:25.000Z</time>
      </trkpt>
      <trkpt lat="42.662954" lon="0.649974">
        <ele>2473.9</ele>
        <time>1970-01-01T00:57:26.000Z</time>
      </trkpt>
      <trkpt lat="42.662954" lon="0.649974">
        <ele>2473.9</ele>
        <time>1970-01-01T00:57:27.000Z</time>
      </trkpt>
      <trkpt lat="42.662954" lon="0.649975">
        <ele>2473.9</ele>
        <time>1970-01-01T00:57:28.000Z</time>
      </trkpt>
      <trkpt lat="42.662955" lon="0.649977">
        <ele>2473.9</ele>
        <time>1970-01-01T00:57:30.000Z</time>
      </trkpt>
      <trkpt lat="42.662958" lon="0.649977">
        <ele>2473.9</ele>
        <time>1970-01-01T00:57:31.000Z</time>
      </trkpt>
      <trkpt lat="42.66296" lon="0.649977">
        <ele>2473.9</ele>
        <time>1970-01-01T00:57:32.000Z</time>
      </trkpt>
      <trkpt lat="42.662961" lon="0.649978">
        <ele>2473.9</ele>
        <time>1970-01-01T00:57:33.000Z</time>
      </trkpt>
      <trkpt lat="42.662956" lon="0.649984">
        <ele>2473.9</ele>
        <time>1970-01-01T00:57:34.000Z</time>
      </trkpt>
      <trkpt lat="42.662956" lon="0.649989">
        <ele>2473.9</ele>
        <time>1970-01-01T00:57:35.000Z</time>
      </trkpt>
      <trkpt lat="42.662958" lon="0.649994">
        <ele>2473.9</ele>
        <time>1970-01-01T00:57:37.000Z</time>
      </trkpt>
      <trkpt lat="42.662961" lon="0.650001">
        <ele>2475.1</ele>
        <time>1970-01-01T00:57:38.000Z</time>
      </trkpt>
      <trkpt lat="42.662965" lon="0.650007">
        <ele>2475.1</ele>
        <time>1970-01-01T00:57:39.000Z</time>
      </trkpt>
      <trkpt lat="42.662969" lon="0.650012">
        <ele>2473.8</ele>
        <time>1970-01-01T00:57:40.000Z</time>
      </trkpt>
      <trkpt lat="42.662975" lon="0.650025">
        <ele>2473.8</ele>
        <time>1970-01-01T00:57:41.000Z</time>
      </trkpt>
      <trkpt lat="42.662976" lon="0.650039">
        <ele>2475</ele>
        <time>1970-01-01T00:57:42.000Z</time>
      </trkpt>
      <trkpt lat="42.662974" lon="0.650054">
        <ele>2475</ele>
        <time>1970-01-01T00:57:44.000Z</time>
      </trkpt>
      <trkpt lat="42.662973" lon="0.650061">
        <ele>2475</ele>
        <time>1970-01-01T00:57:45.000Z</time>
      </trkpt>
      <trkpt lat="42.662971" lon="0.650076">
        <ele>2475</ele>
        <time>1970-01-01T00:57:47.000Z</time>
      </trkpt>
      <trkpt lat="42.662968" lon="0.650086">
        <ele>2476.2</ele>
        <time>1970-01-01T00:57:48.000Z</time>
      </trkpt>
      <trkpt lat="42.662964" lon="0.650094">
        <ele>2477.6</ele>
        <time>1970-01-01T00:57:49.000Z</time>
      </trkpt>
      <trkpt lat="42.662963" lon="0.650102">
        <ele>2477.6</ele>
        <time>1970-01-01T00:57:50.000Z</time>
      </trkpt>
      <trkpt lat="42.662962" lon="0.650109">
        <ele>2477.6</ele>
        <time>1970-01-01T00:57:51.000Z</time>
      </trkpt>
      <trkpt lat="42.662963" lon="0.65012">
        <ele>2477.6</ele>
        <time>1970-01-01T00:57:53.000Z</time>
      </trkpt>
      <trkpt lat="42.662963" lon="0.650126">
        <ele>2478.9</ele>
        <time>1970-01-01T00:57:54.000Z</time>
      </trkpt>
      <trkpt lat="42.662963" lon="0.65013">
        <ele>2478.9</ele>
        <time>1970-01-01T00:57:55.000Z</time>
      </trkpt>
      <trkpt lat="42.662961" lon="0.650136">
        <ele>2478.9</ele>
        <time>1970-01-01T00:57:56.000Z</time>
      </trkpt>
      <trkpt lat="42.662958" lon="0.650141">
        <ele>2478.9</ele>
        <time>1970-01-01T00:57:57.000Z</time>
      </trkpt>
      <trkpt lat="42.662958" lon="0.650149">
        <ele>2478.9</ele>
        <time>1970-01-01T00:57:58.000Z</time>
      </trkpt>
      <trkpt lat="42.662961" lon="0.650158">
        <ele>2478.9</ele>
        <time>1970-01-01T00:57:59.000Z</time>
      </trkpt>
      <trkpt lat="42.662965" lon="0.650163">
        <ele>2478.9</ele>
        <time>1970-01-01T00:58:00.000Z</time>
      </trkpt>
      <trkpt lat="42.662977" lon="0.650169">
        <ele>2478.8</ele>
        <time>1970-01-01T00:58:02.000Z</time>
      </trkpt>
      <trkpt lat="42.66299" lon="0.650172">
        <ele>2478.8</ele>
        <time>1970-01-01T00:58:03.000Z</time>
      </trkpt>
      <trkpt lat="42.662998" lon="0.650183">
        <ele>2478.8</ele>
        <time>1970-01-01T00:58:05.000Z</time>
      </trkpt>
      <trkpt lat="42.662998" lon="0.650194">
        <ele>2478.8</ele>
        <time>1970-01-01T00:58:06.000Z</time>
      </trkpt>
      <trkpt lat="42.662997" lon="0.650203">
        <ele>2478.8</ele>
        <time>1970-01-01T00:58:07.000Z</time>
      </trkpt>
      <trkpt lat="42.662994" lon="0.650213">
        <ele>2480.1</ele>
        <time>1970-01-01T00:58:08.000Z</time>
      </trkpt>
      <trkpt lat="42.662988" lon="0.650225">
        <ele>2480.1</ele>
        <time>1970-01-01T00:58:10.000Z</time>
      </trkpt>
      <trkpt lat="42.662983" lon="0.650233">
        <ele>2480.1</ele>
        <time>1970-01-01T00:58:11.000Z</time>
      </trkpt>
      <trkpt lat="42.662981" lon="0.650239">
        <ele>2480.1</ele>
        <time>1970-01-01T00:58:12.000Z</time>
      </trkpt>
      <trkpt lat="42.662978" lon="0.650251">
        <ele>2480.1</ele>
        <time>1970-01-01T00:58:14.000Z</time>
      </trkpt>
      <trkpt lat="42.662978" lon="0.650262">
        <ele>2481.5</ele>
        <time>1970-01-01T00:58:15.000Z</time>
      </trkpt>
      <trkpt lat="42.66298" lon="0.650268">
        <ele>2481.5</ele>
        <time>1970-01-01T00:58:16.000Z</time>
      </trkpt>
      <trkpt lat="42.662989" lon="0.650278">
        <ele>2481.5</ele>
        <time>1970-01-01T00:58:18.000Z</time>
      </trkpt>
      <trkpt lat="42.662992" lon="0.650287">
        <ele>2481.5</ele>
        <time>1970-01-01T00:58:19.000Z</time>
      </trkpt>
      <trkpt lat="42.662993" lon="0.650294">
        <ele>2481.5</ele>
        <time>1970-01-01T00:58:20.000Z</time>
      </trkpt>
      <trkpt lat="42.662993" lon="0.650298">
        <ele>2482.8</ele>
        <time>1970-01-01T00:58:21.000Z</time>
      </trkpt>
      <trkpt lat="42.662991" lon="0.650304">
        <ele>2482.8</ele>
        <time>1970-01-01T00:58:23.000Z</time>
      </trkpt>
      <trkpt lat="42.662988" lon="0.650306">
        <ele>2482.8</ele>
        <time>1970-01-01T00:58:24.000Z</time>
      </trkpt>
      <trkpt lat="42.662985" lon="0.650305">
        <ele>2482.8</ele>
        <time>1970-01-01T00:58:25.000Z</time>
      </trkpt>
      <trkpt lat="42.662972" lon="0.650306">
        <ele>2482.8</ele>
        <time>1970-01-01T00:58:27.000Z</time>
      </trkpt>
      <trkpt lat="42.662966" lon="0.650309">
        <ele>2484.2</ele>
        <time>1970-01-01T00:58:28.000Z</time>
      </trkpt>
      <trkpt lat="42.662965" lon="0.650317">
        <ele>2484.2</ele>
        <time>1970-01-01T00:58:29.000Z</time>
      </trkpt>
      <trkpt lat="42.662967" lon="0.650329">
        <ele>2484.2</ele>
        <time>1970-01-01T00:58:31.000Z</time>
      </trkpt>
      <trkpt lat="42.662969" lon="0.650339">
        <ele>2482.8</ele>
        <time>1970-01-01T00:58:32.000Z</time>
      </trkpt>
      <trkpt lat="42.662972" lon="0.650343">
        <ele>2484</ele>
        <time>1970-01-01T00:58:33.000Z</time>
      </trkpt>
      <trkpt lat="42.662977" lon="0.65035">
        <ele>2484</ele>
        <time>1970-01-01T00:58:35.000Z</time>
      </trkpt>
      <trkpt lat="42.662979" lon="0.650356">
        <ele>2484</ele>
        <time>1970-01-01T00:58:36.000Z</time>
      </trkpt>
      <trkpt lat="42.662981" lon="0.650358">
        <ele>2484</ele>
        <time>1970-01-01T00:58:37.000Z</time>
      </trkpt>
      <trkpt lat="42.662982" lon="0.650359">
        <ele>2484</ele>
        <time>1970-01-01T00:58:38.000Z</time>
      </trkpt>
      <trkpt lat="42.662985" lon="0.650363">
        <ele>2484</ele>
        <time>1970-01-01T00:58:40.000Z</time>
      </trkpt>
      <trkpt lat="42.662986" lon="0.650366">
        <ele>2484</ele>
        <time>1970-01-01T00:58:41.000Z</time>
      </trkpt>
      <trkpt lat="42.662987" lon="0.650368">
        <ele>2484</ele>
        <time>1970-01-01T00:58:42.000Z</time>
      </trkpt>
      <trkpt lat="42.662987" lon="0.650371">
        <ele>2484</ele>
        <time>1970-01-01T00:58:43.000Z</time>
      </trkpt>
      <trkpt lat="42.662987" lon="0.650374">
        <ele>2484</ele>
        <time>1970-01-01T00:58:44.000Z</time>
      </trkpt>
      <trkpt lat="42.662987" lon="0.650378">
        <ele>2484</ele>
        <time>1970-01-01T00:58:45.000Z</time>
      </trkpt>
      <trkpt lat="42.662989" lon="0.65038">
        <ele>2484</ele>
        <time>1970-01-01T00:58:46.000Z</time>
      </trkpt>
      <trkpt lat="42.662995" lon="0.650388">
        <ele>2485.1</ele>
        <time>1970-01-01T00:58:48.000Z</time>
      </trkpt>
      <trkpt lat="42.662999" lon="0.650391">
        <ele>2483.5</ele>
        <time>1970-01-01T00:58:49.000Z</time>
      </trkpt>
      <trkpt lat="42.663001" lon="0.650394">
        <ele>2483.5</ele>
        <time>1970-01-01T00:58:50.000Z</time>
      </trkpt>
      <trkpt lat="42.663002" lon="0.650395">
        <ele>2483.5</ele>
        <time>1970-01-01T00:58:51.000Z</time>
      </trkpt>
      <trkpt lat="42.663002" lon="0.650396">
        <ele>2483.5</ele>
        <time>1970-01-01T00:58:52.000Z</time>
      </trkpt>
      <trkpt lat="42.662996" lon="0.650401">
        <ele>2485.1</ele>
        <time>1970-01-01T00:58:54.000Z</time>
      </trkpt>
      <trkpt lat="42.662993" lon="0.650401">
        <ele>2485.1</ele>
        <time>1970-01-01T00:58:55.000Z</time>
      </trkpt>
      <trkpt lat="42.662989" lon="0.650399">
        <ele>2485.1</ele>
        <time>1970-01-01T00:58:56.000Z</time>
      </trkpt>
      <trkpt lat="42.662985" lon="0.650394">
        <ele>2485.1</ele>
        <time>1970-01-01T00:58:57.000Z</time>
      </trkpt>
      <trkpt lat="42.662981" lon="0.650379">
        <ele>2484</ele>
        <time>1970-01-01T00:58:59.000Z</time>
      </trkpt>
      <trkpt lat="42.66298" lon="0.650363">
        <ele>2484</ele>
        <time>1970-01-01T00:59:00.000Z</time>
      </trkpt>
      <trkpt lat="42.662978" lon="0.650358">
        <ele>2484</ele>
        <time>1970-01-01T00:59:01.000Z</time>
      </trkpt>
      <trkpt lat="42.662975" lon="0.650355">
        <ele>2484</ele>
        <time>1970-01-01T00:59:03.000Z</time>
      </trkpt>
      <trkpt lat="42.66297" lon="0.65036">
        <ele>2484</ele>
        <time>1970-01-01T00:59:05.000Z</time>
      </trkpt>
      <trkpt lat="42.66297" lon="0.650365">
        <ele>2484</ele>
        <time>1970-01-01T00:59:06.000Z</time>
      </trkpt>
      <trkpt lat="42.662968" lon="0.650379">
        <ele>2484</ele>
        <time>1970-01-01T00:59:07.000Z</time>
      </trkpt>
      <trkpt lat="42.662964" lon="0.650392">
        <ele>2486.6</ele>
        <time>1970-01-01T00:59:08.000Z</time>
      </trkpt>
      <trkpt lat="42.662956" lon="0.650394">
        <ele>2486.6</ele>
        <time>1970-01-01T00:59:10.000Z</time>
      </trkpt>
      <trkpt lat="42.662952" lon="0.650398">
        <ele>2486.6</ele>
        <time>1970-01-01T00:59:11.000Z</time>
      </trkpt>
      <trkpt lat="42.662949" lon="0.650406">
        <ele>2486.6</ele>
        <time>1970-01-01T00:59:13.000Z</time>
      </trkpt>
      <trkpt lat="42.662949" lon="0.650412">
        <ele>2486.6</ele>
        <time>1970-01-01T00:59:14.000Z</time>
      </trkpt>
      <trkpt lat="42.662948" lon="0.650421">
        <ele>2486.6</ele>
        <time>1970-01-01T00:59:15.000Z</time>
      </trkpt>
      <trkpt lat="42.662953" lon="0.650431">
        <ele>2487.7</ele>
        <time>1970-01-01T00:59:17.000Z</time>
      </trkpt>
      <trkpt lat="42.662954" lon="0.650438">
        <ele>2487.7</ele>
        <time>1970-01-01T00:59:18.000Z</time>
      </trkpt>
      <trkpt lat="42.662953" lon="0.650445">
        <ele>2487.7</ele>
        <time>1970-01-01T00:59:19.000Z</time>
      </trkpt>
      <trkpt lat="42.662953" lon="0.650449">
        <ele>2487.7</ele>
        <time>1970-01-01T00:59:20.000Z</time>
      </trkpt>
      <trkpt lat="42.662951" lon="0.650452">
        <ele>2487.7</ele>
        <time>1970-01-01T00:59:21.000Z</time>
      </trkpt>
      <trkpt lat="42.66295" lon="0.650456">
        <ele>2487.7</ele>
        <time>1970-01-01T00:59:22.000Z</time>
      </trkpt>
      <trkpt lat="42.66295" lon="0.650459">
        <ele>2487.7</ele>
        <time>1970-01-01T00:59:23.000Z</time>
      </trkpt>
      <trkpt lat="42.662951" lon="0.650463">
        <ele>2487.7</ele>
        <time>1970-01-01T00:59:24.000Z</time>
      </trkpt>
      <trkpt lat="42.66295" lon="0.650475">
        <ele>2488.8</ele>
        <time>1970-01-01T00:59:26.000Z</time>
      </trkpt>
      <trkpt lat="42.66295" lon="0.650478">
        <ele>2488.8</ele>
        <time>1970-01-01T00:59:27.000Z</time>
      </trkpt>
      <trkpt lat="42.662949" lon="0.650479">
        <ele>2488.8</ele>
        <time>1970-01-01T00:59:28.000Z</time>
      </trkpt>
      <trkpt lat="42.66295" lon="0.65048">
        <ele>2488.8</ele>
        <time>1970-01-01T00:59:29.000Z</time>
      </trkpt>
      <trkpt lat="42.66295" lon="0.65048">
        <ele>2488.8</ele>
        <time>1970-01-01T00:59:30.000Z</time>
      </trkpt>
      <trkpt lat="42.66295" lon="0.65048">
        <ele>2488.8</ele>
        <time>1970-01-01T00:59:31.000Z</time>
      </trkpt>
      <trkpt lat="42.662951" lon="0.650484">
        <ele>2488.8</ele>
        <time>1970-01-01T00:59:32.000Z</time>
      </trkpt>
      <trkpt lat="42.662952" lon="0.650488">
        <ele>2488.8</ele>
        <time>1970-01-01T00:59:33.000Z</time>
      </trkpt>
      <trkpt lat="42.662954" lon="0.650494">
        <ele>2488.8</ele>
        <time>1970-01-01T00:59:34.000Z</time>
      </trkpt>
      <trkpt lat="42.662956" lon="0.650501">
        <ele>2488.8</ele>
        <time>1970-01-01T00:59:35.000Z</time>
      </trkpt>
      <trkpt lat="42.662957" lon="0.650507">
        <ele>2488.8</ele>
        <time>1970-01-01T00:59:36.000Z</time>
      </trkpt>
      <trkpt lat="42.662957" lon="0.650514">
        <ele>2490</ele>
        <time>1970-01-01T00:59:37.000Z</time>
      </trkpt>
      <trkpt lat="42.662953" lon="0.650526">
        <ele>2490</ele>
        <time>1970-01-01T00:59:39.000Z</time>
      </trkpt>
      <trkpt lat="42.662949" lon="0.650533">
        <ele>2490</ele>
        <time>1970-01-01T00:59:40.000Z</time>
      </trkpt>
      <trkpt lat="42.662946" lon="0.650537">
        <ele>2490</ele>
        <time>1970-01-01T00:59:41.000Z</time>
      </trkpt>
      <trkpt lat="42.662942" lon="0.650542">
        <ele>2490</ele>
        <time>1970-01-01T00:59:42.000Z</time>
      </trkpt>
      <trkpt lat="42.662936" lon="0.650548">
        <ele>2490</ele>
        <time>1970-01-01T00:59:43.000Z</time>
      </trkpt>
      <trkpt lat="42.662929" lon="0.650552">
        <ele>2491.4</ele>
        <time>1970-01-01T00:59:44.000Z</time>
      </trkpt>
      <trkpt lat="42.662925" lon="0.650556">
        <ele>2492.6</ele>
        <time>1970-01-01T00:59:46.000Z</time>
      </trkpt>
      <trkpt lat="42.662922" lon="0.650565">
        <ele>2492.6</ele>
        <time>1970-01-01T00:59:47.000Z</time>
      </trkpt>
      <trkpt lat="42.662919" lon="0.650571">
        <ele>2492.6</ele>
        <time>1970-01-01T00:59:48.000Z</time>
      </trkpt>
      <trkpt lat="42.662918" lon="0.650574">
        <ele>2492.6</ele>
        <time>1970-01-01T00:59:49.000Z</time>
      </trkpt>
      <trkpt lat="42.662916" lon="0.650577">
        <ele>2492.6</ele>
        <time>1970-01-01T00:59:50.000Z</time>
      </trkpt>
      <trkpt lat="42.662916" lon="0.65058">
        <ele>2492.6</ele>
        <time>1970-01-01T00:59:51.000Z</time>
      </trkpt>
      <trkpt lat="42.662915" lon="0.650583">
        <ele>2492.6</ele>
        <time>1970-01-01T00:59:52.000Z</time>
      </trkpt>
      <trkpt lat="42.662915" lon="0.650585">
        <ele>2492.6</ele>
        <time>1970-01-01T00:59:53.000Z</time>
      </trkpt>
      <trkpt lat="42.662913" lon="0.650588">
        <ele>2492.6</ele>
        <time>1970-01-01T00:59:54.000Z</time>
      </trkpt>
      <trkpt lat="42.662909" lon="0.650592">
        <ele>2492.6</ele>
        <time>1970-01-01T00:59:55.000Z</time>
      </trkpt>
      <trkpt lat="42.662906" lon="0.650596">
        <ele>2492.6</ele>
        <time>1970-01-01T00:59:56.000Z</time>
      </trkpt>
      <trkpt lat="42.662902" lon="0.650604">
        <ele>2495.3</ele>
        <time>1970-01-01T00:59:57.000Z</time>
      </trkpt>
      <trkpt lat="42.662901" lon="0.650608">
        <ele>2495.3</ele>
        <time>1970-01-01T00:59:58.000Z</time>
      </trkpt>
      <trkpt lat="42.662901" lon="0.650615">
        <ele>2495.3</ele>
        <time>1970-01-01T01:00:00.000Z</time>
      </trkpt>
      <trkpt lat="42.662902" lon="0.650619">
        <ele>2495.3</ele>
        <time>1970-01-01T01:00:01.000Z</time>
      </trkpt>
      <trkpt lat="42.662903" lon="0.650622">
        <ele>2495.3</ele>
        <time>1970-01-01T01:00:02.000Z</time>
      </trkpt>
      <trkpt lat="42.662906" lon="0.650624">
        <ele>2493.8</ele>
        <time>1970-01-01T01:00:04.000Z</time>
      </trkpt>
      <trkpt lat="42.662908" lon="0.650626">
        <ele>2493.8</ele>
        <time>1970-01-01T01:00:05.000Z</time>
      </trkpt>
      <trkpt lat="42.662909" lon="0.650636">
        <ele>2493.8</ele>
        <time>1970-01-01T01:00:06.000Z</time>
      </trkpt>
      <trkpt lat="42.662907" lon="0.650642">
        <ele>2495.1</ele>
        <time>1970-01-01T01:00:07.000Z</time>
      </trkpt>
      <trkpt lat="42.662904" lon="0.650645">
        <ele>2496.5</ele>
        <time>1970-01-01T01:00:08.000Z</time>
      </trkpt>
      <trkpt lat="42.662901" lon="0.650646">
        <ele>2496.5</ele>
        <time>1970-01-01T01:00:09.000Z</time>
      </trkpt>
      <trkpt lat="42.662897" lon="0.650645">
        <ele>2496.5</ele>
        <time>1970-01-01T01:00:10.000Z</time>
      </trkpt>
      <trkpt lat="42.66289" lon="0.650647">
        <ele>2496.5</ele>
        <time>1970-01-01T01:00:11.000Z</time>
      </trkpt>
      <trkpt lat="42.662882" lon="0.65065">
        <ele>2496.5</ele>
        <time>1970-01-01T01:00:13.000Z</time>
      </trkpt>
      <trkpt lat="42.662873" lon="0.650655">
        <ele>2496.5</ele>
        <time>1970-01-01T01:00:14.000Z</time>
      </trkpt>
      <trkpt lat="42.66286" lon="0.65066">
        <ele>2498</ele>
        <time>1970-01-01T01:00:16.000Z</time>
      </trkpt>
      <trkpt lat="42.66285" lon="0.650661">
        <ele>2498</ele>
        <time>1970-01-01T01:00:17.000Z</time>
      </trkpt>
      <trkpt lat="42.662843" lon="0.650662">
        <ele>2498</ele>
        <time>1970-01-01T01:00:18.000Z</time>
      </trkpt>
      <trkpt lat="42.662839" lon="0.650668">
        <ele>2499.5</ele>
        <time>1970-01-01T01:00:19.000Z</time>
      </trkpt>
      <trkpt lat="42.662837" lon="0.650674">
        <ele>2499.5</ele>
        <time>1970-01-01T01:00:20.000Z</time>
      </trkpt>
      <trkpt lat="42.662836" lon="0.650682">
        <ele>2499.5</ele>
        <time>1970-01-01T01:00:22.000Z</time>
      </trkpt>
      <trkpt lat="42.662836" lon="0.650686">
        <ele>2500.8</ele>
        <time>1970-01-01T01:00:23.000Z</time>
      </trkpt>
      <trkpt lat="42.662838" lon="0.650689">
        <ele>2500.8</ele>
        <time>1970-01-01T01:00:24.000Z</time>
      </trkpt>
      <trkpt lat="42.662839" lon="0.65069">
        <ele>2500.8</ele>
        <time>1970-01-01T01:00:25.000Z</time>
      </trkpt>
      <trkpt lat="42.662843" lon="0.650691">
        <ele>2499.3</ele>
        <time>1970-01-01T01:00:27.000Z</time>
      </trkpt>
      <trkpt lat="42.662843" lon="0.650692">
        <ele>2499.3</ele>
        <time>1970-01-01T01:00:28.000Z</time>
      </trkpt>
      <trkpt lat="42.662843" lon="0.650693">
        <ele>2499.3</ele>
        <time>1970-01-01T01:00:29.000Z</time>
      </trkpt>
      <trkpt lat="42.662842" lon="0.650695">
        <ele>2499.3</ele>
        <time>1970-01-01T01:00:30.000Z</time>
      </trkpt>
      <trkpt lat="42.662841" lon="0.650696">
        <ele>2499.3</ele>
        <time>1970-01-01T01:00:31.000Z</time>
      </trkpt>
      <trkpt lat="42.66284" lon="0.650698">
        <ele>2500.8</ele>
        <time>1970-01-01T01:00:32.000Z</time>
      </trkpt>
      <trkpt lat="42.662837" lon="0.6507">
        <ele>2500.8</ele>
        <time>1970-01-01T01:00:33.000Z</time>
      </trkpt>
      <trkpt lat="42.662834" lon="0.650702">
        <ele>2500.8</ele>
        <time>1970-01-01T01:00:35.000Z</time>
      </trkpt>
      <trkpt lat="42.66283" lon="0.650704">
        <ele>2500.8</ele>
        <time>1970-01-01T01:00:36.000Z</time>
      </trkpt>
      <trkpt lat="42.662827" lon="0.650704">
        <ele>2500.8</ele>
        <time>1970-01-01T01:00:37.000Z</time>
      </trkpt>
      <trkpt lat="42.662824" lon="0.650704">
        <ele>2500.8</ele>
        <time>1970-01-01T01:00:38.000Z</time>
      </trkpt>
      <trkpt lat="42.662819" lon="0.650703">
        <ele>2500.8</ele>
        <time>1970-01-01T01:00:40.000Z</time>
      </trkpt>
      <trkpt lat="42.662816" lon="0.650703">
        <ele>2500.8</ele>
        <time>1970-01-01T01:00:41.000Z</time>
      </trkpt>
      <trkpt lat="42.662815" lon="0.650704">
        <ele>2500.8</ele>
        <time>1970-01-01T01:00:42.000Z</time>
      </trkpt>
      <trkpt lat="42.662814" lon="0.650705">
        <ele>2500.8</ele>
        <time>1970-01-01T01:00:43.000Z</time>
      </trkpt>
      <trkpt lat="42.662814" lon="0.650706">
        <ele>2500.8</ele>
        <time>1970-01-01T01:00:44.000Z</time>
      </trkpt>
      <trkpt lat="42.662813" lon="0.650707">
        <ele>2500.8</ele>
        <time>1970-01-01T01:00:45.000Z</time>
      </trkpt>
      <trkpt lat="42.662813" lon="0.650707">
        <ele>2500.8</ele>
        <time>1970-01-01T01:00:46.000Z</time>
      </trkpt>
      <trkpt lat="42.662813" lon="0.650708">
        <ele>2500.8</ele>
        <time>1970-01-01T01:00:47.000Z</time>
      </trkpt>
      <trkpt lat="42.662813" lon="0.650709">
        <ele>2500.8</ele>
        <time>1970-01-01T01:00:48.000Z</time>
      </trkpt>
      <trkpt lat="42.662812" lon="0.650714">
        <ele>2500.8</ele>
        <time>1970-01-01T01:00:50.000Z</time>
      </trkpt>
      <trkpt lat="42.662811" lon="0.650718">
        <ele>2500.8</ele>
        <time>1970-01-01T01:00:51.000Z</time>
      </trkpt>
      <trkpt lat="42.662811" lon="0.650721">
        <ele>2500.8</ele>
        <time>1970-01-01T01:00:52.000Z</time>
      </trkpt>
      <trkpt lat="42.66281" lon="0.650724">
        <ele>2500.8</ele>
        <time>1970-01-01T01:00:53.000Z</time>
      </trkpt>
      <trkpt lat="42.66281" lon="0.650726">
        <ele>2502.1</ele>
        <time>1970-01-01T01:00:54.000Z</time>
      </trkpt>
      <trkpt lat="42.662811" lon="0.650729">
        <ele>2502.1</ele>
        <time>1970-01-01T01:00:55.000Z</time>
      </trkpt>
      <trkpt lat="42.662812" lon="0.650732">
        <ele>2502.1</ele>
        <time>1970-01-01T01:00:56.000Z</time>
      </trkpt>
      <trkpt lat="42.662812" lon="0.650734">
        <ele>2502.1</ele>
        <time>1970-01-01T01:00:57.000Z</time>
      </trkpt>
      <trkpt lat="42.662812" lon="0.650737">
        <ele>2502.1</ele>
        <time>1970-01-01T01:00:58.000Z</time>
      </trkpt>
      <trkpt lat="42.662812" lon="0.65074">
        <ele>2502.1</ele>
        <time>1970-01-01T01:00:59.000Z</time>
      </trkpt>
      <trkpt lat="42.662812" lon="0.650741">
        <ele>2502.1</ele>
        <time>1970-01-01T01:01:00.000Z</time>
      </trkpt>
      <trkpt lat="42.662813" lon="0.650747">
        <ele>2502.1</ele>
        <time>1970-01-01T01:01:02.000Z</time>
      </trkpt>
      <trkpt lat="42.662814" lon="0.650753">
        <ele>2502.1</ele>
        <time>1970-01-01T01:01:03.000Z</time>
      </trkpt>
      <trkpt lat="42.662815" lon="0.650756">
        <ele>2502.1</ele>
        <time>1970-01-01T01:01:04.000Z</time>
      </trkpt>
      <trkpt lat="42.662816" lon="0.650759">
        <ele>2502.1</ele>
        <time>1970-01-01T01:01:05.000Z</time>
      </trkpt>
      <trkpt lat="42.662817" lon="0.65076">
        <ele>2502.1</ele>
        <time>1970-01-01T01:01:06.000Z</time>
      </trkpt>
      <trkpt lat="42.662818" lon="0.650762">
        <ele>2502.1</ele>
        <time>1970-01-01T01:01:07.000Z</time>
      </trkpt>
      <trkpt lat="42.662818" lon="0.650764">
        <ele>2502.1</ele>
        <time>1970-01-01T01:01:08.000Z</time>
      </trkpt>
      <trkpt lat="42.662818" lon="0.650764">
        <ele>2502.1</ele>
        <time>1970-01-01T01:01:09.000Z</time>
      </trkpt>
      <trkpt lat="42.662818" lon="0.650764">
        <ele>2502.1</ele>
        <time>1970-01-01T01:01:10.000Z</time>
      </trkpt>
      <trkpt lat="42.662815" lon="0.650769">
        <ele>2503.3</ele>
        <time>1970-01-01T01:01:12.000Z</time>
      </trkpt>
      <trkpt lat="42.662813" lon="0.650773">
        <ele>2503.3</ele>
        <time>1970-01-01T01:01:13.000Z</time>
      </trkpt>
      <trkpt lat="42.662811" lon="0.650776">
        <ele>2503.3</ele>
        <time>1970-01-01T01:01:14.000Z</time>
      </trkpt>
      <trkpt lat="42.662808" lon="0.65078">
        <ele>2505</ele>
        <time>1970-01-01T01:01:15.000Z</time>
      </trkpt>
      <trkpt lat="42.662806" lon="0.65078">
        <ele>2505</ele>
        <time>1970-01-01T01:01:16.000Z</time>
      </trkpt>
      <trkpt lat="42.662806" lon="0.65078">
        <ele>2505</ele>
        <time>1970-01-01T01:01:17.000Z</time>
      </trkpt>
      <trkpt lat="42.662805" lon="0.650779">
        <ele>2505</ele>
        <time>1970-01-01T01:01:18.000Z</time>
      </trkpt>
      <trkpt lat="42.662804" lon="0.650779">
        <ele>2505</ele>
        <time>1970-01-01T01:01:19.000Z</time>
      </trkpt>
      <trkpt lat="42.662803" lon="0.650778">
        <ele>2505</ele>
        <time>1970-01-01T01:01:20.000Z</time>
      </trkpt>
      <trkpt lat="42.662801" lon="0.650777">
        <ele>2505</ele>
        <time>1970-01-01T01:01:21.000Z</time>
      </trkpt>
      <trkpt lat="42.662799" lon="0.650776">
        <ele>2505</ele>
        <time>1970-01-01T01:01:22.000Z</time>
      </trkpt>
      <trkpt lat="42.662797" lon="0.650774">
        <ele>2505</ele>
        <time>1970-01-01T01:01:23.000Z</time>
      </trkpt>
      <trkpt lat="42.662795" lon="0.650774">
        <ele>2505</ele>
        <time>1970-01-01T01:01:24.000Z</time>
      </trkpt>
      <trkpt lat="42.662793" lon="0.650773">
        <ele>2505</ele>
        <time>1970-01-01T01:01:25.000Z</time>
      </trkpt>
      <trkpt lat="42.662792" lon="0.650773">
        <ele>2505</ele>
        <time>1970-01-01T01:01:26.000Z</time>
      </trkpt>
      <trkpt lat="42.662791" lon="0.650772">
        <ele>2505</ele>
        <time>1970-01-01T01:01:27.000Z</time>
      </trkpt>
      <trkpt lat="42.662788" lon="0.650772">
        <ele>2505</ele>
        <time>1970-01-01T01:01:28.000Z</time>
      </trkpt>
      <trkpt lat="42.662785" lon="0.650771">
        <ele>2505</ele>
        <time>1970-01-01T01:01:29.000Z</time>
      </trkpt>
      <trkpt lat="42.662783" lon="0.650771">
        <ele>2505</ele>
        <time>1970-01-01T01:01:30.000Z</time>
      </trkpt>
      <trkpt lat="42.66278" lon="0.65077">
        <ele>2505</ele>
        <time>1970-01-01T01:01:31.000Z</time>
      </trkpt>
      <trkpt lat="42.662778" lon="0.65077">
        <ele>2505</ele>
        <time>1970-01-01T01:01:32.000Z</time>
      </trkpt>
      <trkpt lat="42.662775" lon="0.650769">
        <ele>2506.7</ele>
        <time>1970-01-01T01:01:33.000Z</time>
      </trkpt>
      <trkpt lat="42.662773" lon="0.650766">
        <ele>2505.4</ele>
        <time>1970-01-01T01:01:34.000Z</time>
      </trkpt>
      <trkpt lat="42.66277" lon="0.650761">
        <ele>2505.4</ele>
        <time>1970-01-01T01:01:36.000Z</time>
      </trkpt>
      <trkpt lat="42.662768" lon="0.650757">
        <ele>2505.4</ele>
        <time>1970-01-01T01:01:37.000Z</time>
      </trkpt>
      <trkpt lat="42.662765" lon="0.65075">
        <ele>2505.4</ele>
        <time>1970-01-01T01:01:39.000Z</time>
      </trkpt>
      <trkpt lat="42.662762" lon="0.650747">
        <ele>2505.4</ele>
        <time>1970-01-01T01:01:40.000Z</time>
      </trkpt>
      <trkpt lat="42.662756" lon="0.650741">
        <ele>2505.4</ele>
        <time>1970-01-01T01:01:42.000Z</time>
      </trkpt>
      <trkpt lat="42.662755" lon="0.650739">
        <ele>2505.4</ele>
        <time>1970-01-01T01:01:43.000Z</time>
      </trkpt>
      <trkpt lat="42.662753" lon="0.650738">
        <ele>2505.4</ele>
        <time>1970-01-01T01:01:44.000Z</time>
      </trkpt>
      <trkpt lat="42.662753" lon="0.650737">
        <ele>2505.4</ele>
        <time>1970-01-01T01:01:45.000Z</time>
      </trkpt>
      <trkpt lat="42.662752" lon="0.650737">
        <ele>2505.4</ele>
        <time>1970-01-01T01:01:46.000Z</time>
      </trkpt>
      <trkpt lat="42.66275" lon="0.650735">
        <ele>2505.4</ele>
        <time>1970-01-01T01:01:47.000Z</time>
      </trkpt>
      <trkpt lat="42.662749" lon="0.650734">
        <ele>2505.4</ele>
        <time>1970-01-01T01:01:48.000Z</time>
      </trkpt>
      <trkpt lat="42.662748" lon="0.650732">
        <ele>2505.4</ele>
        <time>1970-01-01T01:01:49.000Z</time>
      </trkpt>
      <trkpt lat="42.662747" lon="0.650731">
        <ele>2505.4</ele>
        <time>1970-01-01T01:01:50.000Z</time>
      </trkpt>
      <trkpt lat="42.662745" lon="0.650731">
        <ele>2507.1</ele>
        <time>1970-01-01T01:01:51.000Z</time>
      </trkpt>
      <trkpt lat="42.662743" lon="0.650731">
        <ele>2507.1</ele>
        <time>1970-01-01T01:01:52.000Z</time>
      </trkpt>
      <trkpt lat="42.662741" lon="0.650731">
        <ele>2507.1</ele>
        <time>1970-01-01T01:01:53.000Z</time>
      </trkpt>
      <trkpt lat="42.662738" lon="0.650731">
        <ele>2507.1</ele>
        <time>1970-01-01T01:01:54.000Z</time>
      </trkpt>
      <trkpt lat="42.662735" lon="0.650731">
        <ele>2507.1</ele>
        <time>1970-01-01T01:01:55.000Z</time>
      </trkpt>
      <trkpt lat="42.662732" lon="0.650732">
        <ele>2507.1</ele>
        <time>1970-01-01T01:01:56.000Z</time>
      </trkpt>
      <trkpt lat="42.66273" lon="0.650733">
        <ele>2507.1</ele>
        <time>1970-01-01T01:01:57.000Z</time>
      </trkpt>
      <trkpt lat="42.662728" lon="0.650735">
        <ele>2507.1</ele>
        <time>1970-01-01T01:01:58.000Z</time>
      </trkpt>
      <trkpt lat="42.662726" lon="0.650739">
        <ele>2507.1</ele>
        <time>1970-01-01T01:01:59.000Z</time>
      </trkpt>
      <trkpt lat="42.662725" lon="0.650742">
        <ele>2507.1</ele>
        <time>1970-01-01T01:02:00.000Z</time>
      </trkpt>
      <trkpt lat="42.662725" lon="0.650745">
        <ele>2507.1</ele>
        <time>1970-01-01T01:02:01.000Z</time>
      </trkpt>
      <trkpt lat="42.662724" lon="0.650748">
        <ele>2507.1</ele>
        <time>1970-01-01T01:02:02.000Z</time>
      </trkpt>
      <trkpt lat="42.662723" lon="0.650751">
        <ele>2507.1</ele>
        <time>1970-01-01T01:02:03.000Z</time>
      </trkpt>
      <trkpt lat="42.662723" lon="0.650752">
        <ele>2507.1</ele>
        <time>1970-01-01T01:02:04.000Z</time>
      </trkpt>
      <trkpt lat="42.662723" lon="0.650753">
        <ele>2507.1</ele>
        <time>1970-01-01T01:02:05.000Z</time>
      </trkpt>
      <trkpt lat="42.662722" lon="0.650755">
        <ele>2507.1</ele>
        <time>1970-01-01T01:02:06.000Z</time>
      </trkpt>
      <trkpt lat="42.662722" lon="0.650755">
        <ele>2507.1</ele>
        <time>1970-01-01T01:02:07.000Z</time>
      </trkpt>
      <trkpt lat="42.662722" lon="0.650756">
        <ele>2507.1</ele>
        <time>1970-01-01T01:02:08.000Z</time>
      </trkpt>
      <trkpt lat="42.662721" lon="0.650756">
        <ele>2507.1</ele>
        <time>1970-01-01T01:02:09.000Z</time>
      </trkpt>
      <trkpt lat="42.662721" lon="0.650758">
        <ele>2507.1</ele>
        <time>1970-01-01T01:02:10.000Z</time>
      </trkpt>
      <trkpt lat="42.66272" lon="0.650759">
        <ele>2507.1</ele>
        <time>1970-01-01T01:02:11.000Z</time>
      </trkpt>
      <trkpt lat="42.662718" lon="0.650762">
        <ele>2507.1</ele>
        <time>1970-01-01T01:02:12.000Z</time>
      </trkpt>
      <trkpt lat="42.662717" lon="0.650765">
        <ele>2507.1</ele>
        <time>1970-01-01T01:02:13.000Z</time>
      </trkpt>
      <trkpt lat="42.662716" lon="0.65077">
        <ele>2508.4</ele>
        <time>1970-01-01T01:02:14.000Z</time>
      </trkpt>
      <trkpt lat="42.662714" lon="0.650775">
        <ele>2510.1</ele>
        <time>1970-01-01T01:02:16.000Z</time>
      </trkpt>
      <trkpt lat="42.662709" lon="0.650787">
        <ele>2510.1</ele>
        <time>1970-01-01T01:02:17.000Z</time>
      </trkpt>
      <trkpt lat="42.662704" lon="0.650791">
        <ele>2510.1</ele>
        <time>1970-01-01T01:02:18.000Z</time>
      </trkpt>
      <trkpt lat="42.6627" lon="0.650793">
        <ele>2510.1</ele>
        <time>1970-01-01T01:02:19.000Z</time>
      </trkpt>
      <trkpt lat="42.662697" lon="0.650793">
        <ele>2510.1</ele>
        <time>1970-01-01T01:02:20.000Z</time>
      </trkpt>
      <trkpt lat="42.662695" lon="0.650792">
        <ele>2510.1</ele>
        <time>1970-01-01T01:02:21.000Z</time>
      </trkpt>
      <trkpt lat="42.662693" lon="0.650792">
        <ele>2510.1</ele>
        <time>1970-01-01T01:02:22.000Z</time>
      </trkpt>
      <trkpt lat="42.662692" lon="0.650791">
        <ele>2510.1</ele>
        <time>1970-01-01T01:02:23.000Z</time>
      </trkpt>
      <trkpt lat="42.66269" lon="0.650792">
        <ele>2510.1</ele>
        <time>1970-01-01T01:02:24.000Z</time>
      </trkpt>
      <trkpt lat="42.662686" lon="0.650794">
        <ele>2510.1</ele>
        <time>1970-01-01T01:02:25.000Z</time>
      </trkpt>
      <trkpt lat="42.662679" lon="0.650795">
        <ele>2511.6</ele>
        <time>1970-01-01T01:02:27.000Z</time>
      </trkpt>
      <trkpt lat="42.662677" lon="0.650793">
        <ele>2511.6</ele>
        <time>1970-01-01T01:02:28.000Z</time>
      </trkpt>
      <trkpt lat="42.662676" lon="0.650791">
        <ele>2511.6</ele>
        <time>1970-01-01T01:02:29.000Z</time>
      </trkpt>
      <trkpt lat="42.662675" lon="0.650789">
        <ele>2511.6</ele>
        <time>1970-01-01T01:02:30.000Z</time>
      </trkpt>
      <trkpt lat="42.662675" lon="0.650788">
        <ele>2511.6</ele>
        <time>1970-01-01T01:02:31.000Z</time>
      </trkpt>
      <trkpt lat="42.662674" lon="0.650787">
        <ele>2511.6</ele>
        <time>1970-01-01T01:02:32.000Z</time>
      </trkpt>
      <trkpt lat="42.662674" lon="0.650787">
        <ele>2511.6</ele>
        <time>1970-01-01T01:02:33.000Z</time>
      </trkpt>
      <trkpt lat="42.662674" lon="0.650788">
        <ele>2511.6</ele>
        <time>1970-01-01T01:02:34.000Z</time>
      </trkpt>
      <trkpt lat="42.662674" lon="0.650789">
        <ele>2511.6</ele>
        <time>1970-01-01T01:02:35.000Z</time>
      </trkpt>
      <trkpt lat="42.662674" lon="0.65079">
        <ele>2511.6</ele>
        <time>1970-01-01T01:02:36.000Z</time>
      </trkpt>
      <trkpt lat="42.662672" lon="0.650792">
        <ele>2511.6</ele>
        <time>1970-01-01T01:02:38.000Z</time>
      </trkpt>
      <trkpt lat="42.662669" lon="0.650793">
        <ele>2511.6</ele>
        <time>1970-01-01T01:02:39.000Z</time>
      </trkpt>
      <trkpt lat="42.662668" lon="0.650796">
        <ele>2511.6</ele>
        <time>1970-01-01T01:02:40.000Z</time>
      </trkpt>
      <trkpt lat="42.662667" lon="0.6508">
        <ele>2511.6</ele>
        <time>1970-01-01T01:02:41.000Z</time>
      </trkpt>
      <trkpt lat="42.662666" lon="0.650801">
        <ele>2511.6</ele>
        <time>1970-01-01T01:02:42.000Z</time>
      </trkpt>
      <trkpt lat="42.662665" lon="0.650804">
        <ele>2511.6</ele>
        <time>1970-01-01T01:02:43.000Z</time>
      </trkpt>
      <trkpt lat="42.662664" lon="0.650809">
        <ele>2511.6</ele>
        <time>1970-01-01T01:02:45.000Z</time>
      </trkpt>
      <trkpt lat="42.662665" lon="0.650812">
        <ele>2512.8</ele>
        <time>1970-01-01T01:02:46.000Z</time>
      </trkpt>
      <trkpt lat="42.662664" lon="0.650815">
        <ele>2512.8</ele>
        <time>1970-01-01T01:02:47.000Z</time>
      </trkpt>
      <trkpt lat="42.662664" lon="0.650817">
        <ele>2512.8</ele>
        <time>1970-01-01T01:02:48.000Z</time>
      </trkpt>
      <trkpt lat="42.662664" lon="0.650819">
        <ele>2512.8</ele>
        <time>1970-01-01T01:02:49.000Z</time>
      </trkpt>
      <trkpt lat="42.662665" lon="0.650821">
        <ele>2512.8</ele>
        <time>1970-01-01T01:02:50.000Z</time>
      </trkpt>
      <trkpt lat="42.662665" lon="0.650823">
        <ele>2512.8</ele>
        <time>1970-01-01T01:02:51.000Z</time>
      </trkpt>
      <trkpt lat="42.662667" lon="0.650826">
        <ele>2512.8</ele>
        <time>1970-01-01T01:02:52.000Z</time>
      </trkpt>
      <trkpt lat="42.662667" lon="0.650827">
        <ele>2512.8</ele>
        <time>1970-01-01T01:02:53.000Z</time>
      </trkpt>
      <trkpt lat="42.662666" lon="0.650829">
        <ele>2512.8</ele>
        <time>1970-01-01T01:02:55.000Z</time>
      </trkpt>
      <trkpt lat="42.662667" lon="0.650831">
        <ele>2512.8</ele>
        <time>1970-01-01T01:02:56.000Z</time>
      </trkpt>
      <trkpt lat="42.662667" lon="0.650833">
        <ele>2512.8</ele>
        <time>1970-01-01T01:02:57.000Z</time>
      </trkpt>
      <trkpt lat="42.662666" lon="0.650834">
        <ele>2512.8</ele>
        <time>1970-01-01T01:02:58.000Z</time>
      </trkpt>
      <trkpt lat="42.662665" lon="0.650835">
        <ele>2512.8</ele>
        <time>1970-01-01T01:02:59.000Z</time>
      </trkpt>
      <trkpt lat="42.662664" lon="0.650836">
        <ele>2512.8</ele>
        <time>1970-01-01T01:03:00.000Z</time>
      </trkpt>
      <trkpt lat="42.662662" lon="0.650836">
        <ele>2512.8</ele>
        <time>1970-01-01T01:03:01.000Z</time>
      </trkpt>
      <trkpt lat="42.662661" lon="0.650835">
        <ele>2512.8</ele>
        <time>1970-01-01T01:03:02.000Z</time>
      </trkpt>
      <trkpt lat="42.662656" lon="0.650832">
        <ele>2512.8</ele>
        <time>1970-01-01T01:03:03.000Z</time>
      </trkpt>
      <trkpt lat="42.662652" lon="0.65083">
        <ele>2512.8</ele>
        <time>1970-01-01T01:03:04.000Z</time>
      </trkpt>
      <trkpt lat="42.662647" lon="0.650829">
        <ele>2514.2</ele>
        <time>1970-01-01T01:03:06.000Z</time>
      </trkpt>
      <trkpt lat="42.662643" lon="0.650828">
        <ele>2514.2</ele>
        <time>1970-01-01T01:03:07.000Z</time>
      </trkpt>
      <trkpt lat="42.66264" lon="0.650826">
        <ele>2514.2</ele>
        <time>1970-01-01T01:03:08.000Z</time>
      </trkpt>
      <trkpt lat="42.662637" lon="0.650825">
        <ele>2514.2</ele>
        <time>1970-01-01T01:03:09.000Z</time>
      </trkpt>
      <trkpt lat="42.662634" lon="0.650824">
        <ele>2514.2</ele>
        <time>1970-01-01T01:03:11.000Z</time>
      </trkpt>
      <trkpt lat="42.662631" lon="0.650822">
        <ele>2514.2</ele>
        <time>1970-01-01T01:03:12.000Z</time>
      </trkpt>
      <trkpt lat="42.66263" lon="0.650816">
        <ele>2514.2</ele>
        <time>1970-01-01T01:03:13.000Z</time>
      </trkpt>
      <trkpt lat="42.662631" lon="0.650812">
        <ele>2514.2</ele>
        <time>1970-01-01T01:03:14.000Z</time>
      </trkpt>
      <trkpt lat="42.662633" lon="0.650804">
        <ele>2512.9</ele>
        <time>1970-01-01T01:03:15.000Z</time>
      </trkpt>
      <trkpt lat="42.662635" lon="0.650795">
        <ele>2512.9</ele>
        <time>1970-01-01T01:03:16.000Z</time>
      </trkpt>
      <trkpt lat="42.662635" lon="0.65079">
        <ele>2512.9</ele>
        <time>1970-01-01T01:03:17.000Z</time>
      </trkpt>
      <trkpt lat="42.662635" lon="0.650784">
        <ele>2512.9</ele>
        <time>1970-01-01T01:03:18.000Z</time>
      </trkpt>
      <trkpt lat="42.662636" lon="0.650775">
        <ele>2512.9</ele>
        <time>1970-01-01T01:03:19.000Z</time>
      </trkpt>
      <trkpt lat="42.66264" lon="0.65076">
        <ele>2511.5</ele>
        <time>1970-01-01T01:03:21.000Z</time>
      </trkpt>
      <trkpt lat="42.662641" lon="0.650746">
        <ele>2511.5</ele>
        <time>1970-01-01T01:03:22.000Z</time>
      </trkpt>
      <trkpt lat="42.66264" lon="0.650738">
        <ele>2511.5</ele>
        <time>1970-01-01T01:03:23.000Z</time>
      </trkpt>
      <trkpt lat="42.662638" lon="0.65073">
        <ele>2511.5</ele>
        <time>1970-01-01T01:03:24.000Z</time>
      </trkpt>
      <trkpt lat="42.662634" lon="0.650723">
        <ele>2510.1</ele>
        <time>1970-01-01T01:03:25.000Z</time>
      </trkpt>
      <trkpt lat="42.66263" lon="0.650718">
        <ele>2510.1</ele>
        <time>1970-01-01T01:03:26.000Z</time>
      </trkpt>
      <trkpt lat="42.662627" lon="0.650713">
        <ele>2510.1</ele>
        <time>1970-01-01T01:03:27.000Z</time>
      </trkpt>
      <trkpt lat="42.662622" lon="0.650705">
        <ele>2510.1</ele>
        <time>1970-01-01T01:03:29.000Z</time>
      </trkpt>
      <trkpt lat="42.66261" lon="0.650706">
        <ele>2511.4</ele>
        <time>1970-01-01T01:03:30.000Z</time>
      </trkpt>
      <trkpt lat="42.662603" lon="0.650709">
        <ele>2511.4</ele>
        <time>1970-01-01T01:03:31.000Z</time>
      </trkpt>
      <trkpt lat="42.662593" lon="0.650717">
        <ele>2511.4</ele>
        <time>1970-01-01T01:03:32.000Z</time>
      </trkpt>
      <trkpt lat="42.662588" lon="0.650727">
        <ele>2514.1</ele>
        <time>1970-01-01T01:03:33.000Z</time>
      </trkpt>
      <trkpt lat="42.662585" lon="0.650739">
        <ele>2514.1</ele>
        <time>1970-01-01T01:03:34.000Z</time>
      </trkpt>
      <trkpt lat="42.662585" lon="0.65075">
        <ele>2514.1</ele>
        <time>1970-01-01T01:03:35.000Z</time>
      </trkpt>
      <trkpt lat="42.662585" lon="0.650761">
        <ele>2514.1</ele>
        <time>1970-01-01T01:03:36.000Z</time>
      </trkpt>
      <trkpt lat="42.662586" lon="0.650774">
        <ele>2515.5</ele>
        <time>1970-01-01T01:03:38.000Z</time>
      </trkpt>
      <trkpt lat="42.662587" lon="0.650779">
        <ele>2515.5</ele>
        <time>1970-01-01T01:03:39.000Z</time>
      </trkpt>
      <trkpt lat="42.662587" lon="0.650783">
        <ele>2515.5</ele>
        <time>1970-01-01T01:03:40.000Z</time>
      </trkpt>
      <trkpt lat="42.662587" lon="0.650786">
        <ele>2515.5</ele>
        <time>1970-01-01T01:03:41.000Z</time>
      </trkpt>
      <trkpt lat="42.662585" lon="0.650789">
        <ele>2515.5</ele>
        <time>1970-01-01T01:03:42.000Z</time>
      </trkpt>
      <trkpt lat="42.662584" lon="0.650792">
        <ele>2515.5</ele>
        <time>1970-01-01T01:03:43.000Z</time>
      </trkpt>
      <trkpt lat="42.662583" lon="0.650794">
        <ele>2515.5</ele>
        <time>1970-01-01T01:03:44.000Z</time>
      </trkpt>
      <trkpt lat="42.662582" lon="0.650796">
        <ele>2515.5</ele>
        <time>1970-01-01T01:03:45.000Z</time>
      </trkpt>
      <trkpt lat="42.662582" lon="0.650798">
        <ele>2515.5</ele>
        <time>1970-01-01T01:03:46.000Z</time>
      </trkpt>
      <trkpt lat="42.662583" lon="0.6508">
        <ele>2515.5</ele>
        <time>1970-01-01T01:03:47.000Z</time>
      </trkpt>
      <trkpt lat="42.662584" lon="0.650803">
        <ele>2515.5</ele>
        <time>1970-01-01T01:03:48.000Z</time>
      </trkpt>
      <trkpt lat="42.662584" lon="0.650806">
        <ele>2515.5</ele>
        <time>1970-01-01T01:03:49.000Z</time>
      </trkpt>
      <trkpt lat="42.662584" lon="0.650808">
        <ele>2515.5</ele>
        <time>1970-01-01T01:03:50.000Z</time>
      </trkpt>
      <trkpt lat="42.662584" lon="0.65081">
        <ele>2515.5</ele>
        <time>1970-01-01T01:03:51.000Z</time>
      </trkpt>
      <trkpt lat="42.66258" lon="0.650816">
        <ele>2516.8</ele>
        <time>1970-01-01T01:03:53.000Z</time>
      </trkpt>
      <trkpt lat="42.66258" lon="0.650821">
        <ele>2516.8</ele>
        <time>1970-01-01T01:03:54.000Z</time>
      </trkpt>
      <trkpt lat="42.66258" lon="0.650823">
        <ele>2516.8</ele>
        <time>1970-01-01T01:03:55.000Z</time>
      </trkpt>
      <trkpt lat="42.662581" lon="0.650825">
        <ele>2516.8</ele>
        <time>1970-01-01T01:03:56.000Z</time>
      </trkpt>
      <trkpt lat="42.662583" lon="0.650827">
        <ele>2516.8</ele>
        <time>1970-01-01T01:03:57.000Z</time>
      </trkpt>
      <trkpt lat="42.662584" lon="0.650828">
        <ele>2516.8</ele>
        <time>1970-01-01T01:03:58.000Z</time>
      </trkpt>
      <trkpt lat="42.662586" lon="0.650829">
        <ele>2516.8</ele>
        <time>1970-01-01T01:04:00.000Z</time>
      </trkpt>
      <trkpt lat="42.662588" lon="0.650831">
        <ele>2516.8</ele>
        <time>1970-01-01T01:04:01.000Z</time>
      </trkpt>
      <trkpt lat="42.66259" lon="0.650833">
        <ele>2515.5</ele>
        <time>1970-01-01T01:04:02.000Z</time>
      </trkpt>
      <trkpt lat="42.66259" lon="0.650835">
        <ele>2515.5</ele>
        <time>1970-01-01T01:04:03.000Z</time>
      </trkpt>
      <trkpt lat="42.662585" lon="0.650851">
        <ele>2516.8</ele>
        <time>1970-01-01T01:04:04.000Z</time>
      </trkpt>
      <trkpt lat="42.662584" lon="0.650872">
        <ele>2518</ele>
        <time>1970-01-01T01:04:06.000Z</time>
      </trkpt>
      <trkpt lat="42.662583" lon="0.650879">
        <ele>2518</ele>
        <time>1970-01-01T01:04:07.000Z</time>
      </trkpt>
      <trkpt lat="42.662582" lon="0.650884">
        <ele>2518</ele>
        <time>1970-01-01T01:04:08.000Z</time>
      </trkpt>
      <trkpt lat="42.66258" lon="0.650888">
        <ele>2518</ele>
        <time>1970-01-01T01:04:09.000Z</time>
      </trkpt>
      <trkpt lat="42.662574" lon="0.650897">
        <ele>2518</ele>
        <time>1970-01-01T01:04:10.000Z</time>
      </trkpt>
      <trkpt lat="42.662567" lon="0.650908">
        <ele>2519.2</ele>
        <time>1970-01-01T01:04:12.000Z</time>
      </trkpt>
      <trkpt lat="42.662563" lon="0.650914">
        <ele>2519.2</ele>
        <time>1970-01-01T01:04:13.000Z</time>
      </trkpt>
      <trkpt lat="42.662558" lon="0.650919">
        <ele>2519.2</ele>
        <time>1970-01-01T01:04:14.000Z</time>
      </trkpt>
      <trkpt lat="42.662551" lon="0.650923">
        <ele>2520.6</ele>
        <time>1970-01-01T01:04:15.000Z</time>
      </trkpt>
      <trkpt lat="42.662546" lon="0.650925">
        <ele>2520.6</ele>
        <time>1970-01-01T01:04:16.000Z</time>
      </trkpt>
      <trkpt lat="42.662543" lon="0.650925">
        <ele>2520.6</ele>
        <time>1970-01-01T01:04:17.000Z</time>
      </trkpt>
      <trkpt lat="42.662538" lon="0.650925">
        <ele>2520.6</ele>
        <time>1970-01-01T01:04:18.000Z</time>
      </trkpt>
      <trkpt lat="42.662533" lon="0.650922">
        <ele>2520.6</ele>
        <time>1970-01-01T01:04:19.000Z</time>
      </trkpt>
      <trkpt lat="42.66253" lon="0.650922">
        <ele>2520.6</ele>
        <time>1970-01-01T01:04:20.000Z</time>
      </trkpt>
      <trkpt lat="42.662528" lon="0.650923">
        <ele>2520.6</ele>
        <time>1970-01-01T01:04:21.000Z</time>
      </trkpt>
      <trkpt lat="42.662526" lon="0.650925">
        <ele>2520.6</ele>
        <time>1970-01-01T01:04:22.000Z</time>
      </trkpt>
      <trkpt lat="42.662523" lon="0.650926">
        <ele>2522</ele>
        <time>1970-01-01T01:04:23.000Z</time>
      </trkpt>
      <trkpt lat="42.662518" lon="0.650921">
        <ele>2522</ele>
        <time>1970-01-01T01:04:24.000Z</time>
      </trkpt>
      <trkpt lat="42.662519" lon="0.650911">
        <ele>2522</ele>
        <time>1970-01-01T01:04:26.000Z</time>
      </trkpt>
      <trkpt lat="42.662519" lon="0.650903">
        <ele>2522</ele>
        <time>1970-01-01T01:04:27.000Z</time>
      </trkpt>
      <trkpt lat="42.662521" lon="0.650898">
        <ele>2522</ele>
        <time>1970-01-01T01:04:28.000Z</time>
      </trkpt>
      <trkpt lat="42.662522" lon="0.650896">
        <ele>2520.9</ele>
        <time>1970-01-01T01:04:29.000Z</time>
      </trkpt>
      <trkpt lat="42.662524" lon="0.650893">
        <ele>2520.9</ele>
        <time>1970-01-01T01:04:30.000Z</time>
      </trkpt>
      <trkpt lat="42.662525" lon="0.65089">
        <ele>2520.9</ele>
        <time>1970-01-01T01:04:31.000Z</time>
      </trkpt>
      <trkpt lat="42.662527" lon="0.650885">
        <ele>2519.4</ele>
        <time>1970-01-01T01:04:32.000Z</time>
      </trkpt>
      <trkpt lat="42.662531" lon="0.650878">
        <ele>2519.4</ele>
        <time>1970-01-01T01:04:34.000Z</time>
      </trkpt>
      <trkpt lat="42.662533" lon="0.650874">
        <ele>2519.4</ele>
        <time>1970-01-01T01:04:35.000Z</time>
      </trkpt>
      <trkpt lat="42.662533" lon="0.650867">
        <ele>2519.4</ele>
        <time>1970-01-01T01:04:36.000Z</time>
      </trkpt>
      <trkpt lat="42.662532" lon="0.650859">
        <ele>2519.4</ele>
        <time>1970-01-01T01:04:37.000Z</time>
      </trkpt>
      <trkpt lat="42.662531" lon="0.650855">
        <ele>2519.4</ele>
        <time>1970-01-01T01:04:38.000Z</time>
      </trkpt>
      <trkpt lat="42.662529" lon="0.650851">
        <ele>2518.2</ele>
        <time>1970-01-01T01:04:40.000Z</time>
      </trkpt>
      <trkpt lat="42.662525" lon="0.650846">
        <ele>2519.7</ele>
        <time>1970-01-01T01:04:41.000Z</time>
      </trkpt>
      <trkpt lat="42.662522" lon="0.650838">
        <ele>2519.7</ele>
        <time>1970-01-01T01:04:42.000Z</time>
      </trkpt>
      <trkpt lat="42.662515" lon="0.650828">
        <ele>2519.7</ele>
        <time>1970-01-01T01:04:43.000Z</time>
      </trkpt>
      <trkpt lat="42.662506" lon="0.650823">
        <ele>2519.7</ele>
        <time>1970-01-01T01:04:45.000Z</time>
      </trkpt>
      <trkpt lat="42.662499" lon="0.65083">
        <ele>2519.7</ele>
        <time>1970-01-01T01:04:46.000Z</time>
      </trkpt>
      <trkpt lat="42.662495" lon="0.650834">
        <ele>2519.7</ele>
        <time>1970-01-01T01:04:47.000Z</time>
      </trkpt>
      <trkpt lat="42.66249" lon="0.650838">
        <ele>2521.2</ele>
        <time>1970-01-01T01:04:48.000Z</time>
      </trkpt>
      <trkpt lat="42.662485" lon="0.65084">
        <ele>2521.2</ele>
        <time>1970-01-01T01:04:49.000Z</time>
      </trkpt>
      <trkpt lat="42.662476" lon="0.650839">
        <ele>2521.2</ele>
        <time>1970-01-01T01:04:50.000Z</time>
      </trkpt>
      <trkpt lat="42.662472" lon="0.650841">
        <ele>2521.2</ele>
        <time>1970-01-01T01:04:51.000Z</time>
      </trkpt>
      <trkpt lat="42.662472" lon="0.650843">
        <ele>2521.2</ele>
        <time>1970-01-01T01:04:52.000Z</time>
      </trkpt>
      <trkpt lat="42.662471" lon="0.650845">
        <ele>2521.2</ele>
        <time>1970-01-01T01:04:53.000Z</time>
      </trkpt>
      <trkpt lat="42.66247" lon="0.650849">
        <ele>2521.2</ele>
        <time>1970-01-01T01:04:54.000Z</time>
      </trkpt>
      <trkpt lat="42.662469" lon="0.650852">
        <ele>2521.2</ele>
        <time>1970-01-01T01:04:55.000Z</time>
      </trkpt>
      <trkpt lat="42.662466" lon="0.650855">
        <ele>2522.4</ele>
        <time>1970-01-01T01:04:57.000Z</time>
      </trkpt>
      <trkpt lat="42.662464" lon="0.650853">
        <ele>2521.2</ele>
        <time>1970-01-01T01:04:58.000Z</time>
      </trkpt>
      <trkpt lat="42.662463" lon="0.650847">
        <ele>2521.2</ele>
        <time>1970-01-01T01:04:59.000Z</time>
      </trkpt>
      <trkpt lat="42.662462" lon="0.650841">
        <ele>2522.6</ele>
        <time>1970-01-01T01:05:00.000Z</time>
      </trkpt>
      <trkpt lat="42.662461" lon="0.650838">
        <ele>2522.6</ele>
        <time>1970-01-01T01:05:01.000Z</time>
      </trkpt>
      <trkpt lat="42.66246" lon="0.650839">
        <ele>2522.6</ele>
        <time>1970-01-01T01:05:02.000Z</time>
      </trkpt>
      <trkpt lat="42.662459" lon="0.650839">
        <ele>2522.6</ele>
        <time>1970-01-01T01:05:03.000Z</time>
      </trkpt>
      <trkpt lat="42.662457" lon="0.650839">
        <ele>2522.6</ele>
        <time>1970-01-01T01:05:04.000Z</time>
      </trkpt>
      <trkpt lat="42.662455" lon="0.65084">
        <ele>2522.6</ele>
        <time>1970-01-01T01:05:05.000Z</time>
      </trkpt>
      <trkpt lat="42.662451" lon="0.65084">
        <ele>2522.6</ele>
        <time>1970-01-01T01:05:06.000Z</time>
      </trkpt>
      <trkpt lat="42.662445" lon="0.650839">
        <ele>2522.6</ele>
        <time>1970-01-01T01:05:07.000Z</time>
      </trkpt>
      <trkpt lat="42.66244" lon="0.650838">
        <ele>2522.6</ele>
        <time>1970-01-01T01:05:08.000Z</time>
      </trkpt>
      <trkpt lat="42.662432" lon="0.650828">
        <ele>2522.6</ele>
        <time>1970-01-01T01:05:09.000Z</time>
      </trkpt>
      <trkpt lat="42.66243" lon="0.650818">
        <ele>2523.9</ele>
        <time>1970-01-01T01:05:10.000Z</time>
      </trkpt>
      <trkpt lat="42.66243" lon="0.650805">
        <ele>2522.7</ele>
        <time>1970-01-01T01:05:11.000Z</time>
      </trkpt>
      <trkpt lat="42.66243" lon="0.650794">
        <ele>2522.7</ele>
        <time>1970-01-01T01:05:12.000Z</time>
      </trkpt>
      <trkpt lat="42.662431" lon="0.650784">
        <ele>2521.4</ele>
        <time>1970-01-01T01:05:13.000Z</time>
      </trkpt>
      <trkpt lat="42.662428" lon="0.650778">
        <ele>2522.7</ele>
        <time>1970-01-01T01:05:14.000Z</time>
      </trkpt>
      <trkpt lat="42.662424" lon="0.650776">
        <ele>2522.7</ele>
        <time>1970-01-01T01:05:15.000Z</time>
      </trkpt>
      <trkpt lat="42.662422" lon="0.65078">
        <ele>2522.7</ele>
        <time>1970-01-01T01:05:16.000Z</time>
      </trkpt>
      <trkpt lat="42.662419" lon="0.650787">
        <ele>2522.7</ele>
        <time>1970-01-01T01:05:17.000Z</time>
      </trkpt>
      <trkpt lat="42.662416" lon="0.650793">
        <ele>2522.7</ele>
        <time>1970-01-01T01:05:18.000Z</time>
      </trkpt>
      <trkpt lat="42.662413" lon="0.6508">
        <ele>2522.7</ele>
        <time>1970-01-01T01:05:19.000Z</time>
      </trkpt>
      <trkpt lat="42.662411" lon="0.65081">
        <ele>2522.7</ele>
        <time>1970-01-01T01:05:20.000Z</time>
      </trkpt>
      <trkpt lat="42.662411" lon="0.650815">
        <ele>2523.9</ele>
        <time>1970-01-01T01:05:21.000Z</time>
      </trkpt>
      <trkpt lat="42.66241" lon="0.65082">
        <ele>2523.9</ele>
        <time>1970-01-01T01:05:22.000Z</time>
      </trkpt>
      <trkpt lat="42.66241" lon="0.650825">
        <ele>2523.9</ele>
        <time>1970-01-01T01:05:23.000Z</time>
      </trkpt>
      <trkpt lat="42.66241" lon="0.650831">
        <ele>2523.9</ele>
        <time>1970-01-01T01:05:24.000Z</time>
      </trkpt>
      <trkpt lat="42.662407" lon="0.65084">
        <ele>2523.9</ele>
        <time>1970-01-01T01:05:26.000Z</time>
      </trkpt>
      <trkpt lat="42.662407" lon="0.650847">
        <ele>2523.9</ele>
        <time>1970-01-01T01:05:27.000Z</time>
      </trkpt>
      <trkpt lat="42.662407" lon="0.650852">
        <ele>2523.9</ele>
        <time>1970-01-01T01:05:28.000Z</time>
      </trkpt>
      <trkpt lat="42.662407" lon="0.650857">
        <ele>2525.1</ele>
        <time>1970-01-01T01:05:29.000Z</time>
      </trkpt>
      <trkpt lat="42.662408" lon="0.65086">
        <ele>2525.1</ele>
        <time>1970-01-01T01:05:30.000Z</time>
      </trkpt>
      <trkpt lat="42.662408" lon="0.650865">
        <ele>2525.1</ele>
        <time>1970-01-01T01:05:31.000Z</time>
      </trkpt>
      <trkpt lat="42.662408" lon="0.65087">
        <ele>2525.1</ele>
        <time>1970-01-01T01:05:32.000Z</time>
      </trkpt>
      <trkpt lat="42.662407" lon="0.650874">
        <ele>2525.1</ele>
        <time>1970-01-01T01:05:33.000Z</time>
      </trkpt>
      <trkpt lat="42.662405" lon="0.650881">
        <ele>2525.1</ele>
        <time>1970-01-01T01:05:34.000Z</time>
      </trkpt>
      <trkpt lat="42.662401" lon="0.650888">
        <ele>2525.1</ele>
        <time>1970-01-01T01:05:35.000Z</time>
      </trkpt>
      <trkpt lat="42.662398" lon="0.650896">
        <ele>2526.3</ele>
        <time>1970-01-01T01:05:36.000Z</time>
      </trkpt>
      <trkpt lat="42.662396" lon="0.650902">
        <ele>2527.4</ele>
        <time>1970-01-01T01:05:37.000Z</time>
      </trkpt>
      <trkpt lat="42.662393" lon="0.650906">
        <ele>2527.4</ele>
        <time>1970-01-01T01:05:38.000Z</time>
      </trkpt>
      <trkpt lat="42.662391" lon="0.650911">
        <ele>2527.4</ele>
        <time>1970-01-01T01:05:39.000Z</time>
      </trkpt>
      <trkpt lat="42.662389" lon="0.650915">
        <ele>2527.4</ele>
        <time>1970-01-01T01:05:40.000Z</time>
      </trkpt>
      <trkpt lat="42.662384" lon="0.650919">
        <ele>2527.4</ele>
        <time>1970-01-01T01:05:42.000Z</time>
      </trkpt>
      <trkpt lat="42.662379" lon="0.65092">
        <ele>2527.4</ele>
        <time>1970-01-01T01:05:43.000Z</time>
      </trkpt>
      <trkpt lat="42.662376" lon="0.650918">
        <ele>2527.4</ele>
        <time>1970-01-01T01:05:44.000Z</time>
      </trkpt>
      <trkpt lat="42.662375" lon="0.650917">
        <ele>2527.4</ele>
        <time>1970-01-01T01:05:45.000Z</time>
      </trkpt>
      <trkpt lat="42.662375" lon="0.650917">
        <ele>2527.4</ele>
        <time>1970-01-01T01:05:46.000Z</time>
      </trkpt>
      <trkpt lat="42.662375" lon="0.650917">
        <ele>2527.4</ele>
        <time>1970-01-01T01:05:47.000Z</time>
      </trkpt>
      <trkpt lat="42.662375" lon="0.650917">
        <ele>2527.4</ele>
        <time>1970-01-01T01:05:48.000Z</time>
      </trkpt>
      <trkpt lat="42.662374" lon="0.650917">
        <ele>2527.4</ele>
        <time>1970-01-01T01:05:49.000Z</time>
      </trkpt>
      <trkpt lat="42.662374" lon="0.650916">
        <ele>2527.4</ele>
        <time>1970-01-01T01:05:50.000Z</time>
      </trkpt>
      <trkpt lat="42.662373" lon="0.650916">
        <ele>2527.4</ele>
        <time>1970-01-01T01:05:51.000Z</time>
      </trkpt>
      <trkpt lat="42.662371" lon="0.650914">
        <ele>2527.4</ele>
        <time>1970-01-01T01:05:52.000Z</time>
      </trkpt>
      <trkpt lat="42.662368" lon="0.650909">
        <ele>2527.4</ele>
        <time>1970-01-01T01:05:53.000Z</time>
      </trkpt>
      <trkpt lat="42.662367" lon="0.650905">
        <ele>2528.5</ele>
        <time>1970-01-01T01:05:54.000Z</time>
      </trkpt>
      <trkpt lat="42.662368" lon="0.650902">
        <ele>2527.4</ele>
        <time>1970-01-01T01:05:55.000Z</time>
      </trkpt>
      <trkpt lat="42.66237" lon="0.650898">
        <ele>2527.4</ele>
        <time>1970-01-01T01:05:56.000Z</time>
      </trkpt>
      <trkpt lat="42.66237" lon="0.650895">
        <ele>2526.3</ele>
        <time>1970-01-01T01:05:57.000Z</time>
      </trkpt>
      <trkpt lat="42.662368" lon="0.650891">
        <ele>2526.3</ele>
        <time>1970-01-01T01:05:59.000Z</time>
      </trkpt>
      <trkpt lat="42.662366" lon="0.650884">
        <ele>2527.4</ele>
        <time>1970-01-01T01:06:00.000Z</time>
      </trkpt>
      <trkpt lat="42.662364" lon="0.650877">
        <ele>2527.4</ele>
        <time>1970-01-01T01:06:02.000Z</time>
      </trkpt>
      <trkpt lat="42.662364" lon="0.650876">
        <ele>2527.4</ele>
        <time>1970-01-01T01:06:03.000Z</time>
      </trkpt>
      <trkpt lat="42.662365" lon="0.650875">
        <ele>2527.4</ele>
        <time>1970-01-01T01:06:04.000Z</time>
      </trkpt>
      <trkpt lat="42.662365" lon="0.650875">
        <ele>2527.4</ele>
        <time>1970-01-01T01:06:05.000Z</time>
      </trkpt>
      <trkpt lat="42.662365" lon="0.650874">
        <ele>2527.4</ele>
        <time>1970-01-01T01:06:06.000Z</time>
      </trkpt>
      <trkpt lat="42.662366" lon="0.650873">
        <ele>2527.4</ele>
        <time>1970-01-01T01:06:07.000Z</time>
      </trkpt>
      <trkpt lat="42.662366" lon="0.650873">
        <ele>2527.4</ele>
        <time>1970-01-01T01:06:08.000Z</time>
      </trkpt>
      <trkpt lat="42.662366" lon="0.650872">
        <ele>2527.4</ele>
        <time>1970-01-01T01:06:09.000Z</time>
      </trkpt>
      <trkpt lat="42.662366" lon="0.650871">
        <ele>2527.4</ele>
        <time>1970-01-01T01:06:10.000Z</time>
      </trkpt>
      <trkpt lat="42.662365" lon="0.650871">
        <ele>2527.4</ele>
        <time>1970-01-01T01:06:11.000Z</time>
      </trkpt>
      <trkpt lat="42.662364" lon="0.650871">
        <ele>2527.4</ele>
        <time>1970-01-01T01:06:12.000Z</time>
      </trkpt>
      <trkpt lat="42.662363" lon="0.65087">
        <ele>2527.4</ele>
        <time>1970-01-01T01:06:13.000Z</time>
      </trkpt>
      <trkpt lat="42.662362" lon="0.650867">
        <ele>2527.4</ele>
        <time>1970-01-01T01:06:14.000Z</time>
      </trkpt>
      <trkpt lat="42.66236" lon="0.650865">
        <ele>2527.4</ele>
        <time>1970-01-01T01:06:16.000Z</time>
      </trkpt>
      <trkpt lat="42.662359" lon="0.650863">
        <ele>2527.4</ele>
        <time>1970-01-01T01:06:17.000Z</time>
      </trkpt>
      <trkpt lat="42.662358" lon="0.650862">
        <ele>2527.4</ele>
        <time>1970-01-01T01:06:18.000Z</time>
      </trkpt>
      <trkpt lat="42.662355" lon="0.650863">
        <ele>2527.4</ele>
        <time>1970-01-01T01:06:19.000Z</time>
      </trkpt>
      <trkpt lat="42.662354" lon="0.650866">
        <ele>2527.4</ele>
        <time>1970-01-01T01:06:20.000Z</time>
      </trkpt>
      <trkpt lat="42.662353" lon="0.650871">
        <ele>2527.4</ele>
        <time>1970-01-01T01:06:21.000Z</time>
      </trkpt>
      <trkpt lat="42.662353" lon="0.650878">
        <ele>2527.4</ele>
        <time>1970-01-01T01:06:22.000Z</time>
      </trkpt>
      <trkpt lat="42.662354" lon="0.650886">
        <ele>2527.4</ele>
        <time>1970-01-01T01:06:23.000Z</time>
      </trkpt>
      <trkpt lat="42.662354" lon="0.650894">
        <ele>2527.4</ele>
        <time>1970-01-01T01:06:25.000Z</time>
      </trkpt>
      <trkpt lat="42.662354" lon="0.6509">
        <ele>2528.5</ele>
        <time>1970-01-01T01:06:26.000Z</time>
      </trkpt>
      <trkpt lat="42.662352" lon="0.650906">
        <ele>2528.5</ele>
        <time>1970-01-01T01:06:27.000Z</time>
      </trkpt>
      <trkpt lat="42.662349" lon="0.650909">
        <ele>2528.5</ele>
        <time>1970-01-01T01:06:28.000Z</time>
      </trkpt>
      <trkpt lat="42.662346" lon="0.650912">
        <ele>2528.5</ele>
        <time>1970-01-01T01:06:29.000Z</time>
      </trkpt>
      <trkpt lat="42.662343" lon="0.650912">
        <ele>2528.5</ele>
        <time>1970-01-01T01:06:30.000Z</time>
      </trkpt>
      <trkpt lat="42.66234" lon="0.650913">
        <ele>2528.5</ele>
        <time>1970-01-01T01:06:31.000Z</time>
      </trkpt>
      <trkpt lat="42.662335" lon="0.650919">
        <ele>2529.6</ele>
        <time>1970-01-01T01:06:32.000Z</time>
      </trkpt>
      <trkpt lat="42.662334" lon="0.650928">
        <ele>2529.6</ele>
        <time>1970-01-01T01:06:34.000Z</time>
      </trkpt>
      <trkpt lat="42.662337" lon="0.650941">
        <ele>2529.6</ele>
        <time>1970-01-01T01:06:35.000Z</time>
      </trkpt>
      <trkpt lat="42.662343" lon="0.650953">
        <ele>2529.6</ele>
        <time>1970-01-01T01:06:36.000Z</time>
      </trkpt>
      <trkpt lat="42.662349" lon="0.650963">
        <ele>2529.6</ele>
        <time>1970-01-01T01:06:37.000Z</time>
      </trkpt>
      <trkpt lat="42.662353" lon="0.650974">
        <ele>2529.6</ele>
        <time>1970-01-01T01:06:38.000Z</time>
      </trkpt>
      <trkpt lat="42.662359" lon="0.650997">
        <ele>2530.7</ele>
        <time>1970-01-01T01:06:40.000Z</time>
      </trkpt>
      <trkpt lat="42.662351" lon="0.651027">
        <ele>2531.8</ele>
        <time>1970-01-01T01:06:41.000Z</time>
      </trkpt>
      <trkpt lat="42.662343" lon="0.651035">
        <ele>2531.8</ele>
        <time>1970-01-01T01:06:42.000Z</time>
      </trkpt>
      <trkpt lat="42.662335" lon="0.651043">
        <ele>2533</ele>
        <time>1970-01-01T01:06:43.000Z</time>
      </trkpt>
      <trkpt lat="42.662317" lon="0.651049">
        <ele>2533</ele>
        <time>1970-01-01T01:06:44.000Z</time>
      </trkpt>
      <trkpt lat="42.662303" lon="0.651057">
        <ele>2534.2</ele>
        <time>1970-01-01T01:06:46.000Z</time>
      </trkpt>
      <trkpt lat="42.662293" lon="0.651065">
        <ele>2534.2</ele>
        <time>1970-01-01T01:06:47.000Z</time>
      </trkpt>
      <trkpt lat="42.662279" lon="0.651077">
        <ele>2535.3</ele>
        <time>1970-01-01T01:06:49.000Z</time>
      </trkpt>
      <trkpt lat="42.662271" lon="0.651087">
        <ele>2536.7</ele>
        <time>1970-01-01T01:06:50.000Z</time>
      </trkpt>
      <trkpt lat="42.662267" lon="0.651094">
        <ele>2536.7</ele>
        <time>1970-01-01T01:06:51.000Z</time>
      </trkpt>
      <trkpt lat="42.662262" lon="0.651093">
        <ele>2536.7</ele>
        <time>1970-01-01T01:06:52.000Z</time>
      </trkpt>
      <trkpt lat="42.66226" lon="0.65109">
        <ele>2536.7</ele>
        <time>1970-01-01T01:06:53.000Z</time>
      </trkpt>
      <trkpt lat="42.662253" lon="0.651076">
        <ele>2536.7</ele>
        <time>1970-01-01T01:06:55.000Z</time>
      </trkpt>
      <trkpt lat="42.662249" lon="0.651065">
        <ele>2535.6</ele>
        <time>1970-01-01T01:06:56.000Z</time>
      </trkpt>
      <trkpt lat="42.662247" lon="0.651063">
        <ele>2535.6</ele>
        <time>1970-01-01T01:06:57.000Z</time>
      </trkpt>
      <trkpt lat="42.662244" lon="0.651063">
        <ele>2535.6</ele>
        <time>1970-01-01T01:06:58.000Z</time>
      </trkpt>
      <trkpt lat="42.662242" lon="0.651063">
        <ele>2535.6</ele>
        <time>1970-01-01T01:06:59.000Z</time>
      </trkpt>
      <trkpt lat="42.662239" lon="0.65106">
        <ele>2537</ele>
        <time>1970-01-01T01:07:00.000Z</time>
      </trkpt>
      <trkpt lat="42.662238" lon="0.651056">
        <ele>2537</ele>
        <time>1970-01-01T01:07:01.000Z</time>
      </trkpt>
      <trkpt lat="42.662238" lon="0.651054">
        <ele>2537</ele>
        <time>1970-01-01T01:07:02.000Z</time>
      </trkpt>
      <trkpt lat="42.662239" lon="0.651054">
        <ele>2537</ele>
        <time>1970-01-01T01:07:03.000Z</time>
      </trkpt>
      <trkpt lat="42.662241" lon="0.651053">
        <ele>2537</ele>
        <time>1970-01-01T01:07:04.000Z</time>
      </trkpt>
      <trkpt lat="42.662243" lon="0.651051">
        <ele>2535.6</ele>
        <time>1970-01-01T01:07:05.000Z</time>
      </trkpt>
      <trkpt lat="42.662244" lon="0.651049">
        <ele>2535.6</ele>
        <time>1970-01-01T01:07:06.000Z</time>
      </trkpt>
      <trkpt lat="42.662244" lon="0.651047">
        <ele>2535.6</ele>
        <time>1970-01-01T01:07:07.000Z</time>
      </trkpt>
      <trkpt lat="42.662244" lon="0.651045">
        <ele>2535.6</ele>
        <time>1970-01-01T01:07:08.000Z</time>
      </trkpt>
      <trkpt lat="42.662239" lon="0.651042">
        <ele>2537</ele>
        <time>1970-01-01T01:07:10.000Z</time>
      </trkpt>
      <trkpt lat="42.662236" lon="0.65104">
        <ele>2537</ele>
        <time>1970-01-01T01:07:11.000Z</time>
      </trkpt>
      <trkpt lat="42.662227" lon="0.651028">
        <ele>2537</ele>
        <time>1970-01-01T01:07:12.000Z</time>
      </trkpt>
      <trkpt lat="42.662222" lon="0.651002">
        <ele>2535.9</ele>
        <time>1970-01-01T01:07:13.000Z</time>
      </trkpt>
      <trkpt lat="42.66222" lon="0.650986">
        <ele>2535.9</ele>
        <time>1970-01-01T01:07:14.000Z</time>
      </trkpt>
      <trkpt lat="42.662219" lon="0.650969">
        <ele>2534.8</ele>
        <time>1970-01-01T01:07:15.000Z</time>
      </trkpt>
      <trkpt lat="42.662208" lon="0.650959">
        <ele>2536.2</ele>
        <time>1970-01-01T01:07:16.000Z</time>
      </trkpt>
      <trkpt lat="42.662201" lon="0.650961">
        <ele>2536.2</ele>
        <time>1970-01-01T01:07:17.000Z</time>
      </trkpt>
      <trkpt lat="42.662195" lon="0.650963">
        <ele>2536.2</ele>
        <time>1970-01-01T01:07:18.000Z</time>
      </trkpt>
      <trkpt lat="42.662188" lon="0.650966">
        <ele>2536.2</ele>
        <time>1970-01-01T01:07:20.000Z</time>
      </trkpt>
      <trkpt lat="42.662182" lon="0.650968">
        <ele>2536.2</ele>
        <time>1970-01-01T01:07:21.000Z</time>
      </trkpt>
      <trkpt lat="42.662175" lon="0.65097">
        <ele>2537.4</ele>
        <time>1970-01-01T01:07:22.000Z</time>
      </trkpt>
      <trkpt lat="42.662168" lon="0.650973">
        <ele>2537.4</ele>
        <time>1970-01-01T01:07:23.000Z</time>
      </trkpt>
      <trkpt lat="42.662162" lon="0.650975">
        <ele>2537.4</ele>
        <time>1970-01-01T01:07:24.000Z</time>
      </trkpt>
      <trkpt lat="42.662153" lon="0.651002">
        <ele>2538.5</ele>
        <time>1970-01-01T01:07:25.000Z</time>
      </trkpt>
      <trkpt lat="42.662149" lon="0.651011">
        <ele>2538.5</ele>
        <time>1970-01-01T01:07:26.000Z</time>
      </trkpt>
      <trkpt lat="42.662146" lon="0.651019">
        <ele>2539.6</ele>
        <time>1970-01-01T01:07:27.000Z</time>
      </trkpt>
      <trkpt lat="42.662139" lon="0.651031">
        <ele>2540.7</ele>
        <time>1970-01-01T01:07:28.000Z</time>
      </trkpt>
      <trkpt lat="42.662134" lon="0.65104">
        <ele>2540.7</ele>
        <time>1970-01-01T01:07:29.000Z</time>
      </trkpt>
      <trkpt lat="42.662126" lon="0.651057">
        <ele>2540.7</ele>
        <time>1970-01-01T01:07:31.000Z</time>
      </trkpt>
      <trkpt lat="42.662122" lon="0.651067">
        <ele>2540.7</ele>
        <time>1970-01-01T01:07:32.000Z</time>
      </trkpt>
      <trkpt lat="42.662115" lon="0.65108">
        <ele>2542.8</ele>
        <time>1970-01-01T01:07:33.000Z</time>
      </trkpt>
      <trkpt lat="42.662108" lon="0.65109">
        <ele>2542.8</ele>
        <time>1970-01-01T01:07:34.000Z</time>
      </trkpt>
      <trkpt lat="42.662103" lon="0.651097">
        <ele>2542.8</ele>
        <time>1970-01-01T01:07:35.000Z</time>
      </trkpt>
      <trkpt lat="42.662098" lon="0.651101">
        <ele>2542.8</ele>
        <time>1970-01-01T01:07:36.000Z</time>
      </trkpt>
      <trkpt lat="42.662092" lon="0.651104">
        <ele>2542.8</ele>
        <time>1970-01-01T01:07:37.000Z</time>
      </trkpt>
      <trkpt lat="42.662084" lon="0.651107">
        <ele>2542.8</ele>
        <time>1970-01-01T01:07:38.000Z</time>
      </trkpt>
      <trkpt lat="42.662075" lon="0.651114">
        <ele>2544.9</ele>
        <time>1970-01-01T01:07:40.000Z</time>
      </trkpt>
      <trkpt lat="42.66207" lon="0.651121">
        <ele>2544.9</ele>
        <time>1970-01-01T01:07:41.000Z</time>
      </trkpt>
      <trkpt lat="42.662065" lon="0.651126">
        <ele>2544.9</ele>
        <time>1970-01-01T01:07:42.000Z</time>
      </trkpt>
      <trkpt lat="42.662059" lon="0.651136">
        <ele>2544.9</ele>
        <time>1970-01-01T01:07:43.000Z</time>
      </trkpt>
      <trkpt lat="42.662053" lon="0.651146">
        <ele>2544.9</ele>
        <time>1970-01-01T01:07:45.000Z</time>
      </trkpt>
      <trkpt lat="42.662047" lon="0.651159">
        <ele>2547</ele>
        <time>1970-01-01T01:07:46.000Z</time>
      </trkpt>
      <trkpt lat="42.662044" lon="0.651167">
        <ele>2547</ele>
        <time>1970-01-01T01:07:47.000Z</time>
      </trkpt>
      <trkpt lat="42.662041" lon="0.651179">
        <ele>2547</ele>
        <time>1970-01-01T01:07:49.000Z</time>
      </trkpt>
      <trkpt lat="42.66204" lon="0.651189">
        <ele>2547</ele>
        <time>1970-01-01T01:07:50.000Z</time>
      </trkpt>
      <trkpt lat="42.662037" lon="0.651197">
        <ele>2547</ele>
        <time>1970-01-01T01:07:51.000Z</time>
      </trkpt>
      <trkpt lat="42.662034" lon="0.651205">
        <ele>2548</ele>
        <time>1970-01-01T01:07:52.000Z</time>
      </trkpt>
      <trkpt lat="42.662028" lon="0.651219">
        <ele>2548</ele>
        <time>1970-01-01T01:07:54.000Z</time>
      </trkpt>
      <trkpt lat="42.662025" lon="0.651235">
        <ele>2548</ele>
        <time>1970-01-01T01:07:55.000Z</time>
      </trkpt>
      <trkpt lat="42.662024" lon="0.651247">
        <ele>2548.8</ele>
        <time>1970-01-01T01:07:56.000Z</time>
      </trkpt>
      <trkpt lat="42.662021" lon="0.651264">
        <ele>2548.8</ele>
        <time>1970-01-01T01:07:58.000Z</time>
      </trkpt>
      <trkpt lat="42.662021" lon="0.651275">
        <ele>2548.8</ele>
        <time>1970-01-01T01:07:59.000Z</time>
      </trkpt>
      <trkpt lat="42.662021" lon="0.651288">
        <ele>2549.7</ele>
        <time>1970-01-01T01:08:00.000Z</time>
      </trkpt>
      <trkpt lat="42.662021" lon="0.651304">
        <ele>2549.7</ele>
        <time>1970-01-01T01:08:02.000Z</time>
      </trkpt>
      <trkpt lat="42.66202" lon="0.651319">
        <ele>2550.8</ele>
        <time>1970-01-01T01:08:03.000Z</time>
      </trkpt>
      <trkpt lat="42.662021" lon="0.651325">
        <ele>2549.7</ele>
        <time>1970-01-01T01:08:04.000Z</time>
      </trkpt>
      <trkpt lat="42.662018" lon="0.651336">
        <ele>2551.7</ele>
        <time>1970-01-01T01:08:05.000Z</time>
      </trkpt>
      <trkpt lat="42.662015" lon="0.651346">
        <ele>2551.7</ele>
        <time>1970-01-01T01:08:06.000Z</time>
      </trkpt>
      <trkpt lat="42.662011" lon="0.65135">
        <ele>2551.7</ele>
        <time>1970-01-01T01:08:07.000Z</time>
      </trkpt>
      <trkpt lat="42.662005" lon="0.651357">
        <ele>2551.7</ele>
        <time>1970-01-01T01:08:08.000Z</time>
      </trkpt>
      <trkpt lat="42.661999" lon="0.651363">
        <ele>2551.7</ele>
        <time>1970-01-01T01:08:09.000Z</time>
      </trkpt>
      <trkpt lat="42.661992" lon="0.65137">
        <ele>2552.6</ele>
        <time>1970-01-01T01:08:10.000Z</time>
      </trkpt>
      <trkpt lat="42.661984" lon="0.651379">
        <ele>2553.8</ele>
        <time>1970-01-01T01:08:12.000Z</time>
      </trkpt>
      <trkpt lat="42.661977" lon="0.651378">
        <ele>2553.8</ele>
        <time>1970-01-01T01:08:13.000Z</time>
      </trkpt>
      <trkpt lat="42.661973" lon="0.65138">
        <ele>2553.8</ele>
        <time>1970-01-01T01:08:14.000Z</time>
      </trkpt>
      <trkpt lat="42.66197" lon="0.651376">
        <ele>2553.8</ele>
        <time>1970-01-01T01:08:15.000Z</time>
      </trkpt>
      <trkpt lat="42.661969" lon="0.651374">
        <ele>2553.8</ele>
        <time>1970-01-01T01:08:16.000Z</time>
      </trkpt>
      <trkpt lat="42.661968" lon="0.651378">
        <ele>2553.8</ele>
        <time>1970-01-01T01:08:18.000Z</time>
      </trkpt>
      <trkpt lat="42.661967" lon="0.651382">
        <ele>2553.8</ele>
        <time>1970-01-01T01:08:19.000Z</time>
      </trkpt>
      <trkpt lat="42.661964" lon="0.651386">
        <ele>2553.8</ele>
        <time>1970-01-01T01:08:20.000Z</time>
      </trkpt>
      <trkpt lat="42.661961" lon="0.651389">
        <ele>2553.8</ele>
        <time>1970-01-01T01:08:21.000Z</time>
      </trkpt>
      <trkpt lat="42.661951" lon="0.651399">
        <ele>2555</ele>
        <time>1970-01-01T01:08:23.000Z</time>
      </trkpt>
      <trkpt lat="42.661942" lon="0.651405">
        <ele>2555</ele>
        <time>1970-01-01T01:08:24.000Z</time>
      </trkpt>
      <trkpt lat="42.661936" lon="0.65141">
        <ele>2555</ele>
        <time>1970-01-01T01:08:25.000Z</time>
      </trkpt>
      <trkpt lat="42.661933" lon="0.651413">
        <ele>2556</ele>
        <time>1970-01-01T01:08:26.000Z</time>
      </trkpt>
      <trkpt lat="42.661932" lon="0.651417">
        <ele>2556</ele>
        <time>1970-01-01T01:08:27.000Z</time>
      </trkpt>
      <trkpt lat="42.661932" lon="0.651421">
        <ele>2556</ele>
        <time>1970-01-01T01:08:28.000Z</time>
      </trkpt>
      <trkpt lat="42.661932" lon="0.651424">
        <ele>2556</ele>
        <time>1970-01-01T01:08:29.000Z</time>
      </trkpt>
      <trkpt lat="42.661932" lon="0.651428">
        <ele>2556</ele>
        <time>1970-01-01T01:08:30.000Z</time>
      </trkpt>
      <trkpt lat="42.661935" lon="0.651432">
        <ele>2556</ele>
        <time>1970-01-01T01:08:31.000Z</time>
      </trkpt>
      <trkpt lat="42.661937" lon="0.651436">
        <ele>2556</ele>
        <time>1970-01-01T01:08:32.000Z</time>
      </trkpt>
      <trkpt lat="42.661936" lon="0.651439">
        <ele>2556</ele>
        <time>1970-01-01T01:08:33.000Z</time>
      </trkpt>
      <trkpt lat="42.661937" lon="0.651442">
        <ele>2556</ele>
        <time>1970-01-01T01:08:34.000Z</time>
      </trkpt>
      <trkpt lat="42.66194" lon="0.651444">
        <ele>2556</ele>
        <time>1970-01-01T01:08:35.000Z</time>
      </trkpt>
      <trkpt lat="42.661936" lon="0.651454">
        <ele>2556</ele>
        <time>1970-01-01T01:08:36.000Z</time>
      </trkpt>
      <trkpt lat="42.661932" lon="0.651461">
        <ele>2557</ele>
        <time>1970-01-01T01:08:37.000Z</time>
      </trkpt>
      <trkpt lat="42.66193" lon="0.651463">
        <ele>2557</ele>
        <time>1970-01-01T01:08:38.000Z</time>
      </trkpt>
      <trkpt lat="42.661928" lon="0.651467">
        <ele>2557</ele>
        <time>1970-01-01T01:08:39.000Z</time>
      </trkpt>
      <trkpt lat="42.661922" lon="0.651473">
        <ele>2558.2</ele>
        <time>1970-01-01T01:08:40.000Z</time>
      </trkpt>
      <trkpt lat="42.661919" lon="0.651474">
        <ele>2558.2</ele>
        <time>1970-01-01T01:08:41.000Z</time>
      </trkpt>
      <trkpt lat="42.661914" lon="0.651475">
        <ele>2558.2</ele>
        <time>1970-01-01T01:08:42.000Z</time>
      </trkpt>
      <trkpt lat="42.661909" lon="0.65148">
        <ele>2558.2</ele>
        <time>1970-01-01T01:08:44.000Z</time>
      </trkpt>
      <trkpt lat="42.661909" lon="0.651482">
        <ele>2558.2</ele>
        <time>1970-01-01T01:08:45.000Z</time>
      </trkpt>
      <trkpt lat="42.661909" lon="0.651483">
        <ele>2558.2</ele>
        <time>1970-01-01T01:08:46.000Z</time>
      </trkpt>
      <trkpt lat="42.661909" lon="0.651484">
        <ele>2558.2</ele>
        <time>1970-01-01T01:08:47.000Z</time>
      </trkpt>
      <trkpt lat="42.661911" lon="0.651485">
        <ele>2558.2</ele>
        <time>1970-01-01T01:08:48.000Z</time>
      </trkpt>
      <trkpt lat="42.661911" lon="0.651487">
        <ele>2558.2</ele>
        <time>1970-01-01T01:08:49.000Z</time>
      </trkpt>
      <trkpt lat="42.661909" lon="0.651491">
        <ele>2558.2</ele>
        <time>1970-01-01T01:08:50.000Z</time>
      </trkpt>
      <trkpt lat="42.661905" lon="0.651498">
        <ele>2559.3</ele>
        <time>1970-01-01T01:08:51.000Z</time>
      </trkpt>
      <trkpt lat="42.661904" lon="0.651501">
        <ele>2559.3</ele>
        <time>1970-01-01T01:08:52.000Z</time>
      </trkpt>
      <trkpt lat="42.661904" lon="0.651503">
        <ele>2559.3</ele>
        <time>1970-01-01T01:08:53.000Z</time>
      </trkpt>
      <trkpt lat="42.661905" lon="0.651503">
        <ele>2559.3</ele>
        <time>1970-01-01T01:08:54.000Z</time>
      </trkpt>
      <trkpt lat="42.661905" lon="0.651502">
        <ele>2559.3</ele>
        <time>1970-01-01T01:08:55.000Z</time>
      </trkpt>
      <trkpt lat="42.661904" lon="0.651503">
        <ele>2559.3</ele>
        <time>1970-01-01T01:08:56.000Z</time>
      </trkpt>
      <trkpt lat="42.661901" lon="0.651506">
        <ele>2559.3</ele>
        <time>1970-01-01T01:08:57.000Z</time>
      </trkpt>
      <trkpt lat="42.661898" lon="0.651509">
        <ele>2559.3</ele>
        <time>1970-01-01T01:08:58.000Z</time>
      </trkpt>
      <trkpt lat="42.661893" lon="0.651514">
        <ele>2560.5</ele>
        <time>1970-01-01T01:08:59.000Z</time>
      </trkpt>
      <trkpt lat="42.661888" lon="0.651519">
        <ele>2560.5</ele>
        <time>1970-01-01T01:09:00.000Z</time>
      </trkpt>
      <trkpt lat="42.661881" lon="0.651527">
        <ele>2560.5</ele>
        <time>1970-01-01T01:09:01.000Z</time>
      </trkpt>
      <trkpt lat="42.661877" lon="0.651533">
        <ele>2560.5</ele>
        <time>1970-01-01T01:09:02.000Z</time>
      </trkpt>
      <trkpt lat="42.661874" lon="0.65154">
        <ele>2560.5</ele>
        <time>1970-01-01T01:09:04.000Z</time>
      </trkpt>
      <trkpt lat="42.661876" lon="0.651546">
        <ele>2561.7</ele>
        <time>1970-01-01T01:09:05.000Z</time>
      </trkpt>
      <trkpt lat="42.661877" lon="0.65155">
        <ele>2561.7</ele>
        <time>1970-01-01T01:09:06.000Z</time>
      </trkpt>
      <trkpt lat="42.66188" lon="0.651554">
        <ele>2561.7</ele>
        <time>1970-01-01T01:09:07.000Z</time>
      </trkpt>
      <trkpt lat="42.661881" lon="0.651559">
        <ele>2561.7</ele>
        <time>1970-01-01T01:09:08.000Z</time>
      </trkpt>
      <trkpt lat="42.661887" lon="0.651565">
        <ele>2561.7</ele>
        <time>1970-01-01T01:09:09.000Z</time>
      </trkpt>
      <trkpt lat="42.661893" lon="0.651571">
        <ele>2561.7</ele>
        <time>1970-01-01T01:09:11.000Z</time>
      </trkpt>
      <trkpt lat="42.66189" lon="0.651584">
        <ele>2562.9</ele>
        <time>1970-01-01T01:09:12.000Z</time>
      </trkpt>
      <trkpt lat="42.661888" lon="0.651594">
        <ele>2562.9</ele>
        <time>1970-01-01T01:09:13.000Z</time>
      </trkpt>
      <trkpt lat="42.661885" lon="0.651602">
        <ele>2562.9</ele>
        <time>1970-01-01T01:09:14.000Z</time>
      </trkpt>
      <trkpt lat="42.661882" lon="0.65161">
        <ele>2562.9</ele>
        <time>1970-01-01T01:09:15.000Z</time>
      </trkpt>
      <trkpt lat="42.661875" lon="0.651625">
        <ele>2562.9</ele>
        <time>1970-01-01T01:09:17.000Z</time>
      </trkpt>
      <trkpt lat="42.661874" lon="0.65163">
        <ele>2564.2</ele>
        <time>1970-01-01T01:09:18.000Z</time>
      </trkpt>
      <trkpt lat="42.661873" lon="0.651634">
        <ele>2564.2</ele>
        <time>1970-01-01T01:09:19.000Z</time>
      </trkpt>
      <trkpt lat="42.661872" lon="0.651637">
        <ele>2564.2</ele>
        <time>1970-01-01T01:09:20.000Z</time>
      </trkpt>
      <trkpt lat="42.661873" lon="0.651639">
        <ele>2564.2</ele>
        <time>1970-01-01T01:09:21.000Z</time>
      </trkpt>
      <trkpt lat="42.661876" lon="0.651644">
        <ele>2564.2</ele>
        <time>1970-01-01T01:09:23.000Z</time>
      </trkpt>
      <trkpt lat="42.66188" lon="0.651645">
        <ele>2564.2</ele>
        <time>1970-01-01T01:09:24.000Z</time>
      </trkpt>
      <trkpt lat="42.661885" lon="0.651648">
        <ele>2564.2</ele>
        <time>1970-01-01T01:09:25.000Z</time>
      </trkpt>
      <trkpt lat="42.661889" lon="0.651654">
        <ele>2564.2</ele>
        <time>1970-01-01T01:09:27.000Z</time>
      </trkpt>
      <trkpt lat="42.661891" lon="0.651665">
        <ele>2564.2</ele>
        <time>1970-01-01T01:09:28.000Z</time>
      </trkpt>
      <trkpt lat="42.661892" lon="0.651677">
        <ele>2565.4</ele>
        <time>1970-01-01T01:09:29.000Z</time>
      </trkpt>
      <trkpt lat="42.66189" lon="0.651687">
        <ele>2565.4</ele>
        <time>1970-01-01T01:09:30.000Z</time>
      </trkpt>
      <trkpt lat="42.661887" lon="0.651696">
        <ele>2565.4</ele>
        <time>1970-01-01T01:09:31.000Z</time>
      </trkpt>
      <trkpt lat="42.661885" lon="0.651704">
        <ele>2565.4</ele>
        <time>1970-01-01T01:09:32.000Z</time>
      </trkpt>
      <trkpt lat="42.661882" lon="0.651709">
        <ele>2565.4</ele>
        <time>1970-01-01T01:09:33.000Z</time>
      </trkpt>
      <trkpt lat="42.661881" lon="0.651711">
        <ele>2565.4</ele>
        <time>1970-01-01T01:09:34.000Z</time>
      </trkpt>
      <trkpt lat="42.661881" lon="0.65171">
        <ele>2565.4</ele>
        <time>1970-01-01T01:09:35.000Z</time>
      </trkpt>
      <trkpt lat="42.661883" lon="0.651707">
        <ele>2565.4</ele>
        <time>1970-01-01T01:09:36.000Z</time>
      </trkpt>
      <trkpt lat="42.661884" lon="0.651707">
        <ele>2565.4</ele>
        <time>1970-01-01T01:09:37.000Z</time>
      </trkpt>
      <trkpt lat="42.661885" lon="0.651707">
        <ele>2565.4</ele>
        <time>1970-01-01T01:09:38.000Z</time>
      </trkpt>
      <trkpt lat="42.661886" lon="0.65171">
        <ele>2565.4</ele>
        <time>1970-01-01T01:09:39.000Z</time>
      </trkpt>
      <trkpt lat="42.661888" lon="0.651712">
        <ele>2565.4</ele>
        <time>1970-01-01T01:09:40.000Z</time>
      </trkpt>
      <trkpt lat="42.661889" lon="0.651713">
        <ele>2566.6</ele>
        <time>1970-01-01T01:09:41.000Z</time>
      </trkpt>
      <trkpt lat="42.661892" lon="0.651714">
        <ele>2566.6</ele>
        <time>1970-01-01T01:09:42.000Z</time>
      </trkpt>
      <trkpt lat="42.661894" lon="0.651716">
        <ele>2566.6</ele>
        <time>1970-01-01T01:09:43.000Z</time>
      </trkpt>
      <trkpt lat="42.661897" lon="0.651716">
        <ele>2565.3</ele>
        <time>1970-01-01T01:09:44.000Z</time>
      </trkpt>
      <trkpt lat="42.6619" lon="0.651715">
        <ele>2565.3</ele>
        <time>1970-01-01T01:09:45.000Z</time>
      </trkpt>
      <trkpt lat="42.661902" lon="0.651715">
        <ele>2565.3</ele>
        <time>1970-01-01T01:09:46.000Z</time>
      </trkpt>
      <trkpt lat="42.661906" lon="0.651714">
        <ele>2565.3</ele>
        <time>1970-01-01T01:09:48.000Z</time>
      </trkpt>
      <trkpt lat="42.661907" lon="0.651717">
        <ele>2565.3</ele>
        <time>1970-01-01T01:09:49.000Z</time>
      </trkpt>
      <trkpt lat="42.661909" lon="0.651717">
        <ele>2565.3</ele>
        <time>1970-01-01T01:09:50.000Z</time>
      </trkpt>
      <trkpt lat="42.66191" lon="0.651718">
        <ele>2565.3</ele>
        <time>1970-01-01T01:09:51.000Z</time>
      </trkpt>
      <trkpt lat="42.661912" lon="0.651717">
        <ele>2565.3</ele>
        <time>1970-01-01T01:09:52.000Z</time>
      </trkpt>
      <trkpt lat="42.661914" lon="0.651717">
        <ele>2565.3</ele>
        <time>1970-01-01T01:09:53.000Z</time>
      </trkpt>
      <trkpt lat="42.661915" lon="0.65172">
        <ele>2565.3</ele>
        <time>1970-01-01T01:09:54.000Z</time>
      </trkpt>
      <trkpt lat="42.661916" lon="0.651722">
        <ele>2565.3</ele>
        <time>1970-01-01T01:09:55.000Z</time>
      </trkpt>
      <trkpt lat="42.661917" lon="0.651724">
        <ele>2565.3</ele>
        <time>1970-01-01T01:09:56.000Z</time>
      </trkpt>
      <trkpt lat="42.661919" lon="0.651726">
        <ele>2565.3</ele>
        <time>1970-01-01T01:09:57.000Z</time>
      </trkpt>
      <trkpt lat="42.661919" lon="0.651728">
        <ele>2565.3</ele>
        <time>1970-01-01T01:09:58.000Z</time>
      </trkpt>
      <trkpt lat="42.66192" lon="0.651731">
        <ele>2565.3</ele>
        <time>1970-01-01T01:09:59.000Z</time>
      </trkpt>
      <trkpt lat="42.661921" lon="0.651734">
        <ele>2565.3</ele>
        <time>1970-01-01T01:10:00.000Z</time>
      </trkpt>
      <trkpt lat="42.661921" lon="0.651737">
        <ele>2565.3</ele>
        <time>1970-01-01T01:10:01.000Z</time>
      </trkpt>
      <trkpt lat="42.661921" lon="0.651741">
        <ele>2565.3</ele>
        <time>1970-01-01T01:10:02.000Z</time>
      </trkpt>
      <trkpt lat="42.661921" lon="0.651744">
        <ele>2565.3</ele>
        <time>1970-01-01T01:10:03.000Z</time>
      </trkpt>
      <trkpt lat="42.661922" lon="0.651747">
        <ele>2565.3</ele>
        <time>1970-01-01T01:10:04.000Z</time>
      </trkpt>
      <trkpt lat="42.661922" lon="0.651751">
        <ele>2565.3</ele>
        <time>1970-01-01T01:10:05.000Z</time>
      </trkpt>
      <trkpt lat="42.661922" lon="0.651753">
        <ele>2565.3</ele>
        <time>1970-01-01T01:10:06.000Z</time>
      </trkpt>
      <trkpt lat="42.661921" lon="0.651753">
        <ele>2565.3</ele>
        <time>1970-01-01T01:10:07.000Z</time>
      </trkpt>
      <trkpt lat="42.66192" lon="0.651754">
        <ele>2565.3</ele>
        <time>1970-01-01T01:10:08.000Z</time>
      </trkpt>
      <trkpt lat="42.661919" lon="0.651754">
        <ele>2565.3</ele>
        <time>1970-01-01T01:10:09.000Z</time>
      </trkpt>
      <trkpt lat="42.661916" lon="0.651756">
        <ele>2566.5</ele>
        <time>1970-01-01T01:10:11.000Z</time>
      </trkpt>
      <trkpt lat="42.661915" lon="0.651758">
        <ele>2566.5</ele>
        <time>1970-01-01T01:10:12.000Z</time>
      </trkpt>
      <trkpt lat="42.661913" lon="0.65176">
        <ele>2566.5</ele>
        <time>1970-01-01T01:10:13.000Z</time>
      </trkpt>
      <trkpt lat="42.661912" lon="0.651761">
        <ele>2566.5</ele>
        <time>1970-01-01T01:10:14.000Z</time>
      </trkpt>
      <trkpt lat="42.661912" lon="0.651762">
        <ele>2566.5</ele>
        <time>1970-01-01T01:10:15.000Z</time>
      </trkpt>
      <trkpt lat="42.661911" lon="0.651763">
        <ele>2566.5</ele>
        <time>1970-01-01T01:10:16.000Z</time>
      </trkpt>
      <trkpt lat="42.66191" lon="0.651764">
        <ele>2566.5</ele>
        <time>1970-01-01T01:10:17.000Z</time>
      </trkpt>
      <trkpt lat="42.661907" lon="0.651765">
        <ele>2566.5</ele>
        <time>1970-01-01T01:10:18.000Z</time>
      </trkpt>
      <trkpt lat="42.661906" lon="0.651768">
        <ele>2566.5</ele>
        <time>1970-01-01T01:10:19.000Z</time>
      </trkpt>
      <trkpt lat="42.661902" lon="0.651769">
        <ele>2566.5</ele>
        <time>1970-01-01T01:10:20.000Z</time>
      </trkpt>
      <trkpt lat="42.661899" lon="0.651772">
        <ele>2566.5</ele>
        <time>1970-01-01T01:10:21.000Z</time>
      </trkpt>
      <trkpt lat="42.661896" lon="0.651773">
        <ele>2566.5</ele>
        <time>1970-01-01T01:10:22.000Z</time>
      </trkpt>
      <trkpt lat="42.661892" lon="0.651772">
        <ele>2567.8</ele>
        <time>1970-01-01T01:10:23.000Z</time>
      </trkpt>
      <trkpt lat="42.661887" lon="0.65177">
        <ele>2567.8</ele>
        <time>1970-01-01T01:10:25.000Z</time>
      </trkpt>
      <trkpt lat="42.661885" lon="0.651769">
        <ele>2567.8</ele>
        <time>1970-01-01T01:10:26.000Z</time>
      </trkpt>
      <trkpt lat="42.661882" lon="0.651769">
        <ele>2567.8</ele>
        <time>1970-01-01T01:10:27.000Z</time>
      </trkpt>
      <trkpt lat="42.661881" lon="0.651769">
        <ele>2567.8</ele>
        <time>1970-01-01T01:10:28.000Z</time>
      </trkpt>
      <trkpt lat="42.661879" lon="0.65177">
        <ele>2567.8</ele>
        <time>1970-01-01T01:10:29.000Z</time>
      </trkpt>
      <trkpt lat="42.661878" lon="0.65177">
        <ele>2567.8</ele>
        <time>1970-01-01T01:10:30.000Z</time>
      </trkpt>
      <trkpt lat="42.661875" lon="0.65177">
        <ele>2567.8</ele>
        <time>1970-01-01T01:10:31.000Z</time>
      </trkpt>
      <trkpt lat="42.661874" lon="0.651771">
        <ele>2567.8</ele>
        <time>1970-01-01T01:10:32.000Z</time>
      </trkpt>
      <trkpt lat="42.661871" lon="0.651774">
        <ele>2567.8</ele>
        <time>1970-01-01T01:10:34.000Z</time>
      </trkpt>
      <trkpt lat="42.661868" lon="0.651777">
        <ele>2567.8</ele>
        <time>1970-01-01T01:10:35.000Z</time>
      </trkpt>
      <trkpt lat="42.661863" lon="0.651778">
        <ele>2567.8</ele>
        <time>1970-01-01T01:10:36.000Z</time>
      </trkpt>
      <trkpt lat="42.661856" lon="0.651779">
        <ele>2569.2</ele>
        <time>1970-01-01T01:10:37.000Z</time>
      </trkpt>
      <trkpt lat="42.661849" lon="0.651779">
        <ele>2569.2</ele>
        <time>1970-01-01T01:10:38.000Z</time>
      </trkpt>
      <trkpt lat="42.661843" lon="0.651779">
        <ele>2569.2</ele>
        <time>1970-01-01T01:10:39.000Z</time>
      </trkpt>
      <trkpt lat="42.661839" lon="0.651778">
        <ele>2569.2</ele>
        <time>1970-01-01T01:10:40.000Z</time>
      </trkpt>
      <trkpt lat="42.661833" lon="0.651776">
        <ele>2569.2</ele>
        <time>1970-01-01T01:10:41.000Z</time>
      </trkpt>
      <trkpt lat="42.661826" lon="0.65177">
        <ele>2570.5</ele>
        <time>1970-01-01T01:10:43.000Z</time>
      </trkpt>
      <trkpt lat="42.661823" lon="0.651762">
        <ele>2570.5</ele>
        <time>1970-01-01T01:10:44.000Z</time>
      </trkpt>
      <trkpt lat="42.66182" lon="0.651757">
        <ele>2570.5</ele>
        <time>1970-01-01T01:10:45.000Z</time>
      </trkpt>
      <trkpt lat="42.661818" lon="0.651744">
        <ele>2569.3</ele>
        <time>1970-01-01T01:10:47.000Z</time>
      </trkpt>
      <trkpt lat="42.661822" lon="0.65174">
        <ele>2569.3</ele>
        <time>1970-01-01T01:10:48.000Z</time>
      </trkpt>
      <trkpt lat="42.661826" lon="0.651737">
        <ele>2569.3</ele>
        <time>1970-01-01T01:10:49.000Z</time>
      </trkpt>
      <trkpt lat="42.661828" lon="0.651734">
        <ele>2569.3</ele>
        <time>1970-01-01T01:10:50.000Z</time>
      </trkpt>
      <trkpt lat="42.66183" lon="0.651732">
        <ele>2569.3</ele>
        <time>1970-01-01T01:10:51.000Z</time>
      </trkpt>
      <trkpt lat="42.661833" lon="0.651731">
        <ele>2567.9</ele>
        <time>1970-01-01T01:10:52.000Z</time>
      </trkpt>
      <trkpt lat="42.661834" lon="0.65173">
        <ele>2567.9</ele>
        <time>1970-01-01T01:10:53.000Z</time>
      </trkpt>
      <trkpt lat="42.661837" lon="0.651729">
        <ele>2567.9</ele>
        <time>1970-01-01T01:10:54.000Z</time>
      </trkpt>
      <trkpt lat="42.661838" lon="0.651727">
        <ele>2567.9</ele>
        <time>1970-01-01T01:10:55.000Z</time>
      </trkpt>
      <trkpt lat="42.66184" lon="0.651725">
        <ele>2567.9</ele>
        <time>1970-01-01T01:10:56.000Z</time>
      </trkpt>
      <trkpt lat="42.661842" lon="0.651722">
        <ele>2567.9</ele>
        <time>1970-01-01T01:10:57.000Z</time>
      </trkpt>
      <trkpt lat="42.661843" lon="0.651721">
        <ele>2567.9</ele>
        <time>1970-01-01T01:10:58.000Z</time>
      </trkpt>
      <trkpt lat="42.661844" lon="0.65172">
        <ele>2567.9</ele>
        <time>1970-01-01T01:10:59.000Z</time>
      </trkpt>
      <trkpt lat="42.661845" lon="0.651719">
        <ele>2567.9</ele>
        <time>1970-01-01T01:11:00.000Z</time>
      </trkpt>
      <trkpt lat="42.661846" lon="0.65172">
        <ele>2567.9</ele>
        <time>1970-01-01T01:11:01.000Z</time>
      </trkpt>
      <trkpt lat="42.661849" lon="0.651722">
        <ele>2567.9</ele>
        <time>1970-01-01T01:11:02.000Z</time>
      </trkpt>
      <trkpt lat="42.66185" lon="0.651723">
        <ele>2567.9</ele>
        <time>1970-01-01T01:11:03.000Z</time>
      </trkpt>
      <trkpt lat="42.661852" lon="0.651725">
        <ele>2567.9</ele>
        <time>1970-01-01T01:11:05.000Z</time>
      </trkpt>
      <trkpt lat="42.661852" lon="0.651726">
        <ele>2567.9</ele>
        <time>1970-01-01T01:11:06.000Z</time>
      </trkpt>
      <trkpt lat="42.661853" lon="0.651727">
        <ele>2567.9</ele>
        <time>1970-01-01T01:11:07.000Z</time>
      </trkpt>
      <trkpt lat="42.661854" lon="0.65173">
        <ele>2567.9</ele>
        <time>1970-01-01T01:11:08.000Z</time>
      </trkpt>
      <trkpt lat="42.661854" lon="0.651733">
        <ele>2567.9</ele>
        <time>1970-01-01T01:11:09.000Z</time>
      </trkpt>
      <trkpt lat="42.661856" lon="0.651734">
        <ele>2567.9</ele>
        <time>1970-01-01T01:11:10.000Z</time>
      </trkpt>
      <trkpt lat="42.661862" lon="0.651731">
        <ele>2567.9</ele>
        <time>1970-01-01T01:11:11.000Z</time>
      </trkpt>
      <trkpt lat="42.661866" lon="0.651729">
        <ele>2566.6</ele>
        <time>1970-01-01T01:11:12.000Z</time>
      </trkpt>
      <trkpt lat="42.661868" lon="0.651729">
        <ele>2566.6</ele>
        <time>1970-01-01T01:11:13.000Z</time>
      </trkpt>
      <trkpt lat="42.661874" lon="0.651725">
        <ele>2566.6</ele>
        <time>1970-01-01T01:11:14.000Z</time>
      </trkpt>
      <trkpt lat="42.661877" lon="0.651723">
        <ele>2566.6</ele>
        <time>1970-01-01T01:11:15.000Z</time>
      </trkpt>
      <trkpt lat="42.661878" lon="0.65172">
        <ele>2566.6</ele>
        <time>1970-01-01T01:11:16.000Z</time>
      </trkpt>
      <trkpt lat="42.661879" lon="0.651719">
        <ele>2566.6</ele>
        <time>1970-01-01T01:11:17.000Z</time>
      </trkpt>
      <trkpt lat="42.661877" lon="0.651717">
        <ele>2566.6</ele>
        <time>1970-01-01T01:11:19.000Z</time>
      </trkpt>
      <trkpt lat="42.661877" lon="0.651715">
        <ele>2566.6</ele>
        <time>1970-01-01T01:11:20.000Z</time>
      </trkpt>
      <trkpt lat="42.661876" lon="0.651711">
        <ele>2565.4</ele>
        <time>1970-01-01T01:11:21.000Z</time>
      </trkpt>
      <trkpt lat="42.661874" lon="0.651709">
        <ele>2565.4</ele>
        <time>1970-01-01T01:11:22.000Z</time>
      </trkpt>
      <trkpt lat="42.66187" lon="0.651707">
        <ele>2565.4</ele>
        <time>1970-01-01T01:11:23.000Z</time>
      </trkpt>
      <trkpt lat="42.661869" lon="0.651704">
        <ele>2565.4</ele>
        <time>1970-01-01T01:11:25.000Z</time>
      </trkpt>
      <trkpt lat="42.661868" lon="0.651703">
        <ele>2565.4</ele>
        <time>1970-01-01T01:11:26.000Z</time>
      </trkpt>
      <trkpt lat="42.661866" lon="0.6517">
        <ele>2565.4</ele>
        <time>1970-01-01T01:11:27.000Z</time>
      </trkpt>
      <trkpt lat="42.66186" lon="0.651699">
        <ele>2566.7</ele>
        <time>1970-01-01T01:11:29.000Z</time>
      </trkpt>
      <trkpt lat="42.66186" lon="0.651691">
        <ele>2566.7</ele>
        <time>1970-01-01T01:11:30.000Z</time>
      </trkpt>
      <trkpt lat="42.661859" lon="0.651687">
        <ele>2566.7</ele>
        <time>1970-01-01T01:11:31.000Z</time>
      </trkpt>
      <trkpt lat="42.661854" lon="0.651686">
        <ele>2566.7</ele>
        <time>1970-01-01T01:11:32.000Z</time>
      </trkpt>
      <trkpt lat="42.661852" lon="0.651685">
        <ele>2566.7</ele>
        <time>1970-01-01T01:11:34.000Z</time>
      </trkpt>
      <trkpt lat="42.66185" lon="0.651685">
        <ele>2566.7</ele>
        <time>1970-01-01T01:11:35.000Z</time>
      </trkpt>
      <trkpt lat="42.661849" lon="0.651685">
        <ele>2566.7</ele>
        <time>1970-01-01T01:11:36.000Z</time>
      </trkpt>
      <trkpt lat="42.661847" lon="0.651682">
        <ele>2566.7</ele>
        <time>1970-01-01T01:11:38.000Z</time>
      </trkpt>
      <trkpt lat="42.661845" lon="0.65168">
        <ele>2566.7</ele>
        <time>1970-01-01T01:11:39.000Z</time>
      </trkpt>
      <trkpt lat="42.661842" lon="0.651678">
        <ele>2566.7</ele>
        <time>1970-01-01T01:11:40.000Z</time>
      </trkpt>
      <trkpt lat="42.661837" lon="0.651675">
        <ele>2566.7</ele>
        <time>1970-01-01T01:11:41.000Z</time>
      </trkpt>
      <trkpt lat="42.661833" lon="0.651673">
        <ele>2566.7</ele>
        <time>1970-01-01T01:11:43.000Z</time>
      </trkpt>
      <trkpt lat="42.661828" lon="0.651673">
        <ele>2568</ele>
        <time>1970-01-01T01:11:44.000Z</time>
      </trkpt>
      <trkpt lat="42.661823" lon="0.651674">
        <ele>2568</ele>
        <time>1970-01-01T01:11:45.000Z</time>
      </trkpt>
      <trkpt lat="42.661817" lon="0.651674">
        <ele>2568</ele>
        <time>1970-01-01T01:11:46.000Z</time>
      </trkpt>
      <trkpt lat="42.661802" lon="0.651669">
        <ele>2566.7</ele>
        <time>1970-01-01T01:11:48.000Z</time>
      </trkpt>
      <trkpt lat="42.661784" lon="0.651661">
        <ele>2568</ele>
        <time>1970-01-01T01:11:49.000Z</time>
      </trkpt>
      <trkpt lat="42.661774" lon="0.651654">
        <ele>2568</ele>
        <time>1970-01-01T01:11:51.000Z</time>
      </trkpt>
      <trkpt lat="42.66177" lon="0.651651">
        <ele>2568</ele>
        <time>1970-01-01T01:11:52.000Z</time>
      </trkpt>
      <trkpt lat="42.661768" lon="0.65165">
        <ele>2569.2</ele>
        <time>1970-01-01T01:11:53.000Z</time>
      </trkpt>
      <trkpt lat="42.661766" lon="0.651651">
        <ele>2569.2</ele>
        <time>1970-01-01T01:11:55.000Z</time>
      </trkpt>
      <trkpt lat="42.661763" lon="0.651651">
        <ele>2569.2</ele>
        <time>1970-01-01T01:11:56.000Z</time>
      </trkpt>
      <trkpt lat="42.661761" lon="0.651652">
        <ele>2569.2</ele>
        <time>1970-01-01T01:11:57.000Z</time>
      </trkpt>
      <trkpt lat="42.661758" lon="0.651655">
        <ele>2569.2</ele>
        <time>1970-01-01T01:11:58.000Z</time>
      </trkpt>
      <trkpt lat="42.661755" lon="0.651657">
        <ele>2569.2</ele>
        <time>1970-01-01T01:11:59.000Z</time>
      </trkpt>
      <trkpt lat="42.661751" lon="0.651656">
        <ele>2569.2</ele>
        <time>1970-01-01T01:12:00.000Z</time>
      </trkpt>
      <trkpt lat="42.661747" lon="0.651656">
        <ele>2569.2</ele>
        <time>1970-01-01T01:12:01.000Z</time>
      </trkpt>
      <trkpt lat="42.66174" lon="0.651654">
        <ele>2569.2</ele>
        <time>1970-01-01T01:12:02.000Z</time>
      </trkpt>
      <trkpt lat="42.661736" lon="0.651654">
        <ele>2570.6</ele>
        <time>1970-01-01T01:12:03.000Z</time>
      </trkpt>
      <trkpt lat="42.661733" lon="0.651655">
        <ele>2570.6</ele>
        <time>1970-01-01T01:12:04.000Z</time>
      </trkpt>
      <trkpt lat="42.661732" lon="0.651657">
        <ele>2570.6</ele>
        <time>1970-01-01T01:12:05.000Z</time>
      </trkpt>
      <trkpt lat="42.661731" lon="0.651659">
        <ele>2570.6</ele>
        <time>1970-01-01T01:12:06.000Z</time>
      </trkpt>
      <trkpt lat="42.661729" lon="0.651661">
        <ele>2570.6</ele>
        <time>1970-01-01T01:12:07.000Z</time>
      </trkpt>
      <trkpt lat="42.661727" lon="0.651663">
        <ele>2570.6</ele>
        <time>1970-01-01T01:12:08.000Z</time>
      </trkpt>
      <trkpt lat="42.661725" lon="0.651664">
        <ele>2570.6</ele>
        <time>1970-01-01T01:12:09.000Z</time>
      </trkpt>
      <trkpt lat="42.661723" lon="0.651666">
        <ele>2570.6</ele>
        <time>1970-01-01T01:12:10.000Z</time>
      </trkpt>
      <trkpt lat="42.661722" lon="0.651667">
        <ele>2570.6</ele>
        <time>1970-01-01T01:12:11.000Z</time>
      </trkpt>
      <trkpt lat="42.66172" lon="0.651669">
        <ele>2570.6</ele>
        <time>1970-01-01T01:12:12.000Z</time>
      </trkpt>
      <trkpt lat="42.661719" lon="0.651671">
        <ele>2572</ele>
        <time>1970-01-01T01:12:13.000Z</time>
      </trkpt>
      <trkpt lat="42.661718" lon="0.651674">
        <ele>2572</ele>
        <time>1970-01-01T01:12:14.000Z</time>
      </trkpt>
      <trkpt lat="42.661716" lon="0.651676">
        <ele>2572</ele>
        <time>1970-01-01T01:12:15.000Z</time>
      </trkpt>
      <trkpt lat="42.661714" lon="0.65168">
        <ele>2572</ele>
        <time>1970-01-01T01:12:16.000Z</time>
      </trkpt>
      <trkpt lat="42.66171" lon="0.651684">
        <ele>2572</ele>
        <time>1970-01-01T01:12:18.000Z</time>
      </trkpt>
      <trkpt lat="42.661707" lon="0.651686">
        <ele>2572</ele>
        <time>1970-01-01T01:12:19.000Z</time>
      </trkpt>
      <trkpt lat="42.661704" lon="0.651689">
        <ele>2573.3</ele>
        <time>1970-01-01T01:12:20.000Z</time>
      </trkpt>
      <trkpt lat="42.661694" lon="0.651694">
        <ele>2573.3</ele>
        <time>1970-01-01T01:12:22.000Z</time>
      </trkpt>
      <trkpt lat="42.661692" lon="0.651696">
        <ele>2573.3</ele>
        <time>1970-01-01T01:12:23.000Z</time>
      </trkpt>
      <trkpt lat="42.66169" lon="0.651698">
        <ele>2573.3</ele>
        <time>1970-01-01T01:12:24.000Z</time>
      </trkpt>
      <trkpt lat="42.661688" lon="0.6517">
        <ele>2573.3</ele>
        <time>1970-01-01T01:12:25.000Z</time>
      </trkpt>
      <trkpt lat="42.661686" lon="0.651702">
        <ele>2573.3</ele>
        <time>1970-01-01T01:12:26.000Z</time>
      </trkpt>
      <trkpt lat="42.661683" lon="0.651705">
        <ele>2573.3</ele>
        <time>1970-01-01T01:12:27.000Z</time>
      </trkpt>
      <trkpt lat="42.661681" lon="0.651708">
        <ele>2573.3</ele>
        <time>1970-01-01T01:12:28.000Z</time>
      </trkpt>
      <trkpt lat="42.661677" lon="0.651714">
        <ele>2574.7</ele>
        <time>1970-01-01T01:12:29.000Z</time>
      </trkpt>
      <trkpt lat="42.661672" lon="0.65172">
        <ele>2576.2</ele>
        <time>1970-01-01T01:12:31.000Z</time>
      </trkpt>
      <trkpt lat="42.661667" lon="0.651722">
        <ele>2576.2</ele>
        <time>1970-01-01T01:12:32.000Z</time>
      </trkpt>
      <trkpt lat="42.661666" lon="0.65172">
        <ele>2576.2</ele>
        <time>1970-01-01T01:12:33.000Z</time>
      </trkpt>
      <trkpt lat="42.661665" lon="0.651719">
        <ele>2576.2</ele>
        <time>1970-01-01T01:12:34.000Z</time>
      </trkpt>
      <trkpt lat="42.661663" lon="0.651719">
        <ele>2576.2</ele>
        <time>1970-01-01T01:12:35.000Z</time>
      </trkpt>
      <trkpt lat="42.661661" lon="0.651718">
        <ele>2576.2</ele>
        <time>1970-01-01T01:12:36.000Z</time>
      </trkpt>
      <trkpt lat="42.661661" lon="0.651719">
        <ele>2576.2</ele>
        <time>1970-01-01T01:12:37.000Z</time>
      </trkpt>
      <trkpt lat="42.661659" lon="0.651721">
        <ele>2576.2</ele>
        <time>1970-01-01T01:12:39.000Z</time>
      </trkpt>
      <trkpt lat="42.661658" lon="0.651722">
        <ele>2576.2</ele>
        <time>1970-01-01T01:12:40.000Z</time>
      </trkpt>
      <trkpt lat="42.661657" lon="0.651723">
        <ele>2576.2</ele>
        <time>1970-01-01T01:12:41.000Z</time>
      </trkpt>
      <trkpt lat="42.661656" lon="0.651724">
        <ele>2576.2</ele>
        <time>1970-01-01T01:12:42.000Z</time>
      </trkpt>
      <trkpt lat="42.661655" lon="0.651725">
        <ele>2576.2</ele>
        <time>1970-01-01T01:12:43.000Z</time>
      </trkpt>
      <trkpt lat="42.661655" lon="0.651726">
        <ele>2576.2</ele>
        <time>1970-01-01T01:12:44.000Z</time>
      </trkpt>
      <trkpt lat="42.661654" lon="0.651728">
        <ele>2576.2</ele>
        <time>1970-01-01T01:12:45.000Z</time>
      </trkpt>
      <trkpt lat="42.661653" lon="0.651728">
        <ele>2576.2</ele>
        <time>1970-01-01T01:12:46.000Z</time>
      </trkpt>
      <trkpt lat="42.661652" lon="0.651728">
        <ele>2576.2</ele>
        <time>1970-01-01T01:12:47.000Z</time>
      </trkpt>
      <trkpt lat="42.66165" lon="0.651724">
        <ele>2576.2</ele>
        <time>1970-01-01T01:12:48.000Z</time>
      </trkpt>
      <trkpt lat="42.661648" lon="0.651711">
        <ele>2574.7</ele>
        <time>1970-01-01T01:12:50.000Z</time>
      </trkpt>
      <trkpt lat="42.661652" lon="0.651699">
        <ele>2574.7</ele>
        <time>1970-01-01T01:12:51.000Z</time>
      </trkpt>
      <trkpt lat="42.661659" lon="0.651688">
        <ele>2574.7</ele>
        <time>1970-01-01T01:12:52.000Z</time>
      </trkpt>
      <trkpt lat="42.661665" lon="0.651669">
        <ele>2573.3</ele>
        <time>1970-01-01T01:12:54.000Z</time>
      </trkpt>
      <trkpt lat="42.661669" lon="0.651658">
        <ele>2573.3</ele>
        <time>1970-01-01T01:12:55.000Z</time>
      </trkpt>
      <trkpt lat="42.661674" lon="0.651653">
        <ele>2571.9</ele>
        <time>1970-01-01T01:12:56.000Z</time>
      </trkpt>
      <trkpt lat="42.661679" lon="0.651654">
        <ele>2571.9</ele>
        <time>1970-01-01T01:12:57.000Z</time>
      </trkpt>
      <trkpt lat="42.661683" lon="0.651656">
        <ele>2571.9</ele>
        <time>1970-01-01T01:12:58.000Z</time>
      </trkpt>
      <trkpt lat="42.661685" lon="0.651658">
        <ele>2571.9</ele>
        <time>1970-01-01T01:12:59.000Z</time>
      </trkpt>
      <trkpt lat="42.661685" lon="0.651658">
        <ele>2571.9</ele>
        <time>1970-01-01T01:13:00.000Z</time>
      </trkpt>
      <trkpt lat="42.661683" lon="0.651659">
        <ele>2571.9</ele>
        <time>1970-01-01T01:13:02.000Z</time>
      </trkpt>
      <trkpt lat="42.661682" lon="0.65166">
        <ele>2571.9</ele>
        <time>1970-01-01T01:13:03.000Z</time>
      </trkpt>
      <trkpt lat="42.66168" lon="0.651662">
        <ele>2571.9</ele>
        <time>1970-01-01T01:13:04.000Z</time>
      </trkpt>
      <trkpt lat="42.661679" lon="0.651663">
        <ele>2571.9</ele>
        <time>1970-01-01T01:13:05.000Z</time>
      </trkpt>
      <trkpt lat="42.661678" lon="0.651663">
        <ele>2571.9</ele>
        <time>1970-01-01T01:13:06.000Z</time>
      </trkpt>
      <trkpt lat="42.661676" lon="0.651663">
        <ele>2571.9</ele>
        <time>1970-01-01T01:13:07.000Z</time>
      </trkpt>
      <trkpt lat="42.661674" lon="0.651664">
        <ele>2571.9</ele>
        <time>1970-01-01T01:13:08.000Z</time>
      </trkpt>
      <trkpt lat="42.661675" lon="0.651656">
        <ele>2571.9</ele>
        <time>1970-01-01T01:13:09.000Z</time>
      </trkpt>
      <trkpt lat="42.661676" lon="0.651645">
        <ele>2571.9</ele>
        <time>1970-01-01T01:13:11.000Z</time>
      </trkpt>
      <trkpt lat="42.661677" lon="0.651638">
        <ele>2571.9</ele>
        <time>1970-01-01T01:13:12.000Z</time>
      </trkpt>
      <trkpt lat="42.661678" lon="0.651635">
        <ele>2571.9</ele>
        <time>1970-01-01T01:13:13.000Z</time>
      </trkpt>
      <trkpt lat="42.661677" lon="0.651633">
        <ele>2571.9</ele>
        <time>1970-01-01T01:13:14.000Z</time>
      </trkpt>
      <trkpt lat="42.661677" lon="0.651617">
        <ele>2570.5</ele>
        <time>1970-01-01T01:13:16.000Z</time>
      </trkpt>
      <trkpt lat="42.661676" lon="0.651606">
        <ele>2570.5</ele>
        <time>1970-01-01T01:13:17.000Z</time>
      </trkpt>
      <trkpt lat="42.661675" lon="0.651596">
        <ele>2570.5</ele>
        <time>1970-01-01T01:13:18.000Z</time>
      </trkpt>
      <trkpt lat="42.661674" lon="0.651584">
        <ele>2570.5</ele>
        <time>1970-01-01T01:13:20.000Z</time>
      </trkpt>
      <trkpt lat="42.661668" lon="0.651576">
        <ele>2570.4</ele>
        <time>1970-01-01T01:13:21.000Z</time>
      </trkpt>
      <trkpt lat="42.661659" lon="0.65157">
        <ele>2570.4</ele>
        <time>1970-01-01T01:13:22.000Z</time>
      </trkpt>
      <trkpt lat="42.661647" lon="0.651565">
        <ele>2570.4</ele>
        <time>1970-01-01T01:13:24.000Z</time>
      </trkpt>
      <trkpt lat="42.661624" lon="0.65157">
        <ele>2571.8</ele>
        <time>1970-01-01T01:13:25.000Z</time>
      </trkpt>
      <trkpt lat="42.661614" lon="0.651571">
        <ele>2571.8</ele>
        <time>1970-01-01T01:13:26.000Z</time>
      </trkpt>
      <trkpt lat="42.661604" lon="0.651572">
        <ele>2573.2</ele>
        <time>1970-01-01T01:13:27.000Z</time>
      </trkpt>
      <trkpt lat="42.661587" lon="0.651571">
        <ele>2573.2</ele>
        <time>1970-01-01T01:13:29.000Z</time>
      </trkpt>
      <trkpt lat="42.661569" lon="0.651571">
        <ele>2574.5</ele>
        <time>1970-01-01T01:13:31.000Z</time>
      </trkpt>
      <trkpt lat="42.661567" lon="0.65157">
        <ele>2574.5</ele>
        <time>1970-01-01T01:13:32.000Z</time>
      </trkpt>
      <trkpt lat="42.661565" lon="0.651569">
        <ele>2574.5</ele>
        <time>1970-01-01T01:13:33.000Z</time>
      </trkpt>
      <trkpt lat="42.661565" lon="0.65157">
        <ele>2574.5</ele>
        <time>1970-01-01T01:13:34.000Z</time>
      </trkpt>
      <trkpt lat="42.661563" lon="0.651571">
        <ele>2574.5</ele>
        <time>1970-01-01T01:13:35.000Z</time>
      </trkpt>
      <trkpt lat="42.661561" lon="0.651573">
        <ele>2574.5</ele>
        <time>1970-01-01T01:13:36.000Z</time>
      </trkpt>
      <trkpt lat="42.661559" lon="0.651575">
        <ele>2574.5</ele>
        <time>1970-01-01T01:13:37.000Z</time>
      </trkpt>
      <trkpt lat="42.661558" lon="0.651579">
        <ele>2574.5</ele>
        <time>1970-01-01T01:13:38.000Z</time>
      </trkpt>
      <trkpt lat="42.661558" lon="0.651582">
        <ele>2574.5</ele>
        <time>1970-01-01T01:13:39.000Z</time>
      </trkpt>
      <trkpt lat="42.661557" lon="0.651586">
        <ele>2576</ele>
        <time>1970-01-01T01:13:40.000Z</time>
      </trkpt>
      <trkpt lat="42.661557" lon="0.651589">
        <ele>2576</ele>
        <time>1970-01-01T01:13:41.000Z</time>
      </trkpt>
      <trkpt lat="42.661557" lon="0.651592">
        <ele>2576</ele>
        <time>1970-01-01T01:13:42.000Z</time>
      </trkpt>
      <trkpt lat="42.661556" lon="0.651593">
        <ele>2576</ele>
        <time>1970-01-01T01:13:43.000Z</time>
      </trkpt>
      <trkpt lat="42.661555" lon="0.651593">
        <ele>2576</ele>
        <time>1970-01-01T01:13:44.000Z</time>
      </trkpt>
      <trkpt lat="42.661554" lon="0.651594">
        <ele>2576</ele>
        <time>1970-01-01T01:13:45.000Z</time>
      </trkpt>
      <trkpt lat="42.661552" lon="0.651594">
        <ele>2576</ele>
        <time>1970-01-01T01:13:46.000Z</time>
      </trkpt>
      <trkpt lat="42.661539" lon="0.651591">
        <ele>2577.3</ele>
        <time>1970-01-01T01:13:47.000Z</time>
      </trkpt>
      <trkpt lat="42.661522" lon="0.65158">
        <ele>2575.9</ele>
        <time>1970-01-01T01:13:49.000Z</time>
      </trkpt>
      <trkpt lat="42.661513" lon="0.651568">
        <ele>2577.2</ele>
        <time>1970-01-01T01:13:50.000Z</time>
      </trkpt>
      <trkpt lat="42.661508" lon="0.651557">
        <ele>2577.2</ele>
        <time>1970-01-01T01:13:51.000Z</time>
      </trkpt>
      <trkpt lat="42.661505" lon="0.651554">
        <ele>2577.2</ele>
        <time>1970-01-01T01:13:52.000Z</time>
      </trkpt>
      <trkpt lat="42.661505" lon="0.651555">
        <ele>2577.2</ele>
        <time>1970-01-01T01:13:53.000Z</time>
      </trkpt>
      <trkpt lat="42.661503" lon="0.651555">
        <ele>2577.2</ele>
        <time>1970-01-01T01:13:55.000Z</time>
      </trkpt>
      <trkpt lat="42.661501" lon="0.651558">
        <ele>2577.2</ele>
        <time>1970-01-01T01:13:56.000Z</time>
      </trkpt>
      <trkpt lat="42.661501" lon="0.651561">
        <ele>2577.2</ele>
        <time>1970-01-01T01:13:57.000Z</time>
      </trkpt>
      <trkpt lat="42.661501" lon="0.651564">
        <ele>2577.2</ele>
        <time>1970-01-01T01:13:58.000Z</time>
      </trkpt>
      <trkpt lat="42.661501" lon="0.651567">
        <ele>2577.2</ele>
        <time>1970-01-01T01:13:59.000Z</time>
      </trkpt>
      <trkpt lat="42.661501" lon="0.65157">
        <ele>2577.2</ele>
        <time>1970-01-01T01:14:00.000Z</time>
      </trkpt>
      <trkpt lat="42.661501" lon="0.651572">
        <ele>2577.2</ele>
        <time>1970-01-01T01:14:01.000Z</time>
      </trkpt>
      <trkpt lat="42.661501" lon="0.651573">
        <ele>2577.2</ele>
        <time>1970-01-01T01:14:02.000Z</time>
      </trkpt>
      <trkpt lat="42.661501" lon="0.651574">
        <ele>2577.2</ele>
        <time>1970-01-01T01:14:03.000Z</time>
      </trkpt>
      <trkpt lat="42.661501" lon="0.651575">
        <ele>2577.2</ele>
        <time>1970-01-01T01:14:04.000Z</time>
      </trkpt>
      <trkpt lat="42.6615" lon="0.651576">
        <ele>2577.2</ele>
        <time>1970-01-01T01:14:05.000Z</time>
      </trkpt>
      <trkpt lat="42.661501" lon="0.651577">
        <ele>2577.2</ele>
        <time>1970-01-01T01:14:06.000Z</time>
      </trkpt>
      <trkpt lat="42.661501" lon="0.651577">
        <ele>2577.2</ele>
        <time>1970-01-01T01:14:07.000Z</time>
      </trkpt>
      <trkpt lat="42.661501" lon="0.651578">
        <ele>2577.2</ele>
        <time>1970-01-01T01:14:08.000Z</time>
      </trkpt>
      <trkpt lat="42.6615" lon="0.651579">
        <ele>2577.2</ele>
        <time>1970-01-01T01:14:09.000Z</time>
      </trkpt>
      <trkpt lat="42.661502" lon="0.65158">
        <ele>2577.2</ele>
        <time>1970-01-01T01:14:10.000Z</time>
      </trkpt>
      <trkpt lat="42.661503" lon="0.651582">
        <ele>2577.2</ele>
        <time>1970-01-01T01:14:11.000Z</time>
      </trkpt>
      <trkpt lat="42.661502" lon="0.651583">
        <ele>2577.2</ele>
        <time>1970-01-01T01:14:12.000Z</time>
      </trkpt>
      <trkpt lat="42.661502" lon="0.651584">
        <ele>2578.7</ele>
        <time>1970-01-01T01:14:13.000Z</time>
      </trkpt>
      <trkpt lat="42.661501" lon="0.651586">
        <ele>2578.7</ele>
        <time>1970-01-01T01:14:14.000Z</time>
      </trkpt>
      <trkpt lat="42.661498" lon="0.651587">
        <ele>2578.7</ele>
        <time>1970-01-01T01:14:15.000Z</time>
      </trkpt>
      <trkpt lat="42.661494" lon="0.651589">
        <ele>2578.7</ele>
        <time>1970-01-01T01:14:16.000Z</time>
      </trkpt>
      <trkpt lat="42.66149" lon="0.651593">
        <ele>2578.7</ele>
        <time>1970-01-01T01:14:17.000Z</time>
      </trkpt>
      <trkpt lat="42.661487" lon="0.651598">
        <ele>2578.7</ele>
        <time>1970-01-01T01:14:18.000Z</time>
      </trkpt>
      <trkpt lat="42.661486" lon="0.651601">
        <ele>2578.7</ele>
        <time>1970-01-01T01:14:19.000Z</time>
      </trkpt>
      <trkpt lat="42.661484" lon="0.651604">
        <ele>2578.7</ele>
        <time>1970-01-01T01:14:20.000Z</time>
      </trkpt>
      <trkpt lat="42.661487" lon="0.651591">
        <ele>2578.7</ele>
        <time>1970-01-01T01:14:21.000Z</time>
      </trkpt>
      <trkpt lat="42.661487" lon="0.651587">
        <ele>2578.7</ele>
        <time>1970-01-01T01:14:22.000Z</time>
      </trkpt>
      <trkpt lat="42.661484" lon="0.651587">
        <ele>2578.7</ele>
        <time>1970-01-01T01:14:23.000Z</time>
      </trkpt>
      <trkpt lat="42.661481" lon="0.651588">
        <ele>2580</ele>
        <time>1970-01-01T01:14:24.000Z</time>
      </trkpt>
      <trkpt lat="42.661479" lon="0.65159">
        <ele>2580</ele>
        <time>1970-01-01T01:14:25.000Z</time>
      </trkpt>
      <trkpt lat="42.661476" lon="0.651593">
        <ele>2580</ele>
        <time>1970-01-01T01:14:26.000Z</time>
      </trkpt>
      <trkpt lat="42.661475" lon="0.651595">
        <ele>2580</ele>
        <time>1970-01-01T01:14:27.000Z</time>
      </trkpt>
      <trkpt lat="42.661473" lon="0.651597">
        <ele>2580</ele>
        <time>1970-01-01T01:14:28.000Z</time>
      </trkpt>
      <trkpt lat="42.661472" lon="0.651599">
        <ele>2580</ele>
        <time>1970-01-01T01:14:29.000Z</time>
      </trkpt>
      <trkpt lat="42.661471" lon="0.6516">
        <ele>2580</ele>
        <time>1970-01-01T01:14:30.000Z</time>
      </trkpt>
      <trkpt lat="42.661471" lon="0.651602">
        <ele>2580</ele>
        <time>1970-01-01T01:14:31.000Z</time>
      </trkpt>
      <trkpt lat="42.66147" lon="0.651603">
        <ele>2580</ele>
        <time>1970-01-01T01:14:32.000Z</time>
      </trkpt>
      <trkpt lat="42.66147" lon="0.651605">
        <ele>2580</ele>
        <time>1970-01-01T01:14:33.000Z</time>
      </trkpt>
      <trkpt lat="42.66147" lon="0.651606">
        <ele>2580</ele>
        <time>1970-01-01T01:14:34.000Z</time>
      </trkpt>
      <trkpt lat="42.661469" lon="0.651607">
        <ele>2580</ele>
        <time>1970-01-01T01:14:35.000Z</time>
      </trkpt>
      <trkpt lat="42.661469" lon="0.651607">
        <ele>2580</ele>
        <time>1970-01-01T01:14:36.000Z</time>
      </trkpt>
      <trkpt lat="42.661469" lon="0.651608">
        <ele>2580</ele>
        <time>1970-01-01T01:14:37.000Z</time>
      </trkpt>
      <trkpt lat="42.661464" lon="0.651603">
        <ele>2580</ele>
        <time>1970-01-01T01:14:39.000Z</time>
      </trkpt>
      <trkpt lat="42.661459" lon="0.651592">
        <ele>2580</ele>
        <time>1970-01-01T01:14:40.000Z</time>
      </trkpt>
      <trkpt lat="42.661455" lon="0.65158">
        <ele>2578.5</ele>
        <time>1970-01-01T01:14:41.000Z</time>
      </trkpt>
      <trkpt lat="42.661454" lon="0.651571">
        <ele>2578.5</ele>
        <time>1970-01-01T01:14:42.000Z</time>
      </trkpt>
      <trkpt lat="42.661452" lon="0.651566">
        <ele>2579.9</ele>
        <time>1970-01-01T01:14:44.000Z</time>
      </trkpt>
      <trkpt lat="42.661451" lon="0.651567">
        <ele>2579.9</ele>
        <time>1970-01-01T01:14:45.000Z</time>
      </trkpt>
      <trkpt lat="42.661448" lon="0.651572">
        <ele>2579.9</ele>
        <time>1970-01-01T01:14:47.000Z</time>
      </trkpt>
      <trkpt lat="42.661446" lon="0.651576">
        <ele>2579.9</ele>
        <time>1970-01-01T01:14:48.000Z</time>
      </trkpt>
      <trkpt lat="42.661444" lon="0.651581">
        <ele>2579.9</ele>
        <time>1970-01-01T01:14:49.000Z</time>
      </trkpt>
      <trkpt lat="42.661441" lon="0.651593">
        <ele>2581.4</ele>
        <time>1970-01-01T01:14:51.000Z</time>
      </trkpt>
      <trkpt lat="42.66144" lon="0.651598">
        <ele>2581.4</ele>
        <time>1970-01-01T01:14:52.000Z</time>
      </trkpt>
      <trkpt lat="42.66144" lon="0.651603">
        <ele>2581.4</ele>
        <time>1970-01-01T01:14:53.000Z</time>
      </trkpt>
      <trkpt lat="42.661439" lon="0.651607">
        <ele>2581.4</ele>
        <time>1970-01-01T01:14:54.000Z</time>
      </trkpt>
      <trkpt lat="42.661436" lon="0.65161">
        <ele>2581.4</ele>
        <time>1970-01-01T01:14:56.000Z</time>
      </trkpt>
      <trkpt lat="42.661435" lon="0.651616">
        <ele>2581.4</ele>
        <time>1970-01-01T01:14:57.000Z</time>
      </trkpt>
      <trkpt lat="42.661434" lon="0.651619">
        <ele>2581.4</ele>
        <time>1970-01-01T01:14:58.000Z</time>
      </trkpt>
      <trkpt lat="42.661433" lon="0.651623">
        <ele>2581.4</ele>
        <time>1970-01-01T01:14:59.000Z</time>
      </trkpt>
      <trkpt lat="42.661432" lon="0.651626">
        <ele>2581.4</ele>
        <time>1970-01-01T01:15:00.000Z</time>
      </trkpt>
      <trkpt lat="42.66143" lon="0.651621">
        <ele>2581.4</ele>
        <time>1970-01-01T01:15:01.000Z</time>
      </trkpt>
      <trkpt lat="42.66143" lon="0.651614">
        <ele>2581.4</ele>
        <time>1970-01-01T01:15:02.000Z</time>
      </trkpt>
      <trkpt lat="42.661431" lon="0.651609">
        <ele>2581.4</ele>
        <time>1970-01-01T01:15:03.000Z</time>
      </trkpt>
      <trkpt lat="42.66143" lon="0.651604">
        <ele>2581.4</ele>
        <time>1970-01-01T01:15:04.000Z</time>
      </trkpt>
      <trkpt lat="42.661427" lon="0.651598">
        <ele>2581.4</ele>
        <time>1970-01-01T01:15:05.000Z</time>
      </trkpt>
      <trkpt lat="42.661423" lon="0.651595">
        <ele>2581.4</ele>
        <time>1970-01-01T01:15:06.000Z</time>
      </trkpt>
      <trkpt lat="42.661422" lon="0.651594">
        <ele>2581.4</ele>
        <time>1970-01-01T01:15:07.000Z</time>
      </trkpt>
      <trkpt lat="42.661422" lon="0.651596">
        <ele>2581.4</ele>
        <time>1970-01-01T01:15:08.000Z</time>
      </trkpt>
      <trkpt lat="42.661416" lon="0.651595">
        <ele>2582.8</ele>
        <time>1970-01-01T01:15:09.000Z</time>
      </trkpt>
      <trkpt lat="42.66141" lon="0.651594">
        <ele>2582.8</ele>
        <time>1970-01-01T01:15:11.000Z</time>
      </trkpt>
      <trkpt lat="42.661404" lon="0.651589">
        <ele>2582.8</ele>
        <time>1970-01-01T01:15:12.000Z</time>
      </trkpt>
      <trkpt lat="42.661395" lon="0.651581">
        <ele>2581.3</ele>
        <time>1970-01-01T01:15:13.000Z</time>
      </trkpt>
      <trkpt lat="42.661388" lon="0.651577">
        <ele>2582.9</ele>
        <time>1970-01-01T01:15:14.000Z</time>
      </trkpt>
      <trkpt lat="42.661381" lon="0.651574">
        <ele>2582.9</ele>
        <time>1970-01-01T01:15:15.000Z</time>
      </trkpt>
      <trkpt lat="42.661374" lon="0.651572">
        <ele>2582.9</ele>
        <time>1970-01-01T01:15:16.000Z</time>
      </trkpt>
      <trkpt lat="42.661367" lon="0.651569">
        <ele>2582.9</ele>
        <time>1970-01-01T01:15:17.000Z</time>
      </trkpt>
      <trkpt lat="42.661361" lon="0.651568">
        <ele>2582.9</ele>
        <time>1970-01-01T01:15:18.000Z</time>
      </trkpt>
      <trkpt lat="42.661356" lon="0.651569">
        <ele>2584.5</ele>
        <time>1970-01-01T01:15:19.000Z</time>
      </trkpt>
      <trkpt lat="42.661351" lon="0.651571">
        <ele>2584.5</ele>
        <time>1970-01-01T01:15:20.000Z</time>
      </trkpt>
      <trkpt lat="42.661347" lon="0.651577">
        <ele>2584.5</ele>
        <time>1970-01-01T01:15:21.000Z</time>
      </trkpt>
      <trkpt lat="42.661343" lon="0.651582">
        <ele>2584.5</ele>
        <time>1970-01-01T01:15:22.000Z</time>
      </trkpt>
      <trkpt lat="42.66134" lon="0.651587">
        <ele>2586</ele>
        <time>1970-01-01T01:15:23.000Z</time>
      </trkpt>
      <trkpt lat="42.661334" lon="0.651597">
        <ele>2586</ele>
        <time>1970-01-01T01:15:25.000Z</time>
      </trkpt>
      <trkpt lat="42.661329" lon="0.651608">
        <ele>2586</ele>
        <time>1970-01-01T01:15:27.000Z</time>
      </trkpt>
      <trkpt lat="42.661326" lon="0.651614">
        <ele>2587.5</ele>
        <time>1970-01-01T01:15:28.000Z</time>
      </trkpt>
      <trkpt lat="42.661323" lon="0.651623">
        <ele>2587.5</ele>
        <time>1970-01-01T01:15:29.000Z</time>
      </trkpt>
      <trkpt lat="42.66132" lon="0.651631">
        <ele>2589</ele>
        <time>1970-01-01T01:15:30.000Z</time>
      </trkpt>
      <trkpt lat="42.661314" lon="0.651642">
        <ele>2589</ele>
        <time>1970-01-01T01:15:31.000Z</time>
      </trkpt>
      <trkpt lat="42.661307" lon="0.65165">
        <ele>2589</ele>
        <time>1970-01-01T01:15:32.000Z</time>
      </trkpt>
      <trkpt lat="42.661304" lon="0.651656">
        <ele>2589</ele>
        <time>1970-01-01T01:15:33.000Z</time>
      </trkpt>
      <trkpt lat="42.661301" lon="0.651661">
        <ele>2589</ele>
        <time>1970-01-01T01:15:34.000Z</time>
      </trkpt>
      <trkpt lat="42.661298" lon="0.651663">
        <ele>2589</ele>
        <time>1970-01-01T01:15:35.000Z</time>
      </trkpt>
      <trkpt lat="42.661292" lon="0.651666">
        <ele>2590.4</ele>
        <time>1970-01-01T01:15:36.000Z</time>
      </trkpt>
      <trkpt lat="42.661288" lon="0.651668">
        <ele>2590.4</ele>
        <time>1970-01-01T01:15:37.000Z</time>
      </trkpt>
      <trkpt lat="42.661287" lon="0.65168">
        <ele>2591.9</ele>
        <time>1970-01-01T01:15:39.000Z</time>
      </trkpt>
      <trkpt lat="42.661285" lon="0.651704">
        <ele>2591.9</ele>
        <time>1970-01-01T01:15:40.000Z</time>
      </trkpt>
      <trkpt lat="42.661282" lon="0.65171">
        <ele>2591.9</ele>
        <time>1970-01-01T01:15:41.000Z</time>
      </trkpt>
      <trkpt lat="42.661275" lon="0.651715">
        <ele>2593.3</ele>
        <time>1970-01-01T01:15:43.000Z</time>
      </trkpt>
      <trkpt lat="42.661269" lon="0.651716">
        <ele>2593.3</ele>
        <time>1970-01-01T01:15:44.000Z</time>
      </trkpt>
      <trkpt lat="42.66126" lon="0.651717">
        <ele>2594.6</ele>
        <time>1970-01-01T01:15:45.000Z</time>
      </trkpt>
      <trkpt lat="42.661252" lon="0.65172">
        <ele>2594.6</ele>
        <time>1970-01-01T01:15:46.000Z</time>
      </trkpt>
      <trkpt lat="42.661246" lon="0.651722">
        <ele>2594.6</ele>
        <time>1970-01-01T01:15:47.000Z</time>
      </trkpt>
      <trkpt lat="42.661236" lon="0.651721">
        <ele>2594.6</ele>
        <time>1970-01-01T01:15:49.000Z</time>
      </trkpt>
      <trkpt lat="42.66123" lon="0.651719">
        <ele>2595.9</ele>
        <time>1970-01-01T01:15:50.000Z</time>
      </trkpt>
      <trkpt lat="42.661226" lon="0.651718">
        <ele>2595.9</ele>
        <time>1970-01-01T01:15:51.000Z</time>
      </trkpt>
      <trkpt lat="42.661219" lon="0.651714">
        <ele>2595.9</ele>
        <time>1970-01-01T01:15:52.000Z</time>
      </trkpt>
      <trkpt lat="42.661212" lon="0.651714">
        <ele>2595.9</ele>
        <time>1970-01-01T01:15:54.000Z</time>
      </trkpt>
      <trkpt lat="42.661204" lon="0.651719">
        <ele>2595.9</ele>
        <time>1970-01-01T01:15:55.000Z</time>
      </trkpt>
      <trkpt lat="42.6612" lon="0.651721">
        <ele>2595.9</ele>
        <time>1970-01-01T01:15:56.000Z</time>
      </trkpt>
      <trkpt lat="42.661195" lon="0.651721">
        <ele>2597.2</ele>
        <time>1970-01-01T01:15:57.000Z</time>
      </trkpt>
      <trkpt lat="42.661188" lon="0.65172">
        <ele>2597.2</ele>
        <time>1970-01-01T01:15:59.000Z</time>
      </trkpt>
      <trkpt lat="42.661184" lon="0.651719">
        <ele>2597.2</ele>
        <time>1970-01-01T01:16:00.000Z</time>
      </trkpt>
      <trkpt lat="42.66118" lon="0.651716">
        <ele>2597.2</ele>
        <time>1970-01-01T01:16:01.000Z</time>
      </trkpt>
      <trkpt lat="42.661175" lon="0.651711">
        <ele>2595.8</ele>
        <time>1970-01-01T01:16:02.000Z</time>
      </trkpt>
      <trkpt lat="42.661172" lon="0.651706">
        <ele>2595.8</ele>
        <time>1970-01-01T01:16:03.000Z</time>
      </trkpt>
      <trkpt lat="42.661168" lon="0.651701">
        <ele>2597.2</ele>
        <time>1970-01-01T01:16:04.000Z</time>
      </trkpt>
      <trkpt lat="42.66116" lon="0.651694">
        <ele>2597.2</ele>
        <time>1970-01-01T01:16:06.000Z</time>
      </trkpt>
      <trkpt lat="42.661155" lon="0.651691">
        <ele>2597.2</ele>
        <time>1970-01-01T01:16:07.000Z</time>
      </trkpt>
      <trkpt lat="42.661151" lon="0.65169">
        <ele>2597.2</ele>
        <time>1970-01-01T01:16:08.000Z</time>
      </trkpt>
      <trkpt lat="42.661145" lon="0.651689">
        <ele>2597.2</ele>
        <time>1970-01-01T01:16:09.000Z</time>
      </trkpt>
      <trkpt lat="42.66114" lon="0.651687">
        <ele>2597.2</ele>
        <time>1970-01-01T01:16:11.000Z</time>
      </trkpt>
      <trkpt lat="42.661134" lon="0.651683">
        <ele>2598.7</ele>
        <time>1970-01-01T01:16:12.000Z</time>
      </trkpt>
      <trkpt lat="42.66113" lon="0.651681">
        <ele>2598.7</ele>
        <time>1970-01-01T01:16:13.000Z</time>
      </trkpt>
      <trkpt lat="42.661125" lon="0.651676">
        <ele>2598.7</ele>
        <time>1970-01-01T01:16:14.000Z</time>
      </trkpt>
      <trkpt lat="42.661121" lon="0.651672">
        <ele>2598.7</ele>
        <time>1970-01-01T01:16:16.000Z</time>
      </trkpt>
      <trkpt lat="42.661116" lon="0.651668">
        <ele>2597.3</ele>
        <time>1970-01-01T01:16:17.000Z</time>
      </trkpt>
      <trkpt lat="42.661113" lon="0.651666">
        <ele>2597.3</ele>
        <time>1970-01-01T01:16:18.000Z</time>
      </trkpt>
      <trkpt lat="42.66111" lon="0.65166">
        <ele>2597.3</ele>
        <time>1970-01-01T01:16:19.000Z</time>
      </trkpt>
      <trkpt lat="42.661112" lon="0.651654">
        <ele>2597.3</ele>
        <time>1970-01-01T01:16:20.000Z</time>
      </trkpt>
      <trkpt lat="42.661116" lon="0.651645">
        <ele>2597.3</ele>
        <time>1970-01-01T01:16:21.000Z</time>
      </trkpt>
      <trkpt lat="42.661126" lon="0.651639">
        <ele>2597.3</ele>
        <time>1970-01-01T01:16:23.000Z</time>
      </trkpt>
      <trkpt lat="42.661129" lon="0.651642">
        <ele>2597.3</ele>
        <time>1970-01-01T01:16:24.000Z</time>
      </trkpt>
      <trkpt lat="42.661132" lon="0.651645">
        <ele>2597.3</ele>
        <time>1970-01-01T01:16:25.000Z</time>
      </trkpt>
      <trkpt lat="42.661134" lon="0.651647">
        <ele>2597.3</ele>
        <time>1970-01-01T01:16:26.000Z</time>
      </trkpt>
      <trkpt lat="42.661136" lon="0.65165">
        <ele>2597.3</ele>
        <time>1970-01-01T01:16:27.000Z</time>
      </trkpt>
      <trkpt lat="42.661137" lon="0.651651">
        <ele>2595.8</ele>
        <time>1970-01-01T01:16:28.000Z</time>
      </trkpt>
      <trkpt lat="42.661139" lon="0.651654">
        <ele>2595.8</ele>
        <time>1970-01-01T01:16:29.000Z</time>
      </trkpt>
      <trkpt lat="42.66114" lon="0.651653">
        <ele>2595.8</ele>
        <time>1970-01-01T01:16:30.000Z</time>
      </trkpt>
      <trkpt lat="42.66114" lon="0.651655">
        <ele>2595.8</ele>
        <time>1970-01-01T01:16:31.000Z</time>
      </trkpt>
      <trkpt lat="42.661139" lon="0.651657">
        <ele>2595.8</ele>
        <time>1970-01-01T01:16:32.000Z</time>
      </trkpt>
      <trkpt lat="42.661138" lon="0.651659">
        <ele>2595.8</ele>
        <time>1970-01-01T01:16:33.000Z</time>
      </trkpt>
      <trkpt lat="42.661138" lon="0.65166">
        <ele>2595.8</ele>
        <time>1970-01-01T01:16:34.000Z</time>
      </trkpt>
      <trkpt lat="42.661137" lon="0.651662">
        <ele>2595.8</ele>
        <time>1970-01-01T01:16:35.000Z</time>
      </trkpt>
      <trkpt lat="42.661136" lon="0.651666">
        <ele>2597.3</ele>
        <time>1970-01-01T01:16:36.000Z</time>
      </trkpt>
      <trkpt lat="42.661136" lon="0.651669">
        <ele>2597.3</ele>
        <time>1970-01-01T01:16:37.000Z</time>
      </trkpt>
      <trkpt lat="42.661136" lon="0.651672">
        <ele>2598.7</ele>
        <time>1970-01-01T01:16:38.000Z</time>
      </trkpt>
      <trkpt lat="42.661135" lon="0.651678">
        <ele>2598.7</ele>
        <time>1970-01-01T01:16:40.000Z</time>
      </trkpt>
      <trkpt lat="42.661135" lon="0.651679">
        <ele>2598.7</ele>
        <time>1970-01-01T01:16:41.000Z</time>
      </trkpt>
      <trkpt lat="42.661134" lon="0.651681">
        <ele>2598.7</ele>
        <time>1970-01-01T01:16:42.000Z</time>
      </trkpt>
      <trkpt lat="42.661134" lon="0.651682">
        <ele>2598.7</ele>
        <time>1970-01-01T01:16:43.000Z</time>
      </trkpt>
      <trkpt lat="42.661134" lon="0.651684">
        <ele>2598.7</ele>
        <time>1970-01-01T01:16:44.000Z</time>
      </trkpt>
      <trkpt lat="42.661135" lon="0.651686">
        <ele>2598.7</ele>
        <time>1970-01-01T01:16:45.000Z</time>
      </trkpt>
      <trkpt lat="42.661137" lon="0.651687">
        <ele>2597.2</ele>
        <time>1970-01-01T01:16:47.000Z</time>
      </trkpt>
      <trkpt lat="42.661137" lon="0.651689">
        <ele>2597.2</ele>
        <time>1970-01-01T01:16:48.000Z</time>
      </trkpt>
      <trkpt lat="42.661138" lon="0.65169">
        <ele>2597.2</ele>
        <time>1970-01-01T01:16:49.000Z</time>
      </trkpt>
      <trkpt lat="42.661138" lon="0.651691">
        <ele>2597.2</ele>
        <time>1970-01-01T01:16:50.000Z</time>
      </trkpt>
      <trkpt lat="42.661138" lon="0.651691">
        <ele>2597.2</ele>
        <time>1970-01-01T01:16:51.000Z</time>
      </trkpt>
      <trkpt lat="42.661139" lon="0.65169">
        <ele>2597.2</ele>
        <time>1970-01-01T01:16:52.000Z</time>
      </trkpt>
      <trkpt lat="42.661139" lon="0.651691">
        <ele>2597.2</ele>
        <time>1970-01-01T01:16:53.000Z</time>
      </trkpt>
      <trkpt lat="42.661138" lon="0.651693">
        <ele>2597.2</ele>
        <time>1970-01-01T01:16:54.000Z</time>
      </trkpt>
      <trkpt lat="42.661138" lon="0.651695">
        <ele>2597.2</ele>
        <time>1970-01-01T01:16:55.000Z</time>
      </trkpt>
      <trkpt lat="42.661138" lon="0.651696">
        <ele>2597.2</ele>
        <time>1970-01-01T01:16:56.000Z</time>
      </trkpt>
      <trkpt lat="42.661137" lon="0.651696">
        <ele>2597.2</ele>
        <time>1970-01-01T01:16:57.000Z</time>
      </trkpt>
      <trkpt lat="42.661137" lon="0.651695">
        <ele>2597.2</ele>
        <time>1970-01-01T01:16:58.000Z</time>
      </trkpt>
      <trkpt lat="42.661137" lon="0.651694">
        <ele>2597.2</ele>
        <time>1970-01-01T01:16:59.000Z</time>
      </trkpt>
      <trkpt lat="42.661138" lon="0.651694">
        <ele>2597.2</ele>
        <time>1970-01-01T01:17:00.000Z</time>
      </trkpt>
      <trkpt lat="42.661141" lon="0.651695">
        <ele>2597.2</ele>
        <time>1970-01-01T01:17:01.000Z</time>
      </trkpt>
      <trkpt lat="42.661147" lon="0.6517">
        <ele>2597.2</ele>
        <time>1970-01-01T01:17:03.000Z</time>
      </trkpt>
      <trkpt lat="42.661149" lon="0.651704">
        <ele>2597.2</ele>
        <time>1970-01-01T01:17:04.000Z</time>
      </trkpt>
      <trkpt lat="42.66115" lon="0.651707">
        <ele>2597.2</ele>
        <time>1970-01-01T01:17:05.000Z</time>
      </trkpt>
      <trkpt lat="42.661151" lon="0.65171">
        <ele>2597.2</ele>
        <time>1970-01-01T01:17:06.000Z</time>
      </trkpt>
      <trkpt lat="42.661153" lon="0.651711">
        <ele>2597.2</ele>
        <time>1970-01-01T01:17:07.000Z</time>
      </trkpt>
      <trkpt lat="42.661155" lon="0.651714">
        <ele>2598.6</ele>
        <time>1970-01-01T01:17:09.000Z</time>
      </trkpt>
      <trkpt lat="42.661156" lon="0.651715">
        <ele>2598.6</ele>
        <time>1970-01-01T01:17:10.000Z</time>
      </trkpt>
      <trkpt lat="42.661156" lon="0.651716">
        <ele>2598.6</ele>
        <time>1970-01-01T01:17:11.000Z</time>
      </trkpt>
      <trkpt lat="42.661156" lon="0.651716">
        <ele>2598.6</ele>
        <time>1970-01-01T01:17:12.000Z</time>
      </trkpt>
      <trkpt lat="42.661157" lon="0.651717">
        <ele>2598.6</ele>
        <time>1970-01-01T01:17:13.000Z</time>
      </trkpt>
      <trkpt lat="42.661157" lon="0.651717">
        <ele>2598.6</ele>
        <time>1970-01-01T01:17:14.000Z</time>
      </trkpt>
      <trkpt lat="42.661158" lon="0.651717">
        <ele>2598.6</ele>
        <time>1970-01-01T01:17:15.000Z</time>
      </trkpt>
      <trkpt lat="42.661158" lon="0.651717">
        <ele>2598.6</ele>
        <time>1970-01-01T01:17:16.000Z</time>
      </trkpt>
      <trkpt lat="42.661158" lon="0.651717">
        <ele>2598.6</ele>
        <time>1970-01-01T01:17:17.000Z</time>
      </trkpt>
      <trkpt lat="42.661158" lon="0.651717">
        <ele>2598.6</ele>
        <time>1970-01-01T01:17:18.000Z</time>
      </trkpt>
      <trkpt lat="42.661158" lon="0.651718">
        <ele>2598.6</ele>
        <time>1970-01-01T01:17:20.000Z</time>
      </trkpt>
      <trkpt lat="42.661158" lon="0.651718">
        <ele>2598.6</ele>
        <time>1970-01-01T01:17:21.000Z</time>
      </trkpt>
      <trkpt lat="42.661159" lon="0.651718">
        <ele>2598.6</ele>
        <time>1970-01-01T01:17:22.000Z</time>
      </trkpt>
      <trkpt lat="42.66116" lon="0.651716">
        <ele>2598.6</ele>
        <time>1970-01-01T01:17:24.000Z</time>
      </trkpt>
      <trkpt lat="42.66116" lon="0.651714">
        <ele>2598.6</ele>
        <time>1970-01-01T01:17:25.000Z</time>
      </trkpt>
      <trkpt lat="42.661159" lon="0.651712">
        <ele>2597.2</ele>
        <time>1970-01-01T01:17:26.000Z</time>
      </trkpt>
      <trkpt lat="42.661159" lon="0.65171">
        <ele>2597.2</ele>
        <time>1970-01-01T01:17:27.000Z</time>
      </trkpt>
      <trkpt lat="42.661158" lon="0.651708">
        <ele>2597.2</ele>
        <time>1970-01-01T01:17:28.000Z</time>
      </trkpt>
      <trkpt lat="42.661157" lon="0.651706">
        <ele>2597.2</ele>
        <time>1970-01-01T01:17:29.000Z</time>
      </trkpt>
      <trkpt lat="42.661157" lon="0.651706">
        <ele>2597.2</ele>
        <time>1970-01-01T01:17:30.000Z</time>
      </trkpt>
      <trkpt lat="42.661157" lon="0.651706">
        <ele>2597.2</ele>
        <time>1970-01-01T01:17:31.000Z</time>
      </trkpt>
      <trkpt lat="42.661156" lon="0.651707">
        <ele>2597.2</ele>
        <time>1970-01-01T01:17:32.000Z</time>
      </trkpt>
      <trkpt lat="42.661156" lon="0.651708">
        <ele>2597.2</ele>
        <time>1970-01-01T01:17:33.000Z</time>
      </trkpt>
      <trkpt lat="42.661156" lon="0.651709">
        <ele>2597.2</ele>
        <time>1970-01-01T01:17:34.000Z</time>
      </trkpt>
      <trkpt lat="42.661156" lon="0.65171">
        <ele>2597.2</ele>
        <time>1970-01-01T01:17:35.000Z</time>
      </trkpt>
      <trkpt lat="42.661155" lon="0.65171">
        <ele>2597.2</ele>
        <time>1970-01-01T01:17:36.000Z</time>
      </trkpt>
      <trkpt lat="42.661155" lon="0.651711">
        <ele>2597.2</ele>
        <time>1970-01-01T01:17:37.000Z</time>
      </trkpt>
      <trkpt lat="42.661154" lon="0.651711">
        <ele>2597.2</ele>
        <time>1970-01-01T01:17:38.000Z</time>
      </trkpt>
      <trkpt lat="42.661154" lon="0.651711">
        <ele>2597.2</ele>
        <time>1970-01-01T01:17:39.000Z</time>
      </trkpt>
      <trkpt lat="42.661154" lon="0.651711">
        <ele>2597.2</ele>
        <time>1970-01-01T01:17:40.000Z</time>
      </trkpt>
      <trkpt lat="42.661154" lon="0.651712">
        <ele>2597.2</ele>
        <time>1970-01-01T01:17:41.000Z</time>
      </trkpt>
      <trkpt lat="42.661153" lon="0.651713">
        <ele>2598.6</ele>
        <time>1970-01-01T01:17:42.000Z</time>
      </trkpt>
      <trkpt lat="42.661153" lon="0.651714">
        <ele>2598.6</ele>
        <time>1970-01-01T01:17:43.000Z</time>
      </trkpt>
      <trkpt lat="42.661153" lon="0.651714">
        <ele>2598.6</ele>
        <time>1970-01-01T01:17:44.000Z</time>
      </trkpt>
      <trkpt lat="42.661152" lon="0.651714">
        <ele>2598.6</ele>
        <time>1970-01-01T01:17:45.000Z</time>
      </trkpt>
      <trkpt lat="42.661151" lon="0.651714">
        <ele>2598.6</ele>
        <time>1970-01-01T01:17:46.000Z</time>
      </trkpt>
      <trkpt lat="42.66115" lon="0.651716">
        <ele>2598.6</ele>
        <time>1970-01-01T01:17:47.000Z</time>
      </trkpt>
      <trkpt lat="42.661149" lon="0.651717">
        <ele>2598.6</ele>
        <time>1970-01-01T01:17:48.000Z</time>
      </trkpt>
      <trkpt lat="42.661149" lon="0.651718">
        <ele>2598.6</ele>
        <time>1970-01-01T01:17:49.000Z</time>
      </trkpt>
      <trkpt lat="42.661148" lon="0.651718">
        <ele>2598.6</ele>
        <time>1970-01-01T01:17:50.000Z</time>
      </trkpt>
      <trkpt lat="42.661148" lon="0.651719">
        <ele>2598.6</ele>
        <time>1970-01-01T01:17:51.000Z</time>
      </trkpt>
      <trkpt lat="42.661148" lon="0.651719">
        <ele>2598.6</ele>
        <time>1970-01-01T01:17:52.000Z</time>
      </trkpt>
      <trkpt lat="42.661146" lon="0.651718">
        <ele>2598.6</ele>
        <time>1970-01-01T01:17:53.000Z</time>
      </trkpt>
      <trkpt lat="42.661144" lon="0.651717">
        <ele>2598.6</ele>
        <time>1970-01-01T01:17:54.000Z</time>
      </trkpt>
      <trkpt lat="42.661142" lon="0.651717">
        <ele>2598.6</ele>
        <time>1970-01-01T01:17:55.000Z</time>
      </trkpt>
      <trkpt lat="42.661141" lon="0.651716">
        <ele>2598.6</ele>
        <time>1970-01-01T01:17:56.000Z</time>
      </trkpt>
      <trkpt lat="42.661141" lon="0.651717">
        <ele>2598.6</ele>
        <time>1970-01-01T01:17:57.000Z</time>
      </trkpt>
      <trkpt lat="42.661142" lon="0.651715">
        <ele>2598.6</ele>
        <time>1970-01-01T01:17:58.000Z</time>
      </trkpt>
      <trkpt lat="42.661141" lon="0.651714">
        <ele>2598.6</ele>
        <time>1970-01-01T01:17:59.000Z</time>
      </trkpt>
      <trkpt lat="42.661141" lon="0.651713">
        <ele>2598.6</ele>
        <time>1970-01-01T01:18:00.000Z</time>
      </trkpt>
      <trkpt lat="42.66114" lon="0.651713">
        <ele>2598.6</ele>
        <time>1970-01-01T01:18:01.000Z</time>
      </trkpt>
      <trkpt lat="42.66114" lon="0.651712">
        <ele>2597.2</ele>
        <time>1970-01-01T01:18:02.000Z</time>
      </trkpt>
      <trkpt lat="42.661141" lon="0.651711">
        <ele>2597.2</ele>
        <time>1970-01-01T01:18:03.000Z</time>
      </trkpt>
      <trkpt lat="42.661142" lon="0.65171">
        <ele>2597.2</ele>
        <time>1970-01-01T01:18:04.000Z</time>
      </trkpt>
      <trkpt lat="42.661142" lon="0.651712">
        <ele>2597.2</ele>
        <time>1970-01-01T01:18:05.000Z</time>
      </trkpt>
      <trkpt lat="42.661143" lon="0.651714">
        <ele>2598.6</ele>
        <time>1970-01-01T01:18:06.000Z</time>
      </trkpt>
      <trkpt lat="42.661142" lon="0.651714">
        <ele>2598.6</ele>
        <time>1970-01-01T01:18:07.000Z</time>
      </trkpt>
      <trkpt lat="42.661142" lon="0.651714">
        <ele>2598.6</ele>
        <time>1970-01-01T01:18:08.000Z</time>
      </trkpt>
      <trkpt lat="42.661143" lon="0.651715">
        <ele>2598.6</ele>
        <time>1970-01-01T01:18:09.000Z</time>
      </trkpt>
      <trkpt lat="42.661143" lon="0.651714">
        <ele>2598.6</ele>
        <time>1970-01-01T01:18:10.000Z</time>
      </trkpt>
      <trkpt lat="42.661143" lon="0.651714">
        <ele>2598.6</ele>
        <time>1970-01-01T01:18:11.000Z</time>
      </trkpt>
      <trkpt lat="42.661143" lon="0.651714">
        <ele>2598.6</ele>
        <time>1970-01-01T01:18:12.000Z</time>
      </trkpt>
      <trkpt lat="42.661143" lon="0.651714">
        <ele>2598.6</ele>
        <time>1970-01-01T01:18:13.000Z</time>
      </trkpt>
      <trkpt lat="42.661144" lon="0.651714">
        <ele>2598.6</ele>
        <time>1970-01-01T01:18:14.000Z</time>
      </trkpt>
      <trkpt lat="42.661144" lon="0.651715">
        <ele>2598.6</ele>
        <time>1970-01-01T01:18:15.000Z</time>
      </trkpt>
      <trkpt lat="42.661144" lon="0.651715">
        <ele>2598.6</ele>
        <time>1970-01-01T01:18:16.000Z</time>
      </trkpt>
      <trkpt lat="42.661144" lon="0.651715">
        <ele>2598.6</ele>
        <time>1970-01-01T01:18:17.000Z</time>
      </trkpt>
      <trkpt lat="42.661144" lon="0.651715">
        <ele>2598.6</ele>
        <time>1970-01-01T01:18:18.000Z</time>
      </trkpt>
      <trkpt lat="42.661144" lon="0.651715">
        <ele>2598.6</ele>
        <time>1970-01-01T01:18:19.000Z</time>
      </trkpt>
      <trkpt lat="42.661144" lon="0.651715">
        <ele>2598.6</ele>
        <time>1970-01-01T01:18:20.000Z</time>
      </trkpt>
      <trkpt lat="42.661143" lon="0.651715">
        <ele>2598.6</ele>
        <time>1970-01-01T01:18:21.000Z</time>
      </trkpt>
      <trkpt lat="42.661143" lon="0.651715">
        <ele>2598.6</ele>
        <time>1970-01-01T01:18:22.000Z</time>
      </trkpt>
      <trkpt lat="42.661143" lon="0.651716">
        <ele>2598.6</ele>
        <time>1970-01-01T01:18:23.000Z</time>
      </trkpt>
      <trkpt lat="42.661143" lon="0.651716">
        <ele>2598.6</ele>
        <time>1970-01-01T01:18:24.000Z</time>
      </trkpt>
      <trkpt lat="42.661143" lon="0.651716">
        <ele>2598.6</ele>
        <time>1970-01-01T01:18:25.000Z</time>
      </trkpt>
      <trkpt lat="42.661144" lon="0.651716">
        <ele>2598.6</ele>
        <time>1970-01-01T01:18:26.000Z</time>
      </trkpt>
      <trkpt lat="42.661144" lon="0.651716">
        <ele>2598.6</ele>
        <time>1970-01-01T01:18:27.000Z</time>
      </trkpt>
      <trkpt lat="42.661144" lon="0.651716">
        <ele>2598.6</ele>
        <time>1970-01-01T01:18:28.000Z</time>
      </trkpt>
      <trkpt lat="42.661144" lon="0.651717">
        <ele>2598.6</ele>
        <time>1970-01-01T01:18:29.000Z</time>
      </trkpt>
      <trkpt lat="42.661144" lon="0.651717">
        <ele>2598.6</ele>
        <time>1970-01-01T01:18:30.000Z</time>
      </trkpt>
      <trkpt lat="42.661144" lon="0.651716">
        <ele>2598.6</ele>
        <time>1970-01-01T01:18:31.000Z</time>
      </trkpt>
      <trkpt lat="42.661143" lon="0.651716">
        <ele>2598.6</ele>
        <time>1970-01-01T01:18:32.000Z</time>
      </trkpt>
      <trkpt lat="42.661142" lon="0.651716">
        <ele>2598.6</ele>
        <time>1970-01-01T01:18:33.000Z</time>
      </trkpt>
      <trkpt lat="42.661142" lon="0.651715">
        <ele>2598.6</ele>
        <time>1970-01-01T01:18:34.000Z</time>
      </trkpt>
      <trkpt lat="42.661142" lon="0.651715">
        <ele>2598.6</ele>
        <time>1970-01-01T01:18:35.000Z</time>
      </trkpt>
      <trkpt lat="42.661142" lon="0.651715">
        <ele>2598.6</ele>
        <time>1970-01-01T01:18:36.000Z</time>
      </trkpt>
      <trkpt lat="42.661142" lon="0.651715">
        <ele>2598.6</ele>
        <time>1970-01-01T01:18:37.000Z</time>
      </trkpt>
      <trkpt lat="42.661142" lon="0.651715">
        <ele>2598.6</ele>
        <time>1970-01-01T01:18:38.000Z</time>
      </trkpt>
      <trkpt lat="42.661142" lon="0.651715">
        <ele>2598.6</ele>
        <time>1970-01-01T01:18:39.000Z</time>
      </trkpt>
      <trkpt lat="42.661142" lon="0.651715">
        <ele>2598.6</ele>
        <time>1970-01-01T01:18:40.000Z</time>
      </trkpt>
      <trkpt lat="42.661142" lon="0.651715">
        <ele>2598.6</ele>
        <time>1970-01-01T01:18:41.000Z</time>
      </trkpt>
      <trkpt lat="42.661142" lon="0.651715">
        <ele>2598.6</ele>
        <time>1970-01-01T01:18:42.000Z</time>
      </trkpt>
      <trkpt lat="42.661142" lon="0.651715">
        <ele>2598.6</ele>
        <time>1970-01-01T01:18:43.000Z</time>
      </trkpt>
      <trkpt lat="42.661142" lon="0.651715">
        <ele>2598.6</ele>
        <time>1970-01-01T01:18:44.000Z</time>
      </trkpt>
      <trkpt lat="42.661142" lon="0.651715">
        <ele>2598.6</ele>
        <time>1970-01-01T01:18:45.000Z</time>
      </trkpt>
      <trkpt lat="42.661142" lon="0.651715">
        <ele>2598.6</ele>
        <time>1970-01-01T01:18:46.000Z</time>
      </trkpt>
      <trkpt lat="42.661142" lon="0.651715">
        <ele>2598.6</ele>
        <time>1970-01-01T01:18:47.000Z</time>
      </trkpt>
      <trkpt lat="42.661142" lon="0.651715">
        <ele>2598.6</ele>
        <time>1970-01-01T01:18:48.000Z</time>
      </trkpt>
      <trkpt lat="42.661142" lon="0.651715">
        <ele>2598.6</ele>
        <time>1970-01-01T01:18:49.000Z</time>
      </trkpt>
      <trkpt lat="42.661142" lon="0.651715">
        <ele>2598.6</ele>
        <time>1970-01-01T01:18:50.000Z</time>
      </trkpt>
      <trkpt lat="42.661142" lon="0.651715">
        <ele>2598.6</ele>
        <time>1970-01-01T01:18:51.000Z</time>
      </trkpt>
      <trkpt lat="42.661142" lon="0.651715">
        <ele>2598.6</ele>
        <time>1970-01-01T01:18:52.000Z</time>
      </trkpt>
      <trkpt lat="42.661141" lon="0.651715">
        <ele>2598.6</ele>
        <time>1970-01-01T01:18:53.000Z</time>
      </trkpt>
      <trkpt lat="42.661141" lon="0.651715">
        <ele>2598.6</ele>
        <time>1970-01-01T01:18:54.000Z</time>
      </trkpt>
      <trkpt lat="42.661141" lon="0.651715">
        <ele>2598.6</ele>
        <time>1970-01-01T01:18:55.000Z</time>
      </trkpt>
      <trkpt lat="42.661141" lon="0.651715">
        <ele>2598.6</ele>
        <time>1970-01-01T01:18:56.000Z</time>
      </trkpt>
      <trkpt lat="42.661141" lon="0.651715">
        <ele>2598.6</ele>
        <time>1970-01-01T01:18:57.000Z</time>
      </trkpt>
      <trkpt lat="42.661141" lon="0.651715">
        <ele>2598.6</ele>
        <time>1970-01-01T01:18:58.000Z</time>
      </trkpt>
      <trkpt lat="42.661141" lon="0.651715">
        <ele>2598.6</ele>
        <time>1970-01-01T01:18:59.000Z</time>
      </trkpt>
      <trkpt lat="42.661141" lon="0.651715">
        <ele>2598.6</ele>
        <time>1970-01-01T01:19:00.000Z</time>
      </trkpt>
      <trkpt lat="42.66114" lon="0.651715">
        <ele>2598.6</ele>
        <time>1970-01-01T01:19:01.000Z</time>
      </trkpt>
      <trkpt lat="42.661138" lon="0.651714">
        <ele>2598.6</ele>
        <time>1970-01-01T01:19:02.000Z</time>
      </trkpt>
      <trkpt lat="42.661138" lon="0.651716">
        <ele>2598.6</ele>
        <time>1970-01-01T01:19:03.000Z</time>
      </trkpt>
      <trkpt lat="42.661137" lon="0.651716">
        <ele>2598.6</ele>
        <time>1970-01-01T01:19:04.000Z</time>
      </trkpt>
      <trkpt lat="42.661135" lon="0.651716">
        <ele>2600.1</ele>
        <time>1970-01-01T01:19:05.000Z</time>
      </trkpt>
      <trkpt lat="42.661133" lon="0.651716">
        <ele>2600.1</ele>
        <time>1970-01-01T01:19:06.000Z</time>
      </trkpt>
      <trkpt lat="42.661128" lon="0.651714">
        <ele>2600.1</ele>
        <time>1970-01-01T01:19:07.000Z</time>
      </trkpt>
      <trkpt lat="42.661125" lon="0.651711">
        <ele>2598.7</ele>
        <time>1970-01-01T01:19:09.000Z</time>
      </trkpt>
      <trkpt lat="42.661122" lon="0.651708">
        <ele>2598.7</ele>
        <time>1970-01-01T01:19:10.000Z</time>
      </trkpt>
      <trkpt lat="42.661119" lon="0.651705">
        <ele>2598.7</ele>
        <time>1970-01-01T01:19:11.000Z</time>
      </trkpt>
      <trkpt lat="42.661117" lon="0.6517">
        <ele>2598.7</ele>
        <time>1970-01-01T01:19:12.000Z</time>
      </trkpt>
      <trkpt lat="42.661115" lon="0.651698">
        <ele>2598.7</ele>
        <time>1970-01-01T01:19:13.000Z</time>
      </trkpt>
      <trkpt lat="42.661114" lon="0.651697">
        <ele>2598.7</ele>
        <time>1970-01-01T01:19:14.000Z</time>
      </trkpt>
      <trkpt lat="42.661113" lon="0.651696">
        <ele>2598.7</ele>
        <time>1970-01-01T01:19:15.000Z</time>
      </trkpt>
      <trkpt lat="42.661111" lon="0.651695">
        <ele>2598.7</ele>
        <time>1970-01-01T01:19:16.000Z</time>
      </trkpt>
      <trkpt lat="42.66111" lon="0.651695">
        <ele>2598.7</ele>
        <time>1970-01-01T01:19:17.000Z</time>
      </trkpt>
      <trkpt lat="42.661107" lon="0.651694">
        <ele>2598.7</ele>
        <time>1970-01-01T01:19:18.000Z</time>
      </trkpt>
      <trkpt lat="42.661105" lon="0.651692">
        <ele>2600.2</ele>
        <time>1970-01-01T01:19:20.000Z</time>
      </trkpt>
      <trkpt lat="42.661103" lon="0.65169">
        <ele>2600.2</ele>
        <time>1970-01-01T01:19:21.000Z</time>
      </trkpt>
      <trkpt lat="42.6611" lon="0.651687">
        <ele>2600.2</ele>
        <time>1970-01-01T01:19:22.000Z</time>
      </trkpt>
      <trkpt lat="42.661097" lon="0.651679">
        <ele>2600.2</ele>
        <time>1970-01-01T01:19:24.000Z</time>
      </trkpt>
      <trkpt lat="42.661094" lon="0.651673">
        <ele>2600.2</ele>
        <time>1970-01-01T01:19:25.000Z</time>
      </trkpt>
      <trkpt lat="42.661091" lon="0.651667">
        <ele>2598.9</ele>
        <time>1970-01-01T01:19:26.000Z</time>
      </trkpt>
      <trkpt lat="42.661088" lon="0.651661">
        <ele>2598.9</ele>
        <time>1970-01-01T01:19:27.000Z</time>
      </trkpt>
      <trkpt lat="42.661083" lon="0.651653">
        <ele>2598.9</ele>
        <time>1970-01-01T01:19:29.000Z</time>
      </trkpt>
      <trkpt lat="42.661079" lon="0.651647">
        <ele>2598.9</ele>
        <time>1970-01-01T01:19:30.000Z</time>
      </trkpt>
      <trkpt lat="42.661077" lon="0.651644">
        <ele>2598.9</ele>
        <time>1970-01-01T01:19:31.000Z</time>
      </trkpt>
      <trkpt lat="42.661073" lon="0.651635">
        <ele>2600.4</ele>
        <time>1970-01-01T01:19:32.000Z</time>
      </trkpt>
      <trkpt lat="42.661071" lon="0.651631">
        <ele>2600.4</ele>
        <time>1970-01-01T01:19:33.000Z</time>
      </trkpt>
      <trkpt lat="42.66107" lon="0.651627">
        <ele>2600.4</ele>
        <time>1970-01-01T01:19:34.000Z</time>
      </trkpt>
      <trkpt lat="42.661069" lon="0.651626">
        <ele>2599</ele>
        <time>1970-01-01T01:19:35.000Z</time>
      </trkpt>
      <trkpt lat="42.661068" lon="0.651624">
        <ele>2599</ele>
        <time>1970-01-01T01:19:36.000Z</time>
      </trkpt>
      <trkpt lat="42.661068" lon="0.651621">
        <ele>2599</ele>
        <time>1970-01-01T01:19:37.000Z</time>
      </trkpt>
      <trkpt lat="42.661067" lon="0.651618">
        <ele>2599</ele>
        <time>1970-01-01T01:19:38.000Z</time>
      </trkpt>
      <trkpt lat="42.661066" lon="0.651614">
        <ele>2599</ele>
        <time>1970-01-01T01:19:39.000Z</time>
      </trkpt>
      <trkpt lat="42.661062" lon="0.651608">
        <ele>2599</ele>
        <time>1970-01-01T01:19:40.000Z</time>
      </trkpt>
      <trkpt lat="42.661056" lon="0.651599">
        <ele>2599</ele>
        <time>1970-01-01T01:19:42.000Z</time>
      </trkpt>
      <trkpt lat="42.661048" lon="0.651588">
        <ele>2599</ele>
        <time>1970-01-01T01:19:43.000Z</time>
      </trkpt>
      <trkpt lat="42.661044" lon="0.651584">
        <ele>2599</ele>
        <time>1970-01-01T01:19:44.000Z</time>
      </trkpt>
      <trkpt lat="42.661041" lon="0.651584">
        <ele>2600.4</ele>
        <time>1970-01-01T01:19:45.000Z</time>
      </trkpt>
      <trkpt lat="42.66104" lon="0.651584">
        <ele>2600.4</ele>
        <time>1970-01-01T01:19:46.000Z</time>
      </trkpt>
      <trkpt lat="42.66104" lon="0.651585">
        <ele>2600.4</ele>
        <time>1970-01-01T01:19:47.000Z</time>
      </trkpt>
      <trkpt lat="42.66104" lon="0.651586">
        <ele>2600.4</ele>
        <time>1970-01-01T01:19:48.000Z</time>
      </trkpt>
      <trkpt lat="42.661039" lon="0.651585">
        <ele>2600.4</ele>
        <time>1970-01-01T01:19:49.000Z</time>
      </trkpt>
      <trkpt lat="42.661037" lon="0.651582">
        <ele>2599.1</ele>
        <time>1970-01-01T01:19:50.000Z</time>
      </trkpt>
      <trkpt lat="42.661035" lon="0.651577">
        <ele>2599.1</ele>
        <time>1970-01-01T01:19:52.000Z</time>
      </trkpt>
      <trkpt lat="42.661033" lon="0.651572">
        <ele>2599.1</ele>
        <time>1970-01-01T01:19:53.000Z</time>
      </trkpt>
      <trkpt lat="42.66103" lon="0.651567">
        <ele>2599.1</ele>
        <time>1970-01-01T01:19:54.000Z</time>
      </trkpt>
      <trkpt lat="42.661027" lon="0.65156">
        <ele>2599.1</ele>
        <time>1970-01-01T01:19:55.000Z</time>
      </trkpt>
      <trkpt lat="42.661025" lon="0.651556">
        <ele>2599.1</ele>
        <time>1970-01-01T01:19:56.000Z</time>
      </trkpt>
      <trkpt lat="42.661023" lon="0.651552">
        <ele>2599.1</ele>
        <time>1970-01-01T01:19:57.000Z</time>
      </trkpt>
      <trkpt lat="42.661021" lon="0.651547">
        <ele>2599.1</ele>
        <time>1970-01-01T01:19:58.000Z</time>
      </trkpt>
      <trkpt lat="42.661018" lon="0.651544">
        <ele>2599.1</ele>
        <time>1970-01-01T01:19:59.000Z</time>
      </trkpt>
      <trkpt lat="42.661016" lon="0.651542">
        <ele>2599.1</ele>
        <time>1970-01-01T01:20:00.000Z</time>
      </trkpt>
      <trkpt lat="42.661014" lon="0.651541">
        <ele>2599.1</ele>
        <time>1970-01-01T01:20:01.000Z</time>
      </trkpt>
      <trkpt lat="42.66101" lon="0.651539">
        <ele>2599.1</ele>
        <time>1970-01-01T01:20:02.000Z</time>
      </trkpt>
      <trkpt lat="42.661005" lon="0.651538">
        <ele>2599.1</ele>
        <time>1970-01-01T01:20:03.000Z</time>
      </trkpt>
      <trkpt lat="42.661003" lon="0.651538">
        <ele>2599.1</ele>
        <time>1970-01-01T01:20:04.000Z</time>
      </trkpt>
      <trkpt lat="42.661" lon="0.651538">
        <ele>2599.1</ele>
        <time>1970-01-01T01:20:05.000Z</time>
      </trkpt>
      <trkpt lat="42.660998" lon="0.651537">
        <ele>2599.1</ele>
        <time>1970-01-01T01:20:06.000Z</time>
      </trkpt>
      <trkpt lat="42.660996" lon="0.651535">
        <ele>2599.1</ele>
        <time>1970-01-01T01:20:07.000Z</time>
      </trkpt>
      <trkpt lat="42.660993" lon="0.651532">
        <ele>2599.1</ele>
        <time>1970-01-01T01:20:08.000Z</time>
      </trkpt>
      <trkpt lat="42.66099" lon="0.65153">
        <ele>2599.1</ele>
        <time>1970-01-01T01:20:09.000Z</time>
      </trkpt>
      <trkpt lat="42.660987" lon="0.651527">
        <ele>2599.1</ele>
        <time>1970-01-01T01:20:10.000Z</time>
      </trkpt>
      <trkpt lat="42.660984" lon="0.651522">
        <ele>2599.1</ele>
        <time>1970-01-01T01:20:11.000Z</time>
      </trkpt>
      <trkpt lat="42.660982" lon="0.651519">
        <ele>2599.1</ele>
        <time>1970-01-01T01:20:12.000Z</time>
      </trkpt>
      <trkpt lat="42.660978" lon="0.651516">
        <ele>2600.3</ele>
        <time>1970-01-01T01:20:13.000Z</time>
      </trkpt>
      <trkpt lat="42.660971" lon="0.65151">
        <ele>2600.3</ele>
        <time>1970-01-01T01:20:14.000Z</time>
      </trkpt>
      <trkpt lat="42.660967" lon="0.651506">
        <ele>2600.3</ele>
        <time>1970-01-01T01:20:15.000Z</time>
      </trkpt>
      <trkpt lat="42.660962" lon="0.651502">
        <ele>2600.3</ele>
        <time>1970-01-01T01:20:17.000Z</time>
      </trkpt>
      <trkpt lat="42.660958" lon="0.651499">
        <ele>2600.3</ele>
        <time>1970-01-01T01:20:18.000Z</time>
      </trkpt>
      <trkpt lat="42.660952" lon="0.651497">
        <ele>2599.1</ele>
        <time>1970-01-01T01:20:20.000Z</time>
      </trkpt>
      <trkpt lat="42.660948" lon="0.651495">
        <ele>2599.1</ele>
        <time>1970-01-01T01:20:21.000Z</time>
      </trkpt>
      <trkpt lat="42.660945" lon="0.651493">
        <ele>2600.3</ele>
        <time>1970-01-01T01:20:22.000Z</time>
      </trkpt>
      <trkpt lat="42.660943" lon="0.651488">
        <ele>2600.3</ele>
        <time>1970-01-01T01:20:24.000Z</time>
      </trkpt>
      <trkpt lat="42.660941" lon="0.651483">
        <ele>2600.3</ele>
        <time>1970-01-01T01:20:25.000Z</time>
      </trkpt>
      <trkpt lat="42.66094" lon="0.651479">
        <ele>2600.3</ele>
        <time>1970-01-01T01:20:26.000Z</time>
      </trkpt>
      <trkpt lat="42.660939" lon="0.651472">
        <ele>2600.3</ele>
        <time>1970-01-01T01:20:27.000Z</time>
      </trkpt>
      <trkpt lat="42.660939" lon="0.651467">
        <ele>2600.3</ele>
        <time>1970-01-01T01:20:28.000Z</time>
      </trkpt>
      <trkpt lat="42.660936" lon="0.65146">
        <ele>2600.3</ele>
        <time>1970-01-01T01:20:30.000Z</time>
      </trkpt>
      <trkpt lat="42.660932" lon="0.651452">
        <ele>2599.2</ele>
        <time>1970-01-01T01:20:31.000Z</time>
      </trkpt>
      <trkpt lat="42.660931" lon="0.651446">
        <ele>2599.2</ele>
        <time>1970-01-01T01:20:32.000Z</time>
      </trkpt>
      <trkpt lat="42.660928" lon="0.651439">
        <ele>2599.2</ele>
        <time>1970-01-01T01:20:33.000Z</time>
      </trkpt>
      <trkpt lat="42.660924" lon="0.651432">
        <ele>2599.2</ele>
        <time>1970-01-01T01:20:34.000Z</time>
      </trkpt>
      <trkpt lat="42.660919" lon="0.651427">
        <ele>2599.2</ele>
        <time>1970-01-01T01:20:35.000Z</time>
      </trkpt>
      <trkpt lat="42.660914" lon="0.65142">
        <ele>2600.6</ele>
        <time>1970-01-01T01:20:36.000Z</time>
      </trkpt>
      <trkpt lat="42.66091" lon="0.651409">
        <ele>2599.4</ele>
        <time>1970-01-01T01:20:38.000Z</time>
      </trkpt>
      <trkpt lat="42.660907" lon="0.651404">
        <ele>2599.4</ele>
        <time>1970-01-01T01:20:39.000Z</time>
      </trkpt>
      <trkpt lat="42.660905" lon="0.651398">
        <ele>2599.4</ele>
        <time>1970-01-01T01:20:40.000Z</time>
      </trkpt>
      <trkpt lat="42.660904" lon="0.651394">
        <ele>2599.4</ele>
        <time>1970-01-01T01:20:41.000Z</time>
      </trkpt>
      <trkpt lat="42.660904" lon="0.651393">
        <ele>2599.4</ele>
        <time>1970-01-01T01:20:42.000Z</time>
      </trkpt>
      <trkpt lat="42.660905" lon="0.651391">
        <ele>2599.4</ele>
        <time>1970-01-01T01:20:43.000Z</time>
      </trkpt>
      <trkpt lat="42.660904" lon="0.651391">
        <ele>2599.4</ele>
        <time>1970-01-01T01:20:44.000Z</time>
      </trkpt>
      <trkpt lat="42.660903" lon="0.65139">
        <ele>2599.4</ele>
        <time>1970-01-01T01:20:45.000Z</time>
      </trkpt>
      <trkpt lat="42.6609" lon="0.651387">
        <ele>2599.4</ele>
        <time>1970-01-01T01:20:46.000Z</time>
      </trkpt>
      <trkpt lat="42.660897" lon="0.651383">
        <ele>2599.4</ele>
        <time>1970-01-01T01:20:47.000Z</time>
      </trkpt>
      <trkpt lat="42.660889" lon="0.651378">
        <ele>2599.4</ele>
        <time>1970-01-01T01:20:49.000Z</time>
      </trkpt>
      <trkpt lat="42.660881" lon="0.65138">
        <ele>2601</ele>
        <time>1970-01-01T01:20:50.000Z</time>
      </trkpt>
      <trkpt lat="42.660877" lon="0.651382">
        <ele>2601</ele>
        <time>1970-01-01T01:20:51.000Z</time>
      </trkpt>
      <trkpt lat="42.660872" lon="0.651386">
        <ele>2601</ele>
        <time>1970-01-01T01:20:52.000Z</time>
      </trkpt>
      <trkpt lat="42.660866" lon="0.651391">
        <ele>2601</ele>
        <time>1970-01-01T01:20:53.000Z</time>
      </trkpt>
      <trkpt lat="42.660862" lon="0.651396">
        <ele>2601</ele>
        <time>1970-01-01T01:20:54.000Z</time>
      </trkpt>
      <trkpt lat="42.660858" lon="0.651401">
        <ele>2601</ele>
        <time>1970-01-01T01:20:55.000Z</time>
      </trkpt>
      <trkpt lat="42.660856" lon="0.651407">
        <ele>2601</ele>
        <time>1970-01-01T01:20:56.000Z</time>
      </trkpt>
      <trkpt lat="42.660853" lon="0.651411">
        <ele>2601</ele>
        <time>1970-01-01T01:20:57.000Z</time>
      </trkpt>
      <trkpt lat="42.66085" lon="0.651413">
        <ele>2603.6</ele>
        <time>1970-01-01T01:20:58.000Z</time>
      </trkpt>
      <trkpt lat="42.660848" lon="0.651413">
        <ele>2603.6</ele>
        <time>1970-01-01T01:20:59.000Z</time>
      </trkpt>
      <trkpt lat="42.660845" lon="0.651411">
        <ele>2602.5</ele>
        <time>1970-01-01T01:21:00.000Z</time>
      </trkpt>
      <trkpt lat="42.660843" lon="0.651406">
        <ele>2602.5</ele>
        <time>1970-01-01T01:21:01.000Z</time>
      </trkpt>
      <trkpt lat="42.660839" lon="0.651402">
        <ele>2602.5</ele>
        <time>1970-01-01T01:21:02.000Z</time>
      </trkpt>
      <trkpt lat="42.660833" lon="0.651404">
        <ele>2602.5</ele>
        <time>1970-01-01T01:21:03.000Z</time>
      </trkpt>
      <trkpt lat="42.660826" lon="0.651414">
        <ele>2603.6</ele>
        <time>1970-01-01T01:21:05.000Z</time>
      </trkpt>
      <trkpt lat="42.660822" lon="0.651423">
        <ele>2603.6</ele>
        <time>1970-01-01T01:21:06.000Z</time>
      </trkpt>
      <trkpt lat="42.660819" lon="0.651428">
        <ele>2605.2</ele>
        <time>1970-01-01T01:21:07.000Z</time>
      </trkpt>
      <trkpt lat="42.66081" lon="0.651428">
        <ele>2605.2</ele>
        <time>1970-01-01T01:21:09.000Z</time>
      </trkpt>
      <trkpt lat="42.660803" lon="0.651423">
        <ele>2605.2</ele>
        <time>1970-01-01T01:21:10.000Z</time>
      </trkpt>
      <trkpt lat="42.660798" lon="0.651419">
        <ele>2605.2</ele>
        <time>1970-01-01T01:21:11.000Z</time>
      </trkpt>
      <trkpt lat="42.660794" lon="0.651415">
        <ele>2605.2</ele>
        <time>1970-01-01T01:21:12.000Z</time>
      </trkpt>
      <trkpt lat="42.66079" lon="0.651412">
        <ele>2604.1</ele>
        <time>1970-01-01T01:21:13.000Z</time>
      </trkpt>
      <trkpt lat="42.660784" lon="0.651408">
        <ele>2605.5</ele>
        <time>1970-01-01T01:21:14.000Z</time>
      </trkpt>
      <trkpt lat="42.660781" lon="0.651404">
        <ele>2605.5</ele>
        <time>1970-01-01T01:21:15.000Z</time>
      </trkpt>
      <trkpt lat="42.660778" lon="0.651401">
        <ele>2605.5</ele>
        <time>1970-01-01T01:21:16.000Z</time>
      </trkpt>
      <trkpt lat="42.660773" lon="0.651398">
        <ele>2605.5</ele>
        <time>1970-01-01T01:21:17.000Z</time>
      </trkpt>
      <trkpt lat="42.66077" lon="0.651398">
        <ele>2605.5</ele>
        <time>1970-01-01T01:21:18.000Z</time>
      </trkpt>
      <trkpt lat="42.660769" lon="0.651398">
        <ele>2605.5</ele>
        <time>1970-01-01T01:21:19.000Z</time>
      </trkpt>
      <trkpt lat="42.660769" lon="0.651398">
        <ele>2605.5</ele>
        <time>1970-01-01T01:21:20.000Z</time>
      </trkpt>
      <trkpt lat="42.660769" lon="0.651398">
        <ele>2605.5</ele>
        <time>1970-01-01T01:21:21.000Z</time>
      </trkpt>
      <trkpt lat="42.660767" lon="0.651394">
        <ele>2605.5</ele>
        <time>1970-01-01T01:21:23.000Z</time>
      </trkpt>
      <trkpt lat="42.660766" lon="0.651391">
        <ele>2605.5</ele>
        <time>1970-01-01T01:21:24.000Z</time>
      </trkpt>
      <trkpt lat="42.660765" lon="0.65139">
        <ele>2605.5</ele>
        <time>1970-01-01T01:21:25.000Z</time>
      </trkpt>
      <trkpt lat="42.660763" lon="0.651389">
        <ele>2605.5</ele>
        <time>1970-01-01T01:21:26.000Z</time>
      </trkpt>
      <trkpt lat="42.66076" lon="0.651387">
        <ele>2605.5</ele>
        <time>1970-01-01T01:21:27.000Z</time>
      </trkpt>
      <trkpt lat="42.660756" lon="0.651386">
        <ele>2606.7</ele>
        <time>1970-01-01T01:21:28.000Z</time>
      </trkpt>
      <trkpt lat="42.660753" lon="0.651384">
        <ele>2606.7</ele>
        <time>1970-01-01T01:21:29.000Z</time>
      </trkpt>
      <trkpt lat="42.66075" lon="0.651383">
        <ele>2606.7</ele>
        <time>1970-01-01T01:21:30.000Z</time>
      </trkpt>
      <trkpt lat="42.660747" lon="0.651381">
        <ele>2606.7</ele>
        <time>1970-01-01T01:21:31.000Z</time>
      </trkpt>
      <trkpt lat="42.660743" lon="0.651379">
        <ele>2606.7</ele>
        <time>1970-01-01T01:21:32.000Z</time>
      </trkpt>
      <trkpt lat="42.66074" lon="0.651377">
        <ele>2606.7</ele>
        <time>1970-01-01T01:21:33.000Z</time>
      </trkpt>
      <trkpt lat="42.660739" lon="0.651374">
        <ele>2606.7</ele>
        <time>1970-01-01T01:21:34.000Z</time>
      </trkpt>
      <trkpt lat="42.660738" lon="0.651372">
        <ele>2606.7</ele>
        <time>1970-01-01T01:21:35.000Z</time>
      </trkpt>
      <trkpt lat="42.660737" lon="0.651368">
        <ele>2605.7</ele>
        <time>1970-01-01T01:21:36.000Z</time>
      </trkpt>
      <trkpt lat="42.660735" lon="0.651365">
        <ele>2605.7</ele>
        <time>1970-01-01T01:21:37.000Z</time>
      </trkpt>
      <trkpt lat="42.660734" lon="0.651364">
        <ele>2605.7</ele>
        <time>1970-01-01T01:21:38.000Z</time>
      </trkpt>
      <trkpt lat="42.660733" lon="0.651362">
        <ele>2605.7</ele>
        <time>1970-01-01T01:21:39.000Z</time>
      </trkpt>
      <trkpt lat="42.660731" lon="0.65136">
        <ele>2605.7</ele>
        <time>1970-01-01T01:21:40.000Z</time>
      </trkpt>
      <trkpt lat="42.660729" lon="0.651359">
        <ele>2605.7</ele>
        <time>1970-01-01T01:21:41.000Z</time>
      </trkpt>
      <trkpt lat="42.660727" lon="0.65136">
        <ele>2605.7</ele>
        <time>1970-01-01T01:21:42.000Z</time>
      </trkpt>
      <trkpt lat="42.660722" lon="0.651362">
        <ele>2606.9</ele>
        <time>1970-01-01T01:21:44.000Z</time>
      </trkpt>
      <trkpt lat="42.660719" lon="0.651363">
        <ele>2606.9</ele>
        <time>1970-01-01T01:21:45.000Z</time>
      </trkpt>
      <trkpt lat="42.660717" lon="0.651365">
        <ele>2606.9</ele>
        <time>1970-01-01T01:21:46.000Z</time>
      </trkpt>
      <trkpt lat="42.660716" lon="0.651366">
        <ele>2606.9</ele>
        <time>1970-01-01T01:21:47.000Z</time>
      </trkpt>
      <trkpt lat="42.660715" lon="0.651366">
        <ele>2606.9</ele>
        <time>1970-01-01T01:21:48.000Z</time>
      </trkpt>
      <trkpt lat="42.660714" lon="0.651366">
        <ele>2606.9</ele>
        <time>1970-01-01T01:21:49.000Z</time>
      </trkpt>
      <trkpt lat="42.660712" lon="0.651365">
        <ele>2606.9</ele>
        <time>1970-01-01T01:21:50.000Z</time>
      </trkpt>
      <trkpt lat="42.660711" lon="0.651364">
        <ele>2606.9</ele>
        <time>1970-01-01T01:21:51.000Z</time>
      </trkpt>
      <trkpt lat="42.660709" lon="0.651362">
        <ele>2606.9</ele>
        <time>1970-01-01T01:21:52.000Z</time>
      </trkpt>
      <trkpt lat="42.660708" lon="0.651361">
        <ele>2606.9</ele>
        <time>1970-01-01T01:21:53.000Z</time>
      </trkpt>
      <trkpt lat="42.660705" lon="0.65136">
        <ele>2606.9</ele>
        <time>1970-01-01T01:21:54.000Z</time>
      </trkpt>
      <trkpt lat="42.660701" lon="0.651357">
        <ele>2606.9</ele>
        <time>1970-01-01T01:21:56.000Z</time>
      </trkpt>
      <trkpt lat="42.660699" lon="0.651355">
        <ele>2606.9</ele>
        <time>1970-01-01T01:21:57.000Z</time>
      </trkpt>
      <trkpt lat="42.660693" lon="0.651351">
        <ele>2608.1</ele>
        <time>1970-01-01T01:21:58.000Z</time>
      </trkpt>
      <trkpt lat="42.660688" lon="0.651348">
        <ele>2608.1</ele>
        <time>1970-01-01T01:21:59.000Z</time>
      </trkpt>
      <trkpt lat="42.660684" lon="0.651345">
        <ele>2608.1</ele>
        <time>1970-01-01T01:22:00.000Z</time>
      </trkpt>
      <trkpt lat="42.660679" lon="0.651344">
        <ele>2608.1</ele>
        <time>1970-01-01T01:22:01.000Z</time>
      </trkpt>
      <trkpt lat="42.660675" lon="0.651343">
        <ele>2608.1</ele>
        <time>1970-01-01T01:22:02.000Z</time>
      </trkpt>
      <trkpt lat="42.660671" lon="0.651341">
        <ele>2608.1</ele>
        <time>1970-01-01T01:22:04.000Z</time>
      </trkpt>
      <trkpt lat="42.660667" lon="0.651339">
        <ele>2608.1</ele>
        <time>1970-01-01T01:22:05.000Z</time>
      </trkpt>
      <trkpt lat="42.660664" lon="0.651337">
        <ele>2608.1</ele>
        <time>1970-01-01T01:22:06.000Z</time>
      </trkpt>
      <trkpt lat="42.660661" lon="0.651336">
        <ele>2609.3</ele>
        <time>1970-01-01T01:22:07.000Z</time>
      </trkpt>
      <trkpt lat="42.660659" lon="0.651335">
        <ele>2609.3</ele>
        <time>1970-01-01T01:22:08.000Z</time>
      </trkpt>
      <trkpt lat="42.660657" lon="0.651335">
        <ele>2609.3</ele>
        <time>1970-01-01T01:22:09.000Z</time>
      </trkpt>
      <trkpt lat="42.660655" lon="0.651334">
        <ele>2609.3</ele>
        <time>1970-01-01T01:22:10.000Z</time>
      </trkpt>
      <trkpt lat="42.660652" lon="0.651334">
        <ele>2609.3</ele>
        <time>1970-01-01T01:22:11.000Z</time>
      </trkpt>
      <trkpt lat="42.66065" lon="0.651334">
        <ele>2609.3</ele>
        <time>1970-01-01T01:22:12.000Z</time>
      </trkpt>
      <trkpt lat="42.660648" lon="0.651334">
        <ele>2609.3</ele>
        <time>1970-01-01T01:22:13.000Z</time>
      </trkpt>
      <trkpt lat="42.660645" lon="0.651335">
        <ele>2609.3</ele>
        <time>1970-01-01T01:22:14.000Z</time>
      </trkpt>
      <trkpt lat="42.660643" lon="0.651335">
        <ele>2609.3</ele>
        <time>1970-01-01T01:22:15.000Z</time>
      </trkpt>
      <trkpt lat="42.66064" lon="0.651337">
        <ele>2609.3</ele>
        <time>1970-01-01T01:22:16.000Z</time>
      </trkpt>
      <trkpt lat="42.660636" lon="0.651339">
        <ele>2609.3</ele>
        <time>1970-01-01T01:22:18.000Z</time>
      </trkpt>
      <trkpt lat="42.66063" lon="0.651342">
        <ele>2610.7</ele>
        <time>1970-01-01T01:22:19.000Z</time>
      </trkpt>
      <trkpt lat="42.660626" lon="0.651345">
        <ele>2610.7</ele>
        <time>1970-01-01T01:22:21.000Z</time>
      </trkpt>
      <trkpt lat="42.660621" lon="0.651348">
        <ele>2610.7</ele>
        <time>1970-01-01T01:22:22.000Z</time>
      </trkpt>
      <trkpt lat="42.660617" lon="0.651351">
        <ele>2610.7</ele>
        <time>1970-01-01T01:22:23.000Z</time>
      </trkpt>
      <trkpt lat="42.660613" lon="0.651356">
        <ele>2610.7</ele>
        <time>1970-01-01T01:22:24.000Z</time>
      </trkpt>
      <trkpt lat="42.66061" lon="0.651358">
        <ele>2610.7</ele>
        <time>1970-01-01T01:22:25.000Z</time>
      </trkpt>
      <trkpt lat="42.660608" lon="0.65136">
        <ele>2610.7</ele>
        <time>1970-01-01T01:22:26.000Z</time>
      </trkpt>
      <trkpt lat="42.660605" lon="0.651361">
        <ele>2610.7</ele>
        <time>1970-01-01T01:22:27.000Z</time>
      </trkpt>
      <trkpt lat="42.660602" lon="0.651362">
        <ele>2610.7</ele>
        <time>1970-01-01T01:22:28.000Z</time>
      </trkpt>
      <trkpt lat="42.6606" lon="0.651363">
        <ele>2612.1</ele>
        <time>1970-01-01T01:22:29.000Z</time>
      </trkpt>
      <trkpt lat="42.660597" lon="0.651364">
        <ele>2612.1</ele>
        <time>1970-01-01T01:22:30.000Z</time>
      </trkpt>
      <trkpt lat="42.660594" lon="0.651364">
        <ele>2612.1</ele>
        <time>1970-01-01T01:22:31.000Z</time>
      </trkpt>
      <trkpt lat="42.660591" lon="0.651365">
        <ele>2612.1</ele>
        <time>1970-01-01T01:22:32.000Z</time>
      </trkpt>
      <trkpt lat="42.660588" lon="0.651365">
        <ele>2612.1</ele>
        <time>1970-01-01T01:22:33.000Z</time>
      </trkpt>
      <trkpt lat="42.660585" lon="0.651365">
        <ele>2612.1</ele>
        <time>1970-01-01T01:22:34.000Z</time>
      </trkpt>
      <trkpt lat="42.660581" lon="0.651365">
        <ele>2612.1</ele>
        <time>1970-01-01T01:22:35.000Z</time>
      </trkpt>
      <trkpt lat="42.660577" lon="0.651365">
        <ele>2612.1</ele>
        <time>1970-01-01T01:22:36.000Z</time>
      </trkpt>
      <trkpt lat="42.660575" lon="0.651365">
        <ele>2612.1</ele>
        <time>1970-01-01T01:22:37.000Z</time>
      </trkpt>
      <trkpt lat="42.660572" lon="0.651366">
        <ele>2612.1</ele>
        <time>1970-01-01T01:22:38.000Z</time>
      </trkpt>
      <trkpt lat="42.660568" lon="0.651367">
        <ele>2613.4</ele>
        <time>1970-01-01T01:22:39.000Z</time>
      </trkpt>
      <trkpt lat="42.660567" lon="0.651369">
        <ele>2613.4</ele>
        <time>1970-01-01T01:22:40.000Z</time>
      </trkpt>
      <trkpt lat="42.660564" lon="0.65137">
        <ele>2614.4</ele>
        <time>1970-01-01T01:22:42.000Z</time>
      </trkpt>
      <trkpt lat="42.660563" lon="0.65137">
        <ele>2614.4</ele>
        <time>1970-01-01T01:22:43.000Z</time>
      </trkpt>
      <trkpt lat="42.660561" lon="0.65137">
        <ele>2614.4</ele>
        <time>1970-01-01T01:22:44.000Z</time>
      </trkpt>
      <trkpt lat="42.660559" lon="0.65137">
        <ele>2614.4</ele>
        <time>1970-01-01T01:22:45.000Z</time>
      </trkpt>
      <trkpt lat="42.660552" lon="0.651372">
        <ele>2614.4</ele>
        <time>1970-01-01T01:22:47.000Z</time>
      </trkpt>
      <trkpt lat="42.660548" lon="0.651372">
        <ele>2614.4</ele>
        <time>1970-01-01T01:22:49.000Z</time>
      </trkpt>
      <trkpt lat="42.660545" lon="0.651372">
        <ele>2614.4</ele>
        <time>1970-01-01T01:22:50.000Z</time>
      </trkpt>
      <trkpt lat="42.660542" lon="0.651372">
        <ele>2614.4</ele>
        <time>1970-01-01T01:22:51.000Z</time>
      </trkpt>
      <trkpt lat="42.660537" lon="0.651372">
        <ele>2615.8</ele>
        <time>1970-01-01T01:22:52.000Z</time>
      </trkpt>
      <trkpt lat="42.660533" lon="0.651372">
        <ele>2615.8</ele>
        <time>1970-01-01T01:22:53.000Z</time>
      </trkpt>
      <trkpt lat="42.660529" lon="0.651371">
        <ele>2615.8</ele>
        <time>1970-01-01T01:22:54.000Z</time>
      </trkpt>
      <trkpt lat="42.660526" lon="0.65137">
        <ele>2615.8</ele>
        <time>1970-01-01T01:22:55.000Z</time>
      </trkpt>
      <trkpt lat="42.660523" lon="0.651368">
        <ele>2614.8</ele>
        <time>1970-01-01T01:22:56.000Z</time>
      </trkpt>
      <trkpt lat="42.660521" lon="0.651363">
        <ele>2614.8</ele>
        <time>1970-01-01T01:22:58.000Z</time>
      </trkpt>
      <trkpt lat="42.660517" lon="0.651359">
        <ele>2614.8</ele>
        <time>1970-01-01T01:23:00.000Z</time>
      </trkpt>
      <trkpt lat="42.660514" lon="0.651358">
        <ele>2614.8</ele>
        <time>1970-01-01T01:23:02.000Z</time>
      </trkpt>
      <trkpt lat="42.660512" lon="0.651356">
        <ele>2614.8</ele>
        <time>1970-01-01T01:23:03.000Z</time>
      </trkpt>
      <trkpt lat="42.660509" lon="0.651353">
        <ele>2614.8</ele>
        <time>1970-01-01T01:23:04.000Z</time>
      </trkpt>
      <trkpt lat="42.660509" lon="0.651351">
        <ele>2614.8</ele>
        <time>1970-01-01T01:23:05.000Z</time>
      </trkpt>
      <trkpt lat="42.660508" lon="0.651349">
        <ele>2614.8</ele>
        <time>1970-01-01T01:23:06.000Z</time>
      </trkpt>
      <trkpt lat="42.660506" lon="0.651347">
        <ele>2614.8</ele>
        <time>1970-01-01T01:23:07.000Z</time>
      </trkpt>
      <trkpt lat="42.660504" lon="0.651344">
        <ele>2616.1</ele>
        <time>1970-01-01T01:23:08.000Z</time>
      </trkpt>
      <trkpt lat="42.660501" lon="0.651342">
        <ele>2616.1</ele>
        <time>1970-01-01T01:23:09.000Z</time>
      </trkpt>
      <trkpt lat="42.660499" lon="0.65134">
        <ele>2616.1</ele>
        <time>1970-01-01T01:23:10.000Z</time>
      </trkpt>
      <trkpt lat="42.660498" lon="0.651338">
        <ele>2616.1</ele>
        <time>1970-01-01T01:23:11.000Z</time>
      </trkpt>
      <trkpt lat="42.660497" lon="0.651335">
        <ele>2616.1</ele>
        <time>1970-01-01T01:23:12.000Z</time>
      </trkpt>
      <trkpt lat="42.660493" lon="0.651329">
        <ele>2616.1</ele>
        <time>1970-01-01T01:23:14.000Z</time>
      </trkpt>
      <trkpt lat="42.660491" lon="0.651328">
        <ele>2616.1</ele>
        <time>1970-01-01T01:23:15.000Z</time>
      </trkpt>
      <trkpt lat="42.66049" lon="0.651327">
        <ele>2616.1</ele>
        <time>1970-01-01T01:23:16.000Z</time>
      </trkpt>
      <trkpt lat="42.660488" lon="0.651326">
        <ele>2615.2</ele>
        <time>1970-01-01T01:23:17.000Z</time>
      </trkpt>
      <trkpt lat="42.660487" lon="0.651327">
        <ele>2616.1</ele>
        <time>1970-01-01T01:23:18.000Z</time>
      </trkpt>
      <trkpt lat="42.660487" lon="0.651328">
        <ele>2616.1</ele>
        <time>1970-01-01T01:23:19.000Z</time>
      </trkpt>
      <trkpt lat="42.660486" lon="0.651329">
        <ele>2616.1</ele>
        <time>1970-01-01T01:23:20.000Z</time>
      </trkpt>
      <trkpt lat="42.660486" lon="0.651328">
        <ele>2616.1</ele>
        <time>1970-01-01T01:23:21.000Z</time>
      </trkpt>
      <trkpt lat="42.660484" lon="0.651327">
        <ele>2616.1</ele>
        <time>1970-01-01T01:23:22.000Z</time>
      </trkpt>
      <trkpt lat="42.660481" lon="0.651326">
        <ele>2615.2</ele>
        <time>1970-01-01T01:23:24.000Z</time>
      </trkpt>
      <trkpt lat="42.660479" lon="0.651326">
        <ele>2615.2</ele>
        <time>1970-01-01T01:23:25.000Z</time>
      </trkpt>
      <trkpt lat="42.660477" lon="0.651325">
        <ele>2615.2</ele>
        <time>1970-01-01T01:23:26.000Z</time>
      </trkpt>
      <trkpt lat="42.660475" lon="0.651325">
        <ele>2615.2</ele>
        <time>1970-01-01T01:23:27.000Z</time>
      </trkpt>
      <trkpt lat="42.660472" lon="0.651326">
        <ele>2616.5</ele>
        <time>1970-01-01T01:23:29.000Z</time>
      </trkpt>
      <trkpt lat="42.660469" lon="0.651326">
        <ele>2616.5</ele>
        <time>1970-01-01T01:23:30.000Z</time>
      </trkpt>
      <trkpt lat="42.660466" lon="0.651327">
        <ele>2617.4</ele>
        <time>1970-01-01T01:23:31.000Z</time>
      </trkpt>
      <trkpt lat="42.660462" lon="0.651328">
        <ele>2617.4</ele>
        <time>1970-01-01T01:23:32.000Z</time>
      </trkpt>
      <trkpt lat="42.660459" lon="0.651331">
        <ele>2617.4</ele>
        <time>1970-01-01T01:23:33.000Z</time>
      </trkpt>
      <trkpt lat="42.660457" lon="0.651334">
        <ele>2617.4</ele>
        <time>1970-01-01T01:23:34.000Z</time>
      </trkpt>
      <trkpt lat="42.660455" lon="0.651338">
        <ele>2617.4</ele>
        <time>1970-01-01T01:23:35.000Z</time>
      </trkpt>
      <trkpt lat="42.660454" lon="0.651342">
        <ele>2617.4</ele>
        <time>1970-01-01T01:23:36.000Z</time>
      </trkpt>
      <trkpt lat="42.660453" lon="0.651344">
        <ele>2617.4</ele>
        <time>1970-01-01T01:23:37.000Z</time>
      </trkpt>
      <trkpt lat="42.660452" lon="0.651346">
        <ele>2617.4</ele>
        <time>1970-01-01T01:23:38.000Z</time>
      </trkpt>
      <trkpt lat="42.66045" lon="0.651348">
        <ele>2617.4</ele>
        <time>1970-01-01T01:23:39.000Z</time>
      </trkpt>
      <trkpt lat="42.660448" lon="0.651349">
        <ele>2617.4</ele>
        <time>1970-01-01T01:23:40.000Z</time>
      </trkpt>
      <trkpt lat="42.660446" lon="0.65135">
        <ele>2617.4</ele>
        <time>1970-01-01T01:23:41.000Z</time>
      </trkpt>
      <trkpt lat="42.660444" lon="0.651352">
        <ele>2617.4</ele>
        <time>1970-01-01T01:23:42.000Z</time>
      </trkpt>
      <trkpt lat="42.660442" lon="0.651353">
        <ele>2618.7</ele>
        <time>1970-01-01T01:23:43.000Z</time>
      </trkpt>
      <trkpt lat="42.66044" lon="0.651353">
        <ele>2618.7</ele>
        <time>1970-01-01T01:23:44.000Z</time>
      </trkpt>
      <trkpt lat="42.660439" lon="0.651352">
        <ele>2618.7</ele>
        <time>1970-01-01T01:23:45.000Z</time>
      </trkpt>
      <trkpt lat="42.660438" lon="0.651352">
        <ele>2618.7</ele>
        <time>1970-01-01T01:23:46.000Z</time>
      </trkpt>
      <trkpt lat="42.660437" lon="0.651351">
        <ele>2618.7</ele>
        <time>1970-01-01T01:23:47.000Z</time>
      </trkpt>
      <trkpt lat="42.660436" lon="0.651351">
        <ele>2618.7</ele>
        <time>1970-01-01T01:23:48.000Z</time>
      </trkpt>
      <trkpt lat="42.660434" lon="0.65135">
        <ele>2618.7</ele>
        <time>1970-01-01T01:23:49.000Z</time>
      </trkpt>
      <trkpt lat="42.660432" lon="0.651349">
        <ele>2618.7</ele>
        <time>1970-01-01T01:23:50.000Z</time>
      </trkpt>
      <trkpt lat="42.660428" lon="0.651347">
        <ele>2618.7</ele>
        <time>1970-01-01T01:23:52.000Z</time>
      </trkpt>
      <trkpt lat="42.660425" lon="0.651345">
        <ele>2618.7</ele>
        <time>1970-01-01T01:23:53.000Z</time>
      </trkpt>
      <trkpt lat="42.660422" lon="0.651343">
        <ele>2618.7</ele>
        <time>1970-01-01T01:23:54.000Z</time>
      </trkpt>
      <trkpt lat="42.66042" lon="0.651341">
        <ele>2618.7</ele>
        <time>1970-01-01T01:23:55.000Z</time>
      </trkpt>
      <trkpt lat="42.660418" lon="0.65134">
        <ele>2618.7</ele>
        <time>1970-01-01T01:23:56.000Z</time>
      </trkpt>
      <trkpt lat="42.660417" lon="0.651337">
        <ele>2618.7</ele>
        <time>1970-01-01T01:23:57.000Z</time>
      </trkpt>
      <trkpt lat="42.660416" lon="0.651335">
        <ele>2618.7</ele>
        <time>1970-01-01T01:23:58.000Z</time>
      </trkpt>
      <trkpt lat="42.660415" lon="0.651334">
        <ele>2618.7</ele>
        <time>1970-01-01T01:23:59.000Z</time>
      </trkpt>
      <trkpt lat="42.660415" lon="0.651333">
        <ele>2618.7</ele>
        <time>1970-01-01T01:24:00.000Z</time>
      </trkpt>
      <trkpt lat="42.660413" lon="0.651331">
        <ele>2618.7</ele>
        <time>1970-01-01T01:24:01.000Z</time>
      </trkpt>
      <trkpt lat="42.660411" lon="0.65133">
        <ele>2618.7</ele>
        <time>1970-01-01T01:24:02.000Z</time>
      </trkpt>
      <trkpt lat="42.660409" lon="0.651328">
        <ele>2620</ele>
        <time>1970-01-01T01:24:03.000Z</time>
      </trkpt>
      <trkpt lat="42.660405" lon="0.651324">
        <ele>2619.1</ele>
        <time>1970-01-01T01:24:05.000Z</time>
      </trkpt>
      <trkpt lat="42.660403" lon="0.651321">
        <ele>2619.1</ele>
        <time>1970-01-01T01:24:06.000Z</time>
      </trkpt>
      <trkpt lat="42.660403" lon="0.65132">
        <ele>2619.1</ele>
        <time>1970-01-01T01:24:07.000Z</time>
      </trkpt>
      <trkpt lat="42.660402" lon="0.651319">
        <ele>2619.1</ele>
        <time>1970-01-01T01:24:08.000Z</time>
      </trkpt>
      <trkpt lat="42.660401" lon="0.651318">
        <ele>2619.1</ele>
        <time>1970-01-01T01:24:09.000Z</time>
      </trkpt>
      <trkpt lat="42.6604" lon="0.651317">
        <ele>2619.1</ele>
        <time>1970-01-01T01:24:10.000Z</time>
      </trkpt>
      <trkpt lat="42.6604" lon="0.651317">
        <ele>2619.1</ele>
        <time>1970-01-01T01:24:11.000Z</time>
      </trkpt>
      <trkpt lat="42.660399" lon="0.651316">
        <ele>2619.1</ele>
        <time>1970-01-01T01:24:12.000Z</time>
      </trkpt>
      <trkpt lat="42.660398" lon="0.651315">
        <ele>2619.1</ele>
        <time>1970-01-01T01:24:13.000Z</time>
      </trkpt>
      <trkpt lat="42.660397" lon="0.651314">
        <ele>2619.1</ele>
        <time>1970-01-01T01:24:14.000Z</time>
      </trkpt>
      <trkpt lat="42.660396" lon="0.651313">
        <ele>2619.1</ele>
        <time>1970-01-01T01:24:15.000Z</time>
      </trkpt>
      <trkpt lat="42.660395" lon="0.651312">
        <ele>2619.1</ele>
        <time>1970-01-01T01:24:16.000Z</time>
      </trkpt>
      <trkpt lat="42.660393" lon="0.651311">
        <ele>2619.1</ele>
        <time>1970-01-01T01:24:17.000Z</time>
      </trkpt>
      <trkpt lat="42.660392" lon="0.65131">
        <ele>2619.1</ele>
        <time>1970-01-01T01:24:18.000Z</time>
      </trkpt>
      <trkpt lat="42.66039" lon="0.651308">
        <ele>2619.1</ele>
        <time>1970-01-01T01:24:19.000Z</time>
      </trkpt>
      <trkpt lat="42.660387" lon="0.651306">
        <ele>2619.1</ele>
        <time>1970-01-01T01:24:20.000Z</time>
      </trkpt>
      <trkpt lat="42.660386" lon="0.651306">
        <ele>2619.1</ele>
        <time>1970-01-01T01:24:21.000Z</time>
      </trkpt>
      <trkpt lat="42.660386" lon="0.651305">
        <ele>2619.1</ele>
        <time>1970-01-01T01:24:22.000Z</time>
      </trkpt>
      <trkpt lat="42.660385" lon="0.651305">
        <ele>2619.1</ele>
        <time>1970-01-01T01:24:23.000Z</time>
      </trkpt>
      <trkpt lat="42.660385" lon="0.651304">
        <ele>2619.1</ele>
        <time>1970-01-01T01:24:24.000Z</time>
      </trkpt>
      <trkpt lat="42.660385" lon="0.651304">
        <ele>2619.1</ele>
        <time>1970-01-01T01:24:25.000Z</time>
      </trkpt>
      <trkpt lat="42.660385" lon="0.651303">
        <ele>2619.1</ele>
        <time>1970-01-01T01:24:27.000Z</time>
      </trkpt>
      <trkpt lat="42.660384" lon="0.6513">
        <ele>2619.1</ele>
        <time>1970-01-01T01:24:28.000Z</time>
      </trkpt>
      <trkpt lat="42.660381" lon="0.651294">
        <ele>2619.1</ele>
        <time>1970-01-01T01:24:30.000Z</time>
      </trkpt>
      <trkpt lat="42.660379" lon="0.651292">
        <ele>2620.6</ele>
        <time>1970-01-01T01:24:31.000Z</time>
      </trkpt>
      <trkpt lat="42.660379" lon="0.65129">
        <ele>2620.6</ele>
        <time>1970-01-01T01:24:32.000Z</time>
      </trkpt>
      <trkpt lat="42.660377" lon="0.651289">
        <ele>2620.6</ele>
        <time>1970-01-01T01:24:33.000Z</time>
      </trkpt>
      <trkpt lat="42.660374" lon="0.651285">
        <ele>2620.6</ele>
        <time>1970-01-01T01:24:35.000Z</time>
      </trkpt>
      <trkpt lat="42.660372" lon="0.651283">
        <ele>2619.7</ele>
        <time>1970-01-01T01:24:36.000Z</time>
      </trkpt>
      <trkpt lat="42.660369" lon="0.651282">
        <ele>2619.7</ele>
        <time>1970-01-01T01:24:37.000Z</time>
      </trkpt>
      <trkpt lat="42.660366" lon="0.651281">
        <ele>2619.7</ele>
        <time>1970-01-01T01:24:38.000Z</time>
      </trkpt>
      <trkpt lat="42.660364" lon="0.65128">
        <ele>2619.7</ele>
        <time>1970-01-01T01:24:39.000Z</time>
      </trkpt>
      <trkpt lat="42.66036" lon="0.65128">
        <ele>2619.7</ele>
        <time>1970-01-01T01:24:40.000Z</time>
      </trkpt>
      <trkpt lat="42.660357" lon="0.65128">
        <ele>2619.7</ele>
        <time>1970-01-01T01:24:41.000Z</time>
      </trkpt>
      <trkpt lat="42.660355" lon="0.651279">
        <ele>2619.7</ele>
        <time>1970-01-01T01:24:42.000Z</time>
      </trkpt>
      <trkpt lat="42.660353" lon="0.651278">
        <ele>2619.7</ele>
        <time>1970-01-01T01:24:43.000Z</time>
      </trkpt>
      <trkpt lat="42.660351" lon="0.651277">
        <ele>2619.7</ele>
        <time>1970-01-01T01:24:44.000Z</time>
      </trkpt>
      <trkpt lat="42.66035" lon="0.651277">
        <ele>2619.7</ele>
        <time>1970-01-01T01:24:45.000Z</time>
      </trkpt>
      <trkpt lat="42.660346" lon="0.651274">
        <ele>2621.2</ele>
        <time>1970-01-01T01:24:47.000Z</time>
      </trkpt>
      <trkpt lat="42.660343" lon="0.65127">
        <ele>2621.2</ele>
        <time>1970-01-01T01:24:48.000Z</time>
      </trkpt>
      <trkpt lat="42.660342" lon="0.651267">
        <ele>2621.2</ele>
        <time>1970-01-01T01:24:49.000Z</time>
      </trkpt>
      <trkpt lat="42.66034" lon="0.651264">
        <ele>2621.2</ele>
        <time>1970-01-01T01:24:51.000Z</time>
      </trkpt>
      <trkpt lat="42.660339" lon="0.651261">
        <ele>2621.2</ele>
        <time>1970-01-01T01:24:52.000Z</time>
      </trkpt>
      <trkpt lat="42.660339" lon="0.651259">
        <ele>2621.2</ele>
        <time>1970-01-01T01:24:53.000Z</time>
      </trkpt>
      <trkpt lat="42.660338" lon="0.651258">
        <ele>2621.2</ele>
        <time>1970-01-01T01:24:54.000Z</time>
      </trkpt>
      <trkpt lat="42.660337" lon="0.651256">
        <ele>2621.2</ele>
        <time>1970-01-01T01:24:55.000Z</time>
      </trkpt>
      <trkpt lat="42.660337" lon="0.651254">
        <ele>2621.2</ele>
        <time>1970-01-01T01:24:56.000Z</time>
      </trkpt>
      <trkpt lat="42.660337" lon="0.651252">
        <ele>2621.2</ele>
        <time>1970-01-01T01:24:57.000Z</time>
      </trkpt>
      <trkpt lat="42.660337" lon="0.65125">
        <ele>2621.2</ele>
        <time>1970-01-01T01:24:58.000Z</time>
      </trkpt>
      <trkpt lat="42.660337" lon="0.651247">
        <ele>2621.2</ele>
        <time>1970-01-01T01:24:59.000Z</time>
      </trkpt>
      <trkpt lat="42.660335" lon="0.651243">
        <ele>2621.2</ele>
        <time>1970-01-01T01:25:00.000Z</time>
      </trkpt>
      <trkpt lat="42.660331" lon="0.651238">
        <ele>2620.3</ele>
        <time>1970-01-01T01:25:02.000Z</time>
      </trkpt>
      <trkpt lat="42.660327" lon="0.651236">
        <ele>2620.3</ele>
        <time>1970-01-01T01:25:03.000Z</time>
      </trkpt>
      <trkpt lat="42.660322" lon="0.651233">
        <ele>2620.3</ele>
        <time>1970-01-01T01:25:05.000Z</time>
      </trkpt>
      <trkpt lat="42.66032" lon="0.65123">
        <ele>2620.3</ele>
        <time>1970-01-01T01:25:06.000Z</time>
      </trkpt>
      <trkpt lat="42.660317" lon="0.651229">
        <ele>2620.3</ele>
        <time>1970-01-01T01:25:07.000Z</time>
      </trkpt>
      <trkpt lat="42.660315" lon="0.651226">
        <ele>2621.9</ele>
        <time>1970-01-01T01:25:08.000Z</time>
      </trkpt>
      <trkpt lat="42.660313" lon="0.651223">
        <ele>2621.9</ele>
        <time>1970-01-01T01:25:09.000Z</time>
      </trkpt>
      <trkpt lat="42.660311" lon="0.65122">
        <ele>2621.9</ele>
        <time>1970-01-01T01:25:10.000Z</time>
      </trkpt>
      <trkpt lat="42.66031" lon="0.651216">
        <ele>2621.9</ele>
        <time>1970-01-01T01:25:11.000Z</time>
      </trkpt>
      <trkpt lat="42.660308" lon="0.651211">
        <ele>2621.9</ele>
        <time>1970-01-01T01:25:13.000Z</time>
      </trkpt>
      <trkpt lat="42.660307" lon="0.651207">
        <ele>2621.9</ele>
        <time>1970-01-01T01:25:14.000Z</time>
      </trkpt>
      <trkpt lat="42.660306" lon="0.651203">
        <ele>2621.9</ele>
        <time>1970-01-01T01:25:15.000Z</time>
      </trkpt>
      <trkpt lat="42.660305" lon="0.651199">
        <ele>2621.9</ele>
        <time>1970-01-01T01:25:16.000Z</time>
      </trkpt>
      <trkpt lat="42.660303" lon="0.651195">
        <ele>2621</ele>
        <time>1970-01-01T01:25:17.000Z</time>
      </trkpt>
      <trkpt lat="42.660301" lon="0.651191">
        <ele>2621</ele>
        <time>1970-01-01T01:25:18.000Z</time>
      </trkpt>
      <trkpt lat="42.6603" lon="0.651187">
        <ele>2621</ele>
        <time>1970-01-01T01:25:19.000Z</time>
      </trkpt>
      <trkpt lat="42.660297" lon="0.651183">
        <ele>2621</ele>
        <time>1970-01-01T01:25:20.000Z</time>
      </trkpt>
      <trkpt lat="42.660293" lon="0.651179">
        <ele>2621</ele>
        <time>1970-01-01T01:25:22.000Z</time>
      </trkpt>
      <trkpt lat="42.66029" lon="0.651177">
        <ele>2621</ele>
        <time>1970-01-01T01:25:23.000Z</time>
      </trkpt>
      <trkpt lat="42.660287" lon="0.651174">
        <ele>2621</ele>
        <time>1970-01-01T01:25:24.000Z</time>
      </trkpt>
      <trkpt lat="42.660285" lon="0.651171">
        <ele>2621</ele>
        <time>1970-01-01T01:25:25.000Z</time>
      </trkpt>
      <trkpt lat="42.660284" lon="0.651167">
        <ele>2622.6</ele>
        <time>1970-01-01T01:25:26.000Z</time>
      </trkpt>
      <trkpt lat="42.660281" lon="0.651159">
        <ele>2622.6</ele>
        <time>1970-01-01T01:25:28.000Z</time>
      </trkpt>
      <trkpt lat="42.66028" lon="0.651154">
        <ele>2621.7</ele>
        <time>1970-01-01T01:25:29.000Z</time>
      </trkpt>
      <trkpt lat="42.660278" lon="0.651149">
        <ele>2621.7</ele>
        <time>1970-01-01T01:25:30.000Z</time>
      </trkpt>
      <trkpt lat="42.660276" lon="0.651144">
        <ele>2621.7</ele>
        <time>1970-01-01T01:25:31.000Z</time>
      </trkpt>
      <trkpt lat="42.660272" lon="0.651135">
        <ele>2621.7</ele>
        <time>1970-01-01T01:25:32.000Z</time>
      </trkpt>
      <trkpt lat="42.660269" lon="0.651123">
        <ele>2621.7</ele>
        <time>1970-01-01T01:25:33.000Z</time>
      </trkpt>
      <trkpt lat="42.660267" lon="0.651113">
        <ele>2621.7</ele>
        <time>1970-01-01T01:25:34.000Z</time>
      </trkpt>
      <trkpt lat="42.660265" lon="0.6511">
        <ele>2620.8</ele>
        <time>1970-01-01T01:25:36.000Z</time>
      </trkpt>
      <trkpt lat="42.660263" lon="0.651095">
        <ele>2620.8</ele>
        <time>1970-01-01T01:25:37.000Z</time>
      </trkpt>
      <trkpt lat="42.660259" lon="0.651089">
        <ele>2620.8</ele>
        <time>1970-01-01T01:25:38.000Z</time>
      </trkpt>
      <trkpt lat="42.660253" lon="0.651081">
        <ele>2622.4</ele>
        <time>1970-01-01T01:25:40.000Z</time>
      </trkpt>
      <trkpt lat="42.660249" lon="0.651078">
        <ele>2622.4</ele>
        <time>1970-01-01T01:25:41.000Z</time>
      </trkpt>
      <trkpt lat="42.660245" lon="0.651077">
        <ele>2622.4</ele>
        <time>1970-01-01T01:25:42.000Z</time>
      </trkpt>
      <trkpt lat="42.660238" lon="0.651071">
        <ele>2622.4</ele>
        <time>1970-01-01T01:25:44.000Z</time>
      </trkpt>
      <trkpt lat="42.660232" lon="0.651071">
        <ele>2622.4</ele>
        <time>1970-01-01T01:25:45.000Z</time>
      </trkpt>
      <trkpt lat="42.660231" lon="0.651075">
        <ele>2622.4</ele>
        <time>1970-01-01T01:25:46.000Z</time>
      </trkpt>
      <trkpt lat="42.660229" lon="0.651075">
        <ele>2622.4</ele>
        <time>1970-01-01T01:25:47.000Z</time>
      </trkpt>
      <trkpt lat="42.660229" lon="0.651076">
        <ele>2622.4</ele>
        <time>1970-01-01T01:25:48.000Z</time>
      </trkpt>
      <trkpt lat="42.660229" lon="0.651076">
        <ele>2622.4</ele>
        <time>1970-01-01T01:25:49.000Z</time>
      </trkpt>
      <trkpt lat="42.660229" lon="0.651076">
        <ele>2622.4</ele>
        <time>1970-01-01T01:25:50.000Z</time>
      </trkpt>
      <trkpt lat="42.660228" lon="0.651076">
        <ele>2622.4</ele>
        <time>1970-01-01T01:25:51.000Z</time>
      </trkpt>
      <trkpt lat="42.660226" lon="0.651074">
        <ele>2622.4</ele>
        <time>1970-01-01T01:25:52.000Z</time>
      </trkpt>
      <trkpt lat="42.660225" lon="0.651071">
        <ele>2622.4</ele>
        <time>1970-01-01T01:25:53.000Z</time>
      </trkpt>
      <trkpt lat="42.660222" lon="0.651068">
        <ele>2621.6</ele>
        <time>1970-01-01T01:25:54.000Z</time>
      </trkpt>
      <trkpt lat="42.66022" lon="0.651066">
        <ele>2623.2</ele>
        <time>1970-01-01T01:25:55.000Z</time>
      </trkpt>
      <trkpt lat="42.660218" lon="0.651063">
        <ele>2623.2</ele>
        <time>1970-01-01T01:25:57.000Z</time>
      </trkpt>
      <trkpt lat="42.660218" lon="0.651062">
        <ele>2623.2</ele>
        <time>1970-01-01T01:25:58.000Z</time>
      </trkpt>
      <trkpt lat="42.660218" lon="0.651061">
        <ele>2623.2</ele>
        <time>1970-01-01T01:25:59.000Z</time>
      </trkpt>
      <trkpt lat="42.660219" lon="0.651062">
        <ele>2623.2</ele>
        <time>1970-01-01T01:26:00.000Z</time>
      </trkpt>
      <trkpt lat="42.660219" lon="0.651058">
        <ele>2623.2</ele>
        <time>1970-01-01T01:26:02.000Z</time>
      </trkpt>
      <trkpt lat="42.660219" lon="0.651057">
        <ele>2623.2</ele>
        <time>1970-01-01T01:26:03.000Z</time>
      </trkpt>
      <trkpt lat="42.660219" lon="0.651056">
        <ele>2623.2</ele>
        <time>1970-01-01T01:26:04.000Z</time>
      </trkpt>
      <trkpt lat="42.66022" lon="0.651055">
        <ele>2623.2</ele>
        <time>1970-01-01T01:26:05.000Z</time>
      </trkpt>
      <trkpt lat="42.660221" lon="0.651055">
        <ele>2623.2</ele>
        <time>1970-01-01T01:26:06.000Z</time>
      </trkpt>
      <trkpt lat="42.660221" lon="0.651054">
        <ele>2623.2</ele>
        <time>1970-01-01T01:26:07.000Z</time>
      </trkpt>
      <trkpt lat="42.660222" lon="0.651054">
        <ele>2621.6</ele>
        <time>1970-01-01T01:26:08.000Z</time>
      </trkpt>
      <trkpt lat="42.660222" lon="0.651053">
        <ele>2621.6</ele>
        <time>1970-01-01T01:26:09.000Z</time>
      </trkpt>
      <trkpt lat="42.660221" lon="0.651051">
        <ele>2623.2</ele>
        <time>1970-01-01T01:26:10.000Z</time>
      </trkpt>
      <trkpt lat="42.660221" lon="0.651048">
        <ele>2623.2</ele>
        <time>1970-01-01T01:26:11.000Z</time>
      </trkpt>
      <trkpt lat="42.66022" lon="0.651043">
        <ele>2623.2</ele>
        <time>1970-01-01T01:26:12.000Z</time>
      </trkpt>
      <trkpt lat="42.66022" lon="0.651041">
        <ele>2623.2</ele>
        <time>1970-01-01T01:26:13.000Z</time>
      </trkpt>
      <trkpt lat="42.66022" lon="0.651038">
        <ele>2623.2</ele>
        <time>1970-01-01T01:26:14.000Z</time>
      </trkpt>
      <trkpt lat="42.660221" lon="0.651035">
        <ele>2623.2</ele>
        <time>1970-01-01T01:26:15.000Z</time>
      </trkpt>
      <trkpt lat="42.660221" lon="0.651033">
        <ele>2623.2</ele>
        <time>1970-01-01T01:26:16.000Z</time>
      </trkpt>
      <trkpt lat="42.660222" lon="0.651032">
        <ele>2621.6</ele>
        <time>1970-01-01T01:26:17.000Z</time>
      </trkpt>
      <trkpt lat="42.660223" lon="0.65103">
        <ele>2621.6</ele>
        <time>1970-01-01T01:26:19.000Z</time>
      </trkpt>
      <trkpt lat="42.660222" lon="0.651024">
        <ele>2620.8</ele>
        <time>1970-01-01T01:26:20.000Z</time>
      </trkpt>
      <trkpt lat="42.66022" lon="0.651019">
        <ele>2622.4</ele>
        <time>1970-01-01T01:26:21.000Z</time>
      </trkpt>
      <trkpt lat="42.660217" lon="0.65101">
        <ele>2622.4</ele>
        <time>1970-01-01T01:26:23.000Z</time>
      </trkpt>
      <trkpt lat="42.660216" lon="0.651005">
        <ele>2622.4</ele>
        <time>1970-01-01T01:26:24.000Z</time>
      </trkpt>
      <trkpt lat="42.660214" lon="0.651001">
        <ele>2622.4</ele>
        <time>1970-01-01T01:26:25.000Z</time>
      </trkpt>
      <trkpt lat="42.660213" lon="0.650995">
        <ele>2622.4</ele>
        <time>1970-01-01T01:26:27.000Z</time>
      </trkpt>
      <trkpt lat="42.660212" lon="0.650992">
        <ele>2622.4</ele>
        <time>1970-01-01T01:26:28.000Z</time>
      </trkpt>
      <trkpt lat="42.660212" lon="0.650989">
        <ele>2622.4</ele>
        <time>1970-01-01T01:26:29.000Z</time>
      </trkpt>
      <trkpt lat="42.660212" lon="0.650986">
        <ele>2622.4</ele>
        <time>1970-01-01T01:26:30.000Z</time>
      </trkpt>
      <trkpt lat="42.660211" lon="0.650982">
        <ele>2621.7</ele>
        <time>1970-01-01T01:26:31.000Z</time>
      </trkpt>
      <trkpt lat="42.660211" lon="0.650979">
        <ele>2621.7</ele>
        <time>1970-01-01T01:26:32.000Z</time>
      </trkpt>
      <trkpt lat="42.660211" lon="0.650975">
        <ele>2621.7</ele>
        <time>1970-01-01T01:26:33.000Z</time>
      </trkpt>
      <trkpt lat="42.660211" lon="0.650973">
        <ele>2621.7</ele>
        <time>1970-01-01T01:26:34.000Z</time>
      </trkpt>
      <trkpt lat="42.660211" lon="0.650971">
        <ele>2621.7</ele>
        <time>1970-01-01T01:26:35.000Z</time>
      </trkpt>
      <trkpt lat="42.660211" lon="0.650968">
        <ele>2621.7</ele>
        <time>1970-01-01T01:26:36.000Z</time>
      </trkpt>
      <trkpt lat="42.660211" lon="0.650965">
        <ele>2621.7</ele>
        <time>1970-01-01T01:26:37.000Z</time>
      </trkpt>
      <trkpt lat="42.66021" lon="0.650962">
        <ele>2621.7</ele>
        <time>1970-01-01T01:26:38.000Z</time>
      </trkpt>
      <trkpt lat="42.660211" lon="0.650958">
        <ele>2621.7</ele>
        <time>1970-01-01T01:26:39.000Z</time>
      </trkpt>
      <trkpt lat="42.660211" lon="0.650955">
        <ele>2621.7</ele>
        <time>1970-01-01T01:26:40.000Z</time>
      </trkpt>
      <trkpt lat="42.66021" lon="0.650951">
        <ele>2621.7</ele>
        <time>1970-01-01T01:26:41.000Z</time>
      </trkpt>
      <trkpt lat="42.660209" lon="0.650947">
        <ele>2621.7</ele>
        <time>1970-01-01T01:26:42.000Z</time>
      </trkpt>
      <trkpt lat="42.660207" lon="0.650944">
        <ele>2621.7</ele>
        <time>1970-01-01T01:26:43.000Z</time>
      </trkpt>
      <trkpt lat="42.660206" lon="0.650941">
        <ele>2621.7</ele>
        <time>1970-01-01T01:26:44.000Z</time>
      </trkpt>
      <trkpt lat="42.660204" lon="0.650936">
        <ele>2621</ele>
        <time>1970-01-01T01:26:46.000Z</time>
      </trkpt>
      <trkpt lat="42.660203" lon="0.650934">
        <ele>2621</ele>
        <time>1970-01-01T01:26:47.000Z</time>
      </trkpt>
      <trkpt lat="42.660202" lon="0.650932">
        <ele>2621</ele>
        <time>1970-01-01T01:26:48.000Z</time>
      </trkpt>
      <trkpt lat="42.660202" lon="0.65093">
        <ele>2621</ele>
        <time>1970-01-01T01:26:49.000Z</time>
      </trkpt>
      <trkpt lat="42.6602" lon="0.650928">
        <ele>2621</ele>
        <time>1970-01-01T01:26:50.000Z</time>
      </trkpt>
      <trkpt lat="42.660199" lon="0.650925">
        <ele>2621</ele>
        <time>1970-01-01T01:26:51.000Z</time>
      </trkpt>
      <trkpt lat="42.660198" lon="0.650922">
        <ele>2621</ele>
        <time>1970-01-01T01:26:52.000Z</time>
      </trkpt>
      <trkpt lat="42.660196" lon="0.65092">
        <ele>2621</ele>
        <time>1970-01-01T01:26:53.000Z</time>
      </trkpt>
      <trkpt lat="42.660194" lon="0.650918">
        <ele>2621</ele>
        <time>1970-01-01T01:26:54.000Z</time>
      </trkpt>
      <trkpt lat="42.660192" lon="0.650915">
        <ele>2621</ele>
        <time>1970-01-01T01:26:55.000Z</time>
      </trkpt>
      <trkpt lat="42.66019" lon="0.650913">
        <ele>2622.6</ele>
        <time>1970-01-01T01:26:56.000Z</time>
      </trkpt>
      <trkpt lat="42.660189" lon="0.650911">
        <ele>2622.6</ele>
        <time>1970-01-01T01:26:57.000Z</time>
      </trkpt>
      <trkpt lat="42.660188" lon="0.650909">
        <ele>2622.6</ele>
        <time>1970-01-01T01:26:58.000Z</time>
      </trkpt>
      <trkpt lat="42.660187" lon="0.650907">
        <ele>2622.6</ele>
        <time>1970-01-01T01:27:00.000Z</time>
      </trkpt>
      <trkpt lat="42.660185" lon="0.650905">
        <ele>2622.6</ele>
        <time>1970-01-01T01:27:01.000Z</time>
      </trkpt>
      <trkpt lat="42.660185" lon="0.650904">
        <ele>2622.6</ele>
        <time>1970-01-01T01:27:02.000Z</time>
      </trkpt>
      <trkpt lat="42.660184" lon="0.650904">
        <ele>2622.6</ele>
        <time>1970-01-01T01:27:03.000Z</time>
      </trkpt>
      <trkpt lat="42.660183" lon="0.650903">
        <ele>2622.6</ele>
        <time>1970-01-01T01:27:04.000Z</time>
      </trkpt>
      <trkpt lat="42.660179" lon="0.650899">
        <ele>2622.6</ele>
        <time>1970-01-01T01:27:06.000Z</time>
      </trkpt>
      <trkpt lat="42.660177" lon="0.650896">
        <ele>2621.9</ele>
        <time>1970-01-01T01:27:07.000Z</time>
      </trkpt>
      <trkpt lat="42.660174" lon="0.650895">
        <ele>2621.9</ele>
        <time>1970-01-01T01:27:08.000Z</time>
      </trkpt>
      <trkpt lat="42.660172" lon="0.650893">
        <ele>2621.9</ele>
        <time>1970-01-01T01:27:09.000Z</time>
      </trkpt>
      <trkpt lat="42.66017" lon="0.650891">
        <ele>2621.9</ele>
        <time>1970-01-01T01:27:10.000Z</time>
      </trkpt>
      <trkpt lat="42.660169" lon="0.650885">
        <ele>2621.9</ele>
        <time>1970-01-01T01:27:12.000Z</time>
      </trkpt>
      <trkpt lat="42.660168" lon="0.650881">
        <ele>2621.9</ele>
        <time>1970-01-01T01:27:13.000Z</time>
      </trkpt>
      <trkpt lat="42.660167" lon="0.650877">
        <ele>2621.9</ele>
        <time>1970-01-01T01:27:14.000Z</time>
      </trkpt>
      <trkpt lat="42.660166" lon="0.650875">
        <ele>2621.9</ele>
        <time>1970-01-01T01:27:15.000Z</time>
      </trkpt>
      <trkpt lat="42.660166" lon="0.650873">
        <ele>2621.9</ele>
        <time>1970-01-01T01:27:16.000Z</time>
      </trkpt>
      <trkpt lat="42.660165" lon="0.650871">
        <ele>2621.9</ele>
        <time>1970-01-01T01:27:17.000Z</time>
      </trkpt>
      <trkpt lat="42.660165" lon="0.650871">
        <ele>2621.9</ele>
        <time>1970-01-01T01:27:18.000Z</time>
      </trkpt>
      <trkpt lat="42.660164" lon="0.650869">
        <ele>2621.9</ele>
        <time>1970-01-01T01:27:19.000Z</time>
      </trkpt>
      <trkpt lat="42.660164" lon="0.650867">
        <ele>2621.9</ele>
        <time>1970-01-01T01:27:21.000Z</time>
      </trkpt>
      <trkpt lat="42.660164" lon="0.650861">
        <ele>2621.9</ele>
        <time>1970-01-01T01:27:22.000Z</time>
      </trkpt>
      <trkpt lat="42.660166" lon="0.650854">
        <ele>2621.3</ele>
        <time>1970-01-01T01:27:23.000Z</time>
      </trkpt>
      <trkpt lat="42.66017" lon="0.650846">
        <ele>2621.3</ele>
        <time>1970-01-01T01:27:24.000Z</time>
      </trkpt>
      <trkpt lat="42.660173" lon="0.65084">
        <ele>2621.3</ele>
        <time>1970-01-01T01:27:25.000Z</time>
      </trkpt>
      <trkpt lat="42.660176" lon="0.650833">
        <ele>2621.3</ele>
        <time>1970-01-01T01:27:26.000Z</time>
      </trkpt>
      <trkpt lat="42.660177" lon="0.650829">
        <ele>2621.3</ele>
        <time>1970-01-01T01:27:27.000Z</time>
      </trkpt>
      <trkpt lat="42.660177" lon="0.650825">
        <ele>2621.3</ele>
        <time>1970-01-01T01:27:28.000Z</time>
      </trkpt>
      <trkpt lat="42.660175" lon="0.65082">
        <ele>2621.3</ele>
        <time>1970-01-01T01:27:29.000Z</time>
      </trkpt>
      <trkpt lat="42.660173" lon="0.650813">
        <ele>2621.3</ele>
        <time>1970-01-01T01:27:31.000Z</time>
      </trkpt>
      <trkpt lat="42.660169" lon="0.650799">
        <ele>2620.7</ele>
        <time>1970-01-01T01:27:32.000Z</time>
      </trkpt>
      <trkpt lat="42.660163" lon="0.650782">
        <ele>2620.7</ele>
        <time>1970-01-01T01:27:34.000Z</time>
      </trkpt>
      <trkpt lat="42.660155" lon="0.650767">
        <ele>2621.5</ele>
        <time>1970-01-01T01:27:35.000Z</time>
      </trkpt>
      <trkpt lat="42.66015" lon="0.650755">
        <ele>2621.5</ele>
        <time>1970-01-01T01:27:36.000Z</time>
      </trkpt>
      <trkpt lat="42.660146" lon="0.650742">
        <ele>2621.5</ele>
        <time>1970-01-01T01:27:37.000Z</time>
      </trkpt>
      <trkpt lat="42.660138" lon="0.650739">
        <ele>2621.5</ele>
        <time>1970-01-01T01:27:39.000Z</time>
      </trkpt>
      <trkpt lat="42.660134" lon="0.650747">
        <ele>2621.5</ele>
        <time>1970-01-01T01:27:40.000Z</time>
      </trkpt>
      <trkpt lat="42.66013" lon="0.650754">
        <ele>2621.5</ele>
        <time>1970-01-01T01:27:41.000Z</time>
      </trkpt>
      <trkpt lat="42.660125" lon="0.650762">
        <ele>2623</ele>
        <time>1970-01-01T01:27:43.000Z</time>
      </trkpt>
      <trkpt lat="42.660121" lon="0.65077">
        <ele>2623.6</ele>
        <time>1970-01-01T01:27:44.000Z</time>
      </trkpt>
      <trkpt lat="42.660117" lon="0.650778">
        <ele>2623.6</ele>
        <time>1970-01-01T01:27:45.000Z</time>
      </trkpt>
      <trkpt lat="42.660113" lon="0.650786">
        <ele>2623.6</ele>
        <time>1970-01-01T01:27:46.000Z</time>
      </trkpt>
      <trkpt lat="42.660105" lon="0.650813">
        <ele>2624.3</ele>
        <time>1970-01-01T01:27:47.000Z</time>
      </trkpt>
      <trkpt lat="42.660101" lon="0.650823">
        <ele>2624.3</ele>
        <time>1970-01-01T01:27:49.000Z</time>
      </trkpt>
      <trkpt lat="42.660096" lon="0.650834">
        <ele>2624.3</ele>
        <time>1970-01-01T01:27:50.000Z</time>
      </trkpt>
      <trkpt lat="42.660091" lon="0.650843">
        <ele>2625.8</ele>
        <time>1970-01-01T01:27:51.000Z</time>
      </trkpt>
      <trkpt lat="42.660087" lon="0.650853">
        <ele>2625.8</ele>
        <time>1970-01-01T01:27:52.000Z</time>
      </trkpt>
      <trkpt lat="42.660086" lon="0.650864">
        <ele>2626.4</ele>
        <time>1970-01-01T01:27:53.000Z</time>
      </trkpt>
      <trkpt lat="42.660085" lon="0.650876">
        <ele>2626.4</ele>
        <time>1970-01-01T01:27:54.000Z</time>
      </trkpt>
      <trkpt lat="42.660082" lon="0.650889">
        <ele>2626.4</ele>
        <time>1970-01-01T01:27:56.000Z</time>
      </trkpt>
      <trkpt lat="42.66008" lon="0.650897">
        <ele>2626.4</ele>
        <time>1970-01-01T01:27:57.000Z</time>
      </trkpt>
      <trkpt lat="42.660078" lon="0.650901">
        <ele>2627</ele>
        <time>1970-01-01T01:27:58.000Z</time>
      </trkpt>
      <trkpt lat="42.660074" lon="0.650905">
        <ele>2627</ele>
        <time>1970-01-01T01:27:59.000Z</time>
      </trkpt>
      <trkpt lat="42.660063" lon="0.650908">
        <ele>2628.6</ele>
        <time>1970-01-01T01:28:01.000Z</time>
      </trkpt>
      <trkpt lat="42.660058" lon="0.650909">
        <ele>2628.6</ele>
        <time>1970-01-01T01:28:02.000Z</time>
      </trkpt>
      <trkpt lat="42.660055" lon="0.650912">
        <ele>2628.6</ele>
        <time>1970-01-01T01:28:03.000Z</time>
      </trkpt>
      <trkpt lat="42.660047" lon="0.650922">
        <ele>2628.6</ele>
        <time>1970-01-01T01:28:05.000Z</time>
      </trkpt>
      <trkpt lat="42.660045" lon="0.650925">
        <ele>2628.6</ele>
        <time>1970-01-01T01:28:06.000Z</time>
      </trkpt>
      <trkpt lat="42.660044" lon="0.650927">
        <ele>2628.6</ele>
        <time>1970-01-01T01:28:07.000Z</time>
      </trkpt>
      <trkpt lat="42.660044" lon="0.650927">
        <ele>2628.6</ele>
        <time>1970-01-01T01:28:08.000Z</time>
      </trkpt>
      <trkpt lat="42.660044" lon="0.650926">
        <ele>2628.6</ele>
        <time>1970-01-01T01:28:09.000Z</time>
      </trkpt>
      <trkpt lat="42.660044" lon="0.650927">
        <ele>2628.6</ele>
        <time>1970-01-01T01:28:10.000Z</time>
      </trkpt>
      <trkpt lat="42.660043" lon="0.650931">
        <ele>2628.6</ele>
        <time>1970-01-01T01:28:11.000Z</time>
      </trkpt>
      <trkpt lat="42.660043" lon="0.650937">
        <ele>2628.6</ele>
        <time>1970-01-01T01:28:12.000Z</time>
      </trkpt>
      <trkpt lat="42.660043" lon="0.650946">
        <ele>2629.3</ele>
        <time>1970-01-01T01:28:13.000Z</time>
      </trkpt>
      <trkpt lat="42.660041" lon="0.650954">
        <ele>2629.3</ele>
        <time>1970-01-01T01:28:14.000Z</time>
      </trkpt>
      <trkpt lat="42.660037" lon="0.650958">
        <ele>2629.3</ele>
        <time>1970-01-01T01:28:15.000Z</time>
      </trkpt>
      <trkpt lat="42.660032" lon="0.650963">
        <ele>2631</ele>
        <time>1970-01-01T01:28:16.000Z</time>
      </trkpt>
      <trkpt lat="42.660025" lon="0.65097">
        <ele>2631</ele>
        <time>1970-01-01T01:28:18.000Z</time>
      </trkpt>
      <trkpt lat="42.66002" lon="0.650972">
        <ele>2631</ele>
        <time>1970-01-01T01:28:19.000Z</time>
      </trkpt>
      <trkpt lat="42.660016" lon="0.650972">
        <ele>2631</ele>
        <time>1970-01-01T01:28:20.000Z</time>
      </trkpt>
      <trkpt lat="42.660013" lon="0.65097">
        <ele>2631</ele>
        <time>1970-01-01T01:28:21.000Z</time>
      </trkpt>
      <trkpt lat="42.660008" lon="0.650962">
        <ele>2631</ele>
        <time>1970-01-01T01:28:23.000Z</time>
      </trkpt>
      <trkpt lat="42.660005" lon="0.650959">
        <ele>2631</ele>
        <time>1970-01-01T01:28:24.000Z</time>
      </trkpt>
      <trkpt lat="42.660003" lon="0.650959">
        <ele>2631</ele>
        <time>1970-01-01T01:28:25.000Z</time>
      </trkpt>
      <trkpt lat="42.66" lon="0.650958">
        <ele>2632.8</ele>
        <time>1970-01-01T01:28:26.000Z</time>
      </trkpt>
      <trkpt lat="42.659996" lon="0.65096">
        <ele>2632.8</ele>
        <time>1970-01-01T01:28:27.000Z</time>
      </trkpt>
      <trkpt lat="42.659992" lon="0.650962">
        <ele>2632.8</ele>
        <time>1970-01-01T01:28:28.000Z</time>
      </trkpt>
      <trkpt lat="42.659989" lon="0.650967">
        <ele>2632.8</ele>
        <time>1970-01-01T01:28:29.000Z</time>
      </trkpt>
      <trkpt lat="42.659984" lon="0.650976">
        <ele>2632.8</ele>
        <time>1970-01-01T01:28:30.000Z</time>
      </trkpt>
      <trkpt lat="42.65998" lon="0.650982">
        <ele>2632.8</ele>
        <time>1970-01-01T01:28:32.000Z</time>
      </trkpt>
      <trkpt lat="42.659977" lon="0.650987">
        <ele>2633.5</ele>
        <time>1970-01-01T01:28:33.000Z</time>
      </trkpt>
      <trkpt lat="42.659976" lon="0.650992">
        <ele>2633.5</ele>
        <time>1970-01-01T01:28:34.000Z</time>
      </trkpt>
      <trkpt lat="42.659978" lon="0.650997">
        <ele>2633.5</ele>
        <time>1970-01-01T01:28:35.000Z</time>
      </trkpt>
      <trkpt lat="42.659981" lon="0.651">
        <ele>2633.5</ele>
        <time>1970-01-01T01:28:36.000Z</time>
      </trkpt>
      <trkpt lat="42.659991" lon="0.651003">
        <ele>2633.5</ele>
        <time>1970-01-01T01:28:38.000Z</time>
      </trkpt>
      <trkpt lat="42.660001" lon="0.651006">
        <ele>2631.7</ele>
        <time>1970-01-01T01:28:39.000Z</time>
      </trkpt>
      <trkpt lat="42.660006" lon="0.651008">
        <ele>2631.7</ele>
        <time>1970-01-01T01:28:40.000Z</time>
      </trkpt>
      <trkpt lat="42.660009" lon="0.651009">
        <ele>2631.7</ele>
        <time>1970-01-01T01:28:41.000Z</time>
      </trkpt>
      <trkpt lat="42.660015" lon="0.651012">
        <ele>2631.7</ele>
        <time>1970-01-01T01:28:42.000Z</time>
      </trkpt>
      <trkpt lat="42.660019" lon="0.651014">
        <ele>2631.7</ele>
        <time>1970-01-01T01:28:43.000Z</time>
      </trkpt>
      <trkpt lat="42.66002" lon="0.651016">
        <ele>2631.7</ele>
        <time>1970-01-01T01:28:44.000Z</time>
      </trkpt>
      <trkpt lat="42.660019" lon="0.651024">
        <ele>2631.7</ele>
        <time>1970-01-01T01:28:46.000Z</time>
      </trkpt>
      <trkpt lat="42.660018" lon="0.651028">
        <ele>2632.5</ele>
        <time>1970-01-01T01:28:47.000Z</time>
      </trkpt>
      <trkpt lat="42.660016" lon="0.651032">
        <ele>2632.5</ele>
        <time>1970-01-01T01:28:48.000Z</time>
      </trkpt>
      <trkpt lat="42.660014" lon="0.651036">
        <ele>2632.5</ele>
        <time>1970-01-01T01:28:49.000Z</time>
      </trkpt>
      <trkpt lat="42.66001" lon="0.651042">
        <ele>2632.5</ele>
        <time>1970-01-01T01:28:50.000Z</time>
      </trkpt>
      <trkpt lat="42.660005" lon="0.651052">
        <ele>2632.5</ele>
        <time>1970-01-01T01:28:51.000Z</time>
      </trkpt>
      <trkpt lat="42.660005" lon="0.651056">
        <ele>2632.5</ele>
        <time>1970-01-01T01:28:52.000Z</time>
      </trkpt>
      <trkpt lat="42.660005" lon="0.651057">
        <ele>2632.5</ele>
        <time>1970-01-01T01:28:53.000Z</time>
      </trkpt>
      <trkpt lat="42.660005" lon="0.651054">
        <ele>2632.5</ele>
        <time>1970-01-01T01:28:55.000Z</time>
      </trkpt>
      <trkpt lat="42.660003" lon="0.651053">
        <ele>2632.5</ele>
        <time>1970-01-01T01:28:56.000Z</time>
      </trkpt>
      <trkpt lat="42.659999" lon="0.651052">
        <ele>2634.3</ele>
        <time>1970-01-01T01:28:57.000Z</time>
      </trkpt>
      <trkpt lat="42.659996" lon="0.65105">
        <ele>2634.3</ele>
        <time>1970-01-01T01:28:58.000Z</time>
      </trkpt>
      <trkpt lat="42.659994" lon="0.65105">
        <ele>2634.3</ele>
        <time>1970-01-01T01:28:59.000Z</time>
      </trkpt>
      <trkpt lat="42.659993" lon="0.651049">
        <ele>2634.3</ele>
        <time>1970-01-01T01:29:00.000Z</time>
      </trkpt>
      <trkpt lat="42.659993" lon="0.651048">
        <ele>2634.3</ele>
        <time>1970-01-01T01:29:01.000Z</time>
      </trkpt>
      <trkpt lat="42.65999" lon="0.651047">
        <ele>2634.3</ele>
        <time>1970-01-01T01:29:03.000Z</time>
      </trkpt>
      <trkpt lat="42.659987" lon="0.651049">
        <ele>2634.3</ele>
        <time>1970-01-01T01:29:04.000Z</time>
      </trkpt>
      <trkpt lat="42.659985" lon="0.65105">
        <ele>2634.3</ele>
        <time>1970-01-01T01:29:05.000Z</time>
      </trkpt>
      <trkpt lat="42.659983" lon="0.651051">
        <ele>2634.3</ele>
        <time>1970-01-01T01:29:06.000Z</time>
      </trkpt>
      <trkpt lat="42.659979" lon="0.651049">
        <ele>2634.3</ele>
        <time>1970-01-01T01:29:07.000Z</time>
      </trkpt>
      <trkpt lat="42.659976" lon="0.651048">
        <ele>2634.3</ele>
        <time>1970-01-01T01:29:08.000Z</time>
      </trkpt>
      <trkpt lat="42.659972" lon="0.651045">
        <ele>2634.3</ele>
        <time>1970-01-01T01:29:09.000Z</time>
      </trkpt>
      <trkpt lat="42.659969" lon="0.651042">
        <ele>2636.2</ele>
        <time>1970-01-01T01:29:10.000Z</time>
      </trkpt>
      <trkpt lat="42.659965" lon="0.651039">
        <ele>2636.2</ele>
        <time>1970-01-01T01:29:11.000Z</time>
      </trkpt>
      <trkpt lat="42.659961" lon="0.651037">
        <ele>2636.2</ele>
        <time>1970-01-01T01:29:13.000Z</time>
      </trkpt>
      <trkpt lat="42.659957" lon="0.651035">
        <ele>2636.2</ele>
        <time>1970-01-01T01:29:14.000Z</time>
      </trkpt>
      <trkpt lat="42.659954" lon="0.651033">
        <ele>2636.2</ele>
        <time>1970-01-01T01:29:15.000Z</time>
      </trkpt>
      <trkpt lat="42.659951" lon="0.651032">
        <ele>2636.2</ele>
        <time>1970-01-01T01:29:16.000Z</time>
      </trkpt>
      <trkpt lat="42.659949" lon="0.651031">
        <ele>2636.2</ele>
        <time>1970-01-01T01:29:17.000Z</time>
      </trkpt>
      <trkpt lat="42.659948" lon="0.65103">
        <ele>2636.2</ele>
        <time>1970-01-01T01:29:18.000Z</time>
      </trkpt>
      <trkpt lat="42.659945" lon="0.651028">
        <ele>2636.2</ele>
        <time>1970-01-01T01:29:19.000Z</time>
      </trkpt>
      <trkpt lat="42.659943" lon="0.651027">
        <ele>2636.2</ele>
        <time>1970-01-01T01:29:20.000Z</time>
      </trkpt>
      <trkpt lat="42.659939" lon="0.651026">
        <ele>2636.2</ele>
        <time>1970-01-01T01:29:21.000Z</time>
      </trkpt>
      <trkpt lat="42.659936" lon="0.651024">
        <ele>2637.3</ele>
        <time>1970-01-01T01:29:22.000Z</time>
      </trkpt>
      <trkpt lat="42.659934" lon="0.651024">
        <ele>2637.3</ele>
        <time>1970-01-01T01:29:23.000Z</time>
      </trkpt>
      <trkpt lat="42.659931" lon="0.651025">
        <ele>2637.3</ele>
        <time>1970-01-01T01:29:24.000Z</time>
      </trkpt>
      <trkpt lat="42.659929" lon="0.651024">
        <ele>2637.3</ele>
        <time>1970-01-01T01:29:25.000Z</time>
      </trkpt>
      <trkpt lat="42.659925" lon="0.651024">
        <ele>2637.3</ele>
        <time>1970-01-01T01:29:27.000Z</time>
      </trkpt>
      <trkpt lat="42.659922" lon="0.651026">
        <ele>2638.1</ele>
        <time>1970-01-01T01:29:28.000Z</time>
      </trkpt>
      <trkpt lat="42.65992" lon="0.651027">
        <ele>2638.1</ele>
        <time>1970-01-01T01:29:29.000Z</time>
      </trkpt>
      <trkpt lat="42.65992" lon="0.651029">
        <ele>2638.1</ele>
        <time>1970-01-01T01:29:30.000Z</time>
      </trkpt>
      <trkpt lat="42.659919" lon="0.651031">
        <ele>2638.1</ele>
        <time>1970-01-01T01:29:31.000Z</time>
      </trkpt>
      <trkpt lat="42.65992" lon="0.651033">
        <ele>2638.1</ele>
        <time>1970-01-01T01:29:32.000Z</time>
      </trkpt>
      <trkpt lat="42.659919" lon="0.651035">
        <ele>2638.1</ele>
        <time>1970-01-01T01:29:34.000Z</time>
      </trkpt>
      <trkpt lat="42.659917" lon="0.651039">
        <ele>2638.1</ele>
        <time>1970-01-01T01:29:35.000Z</time>
      </trkpt>
      <trkpt lat="42.659915" lon="0.65104">
        <ele>2638.1</ele>
        <time>1970-01-01T01:29:36.000Z</time>
      </trkpt>
      <trkpt lat="42.659912" lon="0.65104">
        <ele>2638.1</ele>
        <time>1970-01-01T01:29:37.000Z</time>
      </trkpt>
      <trkpt lat="42.65991" lon="0.651039">
        <ele>2638.1</ele>
        <time>1970-01-01T01:29:38.000Z</time>
      </trkpt>
      <trkpt lat="42.659906" lon="0.651037">
        <ele>2639.8</ele>
        <time>1970-01-01T01:29:39.000Z</time>
      </trkpt>
      <trkpt lat="42.659902" lon="0.651034">
        <ele>2639.8</ele>
        <time>1970-01-01T01:29:40.000Z</time>
      </trkpt>
      <trkpt lat="42.659899" lon="0.651031">
        <ele>2639.8</ele>
        <time>1970-01-01T01:29:41.000Z</time>
      </trkpt>
      <trkpt lat="42.659896" lon="0.651028">
        <ele>2639.8</ele>
        <time>1970-01-01T01:29:42.000Z</time>
      </trkpt>
      <trkpt lat="42.659893" lon="0.651025">
        <ele>2639.1</ele>
        <time>1970-01-01T01:29:43.000Z</time>
      </trkpt>
      <trkpt lat="42.659891" lon="0.65102">
        <ele>2639.1</ele>
        <time>1970-01-01T01:29:44.000Z</time>
      </trkpt>
      <trkpt lat="42.659889" lon="0.651017">
        <ele>2639.1</ele>
        <time>1970-01-01T01:29:45.000Z</time>
      </trkpt>
      <trkpt lat="42.659886" lon="0.65101">
        <ele>2639.1</ele>
        <time>1970-01-01T01:29:47.000Z</time>
      </trkpt>
      <trkpt lat="42.65988" lon="0.651008">
        <ele>2639.1</ele>
        <time>1970-01-01T01:29:48.000Z</time>
      </trkpt>
      <trkpt lat="42.659873" lon="0.651008">
        <ele>2640.8</ele>
        <time>1970-01-01T01:29:49.000Z</time>
      </trkpt>
      <trkpt lat="42.659862" lon="0.651008">
        <ele>2640.8</ele>
        <time>1970-01-01T01:29:51.000Z</time>
      </trkpt>
      <trkpt lat="42.659853" lon="0.651006">
        <ele>2640.8</ele>
        <time>1970-01-01T01:29:52.000Z</time>
      </trkpt>
      <trkpt lat="42.659848" lon="0.651002">
        <ele>2640.8</ele>
        <time>1970-01-01T01:29:53.000Z</time>
      </trkpt>
      <trkpt lat="42.659844" lon="0.650998">
        <ele>2640.8</ele>
        <time>1970-01-01T01:29:54.000Z</time>
      </trkpt>
      <trkpt lat="42.659838" lon="0.650997">
        <ele>2642.4</ele>
        <time>1970-01-01T01:29:55.000Z</time>
      </trkpt>
      <trkpt lat="42.659834" lon="0.650998">
        <ele>2642.4</ele>
        <time>1970-01-01T01:29:56.000Z</time>
      </trkpt>
      <trkpt lat="42.65983" lon="0.650998">
        <ele>2642.4</ele>
        <time>1970-01-01T01:29:57.000Z</time>
      </trkpt>
      <trkpt lat="42.659826" lon="0.650999">
        <ele>2642.4</ele>
        <time>1970-01-01T01:29:59.000Z</time>
      </trkpt>
      <trkpt lat="42.659822" lon="0.650997">
        <ele>2642.4</ele>
        <time>1970-01-01T01:30:00.000Z</time>
      </trkpt>
      <trkpt lat="42.659817" lon="0.650995">
        <ele>2642.4</ele>
        <time>1970-01-01T01:30:01.000Z</time>
      </trkpt>
      <trkpt lat="42.659812" lon="0.650993">
        <ele>2642.4</ele>
        <time>1970-01-01T01:30:02.000Z</time>
      </trkpt>
      <trkpt lat="42.659809" lon="0.650991">
        <ele>2644.1</ele>
        <time>1970-01-01T01:30:04.000Z</time>
      </trkpt>
      <trkpt lat="42.659811" lon="0.650991">
        <ele>2644.1</ele>
        <time>1970-01-01T01:30:05.000Z</time>
      </trkpt>
      <trkpt lat="42.659811" lon="0.650989">
        <ele>2644.1</ele>
        <time>1970-01-01T01:30:06.000Z</time>
      </trkpt>
      <trkpt lat="42.659811" lon="0.650988">
        <ele>2644.1</ele>
        <time>1970-01-01T01:30:07.000Z</time>
      </trkpt>
      <trkpt lat="42.659811" lon="0.650986">
        <ele>2644.1</ele>
        <time>1970-01-01T01:30:08.000Z</time>
      </trkpt>
      <trkpt lat="42.659811" lon="0.650985">
        <ele>2644.1</ele>
        <time>1970-01-01T01:30:09.000Z</time>
      </trkpt>
      <trkpt lat="42.659811" lon="0.650983">
        <ele>2644.1</ele>
        <time>1970-01-01T01:30:10.000Z</time>
      </trkpt>
      <trkpt lat="42.659812" lon="0.650982">
        <ele>2641.8</ele>
        <time>1970-01-01T01:30:11.000Z</time>
      </trkpt>
      <trkpt lat="42.659813" lon="0.650981">
        <ele>2641.8</ele>
        <time>1970-01-01T01:30:12.000Z</time>
      </trkpt>
      <trkpt lat="42.659813" lon="0.65098">
        <ele>2641.8</ele>
        <time>1970-01-01T01:30:13.000Z</time>
      </trkpt>
      <trkpt lat="42.659813" lon="0.650978">
        <ele>2641.8</ele>
        <time>1970-01-01T01:30:14.000Z</time>
      </trkpt>
      <trkpt lat="42.659813" lon="0.650977">
        <ele>2641.8</ele>
        <time>1970-01-01T01:30:15.000Z</time>
      </trkpt>
      <trkpt lat="42.659813" lon="0.650973">
        <ele>2641.8</ele>
        <time>1970-01-01T01:30:16.000Z</time>
      </trkpt>
      <trkpt lat="42.659813" lon="0.650967">
        <ele>2641.8</ele>
        <time>1970-01-01T01:30:17.000Z</time>
      </trkpt>
      <trkpt lat="42.659812" lon="0.650961">
        <ele>2641.8</ele>
        <time>1970-01-01T01:30:18.000Z</time>
      </trkpt>
      <trkpt lat="42.659811" lon="0.650956">
        <ele>2643.5</ele>
        <time>1970-01-01T01:30:19.000Z</time>
      </trkpt>
      <trkpt lat="42.659811" lon="0.650952">
        <ele>2643.5</ele>
        <time>1970-01-01T01:30:20.000Z</time>
      </trkpt>
      <trkpt lat="42.65981" lon="0.650947">
        <ele>2643.5</ele>
        <time>1970-01-01T01:30:21.000Z</time>
      </trkpt>
      <trkpt lat="42.659809" lon="0.650941">
        <ele>2643.5</ele>
        <time>1970-01-01T01:30:22.000Z</time>
      </trkpt>
      <trkpt lat="42.659808" lon="0.650935">
        <ele>2642.8</ele>
        <time>1970-01-01T01:30:23.000Z</time>
      </trkpt>
      <trkpt lat="42.659806" lon="0.650931">
        <ele>2642.8</ele>
        <time>1970-01-01T01:30:24.000Z</time>
      </trkpt>
      <trkpt lat="42.659804" lon="0.650926">
        <ele>2642.8</ele>
        <time>1970-01-01T01:30:25.000Z</time>
      </trkpt>
      <trkpt lat="42.659798" lon="0.650912">
        <ele>2642.8</ele>
        <time>1970-01-01T01:30:27.000Z</time>
      </trkpt>
      <trkpt lat="42.659796" lon="0.650909">
        <ele>2642.8</ele>
        <time>1970-01-01T01:30:28.000Z</time>
      </trkpt>
      <trkpt lat="42.659794" lon="0.650907">
        <ele>2642.8</ele>
        <time>1970-01-01T01:30:29.000Z</time>
      </trkpt>
      <trkpt lat="42.659792" lon="0.650905">
        <ele>2642.8</ele>
        <time>1970-01-01T01:30:30.000Z</time>
      </trkpt>
      <trkpt lat="42.65979" lon="0.650904">
        <ele>2642.8</ele>
        <time>1970-01-01T01:30:31.000Z</time>
      </trkpt>
      <trkpt lat="42.659783" lon="0.650904">
        <ele>2642.8</ele>
        <time>1970-01-01T01:30:33.000Z</time>
      </trkpt>
      <trkpt lat="42.659776" lon="0.650908">
        <ele>2644.7</ele>
        <time>1970-01-01T01:30:34.000Z</time>
      </trkpt>
      <trkpt lat="42.659771" lon="0.650914">
        <ele>2644.7</ele>
        <time>1970-01-01T01:30:35.000Z</time>
      </trkpt>
      <trkpt lat="42.659768" lon="0.650919">
        <ele>2644.7</ele>
        <time>1970-01-01T01:30:36.000Z</time>
      </trkpt>
      <trkpt lat="42.659768" lon="0.650929">
        <ele>2644.7</ele>
        <time>1970-01-01T01:30:38.000Z</time>
      </trkpt>
      <trkpt lat="42.659769" lon="0.650936">
        <ele>2644.7</ele>
        <time>1970-01-01T01:30:39.000Z</time>
      </trkpt>
      <trkpt lat="42.659769" lon="0.650941">
        <ele>2645.3</ele>
        <time>1970-01-01T01:30:40.000Z</time>
      </trkpt>
      <trkpt lat="42.659766" lon="0.650947">
        <ele>2645.3</ele>
        <time>1970-01-01T01:30:41.000Z</time>
      </trkpt>
      <trkpt lat="42.659762" lon="0.65095">
        <ele>2645.3</ele>
        <time>1970-01-01T01:30:42.000Z</time>
      </trkpt>
      <trkpt lat="42.659759" lon="0.650948">
        <ele>2645.3</ele>
        <time>1970-01-01T01:30:43.000Z</time>
      </trkpt>
      <trkpt lat="42.659757" lon="0.650945">
        <ele>2645.3</ele>
        <time>1970-01-01T01:30:44.000Z</time>
      </trkpt>
      <trkpt lat="42.659754" lon="0.650933">
        <ele>2644.7</ele>
        <time>1970-01-01T01:30:46.000Z</time>
      </trkpt>
      <trkpt lat="42.659753" lon="0.650923">
        <ele>2644.7</ele>
        <time>1970-01-01T01:30:47.000Z</time>
      </trkpt>
      <trkpt lat="42.659752" lon="0.650913">
        <ele>2644.7</ele>
        <time>1970-01-01T01:30:48.000Z</time>
      </trkpt>
      <trkpt lat="42.659751" lon="0.650898">
        <ele>2644.7</ele>
        <time>1970-01-01T01:30:50.000Z</time>
      </trkpt>
      <trkpt lat="42.659749" lon="0.650888">
        <ele>2644.1</ele>
        <time>1970-01-01T01:30:51.000Z</time>
      </trkpt>
      <trkpt lat="42.659747" lon="0.650879">
        <ele>2646.1</ele>
        <time>1970-01-01T01:30:52.000Z</time>
      </trkpt>
      <trkpt lat="42.659745" lon="0.650872">
        <ele>2646.1</ele>
        <time>1970-01-01T01:30:53.000Z</time>
      </trkpt>
      <trkpt lat="42.659742" lon="0.650866">
        <ele>2646.1</ele>
        <time>1970-01-01T01:30:54.000Z</time>
      </trkpt>
      <trkpt lat="42.659738" lon="0.650862">
        <ele>2646.1</ele>
        <time>1970-01-01T01:30:56.000Z</time>
      </trkpt>
      <trkpt lat="42.659736" lon="0.650859">
        <ele>2646.1</ele>
        <time>1970-01-01T01:30:57.000Z</time>
      </trkpt>
      <trkpt lat="42.659733" lon="0.650853">
        <ele>2645.4</ele>
        <time>1970-01-01T01:30:58.000Z</time>
      </trkpt>
      <trkpt lat="42.659731" lon="0.650846">
        <ele>2645.4</ele>
        <time>1970-01-01T01:30:59.000Z</time>
      </trkpt>
      <trkpt lat="42.659728" lon="0.650837">
        <ele>2645.4</ele>
        <time>1970-01-01T01:31:00.000Z</time>
      </trkpt>
      <trkpt lat="42.659723" lon="0.650827">
        <ele>2645.4</ele>
        <time>1970-01-01T01:31:02.000Z</time>
      </trkpt>
      <trkpt lat="42.659721" lon="0.650822">
        <ele>2645.4</ele>
        <time>1970-01-01T01:31:03.000Z</time>
      </trkpt>
      <trkpt lat="42.659719" lon="0.650814">
        <ele>2645.4</ele>
        <time>1970-01-01T01:31:04.000Z</time>
      </trkpt>
      <trkpt lat="42.659718" lon="0.650811">
        <ele>2644.8</ele>
        <time>1970-01-01T01:31:05.000Z</time>
      </trkpt>
      <trkpt lat="42.659717" lon="0.65081">
        <ele>2644.8</ele>
        <time>1970-01-01T01:31:06.000Z</time>
      </trkpt>
      <trkpt lat="42.659716" lon="0.650809">
        <ele>2646.9</ele>
        <time>1970-01-01T01:31:07.000Z</time>
      </trkpt>
      <trkpt lat="42.659715" lon="0.650809">
        <ele>2646.9</ele>
        <time>1970-01-01T01:31:08.000Z</time>
      </trkpt>
      <trkpt lat="42.659714" lon="0.650809">
        <ele>2646.9</ele>
        <time>1970-01-01T01:31:09.000Z</time>
      </trkpt>
      <trkpt lat="42.659714" lon="0.65081">
        <ele>2646.9</ele>
        <time>1970-01-01T01:31:10.000Z</time>
      </trkpt>
      <trkpt lat="42.659714" lon="0.650809">
        <ele>2646.9</ele>
        <time>1970-01-01T01:31:11.000Z</time>
      </trkpt>
      <trkpt lat="42.659714" lon="0.650809">
        <ele>2646.9</ele>
        <time>1970-01-01T01:31:12.000Z</time>
      </trkpt>
      <trkpt lat="42.659714" lon="0.650809">
        <ele>2646.9</ele>
        <time>1970-01-01T01:31:13.000Z</time>
      </trkpt>
      <trkpt lat="42.659713" lon="0.650807">
        <ele>2646.9</ele>
        <time>1970-01-01T01:31:14.000Z</time>
      </trkpt>
      <trkpt lat="42.659713" lon="0.650804">
        <ele>2646.9</ele>
        <time>1970-01-01T01:31:15.000Z</time>
      </trkpt>
      <trkpt lat="42.659712" lon="0.650801">
        <ele>2646.9</ele>
        <time>1970-01-01T01:31:16.000Z</time>
      </trkpt>
      <trkpt lat="42.659712" lon="0.650797">
        <ele>2646.9</ele>
        <time>1970-01-01T01:31:18.000Z</time>
      </trkpt>
      <trkpt lat="42.659712" lon="0.650793">
        <ele>2646.9</ele>
        <time>1970-01-01T01:31:19.000Z</time>
      </trkpt>
      <trkpt lat="42.659712" lon="0.65079">
        <ele>2646.9</ele>
        <time>1970-01-01T01:31:20.000Z</time>
      </trkpt>
      <trkpt lat="42.659712" lon="0.650785">
        <ele>2646.9</ele>
        <time>1970-01-01T01:31:21.000Z</time>
      </trkpt>
      <trkpt lat="42.659712" lon="0.650781">
        <ele>2646.9</ele>
        <time>1970-01-01T01:31:22.000Z</time>
      </trkpt>
      <trkpt lat="42.659713" lon="0.650777">
        <ele>2646.9</ele>
        <time>1970-01-01T01:31:23.000Z</time>
      </trkpt>
      <trkpt lat="42.659713" lon="0.650771">
        <ele>2646.9</ele>
        <time>1970-01-01T01:31:24.000Z</time>
      </trkpt>
      <trkpt lat="42.659712" lon="0.650766">
        <ele>2646.2</ele>
        <time>1970-01-01T01:31:25.000Z</time>
      </trkpt>
      <trkpt lat="42.659711" lon="0.650756">
        <ele>2646.2</ele>
        <time>1970-01-01T01:31:26.000Z</time>
      </trkpt>
      <trkpt lat="42.659711" lon="0.650746">
        <ele>2646.2</ele>
        <time>1970-01-01T01:31:27.000Z</time>
      </trkpt>
      <trkpt lat="42.659709" lon="0.650735">
        <ele>2646.2</ele>
        <time>1970-01-01T01:31:28.000Z</time>
      </trkpt>
      <trkpt lat="42.659707" lon="0.650726">
        <ele>2646.2</ele>
        <time>1970-01-01T01:31:29.000Z</time>
      </trkpt>
      <trkpt lat="42.659704" lon="0.650719">
        <ele>2645.6</ele>
        <time>1970-01-01T01:31:30.000Z</time>
      </trkpt>
      <trkpt lat="42.659701" lon="0.650709">
        <ele>2645.6</ele>
        <time>1970-01-01T01:31:31.000Z</time>
      </trkpt>
      <trkpt lat="42.659699" lon="0.650699">
        <ele>2645.6</ele>
        <time>1970-01-01T01:31:33.000Z</time>
      </trkpt>
      <trkpt lat="42.659698" lon="0.650694">
        <ele>2645.6</ele>
        <time>1970-01-01T01:31:34.000Z</time>
      </trkpt>
      <trkpt lat="42.659697" lon="0.650689">
        <ele>2645.6</ele>
        <time>1970-01-01T01:31:35.000Z</time>
      </trkpt>
      <trkpt lat="42.659694" lon="0.650682">
        <ele>2644.9</ele>
        <time>1970-01-01T01:31:36.000Z</time>
      </trkpt>
      <trkpt lat="42.659692" lon="0.650674">
        <ele>2644.9</ele>
        <time>1970-01-01T01:31:37.000Z</time>
      </trkpt>
      <trkpt lat="42.659691" lon="0.650669">
        <ele>2644.9</ele>
        <time>1970-01-01T01:31:38.000Z</time>
      </trkpt>
      <trkpt lat="42.659689" lon="0.650655">
        <ele>2644.9</ele>
        <time>1970-01-01T01:31:40.000Z</time>
      </trkpt>
      <trkpt lat="42.659684" lon="0.650648">
        <ele>2646.9</ele>
        <time>1970-01-01T01:31:41.000Z</time>
      </trkpt>
      <trkpt lat="42.659678" lon="0.650643">
        <ele>2646.9</ele>
        <time>1970-01-01T01:31:42.000Z</time>
      </trkpt>
      <trkpt lat="42.65967" lon="0.650641">
        <ele>2646.9</ele>
        <time>1970-01-01T01:31:43.000Z</time>
      </trkpt>
      <trkpt lat="42.659663" lon="0.650635">
        <ele>2646.2</ele>
        <time>1970-01-01T01:31:45.000Z</time>
      </trkpt>
      <trkpt lat="42.659658" lon="0.650626">
        <ele>2646.2</ele>
        <time>1970-01-01T01:31:46.000Z</time>
      </trkpt>
      <trkpt lat="42.659653" lon="0.65062">
        <ele>2648.2</ele>
        <time>1970-01-01T01:31:47.000Z</time>
      </trkpt>
      <trkpt lat="42.65965" lon="0.650616">
        <ele>2648.2</ele>
        <time>1970-01-01T01:31:48.000Z</time>
      </trkpt>
      <trkpt lat="42.659647" lon="0.650612">
        <ele>2648.2</ele>
        <time>1970-01-01T01:31:49.000Z</time>
      </trkpt>
      <trkpt lat="42.65964" lon="0.650604">
        <ele>2648.2</ele>
        <time>1970-01-01T01:31:51.000Z</time>
      </trkpt>
      <trkpt lat="42.659634" lon="0.6506">
        <ele>2648.2</ele>
        <time>1970-01-01T01:31:52.000Z</time>
      </trkpt>
      <trkpt lat="42.65963" lon="0.650598">
        <ele>2648.2</ele>
        <time>1970-01-01T01:31:53.000Z</time>
      </trkpt>
      <trkpt lat="42.659625" lon="0.650596">
        <ele>2647.5</ele>
        <time>1970-01-01T01:31:54.000Z</time>
      </trkpt>
      <trkpt lat="42.659623" lon="0.650596">
        <ele>2647.5</ele>
        <time>1970-01-01T01:31:55.000Z</time>
      </trkpt>
      <trkpt lat="42.659619" lon="0.650592">
        <ele>2649.3</ele>
        <time>1970-01-01T01:31:57.000Z</time>
      </trkpt>
      <trkpt lat="42.659618" lon="0.650591">
        <ele>2649.3</ele>
        <time>1970-01-01T01:31:58.000Z</time>
      </trkpt>
      <trkpt lat="42.659618" lon="0.65059">
        <ele>2649.3</ele>
        <time>1970-01-01T01:31:59.000Z</time>
      </trkpt>
      <trkpt lat="42.659615" lon="0.650589">
        <ele>2649.3</ele>
        <time>1970-01-01T01:32:00.000Z</time>
      </trkpt>
      <trkpt lat="42.659611" lon="0.650586">
        <ele>2649.3</ele>
        <time>1970-01-01T01:32:02.000Z</time>
      </trkpt>
      <trkpt lat="42.659606" lon="0.650581">
        <ele>2649.3</ele>
        <time>1970-01-01T01:32:03.000Z</time>
      </trkpt>
      <trkpt lat="42.659599" lon="0.650579">
        <ele>2649.3</ele>
        <time>1970-01-01T01:32:04.000Z</time>
      </trkpt>
      <trkpt lat="42.65959" lon="0.65058">
        <ele>2651</ele>
        <time>1970-01-01T01:32:06.000Z</time>
      </trkpt>
      <trkpt lat="42.659584" lon="0.650582">
        <ele>2651</ele>
        <time>1970-01-01T01:32:07.000Z</time>
      </trkpt>
      <trkpt lat="42.659581" lon="0.650583">
        <ele>2651</ele>
        <time>1970-01-01T01:32:08.000Z</time>
      </trkpt>
      <trkpt lat="42.659576" lon="0.650585">
        <ele>2651</ele>
        <time>1970-01-01T01:32:09.000Z</time>
      </trkpt>
      <trkpt lat="42.659571" lon="0.650587">
        <ele>2651</ele>
        <time>1970-01-01T01:32:10.000Z</time>
      </trkpt>
      <trkpt lat="42.659566" lon="0.650588">
        <ele>2651</ele>
        <time>1970-01-01T01:32:11.000Z</time>
      </trkpt>
      <trkpt lat="42.659561" lon="0.65059">
        <ele>2651</ele>
        <time>1970-01-01T01:32:12.000Z</time>
      </trkpt>
      <trkpt lat="42.659553" lon="0.650591">
        <ele>2652.8</ele>
        <time>1970-01-01T01:32:14.000Z</time>
      </trkpt>
      <trkpt lat="42.659547" lon="0.650591">
        <ele>2652.8</ele>
        <time>1970-01-01T01:32:15.000Z</time>
      </trkpt>
      <trkpt lat="42.659541" lon="0.650589">
        <ele>2652.8</ele>
        <time>1970-01-01T01:32:17.000Z</time>
      </trkpt>
      <trkpt lat="42.659535" lon="0.650586">
        <ele>2652.8</ele>
        <time>1970-01-01T01:32:18.000Z</time>
      </trkpt>
      <trkpt lat="42.659531" lon="0.650583">
        <ele>2652.8</ele>
        <time>1970-01-01T01:32:19.000Z</time>
      </trkpt>
      <trkpt lat="42.659528" lon="0.65058">
        <ele>2652.8</ele>
        <time>1970-01-01T01:32:20.000Z</time>
      </trkpt>
      <trkpt lat="42.659525" lon="0.650579">
        <ele>2654.7</ele>
        <time>1970-01-01T01:32:21.000Z</time>
      </trkpt>
      <trkpt lat="42.659522" lon="0.650578">
        <ele>2654.7</ele>
        <time>1970-01-01T01:32:22.000Z</time>
      </trkpt>
      <trkpt lat="42.659519" lon="0.650577">
        <ele>2654.7</ele>
        <time>1970-01-01T01:32:23.000Z</time>
      </trkpt>
      <trkpt lat="42.659517" lon="0.650577">
        <ele>2654.7</ele>
        <time>1970-01-01T01:32:24.000Z</time>
      </trkpt>
      <trkpt lat="42.659517" lon="0.65058">
        <ele>2654.7</ele>
        <time>1970-01-01T01:32:25.000Z</time>
      </trkpt>
      <trkpt lat="42.659519" lon="0.650586">
        <ele>2654.7</ele>
        <time>1970-01-01T01:32:26.000Z</time>
      </trkpt>
      <trkpt lat="42.659517" lon="0.650592">
        <ele>2654.7</ele>
        <time>1970-01-01T01:32:28.000Z</time>
      </trkpt>
      <trkpt lat="42.659516" lon="0.650597">
        <ele>2655.4</ele>
        <time>1970-01-01T01:32:29.000Z</time>
      </trkpt>
      <trkpt lat="42.659514" lon="0.650602">
        <ele>2655.4</ele>
        <time>1970-01-01T01:32:30.000Z</time>
      </trkpt>
      <trkpt lat="42.659511" lon="0.650608">
        <ele>2655.4</ele>
        <time>1970-01-01T01:32:31.000Z</time>
      </trkpt>
      <trkpt lat="42.659504" lon="0.650616">
        <ele>2655.4</ele>
        <time>1970-01-01T01:32:33.000Z</time>
      </trkpt>
      <trkpt lat="42.659498" lon="0.650621">
        <ele>2655.4</ele>
        <time>1970-01-01T01:32:34.000Z</time>
      </trkpt>
      <trkpt lat="42.659496" lon="0.65062">
        <ele>2655.4</ele>
        <time>1970-01-01T01:32:35.000Z</time>
      </trkpt>
      <trkpt lat="42.659489" lon="0.650619">
        <ele>2657.4</ele>
        <time>1970-01-01T01:32:36.000Z</time>
      </trkpt>
      <trkpt lat="42.659486" lon="0.650619">
        <ele>2657.4</ele>
        <time>1970-01-01T01:32:37.000Z</time>
      </trkpt>
      <trkpt lat="42.659485" lon="0.650618">
        <ele>2657.4</ele>
        <time>1970-01-01T01:32:38.000Z</time>
      </trkpt>
      <trkpt lat="42.659484" lon="0.650617">
        <ele>2657.4</ele>
        <time>1970-01-01T01:32:39.000Z</time>
      </trkpt>
      <trkpt lat="42.659482" lon="0.650614">
        <ele>2657.4</ele>
        <time>1970-01-01T01:32:40.000Z</time>
      </trkpt>
      <trkpt lat="42.659479" lon="0.650613">
        <ele>2657.4</ele>
        <time>1970-01-01T01:32:41.000Z</time>
      </trkpt>
      <trkpt lat="42.659477" lon="0.650612">
        <ele>2657.4</ele>
        <time>1970-01-01T01:32:42.000Z</time>
      </trkpt>
      <trkpt lat="42.659473" lon="0.650612">
        <ele>2657.4</ele>
        <time>1970-01-01T01:32:43.000Z</time>
      </trkpt>
      <trkpt lat="42.659469" lon="0.650612">
        <ele>2657.4</ele>
        <time>1970-01-01T01:32:44.000Z</time>
      </trkpt>
      <trkpt lat="42.659465" lon="0.650612">
        <ele>2657.4</ele>
        <time>1970-01-01T01:32:45.000Z</time>
      </trkpt>
      <trkpt lat="42.659461" lon="0.650612">
        <ele>2659.5</ele>
        <time>1970-01-01T01:32:46.000Z</time>
      </trkpt>
      <trkpt lat="42.659455" lon="0.650613">
        <ele>2659.5</ele>
        <time>1970-01-01T01:32:47.000Z</time>
      </trkpt>
      <trkpt lat="42.659449" lon="0.650615">
        <ele>2659.5</ele>
        <time>1970-01-01T01:32:48.000Z</time>
      </trkpt>
      <trkpt lat="42.659445" lon="0.650617">
        <ele>2659.5</ele>
        <time>1970-01-01T01:32:49.000Z</time>
      </trkpt>
      <trkpt lat="42.659442" lon="0.650617">
        <ele>2659.5</ele>
        <time>1970-01-01T01:32:50.000Z</time>
      </trkpt>
      <trkpt lat="42.659439" lon="0.650618">
        <ele>2659.5</ele>
        <time>1970-01-01T01:32:51.000Z</time>
      </trkpt>
      <trkpt lat="42.659435" lon="0.650619">
        <ele>2659.5</ele>
        <time>1970-01-01T01:32:52.000Z</time>
      </trkpt>
      <trkpt lat="42.659428" lon="0.650623">
        <ele>2661.6</ele>
        <time>1970-01-01T01:32:54.000Z</time>
      </trkpt>
      <trkpt lat="42.659425" lon="0.650625">
        <ele>2661.6</ele>
        <time>1970-01-01T01:32:55.000Z</time>
      </trkpt>
      <trkpt lat="42.659423" lon="0.650627">
        <ele>2661.6</ele>
        <time>1970-01-01T01:32:56.000Z</time>
      </trkpt>
      <trkpt lat="42.659421" lon="0.650629">
        <ele>2661.6</ele>
        <time>1970-01-01T01:32:57.000Z</time>
      </trkpt>
      <trkpt lat="42.659419" lon="0.65063">
        <ele>2661.6</ele>
        <time>1970-01-01T01:32:58.000Z</time>
      </trkpt>
      <trkpt lat="42.659418" lon="0.650632">
        <ele>2661.6</ele>
        <time>1970-01-01T01:32:59.000Z</time>
      </trkpt>
      <trkpt lat="42.659417" lon="0.650634">
        <ele>2661.6</ele>
        <time>1970-01-01T01:33:00.000Z</time>
      </trkpt>
      <trkpt lat="42.659415" lon="0.650636">
        <ele>2661.6</ele>
        <time>1970-01-01T01:33:01.000Z</time>
      </trkpt>
      <trkpt lat="42.659412" lon="0.650637">
        <ele>2661.6</ele>
        <time>1970-01-01T01:33:02.000Z</time>
      </trkpt>
      <trkpt lat="42.659409" lon="0.650638">
        <ele>2661.6</ele>
        <time>1970-01-01T01:33:03.000Z</time>
      </trkpt>
      <trkpt lat="42.659405" lon="0.650639">
        <ele>2661.6</ele>
        <time>1970-01-01T01:33:04.000Z</time>
      </trkpt>
      <trkpt lat="42.659401" lon="0.650639">
        <ele>2663.6</ele>
        <time>1970-01-01T01:33:05.000Z</time>
      </trkpt>
      <trkpt lat="42.659396" lon="0.65064">
        <ele>2664.3</ele>
        <time>1970-01-01T01:33:06.000Z</time>
      </trkpt>
      <trkpt lat="42.659394" lon="0.650641">
        <ele>2664.3</ele>
        <time>1970-01-01T01:33:07.000Z</time>
      </trkpt>
      <trkpt lat="42.659393" lon="0.650641">
        <ele>2664.3</ele>
        <time>1970-01-01T01:33:08.000Z</time>
      </trkpt>
      <trkpt lat="42.659392" lon="0.650641">
        <ele>2664.3</ele>
        <time>1970-01-01T01:33:09.000Z</time>
      </trkpt>
      <trkpt lat="42.659389" lon="0.650642">
        <ele>2664.3</ele>
        <time>1970-01-01T01:33:10.000Z</time>
      </trkpt>
      <trkpt lat="42.659387" lon="0.650643">
        <ele>2664.3</ele>
        <time>1970-01-01T01:33:11.000Z</time>
      </trkpt>
      <trkpt lat="42.659385" lon="0.650643">
        <ele>2664.3</ele>
        <time>1970-01-01T01:33:12.000Z</time>
      </trkpt>
      <trkpt lat="42.659384" lon="0.650643">
        <ele>2664.3</ele>
        <time>1970-01-01T01:33:13.000Z</time>
      </trkpt>
      <trkpt lat="42.659381" lon="0.650643">
        <ele>2664.3</ele>
        <time>1970-01-01T01:33:14.000Z</time>
      </trkpt>
      <trkpt lat="42.659378" lon="0.650642">
        <ele>2664.3</ele>
        <time>1970-01-01T01:33:15.000Z</time>
      </trkpt>
      <trkpt lat="42.659373" lon="0.650642">
        <ele>2664.3</ele>
        <time>1970-01-01T01:33:17.000Z</time>
      </trkpt>
      <trkpt lat="42.65937" lon="0.650643">
        <ele>2664.3</ele>
        <time>1970-01-01T01:33:18.000Z</time>
      </trkpt>
      <trkpt lat="42.659364" lon="0.650645">
        <ele>2666.1</ele>
        <time>1970-01-01T01:33:19.000Z</time>
      </trkpt>
      <trkpt lat="42.659359" lon="0.650647">
        <ele>2666.1</ele>
        <time>1970-01-01T01:33:20.000Z</time>
      </trkpt>
      <trkpt lat="42.659353" lon="0.650647">
        <ele>2666.1</ele>
        <time>1970-01-01T01:33:21.000Z</time>
      </trkpt>
      <trkpt lat="42.659349" lon="0.650645">
        <ele>2666.1</ele>
        <time>1970-01-01T01:33:22.000Z</time>
      </trkpt>
      <trkpt lat="42.659345" lon="0.650642">
        <ele>2666.1</ele>
        <time>1970-01-01T01:33:23.000Z</time>
      </trkpt>
      <trkpt lat="42.659341" lon="0.650638">
        <ele>2665.4</ele>
        <time>1970-01-01T01:33:25.000Z</time>
      </trkpt>
      <trkpt lat="42.659338" lon="0.650636">
        <ele>2665.4</ele>
        <time>1970-01-01T01:33:26.000Z</time>
      </trkpt>
      <trkpt lat="42.659333" lon="0.650634">
        <ele>2667.1</ele>
        <time>1970-01-01T01:33:27.000Z</time>
      </trkpt>
      <trkpt lat="42.65933" lon="0.650632">
        <ele>2667.1</ele>
        <time>1970-01-01T01:33:28.000Z</time>
      </trkpt>
      <trkpt lat="42.659326" lon="0.65063">
        <ele>2667.1</ele>
        <time>1970-01-01T01:33:29.000Z</time>
      </trkpt>
      <trkpt lat="42.659321" lon="0.650628">
        <ele>2667.1</ele>
        <time>1970-01-01T01:33:30.000Z</time>
      </trkpt>
      <trkpt lat="42.659317" lon="0.650627">
        <ele>2667.1</ele>
        <time>1970-01-01T01:33:31.000Z</time>
      </trkpt>
      <trkpt lat="42.659312" lon="0.650623">
        <ele>2667.1</ele>
        <time>1970-01-01T01:33:33.000Z</time>
      </trkpt>
      <trkpt lat="42.659306" lon="0.650618">
        <ele>2668.9</ele>
        <time>1970-01-01T01:33:34.000Z</time>
      </trkpt>
      <trkpt lat="42.659301" lon="0.650615">
        <ele>2668.9</ele>
        <time>1970-01-01T01:33:35.000Z</time>
      </trkpt>
      <trkpt lat="42.659298" lon="0.650614">
        <ele>2668.9</ele>
        <time>1970-01-01T01:33:36.000Z</time>
      </trkpt>
      <trkpt lat="42.65929" lon="0.650614">
        <ele>2668.9</ele>
        <time>1970-01-01T01:33:38.000Z</time>
      </trkpt>
      <trkpt lat="42.659286" lon="0.650614">
        <ele>2668.9</ele>
        <time>1970-01-01T01:33:39.000Z</time>
      </trkpt>
      <trkpt lat="42.659281" lon="0.650615">
        <ele>2668.9</ele>
        <time>1970-01-01T01:33:40.000Z</time>
      </trkpt>
      <trkpt lat="42.659278" lon="0.65062">
        <ele>2668.9</ele>
        <time>1970-01-01T01:33:41.000Z</time>
      </trkpt>
      <trkpt lat="42.659275" lon="0.650623">
        <ele>2668.9</ele>
        <time>1970-01-01T01:33:42.000Z</time>
      </trkpt>
      <trkpt lat="42.659272" lon="0.650625">
        <ele>2670.6</ele>
        <time>1970-01-01T01:33:43.000Z</time>
      </trkpt>
      <trkpt lat="42.659269" lon="0.650628">
        <ele>2670.6</ele>
        <time>1970-01-01T01:33:44.000Z</time>
      </trkpt>
      <trkpt lat="42.659264" lon="0.650631">
        <ele>2670.6</ele>
        <time>1970-01-01T01:33:45.000Z</time>
      </trkpt>
      <trkpt lat="42.65926" lon="0.650633">
        <ele>2670.6</ele>
        <time>1970-01-01T01:33:46.000Z</time>
      </trkpt>
      <trkpt lat="42.659252" lon="0.650633">
        <ele>2670.6</ele>
        <time>1970-01-01T01:33:48.000Z</time>
      </trkpt>
      <trkpt lat="42.659249" lon="0.650635">
        <ele>2670.6</ele>
        <time>1970-01-01T01:33:49.000Z</time>
      </trkpt>
      <trkpt lat="42.659244" lon="0.650638">
        <ele>2670.6</ele>
        <time>1970-01-01T01:33:50.000Z</time>
      </trkpt>
      <trkpt lat="42.65924" lon="0.650641">
        <ele>2673.2</ele>
        <time>1970-01-01T01:33:51.000Z</time>
      </trkpt>
      <trkpt lat="42.659235" lon="0.650646">
        <ele>2673.2</ele>
        <time>1970-01-01T01:33:52.000Z</time>
      </trkpt>
      <trkpt lat="42.65923" lon="0.650653">
        <ele>2673.2</ele>
        <time>1970-01-01T01:33:54.000Z</time>
      </trkpt>
      <trkpt lat="42.659225" lon="0.650658">
        <ele>2673.2</ele>
        <time>1970-01-01T01:33:55.000Z</time>
      </trkpt>
      <trkpt lat="42.659217" lon="0.650664">
        <ele>2673.2</ele>
        <time>1970-01-01T01:33:56.000Z</time>
      </trkpt>
      <trkpt lat="42.659213" lon="0.650666">
        <ele>2673.2</ele>
        <time>1970-01-01T01:33:57.000Z</time>
      </trkpt>
      <trkpt lat="42.659208" lon="0.650667">
        <ele>2675.1</ele>
        <time>1970-01-01T01:33:58.000Z</time>
      </trkpt>
      <trkpt lat="42.659204" lon="0.650668">
        <ele>2675.1</ele>
        <time>1970-01-01T01:33:59.000Z</time>
      </trkpt>
      <trkpt lat="42.659199" lon="0.650668">
        <ele>2675.1</ele>
        <time>1970-01-01T01:34:00.000Z</time>
      </trkpt>
      <trkpt lat="42.659195" lon="0.650669">
        <ele>2675.1</ele>
        <time>1970-01-01T01:34:01.000Z</time>
      </trkpt>
      <trkpt lat="42.659191" lon="0.65067">
        <ele>2675.1</ele>
        <time>1970-01-01T01:34:02.000Z</time>
      </trkpt>
      <trkpt lat="42.659187" lon="0.650672">
        <ele>2675.1</ele>
        <time>1970-01-01T01:34:03.000Z</time>
      </trkpt>
      <trkpt lat="42.659183" lon="0.650674">
        <ele>2675.1</ele>
        <time>1970-01-01T01:34:04.000Z</time>
      </trkpt>
      <trkpt lat="42.65918" lon="0.650675">
        <ele>2677</ele>
        <time>1970-01-01T01:34:05.000Z</time>
      </trkpt>
      <trkpt lat="42.659176" lon="0.650674">
        <ele>2677</ele>
        <time>1970-01-01T01:34:06.000Z</time>
      </trkpt>
      <trkpt lat="42.659174" lon="0.650673">
        <ele>2677</ele>
        <time>1970-01-01T01:34:07.000Z</time>
      </trkpt>
      <trkpt lat="42.659173" lon="0.650671">
        <ele>2677</ele>
        <time>1970-01-01T01:34:08.000Z</time>
      </trkpt>
      <trkpt lat="42.659171" lon="0.650669">
        <ele>2677</ele>
        <time>1970-01-01T01:34:09.000Z</time>
      </trkpt>
      <trkpt lat="42.659168" lon="0.650668">
        <ele>2677</ele>
        <time>1970-01-01T01:34:10.000Z</time>
      </trkpt>
      <trkpt lat="42.659166" lon="0.650666">
        <ele>2677</ele>
        <time>1970-01-01T01:34:11.000Z</time>
      </trkpt>
      <trkpt lat="42.659164" lon="0.650664">
        <ele>2677</ele>
        <time>1970-01-01T01:34:12.000Z</time>
      </trkpt>
      <trkpt lat="42.659162" lon="0.650663">
        <ele>2677</ele>
        <time>1970-01-01T01:34:13.000Z</time>
      </trkpt>
      <trkpt lat="42.65916" lon="0.650662">
        <ele>2677</ele>
        <time>1970-01-01T01:34:14.000Z</time>
      </trkpt>
      <trkpt lat="42.659157" lon="0.650661">
        <ele>2677</ele>
        <time>1970-01-01T01:34:15.000Z</time>
      </trkpt>
      <trkpt lat="42.659153" lon="0.650659">
        <ele>2677</ele>
        <time>1970-01-01T01:34:16.000Z</time>
      </trkpt>
      <trkpt lat="42.659149" lon="0.650657">
        <ele>2677</ele>
        <time>1970-01-01T01:34:17.000Z</time>
      </trkpt>
      <trkpt lat="42.659146" lon="0.650656">
        <ele>2678.8</ele>
        <time>1970-01-01T01:34:18.000Z</time>
      </trkpt>
      <trkpt lat="42.659143" lon="0.650654">
        <ele>2678.8</ele>
        <time>1970-01-01T01:34:19.000Z</time>
      </trkpt>
      <trkpt lat="42.659137" lon="0.650653">
        <ele>2678.8</ele>
        <time>1970-01-01T01:34:20.000Z</time>
      </trkpt>
      <trkpt lat="42.659132" lon="0.650653">
        <ele>2678.8</ele>
        <time>1970-01-01T01:34:21.000Z</time>
      </trkpt>
      <trkpt lat="42.659129" lon="0.650653">
        <ele>2678.8</ele>
        <time>1970-01-01T01:34:22.000Z</time>
      </trkpt>
      <trkpt lat="42.659128" lon="0.650655">
        <ele>2678.8</ele>
        <time>1970-01-01T01:34:23.000Z</time>
      </trkpt>
      <trkpt lat="42.659127" lon="0.650656">
        <ele>2678.8</ele>
        <time>1970-01-01T01:34:24.000Z</time>
      </trkpt>
      <trkpt lat="42.659126" lon="0.650657">
        <ele>2678.8</ele>
        <time>1970-01-01T01:34:25.000Z</time>
      </trkpt>
      <trkpt lat="42.659126" lon="0.650657">
        <ele>2678.8</ele>
        <time>1970-01-01T01:34:26.000Z</time>
      </trkpt>
      <trkpt lat="42.659124" lon="0.650657">
        <ele>2678.8</ele>
        <time>1970-01-01T01:34:27.000Z</time>
      </trkpt>
      <trkpt lat="42.659123" lon="0.650659">
        <ele>2678.8</ele>
        <time>1970-01-01T01:34:28.000Z</time>
      </trkpt>
      <trkpt lat="42.659123" lon="0.65066">
        <ele>2678.8</ele>
        <time>1970-01-01T01:34:29.000Z</time>
      </trkpt>
      <trkpt lat="42.659121" lon="0.65066">
        <ele>2678.8</ele>
        <time>1970-01-01T01:34:30.000Z</time>
      </trkpt>
      <trkpt lat="42.659118" lon="0.650659">
        <ele>2678.8</ele>
        <time>1970-01-01T01:34:31.000Z</time>
      </trkpt>
      <trkpt lat="42.659116" lon="0.65066">
        <ele>2680.6</ele>
        <time>1970-01-01T01:34:32.000Z</time>
      </trkpt>
      <trkpt lat="42.659115" lon="0.65066">
        <ele>2680.6</ele>
        <time>1970-01-01T01:34:33.000Z</time>
      </trkpt>
      <trkpt lat="42.659114" lon="0.65066">
        <ele>2680.6</ele>
        <time>1970-01-01T01:34:34.000Z</time>
      </trkpt>
      <trkpt lat="42.659113" lon="0.650659">
        <ele>2680.6</ele>
        <time>1970-01-01T01:34:36.000Z</time>
      </trkpt>
      <trkpt lat="42.659111" lon="0.650658">
        <ele>2680.6</ele>
        <time>1970-01-01T01:34:37.000Z</time>
      </trkpt>
      <trkpt lat="42.659108" lon="0.650656">
        <ele>2680.6</ele>
        <time>1970-01-01T01:34:38.000Z</time>
      </trkpt>
      <trkpt lat="42.659105" lon="0.650655">
        <ele>2680.6</ele>
        <time>1970-01-01T01:34:39.000Z</time>
      </trkpt>
      <trkpt lat="42.659102" lon="0.650655">
        <ele>2680.6</ele>
        <time>1970-01-01T01:34:40.000Z</time>
      </trkpt>
      <trkpt lat="42.659099" lon="0.650655">
        <ele>2680.6</ele>
        <time>1970-01-01T01:34:41.000Z</time>
      </trkpt>
      <trkpt lat="42.659095" lon="0.650657">
        <ele>2680.6</ele>
        <time>1970-01-01T01:34:42.000Z</time>
      </trkpt>
      <trkpt lat="42.659092" lon="0.650657">
        <ele>2680.6</ele>
        <time>1970-01-01T01:34:43.000Z</time>
      </trkpt>
      <trkpt lat="42.659089" lon="0.650658">
        <ele>2680.6</ele>
        <time>1970-01-01T01:34:44.000Z</time>
      </trkpt>
      <trkpt lat="42.659085" lon="0.65066">
        <ele>2682.2</ele>
        <time>1970-01-01T01:34:45.000Z</time>
      </trkpt>
      <trkpt lat="42.659082" lon="0.650662">
        <ele>2682.2</ele>
        <time>1970-01-01T01:34:46.000Z</time>
      </trkpt>
      <trkpt lat="42.659079" lon="0.650663">
        <ele>2682.2</ele>
        <time>1970-01-01T01:34:47.000Z</time>
      </trkpt>
      <trkpt lat="42.659077" lon="0.650663">
        <ele>2682.2</ele>
        <time>1970-01-01T01:34:48.000Z</time>
      </trkpt>
      <trkpt lat="42.659074" lon="0.650661">
        <ele>2682.2</ele>
        <time>1970-01-01T01:34:49.000Z</time>
      </trkpt>
      <trkpt lat="42.659071" lon="0.650659">
        <ele>2682.2</ele>
        <time>1970-01-01T01:34:50.000Z</time>
      </trkpt>
      <trkpt lat="42.659067" lon="0.650655">
        <ele>2682.2</ele>
        <time>1970-01-01T01:34:51.000Z</time>
      </trkpt>
      <trkpt lat="42.659063" lon="0.650651">
        <ele>2682.2</ele>
        <time>1970-01-01T01:34:52.000Z</time>
      </trkpt>
      <trkpt lat="42.659057" lon="0.65065">
        <ele>2682.2</ele>
        <time>1970-01-01T01:34:54.000Z</time>
      </trkpt>
      <trkpt lat="42.659051" lon="0.650651">
        <ele>2683.8</ele>
        <time>1970-01-01T01:34:55.000Z</time>
      </trkpt>
      <trkpt lat="42.659046" lon="0.650651">
        <ele>2683.8</ele>
        <time>1970-01-01T01:34:56.000Z</time>
      </trkpt>
      <trkpt lat="42.659043" lon="0.65065">
        <ele>2683.8</ele>
        <time>1970-01-01T01:34:57.000Z</time>
      </trkpt>
      <trkpt lat="42.65904" lon="0.650647">
        <ele>2683.8</ele>
        <time>1970-01-01T01:34:59.000Z</time>
      </trkpt>
      <trkpt lat="42.659038" lon="0.650643">
        <ele>2683.8</ele>
        <time>1970-01-01T01:35:00.000Z</time>
      </trkpt>
      <trkpt lat="42.659035" lon="0.650638">
        <ele>2683.2</ele>
        <time>1970-01-01T01:35:01.000Z</time>
      </trkpt>
      <trkpt lat="42.659032" lon="0.650633">
        <ele>2683.2</ele>
        <time>1970-01-01T01:35:02.000Z</time>
      </trkpt>
      <trkpt lat="42.65903" lon="0.650629">
        <ele>2683.2</ele>
        <time>1970-01-01T01:35:03.000Z</time>
      </trkpt>
      <trkpt lat="42.659027" lon="0.650624">
        <ele>2683.2</ele>
        <time>1970-01-01T01:35:04.000Z</time>
      </trkpt>
      <trkpt lat="42.659026" lon="0.650622">
        <ele>2683.2</ele>
        <time>1970-01-01T01:35:05.000Z</time>
      </trkpt>
      <trkpt lat="42.659026" lon="0.650618">
        <ele>2683.2</ele>
        <time>1970-01-01T01:35:06.000Z</time>
      </trkpt>
      <trkpt lat="42.659024" lon="0.650614">
        <ele>2683.2</ele>
        <time>1970-01-01T01:35:07.000Z</time>
      </trkpt>
      <trkpt lat="42.659021" lon="0.650608">
        <ele>2684.9</ele>
        <time>1970-01-01T01:35:09.000Z</time>
      </trkpt>
      <trkpt lat="42.659016" lon="0.650604">
        <ele>2684.9</ele>
        <time>1970-01-01T01:35:10.000Z</time>
      </trkpt>
      <trkpt lat="42.659012" lon="0.650599">
        <ele>2684.9</ele>
        <time>1970-01-01T01:35:11.000Z</time>
      </trkpt>
      <trkpt lat="42.659008" lon="0.650593">
        <ele>2684.3</ele>
        <time>1970-01-01T01:35:13.000Z</time>
      </trkpt>
      <trkpt lat="42.659" lon="0.650585">
        <ele>2684.3</ele>
        <time>1970-01-01T01:35:15.000Z</time>
      </trkpt>
      <trkpt lat="42.658996" lon="0.650581">
        <ele>2684.3</ele>
        <time>1970-01-01T01:35:16.000Z</time>
      </trkpt>
      <trkpt lat="42.658993" lon="0.650577">
        <ele>2684.3</ele>
        <time>1970-01-01T01:35:17.000Z</time>
      </trkpt>
      <trkpt lat="42.658991" lon="0.650575">
        <ele>2684.3</ele>
        <time>1970-01-01T01:35:18.000Z</time>
      </trkpt>
      <trkpt lat="42.658989" lon="0.650575">
        <ele>2685.9</ele>
        <time>1970-01-01T01:35:19.000Z</time>
      </trkpt>
      <trkpt lat="42.658986" lon="0.650573">
        <ele>2685.9</ele>
        <time>1970-01-01T01:35:20.000Z</time>
      </trkpt>
      <trkpt lat="42.658983" lon="0.650568">
        <ele>2685.9</ele>
        <time>1970-01-01T01:35:21.000Z</time>
      </trkpt>
      <trkpt lat="42.658982" lon="0.650565">
        <ele>2685.9</ele>
        <time>1970-01-01T01:35:22.000Z</time>
      </trkpt>
      <trkpt lat="42.658977" lon="0.650562">
        <ele>2685.9</ele>
        <time>1970-01-01T01:35:24.000Z</time>
      </trkpt>
      <trkpt lat="42.658972" lon="0.650554">
        <ele>2685.9</ele>
        <time>1970-01-01T01:35:25.000Z</time>
      </trkpt>
      <trkpt lat="42.658969" lon="0.650549">
        <ele>2685.3</ele>
        <time>1970-01-01T01:35:26.000Z</time>
      </trkpt>
      <trkpt lat="42.658966" lon="0.65054">
        <ele>2685.3</ele>
        <time>1970-01-01T01:35:27.000Z</time>
      </trkpt>
      <trkpt lat="42.658959" lon="0.650531">
        <ele>2686.9</ele>
        <time>1970-01-01T01:35:29.000Z</time>
      </trkpt>
      <trkpt lat="42.658955" lon="0.650527">
        <ele>2686.9</ele>
        <time>1970-01-01T01:35:30.000Z</time>
      </trkpt>
      <trkpt lat="42.658947" lon="0.650521">
        <ele>2686.9</ele>
        <time>1970-01-01T01:35:32.000Z</time>
      </trkpt>
      <trkpt lat="42.658943" lon="0.650518">
        <ele>2686.9</ele>
        <time>1970-01-01T01:35:33.000Z</time>
      </trkpt>
      <trkpt lat="42.658938" lon="0.650514">
        <ele>2686.9</ele>
        <time>1970-01-01T01:35:34.000Z</time>
      </trkpt>
      <trkpt lat="42.658933" lon="0.650509">
        <ele>2686.3</ele>
        <time>1970-01-01T01:35:35.000Z</time>
      </trkpt>
      <trkpt lat="42.658926" lon="0.6505">
        <ele>2688</ele>
        <time>1970-01-01T01:35:37.000Z</time>
      </trkpt>
      <trkpt lat="42.65892" lon="0.650494">
        <ele>2688</ele>
        <time>1970-01-01T01:35:38.000Z</time>
      </trkpt>
      <trkpt lat="42.658913" lon="0.650488">
        <ele>2688</ele>
        <time>1970-01-01T01:35:40.000Z</time>
      </trkpt>
      <trkpt lat="42.658909" lon="0.650484">
        <ele>2688</ele>
        <time>1970-01-01T01:35:41.000Z</time>
      </trkpt>
      <trkpt lat="42.658903" lon="0.650479">
        <ele>2688</ele>
        <time>1970-01-01T01:35:42.000Z</time>
      </trkpt>
      <trkpt lat="42.6589" lon="0.650477">
        <ele>2688</ele>
        <time>1970-01-01T01:35:43.000Z</time>
      </trkpt>
      <trkpt lat="42.658896" lon="0.650475">
        <ele>2689.6</ele>
        <time>1970-01-01T01:35:44.000Z</time>
      </trkpt>
      <trkpt lat="42.658888" lon="0.650473">
        <ele>2689.6</ele>
        <time>1970-01-01T01:35:46.000Z</time>
      </trkpt>
      <trkpt lat="42.658882" lon="0.650471">
        <ele>2689.6</ele>
        <time>1970-01-01T01:35:48.000Z</time>
      </trkpt>
      <trkpt lat="42.658876" lon="0.650467">
        <ele>2689.1</ele>
        <time>1970-01-01T01:35:49.000Z</time>
      </trkpt>
      <trkpt lat="42.658873" lon="0.650463">
        <ele>2689.1</ele>
        <time>1970-01-01T01:35:50.000Z</time>
      </trkpt>
      <trkpt lat="42.65887" lon="0.650461">
        <ele>2689.1</ele>
        <time>1970-01-01T01:35:51.000Z</time>
      </trkpt>
      <trkpt lat="42.658867" lon="0.650459">
        <ele>2689.1</ele>
        <time>1970-01-01T01:35:52.000Z</time>
      </trkpt>
      <trkpt lat="42.658864" lon="0.650458">
        <ele>2690.7</ele>
        <time>1970-01-01T01:35:53.000Z</time>
      </trkpt>
      <trkpt lat="42.658859" lon="0.65046">
        <ele>2690.7</ele>
        <time>1970-01-01T01:35:54.000Z</time>
      </trkpt>
      <trkpt lat="42.658856" lon="0.650462">
        <ele>2690.7</ele>
        <time>1970-01-01T01:35:55.000Z</time>
      </trkpt>
      <trkpt lat="42.658852" lon="0.650466">
        <ele>2690.7</ele>
        <time>1970-01-01T01:35:56.000Z</time>
      </trkpt>
      <trkpt lat="42.658845" lon="0.650465">
        <ele>2690.7</ele>
        <time>1970-01-01T01:35:58.000Z</time>
      </trkpt>
      <trkpt lat="42.658836" lon="0.650461">
        <ele>2690.7</ele>
        <time>1970-01-01T01:36:00.000Z</time>
      </trkpt>
      <trkpt lat="42.658827" lon="0.650453">
        <ele>2692.4</ele>
        <time>1970-01-01T01:36:01.000Z</time>
      </trkpt>
      <trkpt lat="42.658821" lon="0.650445">
        <ele>2692.4</ele>
        <time>1970-01-01T01:36:03.000Z</time>
      </trkpt>
      <trkpt lat="42.658817" lon="0.650441">
        <ele>2692.4</ele>
        <time>1970-01-01T01:36:04.000Z</time>
      </trkpt>
      <trkpt lat="42.658814" lon="0.650438">
        <ele>2692.4</ele>
        <time>1970-01-01T01:36:05.000Z</time>
      </trkpt>
      <trkpt lat="42.658808" lon="0.650434">
        <ele>2692.4</ele>
        <time>1970-01-01T01:36:07.000Z</time>
      </trkpt>
      <trkpt lat="42.658806" lon="0.650434">
        <ele>2692.4</ele>
        <time>1970-01-01T01:36:08.000Z</time>
      </trkpt>
      <trkpt lat="42.658804" lon="0.650433">
        <ele>2692.4</ele>
        <time>1970-01-01T01:36:09.000Z</time>
      </trkpt>
      <trkpt lat="42.658801" lon="0.650431">
        <ele>2693.9</ele>
        <time>1970-01-01T01:36:11.000Z</time>
      </trkpt>
      <trkpt lat="42.658797" lon="0.650427">
        <ele>2693.9</ele>
        <time>1970-01-01T01:36:12.000Z</time>
      </trkpt>
      <trkpt lat="42.658795" lon="0.650424">
        <ele>2693.4</ele>
        <time>1970-01-01T01:36:13.000Z</time>
      </trkpt>
      <trkpt lat="42.658792" lon="0.650419">
        <ele>2693.4</ele>
        <time>1970-01-01T01:36:15.000Z</time>
      </trkpt>
      <trkpt lat="42.658789" lon="0.650414">
        <ele>2693.4</ele>
        <time>1970-01-01T01:36:16.000Z</time>
      </trkpt>
      <trkpt lat="42.658787" lon="0.650412">
        <ele>2693.4</ele>
        <time>1970-01-01T01:36:17.000Z</time>
      </trkpt>
      <trkpt lat="42.658785" lon="0.650409">
        <ele>2693.4</ele>
        <time>1970-01-01T01:36:18.000Z</time>
      </trkpt>
      <trkpt lat="42.658783" lon="0.650405">
        <ele>2693.4</ele>
        <time>1970-01-01T01:36:19.000Z</time>
      </trkpt>
      <trkpt lat="42.658781" lon="0.650399">
        <ele>2693.4</ele>
        <time>1970-01-01T01:36:20.000Z</time>
      </trkpt>
      <trkpt lat="42.65878" lon="0.650396">
        <ele>2693.4</ele>
        <time>1970-01-01T01:36:21.000Z</time>
      </trkpt>
      <trkpt lat="42.658779" lon="0.650394">
        <ele>2693.4</ele>
        <time>1970-01-01T01:36:22.000Z</time>
      </trkpt>
      <trkpt lat="42.658779" lon="0.650393">
        <ele>2693.4</ele>
        <time>1970-01-01T01:36:23.000Z</time>
      </trkpt>
      <trkpt lat="42.658778" lon="0.650394">
        <ele>2693.4</ele>
        <time>1970-01-01T01:36:24.000Z</time>
      </trkpt>
      <trkpt lat="42.658779" lon="0.650397">
        <ele>2693.4</ele>
        <time>1970-01-01T01:36:25.000Z</time>
      </trkpt>
      <trkpt lat="42.658779" lon="0.650399">
        <ele>2693.4</ele>
        <time>1970-01-01T01:36:26.000Z</time>
      </trkpt>
      <trkpt lat="42.658779" lon="0.6504">
        <ele>2693.4</ele>
        <time>1970-01-01T01:36:27.000Z</time>
      </trkpt>
      <trkpt lat="42.65878" lon="0.650401">
        <ele>2693.4</ele>
        <time>1970-01-01T01:36:28.000Z</time>
      </trkpt>
      <trkpt lat="42.65878" lon="0.650402">
        <ele>2693.4</ele>
        <time>1970-01-01T01:36:29.000Z</time>
      </trkpt>
      <trkpt lat="42.658781" lon="0.650402">
        <ele>2693.4</ele>
        <time>1970-01-01T01:36:30.000Z</time>
      </trkpt>
      <trkpt lat="42.658782" lon="0.650402">
        <ele>2693.4</ele>
        <time>1970-01-01T01:36:32.000Z</time>
      </trkpt>
      <trkpt lat="42.658781" lon="0.650401">
        <ele>2693.4</ele>
        <time>1970-01-01T01:36:33.000Z</time>
      </trkpt>
      <trkpt lat="42.65878" lon="0.650401">
        <ele>2693.4</ele>
        <time>1970-01-01T01:36:34.000Z</time>
      </trkpt>
      <trkpt lat="42.65878" lon="0.650401">
        <ele>2693.4</ele>
        <time>1970-01-01T01:36:35.000Z</time>
      </trkpt>
      <trkpt lat="42.658779" lon="0.650401">
        <ele>2693.4</ele>
        <time>1970-01-01T01:36:36.000Z</time>
      </trkpt>
      <trkpt lat="42.658778" lon="0.6504">
        <ele>2693.4</ele>
        <time>1970-01-01T01:36:37.000Z</time>
      </trkpt>
      <trkpt lat="42.658777" lon="0.650401">
        <ele>2693.4</ele>
        <time>1970-01-01T01:36:38.000Z</time>
      </trkpt>
      <trkpt lat="42.658777" lon="0.650401">
        <ele>2693.4</ele>
        <time>1970-01-01T01:36:39.000Z</time>
      </trkpt>
      <trkpt lat="42.658776" lon="0.650402">
        <ele>2693.4</ele>
        <time>1970-01-01T01:36:40.000Z</time>
      </trkpt>
      <trkpt lat="42.658775" lon="0.650402">
        <ele>2693.4</ele>
        <time>1970-01-01T01:36:41.000Z</time>
      </trkpt>
      <trkpt lat="42.658776" lon="0.650404">
        <ele>2693.4</ele>
        <time>1970-01-01T01:36:42.000Z</time>
      </trkpt>
      <trkpt lat="42.658775" lon="0.650404">
        <ele>2693.4</ele>
        <time>1970-01-01T01:36:43.000Z</time>
      </trkpt>
      <trkpt lat="42.658773" lon="0.650402">
        <ele>2693.4</ele>
        <time>1970-01-01T01:36:44.000Z</time>
      </trkpt>
      <trkpt lat="42.658771" lon="0.650399">
        <ele>2693.4</ele>
        <time>1970-01-01T01:36:45.000Z</time>
      </trkpt>
      <trkpt lat="42.658767" lon="0.650396">
        <ele>2694.9</ele>
        <time>1970-01-01T01:36:46.000Z</time>
      </trkpt>
      <trkpt lat="42.658764" lon="0.650393">
        <ele>2694.9</ele>
        <time>1970-01-01T01:36:47.000Z</time>
      </trkpt>
      <trkpt lat="42.658753" lon="0.650386">
        <ele>2694.9</ele>
        <time>1970-01-01T01:36:49.000Z</time>
      </trkpt>
      <trkpt lat="42.658745" lon="0.65038">
        <ele>2694.4</ele>
        <time>1970-01-01T01:36:50.000Z</time>
      </trkpt>
      <trkpt lat="42.658739" lon="0.650377">
        <ele>2694.4</ele>
        <time>1970-01-01T01:36:51.000Z</time>
      </trkpt>
      <trkpt lat="42.658736" lon="0.650377">
        <ele>2695.8</ele>
        <time>1970-01-01T01:36:52.000Z</time>
      </trkpt>
      <trkpt lat="42.658734" lon="0.650379">
        <ele>2695.8</ele>
        <time>1970-01-01T01:36:53.000Z</time>
      </trkpt>
      <trkpt lat="42.658733" lon="0.65038">
        <ele>2695.8</ele>
        <time>1970-01-01T01:36:54.000Z</time>
      </trkpt>
      <trkpt lat="42.658733" lon="0.650382">
        <ele>2695.8</ele>
        <time>1970-01-01T01:36:55.000Z</time>
      </trkpt>
      <trkpt lat="42.658732" lon="0.650383">
        <ele>2696.3</ele>
        <time>1970-01-01T01:36:56.000Z</time>
      </trkpt>
      <trkpt lat="42.658732" lon="0.650383">
        <ele>2696.3</ele>
        <time>1970-01-01T01:36:57.000Z</time>
      </trkpt>
      <trkpt lat="42.658731" lon="0.650384">
        <ele>2696.3</ele>
        <time>1970-01-01T01:36:58.000Z</time>
      </trkpt>
      <trkpt lat="42.65873" lon="0.650385">
        <ele>2696.3</ele>
        <time>1970-01-01T01:36:59.000Z</time>
      </trkpt>
      <trkpt lat="42.658729" lon="0.650385">
        <ele>2696.3</ele>
        <time>1970-01-01T01:37:00.000Z</time>
      </trkpt>
      <trkpt lat="42.658727" lon="0.650385">
        <ele>2696.3</ele>
        <time>1970-01-01T01:37:01.000Z</time>
      </trkpt>
      <trkpt lat="42.658725" lon="0.650386">
        <ele>2696.3</ele>
        <time>1970-01-01T01:37:02.000Z</time>
      </trkpt>
      <trkpt lat="42.658723" lon="0.650388">
        <ele>2696.3</ele>
        <time>1970-01-01T01:37:03.000Z</time>
      </trkpt>
      <trkpt lat="42.658721" lon="0.65039">
        <ele>2696.3</ele>
        <time>1970-01-01T01:37:04.000Z</time>
      </trkpt>
      <trkpt lat="42.658718" lon="0.650392">
        <ele>2696.3</ele>
        <time>1970-01-01T01:37:06.000Z</time>
      </trkpt>
      <trkpt lat="42.658712" lon="0.6504">
        <ele>2696.3</ele>
        <time>1970-01-01T01:37:07.000Z</time>
      </trkpt>
      <trkpt lat="42.658706" lon="0.650409">
        <ele>2697.6</ele>
        <time>1970-01-01T01:37:08.000Z</time>
      </trkpt>
      <trkpt lat="42.658704" lon="0.650412">
        <ele>2697.6</ele>
        <time>1970-01-01T01:37:09.000Z</time>
      </trkpt>
      <trkpt lat="42.658702" lon="0.650413">
        <ele>2697.6</ele>
        <time>1970-01-01T01:37:10.000Z</time>
      </trkpt>
      <trkpt lat="42.6587" lon="0.650415">
        <ele>2697.6</ele>
        <time>1970-01-01T01:37:11.000Z</time>
      </trkpt>
      <trkpt lat="42.658699" lon="0.650416">
        <ele>2697.6</ele>
        <time>1970-01-01T01:37:12.000Z</time>
      </trkpt>
      <trkpt lat="42.658699" lon="0.650417">
        <ele>2697.6</ele>
        <time>1970-01-01T01:37:13.000Z</time>
      </trkpt>
      <trkpt lat="42.658698" lon="0.650418">
        <ele>2697.6</ele>
        <time>1970-01-01T01:37:14.000Z</time>
      </trkpt>
      <trkpt lat="42.658699" lon="0.650419">
        <ele>2697.6</ele>
        <time>1970-01-01T01:37:15.000Z</time>
      </trkpt>
      <trkpt lat="42.6587" lon="0.65042">
        <ele>2697.6</ele>
        <time>1970-01-01T01:37:16.000Z</time>
      </trkpt>
      <trkpt lat="42.658702" lon="0.650422">
        <ele>2697.6</ele>
        <time>1970-01-01T01:37:17.000Z</time>
      </trkpt>
      <trkpt lat="42.658705" lon="0.650424">
        <ele>2697.6</ele>
        <time>1970-01-01T01:37:18.000Z</time>
      </trkpt>
      <trkpt lat="42.658709" lon="0.650426">
        <ele>2696.8</ele>
        <time>1970-01-01T01:37:19.000Z</time>
      </trkpt>
      <trkpt lat="42.658711" lon="0.650428">
        <ele>2696.8</ele>
        <time>1970-01-01T01:37:20.000Z</time>
      </trkpt>
      <trkpt lat="42.658711" lon="0.650428">
        <ele>2696.8</ele>
        <time>1970-01-01T01:37:21.000Z</time>
      </trkpt>
      <trkpt lat="42.658712" lon="0.650429">
        <ele>2696.8</ele>
        <time>1970-01-01T01:37:22.000Z</time>
      </trkpt>
      <trkpt lat="42.658713" lon="0.65043">
        <ele>2696.8</ele>
        <time>1970-01-01T01:37:23.000Z</time>
      </trkpt>
      <trkpt lat="42.658713" lon="0.650431">
        <ele>2696.8</ele>
        <time>1970-01-01T01:37:24.000Z</time>
      </trkpt>
      <trkpt lat="42.658712" lon="0.650432">
        <ele>2696.8</ele>
        <time>1970-01-01T01:37:25.000Z</time>
      </trkpt>
      <trkpt lat="42.65871" lon="0.650432">
        <ele>2696.8</ele>
        <time>1970-01-01T01:37:26.000Z</time>
      </trkpt>
      <trkpt lat="42.658705" lon="0.650436">
        <ele>2698.2</ele>
        <time>1970-01-01T01:37:28.000Z</time>
      </trkpt>
      <trkpt lat="42.658705" lon="0.650444">
        <ele>2698.2</ele>
        <time>1970-01-01T01:37:29.000Z</time>
      </trkpt>
      <trkpt lat="42.658705" lon="0.650449">
        <ele>2698.2</ele>
        <time>1970-01-01T01:37:30.000Z</time>
      </trkpt>
      <trkpt lat="42.658699" lon="0.650462">
        <ele>2698.2</ele>
        <time>1970-01-01T01:37:32.000Z</time>
      </trkpt>
      <trkpt lat="42.658688" lon="0.650465">
        <ele>2698.2</ele>
        <time>1970-01-01T01:37:33.000Z</time>
      </trkpt>
      <trkpt lat="42.658683" lon="0.650466">
        <ele>2698.2</ele>
        <time>1970-01-01T01:37:34.000Z</time>
      </trkpt>
      <trkpt lat="42.658675" lon="0.65047">
        <ele>2700.1</ele>
        <time>1970-01-01T01:37:35.000Z</time>
      </trkpt>
      <trkpt lat="42.65867" lon="0.650475">
        <ele>2700.1</ele>
        <time>1970-01-01T01:37:36.000Z</time>
      </trkpt>
      <trkpt lat="42.658667" lon="0.650476">
        <ele>2700.1</ele>
        <time>1970-01-01T01:37:37.000Z</time>
      </trkpt>
      <trkpt lat="42.658665" lon="0.650476">
        <ele>2700.1</ele>
        <time>1970-01-01T01:37:38.000Z</time>
      </trkpt>
      <trkpt lat="42.658663" lon="0.650476">
        <ele>2700.1</ele>
        <time>1970-01-01T01:37:39.000Z</time>
      </trkpt>
      <trkpt lat="42.658662" lon="0.650476">
        <ele>2700.1</ele>
        <time>1970-01-01T01:37:40.000Z</time>
      </trkpt>
      <trkpt lat="42.65866" lon="0.650476">
        <ele>2700.1</ele>
        <time>1970-01-01T01:37:41.000Z</time>
      </trkpt>
      <trkpt lat="42.658659" lon="0.650476">
        <ele>2700.1</ele>
        <time>1970-01-01T01:37:42.000Z</time>
      </trkpt>
      <trkpt lat="42.658658" lon="0.650476">
        <ele>2700.1</ele>
        <time>1970-01-01T01:37:43.000Z</time>
      </trkpt>
      <trkpt lat="42.658657" lon="0.650476">
        <ele>2700.1</ele>
        <time>1970-01-01T01:37:44.000Z</time>
      </trkpt>
      <trkpt lat="42.658654" lon="0.650476">
        <ele>2700.1</ele>
        <time>1970-01-01T01:37:45.000Z</time>
      </trkpt>
      <trkpt lat="42.658652" lon="0.650478">
        <ele>2700.1</ele>
        <time>1970-01-01T01:37:46.000Z</time>
      </trkpt>
      <trkpt lat="42.658651" lon="0.650481">
        <ele>2700.1</ele>
        <time>1970-01-01T01:37:47.000Z</time>
      </trkpt>
      <trkpt lat="42.65865" lon="0.650485">
        <ele>2700.1</ele>
        <time>1970-01-01T01:37:48.000Z</time>
      </trkpt>
      <trkpt lat="42.658648" lon="0.650486">
        <ele>2700.1</ele>
        <time>1970-01-01T01:37:49.000Z</time>
      </trkpt>
      <trkpt lat="42.658646" lon="0.650484">
        <ele>2700.1</ele>
        <time>1970-01-01T01:37:51.000Z</time>
      </trkpt>
      <trkpt lat="42.658641" lon="0.650482">
        <ele>2701.6</ele>
        <time>1970-01-01T01:37:53.000Z</time>
      </trkpt>
      <trkpt lat="42.658639" lon="0.650484">
        <ele>2701.6</ele>
        <time>1970-01-01T01:37:54.000Z</time>
      </trkpt>
      <trkpt lat="42.658637" lon="0.650491">
        <ele>2701.6</ele>
        <time>1970-01-01T01:37:55.000Z</time>
      </trkpt>
      <trkpt lat="42.658621" lon="0.650523">
        <ele>2702.1</ele>
        <time>1970-01-01T01:37:57.000Z</time>
      </trkpt>
      <trkpt lat="42.658613" lon="0.650535">
        <ele>2702.1</ele>
        <time>1970-01-01T01:37:58.000Z</time>
      </trkpt>
      <trkpt lat="42.658605" lon="0.650546">
        <ele>2703.7</ele>
        <time>1970-01-01T01:37:59.000Z</time>
      </trkpt>
      <trkpt lat="42.658587" lon="0.650568">
        <ele>2704.3</ele>
        <time>1970-01-01T01:38:01.000Z</time>
      </trkpt>
      <trkpt lat="42.65858" lon="0.650577">
        <ele>2705.8</ele>
        <time>1970-01-01T01:38:02.000Z</time>
      </trkpt>
      <trkpt lat="42.658573" lon="0.650586">
        <ele>2705.8</ele>
        <time>1970-01-01T01:38:03.000Z</time>
      </trkpt>
      <trkpt lat="42.658567" lon="0.650594">
        <ele>2705.8</ele>
        <time>1970-01-01T01:38:04.000Z</time>
      </trkpt>
      <trkpt lat="42.658564" lon="0.650601">
        <ele>2706.4</ele>
        <time>1970-01-01T01:38:05.000Z</time>
      </trkpt>
      <trkpt lat="42.658564" lon="0.650603">
        <ele>2706.4</ele>
        <time>1970-01-01T01:38:06.000Z</time>
      </trkpt>
      <trkpt lat="42.658557" lon="0.650605">
        <ele>2706.4</ele>
        <time>1970-01-01T01:38:08.000Z</time>
      </trkpt>
      <trkpt lat="42.658554" lon="0.6506">
        <ele>2706.4</ele>
        <time>1970-01-01T01:38:09.000Z</time>
      </trkpt>
      <trkpt lat="42.65855" lon="0.650593">
        <ele>2705.8</ele>
        <time>1970-01-01T01:38:10.000Z</time>
      </trkpt>
      <trkpt lat="42.658543" lon="0.650579">
        <ele>2707.3</ele>
        <time>1970-01-01T01:38:12.000Z</time>
      </trkpt>
      <trkpt lat="42.658539" lon="0.650573">
        <ele>2707.3</ele>
        <time>1970-01-01T01:38:13.000Z</time>
      </trkpt>
      <trkpt lat="42.658538" lon="0.650568">
        <ele>2707.3</ele>
        <time>1970-01-01T01:38:14.000Z</time>
      </trkpt>
      <trkpt lat="42.658539" lon="0.650566">
        <ele>2707.3</ele>
        <time>1970-01-01T01:38:15.000Z</time>
      </trkpt>
      <trkpt lat="42.65854" lon="0.650564">
        <ele>2707.3</ele>
        <time>1970-01-01T01:38:16.000Z</time>
      </trkpt>
      <trkpt lat="42.658542" lon="0.650562">
        <ele>2707.3</ele>
        <time>1970-01-01T01:38:17.000Z</time>
      </trkpt>
      <trkpt lat="42.658544" lon="0.650562">
        <ele>2707.3</ele>
        <time>1970-01-01T01:38:18.000Z</time>
      </trkpt>
      <trkpt lat="42.658546" lon="0.650562">
        <ele>2707.3</ele>
        <time>1970-01-01T01:38:19.000Z</time>
      </trkpt>
      <trkpt lat="42.658548" lon="0.650562">
        <ele>2707.3</ele>
        <time>1970-01-01T01:38:20.000Z</time>
      </trkpt>
      <trkpt lat="42.658549" lon="0.650562">
        <ele>2705.8</ele>
        <time>1970-01-01T01:38:21.000Z</time>
      </trkpt>
      <trkpt lat="42.658549" lon="0.650561">
        <ele>2705.8</ele>
        <time>1970-01-01T01:38:22.000Z</time>
      </trkpt>
      <trkpt lat="42.658549" lon="0.650561">
        <ele>2705.8</ele>
        <time>1970-01-01T01:38:23.000Z</time>
      </trkpt>
      <trkpt lat="42.658549" lon="0.65056">
        <ele>2705.8</ele>
        <time>1970-01-01T01:38:24.000Z</time>
      </trkpt>
      <trkpt lat="42.658549" lon="0.650558">
        <ele>2705.8</ele>
        <time>1970-01-01T01:38:25.000Z</time>
      </trkpt>
      <trkpt lat="42.658548" lon="0.650556">
        <ele>2707.3</ele>
        <time>1970-01-01T01:38:26.000Z</time>
      </trkpt>
      <trkpt lat="42.658548" lon="0.650553">
        <ele>2706.7</ele>
        <time>1970-01-01T01:38:28.000Z</time>
      </trkpt>
      <trkpt lat="42.658547" lon="0.650551">
        <ele>2706.7</ele>
        <time>1970-01-01T01:38:29.000Z</time>
      </trkpt>
      <trkpt lat="42.658547" lon="0.650549">
        <ele>2706.7</ele>
        <time>1970-01-01T01:38:30.000Z</time>
      </trkpt>
      <trkpt lat="42.658546" lon="0.650547">
        <ele>2706.7</ele>
        <time>1970-01-01T01:38:31.000Z</time>
      </trkpt>
      <trkpt lat="42.658546" lon="0.650546">
        <ele>2706.7</ele>
        <time>1970-01-01T01:38:32.000Z</time>
      </trkpt>
      <trkpt lat="42.658545" lon="0.650543">
        <ele>2706.7</ele>
        <time>1970-01-01T01:38:33.000Z</time>
      </trkpt>
      <trkpt lat="42.658545" lon="0.650539">
        <ele>2706.7</ele>
        <time>1970-01-01T01:38:34.000Z</time>
      </trkpt>
      <trkpt lat="42.658544" lon="0.650536">
        <ele>2706.7</ele>
        <time>1970-01-01T01:38:35.000Z</time>
      </trkpt>
      <trkpt lat="42.658542" lon="0.650532">
        <ele>2706.7</ele>
        <time>1970-01-01T01:38:36.000Z</time>
      </trkpt>
      <trkpt lat="42.658541" lon="0.650527">
        <ele>2706.7</ele>
        <time>1970-01-01T01:38:37.000Z</time>
      </trkpt>
      <trkpt lat="42.658541" lon="0.65052">
        <ele>2706.7</ele>
        <time>1970-01-01T01:38:38.000Z</time>
      </trkpt>
      <trkpt lat="42.65854" lon="0.650516">
        <ele>2706.7</ele>
        <time>1970-01-01T01:38:39.000Z</time>
      </trkpt>
      <trkpt lat="42.658539" lon="0.65051">
        <ele>2706.2</ele>
        <time>1970-01-01T01:38:40.000Z</time>
      </trkpt>
      <trkpt lat="42.658537" lon="0.650502">
        <ele>2706.2</ele>
        <time>1970-01-01T01:38:41.000Z</time>
      </trkpt>
      <trkpt lat="42.658536" lon="0.650499">
        <ele>2706.2</ele>
        <time>1970-01-01T01:38:42.000Z</time>
      </trkpt>
      <trkpt lat="42.658535" lon="0.650499">
        <ele>2706.2</ele>
        <time>1970-01-01T01:38:43.000Z</time>
      </trkpt>
      <trkpt lat="42.658533" lon="0.6505">
        <ele>2706.2</ele>
        <time>1970-01-01T01:38:44.000Z</time>
      </trkpt>
      <trkpt lat="42.658529" lon="0.650502">
        <ele>2706.2</ele>
        <time>1970-01-01T01:38:45.000Z</time>
      </trkpt>
      <trkpt lat="42.658525" lon="0.650504">
        <ele>2706.2</ele>
        <time>1970-01-01T01:38:46.000Z</time>
      </trkpt>
      <trkpt lat="42.658522" lon="0.650505">
        <ele>2706.2</ele>
        <time>1970-01-01T01:38:47.000Z</time>
      </trkpt>
      <trkpt lat="42.658517" lon="0.650502">
        <ele>2707.6</ele>
        <time>1970-01-01T01:38:49.000Z</time>
      </trkpt>
      <trkpt lat="42.658514" lon="0.650498">
        <ele>2707.6</ele>
        <time>1970-01-01T01:38:50.000Z</time>
      </trkpt>
      <trkpt lat="42.658511" lon="0.650493">
        <ele>2707.6</ele>
        <time>1970-01-01T01:38:52.000Z</time>
      </trkpt>
      <trkpt lat="42.658508" lon="0.650486">
        <ele>2707.6</ele>
        <time>1970-01-01T01:38:53.000Z</time>
      </trkpt>
      <trkpt lat="42.658505" lon="0.650479">
        <ele>2707.6</ele>
        <time>1970-01-01T01:38:54.000Z</time>
      </trkpt>
      <trkpt lat="42.658502" lon="0.650472">
        <ele>2707.6</ele>
        <time>1970-01-01T01:38:55.000Z</time>
      </trkpt>
      <trkpt lat="42.658498" lon="0.650468">
        <ele>2707.6</ele>
        <time>1970-01-01T01:38:56.000Z</time>
      </trkpt>
      <trkpt lat="42.658494" lon="0.650459">
        <ele>2707.1</ele>
        <time>1970-01-01T01:38:57.000Z</time>
      </trkpt>
      <trkpt lat="42.658494" lon="0.650452">
        <ele>2707.1</ele>
        <time>1970-01-01T01:38:58.000Z</time>
      </trkpt>
      <trkpt lat="42.658498" lon="0.650447">
        <ele>2707.1</ele>
        <time>1970-01-01T01:38:59.000Z</time>
      </trkpt>
      <trkpt lat="42.658507" lon="0.650442">
        <ele>2707.1</ele>
        <time>1970-01-01T01:39:01.000Z</time>
      </trkpt>
      <trkpt lat="42.658509" lon="0.650437">
        <ele>2707.1</ele>
        <time>1970-01-01T01:39:02.000Z</time>
      </trkpt>
      <trkpt lat="42.658507" lon="0.650436">
        <ele>2707.1</ele>
        <time>1970-01-01T01:39:03.000Z</time>
      </trkpt>
      <trkpt lat="42.658505" lon="0.650434">
        <ele>2707.1</ele>
        <time>1970-01-01T01:39:04.000Z</time>
      </trkpt>
      <trkpt lat="42.658496" lon="0.650425">
        <ele>2707.1</ele>
        <time>1970-01-01T01:39:06.000Z</time>
      </trkpt>
      <trkpt lat="42.65849" lon="0.65042">
        <ele>2706.6</ele>
        <time>1970-01-01T01:39:08.000Z</time>
      </trkpt>
      <trkpt lat="42.658485" lon="0.650417">
        <ele>2707.9</ele>
        <time>1970-01-01T01:39:09.000Z</time>
      </trkpt>
      <trkpt lat="42.65848" lon="0.650416">
        <ele>2707.9</ele>
        <time>1970-01-01T01:39:10.000Z</time>
      </trkpt>
      <trkpt lat="42.658475" lon="0.650418">
        <ele>2707.9</ele>
        <time>1970-01-01T01:39:11.000Z</time>
      </trkpt>
      <trkpt lat="42.658472" lon="0.650421">
        <ele>2707.9</ele>
        <time>1970-01-01T01:39:12.000Z</time>
      </trkpt>
      <trkpt lat="42.658469" lon="0.650424">
        <ele>2707.9</ele>
        <time>1970-01-01T01:39:13.000Z</time>
      </trkpt>
      <trkpt lat="42.658467" lon="0.650428">
        <ele>2708.4</ele>
        <time>1970-01-01T01:39:14.000Z</time>
      </trkpt>
      <trkpt lat="42.658465" lon="0.650431">
        <ele>2708.4</ele>
        <time>1970-01-01T01:39:15.000Z</time>
      </trkpt>
      <trkpt lat="42.658464" lon="0.650432">
        <ele>2708.4</ele>
        <time>1970-01-01T01:39:16.000Z</time>
      </trkpt>
      <trkpt lat="42.658463" lon="0.650433">
        <ele>2708.4</ele>
        <time>1970-01-01T01:39:17.000Z</time>
      </trkpt>
      <trkpt lat="42.658461" lon="0.650433">
        <ele>2708.4</ele>
        <time>1970-01-01T01:39:18.000Z</time>
      </trkpt>
      <trkpt lat="42.65846" lon="0.65043">
        <ele>2708.4</ele>
        <time>1970-01-01T01:39:19.000Z</time>
      </trkpt>
      <trkpt lat="42.658459" lon="0.650427">
        <ele>2708.4</ele>
        <time>1970-01-01T01:39:20.000Z</time>
      </trkpt>
      <trkpt lat="42.658458" lon="0.650425">
        <ele>2708.4</ele>
        <time>1970-01-01T01:39:21.000Z</time>
      </trkpt>
      <trkpt lat="42.658457" lon="0.650425">
        <ele>2708.4</ele>
        <time>1970-01-01T01:39:22.000Z</time>
      </trkpt>
      <trkpt lat="42.658457" lon="0.650425">
        <ele>2708.4</ele>
        <time>1970-01-01T01:39:23.000Z</time>
      </trkpt>
      <trkpt lat="42.658457" lon="0.650425">
        <ele>2708.4</ele>
        <time>1970-01-01T01:39:24.000Z</time>
      </trkpt>
      <trkpt lat="42.658458" lon="0.650425">
        <ele>2708.4</ele>
        <time>1970-01-01T01:39:25.000Z</time>
      </trkpt>
      <trkpt lat="42.658459" lon="0.650426">
        <ele>2708.4</ele>
        <time>1970-01-01T01:39:26.000Z</time>
      </trkpt>
      <trkpt lat="42.658458" lon="0.650429">
        <ele>2708.4</ele>
        <time>1970-01-01T01:39:27.000Z</time>
      </trkpt>
      <trkpt lat="42.658457" lon="0.65043">
        <ele>2708.4</ele>
        <time>1970-01-01T01:39:28.000Z</time>
      </trkpt>
      <trkpt lat="42.658454" lon="0.650433">
        <ele>2709.7</ele>
        <time>1970-01-01T01:39:30.000Z</time>
      </trkpt>
      <trkpt lat="42.658453" lon="0.650433">
        <ele>2709.7</ele>
        <time>1970-01-01T01:39:31.000Z</time>
      </trkpt>
      <trkpt lat="42.658452" lon="0.650432">
        <ele>2709.7</ele>
        <time>1970-01-01T01:39:32.000Z</time>
      </trkpt>
      <trkpt lat="42.658452" lon="0.650432">
        <ele>2709.7</ele>
        <time>1970-01-01T01:39:33.000Z</time>
      </trkpt>
      <trkpt lat="42.65845" lon="0.650431">
        <ele>2709.7</ele>
        <time>1970-01-01T01:39:34.000Z</time>
      </trkpt>
      <trkpt lat="42.658449" lon="0.650431">
        <ele>2709.7</ele>
        <time>1970-01-01T01:39:35.000Z</time>
      </trkpt>
      <trkpt lat="42.658448" lon="0.650431">
        <ele>2709.7</ele>
        <time>1970-01-01T01:39:36.000Z</time>
      </trkpt>
      <trkpt lat="42.658446" lon="0.650431">
        <ele>2709.7</ele>
        <time>1970-01-01T01:39:37.000Z</time>
      </trkpt>
      <trkpt lat="42.658444" lon="0.650431">
        <ele>2709.7</ele>
        <time>1970-01-01T01:39:38.000Z</time>
      </trkpt>
      <trkpt lat="42.658443" lon="0.650431">
        <ele>2709.7</ele>
        <time>1970-01-01T01:39:39.000Z</time>
      </trkpt>
      <trkpt lat="42.658441" lon="0.65043">
        <ele>2709.7</ele>
        <time>1970-01-01T01:39:40.000Z</time>
      </trkpt>
      <trkpt lat="42.658439" lon="0.650429">
        <ele>2709.7</ele>
        <time>1970-01-01T01:39:41.000Z</time>
      </trkpt>
      <trkpt lat="42.658438" lon="0.650428">
        <ele>2709.7</ele>
        <time>1970-01-01T01:39:42.000Z</time>
      </trkpt>
      <trkpt lat="42.658435" lon="0.650426">
        <ele>2709.7</ele>
        <time>1970-01-01T01:39:44.000Z</time>
      </trkpt>
      <trkpt lat="42.658433" lon="0.650426">
        <ele>2709.7</ele>
        <time>1970-01-01T01:39:45.000Z</time>
      </trkpt>
      <trkpt lat="42.658429" lon="0.650426">
        <ele>2709.7</ele>
        <time>1970-01-01T01:39:47.000Z</time>
      </trkpt>
      <trkpt lat="42.658427" lon="0.650425">
        <ele>2709.7</ele>
        <time>1970-01-01T01:39:48.000Z</time>
      </trkpt>
      <trkpt lat="42.658425" lon="0.650423">
        <ele>2709.2</ele>
        <time>1970-01-01T01:39:49.000Z</time>
      </trkpt>
      <trkpt lat="42.658422" lon="0.650421">
        <ele>2710.5</ele>
        <time>1970-01-01T01:39:50.000Z</time>
      </trkpt>
      <trkpt lat="42.658419" lon="0.650419">
        <ele>2710.5</ele>
        <time>1970-01-01T01:39:51.000Z</time>
      </trkpt>
      <trkpt lat="42.658414" lon="0.650419">
        <ele>2710.5</ele>
        <time>1970-01-01T01:39:52.000Z</time>
      </trkpt>
      <trkpt lat="42.658407" lon="0.650419">
        <ele>2710.5</ele>
        <time>1970-01-01T01:39:53.000Z</time>
      </trkpt>
      <trkpt lat="42.658399" lon="0.650419">
        <ele>2710.5</ele>
        <time>1970-01-01T01:39:54.000Z</time>
      </trkpt>
      <trkpt lat="42.658388" lon="0.650421">
        <ele>2711.9</ele>
        <time>1970-01-01T01:39:56.000Z</time>
      </trkpt>
      <trkpt lat="42.658378" lon="0.650422">
        <ele>2711.9</ele>
        <time>1970-01-01T01:39:57.000Z</time>
      </trkpt>
      <trkpt lat="42.65837" lon="0.650422">
        <ele>2711.9</ele>
        <time>1970-01-01T01:39:58.000Z</time>
      </trkpt>
      <trkpt lat="42.658364" lon="0.65042">
        <ele>2711.9</ele>
        <time>1970-01-01T01:39:59.000Z</time>
      </trkpt>
      <trkpt lat="42.658358" lon="0.650416">
        <ele>2713.4</ele>
        <time>1970-01-01T01:40:00.000Z</time>
      </trkpt>
      <trkpt lat="42.658348" lon="0.65041">
        <ele>2713.4</ele>
        <time>1970-01-01T01:40:02.000Z</time>
      </trkpt>
      <trkpt lat="42.658343" lon="0.650407">
        <ele>2713.4</ele>
        <time>1970-01-01T01:40:03.000Z</time>
      </trkpt>
      <trkpt lat="42.658341" lon="0.650402">
        <ele>2713.4</ele>
        <time>1970-01-01T01:40:04.000Z</time>
      </trkpt>
      <trkpt lat="42.658338" lon="0.650395">
        <ele>2713.4</ele>
        <time>1970-01-01T01:40:05.000Z</time>
      </trkpt>
      <trkpt lat="42.658334" lon="0.650392">
        <ele>2713.4</ele>
        <time>1970-01-01T01:40:06.000Z</time>
      </trkpt>
      <trkpt lat="42.658329" lon="0.650394">
        <ele>2713.4</ele>
        <time>1970-01-01T01:40:08.000Z</time>
      </trkpt>
      <trkpt lat="42.658321" lon="0.650393">
        <ele>2715</ele>
        <time>1970-01-01T01:40:09.000Z</time>
      </trkpt>
      <trkpt lat="42.658319" lon="0.65039">
        <ele>2715</ele>
        <time>1970-01-01T01:40:10.000Z</time>
      </trkpt>
      <trkpt lat="42.658319" lon="0.650389">
        <ele>2715</ele>
        <time>1970-01-01T01:40:11.000Z</time>
      </trkpt>
      <trkpt lat="42.65832" lon="0.650389">
        <ele>2715</ele>
        <time>1970-01-01T01:40:12.000Z</time>
      </trkpt>
      <trkpt lat="42.65832" lon="0.650388">
        <ele>2715</ele>
        <time>1970-01-01T01:40:13.000Z</time>
      </trkpt>
      <trkpt lat="42.658321" lon="0.650388">
        <ele>2715</ele>
        <time>1970-01-01T01:40:14.000Z</time>
      </trkpt>
      <trkpt lat="42.658321" lon="0.650388">
        <ele>2715</ele>
        <time>1970-01-01T01:40:15.000Z</time>
      </trkpt>
      <trkpt lat="42.658322" lon="0.650387">
        <ele>2715</ele>
        <time>1970-01-01T01:40:16.000Z</time>
      </trkpt>
      <trkpt lat="42.65832" lon="0.650387">
        <ele>2715</ele>
        <time>1970-01-01T01:40:17.000Z</time>
      </trkpt>
      <trkpt lat="42.658318" lon="0.650388">
        <ele>2715</ele>
        <time>1970-01-01T01:40:18.000Z</time>
      </trkpt>
      <trkpt lat="42.658316" lon="0.65039">
        <ele>2715</ele>
        <time>1970-01-01T01:40:19.000Z</time>
      </trkpt>
      <trkpt lat="42.658312" lon="0.650399">
        <ele>2715</ele>
        <time>1970-01-01T01:40:21.000Z</time>
      </trkpt>
      <trkpt lat="42.658306" lon="0.6504">
        <ele>2715</ele>
        <time>1970-01-01T01:40:23.000Z</time>
      </trkpt>
      <trkpt lat="42.658302" lon="0.650401">
        <ele>2715</ele>
        <time>1970-01-01T01:40:24.000Z</time>
      </trkpt>
      <trkpt lat="42.658296" lon="0.6504">
        <ele>2716.5</ele>
        <time>1970-01-01T01:40:26.000Z</time>
      </trkpt>
      <trkpt lat="42.65829" lon="0.650398">
        <ele>2716.5</ele>
        <time>1970-01-01T01:40:27.000Z</time>
      </trkpt>
      <trkpt lat="42.658285" lon="0.650397">
        <ele>2716.5</ele>
        <time>1970-01-01T01:40:28.000Z</time>
      </trkpt>
      <trkpt lat="42.65828" lon="0.650396">
        <ele>2716.5</ele>
        <time>1970-01-01T01:40:29.000Z</time>
      </trkpt>
      <trkpt lat="42.658278" lon="0.650395">
        <ele>2716.5</ele>
        <time>1970-01-01T01:40:30.000Z</time>
      </trkpt>
      <trkpt lat="42.658276" lon="0.650394">
        <ele>2716.5</ele>
        <time>1970-01-01T01:40:31.000Z</time>
      </trkpt>
      <trkpt lat="42.658273" lon="0.650394">
        <ele>2716.5</ele>
        <time>1970-01-01T01:40:32.000Z</time>
      </trkpt>
      <trkpt lat="42.658272" lon="0.650394">
        <ele>2716.5</ele>
        <time>1970-01-01T01:40:33.000Z</time>
      </trkpt>
      <trkpt lat="42.658271" lon="0.650395">
        <ele>2716.5</ele>
        <time>1970-01-01T01:40:34.000Z</time>
      </trkpt>
      <trkpt lat="42.65827" lon="0.650397">
        <ele>2716.5</ele>
        <time>1970-01-01T01:40:35.000Z</time>
      </trkpt>
      <trkpt lat="42.658269" lon="0.650397">
        <ele>2716.5</ele>
        <time>1970-01-01T01:40:36.000Z</time>
      </trkpt>
      <trkpt lat="42.658269" lon="0.650398">
        <ele>2716.5</ele>
        <time>1970-01-01T01:40:37.000Z</time>
      </trkpt>
      <trkpt lat="42.658268" lon="0.650398">
        <ele>2716.5</ele>
        <time>1970-01-01T01:40:38.000Z</time>
      </trkpt>
      <trkpt lat="42.658268" lon="0.650399">
        <ele>2716.5</ele>
        <time>1970-01-01T01:40:39.000Z</time>
      </trkpt>
      <trkpt lat="42.658267" lon="0.650399">
        <ele>2716.5</ele>
        <time>1970-01-01T01:40:40.000Z</time>
      </trkpt>
      <trkpt lat="42.658267" lon="0.6504">
        <ele>2716.5</ele>
        <time>1970-01-01T01:40:41.000Z</time>
      </trkpt>
      <trkpt lat="42.658267" lon="0.650401">
        <ele>2716.5</ele>
        <time>1970-01-01T01:40:42.000Z</time>
      </trkpt>
      <trkpt lat="42.658267" lon="0.650401">
        <ele>2716.5</ele>
        <time>1970-01-01T01:40:43.000Z</time>
      </trkpt>
      <trkpt lat="42.658267" lon="0.650402">
        <ele>2716.5</ele>
        <time>1970-01-01T01:40:44.000Z</time>
      </trkpt>
      <trkpt lat="42.658266" lon="0.650402">
        <ele>2716.5</ele>
        <time>1970-01-01T01:40:45.000Z</time>
      </trkpt>
      <trkpt lat="42.658265" lon="0.650403">
        <ele>2716.5</ele>
        <time>1970-01-01T01:40:46.000Z</time>
      </trkpt>
      <trkpt lat="42.658264" lon="0.650403">
        <ele>2718</ele>
        <time>1970-01-01T01:40:47.000Z</time>
      </trkpt>
      <trkpt lat="42.658262" lon="0.650402">
        <ele>2718</ele>
        <time>1970-01-01T01:40:48.000Z</time>
      </trkpt>
      <trkpt lat="42.65826" lon="0.650402">
        <ele>2718</ele>
        <time>1970-01-01T01:40:49.000Z</time>
      </trkpt>
      <trkpt lat="42.658258" lon="0.650401">
        <ele>2718</ele>
        <time>1970-01-01T01:40:50.000Z</time>
      </trkpt>
      <trkpt lat="42.658255" lon="0.6504">
        <ele>2718</ele>
        <time>1970-01-01T01:40:51.000Z</time>
      </trkpt>
      <trkpt lat="42.658253" lon="0.6504">
        <ele>2718</ele>
        <time>1970-01-01T01:40:52.000Z</time>
      </trkpt>
      <trkpt lat="42.658252" lon="0.6504">
        <ele>2718</ele>
        <time>1970-01-01T01:40:53.000Z</time>
      </trkpt>
      <trkpt lat="42.658248" lon="0.650401">
        <ele>2718</ele>
        <time>1970-01-01T01:40:55.000Z</time>
      </trkpt>
      <trkpt lat="42.658246" lon="0.650402">
        <ele>2718</ele>
        <time>1970-01-01T01:40:56.000Z</time>
      </trkpt>
      <trkpt lat="42.658245" lon="0.650403">
        <ele>2718</ele>
        <time>1970-01-01T01:40:57.000Z</time>
      </trkpt>
      <trkpt lat="42.658243" lon="0.650405">
        <ele>2718</ele>
        <time>1970-01-01T01:40:58.000Z</time>
      </trkpt>
      <trkpt lat="42.658241" lon="0.650406">
        <ele>2718</ele>
        <time>1970-01-01T01:40:59.000Z</time>
      </trkpt>
      <trkpt lat="42.658238" lon="0.650408">
        <ele>2718</ele>
        <time>1970-01-01T01:41:00.000Z</time>
      </trkpt>
      <trkpt lat="42.658236" lon="0.650411">
        <ele>2718</ele>
        <time>1970-01-01T01:41:01.000Z</time>
      </trkpt>
      <trkpt lat="42.658232" lon="0.650415">
        <ele>2719.3</ele>
        <time>1970-01-01T01:41:03.000Z</time>
      </trkpt>
      <trkpt lat="42.658226" lon="0.65042">
        <ele>2719.3</ele>
        <time>1970-01-01T01:41:04.000Z</time>
      </trkpt>
      <trkpt lat="42.658221" lon="0.650424">
        <ele>2719.3</ele>
        <time>1970-01-01T01:41:05.000Z</time>
      </trkpt>
      <trkpt lat="42.658211" lon="0.65043">
        <ele>2719.5</ele>
        <time>1970-01-01T01:41:07.000Z</time>
      </trkpt>
      <trkpt lat="42.658208" lon="0.650432">
        <ele>2719.5</ele>
        <time>1970-01-01T01:41:08.000Z</time>
      </trkpt>
      <trkpt lat="42.658207" lon="0.650433">
        <ele>2719.5</ele>
        <time>1970-01-01T01:41:09.000Z</time>
      </trkpt>
      <trkpt lat="42.658206" lon="0.650433">
        <ele>2719.5</ele>
        <time>1970-01-01T01:41:10.000Z</time>
      </trkpt>
      <trkpt lat="42.658205" lon="0.650433">
        <ele>2719.5</ele>
        <time>1970-01-01T01:41:11.000Z</time>
      </trkpt>
      <trkpt lat="42.658203" lon="0.650433">
        <ele>2719.5</ele>
        <time>1970-01-01T01:41:12.000Z</time>
      </trkpt>
      <trkpt lat="42.658201" lon="0.650433">
        <ele>2721.4</ele>
        <time>1970-01-01T01:41:13.000Z</time>
      </trkpt>
      <trkpt lat="42.6582" lon="0.650434">
        <ele>2721.4</ele>
        <time>1970-01-01T01:41:14.000Z</time>
      </trkpt>
      <trkpt lat="42.658195" lon="0.650436">
        <ele>2721.4</ele>
        <time>1970-01-01T01:41:16.000Z</time>
      </trkpt>
      <trkpt lat="42.658191" lon="0.65044">
        <ele>2721.4</ele>
        <time>1970-01-01T01:41:17.000Z</time>
      </trkpt>
      <trkpt lat="42.65819" lon="0.650442">
        <ele>2721.4</ele>
        <time>1970-01-01T01:41:18.000Z</time>
      </trkpt>
      <trkpt lat="42.658189" lon="0.650444">
        <ele>2721.4</ele>
        <time>1970-01-01T01:41:19.000Z</time>
      </trkpt>
      <trkpt lat="42.658189" lon="0.650448">
        <ele>2721.4</ele>
        <time>1970-01-01T01:41:20.000Z</time>
      </trkpt>
      <trkpt lat="42.658189" lon="0.65045">
        <ele>2721.4</ele>
        <time>1970-01-01T01:41:21.000Z</time>
      </trkpt>
      <trkpt lat="42.658189" lon="0.650453">
        <ele>2721.4</ele>
        <time>1970-01-01T01:41:22.000Z</time>
      </trkpt>
      <trkpt lat="42.658189" lon="0.650454">
        <ele>2721.4</ele>
        <time>1970-01-01T01:41:23.000Z</time>
      </trkpt>
      <trkpt lat="42.658185" lon="0.650457">
        <ele>2721.4</ele>
        <time>1970-01-01T01:41:24.000Z</time>
      </trkpt>
      <trkpt lat="42.658181" lon="0.650458">
        <ele>2721.4</ele>
        <time>1970-01-01T01:41:25.000Z</time>
      </trkpt>
      <trkpt lat="42.658175" lon="0.650457">
        <ele>2721.4</ele>
        <time>1970-01-01T01:41:26.000Z</time>
      </trkpt>
      <trkpt lat="42.65817" lon="0.650454">
        <ele>2722.5</ele>
        <time>1970-01-01T01:41:28.000Z</time>
      </trkpt>
      <trkpt lat="42.658169" lon="0.650447">
        <ele>2722.5</ele>
        <time>1970-01-01T01:41:29.000Z</time>
      </trkpt>
      <trkpt lat="42.658169" lon="0.650445">
        <ele>2722.5</ele>
        <time>1970-01-01T01:41:30.000Z</time>
      </trkpt>
      <trkpt lat="42.658169" lon="0.650442">
        <ele>2722.5</ele>
        <time>1970-01-01T01:41:31.000Z</time>
      </trkpt>
      <trkpt lat="42.658167" lon="0.650441">
        <ele>2722.5</ele>
        <time>1970-01-01T01:41:32.000Z</time>
      </trkpt>
      <trkpt lat="42.658162" lon="0.650443">
        <ele>2722.5</ele>
        <time>1970-01-01T01:41:34.000Z</time>
      </trkpt>
      <trkpt lat="42.65816" lon="0.650445">
        <ele>2722.5</ele>
        <time>1970-01-01T01:41:35.000Z</time>
      </trkpt>
      <trkpt lat="42.658159" lon="0.650446">
        <ele>2722.5</ele>
        <time>1970-01-01T01:41:36.000Z</time>
      </trkpt>
      <trkpt lat="42.658158" lon="0.650448">
        <ele>2722.5</ele>
        <time>1970-01-01T01:41:37.000Z</time>
      </trkpt>
      <trkpt lat="42.658157" lon="0.650449">
        <ele>2722.5</ele>
        <time>1970-01-01T01:41:38.000Z</time>
      </trkpt>
      <trkpt lat="42.658157" lon="0.65045">
        <ele>2722.5</ele>
        <time>1970-01-01T01:41:39.000Z</time>
      </trkpt>
      <trkpt lat="42.658157" lon="0.650451">
        <ele>2722.5</ele>
        <time>1970-01-01T01:41:40.000Z</time>
      </trkpt>
      <trkpt lat="42.658156" lon="0.650452">
        <ele>2722.5</ele>
        <time>1970-01-01T01:41:41.000Z</time>
      </trkpt>
      <trkpt lat="42.658155" lon="0.650453">
        <ele>2722.5</ele>
        <time>1970-01-01T01:41:42.000Z</time>
      </trkpt>
      <trkpt lat="42.658154" lon="0.650454">
        <ele>2722.5</ele>
        <time>1970-01-01T01:41:43.000Z</time>
      </trkpt>
      <trkpt lat="42.65815" lon="0.650457">
        <ele>2722.5</ele>
        <time>1970-01-01T01:41:44.000Z</time>
      </trkpt>
      <trkpt lat="42.658146" lon="0.650458">
        <ele>2722.5</ele>
        <time>1970-01-01T01:41:46.000Z</time>
      </trkpt>
      <trkpt lat="42.658141" lon="0.650459">
        <ele>2722.5</ele>
        <time>1970-01-01T01:41:47.000Z</time>
      </trkpt>
      <trkpt lat="42.658138" lon="0.65046">
        <ele>2723.7</ele>
        <time>1970-01-01T01:41:48.000Z</time>
      </trkpt>
      <trkpt lat="42.658134" lon="0.65046">
        <ele>2723.7</ele>
        <time>1970-01-01T01:41:49.000Z</time>
      </trkpt>
      <trkpt lat="42.658121" lon="0.650457">
        <ele>2723.7</ele>
        <time>1970-01-01T01:41:51.000Z</time>
      </trkpt>
      <trkpt lat="42.658116" lon="0.650455">
        <ele>2723.7</ele>
        <time>1970-01-01T01:41:52.000Z</time>
      </trkpt>
      <trkpt lat="42.658101" lon="0.650446">
        <ele>2725</ele>
        <time>1970-01-01T01:41:54.000Z</time>
      </trkpt>
      <trkpt lat="42.658092" lon="0.650444">
        <ele>2725</ele>
        <time>1970-01-01T01:41:56.000Z</time>
      </trkpt>
      <trkpt lat="42.658081" lon="0.650441">
        <ele>2725</ele>
        <time>1970-01-01T01:41:57.000Z</time>
      </trkpt>
      <trkpt lat="42.658079" lon="0.650435">
        <ele>2725</ele>
        <time>1970-01-01T01:41:58.000Z</time>
      </trkpt>
      <trkpt lat="42.658077" lon="0.650428">
        <ele>2725</ele>
        <time>1970-01-01T01:41:59.000Z</time>
      </trkpt>
      <trkpt lat="42.658075" lon="0.650423">
        <ele>2726.2</ele>
        <time>1970-01-01T01:42:00.000Z</time>
      </trkpt>
      <trkpt lat="42.658074" lon="0.650417">
        <ele>2726.2</ele>
        <time>1970-01-01T01:42:01.000Z</time>
      </trkpt>
      <trkpt lat="42.658071" lon="0.650411">
        <ele>2726.2</ele>
        <time>1970-01-01T01:42:02.000Z</time>
      </trkpt>
      <trkpt lat="42.658068" lon="0.650412">
        <ele>2726.2</ele>
        <time>1970-01-01T01:42:03.000Z</time>
      </trkpt>
      <trkpt lat="42.658066" lon="0.650414">
        <ele>2726.2</ele>
        <time>1970-01-01T01:42:04.000Z</time>
      </trkpt>
      <trkpt lat="42.658065" lon="0.650417">
        <ele>2726.2</ele>
        <time>1970-01-01T01:42:05.000Z</time>
      </trkpt>
      <trkpt lat="42.658066" lon="0.65042">
        <ele>2726.2</ele>
        <time>1970-01-01T01:42:06.000Z</time>
      </trkpt>
      <trkpt lat="42.658067" lon="0.650423">
        <ele>2726.2</ele>
        <time>1970-01-01T01:42:07.000Z</time>
      </trkpt>
      <trkpt lat="42.658068" lon="0.650425">
        <ele>2726.2</ele>
        <time>1970-01-01T01:42:08.000Z</time>
      </trkpt>
      <trkpt lat="42.65807" lon="0.650428">
        <ele>2726.2</ele>
        <time>1970-01-01T01:42:09.000Z</time>
      </trkpt>
      <trkpt lat="42.65807" lon="0.650432">
        <ele>2726.2</ele>
        <time>1970-01-01T01:42:10.000Z</time>
      </trkpt>
      <trkpt lat="42.65807" lon="0.650436">
        <ele>2726.2</ele>
        <time>1970-01-01T01:42:11.000Z</time>
      </trkpt>
      <trkpt lat="42.65807" lon="0.650438">
        <ele>2726.2</ele>
        <time>1970-01-01T01:42:12.000Z</time>
      </trkpt>
      <trkpt lat="42.658069" lon="0.65044">
        <ele>2726.2</ele>
        <time>1970-01-01T01:42:13.000Z</time>
      </trkpt>
      <trkpt lat="42.658069" lon="0.650441">
        <ele>2726.2</ele>
        <time>1970-01-01T01:42:14.000Z</time>
      </trkpt>
      <trkpt lat="42.658067" lon="0.650443">
        <ele>2726.2</ele>
        <time>1970-01-01T01:42:15.000Z</time>
      </trkpt>
      <trkpt lat="42.658066" lon="0.650444">
        <ele>2726.2</ele>
        <time>1970-01-01T01:42:16.000Z</time>
      </trkpt>
      <trkpt lat="42.658065" lon="0.650445">
        <ele>2726.2</ele>
        <time>1970-01-01T01:42:17.000Z</time>
      </trkpt>
      <trkpt lat="42.658064" lon="0.650445">
        <ele>2726.2</ele>
        <time>1970-01-01T01:42:18.000Z</time>
      </trkpt>
      <trkpt lat="42.658061" lon="0.650444">
        <ele>2726.2</ele>
        <time>1970-01-01T01:42:19.000Z</time>
      </trkpt>
      <trkpt lat="42.65806" lon="0.650442">
        <ele>2726.2</ele>
        <time>1970-01-01T01:42:20.000Z</time>
      </trkpt>
      <trkpt lat="42.658051" lon="0.650436">
        <ele>2726.2</ele>
        <time>1970-01-01T01:42:21.000Z</time>
      </trkpt>
      <trkpt lat="42.658047" lon="0.650432">
        <ele>2726.2</ele>
        <time>1970-01-01T01:42:22.000Z</time>
      </trkpt>
      <trkpt lat="42.658046" lon="0.650428">
        <ele>2726.2</ele>
        <time>1970-01-01T01:42:23.000Z</time>
      </trkpt>
      <trkpt lat="42.658045" lon="0.650425">
        <ele>2726.2</ele>
        <time>1970-01-01T01:42:24.000Z</time>
      </trkpt>
      <trkpt lat="42.658045" lon="0.650421">
        <ele>2726.2</ele>
        <time>1970-01-01T01:42:25.000Z</time>
      </trkpt>
      <trkpt lat="42.658042" lon="0.650415">
        <ele>2727.4</ele>
        <time>1970-01-01T01:42:27.000Z</time>
      </trkpt>
      <trkpt lat="42.658038" lon="0.650415">
        <ele>2727.4</ele>
        <time>1970-01-01T01:42:28.000Z</time>
      </trkpt>
      <trkpt lat="42.658036" lon="0.650416">
        <ele>2727.4</ele>
        <time>1970-01-01T01:42:29.000Z</time>
      </trkpt>
      <trkpt lat="42.658034" lon="0.650419">
        <ele>2727.4</ele>
        <time>1970-01-01T01:42:30.000Z</time>
      </trkpt>
      <trkpt lat="42.658032" lon="0.650423">
        <ele>2727.4</ele>
        <time>1970-01-01T01:42:31.000Z</time>
      </trkpt>
      <trkpt lat="42.658031" lon="0.650425">
        <ele>2727.4</ele>
        <time>1970-01-01T01:42:32.000Z</time>
      </trkpt>
      <trkpt lat="42.65803" lon="0.650427">
        <ele>2727.4</ele>
        <time>1970-01-01T01:42:33.000Z</time>
      </trkpt>
      <trkpt lat="42.658028" lon="0.650429">
        <ele>2727.4</ele>
        <time>1970-01-01T01:42:34.000Z</time>
      </trkpt>
      <trkpt lat="42.658028" lon="0.650431">
        <ele>2727.4</ele>
        <time>1970-01-01T01:42:35.000Z</time>
      </trkpt>
      <trkpt lat="42.658027" lon="0.650433">
        <ele>2727.4</ele>
        <time>1970-01-01T01:42:36.000Z</time>
      </trkpt>
      <trkpt lat="42.658027" lon="0.650434">
        <ele>2727.4</ele>
        <time>1970-01-01T01:42:37.000Z</time>
      </trkpt>
      <trkpt lat="42.658027" lon="0.650436">
        <ele>2727.4</ele>
        <time>1970-01-01T01:42:38.000Z</time>
      </trkpt>
      <trkpt lat="42.658027" lon="0.650437">
        <ele>2727.4</ele>
        <time>1970-01-01T01:42:39.000Z</time>
      </trkpt>
      <trkpt lat="42.658027" lon="0.650439">
        <ele>2727.4</ele>
        <time>1970-01-01T01:42:40.000Z</time>
      </trkpt>
      <trkpt lat="42.658027" lon="0.650439">
        <ele>2727.4</ele>
        <time>1970-01-01T01:42:41.000Z</time>
      </trkpt>
      <trkpt lat="42.658027" lon="0.65044">
        <ele>2727.4</ele>
        <time>1970-01-01T01:42:42.000Z</time>
      </trkpt>
      <trkpt lat="42.658027" lon="0.650441">
        <ele>2727.4</ele>
        <time>1970-01-01T01:42:43.000Z</time>
      </trkpt>
      <trkpt lat="42.658027" lon="0.650441">
        <ele>2727.4</ele>
        <time>1970-01-01T01:42:44.000Z</time>
      </trkpt>
      <trkpt lat="42.658028" lon="0.650442">
        <ele>2727.4</ele>
        <time>1970-01-01T01:42:45.000Z</time>
      </trkpt>
      <trkpt lat="42.658028" lon="0.650442">
        <ele>2727.4</ele>
        <time>1970-01-01T01:42:46.000Z</time>
      </trkpt>
      <trkpt lat="42.658028" lon="0.650443">
        <ele>2727.4</ele>
        <time>1970-01-01T01:42:47.000Z</time>
      </trkpt>
      <trkpt lat="42.658031" lon="0.650443">
        <ele>2727.4</ele>
        <time>1970-01-01T01:42:48.000Z</time>
      </trkpt>
      <trkpt lat="42.658033" lon="0.650443">
        <ele>2727.4</ele>
        <time>1970-01-01T01:42:49.000Z</time>
      </trkpt>
      <trkpt lat="42.658033" lon="0.650444">
        <ele>2727.4</ele>
        <time>1970-01-01T01:42:50.000Z</time>
      </trkpt>
      <trkpt lat="42.658029" lon="0.650444">
        <ele>2727.4</ele>
        <time>1970-01-01T01:42:51.000Z</time>
      </trkpt>
      <trkpt lat="42.658027" lon="0.650444">
        <ele>2727.4</ele>
        <time>1970-01-01T01:42:52.000Z</time>
      </trkpt>
      <trkpt lat="42.658019" lon="0.650441">
        <ele>2727.4</ele>
        <time>1970-01-01T01:42:53.000Z</time>
      </trkpt>
      <trkpt lat="42.658012" lon="0.650437">
        <ele>2728.5</ele>
        <time>1970-01-01T01:42:54.000Z</time>
      </trkpt>
      <trkpt lat="42.658008" lon="0.650435">
        <ele>2728.5</ele>
        <time>1970-01-01T01:42:55.000Z</time>
      </trkpt>
      <trkpt lat="42.658007" lon="0.650433">
        <ele>2728.5</ele>
        <time>1970-01-01T01:42:56.000Z</time>
      </trkpt>
      <trkpt lat="42.658003" lon="0.65043">
        <ele>2728.5</ele>
        <time>1970-01-01T01:42:57.000Z</time>
      </trkpt>
      <trkpt lat="42.658002" lon="0.650427">
        <ele>2728.5</ele>
        <time>1970-01-01T01:42:58.000Z</time>
      </trkpt>
      <trkpt lat="42.658005" lon="0.650425">
        <ele>2728.5</ele>
        <time>1970-01-01T01:42:59.000Z</time>
      </trkpt>
      <trkpt lat="42.658007" lon="0.650424">
        <ele>2728.5</ele>
        <time>1970-01-01T01:43:00.000Z</time>
      </trkpt>
      <trkpt lat="42.658008" lon="0.650423">
        <ele>2728.5</ele>
        <time>1970-01-01T01:43:01.000Z</time>
      </trkpt>
      <trkpt lat="42.65801" lon="0.650422">
        <ele>2728.5</ele>
        <time>1970-01-01T01:43:02.000Z</time>
      </trkpt>
      <trkpt lat="42.65801" lon="0.650422">
        <ele>2728.5</ele>
        <time>1970-01-01T01:43:03.000Z</time>
      </trkpt>
      <trkpt lat="42.658012" lon="0.650422">
        <ele>2728.5</ele>
        <time>1970-01-01T01:43:05.000Z</time>
      </trkpt>
      <trkpt lat="42.658012" lon="0.650421">
        <ele>2728.5</ele>
        <time>1970-01-01T01:43:06.000Z</time>
      </trkpt>
      <trkpt lat="42.658012" lon="0.650421">
        <ele>2728.5</ele>
        <time>1970-01-01T01:43:07.000Z</time>
      </trkpt>
      <trkpt lat="42.658012" lon="0.650421">
        <ele>2728.5</ele>
        <time>1970-01-01T01:43:08.000Z</time>
      </trkpt>
      <trkpt lat="42.658013" lon="0.65042">
        <ele>2727.4</ele>
        <time>1970-01-01T01:43:09.000Z</time>
      </trkpt>
      <trkpt lat="42.658013" lon="0.650421">
        <ele>2727.4</ele>
        <time>1970-01-01T01:43:10.000Z</time>
      </trkpt>
      <trkpt lat="42.658012" lon="0.650421">
        <ele>2728.5</ele>
        <time>1970-01-01T01:43:11.000Z</time>
      </trkpt>
      <trkpt lat="42.658012" lon="0.650421">
        <ele>2728.5</ele>
        <time>1970-01-01T01:43:12.000Z</time>
      </trkpt>
      <trkpt lat="42.65801" lon="0.650422">
        <ele>2728.5</ele>
        <time>1970-01-01T01:43:14.000Z</time>
      </trkpt>
      <trkpt lat="42.658009" lon="0.650425">
        <ele>2728.5</ele>
        <time>1970-01-01T01:43:15.000Z</time>
      </trkpt>
      <trkpt lat="42.658008" lon="0.650427">
        <ele>2728.5</ele>
        <time>1970-01-01T01:43:16.000Z</time>
      </trkpt>
      <trkpt lat="42.658008" lon="0.650428">
        <ele>2728.5</ele>
        <time>1970-01-01T01:43:17.000Z</time>
      </trkpt>
      <trkpt lat="42.658007" lon="0.65043">
        <ele>2728.5</ele>
        <time>1970-01-01T01:43:18.000Z</time>
      </trkpt>
      <trkpt lat="42.658006" lon="0.650433">
        <ele>2728.5</ele>
        <time>1970-01-01T01:43:19.000Z</time>
      </trkpt>
      <trkpt lat="42.658005" lon="0.650435">
        <ele>2728.5</ele>
        <time>1970-01-01T01:43:20.000Z</time>
      </trkpt>
      <trkpt lat="42.658004" lon="0.650439">
        <ele>2728.5</ele>
        <time>1970-01-01T01:43:21.000Z</time>
      </trkpt>
      <trkpt lat="42.658003" lon="0.650442">
        <ele>2728.5</ele>
        <time>1970-01-01T01:43:22.000Z</time>
      </trkpt>
      <trkpt lat="42.658002" lon="0.650443">
        <ele>2728.5</ele>
        <time>1970-01-01T01:43:23.000Z</time>
      </trkpt>
      <trkpt lat="42.658002" lon="0.650444">
        <ele>2728.5</ele>
        <time>1970-01-01T01:43:24.000Z</time>
      </trkpt>
      <trkpt lat="42.658002" lon="0.650445">
        <ele>2728.5</ele>
        <time>1970-01-01T01:43:25.000Z</time>
      </trkpt>
      <trkpt lat="42.658" lon="0.650447">
        <ele>2728.5</ele>
        <time>1970-01-01T01:43:27.000Z</time>
      </trkpt>
      <trkpt lat="42.657999" lon="0.650448">
        <ele>2728.5</ele>
        <time>1970-01-01T01:43:28.000Z</time>
      </trkpt>
      <trkpt lat="42.657998" lon="0.650449">
        <ele>2728.5</ele>
        <time>1970-01-01T01:43:29.000Z</time>
      </trkpt>
      <trkpt lat="42.657998" lon="0.65045">
        <ele>2728.5</ele>
        <time>1970-01-01T01:43:30.000Z</time>
      </trkpt>
      <trkpt lat="42.657997" lon="0.650452">
        <ele>2728.5</ele>
        <time>1970-01-01T01:43:31.000Z</time>
      </trkpt>
      <trkpt lat="42.657997" lon="0.650452">
        <ele>2728.5</ele>
        <time>1970-01-01T01:43:32.000Z</time>
      </trkpt>
      <trkpt lat="42.657997" lon="0.650453">
        <ele>2728.5</ele>
        <time>1970-01-01T01:43:33.000Z</time>
      </trkpt>
      <trkpt lat="42.657997" lon="0.650453">
        <ele>2728.5</ele>
        <time>1970-01-01T01:43:34.000Z</time>
      </trkpt>
      <trkpt lat="42.657996" lon="0.650453">
        <ele>2728.5</ele>
        <time>1970-01-01T01:43:35.000Z</time>
      </trkpt>
      <trkpt lat="42.657995" lon="0.650453">
        <ele>2728.5</ele>
        <time>1970-01-01T01:43:36.000Z</time>
      </trkpt>
      <trkpt lat="42.657994" lon="0.650453">
        <ele>2728.5</ele>
        <time>1970-01-01T01:43:37.000Z</time>
      </trkpt>
      <trkpt lat="42.657993" lon="0.650452">
        <ele>2728.5</ele>
        <time>1970-01-01T01:43:38.000Z</time>
      </trkpt>
      <trkpt lat="42.657992" lon="0.650452">
        <ele>2728.5</ele>
        <time>1970-01-01T01:43:39.000Z</time>
      </trkpt>
      <trkpt lat="42.657991" lon="0.650451">
        <ele>2728.5</ele>
        <time>1970-01-01T01:43:40.000Z</time>
      </trkpt>
      <trkpt lat="42.657991" lon="0.650451">
        <ele>2728.5</ele>
        <time>1970-01-01T01:43:41.000Z</time>
      </trkpt>
      <trkpt lat="42.65799" lon="0.650451">
        <ele>2728.5</ele>
        <time>1970-01-01T01:43:42.000Z</time>
      </trkpt>
      <trkpt lat="42.65799" lon="0.65045">
        <ele>2728.5</ele>
        <time>1970-01-01T01:43:43.000Z</time>
      </trkpt>
      <trkpt lat="42.65799" lon="0.65045">
        <ele>2728.5</ele>
        <time>1970-01-01T01:43:44.000Z</time>
      </trkpt>
      <trkpt lat="42.65799" lon="0.650449">
        <ele>2728.5</ele>
        <time>1970-01-01T01:43:45.000Z</time>
      </trkpt>
      <trkpt lat="42.65799" lon="0.650448">
        <ele>2728.5</ele>
        <time>1970-01-01T01:43:47.000Z</time>
      </trkpt>
      <trkpt lat="42.657989" lon="0.650447">
        <ele>2728.5</ele>
        <time>1970-01-01T01:43:48.000Z</time>
      </trkpt>
      <trkpt lat="42.657989" lon="0.650447">
        <ele>2728.5</ele>
        <time>1970-01-01T01:43:49.000Z</time>
      </trkpt>
      <trkpt lat="42.657988" lon="0.650446">
        <ele>2728.5</ele>
        <time>1970-01-01T01:43:50.000Z</time>
      </trkpt>
      <trkpt lat="42.657987" lon="0.650446">
        <ele>2728.5</ele>
        <time>1970-01-01T01:43:51.000Z</time>
      </trkpt>
      <trkpt lat="42.657984" lon="0.650445">
        <ele>2728.5</ele>
        <time>1970-01-01T01:43:52.000Z</time>
      </trkpt>
      <trkpt lat="42.65798" lon="0.650443">
        <ele>2729.5</ele>
        <time>1970-01-01T01:43:53.000Z</time>
      </trkpt>
      <trkpt lat="42.657975" lon="0.650442">
        <ele>2729.5</ele>
        <time>1970-01-01T01:43:54.000Z</time>
      </trkpt>
      <trkpt lat="42.65797" lon="0.650442">
        <ele>2729.5</ele>
        <time>1970-01-01T01:43:55.000Z</time>
      </trkpt>
      <trkpt lat="42.657967" lon="0.650441">
        <ele>2729.5</ele>
        <time>1970-01-01T01:43:56.000Z</time>
      </trkpt>
      <trkpt lat="42.657965" lon="0.65044">
        <ele>2729.5</ele>
        <time>1970-01-01T01:43:57.000Z</time>
      </trkpt>
      <trkpt lat="42.657961" lon="0.650435">
        <ele>2729.5</ele>
        <time>1970-01-01T01:43:59.000Z</time>
      </trkpt>
      <trkpt lat="42.657959" lon="0.650429">
        <ele>2729.5</ele>
        <time>1970-01-01T01:44:00.000Z</time>
      </trkpt>
      <trkpt lat="42.65796" lon="0.650426">
        <ele>2729.5</ele>
        <time>1970-01-01T01:44:01.000Z</time>
      </trkpt>
      <trkpt lat="42.657963" lon="0.650409">
        <ele>2729.6</ele>
        <time>1970-01-01T01:44:03.000Z</time>
      </trkpt>
      <trkpt lat="42.657967" lon="0.650402">
        <ele>2729.6</ele>
        <time>1970-01-01T01:44:04.000Z</time>
      </trkpt>
      <trkpt lat="42.657967" lon="0.650399">
        <ele>2729.6</ele>
        <time>1970-01-01T01:44:05.000Z</time>
      </trkpt>
      <trkpt lat="42.657965" lon="0.650394">
        <ele>2729.6</ele>
        <time>1970-01-01T01:44:06.000Z</time>
      </trkpt>
      <trkpt lat="42.657966" lon="0.65038">
        <ele>2729.7</ele>
        <time>1970-01-01T01:44:08.000Z</time>
      </trkpt>
      <trkpt lat="42.657968" lon="0.650375">
        <ele>2729.7</ele>
        <time>1970-01-01T01:44:09.000Z</time>
      </trkpt>
      <trkpt lat="42.657965" lon="0.650374">
        <ele>2729.7</ele>
        <time>1970-01-01T01:44:10.000Z</time>
      </trkpt>
      <trkpt lat="42.657962" lon="0.650373">
        <ele>2729.7</ele>
        <time>1970-01-01T01:44:11.000Z</time>
      </trkpt>
      <trkpt lat="42.657959" lon="0.650373">
        <ele>2729.7</ele>
        <time>1970-01-01T01:44:12.000Z</time>
      </trkpt>
      <trkpt lat="42.657955" lon="0.650373">
        <ele>2729.7</ele>
        <time>1970-01-01T01:44:13.000Z</time>
      </trkpt>
      <trkpt lat="42.657953" lon="0.650373">
        <ele>2729.7</ele>
        <time>1970-01-01T01:44:14.000Z</time>
      </trkpt>
      <trkpt lat="42.657952" lon="0.650372">
        <ele>2729.7</ele>
        <time>1970-01-01T01:44:15.000Z</time>
      </trkpt>
      <trkpt lat="42.657953" lon="0.650371">
        <ele>2729.7</ele>
        <time>1970-01-01T01:44:16.000Z</time>
      </trkpt>
      <trkpt lat="42.657954" lon="0.650369">
        <ele>2729.7</ele>
        <time>1970-01-01T01:44:17.000Z</time>
      </trkpt>
      <trkpt lat="42.657953" lon="0.650365">
        <ele>2729.7</ele>
        <time>1970-01-01T01:44:19.000Z</time>
      </trkpt>
      <trkpt lat="42.657952" lon="0.650366">
        <ele>2729.7</ele>
        <time>1970-01-01T01:44:20.000Z</time>
      </trkpt>
      <trkpt lat="42.65795" lon="0.650367">
        <ele>2729.7</ele>
        <time>1970-01-01T01:44:21.000Z</time>
      </trkpt>
      <trkpt lat="42.657948" lon="0.650369">
        <ele>2730.7</ele>
        <time>1970-01-01T01:44:22.000Z</time>
      </trkpt>
      <trkpt lat="42.657945" lon="0.65037">
        <ele>2730.7</ele>
        <time>1970-01-01T01:44:23.000Z</time>
      </trkpt>
      <trkpt lat="42.65794" lon="0.65037">
        <ele>2730.7</ele>
        <time>1970-01-01T01:44:24.000Z</time>
      </trkpt>
      <trkpt lat="42.657936" lon="0.650372">
        <ele>2730.7</ele>
        <time>1970-01-01T01:44:26.000Z</time>
      </trkpt>
      <trkpt lat="42.657935" lon="0.650375">
        <ele>2730.7</ele>
        <time>1970-01-01T01:44:27.000Z</time>
      </trkpt>
      <trkpt lat="42.657932" lon="0.65038">
        <ele>2730.7</ele>
        <time>1970-01-01T01:44:28.000Z</time>
      </trkpt>
      <trkpt lat="42.65793" lon="0.650382">
        <ele>2730.7</ele>
        <time>1970-01-01T01:44:29.000Z</time>
      </trkpt>
      <trkpt lat="42.657929" lon="0.650385">
        <ele>2730.6</ele>
        <time>1970-01-01T01:44:30.000Z</time>
      </trkpt>
      <trkpt lat="42.657928" lon="0.650388">
        <ele>2730.6</ele>
        <time>1970-01-01T01:44:31.000Z</time>
      </trkpt>
      <trkpt lat="42.657926" lon="0.65039">
        <ele>2730.6</ele>
        <time>1970-01-01T01:44:32.000Z</time>
      </trkpt>
      <trkpt lat="42.657925" lon="0.65039">
        <ele>2730.6</ele>
        <time>1970-01-01T01:44:33.000Z</time>
      </trkpt>
      <trkpt lat="42.657922" lon="0.650392">
        <ele>2730.6</ele>
        <time>1970-01-01T01:44:34.000Z</time>
      </trkpt>
      <trkpt lat="42.65792" lon="0.650398">
        <ele>2730.6</ele>
        <time>1970-01-01T01:44:35.000Z</time>
      </trkpt>
      <trkpt lat="42.657919" lon="0.650408">
        <ele>2730.6</ele>
        <time>1970-01-01T01:44:36.000Z</time>
      </trkpt>
      <trkpt lat="42.657916" lon="0.650419">
        <ele>2731.6</ele>
        <time>1970-01-01T01:44:38.000Z</time>
      </trkpt>
      <trkpt lat="42.657912" lon="0.650421">
        <ele>2731.6</ele>
        <time>1970-01-01T01:44:39.000Z</time>
      </trkpt>
      <trkpt lat="42.657909" lon="0.650423">
        <ele>2731.6</ele>
        <time>1970-01-01T01:44:40.000Z</time>
      </trkpt>
      <trkpt lat="42.657905" lon="0.650421">
        <ele>2731.6</ele>
        <time>1970-01-01T01:44:41.000Z</time>
      </trkpt>
      <trkpt lat="42.657902" lon="0.650419">
        <ele>2731.6</ele>
        <time>1970-01-01T01:44:42.000Z</time>
      </trkpt>
      <trkpt lat="42.657901" lon="0.650417">
        <ele>2731.6</ele>
        <time>1970-01-01T01:44:43.000Z</time>
      </trkpt>
      <trkpt lat="42.657899" lon="0.650414">
        <ele>2731.6</ele>
        <time>1970-01-01T01:44:44.000Z</time>
      </trkpt>
      <trkpt lat="42.657898" lon="0.650412">
        <ele>2731.6</ele>
        <time>1970-01-01T01:44:45.000Z</time>
      </trkpt>
      <trkpt lat="42.657897" lon="0.65041">
        <ele>2731.6</ele>
        <time>1970-01-01T01:44:46.000Z</time>
      </trkpt>
      <trkpt lat="42.657894" lon="0.650404">
        <ele>2731.6</ele>
        <time>1970-01-01T01:44:48.000Z</time>
      </trkpt>
      <trkpt lat="42.657893" lon="0.650402">
        <ele>2731.6</ele>
        <time>1970-01-01T01:44:49.000Z</time>
      </trkpt>
      <trkpt lat="42.657892" lon="0.650402">
        <ele>2731.6</ele>
        <time>1970-01-01T01:44:50.000Z</time>
      </trkpt>
      <trkpt lat="42.657892" lon="0.650401">
        <ele>2731.6</ele>
        <time>1970-01-01T01:44:51.000Z</time>
      </trkpt>
      <trkpt lat="42.657892" lon="0.650401">
        <ele>2731.6</ele>
        <time>1970-01-01T01:44:52.000Z</time>
      </trkpt>
      <trkpt lat="42.65789" lon="0.650403">
        <ele>2731.6</ele>
        <time>1970-01-01T01:44:53.000Z</time>
      </trkpt>
      <trkpt lat="42.657888" lon="0.650404">
        <ele>2731.6</ele>
        <time>1970-01-01T01:44:54.000Z</time>
      </trkpt>
      <trkpt lat="42.657885" lon="0.650405">
        <ele>2732.6</ele>
        <time>1970-01-01T01:44:55.000Z</time>
      </trkpt>
      <trkpt lat="42.657882" lon="0.650404">
        <ele>2732.6</ele>
        <time>1970-01-01T01:44:56.000Z</time>
      </trkpt>
      <trkpt lat="42.657877" lon="0.650404">
        <ele>2732.6</ele>
        <time>1970-01-01T01:44:57.000Z</time>
      </trkpt>
      <trkpt lat="42.657873" lon="0.650401">
        <ele>2732.6</ele>
        <time>1970-01-01T01:44:58.000Z</time>
      </trkpt>
      <trkpt lat="42.657872" lon="0.6504">
        <ele>2732.6</ele>
        <time>1970-01-01T01:44:59.000Z</time>
      </trkpt>
      <trkpt lat="42.657871" lon="0.650396">
        <ele>2732.6</ele>
        <time>1970-01-01T01:45:00.000Z</time>
      </trkpt>
      <trkpt lat="42.65787" lon="0.650393">
        <ele>2732.6</ele>
        <time>1970-01-01T01:45:01.000Z</time>
      </trkpt>
      <trkpt lat="42.657868" lon="0.650391">
        <ele>2732.6</ele>
        <time>1970-01-01T01:45:02.000Z</time>
      </trkpt>
      <trkpt lat="42.657864" lon="0.650383">
        <ele>2732.6</ele>
        <time>1970-01-01T01:45:04.000Z</time>
      </trkpt>
      <trkpt lat="42.657861" lon="0.650377">
        <ele>2732.8</ele>
        <time>1970-01-01T01:45:05.000Z</time>
      </trkpt>
      <trkpt lat="42.65786" lon="0.65037">
        <ele>2732.8</ele>
        <time>1970-01-01T01:45:06.000Z</time>
      </trkpt>
      <trkpt lat="42.65786" lon="0.650366">
        <ele>2732.8</ele>
        <time>1970-01-01T01:45:07.000Z</time>
      </trkpt>
      <trkpt lat="42.657861" lon="0.650361">
        <ele>2732.8</ele>
        <time>1970-01-01T01:45:08.000Z</time>
      </trkpt>
      <trkpt lat="42.657862" lon="0.650358">
        <ele>2732.8</ele>
        <time>1970-01-01T01:45:09.000Z</time>
      </trkpt>
      <trkpt lat="42.657864" lon="0.650355">
        <ele>2732.8</ele>
        <time>1970-01-01T01:45:10.000Z</time>
      </trkpt>
      <trkpt lat="42.657865" lon="0.65035">
        <ele>2732.8</ele>
        <time>1970-01-01T01:45:11.000Z</time>
      </trkpt>
      <trkpt lat="42.657866" lon="0.650347">
        <ele>2732.8</ele>
        <time>1970-01-01T01:45:12.000Z</time>
      </trkpt>
      <trkpt lat="42.657864" lon="0.650342">
        <ele>2732.8</ele>
        <time>1970-01-01T01:45:13.000Z</time>
      </trkpt>
      <trkpt lat="42.657862" lon="0.650338">
        <ele>2733</ele>
        <time>1970-01-01T01:45:14.000Z</time>
      </trkpt>
      <trkpt lat="42.657859" lon="0.650336">
        <ele>2733</ele>
        <time>1970-01-01T01:45:15.000Z</time>
      </trkpt>
      <trkpt lat="42.657856" lon="0.650334">
        <ele>2733</ele>
        <time>1970-01-01T01:45:16.000Z</time>
      </trkpt>
      <trkpt lat="42.657851" lon="0.650333">
        <ele>2734.2</ele>
        <time>1970-01-01T01:45:18.000Z</time>
      </trkpt>
      <trkpt lat="42.657848" lon="0.650332">
        <ele>2734.2</ele>
        <time>1970-01-01T01:45:19.000Z</time>
      </trkpt>
      <trkpt lat="42.657846" lon="0.650332">
        <ele>2734.2</ele>
        <time>1970-01-01T01:45:20.000Z</time>
      </trkpt>
      <trkpt lat="42.657845" lon="0.650332">
        <ele>2734.2</ele>
        <time>1970-01-01T01:45:21.000Z</time>
      </trkpt>
      <trkpt lat="42.657844" lon="0.650338">
        <ele>2734.2</ele>
        <time>1970-01-01T01:45:23.000Z</time>
      </trkpt>
      <trkpt lat="42.657844" lon="0.650343">
        <ele>2733.9</ele>
        <time>1970-01-01T01:45:24.000Z</time>
      </trkpt>
      <trkpt lat="42.657841" lon="0.650347">
        <ele>2733.9</ele>
        <time>1970-01-01T01:45:26.000Z</time>
      </trkpt>
      <trkpt lat="42.657839" lon="0.650349">
        <ele>2733.9</ele>
        <time>1970-01-01T01:45:27.000Z</time>
      </trkpt>
      <trkpt lat="42.657836" lon="0.65035">
        <ele>2733.9</ele>
        <time>1970-01-01T01:45:28.000Z</time>
      </trkpt>
      <trkpt lat="42.657832" lon="0.650349">
        <ele>2733.9</ele>
        <time>1970-01-01T01:45:30.000Z</time>
      </trkpt>
      <trkpt lat="42.657829" lon="0.650346">
        <ele>2733.9</ele>
        <time>1970-01-01T01:45:31.000Z</time>
      </trkpt>
      <trkpt lat="42.657827" lon="0.650345">
        <ele>2733.9</ele>
        <time>1970-01-01T01:45:32.000Z</time>
      </trkpt>
      <trkpt lat="42.657825" lon="0.650342">
        <ele>2733.9</ele>
        <time>1970-01-01T01:45:33.000Z</time>
      </trkpt>
      <trkpt lat="42.657822" lon="0.650336">
        <ele>2735.3</ele>
        <time>1970-01-01T01:45:34.000Z</time>
      </trkpt>
      <trkpt lat="42.657818" lon="0.650334">
        <ele>2735.3</ele>
        <time>1970-01-01T01:45:36.000Z</time>
      </trkpt>
      <trkpt lat="42.657816" lon="0.650334">
        <ele>2735.3</ele>
        <time>1970-01-01T01:45:37.000Z</time>
      </trkpt>
      <trkpt lat="42.657814" lon="0.650335">
        <ele>2735.3</ele>
        <time>1970-01-01T01:45:38.000Z</time>
      </trkpt>
      <trkpt lat="42.657812" lon="0.650334">
        <ele>2735.3</ele>
        <time>1970-01-01T01:45:39.000Z</time>
      </trkpt>
      <trkpt lat="42.657812" lon="0.650334">
        <ele>2735.3</ele>
        <time>1970-01-01T01:45:40.000Z</time>
      </trkpt>
      <trkpt lat="42.657811" lon="0.650335">
        <ele>2735.3</ele>
        <time>1970-01-01T01:45:41.000Z</time>
      </trkpt>
      <trkpt lat="42.657811" lon="0.650334">
        <ele>2735.3</ele>
        <time>1970-01-01T01:45:42.000Z</time>
      </trkpt>
      <trkpt lat="42.657809" lon="0.650334">
        <ele>2735.3</ele>
        <time>1970-01-01T01:45:43.000Z</time>
      </trkpt>
      <trkpt lat="42.657806" lon="0.650332">
        <ele>2735.3</ele>
        <time>1970-01-01T01:45:44.000Z</time>
      </trkpt>
      <trkpt lat="42.657804" lon="0.65033">
        <ele>2735.3</ele>
        <time>1970-01-01T01:45:45.000Z</time>
      </trkpt>
      <trkpt lat="42.657804" lon="0.650328">
        <ele>2735.3</ele>
        <time>1970-01-01T01:45:46.000Z</time>
      </trkpt>
      <trkpt lat="42.657802" lon="0.650326">
        <ele>2735.3</ele>
        <time>1970-01-01T01:45:47.000Z</time>
      </trkpt>
      <trkpt lat="42.657801" lon="0.650325">
        <ele>2735.3</ele>
        <time>1970-01-01T01:45:48.000Z</time>
      </trkpt>
      <trkpt lat="42.6578" lon="0.650323">
        <ele>2735.3</ele>
        <time>1970-01-01T01:45:49.000Z</time>
      </trkpt>
      <trkpt lat="42.657799" lon="0.650322">
        <ele>2735.3</ele>
        <time>1970-01-01T01:45:50.000Z</time>
      </trkpt>
      <trkpt lat="42.657799" lon="0.65032">
        <ele>2735.3</ele>
        <time>1970-01-01T01:45:51.000Z</time>
      </trkpt>
      <trkpt lat="42.657798" lon="0.650319">
        <ele>2735.3</ele>
        <time>1970-01-01T01:45:52.000Z</time>
      </trkpt>
      <trkpt lat="42.657797" lon="0.650318">
        <ele>2735.3</ele>
        <time>1970-01-01T01:45:53.000Z</time>
      </trkpt>
      <trkpt lat="42.657796" lon="0.650318">
        <ele>2735.3</ele>
        <time>1970-01-01T01:45:54.000Z</time>
      </trkpt>
      <trkpt lat="42.657796" lon="0.650318">
        <ele>2735.3</ele>
        <time>1970-01-01T01:45:55.000Z</time>
      </trkpt>
      <trkpt lat="42.657795" lon="0.650319">
        <ele>2735.3</ele>
        <time>1970-01-01T01:45:56.000Z</time>
      </trkpt>
      <trkpt lat="42.657794" lon="0.650317">
        <ele>2735.3</ele>
        <time>1970-01-01T01:45:57.000Z</time>
      </trkpt>
      <trkpt lat="42.657795" lon="0.650315">
        <ele>2735.3</ele>
        <time>1970-01-01T01:45:58.000Z</time>
      </trkpt>
      <trkpt lat="42.657797" lon="0.650312">
        <ele>2735.3</ele>
        <time>1970-01-01T01:45:59.000Z</time>
      </trkpt>
      <trkpt lat="42.657799" lon="0.650309">
        <ele>2735.3</ele>
        <time>1970-01-01T01:46:00.000Z</time>
      </trkpt>
      <trkpt lat="42.657801" lon="0.650308">
        <ele>2735.3</ele>
        <time>1970-01-01T01:46:01.000Z</time>
      </trkpt>
      <trkpt lat="42.657803" lon="0.650307">
        <ele>2735.3</ele>
        <time>1970-01-01T01:46:02.000Z</time>
      </trkpt>
      <trkpt lat="42.657804" lon="0.650306">
        <ele>2735.3</ele>
        <time>1970-01-01T01:46:03.000Z</time>
      </trkpt>
      <trkpt lat="42.657805" lon="0.650304">
        <ele>2735.3</ele>
        <time>1970-01-01T01:46:05.000Z</time>
      </trkpt>
      <trkpt lat="42.657805" lon="0.650304">
        <ele>2735.3</ele>
        <time>1970-01-01T01:46:06.000Z</time>
      </trkpt>
      <trkpt lat="42.657806" lon="0.650304">
        <ele>2735.3</ele>
        <time>1970-01-01T01:46:07.000Z</time>
      </trkpt>
      <trkpt lat="42.657807" lon="0.650304">
        <ele>2735.3</ele>
        <time>1970-01-01T01:46:08.000Z</time>
      </trkpt>
      <trkpt lat="42.657808" lon="0.650303">
        <ele>2735.3</ele>
        <time>1970-01-01T01:46:10.000Z</time>
      </trkpt>
      <trkpt lat="42.657808" lon="0.650301">
        <ele>2735.3</ele>
        <time>1970-01-01T01:46:11.000Z</time>
      </trkpt>
      <trkpt lat="42.657809" lon="0.650298">
        <ele>2735.3</ele>
        <time>1970-01-01T01:46:12.000Z</time>
      </trkpt>
      <trkpt lat="42.65781" lon="0.650294">
        <ele>2735.6</ele>
        <time>1970-01-01T01:46:14.000Z</time>
      </trkpt>
      <trkpt lat="42.657811" lon="0.650289">
        <ele>2735.6</ele>
        <time>1970-01-01T01:46:15.000Z</time>
      </trkpt>
      <trkpt lat="42.65781" lon="0.650282">
        <ele>2735.6</ele>
        <time>1970-01-01T01:46:16.000Z</time>
      </trkpt>
      <trkpt lat="42.65781" lon="0.650278">
        <ele>2735.6</ele>
        <time>1970-01-01T01:46:17.000Z</time>
      </trkpt>
      <trkpt lat="42.657809" lon="0.650273">
        <ele>2735.6</ele>
        <time>1970-01-01T01:46:18.000Z</time>
      </trkpt>
      <trkpt lat="42.657807" lon="0.650269">
        <ele>2735.6</ele>
        <time>1970-01-01T01:46:19.000Z</time>
      </trkpt>
      <trkpt lat="42.657805" lon="0.650266">
        <ele>2735.6</ele>
        <time>1970-01-01T01:46:20.000Z</time>
      </trkpt>
      <trkpt lat="42.657804" lon="0.650264">
        <ele>2735.6</ele>
        <time>1970-01-01T01:46:21.000Z</time>
      </trkpt>
      <trkpt lat="42.657802" lon="0.650253">
        <ele>2735.9</ele>
        <time>1970-01-01T01:46:23.000Z</time>
      </trkpt>
      <trkpt lat="42.657799" lon="0.650244">
        <ele>2735.9</ele>
        <time>1970-01-01T01:46:24.000Z</time>
      </trkpt>
      <trkpt lat="42.657795" lon="0.650235">
        <ele>2735.9</ele>
        <time>1970-01-01T01:46:25.000Z</time>
      </trkpt>
      <trkpt lat="42.657794" lon="0.650227">
        <ele>2735.9</ele>
        <time>1970-01-01T01:46:26.000Z</time>
      </trkpt>
      <trkpt lat="42.657797" lon="0.650216">
        <ele>2735.9</ele>
        <time>1970-01-01T01:46:28.000Z</time>
      </trkpt>
      <trkpt lat="42.657799" lon="0.650208">
        <ele>2736.3</ele>
        <time>1970-01-01T01:46:29.000Z</time>
      </trkpt>
      <trkpt lat="42.6578" lon="0.650199">
        <ele>2736.3</ele>
        <time>1970-01-01T01:46:30.000Z</time>
      </trkpt>
      <trkpt lat="42.6578" lon="0.65019">
        <ele>2736.3</ele>
        <time>1970-01-01T01:46:31.000Z</time>
      </trkpt>
      <trkpt lat="42.6578" lon="0.650183">
        <ele>2736.3</ele>
        <time>1970-01-01T01:46:32.000Z</time>
      </trkpt>
      <trkpt lat="42.657801" lon="0.650181">
        <ele>2736.3</ele>
        <time>1970-01-01T01:46:33.000Z</time>
      </trkpt>
      <trkpt lat="42.657802" lon="0.650172">
        <ele>2736.3</ele>
        <time>1970-01-01T01:46:34.000Z</time>
      </trkpt>
      <trkpt lat="42.657804" lon="0.65016">
        <ele>2736.6</ele>
        <time>1970-01-01T01:46:36.000Z</time>
      </trkpt>
      <trkpt lat="42.657807" lon="0.65015">
        <ele>2736.6</ele>
        <time>1970-01-01T01:46:38.000Z</time>
      </trkpt>
      <trkpt lat="42.65781" lon="0.650142">
        <ele>2736.6</ele>
        <time>1970-01-01T01:46:39.000Z</time>
      </trkpt>
      <trkpt lat="42.657811" lon="0.650139">
        <ele>2736.6</ele>
        <time>1970-01-01T01:46:40.000Z</time>
      </trkpt>
      <trkpt lat="42.657812" lon="0.650138">
        <ele>2736.6</ele>
        <time>1970-01-01T01:46:41.000Z</time>
      </trkpt>
      <trkpt lat="42.657811" lon="0.650139">
        <ele>2736.6</ele>
        <time>1970-01-01T01:46:42.000Z</time>
      </trkpt>
      <trkpt lat="42.65781" lon="0.65014">
        <ele>2736.6</ele>
        <time>1970-01-01T01:46:43.000Z</time>
      </trkpt>
      <trkpt lat="42.65781" lon="0.650142">
        <ele>2736.6</ele>
        <time>1970-01-01T01:46:44.000Z</time>
      </trkpt>
      <trkpt lat="42.65781" lon="0.650142">
        <ele>2736.6</ele>
        <time>1970-01-01T01:46:45.000Z</time>
      </trkpt>
      <trkpt lat="42.657811" lon="0.650142">
        <ele>2736.6</ele>
        <time>1970-01-01T01:46:46.000Z</time>
      </trkpt>
      <trkpt lat="42.657811" lon="0.650142">
        <ele>2736.6</ele>
        <time>1970-01-01T01:46:47.000Z</time>
      </trkpt>
      <trkpt lat="42.657811" lon="0.650141">
        <ele>2736.6</ele>
        <time>1970-01-01T01:46:48.000Z</time>
      </trkpt>
      <trkpt lat="42.657811" lon="0.650141">
        <ele>2736.6</ele>
        <time>1970-01-01T01:46:49.000Z</time>
      </trkpt>
      <trkpt lat="42.657811" lon="0.650141">
        <ele>2736.6</ele>
        <time>1970-01-01T01:46:50.000Z</time>
      </trkpt>
      <trkpt lat="42.65781" lon="0.650141">
        <ele>2736.6</ele>
        <time>1970-01-01T01:46:51.000Z</time>
      </trkpt>
      <trkpt lat="42.65781" lon="0.650141">
        <ele>2736.6</ele>
        <time>1970-01-01T01:46:52.000Z</time>
      </trkpt>
      <trkpt lat="42.657811" lon="0.650142">
        <ele>2736.6</ele>
        <time>1970-01-01T01:46:53.000Z</time>
      </trkpt>
      <trkpt lat="42.65781" lon="0.650143">
        <ele>2736.6</ele>
        <time>1970-01-01T01:46:54.000Z</time>
      </trkpt>
      <trkpt lat="42.657811" lon="0.650143">
        <ele>2736.6</ele>
        <time>1970-01-01T01:46:55.000Z</time>
      </trkpt>
      <trkpt lat="42.657811" lon="0.650143">
        <ele>2736.6</ele>
        <time>1970-01-01T01:46:56.000Z</time>
      </trkpt>
      <trkpt lat="42.657811" lon="0.650143">
        <ele>2736.6</ele>
        <time>1970-01-01T01:46:57.000Z</time>
      </trkpt>
      <trkpt lat="42.657813" lon="0.650143">
        <ele>2736.6</ele>
        <time>1970-01-01T01:46:58.000Z</time>
      </trkpt>
      <trkpt lat="42.657815" lon="0.650141">
        <ele>2736.6</ele>
        <time>1970-01-01T01:46:59.000Z</time>
      </trkpt>
      <trkpt lat="42.657815" lon="0.650135">
        <ele>2736.6</ele>
        <time>1970-01-01T01:47:00.000Z</time>
      </trkpt>
      <trkpt lat="42.657812" lon="0.650126">
        <ele>2736.6</ele>
        <time>1970-01-01T01:47:02.000Z</time>
      </trkpt>
      <trkpt lat="42.65781" lon="0.650118">
        <ele>2736.8</ele>
        <time>1970-01-01T01:47:03.000Z</time>
      </trkpt>
      <trkpt lat="42.657808" lon="0.650109">
        <ele>2736.8</ele>
        <time>1970-01-01T01:47:04.000Z</time>
      </trkpt>
      <trkpt lat="42.657803" lon="0.650092">
        <ele>2736.8</ele>
        <time>1970-01-01T01:47:05.000Z</time>
      </trkpt>
      <trkpt lat="42.657799" lon="0.650077">
        <ele>2737.1</ele>
        <time>1970-01-01T01:47:06.000Z</time>
      </trkpt>
      <trkpt lat="42.657797" lon="0.650062">
        <ele>2737.1</ele>
        <time>1970-01-01T01:47:08.000Z</time>
      </trkpt>
      <trkpt lat="42.657792" lon="0.650046">
        <ele>2737.1</ele>
        <time>1970-01-01T01:47:09.000Z</time>
      </trkpt>
      <trkpt lat="42.657789" lon="0.650038">
        <ele>2738.8</ele>
        <time>1970-01-01T01:47:10.000Z</time>
      </trkpt>
      <trkpt lat="42.657786" lon="0.650029">
        <ele>2738.8</ele>
        <time>1970-01-01T01:47:12.000Z</time>
      </trkpt>
      <trkpt lat="42.657784" lon="0.65003">
        <ele>2738.8</ele>
        <time>1970-01-01T01:47:13.000Z</time>
      </trkpt>
      <trkpt lat="42.657784" lon="0.650032">
        <ele>2738.8</ele>
        <time>1970-01-01T01:47:14.000Z</time>
      </trkpt>
      <trkpt lat="42.657784" lon="0.650035">
        <ele>2738.8</ele>
        <time>1970-01-01T01:47:15.000Z</time>
      </trkpt>
      <trkpt lat="42.657782" lon="0.650036">
        <ele>2738.8</ele>
        <time>1970-01-01T01:47:16.000Z</time>
      </trkpt>
      <trkpt lat="42.657777" lon="0.650031">
        <ele>2738.8</ele>
        <time>1970-01-01T01:47:18.000Z</time>
      </trkpt>
      <trkpt lat="42.657772" lon="0.650034">
        <ele>2738.8</ele>
        <time>1970-01-01T01:47:19.000Z</time>
      </trkpt>
      <trkpt lat="42.657769" lon="0.650035">
        <ele>2738.8</ele>
        <time>1970-01-01T01:47:20.000Z</time>
      </trkpt>
      <trkpt lat="42.65776" lon="0.65004">
        <ele>2738.5</ele>
        <time>1970-01-01T01:47:22.000Z</time>
      </trkpt>
      <trkpt lat="42.657758" lon="0.650043">
        <ele>2739.8</ele>
        <time>1970-01-01T01:47:23.000Z</time>
      </trkpt>
      <trkpt lat="42.657756" lon="0.650044">
        <ele>2739.8</ele>
        <time>1970-01-01T01:47:24.000Z</time>
      </trkpt>
      <trkpt lat="42.657757" lon="0.650045">
        <ele>2739.8</ele>
        <time>1970-01-01T01:47:25.000Z</time>
      </trkpt>
      <trkpt lat="42.657757" lon="0.650046">
        <ele>2739.8</ele>
        <time>1970-01-01T01:47:26.000Z</time>
      </trkpt>
      <trkpt lat="42.657757" lon="0.650047">
        <ele>2739.8</ele>
        <time>1970-01-01T01:47:27.000Z</time>
      </trkpt>
      <trkpt lat="42.657758" lon="0.650048">
        <ele>2739.8</ele>
        <time>1970-01-01T01:47:28.000Z</time>
      </trkpt>
      <trkpt lat="42.657758" lon="0.650048">
        <ele>2739.8</ele>
        <time>1970-01-01T01:47:29.000Z</time>
      </trkpt>
      <trkpt lat="42.657757" lon="0.650049">
        <ele>2739.8</ele>
        <time>1970-01-01T01:47:30.000Z</time>
      </trkpt>
      <trkpt lat="42.657757" lon="0.650049">
        <ele>2739.8</ele>
        <time>1970-01-01T01:47:31.000Z</time>
      </trkpt>
      <trkpt lat="42.657756" lon="0.650049">
        <ele>2739.8</ele>
        <time>1970-01-01T01:47:32.000Z</time>
      </trkpt>
      <trkpt lat="42.657756" lon="0.650049">
        <ele>2739.8</ele>
        <time>1970-01-01T01:47:34.000Z</time>
      </trkpt>
      <trkpt lat="42.657756" lon="0.650049">
        <ele>2739.8</ele>
        <time>1970-01-01T01:47:35.000Z</time>
      </trkpt>
      <trkpt lat="42.657756" lon="0.65005">
        <ele>2739.8</ele>
        <time>1970-01-01T01:47:36.000Z</time>
      </trkpt>
      <trkpt lat="42.657756" lon="0.650052">
        <ele>2739.8</ele>
        <time>1970-01-01T01:47:38.000Z</time>
      </trkpt>
      <trkpt lat="42.657756" lon="0.650053">
        <ele>2739.8</ele>
        <time>1970-01-01T01:47:39.000Z</time>
      </trkpt>
      <trkpt lat="42.657756" lon="0.650054">
        <ele>2739.8</ele>
        <time>1970-01-01T01:47:40.000Z</time>
      </trkpt>
      <trkpt lat="42.657757" lon="0.650056">
        <ele>2739.8</ele>
        <time>1970-01-01T01:47:41.000Z</time>
      </trkpt>
      <trkpt lat="42.657757" lon="0.650057">
        <ele>2739.8</ele>
        <time>1970-01-01T01:47:42.000Z</time>
      </trkpt>
      <trkpt lat="42.657758" lon="0.650057">
        <ele>2739.8</ele>
        <time>1970-01-01T01:47:43.000Z</time>
      </trkpt>
      <trkpt lat="42.657759" lon="0.650057">
        <ele>2739.8</ele>
        <time>1970-01-01T01:47:44.000Z</time>
      </trkpt>
      <trkpt lat="42.65776" lon="0.650058">
        <ele>2738.5</ele>
        <time>1970-01-01T01:47:45.000Z</time>
      </trkpt>
      <trkpt lat="42.657761" lon="0.650058">
        <ele>2738.5</ele>
        <time>1970-01-01T01:47:46.000Z</time>
      </trkpt>
      <trkpt lat="42.657762" lon="0.650057">
        <ele>2738.5</ele>
        <time>1970-01-01T01:47:47.000Z</time>
      </trkpt>
      <trkpt lat="42.657763" lon="0.650057">
        <ele>2738.5</ele>
        <time>1970-01-01T01:47:48.000Z</time>
      </trkpt>
      <trkpt lat="42.657764" lon="0.650058">
        <ele>2738.5</ele>
        <time>1970-01-01T01:47:49.000Z</time>
      </trkpt>
      <trkpt lat="42.657764" lon="0.650056">
        <ele>2738.5</ele>
        <time>1970-01-01T01:47:51.000Z</time>
      </trkpt>
      <trkpt lat="42.657764" lon="0.650054">
        <ele>2738.5</ele>
        <time>1970-01-01T01:47:52.000Z</time>
      </trkpt>
      <trkpt lat="42.657764" lon="0.650052">
        <ele>2738.5</ele>
        <time>1970-01-01T01:47:53.000Z</time>
      </trkpt>
      <trkpt lat="42.657764" lon="0.65005">
        <ele>2738.5</ele>
        <time>1970-01-01T01:47:54.000Z</time>
      </trkpt>
      <trkpt lat="42.657765" lon="0.650048">
        <ele>2738.5</ele>
        <time>1970-01-01T01:47:55.000Z</time>
      </trkpt>
      <trkpt lat="42.657767" lon="0.650045">
        <ele>2738.5</ele>
        <time>1970-01-01T01:47:56.000Z</time>
      </trkpt>
      <trkpt lat="42.657768" lon="0.650043">
        <ele>2738.5</ele>
        <time>1970-01-01T01:47:57.000Z</time>
      </trkpt>
      <trkpt lat="42.657768" lon="0.650039">
        <ele>2738.5</ele>
        <time>1970-01-01T01:47:58.000Z</time>
      </trkpt>
      <trkpt lat="42.657767" lon="0.650035">
        <ele>2738.8</ele>
        <time>1970-01-01T01:47:59.000Z</time>
      </trkpt>
      <trkpt lat="42.657767" lon="0.650029">
        <ele>2738.8</ele>
        <time>1970-01-01T01:48:00.000Z</time>
      </trkpt>
      <trkpt lat="42.657768" lon="0.650026">
        <ele>2738.8</ele>
        <time>1970-01-01T01:48:01.000Z</time>
      </trkpt>
      <trkpt lat="42.657768" lon="0.650024">
        <ele>2738.8</ele>
        <time>1970-01-01T01:48:02.000Z</time>
      </trkpt>
      <trkpt lat="42.657768" lon="0.650021">
        <ele>2738.8</ele>
        <time>1970-01-01T01:48:03.000Z</time>
      </trkpt>
      <trkpt lat="42.657768" lon="0.650018">
        <ele>2738.8</ele>
        <time>1970-01-01T01:48:04.000Z</time>
      </trkpt>
      <trkpt lat="42.657768" lon="0.650016">
        <ele>2738.8</ele>
        <time>1970-01-01T01:48:05.000Z</time>
      </trkpt>
      <trkpt lat="42.657767" lon="0.650015">
        <ele>2738.8</ele>
        <time>1970-01-01T01:48:06.000Z</time>
      </trkpt>
      <trkpt lat="42.657766" lon="0.650012">
        <ele>2738.8</ele>
        <time>1970-01-01T01:48:08.000Z</time>
      </trkpt>
      <trkpt lat="42.657766" lon="0.650011">
        <ele>2738.8</ele>
        <time>1970-01-01T01:48:09.000Z</time>
      </trkpt>
      <trkpt lat="42.657766" lon="0.65001">
        <ele>2738.8</ele>
        <time>1970-01-01T01:48:10.000Z</time>
      </trkpt>
      <trkpt lat="42.657766" lon="0.650009">
        <ele>2738.8</ele>
        <time>1970-01-01T01:48:11.000Z</time>
      </trkpt>
      <trkpt lat="42.657765" lon="0.650009">
        <ele>2738.8</ele>
        <time>1970-01-01T01:48:12.000Z</time>
      </trkpt>
      <trkpt lat="42.657765" lon="0.650008">
        <ele>2738.8</ele>
        <time>1970-01-01T01:48:13.000Z</time>
      </trkpt>
      <trkpt lat="42.657765" lon="0.650008">
        <ele>2738.8</ele>
        <time>1970-01-01T01:48:14.000Z</time>
      </trkpt>
      <trkpt lat="42.657766" lon="0.650006">
        <ele>2738.8</ele>
        <time>1970-01-01T01:48:15.000Z</time>
      </trkpt>
      <trkpt lat="42.657767" lon="0.650006">
        <ele>2738.8</ele>
        <time>1970-01-01T01:48:16.000Z</time>
      </trkpt>
      <trkpt lat="42.657767" lon="0.650007">
        <ele>2738.8</ele>
        <time>1970-01-01T01:48:17.000Z</time>
      </trkpt>
      <trkpt lat="42.657768" lon="0.650008">
        <ele>2738.8</ele>
        <time>1970-01-01T01:48:18.000Z</time>
      </trkpt>
      <trkpt lat="42.657768" lon="0.65001">
        <ele>2738.8</ele>
        <time>1970-01-01T01:48:19.000Z</time>
      </trkpt>
      <trkpt lat="42.657768" lon="0.650011">
        <ele>2738.8</ele>
        <time>1970-01-01T01:48:20.000Z</time>
      </trkpt>
      <trkpt lat="42.657767" lon="0.650011">
        <ele>2738.8</ele>
        <time>1970-01-01T01:48:21.000Z</time>
      </trkpt>
      <trkpt lat="42.657764" lon="0.650016">
        <ele>2738.8</ele>
        <time>1970-01-01T01:48:22.000Z</time>
      </trkpt>
      <trkpt lat="42.657762" lon="0.650022">
        <ele>2738.8</ele>
        <time>1970-01-01T01:48:23.000Z</time>
      </trkpt>
      <trkpt lat="42.65776" lon="0.650027">
        <ele>2738.8</ele>
        <time>1970-01-01T01:48:24.000Z</time>
      </trkpt>
      <trkpt lat="42.65776" lon="0.650029">
        <ele>2738.8</ele>
        <time>1970-01-01T01:48:25.000Z</time>
      </trkpt>
      <trkpt lat="42.65776" lon="0.65003">
        <ele>2738.8</ele>
        <time>1970-01-01T01:48:26.000Z</time>
      </trkpt>
      <trkpt lat="42.657759" lon="0.65003">
        <ele>2740.2</ele>
        <time>1970-01-01T01:48:27.000Z</time>
      </trkpt>
      <trkpt lat="42.657759" lon="0.650031">
        <ele>2740.2</ele>
        <time>1970-01-01T01:48:28.000Z</time>
      </trkpt>
      <trkpt lat="42.65776" lon="0.650031">
        <ele>2738.8</ele>
        <time>1970-01-01T01:48:29.000Z</time>
      </trkpt>
      <trkpt lat="42.657759" lon="0.650031">
        <ele>2740.2</ele>
        <time>1970-01-01T01:48:30.000Z</time>
      </trkpt>
      <trkpt lat="42.657759" lon="0.650031">
        <ele>2740.2</ele>
        <time>1970-01-01T01:48:31.000Z</time>
      </trkpt>
      <trkpt lat="42.657759" lon="0.650031">
        <ele>2740.2</ele>
        <time>1970-01-01T01:48:32.000Z</time>
      </trkpt>
      <trkpt lat="42.657759" lon="0.650031">
        <ele>2740.2</ele>
        <time>1970-01-01T01:48:33.000Z</time>
      </trkpt>
      <trkpt lat="42.657759" lon="0.650031">
        <ele>2740.2</ele>
        <time>1970-01-01T01:48:34.000Z</time>
      </trkpt>
      <trkpt lat="42.657759" lon="0.650031">
        <ele>2740.2</ele>
        <time>1970-01-01T01:48:35.000Z</time>
      </trkpt>
      <trkpt lat="42.65776" lon="0.650031">
        <ele>2738.8</ele>
        <time>1970-01-01T01:48:36.000Z</time>
      </trkpt>
      <trkpt lat="42.65776" lon="0.650031">
        <ele>2738.8</ele>
        <time>1970-01-01T01:48:37.000Z</time>
      </trkpt>
      <trkpt lat="42.65776" lon="0.650031">
        <ele>2738.8</ele>
        <time>1970-01-01T01:48:38.000Z</time>
      </trkpt>
      <trkpt lat="42.65776" lon="0.650031">
        <ele>2738.8</ele>
        <time>1970-01-01T01:48:39.000Z</time>
      </trkpt>
      <trkpt lat="42.65776" lon="0.650031">
        <ele>2738.8</ele>
        <time>1970-01-01T01:48:40.000Z</time>
      </trkpt>
      <trkpt lat="42.65776" lon="0.650031">
        <ele>2738.8</ele>
        <time>1970-01-01T01:48:41.000Z</time>
      </trkpt>
      <trkpt lat="42.65776" lon="0.650031">
        <ele>2738.8</ele>
        <time>1970-01-01T01:48:42.000Z</time>
      </trkpt>
      <trkpt lat="42.65776" lon="0.650031">
        <ele>2738.8</ele>
        <time>1970-01-01T01:48:43.000Z</time>
      </trkpt>
      <trkpt lat="42.65776" lon="0.650032">
        <ele>2738.8</ele>
        <time>1970-01-01T01:48:44.000Z</time>
      </trkpt>
      <trkpt lat="42.65776" lon="0.650033">
        <ele>2738.8</ele>
        <time>1970-01-01T01:48:45.000Z</time>
      </trkpt>
      <trkpt lat="42.657762" lon="0.650035">
        <ele>2738.8</ele>
        <time>1970-01-01T01:48:46.000Z</time>
      </trkpt>
      <trkpt lat="42.657762" lon="0.650035">
        <ele>2738.8</ele>
        <time>1970-01-01T01:48:47.000Z</time>
      </trkpt>
      <trkpt lat="42.657763" lon="0.650036">
        <ele>2738.8</ele>
        <time>1970-01-01T01:48:48.000Z</time>
      </trkpt>
      <trkpt lat="42.657764" lon="0.650036">
        <ele>2738.8</ele>
        <time>1970-01-01T01:48:49.000Z</time>
      </trkpt>
      <trkpt lat="42.657765" lon="0.650037">
        <ele>2738.8</ele>
        <time>1970-01-01T01:48:50.000Z</time>
      </trkpt>
      <trkpt lat="42.657765" lon="0.650038">
        <ele>2738.8</ele>
        <time>1970-01-01T01:48:51.000Z</time>
      </trkpt>
      <trkpt lat="42.657765" lon="0.650039">
        <ele>2738.5</ele>
        <time>1970-01-01T01:48:52.000Z</time>
      </trkpt>
      <trkpt lat="42.657766" lon="0.650039">
        <ele>2738.5</ele>
        <time>1970-01-01T01:48:53.000Z</time>
      </trkpt>
      <trkpt lat="42.657766" lon="0.650039">
        <ele>2738.5</ele>
        <time>1970-01-01T01:48:54.000Z</time>
      </trkpt>
      <trkpt lat="42.657766" lon="0.65004">
        <ele>2738.5</ele>
        <time>1970-01-01T01:48:55.000Z</time>
      </trkpt>
      <trkpt lat="42.657766" lon="0.650042">
        <ele>2738.5</ele>
        <time>1970-01-01T01:48:57.000Z</time>
      </trkpt>
      <trkpt lat="42.657766" lon="0.650043">
        <ele>2738.5</ele>
        <time>1970-01-01T01:48:58.000Z</time>
      </trkpt>
      <trkpt lat="42.657766" lon="0.650044">
        <ele>2738.5</ele>
        <time>1970-01-01T01:48:59.000Z</time>
      </trkpt>
      <trkpt lat="42.657766" lon="0.650044">
        <ele>2738.5</ele>
        <time>1970-01-01T01:49:00.000Z</time>
      </trkpt>
      <trkpt lat="42.657767" lon="0.650045">
        <ele>2738.5</ele>
        <time>1970-01-01T01:49:01.000Z</time>
      </trkpt>
      <trkpt lat="42.657768" lon="0.650046">
        <ele>2738.5</ele>
        <time>1970-01-01T01:49:02.000Z</time>
      </trkpt>
      <trkpt lat="42.657769" lon="0.650045">
        <ele>2738.5</ele>
        <time>1970-01-01T01:49:03.000Z</time>
      </trkpt>
      <trkpt lat="42.657771" lon="0.650045">
        <ele>2738.5</ele>
        <time>1970-01-01T01:49:04.000Z</time>
      </trkpt>
      <trkpt lat="42.657772" lon="0.650045">
        <ele>2738.5</ele>
        <time>1970-01-01T01:49:05.000Z</time>
      </trkpt>
      <trkpt lat="42.657773" lon="0.650044">
        <ele>2738.5</ele>
        <time>1970-01-01T01:49:06.000Z</time>
      </trkpt>
      <trkpt lat="42.657773" lon="0.650044">
        <ele>2738.5</ele>
        <time>1970-01-01T01:49:07.000Z</time>
      </trkpt>
      <trkpt lat="42.657773" lon="0.650044">
        <ele>2738.5</ele>
        <time>1970-01-01T01:49:08.000Z</time>
      </trkpt>
      <trkpt lat="42.657774" lon="0.650044">
        <ele>2738.5</ele>
        <time>1970-01-01T01:49:09.000Z</time>
      </trkpt>
      <trkpt lat="42.657774" lon="0.650044">
        <ele>2738.5</ele>
        <time>1970-01-01T01:49:10.000Z</time>
      </trkpt>
      <trkpt lat="42.657775" lon="0.650044">
        <ele>2738.5</ele>
        <time>1970-01-01T01:49:11.000Z</time>
      </trkpt>
      <trkpt lat="42.657775" lon="0.650044">
        <ele>2738.5</ele>
        <time>1970-01-01T01:49:12.000Z</time>
      </trkpt>
      <trkpt lat="42.657775" lon="0.650044">
        <ele>2738.5</ele>
        <time>1970-01-01T01:49:13.000Z</time>
      </trkpt>
      <trkpt lat="42.657775" lon="0.650044">
        <ele>2738.5</ele>
        <time>1970-01-01T01:49:14.000Z</time>
      </trkpt>
      <trkpt lat="42.657775" lon="0.650044">
        <ele>2738.5</ele>
        <time>1970-01-01T01:49:15.000Z</time>
      </trkpt>
      <trkpt lat="42.657776" lon="0.650045">
        <ele>2738.5</ele>
        <time>1970-01-01T01:49:17.000Z</time>
      </trkpt>
      <trkpt lat="42.657774" lon="0.650046">
        <ele>2738.5</ele>
        <time>1970-01-01T01:49:18.000Z</time>
      </trkpt>
      <trkpt lat="42.657772" lon="0.650047">
        <ele>2738.5</ele>
        <time>1970-01-01T01:49:19.000Z</time>
      </trkpt>
      <trkpt lat="42.65777" lon="0.650047">
        <ele>2738.5</ele>
        <time>1970-01-01T01:49:20.000Z</time>
      </trkpt>
      <trkpt lat="42.657764" lon="0.650048">
        <ele>2738.5</ele>
        <time>1970-01-01T01:49:22.000Z</time>
      </trkpt>
      <trkpt lat="42.657762" lon="0.650049">
        <ele>2738.5</ele>
        <time>1970-01-01T01:49:23.000Z</time>
      </trkpt>
      <trkpt lat="42.65776" lon="0.650049">
        <ele>2738.5</ele>
        <time>1970-01-01T01:49:24.000Z</time>
      </trkpt>
      <trkpt lat="42.657759" lon="0.650049">
        <ele>2739.8</ele>
        <time>1970-01-01T01:49:25.000Z</time>
      </trkpt>
      <trkpt lat="42.657758" lon="0.650049">
        <ele>2739.8</ele>
        <time>1970-01-01T01:49:26.000Z</time>
      </trkpt>
      <trkpt lat="42.657756" lon="0.650048">
        <ele>2739.8</ele>
        <time>1970-01-01T01:49:27.000Z</time>
      </trkpt>
      <trkpt lat="42.657755" lon="0.650047">
        <ele>2739.8</ele>
        <time>1970-01-01T01:49:28.000Z</time>
      </trkpt>
      <trkpt lat="42.657755" lon="0.650046">
        <ele>2739.8</ele>
        <time>1970-01-01T01:49:29.000Z</time>
      </trkpt>
      <trkpt lat="42.657755" lon="0.650045">
        <ele>2739.8</ele>
        <time>1970-01-01T01:49:30.000Z</time>
      </trkpt>
      <trkpt lat="42.657755" lon="0.650045">
        <ele>2739.8</ele>
        <time>1970-01-01T01:49:31.000Z</time>
      </trkpt>
      <trkpt lat="42.657754" lon="0.650045">
        <ele>2739.8</ele>
        <time>1970-01-01T01:49:32.000Z</time>
      </trkpt>
      <trkpt lat="42.657754" lon="0.650046">
        <ele>2739.8</ele>
        <time>1970-01-01T01:49:33.000Z</time>
      </trkpt>
      <trkpt lat="42.657753" lon="0.650046">
        <ele>2739.8</ele>
        <time>1970-01-01T01:49:34.000Z</time>
      </trkpt>
      <trkpt lat="42.657754" lon="0.650047">
        <ele>2739.8</ele>
        <time>1970-01-01T01:49:35.000Z</time>
      </trkpt>
      <trkpt lat="42.657755" lon="0.650048">
        <ele>2739.8</ele>
        <time>1970-01-01T01:49:36.000Z</time>
      </trkpt>
      <trkpt lat="42.657755" lon="0.650048">
        <ele>2739.8</ele>
        <time>1970-01-01T01:49:38.000Z</time>
      </trkpt>
      <trkpt lat="42.657757" lon="0.650048">
        <ele>2739.8</ele>
        <time>1970-01-01T01:49:39.000Z</time>
      </trkpt>
      <trkpt lat="42.657758" lon="0.650047">
        <ele>2739.8</ele>
        <time>1970-01-01T01:49:40.000Z</time>
      </trkpt>
      <trkpt lat="42.657758" lon="0.650047">
        <ele>2739.8</ele>
        <time>1970-01-01T01:49:41.000Z</time>
      </trkpt>
      <trkpt lat="42.657759" lon="0.650047">
        <ele>2739.8</ele>
        <time>1970-01-01T01:49:42.000Z</time>
      </trkpt>
      <trkpt lat="42.65776" lon="0.650046">
        <ele>2738.5</ele>
        <time>1970-01-01T01:49:43.000Z</time>
      </trkpt>
      <trkpt lat="42.65776" lon="0.650045">
        <ele>2738.5</ele>
        <time>1970-01-01T01:49:44.000Z</time>
      </trkpt>
      <trkpt lat="42.65776" lon="0.650045">
        <ele>2738.5</ele>
        <time>1970-01-01T01:49:45.000Z</time>
      </trkpt>
      <trkpt lat="42.657761" lon="0.650045">
        <ele>2738.5</ele>
        <time>1970-01-01T01:49:46.000Z</time>
      </trkpt>
      <trkpt lat="42.657761" lon="0.650045">
        <ele>2738.5</ele>
        <time>1970-01-01T01:49:47.000Z</time>
      </trkpt>
      <trkpt lat="42.657762" lon="0.650045">
        <ele>2738.5</ele>
        <time>1970-01-01T01:49:48.000Z</time>
      </trkpt>
      <trkpt lat="42.657762" lon="0.650044">
        <ele>2738.5</ele>
        <time>1970-01-01T01:49:49.000Z</time>
      </trkpt>
      <trkpt lat="42.657762" lon="0.650044">
        <ele>2738.5</ele>
        <time>1970-01-01T01:49:50.000Z</time>
      </trkpt>
      <trkpt lat="42.657763" lon="0.650043">
        <ele>2738.5</ele>
        <time>1970-01-01T01:49:51.000Z</time>
      </trkpt>
      <trkpt lat="42.657763" lon="0.650043">
        <ele>2738.5</ele>
        <time>1970-01-01T01:49:52.000Z</time>
      </trkpt>
      <trkpt lat="42.657763" lon="0.650043">
        <ele>2738.5</ele>
        <time>1970-01-01T01:49:53.000Z</time>
      </trkpt>
      <trkpt lat="42.657763" lon="0.650043">
        <ele>2738.5</ele>
        <time>1970-01-01T01:49:54.000Z</time>
      </trkpt>
      <trkpt lat="42.657764" lon="0.650042">
        <ele>2738.5</ele>
        <time>1970-01-01T01:49:55.000Z</time>
      </trkpt>
      <trkpt lat="42.657765" lon="0.650044">
        <ele>2738.5</ele>
        <time>1970-01-01T01:49:56.000Z</time>
      </trkpt>
      <trkpt lat="42.657765" lon="0.650041">
        <ele>2738.5</ele>
        <time>1970-01-01T01:49:57.000Z</time>
      </trkpt>
      <trkpt lat="42.657765" lon="0.650041">
        <ele>2738.5</ele>
        <time>1970-01-01T01:49:58.000Z</time>
      </trkpt>
      <trkpt lat="42.657766" lon="0.65004">
        <ele>2738.5</ele>
        <time>1970-01-01T01:50:00.000Z</time>
      </trkpt>
      <trkpt lat="42.657766" lon="0.65004">
        <ele>2738.5</ele>
        <time>1970-01-01T01:50:01.000Z</time>
      </trkpt>
      <trkpt lat="42.657767" lon="0.65004">
        <ele>2738.5</ele>
        <time>1970-01-01T01:50:02.000Z</time>
      </trkpt>
      <trkpt lat="42.657768" lon="0.65004">
        <ele>2738.5</ele>
        <time>1970-01-01T01:50:03.000Z</time>
      </trkpt>
      <trkpt lat="42.657769" lon="0.65004">
        <ele>2738.5</ele>
        <time>1970-01-01T01:50:04.000Z</time>
      </trkpt>
      <trkpt lat="42.657769" lon="0.650041">
        <ele>2738.5</ele>
        <time>1970-01-01T01:50:05.000Z</time>
      </trkpt>
      <trkpt lat="42.65777" lon="0.650042">
        <ele>2738.5</ele>
        <time>1970-01-01T01:50:06.000Z</time>
      </trkpt>
      <trkpt lat="42.65777" lon="0.650043">
        <ele>2738.5</ele>
        <time>1970-01-01T01:50:07.000Z</time>
      </trkpt>
      <trkpt lat="42.65777" lon="0.650044">
        <ele>2738.5</ele>
        <time>1970-01-01T01:50:08.000Z</time>
      </trkpt>
      <trkpt lat="42.657771" lon="0.650044">
        <ele>2738.5</ele>
        <time>1970-01-01T01:50:09.000Z</time>
      </trkpt>
      <trkpt lat="42.657771" lon="0.650045">
        <ele>2738.5</ele>
        <time>1970-01-01T01:50:10.000Z</time>
      </trkpt>
      <trkpt lat="42.657771" lon="0.650045">
        <ele>2738.5</ele>
        <time>1970-01-01T01:50:11.000Z</time>
      </trkpt>
      <trkpt lat="42.657772" lon="0.650045">
        <ele>2738.5</ele>
        <time>1970-01-01T01:50:12.000Z</time>
      </trkpt>
      <trkpt lat="42.657772" lon="0.650048">
        <ele>2738.5</ele>
        <time>1970-01-01T01:50:13.000Z</time>
      </trkpt>
      <trkpt lat="42.657772" lon="0.650049">
        <ele>2738.5</ele>
        <time>1970-01-01T01:50:14.000Z</time>
      </trkpt>
      <trkpt lat="42.657773" lon="0.650049">
        <ele>2738.5</ele>
        <time>1970-01-01T01:50:15.000Z</time>
      </trkpt>
      <trkpt lat="42.657773" lon="0.65005">
        <ele>2738.5</ele>
        <time>1970-01-01T01:50:16.000Z</time>
      </trkpt>
      <trkpt lat="42.657773" lon="0.65005">
        <ele>2738.5</ele>
        <time>1970-01-01T01:50:17.000Z</time>
      </trkpt>
      <trkpt lat="42.657773" lon="0.65005">
        <ele>2738.5</ele>
        <time>1970-01-01T01:50:18.000Z</time>
      </trkpt>
      <trkpt lat="42.657773" lon="0.65005">
        <ele>2738.5</ele>
        <time>1970-01-01T01:50:19.000Z</time>
      </trkpt>
      <trkpt lat="42.657773" lon="0.65005">
        <ele>2738.5</ele>
        <time>1970-01-01T01:50:20.000Z</time>
      </trkpt>
      <trkpt lat="42.657773" lon="0.65005">
        <ele>2738.5</ele>
        <time>1970-01-01T01:50:21.000Z</time>
      </trkpt>
      <trkpt lat="42.657773" lon="0.65005">
        <ele>2738.5</ele>
        <time>1970-01-01T01:50:22.000Z</time>
      </trkpt>
      <trkpt lat="42.657773" lon="0.65005">
        <ele>2738.5</ele>
        <time>1970-01-01T01:50:23.000Z</time>
      </trkpt>
      <trkpt lat="42.657773" lon="0.65005">
        <ele>2738.5</ele>
        <time>1970-01-01T01:50:24.000Z</time>
      </trkpt>
      <trkpt lat="42.657773" lon="0.65005">
        <ele>2738.5</ele>
        <time>1970-01-01T01:50:25.000Z</time>
      </trkpt>
      <trkpt lat="42.657773" lon="0.65005">
        <ele>2738.5</ele>
        <time>1970-01-01T01:50:26.000Z</time>
      </trkpt>
      <trkpt lat="42.657773" lon="0.65005">
        <ele>2738.5</ele>
        <time>1970-01-01T01:50:27.000Z</time>
      </trkpt>
      <trkpt lat="42.657773" lon="0.65005">
        <ele>2738.5</ele>
        <time>1970-01-01T01:50:28.000Z</time>
      </trkpt>
      <trkpt lat="42.657773" lon="0.65005">
        <ele>2738.5</ele>
        <time>1970-01-01T01:50:29.000Z</time>
      </trkpt>
      <trkpt lat="42.657773" lon="0.65005">
        <ele>2738.5</ele>
        <time>1970-01-01T01:50:30.000Z</time>
      </trkpt>
      <trkpt lat="42.657773" lon="0.65005">
        <ele>2738.5</ele>
        <time>1970-01-01T01:50:31.000Z</time>
      </trkpt>
      <trkpt lat="42.657773" lon="0.65005">
        <ele>2738.5</ele>
        <time>1970-01-01T01:50:32.000Z</time>
      </trkpt>
      <trkpt lat="42.657773" lon="0.65005">
        <ele>2738.5</ele>
        <time>1970-01-01T01:50:33.000Z</time>
      </trkpt>
      <trkpt lat="42.657773" lon="0.65005">
        <ele>2738.5</ele>
        <time>1970-01-01T01:50:34.000Z</time>
      </trkpt>
      <trkpt lat="42.657773" lon="0.65005">
        <ele>2738.5</ele>
        <time>1970-01-01T01:50:35.000Z</time>
      </trkpt>
      <trkpt lat="42.657773" lon="0.65005">
        <ele>2738.5</ele>
        <time>1970-01-01T01:50:36.000Z</time>
      </trkpt>
      <trkpt lat="42.657773" lon="0.65005">
        <ele>2738.5</ele>
        <time>1970-01-01T01:50:37.000Z</time>
      </trkpt>
      <trkpt lat="42.657773" lon="0.65005">
        <ele>2738.5</ele>
        <time>1970-01-01T01:50:38.000Z</time>
      </trkpt>
      <trkpt lat="42.657773" lon="0.65005">
        <ele>2738.5</ele>
        <time>1970-01-01T01:50:39.000Z</time>
      </trkpt>
      <trkpt lat="42.657773" lon="0.65005">
        <ele>2738.5</ele>
        <time>1970-01-01T01:50:40.000Z</time>
      </trkpt>
      <trkpt lat="42.657773" lon="0.65005">
        <ele>2738.5</ele>
        <time>1970-01-01T01:50:41.000Z</time>
      </trkpt>
      <trkpt lat="42.657773" lon="0.65005">
        <ele>2738.5</ele>
        <time>1970-01-01T01:50:42.000Z</time>
      </trkpt>
      <trkpt lat="42.657773" lon="0.65005">
        <ele>2738.5</ele>
        <time>1970-01-01T01:50:43.000Z</time>
      </trkpt>
      <trkpt lat="42.657773" lon="0.65005">
        <ele>2738.5</ele>
        <time>1970-01-01T01:50:44.000Z</time>
      </trkpt>
      <trkpt lat="42.657773" lon="0.65005">
        <ele>2738.5</ele>
        <time>1970-01-01T01:50:45.000Z</time>
      </trkpt>
      <trkpt lat="42.657773" lon="0.65005">
        <ele>2738.5</ele>
        <time>1970-01-01T01:50:46.000Z</time>
      </trkpt>
      <trkpt lat="42.657773" lon="0.65005">
        <ele>2738.5</ele>
        <time>1970-01-01T01:50:47.000Z</time>
      </trkpt>
      <trkpt lat="42.657773" lon="0.65005">
        <ele>2738.5</ele>
        <time>1970-01-01T01:50:48.000Z</time>
      </trkpt>
      <trkpt lat="42.657773" lon="0.65005">
        <ele>2738.5</ele>
        <time>1970-01-01T01:50:49.000Z</time>
      </trkpt>
      <trkpt lat="42.657773" lon="0.65005">
        <ele>2738.5</ele>
        <time>1970-01-01T01:50:50.000Z</time>
      </trkpt>
      <trkpt lat="42.657773" lon="0.65005">
        <ele>2738.5</ele>
        <time>1970-01-01T01:50:51.000Z</time>
      </trkpt>
      <trkpt lat="42.657773" lon="0.65005">
        <ele>2738.5</ele>
        <time>1970-01-01T01:50:52.000Z</time>
      </trkpt>
      <trkpt lat="42.657773" lon="0.65005">
        <ele>2738.5</ele>
        <time>1970-01-01T01:50:53.000Z</time>
      </trkpt>
      <trkpt lat="42.657773" lon="0.65005">
        <ele>2738.5</ele>
        <time>1970-01-01T01:50:54.000Z</time>
      </trkpt>
      <trkpt lat="42.657773" lon="0.65005">
        <ele>2738.5</ele>
        <time>1970-01-01T01:50:55.000Z</time>
      </trkpt>
      <trkpt lat="42.657773" lon="0.65005">
        <ele>2738.5</ele>
        <time>1970-01-01T01:50:56.000Z</time>
      </trkpt>
      <trkpt lat="42.657773" lon="0.65005">
        <ele>2738.5</ele>
        <time>1970-01-01T01:50:57.000Z</time>
      </trkpt>
      <trkpt lat="42.657773" lon="0.65005">
        <ele>2738.5</ele>
        <time>1970-01-01T01:50:58.000Z</time>
      </trkpt>
      <trkpt lat="42.657773" lon="0.65005">
        <ele>2738.5</ele>
        <time>1970-01-01T01:50:59.000Z</time>
      </trkpt>
      <trkpt lat="42.657773" lon="0.65005">
        <ele>2738.5</ele>
        <time>1970-01-01T01:51:00.000Z</time>
      </trkpt>
      <trkpt lat="42.657773" lon="0.65005">
        <ele>2738.5</ele>
        <time>1970-01-01T01:51:01.000Z</time>
      </trkpt>
      <trkpt lat="42.657774" lon="0.650051">
        <ele>2738.5</ele>
        <time>1970-01-01T01:51:02.000Z</time>
      </trkpt>
      <trkpt lat="42.657774" lon="0.65005">
        <ele>2738.5</ele>
        <time>1970-01-01T01:51:03.000Z</time>
      </trkpt>
      <trkpt lat="42.657773" lon="0.65005">
        <ele>2738.5</ele>
        <time>1970-01-01T01:51:04.000Z</time>
      </trkpt>
      <trkpt lat="42.657774" lon="0.65005">
        <ele>2738.5</ele>
        <time>1970-01-01T01:51:05.000Z</time>
      </trkpt>
      <trkpt lat="42.657774" lon="0.650051">
        <ele>2738.5</ele>
        <time>1970-01-01T01:51:06.000Z</time>
      </trkpt>
      <trkpt lat="42.657774" lon="0.650051">
        <ele>2738.5</ele>
        <time>1970-01-01T01:51:07.000Z</time>
      </trkpt>
      <trkpt lat="42.657774" lon="0.650051">
        <ele>2738.5</ele>
        <time>1970-01-01T01:51:08.000Z</time>
      </trkpt>
      <trkpt lat="42.657774" lon="0.650052">
        <ele>2738.5</ele>
        <time>1970-01-01T01:51:09.000Z</time>
      </trkpt>
      <trkpt lat="42.657774" lon="0.650052">
        <ele>2738.5</ele>
        <time>1970-01-01T01:51:10.000Z</time>
      </trkpt>
      <trkpt lat="42.657774" lon="0.650052">
        <ele>2738.5</ele>
        <time>1970-01-01T01:51:11.000Z</time>
      </trkpt>
      <trkpt lat="42.657774" lon="0.650053">
        <ele>2738.5</ele>
        <time>1970-01-01T01:51:12.000Z</time>
      </trkpt>
      <trkpt lat="42.657775" lon="0.650053">
        <ele>2738.5</ele>
        <time>1970-01-01T01:51:13.000Z</time>
      </trkpt>
      <trkpt lat="42.657775" lon="0.650053">
        <ele>2738.5</ele>
        <time>1970-01-01T01:51:14.000Z</time>
      </trkpt>
      <trkpt lat="42.657774" lon="0.650054">
        <ele>2738.5</ele>
        <time>1970-01-01T01:51:15.000Z</time>
      </trkpt>
      <trkpt lat="42.657774" lon="0.650052">
        <ele>2738.5</ele>
        <time>1970-01-01T01:51:16.000Z</time>
      </trkpt>
      <trkpt lat="42.657774" lon="0.650051">
        <ele>2738.5</ele>
        <time>1970-01-01T01:51:17.000Z</time>
      </trkpt>
      <trkpt lat="42.657773" lon="0.65005">
        <ele>2738.5</ele>
        <time>1970-01-01T01:51:18.000Z</time>
      </trkpt>
      <trkpt lat="42.657773" lon="0.65005">
        <ele>2738.5</ele>
        <time>1970-01-01T01:51:19.000Z</time>
      </trkpt>
      <trkpt lat="42.657773" lon="0.65005">
        <ele>2738.5</ele>
        <time>1970-01-01T01:51:20.000Z</time>
      </trkpt>
      <trkpt lat="42.657773" lon="0.65005">
        <ele>2738.5</ele>
        <time>1970-01-01T01:51:21.000Z</time>
      </trkpt>
      <trkpt lat="42.657773" lon="0.65005">
        <ele>2738.5</ele>
        <time>1970-01-01T01:51:22.000Z</time>
      </trkpt>
      <trkpt lat="42.657773" lon="0.65005">
        <ele>2738.5</ele>
        <time>1970-01-01T01:51:23.000Z</time>
      </trkpt>
      <trkpt lat="42.657774" lon="0.65005">
        <ele>2738.5</ele>
        <time>1970-01-01T01:51:24.000Z</time>
      </trkpt>
      <trkpt lat="42.657774" lon="0.65005">
        <ele>2738.5</ele>
        <time>1970-01-01T01:51:25.000Z</time>
      </trkpt>
      <trkpt lat="42.657774" lon="0.65005">
        <ele>2738.5</ele>
        <time>1970-01-01T01:51:26.000Z</time>
      </trkpt>
      <trkpt lat="42.657774" lon="0.65005">
        <ele>2738.5</ele>
        <time>1970-01-01T01:51:27.000Z</time>
      </trkpt>
      <trkpt lat="42.657774" lon="0.65005">
        <ele>2738.5</ele>
        <time>1970-01-01T01:51:28.000Z</time>
      </trkpt>
      <trkpt lat="42.657774" lon="0.65005">
        <ele>2738.5</ele>
        <time>1970-01-01T01:51:29.000Z</time>
      </trkpt>
      <trkpt lat="42.657774" lon="0.65005">
        <ele>2738.5</ele>
        <time>1970-01-01T01:51:30.000Z</time>
      </trkpt>
      <trkpt lat="42.657774" lon="0.65005">
        <ele>2738.5</ele>
        <time>1970-01-01T01:51:31.000Z</time>
      </trkpt>
      <trkpt lat="42.657774" lon="0.65005">
        <ele>2738.5</ele>
        <time>1970-01-01T01:51:32.000Z</time>
      </trkpt>
      <trkpt lat="42.657774" lon="0.65005">
        <ele>2738.5</ele>
        <time>1970-01-01T01:51:33.000Z</time>
      </trkpt>
      <trkpt lat="42.657774" lon="0.65005">
        <ele>2738.5</ele>
        <time>1970-01-01T01:51:34.000Z</time>
      </trkpt>
      <trkpt lat="42.657774" lon="0.65005">
        <ele>2738.5</ele>
        <time>1970-01-01T01:51:35.000Z</time>
      </trkpt>
      <trkpt lat="42.657774" lon="0.65005">
        <ele>2738.5</ele>
        <time>1970-01-01T01:51:36.000Z</time>
      </trkpt>
      <trkpt lat="42.657774" lon="0.65005">
        <ele>2738.5</ele>
        <time>1970-01-01T01:51:37.000Z</time>
      </trkpt>
      <trkpt lat="42.657774" lon="0.65005">
        <ele>2738.5</ele>
        <time>1970-01-01T01:51:38.000Z</time>
      </trkpt>
      <trkpt lat="42.657774" lon="0.65005">
        <ele>2738.5</ele>
        <time>1970-01-01T01:51:39.000Z</time>
      </trkpt>
      <trkpt lat="42.657774" lon="0.65005">
        <ele>2738.5</ele>
        <time>1970-01-01T01:51:40.000Z</time>
      </trkpt>
      <trkpt lat="42.657774" lon="0.65005">
        <ele>2738.5</ele>
        <time>1970-01-01T01:51:41.000Z</time>
      </trkpt>
      <trkpt lat="42.657774" lon="0.65005">
        <ele>2738.5</ele>
        <time>1970-01-01T01:51:42.000Z</time>
      </trkpt>
      <trkpt lat="42.657774" lon="0.65005">
        <ele>2738.5</ele>
        <time>1970-01-01T01:51:43.000Z</time>
      </trkpt>
      <trkpt lat="42.657774" lon="0.65005">
        <ele>2738.5</ele>
        <time>1970-01-01T01:51:44.000Z</time>
      </trkpt>
      <trkpt lat="42.657774" lon="0.65005">
        <ele>2738.5</ele>
        <time>1970-01-01T01:51:45.000Z</time>
      </trkpt>
      <trkpt lat="42.657774" lon="0.65005">
        <ele>2738.5</ele>
        <time>1970-01-01T01:51:46.000Z</time>
      </trkpt>
      <trkpt lat="42.657774" lon="0.65005">
        <ele>2738.5</ele>
        <time>1970-01-01T01:51:47.000Z</time>
      </trkpt>
      <trkpt lat="42.657774" lon="0.65005">
        <ele>2738.5</ele>
        <time>1970-01-01T01:51:48.000Z</time>
      </trkpt>
      <trkpt lat="42.657774" lon="0.65005">
        <ele>2738.5</ele>
        <time>1970-01-01T01:51:49.000Z</time>
      </trkpt>
      <trkpt lat="42.657774" lon="0.65005">
        <ele>2738.5</ele>
        <time>1970-01-01T01:51:50.000Z</time>
      </trkpt>
      <trkpt lat="42.657774" lon="0.65005">
        <ele>2738.5</ele>
        <time>1970-01-01T01:51:51.000Z</time>
      </trkpt>
      <trkpt lat="42.657774" lon="0.65005">
        <ele>2738.5</ele>
        <time>1970-01-01T01:51:52.000Z</time>
      </trkpt>
      <trkpt lat="42.657774" lon="0.65005">
        <ele>2738.5</ele>
        <time>1970-01-01T01:51:53.000Z</time>
      </trkpt>
      <trkpt lat="42.657774" lon="0.65005">
        <ele>2738.5</ele>
        <time>1970-01-01T01:51:54.000Z</time>
      </trkpt>
      <trkpt lat="42.657774" lon="0.65005">
        <ele>2738.5</ele>
        <time>1970-01-01T01:51:55.000Z</time>
      </trkpt>
      <trkpt lat="42.657774" lon="0.65005">
        <ele>2738.5</ele>
        <time>1970-01-01T01:51:56.000Z</time>
      </trkpt>
      <trkpt lat="42.657774" lon="0.65005">
        <ele>2738.5</ele>
        <time>1970-01-01T01:51:57.000Z</time>
      </trkpt>
      <trkpt lat="42.657774" lon="0.65005">
        <ele>2738.5</ele>
        <time>1970-01-01T01:51:58.000Z</time>
      </trkpt>
      <trkpt lat="42.657774" lon="0.65005">
        <ele>2738.5</ele>
        <time>1970-01-01T01:51:59.000Z</time>
      </trkpt>
      <trkpt lat="42.657774" lon="0.65005">
        <ele>2738.5</ele>
        <time>1970-01-01T01:52:00.000Z</time>
      </trkpt>
      <trkpt lat="42.657774" lon="0.65005">
        <ele>2738.5</ele>
        <time>1970-01-01T01:52:01.000Z</time>
      </trkpt>
      <trkpt lat="42.657774" lon="0.65005">
        <ele>2738.5</ele>
        <time>1970-01-01T01:52:02.000Z</time>
      </trkpt>
      <trkpt lat="42.657774" lon="0.65005">
        <ele>2738.5</ele>
        <time>1970-01-01T01:52:03.000Z</time>
      </trkpt>
      <trkpt lat="42.657774" lon="0.65005">
        <ele>2738.5</ele>
        <time>1970-01-01T01:52:04.000Z</time>
      </trkpt>
      <trkpt lat="42.657774" lon="0.65005">
        <ele>2738.5</ele>
        <time>1970-01-01T01:52:05.000Z</time>
      </trkpt>
      <trkpt lat="42.657774" lon="0.65005">
        <ele>2738.5</ele>
        <time>1970-01-01T01:52:06.000Z</time>
      </trkpt>
      <trkpt lat="42.657774" lon="0.65005">
        <ele>2738.5</ele>
        <time>1970-01-01T01:52:07.000Z</time>
      </trkpt>
      <trkpt lat="42.657774" lon="0.65005">
        <ele>2738.5</ele>
        <time>1970-01-01T01:52:08.000Z</time>
      </trkpt>
      <trkpt lat="42.657774" lon="0.65005">
        <ele>2738.5</ele>
        <time>1970-01-01T01:52:09.000Z</time>
      </trkpt>
      <trkpt lat="42.657774" lon="0.65005">
        <ele>2738.5</ele>
        <time>1970-01-01T01:52:10.000Z</time>
      </trkpt>
      <trkpt lat="42.657774" lon="0.65005">
        <ele>2738.5</ele>
        <time>1970-01-01T01:52:11.000Z</time>
      </trkpt>
      <trkpt lat="42.657774" lon="0.65005">
        <ele>2738.5</ele>
        <time>1970-01-01T01:52:12.000Z</time>
      </trkpt>
      <trkpt lat="42.657774" lon="0.65005">
        <ele>2738.5</ele>
        <time>1970-01-01T01:52:13.000Z</time>
      </trkpt>
      <trkpt lat="42.657774" lon="0.65005">
        <ele>2738.5</ele>
        <time>1970-01-01T01:52:14.000Z</time>
      </trkpt>
      <trkpt lat="42.657774" lon="0.65005">
        <ele>2738.5</ele>
        <time>1970-01-01T01:52:15.000Z</time>
      </trkpt>
      <trkpt lat="42.657774" lon="0.65005">
        <ele>2738.5</ele>
        <time>1970-01-01T01:52:16.000Z</time>
      </trkpt>
      <trkpt lat="42.657774" lon="0.65005">
        <ele>2738.5</ele>
        <time>1970-01-01T01:52:17.000Z</time>
      </trkpt>
      <trkpt lat="42.657774" lon="0.65005">
        <ele>2738.5</ele>
        <time>1970-01-01T01:52:18.000Z</time>
      </trkpt>
      <trkpt lat="42.657774" lon="0.65005">
        <ele>2738.5</ele>
        <time>1970-01-01T01:52:19.000Z</time>
      </trkpt>
      <trkpt lat="42.657774" lon="0.65005">
        <ele>2738.5</ele>
        <time>1970-01-01T01:52:20.000Z</time>
      </trkpt>
      <trkpt lat="42.657774" lon="0.65005">
        <ele>2738.5</ele>
        <time>1970-01-01T01:52:21.000Z</time>
      </trkpt>
      <trkpt lat="42.657774" lon="0.65005">
        <ele>2738.5</ele>
        <time>1970-01-01T01:52:22.000Z</time>
      </trkpt>
      <trkpt lat="42.657774" lon="0.65005">
        <ele>2738.5</ele>
        <time>1970-01-01T01:52:23.000Z</time>
      </trkpt>
      <trkpt lat="42.657774" lon="0.65005">
        <ele>2738.5</ele>
        <time>1970-01-01T01:52:24.000Z</time>
      </trkpt>
      <trkpt lat="42.657774" lon="0.65005">
        <ele>2738.5</ele>
        <time>1970-01-01T01:52:25.000Z</time>
      </trkpt>
      <trkpt lat="42.657774" lon="0.65005">
        <ele>2738.5</ele>
        <time>1970-01-01T01:52:26.000Z</time>
      </trkpt>
      <trkpt lat="42.657774" lon="0.65005">
        <ele>2738.5</ele>
        <time>1970-01-01T01:52:27.000Z</time>
      </trkpt>
      <trkpt lat="42.657774" lon="0.65005">
        <ele>2738.5</ele>
        <time>1970-01-01T01:52:28.000Z</time>
      </trkpt>
      <trkpt lat="42.657774" lon="0.65005">
        <ele>2738.5</ele>
        <time>1970-01-01T01:52:29.000Z</time>
      </trkpt>
      <trkpt lat="42.657774" lon="0.65005">
        <ele>2738.5</ele>
        <time>1970-01-01T01:52:30.000Z</time>
      </trkpt>
      <trkpt lat="42.657774" lon="0.65005">
        <ele>2738.5</ele>
        <time>1970-01-01T01:52:31.000Z</time>
      </trkpt>
      <trkpt lat="42.657774" lon="0.65005">
        <ele>2738.5</ele>
        <time>1970-01-01T01:52:32.000Z</time>
      </trkpt>
      <trkpt lat="42.657774" lon="0.65005">
        <ele>2738.5</ele>
        <time>1970-01-01T01:52:33.000Z</time>
      </trkpt>
      <trkpt lat="42.657774" lon="0.65005">
        <ele>2738.5</ele>
        <time>1970-01-01T01:52:34.000Z</time>
      </trkpt>
      <trkpt lat="42.657774" lon="0.65005">
        <ele>2738.5</ele>
        <time>1970-01-01T01:52:35.000Z</time>
      </trkpt>
      <trkpt lat="42.657774" lon="0.65005">
        <ele>2738.5</ele>
        <time>1970-01-01T01:52:36.000Z</time>
      </trkpt>
      <trkpt lat="42.657774" lon="0.65005">
        <ele>2738.5</ele>
        <time>1970-01-01T01:52:37.000Z</time>
      </trkpt>
      <trkpt lat="42.657774" lon="0.65005">
        <ele>2738.5</ele>
        <time>1970-01-01T01:52:38.000Z</time>
      </trkpt>
      <trkpt lat="42.657774" lon="0.65005">
        <ele>2738.5</ele>
        <time>1970-01-01T01:52:39.000Z</time>
      </trkpt>
      <trkpt lat="42.657774" lon="0.65005">
        <ele>2738.5</ele>
        <time>1970-01-01T01:52:40.000Z</time>
      </trkpt>
      <trkpt lat="42.657774" lon="0.65005">
        <ele>2738.5</ele>
        <time>1970-01-01T01:52:41.000Z</time>
      </trkpt>
      <trkpt lat="42.657774" lon="0.65005">
        <ele>2738.5</ele>
        <time>1970-01-01T01:52:42.000Z</time>
      </trkpt>
      <trkpt lat="42.657774" lon="0.65005">
        <ele>2738.5</ele>
        <time>1970-01-01T01:52:43.000Z</time>
      </trkpt>
      <trkpt lat="42.657774" lon="0.65005">
        <ele>2738.5</ele>
        <time>1970-01-01T01:52:44.000Z</time>
      </trkpt>
      <trkpt lat="42.657774" lon="0.65005">
        <ele>2738.5</ele>
        <time>1970-01-01T01:52:45.000Z</time>
      </trkpt>
      <trkpt lat="42.657774" lon="0.65005">
        <ele>2738.5</ele>
        <time>1970-01-01T01:52:46.000Z</time>
      </trkpt>
      <trkpt lat="42.657774" lon="0.65005">
        <ele>2738.5</ele>
        <time>1970-01-01T01:52:47.000Z</time>
      </trkpt>
      <trkpt lat="42.657774" lon="0.65005">
        <ele>2738.5</ele>
        <time>1970-01-01T01:52:48.000Z</time>
      </trkpt>
      <trkpt lat="42.657774" lon="0.65005">
        <ele>2738.5</ele>
        <time>1970-01-01T01:52:49.000Z</time>
      </trkpt>
      <trkpt lat="42.657774" lon="0.65005">
        <ele>2738.5</ele>
        <time>1970-01-01T01:52:50.000Z</time>
      </trkpt>
      <trkpt lat="42.657774" lon="0.65005">
        <ele>2738.5</ele>
        <time>1970-01-01T01:52:51.000Z</time>
      </trkpt>
      <trkpt lat="42.657774" lon="0.65005">
        <ele>2738.5</ele>
        <time>1970-01-01T01:52:52.000Z</time>
      </trkpt>
      <trkpt lat="42.657774" lon="0.65005">
        <ele>2738.5</ele>
        <time>1970-01-01T01:52:53.000Z</time>
      </trkpt>
      <trkpt lat="42.657774" lon="0.65005">
        <ele>2738.5</ele>
        <time>1970-01-01T01:52:54.000Z</time>
      </trkpt>
      <trkpt lat="42.657774" lon="0.65005">
        <ele>2738.5</ele>
        <time>1970-01-01T01:52:55.000Z</time>
      </trkpt>
      <trkpt lat="42.657774" lon="0.65005">
        <ele>2738.5</ele>
        <time>1970-01-01T01:52:56.000Z</time>
      </trkpt>
      <trkpt lat="42.657774" lon="0.65005">
        <ele>2738.5</ele>
        <time>1970-01-01T01:52:57.000Z</time>
      </trkpt>
      <trkpt lat="42.657774" lon="0.65005">
        <ele>2738.5</ele>
        <time>1970-01-01T01:52:58.000Z</time>
      </trkpt>
      <trkpt lat="42.657774" lon="0.65005">
        <ele>2738.5</ele>
        <time>1970-01-01T01:52:59.000Z</time>
      </trkpt>
      <trkpt lat="42.657774" lon="0.65005">
        <ele>2738.5</ele>
        <time>1970-01-01T01:53:00.000Z</time>
      </trkpt>
      <trkpt lat="42.657774" lon="0.65005">
        <ele>2738.5</ele>
        <time>1970-01-01T01:53:01.000Z</time>
      </trkpt>
      <trkpt lat="42.657774" lon="0.65005">
        <ele>2738.5</ele>
        <time>1970-01-01T01:53:02.000Z</time>
      </trkpt>
      <trkpt lat="42.657774" lon="0.65005">
        <ele>2738.5</ele>
        <time>1970-01-01T01:53:03.000Z</time>
      </trkpt>
      <trkpt lat="42.657774" lon="0.65005">
        <ele>2738.5</ele>
        <time>1970-01-01T01:53:04.000Z</time>
      </trkpt>
      <trkpt lat="42.657774" lon="0.65005">
        <ele>2738.5</ele>
        <time>1970-01-01T01:53:05.000Z</time>
      </trkpt>
      <trkpt lat="42.657774" lon="0.65005">
        <ele>2738.5</ele>
        <time>1970-01-01T01:53:06.000Z</time>
      </trkpt>
      <trkpt lat="42.657774" lon="0.65005">
        <ele>2738.5</ele>
        <time>1970-01-01T01:53:07.000Z</time>
      </trkpt>
      <trkpt lat="42.657774" lon="0.65005">
        <ele>2738.5</ele>
        <time>1970-01-01T01:53:08.000Z</time>
      </trkpt>
      <trkpt lat="42.657774" lon="0.65005">
        <ele>2738.5</ele>
        <time>1970-01-01T01:53:09.000Z</time>
      </trkpt>
      <trkpt lat="42.657774" lon="0.65005">
        <ele>2738.5</ele>
        <time>1970-01-01T01:53:10.000Z</time>
      </trkpt>
      <trkpt lat="42.657774" lon="0.65005">
        <ele>2738.5</ele>
        <time>1970-01-01T01:53:11.000Z</time>
      </trkpt>
      <trkpt lat="42.657774" lon="0.65005">
        <ele>2738.5</ele>
        <time>1970-01-01T01:53:12.000Z</time>
      </trkpt>
      <trkpt lat="42.657774" lon="0.65005">
        <ele>2738.5</ele>
        <time>1970-01-01T01:53:13.000Z</time>
      </trkpt>
      <trkpt lat="42.657774" lon="0.65005">
        <ele>2738.5</ele>
        <time>1970-01-01T01:53:14.000Z</time>
      </trkpt>
      <trkpt lat="42.657774" lon="0.65005">
        <ele>2738.5</ele>
        <time>1970-01-01T01:53:15.000Z</time>
      </trkpt>
      <trkpt lat="42.657774" lon="0.65005">
        <ele>2738.3</ele>
        <time>1970-01-01T01:53:16.000Z</time>
      </trkpt>
      <trkpt lat="42.657774" lon="0.65005">
        <ele>2738.1</ele>
        <time>1970-01-01T01:53:17.000Z</time>
      </trkpt>
      <trkpt lat="42.657774" lon="0.650051">
        <ele>2737.9</ele>
        <time>1970-01-01T01:53:18.000Z</time>
      </trkpt>
      <trkpt lat="42.657774" lon="0.650051">
        <ele>2737.8</ele>
        <time>1970-01-01T01:53:19.000Z</time>
      </trkpt>
      <trkpt lat="42.657774" lon="0.650051">
        <ele>2737.6</ele>
        <time>1970-01-01T01:53:20.000Z</time>
      </trkpt>
      <trkpt lat="42.657774" lon="0.650051">
        <ele>2737.4</ele>
        <time>1970-01-01T01:53:21.000Z</time>
      </trkpt>
      <trkpt lat="42.657774" lon="0.650051">
        <ele>2737.2</ele>
        <time>1970-01-01T01:53:22.000Z</time>
      </trkpt>
      <trkpt lat="42.657774" lon="0.650051">
        <ele>2737</ele>
        <time>1970-01-01T01:53:23.000Z</time>
      </trkpt>
      <trkpt lat="42.657774" lon="0.650051">
        <ele>2736.8</ele>
        <time>1970-01-01T01:53:24.000Z</time>
      </trkpt>
      <trkpt lat="42.657774" lon="0.650051">
        <ele>2736.7</ele>
        <time>1970-01-01T01:53:25.000Z</time>
      </trkpt>
      <trkpt lat="42.657774" lon="0.650051">
        <ele>2736.5</ele>
        <time>1970-01-01T01:53:26.000Z</time>
      </trkpt>
      <trkpt lat="42.657774" lon="0.650051">
        <ele>2736.3</ele>
        <time>1970-01-01T01:53:27.000Z</time>
      </trkpt>
      <trkpt lat="42.657774" lon="0.65005">
        <ele>2736.1</ele>
        <time>1970-01-01T01:53:28.000Z</time>
      </trkpt>
      <trkpt lat="42.657774" lon="0.65005">
        <ele>2735.9</ele>
        <time>1970-01-01T01:53:29.000Z</time>
      </trkpt>
      <trkpt lat="42.657774" lon="0.65005">
        <ele>2735.7</ele>
        <time>1970-01-01T01:53:30.000Z</time>
      </trkpt>
      <trkpt lat="42.657774" lon="0.65005">
        <ele>2735.6</ele>
        <time>1970-01-01T01:53:31.000Z</time>
      </trkpt>
      <trkpt lat="42.657774" lon="0.65005">
        <ele>2735.4</ele>
        <time>1970-01-01T01:53:32.000Z</time>
      </trkpt>
      <trkpt lat="42.657774" lon="0.65005">
        <ele>2735.2</ele>
        <time>1970-01-01T01:53:33.000Z</time>
      </trkpt>
      <trkpt lat="42.657774" lon="0.65005">
        <ele>2735</ele>
        <time>1970-01-01T01:53:34.000Z</time>
      </trkpt>
      <trkpt lat="42.657774" lon="0.65005">
        <ele>2734.8</ele>
        <time>1970-01-01T01:53:35.000Z</time>
      </trkpt>
      <trkpt lat="42.657774" lon="0.65005">
        <ele>2734.6</ele>
        <time>1970-01-01T01:53:36.000Z</time>
      </trkpt>
      <trkpt lat="42.657774" lon="0.65005">
        <ele>2734.5</ele>
        <time>1970-01-01T01:53:37.000Z</time>
      </trkpt>
      <trkpt lat="42.657774" lon="0.65005">
        <ele>2734.3</ele>
        <time>1970-01-01T01:53:38.000Z</time>
      </trkpt>
      <trkpt lat="42.657774" lon="0.65005">
        <ele>2734.1</ele>
        <time>1970-01-01T01:53:39.000Z</time>
      </trkpt>
      <trkpt lat="42.657774" lon="0.65005">
        <ele>2733.9</ele>
        <time>1970-01-01T01:53:40.000Z</time>
      </trkpt>
      <trkpt lat="42.657774" lon="0.65005">
        <ele>2733.7</ele>
        <time>1970-01-01T01:53:41.000Z</time>
      </trkpt>
      <trkpt lat="42.657774" lon="0.65005">
        <ele>2733.5</ele>
        <time>1970-01-01T01:53:42.000Z</time>
      </trkpt>
      <trkpt lat="42.657774" lon="0.65005">
        <ele>2733.3</ele>
        <time>1970-01-01T01:53:43.000Z</time>
      </trkpt>
      <trkpt lat="42.657774" lon="0.65005">
        <ele>2733.2</ele>
        <time>1970-01-01T01:53:44.000Z</time>
      </trkpt>
      <trkpt lat="42.657774" lon="0.65005">
        <ele>2733</ele>
        <time>1970-01-01T01:53:45.000Z</time>
      </trkpt>
      <trkpt lat="42.657774" lon="0.65005">
        <ele>2732.8</ele>
        <time>1970-01-01T01:53:46.000Z</time>
      </trkpt>
      <trkpt lat="42.657774" lon="0.65005">
        <ele>2732.6</ele>
        <time>1970-01-01T01:53:47.000Z</time>
      </trkpt>
      <trkpt lat="42.657774" lon="0.65005">
        <ele>2732.4</ele>
        <time>1970-01-01T01:53:48.000Z</time>
      </trkpt>
      <trkpt lat="42.657774" lon="0.65005">
        <ele>2732.2</ele>
        <time>1970-01-01T01:53:49.000Z</time>
      </trkpt>
      <trkpt lat="42.657774" lon="0.65005">
        <ele>2732.1</ele>
        <time>1970-01-01T01:53:50.000Z</time>
      </trkpt>
      <trkpt lat="42.657774" lon="0.65005">
        <ele>2731.9</ele>
        <time>1970-01-01T01:53:51.000Z</time>
      </trkpt>
      <trkpt lat="42.657773" lon="0.65005">
        <ele>2731.7</ele>
        <time>1970-01-01T01:53:52.000Z</time>
      </trkpt>
      <trkpt lat="42.657773" lon="0.65005">
        <ele>2731.5</ele>
        <time>1970-01-01T01:53:53.000Z</time>
      </trkpt>
      <trkpt lat="42.657774" lon="0.65005">
        <ele>2731.3</ele>
        <time>1970-01-01T01:53:54.000Z</time>
      </trkpt>
      <trkpt lat="42.657776" lon="0.65005">
        <ele>2731.1</ele>
        <time>1970-01-01T01:53:55.000Z</time>
      </trkpt>
      <trkpt lat="42.657778" lon="0.650049">
        <ele>2731</ele>
        <time>1970-01-01T01:53:56.000Z</time>
      </trkpt>
      <trkpt lat="42.657779" lon="0.650048">
        <ele>2730.8</ele>
        <time>1970-01-01T01:53:57.000Z</time>
      </trkpt>
      <trkpt lat="42.65778" lon="0.650047">
        <ele>2730.6</ele>
        <time>1970-01-01T01:53:58.000Z</time>
      </trkpt>
      <trkpt lat="42.657781" lon="0.650047">
        <ele>2730.4</ele>
        <time>1970-01-01T01:53:59.000Z</time>
      </trkpt>
      <trkpt lat="42.657782" lon="0.650047">
        <ele>2730.2</ele>
        <time>1970-01-01T01:54:00.000Z</time>
      </trkpt>
      <trkpt lat="42.657781" lon="0.650047">
        <ele>2730</ele>
        <time>1970-01-01T01:54:01.000Z</time>
      </trkpt>
      <trkpt lat="42.657781" lon="0.650048">
        <ele>2729.9</ele>
        <time>1970-01-01T01:54:02.000Z</time>
      </trkpt>
      <trkpt lat="42.657781" lon="0.650048">
        <ele>2729.7</ele>
        <time>1970-01-01T01:54:03.000Z</time>
      </trkpt>
      <trkpt lat="42.65778" lon="0.650048">
        <ele>2729.5</ele>
        <time>1970-01-01T01:54:04.000Z</time>
      </trkpt>
      <trkpt lat="42.657781" lon="0.650048">
        <ele>2729.3</ele>
        <time>1970-01-01T01:54:05.000Z</time>
      </trkpt>
      <trkpt lat="42.65778" lon="0.650047">
        <ele>2729.1</ele>
        <time>1970-01-01T01:54:06.000Z</time>
      </trkpt>
      <trkpt lat="42.65778" lon="0.650046">
        <ele>2728.9</ele>
        <time>1970-01-01T01:54:08.000Z</time>
      </trkpt>
      <trkpt lat="42.65778" lon="0.650046">
        <ele>2728.7</ele>
        <time>1970-01-01T01:54:09.000Z</time>
      </trkpt>
      <trkpt lat="42.657779" lon="0.650045">
        <ele>2728.6</ele>
        <time>1970-01-01T01:54:10.000Z</time>
      </trkpt>
      <trkpt lat="42.657779" lon="0.650041">
        <ele>2728.4</ele>
        <time>1970-01-01T01:54:11.000Z</time>
      </trkpt>
      <trkpt lat="42.657774" lon="0.650034">
        <ele>2728.5</ele>
        <time>1970-01-01T01:54:12.000Z</time>
      </trkpt>
      <trkpt lat="42.65777" lon="0.650029">
        <ele>2728.3</ele>
        <time>1970-01-01T01:54:13.000Z</time>
      </trkpt>
      <trkpt lat="42.657763" lon="0.650021">
        <ele>2728.1</ele>
        <time>1970-01-01T01:54:14.000Z</time>
      </trkpt>
      <trkpt lat="42.65775" lon="0.650008">
        <ele>2729.3</ele>
        <time>1970-01-01T01:54:16.000Z</time>
      </trkpt>
      <trkpt lat="42.657745" lon="0.650002">
        <ele>2729.2</ele>
        <time>1970-01-01T01:54:17.000Z</time>
      </trkpt>
      <trkpt lat="42.657739" lon="0.649988">
        <ele>2729.3</ele>
        <time>1970-01-01T01:54:18.000Z</time>
      </trkpt>
      <trkpt lat="42.657736" lon="0.649981">
        <ele>2729.1</ele>
        <time>1970-01-01T01:54:20.000Z</time>
      </trkpt>
      <trkpt lat="42.657732" lon="0.649972">
        <ele>2728.9</ele>
        <time>1970-01-01T01:54:21.000Z</time>
      </trkpt>
      <trkpt lat="42.657731" lon="0.649967">
        <ele>2728.7</ele>
        <time>1970-01-01T01:54:22.000Z</time>
      </trkpt>
      <trkpt lat="42.657732" lon="0.64996">
        <ele>2728.5</ele>
        <time>1970-01-01T01:54:23.000Z</time>
      </trkpt>
      <trkpt lat="42.657733" lon="0.649952">
        <ele>2728.7</ele>
        <time>1970-01-01T01:54:24.000Z</time>
      </trkpt>
      <trkpt lat="42.657734" lon="0.64994">
        <ele>2728.5</ele>
        <time>1970-01-01T01:54:25.000Z</time>
      </trkpt>
      <trkpt lat="42.657732" lon="0.649929">
        <ele>2728.3</ele>
        <time>1970-01-01T01:54:26.000Z</time>
      </trkpt>
      <trkpt lat="42.657729" lon="0.649909">
        <ele>2728.4</ele>
        <time>1970-01-01T01:54:27.000Z</time>
      </trkpt>
      <trkpt lat="42.657729" lon="0.6499">
        <ele>2728.2</ele>
        <time>1970-01-01T01:54:28.000Z</time>
      </trkpt>
      <trkpt lat="42.657728" lon="0.64989">
        <ele>2729.4</ele>
        <time>1970-01-01T01:54:30.000Z</time>
      </trkpt>
      <trkpt lat="42.657728" lon="0.649881">
        <ele>2729.3</ele>
        <time>1970-01-01T01:54:31.000Z</time>
      </trkpt>
      <trkpt lat="42.657724" lon="0.649872">
        <ele>2729.1</ele>
        <time>1970-01-01T01:54:32.000Z</time>
      </trkpt>
      <trkpt lat="42.657716" lon="0.649859">
        <ele>2729.2</ele>
        <time>1970-01-01T01:54:33.000Z</time>
      </trkpt>
      <trkpt lat="42.65771" lon="0.649845">
        <ele>2729</ele>
        <time>1970-01-01T01:54:35.000Z</time>
      </trkpt>
      <trkpt lat="42.657708" lon="0.649837">
        <ele>2728.8</ele>
        <time>1970-01-01T01:54:36.000Z</time>
      </trkpt>
      <trkpt lat="42.657704" lon="0.649829">
        <ele>2728.6</ele>
        <time>1970-01-01T01:54:37.000Z</time>
      </trkpt>
      <trkpt lat="42.657699" lon="0.649821">
        <ele>2728.7</ele>
        <time>1970-01-01T01:54:38.000Z</time>
      </trkpt>
      <trkpt lat="42.657694" lon="0.649816">
        <ele>2730.1</ele>
        <time>1970-01-01T01:54:39.000Z</time>
      </trkpt>
      <trkpt lat="42.657689" lon="0.64981">
        <ele>2729.9</ele>
        <time>1970-01-01T01:54:40.000Z</time>
      </trkpt>
      <trkpt lat="42.657685" lon="0.649806">
        <ele>2729.7</ele>
        <time>1970-01-01T01:54:41.000Z</time>
      </trkpt>
      <trkpt lat="42.65768" lon="0.649799">
        <ele>2729.5</ele>
        <time>1970-01-01T01:54:42.000Z</time>
      </trkpt>
      <trkpt lat="42.657675" lon="0.649793">
        <ele>2729.3</ele>
        <time>1970-01-01T01:54:43.000Z</time>
      </trkpt>
      <trkpt lat="42.657669" lon="0.649788">
        <ele>2729.1</ele>
        <time>1970-01-01T01:54:44.000Z</time>
      </trkpt>
      <trkpt lat="42.657665" lon="0.649784">
        <ele>2730.4</ele>
        <time>1970-01-01T01:54:45.000Z</time>
      </trkpt>
      <trkpt lat="42.65766" lon="0.649779">
        <ele>2730.6</ele>
        <time>1970-01-01T01:54:46.000Z</time>
      </trkpt>
      <trkpt lat="42.657654" lon="0.649773">
        <ele>2730.4</ele>
        <time>1970-01-01T01:54:47.000Z</time>
      </trkpt>
      <trkpt lat="42.657648" lon="0.649766">
        <ele>2730.2</ele>
        <time>1970-01-01T01:54:48.000Z</time>
      </trkpt>
      <trkpt lat="42.657636" lon="0.649755">
        <ele>2730</ele>
        <time>1970-01-01T01:54:50.000Z</time>
      </trkpt>
      <trkpt lat="42.657627" lon="0.649748">
        <ele>2731.2</ele>
        <time>1970-01-01T01:54:51.000Z</time>
      </trkpt>
      <trkpt lat="42.65762" lon="0.649743">
        <ele>2731.1</ele>
        <time>1970-01-01T01:54:52.000Z</time>
      </trkpt>
      <trkpt lat="42.657612" lon="0.649737">
        <ele>2731.3</ele>
        <time>1970-01-01T01:54:53.000Z</time>
      </trkpt>
      <trkpt lat="42.657604" lon="0.64973">
        <ele>2731.1</ele>
        <time>1970-01-01T01:54:54.000Z</time>
      </trkpt>
      <trkpt lat="42.657599" lon="0.649726">
        <ele>2732.3</ele>
        <time>1970-01-01T01:54:55.000Z</time>
      </trkpt>
      <trkpt lat="42.65759" lon="0.649717">
        <ele>2732.1</ele>
        <time>1970-01-01T01:54:57.000Z</time>
      </trkpt>
      <trkpt lat="42.657586" lon="0.649712">
        <ele>2731.9</ele>
        <time>1970-01-01T01:54:58.000Z</time>
      </trkpt>
      <trkpt lat="42.657581" lon="0.649706">
        <ele>2731.8</ele>
        <time>1970-01-01T01:54:59.000Z</time>
      </trkpt>
      <trkpt lat="42.657578" lon="0.649703">
        <ele>2731.6</ele>
        <time>1970-01-01T01:55:00.000Z</time>
      </trkpt>
      <trkpt lat="42.65758" lon="0.649705">
        <ele>2731.4</ele>
        <time>1970-01-01T01:55:02.000Z</time>
      </trkpt>
      <trkpt lat="42.657583" lon="0.649704">
        <ele>2731.2</ele>
        <time>1970-01-01T01:55:03.000Z</time>
      </trkpt>
      <trkpt lat="42.657584" lon="0.649704">
        <ele>2731.2</ele>
        <time>1970-01-01T01:55:04.000Z</time>
      </trkpt>
      <trkpt lat="42.657587" lon="0.649704">
        <ele>2731.2</ele>
        <time>1970-01-01T01:55:05.000Z</time>
      </trkpt>
      <trkpt lat="42.657589" lon="0.649703">
        <ele>2731.2</ele>
        <time>1970-01-01T01:55:06.000Z</time>
      </trkpt>
      <trkpt lat="42.657591" lon="0.649702">
        <ele>2731.2</ele>
        <time>1970-01-01T01:55:07.000Z</time>
      </trkpt>
      <trkpt lat="42.657593" lon="0.649699">
        <ele>2731.2</ele>
        <time>1970-01-01T01:55:08.000Z</time>
      </trkpt>
      <trkpt lat="42.657598" lon="0.649694">
        <ele>2731.7</ele>
        <time>1970-01-01T01:55:10.000Z</time>
      </trkpt>
      <trkpt lat="42.657601" lon="0.64969">
        <ele>2731.7</ele>
        <time>1970-01-01T01:55:11.000Z</time>
      </trkpt>
      <trkpt lat="42.657606" lon="0.649681">
        <ele>2730.2</ele>
        <time>1970-01-01T01:55:12.000Z</time>
      </trkpt>
      <trkpt lat="42.657609" lon="0.649677">
        <ele>2730.2</ele>
        <time>1970-01-01T01:55:13.000Z</time>
      </trkpt>
      <trkpt lat="42.657611" lon="0.649672">
        <ele>2730.2</ele>
        <time>1970-01-01T01:55:14.000Z</time>
      </trkpt>
      <trkpt lat="42.657614" lon="0.649668">
        <ele>2730.2</ele>
        <time>1970-01-01T01:55:15.000Z</time>
      </trkpt>
      <trkpt lat="42.657617" lon="0.649665">
        <ele>2730.2</ele>
        <time>1970-01-01T01:55:16.000Z</time>
      </trkpt>
      <trkpt lat="42.65762" lon="0.649664">
        <ele>2730.2</ele>
        <time>1970-01-01T01:55:17.000Z</time>
      </trkpt>
      <trkpt lat="42.657622" lon="0.649663">
        <ele>2730.2</ele>
        <time>1970-01-01T01:55:18.000Z</time>
      </trkpt>
      <trkpt lat="42.657625" lon="0.649661">
        <ele>2730.2</ele>
        <time>1970-01-01T01:55:19.000Z</time>
      </trkpt>
      <trkpt lat="42.657628" lon="0.649658">
        <ele>2730.2</ele>
        <time>1970-01-01T01:55:20.000Z</time>
      </trkpt>
      <trkpt lat="42.65763" lon="0.649655">
        <ele>2730.2</ele>
        <time>1970-01-01T01:55:21.000Z</time>
      </trkpt>
      <trkpt lat="42.657632" lon="0.649645">
        <ele>2730.6</ele>
        <time>1970-01-01T01:55:23.000Z</time>
      </trkpt>
      <trkpt lat="42.657634" lon="0.64964">
        <ele>2729</ele>
        <time>1970-01-01T01:55:24.000Z</time>
      </trkpt>
      <trkpt lat="42.657637" lon="0.649633">
        <ele>2729</ele>
        <time>1970-01-01T01:55:25.000Z</time>
      </trkpt>
      <trkpt lat="42.657637" lon="0.649626">
        <ele>2729</ele>
        <time>1970-01-01T01:55:26.000Z</time>
      </trkpt>
      <trkpt lat="42.657635" lon="0.649624">
        <ele>2729</ele>
        <time>1970-01-01T01:55:27.000Z</time>
      </trkpt>
      <trkpt lat="42.657633" lon="0.649627">
        <ele>2730.6</ele>
        <time>1970-01-01T01:55:28.000Z</time>
      </trkpt>
      <trkpt lat="42.657632" lon="0.649628">
        <ele>2730.6</ele>
        <time>1970-01-01T01:55:29.000Z</time>
      </trkpt>
      <trkpt lat="42.65763" lon="0.64963">
        <ele>2730.6</ele>
        <time>1970-01-01T01:55:30.000Z</time>
      </trkpt>
      <trkpt lat="42.657628" lon="0.649633">
        <ele>2730.6</ele>
        <time>1970-01-01T01:55:31.000Z</time>
      </trkpt>
      <trkpt lat="42.657626" lon="0.649635">
        <ele>2730.6</ele>
        <time>1970-01-01T01:55:32.000Z</time>
      </trkpt>
      <trkpt lat="42.657622" lon="0.649633">
        <ele>2730.6</ele>
        <time>1970-01-01T01:55:34.000Z</time>
      </trkpt>
      <trkpt lat="42.657619" lon="0.649632">
        <ele>2730.6</ele>
        <time>1970-01-01T01:55:35.000Z</time>
      </trkpt>
      <trkpt lat="42.657615" lon="0.649631">
        <ele>2730.6</ele>
        <time>1970-01-01T01:55:36.000Z</time>
      </trkpt>
      <trkpt lat="42.657611" lon="0.649632">
        <ele>2730.6</ele>
        <time>1970-01-01T01:55:37.000Z</time>
      </trkpt>
      <trkpt lat="42.657609" lon="0.649632">
        <ele>2730.6</ele>
        <time>1970-01-01T01:55:38.000Z</time>
      </trkpt>
      <trkpt lat="42.657607" lon="0.649633">
        <ele>2730.6</ele>
        <time>1970-01-01T01:55:39.000Z</time>
      </trkpt>
      <trkpt lat="42.657606" lon="0.649633">
        <ele>2730.6</ele>
        <time>1970-01-01T01:55:40.000Z</time>
      </trkpt>
      <trkpt lat="42.657604" lon="0.649633">
        <ele>2730.6</ele>
        <time>1970-01-01T01:55:41.000Z</time>
      </trkpt>
      <trkpt lat="42.657601" lon="0.649635">
        <ele>2732.1</ele>
        <time>1970-01-01T01:55:43.000Z</time>
      </trkpt>
      <trkpt lat="42.6576" lon="0.649637">
        <ele>2732.1</ele>
        <time>1970-01-01T01:55:44.000Z</time>
      </trkpt>
      <trkpt lat="42.657597" lon="0.649638">
        <ele>2732.1</ele>
        <time>1970-01-01T01:55:45.000Z</time>
      </trkpt>
      <trkpt lat="42.657595" lon="0.649635">
        <ele>2732.1</ele>
        <time>1970-01-01T01:55:46.000Z</time>
      </trkpt>
      <trkpt lat="42.657595" lon="0.649633">
        <ele>2732.1</ele>
        <time>1970-01-01T01:55:47.000Z</time>
      </trkpt>
      <trkpt lat="42.657595" lon="0.64963">
        <ele>2732.1</ele>
        <time>1970-01-01T01:55:48.000Z</time>
      </trkpt>
      <trkpt lat="42.657597" lon="0.649629">
        <ele>2732.1</ele>
        <time>1970-01-01T01:55:49.000Z</time>
      </trkpt>
      <trkpt lat="42.657599" lon="0.649627">
        <ele>2732.1</ele>
        <time>1970-01-01T01:55:50.000Z</time>
      </trkpt>
      <trkpt lat="42.6576" lon="0.649626">
        <ele>2732.1</ele>
        <time>1970-01-01T01:55:51.000Z</time>
      </trkpt>
      <trkpt lat="42.657601" lon="0.649624">
        <ele>2732.1</ele>
        <time>1970-01-01T01:55:52.000Z</time>
      </trkpt>
      <trkpt lat="42.657603" lon="0.649622">
        <ele>2730.6</ele>
        <time>1970-01-01T01:55:53.000Z</time>
      </trkpt>
      <trkpt lat="42.657605" lon="0.649621">
        <ele>2730.6</ele>
        <time>1970-01-01T01:55:54.000Z</time>
      </trkpt>
      <trkpt lat="42.657609" lon="0.649618">
        <ele>2730.6</ele>
        <time>1970-01-01T01:55:56.000Z</time>
      </trkpt>
      <trkpt lat="42.657612" lon="0.649616">
        <ele>2730.6</ele>
        <time>1970-01-01T01:55:57.000Z</time>
      </trkpt>
      <trkpt lat="42.657612" lon="0.64961">
        <ele>2730.6</ele>
        <time>1970-01-01T01:55:58.000Z</time>
      </trkpt>
      <trkpt lat="42.65761" lon="0.649607">
        <ele>2730.9</ele>
        <time>1970-01-01T01:55:59.000Z</time>
      </trkpt>
      <trkpt lat="42.657606" lon="0.649604">
        <ele>2730.9</ele>
        <time>1970-01-01T01:56:01.000Z</time>
      </trkpt>
      <trkpt lat="42.6576" lon="0.649602">
        <ele>2732.5</ele>
        <time>1970-01-01T01:56:02.000Z</time>
      </trkpt>
      <trkpt lat="42.657594" lon="0.649601">
        <ele>2732.5</ele>
        <time>1970-01-01T01:56:03.000Z</time>
      </trkpt>
      <trkpt lat="42.657586" lon="0.649604">
        <ele>2732.5</ele>
        <time>1970-01-01T01:56:05.000Z</time>
      </trkpt>
      <trkpt lat="42.657586" lon="0.649607">
        <ele>2732.5</ele>
        <time>1970-01-01T01:56:06.000Z</time>
      </trkpt>
      <trkpt lat="42.657587" lon="0.64961">
        <ele>2732.1</ele>
        <time>1970-01-01T01:56:07.000Z</time>
      </trkpt>
      <trkpt lat="42.657587" lon="0.649615">
        <ele>2732.1</ele>
        <time>1970-01-01T01:56:08.000Z</time>
      </trkpt>
      <trkpt lat="42.657587" lon="0.649618">
        <ele>2732.1</ele>
        <time>1970-01-01T01:56:09.000Z</time>
      </trkpt>
      <trkpt lat="42.657588" lon="0.649619">
        <ele>2732.1</ele>
        <time>1970-01-01T01:56:10.000Z</time>
      </trkpt>
      <trkpt lat="42.657588" lon="0.64962">
        <ele>2732.1</ele>
        <time>1970-01-01T01:56:11.000Z</time>
      </trkpt>
      <trkpt lat="42.657588" lon="0.649621">
        <ele>2732.1</ele>
        <time>1970-01-01T01:56:12.000Z</time>
      </trkpt>
      <trkpt lat="42.657587" lon="0.649621">
        <ele>2732.1</ele>
        <time>1970-01-01T01:56:13.000Z</time>
      </trkpt>
      <trkpt lat="42.657585" lon="0.64962">
        <ele>2732.1</ele>
        <time>1970-01-01T01:56:14.000Z</time>
      </trkpt>
      <trkpt lat="42.657585" lon="0.649618">
        <ele>2732.1</ele>
        <time>1970-01-01T01:56:15.000Z</time>
      </trkpt>
      <trkpt lat="42.657584" lon="0.649614">
        <ele>2732.1</ele>
        <time>1970-01-01T01:56:16.000Z</time>
      </trkpt>
      <trkpt lat="42.657582" lon="0.649609">
        <ele>2732.5</ele>
        <time>1970-01-01T01:56:18.000Z</time>
      </trkpt>
      <trkpt lat="42.657578" lon="0.649607">
        <ele>2732.5</ele>
        <time>1970-01-01T01:56:19.000Z</time>
      </trkpt>
      <trkpt lat="42.657575" lon="0.649609">
        <ele>2732.5</ele>
        <time>1970-01-01T01:56:20.000Z</time>
      </trkpt>
      <trkpt lat="42.657572" lon="0.649611">
        <ele>2732.1</ele>
        <time>1970-01-01T01:56:21.000Z</time>
      </trkpt>
      <trkpt lat="42.657565" lon="0.649613">
        <ele>2733.6</ele>
        <time>1970-01-01T01:56:22.000Z</time>
      </trkpt>
      <trkpt lat="42.657556" lon="0.649607">
        <ele>2734.1</ele>
        <time>1970-01-01T01:56:24.000Z</time>
      </trkpt>
      <trkpt lat="42.657554" lon="0.649601">
        <ele>2734.1</ele>
        <time>1970-01-01T01:56:25.000Z</time>
      </trkpt>
      <trkpt lat="42.657556" lon="0.649592">
        <ele>2734.1</ele>
        <time>1970-01-01T01:56:26.000Z</time>
      </trkpt>
      <trkpt lat="42.657559" lon="0.649585">
        <ele>2734.1</ele>
        <time>1970-01-01T01:56:27.000Z</time>
      </trkpt>
      <trkpt lat="42.657562" lon="0.649579">
        <ele>2734.1</ele>
        <time>1970-01-01T01:56:28.000Z</time>
      </trkpt>
      <trkpt lat="42.657565" lon="0.649573">
        <ele>2734.1</ele>
        <time>1970-01-01T01:56:29.000Z</time>
      </trkpt>
      <trkpt lat="42.657567" lon="0.649566">
        <ele>2734.5</ele>
        <time>1970-01-01T01:56:30.000Z</time>
      </trkpt>
      <trkpt lat="42.657568" lon="0.64956">
        <ele>2734.5</ele>
        <time>1970-01-01T01:56:31.000Z</time>
      </trkpt>
      <trkpt lat="42.657565" lon="0.649551">
        <ele>2734.5</ele>
        <time>1970-01-01T01:56:33.000Z</time>
      </trkpt>
      <trkpt lat="42.657562" lon="0.649545">
        <ele>2734.5</ele>
        <time>1970-01-01T01:56:34.000Z</time>
      </trkpt>
      <trkpt lat="42.657562" lon="0.649539">
        <ele>2734.5</ele>
        <time>1970-01-01T01:56:35.000Z</time>
      </trkpt>
      <trkpt lat="42.657563" lon="0.649537">
        <ele>2734.5</ele>
        <time>1970-01-01T01:56:36.000Z</time>
      </trkpt>
      <trkpt lat="42.657566" lon="0.649534">
        <ele>2734.5</ele>
        <time>1970-01-01T01:56:37.000Z</time>
      </trkpt>
      <trkpt lat="42.657569" lon="0.649532">
        <ele>2734.5</ele>
        <time>1970-01-01T01:56:38.000Z</time>
      </trkpt>
      <trkpt lat="42.657571" lon="0.649528">
        <ele>2732.9</ele>
        <time>1970-01-01T01:56:39.000Z</time>
      </trkpt>
      <trkpt lat="42.657573" lon="0.649524">
        <ele>2732.9</ele>
        <time>1970-01-01T01:56:40.000Z</time>
      </trkpt>
      <trkpt lat="42.657575" lon="0.649521">
        <ele>2733.2</ele>
        <time>1970-01-01T01:56:41.000Z</time>
      </trkpt>
      <trkpt lat="42.657576" lon="0.649518">
        <ele>2733.2</ele>
        <time>1970-01-01T01:56:42.000Z</time>
      </trkpt>
      <trkpt lat="42.657576" lon="0.649515">
        <ele>2733.2</ele>
        <time>1970-01-01T01:56:43.000Z</time>
      </trkpt>
      <trkpt lat="42.657574" lon="0.649513">
        <ele>2733.2</ele>
        <time>1970-01-01T01:56:44.000Z</time>
      </trkpt>
      <trkpt lat="42.65757" lon="0.649515">
        <ele>2734.9</ele>
        <time>1970-01-01T01:56:45.000Z</time>
      </trkpt>
      <trkpt lat="42.657566" lon="0.649519">
        <ele>2734.9</ele>
        <time>1970-01-01T01:56:47.000Z</time>
      </trkpt>
      <trkpt lat="42.657562" lon="0.649525">
        <ele>2734.5</ele>
        <time>1970-01-01T01:56:48.000Z</time>
      </trkpt>
      <trkpt lat="42.657557" lon="0.649531">
        <ele>2734.5</ele>
        <time>1970-01-01T01:56:49.000Z</time>
      </trkpt>
      <trkpt lat="42.657553" lon="0.649531">
        <ele>2734.5</ele>
        <time>1970-01-01T01:56:50.000Z</time>
      </trkpt>
      <trkpt lat="42.65755" lon="0.649528">
        <ele>2734.5</ele>
        <time>1970-01-01T01:56:51.000Z</time>
      </trkpt>
      <trkpt lat="42.657549" lon="0.649523">
        <ele>2734.9</ele>
        <time>1970-01-01T01:56:52.000Z</time>
      </trkpt>
      <trkpt lat="42.657549" lon="0.649517">
        <ele>2734.9</ele>
        <time>1970-01-01T01:56:53.000Z</time>
      </trkpt>
      <trkpt lat="42.657548" lon="0.649511">
        <ele>2734.9</ele>
        <time>1970-01-01T01:56:54.000Z</time>
      </trkpt>
      <trkpt lat="42.657543" lon="0.649501">
        <ele>2734.9</ele>
        <time>1970-01-01T01:56:56.000Z</time>
      </trkpt>
      <trkpt lat="42.657541" lon="0.64949">
        <ele>2734.9</ele>
        <time>1970-01-01T01:56:58.000Z</time>
      </trkpt>
      <trkpt lat="42.657541" lon="0.649484">
        <ele>2734.9</ele>
        <time>1970-01-01T01:56:59.000Z</time>
      </trkpt>
      <trkpt lat="42.657541" lon="0.649478">
        <ele>2735.3</ele>
        <time>1970-01-01T01:57:01.000Z</time>
      </trkpt>
      <trkpt lat="42.657542" lon="0.649476">
        <ele>2735.3</ele>
        <time>1970-01-01T01:57:02.000Z</time>
      </trkpt>
      <trkpt lat="42.657542" lon="0.649474">
        <ele>2735.3</ele>
        <time>1970-01-01T01:57:03.000Z</time>
      </trkpt>
      <trkpt lat="42.657543" lon="0.649472">
        <ele>2735.3</ele>
        <time>1970-01-01T01:57:04.000Z</time>
      </trkpt>
      <trkpt lat="42.657545" lon="0.64947">
        <ele>2735.3</ele>
        <time>1970-01-01T01:57:05.000Z</time>
      </trkpt>
      <trkpt lat="42.657545" lon="0.649469">
        <ele>2735.3</ele>
        <time>1970-01-01T01:57:06.000Z</time>
      </trkpt>
      <trkpt lat="42.657546" lon="0.649467">
        <ele>2735.3</ele>
        <time>1970-01-01T01:57:07.000Z</time>
      </trkpt>
      <trkpt lat="42.657547" lon="0.649466">
        <ele>2735.3</ele>
        <time>1970-01-01T01:57:08.000Z</time>
      </trkpt>
      <trkpt lat="42.657548" lon="0.649465">
        <ele>2735.3</ele>
        <time>1970-01-01T01:57:09.000Z</time>
      </trkpt>
      <trkpt lat="42.657548" lon="0.649465">
        <ele>2735.3</ele>
        <time>1970-01-01T01:57:10.000Z</time>
      </trkpt>
      <trkpt lat="42.657548" lon="0.649464">
        <ele>2735.3</ele>
        <time>1970-01-01T01:57:11.000Z</time>
      </trkpt>
      <trkpt lat="42.657549" lon="0.649461">
        <ele>2735.3</ele>
        <time>1970-01-01T01:57:12.000Z</time>
      </trkpt>
      <trkpt lat="42.657549" lon="0.649459">
        <ele>2735.3</ele>
        <time>1970-01-01T01:57:13.000Z</time>
      </trkpt>
      <trkpt lat="42.657548" lon="0.649457">
        <ele>2735.3</ele>
        <time>1970-01-01T01:57:14.000Z</time>
      </trkpt>
      <trkpt lat="42.657548" lon="0.649453">
        <ele>2735.3</ele>
        <time>1970-01-01T01:57:15.000Z</time>
      </trkpt>
      <trkpt lat="42.657548" lon="0.64945">
        <ele>2735.3</ele>
        <time>1970-01-01T01:57:16.000Z</time>
      </trkpt>
      <trkpt lat="42.657548" lon="0.649447">
        <ele>2735.3</ele>
        <time>1970-01-01T01:57:17.000Z</time>
      </trkpt>
      <trkpt lat="42.657548" lon="0.649445">
        <ele>2735.3</ele>
        <time>1970-01-01T01:57:18.000Z</time>
      </trkpt>
      <trkpt lat="42.657548" lon="0.649443">
        <ele>2735.3</ele>
        <time>1970-01-01T01:57:19.000Z</time>
      </trkpt>
      <trkpt lat="42.657548" lon="0.649442">
        <ele>2735.3</ele>
        <time>1970-01-01T01:57:20.000Z</time>
      </trkpt>
      <trkpt lat="42.657549" lon="0.649438">
        <ele>2735.3</ele>
        <time>1970-01-01T01:57:21.000Z</time>
      </trkpt>
      <trkpt lat="42.657549" lon="0.649435">
        <ele>2735.7</ele>
        <time>1970-01-01T01:57:22.000Z</time>
      </trkpt>
      <trkpt lat="42.657551" lon="0.649433">
        <ele>2735.7</ele>
        <time>1970-01-01T01:57:23.000Z</time>
      </trkpt>
      <trkpt lat="42.657553" lon="0.649431">
        <ele>2735.7</ele>
        <time>1970-01-01T01:57:24.000Z</time>
      </trkpt>
      <trkpt lat="42.657555" lon="0.649429">
        <ele>2735.7</ele>
        <time>1970-01-01T01:57:25.000Z</time>
      </trkpt>
      <trkpt lat="42.657556" lon="0.649427">
        <ele>2735.7</ele>
        <time>1970-01-01T01:57:26.000Z</time>
      </trkpt>
      <trkpt lat="42.657557" lon="0.649425">
        <ele>2735.7</ele>
        <time>1970-01-01T01:57:27.000Z</time>
      </trkpt>
      <trkpt lat="42.657559" lon="0.649422">
        <ele>2735.7</ele>
        <time>1970-01-01T01:57:28.000Z</time>
      </trkpt>
      <trkpt lat="42.657562" lon="0.64942">
        <ele>2735.7</ele>
        <time>1970-01-01T01:57:29.000Z</time>
      </trkpt>
      <trkpt lat="42.657563" lon="0.649418">
        <ele>2735.7</ele>
        <time>1970-01-01T01:57:30.000Z</time>
      </trkpt>
      <trkpt lat="42.657565" lon="0.649417">
        <ele>2735.7</ele>
        <time>1970-01-01T01:57:31.000Z</time>
      </trkpt>
      <trkpt lat="42.657567" lon="0.649415">
        <ele>2735.7</ele>
        <time>1970-01-01T01:57:32.000Z</time>
      </trkpt>
      <trkpt lat="42.657571" lon="0.649412">
        <ele>2733.9</ele>
        <time>1970-01-01T01:57:33.000Z</time>
      </trkpt>
      <trkpt lat="42.657572" lon="0.64941">
        <ele>2733.9</ele>
        <time>1970-01-01T01:57:34.000Z</time>
      </trkpt>
      <trkpt lat="42.657574" lon="0.649408">
        <ele>2733.9</ele>
        <time>1970-01-01T01:57:35.000Z</time>
      </trkpt>
      <trkpt lat="42.657575" lon="0.649407">
        <ele>2733.9</ele>
        <time>1970-01-01T01:57:36.000Z</time>
      </trkpt>
      <trkpt lat="42.657577" lon="0.649404">
        <ele>2733.9</ele>
        <time>1970-01-01T01:57:37.000Z</time>
      </trkpt>
      <trkpt lat="42.657579" lon="0.6494">
        <ele>2733.9</ele>
        <time>1970-01-01T01:57:38.000Z</time>
      </trkpt>
      <trkpt lat="42.657579" lon="0.649395">
        <ele>2733.9</ele>
        <time>1970-01-01T01:57:40.000Z</time>
      </trkpt>
      <trkpt lat="42.657578" lon="0.649391">
        <ele>2734.3</ele>
        <time>1970-01-01T01:57:41.000Z</time>
      </trkpt>
      <trkpt lat="42.657577" lon="0.649387">
        <ele>2734.3</ele>
        <time>1970-01-01T01:57:42.000Z</time>
      </trkpt>
      <trkpt lat="42.657579" lon="0.649379">
        <ele>2734.3</ele>
        <time>1970-01-01T01:57:43.000Z</time>
      </trkpt>
      <trkpt lat="42.657583" lon="0.649374">
        <ele>2734.3</ele>
        <time>1970-01-01T01:57:44.000Z</time>
      </trkpt>
      <trkpt lat="42.65759" lon="0.649365">
        <ele>2734.3</ele>
        <time>1970-01-01T01:57:46.000Z</time>
      </trkpt>
      <trkpt lat="42.657592" lon="0.649357">
        <ele>2734.3</ele>
        <time>1970-01-01T01:57:47.000Z</time>
      </trkpt>
      <trkpt lat="42.657592" lon="0.649351">
        <ele>2734.6</ele>
        <time>1970-01-01T01:57:48.000Z</time>
      </trkpt>
      <trkpt lat="42.657592" lon="0.649347">
        <ele>2734.6</ele>
        <time>1970-01-01T01:57:49.000Z</time>
      </trkpt>
      <trkpt lat="42.657591" lon="0.649329">
        <ele>2734.6</ele>
        <time>1970-01-01T01:57:51.000Z</time>
      </trkpt>
      <trkpt lat="42.657592" lon="0.649318">
        <ele>2734.6</ele>
        <time>1970-01-01T01:57:53.000Z</time>
      </trkpt>
      <trkpt lat="42.657593" lon="0.64931">
        <ele>2734.6</ele>
        <time>1970-01-01T01:57:54.000Z</time>
      </trkpt>
      <trkpt lat="42.657594" lon="0.6493">
        <ele>2734.9</ele>
        <time>1970-01-01T01:57:55.000Z</time>
      </trkpt>
      <trkpt lat="42.657595" lon="0.649291">
        <ele>2734.9</ele>
        <time>1970-01-01T01:57:56.000Z</time>
      </trkpt>
      <trkpt lat="42.657598" lon="0.649279">
        <ele>2734.9</ele>
        <time>1970-01-01T01:57:57.000Z</time>
      </trkpt>
      <trkpt lat="42.657602" lon="0.649266">
        <ele>2735.2</ele>
        <time>1970-01-01T01:57:59.000Z</time>
      </trkpt>
      <trkpt lat="42.657606" lon="0.649253">
        <ele>2733.3</ele>
        <time>1970-01-01T01:58:00.000Z</time>
      </trkpt>
      <trkpt lat="42.657608" lon="0.649247">
        <ele>2733.3</ele>
        <time>1970-01-01T01:58:01.000Z</time>
      </trkpt>
      <trkpt lat="42.65761" lon="0.64923">
        <ele>2733.3</ele>
        <time>1970-01-01T01:58:03.000Z</time>
      </trkpt>
      <trkpt lat="42.65761" lon="0.649223">
        <ele>2733.4</ele>
        <time>1970-01-01T01:58:04.000Z</time>
      </trkpt>
      <trkpt lat="42.657611" lon="0.649219">
        <ele>2733.4</ele>
        <time>1970-01-01T01:58:05.000Z</time>
      </trkpt>
      <trkpt lat="42.657611" lon="0.649217">
        <ele>2733.4</ele>
        <time>1970-01-01T01:58:06.000Z</time>
      </trkpt>
      <trkpt lat="42.657612" lon="0.649214">
        <ele>2733.4</ele>
        <time>1970-01-01T01:58:07.000Z</time>
      </trkpt>
      <trkpt lat="42.657613" lon="0.649213">
        <ele>2733.4</ele>
        <time>1970-01-01T01:58:08.000Z</time>
      </trkpt>
      <trkpt lat="42.657613" lon="0.649211">
        <ele>2733.4</ele>
        <time>1970-01-01T01:58:09.000Z</time>
      </trkpt>
      <trkpt lat="42.657614" lon="0.649212">
        <ele>2733.4</ele>
        <time>1970-01-01T01:58:10.000Z</time>
      </trkpt>
      <trkpt lat="42.657615" lon="0.649211">
        <ele>2733.4</ele>
        <time>1970-01-01T01:58:11.000Z</time>
      </trkpt>
      <trkpt lat="42.657615" lon="0.649207">
        <ele>2733.4</ele>
        <time>1970-01-01T01:58:12.000Z</time>
      </trkpt>
      <trkpt lat="42.657615" lon="0.649202">
        <ele>2733.4</ele>
        <time>1970-01-01T01:58:13.000Z</time>
      </trkpt>
      <trkpt lat="42.657616" lon="0.649194">
        <ele>2733.4</ele>
        <time>1970-01-01T01:58:14.000Z</time>
      </trkpt>
      <trkpt lat="42.657617" lon="0.649187">
        <ele>2733.4</ele>
        <time>1970-01-01T01:58:15.000Z</time>
      </trkpt>
      <trkpt lat="42.657619" lon="0.649179">
        <ele>2733.6</ele>
        <time>1970-01-01T01:58:16.000Z</time>
      </trkpt>
      <trkpt lat="42.657623" lon="0.649168">
        <ele>2733.6</ele>
        <time>1970-01-01T01:58:17.000Z</time>
      </trkpt>
      <trkpt lat="42.657626" lon="0.649162">
        <ele>2733.6</ele>
        <time>1970-01-01T01:58:18.000Z</time>
      </trkpt>
      <trkpt lat="42.65763" lon="0.649154">
        <ele>2733.7</ele>
        <time>1970-01-01T01:58:20.000Z</time>
      </trkpt>
      <trkpt lat="42.657634" lon="0.649144">
        <ele>2733.9</ele>
        <time>1970-01-01T01:58:21.000Z</time>
      </trkpt>
      <trkpt lat="42.657634" lon="0.649133">
        <ele>2734</ele>
        <time>1970-01-01T01:58:23.000Z</time>
      </trkpt>
      <trkpt lat="42.657631" lon="0.649125">
        <ele>2734.2</ele>
        <time>1970-01-01T01:58:24.000Z</time>
      </trkpt>
      <trkpt lat="42.657627" lon="0.649117">
        <ele>2734.3</ele>
        <time>1970-01-01T01:58:25.000Z</time>
      </trkpt>
      <trkpt lat="42.657624" lon="0.64911">
        <ele>2734.4</ele>
        <time>1970-01-01T01:58:26.000Z</time>
      </trkpt>
      <trkpt lat="42.657623" lon="0.649104">
        <ele>2734.5</ele>
        <time>1970-01-01T01:58:27.000Z</time>
      </trkpt>
      <trkpt lat="42.657621" lon="0.649094">
        <ele>2734.7</ele>
        <time>1970-01-01T01:58:29.000Z</time>
      </trkpt>
      <trkpt lat="42.657618" lon="0.649088">
        <ele>2734.8</ele>
        <time>1970-01-01T01:58:30.000Z</time>
      </trkpt>
      <trkpt lat="42.657612" lon="0.649079">
        <ele>2735</ele>
        <time>1970-01-01T01:58:31.000Z</time>
      </trkpt>
      <trkpt lat="42.657609" lon="0.649073">
        <ele>2735.1</ele>
        <time>1970-01-01T01:58:32.000Z</time>
      </trkpt>
      <trkpt lat="42.657607" lon="0.649064">
        <ele>2735.2</ele>
        <time>1970-01-01T01:58:34.000Z</time>
      </trkpt>
      <trkpt lat="42.657604" lon="0.649059">
        <ele>2735.3</ele>
        <time>1970-01-01T01:58:35.000Z</time>
      </trkpt>
      <trkpt lat="42.657602" lon="0.649059">
        <ele>2735.3</ele>
        <time>1970-01-01T01:58:36.000Z</time>
      </trkpt>
      <trkpt lat="42.6576" lon="0.649058">
        <ele>2735.4</ele>
        <time>1970-01-01T01:58:37.000Z</time>
      </trkpt>
      <trkpt lat="42.657598" lon="0.649058">
        <ele>2735.4</ele>
        <time>1970-01-01T01:58:38.000Z</time>
      </trkpt>
      <trkpt lat="42.657595" lon="0.64906">
        <ele>2735.5</ele>
        <time>1970-01-01T01:58:39.000Z</time>
      </trkpt>
      <trkpt lat="42.657593" lon="0.649058">
        <ele>2735.5</ele>
        <time>1970-01-01T01:58:40.000Z</time>
      </trkpt>
      <trkpt lat="42.657589" lon="0.649056">
        <ele>2735.6</ele>
        <time>1970-01-01T01:58:42.000Z</time>
      </trkpt>
      <trkpt lat="42.657587" lon="0.649052">
        <ele>2735.7</ele>
        <time>1970-01-01T01:58:43.000Z</time>
      </trkpt>
      <trkpt lat="42.657585" lon="0.64905">
        <ele>2735.7</ele>
        <time>1970-01-01T01:58:44.000Z</time>
      </trkpt>
      <trkpt lat="42.657585" lon="0.649048">
        <ele>2735.8</ele>
        <time>1970-01-01T01:58:45.000Z</time>
      </trkpt>
      <trkpt lat="42.657584" lon="0.649047">
        <ele>2735.8</ele>
        <time>1970-01-01T01:58:46.000Z</time>
      </trkpt>
      <trkpt lat="42.657584" lon="0.649046">
        <ele>2735.8</ele>
        <time>1970-01-01T01:58:47.000Z</time>
      </trkpt>
      <trkpt lat="42.657584" lon="0.649046">
        <ele>2735.8</ele>
        <time>1970-01-01T01:58:48.000Z</time>
      </trkpt>
      <trkpt lat="42.657584" lon="0.649047">
        <ele>2735.8</ele>
        <time>1970-01-01T01:58:49.000Z</time>
      </trkpt>
      <trkpt lat="42.657584" lon="0.649047">
        <ele>2735.8</ele>
        <time>1970-01-01T01:58:50.000Z</time>
      </trkpt>
      <trkpt lat="42.657584" lon="0.649047">
        <ele>2735.8</ele>
        <time>1970-01-01T01:58:52.000Z</time>
      </trkpt>
      <trkpt lat="42.657584" lon="0.649045">
        <ele>2735.9</ele>
        <time>1970-01-01T01:58:53.000Z</time>
      </trkpt>
      <trkpt lat="42.657585" lon="0.649043">
        <ele>2735.9</ele>
        <time>1970-01-01T01:58:54.000Z</time>
      </trkpt>
      <trkpt lat="42.657584" lon="0.649039">
        <ele>2736</ele>
        <time>1970-01-01T01:58:56.000Z</time>
      </trkpt>
      <trkpt lat="42.657583" lon="0.649038">
        <ele>2736</ele>
        <time>1970-01-01T01:58:57.000Z</time>
      </trkpt>
      <trkpt lat="42.657584" lon="0.649036">
        <ele>2736</ele>
        <time>1970-01-01T01:58:58.000Z</time>
      </trkpt>
      <trkpt lat="42.657584" lon="0.649035">
        <ele>2736</ele>
        <time>1970-01-01T01:58:59.000Z</time>
      </trkpt>
      <trkpt lat="42.657584" lon="0.649035">
        <ele>2736</ele>
        <time>1970-01-01T01:59:00.000Z</time>
      </trkpt>
      <trkpt lat="42.657584" lon="0.649035">
        <ele>2736</ele>
        <time>1970-01-01T01:59:01.000Z</time>
      </trkpt>
      <trkpt lat="42.657584" lon="0.649034">
        <ele>2736.1</ele>
        <time>1970-01-01T01:59:02.000Z</time>
      </trkpt>
      <trkpt lat="42.657584" lon="0.649034">
        <ele>2736.1</ele>
        <time>1970-01-01T01:59:03.000Z</time>
      </trkpt>
      <trkpt lat="42.657583" lon="0.649034">
        <ele>2736.1</ele>
        <time>1970-01-01T01:59:04.000Z</time>
      </trkpt>
      <trkpt lat="42.657582" lon="0.649034">
        <ele>2736.1</ele>
        <time>1970-01-01T01:59:05.000Z</time>
      </trkpt>
      <trkpt lat="42.657581" lon="0.649033">
        <ele>2736.1</ele>
        <time>1970-01-01T01:59:06.000Z</time>
      </trkpt>
      <trkpt lat="42.657579" lon="0.649032">
        <ele>2736.2</ele>
        <time>1970-01-01T01:59:07.000Z</time>
      </trkpt>
      <trkpt lat="42.657577" lon="0.64903">
        <ele>2736.2</ele>
        <time>1970-01-01T01:59:08.000Z</time>
      </trkpt>
      <trkpt lat="42.657575" lon="0.649025">
        <ele>2736.3</ele>
        <time>1970-01-01T01:59:10.000Z</time>
      </trkpt>
      <trkpt lat="42.657574" lon="0.649022">
        <ele>2736.4</ele>
        <time>1970-01-01T01:59:11.000Z</time>
      </trkpt>
      <trkpt lat="42.657574" lon="0.64902">
        <ele>2736.4</ele>
        <time>1970-01-01T01:59:12.000Z</time>
      </trkpt>
      <trkpt lat="42.657573" lon="0.649018">
        <ele>2736.4</ele>
        <time>1970-01-01T01:59:13.000Z</time>
      </trkpt>
      <trkpt lat="42.657572" lon="0.649016">
        <ele>2736.5</ele>
        <time>1970-01-01T01:59:14.000Z</time>
      </trkpt>
      <trkpt lat="42.657573" lon="0.649014">
        <ele>2736.5</ele>
        <time>1970-01-01T01:59:15.000Z</time>
      </trkpt>
      <trkpt lat="42.657573" lon="0.649012">
        <ele>2736.5</ele>
        <time>1970-01-01T01:59:16.000Z</time>
      </trkpt>
      <trkpt lat="42.657572" lon="0.649009">
        <ele>2736.6</ele>
        <time>1970-01-01T01:59:17.000Z</time>
      </trkpt>
      <trkpt lat="42.657573" lon="0.649007">
        <ele>2736.6</ele>
        <time>1970-01-01T01:59:18.000Z</time>
      </trkpt>
      <trkpt lat="42.657572" lon="0.649004">
        <ele>2736.7</ele>
        <time>1970-01-01T01:59:19.000Z</time>
      </trkpt>
      <trkpt lat="42.657572" lon="0.649">
        <ele>2736.7</ele>
        <time>1970-01-01T01:59:20.000Z</time>
      </trkpt>
      <trkpt lat="42.657573" lon="0.648996">
        <ele>2736.8</ele>
        <time>1970-01-01T01:59:21.000Z</time>
      </trkpt>
      <trkpt lat="42.657574" lon="0.648992">
        <ele>2736.9</ele>
        <time>1970-01-01T01:59:22.000Z</time>
      </trkpt>
      <trkpt lat="42.657576" lon="0.648988">
        <ele>2736.9</ele>
        <time>1970-01-01T01:59:23.000Z</time>
      </trkpt>
      <trkpt lat="42.657579" lon="0.648984">
        <ele>2737</ele>
        <time>1970-01-01T01:59:24.000Z</time>
      </trkpt>
      <trkpt lat="42.657583" lon="0.648979">
        <ele>2737.1</ele>
        <time>1970-01-01T01:59:25.000Z</time>
      </trkpt>
      <trkpt lat="42.657586" lon="0.648973">
        <ele>2737.3</ele>
        <time>1970-01-01T01:59:26.000Z</time>
      </trkpt>
      <trkpt lat="42.657588" lon="0.648967">
        <ele>2737.4</ele>
        <time>1970-01-01T01:59:27.000Z</time>
      </trkpt>
      <trkpt lat="42.657589" lon="0.64896">
        <ele>2737.5</ele>
        <time>1970-01-01T01:59:28.000Z</time>
      </trkpt>
      <trkpt lat="42.657589" lon="0.648949">
        <ele>2737.7</ele>
        <time>1970-01-01T01:59:30.000Z</time>
      </trkpt>
      <trkpt lat="42.657588" lon="0.648936">
        <ele>2737.9</ele>
        <time>1970-01-01T01:59:31.000Z</time>
      </trkpt>
      <trkpt lat="42.657586" lon="0.648926">
        <ele>2738</ele>
        <time>1970-01-01T01:59:32.000Z</time>
      </trkpt>
      <trkpt lat="42.657585" lon="0.648919">
        <ele>2738.2</ele>
        <time>1970-01-01T01:59:33.000Z</time>
      </trkpt>
      <trkpt lat="42.65758" lon="0.648912">
        <ele>2738.3</ele>
        <time>1970-01-01T01:59:34.000Z</time>
      </trkpt>
      <trkpt lat="42.657574" lon="0.648909">
        <ele>2738.5</ele>
        <time>1970-01-01T01:59:35.000Z</time>
      </trkpt>
      <trkpt lat="42.657567" lon="0.648911">
        <ele>2738.6</ele>
        <time>1970-01-01T01:59:36.000Z</time>
      </trkpt>
      <trkpt lat="42.65756" lon="0.648913">
        <ele>2738.8</ele>
        <time>1970-01-01T01:59:37.000Z</time>
      </trkpt>
      <trkpt lat="42.657554" lon="0.648916">
        <ele>2738.9</ele>
        <time>1970-01-01T01:59:38.000Z</time>
      </trkpt>
      <trkpt lat="42.657545" lon="0.648915">
        <ele>2739.1</ele>
        <time>1970-01-01T01:59:40.000Z</time>
      </trkpt>
      <trkpt lat="42.657537" lon="0.648908">
        <ele>2739.4</ele>
        <time>1970-01-01T01:59:41.000Z</time>
      </trkpt>
      <trkpt lat="42.657536" lon="0.648904">
        <ele>2739.4</ele>
        <time>1970-01-01T01:59:42.000Z</time>
      </trkpt>
      <trkpt lat="42.657533" lon="0.648899">
        <ele>2739.6</ele>
        <time>1970-01-01T01:59:43.000Z</time>
      </trkpt>
      <trkpt lat="42.657531" lon="0.648894">
        <ele>2739.6</ele>
        <time>1970-01-01T01:59:44.000Z</time>
      </trkpt>
      <trkpt lat="42.657529" lon="0.64889">
        <ele>2739.7</ele>
        <time>1970-01-01T01:59:45.000Z</time>
      </trkpt>
      <trkpt lat="42.657527" lon="0.648887">
        <ele>2739.8</ele>
        <time>1970-01-01T01:59:46.000Z</time>
      </trkpt>
      <trkpt lat="42.657526" lon="0.648886">
        <ele>2739.8</ele>
        <time>1970-01-01T01:59:47.000Z</time>
      </trkpt>
      <trkpt lat="42.657525" lon="0.648885">
        <ele>2739.9</ele>
        <time>1970-01-01T01:59:48.000Z</time>
      </trkpt>
      <trkpt lat="42.657524" lon="0.648884">
        <ele>2739.9</ele>
        <time>1970-01-01T01:59:49.000Z</time>
      </trkpt>
      <trkpt lat="42.657523" lon="0.648883">
        <ele>2739.9</ele>
        <time>1970-01-01T01:59:50.000Z</time>
      </trkpt>
      <trkpt lat="42.657523" lon="0.648881">
        <ele>2740</ele>
        <time>1970-01-01T01:59:51.000Z</time>
      </trkpt>
      <trkpt lat="42.657523" lon="0.648879">
        <ele>2740</ele>
        <time>1970-01-01T01:59:52.000Z</time>
      </trkpt>
      <trkpt lat="42.657522" lon="0.648875">
        <ele>2740.1</ele>
        <time>1970-01-01T01:59:53.000Z</time>
      </trkpt>
      <trkpt lat="42.657522" lon="0.648873">
        <ele>2740.1</ele>
        <time>1970-01-01T01:59:54.000Z</time>
      </trkpt>
      <trkpt lat="42.657521" lon="0.648872">
        <ele>2740.1</ele>
        <time>1970-01-01T01:59:55.000Z</time>
      </trkpt>
      <trkpt lat="42.65752" lon="0.648871">
        <ele>2740.2</ele>
        <time>1970-01-01T01:59:56.000Z</time>
      </trkpt>
      <trkpt lat="42.657519" lon="0.64887">
        <ele>2740.2</ele>
        <time>1970-01-01T01:59:57.000Z</time>
      </trkpt>
      <trkpt lat="42.657517" lon="0.648869">
        <ele>2740.3</ele>
        <time>1970-01-01T01:59:58.000Z</time>
      </trkpt>
      <trkpt lat="42.657514" lon="0.648871">
        <ele>2740.3</ele>
        <time>1970-01-01T02:00:00.000Z</time>
      </trkpt>
      <trkpt lat="42.657512" lon="0.648873">
        <ele>2740.4</ele>
        <time>1970-01-01T02:00:01.000Z</time>
      </trkpt>
      <trkpt lat="42.657511" lon="0.648875">
        <ele>2740.5</ele>
        <time>1970-01-01T02:00:02.000Z</time>
      </trkpt>
      <trkpt lat="42.657508" lon="0.648876">
        <ele>2740.5</ele>
        <time>1970-01-01T02:00:03.000Z</time>
      </trkpt>
      <trkpt lat="42.657502" lon="0.648871">
        <ele>2740.7</ele>
        <time>1970-01-01T02:00:05.000Z</time>
      </trkpt>
      <trkpt lat="42.657496" lon="0.648868">
        <ele>2740.9</ele>
        <time>1970-01-01T02:00:07.000Z</time>
      </trkpt>
      <trkpt lat="42.657494" lon="0.648868">
        <ele>2740.9</ele>
        <time>1970-01-01T02:00:08.000Z</time>
      </trkpt>
      <trkpt lat="42.657487" lon="0.64887">
        <ele>2741.1</ele>
        <time>1970-01-01T02:00:10.000Z</time>
      </trkpt>
      <trkpt lat="42.657484" lon="0.648871">
        <ele>2741.2</ele>
        <time>1970-01-01T02:00:11.000Z</time>
      </trkpt>
      <trkpt lat="42.657481" lon="0.648873">
        <ele>2741.3</ele>
        <time>1970-01-01T02:00:12.000Z</time>
      </trkpt>
      <trkpt lat="42.657479" lon="0.648877">
        <ele>2741.4</ele>
        <time>1970-01-01T02:00:13.000Z</time>
      </trkpt>
      <trkpt lat="42.657477" lon="0.64888">
        <ele>2741.4</ele>
        <time>1970-01-01T02:00:14.000Z</time>
      </trkpt>
      <trkpt lat="42.657476" lon="0.648885">
        <ele>2741.5</ele>
        <time>1970-01-01T02:00:15.000Z</time>
      </trkpt>
      <trkpt lat="42.657472" lon="0.648888">
        <ele>2741.7</ele>
        <time>1970-01-01T02:00:16.000Z</time>
      </trkpt>
      <trkpt lat="42.657469" lon="0.648891">
        <ele>2741.8</ele>
        <time>1970-01-01T02:00:17.000Z</time>
      </trkpt>
      <trkpt lat="42.657465" lon="0.648895">
        <ele>2741.9</ele>
        <time>1970-01-01T02:00:18.000Z</time>
      </trkpt>
      <trkpt lat="42.657462" lon="0.648898">
        <ele>2742</ele>
        <time>1970-01-01T02:00:19.000Z</time>
      </trkpt>
      <trkpt lat="42.657458" lon="0.648902">
        <ele>2742.1</ele>
        <time>1970-01-01T02:00:20.000Z</time>
      </trkpt>
      <trkpt lat="42.657454" lon="0.648903">
        <ele>2742.2</ele>
        <time>1970-01-01T02:00:21.000Z</time>
      </trkpt>
      <trkpt lat="42.657447" lon="0.648902">
        <ele>2742.4</ele>
        <time>1970-01-01T02:00:22.000Z</time>
      </trkpt>
      <trkpt lat="42.657444" lon="0.648901">
        <ele>2742.5</ele>
        <time>1970-01-01T02:00:23.000Z</time>
      </trkpt>
      <trkpt lat="42.65744" lon="0.648899">
        <ele>2742.6</ele>
        <time>1970-01-01T02:00:24.000Z</time>
      </trkpt>
      <trkpt lat="42.657438" lon="0.648898">
        <ele>2742.7</ele>
        <time>1970-01-01T02:00:25.000Z</time>
      </trkpt>
      <trkpt lat="42.657437" lon="0.648897">
        <ele>2742.7</ele>
        <time>1970-01-01T02:00:26.000Z</time>
      </trkpt>
      <trkpt lat="42.657435" lon="0.648896">
        <ele>2742.8</ele>
        <time>1970-01-01T02:00:27.000Z</time>
      </trkpt>
      <trkpt lat="42.657432" lon="0.648892">
        <ele>2742.9</ele>
        <time>1970-01-01T02:00:29.000Z</time>
      </trkpt>
      <trkpt lat="42.657431" lon="0.64889">
        <ele>2743</ele>
        <time>1970-01-01T02:00:30.000Z</time>
      </trkpt>
      <trkpt lat="42.65743" lon="0.648888">
        <ele>2743</ele>
        <time>1970-01-01T02:00:31.000Z</time>
      </trkpt>
      <trkpt lat="42.657429" lon="0.648886">
        <ele>2743</ele>
        <time>1970-01-01T02:00:32.000Z</time>
      </trkpt>
      <trkpt lat="42.65743" lon="0.648885">
        <ele>2743.1</ele>
        <time>1970-01-01T02:00:33.000Z</time>
      </trkpt>
      <trkpt lat="42.657429" lon="0.648882">
        <ele>2743.1</ele>
        <time>1970-01-01T02:00:34.000Z</time>
      </trkpt>
      <trkpt lat="42.657427" lon="0.64888">
        <ele>2743.2</ele>
        <time>1970-01-01T02:00:35.000Z</time>
      </trkpt>
      <trkpt lat="42.657425" lon="0.648879">
        <ele>2743.3</ele>
        <time>1970-01-01T02:00:37.000Z</time>
      </trkpt>
      <trkpt lat="42.657424" lon="0.648877">
        <ele>2743.3</ele>
        <time>1970-01-01T02:00:38.000Z</time>
      </trkpt>
      <trkpt lat="42.657424" lon="0.648874">
        <ele>2743.4</ele>
        <time>1970-01-01T02:00:39.000Z</time>
      </trkpt>
      <trkpt lat="42.657423" lon="0.64887">
        <ele>2743.5</ele>
        <time>1970-01-01T02:00:40.000Z</time>
      </trkpt>
      <trkpt lat="42.657422" lon="0.648866">
        <ele>2743.6</ele>
        <time>1970-01-01T02:00:41.000Z</time>
      </trkpt>
      <trkpt lat="42.657417" lon="0.648863">
        <ele>2743.7</ele>
        <time>1970-01-01T02:00:43.000Z</time>
      </trkpt>
      <trkpt lat="42.657414" lon="0.648866">
        <ele>2743.8</ele>
        <time>1970-01-01T02:00:44.000Z</time>
      </trkpt>
      <trkpt lat="42.657411" lon="0.648871">
        <ele>2744</ele>
        <time>1970-01-01T02:00:45.000Z</time>
      </trkpt>
      <trkpt lat="42.65741" lon="0.648876">
        <ele>2744.1</ele>
        <time>1970-01-01T02:00:46.000Z</time>
      </trkpt>
      <trkpt lat="42.657409" lon="0.648881">
        <ele>2744.2</ele>
        <time>1970-01-01T02:00:47.000Z</time>
      </trkpt>
      <trkpt lat="42.657407" lon="0.648884">
        <ele>2744.3</ele>
        <time>1970-01-01T02:00:48.000Z</time>
      </trkpt>
      <trkpt lat="42.657406" lon="0.648887">
        <ele>2744.4</ele>
        <time>1970-01-01T02:00:49.000Z</time>
      </trkpt>
      <trkpt lat="42.657401" lon="0.64889">
        <ele>2744.5</ele>
        <time>1970-01-01T02:00:50.000Z</time>
      </trkpt>
      <trkpt lat="42.657396" lon="0.64889">
        <ele>2744.7</ele>
        <time>1970-01-01T02:00:51.000Z</time>
      </trkpt>
      <trkpt lat="42.657392" lon="0.648884">
        <ele>2744.9</ele>
        <time>1970-01-01T02:00:53.000Z</time>
      </trkpt>
      <trkpt lat="42.657391" lon="0.648875">
        <ele>2745.1</ele>
        <time>1970-01-01T02:00:54.000Z</time>
      </trkpt>
      <trkpt lat="42.65739" lon="0.648861">
        <ele>2745.4</ele>
        <time>1970-01-01T02:00:56.000Z</time>
      </trkpt>
      <trkpt lat="42.657386" lon="0.648854">
        <ele>2745.6</ele>
        <time>1970-01-01T02:00:57.000Z</time>
      </trkpt>
      <trkpt lat="42.657382" lon="0.648851">
        <ele>2745.7</ele>
        <time>1970-01-01T02:00:58.000Z</time>
      </trkpt>
      <trkpt lat="42.657379" lon="0.648848">
        <ele>2745.9</ele>
        <time>1970-01-01T02:00:59.000Z</time>
      </trkpt>
      <trkpt lat="42.657375" lon="0.648845">
        <ele>2746</ele>
        <time>1970-01-01T02:01:00.000Z</time>
      </trkpt>
      <trkpt lat="42.657372" lon="0.648841">
        <ele>2746.1</ele>
        <time>1970-01-01T02:01:01.000Z</time>
      </trkpt>
      <trkpt lat="42.657369" lon="0.648836">
        <ele>2746.3</ele>
        <time>1970-01-01T02:01:02.000Z</time>
      </trkpt>
      <trkpt lat="42.657365" lon="0.648832">
        <ele>2746.4</ele>
        <time>1970-01-01T02:01:03.000Z</time>
      </trkpt>
      <trkpt lat="42.657363" lon="0.648825">
        <ele>2746.6</ele>
        <time>1970-01-01T02:01:04.000Z</time>
      </trkpt>
      <trkpt lat="42.657361" lon="0.648819">
        <ele>2746.8</ele>
        <time>1970-01-01T02:01:05.000Z</time>
      </trkpt>
      <trkpt lat="42.65736" lon="0.648802">
        <ele>2747.2</ele>
        <time>1970-01-01T02:01:07.000Z</time>
      </trkpt>
      <trkpt lat="42.65736" lon="0.648794">
        <ele>2747.4</ele>
        <time>1970-01-01T02:01:08.000Z</time>
      </trkpt>
      <trkpt lat="42.657361" lon="0.648789">
        <ele>2747.5</ele>
        <time>1970-01-01T02:01:09.000Z</time>
      </trkpt>
      <trkpt lat="42.65736" lon="0.648785">
        <ele>2747.6</ele>
        <time>1970-01-01T02:01:10.000Z</time>
      </trkpt>
      <trkpt lat="42.65736" lon="0.648778">
        <ele>2747.8</ele>
        <time>1970-01-01T02:01:12.000Z</time>
      </trkpt>
      <trkpt lat="42.657359" lon="0.648769">
        <ele>2748</ele>
        <time>1970-01-01T02:01:13.000Z</time>
      </trkpt>
      <trkpt lat="42.657358" lon="0.648763">
        <ele>2748.2</ele>
        <time>1970-01-01T02:01:14.000Z</time>
      </trkpt>
      <trkpt lat="42.657357" lon="0.648754">
        <ele>2748.4</ele>
        <time>1970-01-01T02:01:16.000Z</time>
      </trkpt>
      <trkpt lat="42.657354" lon="0.648748">
        <ele>2748.6</ele>
        <time>1970-01-01T02:01:17.000Z</time>
      </trkpt>
      <trkpt lat="42.657352" lon="0.648742">
        <ele>2748.8</ele>
        <time>1970-01-01T02:01:18.000Z</time>
      </trkpt>
      <trkpt lat="42.657352" lon="0.648737">
        <ele>2748.9</ele>
        <time>1970-01-01T02:01:19.000Z</time>
      </trkpt>
      <trkpt lat="42.657352" lon="0.648732">
        <ele>2749</ele>
        <time>1970-01-01T02:01:20.000Z</time>
      </trkpt>
      <trkpt lat="42.657348" lon="0.648723">
        <ele>2749.3</ele>
        <time>1970-01-01T02:01:21.000Z</time>
      </trkpt>
      <trkpt lat="42.657343" lon="0.648713">
        <ele>2749.6</ele>
        <time>1970-01-01T02:01:23.000Z</time>
      </trkpt>
      <trkpt lat="42.657338" lon="0.648706">
        <ele>2749.8</ele>
        <time>1970-01-01T02:01:24.000Z</time>
      </trkpt>
      <trkpt lat="42.657331" lon="0.648696">
        <ele>2750.2</ele>
        <time>1970-01-01T02:01:25.000Z</time>
      </trkpt>
      <trkpt lat="42.657327" lon="0.648689">
        <ele>2750.4</ele>
        <time>1970-01-01T02:01:26.000Z</time>
      </trkpt>
      <trkpt lat="42.657321" lon="0.648675">
        <ele>2750.8</ele>
        <time>1970-01-01T02:01:28.000Z</time>
      </trkpt>
      <trkpt lat="42.657317" lon="0.648669">
        <ele>2751</ele>
        <time>1970-01-01T02:01:29.000Z</time>
      </trkpt>
      <trkpt lat="42.657312" lon="0.64866">
        <ele>2751.3</ele>
        <time>1970-01-01T02:01:31.000Z</time>
      </trkpt>
      <trkpt lat="42.657309" lon="0.648654">
        <ele>2751.5</ele>
        <time>1970-01-01T02:01:32.000Z</time>
      </trkpt>
      <trkpt lat="42.657304" lon="0.648647">
        <ele>2751.7</ele>
        <time>1970-01-01T02:01:33.000Z</time>
      </trkpt>
      <trkpt lat="42.6573" lon="0.648642">
        <ele>2751.9</ele>
        <time>1970-01-01T02:01:35.000Z</time>
      </trkpt>
      <trkpt lat="42.657295" lon="0.648638">
        <ele>2752.1</ele>
        <time>1970-01-01T02:01:36.000Z</time>
      </trkpt>
      <trkpt lat="42.657287" lon="0.648625">
        <ele>2752.5</ele>
        <time>1970-01-01T02:01:38.000Z</time>
      </trkpt>
      <trkpt lat="42.657287" lon="0.648619">
        <ele>2752.7</ele>
        <time>1970-01-01T02:01:39.000Z</time>
      </trkpt>
      <trkpt lat="42.657287" lon="0.648611">
        <ele>2752.9</ele>
        <time>1970-01-01T02:01:40.000Z</time>
      </trkpt>
      <trkpt lat="42.657289" lon="0.6486">
        <ele>2753.1</ele>
        <time>1970-01-01T02:01:42.000Z</time>
      </trkpt>
      <trkpt lat="42.657291" lon="0.648586">
        <ele>2753.5</ele>
        <time>1970-01-01T02:01:43.000Z</time>
      </trkpt>
      <trkpt lat="42.657292" lon="0.648572">
        <ele>2753.8</ele>
        <time>1970-01-01T02:01:45.000Z</time>
      </trkpt>
      <trkpt lat="42.657292" lon="0.648562">
        <ele>2754.1</ele>
        <time>1970-01-01T02:01:46.000Z</time>
      </trkpt>
      <trkpt lat="42.657292" lon="0.648552">
        <ele>2754.3</ele>
        <time>1970-01-01T02:01:47.000Z</time>
      </trkpt>
      <trkpt lat="42.657292" lon="0.648545">
        <ele>2754.5</ele>
        <time>1970-01-01T02:01:48.000Z</time>
      </trkpt>
      <trkpt lat="42.657291" lon="0.648541">
        <ele>2754.6</ele>
        <time>1970-01-01T02:01:49.000Z</time>
      </trkpt>
      <trkpt lat="42.657289" lon="0.648528">
        <ele>2755</ele>
        <time>1970-01-01T02:01:51.000Z</time>
      </trkpt>
      <trkpt lat="42.65729" lon="0.648524">
        <ele>2755.1</ele>
        <time>1970-01-01T02:01:52.000Z</time>
      </trkpt>
      <trkpt lat="42.657295" lon="0.648513">
        <ele>2755.4</ele>
        <time>1970-01-01T02:01:53.000Z</time>
      </trkpt>
      <trkpt lat="42.657302" lon="0.648503">
        <ele>2755.7</ele>
        <time>1970-01-01T02:01:55.000Z</time>
      </trkpt>
      <trkpt lat="42.657308" lon="0.648497">
        <ele>2756</ele>
        <time>1970-01-01T02:01:56.000Z</time>
      </trkpt>
      <trkpt lat="42.65731" lon="0.648487">
        <ele>2756.2</ele>
        <time>1970-01-01T02:01:57.000Z</time>
      </trkpt>
      <trkpt lat="42.657311" lon="0.648475">
        <ele>2756.5</ele>
        <time>1970-01-01T02:01:59.000Z</time>
      </trkpt>
      <trkpt lat="42.65731" lon="0.648465">
        <ele>2756.7</ele>
        <time>1970-01-01T02:02:00.000Z</time>
      </trkpt>
      <trkpt lat="42.657309" lon="0.648455">
        <ele>2757</ele>
        <time>1970-01-01T02:02:01.000Z</time>
      </trkpt>
      <trkpt lat="42.657302" lon="0.648446">
        <ele>2757.3</ele>
        <time>1970-01-01T02:02:02.000Z</time>
      </trkpt>
      <trkpt lat="42.657289" lon="0.648436">
        <ele>2757.8</ele>
        <time>1970-01-01T02:02:04.000Z</time>
      </trkpt>
      <trkpt lat="42.65728" lon="0.648427">
        <ele>2758.1</ele>
        <time>1970-01-01T02:02:05.000Z</time>
      </trkpt>
      <trkpt lat="42.657277" lon="0.648418">
        <ele>2758.4</ele>
        <time>1970-01-01T02:02:06.000Z</time>
      </trkpt>
      <trkpt lat="42.657275" lon="0.64841">
        <ele>2758.6</ele>
        <time>1970-01-01T02:02:07.000Z</time>
      </trkpt>
      <trkpt lat="42.657271" lon="0.648401">
        <ele>2758.8</ele>
        <time>1970-01-01T02:02:08.000Z</time>
      </trkpt>
      <trkpt lat="42.657267" lon="0.648392">
        <ele>2759.1</ele>
        <time>1970-01-01T02:02:09.000Z</time>
      </trkpt>
      <trkpt lat="42.65726" lon="0.648386">
        <ele>2759.4</ele>
        <time>1970-01-01T02:02:10.000Z</time>
      </trkpt>
      <trkpt lat="42.657254" lon="0.648382">
        <ele>2759.6</ele>
        <time>1970-01-01T02:02:11.000Z</time>
      </trkpt>
      <trkpt lat="42.657248" lon="0.648376">
        <ele>2759.8</ele>
        <time>1970-01-01T02:02:12.000Z</time>
      </trkpt>
      <trkpt lat="42.657242" lon="0.648363">
        <ele>2760.1</ele>
        <time>1970-01-01T02:02:13.000Z</time>
      </trkpt>
      <trkpt lat="42.657241" lon="0.648348">
        <ele>2760.5</ele>
        <time>1970-01-01T02:02:15.000Z</time>
      </trkpt>
      <trkpt lat="42.657241" lon="0.648332">
        <ele>2760.8</ele>
        <time>1970-01-01T02:02:16.000Z</time>
      </trkpt>
      <trkpt lat="42.657242" lon="0.648312">
        <ele>2761.2</ele>
        <time>1970-01-01T02:02:17.000Z</time>
      </trkpt>
      <trkpt lat="42.657242" lon="0.648297">
        <ele>2761.6</ele>
        <time>1970-01-01T02:02:19.000Z</time>
      </trkpt>
      <trkpt lat="42.65724" lon="0.648284">
        <ele>2761.9</ele>
        <time>1970-01-01T02:02:20.000Z</time>
      </trkpt>
      <trkpt lat="42.657235" lon="0.648267">
        <ele>2762.3</ele>
        <time>1970-01-01T02:02:21.000Z</time>
      </trkpt>
      <trkpt lat="42.65723" lon="0.648254">
        <ele>2762.6</ele>
        <time>1970-01-01T02:02:23.000Z</time>
      </trkpt>
      <trkpt lat="42.657223" lon="0.64824">
        <ele>2763</ele>
        <time>1970-01-01T02:02:24.000Z</time>
      </trkpt>
      <trkpt lat="42.657217" lon="0.648223">
        <ele>2763.4</ele>
        <time>1970-01-01T02:02:26.000Z</time>
      </trkpt>
      <trkpt lat="42.657212" lon="0.648214">
        <ele>2763.6</ele>
        <time>1970-01-01T02:02:27.000Z</time>
      </trkpt>
      <trkpt lat="42.657204" lon="0.648206">
        <ele>2763.9</ele>
        <time>1970-01-01T02:02:28.000Z</time>
      </trkpt>
      <trkpt lat="42.657193" lon="0.648197">
        <ele>2767.4</ele>
        <time>1970-01-01T02:02:29.000Z</time>
      </trkpt>
      <trkpt lat="42.657188" lon="0.648186">
        <ele>2767.5</ele>
        <time>1970-01-01T02:02:31.000Z</time>
      </trkpt>
      <trkpt lat="42.657187" lon="0.648175">
        <ele>2767.5</ele>
        <time>1970-01-01T02:02:32.000Z</time>
      </trkpt>
      <trkpt lat="42.657185" lon="0.648159">
        <ele>2767.6</ele>
        <time>1970-01-01T02:02:33.000Z</time>
      </trkpt>
      <trkpt lat="42.657181" lon="0.648145">
        <ele>2767.6</ele>
        <time>1970-01-01T02:02:34.000Z</time>
      </trkpt>
      <trkpt lat="42.657176" lon="0.648131">
        <ele>2767.7</ele>
        <time>1970-01-01T02:02:35.000Z</time>
      </trkpt>
      <trkpt lat="42.657168" lon="0.648116">
        <ele>2767.8</ele>
        <time>1970-01-01T02:02:37.000Z</time>
      </trkpt>
      <trkpt lat="42.657158" lon="0.6481">
        <ele>2767.8</ele>
        <time>1970-01-01T02:02:39.000Z</time>
      </trkpt>
      <trkpt lat="42.657147" lon="0.648081">
        <ele>2767.8</ele>
        <time>1970-01-01T02:02:40.000Z</time>
      </trkpt>
      <trkpt lat="42.657143" lon="0.648074">
        <ele>2767.9</ele>
        <time>1970-01-01T02:02:41.000Z</time>
      </trkpt>
      <trkpt lat="42.657139" lon="0.648068">
        <ele>2767.9</ele>
        <time>1970-01-01T02:02:42.000Z</time>
      </trkpt>
      <trkpt lat="42.657135" lon="0.648061">
        <ele>2767.9</ele>
        <time>1970-01-01T02:02:43.000Z</time>
      </trkpt>
      <trkpt lat="42.657126" lon="0.648054">
        <ele>2767.9</ele>
        <time>1970-01-01T02:02:44.000Z</time>
      </trkpt>
      <trkpt lat="42.657118" lon="0.648046">
        <ele>2767.9</ele>
        <time>1970-01-01T02:02:46.000Z</time>
      </trkpt>
      <trkpt lat="42.657107" lon="0.648038">
        <ele>2767.9</ele>
        <time>1970-01-01T02:02:47.000Z</time>
      </trkpt>
      <trkpt lat="42.657099" lon="0.648028">
        <ele>2767.9</ele>
        <time>1970-01-01T02:02:48.000Z</time>
      </trkpt>
      <trkpt lat="42.657088" lon="0.648019">
        <ele>2767.9</ele>
        <time>1970-01-01T02:02:50.000Z</time>
      </trkpt>
      <trkpt lat="42.657078" lon="0.64801">
        <ele>2767.9</ele>
        <time>1970-01-01T02:02:51.000Z</time>
      </trkpt>
      <trkpt lat="42.657068" lon="0.648">
        <ele>2767.9</ele>
        <time>1970-01-01T02:02:52.000Z</time>
      </trkpt>
      <trkpt lat="42.657061" lon="0.647996">
        <ele>2767.9</ele>
        <time>1970-01-01T02:02:53.000Z</time>
      </trkpt>
      <trkpt lat="42.657047" lon="0.647998">
        <ele>2767.9</ele>
        <time>1970-01-01T02:02:54.000Z</time>
      </trkpt>
      <trkpt lat="42.657034" lon="0.648004">
        <ele>2768</ele>
        <time>1970-01-01T02:02:56.000Z</time>
      </trkpt>
      <trkpt lat="42.657021" lon="0.648015">
        <ele>2768</ele>
        <time>1970-01-01T02:02:57.000Z</time>
      </trkpt>
      <trkpt lat="42.657013" lon="0.648021">
        <ele>2768.1</ele>
        <time>1970-01-01T02:02:58.000Z</time>
      </trkpt>
      <trkpt lat="42.657004" lon="0.648031">
        <ele>2768.1</ele>
        <time>1970-01-01T02:03:00.000Z</time>
      </trkpt>
      <trkpt lat="42.656999" lon="0.648039">
        <ele>2768.1</ele>
        <time>1970-01-01T02:03:01.000Z</time>
      </trkpt>
      <trkpt lat="42.656995" lon="0.648045">
        <ele>2768.2</ele>
        <time>1970-01-01T02:03:02.000Z</time>
      </trkpt>
      <trkpt lat="42.656988" lon="0.64805">
        <ele>2768.2</ele>
        <time>1970-01-01T02:03:04.000Z</time>
      </trkpt>
      <trkpt lat="42.65698" lon="0.648051">
        <ele>2768.3</ele>
        <time>1970-01-01T02:03:05.000Z</time>
      </trkpt>
      <trkpt lat="42.656974" lon="0.64805">
        <ele>2768.3</ele>
        <time>1970-01-01T02:03:06.000Z</time>
      </trkpt>
      <trkpt lat="42.656966" lon="0.648046">
        <ele>2768.4</ele>
        <time>1970-01-01T02:03:07.000Z</time>
      </trkpt>
      <trkpt lat="42.65696" lon="0.648042">
        <ele>2768.4</ele>
        <time>1970-01-01T02:03:08.000Z</time>
      </trkpt>
      <trkpt lat="42.656953" lon="0.648037">
        <ele>2768.5</ele>
        <time>1970-01-01T02:03:09.000Z</time>
      </trkpt>
      <trkpt lat="42.656946" lon="0.648032">
        <ele>2768.5</ele>
        <time>1970-01-01T02:03:10.000Z</time>
      </trkpt>
      <trkpt lat="42.656939" lon="0.648031">
        <ele>2768.6</ele>
        <time>1970-01-01T02:03:11.000Z</time>
      </trkpt>
      <trkpt lat="42.65693" lon="0.648033">
        <ele>2768.7</ele>
        <time>1970-01-01T02:03:12.000Z</time>
      </trkpt>
      <trkpt lat="42.656924" lon="0.648036">
        <ele>2768.8</ele>
        <time>1970-01-01T02:03:13.000Z</time>
      </trkpt>
      <trkpt lat="42.656915" lon="0.648039">
        <ele>2768.8</ele>
        <time>1970-01-01T02:03:15.000Z</time>
      </trkpt>
      <trkpt lat="42.656907" lon="0.648041">
        <ele>2768.9</ele>
        <time>1970-01-01T02:03:16.000Z</time>
      </trkpt>
      <trkpt lat="42.656899" lon="0.648043">
        <ele>2769</ele>
        <time>1970-01-01T02:03:18.000Z</time>
      </trkpt>
      <trkpt lat="42.656898" lon="0.648042">
        <ele>2769</ele>
        <time>1970-01-01T02:03:19.000Z</time>
      </trkpt>
      <trkpt lat="42.656897" lon="0.648042">
        <ele>2769</ele>
        <time>1970-01-01T02:03:20.000Z</time>
      </trkpt>
      <trkpt lat="42.656897" lon="0.648041">
        <ele>2769.1</ele>
        <time>1970-01-01T02:03:21.000Z</time>
      </trkpt>
      <trkpt lat="42.656897" lon="0.64804">
        <ele>2769.1</ele>
        <time>1970-01-01T02:03:22.000Z</time>
      </trkpt>
      <trkpt lat="42.656897" lon="0.64804">
        <ele>2769.1</ele>
        <time>1970-01-01T02:03:23.000Z</time>
      </trkpt>
      <trkpt lat="42.656897" lon="0.648038">
        <ele>2769.1</ele>
        <time>1970-01-01T02:03:24.000Z</time>
      </trkpt>
      <trkpt lat="42.656895" lon="0.648038">
        <ele>2769.1</ele>
        <time>1970-01-01T02:03:25.000Z</time>
      </trkpt>
      <trkpt lat="42.656895" lon="0.648037">
        <ele>2769.1</ele>
        <time>1970-01-01T02:03:26.000Z</time>
      </trkpt>
      <trkpt lat="42.656894" lon="0.648036">
        <ele>2769.1</ele>
        <time>1970-01-01T02:03:27.000Z</time>
      </trkpt>
      <trkpt lat="42.656894" lon="0.648035">
        <ele>2769.1</ele>
        <time>1970-01-01T02:03:28.000Z</time>
      </trkpt>
      <trkpt lat="42.656895" lon="0.648035">
        <ele>2769.1</ele>
        <time>1970-01-01T02:03:29.000Z</time>
      </trkpt>
      <trkpt lat="42.656893" lon="0.648034">
        <ele>2769.2</ele>
        <time>1970-01-01T02:03:30.000Z</time>
      </trkpt>
      <trkpt lat="42.656893" lon="0.648032">
        <ele>2769.2</ele>
        <time>1970-01-01T02:03:31.000Z</time>
      </trkpt>
      <trkpt lat="42.656893" lon="0.64803">
        <ele>2769.2</ele>
        <time>1970-01-01T02:03:32.000Z</time>
      </trkpt>
      <trkpt lat="42.656892" lon="0.648028">
        <ele>2769.2</ele>
        <time>1970-01-01T02:03:33.000Z</time>
      </trkpt>
      <trkpt lat="42.656891" lon="0.648027">
        <ele>2769.2</ele>
        <time>1970-01-01T02:03:34.000Z</time>
      </trkpt>
      <trkpt lat="42.65689" lon="0.648025">
        <ele>2769.3</ele>
        <time>1970-01-01T02:03:35.000Z</time>
      </trkpt>
      <trkpt lat="42.656887" lon="0.648024">
        <ele>2769.3</ele>
        <time>1970-01-01T02:03:36.000Z</time>
      </trkpt>
      <trkpt lat="42.656884" lon="0.648024">
        <ele>2769.3</ele>
        <time>1970-01-01T02:03:37.000Z</time>
      </trkpt>
      <trkpt lat="42.656882" lon="0.648024">
        <ele>2769.4</ele>
        <time>1970-01-01T02:03:38.000Z</time>
      </trkpt>
      <trkpt lat="42.656879" lon="0.648023">
        <ele>2769.4</ele>
        <time>1970-01-01T02:03:39.000Z</time>
      </trkpt>
      <trkpt lat="42.656877" lon="0.648023">
        <ele>2769.4</ele>
        <time>1970-01-01T02:03:40.000Z</time>
      </trkpt>
      <trkpt lat="42.656876" lon="0.648021">
        <ele>2769.4</ele>
        <time>1970-01-01T02:03:41.000Z</time>
      </trkpt>
      <trkpt lat="42.656876" lon="0.64802">
        <ele>2769.5</ele>
        <time>1970-01-01T02:03:42.000Z</time>
      </trkpt>
      <trkpt lat="42.656874" lon="0.648019">
        <ele>2769.5</ele>
        <time>1970-01-01T02:03:43.000Z</time>
      </trkpt>
      <trkpt lat="42.656873" lon="0.648017">
        <ele>2769.5</ele>
        <time>1970-01-01T02:03:44.000Z</time>
      </trkpt>
      <trkpt lat="42.656871" lon="0.648015">
        <ele>2769.5</ele>
        <time>1970-01-01T02:03:45.000Z</time>
      </trkpt>
      <trkpt lat="42.656867" lon="0.648012">
        <ele>2769.6</ele>
        <time>1970-01-01T02:03:47.000Z</time>
      </trkpt>
      <trkpt lat="42.656865" lon="0.64801">
        <ele>2769.6</ele>
        <time>1970-01-01T02:03:48.000Z</time>
      </trkpt>
      <trkpt lat="42.656862" lon="0.648007">
        <ele>2769.7</ele>
        <time>1970-01-01T02:03:49.000Z</time>
      </trkpt>
      <trkpt lat="42.656859" lon="0.648006">
        <ele>2769.7</ele>
        <time>1970-01-01T02:03:50.000Z</time>
      </trkpt>
      <trkpt lat="42.656856" lon="0.648003">
        <ele>2769.7</ele>
        <time>1970-01-01T02:03:52.000Z</time>
      </trkpt>
      <trkpt lat="42.656855" lon="0.648002">
        <ele>2769.8</ele>
        <time>1970-01-01T02:03:53.000Z</time>
      </trkpt>
      <trkpt lat="42.656854" lon="0.648001">
        <ele>2769.8</ele>
        <time>1970-01-01T02:03:54.000Z</time>
      </trkpt>
      <trkpt lat="42.656852" lon="0.648001">
        <ele>2769.8</ele>
        <time>1970-01-01T02:03:55.000Z</time>
      </trkpt>
      <trkpt lat="42.656849" lon="0.647999">
        <ele>2769.8</ele>
        <time>1970-01-01T02:03:56.000Z</time>
      </trkpt>
      <trkpt lat="42.656846" lon="0.647996">
        <ele>2769.9</ele>
        <time>1970-01-01T02:03:57.000Z</time>
      </trkpt>
      <trkpt lat="42.656842" lon="0.647991">
        <ele>2770</ele>
        <time>1970-01-01T02:03:58.000Z</time>
      </trkpt>
      <trkpt lat="42.656837" lon="0.647986">
        <ele>2770</ele>
        <time>1970-01-01T02:03:59.000Z</time>
      </trkpt>
      <trkpt lat="42.656833" lon="0.647982">
        <ele>2770.1</ele>
        <time>1970-01-01T02:04:00.000Z</time>
      </trkpt>
      <trkpt lat="42.656826" lon="0.647977">
        <ele>2770.2</ele>
        <time>1970-01-01T02:04:01.000Z</time>
      </trkpt>
      <trkpt lat="42.656816" lon="0.647974">
        <ele>2770.3</ele>
        <time>1970-01-01T02:04:03.000Z</time>
      </trkpt>
      <trkpt lat="42.656813" lon="0.647974">
        <ele>2770.4</ele>
        <time>1970-01-01T02:04:04.000Z</time>
      </trkpt>
      <trkpt lat="42.656809" lon="0.647974">
        <ele>2770.4</ele>
        <time>1970-01-01T02:04:05.000Z</time>
      </trkpt>
      <trkpt lat="42.656805" lon="0.647973">
        <ele>2770.5</ele>
        <time>1970-01-01T02:04:06.000Z</time>
      </trkpt>
      <trkpt lat="42.656802" lon="0.647973">
        <ele>2770.5</ele>
        <time>1970-01-01T02:04:07.000Z</time>
      </trkpt>
      <trkpt lat="42.656797" lon="0.647973">
        <ele>2770.6</ele>
        <time>1970-01-01T02:04:08.000Z</time>
      </trkpt>
      <trkpt lat="42.656793" lon="0.647972">
        <ele>2770.6</ele>
        <time>1970-01-01T02:04:09.000Z</time>
      </trkpt>
      <trkpt lat="42.656789" lon="0.64797">
        <ele>2770.7</ele>
        <time>1970-01-01T02:04:10.000Z</time>
      </trkpt>
      <trkpt lat="42.656784" lon="0.647968">
        <ele>2770.7</ele>
        <time>1970-01-01T02:04:11.000Z</time>
      </trkpt>
      <trkpt lat="42.65678" lon="0.647965">
        <ele>2770.8</ele>
        <time>1970-01-01T02:04:12.000Z</time>
      </trkpt>
      <trkpt lat="42.656775" lon="0.647961">
        <ele>2770.9</ele>
        <time>1970-01-01T02:04:13.000Z</time>
      </trkpt>
      <trkpt lat="42.656768" lon="0.647958">
        <ele>2770.9</ele>
        <time>1970-01-01T02:04:15.000Z</time>
      </trkpt>
      <trkpt lat="42.656763" lon="0.647957">
        <ele>2771</ele>
        <time>1970-01-01T02:04:16.000Z</time>
      </trkpt>
      <trkpt lat="42.656756" lon="0.647956">
        <ele>2771.1</ele>
        <time>1970-01-01T02:04:17.000Z</time>
      </trkpt>
      <trkpt lat="42.656752" lon="0.647955">
        <ele>2771.1</ele>
        <time>1970-01-01T02:04:18.000Z</time>
      </trkpt>
      <trkpt lat="42.656748" lon="0.647953">
        <ele>2771.2</ele>
        <time>1970-01-01T02:04:19.000Z</time>
      </trkpt>
      <trkpt lat="42.656743" lon="0.647948">
        <ele>2771.2</ele>
        <time>1970-01-01T02:04:20.000Z</time>
      </trkpt>
      <trkpt lat="42.65674" lon="0.647944">
        <ele>2771.3</ele>
        <time>1970-01-01T02:04:21.000Z</time>
      </trkpt>
      <trkpt lat="42.656731" lon="0.647938">
        <ele>2771.4</ele>
        <time>1970-01-01T02:04:23.000Z</time>
      </trkpt>
      <trkpt lat="42.656726" lon="0.647935">
        <ele>2771.5</ele>
        <time>1970-01-01T02:04:24.000Z</time>
      </trkpt>
      <trkpt lat="42.656721" lon="0.64793">
        <ele>2771.5</ele>
        <time>1970-01-01T02:04:25.000Z</time>
      </trkpt>
      <trkpt lat="42.656716" lon="0.647925">
        <ele>2771.6</ele>
        <time>1970-01-01T02:04:26.000Z</time>
      </trkpt>
      <trkpt lat="42.656713" lon="0.64792">
        <ele>2771.7</ele>
        <time>1970-01-01T02:04:27.000Z</time>
      </trkpt>
      <trkpt lat="42.656711" lon="0.647915">
        <ele>2771.7</ele>
        <time>1970-01-01T02:04:28.000Z</time>
      </trkpt>
      <trkpt lat="42.656707" lon="0.647909">
        <ele>2771.8</ele>
        <time>1970-01-01T02:04:30.000Z</time>
      </trkpt>
      <trkpt lat="42.656702" lon="0.647904">
        <ele>2771.8</ele>
        <time>1970-01-01T02:04:31.000Z</time>
      </trkpt>
      <trkpt lat="42.656696" lon="0.647894">
        <ele>2771.9</ele>
        <time>1970-01-01T02:04:33.000Z</time>
      </trkpt>
      <trkpt lat="42.656692" lon="0.647889">
        <ele>2772</ele>
        <time>1970-01-01T02:04:34.000Z</time>
      </trkpt>
      <trkpt lat="42.656687" lon="0.647888">
        <ele>2772.1</ele>
        <time>1970-01-01T02:04:35.000Z</time>
      </trkpt>
      <trkpt lat="42.656681" lon="0.647888">
        <ele>2772.1</ele>
        <time>1970-01-01T02:04:36.000Z</time>
      </trkpt>
      <trkpt lat="42.656675" lon="0.647885">
        <ele>2772.2</ele>
        <time>1970-01-01T02:04:37.000Z</time>
      </trkpt>
      <trkpt lat="42.656672" lon="0.647882">
        <ele>2772.2</ele>
        <time>1970-01-01T02:04:38.000Z</time>
      </trkpt>
      <trkpt lat="42.656669" lon="0.647877">
        <ele>2772.3</ele>
        <time>1970-01-01T02:04:39.000Z</time>
      </trkpt>
      <trkpt lat="42.656665" lon="0.647869">
        <ele>2772.4</ele>
        <time>1970-01-01T02:04:40.000Z</time>
      </trkpt>
      <trkpt lat="42.656654" lon="0.647856">
        <ele>2772.5</ele>
        <time>1970-01-01T02:04:42.000Z</time>
      </trkpt>
      <trkpt lat="42.656652" lon="0.647854">
        <ele>2772.6</ele>
        <time>1970-01-01T02:04:43.000Z</time>
      </trkpt>
      <trkpt lat="42.656652" lon="0.647853">
        <ele>2772.6</ele>
        <time>1970-01-01T02:04:44.000Z</time>
      </trkpt>
      <trkpt lat="42.656652" lon="0.647852">
        <ele>2772.6</ele>
        <time>1970-01-01T02:04:45.000Z</time>
      </trkpt>
      <trkpt lat="42.656652" lon="0.647852">
        <ele>2772.6</ele>
        <time>1970-01-01T02:04:46.000Z</time>
      </trkpt>
      <trkpt lat="42.656652" lon="0.647852">
        <ele>2772.6</ele>
        <time>1970-01-01T02:04:47.000Z</time>
      </trkpt>
      <trkpt lat="42.656653" lon="0.647851">
        <ele>2772.6</ele>
        <time>1970-01-01T02:04:48.000Z</time>
      </trkpt>
      <trkpt lat="42.656653" lon="0.64785">
        <ele>2772.6</ele>
        <time>1970-01-01T02:04:49.000Z</time>
      </trkpt>
      <trkpt lat="42.656654" lon="0.647849">
        <ele>2772.6</ele>
        <time>1970-01-01T02:04:50.000Z</time>
      </trkpt>
      <trkpt lat="42.656654" lon="0.647848">
        <ele>2772.6</ele>
        <time>1970-01-01T02:04:51.000Z</time>
      </trkpt>
      <trkpt lat="42.656654" lon="0.647848">
        <ele>2772.6</ele>
        <time>1970-01-01T02:04:53.000Z</time>
      </trkpt>
      <trkpt lat="42.656652" lon="0.647847">
        <ele>2772.7</ele>
        <time>1970-01-01T02:04:54.000Z</time>
      </trkpt>
      <trkpt lat="42.656651" lon="0.647846">
        <ele>2772.7</ele>
        <time>1970-01-01T02:04:55.000Z</time>
      </trkpt>
      <trkpt lat="42.656651" lon="0.647845">
        <ele>2772.7</ele>
        <time>1970-01-01T02:04:56.000Z</time>
      </trkpt>
      <trkpt lat="42.656651" lon="0.647844">
        <ele>2772.7</ele>
        <time>1970-01-01T02:04:57.000Z</time>
      </trkpt>
      <trkpt lat="42.656651" lon="0.647843">
        <ele>2772.7</ele>
        <time>1970-01-01T02:04:58.000Z</time>
      </trkpt>
      <trkpt lat="42.656651" lon="0.647843">
        <ele>2772.7</ele>
        <time>1970-01-01T02:04:59.000Z</time>
      </trkpt>
      <trkpt lat="42.65665" lon="0.647843">
        <ele>2772.7</ele>
        <time>1970-01-01T02:05:00.000Z</time>
      </trkpt>
      <trkpt lat="42.65665" lon="0.647843">
        <ele>2772.7</ele>
        <time>1970-01-01T02:05:01.000Z</time>
      </trkpt>
      <trkpt lat="42.65665" lon="0.647842">
        <ele>2772.7</ele>
        <time>1970-01-01T02:05:02.000Z</time>
      </trkpt>
      <trkpt lat="42.65665" lon="0.647843">
        <ele>2772.7</ele>
        <time>1970-01-01T02:05:03.000Z</time>
      </trkpt>
      <trkpt lat="42.656651" lon="0.647842">
        <ele>2772.8</ele>
        <time>1970-01-01T02:05:04.000Z</time>
      </trkpt>
      <trkpt lat="42.656651" lon="0.647842">
        <ele>2772.8</ele>
        <time>1970-01-01T02:05:05.000Z</time>
      </trkpt>
      <trkpt lat="42.656649" lon="0.647842">
        <ele>2772.8</ele>
        <time>1970-01-01T02:05:06.000Z</time>
      </trkpt>
      <trkpt lat="42.656647" lon="0.647841">
        <ele>2772.8</ele>
        <time>1970-01-01T02:05:07.000Z</time>
      </trkpt>
      <trkpt lat="42.656643" lon="0.64784">
        <ele>2772.9</ele>
        <time>1970-01-01T02:05:08.000Z</time>
      </trkpt>
      <trkpt lat="42.656636" lon="0.647836">
        <ele>2773</ele>
        <time>1970-01-01T02:05:10.000Z</time>
      </trkpt>
      <trkpt lat="42.656633" lon="0.647834">
        <ele>2773</ele>
        <time>1970-01-01T02:05:11.000Z</time>
      </trkpt>
      <trkpt lat="42.656632" lon="0.647833">
        <ele>2773</ele>
        <time>1970-01-01T02:05:12.000Z</time>
      </trkpt>
      <trkpt lat="42.656631" lon="0.647832">
        <ele>2773</ele>
        <time>1970-01-01T02:05:13.000Z</time>
      </trkpt>
      <trkpt lat="42.65663" lon="0.64783">
        <ele>2773.1</ele>
        <time>1970-01-01T02:05:15.000Z</time>
      </trkpt>
      <trkpt lat="42.65663" lon="0.647829">
        <ele>2773.1</ele>
        <time>1970-01-01T02:05:16.000Z</time>
      </trkpt>
      <trkpt lat="42.65663" lon="0.647829">
        <ele>2773.1</ele>
        <time>1970-01-01T02:05:17.000Z</time>
      </trkpt>
      <trkpt lat="42.656631" lon="0.647828">
        <ele>2773.1</ele>
        <time>1970-01-01T02:05:18.000Z</time>
      </trkpt>
      <trkpt lat="42.656631" lon="0.647827">
        <ele>2773.1</ele>
        <time>1970-01-01T02:05:19.000Z</time>
      </trkpt>
      <trkpt lat="42.656631" lon="0.647825">
        <ele>2773.1</ele>
        <time>1970-01-01T02:05:20.000Z</time>
      </trkpt>
      <trkpt lat="42.65663" lon="0.647823">
        <ele>2773.1</ele>
        <time>1970-01-01T02:05:21.000Z</time>
      </trkpt>
      <trkpt lat="42.65663" lon="0.647822">
        <ele>2773.1</ele>
        <time>1970-01-01T02:05:22.000Z</time>
      </trkpt>
      <trkpt lat="42.656629" lon="0.64782">
        <ele>2773.2</ele>
        <time>1970-01-01T02:05:23.000Z</time>
      </trkpt>
      <trkpt lat="42.656628" lon="0.647817">
        <ele>2773.2</ele>
        <time>1970-01-01T02:05:24.000Z</time>
      </trkpt>
      <trkpt lat="42.656625" lon="0.647812">
        <ele>2773.3</ele>
        <time>1970-01-01T02:05:26.000Z</time>
      </trkpt>
      <trkpt lat="42.656624" lon="0.647808">
        <ele>2773.3</ele>
        <time>1970-01-01T02:05:27.000Z</time>
      </trkpt>
      <trkpt lat="42.656622" lon="0.647804">
        <ele>2773.3</ele>
        <time>1970-01-01T02:05:28.000Z</time>
      </trkpt>
      <trkpt lat="42.656621" lon="0.6478">
        <ele>2773.4</ele>
        <time>1970-01-01T02:05:29.000Z</time>
      </trkpt>
      <trkpt lat="42.65662" lon="0.647796">
        <ele>2773.4</ele>
        <time>1970-01-01T02:05:30.000Z</time>
      </trkpt>
      <trkpt lat="42.656619" lon="0.647792">
        <ele>2773.5</ele>
        <time>1970-01-01T02:05:31.000Z</time>
      </trkpt>
      <trkpt lat="42.656617" lon="0.647788">
        <ele>2773.5</ele>
        <time>1970-01-01T02:05:32.000Z</time>
      </trkpt>
      <trkpt lat="42.656615" lon="0.647785">
        <ele>2773.6</ele>
        <time>1970-01-01T02:05:33.000Z</time>
      </trkpt>
      <trkpt lat="42.656608" lon="0.647782">
        <ele>2773.7</ele>
        <time>1970-01-01T02:05:34.000Z</time>
      </trkpt>
      <trkpt lat="42.656598" lon="0.647782">
        <ele>2773.8</ele>
        <time>1970-01-01T02:05:36.000Z</time>
      </trkpt>
      <trkpt lat="42.65659" lon="0.647776">
        <ele>2773.9</ele>
        <time>1970-01-01T02:05:37.000Z</time>
      </trkpt>
      <trkpt lat="42.656585" lon="0.647769">
        <ele>2774</ele>
        <time>1970-01-01T02:05:38.000Z</time>
      </trkpt>
      <trkpt lat="42.65658" lon="0.647746">
        <ele>2774.3</ele>
        <time>1970-01-01T02:05:39.000Z</time>
      </trkpt>
      <trkpt lat="42.656578" lon="0.647727">
        <ele>2774.5</ele>
        <time>1970-01-01T02:05:41.000Z</time>
      </trkpt>
      <trkpt lat="42.656576" lon="0.647709">
        <ele>2774.7</ele>
        <time>1970-01-01T02:05:42.000Z</time>
      </trkpt>
      <trkpt lat="42.656575" lon="0.647693">
        <ele>2774.9</ele>
        <time>1970-01-01T02:05:43.000Z</time>
      </trkpt>
      <trkpt lat="42.656574" lon="0.647681">
        <ele>2775.1</ele>
        <time>1970-01-01T02:05:44.000Z</time>
      </trkpt>
      <trkpt lat="42.656566" lon="0.647663">
        <ele>2775.3</ele>
        <time>1970-01-01T02:05:45.000Z</time>
      </trkpt>
      <trkpt lat="42.656562" lon="0.647655">
        <ele>2775.4</ele>
        <time>1970-01-01T02:05:47.000Z</time>
      </trkpt>
      <trkpt lat="42.656558" lon="0.647647">
        <ele>2775.6</ele>
        <time>1970-01-01T02:05:48.000Z</time>
      </trkpt>
      <trkpt lat="42.656554" lon="0.647639">
        <ele>2775.7</ele>
        <time>1970-01-01T02:05:49.000Z</time>
      </trkpt>
      <trkpt lat="42.656551" lon="0.647629">
        <ele>2775.8</ele>
        <time>1970-01-01T02:05:50.000Z</time>
      </trkpt>
      <trkpt lat="42.656549" lon="0.647624">
        <ele>2775.9</ele>
        <time>1970-01-01T02:05:51.000Z</time>
      </trkpt>
      <trkpt lat="42.656547" lon="0.647618">
        <ele>2776</ele>
        <time>1970-01-01T02:05:52.000Z</time>
      </trkpt>
      <trkpt lat="42.656543" lon="0.647612">
        <ele>2776.1</ele>
        <time>1970-01-01T02:05:54.000Z</time>
      </trkpt>
      <trkpt lat="42.656535" lon="0.647602">
        <ele>2776.3</ele>
        <time>1970-01-01T02:05:56.000Z</time>
      </trkpt>
      <trkpt lat="42.656531" lon="0.647594">
        <ele>2776.5</ele>
        <time>1970-01-01T02:05:57.000Z</time>
      </trkpt>
      <trkpt lat="42.656528" lon="0.647588">
        <ele>2776.6</ele>
        <time>1970-01-01T02:05:58.000Z</time>
      </trkpt>
      <trkpt lat="42.656528" lon="0.647587">
        <ele>2776.6</ele>
        <time>1970-01-01T02:05:59.000Z</time>
      </trkpt>
      <trkpt lat="42.656528" lon="0.647585">
        <ele>2776.6</ele>
        <time>1970-01-01T02:06:00.000Z</time>
      </trkpt>
      <trkpt lat="42.656529" lon="0.647582">
        <ele>2776.6</ele>
        <time>1970-01-01T02:06:01.000Z</time>
      </trkpt>
      <trkpt lat="42.65653" lon="0.647575">
        <ele>2776.8</ele>
        <time>1970-01-01T02:06:03.000Z</time>
      </trkpt>
      <trkpt lat="42.656533" lon="0.647564">
        <ele>2776.9</ele>
        <time>1970-01-01T02:06:05.000Z</time>
      </trkpt>
      <trkpt lat="42.656531" lon="0.647555">
        <ele>2777.1</ele>
        <time>1970-01-01T02:06:06.000Z</time>
      </trkpt>
      <trkpt lat="42.656527" lon="0.647546">
        <ele>2777.2</ele>
        <time>1970-01-01T02:06:07.000Z</time>
      </trkpt>
      <trkpt lat="42.656524" lon="0.647538">
        <ele>2777.3</ele>
        <time>1970-01-01T02:06:08.000Z</time>
      </trkpt>
      <trkpt lat="42.656523" lon="0.647532">
        <ele>2777.4</ele>
        <time>1970-01-01T02:06:09.000Z</time>
      </trkpt>
      <trkpt lat="42.656524" lon="0.64752">
        <ele>2777.6</ele>
        <time>1970-01-01T02:06:11.000Z</time>
      </trkpt>
      <trkpt lat="42.656527" lon="0.647513">
        <ele>2777.7</ele>
        <time>1970-01-01T02:06:12.000Z</time>
      </trkpt>
      <trkpt lat="42.656531" lon="0.647504">
        <ele>2777.9</ele>
        <time>1970-01-01T02:06:13.000Z</time>
      </trkpt>
      <trkpt lat="42.656536" lon="0.647497">
        <ele>2778.1</ele>
        <time>1970-01-01T02:06:14.000Z</time>
      </trkpt>
      <trkpt lat="42.656541" lon="0.647492">
        <ele>2778.2</ele>
        <time>1970-01-01T02:06:15.000Z</time>
      </trkpt>
      <trkpt lat="42.656544" lon="0.647485">
        <ele>2778.3</ele>
        <time>1970-01-01T02:06:16.000Z</time>
      </trkpt>
      <trkpt lat="42.656545" lon="0.64747">
        <ele>2778.6</ele>
        <time>1970-01-01T02:06:17.000Z</time>
      </trkpt>
      <trkpt lat="42.656545" lon="0.64746">
        <ele>2778.7</ele>
        <time>1970-01-01T02:06:18.000Z</time>
      </trkpt>
      <trkpt lat="42.656546" lon="0.647457">
        <ele>2778.8</ele>
        <time>1970-01-01T02:06:19.000Z</time>
      </trkpt>
      <trkpt lat="42.656546" lon="0.647456">
        <ele>2778.8</ele>
        <time>1970-01-01T02:06:20.000Z</time>
      </trkpt>
      <trkpt lat="42.656546" lon="0.647458">
        <ele>2778.8</ele>
        <time>1970-01-01T02:06:21.000Z</time>
      </trkpt>
      <trkpt lat="42.656546" lon="0.647464">
        <ele>2778.9</ele>
        <time>1970-01-01T02:06:22.000Z</time>
      </trkpt>
      <trkpt lat="42.656546" lon="0.647466">
        <ele>2779</ele>
        <time>1970-01-01T02:06:23.000Z</time>
      </trkpt>
      <trkpt lat="42.656542" lon="0.647469">
        <ele>2779.1</ele>
        <time>1970-01-01T02:06:25.000Z</time>
      </trkpt>
      <trkpt lat="42.656537" lon="0.647469">
        <ele>2779.2</ele>
        <time>1970-01-01T02:06:26.000Z</time>
      </trkpt>
      <trkpt lat="42.656527" lon="0.647466">
        <ele>2779.4</ele>
        <time>1970-01-01T02:06:27.000Z</time>
      </trkpt>
      <trkpt lat="42.656523" lon="0.64746">
        <ele>2779.5</ele>
        <time>1970-01-01T02:06:28.000Z</time>
      </trkpt>
      <trkpt lat="42.65652" lon="0.647451">
        <ele>2779.7</ele>
        <time>1970-01-01T02:06:29.000Z</time>
      </trkpt>
      <trkpt lat="42.656516" lon="0.647438">
        <ele>2780</ele>
        <time>1970-01-01T02:06:31.000Z</time>
      </trkpt>
      <trkpt lat="42.656515" lon="0.647437">
        <ele>2780</ele>
        <time>1970-01-01T02:06:32.000Z</time>
      </trkpt>
      <trkpt lat="42.656515" lon="0.647438">
        <ele>2780</ele>
        <time>1970-01-01T02:06:33.000Z</time>
      </trkpt>
      <trkpt lat="42.656515" lon="0.647438">
        <ele>2780</ele>
        <time>1970-01-01T02:06:34.000Z</time>
      </trkpt>
      <trkpt lat="42.656515" lon="0.647438">
        <ele>2780</ele>
        <time>1970-01-01T02:06:35.000Z</time>
      </trkpt>
      <trkpt lat="42.656515" lon="0.647438">
        <ele>2780</ele>
        <time>1970-01-01T02:06:36.000Z</time>
      </trkpt>
      <trkpt lat="42.656515" lon="0.647437">
        <ele>2780</ele>
        <time>1970-01-01T02:06:37.000Z</time>
      </trkpt>
      <trkpt lat="42.656515" lon="0.647436">
        <ele>2780.1</ele>
        <time>1970-01-01T02:06:38.000Z</time>
      </trkpt>
      <trkpt lat="42.656514" lon="0.647434">
        <ele>2780.1</ele>
        <time>1970-01-01T02:06:39.000Z</time>
      </trkpt>
      <trkpt lat="42.656511" lon="0.647431">
        <ele>2780.2</ele>
        <time>1970-01-01T02:06:40.000Z</time>
      </trkpt>
      <trkpt lat="42.656509" lon="0.647431">
        <ele>2780.2</ele>
        <time>1970-01-01T02:06:41.000Z</time>
      </trkpt>
      <trkpt lat="42.656508" lon="0.647432">
        <ele>2780.3</ele>
        <time>1970-01-01T02:06:42.000Z</time>
      </trkpt>
      <trkpt lat="42.656507" lon="0.647433">
        <ele>2780.3</ele>
        <time>1970-01-01T02:06:43.000Z</time>
      </trkpt>
      <trkpt lat="42.656506" lon="0.647434">
        <ele>2780.3</ele>
        <time>1970-01-01T02:06:45.000Z</time>
      </trkpt>
      <trkpt lat="42.656503" lon="0.647434">
        <ele>2780.4</ele>
        <time>1970-01-01T02:06:46.000Z</time>
      </trkpt>
      <trkpt lat="42.656501" lon="0.647434">
        <ele>2780.5</ele>
        <time>1970-01-01T02:06:47.000Z</time>
      </trkpt>
      <trkpt lat="42.656494" lon="0.647433">
        <ele>2780.6</ele>
        <time>1970-01-01T02:06:49.000Z</time>
      </trkpt>
      <trkpt lat="42.656489" lon="0.647429">
        <ele>2780.8</ele>
        <time>1970-01-01T02:06:50.000Z</time>
      </trkpt>
      <trkpt lat="42.656486" lon="0.647427">
        <ele>2780.9</ele>
        <time>1970-01-01T02:06:51.000Z</time>
      </trkpt>
      <trkpt lat="42.656483" lon="0.647427">
        <ele>2780.9</ele>
        <time>1970-01-01T02:06:52.000Z</time>
      </trkpt>
      <trkpt lat="42.656472" lon="0.64742">
        <ele>2781.3</ele>
        <time>1970-01-01T02:06:53.000Z</time>
      </trkpt>
      <trkpt lat="42.656465" lon="0.647418">
        <ele>2781.5</ele>
        <time>1970-01-01T02:06:54.000Z</time>
      </trkpt>
      <trkpt lat="42.656462" lon="0.647416">
        <ele>2781.6</ele>
        <time>1970-01-01T02:06:55.000Z</time>
      </trkpt>
      <trkpt lat="42.656461" lon="0.647416">
        <ele>2781.6</ele>
        <time>1970-01-01T02:06:56.000Z</time>
      </trkpt>
      <trkpt lat="42.65646" lon="0.647416">
        <ele>2781.6</ele>
        <time>1970-01-01T02:06:57.000Z</time>
      </trkpt>
      <trkpt lat="42.656458" lon="0.647416">
        <ele>2781.7</ele>
        <time>1970-01-01T02:06:58.000Z</time>
      </trkpt>
      <trkpt lat="42.656455" lon="0.647416">
        <ele>2781.8</ele>
        <time>1970-01-01T02:06:59.000Z</time>
      </trkpt>
      <trkpt lat="42.656452" lon="0.647416">
        <ele>2781.9</ele>
        <time>1970-01-01T02:07:00.000Z</time>
      </trkpt>
      <trkpt lat="42.65645" lon="0.647417">
        <ele>2781.9</ele>
        <time>1970-01-01T02:07:01.000Z</time>
      </trkpt>
      <trkpt lat="42.656447" lon="0.647417">
        <ele>2782</ele>
        <time>1970-01-01T02:07:02.000Z</time>
      </trkpt>
      <trkpt lat="42.65644" lon="0.647415">
        <ele>2782.2</ele>
        <time>1970-01-01T02:07:03.000Z</time>
      </trkpt>
      <trkpt lat="42.656431" lon="0.647409">
        <ele>2782.5</ele>
        <time>1970-01-01T02:07:05.000Z</time>
      </trkpt>
      <trkpt lat="42.656426" lon="0.64741">
        <ele>2782.6</ele>
        <time>1970-01-01T02:07:06.000Z</time>
      </trkpt>
      <trkpt lat="42.656421" lon="0.647414">
        <ele>2782.8</ele>
        <time>1970-01-01T02:07:07.000Z</time>
      </trkpt>
      <trkpt lat="42.656419" lon="0.647417">
        <ele>2782.9</ele>
        <time>1970-01-01T02:07:08.000Z</time>
      </trkpt>
      <trkpt lat="42.656416" lon="0.647419">
        <ele>2783</ele>
        <time>1970-01-01T02:07:09.000Z</time>
      </trkpt>
      <trkpt lat="42.656414" lon="0.647421">
        <ele>2783.1</ele>
        <time>1970-01-01T02:07:10.000Z</time>
      </trkpt>
      <trkpt lat="42.65641" lon="0.647422">
        <ele>2783.2</ele>
        <time>1970-01-01T02:07:11.000Z</time>
      </trkpt>
      <trkpt lat="42.656406" lon="0.647419">
        <ele>2783.3</ele>
        <time>1970-01-01T02:07:13.000Z</time>
      </trkpt>
      <trkpt lat="42.656402" lon="0.647417">
        <ele>2783.5</ele>
        <time>1970-01-01T02:07:14.000Z</time>
      </trkpt>
      <trkpt lat="42.656399" lon="0.647416">
        <ele>2783.6</ele>
        <time>1970-01-01T02:07:15.000Z</time>
      </trkpt>
      <trkpt lat="42.656398" lon="0.647415">
        <ele>2783.6</ele>
        <time>1970-01-01T02:07:16.000Z</time>
      </trkpt>
      <trkpt lat="42.656398" lon="0.647412">
        <ele>2783.7</ele>
        <time>1970-01-01T02:07:17.000Z</time>
      </trkpt>
      <trkpt lat="42.6564" lon="0.647409">
        <ele>2783.8</ele>
        <time>1970-01-01T02:07:18.000Z</time>
      </trkpt>
      <trkpt lat="42.6564" lon="0.647401">
        <ele>2783.9</ele>
        <time>1970-01-01T02:07:20.000Z</time>
      </trkpt>
      <trkpt lat="42.6564" lon="0.6474">
        <ele>2784</ele>
        <time>1970-01-01T02:07:21.000Z</time>
      </trkpt>
      <trkpt lat="42.656398" lon="0.647399">
        <ele>2784</ele>
        <time>1970-01-01T02:07:22.000Z</time>
      </trkpt>
      <trkpt lat="42.656397" lon="0.647397">
        <ele>2784.1</ele>
        <time>1970-01-01T02:07:23.000Z</time>
      </trkpt>
      <trkpt lat="42.656394" lon="0.647394">
        <ele>2784.2</ele>
        <time>1970-01-01T02:07:25.000Z</time>
      </trkpt>
      <trkpt lat="42.656392" lon="0.647392">
        <ele>2784.3</ele>
        <time>1970-01-01T02:07:26.000Z</time>
      </trkpt>
      <trkpt lat="42.65639" lon="0.64739">
        <ele>2784.4</ele>
        <time>1970-01-01T02:07:28.000Z</time>
      </trkpt>
      <trkpt lat="42.656386" lon="0.647389">
        <ele>2784.5</ele>
        <time>1970-01-01T02:07:29.000Z</time>
      </trkpt>
      <trkpt lat="42.656382" lon="0.647389">
        <ele>2784.6</ele>
        <time>1970-01-01T02:07:30.000Z</time>
      </trkpt>
      <trkpt lat="42.656379" lon="0.647388">
        <ele>2784.7</ele>
        <time>1970-01-01T02:07:31.000Z</time>
      </trkpt>
      <trkpt lat="42.656377" lon="0.647383">
        <ele>2784.9</ele>
        <time>1970-01-01T02:07:32.000Z</time>
      </trkpt>
      <trkpt lat="42.656375" lon="0.647377">
        <ele>2785</ele>
        <time>1970-01-01T02:07:33.000Z</time>
      </trkpt>
      <trkpt lat="42.656376" lon="0.647374">
        <ele>2785.1</ele>
        <time>1970-01-01T02:07:34.000Z</time>
      </trkpt>
      <trkpt lat="42.656377" lon="0.647371">
        <ele>2785.2</ele>
        <time>1970-01-01T02:07:35.000Z</time>
      </trkpt>
      <trkpt lat="42.656377" lon="0.647368">
        <ele>2785.2</ele>
        <time>1970-01-01T02:07:36.000Z</time>
      </trkpt>
      <trkpt lat="42.656378" lon="0.64736">
        <ele>2785.4</ele>
        <time>1970-01-01T02:07:37.000Z</time>
      </trkpt>
      <trkpt lat="42.656377" lon="0.647351">
        <ele>2785.6</ele>
        <time>1970-01-01T02:07:38.000Z</time>
      </trkpt>
      <trkpt lat="42.656373" lon="0.647342">
        <ele>2785.9</ele>
        <time>1970-01-01T02:07:39.000Z</time>
      </trkpt>
      <trkpt lat="42.656364" lon="0.647333">
        <ele>2786.2</ele>
        <time>1970-01-01T02:07:41.000Z</time>
      </trkpt>
      <trkpt lat="42.656357" lon="0.647331">
        <ele>2786.5</ele>
        <time>1970-01-01T02:07:42.000Z</time>
      </trkpt>
      <trkpt lat="42.656351" lon="0.647329">
        <ele>2786.6</ele>
        <time>1970-01-01T02:07:43.000Z</time>
      </trkpt>
      <trkpt lat="42.656338" lon="0.647318">
        <ele>2787.1</ele>
        <time>1970-01-01T02:07:45.000Z</time>
      </trkpt>
      <trkpt lat="42.656333" lon="0.647311">
        <ele>2787.4</ele>
        <time>1970-01-01T02:07:46.000Z</time>
      </trkpt>
      <trkpt lat="42.656327" lon="0.647304">
        <ele>2787.6</ele>
        <time>1970-01-01T02:07:47.000Z</time>
      </trkpt>
      <trkpt lat="42.656325" lon="0.647301">
        <ele>2787.7</ele>
        <time>1970-01-01T02:07:48.000Z</time>
      </trkpt>
      <trkpt lat="42.656326" lon="0.647299">
        <ele>2787.7</ele>
        <time>1970-01-01T02:07:49.000Z</time>
      </trkpt>
      <trkpt lat="42.656328" lon="0.647298">
        <ele>2787.8</ele>
        <time>1970-01-01T02:07:50.000Z</time>
      </trkpt>
      <trkpt lat="42.656329" lon="0.647297">
        <ele>2787.8</ele>
        <time>1970-01-01T02:07:51.000Z</time>
      </trkpt>
      <trkpt lat="42.656332" lon="0.647295">
        <ele>2787.9</ele>
        <time>1970-01-01T02:07:53.000Z</time>
      </trkpt>
      <trkpt lat="42.656332" lon="0.647292">
        <ele>2788</ele>
        <time>1970-01-01T02:07:54.000Z</time>
      </trkpt>
      <trkpt lat="42.656331" lon="0.647291">
        <ele>2788</ele>
        <time>1970-01-01T02:07:55.000Z</time>
      </trkpt>
      <trkpt lat="42.656329" lon="0.647292">
        <ele>2788.1</ele>
        <time>1970-01-01T02:07:56.000Z</time>
      </trkpt>
      <trkpt lat="42.656328" lon="0.647292">
        <ele>2788.1</ele>
        <time>1970-01-01T02:07:57.000Z</time>
      </trkpt>
      <trkpt lat="42.656327" lon="0.647292">
        <ele>2788.2</ele>
        <time>1970-01-01T02:07:58.000Z</time>
      </trkpt>
      <trkpt lat="42.656325" lon="0.647289">
        <ele>2788.3</ele>
        <time>1970-01-01T02:07:59.000Z</time>
      </trkpt>
      <trkpt lat="42.656324" lon="0.647284">
        <ele>2788.4</ele>
        <time>1970-01-01T02:08:00.000Z</time>
      </trkpt>
      <trkpt lat="42.656322" lon="0.647281">
        <ele>2788.5</ele>
        <time>1970-01-01T02:08:01.000Z</time>
      </trkpt>
      <trkpt lat="42.656317" lon="0.647276">
        <ele>2788.7</ele>
        <time>1970-01-01T02:08:03.000Z</time>
      </trkpt>
      <trkpt lat="42.656315" lon="0.647275">
        <ele>2788.7</ele>
        <time>1970-01-01T02:08:04.000Z</time>
      </trkpt>
      <trkpt lat="42.656314" lon="0.647274">
        <ele>2788.8</ele>
        <time>1970-01-01T02:08:05.000Z</time>
      </trkpt>
      <trkpt lat="42.656314" lon="0.647267">
        <ele>2788.9</ele>
        <time>1970-01-01T02:08:07.000Z</time>
      </trkpt>
      <trkpt lat="42.656313" lon="0.647263">
        <ele>2789</ele>
        <time>1970-01-01T02:08:08.000Z</time>
      </trkpt>
      <trkpt lat="42.656313" lon="0.647262">
        <ele>2789</ele>
        <time>1970-01-01T02:08:09.000Z</time>
      </trkpt>
      <trkpt lat="42.656312" lon="0.647262">
        <ele>2789.1</ele>
        <time>1970-01-01T02:08:10.000Z</time>
      </trkpt>
      <trkpt lat="42.656312" lon="0.647261">
        <ele>2789.1</ele>
        <time>1970-01-01T02:08:11.000Z</time>
      </trkpt>
      <trkpt lat="42.65631" lon="0.647259">
        <ele>2789.2</ele>
        <time>1970-01-01T02:08:13.000Z</time>
      </trkpt>
      <trkpt lat="42.656308" lon="0.647258">
        <ele>2789.2</ele>
        <time>1970-01-01T02:08:14.000Z</time>
      </trkpt>
      <trkpt lat="42.656307" lon="0.647257">
        <ele>2789.3</ele>
        <time>1970-01-01T02:08:15.000Z</time>
      </trkpt>
      <trkpt lat="42.656306" lon="0.647255">
        <ele>2789.3</ele>
        <time>1970-01-01T02:08:16.000Z</time>
      </trkpt>
      <trkpt lat="42.656304" lon="0.647253">
        <ele>2789.4</ele>
        <time>1970-01-01T02:08:17.000Z</time>
      </trkpt>
      <trkpt lat="42.656302" lon="0.64725">
        <ele>2789.5</ele>
        <time>1970-01-01T02:08:18.000Z</time>
      </trkpt>
      <trkpt lat="42.656299" lon="0.64725">
        <ele>2789.6</ele>
        <time>1970-01-01T02:08:19.000Z</time>
      </trkpt>
      <trkpt lat="42.656297" lon="0.647252">
        <ele>2789.6</ele>
        <time>1970-01-01T02:08:20.000Z</time>
      </trkpt>
      <trkpt lat="42.656295" lon="0.647253">
        <ele>2789.7</ele>
        <time>1970-01-01T02:08:21.000Z</time>
      </trkpt>
      <trkpt lat="42.656291" lon="0.647253">
        <ele>2789.8</ele>
        <time>1970-01-01T02:08:22.000Z</time>
      </trkpt>
      <trkpt lat="42.656283" lon="0.647249">
        <ele>2790.1</ele>
        <time>1970-01-01T02:08:23.000Z</time>
      </trkpt>
      <trkpt lat="42.656278" lon="0.64724">
        <ele>2790.3</ele>
        <time>1970-01-01T02:08:25.000Z</time>
      </trkpt>
      <trkpt lat="42.656274" lon="0.647226">
        <ele>2790.7</ele>
        <time>1970-01-01T02:08:26.000Z</time>
      </trkpt>
      <trkpt lat="42.656273" lon="0.647218">
        <ele>2790.9</ele>
        <time>1970-01-01T02:08:28.000Z</time>
      </trkpt>
      <trkpt lat="42.656275" lon="0.647207">
        <ele>2791.1</ele>
        <time>1970-01-01T02:08:29.000Z</time>
      </trkpt>
      <trkpt lat="42.656277" lon="0.647196">
        <ele>2791.4</ele>
        <time>1970-01-01T02:08:30.000Z</time>
      </trkpt>
      <trkpt lat="42.656275" lon="0.647185">
        <ele>2791.6</ele>
        <time>1970-01-01T02:08:32.000Z</time>
      </trkpt>
      <trkpt lat="42.656271" lon="0.647178">
        <ele>2791.8</ele>
        <time>1970-01-01T02:08:33.000Z</time>
      </trkpt>
      <trkpt lat="42.656271" lon="0.647177">
        <ele>2791.8</ele>
        <time>1970-01-01T02:08:34.000Z</time>
      </trkpt>
      <trkpt lat="42.656272" lon="0.647177">
        <ele>2791.9</ele>
        <time>1970-01-01T02:08:35.000Z</time>
      </trkpt>
      <trkpt lat="42.656272" lon="0.647177">
        <ele>2791.9</ele>
        <time>1970-01-01T02:08:36.000Z</time>
      </trkpt>
      <trkpt lat="42.65627" lon="0.647175">
        <ele>2791.9</ele>
        <time>1970-01-01T02:08:37.000Z</time>
      </trkpt>
      <trkpt lat="42.656267" lon="0.647173">
        <ele>2792</ele>
        <time>1970-01-01T02:08:38.000Z</time>
      </trkpt>
      <trkpt lat="42.656262" lon="0.647174">
        <ele>2792.2</ele>
        <time>1970-01-01T02:08:39.000Z</time>
      </trkpt>
      <trkpt lat="42.656255" lon="0.647179">
        <ele>2792.4</ele>
        <time>1970-01-01T02:08:40.000Z</time>
      </trkpt>
      <trkpt lat="42.656243" lon="0.647182">
        <ele>2792.8</ele>
        <time>1970-01-01T02:08:41.000Z</time>
      </trkpt>
      <trkpt lat="42.656225" lon="0.647182">
        <ele>2793.4</ele>
        <time>1970-01-01T02:08:43.000Z</time>
      </trkpt>
      <trkpt lat="42.656217" lon="0.647181">
        <ele>2793.6</ele>
        <time>1970-01-01T02:08:44.000Z</time>
      </trkpt>
      <trkpt lat="42.656213" lon="0.647181">
        <ele>2793.7</ele>
        <time>1970-01-01T02:08:45.000Z</time>
      </trkpt>
      <trkpt lat="42.6562" lon="0.647176">
        <ele>2794.2</ele>
        <time>1970-01-01T02:08:46.000Z</time>
      </trkpt>
      <trkpt lat="42.656191" lon="0.647174">
        <ele>2794.5</ele>
        <time>1970-01-01T02:08:47.000Z</time>
      </trkpt>
      <trkpt lat="42.656185" lon="0.647174">
        <ele>2794.7</ele>
        <time>1970-01-01T02:08:48.000Z</time>
      </trkpt>
      <trkpt lat="42.656181" lon="0.647175">
        <ele>2794.8</ele>
        <time>1970-01-01T02:08:49.000Z</time>
      </trkpt>
      <trkpt lat="42.656178" lon="0.647176">
        <ele>2794.9</ele>
        <time>1970-01-01T02:08:50.000Z</time>
      </trkpt>
      <trkpt lat="42.656175" lon="0.647179">
        <ele>2795</ele>
        <time>1970-01-01T02:08:51.000Z</time>
      </trkpt>
      <trkpt lat="42.656172" lon="0.647181">
        <ele>2795.1</ele>
        <time>1970-01-01T02:08:52.000Z</time>
      </trkpt>
      <trkpt lat="42.656167" lon="0.647182">
        <ele>2795.3</ele>
        <time>1970-01-01T02:08:53.000Z</time>
      </trkpt>
      <trkpt lat="42.65616" lon="0.647178">
        <ele>2795.6</ele>
        <time>1970-01-01T02:08:55.000Z</time>
      </trkpt>
      <trkpt lat="42.656161" lon="0.647174">
        <ele>2795.7</ele>
        <time>1970-01-01T02:08:56.000Z</time>
      </trkpt>
      <trkpt lat="42.656161" lon="0.647172">
        <ele>2795.7</ele>
        <time>1970-01-01T02:08:57.000Z</time>
      </trkpt>
      <trkpt lat="42.656164" lon="0.647169">
        <ele>2795.8</ele>
        <time>1970-01-01T02:08:59.000Z</time>
      </trkpt>
      <trkpt lat="42.656165" lon="0.647169">
        <ele>2795.9</ele>
        <time>1970-01-01T02:09:00.000Z</time>
      </trkpt>
      <trkpt lat="42.656166" lon="0.647168">
        <ele>2795.9</ele>
        <time>1970-01-01T02:09:01.000Z</time>
      </trkpt>
      <trkpt lat="42.656167" lon="0.647168">
        <ele>2795.9</ele>
        <time>1970-01-01T02:09:02.000Z</time>
      </trkpt>
      <trkpt lat="42.656168" lon="0.647167">
        <ele>2796</ele>
        <time>1970-01-01T02:09:03.000Z</time>
      </trkpt>
      <trkpt lat="42.656169" lon="0.647166">
        <ele>2796</ele>
        <time>1970-01-01T02:09:04.000Z</time>
      </trkpt>
      <trkpt lat="42.656167" lon="0.647162">
        <ele>2796.1</ele>
        <time>1970-01-01T02:09:06.000Z</time>
      </trkpt>
      <trkpt lat="42.656166" lon="0.647159">
        <ele>2796.2</ele>
        <time>1970-01-01T02:09:07.000Z</time>
      </trkpt>
      <trkpt lat="42.656165" lon="0.647156">
        <ele>2796.3</ele>
        <time>1970-01-01T02:09:08.000Z</time>
      </trkpt>
      <trkpt lat="42.656165" lon="0.647153">
        <ele>2796.4</ele>
        <time>1970-01-01T02:09:09.000Z</time>
      </trkpt>
      <trkpt lat="42.656165" lon="0.647151">
        <ele>2796.4</ele>
        <time>1970-01-01T02:09:10.000Z</time>
      </trkpt>
      <trkpt lat="42.656163" lon="0.647145">
        <ele>2796.6</ele>
        <time>1970-01-01T02:09:11.000Z</time>
      </trkpt>
      <trkpt lat="42.656161" lon="0.647141">
        <ele>2796.7</ele>
        <time>1970-01-01T02:09:12.000Z</time>
      </trkpt>
      <trkpt lat="42.656159" lon="0.647135">
        <ele>2796.9</ele>
        <time>1970-01-01T02:09:13.000Z</time>
      </trkpt>
      <trkpt lat="42.656159" lon="0.647125">
        <ele>2797.1</ele>
        <time>1970-01-01T02:09:15.000Z</time>
      </trkpt>
      <trkpt lat="42.656154" lon="0.647113">
        <ele>2797.4</ele>
        <time>1970-01-01T02:09:16.000Z</time>
      </trkpt>
      <trkpt lat="42.65615" lon="0.647107">
        <ele>2797.6</ele>
        <time>1970-01-01T02:09:17.000Z</time>
      </trkpt>
      <trkpt lat="42.656143" lon="0.647102">
        <ele>2797.9</ele>
        <time>1970-01-01T02:09:18.000Z</time>
      </trkpt>
      <trkpt lat="42.656134" lon="0.647097">
        <ele>2798.2</ele>
        <time>1970-01-01T02:09:19.000Z</time>
      </trkpt>
      <trkpt lat="42.656128" lon="0.647093">
        <ele>2798.5</ele>
        <time>1970-01-01T02:09:20.000Z</time>
      </trkpt>
      <trkpt lat="42.65612" lon="0.647084">
        <ele>2798.8</ele>
        <time>1970-01-01T02:09:22.000Z</time>
      </trkpt>
      <trkpt lat="42.656116" lon="0.647076">
        <ele>2799.1</ele>
        <time>1970-01-01T02:09:23.000Z</time>
      </trkpt>
      <trkpt lat="42.656115" lon="0.647071">
        <ele>2799.2</ele>
        <time>1970-01-01T02:09:24.000Z</time>
      </trkpt>
      <trkpt lat="42.656114" lon="0.647066">
        <ele>2799.4</ele>
        <time>1970-01-01T02:09:25.000Z</time>
      </trkpt>
      <trkpt lat="42.656116" lon="0.647061">
        <ele>2799.5</ele>
        <time>1970-01-01T02:09:26.000Z</time>
      </trkpt>
      <trkpt lat="42.656122" lon="0.647051">
        <ele>2799.9</ele>
        <time>1970-01-01T02:09:28.000Z</time>
      </trkpt>
      <trkpt lat="42.656126" lon="0.647043">
        <ele>2800.1</ele>
        <time>1970-01-01T02:09:30.000Z</time>
      </trkpt>
      <trkpt lat="42.656124" lon="0.647035">
        <ele>2800.3</ele>
        <time>1970-01-01T02:09:31.000Z</time>
      </trkpt>
      <trkpt lat="42.656123" lon="0.647028">
        <ele>2800.6</ele>
        <time>1970-01-01T02:09:32.000Z</time>
      </trkpt>
      <trkpt lat="42.656117" lon="0.647023">
        <ele>2800.8</ele>
        <time>1970-01-01T02:09:33.000Z</time>
      </trkpt>
      <trkpt lat="42.656106" lon="0.647024">
        <ele>2801.3</ele>
        <time>1970-01-01T02:09:34.000Z</time>
      </trkpt>
      <trkpt lat="42.656089" lon="0.647022">
        <ele>2801.9</ele>
        <time>1970-01-01T02:09:36.000Z</time>
      </trkpt>
      <trkpt lat="42.65608" lon="0.647018">
        <ele>2802.3</ele>
        <time>1970-01-01T02:09:37.000Z</time>
      </trkpt>
      <trkpt lat="42.656075" lon="0.647014">
        <ele>2802.5</ele>
        <time>1970-01-01T02:09:38.000Z</time>
      </trkpt>
      <trkpt lat="42.656068" lon="0.647002">
        <ele>2803</ele>
        <time>1970-01-01T02:09:40.000Z</time>
      </trkpt>
      <trkpt lat="42.656063" lon="0.646999">
        <ele>2803.2</ele>
        <time>1970-01-01T02:09:41.000Z</time>
      </trkpt>
      <trkpt lat="42.656055" lon="0.646991">
        <ele>2803.7</ele>
        <time>1970-01-01T02:09:42.000Z</time>
      </trkpt>
      <trkpt lat="42.65605" lon="0.646987">
        <ele>2803.9</ele>
        <time>1970-01-01T02:09:43.000Z</time>
      </trkpt>
      <trkpt lat="42.656041" lon="0.646978">
        <ele>2804.4</ele>
        <time>1970-01-01T02:09:45.000Z</time>
      </trkpt>
      <trkpt lat="42.656039" lon="0.646972">
        <ele>2804.6</ele>
        <time>1970-01-01T02:09:46.000Z</time>
      </trkpt>
      <trkpt lat="42.656039" lon="0.646967">
        <ele>2804.7</ele>
        <time>1970-01-01T02:09:47.000Z</time>
      </trkpt>
      <trkpt lat="42.65604" lon="0.646961">
        <ele>2804.9</ele>
        <time>1970-01-01T02:09:49.000Z</time>
      </trkpt>
      <trkpt lat="42.65604" lon="0.646956">
        <ele>2805.1</ele>
        <time>1970-01-01T02:09:50.000Z</time>
      </trkpt>
      <trkpt lat="42.656037" lon="0.646951">
        <ele>2805.3</ele>
        <time>1970-01-01T02:09:51.000Z</time>
      </trkpt>
      <trkpt lat="42.656036" lon="0.646949">
        <ele>2805.4</ele>
        <time>1970-01-01T02:09:52.000Z</time>
      </trkpt>
      <trkpt lat="42.656033" lon="0.646946">
        <ele>2805.6</ele>
        <time>1970-01-01T02:09:53.000Z</time>
      </trkpt>
      <trkpt lat="42.656024" lon="0.646938">
        <ele>2806</ele>
        <time>1970-01-01T02:09:54.000Z</time>
      </trkpt>
      <trkpt lat="42.656016" lon="0.64693">
        <ele>2806.5</ele>
        <time>1970-01-01T02:09:56.000Z</time>
      </trkpt>
      <trkpt lat="42.656011" lon="0.646922">
        <ele>2806.8</ele>
        <time>1970-01-01T02:09:57.000Z</time>
      </trkpt>
      <trkpt lat="42.656007" lon="0.646914">
        <ele>2807.1</ele>
        <time>1970-01-01T02:09:58.000Z</time>
      </trkpt>
      <trkpt lat="42.656005" lon="0.646905">
        <ele>2807.4</ele>
        <time>1970-01-01T02:09:59.000Z</time>
      </trkpt>
      <trkpt lat="42.656002" lon="0.646896">
        <ele>2807.8</ele>
        <time>1970-01-01T02:10:00.000Z</time>
      </trkpt>
      <trkpt lat="42.655996" lon="0.64689">
        <ele>2808.1</ele>
        <time>1970-01-01T02:10:01.000Z</time>
      </trkpt>
      <trkpt lat="42.655986" lon="0.646885">
        <ele>2808.6</ele>
        <time>1970-01-01T02:10:02.000Z</time>
      </trkpt>
      <trkpt lat="42.655979" lon="0.646877">
        <ele>2809</ele>
        <time>1970-01-01T02:10:04.000Z</time>
      </trkpt>
      <trkpt lat="42.655974" lon="0.646868">
        <ele>2809.3</ele>
        <time>1970-01-01T02:10:05.000Z</time>
      </trkpt>
      <trkpt lat="42.655971" lon="0.646857">
        <ele>2809.7</ele>
        <time>1970-01-01T02:10:06.000Z</time>
      </trkpt>
      <trkpt lat="42.655967" lon="0.646845">
        <ele>2810.1</ele>
        <time>1970-01-01T02:10:07.000Z</time>
      </trkpt>
      <trkpt lat="42.65596" lon="0.646841">
        <ele>2810.4</ele>
        <time>1970-01-01T02:10:08.000Z</time>
      </trkpt>
      <trkpt lat="42.655953" lon="0.646839">
        <ele>2810.7</ele>
        <time>1970-01-01T02:10:09.000Z</time>
      </trkpt>
      <trkpt lat="42.655945" lon="0.646835">
        <ele>2811.1</ele>
        <time>1970-01-01T02:10:10.000Z</time>
      </trkpt>
      <trkpt lat="42.655938" lon="0.646829">
        <ele>2811.4</ele>
        <time>1970-01-01T02:10:11.000Z</time>
      </trkpt>
      <trkpt lat="42.655933" lon="0.646822">
        <ele>2811.7</ele>
        <time>1970-01-01T02:10:12.000Z</time>
      </trkpt>
      <trkpt lat="42.655927" lon="0.646816">
        <ele>2812</ele>
        <time>1970-01-01T02:10:13.000Z</time>
      </trkpt>
      <trkpt lat="42.655918" lon="0.646814">
        <ele>2812.4</ele>
        <time>1970-01-01T02:10:15.000Z</time>
      </trkpt>
      <trkpt lat="42.655907" lon="0.646813">
        <ele>2812.8</ele>
        <time>1970-01-01T02:10:16.000Z</time>
      </trkpt>
      <trkpt lat="42.6559" lon="0.646814">
        <ele>2813.1</ele>
        <time>1970-01-01T02:10:17.000Z</time>
      </trkpt>
      <trkpt lat="42.655888" lon="0.646814">
        <ele>2813.5</ele>
        <time>1970-01-01T02:10:19.000Z</time>
      </trkpt>
      <trkpt lat="42.655879" lon="0.646813">
        <ele>2813.9</ele>
        <time>1970-01-01T02:10:20.000Z</time>
      </trkpt>
      <trkpt lat="42.655871" lon="0.646812">
        <ele>2814.2</ele>
        <time>1970-01-01T02:10:21.000Z</time>
      </trkpt>
      <trkpt lat="42.655859" lon="0.64681">
        <ele>2814.6</ele>
        <time>1970-01-01T02:10:23.000Z</time>
      </trkpt>
      <trkpt lat="42.655851" lon="0.646807">
        <ele>2814.9</ele>
        <time>1970-01-01T02:10:24.000Z</time>
      </trkpt>
      <trkpt lat="42.655841" lon="0.646805">
        <ele>2815.3</ele>
        <time>1970-01-01T02:10:25.000Z</time>
      </trkpt>
      <trkpt lat="42.655833" lon="0.646803">
        <ele>2815.5</ele>
        <time>1970-01-01T02:10:26.000Z</time>
      </trkpt>
      <trkpt lat="42.655821" lon="0.646801">
        <ele>2815.9</ele>
        <time>1970-01-01T02:10:27.000Z</time>
      </trkpt>
      <trkpt lat="42.655812" lon="0.6468">
        <ele>2816.3</ele>
        <time>1970-01-01T02:10:28.000Z</time>
      </trkpt>
      <trkpt lat="42.655806" lon="0.646798">
        <ele>2816.5</ele>
        <time>1970-01-01T02:10:29.000Z</time>
      </trkpt>
      <trkpt lat="42.6558" lon="0.646795">
        <ele>2816.7</ele>
        <time>1970-01-01T02:10:30.000Z</time>
      </trkpt>
      <trkpt lat="42.655794" lon="0.64679">
        <ele>2816.9</ele>
        <time>1970-01-01T02:10:31.000Z</time>
      </trkpt>
      <trkpt lat="42.655787" lon="0.646784">
        <ele>2817.2</ele>
        <time>1970-01-01T02:10:32.000Z</time>
      </trkpt>
      <trkpt lat="42.655783" lon="0.646781">
        <ele>2817.3</ele>
        <time>1970-01-01T02:10:33.000Z</time>
      </trkpt>
      <trkpt lat="42.655773" lon="0.646776">
        <ele>2817.6</ele>
        <time>1970-01-01T02:10:35.000Z</time>
      </trkpt>
      <trkpt lat="42.655768" lon="0.646771">
        <ele>2817.8</ele>
        <time>1970-01-01T02:10:36.000Z</time>
      </trkpt>
      <trkpt lat="42.655758" lon="0.646761">
        <ele>2818.2</ele>
        <time>1970-01-01T02:10:38.000Z</time>
      </trkpt>
      <trkpt lat="42.65575" lon="0.646754">
        <ele>2818.5</ele>
        <time>1970-01-01T02:10:39.000Z</time>
      </trkpt>
      <trkpt lat="42.655745" lon="0.64675">
        <ele>2818.6</ele>
        <time>1970-01-01T02:10:40.000Z</time>
      </trkpt>
      <trkpt lat="42.655739" lon="0.64675">
        <ele>2818.8</ele>
        <time>1970-01-01T02:10:41.000Z</time>
      </trkpt>
      <trkpt lat="42.655734" lon="0.64675">
        <ele>2818.9</ele>
        <time>1970-01-01T02:10:42.000Z</time>
      </trkpt>
      <trkpt lat="42.655729" lon="0.646748">
        <ele>2819.1</ele>
        <time>1970-01-01T02:10:43.000Z</time>
      </trkpt>
      <trkpt lat="42.655724" lon="0.646747">
        <ele>2819.2</ele>
        <time>1970-01-01T02:10:44.000Z</time>
      </trkpt>
      <trkpt lat="42.655718" lon="0.646747">
        <ele>2819.4</ele>
        <time>1970-01-01T02:10:45.000Z</time>
      </trkpt>
      <trkpt lat="42.655711" lon="0.646747">
        <ele>2819.6</ele>
        <time>1970-01-01T02:10:46.000Z</time>
      </trkpt>
      <trkpt lat="42.655706" lon="0.646749">
        <ele>2819.7</ele>
        <time>1970-01-01T02:10:47.000Z</time>
      </trkpt>
      <trkpt lat="42.6557" lon="0.646751">
        <ele>2819.9</ele>
        <time>1970-01-01T02:10:48.000Z</time>
      </trkpt>
      <trkpt lat="42.655691" lon="0.646753">
        <ele>2820.1</ele>
        <time>1970-01-01T02:10:50.000Z</time>
      </trkpt>
      <trkpt lat="42.655687" lon="0.646756">
        <ele>2820.2</ele>
        <time>1970-01-01T02:10:51.000Z</time>
      </trkpt>
      <trkpt lat="42.655682" lon="0.646758">
        <ele>2820.4</ele>
        <time>1970-01-01T02:10:52.000Z</time>
      </trkpt>
      <trkpt lat="42.655679" lon="0.646759">
        <ele>2820.4</ele>
        <time>1970-01-01T02:10:53.000Z</time>
      </trkpt>
      <trkpt lat="42.655677" lon="0.64676">
        <ele>2820.5</ele>
        <time>1970-01-01T02:10:54.000Z</time>
      </trkpt>
      <trkpt lat="42.655672" lon="0.646761">
        <ele>2820.6</ele>
        <time>1970-01-01T02:10:55.000Z</time>
      </trkpt>
      <trkpt lat="42.655668" lon="0.64676">
        <ele>2820.7</ele>
        <time>1970-01-01T02:10:56.000Z</time>
      </trkpt>
      <trkpt lat="42.655664" lon="0.646759">
        <ele>2820.8</ele>
        <time>1970-01-01T02:10:57.000Z</time>
      </trkpt>
      <trkpt lat="42.655653" lon="0.646758">
        <ele>2821.1</ele>
        <time>1970-01-01T02:10:59.000Z</time>
      </trkpt>
      <trkpt lat="42.655644" lon="0.646755">
        <ele>2821.3</ele>
        <time>1970-01-01T02:11:00.000Z</time>
      </trkpt>
      <trkpt lat="42.655639" lon="0.646753">
        <ele>2821.4</ele>
        <time>1970-01-01T02:11:01.000Z</time>
      </trkpt>
      <trkpt lat="42.655629" lon="0.646749">
        <ele>2821.7</ele>
        <time>1970-01-01T02:11:02.000Z</time>
      </trkpt>
      <trkpt lat="42.655621" lon="0.646748">
        <ele>2821.9</ele>
        <time>1970-01-01T02:11:04.000Z</time>
      </trkpt>
      <trkpt lat="42.655614" lon="0.646747">
        <ele>2822</ele>
        <time>1970-01-01T02:11:05.000Z</time>
      </trkpt>
      <trkpt lat="42.655604" lon="0.646748">
        <ele>2822.3</ele>
        <time>1970-01-01T02:11:07.000Z</time>
      </trkpt>
      <trkpt lat="42.655597" lon="0.646748">
        <ele>2822.4</ele>
        <time>1970-01-01T02:11:09.000Z</time>
      </trkpt>
      <trkpt lat="42.65559" lon="0.646749">
        <ele>2822.6</ele>
        <time>1970-01-01T02:11:10.000Z</time>
      </trkpt>
      <trkpt lat="42.655584" lon="0.646749">
        <ele>2822.8</ele>
        <time>1970-01-01T02:11:12.000Z</time>
      </trkpt>
      <trkpt lat="42.655576" lon="0.646749">
        <ele>2822.9</ele>
        <time>1970-01-01T02:11:13.000Z</time>
      </trkpt>
      <trkpt lat="42.655572" lon="0.646747">
        <ele>2823</ele>
        <time>1970-01-01T02:11:14.000Z</time>
      </trkpt>
      <trkpt lat="42.655568" lon="0.646745">
        <ele>2823.1</ele>
        <time>1970-01-01T02:11:15.000Z</time>
      </trkpt>
      <trkpt lat="42.655563" lon="0.646743">
        <ele>2823.3</ele>
        <time>1970-01-01T02:11:16.000Z</time>
      </trkpt>
      <trkpt lat="42.655558" lon="0.646741">
        <ele>2823.4</ele>
        <time>1970-01-01T02:11:17.000Z</time>
      </trkpt>
      <trkpt lat="42.655553" lon="0.64674">
        <ele>2823.5</ele>
        <time>1970-01-01T02:11:18.000Z</time>
      </trkpt>
      <trkpt lat="42.655547" lon="0.646738">
        <ele>2823.6</ele>
        <time>1970-01-01T02:11:19.000Z</time>
      </trkpt>
      <trkpt lat="42.655543" lon="0.646736">
        <ele>2823.7</ele>
        <time>1970-01-01T02:11:20.000Z</time>
      </trkpt>
      <trkpt lat="42.655536" lon="0.646729">
        <ele>2823.9</ele>
        <time>1970-01-01T02:11:21.000Z</time>
      </trkpt>
      <trkpt lat="42.655528" lon="0.646724">
        <ele>2824.2</ele>
        <time>1970-01-01T02:11:23.000Z</time>
      </trkpt>
      <trkpt lat="42.655522" lon="0.64672">
        <ele>2824.3</ele>
        <time>1970-01-01T02:11:24.000Z</time>
      </trkpt>
      <trkpt lat="42.655515" lon="0.646719">
        <ele>2824.5</ele>
        <time>1970-01-01T02:11:25.000Z</time>
      </trkpt>
      <trkpt lat="42.655507" lon="0.646716">
        <ele>2824.7</ele>
        <time>1970-01-01T02:11:26.000Z</time>
      </trkpt>
      <trkpt lat="42.655501" lon="0.646713">
        <ele>2824.8</ele>
        <time>1970-01-01T02:11:27.000Z</time>
      </trkpt>
      <trkpt lat="42.655491" lon="0.646709">
        <ele>2825.1</ele>
        <time>1970-01-01T02:11:28.000Z</time>
      </trkpt>
      <trkpt lat="42.655483" lon="0.646706">
        <ele>2825.3</ele>
        <time>1970-01-01T02:11:30.000Z</time>
      </trkpt>
      <trkpt lat="42.655474" lon="0.646706">
        <ele>2825.5</ele>
        <time>1970-01-01T02:11:31.000Z</time>
      </trkpt>
      <trkpt lat="42.655463" lon="0.646707">
        <ele>2825.8</ele>
        <time>1970-01-01T02:11:33.000Z</time>
      </trkpt>
      <trkpt lat="42.655453" lon="0.646708">
        <ele>2826</ele>
        <time>1970-01-01T02:11:35.000Z</time>
      </trkpt>
      <trkpt lat="42.655444" lon="0.646707">
        <ele>2826.3</ele>
        <time>1970-01-01T02:11:36.000Z</time>
      </trkpt>
      <trkpt lat="42.655439" lon="0.646706">
        <ele>2826.4</ele>
        <time>1970-01-01T02:11:37.000Z</time>
      </trkpt>
      <trkpt lat="42.655432" lon="0.646706">
        <ele>2826.6</ele>
        <time>1970-01-01T02:11:38.000Z</time>
      </trkpt>
      <trkpt lat="42.655427" lon="0.646705">
        <ele>2826.7</ele>
        <time>1970-01-01T02:11:39.000Z</time>
      </trkpt>
      <trkpt lat="42.655419" lon="0.646703">
        <ele>2826.9</ele>
        <time>1970-01-01T02:11:41.000Z</time>
      </trkpt>
      <trkpt lat="42.655415" lon="0.646702">
        <ele>2827</ele>
        <time>1970-01-01T02:11:42.000Z</time>
      </trkpt>
      <trkpt lat="42.655407" lon="0.646699">
        <ele>2827.2</ele>
        <time>1970-01-01T02:11:43.000Z</time>
      </trkpt>
      <trkpt lat="42.6554" lon="0.646698">
        <ele>2827.4</ele>
        <time>1970-01-01T02:11:45.000Z</time>
      </trkpt>
      <trkpt lat="42.655393" lon="0.646696">
        <ele>2827.6</ele>
        <time>1970-01-01T02:11:46.000Z</time>
      </trkpt>
      <trkpt lat="42.655388" lon="0.646693">
        <ele>2827.8</ele>
        <time>1970-01-01T02:11:47.000Z</time>
      </trkpt>
      <trkpt lat="42.655379" lon="0.646689">
        <ele>2828</ele>
        <time>1970-01-01T02:11:48.000Z</time>
      </trkpt>
      <trkpt lat="42.65537" lon="0.646685">
        <ele>2828.3</ele>
        <time>1970-01-01T02:11:50.000Z</time>
      </trkpt>
      <trkpt lat="42.655366" lon="0.646683">
        <ele>2828.4</ele>
        <time>1970-01-01T02:11:51.000Z</time>
      </trkpt>
      <trkpt lat="42.655362" lon="0.646682">
        <ele>2828.5</ele>
        <time>1970-01-01T02:11:52.000Z</time>
      </trkpt>
      <trkpt lat="42.655354" lon="0.646681">
        <ele>2828.7</ele>
        <time>1970-01-01T02:11:54.000Z</time>
      </trkpt>
      <trkpt lat="42.655349" lon="0.646679">
        <ele>2828.9</ele>
        <time>1970-01-01T02:11:55.000Z</time>
      </trkpt>
      <trkpt lat="42.655347" lon="0.646674">
        <ele>2829</ele>
        <time>1970-01-01T02:11:56.000Z</time>
      </trkpt>
      <trkpt lat="42.655342" lon="0.646665">
        <ele>2829.2</ele>
        <time>1970-01-01T02:11:58.000Z</time>
      </trkpt>
      <trkpt lat="42.65534" lon="0.64666">
        <ele>2829.3</ele>
        <time>1970-01-01T02:11:59.000Z</time>
      </trkpt>
      <trkpt lat="42.655336" lon="0.646653">
        <ele>2829.5</ele>
        <time>1970-01-01T02:12:00.000Z</time>
      </trkpt>
      <trkpt lat="42.655331" lon="0.646647">
        <ele>2829.7</ele>
        <time>1970-01-01T02:12:01.000Z</time>
      </trkpt>
      <trkpt lat="42.655326" lon="0.646637">
        <ele>2829.9</ele>
        <time>1970-01-01T02:12:02.000Z</time>
      </trkpt>
      <trkpt lat="42.65532" lon="0.646625">
        <ele>2830.2</ele>
        <time>1970-01-01T02:12:03.000Z</time>
      </trkpt>
      <trkpt lat="42.655312" lon="0.646613">
        <ele>2830.5</ele>
        <time>1970-01-01T02:12:05.000Z</time>
      </trkpt>
      <trkpt lat="42.655308" lon="0.646605">
        <ele>2830.7</ele>
        <time>1970-01-01T02:12:06.000Z</time>
      </trkpt>
      <trkpt lat="42.655304" lon="0.646596">
        <ele>2831</ele>
        <time>1970-01-01T02:12:07.000Z</time>
      </trkpt>
      <trkpt lat="42.6553" lon="0.646587">
        <ele>2831.2</ele>
        <time>1970-01-01T02:12:09.000Z</time>
      </trkpt>
      <trkpt lat="42.655293" lon="0.646578">
        <ele>2831.5</ele>
        <time>1970-01-01T02:12:10.000Z</time>
      </trkpt>
      <trkpt lat="42.65529" lon="0.646574">
        <ele>2831.6</ele>
        <time>1970-01-01T02:12:11.000Z</time>
      </trkpt>
      <trkpt lat="42.655284" lon="0.646566">
        <ele>2831.8</ele>
        <time>1970-01-01T02:12:13.000Z</time>
      </trkpt>
      <trkpt lat="42.655278" lon="0.646559">
        <ele>2832</ele>
        <time>1970-01-01T02:12:14.000Z</time>
      </trkpt>
      <trkpt lat="42.655274" lon="0.646555">
        <ele>2832.2</ele>
        <time>1970-01-01T02:12:15.000Z</time>
      </trkpt>
      <trkpt lat="42.655273" lon="0.646553">
        <ele>2832.2</ele>
        <time>1970-01-01T02:12:16.000Z</time>
      </trkpt>
      <trkpt lat="42.655271" lon="0.64655">
        <ele>2832.3</ele>
        <time>1970-01-01T02:12:17.000Z</time>
      </trkpt>
      <trkpt lat="42.65527" lon="0.646546">
        <ele>2832.4</ele>
        <time>1970-01-01T02:12:18.000Z</time>
      </trkpt>
      <trkpt lat="42.655269" lon="0.646544">
        <ele>2832.5</ele>
        <time>1970-01-01T02:12:19.000Z</time>
      </trkpt>
      <trkpt lat="42.655266" lon="0.646541">
        <ele>2832.6</ele>
        <time>1970-01-01T02:12:21.000Z</time>
      </trkpt>
      <trkpt lat="42.655264" lon="0.646538">
        <ele>2832.6</ele>
        <time>1970-01-01T02:12:22.000Z</time>
      </trkpt>
      <trkpt lat="42.655262" lon="0.646536">
        <ele>2832.7</ele>
        <time>1970-01-01T02:12:23.000Z</time>
      </trkpt>
      <trkpt lat="42.655258" lon="0.646531">
        <ele>2832.9</ele>
        <time>1970-01-01T02:12:24.000Z</time>
      </trkpt>
      <trkpt lat="42.655256" lon="0.646528">
        <ele>2833</ele>
        <time>1970-01-01T02:12:25.000Z</time>
      </trkpt>
      <trkpt lat="42.655251" lon="0.646524">
        <ele>2833.1</ele>
        <time>1970-01-01T02:12:27.000Z</time>
      </trkpt>
      <trkpt lat="42.655243" lon="0.64652">
        <ele>2833.4</ele>
        <time>1970-01-01T02:12:28.000Z</time>
      </trkpt>
      <trkpt lat="42.65524" lon="0.646518">
        <ele>2833.5</ele>
        <time>1970-01-01T02:12:29.000Z</time>
      </trkpt>
      <trkpt lat="42.655239" lon="0.646518">
        <ele>2833.5</ele>
        <time>1970-01-01T02:12:30.000Z</time>
      </trkpt>
      <trkpt lat="42.655234" lon="0.646515">
        <ele>2833.6</ele>
        <time>1970-01-01T02:12:31.000Z</time>
      </trkpt>
      <trkpt lat="42.655233" lon="0.646516">
        <ele>2833.7</ele>
        <time>1970-01-01T02:12:32.000Z</time>
      </trkpt>
      <trkpt lat="42.655233" lon="0.64652">
        <ele>2833.8</ele>
        <time>1970-01-01T02:12:33.000Z</time>
      </trkpt>
      <trkpt lat="42.65523" lon="0.646521">
        <ele>2833.8</ele>
        <time>1970-01-01T02:12:35.000Z</time>
      </trkpt>
      <trkpt lat="42.655229" lon="0.646521">
        <ele>2833.9</ele>
        <time>1970-01-01T02:12:36.000Z</time>
      </trkpt>
      <trkpt lat="42.655227" lon="0.646521">
        <ele>2833.9</ele>
        <time>1970-01-01T02:12:37.000Z</time>
      </trkpt>
      <trkpt lat="42.655227" lon="0.646521">
        <ele>2833.9</ele>
        <time>1970-01-01T02:12:38.000Z</time>
      </trkpt>
      <trkpt lat="42.655227" lon="0.646522">
        <ele>2833.9</ele>
        <time>1970-01-01T02:12:39.000Z</time>
      </trkpt>
      <trkpt lat="42.655227" lon="0.646523">
        <ele>2834</ele>
        <time>1970-01-01T02:12:40.000Z</time>
      </trkpt>
      <trkpt lat="42.655228" lon="0.646524">
        <ele>2834</ele>
        <time>1970-01-01T02:12:41.000Z</time>
      </trkpt>
      <trkpt lat="42.655227" lon="0.646525">
        <ele>2834</ele>
        <time>1970-01-01T02:12:42.000Z</time>
      </trkpt>
      <trkpt lat="42.655224" lon="0.646525">
        <ele>2834.1</ele>
        <time>1970-01-01T02:12:44.000Z</time>
      </trkpt>
      <trkpt lat="42.65522" lon="0.646525">
        <ele>2834.2</ele>
        <time>1970-01-01T02:12:45.000Z</time>
      </trkpt>
      <trkpt lat="42.655218" lon="0.646527">
        <ele>2834.3</ele>
        <time>1970-01-01T02:12:46.000Z</time>
      </trkpt>
      <trkpt lat="42.655213" lon="0.646527">
        <ele>2834.5</ele>
        <time>1970-01-01T02:12:47.000Z</time>
      </trkpt>
      <trkpt lat="42.655211" lon="0.646529">
        <ele>2834.5</ele>
        <time>1970-01-01T02:12:48.000Z</time>
      </trkpt>
      <trkpt lat="42.655208" lon="0.64653">
        <ele>2834.6</ele>
        <time>1970-01-01T02:12:49.000Z</time>
      </trkpt>
      <trkpt lat="42.655205" lon="0.64653">
        <ele>2834.7</ele>
        <time>1970-01-01T02:12:50.000Z</time>
      </trkpt>
      <trkpt lat="42.655201" lon="0.64653">
        <ele>2834.8</ele>
        <time>1970-01-01T02:12:52.000Z</time>
      </trkpt>
      <trkpt lat="42.655197" lon="0.646529">
        <ele>2835</ele>
        <time>1970-01-01T02:12:53.000Z</time>
      </trkpt>
      <trkpt lat="42.655191" lon="0.646527">
        <ele>2835.1</ele>
        <time>1970-01-01T02:12:54.000Z</time>
      </trkpt>
      <trkpt lat="42.655186" lon="0.646525">
        <ele>2835.3</ele>
        <time>1970-01-01T02:12:55.000Z</time>
      </trkpt>
      <trkpt lat="42.655182" lon="0.646523">
        <ele>2835.4</ele>
        <time>1970-01-01T02:12:56.000Z</time>
      </trkpt>
      <trkpt lat="42.655176" lon="0.646522">
        <ele>2835.6</ele>
        <time>1970-01-01T02:12:58.000Z</time>
      </trkpt>
      <trkpt lat="42.655173" lon="0.646523">
        <ele>2835.7</ele>
        <time>1970-01-01T02:12:59.000Z</time>
      </trkpt>
      <trkpt lat="42.655168" lon="0.646524">
        <ele>2835.9</ele>
        <time>1970-01-01T02:13:00.000Z</time>
      </trkpt>
      <trkpt lat="42.655167" lon="0.646525">
        <ele>2835.9</ele>
        <time>1970-01-01T02:13:01.000Z</time>
      </trkpt>
      <trkpt lat="42.655167" lon="0.646526">
        <ele>2835.9</ele>
        <time>1970-01-01T02:13:02.000Z</time>
      </trkpt>
      <trkpt lat="42.655168" lon="0.646527">
        <ele>2836</ele>
        <time>1970-01-01T02:13:03.000Z</time>
      </trkpt>
      <trkpt lat="42.655169" lon="0.646527">
        <ele>2836</ele>
        <time>1970-01-01T02:13:04.000Z</time>
      </trkpt>
      <trkpt lat="42.655169" lon="0.646528">
        <ele>2836</ele>
        <time>1970-01-01T02:13:05.000Z</time>
      </trkpt>
      <trkpt lat="42.65517" lon="0.646528">
        <ele>2836</ele>
        <time>1970-01-01T02:13:06.000Z</time>
      </trkpt>
      <trkpt lat="42.65517" lon="0.646527">
        <ele>2836.1</ele>
        <time>1970-01-01T02:13:08.000Z</time>
      </trkpt>
      <trkpt lat="42.655169" lon="0.646527">
        <ele>2836.1</ele>
        <time>1970-01-01T02:13:09.000Z</time>
      </trkpt>
      <trkpt lat="42.655168" lon="0.646527">
        <ele>2836.1</ele>
        <time>1970-01-01T02:13:10.000Z</time>
      </trkpt>
      <trkpt lat="42.655167" lon="0.646528">
        <ele>2836.2</ele>
        <time>1970-01-01T02:13:11.000Z</time>
      </trkpt>
      <trkpt lat="42.655164" lon="0.64653">
        <ele>2836.3</ele>
        <time>1970-01-01T02:13:12.000Z</time>
      </trkpt>
      <trkpt lat="42.655163" lon="0.646531">
        <ele>2836.3</ele>
        <time>1970-01-01T02:13:13.000Z</time>
      </trkpt>
      <trkpt lat="42.655162" lon="0.646532">
        <ele>2836.3</ele>
        <time>1970-01-01T02:13:14.000Z</time>
      </trkpt>
      <trkpt lat="42.65516" lon="0.646533">
        <ele>2836.4</ele>
        <time>1970-01-01T02:13:15.000Z</time>
      </trkpt>
      <trkpt lat="42.655158" lon="0.646535">
        <ele>2836.5</ele>
        <time>1970-01-01T02:13:16.000Z</time>
      </trkpt>
      <trkpt lat="42.655156" lon="0.646537">
        <ele>2836.5</ele>
        <time>1970-01-01T02:13:17.000Z</time>
      </trkpt>
      <trkpt lat="42.655154" lon="0.64654">
        <ele>2836.6</ele>
        <time>1970-01-01T02:13:19.000Z</time>
      </trkpt>
      <trkpt lat="42.655153" lon="0.646543">
        <ele>2836.7</ele>
        <time>1970-01-01T02:13:20.000Z</time>
      </trkpt>
      <trkpt lat="42.655152" lon="0.646546">
        <ele>2836.8</ele>
        <time>1970-01-01T02:13:21.000Z</time>
      </trkpt>
      <trkpt lat="42.65515" lon="0.646548">
        <ele>2836.9</ele>
        <time>1970-01-01T02:13:22.000Z</time>
      </trkpt>
      <trkpt lat="42.655148" lon="0.646551">
        <ele>2836.9</ele>
        <time>1970-01-01T02:13:23.000Z</time>
      </trkpt>
      <trkpt lat="42.655147" lon="0.646553">
        <ele>2837</ele>
        <time>1970-01-01T02:13:24.000Z</time>
      </trkpt>
      <trkpt lat="42.655146" lon="0.646553">
        <ele>2837</ele>
        <time>1970-01-01T02:13:25.000Z</time>
      </trkpt>
      <trkpt lat="42.655143" lon="0.646556">
        <ele>2837.1</ele>
        <time>1970-01-01T02:13:27.000Z</time>
      </trkpt>
      <trkpt lat="42.655142" lon="0.646558">
        <ele>2837.2</ele>
        <time>1970-01-01T02:13:28.000Z</time>
      </trkpt>
      <trkpt lat="42.655142" lon="0.64656">
        <ele>2837.2</ele>
        <time>1970-01-01T02:13:29.000Z</time>
      </trkpt>
      <trkpt lat="42.655141" lon="0.646562">
        <ele>2837.3</ele>
        <time>1970-01-01T02:13:30.000Z</time>
      </trkpt>
      <trkpt lat="42.65514" lon="0.646563">
        <ele>2837.3</ele>
        <time>1970-01-01T02:13:31.000Z</time>
      </trkpt>
      <trkpt lat="42.655139" lon="0.646564">
        <ele>2837.4</ele>
        <time>1970-01-01T02:13:32.000Z</time>
      </trkpt>
      <trkpt lat="42.655138" lon="0.646565">
        <ele>2837.4</ele>
        <time>1970-01-01T02:13:33.000Z</time>
      </trkpt>
      <trkpt lat="42.655138" lon="0.646567">
        <ele>2837.4</ele>
        <time>1970-01-01T02:13:34.000Z</time>
      </trkpt>
      <trkpt lat="42.655136" lon="0.646568">
        <ele>2837.5</ele>
        <time>1970-01-01T02:13:35.000Z</time>
      </trkpt>
      <trkpt lat="42.655134" lon="0.646569">
        <ele>2837.6</ele>
        <time>1970-01-01T02:13:36.000Z</time>
      </trkpt>
      <trkpt lat="42.655132" lon="0.646569">
        <ele>2837.6</ele>
        <time>1970-01-01T02:13:37.000Z</time>
      </trkpt>
      <trkpt lat="42.65513" lon="0.646568">
        <ele>2837.7</ele>
        <time>1970-01-01T02:13:38.000Z</time>
      </trkpt>
      <trkpt lat="42.655126" lon="0.646566">
        <ele>2837.8</ele>
        <time>1970-01-01T02:13:39.000Z</time>
      </trkpt>
      <trkpt lat="42.655123" lon="0.646563">
        <ele>2838</ele>
        <time>1970-01-01T02:13:40.000Z</time>
      </trkpt>
      <trkpt lat="42.655119" lon="0.646559">
        <ele>2838.1</ele>
        <time>1970-01-01T02:13:42.000Z</time>
      </trkpt>
      <trkpt lat="42.655116" lon="0.646559">
        <ele>2838.2</ele>
        <time>1970-01-01T02:13:43.000Z</time>
      </trkpt>
      <trkpt lat="42.655114" lon="0.646559">
        <ele>2838.3</ele>
        <time>1970-01-01T02:13:44.000Z</time>
      </trkpt>
      <trkpt lat="42.655112" lon="0.64656">
        <ele>2838.4</ele>
        <time>1970-01-01T02:13:45.000Z</time>
      </trkpt>
      <trkpt lat="42.655111" lon="0.646561">
        <ele>2838.4</ele>
        <time>1970-01-01T02:13:46.000Z</time>
      </trkpt>
      <trkpt lat="42.655107" lon="0.646566">
        <ele>2838.6</ele>
        <time>1970-01-01T02:13:48.000Z</time>
      </trkpt>
      <trkpt lat="42.655103" lon="0.64657">
        <ele>2838.7</ele>
        <time>1970-01-01T02:13:50.000Z</time>
      </trkpt>
      <trkpt lat="42.655101" lon="0.646572">
        <ele>2838.8</ele>
        <time>1970-01-01T02:13:51.000Z</time>
      </trkpt>
      <trkpt lat="42.655094" lon="0.646577">
        <ele>2839.1</ele>
        <time>1970-01-01T02:13:53.000Z</time>
      </trkpt>
      <trkpt lat="42.65509" lon="0.646581">
        <ele>2839.2</ele>
        <time>1970-01-01T02:13:54.000Z</time>
      </trkpt>
      <trkpt lat="42.655087" lon="0.646585">
        <ele>2839.4</ele>
        <time>1970-01-01T02:13:55.000Z</time>
      </trkpt>
      <trkpt lat="42.655084" lon="0.646588">
        <ele>2839.5</ele>
        <time>1970-01-01T02:13:56.000Z</time>
      </trkpt>
      <trkpt lat="42.655079" lon="0.646593">
        <ele>2839.7</ele>
        <time>1970-01-01T02:13:57.000Z</time>
      </trkpt>
      <trkpt lat="42.655076" lon="0.646595">
        <ele>2839.8</ele>
        <time>1970-01-01T02:13:58.000Z</time>
      </trkpt>
      <trkpt lat="42.655071" lon="0.646597">
        <ele>2839.9</ele>
        <time>1970-01-01T02:13:59.000Z</time>
      </trkpt>
      <trkpt lat="42.655062" lon="0.646604">
        <ele>2840.3</ele>
        <time>1970-01-01T02:14:01.000Z</time>
      </trkpt>
      <trkpt lat="42.655054" lon="0.646609">
        <ele>2840.6</ele>
        <time>1970-01-01T02:14:02.000Z</time>
      </trkpt>
      <trkpt lat="42.655049" lon="0.646613">
        <ele>2840.7</ele>
        <time>1970-01-01T02:14:03.000Z</time>
      </trkpt>
      <trkpt lat="42.655043" lon="0.646617">
        <ele>2841</ele>
        <time>1970-01-01T02:14:04.000Z</time>
      </trkpt>
      <trkpt lat="42.655028" lon="0.646624">
        <ele>2841.5</ele>
        <time>1970-01-01T02:14:06.000Z</time>
      </trkpt>
      <trkpt lat="42.655025" lon="0.646624">
        <ele>2841.6</ele>
        <time>1970-01-01T02:14:07.000Z</time>
      </trkpt>
      <trkpt lat="42.655021" lon="0.646626">
        <ele>2841.8</ele>
        <time>1970-01-01T02:14:09.000Z</time>
      </trkpt>
      <trkpt lat="42.655013" lon="0.646627">
        <ele>2842</ele>
        <time>1970-01-01T02:14:10.000Z</time>
      </trkpt>
      <trkpt lat="42.655005" lon="0.646625">
        <ele>2842.3</ele>
        <time>1970-01-01T02:14:11.000Z</time>
      </trkpt>
      <trkpt lat="42.654998" lon="0.646621">
        <ele>2842.6</ele>
        <time>1970-01-01T02:14:12.000Z</time>
      </trkpt>
      <trkpt lat="42.654982" lon="0.64662">
        <ele>2843.1</ele>
        <time>1970-01-01T02:14:13.000Z</time>
      </trkpt>
      <trkpt lat="42.654975" lon="0.64662">
        <ele>2843.4</ele>
        <time>1970-01-01T02:14:14.000Z</time>
      </trkpt>
      <trkpt lat="42.654968" lon="0.646621">
        <ele>2843.6</ele>
        <time>1970-01-01T02:14:16.000Z</time>
      </trkpt>
      <trkpt lat="42.654962" lon="0.646622">
        <ele>2843.9</ele>
        <time>1970-01-01T02:14:17.000Z</time>
      </trkpt>
      <trkpt lat="42.654952" lon="0.646622">
        <ele>2844.2</ele>
        <time>1970-01-01T02:14:19.000Z</time>
      </trkpt>
      <trkpt lat="42.654946" lon="0.646622">
        <ele>2844.4</ele>
        <time>1970-01-01T02:14:20.000Z</time>
      </trkpt>
      <trkpt lat="42.654943" lon="0.646619">
        <ele>2844.6</ele>
        <time>1970-01-01T02:14:21.000Z</time>
      </trkpt>
      <trkpt lat="42.654942" lon="0.646617">
        <ele>2844.6</ele>
        <time>1970-01-01T02:14:22.000Z</time>
      </trkpt>
      <trkpt lat="42.654941" lon="0.646615">
        <ele>2844.7</ele>
        <time>1970-01-01T02:14:23.000Z</time>
      </trkpt>
      <trkpt lat="42.654931" lon="0.646614">
        <ele>2845.1</ele>
        <time>1970-01-01T02:14:24.000Z</time>
      </trkpt>
      <trkpt lat="42.654923" lon="0.646613">
        <ele>2845.4</ele>
        <time>1970-01-01T02:14:25.000Z</time>
      </trkpt>
      <trkpt lat="42.654916" lon="0.646612">
        <ele>2845.6</ele>
        <time>1970-01-01T02:14:27.000Z</time>
      </trkpt>
      <trkpt lat="42.654911" lon="0.646611">
        <ele>2845.8</ele>
        <time>1970-01-01T02:14:28.000Z</time>
      </trkpt>
      <trkpt lat="42.654909" lon="0.64661">
        <ele>2845.9</ele>
        <time>1970-01-01T02:14:29.000Z</time>
      </trkpt>
      <trkpt lat="42.654902" lon="0.64661">
        <ele>2846.2</ele>
        <time>1970-01-01T02:14:30.000Z</time>
      </trkpt>
      <trkpt lat="42.654893" lon="0.646611">
        <ele>2846.5</ele>
        <time>1970-01-01T02:14:32.000Z</time>
      </trkpt>
      <trkpt lat="42.65489" lon="0.646611">
        <ele>2846.6</ele>
        <time>1970-01-01T02:14:33.000Z</time>
      </trkpt>
      <trkpt lat="42.654887" lon="0.646612">
        <ele>2846.8</ele>
        <time>1970-01-01T02:14:34.000Z</time>
      </trkpt>
      <trkpt lat="42.654886" lon="0.646613">
        <ele>2846.8</ele>
        <time>1970-01-01T02:14:35.000Z</time>
      </trkpt>
      <trkpt lat="42.654884" lon="0.646615">
        <ele>2846.9</ele>
        <time>1970-01-01T02:14:37.000Z</time>
      </trkpt>
      <trkpt lat="42.654883" lon="0.646617">
        <ele>2847</ele>
        <time>1970-01-01T02:14:38.000Z</time>
      </trkpt>
      <trkpt lat="42.654884" lon="0.646619">
        <ele>2847.1</ele>
        <time>1970-01-01T02:14:39.000Z</time>
      </trkpt>
      <trkpt lat="42.654884" lon="0.64662">
        <ele>2847.1</ele>
        <time>1970-01-01T02:14:40.000Z</time>
      </trkpt>
      <trkpt lat="42.654884" lon="0.646621">
        <ele>2847.1</ele>
        <time>1970-01-01T02:14:41.000Z</time>
      </trkpt>
      <trkpt lat="42.654885" lon="0.646622">
        <ele>2847.2</ele>
        <time>1970-01-01T02:14:42.000Z</time>
      </trkpt>
      <trkpt lat="42.654886" lon="0.646624">
        <ele>2847.2</ele>
        <time>1970-01-01T02:14:43.000Z</time>
      </trkpt>
      <trkpt lat="42.654885" lon="0.646625">
        <ele>2847.3</ele>
        <time>1970-01-01T02:14:44.000Z</time>
      </trkpt>
      <trkpt lat="42.654885" lon="0.646626">
        <ele>2847.3</ele>
        <time>1970-01-01T02:14:45.000Z</time>
      </trkpt>
      <trkpt lat="42.654884" lon="0.646628">
        <ele>2847.4</ele>
        <time>1970-01-01T02:14:46.000Z</time>
      </trkpt>
      <trkpt lat="42.654882" lon="0.646629">
        <ele>2847.5</ele>
        <time>1970-01-01T02:14:47.000Z</time>
      </trkpt>
      <trkpt lat="42.654881" lon="0.646632">
        <ele>2847.6</ele>
        <time>1970-01-01T02:14:48.000Z</time>
      </trkpt>
      <trkpt lat="42.65488" lon="0.646633">
        <ele>2847.6</ele>
        <time>1970-01-01T02:14:49.000Z</time>
      </trkpt>
      <trkpt lat="42.654878" lon="0.646635">
        <ele>2847.7</ele>
        <time>1970-01-01T02:14:50.000Z</time>
      </trkpt>
      <trkpt lat="42.654876" lon="0.646636">
        <ele>2847.8</ele>
        <time>1970-01-01T02:14:51.000Z</time>
      </trkpt>
      <trkpt lat="42.654875" lon="0.646639">
        <ele>2847.9</ele>
        <time>1970-01-01T02:14:52.000Z</time>
      </trkpt>
      <trkpt lat="42.654875" lon="0.646642">
        <ele>2848</ele>
        <time>1970-01-01T02:14:53.000Z</time>
      </trkpt>
      <trkpt lat="42.654875" lon="0.646643">
        <ele>2848</ele>
        <time>1970-01-01T02:14:54.000Z</time>
      </trkpt>
      <trkpt lat="42.654877" lon="0.646646">
        <ele>2848.1</ele>
        <time>1970-01-01T02:14:56.000Z</time>
      </trkpt>
      <trkpt lat="42.654876" lon="0.646648">
        <ele>2848.2</ele>
        <time>1970-01-01T02:14:57.000Z</time>
      </trkpt>
      <trkpt lat="42.654876" lon="0.646649">
        <ele>2848.2</ele>
        <time>1970-01-01T02:14:58.000Z</time>
      </trkpt>
      <trkpt lat="42.654876" lon="0.646652">
        <ele>2848.3</ele>
        <time>1970-01-01T02:15:00.000Z</time>
      </trkpt>
      <trkpt lat="42.654875" lon="0.646654">
        <ele>2848.4</ele>
        <time>1970-01-01T02:15:01.000Z</time>
      </trkpt>
      <trkpt lat="42.654874" lon="0.646656">
        <ele>2848.5</ele>
        <time>1970-01-01T02:15:02.000Z</time>
      </trkpt>
      <trkpt lat="42.654872" lon="0.646659">
        <ele>2848.6</ele>
        <time>1970-01-01T02:15:03.000Z</time>
      </trkpt>
      <trkpt lat="42.654867" lon="0.64666">
        <ele>2848.8</ele>
        <time>1970-01-01T02:15:04.000Z</time>
      </trkpt>
      <trkpt lat="42.654864" lon="0.646659">
        <ele>2848.9</ele>
        <time>1970-01-01T02:15:05.000Z</time>
      </trkpt>
      <trkpt lat="42.654863" lon="0.646658">
        <ele>2848.9</ele>
        <time>1970-01-01T02:15:06.000Z</time>
      </trkpt>
      <trkpt lat="42.654863" lon="0.646658">
        <ele>2848.9</ele>
        <time>1970-01-01T02:15:07.000Z</time>
      </trkpt>
      <trkpt lat="42.654863" lon="0.646657">
        <ele>2849</ele>
        <time>1970-01-01T02:15:08.000Z</time>
      </trkpt>
      <trkpt lat="42.654863" lon="0.646656">
        <ele>2849</ele>
        <time>1970-01-01T02:15:09.000Z</time>
      </trkpt>
      <trkpt lat="42.654863" lon="0.646656">
        <ele>2849</ele>
        <time>1970-01-01T02:15:10.000Z</time>
      </trkpt>
      <trkpt lat="42.654864" lon="0.646656">
        <ele>2849</ele>
        <time>1970-01-01T02:15:11.000Z</time>
      </trkpt>
      <trkpt lat="42.654864" lon="0.646655">
        <ele>2849.1</ele>
        <time>1970-01-01T02:15:12.000Z</time>
      </trkpt>
      <trkpt lat="42.654864" lon="0.646654">
        <ele>2849.1</ele>
        <time>1970-01-01T02:15:13.000Z</time>
      </trkpt>
      <trkpt lat="42.654864" lon="0.646652">
        <ele>2849.2</ele>
        <time>1970-01-01T02:15:14.000Z</time>
      </trkpt>
      <trkpt lat="42.654862" lon="0.64665">
        <ele>2849.3</ele>
        <time>1970-01-01T02:15:15.000Z</time>
      </trkpt>
      <trkpt lat="42.654857" lon="0.646645">
        <ele>2849.5</ele>
        <time>1970-01-01T02:15:16.000Z</time>
      </trkpt>
      <trkpt lat="42.654851" lon="0.646641">
        <ele>2849.8</ele>
        <time>1970-01-01T02:15:18.000Z</time>
      </trkpt>
      <trkpt lat="42.654847" lon="0.646637">
        <ele>2850</ele>
        <time>1970-01-01T02:15:19.000Z</time>
      </trkpt>
      <trkpt lat="42.654843" lon="0.64663">
        <ele>2850.2</ele>
        <time>1970-01-01T02:15:20.000Z</time>
      </trkpt>
      <trkpt lat="42.65484" lon="0.646624">
        <ele>2850.4</ele>
        <time>1970-01-01T02:15:21.000Z</time>
      </trkpt>
      <trkpt lat="42.654837" lon="0.64662">
        <ele>2850.6</ele>
        <time>1970-01-01T02:15:22.000Z</time>
      </trkpt>
      <trkpt lat="42.654837" lon="0.646617">
        <ele>2850.7</ele>
        <time>1970-01-01T02:15:23.000Z</time>
      </trkpt>
      <trkpt lat="42.654838" lon="0.646615">
        <ele>2850.8</ele>
        <time>1970-01-01T02:15:24.000Z</time>
      </trkpt>
      <trkpt lat="42.654836" lon="0.646614">
        <ele>2850.9</ele>
        <time>1970-01-01T02:15:25.000Z</time>
      </trkpt>
      <trkpt lat="42.654834" lon="0.646612">
        <ele>2851</ele>
        <time>1970-01-01T02:15:26.000Z</time>
      </trkpt>
      <trkpt lat="42.654831" lon="0.646611">
        <ele>2851.1</ele>
        <time>1970-01-01T02:15:27.000Z</time>
      </trkpt>
      <trkpt lat="42.65483" lon="0.646612">
        <ele>2851.2</ele>
        <time>1970-01-01T02:15:28.000Z</time>
      </trkpt>
      <trkpt lat="42.654828" lon="0.646612">
        <ele>2851.2</ele>
        <time>1970-01-01T02:15:29.000Z</time>
      </trkpt>
      <trkpt lat="42.654827" lon="0.646613">
        <ele>2851.3</ele>
        <time>1970-01-01T02:15:30.000Z</time>
      </trkpt>
      <trkpt lat="42.654825" lon="0.646613">
        <ele>2851.4</ele>
        <time>1970-01-01T02:15:31.000Z</time>
      </trkpt>
      <trkpt lat="42.654824" lon="0.646614">
        <ele>2851.4</ele>
        <time>1970-01-01T02:15:32.000Z</time>
      </trkpt>
      <trkpt lat="42.654824" lon="0.646617">
        <ele>2851.5</ele>
        <time>1970-01-01T02:15:33.000Z</time>
      </trkpt>
      <trkpt lat="42.654824" lon="0.646621">
        <ele>2851.6</ele>
        <time>1970-01-01T02:15:34.000Z</time>
      </trkpt>
      <trkpt lat="42.654824" lon="0.646626">
        <ele>2851.8</ele>
        <time>1970-01-01T02:15:35.000Z</time>
      </trkpt>
      <trkpt lat="42.654819" lon="0.646633">
        <ele>2852.1</ele>
        <time>1970-01-01T02:15:36.000Z</time>
      </trkpt>
      <trkpt lat="42.654816" lon="0.646638">
        <ele>2852.3</ele>
        <time>1970-01-01T02:15:37.000Z</time>
      </trkpt>
      <trkpt lat="42.654815" lon="0.646639">
        <ele>2852.4</ele>
        <time>1970-01-01T02:15:38.000Z</time>
      </trkpt>
      <trkpt lat="42.654816" lon="0.646642">
        <ele>2852.5</ele>
        <time>1970-01-01T02:15:39.000Z</time>
      </trkpt>
      <trkpt lat="42.654816" lon="0.646644">
        <ele>2852.5</ele>
        <time>1970-01-01T02:15:40.000Z</time>
      </trkpt>
      <trkpt lat="42.654817" lon="0.646646">
        <ele>2852.6</ele>
        <time>1970-01-01T02:15:41.000Z</time>
      </trkpt>
      <trkpt lat="42.654817" lon="0.646649">
        <ele>2852.7</ele>
        <time>1970-01-01T02:15:43.000Z</time>
      </trkpt>
      <trkpt lat="42.654816" lon="0.646651">
        <ele>2852.8</ele>
        <time>1970-01-01T02:15:44.000Z</time>
      </trkpt>
      <trkpt lat="42.65481" lon="0.646653">
        <ele>2853</ele>
        <time>1970-01-01T02:15:45.000Z</time>
      </trkpt>
      <trkpt lat="42.654802" lon="0.646655">
        <ele>2853.4</ele>
        <time>1970-01-01T02:15:46.000Z</time>
      </trkpt>
      <trkpt lat="42.654798" lon="0.646654">
        <ele>2853.6</ele>
        <time>1970-01-01T02:15:47.000Z</time>
      </trkpt>
      <trkpt lat="42.654795" lon="0.646652">
        <ele>2853.7</ele>
        <time>1970-01-01T02:15:48.000Z</time>
      </trkpt>
      <trkpt lat="42.654789" lon="0.646651">
        <ele>2854</ele>
        <time>1970-01-01T02:15:49.000Z</time>
      </trkpt>
      <trkpt lat="42.654784" lon="0.646652">
        <ele>2854.2</ele>
        <time>1970-01-01T02:15:50.000Z</time>
      </trkpt>
      <trkpt lat="42.654776" lon="0.646652">
        <ele>2854.5</ele>
        <time>1970-01-01T02:15:52.000Z</time>
      </trkpt>
      <trkpt lat="42.654768" lon="0.646651">
        <ele>2854.9</ele>
        <time>1970-01-01T02:15:53.000Z</time>
      </trkpt>
      <trkpt lat="42.654763" lon="0.646646">
        <ele>2855.1</ele>
        <time>1970-01-01T02:15:54.000Z</time>
      </trkpt>
      <trkpt lat="42.654757" lon="0.646643">
        <ele>2855.4</ele>
        <time>1970-01-01T02:15:55.000Z</time>
      </trkpt>
      <trkpt lat="42.654749" lon="0.646639">
        <ele>2855.8</ele>
        <time>1970-01-01T02:15:56.000Z</time>
      </trkpt>
      <trkpt lat="42.654746" lon="0.646636">
        <ele>2855.9</ele>
        <time>1970-01-01T02:15:57.000Z</time>
      </trkpt>
      <trkpt lat="42.654741" lon="0.64663">
        <ele>2856.2</ele>
        <time>1970-01-01T02:15:58.000Z</time>
      </trkpt>
      <trkpt lat="42.654737" lon="0.646621">
        <ele>2856.6</ele>
        <time>1970-01-01T02:16:00.000Z</time>
      </trkpt>
      <trkpt lat="42.654735" lon="0.646615">
        <ele>2856.8</ele>
        <time>1970-01-01T02:16:01.000Z</time>
      </trkpt>
      <trkpt lat="42.654735" lon="0.646607">
        <ele>2857</ele>
        <time>1970-01-01T02:16:03.000Z</time>
      </trkpt>
      <trkpt lat="42.654734" lon="0.646605">
        <ele>2857.1</ele>
        <time>1970-01-01T02:16:04.000Z</time>
      </trkpt>
      <trkpt lat="42.654733" lon="0.6466">
        <ele>2857.2</ele>
        <time>1970-01-01T02:16:05.000Z</time>
      </trkpt>
      <trkpt lat="42.65473" lon="0.646596">
        <ele>2857.4</ele>
        <time>1970-01-01T02:16:07.000Z</time>
      </trkpt>
      <trkpt lat="42.654729" lon="0.646594">
        <ele>2857.5</ele>
        <time>1970-01-01T02:16:08.000Z</time>
      </trkpt>
      <trkpt lat="42.654729" lon="0.646594">
        <ele>2857.5</ele>
        <time>1970-01-01T02:16:09.000Z</time>
      </trkpt>
      <trkpt lat="42.654729" lon="0.646594">
        <ele>2857.5</ele>
        <time>1970-01-01T02:16:10.000Z</time>
      </trkpt>
      <trkpt lat="42.654728" lon="0.646594">
        <ele>2857.5</ele>
        <time>1970-01-01T02:16:12.000Z</time>
      </trkpt>
      <trkpt lat="42.654726" lon="0.646593">
        <ele>2857.6</ele>
        <time>1970-01-01T02:16:13.000Z</time>
      </trkpt>
      <trkpt lat="42.654725" lon="0.646593">
        <ele>2857.7</ele>
        <time>1970-01-01T02:16:14.000Z</time>
      </trkpt>
      <trkpt lat="42.654725" lon="0.646593">
        <ele>2857.7</ele>
        <time>1970-01-01T02:16:15.000Z</time>
      </trkpt>
      <trkpt lat="42.654724" lon="0.646593">
        <ele>2857.7</ele>
        <time>1970-01-01T02:16:16.000Z</time>
      </trkpt>
      <trkpt lat="42.654724" lon="0.646594">
        <ele>2857.7</ele>
        <time>1970-01-01T02:16:17.000Z</time>
      </trkpt>
      <trkpt lat="42.654723" lon="0.646594">
        <ele>2857.8</ele>
        <time>1970-01-01T02:16:18.000Z</time>
      </trkpt>
      <trkpt lat="42.654722" lon="0.646594">
        <ele>2857.8</ele>
        <time>1970-01-01T02:16:19.000Z</time>
      </trkpt>
      <trkpt lat="42.654722" lon="0.646594">
        <ele>2857.8</ele>
        <time>1970-01-01T02:16:20.000Z</time>
      </trkpt>
      <trkpt lat="42.654722" lon="0.646594">
        <ele>2857.8</ele>
        <time>1970-01-01T02:16:21.000Z</time>
      </trkpt>
      <trkpt lat="42.654721" lon="0.646592">
        <ele>2857.9</ele>
        <time>1970-01-01T02:16:22.000Z</time>
      </trkpt>
      <trkpt lat="42.654721" lon="0.646591">
        <ele>2857.9</ele>
        <time>1970-01-01T02:16:23.000Z</time>
      </trkpt>
      <trkpt lat="42.654718" lon="0.646587">
        <ele>2858.1</ele>
        <time>1970-01-01T02:16:24.000Z</time>
      </trkpt>
      <trkpt lat="42.654717" lon="0.646585">
        <ele>2858.2</ele>
        <time>1970-01-01T02:16:25.000Z</time>
      </trkpt>
      <trkpt lat="42.654716" lon="0.646584">
        <ele>2858.2</ele>
        <time>1970-01-01T02:16:26.000Z</time>
      </trkpt>
      <trkpt lat="42.654714" lon="0.646581">
        <ele>2858.4</ele>
        <time>1970-01-01T02:16:27.000Z</time>
      </trkpt>
      <trkpt lat="42.654714" lon="0.64658">
        <ele>2858.4</ele>
        <time>1970-01-01T02:16:28.000Z</time>
      </trkpt>
      <trkpt lat="42.654714" lon="0.646579">
        <ele>2858.4</ele>
        <time>1970-01-01T02:16:29.000Z</time>
      </trkpt>
      <trkpt lat="42.654713" lon="0.646578">
        <ele>2858.5</ele>
        <time>1970-01-01T02:16:30.000Z</time>
      </trkpt>
      <trkpt lat="42.654713" lon="0.646578">
        <ele>2858.5</ele>
        <time>1970-01-01T02:16:31.000Z</time>
      </trkpt>
      <trkpt lat="42.65471" lon="0.646576">
        <ele>2858.6</ele>
        <time>1970-01-01T02:16:32.000Z</time>
      </trkpt>
      <trkpt lat="42.654708" lon="0.646578">
        <ele>2858.7</ele>
        <time>1970-01-01T02:16:33.000Z</time>
      </trkpt>
      <trkpt lat="42.654706" lon="0.64658">
        <ele>2858.8</ele>
        <time>1970-01-01T02:16:34.000Z</time>
      </trkpt>
      <trkpt lat="42.654706" lon="0.646582">
        <ele>2858.9</ele>
        <time>1970-01-01T02:16:35.000Z</time>
      </trkpt>
      <trkpt lat="42.654706" lon="0.646583">
        <ele>2859</ele>
        <time>1970-01-01T02:16:36.000Z</time>
      </trkpt>
      <trkpt lat="42.654705" lon="0.646583">
        <ele>2859.1</ele>
        <time>1970-01-01T02:16:37.000Z</time>
      </trkpt>
      <trkpt lat="42.654705" lon="0.646583">
        <ele>2859.1</ele>
        <time>1970-01-01T02:16:38.000Z</time>
      </trkpt>
      <trkpt lat="42.654703" lon="0.646585">
        <ele>2859.3</ele>
        <time>1970-01-01T02:16:39.000Z</time>
      </trkpt>
      <trkpt lat="42.654703" lon="0.646586">
        <ele>2859.3</ele>
        <time>1970-01-01T02:16:40.000Z</time>
      </trkpt>
      <trkpt lat="42.654701" lon="0.646587">
        <ele>2859.4</ele>
        <time>1970-01-01T02:16:41.000Z</time>
      </trkpt>
      <trkpt lat="42.654699" lon="0.64659">
        <ele>2859.6</ele>
        <time>1970-01-01T02:16:42.000Z</time>
      </trkpt>
      <trkpt lat="42.654697" lon="0.646591">
        <ele>2859.7</ele>
        <time>1970-01-01T02:16:43.000Z</time>
      </trkpt>
      <trkpt lat="42.654695" lon="0.646594">
        <ele>2859.8</ele>
        <time>1970-01-01T02:16:44.000Z</time>
      </trkpt>
      <trkpt lat="42.654691" lon="0.646601">
        <ele>2860.1</ele>
        <time>1970-01-01T02:16:46.000Z</time>
      </trkpt>
      <trkpt lat="42.654689" lon="0.646603">
        <ele>2860.3</ele>
        <time>1970-01-01T02:16:47.000Z</time>
      </trkpt>
      <trkpt lat="42.654687" lon="0.646605">
        <ele>2860.4</ele>
        <time>1970-01-01T02:16:48.000Z</time>
      </trkpt>
      <trkpt lat="42.654686" lon="0.646606">
        <ele>2860.4</ele>
        <time>1970-01-01T02:16:49.000Z</time>
      </trkpt>
      <trkpt lat="42.654684" lon="0.646607">
        <ele>2860.6</ele>
        <time>1970-01-01T02:16:50.000Z</time>
      </trkpt>
      <trkpt lat="42.654683" lon="0.646609">
        <ele>2860.7</ele>
        <time>1970-01-01T02:16:51.000Z</time>
      </trkpt>
      <trkpt lat="42.654681" lon="0.646612">
        <ele>2860.8</ele>
        <time>1970-01-01T02:16:52.000Z</time>
      </trkpt>
      <trkpt lat="42.654679" lon="0.646613">
        <ele>2860.9</ele>
        <time>1970-01-01T02:16:53.000Z</time>
      </trkpt>
      <trkpt lat="42.654678" lon="0.646614">
        <ele>2861.1</ele>
        <time>1970-01-01T02:16:54.000Z</time>
      </trkpt>
      <trkpt lat="42.654676" lon="0.646615">
        <ele>2861.2</ele>
        <time>1970-01-01T02:16:55.000Z</time>
      </trkpt>
      <trkpt lat="42.654676" lon="0.646617">
        <ele>2861.2</ele>
        <time>1970-01-01T02:16:56.000Z</time>
      </trkpt>
      <trkpt lat="42.654675" lon="0.646618">
        <ele>2861.3</ele>
        <time>1970-01-01T02:16:57.000Z</time>
      </trkpt>
      <trkpt lat="42.654674" lon="0.646619">
        <ele>2861.4</ele>
        <time>1970-01-01T02:16:58.000Z</time>
      </trkpt>
      <trkpt lat="42.654674" lon="0.64662">
        <ele>2861.5</ele>
        <time>1970-01-01T02:16:59.000Z</time>
      </trkpt>
      <trkpt lat="42.654673" lon="0.646621">
        <ele>2861.5</ele>
        <time>1970-01-01T02:17:00.000Z</time>
      </trkpt>
      <trkpt lat="42.654672" lon="0.646623">
        <ele>2861.7</ele>
        <time>1970-01-01T02:17:01.000Z</time>
      </trkpt>
      <trkpt lat="42.65467" lon="0.646626">
        <ele>2861.8</ele>
        <time>1970-01-01T02:17:03.000Z</time>
      </trkpt>
      <trkpt lat="42.654666" lon="0.646629">
        <ele>2862</ele>
        <time>1970-01-01T02:17:04.000Z</time>
      </trkpt>
      <trkpt lat="42.654662" lon="0.646631">
        <ele>2862.2</ele>
        <time>1970-01-01T02:17:05.000Z</time>
      </trkpt>
      <trkpt lat="42.654658" lon="0.646631">
        <ele>2862.3</ele>
        <time>1970-01-01T02:17:06.000Z</time>
      </trkpt>
      <trkpt lat="42.654653" lon="0.646631">
        <ele>2862.6</ele>
        <time>1970-01-01T02:17:07.000Z</time>
      </trkpt>
      <trkpt lat="42.654649" lon="0.646631">
        <ele>2862.8</ele>
        <time>1970-01-01T02:17:08.000Z</time>
      </trkpt>
      <trkpt lat="42.654647" lon="0.646633">
        <ele>2862.9</ele>
        <time>1970-01-01T02:17:09.000Z</time>
      </trkpt>
      <trkpt lat="42.654645" lon="0.646634">
        <ele>2863</ele>
        <time>1970-01-01T02:17:10.000Z</time>
      </trkpt>
      <trkpt lat="42.654641" lon="0.646634">
        <ele>2863.2</ele>
        <time>1970-01-01T02:17:11.000Z</time>
      </trkpt>
      <trkpt lat="42.654637" lon="0.646632">
        <ele>2863.4</ele>
        <time>1970-01-01T02:17:12.000Z</time>
      </trkpt>
      <trkpt lat="42.654631" lon="0.646628">
        <ele>2863.6</ele>
        <time>1970-01-01T02:17:13.000Z</time>
      </trkpt>
      <trkpt lat="42.654628" lon="0.646624">
        <ele>2863.8</ele>
        <time>1970-01-01T02:17:14.000Z</time>
      </trkpt>
      <trkpt lat="42.654625" lon="0.646621">
        <ele>2864</ele>
        <time>1970-01-01T02:17:15.000Z</time>
      </trkpt>
      <trkpt lat="42.654623" lon="0.646618">
        <ele>2864.1</ele>
        <time>1970-01-01T02:17:16.000Z</time>
      </trkpt>
      <trkpt lat="42.654621" lon="0.646612">
        <ele>2864.3</ele>
        <time>1970-01-01T02:17:17.000Z</time>
      </trkpt>
      <trkpt lat="42.65462" lon="0.646608">
        <ele>2864.5</ele>
        <time>1970-01-01T02:17:18.000Z</time>
      </trkpt>
      <trkpt lat="42.654621" lon="0.646607">
        <ele>2864.6</ele>
        <time>1970-01-01T02:17:19.000Z</time>
      </trkpt>
      <trkpt lat="42.654621" lon="0.646606">
        <ele>2864.6</ele>
        <time>1970-01-01T02:17:20.000Z</time>
      </trkpt>
      <trkpt lat="42.654621" lon="0.646602">
        <ele>2864.8</ele>
        <time>1970-01-01T02:17:22.000Z</time>
      </trkpt>
      <trkpt lat="42.654625" lon="0.646595">
        <ele>2865</ele>
        <time>1970-01-01T02:17:23.000Z</time>
      </trkpt>
      <trkpt lat="42.654634" lon="0.646591">
        <ele>2865.4</ele>
        <time>1970-01-01T02:17:24.000Z</time>
      </trkpt>
      <trkpt lat="42.65464" lon="0.646589">
        <ele>2865.7</ele>
        <time>1970-01-01T02:17:25.000Z</time>
      </trkpt>
      <trkpt lat="42.654647" lon="0.646577">
        <ele>2866.1</ele>
        <time>1970-01-01T02:17:27.000Z</time>
      </trkpt>
      <trkpt lat="42.654642" lon="0.646567">
        <ele>2866.5</ele>
        <time>1970-01-01T02:17:28.000Z</time>
      </trkpt>
      <trkpt lat="42.654634" lon="0.64656">
        <ele>2866.9</ele>
        <time>1970-01-01T02:17:29.000Z</time>
      </trkpt>
      <trkpt lat="42.654626" lon="0.646557">
        <ele>2867.2</ele>
        <time>1970-01-01T02:17:30.000Z</time>
      </trkpt>
      <trkpt lat="42.654608" lon="0.646553">
        <ele>2868</ele>
        <time>1970-01-01T02:17:32.000Z</time>
      </trkpt>
      <trkpt lat="42.654604" lon="0.646557">
        <ele>2868.2</ele>
        <time>1970-01-01T02:17:33.000Z</time>
      </trkpt>
      <trkpt lat="42.654601" lon="0.646555">
        <ele>2868.4</ele>
        <time>1970-01-01T02:17:34.000Z</time>
      </trkpt>
      <trkpt lat="42.654599" lon="0.646552">
        <ele>2868.5</ele>
        <time>1970-01-01T02:17:35.000Z</time>
      </trkpt>
      <trkpt lat="42.654598" lon="0.646552">
        <ele>2868.5</ele>
        <time>1970-01-01T02:17:36.000Z</time>
      </trkpt>
      <trkpt lat="42.654598" lon="0.646555">
        <ele>2868.7</ele>
        <time>1970-01-01T02:17:37.000Z</time>
      </trkpt>
      <trkpt lat="42.654599" lon="0.646558">
        <ele>2868.7</ele>
        <time>1970-01-01T02:17:38.000Z</time>
      </trkpt>
      <trkpt lat="42.654598" lon="0.646561">
        <ele>2868.9</ele>
        <time>1970-01-01T02:17:39.000Z</time>
      </trkpt>
      <trkpt lat="42.654597" lon="0.646563">
        <ele>2869</ele>
        <time>1970-01-01T02:17:40.000Z</time>
      </trkpt>
      <trkpt lat="42.654595" lon="0.646564">
        <ele>2869.1</ele>
        <time>1970-01-01T02:17:41.000Z</time>
      </trkpt>
      <trkpt lat="42.654592" lon="0.646565">
        <ele>2869.2</ele>
        <time>1970-01-01T02:17:42.000Z</time>
      </trkpt>
      <trkpt lat="42.65459" lon="0.646566">
        <ele>2869.2</ele>
        <time>1970-01-01T02:17:43.000Z</time>
      </trkpt>
      <trkpt lat="42.65459" lon="0.646566">
        <ele>2869.3</ele>
        <time>1970-01-01T02:17:44.000Z</time>
      </trkpt>
      <trkpt lat="42.654589" lon="0.646566">
        <ele>2869.3</ele>
        <time>1970-01-01T02:17:45.000Z</time>
      </trkpt>
      <trkpt lat="42.654589" lon="0.646566">
        <ele>2869.3</ele>
        <time>1970-01-01T02:17:46.000Z</time>
      </trkpt>
      <trkpt lat="42.654591" lon="0.646563">
        <ele>2869.5</ele>
        <time>1970-01-01T02:17:47.000Z</time>
      </trkpt>
      <trkpt lat="42.654598" lon="0.646558">
        <ele>2869.7</ele>
        <time>1970-01-01T02:17:48.000Z</time>
      </trkpt>
      <trkpt lat="42.654599" lon="0.646557">
        <ele>2869.8</ele>
        <time>1970-01-01T02:17:49.000Z</time>
      </trkpt>
      <trkpt lat="42.654599" lon="0.64656">
        <ele>2869.9</ele>
        <time>1970-01-01T02:17:50.000Z</time>
      </trkpt>
      <trkpt lat="42.654599" lon="0.646561">
        <ele>2869.9</ele>
        <time>1970-01-01T02:17:52.000Z</time>
      </trkpt>
      <trkpt lat="42.6546" lon="0.646558">
        <ele>2870.1</ele>
        <time>1970-01-01T02:17:53.000Z</time>
      </trkpt>
      <trkpt lat="42.654601" lon="0.646555">
        <ele>2870.2</ele>
        <time>1970-01-01T02:17:54.000Z</time>
      </trkpt>
      <trkpt lat="42.6546" lon="0.646553">
        <ele>2870.2</ele>
        <time>1970-01-01T02:17:55.000Z</time>
      </trkpt>
      <trkpt lat="42.654599" lon="0.646552">
        <ele>2870.3</ele>
        <time>1970-01-01T02:17:56.000Z</time>
      </trkpt>
      <trkpt lat="42.654598" lon="0.646553">
        <ele>2870.3</ele>
        <time>1970-01-01T02:17:57.000Z</time>
      </trkpt>
      <trkpt lat="42.654597" lon="0.646554">
        <ele>2870.3</ele>
        <time>1970-01-01T02:17:58.000Z</time>
      </trkpt>
      <trkpt lat="42.654596" lon="0.646555">
        <ele>2870.5</ele>
        <time>1970-01-01T02:17:59.000Z</time>
      </trkpt>
      <trkpt lat="42.654596" lon="0.646555">
        <ele>2870.5</ele>
        <time>1970-01-01T02:18:00.000Z</time>
      </trkpt>
      <trkpt lat="42.654595" lon="0.646555">
        <ele>2870.5</ele>
        <time>1970-01-01T02:18:01.000Z</time>
      </trkpt>
      <trkpt lat="42.654595" lon="0.646556">
        <ele>2870.5</ele>
        <time>1970-01-01T02:18:02.000Z</time>
      </trkpt>
      <trkpt lat="42.654594" lon="0.646557">
        <ele>2870.6</ele>
        <time>1970-01-01T02:18:03.000Z</time>
      </trkpt>
      <trkpt lat="42.654593" lon="0.646558">
        <ele>2870.6</ele>
        <time>1970-01-01T02:18:04.000Z</time>
      </trkpt>
      <trkpt lat="42.654592" lon="0.646557">
        <ele>2870.7</ele>
        <time>1970-01-01T02:18:06.000Z</time>
      </trkpt>
      <trkpt lat="42.654593" lon="0.646556">
        <ele>2870.7</ele>
        <time>1970-01-01T02:18:07.000Z</time>
      </trkpt>
      <trkpt lat="42.654594" lon="0.646555">
        <ele>2870.8</ele>
        <time>1970-01-01T02:18:08.000Z</time>
      </trkpt>
      <trkpt lat="42.654594" lon="0.646543">
        <ele>2871.1</ele>
        <time>1970-01-01T02:18:10.000Z</time>
      </trkpt>
      <trkpt lat="42.654591" lon="0.646531">
        <ele>2871.5</ele>
        <time>1970-01-01T02:18:11.000Z</time>
      </trkpt>
      <trkpt lat="42.654586" lon="0.646524">
        <ele>2871.7</ele>
        <time>1970-01-01T02:18:12.000Z</time>
      </trkpt>
      <trkpt lat="42.65458" lon="0.646521">
        <ele>2871.9</ele>
        <time>1970-01-01T02:18:13.000Z</time>
      </trkpt>
      <trkpt lat="42.654576" lon="0.64652">
        <ele>2872.1</ele>
        <time>1970-01-01T02:18:14.000Z</time>
      </trkpt>
      <trkpt lat="42.654573" lon="0.646521">
        <ele>2872.2</ele>
        <time>1970-01-01T02:18:15.000Z</time>
      </trkpt>
      <trkpt lat="42.654571" lon="0.646522">
        <ele>2872.3</ele>
        <time>1970-01-01T02:18:16.000Z</time>
      </trkpt>
      <trkpt lat="42.654569" lon="0.646522">
        <ele>2872.3</ele>
        <time>1970-01-01T02:18:17.000Z</time>
      </trkpt>
      <trkpt lat="42.654564" lon="0.646515">
        <ele>2872.5</ele>
        <time>1970-01-01T02:18:19.000Z</time>
      </trkpt>
      <trkpt lat="42.654559" lon="0.646512">
        <ele>2872.6</ele>
        <time>1970-01-01T02:18:20.000Z</time>
      </trkpt>
      <trkpt lat="42.654555" lon="0.646516">
        <ele>2872.7</ele>
        <time>1970-01-01T02:18:21.000Z</time>
      </trkpt>
      <trkpt lat="42.654552" lon="0.646519">
        <ele>2872.7</ele>
        <time>1970-01-01T02:18:22.000Z</time>
      </trkpt>
      <trkpt lat="42.654547" lon="0.646522">
        <ele>2872.8</ele>
        <time>1970-01-01T02:18:23.000Z</time>
      </trkpt>
      <trkpt lat="42.654542" lon="0.646524">
        <ele>2872.9</ele>
        <time>1970-01-01T02:18:24.000Z</time>
      </trkpt>
      <trkpt lat="42.654537" lon="0.646524">
        <ele>2872.9</ele>
        <time>1970-01-01T02:18:25.000Z</time>
      </trkpt>
      <trkpt lat="42.654534" lon="0.64652">
        <ele>2873</ele>
        <time>1970-01-01T02:18:26.000Z</time>
      </trkpt>
      <trkpt lat="42.654529" lon="0.646504">
        <ele>2873.1</ele>
        <time>1970-01-01T02:18:27.000Z</time>
      </trkpt>
      <trkpt lat="42.654527" lon="0.646491">
        <ele>2873.3</ele>
        <time>1970-01-01T02:18:29.000Z</time>
      </trkpt>
      <trkpt lat="42.654526" lon="0.646492">
        <ele>2873.3</ele>
        <time>1970-01-01T02:18:30.000Z</time>
      </trkpt>
      <trkpt lat="42.654527" lon="0.646494">
        <ele>2873.3</ele>
        <time>1970-01-01T02:18:31.000Z</time>
      </trkpt>
      <trkpt lat="42.654527" lon="0.646497">
        <ele>2873.3</ele>
        <time>1970-01-01T02:18:32.000Z</time>
      </trkpt>
      <trkpt lat="42.654528" lon="0.6465">
        <ele>2873.4</ele>
        <time>1970-01-01T02:18:33.000Z</time>
      </trkpt>
      <trkpt lat="42.654528" lon="0.646503">
        <ele>2873.4</ele>
        <time>1970-01-01T02:18:34.000Z</time>
      </trkpt>
      <trkpt lat="42.654528" lon="0.646505">
        <ele>2873.4</ele>
        <time>1970-01-01T02:18:35.000Z</time>
      </trkpt>
      <trkpt lat="42.654529" lon="0.646506">
        <ele>2873.4</ele>
        <time>1970-01-01T02:18:36.000Z</time>
      </trkpt>
      <trkpt lat="42.65453" lon="0.646508">
        <ele>2873.5</ele>
        <time>1970-01-01T02:18:37.000Z</time>
      </trkpt>
      <trkpt lat="42.654529" lon="0.646508">
        <ele>2873.5</ele>
        <time>1970-01-01T02:18:38.000Z</time>
      </trkpt>
      <trkpt lat="42.654526" lon="0.646509">
        <ele>2873.5</ele>
        <time>1970-01-01T02:18:40.000Z</time>
      </trkpt>
      <trkpt lat="42.654523" lon="0.646512">
        <ele>2873.6</ele>
        <time>1970-01-01T02:18:41.000Z</time>
      </trkpt>
      <trkpt lat="42.654521" lon="0.646515">
        <ele>2873.6</ele>
        <time>1970-01-01T02:18:42.000Z</time>
      </trkpt>
      <trkpt lat="42.654517" lon="0.646519">
        <ele>2873.7</ele>
        <time>1970-01-01T02:18:44.000Z</time>
      </trkpt>
      <trkpt lat="42.654514" lon="0.646523">
        <ele>2873.7</ele>
        <time>1970-01-01T02:18:45.000Z</time>
      </trkpt>
      <trkpt lat="42.654512" lon="0.646527">
        <ele>2873.7</ele>
        <time>1970-01-01T02:18:46.000Z</time>
      </trkpt>
      <trkpt lat="42.654506" lon="0.646538">
        <ele>2873.8</ele>
        <time>1970-01-01T02:18:47.000Z</time>
      </trkpt>
      <trkpt lat="42.654502" lon="0.646544">
        <ele>2873.9</ele>
        <time>1970-01-01T02:18:48.000Z</time>
      </trkpt>
      <trkpt lat="42.654492" lon="0.646555">
        <ele>2874</ele>
        <time>1970-01-01T02:18:50.000Z</time>
      </trkpt>
      <trkpt lat="42.654482" lon="0.646562">
        <ele>2874.2</ele>
        <time>1970-01-01T02:18:51.000Z</time>
      </trkpt>
      <trkpt lat="42.654473" lon="0.646564">
        <ele>2874.3</ele>
        <time>1970-01-01T02:18:52.000Z</time>
      </trkpt>
      <trkpt lat="42.654468" lon="0.646564">
        <ele>2874.3</ele>
        <time>1970-01-01T02:18:53.000Z</time>
      </trkpt>
      <trkpt lat="42.654465" lon="0.646565">
        <ele>2874.3</ele>
        <time>1970-01-01T02:18:54.000Z</time>
      </trkpt>
      <trkpt lat="42.654464" lon="0.646562">
        <ele>2874.4</ele>
        <time>1970-01-01T02:18:55.000Z</time>
      </trkpt>
      <trkpt lat="42.654463" lon="0.646562">
        <ele>2874.4</ele>
        <time>1970-01-01T02:18:56.000Z</time>
      </trkpt>
      <trkpt lat="42.654463" lon="0.646561">
        <ele>2874.4</ele>
        <time>1970-01-01T02:18:57.000Z</time>
      </trkpt>
      <trkpt lat="42.654462" lon="0.646561">
        <ele>2874.4</ele>
        <time>1970-01-01T02:18:58.000Z</time>
      </trkpt>
      <trkpt lat="42.654462" lon="0.64656">
        <ele>2874.4</ele>
        <time>1970-01-01T02:18:59.000Z</time>
      </trkpt>
      <trkpt lat="42.654461" lon="0.64656">
        <ele>2874.4</ele>
        <time>1970-01-01T02:19:00.000Z</time>
      </trkpt>
      <trkpt lat="42.65446" lon="0.646559">
        <ele>2874.4</ele>
        <time>1970-01-01T02:19:01.000Z</time>
      </trkpt>
      <trkpt lat="42.65446" lon="0.646559">
        <ele>2874.4</ele>
        <time>1970-01-01T02:19:02.000Z</time>
      </trkpt>
      <trkpt lat="42.65446" lon="0.646558">
        <ele>2874.4</ele>
        <time>1970-01-01T02:19:03.000Z</time>
      </trkpt>
      <trkpt lat="42.65446" lon="0.646559">
        <ele>2874.4</ele>
        <time>1970-01-01T02:19:04.000Z</time>
      </trkpt>
      <trkpt lat="42.65446" lon="0.64656">
        <ele>2874.4</ele>
        <time>1970-01-01T02:19:05.000Z</time>
      </trkpt>
      <trkpt lat="42.65446" lon="0.646561">
        <ele>2874.4</ele>
        <time>1970-01-01T02:19:06.000Z</time>
      </trkpt>
      <trkpt lat="42.65446" lon="0.646562">
        <ele>2874.5</ele>
        <time>1970-01-01T02:19:07.000Z</time>
      </trkpt>
      <trkpt lat="42.654459" lon="0.646563">
        <ele>2874.5</ele>
        <time>1970-01-01T02:19:08.000Z</time>
      </trkpt>
      <trkpt lat="42.654459" lon="0.646565">
        <ele>2874.5</ele>
        <time>1970-01-01T02:19:09.000Z</time>
      </trkpt>
      <trkpt lat="42.654459" lon="0.646566">
        <ele>2874.5</ele>
        <time>1970-01-01T02:19:10.000Z</time>
      </trkpt>
      <trkpt lat="42.654459" lon="0.646567">
        <ele>2874.5</ele>
        <time>1970-01-01T02:19:11.000Z</time>
      </trkpt>
      <trkpt lat="42.65446" lon="0.646569">
        <ele>2874.5</ele>
        <time>1970-01-01T02:19:12.000Z</time>
      </trkpt>
      <trkpt lat="42.654459" lon="0.64657">
        <ele>2874.5</ele>
        <time>1970-01-01T02:19:13.000Z</time>
      </trkpt>
      <trkpt lat="42.654458" lon="0.646572">
        <ele>2874.6</ele>
        <time>1970-01-01T02:19:14.000Z</time>
      </trkpt>
      <trkpt lat="42.654457" lon="0.646575">
        <ele>2874.6</ele>
        <time>1970-01-01T02:19:16.000Z</time>
      </trkpt>
      <trkpt lat="42.654456" lon="0.646581">
        <ele>2874.6</ele>
        <time>1970-01-01T02:19:17.000Z</time>
      </trkpt>
      <trkpt lat="42.654455" lon="0.646584">
        <ele>2874.6</ele>
        <time>1970-01-01T02:19:18.000Z</time>
      </trkpt>
      <trkpt lat="42.654457" lon="0.646595">
        <ele>2874.7</ele>
        <time>1970-01-01T02:19:19.000Z</time>
      </trkpt>
      <trkpt lat="42.654458" lon="0.646601">
        <ele>2874.7</ele>
        <time>1970-01-01T02:19:20.000Z</time>
      </trkpt>
      <trkpt lat="42.654457" lon="0.646605">
        <ele>2874.7</ele>
        <time>1970-01-01T02:19:21.000Z</time>
      </trkpt>
      <trkpt lat="42.654456" lon="0.646604">
        <ele>2874.7</ele>
        <time>1970-01-01T02:19:22.000Z</time>
      </trkpt>
      <trkpt lat="42.654455" lon="0.646605">
        <ele>2874.8</ele>
        <time>1970-01-01T02:19:23.000Z</time>
      </trkpt>
      <trkpt lat="42.654454" lon="0.646607">
        <ele>2874.8</ele>
        <time>1970-01-01T02:19:24.000Z</time>
      </trkpt>
      <trkpt lat="42.654453" lon="0.646611">
        <ele>2874.8</ele>
        <time>1970-01-01T02:19:25.000Z</time>
      </trkpt>
      <trkpt lat="42.654452" lon="0.646618">
        <ele>2874.8</ele>
        <time>1970-01-01T02:19:26.000Z</time>
      </trkpt>
      <trkpt lat="42.654451" lon="0.646623">
        <ele>2874.9</ele>
        <time>1970-01-01T02:19:27.000Z</time>
      </trkpt>
      <trkpt lat="42.65445" lon="0.646627">
        <ele>2874.9</ele>
        <time>1970-01-01T02:19:28.000Z</time>
      </trkpt>
      <trkpt lat="42.65445" lon="0.646632">
        <ele>2874.9</ele>
        <time>1970-01-01T02:19:29.000Z</time>
      </trkpt>
      <trkpt lat="42.654449" lon="0.646634">
        <ele>2874.9</ele>
        <time>1970-01-01T02:19:30.000Z</time>
      </trkpt>
      <trkpt lat="42.654448" lon="0.646635">
        <ele>2874.9</ele>
        <time>1970-01-01T02:19:31.000Z</time>
      </trkpt>
      <trkpt lat="42.654447" lon="0.646633">
        <ele>2874.9</ele>
        <time>1970-01-01T02:19:32.000Z</time>
      </trkpt>
      <trkpt lat="42.654444" lon="0.646634">
        <ele>2875</ele>
        <time>1970-01-01T02:19:33.000Z</time>
      </trkpt>
      <trkpt lat="42.654443" lon="0.646635">
        <ele>2875</ele>
        <time>1970-01-01T02:19:34.000Z</time>
      </trkpt>
      <trkpt lat="42.654442" lon="0.646637">
        <ele>2875</ele>
        <time>1970-01-01T02:19:35.000Z</time>
      </trkpt>
      <trkpt lat="42.654442" lon="0.646638">
        <ele>2875</ele>
        <time>1970-01-01T02:19:36.000Z</time>
      </trkpt>
      <trkpt lat="42.654441" lon="0.646639">
        <ele>2875</ele>
        <time>1970-01-01T02:19:37.000Z</time>
      </trkpt>
      <trkpt lat="42.654442" lon="0.646639">
        <ele>2875</ele>
        <time>1970-01-01T02:19:38.000Z</time>
      </trkpt>
      <trkpt lat="42.654442" lon="0.64664">
        <ele>2875</ele>
        <time>1970-01-01T02:19:39.000Z</time>
      </trkpt>
      <trkpt lat="42.654442" lon="0.646641">
        <ele>2875</ele>
        <time>1970-01-01T02:19:40.000Z</time>
      </trkpt>
      <trkpt lat="42.654443" lon="0.646642">
        <ele>2875</ele>
        <time>1970-01-01T02:19:41.000Z</time>
      </trkpt>
      <trkpt lat="42.654443" lon="0.646643">
        <ele>2875</ele>
        <time>1970-01-01T02:19:42.000Z</time>
      </trkpt>
      <trkpt lat="42.654443" lon="0.646644">
        <ele>2875</ele>
        <time>1970-01-01T02:19:43.000Z</time>
      </trkpt>
      <trkpt lat="42.654442" lon="0.646644">
        <ele>2875</ele>
        <time>1970-01-01T02:19:44.000Z</time>
      </trkpt>
      <trkpt lat="42.654442" lon="0.646646">
        <ele>2875.1</ele>
        <time>1970-01-01T02:19:45.000Z</time>
      </trkpt>
      <trkpt lat="42.654441" lon="0.646647">
        <ele>2875.1</ele>
        <time>1970-01-01T02:19:46.000Z</time>
      </trkpt>
      <trkpt lat="42.65444" lon="0.646648">
        <ele>2875.1</ele>
        <time>1970-01-01T02:19:47.000Z</time>
      </trkpt>
      <trkpt lat="42.654439" lon="0.646649">
        <ele>2875.1</ele>
        <time>1970-01-01T02:19:48.000Z</time>
      </trkpt>
      <trkpt lat="42.654439" lon="0.646649">
        <ele>2875.1</ele>
        <time>1970-01-01T02:19:49.000Z</time>
      </trkpt>
      <trkpt lat="42.654439" lon="0.646649">
        <ele>2875.1</ele>
        <time>1970-01-01T02:19:50.000Z</time>
      </trkpt>
      <trkpt lat="42.65444" lon="0.646649">
        <ele>2875.1</ele>
        <time>1970-01-01T02:19:51.000Z</time>
      </trkpt>
      <trkpt lat="42.65444" lon="0.646649">
        <ele>2875.1</ele>
        <time>1970-01-01T02:19:52.000Z</time>
      </trkpt>
      <trkpt lat="42.65444" lon="0.646649">
        <ele>2875.1</ele>
        <time>1970-01-01T02:19:53.000Z</time>
      </trkpt>
      <trkpt lat="42.65444" lon="0.646649">
        <ele>2875.1</ele>
        <time>1970-01-01T02:19:54.000Z</time>
      </trkpt>
      <trkpt lat="42.65444" lon="0.646649">
        <ele>2875.1</ele>
        <time>1970-01-01T02:19:55.000Z</time>
      </trkpt>
      <trkpt lat="42.65444" lon="0.646648">
        <ele>2875.1</ele>
        <time>1970-01-01T02:19:56.000Z</time>
      </trkpt>
      <trkpt lat="42.65444" lon="0.646649">
        <ele>2875.1</ele>
        <time>1970-01-01T02:19:57.000Z</time>
      </trkpt>
      <trkpt lat="42.654439" lon="0.646649">
        <ele>2875.1</ele>
        <time>1970-01-01T02:19:58.000Z</time>
      </trkpt>
      <trkpt lat="42.654439" lon="0.64665">
        <ele>2875.1</ele>
        <time>1970-01-01T02:19:59.000Z</time>
      </trkpt>
      <trkpt lat="42.654439" lon="0.64665">
        <ele>2875.1</ele>
        <time>1970-01-01T02:20:00.000Z</time>
      </trkpt>
      <trkpt lat="42.654439" lon="0.64665">
        <ele>2875.1</ele>
        <time>1970-01-01T02:20:01.000Z</time>
      </trkpt>
      <trkpt lat="42.654438" lon="0.64665">
        <ele>2875.1</ele>
        <time>1970-01-01T02:20:02.000Z</time>
      </trkpt>
      <trkpt lat="42.654437" lon="0.646649">
        <ele>2875.1</ele>
        <time>1970-01-01T02:20:03.000Z</time>
      </trkpt>
      <trkpt lat="42.654436" lon="0.646649">
        <ele>2875.1</ele>
        <time>1970-01-01T02:20:04.000Z</time>
      </trkpt>
      <trkpt lat="42.654435" lon="0.646648">
        <ele>2875.1</ele>
        <time>1970-01-01T02:20:05.000Z</time>
      </trkpt>
      <trkpt lat="42.654435" lon="0.646648">
        <ele>2875.1</ele>
        <time>1970-01-01T02:20:06.000Z</time>
      </trkpt>
      <trkpt lat="42.654434" lon="0.646647">
        <ele>2875.1</ele>
        <time>1970-01-01T02:20:07.000Z</time>
      </trkpt>
      <trkpt lat="42.654433" lon="0.646647">
        <ele>2875.2</ele>
        <time>1970-01-01T02:20:08.000Z</time>
      </trkpt>
      <trkpt lat="42.654432" lon="0.646646">
        <ele>2875.2</ele>
        <time>1970-01-01T02:20:09.000Z</time>
      </trkpt>
      <trkpt lat="42.654431" lon="0.646646">
        <ele>2875.2</ele>
        <time>1970-01-01T02:20:10.000Z</time>
      </trkpt>
      <trkpt lat="42.654431" lon="0.646645">
        <ele>2875.2</ele>
        <time>1970-01-01T02:20:11.000Z</time>
      </trkpt>
      <trkpt lat="42.65443" lon="0.646645">
        <ele>2875.2</ele>
        <time>1970-01-01T02:20:12.000Z</time>
      </trkpt>
      <trkpt lat="42.654429" lon="0.646644">
        <ele>2875.2</ele>
        <time>1970-01-01T02:20:13.000Z</time>
      </trkpt>
      <trkpt lat="42.654428" lon="0.646644">
        <ele>2875.2</ele>
        <time>1970-01-01T02:20:14.000Z</time>
      </trkpt>
      <trkpt lat="42.654427" lon="0.646644">
        <ele>2875.2</ele>
        <time>1970-01-01T02:20:15.000Z</time>
      </trkpt>
      <trkpt lat="42.654427" lon="0.646643">
        <ele>2875.2</ele>
        <time>1970-01-01T02:20:16.000Z</time>
      </trkpt>
      <trkpt lat="42.654426" lon="0.646643">
        <ele>2875.2</ele>
        <time>1970-01-01T02:20:17.000Z</time>
      </trkpt>
      <trkpt lat="42.654425" lon="0.646642">
        <ele>2875.2</ele>
        <time>1970-01-01T02:20:18.000Z</time>
      </trkpt>
      <trkpt lat="42.654424" lon="0.646642">
        <ele>2875.2</ele>
        <time>1970-01-01T02:20:19.000Z</time>
      </trkpt>
      <trkpt lat="42.654423" lon="0.646641">
        <ele>2875.2</ele>
        <time>1970-01-01T02:20:20.000Z</time>
      </trkpt>
      <trkpt lat="42.654423" lon="0.646641">
        <ele>2875.2</ele>
        <time>1970-01-01T02:20:21.000Z</time>
      </trkpt>
      <trkpt lat="42.654422" lon="0.64664">
        <ele>2875.2</ele>
        <time>1970-01-01T02:20:22.000Z</time>
      </trkpt>
      <trkpt lat="42.654421" lon="0.64664">
        <ele>2875.2</ele>
        <time>1970-01-01T02:20:23.000Z</time>
      </trkpt>
      <trkpt lat="42.65442" lon="0.646639">
        <ele>2875.2</ele>
        <time>1970-01-01T02:20:24.000Z</time>
      </trkpt>
      <trkpt lat="42.654419" lon="0.646639">
        <ele>2875.2</ele>
        <time>1970-01-01T02:20:25.000Z</time>
      </trkpt>
      <trkpt lat="42.654419" lon="0.646638">
        <ele>2875.2</ele>
        <time>1970-01-01T02:20:26.000Z</time>
      </trkpt>
      <trkpt lat="42.654418" lon="0.646638">
        <ele>2875.2</ele>
        <time>1970-01-01T02:20:28.000Z</time>
      </trkpt>
      <trkpt lat="42.654417" lon="0.646637">
        <ele>2875.2</ele>
        <time>1970-01-01T02:20:29.000Z</time>
      </trkpt>
      <trkpt lat="42.654416" lon="0.646637">
        <ele>2875.2</ele>
        <time>1970-01-01T02:20:30.000Z</time>
      </trkpt>
      <trkpt lat="42.654415" lon="0.646636">
        <ele>2875.2</ele>
        <time>1970-01-01T02:20:31.000Z</time>
      </trkpt>
      <trkpt lat="42.654415" lon="0.646636">
        <ele>2875.2</ele>
        <time>1970-01-01T02:20:32.000Z</time>
      </trkpt>
      <trkpt lat="42.654414" lon="0.646635">
        <ele>2875.3</ele>
        <time>1970-01-01T02:20:33.000Z</time>
      </trkpt>
      <trkpt lat="42.654413" lon="0.646635">
        <ele>2875.3</ele>
        <time>1970-01-01T02:20:34.000Z</time>
      </trkpt>
      <trkpt lat="42.654412" lon="0.646634">
        <ele>2875.3</ele>
        <time>1970-01-01T02:20:35.000Z</time>
      </trkpt>
      <trkpt lat="42.654411" lon="0.646634">
        <ele>2875.3</ele>
        <time>1970-01-01T02:20:36.000Z</time>
      </trkpt>
      <trkpt lat="42.654411" lon="0.646634">
        <ele>2875.3</ele>
        <time>1970-01-01T02:20:37.000Z</time>
      </trkpt>
      <trkpt lat="42.65441" lon="0.646633">
        <ele>2875.3</ele>
        <time>1970-01-01T02:20:38.000Z</time>
      </trkpt>
      <trkpt lat="42.654409" lon="0.646633">
        <ele>2875.3</ele>
        <time>1970-01-01T02:20:39.000Z</time>
      </trkpt>
      <trkpt lat="42.654408" lon="0.646632">
        <ele>2875.3</ele>
        <time>1970-01-01T02:20:40.000Z</time>
      </trkpt>
      <trkpt lat="42.654407" lon="0.646632">
        <ele>2875.3</ele>
        <time>1970-01-01T02:20:41.000Z</time>
      </trkpt>
      <trkpt lat="42.654407" lon="0.646631">
        <ele>2875.3</ele>
        <time>1970-01-01T02:20:42.000Z</time>
      </trkpt>
      <trkpt lat="42.654406" lon="0.646631">
        <ele>2875.3</ele>
        <time>1970-01-01T02:20:43.000Z</time>
      </trkpt>
      <trkpt lat="42.654405" lon="0.64663">
        <ele>2875.3</ele>
        <time>1970-01-01T02:20:44.000Z</time>
      </trkpt>
      <trkpt lat="42.654404" lon="0.64663">
        <ele>2875.3</ele>
        <time>1970-01-01T02:20:45.000Z</time>
      </trkpt>
      <trkpt lat="42.654403" lon="0.646629">
        <ele>2875.3</ele>
        <time>1970-01-01T02:20:46.000Z</time>
      </trkpt>
      <trkpt lat="42.654403" lon="0.646629">
        <ele>2875.3</ele>
        <time>1970-01-01T02:20:48.000Z</time>
      </trkpt>
      <trkpt lat="42.654402" lon="0.646628">
        <ele>2875.3</ele>
        <time>1970-01-01T02:20:50.000Z</time>
      </trkpt>
      <trkpt lat="42.654401" lon="0.646628">
        <ele>2875.3</ele>
        <time>1970-01-01T02:20:51.000Z</time>
      </trkpt>
      <trkpt lat="42.6544" lon="0.646627">
        <ele>2875.3</ele>
        <time>1970-01-01T02:20:52.000Z</time>
      </trkpt>
      <trkpt lat="42.654399" lon="0.646627">
        <ele>2875.3</ele>
        <time>1970-01-01T02:20:53.000Z</time>
      </trkpt>
      <trkpt lat="42.654399" lon="0.646626">
        <ele>2875.3</ele>
        <time>1970-01-01T02:20:55.000Z</time>
      </trkpt>
      <trkpt lat="42.654398" lon="0.646626">
        <ele>2875.3</ele>
        <time>1970-01-01T02:20:56.000Z</time>
      </trkpt>
      <trkpt lat="42.654397" lon="0.646625">
        <ele>2875.3</ele>
        <time>1970-01-01T02:20:57.000Z</time>
      </trkpt>
      <trkpt lat="42.654396" lon="0.646625">
        <ele>2875.3</ele>
        <time>1970-01-01T02:20:58.000Z</time>
      </trkpt>
      <trkpt lat="42.654382" lon="0.646613">
        <ele>2875.4</ele>
        <time>1970-01-01T02:20:59.000Z</time>
      </trkpt>
      <trkpt lat="42.654367" lon="0.646608">
        <ele>2875.4</ele>
        <time>1970-01-01T02:21:00.000Z</time>
      </trkpt>
      <trkpt lat="42.654358" lon="0.646612">
        <ele>2875.5</ele>
        <time>1970-01-01T02:21:02.000Z</time>
      </trkpt>
      <trkpt lat="42.654358" lon="0.646613">
        <ele>2875.5</ele>
        <time>1970-01-01T02:21:03.000Z</time>
      </trkpt>
      <trkpt lat="42.654358" lon="0.646612">
        <ele>2875.5</ele>
        <time>1970-01-01T02:21:04.000Z</time>
      </trkpt>
      <trkpt lat="42.654357" lon="0.646609">
        <ele>2875.5</ele>
        <time>1970-01-01T02:21:05.000Z</time>
      </trkpt>
      <trkpt lat="42.654359" lon="0.646606">
        <ele>2875.5</ele>
        <time>1970-01-01T02:21:06.000Z</time>
      </trkpt>
      <trkpt lat="42.654359" lon="0.646606">
        <ele>2875.5</ele>
        <time>1970-01-01T02:21:07.000Z</time>
      </trkpt>
      <trkpt lat="42.654361" lon="0.646607">
        <ele>2875.5</ele>
        <time>1970-01-01T02:21:08.000Z</time>
      </trkpt>
      <trkpt lat="42.654363" lon="0.646608">
        <ele>2875.5</ele>
        <time>1970-01-01T02:21:10.000Z</time>
      </trkpt>
      <trkpt lat="42.654362" lon="0.646608">
        <ele>2875.5</ele>
        <time>1970-01-01T02:21:12.000Z</time>
      </trkpt>
      <trkpt lat="42.654362" lon="0.646606">
        <ele>2875.5</ele>
        <time>1970-01-01T02:21:13.000Z</time>
      </trkpt>
      <trkpt lat="42.654361" lon="0.646605">
        <ele>2875.5</ele>
        <time>1970-01-01T02:21:14.000Z</time>
      </trkpt>
      <trkpt lat="42.654361" lon="0.646604">
        <ele>2875.5</ele>
        <time>1970-01-01T02:21:15.000Z</time>
      </trkpt>
      <trkpt lat="42.654359" lon="0.6466">
        <ele>2875.5</ele>
        <time>1970-01-01T02:21:16.000Z</time>
      </trkpt>
      <trkpt lat="42.654358" lon="0.646595">
        <ele>2875.5</ele>
        <time>1970-01-01T02:21:17.000Z</time>
      </trkpt>
      <trkpt lat="42.654356" lon="0.64659">
        <ele>2875.5</ele>
        <time>1970-01-01T02:21:19.000Z</time>
      </trkpt>
      <trkpt lat="42.654356" lon="0.646587">
        <ele>2875.5</ele>
        <time>1970-01-01T02:21:20.000Z</time>
      </trkpt>
      <trkpt lat="42.654355" lon="0.646584">
        <ele>2875.5</ele>
        <time>1970-01-01T02:21:21.000Z</time>
      </trkpt>
      <trkpt lat="42.654354" lon="0.646581">
        <ele>2875.5</ele>
        <time>1970-01-01T02:21:22.000Z</time>
      </trkpt>
      <trkpt lat="42.654353" lon="0.64658">
        <ele>2875.5</ele>
        <time>1970-01-01T02:21:23.000Z</time>
      </trkpt>
      <trkpt lat="42.654353" lon="0.646579">
        <ele>2875.5</ele>
        <time>1970-01-01T02:21:24.000Z</time>
      </trkpt>
      <trkpt lat="42.654353" lon="0.646579">
        <ele>2875.5</ele>
        <time>1970-01-01T02:21:25.000Z</time>
      </trkpt>
      <trkpt lat="42.654354" lon="0.646579">
        <ele>2875.5</ele>
        <time>1970-01-01T02:21:26.000Z</time>
      </trkpt>
      <trkpt lat="42.654354" lon="0.646578">
        <ele>2875.5</ele>
        <time>1970-01-01T02:21:27.000Z</time>
      </trkpt>
      <trkpt lat="42.654354" lon="0.646578">
        <ele>2875.5</ele>
        <time>1970-01-01T02:21:28.000Z</time>
      </trkpt>
      <trkpt lat="42.654353" lon="0.646578">
        <ele>2875.5</ele>
        <time>1970-01-01T02:21:29.000Z</time>
      </trkpt>
      <trkpt lat="42.654353" lon="0.646578">
        <ele>2875.5</ele>
        <time>1970-01-01T02:21:30.000Z</time>
      </trkpt>
      <trkpt lat="42.654353" lon="0.646578">
        <ele>2875.5</ele>
        <time>1970-01-01T02:21:31.000Z</time>
      </trkpt>
      <trkpt lat="42.654354" lon="0.646579">
        <ele>2875.5</ele>
        <time>1970-01-01T02:21:32.000Z</time>
      </trkpt>
      <trkpt lat="42.654354" lon="0.64658">
        <ele>2875.5</ele>
        <time>1970-01-01T02:21:33.000Z</time>
      </trkpt>
      <trkpt lat="42.654355" lon="0.646581">
        <ele>2875.5</ele>
        <time>1970-01-01T02:21:34.000Z</time>
      </trkpt>
      <trkpt lat="42.654355" lon="0.646581">
        <ele>2875.5</ele>
        <time>1970-01-01T02:21:35.000Z</time>
      </trkpt>
      <trkpt lat="42.654355" lon="0.646581">
        <ele>2875.5</ele>
        <time>1970-01-01T02:21:36.000Z</time>
      </trkpt>
      <trkpt lat="42.654355" lon="0.646583">
        <ele>2875.5</ele>
        <time>1970-01-01T02:21:37.000Z</time>
      </trkpt>
      <trkpt lat="42.654355" lon="0.646583">
        <ele>2875.5</ele>
        <time>1970-01-01T02:21:38.000Z</time>
      </trkpt>
      <trkpt lat="42.654355" lon="0.646583">
        <ele>2875.5</ele>
        <time>1970-01-01T02:21:39.000Z</time>
      </trkpt>
      <trkpt lat="42.654355" lon="0.646591">
        <ele>2875.5</ele>
        <time>1970-01-01T02:21:40.000Z</time>
      </trkpt>
      <trkpt lat="42.654355" lon="0.646595">
        <ele>2875.5</ele>
        <time>1970-01-01T02:21:41.000Z</time>
      </trkpt>
      <trkpt lat="42.654356" lon="0.646597">
        <ele>2875.5</ele>
        <time>1970-01-01T02:21:42.000Z</time>
      </trkpt>
      <trkpt lat="42.654356" lon="0.646598">
        <ele>2875.5</ele>
        <time>1970-01-01T02:21:43.000Z</time>
      </trkpt>
      <trkpt lat="42.654356" lon="0.646598">
        <ele>2875.5</ele>
        <time>1970-01-01T02:21:44.000Z</time>
      </trkpt>
      <trkpt lat="42.654355" lon="0.646598">
        <ele>2875.5</ele>
        <time>1970-01-01T02:21:45.000Z</time>
      </trkpt>
      <trkpt lat="42.654355" lon="0.646598">
        <ele>2875.5</ele>
        <time>1970-01-01T02:21:46.000Z</time>
      </trkpt>
      <trkpt lat="42.654355" lon="0.646598">
        <ele>2875.5</ele>
        <time>1970-01-01T02:21:47.000Z</time>
      </trkpt>
      <trkpt lat="42.654355" lon="0.646598">
        <ele>2875.5</ele>
        <time>1970-01-01T02:21:48.000Z</time>
      </trkpt>
      <trkpt lat="42.654352" lon="0.646597">
        <ele>2875.5</ele>
        <time>1970-01-01T02:21:49.000Z</time>
      </trkpt>
      <trkpt lat="42.65435" lon="0.646599">
        <ele>2875.5</ele>
        <time>1970-01-01T02:21:50.000Z</time>
      </trkpt>
      <trkpt lat="42.654347" lon="0.6466">
        <ele>2875.5</ele>
        <time>1970-01-01T02:21:51.000Z</time>
      </trkpt>
      <trkpt lat="42.654346" lon="0.646602">
        <ele>2875.5</ele>
        <time>1970-01-01T02:21:52.000Z</time>
      </trkpt>
      <trkpt lat="42.654345" lon="0.646603">
        <ele>2875.5</ele>
        <time>1970-01-01T02:21:53.000Z</time>
      </trkpt>
      <trkpt lat="42.654344" lon="0.646605">
        <ele>2875.5</ele>
        <time>1970-01-01T02:21:54.000Z</time>
      </trkpt>
      <trkpt lat="42.654343" lon="0.646607">
        <ele>2875.5</ele>
        <time>1970-01-01T02:21:55.000Z</time>
      </trkpt>
      <trkpt lat="42.654343" lon="0.646608">
        <ele>2875.5</ele>
        <time>1970-01-01T02:21:56.000Z</time>
      </trkpt>
      <trkpt lat="42.654343" lon="0.646609">
        <ele>2875.5</ele>
        <time>1970-01-01T02:21:57.000Z</time>
      </trkpt>
      <trkpt lat="42.654342" lon="0.64661">
        <ele>2875.5</ele>
        <time>1970-01-01T02:21:58.000Z</time>
      </trkpt>
      <trkpt lat="42.654345" lon="0.646613">
        <ele>2875.5</ele>
        <time>1970-01-01T02:21:59.000Z</time>
      </trkpt>
      <trkpt lat="42.654347" lon="0.646616">
        <ele>2875.5</ele>
        <time>1970-01-01T02:22:00.000Z</time>
      </trkpt>
      <trkpt lat="42.654348" lon="0.646617">
        <ele>2875.5</ele>
        <time>1970-01-01T02:22:01.000Z</time>
      </trkpt>
      <trkpt lat="42.654349" lon="0.646617">
        <ele>2875.5</ele>
        <time>1970-01-01T02:22:02.000Z</time>
      </trkpt>
      <trkpt lat="42.654349" lon="0.646617">
        <ele>2875.5</ele>
        <time>1970-01-01T02:22:03.000Z</time>
      </trkpt>
      <trkpt lat="42.654349" lon="0.646618">
        <ele>2875.5</ele>
        <time>1970-01-01T02:22:04.000Z</time>
      </trkpt>
      <trkpt lat="42.654353" lon="0.646606">
        <ele>2875.5</ele>
        <time>1970-01-01T02:22:05.000Z</time>
      </trkpt>
      <trkpt lat="42.654355" lon="0.646603">
        <ele>2875.5</ele>
        <time>1970-01-01T02:22:06.000Z</time>
      </trkpt>
      <trkpt lat="42.654355" lon="0.646604">
        <ele>2875.5</ele>
        <time>1970-01-01T02:22:07.000Z</time>
      </trkpt>
      <trkpt lat="42.654355" lon="0.646606">
        <ele>2875.5</ele>
        <time>1970-01-01T02:22:09.000Z</time>
      </trkpt>
      <trkpt lat="42.654354" lon="0.646609">
        <ele>2875.5</ele>
        <time>1970-01-01T02:22:10.000Z</time>
      </trkpt>
      <trkpt lat="42.654353" lon="0.64661">
        <ele>2875.5</ele>
        <time>1970-01-01T02:22:11.000Z</time>
      </trkpt>
      <trkpt lat="42.654353" lon="0.64661">
        <ele>2875.5</ele>
        <time>1970-01-01T02:22:12.000Z</time>
      </trkpt>
      <trkpt lat="42.654352" lon="0.646611">
        <ele>2875.5</ele>
        <time>1970-01-01T02:22:13.000Z</time>
      </trkpt>
      <trkpt lat="42.654352" lon="0.646609">
        <ele>2875.5</ele>
        <time>1970-01-01T02:22:14.000Z</time>
      </trkpt>
      <trkpt lat="42.654351" lon="0.646607">
        <ele>2875.5</ele>
        <time>1970-01-01T02:22:15.000Z</time>
      </trkpt>
      <trkpt lat="42.65435" lon="0.646604">
        <ele>2875.5</ele>
        <time>1970-01-01T02:22:16.000Z</time>
      </trkpt>
      <trkpt lat="42.654349" lon="0.646603">
        <ele>2875.5</ele>
        <time>1970-01-01T02:22:17.000Z</time>
      </trkpt>
      <trkpt lat="42.654347" lon="0.646603">
        <ele>2875.5</ele>
        <time>1970-01-01T02:22:18.000Z</time>
      </trkpt>
      <trkpt lat="42.654345" lon="0.646603">
        <ele>2875.5</ele>
        <time>1970-01-01T02:22:19.000Z</time>
      </trkpt>
      <trkpt lat="42.654343" lon="0.646602">
        <ele>2875.5</ele>
        <time>1970-01-01T02:22:20.000Z</time>
      </trkpt>
      <trkpt lat="42.654341" lon="0.646602">
        <ele>2875.5</ele>
        <time>1970-01-01T02:22:21.000Z</time>
      </trkpt>
      <trkpt lat="42.65434" lon="0.646602">
        <ele>2875.5</ele>
        <time>1970-01-01T02:22:22.000Z</time>
      </trkpt>
      <trkpt lat="42.65434" lon="0.646602">
        <ele>2875.5</ele>
        <time>1970-01-01T02:22:23.000Z</time>
      </trkpt>
      <trkpt lat="42.654339" lon="0.646602">
        <ele>2875.5</ele>
        <time>1970-01-01T02:22:24.000Z</time>
      </trkpt>
      <trkpt lat="42.654337" lon="0.646602">
        <ele>2875.5</ele>
        <time>1970-01-01T02:22:25.000Z</time>
      </trkpt>
      <trkpt lat="42.654335" lon="0.646601">
        <ele>2875.5</ele>
        <time>1970-01-01T02:22:27.000Z</time>
      </trkpt>
      <trkpt lat="42.654334" lon="0.646599">
        <ele>2875.5</ele>
        <time>1970-01-01T02:22:28.000Z</time>
      </trkpt>
      <trkpt lat="42.654334" lon="0.646595">
        <ele>2875.5</ele>
        <time>1970-01-01T02:22:30.000Z</time>
      </trkpt>
      <trkpt lat="42.654333" lon="0.646594">
        <ele>2875.5</ele>
        <time>1970-01-01T02:22:31.000Z</time>
      </trkpt>
      <trkpt lat="42.65433" lon="0.646593">
        <ele>2875.5</ele>
        <time>1970-01-01T02:22:32.000Z</time>
      </trkpt>
      <trkpt lat="42.654328" lon="0.646591">
        <ele>2875.5</ele>
        <time>1970-01-01T02:22:33.000Z</time>
      </trkpt>
      <trkpt lat="42.654324" lon="0.646594">
        <ele>2875.5</ele>
        <time>1970-01-01T02:22:35.000Z</time>
      </trkpt>
      <trkpt lat="42.654322" lon="0.646595">
        <ele>2875.5</ele>
        <time>1970-01-01T02:22:36.000Z</time>
      </trkpt>
      <trkpt lat="42.65432" lon="0.646597">
        <ele>2875.5</ele>
        <time>1970-01-01T02:22:37.000Z</time>
      </trkpt>
      <trkpt lat="42.654314" lon="0.646601">
        <ele>2875.5</ele>
        <time>1970-01-01T02:22:38.000Z</time>
      </trkpt>
      <trkpt lat="42.65431" lon="0.646605">
        <ele>2875.5</ele>
        <time>1970-01-01T02:22:40.000Z</time>
      </trkpt>
      <trkpt lat="42.654306" lon="0.646611">
        <ele>2875.4</ele>
        <time>1970-01-01T02:22:41.000Z</time>
      </trkpt>
      <trkpt lat="42.6543" lon="0.64661">
        <ele>2875.4</ele>
        <time>1970-01-01T02:22:42.000Z</time>
      </trkpt>
      <trkpt lat="42.654296" lon="0.646606">
        <ele>2875.4</ele>
        <time>1970-01-01T02:22:44.000Z</time>
      </trkpt>
      <trkpt lat="42.654291" lon="0.646598">
        <ele>2875.4</ele>
        <time>1970-01-01T02:22:45.000Z</time>
      </trkpt>
      <trkpt lat="42.65428" lon="0.646587">
        <ele>2875.2</ele>
        <time>1970-01-01T02:22:46.000Z</time>
      </trkpt>
      <trkpt lat="42.654275" lon="0.646583">
        <ele>2875.2</ele>
        <time>1970-01-01T02:22:47.000Z</time>
      </trkpt>
      <trkpt lat="42.654271" lon="0.646576">
        <ele>2875.1</ele>
        <time>1970-01-01T02:22:48.000Z</time>
      </trkpt>
      <trkpt lat="42.654268" lon="0.646563">
        <ele>2875</ele>
        <time>1970-01-01T02:22:49.000Z</time>
      </trkpt>
      <trkpt lat="42.654267" lon="0.646547">
        <ele>2874.9</ele>
        <time>1970-01-01T02:22:50.000Z</time>
      </trkpt>
      <trkpt lat="42.654268" lon="0.646531">
        <ele>2874.7</ele>
        <time>1970-01-01T02:22:52.000Z</time>
      </trkpt>
      <trkpt lat="42.654272" lon="0.646514">
        <ele>2874.6</ele>
        <time>1970-01-01T02:22:53.000Z</time>
      </trkpt>
      <trkpt lat="42.654274" lon="0.646503">
        <ele>2874.5</ele>
        <time>1970-01-01T02:22:54.000Z</time>
      </trkpt>
      <trkpt lat="42.654276" lon="0.646497">
        <ele>2874.5</ele>
        <time>1970-01-01T02:22:55.000Z</time>
      </trkpt>
      <trkpt lat="42.654277" lon="0.646491">
        <ele>2874.4</ele>
        <time>1970-01-01T02:22:56.000Z</time>
      </trkpt>
      <trkpt lat="42.654279" lon="0.64649">
        <ele>2874.4</ele>
        <time>1970-01-01T02:22:57.000Z</time>
      </trkpt>
      <trkpt lat="42.654279" lon="0.646487">
        <ele>2874.4</ele>
        <time>1970-01-01T02:22:58.000Z</time>
      </trkpt>
      <trkpt lat="42.654279" lon="0.646486">
        <ele>2874.4</ele>
        <time>1970-01-01T02:22:59.000Z</time>
      </trkpt>
      <trkpt lat="42.654279" lon="0.646487">
        <ele>2874.4</ele>
        <time>1970-01-01T02:23:00.000Z</time>
      </trkpt>
      <trkpt lat="42.654278" lon="0.646488">
        <ele>2874.4</ele>
        <time>1970-01-01T02:23:01.000Z</time>
      </trkpt>
      <trkpt lat="42.654278" lon="0.646489">
        <ele>2874.4</ele>
        <time>1970-01-01T02:23:02.000Z</time>
      </trkpt>
      <trkpt lat="42.654277" lon="0.646489">
        <ele>2874.4</ele>
        <time>1970-01-01T02:23:03.000Z</time>
      </trkpt>
      <trkpt lat="42.654276" lon="0.646489">
        <ele>2874.4</ele>
        <time>1970-01-01T02:23:04.000Z</time>
      </trkpt>
      <trkpt lat="42.654276" lon="0.646489">
        <ele>2874.4</ele>
        <time>1970-01-01T02:23:05.000Z</time>
      </trkpt>
      <trkpt lat="42.654275" lon="0.64649">
        <ele>2874.3</ele>
        <time>1970-01-01T02:23:06.000Z</time>
      </trkpt>
      <trkpt lat="42.654275" lon="0.64649">
        <ele>2874.3</ele>
        <time>1970-01-01T02:23:07.000Z</time>
      </trkpt>
      <trkpt lat="42.654275" lon="0.646489">
        <ele>2874.3</ele>
        <time>1970-01-01T02:23:08.000Z</time>
      </trkpt>
      <trkpt lat="42.654274" lon="0.646487">
        <ele>2874.3</ele>
        <time>1970-01-01T02:23:09.000Z</time>
      </trkpt>
      <trkpt lat="42.654272" lon="0.646486">
        <ele>2874.3</ele>
        <time>1970-01-01T02:23:10.000Z</time>
      </trkpt>
      <trkpt lat="42.65427" lon="0.646484">
        <ele>2874.3</ele>
        <time>1970-01-01T02:23:11.000Z</time>
      </trkpt>
      <trkpt lat="42.654268" lon="0.646484">
        <ele>2874.3</ele>
        <time>1970-01-01T02:23:12.000Z</time>
      </trkpt>
      <trkpt lat="42.654266" lon="0.646483">
        <ele>2874.2</ele>
        <time>1970-01-01T02:23:13.000Z</time>
      </trkpt>
      <trkpt lat="42.654263" lon="0.646483">
        <ele>2874.2</ele>
        <time>1970-01-01T02:23:14.000Z</time>
      </trkpt>
      <trkpt lat="42.65426" lon="0.646483">
        <ele>2874.2</ele>
        <time>1970-01-01T02:23:15.000Z</time>
      </trkpt>
      <trkpt lat="42.654251" lon="0.646489">
        <ele>2874.1</ele>
        <time>1970-01-01T02:23:16.000Z</time>
      </trkpt>
      <trkpt lat="42.654246" lon="0.646491">
        <ele>2874</ele>
        <time>1970-01-01T02:23:17.000Z</time>
      </trkpt>
      <trkpt lat="42.654247" lon="0.646487">
        <ele>2874</ele>
        <time>1970-01-01T02:23:18.000Z</time>
      </trkpt>
      <trkpt lat="42.654246" lon="0.646484">
        <ele>2874</ele>
        <time>1970-01-01T02:23:19.000Z</time>
      </trkpt>
      <trkpt lat="42.654242" lon="0.646484">
        <ele>2874</ele>
        <time>1970-01-01T02:23:20.000Z</time>
      </trkpt>
      <trkpt lat="42.654237" lon="0.646483">
        <ele>2873.9</ele>
        <time>1970-01-01T02:23:22.000Z</time>
      </trkpt>
      <trkpt lat="42.654235" lon="0.646485">
        <ele>2873.9</ele>
        <time>1970-01-01T02:23:23.000Z</time>
      </trkpt>
      <trkpt lat="42.654231" lon="0.646486">
        <ele>2873.9</ele>
        <time>1970-01-01T02:23:24.000Z</time>
      </trkpt>
      <trkpt lat="42.654226" lon="0.646486">
        <ele>2873.9</ele>
        <time>1970-01-01T02:23:25.000Z</time>
      </trkpt>
      <trkpt lat="42.654223" lon="0.646483">
        <ele>2873.8</ele>
        <time>1970-01-01T02:23:27.000Z</time>
      </trkpt>
      <trkpt lat="42.654221" lon="0.646478">
        <ele>2873.8</ele>
        <time>1970-01-01T02:23:28.000Z</time>
      </trkpt>
      <trkpt lat="42.654219" lon="0.646476">
        <ele>2873.8</ele>
        <time>1970-01-01T02:23:29.000Z</time>
      </trkpt>
      <trkpt lat="42.654205" lon="0.646457">
        <ele>2873.6</ele>
        <time>1970-01-01T02:23:30.000Z</time>
      </trkpt>
      <trkpt lat="42.654203" lon="0.64643">
        <ele>2873.5</ele>
        <time>1970-01-01T02:23:32.000Z</time>
      </trkpt>
      <trkpt lat="42.654192" lon="0.646414">
        <ele>2873.5</ele>
        <time>1970-01-01T02:23:33.000Z</time>
      </trkpt>
      <trkpt lat="42.654189" lon="0.646395">
        <ele>2873.4</ele>
        <time>1970-01-01T02:23:34.000Z</time>
      </trkpt>
      <trkpt lat="42.654188" lon="0.646378">
        <ele>2873.3</ele>
        <time>1970-01-01T02:23:35.000Z</time>
      </trkpt>
      <trkpt lat="42.654187" lon="0.646366">
        <ele>2873.3</ele>
        <time>1970-01-01T02:23:36.000Z</time>
      </trkpt>
      <trkpt lat="42.654184" lon="0.646351">
        <ele>2873.3</ele>
        <time>1970-01-01T02:23:37.000Z</time>
      </trkpt>
      <trkpt lat="42.654177" lon="0.646327">
        <ele>2873.2</ele>
        <time>1970-01-01T02:23:38.000Z</time>
      </trkpt>
      <trkpt lat="42.654172" lon="0.646316">
        <ele>2873.2</ele>
        <time>1970-01-01T02:23:40.000Z</time>
      </trkpt>
      <trkpt lat="42.654168" lon="0.646306">
        <ele>2873.2</ele>
        <time>1970-01-01T02:23:41.000Z</time>
      </trkpt>
      <trkpt lat="42.654161" lon="0.646296">
        <ele>2873.2</ele>
        <time>1970-01-01T02:23:42.000Z</time>
      </trkpt>
      <trkpt lat="42.654153" lon="0.646283">
        <ele>2873.2</ele>
        <time>1970-01-01T02:23:43.000Z</time>
      </trkpt>
      <trkpt lat="42.654144" lon="0.646272">
        <ele>2873.2</ele>
        <time>1970-01-01T02:23:44.000Z</time>
      </trkpt>
      <trkpt lat="42.654138" lon="0.64626">
        <ele>2873.2</ele>
        <time>1970-01-01T02:23:45.000Z</time>
      </trkpt>
      <trkpt lat="42.65413" lon="0.646251">
        <ele>2873.2</ele>
        <time>1970-01-01T02:23:46.000Z</time>
      </trkpt>
      <trkpt lat="42.654123" lon="0.64624">
        <ele>2873.2</ele>
        <time>1970-01-01T02:23:48.000Z</time>
      </trkpt>
      <trkpt lat="42.654117" lon="0.646231">
        <ele>2873.2</ele>
        <time>1970-01-01T02:23:49.000Z</time>
      </trkpt>
      <trkpt lat="42.654111" lon="0.646233">
        <ele>2873.2</ele>
        <time>1970-01-01T02:23:50.000Z</time>
      </trkpt>
      <trkpt lat="42.654107" lon="0.646239">
        <ele>2873.2</ele>
        <time>1970-01-01T02:23:51.000Z</time>
      </trkpt>
      <trkpt lat="42.654104" lon="0.646247">
        <ele>2873.2</ele>
        <time>1970-01-01T02:23:52.000Z</time>
      </trkpt>
      <trkpt lat="42.654102" lon="0.646254">
        <ele>2873.2</ele>
        <time>1970-01-01T02:23:53.000Z</time>
      </trkpt>
      <trkpt lat="42.654099" lon="0.646263">
        <ele>2873.2</ele>
        <time>1970-01-01T02:23:54.000Z</time>
      </trkpt>
      <trkpt lat="42.654096" lon="0.646266">
        <ele>2873.2</ele>
        <time>1970-01-01T02:23:56.000Z</time>
      </trkpt>
      <trkpt lat="42.654092" lon="0.646262">
        <ele>2873.2</ele>
        <time>1970-01-01T02:23:57.000Z</time>
      </trkpt>
      <trkpt lat="42.65409" lon="0.646262">
        <ele>2873.2</ele>
        <time>1970-01-01T02:23:58.000Z</time>
      </trkpt>
      <trkpt lat="42.654089" lon="0.646263">
        <ele>2873.2</ele>
        <time>1970-01-01T02:23:59.000Z</time>
      </trkpt>
      <trkpt lat="42.654088" lon="0.646266">
        <ele>2873.2</ele>
        <time>1970-01-01T02:24:00.000Z</time>
      </trkpt>
      <trkpt lat="42.654086" lon="0.646266">
        <ele>2873.2</ele>
        <time>1970-01-01T02:24:01.000Z</time>
      </trkpt>
      <trkpt lat="42.654082" lon="0.646264">
        <ele>2873.2</ele>
        <time>1970-01-01T02:24:02.000Z</time>
      </trkpt>
      <trkpt lat="42.654077" lon="0.646262">
        <ele>2873.2</ele>
        <time>1970-01-01T02:24:03.000Z</time>
      </trkpt>
      <trkpt lat="42.654072" lon="0.646264">
        <ele>2873.2</ele>
        <time>1970-01-01T02:24:04.000Z</time>
      </trkpt>
      <trkpt lat="42.654063" lon="0.646269">
        <ele>2873.2</ele>
        <time>1970-01-01T02:24:06.000Z</time>
      </trkpt>
      <trkpt lat="42.654053" lon="0.646271">
        <ele>2873.3</ele>
        <time>1970-01-01T02:24:07.000Z</time>
      </trkpt>
      <trkpt lat="42.654045" lon="0.64627">
        <ele>2873.3</ele>
        <time>1970-01-01T02:24:08.000Z</time>
      </trkpt>
      <trkpt lat="42.654035" lon="0.646269">
        <ele>2873.3</ele>
        <time>1970-01-01T02:24:09.000Z</time>
      </trkpt>
      <trkpt lat="42.65403" lon="0.646269">
        <ele>2873.3</ele>
        <time>1970-01-01T02:24:10.000Z</time>
      </trkpt>
      <trkpt lat="42.654024" lon="0.646268">
        <ele>2873.3</ele>
        <time>1970-01-01T02:24:11.000Z</time>
      </trkpt>
      <trkpt lat="42.65402" lon="0.646268">
        <ele>2873.3</ele>
        <time>1970-01-01T02:24:12.000Z</time>
      </trkpt>
      <trkpt lat="42.654017" lon="0.646268">
        <ele>2873.3</ele>
        <time>1970-01-01T02:24:13.000Z</time>
      </trkpt>
      <trkpt lat="42.654015" lon="0.646269">
        <ele>2873.3</ele>
        <time>1970-01-01T02:24:14.000Z</time>
      </trkpt>
      <trkpt lat="42.654014" lon="0.64627">
        <ele>2873.3</ele>
        <time>1970-01-01T02:24:15.000Z</time>
      </trkpt>
      <trkpt lat="42.654014" lon="0.646271">
        <ele>2873.3</ele>
        <time>1970-01-01T02:24:16.000Z</time>
      </trkpt>
      <trkpt lat="42.654013" lon="0.646273">
        <ele>2873.3</ele>
        <time>1970-01-01T02:24:17.000Z</time>
      </trkpt>
      <trkpt lat="42.654012" lon="0.646275">
        <ele>2873.3</ele>
        <time>1970-01-01T02:24:18.000Z</time>
      </trkpt>
      <trkpt lat="42.654011" lon="0.646276">
        <ele>2873.3</ele>
        <time>1970-01-01T02:24:19.000Z</time>
      </trkpt>
      <trkpt lat="42.65401" lon="0.646279">
        <ele>2873.3</ele>
        <time>1970-01-01T02:24:20.000Z</time>
      </trkpt>
      <trkpt lat="42.654009" lon="0.64628">
        <ele>2873.3</ele>
        <time>1970-01-01T02:24:21.000Z</time>
      </trkpt>
      <trkpt lat="42.654009" lon="0.64628">
        <ele>2873.3</ele>
        <time>1970-01-01T02:24:22.000Z</time>
      </trkpt>
      <trkpt lat="42.654008" lon="0.646281">
        <ele>2873.3</ele>
        <time>1970-01-01T02:24:23.000Z</time>
      </trkpt>
      <trkpt lat="42.654007" lon="0.646283">
        <ele>2873.3</ele>
        <time>1970-01-01T02:24:24.000Z</time>
      </trkpt>
      <trkpt lat="42.654006" lon="0.646284">
        <ele>2873.4</ele>
        <time>1970-01-01T02:24:25.000Z</time>
      </trkpt>
      <trkpt lat="42.654006" lon="0.646286">
        <ele>2873.4</ele>
        <time>1970-01-01T02:24:26.000Z</time>
      </trkpt>
      <trkpt lat="42.654005" lon="0.646287">
        <ele>2873.4</ele>
        <time>1970-01-01T02:24:27.000Z</time>
      </trkpt>
      <trkpt lat="42.654004" lon="0.64629">
        <ele>2873.4</ele>
        <time>1970-01-01T02:24:28.000Z</time>
      </trkpt>
      <trkpt lat="42.654004" lon="0.646292">
        <ele>2873.4</ele>
        <time>1970-01-01T02:24:29.000Z</time>
      </trkpt>
      <trkpt lat="42.654004" lon="0.646293">
        <ele>2873.4</ele>
        <time>1970-01-01T02:24:30.000Z</time>
      </trkpt>
      <trkpt lat="42.654002" lon="0.646296">
        <ele>2873.4</ele>
        <time>1970-01-01T02:24:31.000Z</time>
      </trkpt>
      <trkpt lat="42.654003" lon="0.6463">
        <ele>2873.4</ele>
        <time>1970-01-01T02:24:32.000Z</time>
      </trkpt>
      <trkpt lat="42.654005" lon="0.646302">
        <ele>2873.4</ele>
        <time>1970-01-01T02:24:33.000Z</time>
      </trkpt>
      <trkpt lat="42.654006" lon="0.646304">
        <ele>2873.4</ele>
        <time>1970-01-01T02:24:34.000Z</time>
      </trkpt>
      <trkpt lat="42.654008" lon="0.646305">
        <ele>2873.4</ele>
        <time>1970-01-01T02:24:35.000Z</time>
      </trkpt>
      <trkpt lat="42.654009" lon="0.646306">
        <ele>2873.4</ele>
        <time>1970-01-01T02:24:36.000Z</time>
      </trkpt>
      <trkpt lat="42.65401" lon="0.646307">
        <ele>2873.4</ele>
        <time>1970-01-01T02:24:37.000Z</time>
      </trkpt>
      <trkpt lat="42.65401" lon="0.646307">
        <ele>2873.4</ele>
        <time>1970-01-01T02:24:38.000Z</time>
      </trkpt>
      <trkpt lat="42.65401" lon="0.646308">
        <ele>2873.4</ele>
        <time>1970-01-01T02:24:39.000Z</time>
      </trkpt>
      <trkpt lat="42.65401" lon="0.646308">
        <ele>2873.4</ele>
        <time>1970-01-01T02:24:40.000Z</time>
      </trkpt>
      <trkpt lat="42.654012" lon="0.646309">
        <ele>2873.4</ele>
        <time>1970-01-01T02:24:42.000Z</time>
      </trkpt>
      <trkpt lat="42.654012" lon="0.64631">
        <ele>2873.4</ele>
        <time>1970-01-01T02:24:43.000Z</time>
      </trkpt>
      <trkpt lat="42.654012" lon="0.64631">
        <ele>2873.4</ele>
        <time>1970-01-01T02:24:44.000Z</time>
      </trkpt>
      <trkpt lat="42.654013" lon="0.646311">
        <ele>2873.4</ele>
        <time>1970-01-01T02:24:45.000Z</time>
      </trkpt>
      <trkpt lat="42.654012" lon="0.646311">
        <ele>2873.4</ele>
        <time>1970-01-01T02:24:46.000Z</time>
      </trkpt>
      <trkpt lat="42.654012" lon="0.646312">
        <ele>2873.4</ele>
        <time>1970-01-01T02:24:47.000Z</time>
      </trkpt>
      <trkpt lat="42.654012" lon="0.646312">
        <ele>2873.4</ele>
        <time>1970-01-01T02:24:48.000Z</time>
      </trkpt>
      <trkpt lat="42.654012" lon="0.646312">
        <ele>2873.4</ele>
        <time>1970-01-01T02:24:49.000Z</time>
      </trkpt>
      <trkpt lat="42.654012" lon="0.646312">
        <ele>2873.4</ele>
        <time>1970-01-01T02:24:50.000Z</time>
      </trkpt>
      <trkpt lat="42.654012" lon="0.646312">
        <ele>2873.4</ele>
        <time>1970-01-01T02:24:51.000Z</time>
      </trkpt>
      <trkpt lat="42.654012" lon="0.646312">
        <ele>2873.4</ele>
        <time>1970-01-01T02:24:52.000Z</time>
      </trkpt>
      <trkpt lat="42.654012" lon="0.646312">
        <ele>2873.4</ele>
        <time>1970-01-01T02:24:53.000Z</time>
      </trkpt>
      <trkpt lat="42.654011" lon="0.646312">
        <ele>2873.4</ele>
        <time>1970-01-01T02:24:54.000Z</time>
      </trkpt>
      <trkpt lat="42.654011" lon="0.646312">
        <ele>2873.4</ele>
        <time>1970-01-01T02:24:55.000Z</time>
      </trkpt>
      <trkpt lat="42.654008" lon="0.646312">
        <ele>2873.4</ele>
        <time>1970-01-01T02:24:56.000Z</time>
      </trkpt>
      <trkpt lat="42.654006" lon="0.646312">
        <ele>2873.4</ele>
        <time>1970-01-01T02:24:57.000Z</time>
      </trkpt>
      <trkpt lat="42.654006" lon="0.646312">
        <ele>2873.4</ele>
        <time>1970-01-01T02:24:58.000Z</time>
      </trkpt>
      <trkpt lat="42.654005" lon="0.646312">
        <ele>2873.4</ele>
        <time>1970-01-01T02:24:59.000Z</time>
      </trkpt>
      <trkpt lat="42.654005" lon="0.646312">
        <ele>2873.4</ele>
        <time>1970-01-01T02:25:00.000Z</time>
      </trkpt>
      <trkpt lat="42.654005" lon="0.646312">
        <ele>2873.4</ele>
        <time>1970-01-01T02:25:01.000Z</time>
      </trkpt>
      <trkpt lat="42.654005" lon="0.646312">
        <ele>2873.4</ele>
        <time>1970-01-01T02:25:02.000Z</time>
      </trkpt>
      <trkpt lat="42.654005" lon="0.646312">
        <ele>2873.4</ele>
        <time>1970-01-01T02:25:03.000Z</time>
      </trkpt>
      <trkpt lat="42.654005" lon="0.646312">
        <ele>2873.4</ele>
        <time>1970-01-01T02:25:04.000Z</time>
      </trkpt>
      <trkpt lat="42.654005" lon="0.646312">
        <ele>2873.4</ele>
        <time>1970-01-01T02:25:05.000Z</time>
      </trkpt>
      <trkpt lat="42.654005" lon="0.646312">
        <ele>2873.4</ele>
        <time>1970-01-01T02:25:06.000Z</time>
      </trkpt>
      <trkpt lat="42.654005" lon="0.646312">
        <ele>2873.4</ele>
        <time>1970-01-01T02:25:07.000Z</time>
      </trkpt>
      <trkpt lat="42.654005" lon="0.646312">
        <ele>2873.4</ele>
        <time>1970-01-01T02:25:08.000Z</time>
      </trkpt>
      <trkpt lat="42.654005" lon="0.646312">
        <ele>2873.4</ele>
        <time>1970-01-01T02:25:09.000Z</time>
      </trkpt>
      <trkpt lat="42.654005" lon="0.646312">
        <ele>2873.4</ele>
        <time>1970-01-01T02:25:10.000Z</time>
      </trkpt>
      <trkpt lat="42.654005" lon="0.646312">
        <ele>2873.4</ele>
        <time>1970-01-01T02:25:11.000Z</time>
      </trkpt>
      <trkpt lat="42.654005" lon="0.646312">
        <ele>2873.4</ele>
        <time>1970-01-01T02:25:12.000Z</time>
      </trkpt>
      <trkpt lat="42.654005" lon="0.646312">
        <ele>2873.4</ele>
        <time>1970-01-01T02:25:13.000Z</time>
      </trkpt>
      <trkpt lat="42.654005" lon="0.646312">
        <ele>2873.4</ele>
        <time>1970-01-01T02:25:14.000Z</time>
      </trkpt>
      <trkpt lat="42.654005" lon="0.646312">
        <ele>2873.4</ele>
        <time>1970-01-01T02:25:15.000Z</time>
      </trkpt>
      <trkpt lat="42.654005" lon="0.646312">
        <ele>2873.4</ele>
        <time>1970-01-01T02:25:16.000Z</time>
      </trkpt>
      <trkpt lat="42.654005" lon="0.646312">
        <ele>2873.4</ele>
        <time>1970-01-01T02:25:17.000Z</time>
      </trkpt>
      <trkpt lat="42.654005" lon="0.646312">
        <ele>2873.4</ele>
        <time>1970-01-01T02:25:18.000Z</time>
      </trkpt>
      <trkpt lat="42.654005" lon="0.646312">
        <ele>2873.4</ele>
        <time>1970-01-01T02:25:19.000Z</time>
      </trkpt>
      <trkpt lat="42.654005" lon="0.646312">
        <ele>2873.4</ele>
        <time>1970-01-01T02:25:20.000Z</time>
      </trkpt>
      <trkpt lat="42.654005" lon="0.646312">
        <ele>2873.4</ele>
        <time>1970-01-01T02:25:21.000Z</time>
      </trkpt>
      <trkpt lat="42.654005" lon="0.646312">
        <ele>2873.4</ele>
        <time>1970-01-01T02:25:22.000Z</time>
      </trkpt>
      <trkpt lat="42.654005" lon="0.646312">
        <ele>2873.4</ele>
        <time>1970-01-01T02:25:23.000Z</time>
      </trkpt>
      <trkpt lat="42.654005" lon="0.646312">
        <ele>2873.4</ele>
        <time>1970-01-01T02:25:24.000Z</time>
      </trkpt>
      <trkpt lat="42.654005" lon="0.646312">
        <ele>2873.4</ele>
        <time>1970-01-01T02:25:25.000Z</time>
      </trkpt>
      <trkpt lat="42.654005" lon="0.646312">
        <ele>2873.4</ele>
        <time>1970-01-01T02:25:26.000Z</time>
      </trkpt>
      <trkpt lat="42.654005" lon="0.646312">
        <ele>2873.4</ele>
        <time>1970-01-01T02:25:27.000Z</time>
      </trkpt>
      <trkpt lat="42.654005" lon="0.646313">
        <ele>2873.4</ele>
        <time>1970-01-01T02:25:28.000Z</time>
      </trkpt>
      <trkpt lat="42.654005" lon="0.646313">
        <ele>2873.4</ele>
        <time>1970-01-01T02:25:29.000Z</time>
      </trkpt>
      <trkpt lat="42.654005" lon="0.646313">
        <ele>2873.4</ele>
        <time>1970-01-01T02:25:30.000Z</time>
      </trkpt>
      <trkpt lat="42.654005" lon="0.646313">
        <ele>2873.4</ele>
        <time>1970-01-01T02:25:31.000Z</time>
      </trkpt>
      <trkpt lat="42.654005" lon="0.646313">
        <ele>2873.4</ele>
        <time>1970-01-01T02:25:32.000Z</time>
      </trkpt>
      <trkpt lat="42.654005" lon="0.646313">
        <ele>2873.4</ele>
        <time>1970-01-01T02:25:33.000Z</time>
      </trkpt>
      <trkpt lat="42.654005" lon="0.646313">
        <ele>2873.4</ele>
        <time>1970-01-01T02:25:34.000Z</time>
      </trkpt>
      <trkpt lat="42.654005" lon="0.646313">
        <ele>2873.4</ele>
        <time>1970-01-01T02:25:35.000Z</time>
      </trkpt>
      <trkpt lat="42.654004" lon="0.646313">
        <ele>2873.4</ele>
        <time>1970-01-01T02:25:36.000Z</time>
      </trkpt>
      <trkpt lat="42.654002" lon="0.646313">
        <ele>2873.4</ele>
        <time>1970-01-01T02:25:37.000Z</time>
      </trkpt>
      <trkpt lat="42.654001" lon="0.646313">
        <ele>2873.4</ele>
        <time>1970-01-01T02:25:38.000Z</time>
      </trkpt>
      <trkpt lat="42.654" lon="0.646313">
        <ele>2873.4</ele>
        <time>1970-01-01T02:25:39.000Z</time>
      </trkpt>
      <trkpt lat="42.654" lon="0.646314">
        <ele>2873.4</ele>
        <time>1970-01-01T02:25:40.000Z</time>
      </trkpt>
      <trkpt lat="42.654" lon="0.646314">
        <ele>2873.4</ele>
        <time>1970-01-01T02:25:41.000Z</time>
      </trkpt>
      <trkpt lat="42.654" lon="0.646314">
        <ele>2873.4</ele>
        <time>1970-01-01T02:25:42.000Z</time>
      </trkpt>
      <trkpt lat="42.654" lon="0.646314">
        <ele>2873.4</ele>
        <time>1970-01-01T02:25:43.000Z</time>
      </trkpt>
      <trkpt lat="42.654" lon="0.646314">
        <ele>2873.4</ele>
        <time>1970-01-01T02:25:44.000Z</time>
      </trkpt>
      <trkpt lat="42.654" lon="0.646314">
        <ele>2873.4</ele>
        <time>1970-01-01T02:25:45.000Z</time>
      </trkpt>
      <trkpt lat="42.654" lon="0.646314">
        <ele>2873.4</ele>
        <time>1970-01-01T02:25:46.000Z</time>
      </trkpt>
      <trkpt lat="42.654" lon="0.646314">
        <ele>2873.4</ele>
        <time>1970-01-01T02:25:47.000Z</time>
      </trkpt>
      <trkpt lat="42.654" lon="0.646314">
        <ele>2873.4</ele>
        <time>1970-01-01T02:25:48.000Z</time>
      </trkpt>
      <trkpt lat="42.654" lon="0.646314">
        <ele>2873.4</ele>
        <time>1970-01-01T02:25:49.000Z</time>
      </trkpt>
      <trkpt lat="42.654" lon="0.646314">
        <ele>2873.4</ele>
        <time>1970-01-01T02:25:50.000Z</time>
      </trkpt>
      <trkpt lat="42.654" lon="0.646314">
        <ele>2873.4</ele>
        <time>1970-01-01T02:25:51.000Z</time>
      </trkpt>
      <trkpt lat="42.654" lon="0.646314">
        <ele>2873.4</ele>
        <time>1970-01-01T02:25:52.000Z</time>
      </trkpt>
      <trkpt lat="42.654" lon="0.646314">
        <ele>2873.4</ele>
        <time>1970-01-01T02:25:53.000Z</time>
      </trkpt>
      <trkpt lat="42.654" lon="0.646314">
        <ele>2873.4</ele>
        <time>1970-01-01T02:25:54.000Z</time>
      </trkpt>
      <trkpt lat="42.654" lon="0.646314">
        <ele>2873.4</ele>
        <time>1970-01-01T02:25:55.000Z</time>
      </trkpt>
      <trkpt lat="42.654" lon="0.646314">
        <ele>2873.4</ele>
        <time>1970-01-01T02:25:56.000Z</time>
      </trkpt>
      <trkpt lat="42.654" lon="0.646315">
        <ele>2873.4</ele>
        <time>1970-01-01T02:25:57.000Z</time>
      </trkpt>
      <trkpt lat="42.654" lon="0.646315">
        <ele>2873.4</ele>
        <time>1970-01-01T02:25:58.000Z</time>
      </trkpt>
      <trkpt lat="42.654" lon="0.646315">
        <ele>2873.4</ele>
        <time>1970-01-01T02:25:59.000Z</time>
      </trkpt>
      <trkpt lat="42.654" lon="0.646315">
        <ele>2873.4</ele>
        <time>1970-01-01T02:26:00.000Z</time>
      </trkpt>
      <trkpt lat="42.654" lon="0.646315">
        <ele>2873.4</ele>
        <time>1970-01-01T02:26:01.000Z</time>
      </trkpt>
      <trkpt lat="42.654" lon="0.646315">
        <ele>2873.4</ele>
        <time>1970-01-01T02:26:02.000Z</time>
      </trkpt>
      <trkpt lat="42.654" lon="0.646315">
        <ele>2873.4</ele>
        <time>1970-01-01T02:26:03.000Z</time>
      </trkpt>
      <trkpt lat="42.653999" lon="0.646315">
        <ele>2873.4</ele>
        <time>1970-01-01T02:26:04.000Z</time>
      </trkpt>
      <trkpt lat="42.653999" lon="0.646315">
        <ele>2873.4</ele>
        <time>1970-01-01T02:26:05.000Z</time>
      </trkpt>
      <trkpt lat="42.653999" lon="0.646315">
        <ele>2873.4</ele>
        <time>1970-01-01T02:26:06.000Z</time>
      </trkpt>
      <trkpt lat="42.653999" lon="0.646315">
        <ele>2873.4</ele>
        <time>1970-01-01T02:26:07.000Z</time>
      </trkpt>
      <trkpt lat="42.653999" lon="0.646315">
        <ele>2873.4</ele>
        <time>1970-01-01T02:26:08.000Z</time>
      </trkpt>
      <trkpt lat="42.653999" lon="0.646315">
        <ele>2873.4</ele>
        <time>1970-01-01T02:26:09.000Z</time>
      </trkpt>
      <trkpt lat="42.653999" lon="0.646315">
        <ele>2873.4</ele>
        <time>1970-01-01T02:26:10.000Z</time>
      </trkpt>
      <trkpt lat="42.653999" lon="0.646315">
        <ele>2873.4</ele>
        <time>1970-01-01T02:26:11.000Z</time>
      </trkpt>
      <trkpt lat="42.653999" lon="0.646315">
        <ele>2873.4</ele>
        <time>1970-01-01T02:26:12.000Z</time>
      </trkpt>
      <trkpt lat="42.653999" lon="0.646315">
        <ele>2873.4</ele>
        <time>1970-01-01T02:26:13.000Z</time>
      </trkpt>
      <trkpt lat="42.653999" lon="0.646315">
        <ele>2873.4</ele>
        <time>1970-01-01T02:26:14.000Z</time>
      </trkpt>
      <trkpt lat="42.653999" lon="0.646316">
        <ele>2873.4</ele>
        <time>1970-01-01T02:26:15.000Z</time>
      </trkpt>
      <trkpt lat="42.653999" lon="0.646316">
        <ele>2873.4</ele>
        <time>1970-01-01T02:26:16.000Z</time>
      </trkpt>
      <trkpt lat="42.653999" lon="0.646316">
        <ele>2873.4</ele>
        <time>1970-01-01T02:26:17.000Z</time>
      </trkpt>
      <trkpt lat="42.653999" lon="0.646316">
        <ele>2873.4</ele>
        <time>1970-01-01T02:26:18.000Z</time>
      </trkpt>
      <trkpt lat="42.653999" lon="0.646316">
        <ele>2873.4</ele>
        <time>1970-01-01T02:26:19.000Z</time>
      </trkpt>
      <trkpt lat="42.653999" lon="0.646316">
        <ele>2873.4</ele>
        <time>1970-01-01T02:26:20.000Z</time>
      </trkpt>
      <trkpt lat="42.653999" lon="0.646316">
        <ele>2873.4</ele>
        <time>1970-01-01T02:26:21.000Z</time>
      </trkpt>
      <trkpt lat="42.653999" lon="0.646316">
        <ele>2873.4</ele>
        <time>1970-01-01T02:26:22.000Z</time>
      </trkpt>
      <trkpt lat="42.653999" lon="0.646316">
        <ele>2873.4</ele>
        <time>1970-01-01T02:26:23.000Z</time>
      </trkpt>
      <trkpt lat="42.653999" lon="0.646316">
        <ele>2873.4</ele>
        <time>1970-01-01T02:26:24.000Z</time>
      </trkpt>
      <trkpt lat="42.653998" lon="0.646316">
        <ele>2873.4</ele>
        <time>1970-01-01T02:26:25.000Z</time>
      </trkpt>
      <trkpt lat="42.653998" lon="0.646317">
        <ele>2873.4</ele>
        <time>1970-01-01T02:26:26.000Z</time>
      </trkpt>
      <trkpt lat="42.653998" lon="0.646317">
        <ele>2873.4</ele>
        <time>1970-01-01T02:26:27.000Z</time>
      </trkpt>
      <trkpt lat="42.653998" lon="0.646317">
        <ele>2873.4</ele>
        <time>1970-01-01T02:26:28.000Z</time>
      </trkpt>
      <trkpt lat="42.653998" lon="0.646317">
        <ele>2873.4</ele>
        <time>1970-01-01T02:26:29.000Z</time>
      </trkpt>
      <trkpt lat="42.653998" lon="0.646317">
        <ele>2873.4</ele>
        <time>1970-01-01T02:26:30.000Z</time>
      </trkpt>
      <trkpt lat="42.653998" lon="0.646317">
        <ele>2873.4</ele>
        <time>1970-01-01T02:26:31.000Z</time>
      </trkpt>
      <trkpt lat="42.653998" lon="0.646317">
        <ele>2873.4</ele>
        <time>1970-01-01T02:26:32.000Z</time>
      </trkpt>
      <trkpt lat="42.653998" lon="0.646317">
        <ele>2873.4</ele>
        <time>1970-01-01T02:26:33.000Z</time>
      </trkpt>
      <trkpt lat="42.653998" lon="0.646317">
        <ele>2873.4</ele>
        <time>1970-01-01T02:26:34.000Z</time>
      </trkpt>
      <trkpt lat="42.653998" lon="0.646317">
        <ele>2873.4</ele>
        <time>1970-01-01T02:26:35.000Z</time>
      </trkpt>
      <trkpt lat="42.653998" lon="0.646317">
        <ele>2873.4</ele>
        <time>1970-01-01T02:26:36.000Z</time>
      </trkpt>
      <trkpt lat="42.653998" lon="0.646318">
        <ele>2873.4</ele>
        <time>1970-01-01T02:26:37.000Z</time>
      </trkpt>
      <trkpt lat="42.653998" lon="0.646318">
        <ele>2873.4</ele>
        <time>1970-01-01T02:26:38.000Z</time>
      </trkpt>
      <trkpt lat="42.653998" lon="0.646318">
        <ele>2873.4</ele>
        <time>1970-01-01T02:26:39.000Z</time>
      </trkpt>
      <trkpt lat="42.653998" lon="0.646318">
        <ele>2873.4</ele>
        <time>1970-01-01T02:26:40.000Z</time>
      </trkpt>
      <trkpt lat="42.653998" lon="0.646318">
        <ele>2873.4</ele>
        <time>1970-01-01T02:26:41.000Z</time>
      </trkpt>
      <trkpt lat="42.653997" lon="0.646318">
        <ele>2873.4</ele>
        <time>1970-01-01T02:26:42.000Z</time>
      </trkpt>
      <trkpt lat="42.653997" lon="0.646318">
        <ele>2873.4</ele>
        <time>1970-01-01T02:26:43.000Z</time>
      </trkpt>
      <trkpt lat="42.653997" lon="0.646318">
        <ele>2873.4</ele>
        <time>1970-01-01T02:26:44.000Z</time>
      </trkpt>
      <trkpt lat="42.653997" lon="0.646318">
        <ele>2873.4</ele>
        <time>1970-01-01T02:26:45.000Z</time>
      </trkpt>
      <trkpt lat="42.653997" lon="0.646318">
        <ele>2873.4</ele>
        <time>1970-01-01T02:26:46.000Z</time>
      </trkpt>
      <trkpt lat="42.653997" lon="0.646318">
        <ele>2873.4</ele>
        <time>1970-01-01T02:26:47.000Z</time>
      </trkpt>
      <trkpt lat="42.653997" lon="0.646318">
        <ele>2873.4</ele>
        <time>1970-01-01T02:26:48.000Z</time>
      </trkpt>
      <trkpt lat="42.653997" lon="0.646319">
        <ele>2873.4</ele>
        <time>1970-01-01T02:26:49.000Z</time>
      </trkpt>
      <trkpt lat="42.653997" lon="0.646319">
        <ele>2873.4</ele>
        <time>1970-01-01T02:26:50.000Z</time>
      </trkpt>
      <trkpt lat="42.653997" lon="0.646319">
        <ele>2873.4</ele>
        <time>1970-01-01T02:26:51.000Z</time>
      </trkpt>
      <trkpt lat="42.653997" lon="0.646319">
        <ele>2873.4</ele>
        <time>1970-01-01T02:26:52.000Z</time>
      </trkpt>
      <trkpt lat="42.653997" lon="0.646319">
        <ele>2873.4</ele>
        <time>1970-01-01T02:26:53.000Z</time>
      </trkpt>
      <trkpt lat="42.653997" lon="0.646319">
        <ele>2873.4</ele>
        <time>1970-01-01T02:26:54.000Z</time>
      </trkpt>
      <trkpt lat="42.653997" lon="0.646319">
        <ele>2873.4</ele>
        <time>1970-01-01T02:26:55.000Z</time>
      </trkpt>
      <trkpt lat="42.653997" lon="0.646319">
        <ele>2873.4</ele>
        <time>1970-01-01T02:26:56.000Z</time>
      </trkpt>
      <trkpt lat="42.653997" lon="0.646319">
        <ele>2873.4</ele>
        <time>1970-01-01T02:26:57.000Z</time>
      </trkpt>
      <trkpt lat="42.653997" lon="0.646319">
        <ele>2873.4</ele>
        <time>1970-01-01T02:26:58.000Z</time>
      </trkpt>
      <trkpt lat="42.653996" lon="0.646319">
        <ele>2873.4</ele>
        <time>1970-01-01T02:26:59.000Z</time>
      </trkpt>
      <trkpt lat="42.653996" lon="0.646319">
        <ele>2873.4</ele>
        <time>1970-01-01T02:27:00.000Z</time>
      </trkpt>
      <trkpt lat="42.653996" lon="0.646319">
        <ele>2873.4</ele>
        <time>1970-01-01T02:27:01.000Z</time>
      </trkpt>
      <trkpt lat="42.653996" lon="0.646319">
        <ele>2873.4</ele>
        <time>1970-01-01T02:27:02.000Z</time>
      </trkpt>
      <trkpt lat="42.653996" lon="0.646319">
        <ele>2873.4</ele>
        <time>1970-01-01T02:27:03.000Z</time>
      </trkpt>
      <trkpt lat="42.653996" lon="0.646319">
        <ele>2873.4</ele>
        <time>1970-01-01T02:27:04.000Z</time>
      </trkpt>
      <trkpt lat="42.653996" lon="0.646319">
        <ele>2873.4</ele>
        <time>1970-01-01T02:27:05.000Z</time>
      </trkpt>
      <trkpt lat="42.653996" lon="0.64632">
        <ele>2873.4</ele>
        <time>1970-01-01T02:27:06.000Z</time>
      </trkpt>
      <trkpt lat="42.653996" lon="0.64632">
        <ele>2873.4</ele>
        <time>1970-01-01T02:27:07.000Z</time>
      </trkpt>
      <trkpt lat="42.653996" lon="0.64632">
        <ele>2873.4</ele>
        <time>1970-01-01T02:27:08.000Z</time>
      </trkpt>
      <trkpt lat="42.653996" lon="0.64632">
        <ele>2873.4</ele>
        <time>1970-01-01T02:27:09.000Z</time>
      </trkpt>
      <trkpt lat="42.653996" lon="0.64632">
        <ele>2873.4</ele>
        <time>1970-01-01T02:27:10.000Z</time>
      </trkpt>
      <trkpt lat="42.653996" lon="0.64632">
        <ele>2873.4</ele>
        <time>1970-01-01T02:27:11.000Z</time>
      </trkpt>
      <trkpt lat="42.653996" lon="0.64632">
        <ele>2873.4</ele>
        <time>1970-01-01T02:27:12.000Z</time>
      </trkpt>
      <trkpt lat="42.653996" lon="0.64632">
        <ele>2873.4</ele>
        <time>1970-01-01T02:27:13.000Z</time>
      </trkpt>
      <trkpt lat="42.653996" lon="0.64632">
        <ele>2873.4</ele>
        <time>1970-01-01T02:27:14.000Z</time>
      </trkpt>
      <trkpt lat="42.653996" lon="0.64632">
        <ele>2873.4</ele>
        <time>1970-01-01T02:27:15.000Z</time>
      </trkpt>
      <trkpt lat="42.653996" lon="0.64632">
        <ele>2873.4</ele>
        <time>1970-01-01T02:27:16.000Z</time>
      </trkpt>
      <trkpt lat="42.653996" lon="0.64632">
        <ele>2873.4</ele>
        <time>1970-01-01T02:27:17.000Z</time>
      </trkpt>
      <trkpt lat="42.653996" lon="0.64632">
        <ele>2873.4</ele>
        <time>1970-01-01T02:27:18.000Z</time>
      </trkpt>
      <trkpt lat="42.653996" lon="0.646321">
        <ele>2873.4</ele>
        <time>1970-01-01T02:27:19.000Z</time>
      </trkpt>
      <trkpt lat="42.653996" lon="0.646321">
        <ele>2873.4</ele>
        <time>1970-01-01T02:27:20.000Z</time>
      </trkpt>
      <trkpt lat="42.653996" lon="0.646321">
        <ele>2873.4</ele>
        <time>1970-01-01T02:27:21.000Z</time>
      </trkpt>
      <trkpt lat="42.653996" lon="0.646321">
        <ele>2873.4</ele>
        <time>1970-01-01T02:27:22.000Z</time>
      </trkpt>
      <trkpt lat="42.653996" lon="0.646321">
        <ele>2873.4</ele>
        <time>1970-01-01T02:27:23.000Z</time>
      </trkpt>
      <trkpt lat="42.653995" lon="0.646321">
        <ele>2873.4</ele>
        <time>1970-01-01T02:27:24.000Z</time>
      </trkpt>
      <trkpt lat="42.653995" lon="0.646321">
        <ele>2873.4</ele>
        <time>1970-01-01T02:27:25.000Z</time>
      </trkpt>
      <trkpt lat="42.653995" lon="0.646321">
        <ele>2873.4</ele>
        <time>1970-01-01T02:27:26.000Z</time>
      </trkpt>
      <trkpt lat="42.653995" lon="0.646321">
        <ele>2873.4</ele>
        <time>1970-01-01T02:27:27.000Z</time>
      </trkpt>
      <trkpt lat="42.653995" lon="0.646321">
        <ele>2873.4</ele>
        <time>1970-01-01T02:27:28.000Z</time>
      </trkpt>
      <trkpt lat="42.653995" lon="0.646321">
        <ele>2873.4</ele>
        <time>1970-01-01T02:27:29.000Z</time>
      </trkpt>
      <trkpt lat="42.653995" lon="0.646321">
        <ele>2873.4</ele>
        <time>1970-01-01T02:27:30.000Z</time>
      </trkpt>
      <trkpt lat="42.653995" lon="0.646321">
        <ele>2873.4</ele>
        <time>1970-01-01T02:27:31.000Z</time>
      </trkpt>
      <trkpt lat="42.653995" lon="0.646321">
        <ele>2873.4</ele>
        <time>1970-01-01T02:27:32.000Z</time>
      </trkpt>
      <trkpt lat="42.653995" lon="0.646321">
        <ele>2873.4</ele>
        <time>1970-01-01T02:27:33.000Z</time>
      </trkpt>
      <trkpt lat="42.653995" lon="0.646321">
        <ele>2873.4</ele>
        <time>1970-01-01T02:27:34.000Z</time>
      </trkpt>
      <trkpt lat="42.653995" lon="0.646321">
        <ele>2873.4</ele>
        <time>1970-01-01T02:27:35.000Z</time>
      </trkpt>
      <trkpt lat="42.653995" lon="0.646321">
        <ele>2873.4</ele>
        <time>1970-01-01T02:27:36.000Z</time>
      </trkpt>
      <trkpt lat="42.653995" lon="0.646321">
        <ele>2873.4</ele>
        <time>1970-01-01T02:27:37.000Z</time>
      </trkpt>
      <trkpt lat="42.653995" lon="0.646321">
        <ele>2873.4</ele>
        <time>1970-01-01T02:27:38.000Z</time>
      </trkpt>
      <trkpt lat="42.653995" lon="0.646321">
        <ele>2873.4</ele>
        <time>1970-01-01T02:27:39.000Z</time>
      </trkpt>
      <trkpt lat="42.653995" lon="0.646321">
        <ele>2873.4</ele>
        <time>1970-01-01T02:27:40.000Z</time>
      </trkpt>
      <trkpt lat="42.653995" lon="0.646321">
        <ele>2873.4</ele>
        <time>1970-01-01T02:27:41.000Z</time>
      </trkpt>
      <trkpt lat="42.653995" lon="0.646321">
        <ele>2873.4</ele>
        <time>1970-01-01T02:27:42.000Z</time>
      </trkpt>
      <trkpt lat="42.653995" lon="0.646321">
        <ele>2873.4</ele>
        <time>1970-01-01T02:27:43.000Z</time>
      </trkpt>
      <trkpt lat="42.653995" lon="0.646321">
        <ele>2873.4</ele>
        <time>1970-01-01T02:27:44.000Z</time>
      </trkpt>
      <trkpt lat="42.653995" lon="0.646321">
        <ele>2873.4</ele>
        <time>1970-01-01T02:27:45.000Z</time>
      </trkpt>
      <trkpt lat="42.653995" lon="0.646321">
        <ele>2873.4</ele>
        <time>1970-01-01T02:27:46.000Z</time>
      </trkpt>
      <trkpt lat="42.653995" lon="0.646321">
        <ele>2873.4</ele>
        <time>1970-01-01T02:27:47.000Z</time>
      </trkpt>
      <trkpt lat="42.653995" lon="0.646321">
        <ele>2873.4</ele>
        <time>1970-01-01T02:27:48.000Z</time>
      </trkpt>
      <trkpt lat="42.653995" lon="0.646321">
        <ele>2873.4</ele>
        <time>1970-01-01T02:27:49.000Z</time>
      </trkpt>
      <trkpt lat="42.653995" lon="0.646321">
        <ele>2873.4</ele>
        <time>1970-01-01T02:27:50.000Z</time>
      </trkpt>
      <trkpt lat="42.653995" lon="0.646321">
        <ele>2873.4</ele>
        <time>1970-01-01T02:27:51.000Z</time>
      </trkpt>
      <trkpt lat="42.653995" lon="0.646321">
        <ele>2873.4</ele>
        <time>1970-01-01T02:27:52.000Z</time>
      </trkpt>
      <trkpt lat="42.653995" lon="0.646321">
        <ele>2873.4</ele>
        <time>1970-01-01T02:27:53.000Z</time>
      </trkpt>
      <trkpt lat="42.653995" lon="0.646321">
        <ele>2873.4</ele>
        <time>1970-01-01T02:27:54.000Z</time>
      </trkpt>
      <trkpt lat="42.653995" lon="0.646321">
        <ele>2873.4</ele>
        <time>1970-01-01T02:27:55.000Z</time>
      </trkpt>
      <trkpt lat="42.653995" lon="0.646321">
        <ele>2873.4</ele>
        <time>1970-01-01T02:27:56.000Z</time>
      </trkpt>
      <trkpt lat="42.653995" lon="0.646321">
        <ele>2873.4</ele>
        <time>1970-01-01T02:27:57.000Z</time>
      </trkpt>
      <trkpt lat="42.653995" lon="0.646321">
        <ele>2873.4</ele>
        <time>1970-01-01T02:27:58.000Z</time>
      </trkpt>
      <trkpt lat="42.653995" lon="0.646321">
        <ele>2873.4</ele>
        <time>1970-01-01T02:27:59.000Z</time>
      </trkpt>
      <trkpt lat="42.653995" lon="0.646321">
        <ele>2873.4</ele>
        <time>1970-01-01T02:28:00.000Z</time>
      </trkpt>
      <trkpt lat="42.653994" lon="0.646321">
        <ele>2873.4</ele>
        <time>1970-01-01T02:28:01.000Z</time>
      </trkpt>
      <trkpt lat="42.653994" lon="0.646322">
        <ele>2873.4</ele>
        <time>1970-01-01T02:28:02.000Z</time>
      </trkpt>
      <trkpt lat="42.653994" lon="0.646322">
        <ele>2873.4</ele>
        <time>1970-01-01T02:28:03.000Z</time>
      </trkpt>
      <trkpt lat="42.653994" lon="0.646322">
        <ele>2873.4</ele>
        <time>1970-01-01T02:28:04.000Z</time>
      </trkpt>
      <trkpt lat="42.653994" lon="0.646322">
        <ele>2873.4</ele>
        <time>1970-01-01T02:28:05.000Z</time>
      </trkpt>
      <trkpt lat="42.653994" lon="0.646322">
        <ele>2873.4</ele>
        <time>1970-01-01T02:28:06.000Z</time>
      </trkpt>
      <trkpt lat="42.653994" lon="0.646322">
        <ele>2873.4</ele>
        <time>1970-01-01T02:28:07.000Z</time>
      </trkpt>
      <trkpt lat="42.653994" lon="0.646322">
        <ele>2873.4</ele>
        <time>1970-01-01T02:28:08.000Z</time>
      </trkpt>
      <trkpt lat="42.653994" lon="0.646322">
        <ele>2873.4</ele>
        <time>1970-01-01T02:28:09.000Z</time>
      </trkpt>
      <trkpt lat="42.653994" lon="0.646322">
        <ele>2873.4</ele>
        <time>1970-01-01T02:28:10.000Z</time>
      </trkpt>
      <trkpt lat="42.653994" lon="0.646322">
        <ele>2873.4</ele>
        <time>1970-01-01T02:28:11.000Z</time>
      </trkpt>
      <trkpt lat="42.653994" lon="0.646322">
        <ele>2873.4</ele>
        <time>1970-01-01T02:28:12.000Z</time>
      </trkpt>
      <trkpt lat="42.653994" lon="0.646322">
        <ele>2873.4</ele>
        <time>1970-01-01T02:28:13.000Z</time>
      </trkpt>
      <trkpt lat="42.653994" lon="0.646322">
        <ele>2873.4</ele>
        <time>1970-01-01T02:28:14.000Z</time>
      </trkpt>
      <trkpt lat="42.653994" lon="0.646322">
        <ele>2873.4</ele>
        <time>1970-01-01T02:28:15.000Z</time>
      </trkpt>
      <trkpt lat="42.653994" lon="0.646322">
        <ele>2873.4</ele>
        <time>1970-01-01T02:28:16.000Z</time>
      </trkpt>
      <trkpt lat="42.653994" lon="0.646322">
        <ele>2873.4</ele>
        <time>1970-01-01T02:28:17.000Z</time>
      </trkpt>
      <trkpt lat="42.653994" lon="0.646322">
        <ele>2873.4</ele>
        <time>1970-01-01T02:28:18.000Z</time>
      </trkpt>
      <trkpt lat="42.653994" lon="0.646322">
        <ele>2873.4</ele>
        <time>1970-01-01T02:28:19.000Z</time>
      </trkpt>
      <trkpt lat="42.653994" lon="0.646322">
        <ele>2873.4</ele>
        <time>1970-01-01T02:28:20.000Z</time>
      </trkpt>
      <trkpt lat="42.653994" lon="0.646322">
        <ele>2873.4</ele>
        <time>1970-01-01T02:28:21.000Z</time>
      </trkpt>
      <trkpt lat="42.653994" lon="0.646322">
        <ele>2873.4</ele>
        <time>1970-01-01T02:28:22.000Z</time>
      </trkpt>
      <trkpt lat="42.653994" lon="0.646322">
        <ele>2873.4</ele>
        <time>1970-01-01T02:28:23.000Z</time>
      </trkpt>
      <trkpt lat="42.653994" lon="0.646322">
        <ele>2873.4</ele>
        <time>1970-01-01T02:28:24.000Z</time>
      </trkpt>
      <trkpt lat="42.653994" lon="0.646322">
        <ele>2873.4</ele>
        <time>1970-01-01T02:28:25.000Z</time>
      </trkpt>
      <trkpt lat="42.653994" lon="0.646322">
        <ele>2873.4</ele>
        <time>1970-01-01T02:28:26.000Z</time>
      </trkpt>
      <trkpt lat="42.653994" lon="0.646322">
        <ele>2873.4</ele>
        <time>1970-01-01T02:28:27.000Z</time>
      </trkpt>
      <trkpt lat="42.653994" lon="0.646322">
        <ele>2873.4</ele>
        <time>1970-01-01T02:28:28.000Z</time>
      </trkpt>
      <trkpt lat="42.653994" lon="0.646322">
        <ele>2873.4</ele>
        <time>1970-01-01T02:28:29.000Z</time>
      </trkpt>
      <trkpt lat="42.653994" lon="0.646322">
        <ele>2873.4</ele>
        <time>1970-01-01T02:28:30.000Z</time>
      </trkpt>
      <trkpt lat="42.653994" lon="0.646322">
        <ele>2873.4</ele>
        <time>1970-01-01T02:28:31.000Z</time>
      </trkpt>
      <trkpt lat="42.653994" lon="0.646322">
        <ele>2873.4</ele>
        <time>1970-01-01T02:28:32.000Z</time>
      </trkpt>
      <trkpt lat="42.653994" lon="0.646322">
        <ele>2873.4</ele>
        <time>1970-01-01T02:28:33.000Z</time>
      </trkpt>
      <trkpt lat="42.653994" lon="0.646322">
        <ele>2873.4</ele>
        <time>1970-01-01T02:28:34.000Z</time>
      </trkpt>
      <trkpt lat="42.653994" lon="0.646322">
        <ele>2873.4</ele>
        <time>1970-01-01T02:28:35.000Z</time>
      </trkpt>
      <trkpt lat="42.653994" lon="0.646322">
        <ele>2873.4</ele>
        <time>1970-01-01T02:28:36.000Z</time>
      </trkpt>
      <trkpt lat="42.653994" lon="0.646322">
        <ele>2873.4</ele>
        <time>1970-01-01T02:28:37.000Z</time>
      </trkpt>
      <trkpt lat="42.653994" lon="0.646322">
        <ele>2873.4</ele>
        <time>1970-01-01T02:28:38.000Z</time>
      </trkpt>
      <trkpt lat="42.653994" lon="0.646322">
        <ele>2873.4</ele>
        <time>1970-01-01T02:28:39.000Z</time>
      </trkpt>
      <trkpt lat="42.653994" lon="0.646322">
        <ele>2873.4</ele>
        <time>1970-01-01T02:28:40.000Z</time>
      </trkpt>
      <trkpt lat="42.653994" lon="0.646322">
        <ele>2873.4</ele>
        <time>1970-01-01T02:28:41.000Z</time>
      </trkpt>
      <trkpt lat="42.653994" lon="0.646322">
        <ele>2873.4</ele>
        <time>1970-01-01T02:28:42.000Z</time>
      </trkpt>
      <trkpt lat="42.653994" lon="0.646322">
        <ele>2873.4</ele>
        <time>1970-01-01T02:28:43.000Z</time>
      </trkpt>
      <trkpt lat="42.653994" lon="0.646322">
        <ele>2873.4</ele>
        <time>1970-01-01T02:28:44.000Z</time>
      </trkpt>
      <trkpt lat="42.653994" lon="0.646322">
        <ele>2873.4</ele>
        <time>1970-01-01T02:28:45.000Z</time>
      </trkpt>
      <trkpt lat="42.653994" lon="0.646322">
        <ele>2873.4</ele>
        <time>1970-01-01T02:28:46.000Z</time>
      </trkpt>
      <trkpt lat="42.653994" lon="0.646322">
        <ele>2873.4</ele>
        <time>1970-01-01T02:28:47.000Z</time>
      </trkpt>
      <trkpt lat="42.653994" lon="0.646322">
        <ele>2873.4</ele>
        <time>1970-01-01T02:28:48.000Z</time>
      </trkpt>
      <trkpt lat="42.653993" lon="0.646322">
        <ele>2873.5</ele>
        <time>1970-01-01T02:28:49.000Z</time>
      </trkpt>
      <trkpt lat="42.653993" lon="0.646322">
        <ele>2873.5</ele>
        <time>1970-01-01T02:28:50.000Z</time>
      </trkpt>
      <trkpt lat="42.653993" lon="0.646322">
        <ele>2873.5</ele>
        <time>1970-01-01T02:28:51.000Z</time>
      </trkpt>
      <trkpt lat="42.653993" lon="0.646322">
        <ele>2873.5</ele>
        <time>1970-01-01T02:28:52.000Z</time>
      </trkpt>
      <trkpt lat="42.653993" lon="0.646322">
        <ele>2873.5</ele>
        <time>1970-01-01T02:28:53.000Z</time>
      </trkpt>
      <trkpt lat="42.653993" lon="0.646322">
        <ele>2873.5</ele>
        <time>1970-01-01T02:28:54.000Z</time>
      </trkpt>
      <trkpt lat="42.653993" lon="0.646322">
        <ele>2873.5</ele>
        <time>1970-01-01T02:28:55.000Z</time>
      </trkpt>
      <trkpt lat="42.653993" lon="0.646322">
        <ele>2873.5</ele>
        <time>1970-01-01T02:28:56.000Z</time>
      </trkpt>
      <trkpt lat="42.653993" lon="0.646322">
        <ele>2873.5</ele>
        <time>1970-01-01T02:28:57.000Z</time>
      </trkpt>
      <trkpt lat="42.653993" lon="0.646322">
        <ele>2873.5</ele>
        <time>1970-01-01T02:28:58.000Z</time>
      </trkpt>
      <trkpt lat="42.653993" lon="0.646322">
        <ele>2873.5</ele>
        <time>1970-01-01T02:28:59.000Z</time>
      </trkpt>
      <trkpt lat="42.653993" lon="0.646322">
        <ele>2873.5</ele>
        <time>1970-01-01T02:29:00.000Z</time>
      </trkpt>
      <trkpt lat="42.653993" lon="0.646322">
        <ele>2873.5</ele>
        <time>1970-01-01T02:29:01.000Z</time>
      </trkpt>
      <trkpt lat="42.653993" lon="0.646322">
        <ele>2873.5</ele>
        <time>1970-01-01T02:29:02.000Z</time>
      </trkpt>
      <trkpt lat="42.653993" lon="0.646322">
        <ele>2873.5</ele>
        <time>1970-01-01T02:29:03.000Z</time>
      </trkpt>
      <trkpt lat="42.653993" lon="0.646322">
        <ele>2873.5</ele>
        <time>1970-01-01T02:29:04.000Z</time>
      </trkpt>
      <trkpt lat="42.653993" lon="0.646322">
        <ele>2873.5</ele>
        <time>1970-01-01T02:29:05.000Z</time>
      </trkpt>
      <trkpt lat="42.653993" lon="0.646322">
        <ele>2873.5</ele>
        <time>1970-01-01T02:29:06.000Z</time>
      </trkpt>
      <trkpt lat="42.653993" lon="0.646322">
        <ele>2873.5</ele>
        <time>1970-01-01T02:29:07.000Z</time>
      </trkpt>
      <trkpt lat="42.653993" lon="0.646322">
        <ele>2873.5</ele>
        <time>1970-01-01T02:29:08.000Z</time>
      </trkpt>
      <trkpt lat="42.653993" lon="0.646322">
        <ele>2873.5</ele>
        <time>1970-01-01T02:29:09.000Z</time>
      </trkpt>
      <trkpt lat="42.653993" lon="0.646322">
        <ele>2873.5</ele>
        <time>1970-01-01T02:29:10.000Z</time>
      </trkpt>
      <trkpt lat="42.653993" lon="0.646322">
        <ele>2873.5</ele>
        <time>1970-01-01T02:29:11.000Z</time>
      </trkpt>
      <trkpt lat="42.653993" lon="0.646322">
        <ele>2873.5</ele>
        <time>1970-01-01T02:29:12.000Z</time>
      </trkpt>
      <trkpt lat="42.653993" lon="0.646322">
        <ele>2873.5</ele>
        <time>1970-01-01T02:29:13.000Z</time>
      </trkpt>
      <trkpt lat="42.653993" lon="0.646322">
        <ele>2873.5</ele>
        <time>1970-01-01T02:29:14.000Z</time>
      </trkpt>
      <trkpt lat="42.653993" lon="0.646322">
        <ele>2873.5</ele>
        <time>1970-01-01T02:29:15.000Z</time>
      </trkpt>
      <trkpt lat="42.653993" lon="0.646322">
        <ele>2873.5</ele>
        <time>1970-01-01T02:29:16.000Z</time>
      </trkpt>
      <trkpt lat="42.653993" lon="0.646322">
        <ele>2873.5</ele>
        <time>1970-01-01T02:29:17.000Z</time>
      </trkpt>
      <trkpt lat="42.653993" lon="0.646322">
        <ele>2873.5</ele>
        <time>1970-01-01T02:29:18.000Z</time>
      </trkpt>
      <trkpt lat="42.653993" lon="0.646322">
        <ele>2873.5</ele>
        <time>1970-01-01T02:29:19.000Z</time>
      </trkpt>
      <trkpt lat="42.653993" lon="0.646322">
        <ele>2873.5</ele>
        <time>1970-01-01T02:29:20.000Z</time>
      </trkpt>
      <trkpt lat="42.653993" lon="0.646322">
        <ele>2873.5</ele>
        <time>1970-01-01T02:29:21.000Z</time>
      </trkpt>
      <trkpt lat="42.653993" lon="0.646322">
        <ele>2873.5</ele>
        <time>1970-01-01T02:29:22.000Z</time>
      </trkpt>
      <trkpt lat="42.653993" lon="0.646322">
        <ele>2873.5</ele>
        <time>1970-01-01T02:29:23.000Z</time>
      </trkpt>
      <trkpt lat="42.653993" lon="0.646322">
        <ele>2873.5</ele>
        <time>1970-01-01T02:29:24.000Z</time>
      </trkpt>
      <trkpt lat="42.653993" lon="0.646322">
        <ele>2873.5</ele>
        <time>1970-01-01T02:29:25.000Z</time>
      </trkpt>
      <trkpt lat="42.653993" lon="0.646322">
        <ele>2873.5</ele>
        <time>1970-01-01T02:29:26.000Z</time>
      </trkpt>
      <trkpt lat="42.653993" lon="0.646322">
        <ele>2873.5</ele>
        <time>1970-01-01T02:29:27.000Z</time>
      </trkpt>
      <trkpt lat="42.653993" lon="0.646322">
        <ele>2873.5</ele>
        <time>1970-01-01T02:29:28.000Z</time>
      </trkpt>
      <trkpt lat="42.653993" lon="0.646322">
        <ele>2873.5</ele>
        <time>1970-01-01T02:29:29.000Z</time>
      </trkpt>
      <trkpt lat="42.653993" lon="0.646322">
        <ele>2873.5</ele>
        <time>1970-01-01T02:29:30.000Z</time>
      </trkpt>
      <trkpt lat="42.653993" lon="0.646322">
        <ele>2873.5</ele>
        <time>1970-01-01T02:29:31.000Z</time>
      </trkpt>
      <trkpt lat="42.653993" lon="0.646323">
        <ele>2873.5</ele>
        <time>1970-01-01T02:29:32.000Z</time>
      </trkpt>
      <trkpt lat="42.653993" lon="0.646323">
        <ele>2873.5</ele>
        <time>1970-01-01T02:29:33.000Z</time>
      </trkpt>
      <trkpt lat="42.653993" lon="0.646323">
        <ele>2873.5</ele>
        <time>1970-01-01T02:29:34.000Z</time>
      </trkpt>
      <trkpt lat="42.653993" lon="0.646323">
        <ele>2873.5</ele>
        <time>1970-01-01T02:29:35.000Z</time>
      </trkpt>
      <trkpt lat="42.653993" lon="0.646323">
        <ele>2873.5</ele>
        <time>1970-01-01T02:29:36.000Z</time>
      </trkpt>
      <trkpt lat="42.653993" lon="0.646323">
        <ele>2873.5</ele>
        <time>1970-01-01T02:29:37.000Z</time>
      </trkpt>
      <trkpt lat="42.653993" lon="0.646323">
        <ele>2873.5</ele>
        <time>1970-01-01T02:29:38.000Z</time>
      </trkpt>
      <trkpt lat="42.653993" lon="0.646323">
        <ele>2873.5</ele>
        <time>1970-01-01T02:29:39.000Z</time>
      </trkpt>
      <trkpt lat="42.653993" lon="0.646323">
        <ele>2873.5</ele>
        <time>1970-01-01T02:29:40.000Z</time>
      </trkpt>
      <trkpt lat="42.653993" lon="0.646323">
        <ele>2873.5</ele>
        <time>1970-01-01T02:29:41.000Z</time>
      </trkpt>
      <trkpt lat="42.653992" lon="0.646323">
        <ele>2873.5</ele>
        <time>1970-01-01T02:29:42.000Z</time>
      </trkpt>
      <trkpt lat="42.653992" lon="0.646323">
        <ele>2873.5</ele>
        <time>1970-01-01T02:29:43.000Z</time>
      </trkpt>
      <trkpt lat="42.653992" lon="0.646323">
        <ele>2873.5</ele>
        <time>1970-01-01T02:29:44.000Z</time>
      </trkpt>
      <trkpt lat="42.653992" lon="0.646323">
        <ele>2873.5</ele>
        <time>1970-01-01T02:29:45.000Z</time>
      </trkpt>
      <trkpt lat="42.653992" lon="0.646323">
        <ele>2873.5</ele>
        <time>1970-01-01T02:29:46.000Z</time>
      </trkpt>
      <trkpt lat="42.653992" lon="0.646323">
        <ele>2873.5</ele>
        <time>1970-01-01T02:29:47.000Z</time>
      </trkpt>
      <trkpt lat="42.653992" lon="0.646323">
        <ele>2873.5</ele>
        <time>1970-01-01T02:29:48.000Z</time>
      </trkpt>
      <trkpt lat="42.653992" lon="0.646323">
        <ele>2873.5</ele>
        <time>1970-01-01T02:29:49.000Z</time>
      </trkpt>
      <trkpt lat="42.653992" lon="0.646323">
        <ele>2873.5</ele>
        <time>1970-01-01T02:29:50.000Z</time>
      </trkpt>
      <trkpt lat="42.653992" lon="0.646323">
        <ele>2873.5</ele>
        <time>1970-01-01T02:29:51.000Z</time>
      </trkpt>
      <trkpt lat="42.653992" lon="0.646323">
        <ele>2873.5</ele>
        <time>1970-01-01T02:29:52.000Z</time>
      </trkpt>
      <trkpt lat="42.653992" lon="0.646323">
        <ele>2873.5</ele>
        <time>1970-01-01T02:29:53.000Z</time>
      </trkpt>
      <trkpt lat="42.653992" lon="0.646323">
        <ele>2873.5</ele>
        <time>1970-01-01T02:29:54.000Z</time>
      </trkpt>
      <trkpt lat="42.653992" lon="0.646323">
        <ele>2873.5</ele>
        <time>1970-01-01T02:29:55.000Z</time>
      </trkpt>
      <trkpt lat="42.653992" lon="0.646323">
        <ele>2873.5</ele>
        <time>1970-01-01T02:29:56.000Z</time>
      </trkpt>
      <trkpt lat="42.653992" lon="0.646323">
        <ele>2873.5</ele>
        <time>1970-01-01T02:29:57.000Z</time>
      </trkpt>
      <trkpt lat="42.653992" lon="0.646323">
        <ele>2873.5</ele>
        <time>1970-01-01T02:29:58.000Z</time>
      </trkpt>
      <trkpt lat="42.653992" lon="0.646323">
        <ele>2873.5</ele>
        <time>1970-01-01T02:29:59.000Z</time>
      </trkpt>
      <trkpt lat="42.653992" lon="0.646323">
        <ele>2873.5</ele>
        <time>1970-01-01T02:30:00.000Z</time>
      </trkpt>
      <trkpt lat="42.653992" lon="0.646323">
        <ele>2873.5</ele>
        <time>1970-01-01T02:30:01.000Z</time>
      </trkpt>
      <trkpt lat="42.653992" lon="0.646323">
        <ele>2873.5</ele>
        <time>1970-01-01T02:30:02.000Z</time>
      </trkpt>
      <trkpt lat="42.653992" lon="0.646323">
        <ele>2873.5</ele>
        <time>1970-01-01T02:30:03.000Z</time>
      </trkpt>
      <trkpt lat="42.653992" lon="0.646323">
        <ele>2873.5</ele>
        <time>1970-01-01T02:30:04.000Z</time>
      </trkpt>
      <trkpt lat="42.653992" lon="0.646323">
        <ele>2873.5</ele>
        <time>1970-01-01T02:30:05.000Z</time>
      </trkpt>
      <trkpt lat="42.653992" lon="0.646323">
        <ele>2873.5</ele>
        <time>1970-01-01T02:30:06.000Z</time>
      </trkpt>
      <trkpt lat="42.653992" lon="0.646323">
        <ele>2873.5</ele>
        <time>1970-01-01T02:30:07.000Z</time>
      </trkpt>
      <trkpt lat="42.653992" lon="0.646323">
        <ele>2873.5</ele>
        <time>1970-01-01T02:30:08.000Z</time>
      </trkpt>
      <trkpt lat="42.653992" lon="0.646323">
        <ele>2873.5</ele>
        <time>1970-01-01T02:30:09.000Z</time>
      </trkpt>
      <trkpt lat="42.653992" lon="0.646323">
        <ele>2873.5</ele>
        <time>1970-01-01T02:30:10.000Z</time>
      </trkpt>
      <trkpt lat="42.653992" lon="0.646323">
        <ele>2873.5</ele>
        <time>1970-01-01T02:30:11.000Z</time>
      </trkpt>
      <trkpt lat="42.653992" lon="0.646323">
        <ele>2873.5</ele>
        <time>1970-01-01T02:30:12.000Z</time>
      </trkpt>
      <trkpt lat="42.653992" lon="0.646323">
        <ele>2873.5</ele>
        <time>1970-01-01T02:30:13.000Z</time>
      </trkpt>
      <trkpt lat="42.653992" lon="0.646323">
        <ele>2873.5</ele>
        <time>1970-01-01T02:30:14.000Z</time>
      </trkpt>
      <trkpt lat="42.653992" lon="0.646323">
        <ele>2873.5</ele>
        <time>1970-01-01T02:30:15.000Z</time>
      </trkpt>
      <trkpt lat="42.653992" lon="0.646323">
        <ele>2873.5</ele>
        <time>1970-01-01T02:30:16.000Z</time>
      </trkpt>
      <trkpt lat="42.653992" lon="0.646323">
        <ele>2873.5</ele>
        <time>1970-01-01T02:30:17.000Z</time>
      </trkpt>
      <trkpt lat="42.653992" lon="0.646323">
        <ele>2873.5</ele>
        <time>1970-01-01T02:30:18.000Z</time>
      </trkpt>
      <trkpt lat="42.653992" lon="0.646323">
        <ele>2873.5</ele>
        <time>1970-01-01T02:30:19.000Z</time>
      </trkpt>
      <trkpt lat="42.653992" lon="0.646324">
        <ele>2873.5</ele>
        <time>1970-01-01T02:30:20.000Z</time>
      </trkpt>
      <trkpt lat="42.653992" lon="0.646324">
        <ele>2873.5</ele>
        <time>1970-01-01T02:30:21.000Z</time>
      </trkpt>
      <trkpt lat="42.653992" lon="0.646324">
        <ele>2873.5</ele>
        <time>1970-01-01T02:30:22.000Z</time>
      </trkpt>
      <trkpt lat="42.653992" lon="0.646324">
        <ele>2873.5</ele>
        <time>1970-01-01T02:30:23.000Z</time>
      </trkpt>
      <trkpt lat="42.653992" lon="0.646324">
        <ele>2873.5</ele>
        <time>1970-01-01T02:30:24.000Z</time>
      </trkpt>
      <trkpt lat="42.653992" lon="0.646324">
        <ele>2873.5</ele>
        <time>1970-01-01T02:30:25.000Z</time>
      </trkpt>
      <trkpt lat="42.653992" lon="0.646324">
        <ele>2873.5</ele>
        <time>1970-01-01T02:30:26.000Z</time>
      </trkpt>
      <trkpt lat="42.653992" lon="0.646324">
        <ele>2873.5</ele>
        <time>1970-01-01T02:30:27.000Z</time>
      </trkpt>
      <trkpt lat="42.653992" lon="0.646324">
        <ele>2873.5</ele>
        <time>1970-01-01T02:30:28.000Z</time>
      </trkpt>
      <trkpt lat="42.653992" lon="0.646324">
        <ele>2873.5</ele>
        <time>1970-01-01T02:30:29.000Z</time>
      </trkpt>
      <trkpt lat="42.653992" lon="0.646324">
        <ele>2873.5</ele>
        <time>1970-01-01T02:30:30.000Z</time>
      </trkpt>
      <trkpt lat="42.653992" lon="0.646324">
        <ele>2873.5</ele>
        <time>1970-01-01T02:30:31.000Z</time>
      </trkpt>
      <trkpt lat="42.653992" lon="0.646324">
        <ele>2873.5</ele>
        <time>1970-01-01T02:30:32.000Z</time>
      </trkpt>
      <trkpt lat="42.653992" lon="0.646324">
        <ele>2873.5</ele>
        <time>1970-01-01T02:30:33.000Z</time>
      </trkpt>
      <trkpt lat="42.653992" lon="0.646324">
        <ele>2873.5</ele>
        <time>1970-01-01T02:30:34.000Z</time>
      </trkpt>
      <trkpt lat="42.653992" lon="0.646324">
        <ele>2873.5</ele>
        <time>1970-01-01T02:30:35.000Z</time>
      </trkpt>
      <trkpt lat="42.653992" lon="0.646324">
        <ele>2873.5</ele>
        <time>1970-01-01T02:30:36.000Z</time>
      </trkpt>
      <trkpt lat="42.653992" lon="0.646324">
        <ele>2873.5</ele>
        <time>1970-01-01T02:30:37.000Z</time>
      </trkpt>
      <trkpt lat="42.653992" lon="0.646324">
        <ele>2873.5</ele>
        <time>1970-01-01T02:30:38.000Z</time>
      </trkpt>
      <trkpt lat="42.653991" lon="0.646324">
        <ele>2873.5</ele>
        <time>1970-01-01T02:30:39.000Z</time>
      </trkpt>
      <trkpt lat="42.653991" lon="0.646324">
        <ele>2873.5</ele>
        <time>1970-01-01T02:30:40.000Z</time>
      </trkpt>
      <trkpt lat="42.653991" lon="0.646324">
        <ele>2873.5</ele>
        <time>1970-01-01T02:30:41.000Z</time>
      </trkpt>
      <trkpt lat="42.653991" lon="0.646324">
        <ele>2873.5</ele>
        <time>1970-01-01T02:30:42.000Z</time>
      </trkpt>
      <trkpt lat="42.653991" lon="0.646324">
        <ele>2873.5</ele>
        <time>1970-01-01T02:30:43.000Z</time>
      </trkpt>
      <trkpt lat="42.653991" lon="0.646324">
        <ele>2873.5</ele>
        <time>1970-01-01T02:30:44.000Z</time>
      </trkpt>
      <trkpt lat="42.653991" lon="0.646324">
        <ele>2873.5</ele>
        <time>1970-01-01T02:30:45.000Z</time>
      </trkpt>
      <trkpt lat="42.653991" lon="0.646324">
        <ele>2873.5</ele>
        <time>1970-01-01T02:30:46.000Z</time>
      </trkpt>
      <trkpt lat="42.653991" lon="0.646324">
        <ele>2873.5</ele>
        <time>1970-01-01T02:30:47.000Z</time>
      </trkpt>
      <trkpt lat="42.653991" lon="0.646324">
        <ele>2873.5</ele>
        <time>1970-01-01T02:30:48.000Z</time>
      </trkpt>
      <trkpt lat="42.653991" lon="0.646324">
        <ele>2873.5</ele>
        <time>1970-01-01T02:30:49.000Z</time>
      </trkpt>
      <trkpt lat="42.653991" lon="0.646324">
        <ele>2873.5</ele>
        <time>1970-01-01T02:30:50.000Z</time>
      </trkpt>
      <trkpt lat="42.653991" lon="0.646324">
        <ele>2873.5</ele>
        <time>1970-01-01T02:30:51.000Z</time>
      </trkpt>
      <trkpt lat="42.653991" lon="0.646324">
        <ele>2873.5</ele>
        <time>1970-01-01T02:30:52.000Z</time>
      </trkpt>
      <trkpt lat="42.653991" lon="0.646324">
        <ele>2873.5</ele>
        <time>1970-01-01T02:30:53.000Z</time>
      </trkpt>
      <trkpt lat="42.653991" lon="0.646324">
        <ele>2873.5</ele>
        <time>1970-01-01T02:30:54.000Z</time>
      </trkpt>
      <trkpt lat="42.653991" lon="0.646324">
        <ele>2873.5</ele>
        <time>1970-01-01T02:30:55.000Z</time>
      </trkpt>
      <trkpt lat="42.653991" lon="0.646324">
        <ele>2873.5</ele>
        <time>1970-01-01T02:30:56.000Z</time>
      </trkpt>
      <trkpt lat="42.653991" lon="0.646324">
        <ele>2873.5</ele>
        <time>1970-01-01T02:30:57.000Z</time>
      </trkpt>
      <trkpt lat="42.653991" lon="0.646324">
        <ele>2873.5</ele>
        <time>1970-01-01T02:30:58.000Z</time>
      </trkpt>
      <trkpt lat="42.653991" lon="0.646324">
        <ele>2873.5</ele>
        <time>1970-01-01T02:30:59.000Z</time>
      </trkpt>
      <trkpt lat="42.653991" lon="0.646324">
        <ele>2873.5</ele>
        <time>1970-01-01T02:31:00.000Z</time>
      </trkpt>
      <trkpt lat="42.653991" lon="0.646324">
        <ele>2873.5</ele>
        <time>1970-01-01T02:31:01.000Z</time>
      </trkpt>
      <trkpt lat="42.653991" lon="0.646324">
        <ele>2873.5</ele>
        <time>1970-01-01T02:31:02.000Z</time>
      </trkpt>
      <trkpt lat="42.653991" lon="0.646324">
        <ele>2873.5</ele>
        <time>1970-01-01T02:31:03.000Z</time>
      </trkpt>
      <trkpt lat="42.653991" lon="0.646324">
        <ele>2873.5</ele>
        <time>1970-01-01T02:31:04.000Z</time>
      </trkpt>
      <trkpt lat="42.653991" lon="0.646325">
        <ele>2873.5</ele>
        <time>1970-01-01T02:31:05.000Z</time>
      </trkpt>
      <trkpt lat="42.653991" lon="0.646325">
        <ele>2873.5</ele>
        <time>1970-01-01T02:31:06.000Z</time>
      </trkpt>
      <trkpt lat="42.653991" lon="0.646325">
        <ele>2873.5</ele>
        <time>1970-01-01T02:31:07.000Z</time>
      </trkpt>
      <trkpt lat="42.653991" lon="0.646325">
        <ele>2873.5</ele>
        <time>1970-01-01T02:31:08.000Z</time>
      </trkpt>
      <trkpt lat="42.653991" lon="0.646325">
        <ele>2873.5</ele>
        <time>1970-01-01T02:31:09.000Z</time>
      </trkpt>
      <trkpt lat="42.653991" lon="0.646325">
        <ele>2873.5</ele>
        <time>1970-01-01T02:31:10.000Z</time>
      </trkpt>
      <trkpt lat="42.653991" lon="0.646325">
        <ele>2873.5</ele>
        <time>1970-01-01T02:31:11.000Z</time>
      </trkpt>
      <trkpt lat="42.653991" lon="0.646325">
        <ele>2873.5</ele>
        <time>1970-01-01T02:31:12.000Z</time>
      </trkpt>
      <trkpt lat="42.653991" lon="0.646325">
        <ele>2873.5</ele>
        <time>1970-01-01T02:31:13.000Z</time>
      </trkpt>
      <trkpt lat="42.653991" lon="0.646325">
        <ele>2873.5</ele>
        <time>1970-01-01T02:31:14.000Z</time>
      </trkpt>
      <trkpt lat="42.65399" lon="0.646325">
        <ele>2873.5</ele>
        <time>1970-01-01T02:31:15.000Z</time>
      </trkpt>
      <trkpt lat="42.65399" lon="0.646325">
        <ele>2873.5</ele>
        <time>1970-01-01T02:31:16.000Z</time>
      </trkpt>
      <trkpt lat="42.65399" lon="0.646325">
        <ele>2873.5</ele>
        <time>1970-01-01T02:31:17.000Z</time>
      </trkpt>
      <trkpt lat="42.65399" lon="0.646325">
        <ele>2873.5</ele>
        <time>1970-01-01T02:31:18.000Z</time>
      </trkpt>
      <trkpt lat="42.65399" lon="0.646325">
        <ele>2873.5</ele>
        <time>1970-01-01T02:31:19.000Z</time>
      </trkpt>
      <trkpt lat="42.65399" lon="0.646325">
        <ele>2873.5</ele>
        <time>1970-01-01T02:31:20.000Z</time>
      </trkpt>
      <trkpt lat="42.65399" lon="0.646325">
        <ele>2873.5</ele>
        <time>1970-01-01T02:31:21.000Z</time>
      </trkpt>
      <trkpt lat="42.65399" lon="0.646325">
        <ele>2873.5</ele>
        <time>1970-01-01T02:31:22.000Z</time>
      </trkpt>
      <trkpt lat="42.65399" lon="0.646325">
        <ele>2873.5</ele>
        <time>1970-01-01T02:31:23.000Z</time>
      </trkpt>
      <trkpt lat="42.65399" lon="0.646325">
        <ele>2873.5</ele>
        <time>1970-01-01T02:31:24.000Z</time>
      </trkpt>
      <trkpt lat="42.65399" lon="0.646325">
        <ele>2873.5</ele>
        <time>1970-01-01T02:31:25.000Z</time>
      </trkpt>
      <trkpt lat="42.65399" lon="0.646325">
        <ele>2873.5</ele>
        <time>1970-01-01T02:31:26.000Z</time>
      </trkpt>
      <trkpt lat="42.65399" lon="0.646325">
        <ele>2873.5</ele>
        <time>1970-01-01T02:31:27.000Z</time>
      </trkpt>
      <trkpt lat="42.65399" lon="0.646325">
        <ele>2873.5</ele>
        <time>1970-01-01T02:31:28.000Z</time>
      </trkpt>
      <trkpt lat="42.65399" lon="0.646325">
        <ele>2873.5</ele>
        <time>1970-01-01T02:31:29.000Z</time>
      </trkpt>
      <trkpt lat="42.65399" lon="0.646325">
        <ele>2873.5</ele>
        <time>1970-01-01T02:31:30.000Z</time>
      </trkpt>
      <trkpt lat="42.65399" lon="0.646325">
        <ele>2873.5</ele>
        <time>1970-01-01T02:31:31.000Z</time>
      </trkpt>
      <trkpt lat="42.65399" lon="0.646325">
        <ele>2873.5</ele>
        <time>1970-01-01T02:31:32.000Z</time>
      </trkpt>
      <trkpt lat="42.65399" lon="0.646325">
        <ele>2873.5</ele>
        <time>1970-01-01T02:31:33.000Z</time>
      </trkpt>
      <trkpt lat="42.65399" lon="0.646325">
        <ele>2873.5</ele>
        <time>1970-01-01T02:31:34.000Z</time>
      </trkpt>
      <trkpt lat="42.65399" lon="0.646325">
        <ele>2873.5</ele>
        <time>1970-01-01T02:31:35.000Z</time>
      </trkpt>
      <trkpt lat="42.65399" lon="0.646325">
        <ele>2873.5</ele>
        <time>1970-01-01T02:31:36.000Z</time>
      </trkpt>
      <trkpt lat="42.65399" lon="0.646325">
        <ele>2873.5</ele>
        <time>1970-01-01T02:31:37.000Z</time>
      </trkpt>
      <trkpt lat="42.65399" lon="0.646325">
        <ele>2873.5</ele>
        <time>1970-01-01T02:31:38.000Z</time>
      </trkpt>
      <trkpt lat="42.65399" lon="0.646325">
        <ele>2873.5</ele>
        <time>1970-01-01T02:31:39.000Z</time>
      </trkpt>
      <trkpt lat="42.65399" lon="0.646325">
        <ele>2873.5</ele>
        <time>1970-01-01T02:31:40.000Z</time>
      </trkpt>
      <trkpt lat="42.65399" lon="0.646325">
        <ele>2873.5</ele>
        <time>1970-01-01T02:31:41.000Z</time>
      </trkpt>
      <trkpt lat="42.65399" lon="0.646325">
        <ele>2873.5</ele>
        <time>1970-01-01T02:31:42.000Z</time>
      </trkpt>
      <trkpt lat="42.65399" lon="0.646325">
        <ele>2873.5</ele>
        <time>1970-01-01T02:31:43.000Z</time>
      </trkpt>
      <trkpt lat="42.65399" lon="0.646325">
        <ele>2873.5</ele>
        <time>1970-01-01T02:31:44.000Z</time>
      </trkpt>
      <trkpt lat="42.65399" lon="0.646325">
        <ele>2873.5</ele>
        <time>1970-01-01T02:31:45.000Z</time>
      </trkpt>
      <trkpt lat="42.65399" lon="0.646325">
        <ele>2873.5</ele>
        <time>1970-01-01T02:31:46.000Z</time>
      </trkpt>
      <trkpt lat="42.65399" lon="0.646325">
        <ele>2873.5</ele>
        <time>1970-01-01T02:31:47.000Z</time>
      </trkpt>
      <trkpt lat="42.65399" lon="0.646325">
        <ele>2873.5</ele>
        <time>1970-01-01T02:31:48.000Z</time>
      </trkpt>
      <trkpt lat="42.65399" lon="0.646325">
        <ele>2873.5</ele>
        <time>1970-01-01T02:31:49.000Z</time>
      </trkpt>
      <trkpt lat="42.65399" lon="0.646325">
        <ele>2873.5</ele>
        <time>1970-01-01T02:31:50.000Z</time>
      </trkpt>
      <trkpt lat="42.65399" lon="0.646325">
        <ele>2873.5</ele>
        <time>1970-01-01T02:31:51.000Z</time>
      </trkpt>
      <trkpt lat="42.65399" lon="0.646325">
        <ele>2873.5</ele>
        <time>1970-01-01T02:31:52.000Z</time>
      </trkpt>
      <trkpt lat="42.65399" lon="0.646325">
        <ele>2873.5</ele>
        <time>1970-01-01T02:31:53.000Z</time>
      </trkpt>
      <trkpt lat="42.65399" lon="0.646325">
        <ele>2873.5</ele>
        <time>1970-01-01T02:31:54.000Z</time>
      </trkpt>
      <trkpt lat="42.65399" lon="0.646325">
        <ele>2873.5</ele>
        <time>1970-01-01T02:31:55.000Z</time>
      </trkpt>
      <trkpt lat="42.65399" lon="0.646325">
        <ele>2873.5</ele>
        <time>1970-01-01T02:31:56.000Z</time>
      </trkpt>
      <trkpt lat="42.65399" lon="0.646325">
        <ele>2873.5</ele>
        <time>1970-01-01T02:31:57.000Z</time>
      </trkpt>
      <trkpt lat="42.65399" lon="0.646326">
        <ele>2873.5</ele>
        <time>1970-01-01T02:31:58.000Z</time>
      </trkpt>
      <trkpt lat="42.65399" lon="0.646326">
        <ele>2873.5</ele>
        <time>1970-01-01T02:31:59.000Z</time>
      </trkpt>
      <trkpt lat="42.65399" lon="0.646326">
        <ele>2873.5</ele>
        <time>1970-01-01T02:32:00.000Z</time>
      </trkpt>
      <trkpt lat="42.653989" lon="0.646326">
        <ele>2873.5</ele>
        <time>1970-01-01T02:32:01.000Z</time>
      </trkpt>
      <trkpt lat="42.653989" lon="0.646326">
        <ele>2873.5</ele>
        <time>1970-01-01T02:32:02.000Z</time>
      </trkpt>
      <trkpt lat="42.653989" lon="0.646326">
        <ele>2873.5</ele>
        <time>1970-01-01T02:32:03.000Z</time>
      </trkpt>
      <trkpt lat="42.653989" lon="0.646326">
        <ele>2873.5</ele>
        <time>1970-01-01T02:32:04.000Z</time>
      </trkpt>
      <trkpt lat="42.653989" lon="0.646326">
        <ele>2873.5</ele>
        <time>1970-01-01T02:32:05.000Z</time>
      </trkpt>
      <trkpt lat="42.653989" lon="0.646326">
        <ele>2873.5</ele>
        <time>1970-01-01T02:32:06.000Z</time>
      </trkpt>
      <trkpt lat="42.653989" lon="0.646326">
        <ele>2873.5</ele>
        <time>1970-01-01T02:32:07.000Z</time>
      </trkpt>
      <trkpt lat="42.653989" lon="0.646326">
        <ele>2873.5</ele>
        <time>1970-01-01T02:32:08.000Z</time>
      </trkpt>
      <trkpt lat="42.653989" lon="0.646326">
        <ele>2873.5</ele>
        <time>1970-01-01T02:32:09.000Z</time>
      </trkpt>
      <trkpt lat="42.653989" lon="0.646326">
        <ele>2873.5</ele>
        <time>1970-01-01T02:32:10.000Z</time>
      </trkpt>
      <trkpt lat="42.653989" lon="0.646326">
        <ele>2873.5</ele>
        <time>1970-01-01T02:32:11.000Z</time>
      </trkpt>
      <trkpt lat="42.653989" lon="0.646326">
        <ele>2873.5</ele>
        <time>1970-01-01T02:32:12.000Z</time>
      </trkpt>
      <trkpt lat="42.653989" lon="0.646326">
        <ele>2873.5</ele>
        <time>1970-01-01T02:32:13.000Z</time>
      </trkpt>
      <trkpt lat="42.653989" lon="0.646326">
        <ele>2873.5</ele>
        <time>1970-01-01T02:32:14.000Z</time>
      </trkpt>
      <trkpt lat="42.653989" lon="0.646326">
        <ele>2873.5</ele>
        <time>1970-01-01T02:32:15.000Z</time>
      </trkpt>
      <trkpt lat="42.653989" lon="0.646326">
        <ele>2873.5</ele>
        <time>1970-01-01T02:32:16.000Z</time>
      </trkpt>
      <trkpt lat="42.653989" lon="0.646326">
        <ele>2873.5</ele>
        <time>1970-01-01T02:32:17.000Z</time>
      </trkpt>
      <trkpt lat="42.653989" lon="0.646326">
        <ele>2873.5</ele>
        <time>1970-01-01T02:32:18.000Z</time>
      </trkpt>
      <trkpt lat="42.653989" lon="0.646326">
        <ele>2873.5</ele>
        <time>1970-01-01T02:32:19.000Z</time>
      </trkpt>
      <trkpt lat="42.653989" lon="0.646326">
        <ele>2873.5</ele>
        <time>1970-01-01T02:32:20.000Z</time>
      </trkpt>
      <trkpt lat="42.653989" lon="0.646326">
        <ele>2873.5</ele>
        <time>1970-01-01T02:32:21.000Z</time>
      </trkpt>
      <trkpt lat="42.653989" lon="0.646326">
        <ele>2873.5</ele>
        <time>1970-01-01T02:32:22.000Z</time>
      </trkpt>
      <trkpt lat="42.653989" lon="0.646326">
        <ele>2873.5</ele>
        <time>1970-01-01T02:32:23.000Z</time>
      </trkpt>
      <trkpt lat="42.653989" lon="0.646326">
        <ele>2873.5</ele>
        <time>1970-01-01T02:32:24.000Z</time>
      </trkpt>
      <trkpt lat="42.653989" lon="0.646326">
        <ele>2873.5</ele>
        <time>1970-01-01T02:32:25.000Z</time>
      </trkpt>
      <trkpt lat="42.653989" lon="0.646326">
        <ele>2873.5</ele>
        <time>1970-01-01T02:32:26.000Z</time>
      </trkpt>
      <trkpt lat="42.653989" lon="0.646326">
        <ele>2873.5</ele>
        <time>1970-01-01T02:32:27.000Z</time>
      </trkpt>
      <trkpt lat="42.653989" lon="0.646326">
        <ele>2873.5</ele>
        <time>1970-01-01T02:32:28.000Z</time>
      </trkpt>
      <trkpt lat="42.653989" lon="0.646326">
        <ele>2873.5</ele>
        <time>1970-01-01T02:32:29.000Z</time>
      </trkpt>
      <trkpt lat="42.653989" lon="0.646326">
        <ele>2873.5</ele>
        <time>1970-01-01T02:32:30.000Z</time>
      </trkpt>
      <trkpt lat="42.653989" lon="0.646326">
        <ele>2873.5</ele>
        <time>1970-01-01T02:32:31.000Z</time>
      </trkpt>
      <trkpt lat="42.653989" lon="0.646326">
        <ele>2873.5</ele>
        <time>1970-01-01T02:32:32.000Z</time>
      </trkpt>
      <trkpt lat="42.653989" lon="0.646326">
        <ele>2873.5</ele>
        <time>1970-01-01T02:32:33.000Z</time>
      </trkpt>
      <trkpt lat="42.653989" lon="0.646326">
        <ele>2873.5</ele>
        <time>1970-01-01T02:32:34.000Z</time>
      </trkpt>
      <trkpt lat="42.653989" lon="0.646326">
        <ele>2873.5</ele>
        <time>1970-01-01T02:32:35.000Z</time>
      </trkpt>
      <trkpt lat="42.653989" lon="0.646326">
        <ele>2873.5</ele>
        <time>1970-01-01T02:32:36.000Z</time>
      </trkpt>
      <trkpt lat="42.653989" lon="0.646326">
        <ele>2873.5</ele>
        <time>1970-01-01T02:32:37.000Z</time>
      </trkpt>
      <trkpt lat="42.653988" lon="0.646326">
        <ele>2873.5</ele>
        <time>1970-01-01T02:32:38.000Z</time>
      </trkpt>
      <trkpt lat="42.653988" lon="0.646326">
        <ele>2873.5</ele>
        <time>1970-01-01T02:32:39.000Z</time>
      </trkpt>
      <trkpt lat="42.653988" lon="0.646326">
        <ele>2873.5</ele>
        <time>1970-01-01T02:32:40.000Z</time>
      </trkpt>
      <trkpt lat="42.653988" lon="0.646326">
        <ele>2873.5</ele>
        <time>1970-01-01T02:32:41.000Z</time>
      </trkpt>
      <trkpt lat="42.653988" lon="0.646326">
        <ele>2873.5</ele>
        <time>1970-01-01T02:32:42.000Z</time>
      </trkpt>
      <trkpt lat="42.653988" lon="0.646327">
        <ele>2873.5</ele>
        <time>1970-01-01T02:32:43.000Z</time>
      </trkpt>
      <trkpt lat="42.653988" lon="0.646327">
        <ele>2873.5</ele>
        <time>1970-01-01T02:32:44.000Z</time>
      </trkpt>
      <trkpt lat="42.653988" lon="0.646327">
        <ele>2873.5</ele>
        <time>1970-01-01T02:32:45.000Z</time>
      </trkpt>
      <trkpt lat="42.653988" lon="0.646327">
        <ele>2873.5</ele>
        <time>1970-01-01T02:32:46.000Z</time>
      </trkpt>
      <trkpt lat="42.653988" lon="0.646327">
        <ele>2873.5</ele>
        <time>1970-01-01T02:32:47.000Z</time>
      </trkpt>
      <trkpt lat="42.653988" lon="0.646327">
        <ele>2873.5</ele>
        <time>1970-01-01T02:32:48.000Z</time>
      </trkpt>
      <trkpt lat="42.653988" lon="0.646327">
        <ele>2873.5</ele>
        <time>1970-01-01T02:32:49.000Z</time>
      </trkpt>
      <trkpt lat="42.653988" lon="0.646327">
        <ele>2873.5</ele>
        <time>1970-01-01T02:32:50.000Z</time>
      </trkpt>
      <trkpt lat="42.653988" lon="0.646327">
        <ele>2873.5</ele>
        <time>1970-01-01T02:32:51.000Z</time>
      </trkpt>
      <trkpt lat="42.653988" lon="0.646327">
        <ele>2873.5</ele>
        <time>1970-01-01T02:32:52.000Z</time>
      </trkpt>
      <trkpt lat="42.653988" lon="0.646327">
        <ele>2873.5</ele>
        <time>1970-01-01T02:32:53.000Z</time>
      </trkpt>
      <trkpt lat="42.653988" lon="0.646327">
        <ele>2873.5</ele>
        <time>1970-01-01T02:32:54.000Z</time>
      </trkpt>
      <trkpt lat="42.653988" lon="0.646327">
        <ele>2873.5</ele>
        <time>1970-01-01T02:32:55.000Z</time>
      </trkpt>
      <trkpt lat="42.653988" lon="0.646327">
        <ele>2873.5</ele>
        <time>1970-01-01T02:32:56.000Z</time>
      </trkpt>
      <trkpt lat="42.653988" lon="0.646327">
        <ele>2873.5</ele>
        <time>1970-01-01T02:32:57.000Z</time>
      </trkpt>
      <trkpt lat="42.653988" lon="0.646327">
        <ele>2873.5</ele>
        <time>1970-01-01T02:32:58.000Z</time>
      </trkpt>
      <trkpt lat="42.653988" lon="0.646327">
        <ele>2873.5</ele>
        <time>1970-01-01T02:32:59.000Z</time>
      </trkpt>
      <trkpt lat="42.653988" lon="0.646327">
        <ele>2873.5</ele>
        <time>1970-01-01T02:33:00.000Z</time>
      </trkpt>
      <trkpt lat="42.653988" lon="0.646327">
        <ele>2873.5</ele>
        <time>1970-01-01T02:33:01.000Z</time>
      </trkpt>
      <trkpt lat="42.653988" lon="0.646327">
        <ele>2873.5</ele>
        <time>1970-01-01T02:33:02.000Z</time>
      </trkpt>
      <trkpt lat="42.653988" lon="0.646327">
        <ele>2873.5</ele>
        <time>1970-01-01T02:33:03.000Z</time>
      </trkpt>
      <trkpt lat="42.653988" lon="0.646327">
        <ele>2873.5</ele>
        <time>1970-01-01T02:33:04.000Z</time>
      </trkpt>
      <trkpt lat="42.653988" lon="0.646327">
        <ele>2873.5</ele>
        <time>1970-01-01T02:33:05.000Z</time>
      </trkpt>
      <trkpt lat="42.653988" lon="0.646327">
        <ele>2873.5</ele>
        <time>1970-01-01T02:33:06.000Z</time>
      </trkpt>
      <trkpt lat="42.653988" lon="0.646327">
        <ele>2873.5</ele>
        <time>1970-01-01T02:33:07.000Z</time>
      </trkpt>
      <trkpt lat="42.653988" lon="0.646327">
        <ele>2873.5</ele>
        <time>1970-01-01T02:33:08.000Z</time>
      </trkpt>
      <trkpt lat="42.653988" lon="0.646327">
        <ele>2873.5</ele>
        <time>1970-01-01T02:33:09.000Z</time>
      </trkpt>
      <trkpt lat="42.653988" lon="0.646327">
        <ele>2873.5</ele>
        <time>1970-01-01T02:33:10.000Z</time>
      </trkpt>
      <trkpt lat="42.653988" lon="0.646327">
        <ele>2873.5</ele>
        <time>1970-01-01T02:33:11.000Z</time>
      </trkpt>
      <trkpt lat="42.653988" lon="0.646327">
        <ele>2873.5</ele>
        <time>1970-01-01T02:33:12.000Z</time>
      </trkpt>
      <trkpt lat="42.653988" lon="0.646327">
        <ele>2873.5</ele>
        <time>1970-01-01T02:33:13.000Z</time>
      </trkpt>
      <trkpt lat="42.653988" lon="0.646327">
        <ele>2873.5</ele>
        <time>1970-01-01T02:33:14.000Z</time>
      </trkpt>
      <trkpt lat="42.653988" lon="0.646327">
        <ele>2873.5</ele>
        <time>1970-01-01T02:33:15.000Z</time>
      </trkpt>
      <trkpt lat="42.653988" lon="0.646327">
        <ele>2873.5</ele>
        <time>1970-01-01T02:33:16.000Z</time>
      </trkpt>
      <trkpt lat="42.653988" lon="0.646327">
        <ele>2873.5</ele>
        <time>1970-01-01T02:33:17.000Z</time>
      </trkpt>
      <trkpt lat="42.653988" lon="0.646327">
        <ele>2873.5</ele>
        <time>1970-01-01T02:33:18.000Z</time>
      </trkpt>
      <trkpt lat="42.653988" lon="0.646327">
        <ele>2873.5</ele>
        <time>1970-01-01T02:33:19.000Z</time>
      </trkpt>
      <trkpt lat="42.653988" lon="0.646327">
        <ele>2873.5</ele>
        <time>1970-01-01T02:33:20.000Z</time>
      </trkpt>
      <trkpt lat="42.653988" lon="0.646327">
        <ele>2873.5</ele>
        <time>1970-01-01T02:33:21.000Z</time>
      </trkpt>
      <trkpt lat="42.653988" lon="0.646327">
        <ele>2873.5</ele>
        <time>1970-01-01T02:33:22.000Z</time>
      </trkpt>
      <trkpt lat="42.653988" lon="0.646327">
        <ele>2873.5</ele>
        <time>1970-01-01T02:33:23.000Z</time>
      </trkpt>
      <trkpt lat="42.653988" lon="0.646327">
        <ele>2873.5</ele>
        <time>1970-01-01T02:33:24.000Z</time>
      </trkpt>
      <trkpt lat="42.653988" lon="0.646327">
        <ele>2873.5</ele>
        <time>1970-01-01T02:33:25.000Z</time>
      </trkpt>
      <trkpt lat="42.653988" lon="0.646327">
        <ele>2873.5</ele>
        <time>1970-01-01T02:33:26.000Z</time>
      </trkpt>
      <trkpt lat="42.653988" lon="0.646327">
        <ele>2873.5</ele>
        <time>1970-01-01T02:33:27.000Z</time>
      </trkpt>
      <trkpt lat="42.653988" lon="0.646327">
        <ele>2873.5</ele>
        <time>1970-01-01T02:33:28.000Z</time>
      </trkpt>
      <trkpt lat="42.653988" lon="0.646327">
        <ele>2873.5</ele>
        <time>1970-01-01T02:33:29.000Z</time>
      </trkpt>
      <trkpt lat="42.653988" lon="0.646327">
        <ele>2873.5</ele>
        <time>1970-01-01T02:33:30.000Z</time>
      </trkpt>
      <trkpt lat="42.653988" lon="0.646327">
        <ele>2873.5</ele>
        <time>1970-01-01T02:33:31.000Z</time>
      </trkpt>
      <trkpt lat="42.653988" lon="0.646327">
        <ele>2873.5</ele>
        <time>1970-01-01T02:33:32.000Z</time>
      </trkpt>
      <trkpt lat="42.653988" lon="0.646327">
        <ele>2873.5</ele>
        <time>1970-01-01T02:33:33.000Z</time>
      </trkpt>
      <trkpt lat="42.653988" lon="0.646327">
        <ele>2873.5</ele>
        <time>1970-01-01T02:33:34.000Z</time>
      </trkpt>
      <trkpt lat="42.653988" lon="0.646327">
        <ele>2873.5</ele>
        <time>1970-01-01T02:33:35.000Z</time>
      </trkpt>
      <trkpt lat="42.653988" lon="0.646327">
        <ele>2873.5</ele>
        <time>1970-01-01T02:33:36.000Z</time>
      </trkpt>
      <trkpt lat="42.653988" lon="0.646327">
        <ele>2873.5</ele>
        <time>1970-01-01T02:33:37.000Z</time>
      </trkpt>
      <trkpt lat="42.653988" lon="0.646327">
        <ele>2873.5</ele>
        <time>1970-01-01T02:33:38.000Z</time>
      </trkpt>
      <trkpt lat="42.653988" lon="0.646327">
        <ele>2873.5</ele>
        <time>1970-01-01T02:33:39.000Z</time>
      </trkpt>
      <trkpt lat="42.653988" lon="0.646327">
        <ele>2873.5</ele>
        <time>1970-01-01T02:33:40.000Z</time>
      </trkpt>
      <trkpt lat="42.653988" lon="0.646327">
        <ele>2873.5</ele>
        <time>1970-01-01T02:33:41.000Z</time>
      </trkpt>
      <trkpt lat="42.653988" lon="0.646327">
        <ele>2873.5</ele>
        <time>1970-01-01T02:33:42.000Z</time>
      </trkpt>
      <trkpt lat="42.653988" lon="0.646327">
        <ele>2873.5</ele>
        <time>1970-01-01T02:33:43.000Z</time>
      </trkpt>
      <trkpt lat="42.653987" lon="0.646327">
        <ele>2873.5</ele>
        <time>1970-01-01T02:33:44.000Z</time>
      </trkpt>
      <trkpt lat="42.653987" lon="0.646327">
        <ele>2873.5</ele>
        <time>1970-01-01T02:33:45.000Z</time>
      </trkpt>
      <trkpt lat="42.653987" lon="0.646327">
        <ele>2873.5</ele>
        <time>1970-01-01T02:33:46.000Z</time>
      </trkpt>
      <trkpt lat="42.653987" lon="0.646327">
        <ele>2873.5</ele>
        <time>1970-01-01T02:33:47.000Z</time>
      </trkpt>
      <trkpt lat="42.653987" lon="0.646327">
        <ele>2873.5</ele>
        <time>1970-01-01T02:33:48.000Z</time>
      </trkpt>
      <trkpt lat="42.653987" lon="0.646327">
        <ele>2873.5</ele>
        <time>1970-01-01T02:33:49.000Z</time>
      </trkpt>
      <trkpt lat="42.653987" lon="0.646327">
        <ele>2873.5</ele>
        <time>1970-01-01T02:33:50.000Z</time>
      </trkpt>
      <trkpt lat="42.653987" lon="0.646327">
        <ele>2873.5</ele>
        <time>1970-01-01T02:33:51.000Z</time>
      </trkpt>
      <trkpt lat="42.653987" lon="0.646327">
        <ele>2873.5</ele>
        <time>1970-01-01T02:33:52.000Z</time>
      </trkpt>
      <trkpt lat="42.653987" lon="0.646327">
        <ele>2873.5</ele>
        <time>1970-01-01T02:33:53.000Z</time>
      </trkpt>
      <trkpt lat="42.653987" lon="0.646328">
        <ele>2873.5</ele>
        <time>1970-01-01T02:33:54.000Z</time>
      </trkpt>
      <trkpt lat="42.653987" lon="0.646328">
        <ele>2873.5</ele>
        <time>1970-01-01T02:33:55.000Z</time>
      </trkpt>
      <trkpt lat="42.653987" lon="0.646328">
        <ele>2873.5</ele>
        <time>1970-01-01T02:33:56.000Z</time>
      </trkpt>
      <trkpt lat="42.653987" lon="0.646328">
        <ele>2873.5</ele>
        <time>1970-01-01T02:33:57.000Z</time>
      </trkpt>
      <trkpt lat="42.653987" lon="0.646328">
        <ele>2873.5</ele>
        <time>1970-01-01T02:33:58.000Z</time>
      </trkpt>
      <trkpt lat="42.653987" lon="0.646328">
        <ele>2873.5</ele>
        <time>1970-01-01T02:33:59.000Z</time>
      </trkpt>
      <trkpt lat="42.653987" lon="0.646328">
        <ele>2873.5</ele>
        <time>1970-01-01T02:34:00.000Z</time>
      </trkpt>
      <trkpt lat="42.653987" lon="0.646328">
        <ele>2873.5</ele>
        <time>1970-01-01T02:34:01.000Z</time>
      </trkpt>
      <trkpt lat="42.653987" lon="0.646328">
        <ele>2873.5</ele>
        <time>1970-01-01T02:34:02.000Z</time>
      </trkpt>
      <trkpt lat="42.653987" lon="0.646328">
        <ele>2873.5</ele>
        <time>1970-01-01T02:34:03.000Z</time>
      </trkpt>
      <trkpt lat="42.653987" lon="0.646328">
        <ele>2873.5</ele>
        <time>1970-01-01T02:34:04.000Z</time>
      </trkpt>
      <trkpt lat="42.653987" lon="0.646328">
        <ele>2873.5</ele>
        <time>1970-01-01T02:34:05.000Z</time>
      </trkpt>
      <trkpt lat="42.653987" lon="0.646328">
        <ele>2873.5</ele>
        <time>1970-01-01T02:34:06.000Z</time>
      </trkpt>
      <trkpt lat="42.653987" lon="0.646328">
        <ele>2873.5</ele>
        <time>1970-01-01T02:34:07.000Z</time>
      </trkpt>
      <trkpt lat="42.653987" lon="0.646328">
        <ele>2873.5</ele>
        <time>1970-01-01T02:34:08.000Z</time>
      </trkpt>
      <trkpt lat="42.653987" lon="0.646328">
        <ele>2873.5</ele>
        <time>1970-01-01T02:34:09.000Z</time>
      </trkpt>
      <trkpt lat="42.653987" lon="0.646328">
        <ele>2873.5</ele>
        <time>1970-01-01T02:34:10.000Z</time>
      </trkpt>
      <trkpt lat="42.653987" lon="0.646328">
        <ele>2873.5</ele>
        <time>1970-01-01T02:34:11.000Z</time>
      </trkpt>
      <trkpt lat="42.653987" lon="0.646328">
        <ele>2873.5</ele>
        <time>1970-01-01T02:34:12.000Z</time>
      </trkpt>
      <trkpt lat="42.653987" lon="0.646328">
        <ele>2873.5</ele>
        <time>1970-01-01T02:34:13.000Z</time>
      </trkpt>
      <trkpt lat="42.653987" lon="0.646328">
        <ele>2873.5</ele>
        <time>1970-01-01T02:34:14.000Z</time>
      </trkpt>
      <trkpt lat="42.653987" lon="0.646328">
        <ele>2873.5</ele>
        <time>1970-01-01T02:34:15.000Z</time>
      </trkpt>
      <trkpt lat="42.653987" lon="0.646328">
        <ele>2873.5</ele>
        <time>1970-01-01T02:34:16.000Z</time>
      </trkpt>
      <trkpt lat="42.653987" lon="0.646328">
        <ele>2873.5</ele>
        <time>1970-01-01T02:34:17.000Z</time>
      </trkpt>
      <trkpt lat="42.653987" lon="0.646328">
        <ele>2873.5</ele>
        <time>1970-01-01T02:34:18.000Z</time>
      </trkpt>
      <trkpt lat="42.653987" lon="0.646328">
        <ele>2873.5</ele>
        <time>1970-01-01T02:34:19.000Z</time>
      </trkpt>
      <trkpt lat="42.653987" lon="0.646328">
        <ele>2873.5</ele>
        <time>1970-01-01T02:34:20.000Z</time>
      </trkpt>
      <trkpt lat="42.653987" lon="0.646328">
        <ele>2873.5</ele>
        <time>1970-01-01T02:34:21.000Z</time>
      </trkpt>
      <trkpt lat="42.653987" lon="0.646328">
        <ele>2873.5</ele>
        <time>1970-01-01T02:34:22.000Z</time>
      </trkpt>
      <trkpt lat="42.653987" lon="0.646328">
        <ele>2873.5</ele>
        <time>1970-01-01T02:34:23.000Z</time>
      </trkpt>
      <trkpt lat="42.653987" lon="0.646328">
        <ele>2873.5</ele>
        <time>1970-01-01T02:34:24.000Z</time>
      </trkpt>
      <trkpt lat="42.653987" lon="0.646328">
        <ele>2873.5</ele>
        <time>1970-01-01T02:34:25.000Z</time>
      </trkpt>
      <trkpt lat="42.653987" lon="0.646328">
        <ele>2873.5</ele>
        <time>1970-01-01T02:34:26.000Z</time>
      </trkpt>
      <trkpt lat="42.653987" lon="0.646328">
        <ele>2873.5</ele>
        <time>1970-01-01T02:34:27.000Z</time>
      </trkpt>
      <trkpt lat="42.653987" lon="0.646328">
        <ele>2873.5</ele>
        <time>1970-01-01T02:34:28.000Z</time>
      </trkpt>
      <trkpt lat="42.653987" lon="0.646328">
        <ele>2873.5</ele>
        <time>1970-01-01T02:34:29.000Z</time>
      </trkpt>
      <trkpt lat="42.653987" lon="0.646328">
        <ele>2873.5</ele>
        <time>1970-01-01T02:34:30.000Z</time>
      </trkpt>
      <trkpt lat="42.653987" lon="0.646328">
        <ele>2873.5</ele>
        <time>1970-01-01T02:34:31.000Z</time>
      </trkpt>
      <trkpt lat="42.653987" lon="0.646328">
        <ele>2873.5</ele>
        <time>1970-01-01T02:34:32.000Z</time>
      </trkpt>
      <trkpt lat="42.653987" lon="0.646328">
        <ele>2873.5</ele>
        <time>1970-01-01T02:34:33.000Z</time>
      </trkpt>
      <trkpt lat="42.653987" lon="0.646328">
        <ele>2873.5</ele>
        <time>1970-01-01T02:34:34.000Z</time>
      </trkpt>
      <trkpt lat="42.653987" lon="0.646328">
        <ele>2873.5</ele>
        <time>1970-01-01T02:34:35.000Z</time>
      </trkpt>
      <trkpt lat="42.653986" lon="0.646328">
        <ele>2873.5</ele>
        <time>1970-01-01T02:34:36.000Z</time>
      </trkpt>
      <trkpt lat="42.653986" lon="0.646328">
        <ele>2873.5</ele>
        <time>1970-01-01T02:34:37.000Z</time>
      </trkpt>
      <trkpt lat="42.653986" lon="0.646329">
        <ele>2873.5</ele>
        <time>1970-01-01T02:34:38.000Z</time>
      </trkpt>
      <trkpt lat="42.653986" lon="0.646329">
        <ele>2873.5</ele>
        <time>1970-01-01T02:34:39.000Z</time>
      </trkpt>
      <trkpt lat="42.653986" lon="0.646329">
        <ele>2873.5</ele>
        <time>1970-01-01T02:34:40.000Z</time>
      </trkpt>
      <trkpt lat="42.653986" lon="0.646329">
        <ele>2873.5</ele>
        <time>1970-01-01T02:34:41.000Z</time>
      </trkpt>
      <trkpt lat="42.653986" lon="0.646329">
        <ele>2873.5</ele>
        <time>1970-01-01T02:34:42.000Z</time>
      </trkpt>
      <trkpt lat="42.653986" lon="0.646329">
        <ele>2873.5</ele>
        <time>1970-01-01T02:34:43.000Z</time>
      </trkpt>
      <trkpt lat="42.653986" lon="0.646329">
        <ele>2873.5</ele>
        <time>1970-01-01T02:34:44.000Z</time>
      </trkpt>
      <trkpt lat="42.653986" lon="0.646329">
        <ele>2873.5</ele>
        <time>1970-01-01T02:34:45.000Z</time>
      </trkpt>
      <trkpt lat="42.653986" lon="0.646329">
        <ele>2873.5</ele>
        <time>1970-01-01T02:34:46.000Z</time>
      </trkpt>
      <trkpt lat="42.653986" lon="0.646329">
        <ele>2873.5</ele>
        <time>1970-01-01T02:34:47.000Z</time>
      </trkpt>
      <trkpt lat="42.653986" lon="0.646329">
        <ele>2873.5</ele>
        <time>1970-01-01T02:34:48.000Z</time>
      </trkpt>
      <trkpt lat="42.653986" lon="0.646329">
        <ele>2873.5</ele>
        <time>1970-01-01T02:34:49.000Z</time>
      </trkpt>
      <trkpt lat="42.653986" lon="0.646329">
        <ele>2873.5</ele>
        <time>1970-01-01T02:34:50.000Z</time>
      </trkpt>
      <trkpt lat="42.653986" lon="0.646329">
        <ele>2873.5</ele>
        <time>1970-01-01T02:34:51.000Z</time>
      </trkpt>
      <trkpt lat="42.653986" lon="0.646329">
        <ele>2873.5</ele>
        <time>1970-01-01T02:34:52.000Z</time>
      </trkpt>
      <trkpt lat="42.653986" lon="0.646329">
        <ele>2873.5</ele>
        <time>1970-01-01T02:34:53.000Z</time>
      </trkpt>
      <trkpt lat="42.653986" lon="0.646329">
        <ele>2873.5</ele>
        <time>1970-01-01T02:34:54.000Z</time>
      </trkpt>
      <trkpt lat="42.653986" lon="0.646329">
        <ele>2873.5</ele>
        <time>1970-01-01T02:34:55.000Z</time>
      </trkpt>
      <trkpt lat="42.653986" lon="0.646329">
        <ele>2873.5</ele>
        <time>1970-01-01T02:34:56.000Z</time>
      </trkpt>
      <trkpt lat="42.653986" lon="0.646329">
        <ele>2873.5</ele>
        <time>1970-01-01T02:34:57.000Z</time>
      </trkpt>
      <trkpt lat="42.653986" lon="0.646329">
        <ele>2873.5</ele>
        <time>1970-01-01T02:34:58.000Z</time>
      </trkpt>
      <trkpt lat="42.653986" lon="0.646329">
        <ele>2873.5</ele>
        <time>1970-01-01T02:34:59.000Z</time>
      </trkpt>
      <trkpt lat="42.653986" lon="0.646329">
        <ele>2873.5</ele>
        <time>1970-01-01T02:35:00.000Z</time>
      </trkpt>
      <trkpt lat="42.653986" lon="0.646329">
        <ele>2873.5</ele>
        <time>1970-01-01T02:35:01.000Z</time>
      </trkpt>
      <trkpt lat="42.653986" lon="0.646329">
        <ele>2873.5</ele>
        <time>1970-01-01T02:35:02.000Z</time>
      </trkpt>
      <trkpt lat="42.653986" lon="0.646329">
        <ele>2873.5</ele>
        <time>1970-01-01T02:35:03.000Z</time>
      </trkpt>
      <trkpt lat="42.653986" lon="0.646329">
        <ele>2873.5</ele>
        <time>1970-01-01T02:35:04.000Z</time>
      </trkpt>
      <trkpt lat="42.653986" lon="0.646329">
        <ele>2873.5</ele>
        <time>1970-01-01T02:35:05.000Z</time>
      </trkpt>
      <trkpt lat="42.653986" lon="0.646329">
        <ele>2873.5</ele>
        <time>1970-01-01T02:35:06.000Z</time>
      </trkpt>
      <trkpt lat="42.653986" lon="0.646329">
        <ele>2873.5</ele>
        <time>1970-01-01T02:35:07.000Z</time>
      </trkpt>
      <trkpt lat="42.653986" lon="0.646329">
        <ele>2873.5</ele>
        <time>1970-01-01T02:35:08.000Z</time>
      </trkpt>
      <trkpt lat="42.653986" lon="0.646329">
        <ele>2873.5</ele>
        <time>1970-01-01T02:35:09.000Z</time>
      </trkpt>
      <trkpt lat="42.653986" lon="0.646329">
        <ele>2873.5</ele>
        <time>1970-01-01T02:35:10.000Z</time>
      </trkpt>
      <trkpt lat="42.653986" lon="0.646329">
        <ele>2873.5</ele>
        <time>1970-01-01T02:35:11.000Z</time>
      </trkpt>
      <trkpt lat="42.653986" lon="0.646329">
        <ele>2873.5</ele>
        <time>1970-01-01T02:35:12.000Z</time>
      </trkpt>
      <trkpt lat="42.653986" lon="0.646329">
        <ele>2873.5</ele>
        <time>1970-01-01T02:35:13.000Z</time>
      </trkpt>
      <trkpt lat="42.653986" lon="0.646329">
        <ele>2873.5</ele>
        <time>1970-01-01T02:35:14.000Z</time>
      </trkpt>
      <trkpt lat="42.653986" lon="0.646329">
        <ele>2873.5</ele>
        <time>1970-01-01T02:35:15.000Z</time>
      </trkpt>
      <trkpt lat="42.653986" lon="0.646329">
        <ele>2873.5</ele>
        <time>1970-01-01T02:35:16.000Z</time>
      </trkpt>
      <trkpt lat="42.653986" lon="0.646329">
        <ele>2873.5</ele>
        <time>1970-01-01T02:35:17.000Z</time>
      </trkpt>
      <trkpt lat="42.653986" lon="0.646329">
        <ele>2873.5</ele>
        <time>1970-01-01T02:35:18.000Z</time>
      </trkpt>
      <trkpt lat="42.653986" lon="0.646329">
        <ele>2873.5</ele>
        <time>1970-01-01T02:35:19.000Z</time>
      </trkpt>
      <trkpt lat="42.653986" lon="0.646329">
        <ele>2873.5</ele>
        <time>1970-01-01T02:35:20.000Z</time>
      </trkpt>
      <trkpt lat="42.653986" lon="0.646329">
        <ele>2873.5</ele>
        <time>1970-01-01T02:35:21.000Z</time>
      </trkpt>
      <trkpt lat="42.653986" lon="0.646329">
        <ele>2873.5</ele>
        <time>1970-01-01T02:35:22.000Z</time>
      </trkpt>
      <trkpt lat="42.653986" lon="0.646329">
        <ele>2873.5</ele>
        <time>1970-01-01T02:35:23.000Z</time>
      </trkpt>
      <trkpt lat="42.653986" lon="0.646329">
        <ele>2873.5</ele>
        <time>1970-01-01T02:35:24.000Z</time>
      </trkpt>
      <trkpt lat="42.653986" lon="0.646329">
        <ele>2873.5</ele>
        <time>1970-01-01T02:35:25.000Z</time>
      </trkpt>
      <trkpt lat="42.653986" lon="0.646329">
        <ele>2873.5</ele>
        <time>1970-01-01T02:35:26.000Z</time>
      </trkpt>
      <trkpt lat="42.653986" lon="0.646329">
        <ele>2873.5</ele>
        <time>1970-01-01T02:35:27.000Z</time>
      </trkpt>
      <trkpt lat="42.653986" lon="0.646329">
        <ele>2873.5</ele>
        <time>1970-01-01T02:35:28.000Z</time>
      </trkpt>
      <trkpt lat="42.653986" lon="0.646329">
        <ele>2873.5</ele>
        <time>1970-01-01T02:35:29.000Z</time>
      </trkpt>
      <trkpt lat="42.653986" lon="0.646329">
        <ele>2873.5</ele>
        <time>1970-01-01T02:35:30.000Z</time>
      </trkpt>
      <trkpt lat="42.653986" lon="0.646329">
        <ele>2873.5</ele>
        <time>1970-01-01T02:35:31.000Z</time>
      </trkpt>
      <trkpt lat="42.653986" lon="0.646329">
        <ele>2873.5</ele>
        <time>1970-01-01T02:35:32.000Z</time>
      </trkpt>
      <trkpt lat="42.653986" lon="0.646329">
        <ele>2873.5</ele>
        <time>1970-01-01T02:35:33.000Z</time>
      </trkpt>
      <trkpt lat="42.653986" lon="0.646329">
        <ele>2873.5</ele>
        <time>1970-01-01T02:35:34.000Z</time>
      </trkpt>
      <trkpt lat="42.653986" lon="0.646329">
        <ele>2873.5</ele>
        <time>1970-01-01T02:35:35.000Z</time>
      </trkpt>
      <trkpt lat="42.653986" lon="0.646329">
        <ele>2873.5</ele>
        <time>1970-01-01T02:35:36.000Z</time>
      </trkpt>
      <trkpt lat="42.653986" lon="0.646329">
        <ele>2873.5</ele>
        <time>1970-01-01T02:35:37.000Z</time>
      </trkpt>
      <trkpt lat="42.653986" lon="0.646329">
        <ele>2873.5</ele>
        <time>1970-01-01T02:35:38.000Z</time>
      </trkpt>
      <trkpt lat="42.653986" lon="0.646329">
        <ele>2873.5</ele>
        <time>1970-01-01T02:35:39.000Z</time>
      </trkpt>
      <trkpt lat="42.653986" lon="0.646329">
        <ele>2873.5</ele>
        <time>1970-01-01T02:35:40.000Z</time>
      </trkpt>
      <trkpt lat="42.653986" lon="0.646329">
        <ele>2873.5</ele>
        <time>1970-01-01T02:35:41.000Z</time>
      </trkpt>
      <trkpt lat="42.653986" lon="0.646329">
        <ele>2873.5</ele>
        <time>1970-01-01T02:35:42.000Z</time>
      </trkpt>
      <trkpt lat="42.653986" lon="0.646329">
        <ele>2873.5</ele>
        <time>1970-01-01T02:35:43.000Z</time>
      </trkpt>
      <trkpt lat="42.653986" lon="0.646329">
        <ele>2873.5</ele>
        <time>1970-01-01T02:35:44.000Z</time>
      </trkpt>
      <trkpt lat="42.653986" lon="0.646329">
        <ele>2873.5</ele>
        <time>1970-01-01T02:35:45.000Z</time>
      </trkpt>
      <trkpt lat="42.653986" lon="0.646329">
        <ele>2873.5</ele>
        <time>1970-01-01T02:35:46.000Z</time>
      </trkpt>
      <trkpt lat="42.653986" lon="0.646329">
        <ele>2873.5</ele>
        <time>1970-01-01T02:35:47.000Z</time>
      </trkpt>
      <trkpt lat="42.653986" lon="0.646329">
        <ele>2873.5</ele>
        <time>1970-01-01T02:35:48.000Z</time>
      </trkpt>
      <trkpt lat="42.653986" lon="0.646329">
        <ele>2873.5</ele>
        <time>1970-01-01T02:35:49.000Z</time>
      </trkpt>
      <trkpt lat="42.653986" lon="0.646329">
        <ele>2873.5</ele>
        <time>1970-01-01T02:35:50.000Z</time>
      </trkpt>
      <trkpt lat="42.653986" lon="0.646329">
        <ele>2873.5</ele>
        <time>1970-01-01T02:35:51.000Z</time>
      </trkpt>
      <trkpt lat="42.653986" lon="0.646329">
        <ele>2873.5</ele>
        <time>1970-01-01T02:35:52.000Z</time>
      </trkpt>
      <trkpt lat="42.653986" lon="0.646329">
        <ele>2873.5</ele>
        <time>1970-01-01T02:35:53.000Z</time>
      </trkpt>
      <trkpt lat="42.653986" lon="0.646329">
        <ele>2873.5</ele>
        <time>1970-01-01T02:35:54.000Z</time>
      </trkpt>
      <trkpt lat="42.653986" lon="0.646329">
        <ele>2873.5</ele>
        <time>1970-01-01T02:35:55.000Z</time>
      </trkpt>
      <trkpt lat="42.653986" lon="0.646329">
        <ele>2873.5</ele>
        <time>1970-01-01T02:35:56.000Z</time>
      </trkpt>
      <trkpt lat="42.653986" lon="0.646329">
        <ele>2873.5</ele>
        <time>1970-01-01T02:35:57.000Z</time>
      </trkpt>
      <trkpt lat="42.653986" lon="0.646329">
        <ele>2873.5</ele>
        <time>1970-01-01T02:35:58.000Z</time>
      </trkpt>
      <trkpt lat="42.653986" lon="0.646329">
        <ele>2873.5</ele>
        <time>1970-01-01T02:35:59.000Z</time>
      </trkpt>
      <trkpt lat="42.653986" lon="0.646329">
        <ele>2873.5</ele>
        <time>1970-01-01T02:36:00.000Z</time>
      </trkpt>
      <trkpt lat="42.653986" lon="0.646329">
        <ele>2873.5</ele>
        <time>1970-01-01T02:36:01.000Z</time>
      </trkpt>
      <trkpt lat="42.653986" lon="0.646329">
        <ele>2873.5</ele>
        <time>1970-01-01T02:36:02.000Z</time>
      </trkpt>
      <trkpt lat="42.653986" lon="0.646329">
        <ele>2873.5</ele>
        <time>1970-01-01T02:36:03.000Z</time>
      </trkpt>
      <trkpt lat="42.653986" lon="0.646329">
        <ele>2873.5</ele>
        <time>1970-01-01T02:36:04.000Z</time>
      </trkpt>
      <trkpt lat="42.653986" lon="0.646329">
        <ele>2873.5</ele>
        <time>1970-01-01T02:36:05.000Z</time>
      </trkpt>
      <trkpt lat="42.653986" lon="0.64633">
        <ele>2873.5</ele>
        <time>1970-01-01T02:36:06.000Z</time>
      </trkpt>
      <trkpt lat="42.653986" lon="0.64633">
        <ele>2873.5</ele>
        <time>1970-01-01T02:36:07.000Z</time>
      </trkpt>
      <trkpt lat="42.653986" lon="0.64633">
        <ele>2873.5</ele>
        <time>1970-01-01T02:36:08.000Z</time>
      </trkpt>
      <trkpt lat="42.653986" lon="0.64633">
        <ele>2873.5</ele>
        <time>1970-01-01T02:36:09.000Z</time>
      </trkpt>
      <trkpt lat="42.653986" lon="0.64633">
        <ele>2873.5</ele>
        <time>1970-01-01T02:36:10.000Z</time>
      </trkpt>
      <trkpt lat="42.653986" lon="0.64633">
        <ele>2873.5</ele>
        <time>1970-01-01T02:36:11.000Z</time>
      </trkpt>
      <trkpt lat="42.653984" lon="0.646332">
        <ele>2873.5</ele>
        <time>1970-01-01T02:36:12.000Z</time>
      </trkpt>
      <trkpt lat="42.653981" lon="0.646335">
        <ele>2873.5</ele>
        <time>1970-01-01T02:36:13.000Z</time>
      </trkpt>
      <trkpt lat="42.653979" lon="0.646337">
        <ele>2873.5</ele>
        <time>1970-01-01T02:36:14.000Z</time>
      </trkpt>
      <trkpt lat="42.653978" lon="0.646339">
        <ele>2873.5</ele>
        <time>1970-01-01T02:36:15.000Z</time>
      </trkpt>
      <trkpt lat="42.653978" lon="0.646342">
        <ele>2873.5</ele>
        <time>1970-01-01T02:36:16.000Z</time>
      </trkpt>
      <trkpt lat="42.65398" lon="0.646338">
        <ele>2873.5</ele>
        <time>1970-01-01T02:36:17.000Z</time>
      </trkpt>
      <trkpt lat="42.653981" lon="0.646338">
        <ele>2873.5</ele>
        <time>1970-01-01T02:36:18.000Z</time>
      </trkpt>
      <trkpt lat="42.653981" lon="0.646338">
        <ele>2873.5</ele>
        <time>1970-01-01T02:36:19.000Z</time>
      </trkpt>
      <trkpt lat="42.653981" lon="0.64634">
        <ele>2873.5</ele>
        <time>1970-01-01T02:36:20.000Z</time>
      </trkpt>
      <trkpt lat="42.653981" lon="0.646341">
        <ele>2873.5</ele>
        <time>1970-01-01T02:36:21.000Z</time>
      </trkpt>
      <trkpt lat="42.653981" lon="0.646342">
        <ele>2873.5</ele>
        <time>1970-01-01T02:36:22.000Z</time>
      </trkpt>
      <trkpt lat="42.653981" lon="0.646343">
        <ele>2873.5</ele>
        <time>1970-01-01T02:36:23.000Z</time>
      </trkpt>
      <trkpt lat="42.65398" lon="0.646344">
        <ele>2873.5</ele>
        <time>1970-01-01T02:36:24.000Z</time>
      </trkpt>
      <trkpt lat="42.65398" lon="0.646345">
        <ele>2873.5</ele>
        <time>1970-01-01T02:36:25.000Z</time>
      </trkpt>
      <trkpt lat="42.65398" lon="0.646345">
        <ele>2873.5</ele>
        <time>1970-01-01T02:36:26.000Z</time>
      </trkpt>
      <trkpt lat="42.65398" lon="0.646346">
        <ele>2873.5</ele>
        <time>1970-01-01T02:36:27.000Z</time>
      </trkpt>
      <trkpt lat="42.65398" lon="0.646346">
        <ele>2873.5</ele>
        <time>1970-01-01T02:36:28.000Z</time>
      </trkpt>
      <trkpt lat="42.65398" lon="0.646346">
        <ele>2873.5</ele>
        <time>1970-01-01T02:36:29.000Z</time>
      </trkpt>
      <trkpt lat="42.65398" lon="0.646346">
        <ele>2873.5</ele>
        <time>1970-01-01T02:36:30.000Z</time>
      </trkpt>
      <trkpt lat="42.65398" lon="0.646346">
        <ele>2873.5</ele>
        <time>1970-01-01T02:36:31.000Z</time>
      </trkpt>
      <trkpt lat="42.65398" lon="0.646347">
        <ele>2873.5</ele>
        <time>1970-01-01T02:36:32.000Z</time>
      </trkpt>
      <trkpt lat="42.65398" lon="0.646348">
        <ele>2873.5</ele>
        <time>1970-01-01T02:36:33.000Z</time>
      </trkpt>
      <trkpt lat="42.653979" lon="0.646346">
        <ele>2873.5</ele>
        <time>1970-01-01T02:36:34.000Z</time>
      </trkpt>
      <trkpt lat="42.653979" lon="0.646345">
        <ele>2873.5</ele>
        <time>1970-01-01T02:36:35.000Z</time>
      </trkpt>
      <trkpt lat="42.653978" lon="0.646345">
        <ele>2873.5</ele>
        <time>1970-01-01T02:36:36.000Z</time>
      </trkpt>
      <trkpt lat="42.653978" lon="0.646344">
        <ele>2873.5</ele>
        <time>1970-01-01T02:36:37.000Z</time>
      </trkpt>
      <trkpt lat="42.653978" lon="0.646344">
        <ele>2873.5</ele>
        <time>1970-01-01T02:36:38.000Z</time>
      </trkpt>
      <trkpt lat="42.653978" lon="0.646344">
        <ele>2873.5</ele>
        <time>1970-01-01T02:36:39.000Z</time>
      </trkpt>
      <trkpt lat="42.653978" lon="0.646344">
        <ele>2873.5</ele>
        <time>1970-01-01T02:36:40.000Z</time>
      </trkpt>
      <trkpt lat="42.653978" lon="0.646344">
        <ele>2873.5</ele>
        <time>1970-01-01T02:36:41.000Z</time>
      </trkpt>
      <trkpt lat="42.653978" lon="0.646344">
        <ele>2873.5</ele>
        <time>1970-01-01T02:36:42.000Z</time>
      </trkpt>
      <trkpt lat="42.653979" lon="0.646344">
        <ele>2873.5</ele>
        <time>1970-01-01T02:36:43.000Z</time>
      </trkpt>
      <trkpt lat="42.653979" lon="0.646344">
        <ele>2873.5</ele>
        <time>1970-01-01T02:36:44.000Z</time>
      </trkpt>
      <trkpt lat="42.653978" lon="0.646342">
        <ele>2873.5</ele>
        <time>1970-01-01T02:36:45.000Z</time>
      </trkpt>
      <trkpt lat="42.653978" lon="0.646339">
        <ele>2873.5</ele>
        <time>1970-01-01T02:36:46.000Z</time>
      </trkpt>
      <trkpt lat="42.653979" lon="0.646337">
        <ele>2873.5</ele>
        <time>1970-01-01T02:36:47.000Z</time>
      </trkpt>
      <trkpt lat="42.65398" lon="0.646339">
        <ele>2873.5</ele>
        <time>1970-01-01T02:36:48.000Z</time>
      </trkpt>
      <trkpt lat="42.653981" lon="0.64634">
        <ele>2873.5</ele>
        <time>1970-01-01T02:36:49.000Z</time>
      </trkpt>
      <trkpt lat="42.653981" lon="0.646343">
        <ele>2873.6</ele>
        <time>1970-01-01T02:36:50.000Z</time>
      </trkpt>
      <trkpt lat="42.65398" lon="0.646346">
        <ele>2873.6</ele>
        <time>1970-01-01T02:36:51.000Z</time>
      </trkpt>
      <trkpt lat="42.65398" lon="0.646346">
        <ele>2873.6</ele>
        <time>1970-01-01T02:36:52.000Z</time>
      </trkpt>
      <trkpt lat="42.653979" lon="0.646346">
        <ele>2873.6</ele>
        <time>1970-01-01T02:36:53.000Z</time>
      </trkpt>
      <trkpt lat="42.653978" lon="0.646345">
        <ele>2873.6</ele>
        <time>1970-01-01T02:36:54.000Z</time>
      </trkpt>
      <trkpt lat="42.653978" lon="0.646345">
        <ele>2873.6</ele>
        <time>1970-01-01T02:36:56.000Z</time>
      </trkpt>
      <trkpt lat="42.653977" lon="0.646345">
        <ele>2873.6</ele>
        <time>1970-01-01T02:36:57.000Z</time>
      </trkpt>
      <trkpt lat="42.653977" lon="0.646345">
        <ele>2873.6</ele>
        <time>1970-01-01T02:36:58.000Z</time>
      </trkpt>
      <trkpt lat="42.653977" lon="0.646345">
        <ele>2873.6</ele>
        <time>1970-01-01T02:36:59.000Z</time>
      </trkpt>
      <trkpt lat="42.653977" lon="0.646345">
        <ele>2873.6</ele>
        <time>1970-01-01T02:37:00.000Z</time>
      </trkpt>
      <trkpt lat="42.653977" lon="0.646345">
        <ele>2873.6</ele>
        <time>1970-01-01T02:37:01.000Z</time>
      </trkpt>
      <trkpt lat="42.653977" lon="0.646344">
        <ele>2873.6</ele>
        <time>1970-01-01T02:37:02.000Z</time>
      </trkpt>
      <trkpt lat="42.653976" lon="0.646344">
        <ele>2873.6</ele>
        <time>1970-01-01T02:37:03.000Z</time>
      </trkpt>
      <trkpt lat="42.653976" lon="0.646343">
        <ele>2873.6</ele>
        <time>1970-01-01T02:37:04.000Z</time>
      </trkpt>
      <trkpt lat="42.653976" lon="0.646344">
        <ele>2873.6</ele>
        <time>1970-01-01T02:37:05.000Z</time>
      </trkpt>
      <trkpt lat="42.653975" lon="0.646345">
        <ele>2873.6</ele>
        <time>1970-01-01T02:37:06.000Z</time>
      </trkpt>
      <trkpt lat="42.653975" lon="0.646346">
        <ele>2873.6</ele>
        <time>1970-01-01T02:37:07.000Z</time>
      </trkpt>
      <trkpt lat="42.653975" lon="0.646346">
        <ele>2873.6</ele>
        <time>1970-01-01T02:37:08.000Z</time>
      </trkpt>
      <trkpt lat="42.653974" lon="0.646347">
        <ele>2873.6</ele>
        <time>1970-01-01T02:37:09.000Z</time>
      </trkpt>
      <trkpt lat="42.653974" lon="0.646347">
        <ele>2873.6</ele>
        <time>1970-01-01T02:37:10.000Z</time>
      </trkpt>
      <trkpt lat="42.653974" lon="0.646348">
        <ele>2873.6</ele>
        <time>1970-01-01T02:37:11.000Z</time>
      </trkpt>
      <trkpt lat="42.653974" lon="0.646349">
        <ele>2873.6</ele>
        <time>1970-01-01T02:37:12.000Z</time>
      </trkpt>
      <trkpt lat="42.653974" lon="0.646351">
        <ele>2873.6</ele>
        <time>1970-01-01T02:37:13.000Z</time>
      </trkpt>
      <trkpt lat="42.653974" lon="0.646351">
        <ele>2873.6</ele>
        <time>1970-01-01T02:37:14.000Z</time>
      </trkpt>
      <trkpt lat="42.653974" lon="0.646351">
        <ele>2873.6</ele>
        <time>1970-01-01T02:37:15.000Z</time>
      </trkpt>
      <trkpt lat="42.653975" lon="0.646351">
        <ele>2873.6</ele>
        <time>1970-01-01T02:37:16.000Z</time>
      </trkpt>
      <trkpt lat="42.653976" lon="0.64635">
        <ele>2873.6</ele>
        <time>1970-01-01T02:37:17.000Z</time>
      </trkpt>
      <trkpt lat="42.653977" lon="0.646349">
        <ele>2873.6</ele>
        <time>1970-01-01T02:37:18.000Z</time>
      </trkpt>
      <trkpt lat="42.653977" lon="0.646349">
        <ele>2873.6</ele>
        <time>1970-01-01T02:37:19.000Z</time>
      </trkpt>
      <trkpt lat="42.653977" lon="0.646349">
        <ele>2873.6</ele>
        <time>1970-01-01T02:37:20.000Z</time>
      </trkpt>
      <trkpt lat="42.653977" lon="0.646349">
        <ele>2873.6</ele>
        <time>1970-01-01T02:37:21.000Z</time>
      </trkpt>
      <trkpt lat="42.653977" lon="0.646349">
        <ele>2873.6</ele>
        <time>1970-01-01T02:37:22.000Z</time>
      </trkpt>
      <trkpt lat="42.653977" lon="0.646349">
        <ele>2873.6</ele>
        <time>1970-01-01T02:37:23.000Z</time>
      </trkpt>
      <trkpt lat="42.653977" lon="0.646349">
        <ele>2873.6</ele>
        <time>1970-01-01T02:37:24.000Z</time>
      </trkpt>
      <trkpt lat="42.653977" lon="0.646348">
        <ele>2873.6</ele>
        <time>1970-01-01T02:37:25.000Z</time>
      </trkpt>
      <trkpt lat="42.653977" lon="0.646348">
        <ele>2873.6</ele>
        <time>1970-01-01T02:37:26.000Z</time>
      </trkpt>
      <trkpt lat="42.653977" lon="0.646348">
        <ele>2873.6</ele>
        <time>1970-01-01T02:37:27.000Z</time>
      </trkpt>
      <trkpt lat="42.653977" lon="0.646348">
        <ele>2873.6</ele>
        <time>1970-01-01T02:37:28.000Z</time>
      </trkpt>
      <trkpt lat="42.653977" lon="0.646348">
        <ele>2873.6</ele>
        <time>1970-01-01T02:37:29.000Z</time>
      </trkpt>
      <trkpt lat="42.653977" lon="0.646348">
        <ele>2873.6</ele>
        <time>1970-01-01T02:37:30.000Z</time>
      </trkpt>
      <trkpt lat="42.653977" lon="0.646348">
        <ele>2873.6</ele>
        <time>1970-01-01T02:37:31.000Z</time>
      </trkpt>
      <trkpt lat="42.653977" lon="0.646348">
        <ele>2873.6</ele>
        <time>1970-01-01T02:37:32.000Z</time>
      </trkpt>
      <trkpt lat="42.653977" lon="0.646348">
        <ele>2873.6</ele>
        <time>1970-01-01T02:37:33.000Z</time>
      </trkpt>
      <trkpt lat="42.653977" lon="0.646348">
        <ele>2873.6</ele>
        <time>1970-01-01T02:37:34.000Z</time>
      </trkpt>
      <trkpt lat="42.653977" lon="0.646348">
        <ele>2873.6</ele>
        <time>1970-01-01T02:37:35.000Z</time>
      </trkpt>
      <trkpt lat="42.653977" lon="0.646348">
        <ele>2873.6</ele>
        <time>1970-01-01T02:37:36.000Z</time>
      </trkpt>
      <trkpt lat="42.653977" lon="0.646348">
        <ele>2873.6</ele>
        <time>1970-01-01T02:37:37.000Z</time>
      </trkpt>
      <trkpt lat="42.653977" lon="0.646348">
        <ele>2873.6</ele>
        <time>1970-01-01T02:37:38.000Z</time>
      </trkpt>
      <trkpt lat="42.653975" lon="0.646345">
        <ele>2873.6</ele>
        <time>1970-01-01T02:37:39.000Z</time>
      </trkpt>
      <trkpt lat="42.653973" lon="0.646346">
        <ele>2873.6</ele>
        <time>1970-01-01T02:37:40.000Z</time>
      </trkpt>
      <trkpt lat="42.653972" lon="0.646348">
        <ele>2873.6</ele>
        <time>1970-01-01T02:37:41.000Z</time>
      </trkpt>
      <trkpt lat="42.653971" lon="0.646347">
        <ele>2873.6</ele>
        <time>1970-01-01T02:37:42.000Z</time>
      </trkpt>
      <trkpt lat="42.65397" lon="0.646344">
        <ele>2873.6</ele>
        <time>1970-01-01T02:37:43.000Z</time>
      </trkpt>
      <trkpt lat="42.65397" lon="0.646339">
        <ele>2873.6</ele>
        <time>1970-01-01T02:37:45.000Z</time>
      </trkpt>
      <trkpt lat="42.65397" lon="0.646333">
        <ele>2873.6</ele>
        <time>1970-01-01T02:37:47.000Z</time>
      </trkpt>
      <trkpt lat="42.653971" lon="0.646326">
        <ele>2873.6</ele>
        <time>1970-01-01T02:37:48.000Z</time>
      </trkpt>
      <trkpt lat="42.653971" lon="0.646321">
        <ele>2873.6</ele>
        <time>1970-01-01T02:37:49.000Z</time>
      </trkpt>
      <trkpt lat="42.653971" lon="0.646318">
        <ele>2873.6</ele>
        <time>1970-01-01T02:37:50.000Z</time>
      </trkpt>
      <trkpt lat="42.653971" lon="0.646317">
        <ele>2873.6</ele>
        <time>1970-01-01T02:37:51.000Z</time>
      </trkpt>
      <trkpt lat="42.653971" lon="0.646317">
        <ele>2873.6</ele>
        <time>1970-01-01T02:37:52.000Z</time>
      </trkpt>
      <trkpt lat="42.653971" lon="0.646317">
        <ele>2873.6</ele>
        <time>1970-01-01T02:37:53.000Z</time>
      </trkpt>
      <trkpt lat="42.653971" lon="0.646317">
        <ele>2873.6</ele>
        <time>1970-01-01T02:37:54.000Z</time>
      </trkpt>
      <trkpt lat="42.653971" lon="0.646316">
        <ele>2873.7</ele>
        <time>1970-01-01T02:37:55.000Z</time>
      </trkpt>
      <trkpt lat="42.653971" lon="0.646315">
        <ele>2873.7</ele>
        <time>1970-01-01T02:37:57.000Z</time>
      </trkpt>
      <trkpt lat="42.653971" lon="0.646314">
        <ele>2873.7</ele>
        <time>1970-01-01T02:37:58.000Z</time>
      </trkpt>
      <trkpt lat="42.653971" lon="0.646314">
        <ele>2873.7</ele>
        <time>1970-01-01T02:37:59.000Z</time>
      </trkpt>
      <trkpt lat="42.653971" lon="0.646314">
        <ele>2873.7</ele>
        <time>1970-01-01T02:38:00.000Z</time>
      </trkpt>
      <trkpt lat="42.653971" lon="0.646314">
        <ele>2873.7</ele>
        <time>1970-01-01T02:38:01.000Z</time>
      </trkpt>
      <trkpt lat="42.653971" lon="0.646314">
        <ele>2873.7</ele>
        <time>1970-01-01T02:38:02.000Z</time>
      </trkpt>
      <trkpt lat="42.653971" lon="0.646314">
        <ele>2873.7</ele>
        <time>1970-01-01T02:38:03.000Z</time>
      </trkpt>
      <trkpt lat="42.653971" lon="0.646314">
        <ele>2873.7</ele>
        <time>1970-01-01T02:38:04.000Z</time>
      </trkpt>
      <trkpt lat="42.653971" lon="0.646314">
        <ele>2873.7</ele>
        <time>1970-01-01T02:38:05.000Z</time>
      </trkpt>
      <trkpt lat="42.653971" lon="0.646314">
        <ele>2873.7</ele>
        <time>1970-01-01T02:38:06.000Z</time>
      </trkpt>
      <trkpt lat="42.653971" lon="0.646315">
        <ele>2873.7</ele>
        <time>1970-01-01T02:38:07.000Z</time>
      </trkpt>
      <trkpt lat="42.65397" lon="0.646315">
        <ele>2873.7</ele>
        <time>1970-01-01T02:38:08.000Z</time>
      </trkpt>
      <trkpt lat="42.65397" lon="0.646315">
        <ele>2873.7</ele>
        <time>1970-01-01T02:38:09.000Z</time>
      </trkpt>
      <trkpt lat="42.65397" lon="0.646315">
        <ele>2873.7</ele>
        <time>1970-01-01T02:38:10.000Z</time>
      </trkpt>
      <trkpt lat="42.65397" lon="0.646315">
        <ele>2873.7</ele>
        <time>1970-01-01T02:38:11.000Z</time>
      </trkpt>
      <trkpt lat="42.65397" lon="0.646315">
        <ele>2873.7</ele>
        <time>1970-01-01T02:38:12.000Z</time>
      </trkpt>
      <trkpt lat="42.653971" lon="0.646314">
        <ele>2873.7</ele>
        <time>1970-01-01T02:38:13.000Z</time>
      </trkpt>
      <trkpt lat="42.653972" lon="0.646318">
        <ele>2873.7</ele>
        <time>1970-01-01T02:38:14.000Z</time>
      </trkpt>
      <trkpt lat="42.653972" lon="0.646321">
        <ele>2873.7</ele>
        <time>1970-01-01T02:38:15.000Z</time>
      </trkpt>
      <trkpt lat="42.653973" lon="0.646322">
        <ele>2873.7</ele>
        <time>1970-01-01T02:38:16.000Z</time>
      </trkpt>
      <trkpt lat="42.653973" lon="0.646323">
        <ele>2873.7</ele>
        <time>1970-01-01T02:38:17.000Z</time>
      </trkpt>
      <trkpt lat="42.653973" lon="0.646323">
        <ele>2873.7</ele>
        <time>1970-01-01T02:38:18.000Z</time>
      </trkpt>
      <trkpt lat="42.653973" lon="0.646323">
        <ele>2873.7</ele>
        <time>1970-01-01T02:38:19.000Z</time>
      </trkpt>
      <trkpt lat="42.653973" lon="0.646323">
        <ele>2873.7</ele>
        <time>1970-01-01T02:38:20.000Z</time>
      </trkpt>
      <trkpt lat="42.653973" lon="0.646323">
        <ele>2873.7</ele>
        <time>1970-01-01T02:38:21.000Z</time>
      </trkpt>
      <trkpt lat="42.653973" lon="0.646323">
        <ele>2873.7</ele>
        <time>1970-01-01T02:38:22.000Z</time>
      </trkpt>
      <trkpt lat="42.653974" lon="0.646324">
        <ele>2873.7</ele>
        <time>1970-01-01T02:38:23.000Z</time>
      </trkpt>
      <trkpt lat="42.653975" lon="0.646325">
        <ele>2873.6</ele>
        <time>1970-01-01T02:38:24.000Z</time>
      </trkpt>
      <trkpt lat="42.653975" lon="0.646326">
        <ele>2873.6</ele>
        <time>1970-01-01T02:38:25.000Z</time>
      </trkpt>
      <trkpt lat="42.653976" lon="0.646326">
        <ele>2873.6</ele>
        <time>1970-01-01T02:38:26.000Z</time>
      </trkpt>
      <trkpt lat="42.653976" lon="0.646326">
        <ele>2873.6</ele>
        <time>1970-01-01T02:38:27.000Z</time>
      </trkpt>
      <trkpt lat="42.653976" lon="0.646326">
        <ele>2873.6</ele>
        <time>1970-01-01T02:38:28.000Z</time>
      </trkpt>
      <trkpt lat="42.653976" lon="0.646326">
        <ele>2873.6</ele>
        <time>1970-01-01T02:38:29.000Z</time>
      </trkpt>
      <trkpt lat="42.653976" lon="0.646326">
        <ele>2873.6</ele>
        <time>1970-01-01T02:38:30.000Z</time>
      </trkpt>
      <trkpt lat="42.653976" lon="0.646326">
        <ele>2873.6</ele>
        <time>1970-01-01T02:38:31.000Z</time>
      </trkpt>
      <trkpt lat="42.653976" lon="0.646326">
        <ele>2873.6</ele>
        <time>1970-01-01T02:38:32.000Z</time>
      </trkpt>
      <trkpt lat="42.653976" lon="0.646326">
        <ele>2873.6</ele>
        <time>1970-01-01T02:38:33.000Z</time>
      </trkpt>
      <trkpt lat="42.653976" lon="0.646326">
        <ele>2873.6</ele>
        <time>1970-01-01T02:38:34.000Z</time>
      </trkpt>
      <trkpt lat="42.653976" lon="0.646326">
        <ele>2873.6</ele>
        <time>1970-01-01T02:38:35.000Z</time>
      </trkpt>
      <trkpt lat="42.653976" lon="0.646326">
        <ele>2873.6</ele>
        <time>1970-01-01T02:38:36.000Z</time>
      </trkpt>
      <trkpt lat="42.653977" lon="0.646323">
        <ele>2873.6</ele>
        <time>1970-01-01T02:38:37.000Z</time>
      </trkpt>
      <trkpt lat="42.653977" lon="0.646322">
        <ele>2873.6</ele>
        <time>1970-01-01T02:38:38.000Z</time>
      </trkpt>
      <trkpt lat="42.653977" lon="0.646321">
        <ele>2873.6</ele>
        <time>1970-01-01T02:38:39.000Z</time>
      </trkpt>
      <trkpt lat="42.653977" lon="0.646321">
        <ele>2873.6</ele>
        <time>1970-01-01T02:38:40.000Z</time>
      </trkpt>
      <trkpt lat="42.653977" lon="0.646321">
        <ele>2873.6</ele>
        <time>1970-01-01T02:38:41.000Z</time>
      </trkpt>
      <trkpt lat="42.653977" lon="0.646322">
        <ele>2873.6</ele>
        <time>1970-01-01T02:38:42.000Z</time>
      </trkpt>
      <trkpt lat="42.653976" lon="0.646322">
        <ele>2873.6</ele>
        <time>1970-01-01T02:38:43.000Z</time>
      </trkpt>
      <trkpt lat="42.653976" lon="0.646322">
        <ele>2873.6</ele>
        <time>1970-01-01T02:38:44.000Z</time>
      </trkpt>
      <trkpt lat="42.653976" lon="0.646322">
        <ele>2873.6</ele>
        <time>1970-01-01T02:38:45.000Z</time>
      </trkpt>
      <trkpt lat="42.653977" lon="0.64632">
        <ele>2873.6</ele>
        <time>1970-01-01T02:38:46.000Z</time>
      </trkpt>
      <trkpt lat="42.653978" lon="0.646319">
        <ele>2873.6</ele>
        <time>1970-01-01T02:38:47.000Z</time>
      </trkpt>
      <trkpt lat="42.653977" lon="0.646319">
        <ele>2873.6</ele>
        <time>1970-01-01T02:38:48.000Z</time>
      </trkpt>
      <trkpt lat="42.653976" lon="0.646319">
        <ele>2873.6</ele>
        <time>1970-01-01T02:38:50.000Z</time>
      </trkpt>
      <trkpt lat="42.653976" lon="0.646319">
        <ele>2873.6</ele>
        <time>1970-01-01T02:38:51.000Z</time>
      </trkpt>
      <trkpt lat="42.653975" lon="0.646319">
        <ele>2873.6</ele>
        <time>1970-01-01T02:38:52.000Z</time>
      </trkpt>
      <trkpt lat="42.653974" lon="0.646319">
        <ele>2873.6</ele>
        <time>1970-01-01T02:38:53.000Z</time>
      </trkpt>
      <trkpt lat="42.653974" lon="0.64632">
        <ele>2873.6</ele>
        <time>1970-01-01T02:38:54.000Z</time>
      </trkpt>
      <trkpt lat="42.653973" lon="0.646319">
        <ele>2873.6</ele>
        <time>1970-01-01T02:38:55.000Z</time>
      </trkpt>
      <trkpt lat="42.653973" lon="0.64632">
        <ele>2873.6</ele>
        <time>1970-01-01T02:38:56.000Z</time>
      </trkpt>
      <trkpt lat="42.653972" lon="0.646319">
        <ele>2873.6</ele>
        <time>1970-01-01T02:38:57.000Z</time>
      </trkpt>
      <trkpt lat="42.653972" lon="0.646318">
        <ele>2873.6</ele>
        <time>1970-01-01T02:38:58.000Z</time>
      </trkpt>
      <trkpt lat="42.653972" lon="0.646317">
        <ele>2873.6</ele>
        <time>1970-01-01T02:38:59.000Z</time>
      </trkpt>
      <trkpt lat="42.65397" lon="0.646316">
        <ele>2873.6</ele>
        <time>1970-01-01T02:39:00.000Z</time>
      </trkpt>
      <trkpt lat="42.653969" lon="0.646314">
        <ele>2873.6</ele>
        <time>1970-01-01T02:39:01.000Z</time>
      </trkpt>
      <trkpt lat="42.653967" lon="0.646313">
        <ele>2873.7</ele>
        <time>1970-01-01T02:39:03.000Z</time>
      </trkpt>
      <trkpt lat="42.653965" lon="0.646313">
        <ele>2873.7</ele>
        <time>1970-01-01T02:39:04.000Z</time>
      </trkpt>
      <trkpt lat="42.653963" lon="0.646312">
        <ele>2873.7</ele>
        <time>1970-01-01T02:39:05.000Z</time>
      </trkpt>
      <trkpt lat="42.653962" lon="0.646311">
        <ele>2873.7</ele>
        <time>1970-01-01T02:39:06.000Z</time>
      </trkpt>
      <trkpt lat="42.653961" lon="0.64631">
        <ele>2873.7</ele>
        <time>1970-01-01T02:39:07.000Z</time>
      </trkpt>
      <trkpt lat="42.653959" lon="0.646309">
        <ele>2873.7</ele>
        <time>1970-01-01T02:39:08.000Z</time>
      </trkpt>
      <trkpt lat="42.653957" lon="0.646308">
        <ele>2873.7</ele>
        <time>1970-01-01T02:39:09.000Z</time>
      </trkpt>
      <trkpt lat="42.653953" lon="0.646307">
        <ele>2873.7</ele>
        <time>1970-01-01T02:39:10.000Z</time>
      </trkpt>
      <trkpt lat="42.653949" lon="0.646306">
        <ele>2873.7</ele>
        <time>1970-01-01T02:39:11.000Z</time>
      </trkpt>
      <trkpt lat="42.653946" lon="0.646304">
        <ele>2873.7</ele>
        <time>1970-01-01T02:39:12.000Z</time>
      </trkpt>
      <trkpt lat="42.653942" lon="0.646302">
        <ele>2873.7</ele>
        <time>1970-01-01T02:39:13.000Z</time>
      </trkpt>
      <trkpt lat="42.653939" lon="0.646301">
        <ele>2873.7</ele>
        <time>1970-01-01T02:39:14.000Z</time>
      </trkpt>
      <trkpt lat="42.653937" lon="0.646299">
        <ele>2873.7</ele>
        <time>1970-01-01T02:39:15.000Z</time>
      </trkpt>
      <trkpt lat="42.653935" lon="0.646297">
        <ele>2873.8</ele>
        <time>1970-01-01T02:39:16.000Z</time>
      </trkpt>
      <trkpt lat="42.653934" lon="0.646296">
        <ele>2873.8</ele>
        <time>1970-01-01T02:39:17.000Z</time>
      </trkpt>
      <trkpt lat="42.653933" lon="0.646295">
        <ele>2873.8</ele>
        <time>1970-01-01T02:39:18.000Z</time>
      </trkpt>
      <trkpt lat="42.653933" lon="0.646293">
        <ele>2873.8</ele>
        <time>1970-01-01T02:39:19.000Z</time>
      </trkpt>
      <trkpt lat="42.653932" lon="0.646291">
        <ele>2873.8</ele>
        <time>1970-01-01T02:39:20.000Z</time>
      </trkpt>
      <trkpt lat="42.653931" lon="0.64629">
        <ele>2873.8</ele>
        <time>1970-01-01T02:39:21.000Z</time>
      </trkpt>
      <trkpt lat="42.653929" lon="0.646289">
        <ele>2873.8</ele>
        <time>1970-01-01T02:39:22.000Z</time>
      </trkpt>
      <trkpt lat="42.653927" lon="0.646287">
        <ele>2873.8</ele>
        <time>1970-01-01T02:39:23.000Z</time>
      </trkpt>
      <trkpt lat="42.653926" lon="0.646285">
        <ele>2873.8</ele>
        <time>1970-01-01T02:39:24.000Z</time>
      </trkpt>
      <trkpt lat="42.653925" lon="0.646285">
        <ele>2873.8</ele>
        <time>1970-01-01T02:39:25.000Z</time>
      </trkpt>
      <trkpt lat="42.653924" lon="0.646284">
        <ele>2873.8</ele>
        <time>1970-01-01T02:39:26.000Z</time>
      </trkpt>
      <trkpt lat="42.65392" lon="0.646282">
        <ele>2873.8</ele>
        <time>1970-01-01T02:39:28.000Z</time>
      </trkpt>
      <trkpt lat="42.653919" lon="0.646282">
        <ele>2873.8</ele>
        <time>1970-01-01T02:39:29.000Z</time>
      </trkpt>
      <trkpt lat="42.653917" lon="0.646281">
        <ele>2873.8</ele>
        <time>1970-01-01T02:39:30.000Z</time>
      </trkpt>
      <trkpt lat="42.653915" lon="0.646281">
        <ele>2873.8</ele>
        <time>1970-01-01T02:39:31.000Z</time>
      </trkpt>
      <trkpt lat="42.653914" lon="0.64628">
        <ele>2873.8</ele>
        <time>1970-01-01T02:39:32.000Z</time>
      </trkpt>
      <trkpt lat="42.653911" lon="0.646279">
        <ele>2873.9</ele>
        <time>1970-01-01T02:39:33.000Z</time>
      </trkpt>
      <trkpt lat="42.653908" lon="0.646277">
        <ele>2873.9</ele>
        <time>1970-01-01T02:39:34.000Z</time>
      </trkpt>
      <trkpt lat="42.653907" lon="0.646276">
        <ele>2873.9</ele>
        <time>1970-01-01T02:39:35.000Z</time>
      </trkpt>
      <trkpt lat="42.653904" lon="0.646274">
        <ele>2873.9</ele>
        <time>1970-01-01T02:39:37.000Z</time>
      </trkpt>
      <trkpt lat="42.6539" lon="0.646272">
        <ele>2873.9</ele>
        <time>1970-01-01T02:39:38.000Z</time>
      </trkpt>
      <trkpt lat="42.653897" lon="0.64627">
        <ele>2873.9</ele>
        <time>1970-01-01T02:39:39.000Z</time>
      </trkpt>
      <trkpt lat="42.653894" lon="0.646269">
        <ele>2873.9</ele>
        <time>1970-01-01T02:39:41.000Z</time>
      </trkpt>
      <trkpt lat="42.653893" lon="0.646269">
        <ele>2873.9</ele>
        <time>1970-01-01T02:39:42.000Z</time>
      </trkpt>
      <trkpt lat="42.653892" lon="0.646267">
        <ele>2873.9</ele>
        <time>1970-01-01T02:39:43.000Z</time>
      </trkpt>
      <trkpt lat="42.653891" lon="0.646266">
        <ele>2873.9</ele>
        <time>1970-01-01T02:39:44.000Z</time>
      </trkpt>
      <trkpt lat="42.653887" lon="0.646264">
        <ele>2873.9</ele>
        <time>1970-01-01T02:39:46.000Z</time>
      </trkpt>
      <trkpt lat="42.653885" lon="0.646264">
        <ele>2874</ele>
        <time>1970-01-01T02:39:47.000Z</time>
      </trkpt>
      <trkpt lat="42.653884" lon="0.646264">
        <ele>2874</ele>
        <time>1970-01-01T02:39:48.000Z</time>
      </trkpt>
      <trkpt lat="42.653883" lon="0.646263">
        <ele>2874</ele>
        <time>1970-01-01T02:39:49.000Z</time>
      </trkpt>
      <trkpt lat="42.653882" lon="0.646259">
        <ele>2874</ele>
        <time>1970-01-01T02:39:50.000Z</time>
      </trkpt>
      <trkpt lat="42.65388" lon="0.646258">
        <ele>2874</ele>
        <time>1970-01-01T02:39:51.000Z</time>
      </trkpt>
      <trkpt lat="42.653878" lon="0.646258">
        <ele>2874</ele>
        <time>1970-01-01T02:39:52.000Z</time>
      </trkpt>
      <trkpt lat="42.653877" lon="0.646258">
        <ele>2874</ele>
        <time>1970-01-01T02:39:53.000Z</time>
      </trkpt>
      <trkpt lat="42.653875" lon="0.646258">
        <ele>2874</ele>
        <time>1970-01-01T02:39:54.000Z</time>
      </trkpt>
      <trkpt lat="42.653873" lon="0.646259">
        <ele>2874</ele>
        <time>1970-01-01T02:39:55.000Z</time>
      </trkpt>
      <trkpt lat="42.65387" lon="0.64626">
        <ele>2874</ele>
        <time>1970-01-01T02:39:57.000Z</time>
      </trkpt>
      <trkpt lat="42.653868" lon="0.646258">
        <ele>2874</ele>
        <time>1970-01-01T02:39:58.000Z</time>
      </trkpt>
      <trkpt lat="42.653863" lon="0.646255">
        <ele>2874</ele>
        <time>1970-01-01T02:39:59.000Z</time>
      </trkpt>
      <trkpt lat="42.653859" lon="0.646253">
        <ele>2874.1</ele>
        <time>1970-01-01T02:40:00.000Z</time>
      </trkpt>
      <trkpt lat="42.653853" lon="0.646248">
        <ele>2874.1</ele>
        <time>1970-01-01T02:40:02.000Z</time>
      </trkpt>
      <trkpt lat="42.65385" lon="0.646246">
        <ele>2874.1</ele>
        <time>1970-01-01T02:40:03.000Z</time>
      </trkpt>
      <trkpt lat="42.653846" lon="0.646242">
        <ele>2874.1</ele>
        <time>1970-01-01T02:40:04.000Z</time>
      </trkpt>
      <trkpt lat="42.653843" lon="0.646238">
        <ele>2874.1</ele>
        <time>1970-01-01T02:40:05.000Z</time>
      </trkpt>
      <trkpt lat="42.653841" lon="0.646235">
        <ele>2874.1</ele>
        <time>1970-01-01T02:40:06.000Z</time>
      </trkpt>
      <trkpt lat="42.653834" lon="0.64623">
        <ele>2874.2</ele>
        <time>1970-01-01T02:40:07.000Z</time>
      </trkpt>
      <trkpt lat="42.653825" lon="0.646224">
        <ele>2874.2</ele>
        <time>1970-01-01T02:40:08.000Z</time>
      </trkpt>
      <trkpt lat="42.653819" lon="0.64622">
        <ele>2874.2</ele>
        <time>1970-01-01T02:40:09.000Z</time>
      </trkpt>
      <trkpt lat="42.653813" lon="0.646219">
        <ele>2874.2</ele>
        <time>1970-01-01T02:40:10.000Z</time>
      </trkpt>
      <trkpt lat="42.653805" lon="0.646217">
        <ele>2874.3</ele>
        <time>1970-01-01T02:40:11.000Z</time>
      </trkpt>
      <trkpt lat="42.653794" lon="0.646214">
        <ele>2874.3</ele>
        <time>1970-01-01T02:40:12.000Z</time>
      </trkpt>
      <trkpt lat="42.653787" lon="0.646213">
        <ele>2874.3</ele>
        <time>1970-01-01T02:40:13.000Z</time>
      </trkpt>
      <trkpt lat="42.653779" lon="0.646212">
        <ele>2874.4</ele>
        <time>1970-01-01T02:40:14.000Z</time>
      </trkpt>
      <trkpt lat="42.653766" lon="0.646211">
        <ele>2874.4</ele>
        <time>1970-01-01T02:40:16.000Z</time>
      </trkpt>
      <trkpt lat="42.653757" lon="0.646211">
        <ele>2874.4</ele>
        <time>1970-01-01T02:40:17.000Z</time>
      </trkpt>
      <trkpt lat="42.653751" lon="0.646211">
        <ele>2874.4</ele>
        <time>1970-01-01T02:40:18.000Z</time>
      </trkpt>
      <trkpt lat="42.653741" lon="0.646209">
        <ele>2874.5</ele>
        <time>1970-01-01T02:40:19.000Z</time>
      </trkpt>
      <trkpt lat="42.65373" lon="0.646208">
        <ele>2874.5</ele>
        <time>1970-01-01T02:40:21.000Z</time>
      </trkpt>
      <trkpt lat="42.653724" lon="0.646208">
        <ele>2874.5</ele>
        <time>1970-01-01T02:40:22.000Z</time>
      </trkpt>
      <trkpt lat="42.653717" lon="0.646207">
        <ele>2874.5</ele>
        <time>1970-01-01T02:40:24.000Z</time>
      </trkpt>
      <trkpt lat="42.65371" lon="0.646207">
        <ele>2874.6</ele>
        <time>1970-01-01T02:40:25.000Z</time>
      </trkpt>
      <trkpt lat="42.653705" lon="0.646206">
        <ele>2874.6</ele>
        <time>1970-01-01T02:40:26.000Z</time>
      </trkpt>
      <trkpt lat="42.653696" lon="0.646202">
        <ele>2874.6</ele>
        <time>1970-01-01T02:40:28.000Z</time>
      </trkpt>
      <trkpt lat="42.65369" lon="0.646199">
        <ele>2874.6</ele>
        <time>1970-01-01T02:40:29.000Z</time>
      </trkpt>
      <trkpt lat="42.653687" lon="0.646198">
        <ele>2874.6</ele>
        <time>1970-01-01T02:40:30.000Z</time>
      </trkpt>
      <trkpt lat="42.653687" lon="0.646199">
        <ele>2874.6</ele>
        <time>1970-01-01T02:40:31.000Z</time>
      </trkpt>
      <trkpt lat="42.653689" lon="0.6462">
        <ele>2874.6</ele>
        <time>1970-01-01T02:40:32.000Z</time>
      </trkpt>
      <trkpt lat="42.653691" lon="0.646201">
        <ele>2874.7</ele>
        <time>1970-01-01T02:40:33.000Z</time>
      </trkpt>
      <trkpt lat="42.653693" lon="0.646202">
        <ele>2874.7</ele>
        <time>1970-01-01T02:40:34.000Z</time>
      </trkpt>
      <trkpt lat="42.653694" lon="0.646202">
        <ele>2874.7</ele>
        <time>1970-01-01T02:40:35.000Z</time>
      </trkpt>
      <trkpt lat="42.653694" lon="0.646203">
        <ele>2874.7</ele>
        <time>1970-01-01T02:40:36.000Z</time>
      </trkpt>
      <trkpt lat="42.653695" lon="0.646203">
        <ele>2874.7</ele>
        <time>1970-01-01T02:40:37.000Z</time>
      </trkpt>
      <trkpt lat="42.653695" lon="0.646203">
        <ele>2874.7</ele>
        <time>1970-01-01T02:40:38.000Z</time>
      </trkpt>
      <trkpt lat="42.653694" lon="0.646202">
        <ele>2874.7</ele>
        <time>1970-01-01T02:40:39.000Z</time>
      </trkpt>
      <trkpt lat="42.653691" lon="0.646201">
        <ele>2874.7</ele>
        <time>1970-01-01T02:40:40.000Z</time>
      </trkpt>
      <trkpt lat="42.653686" lon="0.646199">
        <ele>2874.7</ele>
        <time>1970-01-01T02:40:42.000Z</time>
      </trkpt>
      <trkpt lat="42.653678" lon="0.646196">
        <ele>2874.7</ele>
        <time>1970-01-01T02:40:43.000Z</time>
      </trkpt>
      <trkpt lat="42.653669" lon="0.646194">
        <ele>2874.8</ele>
        <time>1970-01-01T02:40:45.000Z</time>
      </trkpt>
      <trkpt lat="42.653661" lon="0.646193">
        <ele>2874.8</ele>
        <time>1970-01-01T02:40:46.000Z</time>
      </trkpt>
      <trkpt lat="42.653649" lon="0.646192">
        <ele>2874.9</ele>
        <time>1970-01-01T02:40:48.000Z</time>
      </trkpt>
      <trkpt lat="42.653639" lon="0.646192">
        <ele>2874.9</ele>
        <time>1970-01-01T02:40:49.000Z</time>
      </trkpt>
      <trkpt lat="42.653632" lon="0.646194">
        <ele>2874.9</ele>
        <time>1970-01-01T02:40:50.000Z</time>
      </trkpt>
      <trkpt lat="42.653619" lon="0.6462">
        <ele>2875</ele>
        <time>1970-01-01T02:40:51.000Z</time>
      </trkpt>
      <trkpt lat="42.653612" lon="0.646203">
        <ele>2875</ele>
        <time>1970-01-01T02:40:52.000Z</time>
      </trkpt>
      <trkpt lat="42.653606" lon="0.646206">
        <ele>2875.1</ele>
        <time>1970-01-01T02:40:53.000Z</time>
      </trkpt>
      <trkpt lat="42.653599" lon="0.64621">
        <ele>2875.1</ele>
        <time>1970-01-01T02:40:55.000Z</time>
      </trkpt>
      <trkpt lat="42.653592" lon="0.646213">
        <ele>2875.1</ele>
        <time>1970-01-01T02:40:57.000Z</time>
      </trkpt>
      <trkpt lat="42.653586" lon="0.646216">
        <ele>2875.2</ele>
        <time>1970-01-01T02:40:58.000Z</time>
      </trkpt>
      <trkpt lat="42.653579" lon="0.646219">
        <ele>2875.2</ele>
        <time>1970-01-01T02:40:59.000Z</time>
      </trkpt>
      <trkpt lat="42.653573" lon="0.646223">
        <ele>2875.3</ele>
        <time>1970-01-01T02:41:01.000Z</time>
      </trkpt>
      <trkpt lat="42.653566" lon="0.646226">
        <ele>2875.3</ele>
        <time>1970-01-01T02:41:02.000Z</time>
      </trkpt>
      <trkpt lat="42.653559" lon="0.646229">
        <ele>2875.4</ele>
        <time>1970-01-01T02:41:03.000Z</time>
      </trkpt>
      <trkpt lat="42.653553" lon="0.646233">
        <ele>2875.4</ele>
        <time>1970-01-01T02:41:04.000Z</time>
      </trkpt>
      <trkpt lat="42.653546" lon="0.646236">
        <ele>2875.5</ele>
        <time>1970-01-01T02:41:05.000Z</time>
      </trkpt>
      <trkpt lat="42.653536" lon="0.646229">
        <ele>2875.6</ele>
        <time>1970-01-01T02:41:06.000Z</time>
      </trkpt>
      <trkpt lat="42.653529" lon="0.646221">
        <ele>2875.6</ele>
        <time>1970-01-01T02:41:07.000Z</time>
      </trkpt>
      <trkpt lat="42.653522" lon="0.646212">
        <ele>2875.7</ele>
        <time>1970-01-01T02:41:08.000Z</time>
      </trkpt>
      <trkpt lat="42.653508" lon="0.646194">
        <ele>2875.9</ele>
        <time>1970-01-01T02:41:09.000Z</time>
      </trkpt>
      <trkpt lat="42.653502" lon="0.646185">
        <ele>2875.9</ele>
        <time>1970-01-01T02:41:11.000Z</time>
      </trkpt>
      <trkpt lat="42.653497" lon="0.646175">
        <ele>2876</ele>
        <time>1970-01-01T02:41:12.000Z</time>
      </trkpt>
      <trkpt lat="42.653491" lon="0.646159">
        <ele>2876.2</ele>
        <time>1970-01-01T02:41:14.000Z</time>
      </trkpt>
      <trkpt lat="42.653481" lon="0.646146">
        <ele>2876.3</ele>
        <time>1970-01-01T02:41:15.000Z</time>
      </trkpt>
      <trkpt lat="42.653474" lon="0.646142">
        <ele>2876.4</ele>
        <time>1970-01-01T02:41:16.000Z</time>
      </trkpt>
      <trkpt lat="42.653468" lon="0.64614">
        <ele>2876.4</ele>
        <time>1970-01-01T02:41:17.000Z</time>
      </trkpt>
      <trkpt lat="42.65346" lon="0.646137">
        <ele>2876.5</ele>
        <time>1970-01-01T02:41:18.000Z</time>
      </trkpt>
      <trkpt lat="42.653446" lon="0.646134">
        <ele>2876.7</ele>
        <time>1970-01-01T02:41:20.000Z</time>
      </trkpt>
      <trkpt lat="42.653434" lon="0.646132">
        <ele>2876.8</ele>
        <time>1970-01-01T02:41:21.000Z</time>
      </trkpt>
      <trkpt lat="42.653423" lon="0.646132">
        <ele>2877</ele>
        <time>1970-01-01T02:41:22.000Z</time>
      </trkpt>
      <trkpt lat="42.653414" lon="0.646131">
        <ele>2877.1</ele>
        <time>1970-01-01T02:41:24.000Z</time>
      </trkpt>
      <trkpt lat="42.653403" lon="0.64613">
        <ele>2877.2</ele>
        <time>1970-01-01T02:41:25.000Z</time>
      </trkpt>
      <trkpt lat="42.653394" lon="0.646131">
        <ele>2877.3</ele>
        <time>1970-01-01T02:41:26.000Z</time>
      </trkpt>
      <trkpt lat="42.653385" lon="0.646132">
        <ele>2877.5</ele>
        <time>1970-01-01T02:41:28.000Z</time>
      </trkpt>
      <trkpt lat="42.653372" lon="0.646133">
        <ele>2877.6</ele>
        <time>1970-01-01T02:41:29.000Z</time>
      </trkpt>
      <trkpt lat="42.653364" lon="0.646134">
        <ele>2877.8</ele>
        <time>1970-01-01T02:41:30.000Z</time>
      </trkpt>
      <trkpt lat="42.653355" lon="0.646133">
        <ele>2877.9</ele>
        <time>1970-01-01T02:41:31.000Z</time>
      </trkpt>
      <trkpt lat="42.653345" lon="0.646132">
        <ele>2878</ele>
        <time>1970-01-01T02:41:33.000Z</time>
      </trkpt>
      <trkpt lat="42.653335" lon="0.646131">
        <ele>2878.2</ele>
        <time>1970-01-01T02:41:34.000Z</time>
      </trkpt>
      <trkpt lat="42.653324" lon="0.646132">
        <ele>2878.4</ele>
        <time>1970-01-01T02:41:35.000Z</time>
      </trkpt>
      <trkpt lat="42.653307" lon="0.646135">
        <ele>2878.7</ele>
        <time>1970-01-01T02:41:37.000Z</time>
      </trkpt>
      <trkpt lat="42.653301" lon="0.646136">
        <ele>2878.8</ele>
        <time>1970-01-01T02:41:38.000Z</time>
      </trkpt>
      <trkpt lat="42.653294" lon="0.646137">
        <ele>2878.9</ele>
        <time>1970-01-01T02:41:39.000Z</time>
      </trkpt>
      <trkpt lat="42.653287" lon="0.646138">
        <ele>2879</ele>
        <time>1970-01-01T02:41:40.000Z</time>
      </trkpt>
      <trkpt lat="42.65328" lon="0.646135">
        <ele>2879.1</ele>
        <time>1970-01-01T02:41:42.000Z</time>
      </trkpt>
      <trkpt lat="42.65327" lon="0.646135">
        <ele>2879.3</ele>
        <time>1970-01-01T02:41:43.000Z</time>
      </trkpt>
      <trkpt lat="42.653264" lon="0.646136">
        <ele>2879.5</ele>
        <time>1970-01-01T02:41:44.000Z</time>
      </trkpt>
      <trkpt lat="42.653257" lon="0.646136">
        <ele>2879.6</ele>
        <time>1970-01-01T02:41:45.000Z</time>
      </trkpt>
      <trkpt lat="42.653249" lon="0.646135">
        <ele>2879.7</ele>
        <time>1970-01-01T02:41:46.000Z</time>
      </trkpt>
      <trkpt lat="42.653239" lon="0.646133">
        <ele>2879.9</ele>
        <time>1970-01-01T02:41:47.000Z</time>
      </trkpt>
      <trkpt lat="42.653229" lon="0.646131">
        <ele>2880.1</ele>
        <time>1970-01-01T02:41:48.000Z</time>
      </trkpt>
      <trkpt lat="42.653222" lon="0.64613">
        <ele>2880.3</ele>
        <time>1970-01-01T02:41:49.000Z</time>
      </trkpt>
      <trkpt lat="42.653209" lon="0.646132">
        <ele>2880.6</ele>
        <time>1970-01-01T02:41:50.000Z</time>
      </trkpt>
      <trkpt lat="42.653198" lon="0.646133">
        <ele>2880.8</ele>
        <time>1970-01-01T02:41:52.000Z</time>
      </trkpt>
      <trkpt lat="42.653183" lon="0.646136">
        <ele>2881.1</ele>
        <time>1970-01-01T02:41:53.000Z</time>
      </trkpt>
      <trkpt lat="42.653175" lon="0.64614">
        <ele>2881.3</ele>
        <time>1970-01-01T02:41:54.000Z</time>
      </trkpt>
      <trkpt lat="42.653169" lon="0.646144">
        <ele>2881.5</ele>
        <time>1970-01-01T02:41:55.000Z</time>
      </trkpt>
      <trkpt lat="42.653161" lon="0.646149">
        <ele>2881.7</ele>
        <time>1970-01-01T02:41:56.000Z</time>
      </trkpt>
      <trkpt lat="42.653154" lon="0.646153">
        <ele>2881.9</ele>
        <time>1970-01-01T02:41:57.000Z</time>
      </trkpt>
      <trkpt lat="42.653145" lon="0.646158">
        <ele>2882.1</ele>
        <time>1970-01-01T02:41:58.000Z</time>
      </trkpt>
      <trkpt lat="42.653137" lon="0.646162">
        <ele>2882.3</ele>
        <time>1970-01-01T02:41:59.000Z</time>
      </trkpt>
      <trkpt lat="42.653129" lon="0.646166">
        <ele>2882.5</ele>
        <time>1970-01-01T02:42:00.000Z</time>
      </trkpt>
      <trkpt lat="42.65312" lon="0.646171">
        <ele>2882.7</ele>
        <time>1970-01-01T02:42:01.000Z</time>
      </trkpt>
      <trkpt lat="42.653111" lon="0.646177">
        <ele>2883</ele>
        <time>1970-01-01T02:42:02.000Z</time>
      </trkpt>
      <trkpt lat="42.653104" lon="0.646181">
        <ele>2883.2</ele>
        <time>1970-01-01T02:42:03.000Z</time>
      </trkpt>
      <trkpt lat="42.653096" lon="0.646186">
        <ele>2883.4</ele>
        <time>1970-01-01T02:42:04.000Z</time>
      </trkpt>
      <trkpt lat="42.653085" lon="0.646195">
        <ele>2883.7</ele>
        <time>1970-01-01T02:42:05.000Z</time>
      </trkpt>
      <trkpt lat="42.653075" lon="0.646201">
        <ele>2884</ele>
        <time>1970-01-01T02:42:07.000Z</time>
      </trkpt>
      <trkpt lat="42.653064" lon="0.646207">
        <ele>2884.3</ele>
        <time>1970-01-01T02:42:08.000Z</time>
      </trkpt>
      <trkpt lat="42.653053" lon="0.646211">
        <ele>2884.6</ele>
        <time>1970-01-01T02:42:09.000Z</time>
      </trkpt>
      <trkpt lat="42.653043" lon="0.646214">
        <ele>2884.9</ele>
        <time>1970-01-01T02:42:10.000Z</time>
      </trkpt>
      <trkpt lat="42.653034" lon="0.646217">
        <ele>2885.2</ele>
        <time>1970-01-01T02:42:12.000Z</time>
      </trkpt>
      <trkpt lat="42.653025" lon="0.646219">
        <ele>2885.4</ele>
        <time>1970-01-01T02:42:13.000Z</time>
      </trkpt>
      <trkpt lat="42.653017" lon="0.64622">
        <ele>2885.6</ele>
        <time>1970-01-01T02:42:14.000Z</time>
      </trkpt>
      <trkpt lat="42.653011" lon="0.64622">
        <ele>2885.8</ele>
        <time>1970-01-01T02:42:15.000Z</time>
      </trkpt>
      <trkpt lat="42.653004" lon="0.646219">
        <ele>2886</ele>
        <time>1970-01-01T02:42:16.000Z</time>
      </trkpt>
      <trkpt lat="42.652999" lon="0.646219">
        <ele>2886.1</ele>
        <time>1970-01-01T02:42:17.000Z</time>
      </trkpt>
      <trkpt lat="42.652992" lon="0.646218">
        <ele>2886.3</ele>
        <time>1970-01-01T02:42:18.000Z</time>
      </trkpt>
      <trkpt lat="42.652985" lon="0.646216">
        <ele>2886.5</ele>
        <time>1970-01-01T02:42:19.000Z</time>
      </trkpt>
      <trkpt lat="42.652979" lon="0.646214">
        <ele>2886.7</ele>
        <time>1970-01-01T02:42:20.000Z</time>
      </trkpt>
      <trkpt lat="42.65297" lon="0.646213">
        <ele>2887</ele>
        <time>1970-01-01T02:42:22.000Z</time>
      </trkpt>
      <trkpt lat="42.652964" lon="0.646211">
        <ele>2887.1</ele>
        <time>1970-01-01T02:42:23.000Z</time>
      </trkpt>
      <trkpt lat="42.65296" lon="0.646209">
        <ele>2887.2</ele>
        <time>1970-01-01T02:42:24.000Z</time>
      </trkpt>
      <trkpt lat="42.65295" lon="0.646206">
        <ele>2887.5</ele>
        <time>1970-01-01T02:42:26.000Z</time>
      </trkpt>
      <trkpt lat="42.652946" lon="0.646205">
        <ele>2887.6</ele>
        <time>1970-01-01T02:42:27.000Z</time>
      </trkpt>
      <trkpt lat="42.65294" lon="0.646204">
        <ele>2887.8</ele>
        <time>1970-01-01T02:42:28.000Z</time>
      </trkpt>
      <trkpt lat="42.652937" lon="0.646204">
        <ele>2887.9</ele>
        <time>1970-01-01T02:42:29.000Z</time>
      </trkpt>
      <trkpt lat="42.652931" lon="0.646203">
        <ele>2888.1</ele>
        <time>1970-01-01T02:42:30.000Z</time>
      </trkpt>
      <trkpt lat="42.652924" lon="0.646203">
        <ele>2888.2</ele>
        <time>1970-01-01T02:42:31.000Z</time>
      </trkpt>
      <trkpt lat="42.652917" lon="0.646204">
        <ele>2888.4</ele>
        <time>1970-01-01T02:42:32.000Z</time>
      </trkpt>
      <trkpt lat="42.652911" lon="0.646205">
        <ele>2888.6</ele>
        <time>1970-01-01T02:42:33.000Z</time>
      </trkpt>
      <trkpt lat="42.652901" lon="0.646208">
        <ele>2888.9</ele>
        <time>1970-01-01T02:42:35.000Z</time>
      </trkpt>
      <trkpt lat="42.652895" lon="0.64621">
        <ele>2889</ele>
        <time>1970-01-01T02:42:36.000Z</time>
      </trkpt>
      <trkpt lat="42.652888" lon="0.646211">
        <ele>2889.2</ele>
        <time>1970-01-01T02:42:37.000Z</time>
      </trkpt>
      <trkpt lat="42.652882" lon="0.646203">
        <ele>2889.4</ele>
        <time>1970-01-01T02:42:38.000Z</time>
      </trkpt>
      <trkpt lat="42.652883" lon="0.646198">
        <ele>2889.5</ele>
        <time>1970-01-01T02:42:39.000Z</time>
      </trkpt>
      <trkpt lat="42.652886" lon="0.646196">
        <ele>2889.6</ele>
        <time>1970-01-01T02:42:40.000Z</time>
      </trkpt>
      <trkpt lat="42.652888" lon="0.646196">
        <ele>2889.7</ele>
        <time>1970-01-01T02:42:41.000Z</time>
      </trkpt>
      <trkpt lat="42.652891" lon="0.646196">
        <ele>2889.8</ele>
        <time>1970-01-01T02:42:42.000Z</time>
      </trkpt>
      <trkpt lat="42.652892" lon="0.646196">
        <ele>2889.8</ele>
        <time>1970-01-01T02:42:43.000Z</time>
      </trkpt>
      <trkpt lat="42.652893" lon="0.646195">
        <ele>2889.8</ele>
        <time>1970-01-01T02:42:44.000Z</time>
      </trkpt>
      <trkpt lat="42.652894" lon="0.646195">
        <ele>2889.8</ele>
        <time>1970-01-01T02:42:45.000Z</time>
      </trkpt>
      <trkpt lat="42.652895" lon="0.646195">
        <ele>2889.9</ele>
        <time>1970-01-01T02:42:46.000Z</time>
      </trkpt>
      <trkpt lat="42.652896" lon="0.646194">
        <ele>2889.9</ele>
        <time>1970-01-01T02:42:47.000Z</time>
      </trkpt>
      <trkpt lat="42.652895" lon="0.646194">
        <ele>2889.9</ele>
        <time>1970-01-01T02:42:48.000Z</time>
      </trkpt>
      <trkpt lat="42.652892" lon="0.646194">
        <ele>2890</ele>
        <time>1970-01-01T02:42:49.000Z</time>
      </trkpt>
      <trkpt lat="42.652883" lon="0.646197">
        <ele>2890.3</ele>
        <time>1970-01-01T02:42:51.000Z</time>
      </trkpt>
      <trkpt lat="42.652873" lon="0.6462">
        <ele>2890.5</ele>
        <time>1970-01-01T02:42:52.000Z</time>
      </trkpt>
      <trkpt lat="42.652859" lon="0.646207">
        <ele>2890.9</ele>
        <time>1970-01-01T02:42:53.000Z</time>
      </trkpt>
      <trkpt lat="42.652847" lon="0.646212">
        <ele>2891.2</ele>
        <time>1970-01-01T02:42:55.000Z</time>
      </trkpt>
      <trkpt lat="42.652841" lon="0.646216">
        <ele>2891.4</ele>
        <time>1970-01-01T02:42:56.000Z</time>
      </trkpt>
      <trkpt lat="42.652834" lon="0.646222">
        <ele>2891.6</ele>
        <time>1970-01-01T02:42:57.000Z</time>
      </trkpt>
      <trkpt lat="42.652828" lon="0.646226">
        <ele>2891.8</ele>
        <time>1970-01-01T02:42:58.000Z</time>
      </trkpt>
      <trkpt lat="42.652821" lon="0.646228">
        <ele>2892</ele>
        <time>1970-01-01T02:42:59.000Z</time>
      </trkpt>
      <trkpt lat="42.652814" lon="0.646232">
        <ele>2892.1</ele>
        <time>1970-01-01T02:43:00.000Z</time>
      </trkpt>
      <trkpt lat="42.652806" lon="0.646236">
        <ele>2892.4</ele>
        <time>1970-01-01T02:43:01.000Z</time>
      </trkpt>
      <trkpt lat="42.652798" lon="0.646241">
        <ele>2892.6</ele>
        <time>1970-01-01T02:43:02.000Z</time>
      </trkpt>
      <trkpt lat="42.652788" lon="0.646245">
        <ele>2892.8</ele>
        <time>1970-01-01T02:43:03.000Z</time>
      </trkpt>
      <trkpt lat="42.65278" lon="0.64625">
        <ele>2893</ele>
        <time>1970-01-01T02:43:04.000Z</time>
      </trkpt>
      <trkpt lat="42.65277" lon="0.646254">
        <ele>2893.3</ele>
        <time>1970-01-01T02:43:06.000Z</time>
      </trkpt>
      <trkpt lat="42.652755" lon="0.646257">
        <ele>2893.7</ele>
        <time>1970-01-01T02:43:07.000Z</time>
      </trkpt>
      <trkpt lat="42.652741" lon="0.646259">
        <ele>2894</ele>
        <time>1970-01-01T02:43:09.000Z</time>
      </trkpt>
      <trkpt lat="42.652728" lon="0.646263">
        <ele>2894.4</ele>
        <time>1970-01-01T02:43:10.000Z</time>
      </trkpt>
      <trkpt lat="42.652717" lon="0.646268">
        <ele>2894.6</ele>
        <time>1970-01-01T02:43:11.000Z</time>
      </trkpt>
      <trkpt lat="42.652704" lon="0.646271">
        <ele>2895</ele>
        <time>1970-01-01T02:43:13.000Z</time>
      </trkpt>
      <trkpt lat="42.652696" lon="0.646273">
        <ele>2895.2</ele>
        <time>1970-01-01T02:43:14.000Z</time>
      </trkpt>
      <trkpt lat="42.652688" lon="0.646276">
        <ele>2895.4</ele>
        <time>1970-01-01T02:43:15.000Z</time>
      </trkpt>
      <trkpt lat="42.652682" lon="0.646278">
        <ele>2895.5</ele>
        <time>1970-01-01T02:43:16.000Z</time>
      </trkpt>
      <trkpt lat="42.652676" lon="0.646282">
        <ele>2895.7</ele>
        <time>1970-01-01T02:43:18.000Z</time>
      </trkpt>
      <trkpt lat="42.652669" lon="0.646287">
        <ele>2895.9</ele>
        <time>1970-01-01T02:43:19.000Z</time>
      </trkpt>
      <trkpt lat="42.652664" lon="0.64629">
        <ele>2896</ele>
        <time>1970-01-01T02:43:20.000Z</time>
      </trkpt>
      <trkpt lat="42.652654" lon="0.646296">
        <ele>2896.3</ele>
        <time>1970-01-01T02:43:21.000Z</time>
      </trkpt>
      <trkpt lat="42.652645" lon="0.646301">
        <ele>2896.6</ele>
        <time>1970-01-01T02:43:23.000Z</time>
      </trkpt>
      <trkpt lat="42.65264" lon="0.646306">
        <ele>2896.7</ele>
        <time>1970-01-01T02:43:24.000Z</time>
      </trkpt>
      <trkpt lat="42.652634" lon="0.646311">
        <ele>2896.9</ele>
        <time>1970-01-01T02:43:25.000Z</time>
      </trkpt>
      <trkpt lat="42.652628" lon="0.646316">
        <ele>2897.1</ele>
        <time>1970-01-01T02:43:26.000Z</time>
      </trkpt>
      <trkpt lat="42.652623" lon="0.646318">
        <ele>2897.2</ele>
        <time>1970-01-01T02:43:27.000Z</time>
      </trkpt>
      <trkpt lat="42.652618" lon="0.646318">
        <ele>2897.3</ele>
        <time>1970-01-01T02:43:28.000Z</time>
      </trkpt>
      <trkpt lat="42.652609" lon="0.646318">
        <ele>2897.6</ele>
        <time>1970-01-01T02:43:29.000Z</time>
      </trkpt>
      <trkpt lat="42.652596" lon="0.64632">
        <ele>2897.9</ele>
        <time>1970-01-01T02:43:31.000Z</time>
      </trkpt>
      <trkpt lat="42.652587" lon="0.64632">
        <ele>2898.1</ele>
        <time>1970-01-01T02:43:32.000Z</time>
      </trkpt>
      <trkpt lat="42.652577" lon="0.646321">
        <ele>2898.4</ele>
        <time>1970-01-01T02:43:33.000Z</time>
      </trkpt>
      <trkpt lat="42.652566" lon="0.646321">
        <ele>2898.7</ele>
        <time>1970-01-01T02:43:35.000Z</time>
      </trkpt>
      <trkpt lat="42.652559" lon="0.646322">
        <ele>2898.9</ele>
        <time>1970-01-01T02:43:36.000Z</time>
      </trkpt>
      <trkpt lat="42.652553" lon="0.646322">
        <ele>2899</ele>
        <time>1970-01-01T02:43:37.000Z</time>
      </trkpt>
      <trkpt lat="42.652542" lon="0.646324">
        <ele>2899.3</ele>
        <time>1970-01-01T02:43:39.000Z</time>
      </trkpt>
      <trkpt lat="42.652536" lon="0.646324">
        <ele>2899.4</ele>
        <time>1970-01-01T02:43:40.000Z</time>
      </trkpt>
      <trkpt lat="42.652529" lon="0.646322">
        <ele>2899.6</ele>
        <time>1970-01-01T02:43:42.000Z</time>
      </trkpt>
      <trkpt lat="42.652524" lon="0.64632">
        <ele>2899.8</ele>
        <time>1970-01-01T02:43:43.000Z</time>
      </trkpt>
      <trkpt lat="42.652519" lon="0.646319">
        <ele>2899.9</ele>
        <time>1970-01-01T02:43:44.000Z</time>
      </trkpt>
      <trkpt lat="42.652513" lon="0.646318">
        <ele>2900</ele>
        <time>1970-01-01T02:43:45.000Z</time>
      </trkpt>
      <trkpt lat="42.652507" lon="0.646317">
        <ele>2900.2</ele>
        <time>1970-01-01T02:43:46.000Z</time>
      </trkpt>
      <trkpt lat="42.6525" lon="0.646318">
        <ele>2900.3</ele>
        <time>1970-01-01T02:43:47.000Z</time>
      </trkpt>
      <trkpt lat="42.652492" lon="0.646319">
        <ele>2900.5</ele>
        <time>1970-01-01T02:43:49.000Z</time>
      </trkpt>
      <trkpt lat="42.652482" lon="0.646321">
        <ele>2900.8</ele>
        <time>1970-01-01T02:43:50.000Z</time>
      </trkpt>
      <trkpt lat="42.652473" lon="0.646326">
        <ele>2901</ele>
        <time>1970-01-01T02:43:51.000Z</time>
      </trkpt>
      <trkpt lat="42.652464" lon="0.64633">
        <ele>2901.3</ele>
        <time>1970-01-01T02:43:53.000Z</time>
      </trkpt>
      <trkpt lat="42.652457" lon="0.646334">
        <ele>2901.5</ele>
        <time>1970-01-01T02:43:54.000Z</time>
      </trkpt>
      <trkpt lat="42.65245" lon="0.646337">
        <ele>2901.6</ele>
        <time>1970-01-01T02:43:55.000Z</time>
      </trkpt>
      <trkpt lat="42.652441" lon="0.646339">
        <ele>2901.9</ele>
        <time>1970-01-01T02:43:57.000Z</time>
      </trkpt>
      <trkpt lat="42.652434" lon="0.64634">
        <ele>2902</ele>
        <time>1970-01-01T02:43:58.000Z</time>
      </trkpt>
      <trkpt lat="42.652427" lon="0.646341">
        <ele>2902.2</ele>
        <time>1970-01-01T02:43:59.000Z</time>
      </trkpt>
      <trkpt lat="42.652422" lon="0.646342">
        <ele>2902.3</ele>
        <time>1970-01-01T02:44:00.000Z</time>
      </trkpt>
      <trkpt lat="42.652417" lon="0.646342">
        <ele>2902.5</ele>
        <time>1970-01-01T02:44:01.000Z</time>
      </trkpt>
      <trkpt lat="42.652411" lon="0.646341">
        <ele>2902.6</ele>
        <time>1970-01-01T02:44:02.000Z</time>
      </trkpt>
      <trkpt lat="42.652404" lon="0.64634">
        <ele>2902.8</ele>
        <time>1970-01-01T02:44:03.000Z</time>
      </trkpt>
      <trkpt lat="42.6524" lon="0.646339">
        <ele>2902.9</ele>
        <time>1970-01-01T02:44:04.000Z</time>
      </trkpt>
      <trkpt lat="42.652394" lon="0.646335">
        <ele>2903</ele>
        <time>1970-01-01T02:44:05.000Z</time>
      </trkpt>
      <trkpt lat="42.65239" lon="0.646332">
        <ele>2903.2</ele>
        <time>1970-01-01T02:44:06.000Z</time>
      </trkpt>
      <trkpt lat="42.652384" lon="0.646328">
        <ele>2903.3</ele>
        <time>1970-01-01T02:44:07.000Z</time>
      </trkpt>
      <trkpt lat="42.652379" lon="0.646324">
        <ele>2903.5</ele>
        <time>1970-01-01T02:44:08.000Z</time>
      </trkpt>
      <trkpt lat="42.652379" lon="0.646319">
        <ele>2903.6</ele>
        <time>1970-01-01T02:44:09.000Z</time>
      </trkpt>
      <trkpt lat="42.65238" lon="0.646317">
        <ele>2903.6</ele>
        <time>1970-01-01T02:44:10.000Z</time>
      </trkpt>
      <trkpt lat="42.652382" lon="0.646315">
        <ele>2903.7</ele>
        <time>1970-01-01T02:44:11.000Z</time>
      </trkpt>
      <trkpt lat="42.652384" lon="0.646313">
        <ele>2903.7</ele>
        <time>1970-01-01T02:44:12.000Z</time>
      </trkpt>
      <trkpt lat="42.652385" lon="0.646313">
        <ele>2903.8</ele>
        <time>1970-01-01T02:44:13.000Z</time>
      </trkpt>
      <trkpt lat="42.652385" lon="0.646312">
        <ele>2903.8</ele>
        <time>1970-01-01T02:44:14.000Z</time>
      </trkpt>
      <trkpt lat="42.652385" lon="0.646311">
        <ele>2903.8</ele>
        <time>1970-01-01T02:44:15.000Z</time>
      </trkpt>
      <trkpt lat="42.652386" lon="0.646311">
        <ele>2903.8</ele>
        <time>1970-01-01T02:44:16.000Z</time>
      </trkpt>
      <trkpt lat="42.652387" lon="0.64631">
        <ele>2903.8</ele>
        <time>1970-01-01T02:44:17.000Z</time>
      </trkpt>
      <trkpt lat="42.652385" lon="0.646308">
        <ele>2903.9</ele>
        <time>1970-01-01T02:44:18.000Z</time>
      </trkpt>
      <trkpt lat="42.652379" lon="0.646305">
        <ele>2904.1</ele>
        <time>1970-01-01T02:44:20.000Z</time>
      </trkpt>
      <trkpt lat="42.652371" lon="0.646305">
        <ele>2904.3</ele>
        <time>1970-01-01T02:44:21.000Z</time>
      </trkpt>
      <trkpt lat="42.652366" lon="0.646304">
        <ele>2904.4</ele>
        <time>1970-01-01T02:44:22.000Z</time>
      </trkpt>
      <trkpt lat="42.652351" lon="0.646302">
        <ele>2904.8</ele>
        <time>1970-01-01T02:44:24.000Z</time>
      </trkpt>
      <trkpt lat="42.652337" lon="0.646302">
        <ele>2905.2</ele>
        <time>1970-01-01T02:44:25.000Z</time>
      </trkpt>
      <trkpt lat="42.652328" lon="0.646305">
        <ele>2905.4</ele>
        <time>1970-01-01T02:44:26.000Z</time>
      </trkpt>
      <trkpt lat="42.652324" lon="0.646306">
        <ele>2905.5</ele>
        <time>1970-01-01T02:44:27.000Z</time>
      </trkpt>
      <trkpt lat="42.652318" lon="0.64631">
        <ele>2905.7</ele>
        <time>1970-01-01T02:44:28.000Z</time>
      </trkpt>
      <trkpt lat="42.652316" lon="0.646315">
        <ele>2905.8</ele>
        <time>1970-01-01T02:44:29.000Z</time>
      </trkpt>
      <trkpt lat="42.652316" lon="0.646317">
        <ele>2905.9</ele>
        <time>1970-01-01T02:44:30.000Z</time>
      </trkpt>
      <trkpt lat="42.652318" lon="0.646319">
        <ele>2905.9</ele>
        <time>1970-01-01T02:44:31.000Z</time>
      </trkpt>
      <trkpt lat="42.652319" lon="0.646319">
        <ele>2905.9</ele>
        <time>1970-01-01T02:44:32.000Z</time>
      </trkpt>
      <trkpt lat="42.65232" lon="0.646319">
        <ele>2906</ele>
        <time>1970-01-01T02:44:33.000Z</time>
      </trkpt>
      <trkpt lat="42.652322" lon="0.64632">
        <ele>2906</ele>
        <time>1970-01-01T02:44:34.000Z</time>
      </trkpt>
      <trkpt lat="42.652322" lon="0.64632">
        <ele>2906</ele>
        <time>1970-01-01T02:44:35.000Z</time>
      </trkpt>
      <trkpt lat="42.652322" lon="0.64632">
        <ele>2906</ele>
        <time>1970-01-01T02:44:36.000Z</time>
      </trkpt>
      <trkpt lat="42.652322" lon="0.646319">
        <ele>2906</ele>
        <time>1970-01-01T02:44:37.000Z</time>
      </trkpt>
      <trkpt lat="42.652322" lon="0.646319">
        <ele>2906</ele>
        <time>1970-01-01T02:44:38.000Z</time>
      </trkpt>
      <trkpt lat="42.652322" lon="0.646319">
        <ele>2906</ele>
        <time>1970-01-01T02:44:39.000Z</time>
      </trkpt>
      <trkpt lat="42.652322" lon="0.646318">
        <ele>2906.1</ele>
        <time>1970-01-01T02:44:40.000Z</time>
      </trkpt>
      <trkpt lat="42.652322" lon="0.646318">
        <ele>2906.1</ele>
        <time>1970-01-01T02:44:41.000Z</time>
      </trkpt>
      <trkpt lat="42.65232" lon="0.646316">
        <ele>2906.1</ele>
        <time>1970-01-01T02:44:42.000Z</time>
      </trkpt>
      <trkpt lat="42.652316" lon="0.646315">
        <ele>2906.2</ele>
        <time>1970-01-01T02:44:44.000Z</time>
      </trkpt>
      <trkpt lat="42.652312" lon="0.646314">
        <ele>2906.3</ele>
        <time>1970-01-01T02:44:45.000Z</time>
      </trkpt>
      <trkpt lat="42.652307" lon="0.646315">
        <ele>2906.5</ele>
        <time>1970-01-01T02:44:46.000Z</time>
      </trkpt>
      <trkpt lat="42.652308" lon="0.646316">
        <ele>2906.5</ele>
        <time>1970-01-01T02:44:47.000Z</time>
      </trkpt>
      <trkpt lat="42.652309" lon="0.646316">
        <ele>2906.5</ele>
        <time>1970-01-01T02:44:48.000Z</time>
      </trkpt>
      <trkpt lat="42.65231" lon="0.646316">
        <ele>2906.6</ele>
        <time>1970-01-01T02:44:49.000Z</time>
      </trkpt>
      <trkpt lat="42.652311" lon="0.646316">
        <ele>2906.6</ele>
        <time>1970-01-01T02:44:50.000Z</time>
      </trkpt>
      <trkpt lat="42.652312" lon="0.646318">
        <ele>2906.6</ele>
        <time>1970-01-01T02:44:51.000Z</time>
      </trkpt>
      <trkpt lat="42.652311" lon="0.646319">
        <ele>2906.7</ele>
        <time>1970-01-01T02:44:52.000Z</time>
      </trkpt>
      <trkpt lat="42.65231" lon="0.646321">
        <ele>2906.7</ele>
        <time>1970-01-01T02:44:53.000Z</time>
      </trkpt>
      <trkpt lat="42.652306" lon="0.646326">
        <ele>2906.8</ele>
        <time>1970-01-01T02:44:54.000Z</time>
      </trkpt>
      <trkpt lat="42.652306" lon="0.646329">
        <ele>2906.9</ele>
        <time>1970-01-01T02:44:55.000Z</time>
      </trkpt>
      <trkpt lat="42.652308" lon="0.64633">
        <ele>2907</ele>
        <time>1970-01-01T02:44:56.000Z</time>
      </trkpt>
      <trkpt lat="42.652306" lon="0.646336">
        <ele>2907.1</ele>
        <time>1970-01-01T02:44:57.000Z</time>
      </trkpt>
      <trkpt lat="42.652307" lon="0.64634">
        <ele>2907.2</ele>
        <time>1970-01-01T02:44:58.000Z</time>
      </trkpt>
      <trkpt lat="42.652309" lon="0.646342">
        <ele>2907.2</ele>
        <time>1970-01-01T02:44:59.000Z</time>
      </trkpt>
      <trkpt lat="42.652311" lon="0.646344">
        <ele>2907.3</ele>
        <time>1970-01-01T02:45:00.000Z</time>
      </trkpt>
      <trkpt lat="42.652315" lon="0.646346">
        <ele>2907.4</ele>
        <time>1970-01-01T02:45:01.000Z</time>
      </trkpt>
      <trkpt lat="42.652311" lon="0.646348">
        <ele>2907.5</ele>
        <time>1970-01-01T02:45:03.000Z</time>
      </trkpt>
      <trkpt lat="42.652305" lon="0.646346">
        <ele>2907.7</ele>
        <time>1970-01-01T02:45:04.000Z</time>
      </trkpt>
      <trkpt lat="42.652297" lon="0.646341">
        <ele>2907.9</ele>
        <time>1970-01-01T02:45:05.000Z</time>
      </trkpt>
      <trkpt lat="42.652288" lon="0.646335">
        <ele>2908.2</ele>
        <time>1970-01-01T02:45:06.000Z</time>
      </trkpt>
      <trkpt lat="42.652281" lon="0.646325">
        <ele>2908.4</ele>
        <time>1970-01-01T02:45:07.000Z</time>
      </trkpt>
      <trkpt lat="42.652272" lon="0.64631">
        <ele>2908.8</ele>
        <time>1970-01-01T02:45:08.000Z</time>
      </trkpt>
      <trkpt lat="42.652261" lon="0.646295">
        <ele>2909.2</ele>
        <time>1970-01-01T02:45:10.000Z</time>
      </trkpt>
      <trkpt lat="42.65226" lon="0.646293">
        <ele>2909.3</ele>
        <time>1970-01-01T02:45:12.000Z</time>
      </trkpt>
      <trkpt lat="42.652259" lon="0.646292">
        <ele>2909.3</ele>
        <time>1970-01-01T02:45:13.000Z</time>
      </trkpt>
      <trkpt lat="42.652259" lon="0.646291">
        <ele>2909.3</ele>
        <time>1970-01-01T02:45:14.000Z</time>
      </trkpt>
      <trkpt lat="42.652259" lon="0.646292">
        <ele>2909.3</ele>
        <time>1970-01-01T02:45:15.000Z</time>
      </trkpt>
      <trkpt lat="42.652259" lon="0.646295">
        <ele>2909.4</ele>
        <time>1970-01-01T02:45:16.000Z</time>
      </trkpt>
      <trkpt lat="42.652257" lon="0.646297">
        <ele>2909.5</ele>
        <time>1970-01-01T02:45:18.000Z</time>
      </trkpt>
      <trkpt lat="42.652256" lon="0.646298">
        <ele>2909.5</ele>
        <time>1970-01-01T02:45:19.000Z</time>
      </trkpt>
      <trkpt lat="42.652255" lon="0.646299">
        <ele>2909.5</ele>
        <time>1970-01-01T02:45:20.000Z</time>
      </trkpt>
      <trkpt lat="42.652253" lon="0.646299">
        <ele>2909.6</ele>
        <time>1970-01-01T02:45:22.000Z</time>
      </trkpt>
      <trkpt lat="42.652253" lon="0.646299">
        <ele>2909.6</ele>
        <time>1970-01-01T02:45:23.000Z</time>
      </trkpt>
      <trkpt lat="42.652252" lon="0.646299">
        <ele>2909.6</ele>
        <time>1970-01-01T02:45:24.000Z</time>
      </trkpt>
      <trkpt lat="42.652251" lon="0.646299">
        <ele>2909.6</ele>
        <time>1970-01-01T02:45:25.000Z</time>
      </trkpt>
      <trkpt lat="42.652251" lon="0.6463">
        <ele>2909.6</ele>
        <time>1970-01-01T02:45:26.000Z</time>
      </trkpt>
      <trkpt lat="42.652247" lon="0.6463">
        <ele>2909.8</ele>
        <time>1970-01-01T02:45:28.000Z</time>
      </trkpt>
      <trkpt lat="42.652246" lon="0.6463">
        <ele>2909.8</ele>
        <time>1970-01-01T02:45:29.000Z</time>
      </trkpt>
      <trkpt lat="42.65224" lon="0.646302">
        <ele>2909.9</ele>
        <time>1970-01-01T02:45:31.000Z</time>
      </trkpt>
      <trkpt lat="42.652237" lon="0.646303">
        <ele>2910</ele>
        <time>1970-01-01T02:45:32.000Z</time>
      </trkpt>
      <trkpt lat="42.652235" lon="0.646305">
        <ele>2910.1</ele>
        <time>1970-01-01T02:45:34.000Z</time>
      </trkpt>
      <trkpt lat="42.652234" lon="0.646306">
        <ele>2910.1</ele>
        <time>1970-01-01T02:45:35.000Z</time>
      </trkpt>
      <trkpt lat="42.652232" lon="0.646307">
        <ele>2910.2</ele>
        <time>1970-01-01T02:45:36.000Z</time>
      </trkpt>
      <trkpt lat="42.652231" lon="0.646308">
        <ele>2910.2</ele>
        <time>1970-01-01T02:45:37.000Z</time>
      </trkpt>
      <trkpt lat="42.652229" lon="0.646309">
        <ele>2910.3</ele>
        <time>1970-01-01T02:45:38.000Z</time>
      </trkpt>
      <trkpt lat="42.652226" lon="0.646312">
        <ele>2910.4</ele>
        <time>1970-01-01T02:45:39.000Z</time>
      </trkpt>
      <trkpt lat="42.652224" lon="0.646314">
        <ele>2910.4</ele>
        <time>1970-01-01T02:45:40.000Z</time>
      </trkpt>
      <trkpt lat="42.652223" lon="0.646316">
        <ele>2910.5</ele>
        <time>1970-01-01T02:45:41.000Z</time>
      </trkpt>
      <trkpt lat="42.652222" lon="0.646316">
        <ele>2910.5</ele>
        <time>1970-01-01T02:45:42.000Z</time>
      </trkpt>
      <trkpt lat="42.652221" lon="0.646317">
        <ele>2910.5</ele>
        <time>1970-01-01T02:45:43.000Z</time>
      </trkpt>
      <trkpt lat="42.652221" lon="0.646318">
        <ele>2910.5</ele>
        <time>1970-01-01T02:45:44.000Z</time>
      </trkpt>
      <trkpt lat="42.652221" lon="0.646318">
        <ele>2910.5</ele>
        <time>1970-01-01T02:45:45.000Z</time>
      </trkpt>
      <trkpt lat="42.652221" lon="0.646319">
        <ele>2910.6</ele>
        <time>1970-01-01T02:45:46.000Z</time>
      </trkpt>
      <trkpt lat="42.65222" lon="0.646318">
        <ele>2910.6</ele>
        <time>1970-01-01T02:45:47.000Z</time>
      </trkpt>
      <trkpt lat="42.65222" lon="0.646318">
        <ele>2910.6</ele>
        <time>1970-01-01T02:45:48.000Z</time>
      </trkpt>
      <trkpt lat="42.65222" lon="0.646317">
        <ele>2910.6</ele>
        <time>1970-01-01T02:45:50.000Z</time>
      </trkpt>
      <trkpt lat="42.652218" lon="0.646316">
        <ele>2910.7</ele>
        <time>1970-01-01T02:45:51.000Z</time>
      </trkpt>
      <trkpt lat="42.652218" lon="0.646316">
        <ele>2910.7</ele>
        <time>1970-01-01T02:45:52.000Z</time>
      </trkpt>
      <trkpt lat="42.652218" lon="0.646317">
        <ele>2910.7</ele>
        <time>1970-01-01T02:45:53.000Z</time>
      </trkpt>
      <trkpt lat="42.652218" lon="0.646318">
        <ele>2910.7</ele>
        <time>1970-01-01T02:45:54.000Z</time>
      </trkpt>
      <trkpt lat="42.652216" lon="0.64632">
        <ele>2910.8</ele>
        <time>1970-01-01T02:45:55.000Z</time>
      </trkpt>
      <trkpt lat="42.652212" lon="0.646323">
        <ele>2910.9</ele>
        <time>1970-01-01T02:45:56.000Z</time>
      </trkpt>
      <trkpt lat="42.652208" lon="0.646324">
        <ele>2911</ele>
        <time>1970-01-01T02:45:57.000Z</time>
      </trkpt>
      <trkpt lat="42.652204" lon="0.64633">
        <ele>2911.1</ele>
        <time>1970-01-01T02:45:58.000Z</time>
      </trkpt>
      <trkpt lat="42.652198" lon="0.646338">
        <ele>2911.4</ele>
        <time>1970-01-01T02:45:59.000Z</time>
      </trkpt>
      <trkpt lat="42.652187" lon="0.646341">
        <ele>2911.6</ele>
        <time>1970-01-01T02:46:01.000Z</time>
      </trkpt>
      <trkpt lat="42.652175" lon="0.646342">
        <ele>2911.9</ele>
        <time>1970-01-01T02:46:02.000Z</time>
      </trkpt>
      <trkpt lat="42.652164" lon="0.646341">
        <ele>2912.2</ele>
        <time>1970-01-01T02:46:03.000Z</time>
      </trkpt>
      <trkpt lat="42.652153" lon="0.64634">
        <ele>2912.5</ele>
        <time>1970-01-01T02:46:04.000Z</time>
      </trkpt>
      <trkpt lat="42.652142" lon="0.646344">
        <ele>2912.8</ele>
        <time>1970-01-01T02:46:05.000Z</time>
      </trkpt>
      <trkpt lat="42.652123" lon="0.646349">
        <ele>2913.2</ele>
        <time>1970-01-01T02:46:06.000Z</time>
      </trkpt>
      <trkpt lat="42.652115" lon="0.646351">
        <ele>2913.4</ele>
        <time>1970-01-01T02:46:07.000Z</time>
      </trkpt>
      <trkpt lat="42.652106" lon="0.646353">
        <ele>2913.7</ele>
        <time>1970-01-01T02:46:08.000Z</time>
      </trkpt>
      <trkpt lat="42.652083" lon="0.64636">
        <ele>2914.3</ele>
        <time>1970-01-01T02:46:09.000Z</time>
      </trkpt>
      <trkpt lat="42.652073" lon="0.646364">
        <ele>2914.5</ele>
        <time>1970-01-01T02:46:10.000Z</time>
      </trkpt>
      <trkpt lat="42.652064" lon="0.646368">
        <ele>2914.8</ele>
        <time>1970-01-01T02:46:11.000Z</time>
      </trkpt>
      <trkpt lat="42.652041" lon="0.646378">
        <ele>2915.4</ele>
        <time>1970-01-01T02:46:12.000Z</time>
      </trkpt>
      <trkpt lat="42.652031" lon="0.646382">
        <ele>2915.6</ele>
        <time>1970-01-01T02:46:14.000Z</time>
      </trkpt>
      <trkpt lat="42.652021" lon="0.646385">
        <ele>2915.9</ele>
        <time>1970-01-01T02:46:15.000Z</time>
      </trkpt>
      <trkpt lat="42.652011" lon="0.646389">
        <ele>2916.1</ele>
        <time>1970-01-01T02:46:17.000Z</time>
      </trkpt>
      <trkpt lat="42.652001" lon="0.646392">
        <ele>2916.4</ele>
        <time>1970-01-01T02:46:18.000Z</time>
      </trkpt>
      <trkpt lat="42.651981" lon="0.646395">
        <ele>2916.9</ele>
        <time>1970-01-01T02:46:19.000Z</time>
      </trkpt>
      <trkpt lat="42.651972" lon="0.646398">
        <ele>2917.1</ele>
        <time>1970-01-01T02:46:20.000Z</time>
      </trkpt>
      <trkpt lat="42.651962" lon="0.6464">
        <ele>2917.4</ele>
        <time>1970-01-01T02:46:22.000Z</time>
      </trkpt>
      <trkpt lat="42.651952" lon="0.646403">
        <ele>2917.6</ele>
        <time>1970-01-01T02:46:23.000Z</time>
      </trkpt>
      <trkpt lat="42.651943" lon="0.646406">
        <ele>2917.9</ele>
        <time>1970-01-01T02:46:24.000Z</time>
      </trkpt>
      <trkpt lat="42.651933" lon="0.646408">
        <ele>2918.1</ele>
        <time>1970-01-01T02:46:25.000Z</time>
      </trkpt>
      <trkpt lat="42.651922" lon="0.646418">
        <ele>2918.4</ele>
        <time>1970-01-01T02:46:26.000Z</time>
      </trkpt>
      <trkpt lat="42.651905" lon="0.646424">
        <ele>2918.9</ele>
        <time>1970-01-01T02:46:28.000Z</time>
      </trkpt>
      <trkpt lat="42.651894" lon="0.64642">
        <ele>2919.1</ele>
        <time>1970-01-01T02:46:29.000Z</time>
      </trkpt>
      <trkpt lat="42.651885" lon="0.646417">
        <ele>2919.4</ele>
        <time>1970-01-01T02:46:30.000Z</time>
      </trkpt>
      <trkpt lat="42.651874" lon="0.646411">
        <ele>2919.6</ele>
        <time>1970-01-01T02:46:31.000Z</time>
      </trkpt>
      <trkpt lat="42.651863" lon="0.64641">
        <ele>2919.9</ele>
        <time>1970-01-01T02:46:32.000Z</time>
      </trkpt>
      <trkpt lat="42.651852" lon="0.646413">
        <ele>2920.2</ele>
        <time>1970-01-01T02:46:33.000Z</time>
      </trkpt>
      <trkpt lat="42.651841" lon="0.646416">
        <ele>2920.4</ele>
        <time>1970-01-01T02:46:34.000Z</time>
      </trkpt>
      <trkpt lat="42.651829" lon="0.646418">
        <ele>2920.7</ele>
        <time>1970-01-01T02:46:35.000Z</time>
      </trkpt>
      <trkpt lat="42.651816" lon="0.646418">
        <ele>2921</ele>
        <time>1970-01-01T02:46:36.000Z</time>
      </trkpt>
      <trkpt lat="42.651803" lon="0.64642">
        <ele>2921.3</ele>
        <time>1970-01-01T02:46:38.000Z</time>
      </trkpt>
      <trkpt lat="42.651779" lon="0.646428">
        <ele>2921.9</ele>
        <time>1970-01-01T02:46:39.000Z</time>
      </trkpt>
      <trkpt lat="42.651768" lon="0.646431">
        <ele>2922.2</ele>
        <time>1970-01-01T02:46:40.000Z</time>
      </trkpt>
      <trkpt lat="42.651757" lon="0.646434">
        <ele>2922.5</ele>
        <time>1970-01-01T02:46:41.000Z</time>
      </trkpt>
      <trkpt lat="42.651742" lon="0.646439">
        <ele>2922.8</ele>
        <time>1970-01-01T02:46:43.000Z</time>
      </trkpt>
      <trkpt lat="42.651729" lon="0.64644">
        <ele>2923.1</ele>
        <time>1970-01-01T02:46:44.000Z</time>
      </trkpt>
      <trkpt lat="42.651708" lon="0.646438">
        <ele>2923.6</ele>
        <time>1970-01-01T02:46:45.000Z</time>
      </trkpt>
      <trkpt lat="42.651699" lon="0.646437">
        <ele>2923.8</ele>
        <time>1970-01-01T02:46:46.000Z</time>
      </trkpt>
      <trkpt lat="42.651691" lon="0.646436">
        <ele>2924</ele>
        <time>1970-01-01T02:46:47.000Z</time>
      </trkpt>
      <trkpt lat="42.65167" lon="0.646434">
        <ele>2924.4</ele>
        <time>1970-01-01T02:46:48.000Z</time>
      </trkpt>
      <trkpt lat="42.651661" lon="0.646433">
        <ele>2924.6</ele>
        <time>1970-01-01T02:46:50.000Z</time>
      </trkpt>
      <trkpt lat="42.651652" lon="0.646432">
        <ele>2924.8</ele>
        <time>1970-01-01T02:46:51.000Z</time>
      </trkpt>
      <trkpt lat="42.651631" lon="0.646432">
        <ele>2925.3</ele>
        <time>1970-01-01T02:46:52.000Z</time>
      </trkpt>
      <trkpt lat="42.651623" lon="0.646432">
        <ele>2925.4</ele>
        <time>1970-01-01T02:46:53.000Z</time>
      </trkpt>
      <trkpt lat="42.651615" lon="0.646432">
        <ele>2925.6</ele>
        <time>1970-01-01T02:46:54.000Z</time>
      </trkpt>
      <trkpt lat="42.651605" lon="0.646431">
        <ele>2925.8</ele>
        <time>1970-01-01T02:46:55.000Z</time>
      </trkpt>
      <trkpt lat="42.651593" lon="0.64643">
        <ele>2926.1</ele>
        <time>1970-01-01T02:46:56.000Z</time>
      </trkpt>
      <trkpt lat="42.651581" lon="0.646431">
        <ele>2926.3</ele>
        <time>1970-01-01T02:46:57.000Z</time>
      </trkpt>
      <trkpt lat="42.651569" lon="0.646438">
        <ele>2926.6</ele>
        <time>1970-01-01T02:46:58.000Z</time>
      </trkpt>
      <trkpt lat="42.651561" lon="0.646444">
        <ele>2926.8</ele>
        <time>1970-01-01T02:46:59.000Z</time>
      </trkpt>
      <trkpt lat="42.651552" lon="0.64645">
        <ele>2927</ele>
        <time>1970-01-01T02:47:00.000Z</time>
      </trkpt>
      <trkpt lat="42.651542" lon="0.646456">
        <ele>2927.2</ele>
        <time>1970-01-01T02:47:01.000Z</time>
      </trkpt>
      <trkpt lat="42.651531" lon="0.646461">
        <ele>2927.5</ele>
        <time>1970-01-01T02:47:02.000Z</time>
      </trkpt>
      <trkpt lat="42.651517" lon="0.646463">
        <ele>2927.8</ele>
        <time>1970-01-01T02:47:03.000Z</time>
      </trkpt>
      <trkpt lat="42.651506" lon="0.64646">
        <ele>2928</ele>
        <time>1970-01-01T02:47:04.000Z</time>
      </trkpt>
      <trkpt lat="42.651495" lon="0.646457">
        <ele>2928.3</ele>
        <time>1970-01-01T02:47:06.000Z</time>
      </trkpt>
      <trkpt lat="42.651483" lon="0.646455">
        <ele>2928.5</ele>
        <time>1970-01-01T02:47:07.000Z</time>
      </trkpt>
      <trkpt lat="42.651471" lon="0.64645">
        <ele>2928.8</ele>
        <time>1970-01-01T02:47:08.000Z</time>
      </trkpt>
      <trkpt lat="42.651457" lon="0.64644">
        <ele>2929.1</ele>
        <time>1970-01-01T02:47:10.000Z</time>
      </trkpt>
      <trkpt lat="42.651446" lon="0.646437">
        <ele>2929.4</ele>
        <time>1970-01-01T02:47:11.000Z</time>
      </trkpt>
      <trkpt lat="42.651436" lon="0.646431">
        <ele>2929.6</ele>
        <time>1970-01-01T02:47:12.000Z</time>
      </trkpt>
      <trkpt lat="42.651428" lon="0.646426">
        <ele>2929.8</ele>
        <time>1970-01-01T02:47:13.000Z</time>
      </trkpt>
      <trkpt lat="42.65142" lon="0.646422">
        <ele>2930</ele>
        <time>1970-01-01T02:47:14.000Z</time>
      </trkpt>
      <trkpt lat="42.651415" lon="0.646418">
        <ele>2930.1</ele>
        <time>1970-01-01T02:47:15.000Z</time>
      </trkpt>
      <trkpt lat="42.651408" lon="0.64641">
        <ele>2930.4</ele>
        <time>1970-01-01T02:47:16.000Z</time>
      </trkpt>
      <trkpt lat="42.651401" lon="0.646398">
        <ele>2930.6</ele>
        <time>1970-01-01T02:47:18.000Z</time>
      </trkpt>
      <trkpt lat="42.651405" lon="0.646382">
        <ele>2930.9</ele>
        <time>1970-01-01T02:47:19.000Z</time>
      </trkpt>
      <trkpt lat="42.651408" lon="0.646374">
        <ele>2931</ele>
        <time>1970-01-01T02:47:20.000Z</time>
      </trkpt>
      <trkpt lat="42.651412" lon="0.646356">
        <ele>2931.4</ele>
        <time>1970-01-01T02:47:22.000Z</time>
      </trkpt>
      <trkpt lat="42.65141" lon="0.646346">
        <ele>2931.5</ele>
        <time>1970-01-01T02:47:23.000Z</time>
      </trkpt>
      <trkpt lat="42.651411" lon="0.646331">
        <ele>2931.8</ele>
        <time>1970-01-01T02:47:25.000Z</time>
      </trkpt>
      <trkpt lat="42.651413" lon="0.646316">
        <ele>2932.1</ele>
        <time>1970-01-01T02:47:26.000Z</time>
      </trkpt>
      <trkpt lat="42.651412" lon="0.646303">
        <ele>2932.3</ele>
        <time>1970-01-01T02:47:27.000Z</time>
      </trkpt>
      <trkpt lat="42.65141" lon="0.646294">
        <ele>2932.4</ele>
        <time>1970-01-01T02:47:28.000Z</time>
      </trkpt>
      <trkpt lat="42.651405" lon="0.646286">
        <ele>2932.6</ele>
        <time>1970-01-01T02:47:29.000Z</time>
      </trkpt>
      <trkpt lat="42.651399" lon="0.646277">
        <ele>2932.8</ele>
        <time>1970-01-01T02:47:30.000Z</time>
      </trkpt>
      <trkpt lat="42.651391" lon="0.646268">
        <ele>2933.1</ele>
        <time>1970-01-01T02:47:31.000Z</time>
      </trkpt>
      <trkpt lat="42.651386" lon="0.646263">
        <ele>2933.2</ele>
        <time>1970-01-01T02:47:32.000Z</time>
      </trkpt>
      <trkpt lat="42.651378" lon="0.646259">
        <ele>2933.4</ele>
        <time>1970-01-01T02:47:33.000Z</time>
      </trkpt>
      <trkpt lat="42.651369" lon="0.646256">
        <ele>2933.6</ele>
        <time>1970-01-01T02:47:34.000Z</time>
      </trkpt>
      <trkpt lat="42.65136" lon="0.646258">
        <ele>2933.8</ele>
        <time>1970-01-01T02:47:35.000Z</time>
      </trkpt>
      <trkpt lat="42.651348" lon="0.64626">
        <ele>2934.1</ele>
        <time>1970-01-01T02:47:37.000Z</time>
      </trkpt>
      <trkpt lat="42.651337" lon="0.646261">
        <ele>2934.4</ele>
        <time>1970-01-01T02:47:38.000Z</time>
      </trkpt>
      <trkpt lat="42.65133" lon="0.646262">
        <ele>2934.5</ele>
        <time>1970-01-01T02:47:39.000Z</time>
      </trkpt>
      <trkpt lat="42.65132" lon="0.646265">
        <ele>2934.7</ele>
        <time>1970-01-01T02:47:41.000Z</time>
      </trkpt>
      <trkpt lat="42.651309" lon="0.646263">
        <ele>2935</ele>
        <time>1970-01-01T02:47:42.000Z</time>
      </trkpt>
      <trkpt lat="42.6513" lon="0.646262">
        <ele>2935.2</ele>
        <time>1970-01-01T02:47:43.000Z</time>
      </trkpt>
      <trkpt lat="42.651288" lon="0.64626">
        <ele>2935.5</ele>
        <time>1970-01-01T02:47:45.000Z</time>
      </trkpt>
      <trkpt lat="42.651277" lon="0.646258">
        <ele>2935.7</ele>
        <time>1970-01-01T02:47:46.000Z</time>
      </trkpt>
      <trkpt lat="42.65127" lon="0.646256">
        <ele>2935.9</ele>
        <time>1970-01-01T02:47:47.000Z</time>
      </trkpt>
      <trkpt lat="42.651259" lon="0.646255">
        <ele>2936.1</ele>
        <time>1970-01-01T02:47:49.000Z</time>
      </trkpt>
      <trkpt lat="42.651247" lon="0.646253">
        <ele>2936.4</ele>
        <time>1970-01-01T02:47:50.000Z</time>
      </trkpt>
      <trkpt lat="42.651239" lon="0.646252">
        <ele>2936.6</ele>
        <time>1970-01-01T02:47:51.000Z</time>
      </trkpt>
      <trkpt lat="42.65123" lon="0.646252">
        <ele>2936.8</ele>
        <time>1970-01-01T02:47:52.000Z</time>
      </trkpt>
      <trkpt lat="42.651225" lon="0.646253">
        <ele>2936.9</ele>
        <time>1970-01-01T02:47:53.000Z</time>
      </trkpt>
      <trkpt lat="42.651219" lon="0.646253">
        <ele>2937</ele>
        <time>1970-01-01T02:47:54.000Z</time>
      </trkpt>
      <trkpt lat="42.651214" lon="0.646251">
        <ele>2937.2</ele>
        <time>1970-01-01T02:47:55.000Z</time>
      </trkpt>
      <trkpt lat="42.651213" lon="0.646249">
        <ele>2937.2</ele>
        <time>1970-01-01T02:47:56.000Z</time>
      </trkpt>
      <trkpt lat="42.651214" lon="0.646248">
        <ele>2937.2</ele>
        <time>1970-01-01T02:47:57.000Z</time>
      </trkpt>
      <trkpt lat="42.651208" lon="0.646246">
        <ele>2937.4</ele>
        <time>1970-01-01T02:47:59.000Z</time>
      </trkpt>
      <trkpt lat="42.651197" lon="0.646244">
        <ele>2937.6</ele>
        <time>1970-01-01T02:48:00.000Z</time>
      </trkpt>
      <trkpt lat="42.65119" lon="0.646244">
        <ele>2937.8</ele>
        <time>1970-01-01T02:48:01.000Z</time>
      </trkpt>
      <trkpt lat="42.651179" lon="0.646248">
        <ele>2938</ele>
        <time>1970-01-01T02:48:03.000Z</time>
      </trkpt>
      <trkpt lat="42.65117" lon="0.646251">
        <ele>2938.2</ele>
        <time>1970-01-01T02:48:04.000Z</time>
      </trkpt>
      <trkpt lat="42.651165" lon="0.646254">
        <ele>2938.3</ele>
        <time>1970-01-01T02:48:05.000Z</time>
      </trkpt>
      <trkpt lat="42.651156" lon="0.646263">
        <ele>2938.6</ele>
        <time>1970-01-01T02:48:07.000Z</time>
      </trkpt>
      <trkpt lat="42.651155" lon="0.646267">
        <ele>2938.7</ele>
        <time>1970-01-01T02:48:08.000Z</time>
      </trkpt>
      <trkpt lat="42.651154" lon="0.64627">
        <ele>2938.7</ele>
        <time>1970-01-01T02:48:09.000Z</time>
      </trkpt>
      <trkpt lat="42.651152" lon="0.646272">
        <ele>2938.8</ele>
        <time>1970-01-01T02:48:10.000Z</time>
      </trkpt>
      <trkpt lat="42.651148" lon="0.646274">
        <ele>2938.9</ele>
        <time>1970-01-01T02:48:11.000Z</time>
      </trkpt>
      <trkpt lat="42.651143" lon="0.646273">
        <ele>2939</ele>
        <time>1970-01-01T02:48:12.000Z</time>
      </trkpt>
      <trkpt lat="42.651137" lon="0.646269">
        <ele>2939.2</ele>
        <time>1970-01-01T02:48:13.000Z</time>
      </trkpt>
      <trkpt lat="42.651132" lon="0.646267">
        <ele>2939.3</ele>
        <time>1970-01-01T02:48:14.000Z</time>
      </trkpt>
      <trkpt lat="42.651125" lon="0.646266">
        <ele>2939.4</ele>
        <time>1970-01-01T02:48:15.000Z</time>
      </trkpt>
      <trkpt lat="42.651114" lon="0.646263">
        <ele>2939.7</ele>
        <time>1970-01-01T02:48:17.000Z</time>
      </trkpt>
      <trkpt lat="42.651114" lon="0.646265">
        <ele>2939.8</ele>
        <time>1970-01-01T02:48:18.000Z</time>
      </trkpt>
      <trkpt lat="42.651113" lon="0.646266">
        <ele>2939.8</ele>
        <time>1970-01-01T02:48:19.000Z</time>
      </trkpt>
      <trkpt lat="42.651109" lon="0.646265">
        <ele>2939.9</ele>
        <time>1970-01-01T02:48:20.000Z</time>
      </trkpt>
      <trkpt lat="42.651103" lon="0.646264">
        <ele>2940</ele>
        <time>1970-01-01T02:48:21.000Z</time>
      </trkpt>
      <trkpt lat="42.651097" lon="0.646262">
        <ele>2940.2</ele>
        <time>1970-01-01T02:48:22.000Z</time>
      </trkpt>
      <trkpt lat="42.651094" lon="0.64626">
        <ele>2940.3</ele>
        <time>1970-01-01T02:48:23.000Z</time>
      </trkpt>
      <trkpt lat="42.651093" lon="0.646258">
        <ele>2940.3</ele>
        <time>1970-01-01T02:48:24.000Z</time>
      </trkpt>
      <trkpt lat="42.651089" lon="0.646256">
        <ele>2940.4</ele>
        <time>1970-01-01T02:48:25.000Z</time>
      </trkpt>
      <trkpt lat="42.651083" lon="0.646253">
        <ele>2940.6</ele>
        <time>1970-01-01T02:48:26.000Z</time>
      </trkpt>
      <trkpt lat="42.651079" lon="0.646252">
        <ele>2940.7</ele>
        <time>1970-01-01T02:48:27.000Z</time>
      </trkpt>
      <trkpt lat="42.651066" lon="0.646248">
        <ele>2941</ele>
        <time>1970-01-01T02:48:29.000Z</time>
      </trkpt>
      <trkpt lat="42.65106" lon="0.646247">
        <ele>2941.1</ele>
        <time>1970-01-01T02:48:30.000Z</time>
      </trkpt>
      <trkpt lat="42.651049" lon="0.646245">
        <ele>2941.4</ele>
        <time>1970-01-01T02:48:31.000Z</time>
      </trkpt>
      <trkpt lat="42.651042" lon="0.646244">
        <ele>2941.6</ele>
        <time>1970-01-01T02:48:32.000Z</time>
      </trkpt>
      <trkpt lat="42.651037" lon="0.646243">
        <ele>2941.7</ele>
        <time>1970-01-01T02:48:33.000Z</time>
      </trkpt>
      <trkpt lat="42.651025" lon="0.64624">
        <ele>2942</ele>
        <time>1970-01-01T02:48:35.000Z</time>
      </trkpt>
      <trkpt lat="42.651019" lon="0.646239">
        <ele>2942.2</ele>
        <time>1970-01-01T02:48:36.000Z</time>
      </trkpt>
      <trkpt lat="42.651014" lon="0.646239">
        <ele>2942.3</ele>
        <time>1970-01-01T02:48:37.000Z</time>
      </trkpt>
      <trkpt lat="42.65101" lon="0.646239">
        <ele>2942.4</ele>
        <time>1970-01-01T02:48:38.000Z</time>
      </trkpt>
      <trkpt lat="42.651007" lon="0.646239">
        <ele>2942.5</ele>
        <time>1970-01-01T02:48:39.000Z</time>
      </trkpt>
      <trkpt lat="42.651001" lon="0.64624">
        <ele>2942.7</ele>
        <time>1970-01-01T02:48:40.000Z</time>
      </trkpt>
      <trkpt lat="42.650998" lon="0.646241">
        <ele>2942.8</ele>
        <time>1970-01-01T02:48:41.000Z</time>
      </trkpt>
      <trkpt lat="42.650993" lon="0.646243">
        <ele>2942.9</ele>
        <time>1970-01-01T02:48:42.000Z</time>
      </trkpt>
      <trkpt lat="42.650986" lon="0.646245">
        <ele>2943.1</ele>
        <time>1970-01-01T02:48:44.000Z</time>
      </trkpt>
      <trkpt lat="42.650981" lon="0.646247">
        <ele>2943.2</ele>
        <time>1970-01-01T02:48:45.000Z</time>
      </trkpt>
      <trkpt lat="42.650977" lon="0.646249">
        <ele>2943.4</ele>
        <time>1970-01-01T02:48:46.000Z</time>
      </trkpt>
      <trkpt lat="42.650967" lon="0.646255">
        <ele>2943.6</ele>
        <time>1970-01-01T02:48:48.000Z</time>
      </trkpt>
      <trkpt lat="42.650958" lon="0.64626">
        <ele>2943.9</ele>
        <time>1970-01-01T02:48:49.000Z</time>
      </trkpt>
      <trkpt lat="42.650951" lon="0.646263">
        <ele>2944.1</ele>
        <time>1970-01-01T02:48:50.000Z</time>
      </trkpt>
      <trkpt lat="42.650946" lon="0.646265">
        <ele>2944.2</ele>
        <time>1970-01-01T02:48:51.000Z</time>
      </trkpt>
      <trkpt lat="42.650936" lon="0.646268">
        <ele>2944.5</ele>
        <time>1970-01-01T02:48:53.000Z</time>
      </trkpt>
      <trkpt lat="42.650931" lon="0.646269">
        <ele>2944.7</ele>
        <time>1970-01-01T02:48:54.000Z</time>
      </trkpt>
      <trkpt lat="42.650927" lon="0.646267">
        <ele>2944.8</ele>
        <time>1970-01-01T02:48:55.000Z</time>
      </trkpt>
      <trkpt lat="42.650923" lon="0.646266">
        <ele>2944.9</ele>
        <time>1970-01-01T02:48:56.000Z</time>
      </trkpt>
      <trkpt lat="42.650918" lon="0.646264">
        <ele>2945.1</ele>
        <time>1970-01-01T02:48:57.000Z</time>
      </trkpt>
      <trkpt lat="42.650914" lon="0.646264">
        <ele>2945.2</ele>
        <time>1970-01-01T02:48:58.000Z</time>
      </trkpt>
      <trkpt lat="42.650908" lon="0.646264">
        <ele>2945.4</ele>
        <time>1970-01-01T02:48:59.000Z</time>
      </trkpt>
      <trkpt lat="42.650903" lon="0.646264">
        <ele>2945.5</ele>
        <time>1970-01-01T02:49:00.000Z</time>
      </trkpt>
      <trkpt lat="42.650894" lon="0.646264">
        <ele>2945.8</ele>
        <time>1970-01-01T02:49:01.000Z</time>
      </trkpt>
      <trkpt lat="42.650885" lon="0.646264">
        <ele>2946.1</ele>
        <time>1970-01-01T02:49:02.000Z</time>
      </trkpt>
      <trkpt lat="42.650877" lon="0.646262">
        <ele>2946.3</ele>
        <time>1970-01-01T02:49:03.000Z</time>
      </trkpt>
      <trkpt lat="42.65087" lon="0.646262">
        <ele>2946.5</ele>
        <time>1970-01-01T02:49:04.000Z</time>
      </trkpt>
      <trkpt lat="42.650857" lon="0.646266">
        <ele>2946.9</ele>
        <time>1970-01-01T02:49:06.000Z</time>
      </trkpt>
      <trkpt lat="42.65085" lon="0.646272">
        <ele>2947.1</ele>
        <time>1970-01-01T02:49:07.000Z</time>
      </trkpt>
      <trkpt lat="42.650845" lon="0.646278">
        <ele>2947.3</ele>
        <time>1970-01-01T02:49:08.000Z</time>
      </trkpt>
      <trkpt lat="42.650841" lon="0.646282">
        <ele>2947.5</ele>
        <time>1970-01-01T02:49:09.000Z</time>
      </trkpt>
      <trkpt lat="42.650836" lon="0.646286">
        <ele>2947.7</ele>
        <time>1970-01-01T02:49:10.000Z</time>
      </trkpt>
      <trkpt lat="42.650831" lon="0.64629">
        <ele>2947.8</ele>
        <time>1970-01-01T02:49:11.000Z</time>
      </trkpt>
      <trkpt lat="42.650827" lon="0.646294">
        <ele>2948</ele>
        <time>1970-01-01T02:49:12.000Z</time>
      </trkpt>
      <trkpt lat="42.650824" lon="0.646298">
        <ele>2948.1</ele>
        <time>1970-01-01T02:49:13.000Z</time>
      </trkpt>
      <trkpt lat="42.65082" lon="0.646302">
        <ele>2948.3</ele>
        <time>1970-01-01T02:49:14.000Z</time>
      </trkpt>
      <trkpt lat="42.650817" lon="0.646306">
        <ele>2948.4</ele>
        <time>1970-01-01T02:49:15.000Z</time>
      </trkpt>
      <trkpt lat="42.650813" lon="0.646308">
        <ele>2948.5</ele>
        <time>1970-01-01T02:49:16.000Z</time>
      </trkpt>
      <trkpt lat="42.65081" lon="0.646309">
        <ele>2948.6</ele>
        <time>1970-01-01T02:49:17.000Z</time>
      </trkpt>
      <trkpt lat="42.650806" lon="0.646311">
        <ele>2948.7</ele>
        <time>1970-01-01T02:49:18.000Z</time>
      </trkpt>
      <trkpt lat="42.650797" lon="0.646313">
        <ele>2949</ele>
        <time>1970-01-01T02:49:20.000Z</time>
      </trkpt>
      <trkpt lat="42.650784" lon="0.646315">
        <ele>2949.4</ele>
        <time>1970-01-01T02:49:22.000Z</time>
      </trkpt>
      <trkpt lat="42.650776" lon="0.646315">
        <ele>2949.6</ele>
        <time>1970-01-01T02:49:24.000Z</time>
      </trkpt>
      <trkpt lat="42.650772" lon="0.646315">
        <ele>2949.7</ele>
        <time>1970-01-01T02:49:25.000Z</time>
      </trkpt>
      <trkpt lat="42.650767" lon="0.646315">
        <ele>2949.9</ele>
        <time>1970-01-01T02:49:26.000Z</time>
      </trkpt>
      <trkpt lat="42.650757" lon="0.646318">
        <ele>2950.2</ele>
        <time>1970-01-01T02:49:28.000Z</time>
      </trkpt>
      <trkpt lat="42.65075" lon="0.646319">
        <ele>2950.4</ele>
        <time>1970-01-01T02:49:29.000Z</time>
      </trkpt>
      <trkpt lat="42.650746" lon="0.64632">
        <ele>2950.5</ele>
        <time>1970-01-01T02:49:30.000Z</time>
      </trkpt>
      <trkpt lat="42.65074" lon="0.646323">
        <ele>2950.7</ele>
        <time>1970-01-01T02:49:31.000Z</time>
      </trkpt>
      <trkpt lat="42.650735" lon="0.646325">
        <ele>2950.9</ele>
        <time>1970-01-01T02:49:32.000Z</time>
      </trkpt>
      <trkpt lat="42.650732" lon="0.646327">
        <ele>2951</ele>
        <time>1970-01-01T02:49:33.000Z</time>
      </trkpt>
      <trkpt lat="42.650727" lon="0.646328">
        <ele>2951.1</ele>
        <time>1970-01-01T02:49:34.000Z</time>
      </trkpt>
      <trkpt lat="42.650716" lon="0.646329">
        <ele>2951.4</ele>
        <time>1970-01-01T02:49:35.000Z</time>
      </trkpt>
      <trkpt lat="42.65071" lon="0.646329">
        <ele>2951.6</ele>
        <time>1970-01-01T02:49:36.000Z</time>
      </trkpt>
      <trkpt lat="42.650699" lon="0.646327">
        <ele>2951.9</ele>
        <time>1970-01-01T02:49:38.000Z</time>
      </trkpt>
      <trkpt lat="42.650689" lon="0.646328">
        <ele>2952.2</ele>
        <time>1970-01-01T02:49:40.000Z</time>
      </trkpt>
      <trkpt lat="42.650684" lon="0.646327">
        <ele>2952.3</ele>
        <time>1970-01-01T02:49:41.000Z</time>
      </trkpt>
      <trkpt lat="42.650679" lon="0.646325">
        <ele>2952.5</ele>
        <time>1970-01-01T02:49:42.000Z</time>
      </trkpt>
      <trkpt lat="42.650674" lon="0.646323">
        <ele>2952.6</ele>
        <time>1970-01-01T02:49:43.000Z</time>
      </trkpt>
      <trkpt lat="42.650669" lon="0.64632">
        <ele>2952.8</ele>
        <time>1970-01-01T02:49:44.000Z</time>
      </trkpt>
      <trkpt lat="42.650667" lon="0.646318">
        <ele>2952.8</ele>
        <time>1970-01-01T02:49:45.000Z</time>
      </trkpt>
      <trkpt lat="42.650665" lon="0.646316">
        <ele>2952.9</ele>
        <time>1970-01-01T02:49:46.000Z</time>
      </trkpt>
      <trkpt lat="42.650666" lon="0.646315">
        <ele>2952.9</ele>
        <time>1970-01-01T02:49:47.000Z</time>
      </trkpt>
      <trkpt lat="42.650665" lon="0.646314">
        <ele>2952.9</ele>
        <time>1970-01-01T02:49:48.000Z</time>
      </trkpt>
      <trkpt lat="42.650662" lon="0.646311">
        <ele>2953</ele>
        <time>1970-01-01T02:49:49.000Z</time>
      </trkpt>
      <trkpt lat="42.650659" lon="0.64631">
        <ele>2953.1</ele>
        <time>1970-01-01T02:49:50.000Z</time>
      </trkpt>
      <trkpt lat="42.650655" lon="0.646308">
        <ele>2953.2</ele>
        <time>1970-01-01T02:49:51.000Z</time>
      </trkpt>
      <trkpt lat="42.65065" lon="0.646306">
        <ele>2953.4</ele>
        <time>1970-01-01T02:49:52.000Z</time>
      </trkpt>
      <trkpt lat="42.650644" lon="0.646302">
        <ele>2953.5</ele>
        <time>1970-01-01T02:49:53.000Z</time>
      </trkpt>
      <trkpt lat="42.650633" lon="0.646293">
        <ele>2953.9</ele>
        <time>1970-01-01T02:49:55.000Z</time>
      </trkpt>
      <trkpt lat="42.650627" lon="0.646287">
        <ele>2954</ele>
        <time>1970-01-01T02:49:56.000Z</time>
      </trkpt>
      <trkpt lat="42.650623" lon="0.646281">
        <ele>2954.2</ele>
        <time>1970-01-01T02:49:57.000Z</time>
      </trkpt>
      <trkpt lat="42.650616" lon="0.646274">
        <ele>2954.4</ele>
        <time>1970-01-01T02:49:58.000Z</time>
      </trkpt>
      <trkpt lat="42.650614" lon="0.646273">
        <ele>2954.5</ele>
        <time>1970-01-01T02:49:59.000Z</time>
      </trkpt>
      <trkpt lat="42.65061" lon="0.646274">
        <ele>2954.6</ele>
        <time>1970-01-01T02:50:00.000Z</time>
      </trkpt>
      <trkpt lat="42.65061" lon="0.646273">
        <ele>2954.6</ele>
        <time>1970-01-01T02:50:01.000Z</time>
      </trkpt>
      <trkpt lat="42.650611" lon="0.646274">
        <ele>2954.6</ele>
        <time>1970-01-01T02:50:02.000Z</time>
      </trkpt>
      <trkpt lat="42.650613" lon="0.646275">
        <ele>2954.7</ele>
        <time>1970-01-01T02:50:03.000Z</time>
      </trkpt>
      <trkpt lat="42.650613" lon="0.646276">
        <ele>2954.7</ele>
        <time>1970-01-01T02:50:04.000Z</time>
      </trkpt>
      <trkpt lat="42.650614" lon="0.646276">
        <ele>2954.7</ele>
        <time>1970-01-01T02:50:05.000Z</time>
      </trkpt>
      <trkpt lat="42.650614" lon="0.646276">
        <ele>2954.7</ele>
        <time>1970-01-01T02:50:06.000Z</time>
      </trkpt>
      <trkpt lat="42.650614" lon="0.646276">
        <ele>2954.7</ele>
        <time>1970-01-01T02:50:07.000Z</time>
      </trkpt>
      <trkpt lat="42.650615" lon="0.646276">
        <ele>2954.7</ele>
        <time>1970-01-01T02:50:08.000Z</time>
      </trkpt>
      <trkpt lat="42.650616" lon="0.646277">
        <ele>2954.7</ele>
        <time>1970-01-01T02:50:09.000Z</time>
      </trkpt>
      <trkpt lat="42.650617" lon="0.646277">
        <ele>2954.8</ele>
        <time>1970-01-01T02:50:10.000Z</time>
      </trkpt>
      <trkpt lat="42.650618" lon="0.646277">
        <ele>2954.8</ele>
        <time>1970-01-01T02:50:11.000Z</time>
      </trkpt>
      <trkpt lat="42.650619" lon="0.646277">
        <ele>2954.8</ele>
        <time>1970-01-01T02:50:12.000Z</time>
      </trkpt>
      <trkpt lat="42.65062" lon="0.646278">
        <ele>2954.9</ele>
        <time>1970-01-01T02:50:13.000Z</time>
      </trkpt>
      <trkpt lat="42.65062" lon="0.646279">
        <ele>2954.9</ele>
        <time>1970-01-01T02:50:14.000Z</time>
      </trkpt>
      <trkpt lat="42.650622" lon="0.646281">
        <ele>2954.9</ele>
        <time>1970-01-01T02:50:15.000Z</time>
      </trkpt>
      <trkpt lat="42.650623" lon="0.646284">
        <ele>2955</ele>
        <time>1970-01-01T02:50:17.000Z</time>
      </trkpt>
      <trkpt lat="42.650625" lon="0.646285">
        <ele>2955</ele>
        <time>1970-01-01T02:50:18.000Z</time>
      </trkpt>
      <trkpt lat="42.650627" lon="0.646286">
        <ele>2955.1</ele>
        <time>1970-01-01T02:50:19.000Z</time>
      </trkpt>
      <trkpt lat="42.650628" lon="0.646287">
        <ele>2955.1</ele>
        <time>1970-01-01T02:50:20.000Z</time>
      </trkpt>
      <trkpt lat="42.650629" lon="0.646288">
        <ele>2955.2</ele>
        <time>1970-01-01T02:50:21.000Z</time>
      </trkpt>
      <trkpt lat="42.65063" lon="0.646288">
        <ele>2955.2</ele>
        <time>1970-01-01T02:50:22.000Z</time>
      </trkpt>
      <trkpt lat="42.650631" lon="0.646287">
        <ele>2955.2</ele>
        <time>1970-01-01T02:50:24.000Z</time>
      </trkpt>
      <trkpt lat="42.650632" lon="0.646287">
        <ele>2955.2</ele>
        <time>1970-01-01T02:50:25.000Z</time>
      </trkpt>
      <trkpt lat="42.650633" lon="0.646287">
        <ele>2955.3</ele>
        <time>1970-01-01T02:50:26.000Z</time>
      </trkpt>
      <trkpt lat="42.650633" lon="0.646287">
        <ele>2955.3</ele>
        <time>1970-01-01T02:50:27.000Z</time>
      </trkpt>
      <trkpt lat="42.650634" lon="0.646287">
        <ele>2955.3</ele>
        <time>1970-01-01T02:50:28.000Z</time>
      </trkpt>
      <trkpt lat="42.650635" lon="0.646287">
        <ele>2955.3</ele>
        <time>1970-01-01T02:50:29.000Z</time>
      </trkpt>
      <trkpt lat="42.650636" lon="0.646287">
        <ele>2955.3</ele>
        <time>1970-01-01T02:50:30.000Z</time>
      </trkpt>
      <trkpt lat="42.650636" lon="0.646287">
        <ele>2955.3</ele>
        <time>1970-01-01T02:50:31.000Z</time>
      </trkpt>
      <trkpt lat="42.650637" lon="0.646287">
        <ele>2955.3</ele>
        <time>1970-01-01T02:50:32.000Z</time>
      </trkpt>
      <trkpt lat="42.650637" lon="0.646287">
        <ele>2955.3</ele>
        <time>1970-01-01T02:50:33.000Z</time>
      </trkpt>
      <trkpt lat="42.650638" lon="0.646288">
        <ele>2955.4</ele>
        <time>1970-01-01T02:50:34.000Z</time>
      </trkpt>
      <trkpt lat="42.650639" lon="0.646287">
        <ele>2955.4</ele>
        <time>1970-01-01T02:50:35.000Z</time>
      </trkpt>
      <trkpt lat="42.65064" lon="0.646286">
        <ele>2955.4</ele>
        <time>1970-01-01T02:50:36.000Z</time>
      </trkpt>
      <trkpt lat="42.65064" lon="0.646286">
        <ele>2955.4</ele>
        <time>1970-01-01T02:50:37.000Z</time>
      </trkpt>
      <trkpt lat="42.65064" lon="0.646285">
        <ele>2955.5</ele>
        <time>1970-01-01T02:50:38.000Z</time>
      </trkpt>
      <trkpt lat="42.65064" lon="0.646285">
        <ele>2955.5</ele>
        <time>1970-01-01T02:50:39.000Z</time>
      </trkpt>
      <trkpt lat="42.650641" lon="0.646285">
        <ele>2955.5</ele>
        <time>1970-01-01T02:50:40.000Z</time>
      </trkpt>
      <trkpt lat="42.650641" lon="0.646285">
        <ele>2955.5</ele>
        <time>1970-01-01T02:50:41.000Z</time>
      </trkpt>
      <trkpt lat="42.650641" lon="0.646285">
        <ele>2955.5</ele>
        <time>1970-01-01T02:50:42.000Z</time>
      </trkpt>
      <trkpt lat="42.650641" lon="0.646286">
        <ele>2955.5</ele>
        <time>1970-01-01T02:50:43.000Z</time>
      </trkpt>
      <trkpt lat="42.650641" lon="0.646286">
        <ele>2955.5</ele>
        <time>1970-01-01T02:50:44.000Z</time>
      </trkpt>
      <trkpt lat="42.650641" lon="0.646286">
        <ele>2955.5</ele>
        <time>1970-01-01T02:50:45.000Z</time>
      </trkpt>
      <trkpt lat="42.650641" lon="0.646286">
        <ele>2955.5</ele>
        <time>1970-01-01T02:50:46.000Z</time>
      </trkpt>
      <trkpt lat="42.650641" lon="0.646286">
        <ele>2955.5</ele>
        <time>1970-01-01T02:50:47.000Z</time>
      </trkpt>
      <trkpt lat="42.650641" lon="0.646286">
        <ele>2955.5</ele>
        <time>1970-01-01T02:50:48.000Z</time>
      </trkpt>
      <trkpt lat="42.650641" lon="0.646286">
        <ele>2955.5</ele>
        <time>1970-01-01T02:50:49.000Z</time>
      </trkpt>
      <trkpt lat="42.650641" lon="0.646286">
        <ele>2955.5</ele>
        <time>1970-01-01T02:50:50.000Z</time>
      </trkpt>
      <trkpt lat="42.650641" lon="0.646286">
        <ele>2955.5</ele>
        <time>1970-01-01T02:50:51.000Z</time>
      </trkpt>
      <trkpt lat="42.650642" lon="0.646285">
        <ele>2955.5</ele>
        <time>1970-01-01T02:50:52.000Z</time>
      </trkpt>
      <trkpt lat="42.650643" lon="0.646285">
        <ele>2955.5</ele>
        <time>1970-01-01T02:50:53.000Z</time>
      </trkpt>
      <trkpt lat="42.650643" lon="0.646285">
        <ele>2955.5</ele>
        <time>1970-01-01T02:50:54.000Z</time>
      </trkpt>
      <trkpt lat="42.650643" lon="0.646286">
        <ele>2955.6</ele>
        <time>1970-01-01T02:50:55.000Z</time>
      </trkpt>
      <trkpt lat="42.650643" lon="0.646287">
        <ele>2955.6</ele>
        <time>1970-01-01T02:50:56.000Z</time>
      </trkpt>
      <trkpt lat="42.650643" lon="0.646287">
        <ele>2955.6</ele>
        <time>1970-01-01T02:50:57.000Z</time>
      </trkpt>
      <trkpt lat="42.650643" lon="0.646288">
        <ele>2955.6</ele>
        <time>1970-01-01T02:50:58.000Z</time>
      </trkpt>
      <trkpt lat="42.650643" lon="0.646288">
        <ele>2955.6</ele>
        <time>1970-01-01T02:50:59.000Z</time>
      </trkpt>
      <trkpt lat="42.650643" lon="0.646288">
        <ele>2955.6</ele>
        <time>1970-01-01T02:51:00.000Z</time>
      </trkpt>
      <trkpt lat="42.650643" lon="0.646288">
        <ele>2955.6</ele>
        <time>1970-01-01T02:51:01.000Z</time>
      </trkpt>
      <trkpt lat="42.650641" lon="0.646289">
        <ele>2955.6</ele>
        <time>1970-01-01T02:51:02.000Z</time>
      </trkpt>
      <trkpt lat="42.650639" lon="0.64629">
        <ele>2955.7</ele>
        <time>1970-01-01T02:51:03.000Z</time>
      </trkpt>
      <trkpt lat="42.650638" lon="0.646291">
        <ele>2955.7</ele>
        <time>1970-01-01T02:51:04.000Z</time>
      </trkpt>
      <trkpt lat="42.650638" lon="0.646292">
        <ele>2955.7</ele>
        <time>1970-01-01T02:51:05.000Z</time>
      </trkpt>
      <trkpt lat="42.650638" lon="0.646292">
        <ele>2955.7</ele>
        <time>1970-01-01T02:51:06.000Z</time>
      </trkpt>
      <trkpt lat="42.650639" lon="0.646292">
        <ele>2955.8</ele>
        <time>1970-01-01T02:51:07.000Z</time>
      </trkpt>
      <trkpt lat="42.650639" lon="0.646292">
        <ele>2955.8</ele>
        <time>1970-01-01T02:51:08.000Z</time>
      </trkpt>
      <trkpt lat="42.650639" lon="0.646292">
        <ele>2955.8</ele>
        <time>1970-01-01T02:51:09.000Z</time>
      </trkpt>
      <trkpt lat="42.650639" lon="0.646292">
        <ele>2955.8</ele>
        <time>1970-01-01T02:51:10.000Z</time>
      </trkpt>
      <trkpt lat="42.650639" lon="0.646292">
        <ele>2955.8</ele>
        <time>1970-01-01T02:51:11.000Z</time>
      </trkpt>
      <trkpt lat="42.650639" lon="0.646292">
        <ele>2955.8</ele>
        <time>1970-01-01T02:51:12.000Z</time>
      </trkpt>
      <trkpt lat="42.650639" lon="0.646292">
        <ele>2955.8</ele>
        <time>1970-01-01T02:51:13.000Z</time>
      </trkpt>
      <trkpt lat="42.650639" lon="0.646292">
        <ele>2955.8</ele>
        <time>1970-01-01T02:51:14.000Z</time>
      </trkpt>
      <trkpt lat="42.650639" lon="0.646292">
        <ele>2955.8</ele>
        <time>1970-01-01T02:51:15.000Z</time>
      </trkpt>
      <trkpt lat="42.650639" lon="0.646292">
        <ele>2955.8</ele>
        <time>1970-01-01T02:51:16.000Z</time>
      </trkpt>
      <trkpt lat="42.650639" lon="0.646292">
        <ele>2955.8</ele>
        <time>1970-01-01T02:51:17.000Z</time>
      </trkpt>
      <trkpt lat="42.65064" lon="0.646292">
        <ele>2955.8</ele>
        <time>1970-01-01T02:51:18.000Z</time>
      </trkpt>
      <trkpt lat="42.65064" lon="0.646292">
        <ele>2955.8</ele>
        <time>1970-01-01T02:51:19.000Z</time>
      </trkpt>
      <trkpt lat="42.65064" lon="0.646292">
        <ele>2955.8</ele>
        <time>1970-01-01T02:51:20.000Z</time>
      </trkpt>
      <trkpt lat="42.65064" lon="0.646292">
        <ele>2955.8</ele>
        <time>1970-01-01T02:51:21.000Z</time>
      </trkpt>
      <trkpt lat="42.65064" lon="0.646292">
        <ele>2955.8</ele>
        <time>1970-01-01T02:51:22.000Z</time>
      </trkpt>
      <trkpt lat="42.65064" lon="0.646293">
        <ele>2955.8</ele>
        <time>1970-01-01T02:51:23.000Z</time>
      </trkpt>
      <trkpt lat="42.65064" lon="0.646293">
        <ele>2955.8</ele>
        <time>1970-01-01T02:51:24.000Z</time>
      </trkpt>
      <trkpt lat="42.65064" lon="0.646293">
        <ele>2955.8</ele>
        <time>1970-01-01T02:51:25.000Z</time>
      </trkpt>
      <trkpt lat="42.65064" lon="0.646293">
        <ele>2955.8</ele>
        <time>1970-01-01T02:51:26.000Z</time>
      </trkpt>
      <trkpt lat="42.65064" lon="0.646293">
        <ele>2955.8</ele>
        <time>1970-01-01T02:51:27.000Z</time>
      </trkpt>
      <trkpt lat="42.65064" lon="0.646293">
        <ele>2955.8</ele>
        <time>1970-01-01T02:51:28.000Z</time>
      </trkpt>
      <trkpt lat="42.65064" lon="0.646293">
        <ele>2955.8</ele>
        <time>1970-01-01T02:51:29.000Z</time>
      </trkpt>
      <trkpt lat="42.65064" lon="0.646293">
        <ele>2955.8</ele>
        <time>1970-01-01T02:51:30.000Z</time>
      </trkpt>
      <trkpt lat="42.65064" lon="0.646293">
        <ele>2955.8</ele>
        <time>1970-01-01T02:51:31.000Z</time>
      </trkpt>
      <trkpt lat="42.65064" lon="0.646293">
        <ele>2955.8</ele>
        <time>1970-01-01T02:51:32.000Z</time>
      </trkpt>
      <trkpt lat="42.65064" lon="0.646293">
        <ele>2955.8</ele>
        <time>1970-01-01T02:51:33.000Z</time>
      </trkpt>
      <trkpt lat="42.65064" lon="0.646293">
        <ele>2955.8</ele>
        <time>1970-01-01T02:51:34.000Z</time>
      </trkpt>
      <trkpt lat="42.65064" lon="0.646293">
        <ele>2955.8</ele>
        <time>1970-01-01T02:51:35.000Z</time>
      </trkpt>
      <trkpt lat="42.65064" lon="0.646293">
        <ele>2955.8</ele>
        <time>1970-01-01T02:51:36.000Z</time>
      </trkpt>
      <trkpt lat="42.65064" lon="0.646294">
        <ele>2955.8</ele>
        <time>1970-01-01T02:51:37.000Z</time>
      </trkpt>
      <trkpt lat="42.65064" lon="0.646294">
        <ele>2955.8</ele>
        <time>1970-01-01T02:51:38.000Z</time>
      </trkpt>
      <trkpt lat="42.65064" lon="0.646294">
        <ele>2955.8</ele>
        <time>1970-01-01T02:51:39.000Z</time>
      </trkpt>
      <trkpt lat="42.65064" lon="0.646294">
        <ele>2955.8</ele>
        <time>1970-01-01T02:51:40.000Z</time>
      </trkpt>
      <trkpt lat="42.65064" lon="0.646294">
        <ele>2955.8</ele>
        <time>1970-01-01T02:51:41.000Z</time>
      </trkpt>
      <trkpt lat="42.65064" lon="0.646294">
        <ele>2955.8</ele>
        <time>1970-01-01T02:51:42.000Z</time>
      </trkpt>
      <trkpt lat="42.65064" lon="0.646294">
        <ele>2955.8</ele>
        <time>1970-01-01T02:51:43.000Z</time>
      </trkpt>
      <trkpt lat="42.65064" lon="0.646294">
        <ele>2955.8</ele>
        <time>1970-01-01T02:51:44.000Z</time>
      </trkpt>
      <trkpt lat="42.65064" lon="0.646294">
        <ele>2955.8</ele>
        <time>1970-01-01T02:51:45.000Z</time>
      </trkpt>
      <trkpt lat="42.65064" lon="0.646294">
        <ele>2955.8</ele>
        <time>1970-01-01T02:51:46.000Z</time>
      </trkpt>
      <trkpt lat="42.65064" lon="0.646294">
        <ele>2955.8</ele>
        <time>1970-01-01T02:51:47.000Z</time>
      </trkpt>
      <trkpt lat="42.65064" lon="0.646294">
        <ele>2955.8</ele>
        <time>1970-01-01T02:51:48.000Z</time>
      </trkpt>
      <trkpt lat="42.65064" lon="0.646294">
        <ele>2955.8</ele>
        <time>1970-01-01T02:51:49.000Z</time>
      </trkpt>
      <trkpt lat="42.65064" lon="0.646294">
        <ele>2955.8</ele>
        <time>1970-01-01T02:51:50.000Z</time>
      </trkpt>
      <trkpt lat="42.65064" lon="0.646294">
        <ele>2955.8</ele>
        <time>1970-01-01T02:51:51.000Z</time>
      </trkpt>
      <trkpt lat="42.65064" lon="0.646294">
        <ele>2955.8</ele>
        <time>1970-01-01T02:51:52.000Z</time>
      </trkpt>
      <trkpt lat="42.65064" lon="0.646294">
        <ele>2955.8</ele>
        <time>1970-01-01T02:51:53.000Z</time>
      </trkpt>
      <trkpt lat="42.65064" lon="0.646294">
        <ele>2955.8</ele>
        <time>1970-01-01T02:51:54.000Z</time>
      </trkpt>
      <trkpt lat="42.65064" lon="0.646294">
        <ele>2955.8</ele>
        <time>1970-01-01T02:51:55.000Z</time>
      </trkpt>
      <trkpt lat="42.65064" lon="0.646295">
        <ele>2955.8</ele>
        <time>1970-01-01T02:51:56.000Z</time>
      </trkpt>
      <trkpt lat="42.65064" lon="0.646295">
        <ele>2955.8</ele>
        <time>1970-01-01T02:51:57.000Z</time>
      </trkpt>
      <trkpt lat="42.65064" lon="0.646295">
        <ele>2955.8</ele>
        <time>1970-01-01T02:51:58.000Z</time>
      </trkpt>
      <trkpt lat="42.65064" lon="0.646295">
        <ele>2955.8</ele>
        <time>1970-01-01T02:51:59.000Z</time>
      </trkpt>
      <trkpt lat="42.65064" lon="0.646295">
        <ele>2955.8</ele>
        <time>1970-01-01T02:52:00.000Z</time>
      </trkpt>
      <trkpt lat="42.65064" lon="0.646295">
        <ele>2955.8</ele>
        <time>1970-01-01T02:52:01.000Z</time>
      </trkpt>
      <trkpt lat="42.65064" lon="0.646295">
        <ele>2955.8</ele>
        <time>1970-01-01T02:52:02.000Z</time>
      </trkpt>
      <trkpt lat="42.65064" lon="0.646295">
        <ele>2955.8</ele>
        <time>1970-01-01T02:52:03.000Z</time>
      </trkpt>
      <trkpt lat="42.65064" lon="0.646295">
        <ele>2955.8</ele>
        <time>1970-01-01T02:52:04.000Z</time>
      </trkpt>
      <trkpt lat="42.65064" lon="0.646295">
        <ele>2955.8</ele>
        <time>1970-01-01T02:52:05.000Z</time>
      </trkpt>
      <trkpt lat="42.65064" lon="0.646295">
        <ele>2955.8</ele>
        <time>1970-01-01T02:52:06.000Z</time>
      </trkpt>
      <trkpt lat="42.65064" lon="0.646295">
        <ele>2955.8</ele>
        <time>1970-01-01T02:52:07.000Z</time>
      </trkpt>
      <trkpt lat="42.65064" lon="0.646295">
        <ele>2955.8</ele>
        <time>1970-01-01T02:52:08.000Z</time>
      </trkpt>
      <trkpt lat="42.65064" lon="0.646295">
        <ele>2955.8</ele>
        <time>1970-01-01T02:52:09.000Z</time>
      </trkpt>
      <trkpt lat="42.65064" lon="0.646295">
        <ele>2955.8</ele>
        <time>1970-01-01T02:52:10.000Z</time>
      </trkpt>
      <trkpt lat="42.65064" lon="0.646295">
        <ele>2955.8</ele>
        <time>1970-01-01T02:52:11.000Z</time>
      </trkpt>
      <trkpt lat="42.65064" lon="0.646295">
        <ele>2955.8</ele>
        <time>1970-01-01T02:52:12.000Z</time>
      </trkpt>
      <trkpt lat="42.65064" lon="0.646295">
        <ele>2955.8</ele>
        <time>1970-01-01T02:52:13.000Z</time>
      </trkpt>
      <trkpt lat="42.65064" lon="0.646295">
        <ele>2955.8</ele>
        <time>1970-01-01T02:52:14.000Z</time>
      </trkpt>
      <trkpt lat="42.65064" lon="0.646295">
        <ele>2955.8</ele>
        <time>1970-01-01T02:52:15.000Z</time>
      </trkpt>
      <trkpt lat="42.65064" lon="0.646295">
        <ele>2955.8</ele>
        <time>1970-01-01T02:52:16.000Z</time>
      </trkpt>
      <trkpt lat="42.65064" lon="0.646295">
        <ele>2955.8</ele>
        <time>1970-01-01T02:52:17.000Z</time>
      </trkpt>
      <trkpt lat="42.65064" lon="0.646295">
        <ele>2955.8</ele>
        <time>1970-01-01T02:52:18.000Z</time>
      </trkpt>
      <trkpt lat="42.650641" lon="0.646295">
        <ele>2955.9</ele>
        <time>1970-01-01T02:52:19.000Z</time>
      </trkpt>
      <trkpt lat="42.650641" lon="0.646296">
        <ele>2955.9</ele>
        <time>1970-01-01T02:52:20.000Z</time>
      </trkpt>
      <trkpt lat="42.650641" lon="0.646296">
        <ele>2955.9</ele>
        <time>1970-01-01T02:52:21.000Z</time>
      </trkpt>
      <trkpt lat="42.650641" lon="0.646296">
        <ele>2955.9</ele>
        <time>1970-01-01T02:52:22.000Z</time>
      </trkpt>
      <trkpt lat="42.650641" lon="0.646296">
        <ele>2955.9</ele>
        <time>1970-01-01T02:52:23.000Z</time>
      </trkpt>
      <trkpt lat="42.650641" lon="0.646296">
        <ele>2955.9</ele>
        <time>1970-01-01T02:52:24.000Z</time>
      </trkpt>
      <trkpt lat="42.650641" lon="0.646299">
        <ele>2955.9</ele>
        <time>1970-01-01T02:52:25.000Z</time>
      </trkpt>
      <trkpt lat="42.650641" lon="0.646302">
        <ele>2956</ele>
        <time>1970-01-01T02:52:26.000Z</time>
      </trkpt>
      <trkpt lat="42.650641" lon="0.646305">
        <ele>2956</ele>
        <time>1970-01-01T02:52:27.000Z</time>
      </trkpt>
      <trkpt lat="42.650642" lon="0.646306">
        <ele>2956.1</ele>
        <time>1970-01-01T02:52:28.000Z</time>
      </trkpt>
      <trkpt lat="42.650643" lon="0.646307">
        <ele>2956.1</ele>
        <time>1970-01-01T02:52:29.000Z</time>
      </trkpt>
      <trkpt lat="42.650643" lon="0.646307">
        <ele>2956.1</ele>
        <time>1970-01-01T02:52:30.000Z</time>
      </trkpt>
      <trkpt lat="42.650643" lon="0.646306">
        <ele>2956.1</ele>
        <time>1970-01-01T02:52:31.000Z</time>
      </trkpt>
      <trkpt lat="42.650644" lon="0.646306">
        <ele>2956.1</ele>
        <time>1970-01-01T02:52:32.000Z</time>
      </trkpt>
      <trkpt lat="42.650644" lon="0.646306">
        <ele>2956.1</ele>
        <time>1970-01-01T02:52:33.000Z</time>
      </trkpt>
      <trkpt lat="42.650644" lon="0.646306">
        <ele>2956.1</ele>
        <time>1970-01-01T02:52:34.000Z</time>
      </trkpt>
      <trkpt lat="42.650644" lon="0.646306">
        <ele>2956.1</ele>
        <time>1970-01-01T02:52:35.000Z</time>
      </trkpt>
      <trkpt lat="42.650644" lon="0.646306">
        <ele>2956.1</ele>
        <time>1970-01-01T02:52:36.000Z</time>
      </trkpt>
      <trkpt lat="42.650644" lon="0.646306">
        <ele>2956.1</ele>
        <time>1970-01-01T02:52:37.000Z</time>
      </trkpt>
      <trkpt lat="42.650644" lon="0.646306">
        <ele>2956.1</ele>
        <time>1970-01-01T02:52:38.000Z</time>
      </trkpt>
      <trkpt lat="42.650644" lon="0.646306">
        <ele>2956.1</ele>
        <time>1970-01-01T02:52:39.000Z</time>
      </trkpt>
      <trkpt lat="42.650644" lon="0.646306">
        <ele>2956.1</ele>
        <time>1970-01-01T02:52:40.000Z</time>
      </trkpt>
      <trkpt lat="42.650644" lon="0.646306">
        <ele>2956.1</ele>
        <time>1970-01-01T02:52:41.000Z</time>
      </trkpt>
      <trkpt lat="42.650644" lon="0.646306">
        <ele>2956.1</ele>
        <time>1970-01-01T02:52:42.000Z</time>
      </trkpt>
      <trkpt lat="42.650644" lon="0.646306">
        <ele>2956.1</ele>
        <time>1970-01-01T02:52:43.000Z</time>
      </trkpt>
      <trkpt lat="42.650644" lon="0.646306">
        <ele>2956.1</ele>
        <time>1970-01-01T02:52:44.000Z</time>
      </trkpt>
      <trkpt lat="42.650644" lon="0.646306">
        <ele>2956.1</ele>
        <time>1970-01-01T02:52:45.000Z</time>
      </trkpt>
      <trkpt lat="42.650644" lon="0.646306">
        <ele>2956.1</ele>
        <time>1970-01-01T02:52:46.000Z</time>
      </trkpt>
      <trkpt lat="42.650644" lon="0.646306">
        <ele>2956.1</ele>
        <time>1970-01-01T02:52:47.000Z</time>
      </trkpt>
      <trkpt lat="42.650644" lon="0.646306">
        <ele>2956.1</ele>
        <time>1970-01-01T02:52:48.000Z</time>
      </trkpt>
      <trkpt lat="42.650644" lon="0.646306">
        <ele>2956.1</ele>
        <time>1970-01-01T02:52:49.000Z</time>
      </trkpt>
      <trkpt lat="42.650644" lon="0.646306">
        <ele>2956.1</ele>
        <time>1970-01-01T02:52:50.000Z</time>
      </trkpt>
      <trkpt lat="42.650644" lon="0.646306">
        <ele>2956.1</ele>
        <time>1970-01-01T02:52:51.000Z</time>
      </trkpt>
      <trkpt lat="42.650644" lon="0.646306">
        <ele>2956.1</ele>
        <time>1970-01-01T02:52:52.000Z</time>
      </trkpt>
      <trkpt lat="42.650644" lon="0.646306">
        <ele>2956.1</ele>
        <time>1970-01-01T02:52:53.000Z</time>
      </trkpt>
      <trkpt lat="42.650644" lon="0.646306">
        <ele>2956.1</ele>
        <time>1970-01-01T02:52:54.000Z</time>
      </trkpt>
      <trkpt lat="42.650644" lon="0.646306">
        <ele>2956.1</ele>
        <time>1970-01-01T02:52:55.000Z</time>
      </trkpt>
      <trkpt lat="42.650644" lon="0.646306">
        <ele>2956.1</ele>
        <time>1970-01-01T02:52:56.000Z</time>
      </trkpt>
      <trkpt lat="42.650644" lon="0.646306">
        <ele>2956.1</ele>
        <time>1970-01-01T02:52:57.000Z</time>
      </trkpt>
      <trkpt lat="42.650644" lon="0.646306">
        <ele>2956.1</ele>
        <time>1970-01-01T02:52:58.000Z</time>
      </trkpt>
      <trkpt lat="42.650645" lon="0.646306">
        <ele>2956.1</ele>
        <time>1970-01-01T02:52:59.000Z</time>
      </trkpt>
      <trkpt lat="42.650645" lon="0.646307">
        <ele>2956.2</ele>
        <time>1970-01-01T02:53:00.000Z</time>
      </trkpt>
      <trkpt lat="42.650645" lon="0.646307">
        <ele>2956.2</ele>
        <time>1970-01-01T02:53:01.000Z</time>
      </trkpt>
      <trkpt lat="42.650645" lon="0.646307">
        <ele>2956.2</ele>
        <time>1970-01-01T02:53:02.000Z</time>
      </trkpt>
      <trkpt lat="42.650645" lon="0.646307">
        <ele>2956.2</ele>
        <time>1970-01-01T02:53:03.000Z</time>
      </trkpt>
      <trkpt lat="42.650645" lon="0.646307">
        <ele>2956.2</ele>
        <time>1970-01-01T02:53:04.000Z</time>
      </trkpt>
      <trkpt lat="42.650645" lon="0.646307">
        <ele>2956.2</ele>
        <time>1970-01-01T02:53:05.000Z</time>
      </trkpt>
      <trkpt lat="42.650645" lon="0.646307">
        <ele>2956.2</ele>
        <time>1970-01-01T02:53:06.000Z</time>
      </trkpt>
      <trkpt lat="42.650645" lon="0.646307">
        <ele>2956.2</ele>
        <time>1970-01-01T02:53:07.000Z</time>
      </trkpt>
      <trkpt lat="42.650645" lon="0.646307">
        <ele>2956.2</ele>
        <time>1970-01-01T02:53:08.000Z</time>
      </trkpt>
      <trkpt lat="42.650645" lon="0.646307">
        <ele>2956.2</ele>
        <time>1970-01-01T02:53:09.000Z</time>
      </trkpt>
      <trkpt lat="42.650645" lon="0.646307">
        <ele>2956.2</ele>
        <time>1970-01-01T02:53:10.000Z</time>
      </trkpt>
      <trkpt lat="42.650645" lon="0.646307">
        <ele>2956.2</ele>
        <time>1970-01-01T02:53:11.000Z</time>
      </trkpt>
      <trkpt lat="42.650645" lon="0.646307">
        <ele>2956.2</ele>
        <time>1970-01-01T02:53:12.000Z</time>
      </trkpt>
      <trkpt lat="42.650645" lon="0.646307">
        <ele>2956.2</ele>
        <time>1970-01-01T02:53:13.000Z</time>
      </trkpt>
      <trkpt lat="42.650645" lon="0.646307">
        <ele>2956.2</ele>
        <time>1970-01-01T02:53:14.000Z</time>
      </trkpt>
      <trkpt lat="42.650645" lon="0.646307">
        <ele>2956.2</ele>
        <time>1970-01-01T02:53:15.000Z</time>
      </trkpt>
      <trkpt lat="42.650645" lon="0.646307">
        <ele>2956.2</ele>
        <time>1970-01-01T02:53:16.000Z</time>
      </trkpt>
      <trkpt lat="42.650645" lon="0.646307">
        <ele>2956.2</ele>
        <time>1970-01-01T02:53:17.000Z</time>
      </trkpt>
      <trkpt lat="42.650645" lon="0.646307">
        <ele>2956.2</ele>
        <time>1970-01-01T02:53:18.000Z</time>
      </trkpt>
      <trkpt lat="42.650645" lon="0.646307">
        <ele>2956.2</ele>
        <time>1970-01-01T02:53:19.000Z</time>
      </trkpt>
      <trkpt lat="42.650645" lon="0.646307">
        <ele>2956.2</ele>
        <time>1970-01-01T02:53:20.000Z</time>
      </trkpt>
      <trkpt lat="42.650645" lon="0.646307">
        <ele>2956.2</ele>
        <time>1970-01-01T02:53:21.000Z</time>
      </trkpt>
      <trkpt lat="42.650645" lon="0.646307">
        <ele>2956.2</ele>
        <time>1970-01-01T02:53:22.000Z</time>
      </trkpt>
      <trkpt lat="42.650645" lon="0.646307">
        <ele>2956.2</ele>
        <time>1970-01-01T02:53:23.000Z</time>
      </trkpt>
      <trkpt lat="42.650645" lon="0.646307">
        <ele>2956.2</ele>
        <time>1970-01-01T02:53:24.000Z</time>
      </trkpt>
      <trkpt lat="42.650645" lon="0.646307">
        <ele>2956.2</ele>
        <time>1970-01-01T02:53:25.000Z</time>
      </trkpt>
      <trkpt lat="42.650646" lon="0.646307">
        <ele>2956.2</ele>
        <time>1970-01-01T02:53:26.000Z</time>
      </trkpt>
      <trkpt lat="42.650646" lon="0.646308">
        <ele>2956.2</ele>
        <time>1970-01-01T02:53:27.000Z</time>
      </trkpt>
      <trkpt lat="42.650646" lon="0.646308">
        <ele>2956.2</ele>
        <time>1970-01-01T02:53:28.000Z</time>
      </trkpt>
      <trkpt lat="42.650646" lon="0.646308">
        <ele>2956.2</ele>
        <time>1970-01-01T02:53:29.000Z</time>
      </trkpt>
      <trkpt lat="42.650646" lon="0.646308">
        <ele>2956.2</ele>
        <time>1970-01-01T02:53:30.000Z</time>
      </trkpt>
      <trkpt lat="42.650646" lon="0.646308">
        <ele>2956.2</ele>
        <time>1970-01-01T02:53:31.000Z</time>
      </trkpt>
      <trkpt lat="42.650646" lon="0.646308">
        <ele>2956.2</ele>
        <time>1970-01-01T02:53:32.000Z</time>
      </trkpt>
      <trkpt lat="42.650646" lon="0.646308">
        <ele>2956.2</ele>
        <time>1970-01-01T02:53:33.000Z</time>
      </trkpt>
      <trkpt lat="42.650646" lon="0.646308">
        <ele>2956.2</ele>
        <time>1970-01-01T02:53:34.000Z</time>
      </trkpt>
      <trkpt lat="42.650646" lon="0.646308">
        <ele>2956.2</ele>
        <time>1970-01-01T02:53:35.000Z</time>
      </trkpt>
      <trkpt lat="42.650646" lon="0.646308">
        <ele>2956.2</ele>
        <time>1970-01-01T02:53:36.000Z</time>
      </trkpt>
      <trkpt lat="42.650646" lon="0.646308">
        <ele>2956.2</ele>
        <time>1970-01-01T02:53:37.000Z</time>
      </trkpt>
      <trkpt lat="42.650646" lon="0.646308">
        <ele>2956.2</ele>
        <time>1970-01-01T02:53:38.000Z</time>
      </trkpt>
      <trkpt lat="42.650646" lon="0.646308">
        <ele>2956.2</ele>
        <time>1970-01-01T02:53:39.000Z</time>
      </trkpt>
      <trkpt lat="42.650646" lon="0.646308">
        <ele>2956.2</ele>
        <time>1970-01-01T02:53:40.000Z</time>
      </trkpt>
      <trkpt lat="42.650646" lon="0.646308">
        <ele>2956.2</ele>
        <time>1970-01-01T02:53:41.000Z</time>
      </trkpt>
      <trkpt lat="42.650646" lon="0.646308">
        <ele>2956.2</ele>
        <time>1970-01-01T02:53:42.000Z</time>
      </trkpt>
      <trkpt lat="42.650646" lon="0.646308">
        <ele>2956.2</ele>
        <time>1970-01-01T02:53:43.000Z</time>
      </trkpt>
      <trkpt lat="42.650646" lon="0.646308">
        <ele>2956.2</ele>
        <time>1970-01-01T02:53:44.000Z</time>
      </trkpt>
      <trkpt lat="42.650646" lon="0.646308">
        <ele>2956.2</ele>
        <time>1970-01-01T02:53:45.000Z</time>
      </trkpt>
      <trkpt lat="42.650647" lon="0.646312">
        <ele>2956.3</ele>
        <time>1970-01-01T02:53:46.000Z</time>
      </trkpt>
      <trkpt lat="42.650646" lon="0.646314">
        <ele>2956.3</ele>
        <time>1970-01-01T02:53:47.000Z</time>
      </trkpt>
      <trkpt lat="42.650646" lon="0.646314">
        <ele>2956.3</ele>
        <time>1970-01-01T02:53:48.000Z</time>
      </trkpt>
      <trkpt lat="42.650648" lon="0.646312">
        <ele>2956.4</ele>
        <time>1970-01-01T02:53:49.000Z</time>
      </trkpt>
      <trkpt lat="42.650651" lon="0.646311">
        <ele>2956.4</ele>
        <time>1970-01-01T02:53:50.000Z</time>
      </trkpt>
      <trkpt lat="42.650653" lon="0.646309">
        <ele>2956.5</ele>
        <time>1970-01-01T02:53:51.000Z</time>
      </trkpt>
      <trkpt lat="42.650654" lon="0.64631">
        <ele>2956.5</ele>
        <time>1970-01-01T02:53:52.000Z</time>
      </trkpt>
      <trkpt lat="42.650654" lon="0.646309">
        <ele>2956.5</ele>
        <time>1970-01-01T02:53:53.000Z</time>
      </trkpt>
      <trkpt lat="42.650654" lon="0.64631">
        <ele>2956.6</ele>
        <time>1970-01-01T02:53:54.000Z</time>
      </trkpt>
      <trkpt lat="42.650654" lon="0.64631">
        <ele>2956.6</ele>
        <time>1970-01-01T02:53:55.000Z</time>
      </trkpt>
      <trkpt lat="42.650654" lon="0.64631">
        <ele>2956.6</ele>
        <time>1970-01-01T02:53:56.000Z</time>
      </trkpt>
      <trkpt lat="42.650653" lon="0.646311">
        <ele>2956.6</ele>
        <time>1970-01-01T02:53:58.000Z</time>
      </trkpt>
      <trkpt lat="42.650653" lon="0.646311">
        <ele>2956.6</ele>
        <time>1970-01-01T02:53:59.000Z</time>
      </trkpt>
      <trkpt lat="42.650653" lon="0.646311">
        <ele>2956.6</ele>
        <time>1970-01-01T02:54:00.000Z</time>
      </trkpt>
      <trkpt lat="42.650653" lon="0.646311">
        <ele>2956.6</ele>
        <time>1970-01-01T02:54:01.000Z</time>
      </trkpt>
      <trkpt lat="42.650652" lon="0.646312">
        <ele>2956.6</ele>
        <time>1970-01-01T02:54:02.000Z</time>
      </trkpt>
      <trkpt lat="42.650652" lon="0.646312">
        <ele>2956.6</ele>
        <time>1970-01-01T02:54:03.000Z</time>
      </trkpt>
      <trkpt lat="42.650652" lon="0.646312">
        <ele>2956.6</ele>
        <time>1970-01-01T02:54:04.000Z</time>
      </trkpt>
      <trkpt lat="42.650652" lon="0.646312">
        <ele>2956.6</ele>
        <time>1970-01-01T02:54:05.000Z</time>
      </trkpt>
      <trkpt lat="42.650652" lon="0.646312">
        <ele>2956.6</ele>
        <time>1970-01-01T02:54:06.000Z</time>
      </trkpt>
      <trkpt lat="42.650652" lon="0.646312">
        <ele>2956.6</ele>
        <time>1970-01-01T02:54:07.000Z</time>
      </trkpt>
      <trkpt lat="42.650653" lon="0.646311">
        <ele>2956.6</ele>
        <time>1970-01-01T02:54:08.000Z</time>
      </trkpt>
      <trkpt lat="42.650653" lon="0.646311">
        <ele>2956.6</ele>
        <time>1970-01-01T02:54:09.000Z</time>
      </trkpt>
      <trkpt lat="42.650653" lon="0.646311">
        <ele>2956.6</ele>
        <time>1970-01-01T02:54:10.000Z</time>
      </trkpt>
      <trkpt lat="42.650653" lon="0.646312">
        <ele>2956.7</ele>
        <time>1970-01-01T02:54:11.000Z</time>
      </trkpt>
      <trkpt lat="42.650653" lon="0.646312">
        <ele>2956.7</ele>
        <time>1970-01-01T02:54:12.000Z</time>
      </trkpt>
      <trkpt lat="42.650652" lon="0.646312">
        <ele>2956.7</ele>
        <time>1970-01-01T02:54:13.000Z</time>
      </trkpt>
      <trkpt lat="42.650652" lon="0.646312">
        <ele>2956.7</ele>
        <time>1970-01-01T02:54:14.000Z</time>
      </trkpt>
      <trkpt lat="42.650652" lon="0.646313">
        <ele>2956.7</ele>
        <time>1970-01-01T02:54:15.000Z</time>
      </trkpt>
      <trkpt lat="42.650652" lon="0.646313">
        <ele>2956.7</ele>
        <time>1970-01-01T02:54:16.000Z</time>
      </trkpt>
      <trkpt lat="42.650652" lon="0.646312">
        <ele>2956.7</ele>
        <time>1970-01-01T02:54:17.000Z</time>
      </trkpt>
      <trkpt lat="42.650652" lon="0.646312">
        <ele>2956.7</ele>
        <time>1970-01-01T02:54:18.000Z</time>
      </trkpt>
      <trkpt lat="42.650652" lon="0.646308">
        <ele>2956.8</ele>
        <time>1970-01-01T02:54:19.000Z</time>
      </trkpt>
      <trkpt lat="42.650653" lon="0.64631">
        <ele>2956.8</ele>
        <time>1970-01-01T02:54:20.000Z</time>
      </trkpt>
      <trkpt lat="42.650653" lon="0.64631">
        <ele>2956.8</ele>
        <time>1970-01-01T02:54:21.000Z</time>
      </trkpt>
      <trkpt lat="42.65065" lon="0.646311">
        <ele>2956.9</ele>
        <time>1970-01-01T02:54:23.000Z</time>
      </trkpt>
      <trkpt lat="42.650647" lon="0.646308">
        <ele>2957</ele>
        <time>1970-01-01T02:54:24.000Z</time>
      </trkpt>
      <trkpt lat="42.650644" lon="0.646302">
        <ele>2957.1</ele>
        <time>1970-01-01T02:54:25.000Z</time>
      </trkpt>
      <trkpt lat="42.650643" lon="0.646298">
        <ele>2957.2</ele>
        <time>1970-01-01T02:54:26.000Z</time>
      </trkpt>
      <trkpt lat="42.650643" lon="0.646295">
        <ele>2957.2</ele>
        <time>1970-01-01T02:54:27.000Z</time>
      </trkpt>
      <trkpt lat="42.650642" lon="0.646287">
        <ele>2957.4</ele>
        <time>1970-01-01T02:54:29.000Z</time>
      </trkpt>
      <trkpt lat="42.65064" lon="0.646282">
        <ele>2957.5</ele>
        <time>1970-01-01T02:54:30.000Z</time>
      </trkpt>
      <trkpt lat="42.650639" lon="0.646274">
        <ele>2957.6</ele>
        <time>1970-01-01T02:54:31.000Z</time>
      </trkpt>
      <trkpt lat="42.650638" lon="0.646264">
        <ele>2957.8</ele>
        <time>1970-01-01T02:54:33.000Z</time>
      </trkpt>
      <trkpt lat="42.650638" lon="0.646255">
        <ele>2957.9</ele>
        <time>1970-01-01T02:54:34.000Z</time>
      </trkpt>
      <trkpt lat="42.650638" lon="0.646249">
        <ele>2958</ele>
        <time>1970-01-01T02:54:35.000Z</time>
      </trkpt>
      <trkpt lat="42.650639" lon="0.646239">
        <ele>2958.2</ele>
        <time>1970-01-01T02:54:36.000Z</time>
      </trkpt>
      <trkpt lat="42.650641" lon="0.646229">
        <ele>2958.4</ele>
        <time>1970-01-01T02:54:37.000Z</time>
      </trkpt>
      <trkpt lat="42.650643" lon="0.646221">
        <ele>2958.5</ele>
        <time>1970-01-01T02:54:38.000Z</time>
      </trkpt>
      <trkpt lat="42.650643" lon="0.646206">
        <ele>2958.8</ele>
        <time>1970-01-01T02:54:40.000Z</time>
      </trkpt>
      <trkpt lat="42.650641" lon="0.646191">
        <ele>2959</ele>
        <time>1970-01-01T02:54:41.000Z</time>
      </trkpt>
      <trkpt lat="42.650636" lon="0.646178">
        <ele>2959.1</ele>
        <time>1970-01-01T02:54:42.000Z</time>
      </trkpt>
      <trkpt lat="42.650632" lon="0.646167">
        <ele>2959.2</ele>
        <time>1970-01-01T02:54:43.000Z</time>
      </trkpt>
      <trkpt lat="42.650626" lon="0.646165">
        <ele>2959.2</ele>
        <time>1970-01-01T02:54:44.000Z</time>
      </trkpt>
      <trkpt lat="42.650616" lon="0.646144">
        <ele>2959.4</ele>
        <time>1970-01-01T02:54:46.000Z</time>
      </trkpt>
      <trkpt lat="42.650612" lon="0.646136">
        <ele>2959.5</ele>
        <time>1970-01-01T02:54:47.000Z</time>
      </trkpt>
      <trkpt lat="42.65061" lon="0.646124">
        <ele>2959.6</ele>
        <time>1970-01-01T02:54:48.000Z</time>
      </trkpt>
      <trkpt lat="42.65061" lon="0.646107">
        <ele>2959.7</ele>
        <time>1970-01-01T02:54:50.000Z</time>
      </trkpt>
      <trkpt lat="42.65061" lon="0.646089">
        <ele>2959.8</ele>
        <time>1970-01-01T02:54:51.000Z</time>
      </trkpt>
      <trkpt lat="42.650612" lon="0.646074">
        <ele>2960</ele>
        <time>1970-01-01T02:54:52.000Z</time>
      </trkpt>
      <trkpt lat="42.650614" lon="0.646062">
        <ele>2960.1</ele>
        <time>1970-01-01T02:54:54.000Z</time>
      </trkpt>
      <trkpt lat="42.650618" lon="0.646051">
        <ele>2960.2</ele>
        <time>1970-01-01T02:54:55.000Z</time>
      </trkpt>
      <trkpt lat="42.65062" lon="0.646044">
        <ele>2960.2</ele>
        <time>1970-01-01T02:54:56.000Z</time>
      </trkpt>
      <trkpt lat="42.65062" lon="0.646036">
        <ele>2960.3</ele>
        <time>1970-01-01T02:54:57.000Z</time>
      </trkpt>
      <trkpt lat="42.650617" lon="0.646031">
        <ele>2960.4</ele>
        <time>1970-01-01T02:54:58.000Z</time>
      </trkpt>
      <trkpt lat="42.650612" lon="0.646035">
        <ele>2960.4</ele>
        <time>1970-01-01T02:54:59.000Z</time>
      </trkpt>
      <trkpt lat="42.650609" lon="0.646038">
        <ele>2960.5</ele>
        <time>1970-01-01T02:55:00.000Z</time>
      </trkpt>
      <trkpt lat="42.650603" lon="0.646042">
        <ele>2960.6</ele>
        <time>1970-01-01T02:55:01.000Z</time>
      </trkpt>
      <trkpt lat="42.650598" lon="0.646043">
        <ele>2960.6</ele>
        <time>1970-01-01T02:55:02.000Z</time>
      </trkpt>
      <trkpt lat="42.650593" lon="0.646044">
        <ele>2960.7</ele>
        <time>1970-01-01T02:55:03.000Z</time>
      </trkpt>
      <trkpt lat="42.650588" lon="0.646044">
        <ele>2960.7</ele>
        <time>1970-01-01T02:55:04.000Z</time>
      </trkpt>
      <trkpt lat="42.650584" lon="0.646045">
        <ele>2960.8</ele>
        <time>1970-01-01T02:55:05.000Z</time>
      </trkpt>
      <trkpt lat="42.650576" lon="0.646041">
        <ele>2960.9</ele>
        <time>1970-01-01T02:55:06.000Z</time>
      </trkpt>
      <trkpt lat="42.650569" lon="0.646037">
        <ele>2961</ele>
        <time>1970-01-01T02:55:07.000Z</time>
      </trkpt>
      <trkpt lat="42.650556" lon="0.646033">
        <ele>2961.2</ele>
        <time>1970-01-01T02:55:09.000Z</time>
      </trkpt>
      <trkpt lat="42.650544" lon="0.646033">
        <ele>2961.3</ele>
        <time>1970-01-01T02:55:10.000Z</time>
      </trkpt>
      <trkpt lat="42.650532" lon="0.646031">
        <ele>2961.5</ele>
        <time>1970-01-01T02:55:12.000Z</time>
      </trkpt>
      <trkpt lat="42.650523" lon="0.646033">
        <ele>2961.6</ele>
        <time>1970-01-01T02:55:13.000Z</time>
      </trkpt>
      <trkpt lat="42.650517" lon="0.646034">
        <ele>2961.7</ele>
        <time>1970-01-01T02:55:14.000Z</time>
      </trkpt>
      <trkpt lat="42.650507" lon="0.646035">
        <ele>2961.8</ele>
        <time>1970-01-01T02:55:16.000Z</time>
      </trkpt>
      <trkpt lat="42.650501" lon="0.646033">
        <ele>2961.9</ele>
        <time>1970-01-01T02:55:17.000Z</time>
      </trkpt>
      <trkpt lat="42.650497" lon="0.646033">
        <ele>2962</ele>
        <time>1970-01-01T02:55:18.000Z</time>
      </trkpt>
      <trkpt lat="42.650495" lon="0.646035">
        <ele>2962</ele>
        <time>1970-01-01T02:55:19.000Z</time>
      </trkpt>
      <trkpt lat="42.65049" lon="0.646036">
        <ele>2962.1</ele>
        <time>1970-01-01T02:55:20.000Z</time>
      </trkpt>
      <trkpt lat="42.650486" lon="0.646037">
        <ele>2962.1</ele>
        <time>1970-01-01T02:55:21.000Z</time>
      </trkpt>
      <trkpt lat="42.650482" lon="0.646041">
        <ele>2962.2</ele>
        <time>1970-01-01T02:55:22.000Z</time>
      </trkpt>
      <trkpt lat="42.650476" lon="0.646044">
        <ele>2962.3</ele>
        <time>1970-01-01T02:55:24.000Z</time>
      </trkpt>
      <trkpt lat="42.65047" lon="0.646046">
        <ele>2962.4</ele>
        <time>1970-01-01T02:55:25.000Z</time>
      </trkpt>
      <trkpt lat="42.650463" lon="0.646046">
        <ele>2962.5</ele>
        <time>1970-01-01T02:55:26.000Z</time>
      </trkpt>
      <trkpt lat="42.650459" lon="0.646046">
        <ele>2962.5</ele>
        <time>1970-01-01T02:55:27.000Z</time>
      </trkpt>
      <trkpt lat="42.650455" lon="0.646045">
        <ele>2962.6</ele>
        <time>1970-01-01T02:55:28.000Z</time>
      </trkpt>
      <trkpt lat="42.650451" lon="0.646044">
        <ele>2962.6</ele>
        <time>1970-01-01T02:55:29.000Z</time>
      </trkpt>
      <trkpt lat="42.650447" lon="0.646044">
        <ele>2962.7</ele>
        <time>1970-01-01T02:55:30.000Z</time>
      </trkpt>
      <trkpt lat="42.650443" lon="0.646045">
        <ele>2962.7</ele>
        <time>1970-01-01T02:55:32.000Z</time>
      </trkpt>
      <trkpt lat="42.650441" lon="0.646045">
        <ele>2962.8</ele>
        <time>1970-01-01T02:55:33.000Z</time>
      </trkpt>
      <trkpt lat="42.650441" lon="0.646045">
        <ele>2962.8</ele>
        <time>1970-01-01T02:55:34.000Z</time>
      </trkpt>
      <trkpt lat="42.650442" lon="0.646046">
        <ele>2962.8</ele>
        <time>1970-01-01T02:55:35.000Z</time>
      </trkpt>
      <trkpt lat="42.650441" lon="0.646044">
        <ele>2962.8</ele>
        <time>1970-01-01T02:55:36.000Z</time>
      </trkpt>
      <trkpt lat="42.65044" lon="0.646043">
        <ele>2962.8</ele>
        <time>1970-01-01T02:55:37.000Z</time>
      </trkpt>
      <trkpt lat="42.650437" lon="0.646042">
        <ele>2962.9</ele>
        <time>1970-01-01T02:55:38.000Z</time>
      </trkpt>
      <trkpt lat="42.650434" lon="0.646042">
        <ele>2962.9</ele>
        <time>1970-01-01T02:55:39.000Z</time>
      </trkpt>
      <trkpt lat="42.65043" lon="0.64604">
        <ele>2963</ele>
        <time>1970-01-01T02:55:40.000Z</time>
      </trkpt>
      <trkpt lat="42.650428" lon="0.646041">
        <ele>2963</ele>
        <time>1970-01-01T02:55:41.000Z</time>
      </trkpt>
      <trkpt lat="42.650427" lon="0.646042">
        <ele>2963</ele>
        <time>1970-01-01T02:55:42.000Z</time>
      </trkpt>
      <trkpt lat="42.650425" lon="0.646043">
        <ele>2963</ele>
        <time>1970-01-01T02:55:43.000Z</time>
      </trkpt>
      <trkpt lat="42.650424" lon="0.646044">
        <ele>2963</ele>
        <time>1970-01-01T02:55:44.000Z</time>
      </trkpt>
      <trkpt lat="42.650423" lon="0.646045">
        <ele>2963.1</ele>
        <time>1970-01-01T02:55:45.000Z</time>
      </trkpt>
      <trkpt lat="42.650423" lon="0.646045">
        <ele>2963.1</ele>
        <time>1970-01-01T02:55:46.000Z</time>
      </trkpt>
      <trkpt lat="42.65042" lon="0.646046">
        <ele>2963.1</ele>
        <time>1970-01-01T02:55:48.000Z</time>
      </trkpt>
      <trkpt lat="42.650417" lon="0.646048">
        <ele>2963.1</ele>
        <time>1970-01-01T02:55:49.000Z</time>
      </trkpt>
      <trkpt lat="42.650416" lon="0.64605">
        <ele>2963.2</ele>
        <time>1970-01-01T02:55:50.000Z</time>
      </trkpt>
      <trkpt lat="42.650412" lon="0.646054">
        <ele>2963.2</ele>
        <time>1970-01-01T02:55:51.000Z</time>
      </trkpt>
      <trkpt lat="42.65041" lon="0.646058">
        <ele>2963.3</ele>
        <time>1970-01-01T02:55:52.000Z</time>
      </trkpt>
      <trkpt lat="42.650406" lon="0.646062">
        <ele>2963.3</ele>
        <time>1970-01-01T02:55:53.000Z</time>
      </trkpt>
      <trkpt lat="42.650399" lon="0.64607">
        <ele>2963.5</ele>
        <time>1970-01-01T02:55:54.000Z</time>
      </trkpt>
      <trkpt lat="42.650394" lon="0.646077">
        <ele>2963.5</ele>
        <time>1970-01-01T02:55:55.000Z</time>
      </trkpt>
      <trkpt lat="42.650391" lon="0.646086">
        <ele>2963.6</ele>
        <time>1970-01-01T02:55:56.000Z</time>
      </trkpt>
      <trkpt lat="42.650385" lon="0.646093">
        <ele>2963.7</ele>
        <time>1970-01-01T02:55:58.000Z</time>
      </trkpt>
      <trkpt lat="42.65038" lon="0.646093">
        <ele>2963.8</ele>
        <time>1970-01-01T02:55:59.000Z</time>
      </trkpt>
      <trkpt lat="42.650379" lon="0.64609">
        <ele>2963.8</ele>
        <time>1970-01-01T02:56:00.000Z</time>
      </trkpt>
      <trkpt lat="42.650379" lon="0.646088">
        <ele>2963.9</ele>
        <time>1970-01-01T02:56:01.000Z</time>
      </trkpt>
      <trkpt lat="42.650376" lon="0.646089">
        <ele>2963.9</ele>
        <time>1970-01-01T02:56:03.000Z</time>
      </trkpt>
      <trkpt lat="42.650373" lon="0.646091">
        <ele>2963.9</ele>
        <time>1970-01-01T02:56:04.000Z</time>
      </trkpt>
      <trkpt lat="42.650371" lon="0.646094">
        <ele>2964</ele>
        <time>1970-01-01T02:56:05.000Z</time>
      </trkpt>
      <trkpt lat="42.650364" lon="0.646096">
        <ele>2964.1</ele>
        <time>1970-01-01T02:56:06.000Z</time>
      </trkpt>
      <trkpt lat="42.650352" lon="0.646101">
        <ele>2964.2</ele>
        <time>1970-01-01T02:56:07.000Z</time>
      </trkpt>
      <trkpt lat="42.650335" lon="0.646106">
        <ele>2964.4</ele>
        <time>1970-01-01T02:56:09.000Z</time>
      </trkpt>
      <trkpt lat="42.650323" lon="0.646103">
        <ele>2964.6</ele>
        <time>1970-01-01T02:56:10.000Z</time>
      </trkpt>
      <trkpt lat="42.650312" lon="0.646097">
        <ele>2964.7</ele>
        <time>1970-01-01T02:56:11.000Z</time>
      </trkpt>
      <trkpt lat="42.650303" lon="0.646091">
        <ele>2964.8</ele>
        <time>1970-01-01T02:56:12.000Z</time>
      </trkpt>
      <trkpt lat="42.650291" lon="0.646086">
        <ele>2965</ele>
        <time>1970-01-01T02:56:13.000Z</time>
      </trkpt>
      <trkpt lat="42.650277" lon="0.646082">
        <ele>2965.2</ele>
        <time>1970-01-01T02:56:15.000Z</time>
      </trkpt>
      <trkpt lat="42.650269" lon="0.64608">
        <ele>2965.3</ele>
        <time>1970-01-01T02:56:16.000Z</time>
      </trkpt>
      <trkpt lat="42.650258" lon="0.646078">
        <ele>2965.4</ele>
        <time>1970-01-01T02:56:18.000Z</time>
      </trkpt>
      <trkpt lat="42.650251" lon="0.646077">
        <ele>2965.5</ele>
        <time>1970-01-01T02:56:19.000Z</time>
      </trkpt>
      <trkpt lat="42.650245" lon="0.646076">
        <ele>2965.6</ele>
        <time>1970-01-01T02:56:20.000Z</time>
      </trkpt>
      <trkpt lat="42.650237" lon="0.646075">
        <ele>2965.7</ele>
        <time>1970-01-01T02:56:21.000Z</time>
      </trkpt>
      <trkpt lat="42.650231" lon="0.646075">
        <ele>2965.7</ele>
        <time>1970-01-01T02:56:22.000Z</time>
      </trkpt>
      <trkpt lat="42.650222" lon="0.646077">
        <ele>2965.8</ele>
        <time>1970-01-01T02:56:24.000Z</time>
      </trkpt>
      <trkpt lat="42.650218" lon="0.646078">
        <ele>2965.9</ele>
        <time>1970-01-01T02:56:25.000Z</time>
      </trkpt>
      <trkpt lat="42.650214" lon="0.646079">
        <ele>2965.9</ele>
        <time>1970-01-01T02:56:26.000Z</time>
      </trkpt>
      <trkpt lat="42.650208" lon="0.646078">
        <ele>2966</ele>
        <time>1970-01-01T02:56:27.000Z</time>
      </trkpt>
      <trkpt lat="42.650203" lon="0.646077">
        <ele>2966.1</ele>
        <time>1970-01-01T02:56:28.000Z</time>
      </trkpt>
      <trkpt lat="42.650197" lon="0.646077">
        <ele>2966.1</ele>
        <time>1970-01-01T02:56:29.000Z</time>
      </trkpt>
      <trkpt lat="42.650192" lon="0.646077">
        <ele>2966.2</ele>
        <time>1970-01-01T02:56:30.000Z</time>
      </trkpt>
      <trkpt lat="42.650186" lon="0.646076">
        <ele>2966.3</ele>
        <time>1970-01-01T02:56:31.000Z</time>
      </trkpt>
      <trkpt lat="42.65018" lon="0.646075">
        <ele>2966.3</ele>
        <time>1970-01-01T02:56:32.000Z</time>
      </trkpt>
      <trkpt lat="42.650174" lon="0.646075">
        <ele>2966.4</ele>
        <time>1970-01-01T02:56:33.000Z</time>
      </trkpt>
      <trkpt lat="42.65017" lon="0.646074">
        <ele>2966.4</ele>
        <time>1970-01-01T02:56:34.000Z</time>
      </trkpt>
      <trkpt lat="42.650165" lon="0.646074">
        <ele>2966.5</ele>
        <time>1970-01-01T02:56:35.000Z</time>
      </trkpt>
      <trkpt lat="42.65016" lon="0.646074">
        <ele>2966.6</ele>
        <time>1970-01-01T02:56:36.000Z</time>
      </trkpt>
      <trkpt lat="42.650156" lon="0.646073">
        <ele>2966.6</ele>
        <time>1970-01-01T02:56:37.000Z</time>
      </trkpt>
      <trkpt lat="42.650151" lon="0.646074">
        <ele>2966.7</ele>
        <time>1970-01-01T02:56:39.000Z</time>
      </trkpt>
      <trkpt lat="42.650145" lon="0.646076">
        <ele>2966.8</ele>
        <time>1970-01-01T02:56:40.000Z</time>
      </trkpt>
      <trkpt lat="42.65014" lon="0.646079">
        <ele>2966.8</ele>
        <time>1970-01-01T02:56:41.000Z</time>
      </trkpt>
      <trkpt lat="42.650129" lon="0.646082">
        <ele>2967</ele>
        <time>1970-01-01T02:56:43.000Z</time>
      </trkpt>
      <trkpt lat="42.650123" lon="0.646083">
        <ele>2967</ele>
        <time>1970-01-01T02:56:44.000Z</time>
      </trkpt>
      <trkpt lat="42.65012" lon="0.646086">
        <ele>2967.1</ele>
        <time>1970-01-01T02:56:45.000Z</time>
      </trkpt>
      <trkpt lat="42.650119" lon="0.646087">
        <ele>2967.1</ele>
        <time>1970-01-01T02:56:46.000Z</time>
      </trkpt>
      <trkpt lat="42.650122" lon="0.646088">
        <ele>2967.1</ele>
        <time>1970-01-01T02:56:47.000Z</time>
      </trkpt>
      <trkpt lat="42.650124" lon="0.646089">
        <ele>2967.2</ele>
        <time>1970-01-01T02:56:48.000Z</time>
      </trkpt>
      <trkpt lat="42.650126" lon="0.646089">
        <ele>2967.2</ele>
        <time>1970-01-01T02:56:49.000Z</time>
      </trkpt>
      <trkpt lat="42.650128" lon="0.646089">
        <ele>2967.2</ele>
        <time>1970-01-01T02:56:50.000Z</time>
      </trkpt>
      <trkpt lat="42.650129" lon="0.646089">
        <ele>2967.2</ele>
        <time>1970-01-01T02:56:51.000Z</time>
      </trkpt>
      <trkpt lat="42.65013" lon="0.646088">
        <ele>2967.2</ele>
        <time>1970-01-01T02:56:52.000Z</time>
      </trkpt>
      <trkpt lat="42.650131" lon="0.646089">
        <ele>2967.3</ele>
        <time>1970-01-01T02:56:53.000Z</time>
      </trkpt>
      <trkpt lat="42.650132" lon="0.646088">
        <ele>2967.3</ele>
        <time>1970-01-01T02:56:54.000Z</time>
      </trkpt>
      <trkpt lat="42.650133" lon="0.646088">
        <ele>2967.3</ele>
        <time>1970-01-01T02:56:55.000Z</time>
      </trkpt>
      <trkpt lat="42.650133" lon="0.646089">
        <ele>2967.3</ele>
        <time>1970-01-01T02:56:56.000Z</time>
      </trkpt>
      <trkpt lat="42.650132" lon="0.646091">
        <ele>2967.3</ele>
        <time>1970-01-01T02:56:57.000Z</time>
      </trkpt>
      <trkpt lat="42.65013" lon="0.646094">
        <ele>2967.4</ele>
        <time>1970-01-01T02:56:59.000Z</time>
      </trkpt>
      <trkpt lat="42.650125" lon="0.646098">
        <ele>2967.4</ele>
        <time>1970-01-01T02:57:00.000Z</time>
      </trkpt>
      <trkpt lat="42.650122" lon="0.646104">
        <ele>2967.5</ele>
        <time>1970-01-01T02:57:01.000Z</time>
      </trkpt>
      <trkpt lat="42.650122" lon="0.646107">
        <ele>2967.5</ele>
        <time>1970-01-01T02:57:02.000Z</time>
      </trkpt>
      <trkpt lat="42.650121" lon="0.64611">
        <ele>2967.6</ele>
        <time>1970-01-01T02:57:03.000Z</time>
      </trkpt>
      <trkpt lat="42.650119" lon="0.646114">
        <ele>2967.6</ele>
        <time>1970-01-01T02:57:04.000Z</time>
      </trkpt>
      <trkpt lat="42.650117" lon="0.646119">
        <ele>2967.7</ele>
        <time>1970-01-01T02:57:05.000Z</time>
      </trkpt>
      <trkpt lat="42.650116" lon="0.646124">
        <ele>2967.7</ele>
        <time>1970-01-01T02:57:07.000Z</time>
      </trkpt>
      <trkpt lat="42.650115" lon="0.646127">
        <ele>2967.8</ele>
        <time>1970-01-01T02:57:08.000Z</time>
      </trkpt>
      <trkpt lat="42.650114" lon="0.64613">
        <ele>2967.8</ele>
        <time>1970-01-01T02:57:09.000Z</time>
      </trkpt>
      <trkpt lat="42.650113" lon="0.646132">
        <ele>2967.8</ele>
        <time>1970-01-01T02:57:10.000Z</time>
      </trkpt>
      <trkpt lat="42.650113" lon="0.646134">
        <ele>2967.9</ele>
        <time>1970-01-01T02:57:11.000Z</time>
      </trkpt>
      <trkpt lat="42.650113" lon="0.646135">
        <ele>2967.9</ele>
        <time>1970-01-01T02:57:12.000Z</time>
      </trkpt>
      <trkpt lat="42.650113" lon="0.646137">
        <ele>2967.9</ele>
        <time>1970-01-01T02:57:13.000Z</time>
      </trkpt>
      <trkpt lat="42.650113" lon="0.646139">
        <ele>2967.9</ele>
        <time>1970-01-01T02:57:14.000Z</time>
      </trkpt>
      <trkpt lat="42.650114" lon="0.64614">
        <ele>2967.9</ele>
        <time>1970-01-01T02:57:15.000Z</time>
      </trkpt>
      <trkpt lat="42.650114" lon="0.646141">
        <ele>2967.9</ele>
        <time>1970-01-01T02:57:16.000Z</time>
      </trkpt>
      <trkpt lat="42.650114" lon="0.646142">
        <ele>2968</ele>
        <time>1970-01-01T02:57:17.000Z</time>
      </trkpt>
      <trkpt lat="42.650114" lon="0.646143">
        <ele>2968</ele>
        <time>1970-01-01T02:57:18.000Z</time>
      </trkpt>
      <trkpt lat="42.650114" lon="0.646143">
        <ele>2968</ele>
        <time>1970-01-01T02:57:19.000Z</time>
      </trkpt>
      <trkpt lat="42.650114" lon="0.646144">
        <ele>2968</ele>
        <time>1970-01-01T02:57:20.000Z</time>
      </trkpt>
      <trkpt lat="42.650114" lon="0.646145">
        <ele>2968</ele>
        <time>1970-01-01T02:57:21.000Z</time>
      </trkpt>
      <trkpt lat="42.650114" lon="0.646145">
        <ele>2968</ele>
        <time>1970-01-01T02:57:22.000Z</time>
      </trkpt>
      <trkpt lat="42.650114" lon="0.646146">
        <ele>2968</ele>
        <time>1970-01-01T02:57:24.000Z</time>
      </trkpt>
      <trkpt lat="42.650112" lon="0.646145">
        <ele>2968</ele>
        <time>1970-01-01T02:57:25.000Z</time>
      </trkpt>
      <trkpt lat="42.650113" lon="0.646146">
        <ele>2968</ele>
        <time>1970-01-01T02:57:26.000Z</time>
      </trkpt>
      <trkpt lat="42.650113" lon="0.646146">
        <ele>2968</ele>
        <time>1970-01-01T02:57:27.000Z</time>
      </trkpt>
      <trkpt lat="42.650113" lon="0.646146">
        <ele>2968</ele>
        <time>1970-01-01T02:57:28.000Z</time>
      </trkpt>
      <trkpt lat="42.650116" lon="0.646147">
        <ele>2968.1</ele>
        <time>1970-01-01T02:57:29.000Z</time>
      </trkpt>
      <trkpt lat="42.650118" lon="0.646148">
        <ele>2968.1</ele>
        <time>1970-01-01T02:57:30.000Z</time>
      </trkpt>
      <trkpt lat="42.650119" lon="0.646148">
        <ele>2968.1</ele>
        <time>1970-01-01T02:57:31.000Z</time>
      </trkpt>
      <trkpt lat="42.650119" lon="0.646148">
        <ele>2968.1</ele>
        <time>1970-01-01T02:57:32.000Z</time>
      </trkpt>
      <trkpt lat="42.65012" lon="0.646149">
        <ele>2968.2</ele>
        <time>1970-01-01T02:57:33.000Z</time>
      </trkpt>
      <trkpt lat="42.650115" lon="0.64615">
        <ele>2968.2</ele>
        <time>1970-01-01T02:57:34.000Z</time>
      </trkpt>
      <trkpt lat="42.650114" lon="0.646151">
        <ele>2968.3</ele>
        <time>1970-01-01T02:57:35.000Z</time>
      </trkpt>
      <trkpt lat="42.650114" lon="0.646152">
        <ele>2968.3</ele>
        <time>1970-01-01T02:57:36.000Z</time>
      </trkpt>
      <trkpt lat="42.650113" lon="0.646153">
        <ele>2968.3</ele>
        <time>1970-01-01T02:57:37.000Z</time>
      </trkpt>
      <trkpt lat="42.650113" lon="0.646153">
        <ele>2968.3</ele>
        <time>1970-01-01T02:57:38.000Z</time>
      </trkpt>
      <trkpt lat="42.650113" lon="0.646154">
        <ele>2968.3</ele>
        <time>1970-01-01T02:57:39.000Z</time>
      </trkpt>
      <trkpt lat="42.650113" lon="0.646154">
        <ele>2968.3</ele>
        <time>1970-01-01T02:57:40.000Z</time>
      </trkpt>
      <trkpt lat="42.650113" lon="0.646154">
        <ele>2968.3</ele>
        <time>1970-01-01T02:57:41.000Z</time>
      </trkpt>
      <trkpt lat="42.650113" lon="0.646154">
        <ele>2968.3</ele>
        <time>1970-01-01T02:57:42.000Z</time>
      </trkpt>
      <trkpt lat="42.650113" lon="0.646154">
        <ele>2968.3</ele>
        <time>1970-01-01T02:57:43.000Z</time>
      </trkpt>
      <trkpt lat="42.650113" lon="0.646154">
        <ele>2968.3</ele>
        <time>1970-01-01T02:57:44.000Z</time>
      </trkpt>
      <trkpt lat="42.650112" lon="0.646155">
        <ele>2968.3</ele>
        <time>1970-01-01T02:57:45.000Z</time>
      </trkpt>
      <trkpt lat="42.650112" lon="0.646155">
        <ele>2968.3</ele>
        <time>1970-01-01T02:57:46.000Z</time>
      </trkpt>
      <trkpt lat="42.650112" lon="0.646156">
        <ele>2968.3</ele>
        <time>1970-01-01T02:57:47.000Z</time>
      </trkpt>
      <trkpt lat="42.650112" lon="0.646156">
        <ele>2968.3</ele>
        <time>1970-01-01T02:57:48.000Z</time>
      </trkpt>
      <trkpt lat="42.650112" lon="0.646156">
        <ele>2968.3</ele>
        <time>1970-01-01T02:57:49.000Z</time>
      </trkpt>
      <trkpt lat="42.650112" lon="0.646156">
        <ele>2968.3</ele>
        <time>1970-01-01T02:57:50.000Z</time>
      </trkpt>
      <trkpt lat="42.650112" lon="0.646156">
        <ele>2968.3</ele>
        <time>1970-01-01T02:57:51.000Z</time>
      </trkpt>
      <trkpt lat="42.650112" lon="0.646156">
        <ele>2968.3</ele>
        <time>1970-01-01T02:57:52.000Z</time>
      </trkpt>
      <trkpt lat="42.650112" lon="0.646156">
        <ele>2968.3</ele>
        <time>1970-01-01T02:57:53.000Z</time>
      </trkpt>
      <trkpt lat="42.650113" lon="0.646157">
        <ele>2968.3</ele>
        <time>1970-01-01T02:57:54.000Z</time>
      </trkpt>
      <trkpt lat="42.650113" lon="0.646157">
        <ele>2968.3</ele>
        <time>1970-01-01T02:57:55.000Z</time>
      </trkpt>
      <trkpt lat="42.650114" lon="0.646157">
        <ele>2968.4</ele>
        <time>1970-01-01T02:57:56.000Z</time>
      </trkpt>
      <trkpt lat="42.650114" lon="0.646159">
        <ele>2968.4</ele>
        <time>1970-01-01T02:57:57.000Z</time>
      </trkpt>
      <trkpt lat="42.650114" lon="0.646163">
        <ele>2968.4</ele>
        <time>1970-01-01T02:57:59.000Z</time>
      </trkpt>
      <trkpt lat="42.650114" lon="0.646163">
        <ele>2968.4</ele>
        <time>1970-01-01T02:58:00.000Z</time>
      </trkpt>
      <trkpt lat="42.650113" lon="0.646164">
        <ele>2968.5</ele>
        <time>1970-01-01T02:58:01.000Z</time>
      </trkpt>
      <trkpt lat="42.650113" lon="0.646164">
        <ele>2968.5</ele>
        <time>1970-01-01T02:58:02.000Z</time>
      </trkpt>
      <trkpt lat="42.650112" lon="0.646164">
        <ele>2968.5</ele>
        <time>1970-01-01T02:58:03.000Z</time>
      </trkpt>
      <trkpt lat="42.650111" lon="0.646164">
        <ele>2968.5</ele>
        <time>1970-01-01T02:58:04.000Z</time>
      </trkpt>
      <trkpt lat="42.650111" lon="0.646165">
        <ele>2968.5</ele>
        <time>1970-01-01T02:58:05.000Z</time>
      </trkpt>
      <trkpt lat="42.65011" lon="0.646165">
        <ele>2968.5</ele>
        <time>1970-01-01T02:58:06.000Z</time>
      </trkpt>
      <trkpt lat="42.650109" lon="0.646166">
        <ele>2968.5</ele>
        <time>1970-01-01T02:58:07.000Z</time>
      </trkpt>
      <trkpt lat="42.650108" lon="0.646166">
        <ele>2968.6</ele>
        <time>1970-01-01T02:58:08.000Z</time>
      </trkpt>
      <trkpt lat="42.650108" lon="0.646167">
        <ele>2968.6</ele>
        <time>1970-01-01T02:58:09.000Z</time>
      </trkpt>
      <trkpt lat="42.650108" lon="0.646169">
        <ele>2968.6</ele>
        <time>1970-01-01T02:58:11.000Z</time>
      </trkpt>
      <trkpt lat="42.650109" lon="0.646169">
        <ele>2968.6</ele>
        <time>1970-01-01T02:58:12.000Z</time>
      </trkpt>
      <trkpt lat="42.650108" lon="0.646169">
        <ele>2968.6</ele>
        <time>1970-01-01T02:58:14.000Z</time>
      </trkpt>
      <trkpt lat="42.650107" lon="0.646169">
        <ele>2968.6</ele>
        <time>1970-01-01T02:58:15.000Z</time>
      </trkpt>
      <trkpt lat="42.650106" lon="0.646169">
        <ele>2968.7</ele>
        <time>1970-01-01T02:58:16.000Z</time>
      </trkpt>
      <trkpt lat="42.650102" lon="0.646171">
        <ele>2968.7</ele>
        <time>1970-01-01T02:58:18.000Z</time>
      </trkpt>
      <trkpt lat="42.650098" lon="0.646171">
        <ele>2968.8</ele>
        <time>1970-01-01T02:58:19.000Z</time>
      </trkpt>
      <trkpt lat="42.650095" lon="0.64617">
        <ele>2968.8</ele>
        <time>1970-01-01T02:58:20.000Z</time>
      </trkpt>
      <trkpt lat="42.650094" lon="0.64617">
        <ele>2968.9</ele>
        <time>1970-01-01T02:58:21.000Z</time>
      </trkpt>
      <trkpt lat="42.650092" lon="0.646171">
        <ele>2968.9</ele>
        <time>1970-01-01T02:58:22.000Z</time>
      </trkpt>
      <trkpt lat="42.65009" lon="0.646171">
        <ele>2968.9</ele>
        <time>1970-01-01T02:58:23.000Z</time>
      </trkpt>
      <trkpt lat="42.650088" lon="0.646169">
        <ele>2969</ele>
        <time>1970-01-01T02:58:24.000Z</time>
      </trkpt>
      <trkpt lat="42.650087" lon="0.646168">
        <ele>2969</ele>
        <time>1970-01-01T02:58:25.000Z</time>
      </trkpt>
      <trkpt lat="42.650085" lon="0.646166">
        <ele>2969</ele>
        <time>1970-01-01T02:58:26.000Z</time>
      </trkpt>
      <trkpt lat="42.650083" lon="0.646163">
        <ele>2969.1</ele>
        <time>1970-01-01T02:58:27.000Z</time>
      </trkpt>
      <trkpt lat="42.650081" lon="0.646163">
        <ele>2969.1</ele>
        <time>1970-01-01T02:58:28.000Z</time>
      </trkpt>
      <trkpt lat="42.650079" lon="0.646164">
        <ele>2969.1</ele>
        <time>1970-01-01T02:58:29.000Z</time>
      </trkpt>
      <trkpt lat="42.650078" lon="0.646165">
        <ele>2969.2</ele>
        <time>1970-01-01T02:58:30.000Z</time>
      </trkpt>
      <trkpt lat="42.650077" lon="0.646169">
        <ele>2969.2</ele>
        <time>1970-01-01T02:58:31.000Z</time>
      </trkpt>
      <trkpt lat="42.650076" lon="0.646172">
        <ele>2969.3</ele>
        <time>1970-01-01T02:58:32.000Z</time>
      </trkpt>
      <trkpt lat="42.650075" lon="0.646175">
        <ele>2969.3</ele>
        <time>1970-01-01T02:58:33.000Z</time>
      </trkpt>
      <trkpt lat="42.650073" lon="0.646177">
        <ele>2969.4</ele>
        <time>1970-01-01T02:58:34.000Z</time>
      </trkpt>
      <trkpt lat="42.650069" lon="0.646179">
        <ele>2969.4</ele>
        <time>1970-01-01T02:58:35.000Z</time>
      </trkpt>
      <trkpt lat="42.650059" lon="0.646183">
        <ele>2969.6</ele>
        <time>1970-01-01T02:58:36.000Z</time>
      </trkpt>
      <trkpt lat="42.650054" lon="0.646187">
        <ele>2969.7</ele>
        <time>1970-01-01T02:58:37.000Z</time>
      </trkpt>
      <trkpt lat="42.650048" lon="0.646189">
        <ele>2969.8</ele>
        <time>1970-01-01T02:58:39.000Z</time>
      </trkpt>
      <trkpt lat="42.650044" lon="0.646189">
        <ele>2969.9</ele>
        <time>1970-01-01T02:58:40.000Z</time>
      </trkpt>
      <trkpt lat="42.65004" lon="0.646188">
        <ele>2970</ele>
        <time>1970-01-01T02:58:41.000Z</time>
      </trkpt>
      <trkpt lat="42.650035" lon="0.646187">
        <ele>2970</ele>
        <time>1970-01-01T02:58:42.000Z</time>
      </trkpt>
      <trkpt lat="42.650028" lon="0.646188">
        <ele>2970.2</ele>
        <time>1970-01-01T02:58:43.000Z</time>
      </trkpt>
      <trkpt lat="42.650021" lon="0.646191">
        <ele>2970.3</ele>
        <time>1970-01-01T02:58:44.000Z</time>
      </trkpt>
      <trkpt lat="42.650014" lon="0.6462">
        <ele>2970.5</ele>
        <time>1970-01-01T02:58:46.000Z</time>
      </trkpt>
      <trkpt lat="42.650014" lon="0.646203">
        <ele>2970.5</ele>
        <time>1970-01-01T02:58:47.000Z</time>
      </trkpt>
      <trkpt lat="42.650011" lon="0.64621">
        <ele>2970.6</ele>
        <time>1970-01-01T02:58:48.000Z</time>
      </trkpt>
      <trkpt lat="42.650008" lon="0.646215">
        <ele>2970.7</ele>
        <time>1970-01-01T02:58:49.000Z</time>
      </trkpt>
      <trkpt lat="42.649998" lon="0.646219">
        <ele>2970.9</ele>
        <time>1970-01-01T02:58:51.000Z</time>
      </trkpt>
      <trkpt lat="42.649989" lon="0.646218">
        <ele>2971</ele>
        <time>1970-01-01T02:58:53.000Z</time>
      </trkpt>
      <trkpt lat="42.649986" lon="0.646219">
        <ele>2971.1</ele>
        <time>1970-01-01T02:58:54.000Z</time>
      </trkpt>
      <trkpt lat="42.64998" lon="0.646219">
        <ele>2971.2</ele>
        <time>1970-01-01T02:58:55.000Z</time>
      </trkpt>
      <trkpt lat="42.649974" lon="0.646222">
        <ele>2971.3</ele>
        <time>1970-01-01T02:58:56.000Z</time>
      </trkpt>
      <trkpt lat="42.64997" lon="0.646224">
        <ele>2971.4</ele>
        <time>1970-01-01T02:58:57.000Z</time>
      </trkpt>
      <trkpt lat="42.649967" lon="0.646223">
        <ele>2971.4</ele>
        <time>1970-01-01T02:58:58.000Z</time>
      </trkpt>
      <trkpt lat="42.649963" lon="0.646223">
        <ele>2971.5</ele>
        <time>1970-01-01T02:58:59.000Z</time>
      </trkpt>
      <trkpt lat="42.649951" lon="0.646226">
        <ele>2971.7</ele>
        <time>1970-01-01T02:59:01.000Z</time>
      </trkpt>
      <trkpt lat="42.649946" lon="0.646226">
        <ele>2971.8</ele>
        <time>1970-01-01T02:59:02.000Z</time>
      </trkpt>
      <trkpt lat="42.64994" lon="0.646227">
        <ele>2971.9</ele>
        <time>1970-01-01T02:59:03.000Z</time>
      </trkpt>
      <trkpt lat="42.649933" lon="0.646227">
        <ele>2972</ele>
        <time>1970-01-01T02:59:04.000Z</time>
      </trkpt>
      <trkpt lat="42.649919" lon="0.646226">
        <ele>2972.2</ele>
        <time>1970-01-01T02:59:06.000Z</time>
      </trkpt>
      <trkpt lat="42.649915" lon="0.646222">
        <ele>2972.3</ele>
        <time>1970-01-01T02:59:07.000Z</time>
      </trkpt>
      <trkpt lat="42.649905" lon="0.646219">
        <ele>2972.5</ele>
        <time>1970-01-01T02:59:09.000Z</time>
      </trkpt>
      <trkpt lat="42.649897" lon="0.646215">
        <ele>2972.7</ele>
        <time>1970-01-01T02:59:10.000Z</time>
      </trkpt>
      <trkpt lat="42.649892" lon="0.64621">
        <ele>2972.8</ele>
        <time>1970-01-01T02:59:11.000Z</time>
      </trkpt>
      <trkpt lat="42.649887" lon="0.646202">
        <ele>2972.9</ele>
        <time>1970-01-01T02:59:12.000Z</time>
      </trkpt>
      <trkpt lat="42.649879" lon="0.646193">
        <ele>2973.1</ele>
        <time>1970-01-01T02:59:14.000Z</time>
      </trkpt>
      <trkpt lat="42.649866" lon="0.646189">
        <ele>2973.3</ele>
        <time>1970-01-01T02:59:15.000Z</time>
      </trkpt>
      <trkpt lat="42.649859" lon="0.646185">
        <ele>2973.4</ele>
        <time>1970-01-01T02:59:16.000Z</time>
      </trkpt>
      <trkpt lat="42.64985" lon="0.646182">
        <ele>2973.6</ele>
        <time>1970-01-01T02:59:17.000Z</time>
      </trkpt>
      <trkpt lat="42.649846" lon="0.646184">
        <ele>2973.6</ele>
        <time>1970-01-01T02:59:18.000Z</time>
      </trkpt>
      <trkpt lat="42.64984" lon="0.646188">
        <ele>2973.7</ele>
        <time>1970-01-01T02:59:19.000Z</time>
      </trkpt>
      <trkpt lat="42.649829" lon="0.646188">
        <ele>2973.9</ele>
        <time>1970-01-01T02:59:21.000Z</time>
      </trkpt>
      <trkpt lat="42.649817" lon="0.646186">
        <ele>2974.1</ele>
        <time>1970-01-01T02:59:23.000Z</time>
      </trkpt>
      <trkpt lat="42.649808" lon="0.646187">
        <ele>2974.3</ele>
        <time>1970-01-01T02:59:24.000Z</time>
      </trkpt>
      <trkpt lat="42.649801" lon="0.646186">
        <ele>2974.4</ele>
        <time>1970-01-01T02:59:25.000Z</time>
      </trkpt>
      <trkpt lat="42.649797" lon="0.646187">
        <ele>2974.4</ele>
        <time>1970-01-01T02:59:26.000Z</time>
      </trkpt>
      <trkpt lat="42.649794" lon="0.646195">
        <ele>2974.5</ele>
        <time>1970-01-01T02:59:28.000Z</time>
      </trkpt>
      <trkpt lat="42.649796" lon="0.6462">
        <ele>2974.6</ele>
        <time>1970-01-01T02:59:29.000Z</time>
      </trkpt>
      <trkpt lat="42.649795" lon="0.646203">
        <ele>2974.7</ele>
        <time>1970-01-01T02:59:30.000Z</time>
      </trkpt>
      <trkpt lat="42.649788" lon="0.646209">
        <ele>2974.8</ele>
        <time>1970-01-01T02:59:32.000Z</time>
      </trkpt>
      <trkpt lat="42.649785" lon="0.646216">
        <ele>2974.9</ele>
        <time>1970-01-01T02:59:33.000Z</time>
      </trkpt>
      <trkpt lat="42.649781" lon="0.646222">
        <ele>2975</ele>
        <time>1970-01-01T02:59:34.000Z</time>
      </trkpt>
      <trkpt lat="42.649774" lon="0.646226">
        <ele>2975.1</ele>
        <time>1970-01-01T02:59:35.000Z</time>
      </trkpt>
      <trkpt lat="42.649767" lon="0.646226">
        <ele>2975.2</ele>
        <time>1970-01-01T02:59:36.000Z</time>
      </trkpt>
      <trkpt lat="42.649759" lon="0.646227">
        <ele>2975.3</ele>
        <time>1970-01-01T02:59:37.000Z</time>
      </trkpt>
      <trkpt lat="42.649751" lon="0.646229">
        <ele>2975.5</ele>
        <time>1970-01-01T02:59:38.000Z</time>
      </trkpt>
      <trkpt lat="42.64974" lon="0.646233">
        <ele>2975.7</ele>
        <time>1970-01-01T02:59:40.000Z</time>
      </trkpt>
      <trkpt lat="42.649735" lon="0.646232">
        <ele>2975.7</ele>
        <time>1970-01-01T02:59:41.000Z</time>
      </trkpt>
      <trkpt lat="42.649733" lon="0.646232">
        <ele>2975.8</ele>
        <time>1970-01-01T02:59:42.000Z</time>
      </trkpt>
      <trkpt lat="42.649731" lon="0.646231">
        <ele>2975.8</ele>
        <time>1970-01-01T02:59:43.000Z</time>
      </trkpt>
      <trkpt lat="42.649727" lon="0.646231">
        <ele>2975.9</ele>
        <time>1970-01-01T02:59:45.000Z</time>
      </trkpt>
      <trkpt lat="42.649726" lon="0.64623">
        <ele>2975.9</ele>
        <time>1970-01-01T02:59:46.000Z</time>
      </trkpt>
      <trkpt lat="42.649723" lon="0.646228">
        <ele>2975.9</ele>
        <time>1970-01-01T02:59:47.000Z</time>
      </trkpt>
      <trkpt lat="42.649715" lon="0.646227">
        <ele>2976.1</ele>
        <time>1970-01-01T02:59:49.000Z</time>
      </trkpt>
      <trkpt lat="42.649707" lon="0.646231">
        <ele>2976.2</ele>
        <time>1970-01-01T02:59:50.000Z</time>
      </trkpt>
      <trkpt lat="42.649702" lon="0.646236">
        <ele>2976.3</ele>
        <time>1970-01-01T02:59:51.000Z</time>
      </trkpt>
      <trkpt lat="42.649697" lon="0.646241">
        <ele>2976.4</ele>
        <time>1970-01-01T02:59:52.000Z</time>
      </trkpt>
      <trkpt lat="42.649693" lon="0.646248">
        <ele>2976.5</ele>
        <time>1970-01-01T02:59:53.000Z</time>
      </trkpt>
      <trkpt lat="42.64969" lon="0.646253">
        <ele>2976.6</ele>
        <time>1970-01-01T02:59:54.000Z</time>
      </trkpt>
      <trkpt lat="42.649688" lon="0.646257">
        <ele>2976.6</ele>
        <time>1970-01-01T02:59:55.000Z</time>
      </trkpt>
      <trkpt lat="42.649685" lon="0.646263">
        <ele>2976.7</ele>
        <time>1970-01-01T02:59:56.000Z</time>
      </trkpt>
      <trkpt lat="42.649681" lon="0.646268">
        <ele>2976.8</ele>
        <time>1970-01-01T02:59:57.000Z</time>
      </trkpt>
      <trkpt lat="42.649678" lon="0.646274">
        <ele>2976.9</ele>
        <time>1970-01-01T02:59:58.000Z</time>
      </trkpt>
      <trkpt lat="42.649675" lon="0.64628">
        <ele>2977</ele>
        <time>1970-01-01T02:59:59.000Z</time>
      </trkpt>
      <trkpt lat="42.649672" lon="0.646283">
        <ele>2977</ele>
        <time>1970-01-01T03:00:00.000Z</time>
      </trkpt>
      <trkpt lat="42.649668" lon="0.646284">
        <ele>2977.1</ele>
        <time>1970-01-01T03:00:02.000Z</time>
      </trkpt>
      <trkpt lat="42.649664" lon="0.646283">
        <ele>2977.2</ele>
        <time>1970-01-01T03:00:03.000Z</time>
      </trkpt>
      <trkpt lat="42.64966" lon="0.646282">
        <ele>2977.2</ele>
        <time>1970-01-01T03:00:04.000Z</time>
      </trkpt>
      <trkpt lat="42.649656" lon="0.646281">
        <ele>2977.3</ele>
        <time>1970-01-01T03:00:05.000Z</time>
      </trkpt>
      <trkpt lat="42.649651" lon="0.646282">
        <ele>2977.4</ele>
        <time>1970-01-01T03:00:06.000Z</time>
      </trkpt>
      <trkpt lat="42.649644" lon="0.646285">
        <ele>2977.5</ele>
        <time>1970-01-01T03:00:07.000Z</time>
      </trkpt>
      <trkpt lat="42.649638" lon="0.64629">
        <ele>2977.6</ele>
        <time>1970-01-01T03:00:08.000Z</time>
      </trkpt>
      <trkpt lat="42.64963" lon="0.646294">
        <ele>2977.7</ele>
        <time>1970-01-01T03:00:09.000Z</time>
      </trkpt>
      <trkpt lat="42.64962" lon="0.646291">
        <ele>2977.9</ele>
        <time>1970-01-01T03:00:11.000Z</time>
      </trkpt>
      <trkpt lat="42.649615" lon="0.646289">
        <ele>2977.9</ele>
        <time>1970-01-01T03:00:12.000Z</time>
      </trkpt>
      <trkpt lat="42.649611" lon="0.646287">
        <ele>2978</ele>
        <time>1970-01-01T03:00:13.000Z</time>
      </trkpt>
      <trkpt lat="42.649604" lon="0.64629">
        <ele>2977.9</ele>
        <time>1970-01-01T03:00:14.000Z</time>
      </trkpt>
      <trkpt lat="42.649599" lon="0.646295">
        <ele>2977.8</ele>
        <time>1970-01-01T03:00:15.000Z</time>
      </trkpt>
      <trkpt lat="42.649596" lon="0.6463">
        <ele>2977.7</ele>
        <time>1970-01-01T03:00:16.000Z</time>
      </trkpt>
      <trkpt lat="42.649592" lon="0.646306">
        <ele>2977.5</ele>
        <time>1970-01-01T03:00:18.000Z</time>
      </trkpt>
      <trkpt lat="42.649591" lon="0.646308">
        <ele>2977.2</ele>
        <time>1970-01-01T03:00:19.000Z</time>
      </trkpt>
      <trkpt lat="42.649591" lon="0.646309">
        <ele>2977</ele>
        <time>1970-01-01T03:00:20.000Z</time>
      </trkpt>
      <trkpt lat="42.649591" lon="0.64631">
        <ele>2976.8</ele>
        <time>1970-01-01T03:00:21.000Z</time>
      </trkpt>
      <trkpt lat="42.64959" lon="0.646317">
        <ele>2976.6</ele>
        <time>1970-01-01T03:00:22.000Z</time>
      </trkpt>
      <trkpt lat="42.649589" lon="0.646322">
        <ele>2976.4</ele>
        <time>1970-01-01T03:00:24.000Z</time>
      </trkpt>
      <trkpt lat="42.649581" lon="0.646327">
        <ele>2976.4</ele>
        <time>1970-01-01T03:00:25.000Z</time>
      </trkpt>
      <trkpt lat="42.649571" lon="0.646328">
        <ele>2976.2</ele>
        <time>1970-01-01T03:00:27.000Z</time>
      </trkpt>
      <trkpt lat="42.649562" lon="0.646322">
        <ele>2976.1</ele>
        <time>1970-01-01T03:00:28.000Z</time>
      </trkpt>
      <trkpt lat="42.649552" lon="0.64632">
        <ele>2976</ele>
        <time>1970-01-01T03:00:30.000Z</time>
      </trkpt>
      <trkpt lat="42.649548" lon="0.646316">
        <ele>2975.8</ele>
        <time>1970-01-01T03:00:31.000Z</time>
      </trkpt>
      <trkpt lat="42.649548" lon="0.646312">
        <ele>2975.7</ele>
        <time>1970-01-01T03:00:32.000Z</time>
      </trkpt>
      <trkpt lat="42.649545" lon="0.646308">
        <ele>2975.4</ele>
        <time>1970-01-01T03:00:33.000Z</time>
      </trkpt>
      <trkpt lat="42.649543" lon="0.646307">
        <ele>2975.3</ele>
        <time>1970-01-01T03:00:34.000Z</time>
      </trkpt>
      <trkpt lat="42.649535" lon="0.646308">
        <ele>2975.1</ele>
        <time>1970-01-01T03:00:36.000Z</time>
      </trkpt>
      <trkpt lat="42.649528" lon="0.646308">
        <ele>2975</ele>
        <time>1970-01-01T03:00:37.000Z</time>
      </trkpt>
      <trkpt lat="42.649521" lon="0.646306">
        <ele>2974.8</ele>
        <time>1970-01-01T03:00:38.000Z</time>
      </trkpt>
      <trkpt lat="42.649513" lon="0.646307">
        <ele>2974.7</ele>
        <time>1970-01-01T03:00:39.000Z</time>
      </trkpt>
      <trkpt lat="42.649507" lon="0.646309">
        <ele>2974.5</ele>
        <time>1970-01-01T03:00:41.000Z</time>
      </trkpt>
      <trkpt lat="42.649496" lon="0.646308">
        <ele>2974.4</ele>
        <time>1970-01-01T03:00:42.000Z</time>
      </trkpt>
      <trkpt lat="42.649482" lon="0.646302">
        <ele>2974.9</ele>
        <time>1970-01-01T03:00:44.000Z</time>
      </trkpt>
      <trkpt lat="42.649475" lon="0.646301">
        <ele>2974.8</ele>
        <time>1970-01-01T03:00:46.000Z</time>
      </trkpt>
      <trkpt lat="42.649468" lon="0.646296">
        <ele>2974.7</ele>
        <time>1970-01-01T03:00:47.000Z</time>
      </trkpt>
      <trkpt lat="42.64946" lon="0.64629">
        <ele>2974.6</ele>
        <time>1970-01-01T03:00:48.000Z</time>
      </trkpt>
      <trkpt lat="42.649453" lon="0.646287">
        <ele>2974.5</ele>
        <time>1970-01-01T03:00:49.000Z</time>
      </trkpt>
      <trkpt lat="42.649447" lon="0.646286">
        <ele>2974.3</ele>
        <time>1970-01-01T03:00:50.000Z</time>
      </trkpt>
      <trkpt lat="42.649442" lon="0.646287">
        <ele>2974.1</ele>
        <time>1970-01-01T03:00:51.000Z</time>
      </trkpt>
      <trkpt lat="42.649435" lon="0.646288">
        <ele>2974</ele>
        <time>1970-01-01T03:00:52.000Z</time>
      </trkpt>
      <trkpt lat="42.649427" lon="0.646288">
        <ele>2973.9</ele>
        <time>1970-01-01T03:00:53.000Z</time>
      </trkpt>
      <trkpt lat="42.649421" lon="0.646285">
        <ele>2973.7</ele>
        <time>1970-01-01T03:00:54.000Z</time>
      </trkpt>
      <trkpt lat="42.649414" lon="0.64628">
        <ele>2973.6</ele>
        <time>1970-01-01T03:00:55.000Z</time>
      </trkpt>
      <trkpt lat="42.649403" lon="0.646271">
        <ele>2973.5</ele>
        <time>1970-01-01T03:00:57.000Z</time>
      </trkpt>
      <trkpt lat="42.649397" lon="0.646267">
        <ele>2973.3</ele>
        <time>1970-01-01T03:00:58.000Z</time>
      </trkpt>
      <trkpt lat="42.649385" lon="0.64626">
        <ele>2974.3</ele>
        <time>1970-01-01T03:00:59.000Z</time>
      </trkpt>
      <trkpt lat="42.649377" lon="0.646257">
        <ele>2974.1</ele>
        <time>1970-01-01T03:01:00.000Z</time>
      </trkpt>
      <trkpt lat="42.649369" lon="0.646254">
        <ele>2974</ele>
        <time>1970-01-01T03:01:01.000Z</time>
      </trkpt>
      <trkpt lat="42.649362" lon="0.646254">
        <ele>2973.9</ele>
        <time>1970-01-01T03:01:02.000Z</time>
      </trkpt>
      <trkpt lat="42.64935" lon="0.646254">
        <ele>2973.8</ele>
        <time>1970-01-01T03:01:03.000Z</time>
      </trkpt>
      <trkpt lat="42.649333" lon="0.646258">
        <ele>2973.8</ele>
        <time>1970-01-01T03:01:04.000Z</time>
      </trkpt>
      <trkpt lat="42.649324" lon="0.646262">
        <ele>2973.7</ele>
        <time>1970-01-01T03:01:06.000Z</time>
      </trkpt>
      <trkpt lat="42.649314" lon="0.646265">
        <ele>2972.4</ele>
        <time>1970-01-01T03:01:07.000Z</time>
      </trkpt>
      <trkpt lat="42.649307" lon="0.64627">
        <ele>2972.3</ele>
        <time>1970-01-01T03:01:08.000Z</time>
      </trkpt>
      <trkpt lat="42.649302" lon="0.646277">
        <ele>2972.1</ele>
        <time>1970-01-01T03:01:09.000Z</time>
      </trkpt>
      <trkpt lat="42.649296" lon="0.646289">
        <ele>2972</ele>
        <time>1970-01-01T03:01:11.000Z</time>
      </trkpt>
      <trkpt lat="42.649289" lon="0.646294">
        <ele>2971.8</ele>
        <time>1970-01-01T03:01:12.000Z</time>
      </trkpt>
      <trkpt lat="42.649281" lon="0.646301">
        <ele>2971.7</ele>
        <time>1970-01-01T03:01:14.000Z</time>
      </trkpt>
      <trkpt lat="42.649275" lon="0.646309">
        <ele>2970.3</ele>
        <time>1970-01-01T03:01:15.000Z</time>
      </trkpt>
      <trkpt lat="42.649274" lon="0.646315">
        <ele>2970.1</ele>
        <time>1970-01-01T03:01:16.000Z</time>
      </trkpt>
      <trkpt lat="42.649272" lon="0.646322">
        <ele>2969.8</ele>
        <time>1970-01-01T03:01:17.000Z</time>
      </trkpt>
      <trkpt lat="42.649269" lon="0.646324">
        <ele>2969.7</ele>
        <time>1970-01-01T03:01:18.000Z</time>
      </trkpt>
      <trkpt lat="42.649264" lon="0.646321">
        <ele>2969.5</ele>
        <time>1970-01-01T03:01:20.000Z</time>
      </trkpt>
      <trkpt lat="42.64926" lon="0.646319">
        <ele>2969.2</ele>
        <time>1970-01-01T03:01:21.000Z</time>
      </trkpt>
      <trkpt lat="42.64926" lon="0.646317">
        <ele>2969</ele>
        <time>1970-01-01T03:01:22.000Z</time>
      </trkpt>
      <trkpt lat="42.649261" lon="0.646317">
        <ele>2968.8</ele>
        <time>1970-01-01T03:01:23.000Z</time>
      </trkpt>
      <trkpt lat="42.649262" lon="0.646318">
        <ele>2968.5</ele>
        <time>1970-01-01T03:01:24.000Z</time>
      </trkpt>
      <trkpt lat="42.649259" lon="0.646315">
        <ele>2968.2</ele>
        <time>1970-01-01T03:01:26.000Z</time>
      </trkpt>
      <trkpt lat="42.649254" lon="0.646313">
        <ele>2968</ele>
        <time>1970-01-01T03:01:27.000Z</time>
      </trkpt>
      <trkpt lat="42.649247" lon="0.646309">
        <ele>2967.8</ele>
        <time>1970-01-01T03:01:28.000Z</time>
      </trkpt>
      <trkpt lat="42.649244" lon="0.646306">
        <ele>2967.5</ele>
        <time>1970-01-01T03:01:29.000Z</time>
      </trkpt>
      <trkpt lat="42.64924" lon="0.646301">
        <ele>2968.8</ele>
        <time>1970-01-01T03:01:30.000Z</time>
      </trkpt>
      <trkpt lat="42.64923" lon="0.646293">
        <ele>2968.6</ele>
        <time>1970-01-01T03:01:32.000Z</time>
      </trkpt>
      <trkpt lat="42.649217" lon="0.646286">
        <ele>2968.5</ele>
        <time>1970-01-01T03:01:33.000Z</time>
      </trkpt>
      <trkpt lat="42.64921" lon="0.646281">
        <ele>2968.3</ele>
        <time>1970-01-01T03:01:34.000Z</time>
      </trkpt>
      <trkpt lat="42.649205" lon="0.646277">
        <ele>2968.2</ele>
        <time>1970-01-01T03:01:35.000Z</time>
      </trkpt>
      <trkpt lat="42.649197" lon="0.646268">
        <ele>2968</ele>
        <time>1970-01-01T03:01:36.000Z</time>
      </trkpt>
      <trkpt lat="42.649192" lon="0.64626">
        <ele>2969.4</ele>
        <time>1970-01-01T03:01:37.000Z</time>
      </trkpt>
      <trkpt lat="42.64919" lon="0.646253">
        <ele>2969.2</ele>
        <time>1970-01-01T03:01:38.000Z</time>
      </trkpt>
      <trkpt lat="42.649186" lon="0.646242">
        <ele>2969</ele>
        <time>1970-01-01T03:01:39.000Z</time>
      </trkpt>
      <trkpt lat="42.649179" lon="0.646236">
        <ele>2968.8</ele>
        <time>1970-01-01T03:01:41.000Z</time>
      </trkpt>
      <trkpt lat="42.649173" lon="0.646228">
        <ele>2968.7</ele>
        <time>1970-01-01T03:01:42.000Z</time>
      </trkpt>
      <trkpt lat="42.64917" lon="0.646224">
        <ele>2968.5</ele>
        <time>1970-01-01T03:01:43.000Z</time>
      </trkpt>
      <trkpt lat="42.649171" lon="0.646223">
        <ele>2968.3</ele>
        <time>1970-01-01T03:01:44.000Z</time>
      </trkpt>
      <trkpt lat="42.649175" lon="0.646225">
        <ele>2967.9</ele>
        <time>1970-01-01T03:01:45.000Z</time>
      </trkpt>
      <trkpt lat="42.649178" lon="0.646227">
        <ele>2967.7</ele>
        <time>1970-01-01T03:01:46.000Z</time>
      </trkpt>
      <trkpt lat="42.649181" lon="0.646229">
        <ele>2967.5</ele>
        <time>1970-01-01T03:01:47.000Z</time>
      </trkpt>
      <trkpt lat="42.649183" lon="0.646231">
        <ele>2967.3</ele>
        <time>1970-01-01T03:01:48.000Z</time>
      </trkpt>
      <trkpt lat="42.649184" lon="0.646232">
        <ele>2967</ele>
        <time>1970-01-01T03:01:49.000Z</time>
      </trkpt>
      <trkpt lat="42.649184" lon="0.646233">
        <ele>2966.8</ele>
        <time>1970-01-01T03:01:50.000Z</time>
      </trkpt>
      <trkpt lat="42.649184" lon="0.646233">
        <ele>2966.6</ele>
        <time>1970-01-01T03:01:51.000Z</time>
      </trkpt>
      <trkpt lat="42.649185" lon="0.646234">
        <ele>2966.4</ele>
        <time>1970-01-01T03:01:52.000Z</time>
      </trkpt>
      <trkpt lat="42.649185" lon="0.646234">
        <ele>2966.1</ele>
        <time>1970-01-01T03:01:53.000Z</time>
      </trkpt>
      <trkpt lat="42.649185" lon="0.646235">
        <ele>2965.9</ele>
        <time>1970-01-01T03:01:54.000Z</time>
      </trkpt>
      <trkpt lat="42.649185" lon="0.646235">
        <ele>2965.7</ele>
        <time>1970-01-01T03:01:55.000Z</time>
      </trkpt>
      <trkpt lat="42.649186" lon="0.646235">
        <ele>2965.5</ele>
        <time>1970-01-01T03:01:56.000Z</time>
      </trkpt>
      <trkpt lat="42.649186" lon="0.646234">
        <ele>2965.2</ele>
        <time>1970-01-01T03:01:57.000Z</time>
      </trkpt>
      <trkpt lat="42.649186" lon="0.646234">
        <ele>2965</ele>
        <time>1970-01-01T03:01:58.000Z</time>
      </trkpt>
      <trkpt lat="42.649186" lon="0.646234">
        <ele>2964.8</ele>
        <time>1970-01-01T03:01:59.000Z</time>
      </trkpt>
      <trkpt lat="42.649185" lon="0.646234">
        <ele>2964.6</ele>
        <time>1970-01-01T03:02:00.000Z</time>
      </trkpt>
      <trkpt lat="42.649186" lon="0.646236">
        <ele>2964.3</ele>
        <time>1970-01-01T03:02:01.000Z</time>
      </trkpt>
      <trkpt lat="42.649185" lon="0.646239">
        <ele>2964.1</ele>
        <time>1970-01-01T03:02:02.000Z</time>
      </trkpt>
      <trkpt lat="42.649181" lon="0.646238">
        <ele>2963.9</ele>
        <time>1970-01-01T03:02:03.000Z</time>
      </trkpt>
      <trkpt lat="42.649175" lon="0.646232">
        <ele>2963.6</ele>
        <time>1970-01-01T03:02:04.000Z</time>
      </trkpt>
      <trkpt lat="42.64917" lon="0.646224">
        <ele>2963.6</ele>
        <time>1970-01-01T03:02:06.000Z</time>
      </trkpt>
      <trkpt lat="42.64916" lon="0.646216">
        <ele>2965.8</ele>
        <time>1970-01-01T03:02:07.000Z</time>
      </trkpt>
      <trkpt lat="42.649151" lon="0.64621">
        <ele>2965.6</ele>
        <time>1970-01-01T03:02:08.000Z</time>
      </trkpt>
      <trkpt lat="42.649144" lon="0.646204">
        <ele>2965.4</ele>
        <time>1970-01-01T03:02:09.000Z</time>
      </trkpt>
      <trkpt lat="42.649137" lon="0.646197">
        <ele>2965.3</ele>
        <time>1970-01-01T03:02:10.000Z</time>
      </trkpt>
      <trkpt lat="42.649133" lon="0.646194">
        <ele>2965.3</ele>
        <time>1970-01-01T03:02:11.000Z</time>
      </trkpt>
      <trkpt lat="42.649129" lon="0.646192">
        <ele>2965.3</ele>
        <time>1970-01-01T03:02:12.000Z</time>
      </trkpt>
      <trkpt lat="42.649126" lon="0.646187">
        <ele>2965.3</ele>
        <time>1970-01-01T03:02:13.000Z</time>
      </trkpt>
      <trkpt lat="42.649123" lon="0.646178">
        <ele>2965.3</ele>
        <time>1970-01-01T03:02:14.000Z</time>
      </trkpt>
      <trkpt lat="42.649121" lon="0.646172">
        <ele>2967.9</ele>
        <time>1970-01-01T03:02:15.000Z</time>
      </trkpt>
      <trkpt lat="42.649115" lon="0.646167">
        <ele>2967.9</ele>
        <time>1970-01-01T03:02:16.000Z</time>
      </trkpt>
      <trkpt lat="42.649104" lon="0.646164">
        <ele>2968</ele>
        <time>1970-01-01T03:02:18.000Z</time>
      </trkpt>
      <trkpt lat="42.649095" lon="0.646166">
        <ele>2968</ele>
        <time>1970-01-01T03:02:19.000Z</time>
      </trkpt>
      <trkpt lat="42.649087" lon="0.646167">
        <ele>2968</ele>
        <time>1970-01-01T03:02:20.000Z</time>
      </trkpt>
      <trkpt lat="42.649077" lon="0.646166">
        <ele>2968</ele>
        <time>1970-01-01T03:02:21.000Z</time>
      </trkpt>
      <trkpt lat="42.649067" lon="0.646171">
        <ele>2968</ele>
        <time>1970-01-01T03:02:23.000Z</time>
      </trkpt>
      <trkpt lat="42.649063" lon="0.646171">
        <ele>2968</ele>
        <time>1970-01-01T03:02:24.000Z</time>
      </trkpt>
      <trkpt lat="42.649058" lon="0.646166">
        <ele>2968</ele>
        <time>1970-01-01T03:02:26.000Z</time>
      </trkpt>
      <trkpt lat="42.649051" lon="0.646157">
        <ele>2968</ele>
        <time>1970-01-01T03:02:27.000Z</time>
      </trkpt>
      <trkpt lat="42.649046" lon="0.646153">
        <ele>2968</ele>
        <time>1970-01-01T03:02:28.000Z</time>
      </trkpt>
      <trkpt lat="42.649042" lon="0.646152">
        <ele>2968</ele>
        <time>1970-01-01T03:02:29.000Z</time>
      </trkpt>
      <trkpt lat="42.649036" lon="0.646153">
        <ele>2968</ele>
        <time>1970-01-01T03:02:31.000Z</time>
      </trkpt>
      <trkpt lat="42.649028" lon="0.646151">
        <ele>2968</ele>
        <time>1970-01-01T03:02:32.000Z</time>
      </trkpt>
      <trkpt lat="42.64902" lon="0.646147">
        <ele>2968</ele>
        <time>1970-01-01T03:02:34.000Z</time>
      </trkpt>
      <trkpt lat="42.649016" lon="0.646145">
        <ele>2968</ele>
        <time>1970-01-01T03:02:35.000Z</time>
      </trkpt>
      <trkpt lat="42.649012" lon="0.646144">
        <ele>2968</ele>
        <time>1970-01-01T03:02:36.000Z</time>
      </trkpt>
      <trkpt lat="42.649009" lon="0.646143">
        <ele>2968</ele>
        <time>1970-01-01T03:02:37.000Z</time>
      </trkpt>
      <trkpt lat="42.649001" lon="0.646136">
        <ele>2968</ele>
        <time>1970-01-01T03:02:39.000Z</time>
      </trkpt>
      <trkpt lat="42.648997" lon="0.646127">
        <ele>2970.5</ele>
        <time>1970-01-01T03:02:40.000Z</time>
      </trkpt>
      <trkpt lat="42.648995" lon="0.64612">
        <ele>2970.5</ele>
        <time>1970-01-01T03:02:41.000Z</time>
      </trkpt>
      <trkpt lat="42.648995" lon="0.646111">
        <ele>2970.5</ele>
        <time>1970-01-01T03:02:42.000Z</time>
      </trkpt>
      <trkpt lat="42.648994" lon="0.646099">
        <ele>2970.5</ele>
        <time>1970-01-01T03:02:44.000Z</time>
      </trkpt>
      <trkpt lat="42.648995" lon="0.646091">
        <ele>2970.5</ele>
        <time>1970-01-01T03:02:45.000Z</time>
      </trkpt>
      <trkpt lat="42.648993" lon="0.646083">
        <ele>2972.9</ele>
        <time>1970-01-01T03:02:46.000Z</time>
      </trkpt>
      <trkpt lat="42.648988" lon="0.646077">
        <ele>2972.9</ele>
        <time>1970-01-01T03:02:48.000Z</time>
      </trkpt>
      <trkpt lat="42.648983" lon="0.646076">
        <ele>2972.8</ele>
        <time>1970-01-01T03:02:49.000Z</time>
      </trkpt>
      <trkpt lat="42.648977" lon="0.64608">
        <ele>2972.8</ele>
        <time>1970-01-01T03:02:50.000Z</time>
      </trkpt>
      <trkpt lat="42.648973" lon="0.646083">
        <ele>2972.8</ele>
        <time>1970-01-01T03:02:51.000Z</time>
      </trkpt>
      <trkpt lat="42.648968" lon="0.646089">
        <ele>2972.8</ele>
        <time>1970-01-01T03:02:52.000Z</time>
      </trkpt>
      <trkpt lat="42.648963" lon="0.646096">
        <ele>2970.4</ele>
        <time>1970-01-01T03:02:53.000Z</time>
      </trkpt>
      <trkpt lat="42.648957" lon="0.646099">
        <ele>2970.4</ele>
        <time>1970-01-01T03:02:54.000Z</time>
      </trkpt>
      <trkpt lat="42.648946" lon="0.646102">
        <ele>2970.3</ele>
        <time>1970-01-01T03:02:55.000Z</time>
      </trkpt>
      <trkpt lat="42.648939" lon="0.646105">
        <ele>2970.3</ele>
        <time>1970-01-01T03:02:56.000Z</time>
      </trkpt>
      <trkpt lat="42.648927" lon="0.646109">
        <ele>2970.3</ele>
        <time>1970-01-01T03:02:58.000Z</time>
      </trkpt>
      <trkpt lat="42.648917" lon="0.64611">
        <ele>2970.3</ele>
        <time>1970-01-01T03:02:59.000Z</time>
      </trkpt>
      <trkpt lat="42.648906" lon="0.646111">
        <ele>2970.3</ele>
        <time>1970-01-01T03:03:00.000Z</time>
      </trkpt>
      <trkpt lat="42.648893" lon="0.64611">
        <ele>2970.3</ele>
        <time>1970-01-01T03:03:01.000Z</time>
      </trkpt>
      <trkpt lat="42.64888" lon="0.646104">
        <ele>2970.2</ele>
        <time>1970-01-01T03:03:02.000Z</time>
      </trkpt>
      <trkpt lat="42.648867" lon="0.646103">
        <ele>2970.2</ele>
        <time>1970-01-01T03:03:04.000Z</time>
      </trkpt>
      <trkpt lat="42.64886" lon="0.646115">
        <ele>2970.2</ele>
        <time>1970-01-01T03:03:05.000Z</time>
      </trkpt>
      <trkpt lat="42.64885" lon="0.646129">
        <ele>2970.1</ele>
        <time>1970-01-01T03:03:07.000Z</time>
      </trkpt>
      <trkpt lat="42.648839" lon="0.646131">
        <ele>2970.1</ele>
        <time>1970-01-01T03:03:08.000Z</time>
      </trkpt>
      <trkpt lat="42.648828" lon="0.646125">
        <ele>2970.1</ele>
        <time>1970-01-01T03:03:09.000Z</time>
      </trkpt>
      <trkpt lat="42.64882" lon="0.646121">
        <ele>2970</ele>
        <time>1970-01-01T03:03:10.000Z</time>
      </trkpt>
      <trkpt lat="42.64881" lon="0.646114">
        <ele>2970</ele>
        <time>1970-01-01T03:03:11.000Z</time>
      </trkpt>
      <trkpt lat="42.648798" lon="0.64611">
        <ele>2970</ele>
        <time>1970-01-01T03:03:12.000Z</time>
      </trkpt>
      <trkpt lat="42.648786" lon="0.646107">
        <ele>2969.9</ele>
        <time>1970-01-01T03:03:13.000Z</time>
      </trkpt>
      <trkpt lat="42.648771" lon="0.646097">
        <ele>2969.9</ele>
        <time>1970-01-01T03:03:14.000Z</time>
      </trkpt>
      <trkpt lat="42.64876" lon="0.646089">
        <ele>2971.8</ele>
        <time>1970-01-01T03:03:15.000Z</time>
      </trkpt>
      <trkpt lat="42.648749" lon="0.646087">
        <ele>2971.8</ele>
        <time>1970-01-01T03:03:16.000Z</time>
      </trkpt>
      <trkpt lat="42.648739" lon="0.646092">
        <ele>2969.8</ele>
        <time>1970-01-01T03:03:18.000Z</time>
      </trkpt>
      <trkpt lat="42.648731" lon="0.646098">
        <ele>2969.6</ele>
        <time>1970-01-01T03:03:19.000Z</time>
      </trkpt>
      <trkpt lat="42.64872" lon="0.646101">
        <ele>2969.6</ele>
        <time>1970-01-01T03:03:20.000Z</time>
      </trkpt>
      <trkpt lat="42.648708" lon="0.646101">
        <ele>2969.6</ele>
        <time>1970-01-01T03:03:21.000Z</time>
      </trkpt>
      <trkpt lat="42.648696" lon="0.6461">
        <ele>2969.5</ele>
        <time>1970-01-01T03:03:22.000Z</time>
      </trkpt>
      <trkpt lat="42.648687" lon="0.646099">
        <ele>2969.5</ele>
        <time>1970-01-01T03:03:23.000Z</time>
      </trkpt>
      <trkpt lat="42.648676" lon="0.646096">
        <ele>2969.5</ele>
        <time>1970-01-01T03:03:24.000Z</time>
      </trkpt>
      <trkpt lat="42.648663" lon="0.646091">
        <ele>2969.4</ele>
        <time>1970-01-01T03:03:25.000Z</time>
      </trkpt>
      <trkpt lat="42.648652" lon="0.646085">
        <ele>2971.3</ele>
        <time>1970-01-01T03:03:26.000Z</time>
      </trkpt>
      <trkpt lat="42.648644" lon="0.64608">
        <ele>2971.3</ele>
        <time>1970-01-01T03:03:27.000Z</time>
      </trkpt>
      <trkpt lat="42.648635" lon="0.646073">
        <ele>2971.1</ele>
        <time>1970-01-01T03:03:28.000Z</time>
      </trkpt>
      <trkpt lat="42.648625" lon="0.646066">
        <ele>2971.1</ele>
        <time>1970-01-01T03:03:29.000Z</time>
      </trkpt>
      <trkpt lat="42.648616" lon="0.646061">
        <ele>2971.1</ele>
        <time>1970-01-01T03:03:30.000Z</time>
      </trkpt>
      <trkpt lat="42.648606" lon="0.646062">
        <ele>2970.9</ele>
        <time>1970-01-01T03:03:31.000Z</time>
      </trkpt>
      <trkpt lat="42.648601" lon="0.646068">
        <ele>2970.9</ele>
        <time>1970-01-01T03:03:32.000Z</time>
      </trkpt>
      <trkpt lat="42.648594" lon="0.646079">
        <ele>2970.9</ele>
        <time>1970-01-01T03:03:33.000Z</time>
      </trkpt>
      <trkpt lat="42.648583" lon="0.646093">
        <ele>2969.1</ele>
        <time>1970-01-01T03:03:35.000Z</time>
      </trkpt>
      <trkpt lat="42.648574" lon="0.646099">
        <ele>2969</ele>
        <time>1970-01-01T03:03:36.000Z</time>
      </trkpt>
      <trkpt lat="42.648567" lon="0.6461">
        <ele>2969</ele>
        <time>1970-01-01T03:03:37.000Z</time>
      </trkpt>
      <trkpt lat="42.648559" lon="0.646102">
        <ele>2969</ele>
        <time>1970-01-01T03:03:38.000Z</time>
      </trkpt>
      <trkpt lat="42.648554" lon="0.646105">
        <ele>2969</ele>
        <time>1970-01-01T03:03:39.000Z</time>
      </trkpt>
      <trkpt lat="42.648544" lon="0.646106">
        <ele>2969</ele>
        <time>1970-01-01T03:03:40.000Z</time>
      </trkpt>
      <trkpt lat="42.648536" lon="0.6461">
        <ele>2968.9</ele>
        <time>1970-01-01T03:03:42.000Z</time>
      </trkpt>
      <trkpt lat="42.648534" lon="0.646086">
        <ele>2970.6</ele>
        <time>1970-01-01T03:03:43.000Z</time>
      </trkpt>
      <trkpt lat="42.648528" lon="0.646068">
        <ele>2970.6</ele>
        <time>1970-01-01T03:03:45.000Z</time>
      </trkpt>
      <trkpt lat="42.648523" lon="0.646058">
        <ele>2970.6</ele>
        <time>1970-01-01T03:03:46.000Z</time>
      </trkpt>
      <trkpt lat="42.648519" lon="0.646057">
        <ele>2970.6</ele>
        <time>1970-01-01T03:03:47.000Z</time>
      </trkpt>
      <trkpt lat="42.648519" lon="0.64606">
        <ele>2970.6</ele>
        <time>1970-01-01T03:03:48.000Z</time>
      </trkpt>
      <trkpt lat="42.648522" lon="0.646063">
        <ele>2970.6</ele>
        <time>1970-01-01T03:03:49.000Z</time>
      </trkpt>
      <trkpt lat="42.648524" lon="0.646064">
        <ele>2970.6</ele>
        <time>1970-01-01T03:03:50.000Z</time>
      </trkpt>
      <trkpt lat="42.648527" lon="0.646064">
        <ele>2970.6</ele>
        <time>1970-01-01T03:03:51.000Z</time>
      </trkpt>
      <trkpt lat="42.648529" lon="0.646064">
        <ele>2970.6</ele>
        <time>1970-01-01T03:03:52.000Z</time>
      </trkpt>
      <trkpt lat="42.64853" lon="0.646065">
        <ele>2970.6</ele>
        <time>1970-01-01T03:03:53.000Z</time>
      </trkpt>
      <trkpt lat="42.648531" lon="0.646065">
        <ele>2970.6</ele>
        <time>1970-01-01T03:03:54.000Z</time>
      </trkpt>
      <trkpt lat="42.648531" lon="0.646065">
        <ele>2970.6</ele>
        <time>1970-01-01T03:03:55.000Z</time>
      </trkpt>
      <trkpt lat="42.648532" lon="0.646066">
        <ele>2970.6</ele>
        <time>1970-01-01T03:03:56.000Z</time>
      </trkpt>
      <trkpt lat="42.648532" lon="0.646067">
        <ele>2970.6</ele>
        <time>1970-01-01T03:03:57.000Z</time>
      </trkpt>
      <trkpt lat="42.648532" lon="0.646068">
        <ele>2970.6</ele>
        <time>1970-01-01T03:03:58.000Z</time>
      </trkpt>
      <trkpt lat="42.648531" lon="0.646067">
        <ele>2970.6</ele>
        <time>1970-01-01T03:03:59.000Z</time>
      </trkpt>
      <trkpt lat="42.648528" lon="0.646064">
        <ele>2970.6</ele>
        <time>1970-01-01T03:04:00.000Z</time>
      </trkpt>
      <trkpt lat="42.648524" lon="0.646062">
        <ele>2970.6</ele>
        <time>1970-01-01T03:04:01.000Z</time>
      </trkpt>
      <trkpt lat="42.648517" lon="0.646063">
        <ele>2970.6</ele>
        <time>1970-01-01T03:04:03.000Z</time>
      </trkpt>
      <trkpt lat="42.648512" lon="0.646063">
        <ele>2970.4</ele>
        <time>1970-01-01T03:04:04.000Z</time>
      </trkpt>
      <trkpt lat="42.648512" lon="0.646063">
        <ele>2970.4</ele>
        <time>1970-01-01T03:04:05.000Z</time>
      </trkpt>
      <trkpt lat="42.648512" lon="0.646062">
        <ele>2970.4</ele>
        <time>1970-01-01T03:04:06.000Z</time>
      </trkpt>
      <trkpt lat="42.648513" lon="0.646063">
        <ele>2970.6</ele>
        <time>1970-01-01T03:04:07.000Z</time>
      </trkpt>
      <trkpt lat="42.648514" lon="0.646063">
        <ele>2970.6</ele>
        <time>1970-01-01T03:04:08.000Z</time>
      </trkpt>
      <trkpt lat="42.648515" lon="0.646064">
        <ele>2970.6</ele>
        <time>1970-01-01T03:04:09.000Z</time>
      </trkpt>
      <trkpt lat="42.648515" lon="0.646065">
        <ele>2970.6</ele>
        <time>1970-01-01T03:04:10.000Z</time>
      </trkpt>
      <trkpt lat="42.648516" lon="0.646066">
        <ele>2970.6</ele>
        <time>1970-01-01T03:04:11.000Z</time>
      </trkpt>
      <trkpt lat="42.648515" lon="0.646066">
        <ele>2970.6</ele>
        <time>1970-01-01T03:04:12.000Z</time>
      </trkpt>
      <trkpt lat="42.648513" lon="0.646067">
        <ele>2970.6</ele>
        <time>1970-01-01T03:04:13.000Z</time>
      </trkpt>
      <trkpt lat="42.648509" lon="0.646068">
        <ele>2970.4</ele>
        <time>1970-01-01T03:04:15.000Z</time>
      </trkpt>
      <trkpt lat="42.648508" lon="0.646069">
        <ele>2970.4</ele>
        <time>1970-01-01T03:04:16.000Z</time>
      </trkpt>
      <trkpt lat="42.648505" lon="0.646071">
        <ele>2970.4</ele>
        <time>1970-01-01T03:04:17.000Z</time>
      </trkpt>
      <trkpt lat="42.648503" lon="0.646072">
        <ele>2970.4</ele>
        <time>1970-01-01T03:04:18.000Z</time>
      </trkpt>
      <trkpt lat="42.648502" lon="0.646073">
        <ele>2970.4</ele>
        <time>1970-01-01T03:04:19.000Z</time>
      </trkpt>
      <trkpt lat="42.648495" lon="0.646075">
        <ele>2970.4</ele>
        <time>1970-01-01T03:04:20.000Z</time>
      </trkpt>
      <trkpt lat="42.64849" lon="0.646078">
        <ele>2970.4</ele>
        <time>1970-01-01T03:04:21.000Z</time>
      </trkpt>
      <trkpt lat="42.648482" lon="0.64608">
        <ele>2970.4</ele>
        <time>1970-01-01T03:04:23.000Z</time>
      </trkpt>
      <trkpt lat="42.648472" lon="0.646081">
        <ele>2970.3</ele>
        <time>1970-01-01T03:04:24.000Z</time>
      </trkpt>
      <trkpt lat="42.648465" lon="0.646085">
        <ele>2970.3</ele>
        <time>1970-01-01T03:04:25.000Z</time>
      </trkpt>
      <trkpt lat="42.64846" lon="0.646089">
        <ele>2970.3</ele>
        <time>1970-01-01T03:04:26.000Z</time>
      </trkpt>
      <trkpt lat="42.648451" lon="0.646099">
        <ele>2968.6</ele>
        <time>1970-01-01T03:04:27.000Z</time>
      </trkpt>
      <trkpt lat="42.648441" lon="0.646107">
        <ele>2968.5</ele>
        <time>1970-01-01T03:04:28.000Z</time>
      </trkpt>
      <trkpt lat="42.64843" lon="0.646114">
        <ele>2968.5</ele>
        <time>1970-01-01T03:04:30.000Z</time>
      </trkpt>
      <trkpt lat="42.648419" lon="0.646118">
        <ele>2968.5</ele>
        <time>1970-01-01T03:04:31.000Z</time>
      </trkpt>
      <trkpt lat="42.64841" lon="0.646119">
        <ele>2968.5</ele>
        <time>1970-01-01T03:04:32.000Z</time>
      </trkpt>
      <trkpt lat="42.648401" lon="0.64612">
        <ele>2968.5</ele>
        <time>1970-01-01T03:04:33.000Z</time>
      </trkpt>
      <trkpt lat="42.648394" lon="0.646124">
        <ele>2968.5</ele>
        <time>1970-01-01T03:04:34.000Z</time>
      </trkpt>
      <trkpt lat="42.648388" lon="0.646128">
        <ele>2968.5</ele>
        <time>1970-01-01T03:04:35.000Z</time>
      </trkpt>
      <trkpt lat="42.648377" lon="0.646139">
        <ele>2966.9</ele>
        <time>1970-01-01T03:04:36.000Z</time>
      </trkpt>
      <trkpt lat="42.648369" lon="0.646148">
        <ele>2966.9</ele>
        <time>1970-01-01T03:04:38.000Z</time>
      </trkpt>
      <trkpt lat="42.648361" lon="0.646159">
        <ele>2966.9</ele>
        <time>1970-01-01T03:04:39.000Z</time>
      </trkpt>
      <trkpt lat="42.648355" lon="0.64617">
        <ele>2966.9</ele>
        <time>1970-01-01T03:04:40.000Z</time>
      </trkpt>
      <trkpt lat="42.648351" lon="0.646181">
        <ele>2965.6</ele>
        <time>1970-01-01T03:04:41.000Z</time>
      </trkpt>
      <trkpt lat="42.648349" lon="0.646192">
        <ele>2965.6</ele>
        <time>1970-01-01T03:04:42.000Z</time>
      </trkpt>
      <trkpt lat="42.648348" lon="0.646199">
        <ele>2965.6</ele>
        <time>1970-01-01T03:04:43.000Z</time>
      </trkpt>
      <trkpt lat="42.648348" lon="0.64621">
        <ele>2965.6</ele>
        <time>1970-01-01T03:04:44.000Z</time>
      </trkpt>
      <trkpt lat="42.648347" lon="0.64622">
        <ele>2964.2</ele>
        <time>1970-01-01T03:04:46.000Z</time>
      </trkpt>
      <trkpt lat="42.648345" lon="0.646226">
        <ele>2964.2</ele>
        <time>1970-01-01T03:04:47.000Z</time>
      </trkpt>
      <trkpt lat="42.648341" lon="0.646234">
        <ele>2964.2</ele>
        <time>1970-01-01T03:04:49.000Z</time>
      </trkpt>
      <trkpt lat="42.648337" lon="0.646245">
        <ele>2964.2</ele>
        <time>1970-01-01T03:04:50.000Z</time>
      </trkpt>
      <trkpt lat="42.648335" lon="0.646249">
        <ele>2964.2</ele>
        <time>1970-01-01T03:04:51.000Z</time>
      </trkpt>
      <trkpt lat="42.648334" lon="0.646254">
        <ele>2964.2</ele>
        <time>1970-01-01T03:04:52.000Z</time>
      </trkpt>
      <trkpt lat="42.648326" lon="0.646259">
        <ele>2964.2</ele>
        <time>1970-01-01T03:04:54.000Z</time>
      </trkpt>
      <trkpt lat="42.648318" lon="0.646256">
        <ele>2964.3</ele>
        <time>1970-01-01T03:04:55.000Z</time>
      </trkpt>
      <trkpt lat="42.648311" lon="0.64625">
        <ele>2964.3</ele>
        <time>1970-01-01T03:04:56.000Z</time>
      </trkpt>
      <trkpt lat="42.648303" lon="0.646247">
        <ele>2964.3</ele>
        <time>1970-01-01T03:04:57.000Z</time>
      </trkpt>
      <trkpt lat="42.648298" lon="0.646252">
        <ele>2964.3</ele>
        <time>1970-01-01T03:04:59.000Z</time>
      </trkpt>
      <trkpt lat="42.648295" lon="0.646262">
        <ele>2964.3</ele>
        <time>1970-01-01T03:05:00.000Z</time>
      </trkpt>
      <trkpt lat="42.648292" lon="0.64627">
        <ele>2963.1</ele>
        <time>1970-01-01T03:05:01.000Z</time>
      </trkpt>
      <trkpt lat="42.648287" lon="0.646273">
        <ele>2963.3</ele>
        <time>1970-01-01T03:05:02.000Z</time>
      </trkpt>
      <trkpt lat="42.648282" lon="0.64627">
        <ele>2963.3</ele>
        <time>1970-01-01T03:05:03.000Z</time>
      </trkpt>
      <trkpt lat="42.648273" lon="0.646259">
        <ele>2964.5</ele>
        <time>1970-01-01T03:05:05.000Z</time>
      </trkpt>
      <trkpt lat="42.648263" lon="0.646251">
        <ele>2964.5</ele>
        <time>1970-01-01T03:05:06.000Z</time>
      </trkpt>
      <trkpt lat="42.648254" lon="0.64625">
        <ele>2964.7</ele>
        <time>1970-01-01T03:05:08.000Z</time>
      </trkpt>
      <trkpt lat="42.648243" lon="0.646252">
        <ele>2964.7</ele>
        <time>1970-01-01T03:05:09.000Z</time>
      </trkpt>
      <trkpt lat="42.648237" lon="0.646252">
        <ele>2964.7</ele>
        <time>1970-01-01T03:05:11.000Z</time>
      </trkpt>
      <trkpt lat="42.648237" lon="0.646251">
        <ele>2964.7</ele>
        <time>1970-01-01T03:05:12.000Z</time>
      </trkpt>
      <trkpt lat="42.648239" lon="0.646249">
        <ele>2964.7</ele>
        <time>1970-01-01T03:05:13.000Z</time>
      </trkpt>
      <trkpt lat="42.64824" lon="0.646248">
        <ele>2964.7</ele>
        <time>1970-01-01T03:05:14.000Z</time>
      </trkpt>
      <trkpt lat="42.648241" lon="0.646247">
        <ele>2964.7</ele>
        <time>1970-01-01T03:05:15.000Z</time>
      </trkpt>
      <trkpt lat="42.648239" lon="0.646249">
        <ele>2964.7</ele>
        <time>1970-01-01T03:05:16.000Z</time>
      </trkpt>
      <trkpt lat="42.648234" lon="0.646256">
        <ele>2964.7</ele>
        <time>1970-01-01T03:05:18.000Z</time>
      </trkpt>
      <trkpt lat="42.648233" lon="0.64626">
        <ele>2964.7</ele>
        <time>1970-01-01T03:05:19.000Z</time>
      </trkpt>
      <trkpt lat="42.648231" lon="0.646264">
        <ele>2963.5</ele>
        <time>1970-01-01T03:05:20.000Z</time>
      </trkpt>
      <trkpt lat="42.648231" lon="0.646266">
        <ele>2963.5</ele>
        <time>1970-01-01T03:05:21.000Z</time>
      </trkpt>
      <trkpt lat="42.648232" lon="0.646269">
        <ele>2963.5</ele>
        <time>1970-01-01T03:05:22.000Z</time>
      </trkpt>
      <trkpt lat="42.648233" lon="0.64627">
        <ele>2963.5</ele>
        <time>1970-01-01T03:05:23.000Z</time>
      </trkpt>
      <trkpt lat="42.648233" lon="0.646271">
        <ele>2963.5</ele>
        <time>1970-01-01T03:05:24.000Z</time>
      </trkpt>
      <trkpt lat="42.648233" lon="0.646273">
        <ele>2963.5</ele>
        <time>1970-01-01T03:05:25.000Z</time>
      </trkpt>
      <trkpt lat="42.648232" lon="0.646276">
        <ele>2963.5</ele>
        <time>1970-01-01T03:05:26.000Z</time>
      </trkpt>
      <trkpt lat="42.64823" lon="0.64628">
        <ele>2963.5</ele>
        <time>1970-01-01T03:05:27.000Z</time>
      </trkpt>
      <trkpt lat="42.648229" lon="0.646283">
        <ele>2963.5</ele>
        <time>1970-01-01T03:05:28.000Z</time>
      </trkpt>
      <trkpt lat="42.648228" lon="0.646285">
        <ele>2963.5</ele>
        <time>1970-01-01T03:05:29.000Z</time>
      </trkpt>
      <trkpt lat="42.648227" lon="0.646288">
        <ele>2963.8</ele>
        <time>1970-01-01T03:05:30.000Z</time>
      </trkpt>
      <trkpt lat="42.648225" lon="0.64629">
        <ele>2963.8</ele>
        <time>1970-01-01T03:05:31.000Z</time>
      </trkpt>
      <trkpt lat="42.648224" lon="0.646291">
        <ele>2963.8</ele>
        <time>1970-01-01T03:05:32.000Z</time>
      </trkpt>
      <trkpt lat="42.648224" lon="0.646292">
        <ele>2963.8</ele>
        <time>1970-01-01T03:05:33.000Z</time>
      </trkpt>
      <trkpt lat="42.648223" lon="0.646293">
        <ele>2963.8</ele>
        <time>1970-01-01T03:05:34.000Z</time>
      </trkpt>
      <trkpt lat="42.648223" lon="0.646295">
        <ele>2963.8</ele>
        <time>1970-01-01T03:05:35.000Z</time>
      </trkpt>
      <trkpt lat="42.648221" lon="0.646297">
        <ele>2963.8</ele>
        <time>1970-01-01T03:05:36.000Z</time>
      </trkpt>
      <trkpt lat="42.64822" lon="0.646297">
        <ele>2963.8</ele>
        <time>1970-01-01T03:05:37.000Z</time>
      </trkpt>
      <trkpt lat="42.648219" lon="0.646298">
        <ele>2963.8</ele>
        <time>1970-01-01T03:05:38.000Z</time>
      </trkpt>
      <trkpt lat="42.648218" lon="0.646299">
        <ele>2963.8</ele>
        <time>1970-01-01T03:05:39.000Z</time>
      </trkpt>
      <trkpt lat="42.648216" lon="0.6463">
        <ele>2963.8</ele>
        <time>1970-01-01T03:05:40.000Z</time>
      </trkpt>
      <trkpt lat="42.648215" lon="0.6463">
        <ele>2963.8</ele>
        <time>1970-01-01T03:05:41.000Z</time>
      </trkpt>
      <trkpt lat="42.648212" lon="0.646301">
        <ele>2963.8</ele>
        <time>1970-01-01T03:05:42.000Z</time>
      </trkpt>
      <trkpt lat="42.64821" lon="0.646303">
        <ele>2963.8</ele>
        <time>1970-01-01T03:05:43.000Z</time>
      </trkpt>
      <trkpt lat="42.648209" lon="0.646306">
        <ele>2962.7</ele>
        <time>1970-01-01T03:05:44.000Z</time>
      </trkpt>
      <trkpt lat="42.648208" lon="0.64631">
        <ele>2962.7</ele>
        <time>1970-01-01T03:05:45.000Z</time>
      </trkpt>
      <trkpt lat="42.648208" lon="0.646313">
        <ele>2962.7</ele>
        <time>1970-01-01T03:05:46.000Z</time>
      </trkpt>
      <trkpt lat="42.648207" lon="0.646321">
        <ele>2962.7</ele>
        <time>1970-01-01T03:05:48.000Z</time>
      </trkpt>
      <trkpt lat="42.648203" lon="0.64633">
        <ele>2962.7</ele>
        <time>1970-01-01T03:05:49.000Z</time>
      </trkpt>
      <trkpt lat="42.648201" lon="0.646332">
        <ele>2962.7</ele>
        <time>1970-01-01T03:05:50.000Z</time>
      </trkpt>
      <trkpt lat="42.648198" lon="0.646339">
        <ele>2962.7</ele>
        <time>1970-01-01T03:05:51.000Z</time>
      </trkpt>
      <trkpt lat="42.648195" lon="0.646344">
        <ele>2963.1</ele>
        <time>1970-01-01T03:05:52.000Z</time>
      </trkpt>
      <trkpt lat="42.648193" lon="0.646351">
        <ele>2962.1</ele>
        <time>1970-01-01T03:05:53.000Z</time>
      </trkpt>
      <trkpt lat="42.648192" lon="0.646355">
        <ele>2962.1</ele>
        <time>1970-01-01T03:05:54.000Z</time>
      </trkpt>
      <trkpt lat="42.648191" lon="0.646358">
        <ele>2962.1</ele>
        <time>1970-01-01T03:05:55.000Z</time>
      </trkpt>
      <trkpt lat="42.648189" lon="0.646361">
        <ele>2962.1</ele>
        <time>1970-01-01T03:05:56.000Z</time>
      </trkpt>
      <trkpt lat="42.648186" lon="0.646364">
        <ele>2962.1</ele>
        <time>1970-01-01T03:05:57.000Z</time>
      </trkpt>
      <trkpt lat="42.648182" lon="0.64637">
        <ele>2962.1</ele>
        <time>1970-01-01T03:05:59.000Z</time>
      </trkpt>
      <trkpt lat="42.648181" lon="0.646374">
        <ele>2962.1</ele>
        <time>1970-01-01T03:06:00.000Z</time>
      </trkpt>
      <trkpt lat="42.648182" lon="0.646376">
        <ele>2962.1</ele>
        <time>1970-01-01T03:06:01.000Z</time>
      </trkpt>
      <trkpt lat="42.648183" lon="0.646379">
        <ele>2962.1</ele>
        <time>1970-01-01T03:06:02.000Z</time>
      </trkpt>
      <trkpt lat="42.648184" lon="0.646381">
        <ele>2962.1</ele>
        <time>1970-01-01T03:06:03.000Z</time>
      </trkpt>
      <trkpt lat="42.648184" lon="0.646382">
        <ele>2962.1</ele>
        <time>1970-01-01T03:06:04.000Z</time>
      </trkpt>
      <trkpt lat="42.648184" lon="0.646385">
        <ele>2962.1</ele>
        <time>1970-01-01T03:06:05.000Z</time>
      </trkpt>
      <trkpt lat="42.648183" lon="0.646392">
        <ele>2961.1</ele>
        <time>1970-01-01T03:06:07.000Z</time>
      </trkpt>
      <trkpt lat="42.648183" lon="0.6464">
        <ele>2961.1</ele>
        <time>1970-01-01T03:06:08.000Z</time>
      </trkpt>
      <trkpt lat="42.648185" lon="0.646409">
        <ele>2961.1</ele>
        <time>1970-01-01T03:06:10.000Z</time>
      </trkpt>
      <trkpt lat="42.648186" lon="0.646416">
        <ele>2961.1</ele>
        <time>1970-01-01T03:06:11.000Z</time>
      </trkpt>
      <trkpt lat="42.648186" lon="0.646419">
        <ele>2961.1</ele>
        <time>1970-01-01T03:06:12.000Z</time>
      </trkpt>
      <trkpt lat="42.648185" lon="0.646421">
        <ele>2961.1</ele>
        <time>1970-01-01T03:06:13.000Z</time>
      </trkpt>
      <trkpt lat="42.648185" lon="0.646423">
        <ele>2961.1</ele>
        <time>1970-01-01T03:06:14.000Z</time>
      </trkpt>
      <trkpt lat="42.648181" lon="0.646429">
        <ele>2961.1</ele>
        <time>1970-01-01T03:06:16.000Z</time>
      </trkpt>
      <trkpt lat="42.64818" lon="0.646433">
        <ele>2961.1</ele>
        <time>1970-01-01T03:06:18.000Z</time>
      </trkpt>
      <trkpt lat="42.648177" lon="0.646436">
        <ele>2960.2</ele>
        <time>1970-01-01T03:06:19.000Z</time>
      </trkpt>
      <trkpt lat="42.648175" lon="0.646437">
        <ele>2960.2</ele>
        <time>1970-01-01T03:06:20.000Z</time>
      </trkpt>
      <trkpt lat="42.648172" lon="0.646436">
        <ele>2960.2</ele>
        <time>1970-01-01T03:06:22.000Z</time>
      </trkpt>
      <trkpt lat="42.648169" lon="0.646436">
        <ele>2960.2</ele>
        <time>1970-01-01T03:06:23.000Z</time>
      </trkpt>
      <trkpt lat="42.648166" lon="0.646438">
        <ele>2960.2</ele>
        <time>1970-01-01T03:06:24.000Z</time>
      </trkpt>
      <trkpt lat="42.648162" lon="0.646444">
        <ele>2960.7</ele>
        <time>1970-01-01T03:06:26.000Z</time>
      </trkpt>
      <trkpt lat="42.64816" lon="0.646454">
        <ele>2960.7</ele>
        <time>1970-01-01T03:06:27.000Z</time>
      </trkpt>
      <trkpt lat="42.64816" lon="0.64646">
        <ele>2960.7</ele>
        <time>1970-01-01T03:06:28.000Z</time>
      </trkpt>
      <trkpt lat="42.648161" lon="0.646466">
        <ele>2960.7</ele>
        <time>1970-01-01T03:06:29.000Z</time>
      </trkpt>
      <trkpt lat="42.648162" lon="0.646469">
        <ele>2960.7</ele>
        <time>1970-01-01T03:06:30.000Z</time>
      </trkpt>
      <trkpt lat="42.648162" lon="0.64647">
        <ele>2960.7</ele>
        <time>1970-01-01T03:06:31.000Z</time>
      </trkpt>
      <trkpt lat="42.648163" lon="0.646474">
        <ele>2960.7</ele>
        <time>1970-01-01T03:06:32.000Z</time>
      </trkpt>
      <trkpt lat="42.648164" lon="0.646478">
        <ele>2959.8</ele>
        <time>1970-01-01T03:06:33.000Z</time>
      </trkpt>
      <trkpt lat="42.648164" lon="0.646481">
        <ele>2959.8</ele>
        <time>1970-01-01T03:06:34.000Z</time>
      </trkpt>
      <trkpt lat="42.648164" lon="0.646484">
        <ele>2959.8</ele>
        <time>1970-01-01T03:06:36.000Z</time>
      </trkpt>
      <trkpt lat="42.648163" lon="0.646489">
        <ele>2959.8</ele>
        <time>1970-01-01T03:06:37.000Z</time>
      </trkpt>
      <trkpt lat="42.648162" lon="0.646493">
        <ele>2959.8</ele>
        <time>1970-01-01T03:06:38.000Z</time>
      </trkpt>
      <trkpt lat="42.648159" lon="0.64651">
        <ele>2959.8</ele>
        <time>1970-01-01T03:06:39.000Z</time>
      </trkpt>
      <trkpt lat="42.648157" lon="0.646522">
        <ele>2958.9</ele>
        <time>1970-01-01T03:06:41.000Z</time>
      </trkpt>
      <trkpt lat="42.648156" lon="0.646529">
        <ele>2958.9</ele>
        <time>1970-01-01T03:06:42.000Z</time>
      </trkpt>
      <trkpt lat="42.648153" lon="0.646539">
        <ele>2958.9</ele>
        <time>1970-01-01T03:06:43.000Z</time>
      </trkpt>
      <trkpt lat="42.648151" lon="0.646546">
        <ele>2958.9</ele>
        <time>1970-01-01T03:06:44.000Z</time>
      </trkpt>
      <trkpt lat="42.64815" lon="0.646549">
        <ele>2958.9</ele>
        <time>1970-01-01T03:06:45.000Z</time>
      </trkpt>
      <trkpt lat="42.64815" lon="0.646555">
        <ele>2958.9</ele>
        <time>1970-01-01T03:06:46.000Z</time>
      </trkpt>
      <trkpt lat="42.648148" lon="0.646561">
        <ele>2958.9</ele>
        <time>1970-01-01T03:06:47.000Z</time>
      </trkpt>
      <trkpt lat="42.648147" lon="0.646565">
        <ele>2958</ele>
        <time>1970-01-01T03:06:48.000Z</time>
      </trkpt>
      <trkpt lat="42.648141" lon="0.646576">
        <ele>2958</ele>
        <time>1970-01-01T03:06:50.000Z</time>
      </trkpt>
      <trkpt lat="42.64814" lon="0.646578">
        <ele>2958</ele>
        <time>1970-01-01T03:06:51.000Z</time>
      </trkpt>
      <trkpt lat="42.648138" lon="0.646581">
        <ele>2958</ele>
        <time>1970-01-01T03:06:52.000Z</time>
      </trkpt>
      <trkpt lat="42.648136" lon="0.646585">
        <ele>2958</ele>
        <time>1970-01-01T03:06:53.000Z</time>
      </trkpt>
      <trkpt lat="42.648131" lon="0.646592">
        <ele>2958.6</ele>
        <time>1970-01-01T03:06:54.000Z</time>
      </trkpt>
      <trkpt lat="42.648122" lon="0.646605">
        <ele>2958.6</ele>
        <time>1970-01-01T03:06:55.000Z</time>
      </trkpt>
      <trkpt lat="42.648117" lon="0.646615">
        <ele>2957.7</ele>
        <time>1970-01-01T03:06:56.000Z</time>
      </trkpt>
      <trkpt lat="42.648104" lon="0.646641">
        <ele>2957.7</ele>
        <time>1970-01-01T03:06:58.000Z</time>
      </trkpt>
      <trkpt lat="42.6481" lon="0.646652">
        <ele>2957.5</ele>
        <time>1970-01-01T03:06:59.000Z</time>
      </trkpt>
      <trkpt lat="42.648096" lon="0.646665">
        <ele>2957.5</ele>
        <time>1970-01-01T03:07:01.000Z</time>
      </trkpt>
      <trkpt lat="42.648093" lon="0.646678">
        <ele>2957.5</ele>
        <time>1970-01-01T03:07:02.000Z</time>
      </trkpt>
      <trkpt lat="42.648091" lon="0.646689">
        <ele>2957.5</ele>
        <time>1970-01-01T03:07:03.000Z</time>
      </trkpt>
      <trkpt lat="42.648089" lon="0.646701">
        <ele>2956.7</ele>
        <time>1970-01-01T03:07:04.000Z</time>
      </trkpt>
      <trkpt lat="42.648087" lon="0.646716">
        <ele>2956.7</ele>
        <time>1970-01-01T03:07:06.000Z</time>
      </trkpt>
      <trkpt lat="42.648086" lon="0.646729">
        <ele>2956.7</ele>
        <time>1970-01-01T03:07:07.000Z</time>
      </trkpt>
      <trkpt lat="42.648086" lon="0.646737">
        <ele>2956</ele>
        <time>1970-01-01T03:07:08.000Z</time>
      </trkpt>
      <trkpt lat="42.648089" lon="0.646738">
        <ele>2956</ele>
        <time>1970-01-01T03:07:09.000Z</time>
      </trkpt>
      <trkpt lat="42.648091" lon="0.646736">
        <ele>2956</ele>
        <time>1970-01-01T03:07:10.000Z</time>
      </trkpt>
      <trkpt lat="42.648092" lon="0.646734">
        <ele>2956.7</ele>
        <time>1970-01-01T03:07:11.000Z</time>
      </trkpt>
      <trkpt lat="42.648094" lon="0.646732">
        <ele>2956.7</ele>
        <time>1970-01-01T03:07:12.000Z</time>
      </trkpt>
      <trkpt lat="42.648094" lon="0.646734">
        <ele>2956.7</ele>
        <time>1970-01-01T03:07:14.000Z</time>
      </trkpt>
      <trkpt lat="42.648094" lon="0.646739">
        <ele>2956</ele>
        <time>1970-01-01T03:07:16.000Z</time>
      </trkpt>
      <trkpt lat="42.648093" lon="0.646742">
        <ele>2956</ele>
        <time>1970-01-01T03:07:17.000Z</time>
      </trkpt>
      <trkpt lat="42.64809" lon="0.646747">
        <ele>2956</ele>
        <time>1970-01-01T03:07:18.000Z</time>
      </trkpt>
      <trkpt lat="42.648087" lon="0.646753">
        <ele>2956</ele>
        <time>1970-01-01T03:07:19.000Z</time>
      </trkpt>
      <trkpt lat="42.648079" lon="0.646773">
        <ele>2956</ele>
        <time>1970-01-01T03:07:21.000Z</time>
      </trkpt>
      <trkpt lat="42.648076" lon="0.646778">
        <ele>2955.3</ele>
        <time>1970-01-01T03:07:22.000Z</time>
      </trkpt>
      <trkpt lat="42.648072" lon="0.646786">
        <ele>2955.3</ele>
        <time>1970-01-01T03:07:23.000Z</time>
      </trkpt>
      <trkpt lat="42.648069" lon="0.646791">
        <ele>2956</ele>
        <time>1970-01-01T03:07:24.000Z</time>
      </trkpt>
      <trkpt lat="42.648068" lon="0.646794">
        <ele>2956</ele>
        <time>1970-01-01T03:07:25.000Z</time>
      </trkpt>
      <trkpt lat="42.648066" lon="0.646796">
        <ele>2956</ele>
        <time>1970-01-01T03:07:26.000Z</time>
      </trkpt>
      <trkpt lat="42.648065" lon="0.646797">
        <ele>2956</ele>
        <time>1970-01-01T03:07:27.000Z</time>
      </trkpt>
      <trkpt lat="42.648065" lon="0.646797">
        <ele>2956</ele>
        <time>1970-01-01T03:07:28.000Z</time>
      </trkpt>
      <trkpt lat="42.648065" lon="0.646797">
        <ele>2956</ele>
        <time>1970-01-01T03:07:29.000Z</time>
      </trkpt>
      <trkpt lat="42.648066" lon="0.646797">
        <ele>2956</ele>
        <time>1970-01-01T03:07:30.000Z</time>
      </trkpt>
      <trkpt lat="42.648066" lon="0.646798">
        <ele>2956</ele>
        <time>1970-01-01T03:07:31.000Z</time>
      </trkpt>
      <trkpt lat="42.648066" lon="0.646798">
        <ele>2956</ele>
        <time>1970-01-01T03:07:32.000Z</time>
      </trkpt>
      <trkpt lat="42.648066" lon="0.646798">
        <ele>2956</ele>
        <time>1970-01-01T03:07:33.000Z</time>
      </trkpt>
      <trkpt lat="42.648066" lon="0.646798">
        <ele>2956</ele>
        <time>1970-01-01T03:07:34.000Z</time>
      </trkpt>
      <trkpt lat="42.648065" lon="0.6468">
        <ele>2956</ele>
        <time>1970-01-01T03:07:35.000Z</time>
      </trkpt>
      <trkpt lat="42.648064" lon="0.646802">
        <ele>2956</ele>
        <time>1970-01-01T03:07:36.000Z</time>
      </trkpt>
      <trkpt lat="42.648064" lon="0.646803">
        <ele>2956</ele>
        <time>1970-01-01T03:07:37.000Z</time>
      </trkpt>
      <trkpt lat="42.648063" lon="0.646805">
        <ele>2956</ele>
        <time>1970-01-01T03:07:38.000Z</time>
      </trkpt>
      <trkpt lat="42.648062" lon="0.646808">
        <ele>2956</ele>
        <time>1970-01-01T03:07:39.000Z</time>
      </trkpt>
      <trkpt lat="42.648062" lon="0.646811">
        <ele>2956</ele>
        <time>1970-01-01T03:07:40.000Z</time>
      </trkpt>
      <trkpt lat="42.648062" lon="0.646817">
        <ele>2956</ele>
        <time>1970-01-01T03:07:42.000Z</time>
      </trkpt>
      <trkpt lat="42.648062" lon="0.646821">
        <ele>2955.4</ele>
        <time>1970-01-01T03:07:43.000Z</time>
      </trkpt>
      <trkpt lat="42.64806" lon="0.646826">
        <ele>2955.4</ele>
        <time>1970-01-01T03:07:44.000Z</time>
      </trkpt>
      <trkpt lat="42.648059" lon="0.646827">
        <ele>2955.4</ele>
        <time>1970-01-01T03:07:45.000Z</time>
      </trkpt>
      <trkpt lat="42.648056" lon="0.64683">
        <ele>2955.4</ele>
        <time>1970-01-01T03:07:47.000Z</time>
      </trkpt>
      <trkpt lat="42.648052" lon="0.646836">
        <ele>2955.4</ele>
        <time>1970-01-01T03:07:48.000Z</time>
      </trkpt>
      <trkpt lat="42.648049" lon="0.646837">
        <ele>2955.4</ele>
        <time>1970-01-01T03:07:49.000Z</time>
      </trkpt>
      <trkpt lat="42.648046" lon="0.646839">
        <ele>2955.4</ele>
        <time>1970-01-01T03:07:50.000Z</time>
      </trkpt>
      <trkpt lat="42.648041" lon="0.646841">
        <ele>2955.4</ele>
        <time>1970-01-01T03:07:51.000Z</time>
      </trkpt>
      <trkpt lat="42.648035" lon="0.646846">
        <ele>2956.1</ele>
        <time>1970-01-01T03:07:52.000Z</time>
      </trkpt>
      <trkpt lat="42.648031" lon="0.646851">
        <ele>2956.1</ele>
        <time>1970-01-01T03:07:53.000Z</time>
      </trkpt>
      <trkpt lat="42.648027" lon="0.646858">
        <ele>2956.1</ele>
        <time>1970-01-01T03:07:54.000Z</time>
      </trkpt>
      <trkpt lat="42.648018" lon="0.646874">
        <ele>2955.5</ele>
        <time>1970-01-01T03:07:56.000Z</time>
      </trkpt>
      <trkpt lat="42.648013" lon="0.646878">
        <ele>2955.5</ele>
        <time>1970-01-01T03:07:57.000Z</time>
      </trkpt>
      <trkpt lat="42.648008" lon="0.646882">
        <ele>2955.5</ele>
        <time>1970-01-01T03:07:58.000Z</time>
      </trkpt>
      <trkpt lat="42.648" lon="0.646888">
        <ele>2956.2</ele>
        <time>1970-01-01T03:07:59.000Z</time>
      </trkpt>
      <trkpt lat="42.647995" lon="0.646896">
        <ele>2956.2</ele>
        <time>1970-01-01T03:08:00.000Z</time>
      </trkpt>
      <trkpt lat="42.647989" lon="0.646903">
        <ele>2956.2</ele>
        <time>1970-01-01T03:08:01.000Z</time>
      </trkpt>
      <trkpt lat="42.647984" lon="0.64691">
        <ele>2955.7</ele>
        <time>1970-01-01T03:08:02.000Z</time>
      </trkpt>
      <trkpt lat="42.647979" lon="0.646915">
        <ele>2955.7</ele>
        <time>1970-01-01T03:08:03.000Z</time>
      </trkpt>
      <trkpt lat="42.647973" lon="0.646926">
        <ele>2956.4</ele>
        <time>1970-01-01T03:08:05.000Z</time>
      </trkpt>
      <trkpt lat="42.647968" lon="0.646936">
        <ele>2956.4</ele>
        <time>1970-01-01T03:08:06.000Z</time>
      </trkpt>
      <trkpt lat="42.647968" lon="0.646948">
        <ele>2956.4</ele>
        <time>1970-01-01T03:08:08.000Z</time>
      </trkpt>
      <trkpt lat="42.647969" lon="0.646952">
        <ele>2955.8</ele>
        <time>1970-01-01T03:08:09.000Z</time>
      </trkpt>
      <trkpt lat="42.647967" lon="0.646958">
        <ele>2955.8</ele>
        <time>1970-01-01T03:08:10.000Z</time>
      </trkpt>
      <trkpt lat="42.647965" lon="0.646962">
        <ele>2955.8</ele>
        <time>1970-01-01T03:08:11.000Z</time>
      </trkpt>
      <trkpt lat="42.647965" lon="0.646964">
        <ele>2955.8</ele>
        <time>1970-01-01T03:08:12.000Z</time>
      </trkpt>
      <trkpt lat="42.647963" lon="0.646965">
        <ele>2955.8</ele>
        <time>1970-01-01T03:08:14.000Z</time>
      </trkpt>
      <trkpt lat="42.647958" lon="0.646968">
        <ele>2955.8</ele>
        <time>1970-01-01T03:08:15.000Z</time>
      </trkpt>
      <trkpt lat="42.647956" lon="0.646969">
        <ele>2955.8</ele>
        <time>1970-01-01T03:08:16.000Z</time>
      </trkpt>
      <trkpt lat="42.647952" lon="0.646974">
        <ele>2955.8</ele>
        <time>1970-01-01T03:08:18.000Z</time>
      </trkpt>
      <trkpt lat="42.647948" lon="0.646984">
        <ele>2955.8</ele>
        <time>1970-01-01T03:08:19.000Z</time>
      </trkpt>
      <trkpt lat="42.647939" lon="0.646989">
        <ele>2956.5</ele>
        <time>1970-01-01T03:08:21.000Z</time>
      </trkpt>
      <trkpt lat="42.647931" lon="0.646999">
        <ele>2955.9</ele>
        <time>1970-01-01T03:08:22.000Z</time>
      </trkpt>
      <trkpt lat="42.647923" lon="0.647004">
        <ele>2955.9</ele>
        <time>1970-01-01T03:08:23.000Z</time>
      </trkpt>
      <trkpt lat="42.647917" lon="0.647007">
        <ele>2955.9</ele>
        <time>1970-01-01T03:08:24.000Z</time>
      </trkpt>
      <trkpt lat="42.647911" lon="0.647016">
        <ele>2956.6</ele>
        <time>1970-01-01T03:08:25.000Z</time>
      </trkpt>
      <trkpt lat="42.647909" lon="0.647025">
        <ele>2956.6</ele>
        <time>1970-01-01T03:08:27.000Z</time>
      </trkpt>
      <trkpt lat="42.647905" lon="0.64703">
        <ele>2956.6</ele>
        <time>1970-01-01T03:08:28.000Z</time>
      </trkpt>
      <trkpt lat="42.647896" lon="0.647036">
        <ele>2956</ele>
        <time>1970-01-01T03:08:29.000Z</time>
      </trkpt>
      <trkpt lat="42.647891" lon="0.647044">
        <ele>2956</ele>
        <time>1970-01-01T03:08:31.000Z</time>
      </trkpt>
      <trkpt lat="42.647887" lon="0.647046">
        <ele>2956</ele>
        <time>1970-01-01T03:08:32.000Z</time>
      </trkpt>
      <trkpt lat="42.647883" lon="0.647046">
        <ele>2956</ele>
        <time>1970-01-01T03:08:33.000Z</time>
      </trkpt>
      <trkpt lat="42.64787" lon="0.647047">
        <ele>2956.7</ele>
        <time>1970-01-01T03:08:35.000Z</time>
      </trkpt>
      <trkpt lat="42.647863" lon="0.647049">
        <ele>2956.7</ele>
        <time>1970-01-01T03:08:36.000Z</time>
      </trkpt>
      <trkpt lat="42.647857" lon="0.64705">
        <ele>2956.7</ele>
        <time>1970-01-01T03:08:37.000Z</time>
      </trkpt>
      <trkpt lat="42.647851" lon="0.647051">
        <ele>2956.7</ele>
        <time>1970-01-01T03:08:39.000Z</time>
      </trkpt>
      <trkpt lat="42.647846" lon="0.647049">
        <ele>2957.4</ele>
        <time>1970-01-01T03:08:40.000Z</time>
      </trkpt>
      <trkpt lat="42.647842" lon="0.647048">
        <ele>2957.4</ele>
        <time>1970-01-01T03:08:41.000Z</time>
      </trkpt>
      <trkpt lat="42.647838" lon="0.647049">
        <ele>2957.4</ele>
        <time>1970-01-01T03:08:42.000Z</time>
      </trkpt>
      <trkpt lat="42.647833" lon="0.647049">
        <ele>2957.4</ele>
        <time>1970-01-01T03:08:43.000Z</time>
      </trkpt>
      <trkpt lat="42.647831" lon="0.647049">
        <ele>2957.4</ele>
        <time>1970-01-01T03:08:44.000Z</time>
      </trkpt>
      <trkpt lat="42.64783" lon="0.647048">
        <ele>2957.4</ele>
        <time>1970-01-01T03:08:45.000Z</time>
      </trkpt>
      <trkpt lat="42.647829" lon="0.647048">
        <ele>2957.4</ele>
        <time>1970-01-01T03:08:46.000Z</time>
      </trkpt>
      <trkpt lat="42.647826" lon="0.64705">
        <ele>2957.4</ele>
        <time>1970-01-01T03:08:47.000Z</time>
      </trkpt>
      <trkpt lat="42.647822" lon="0.647051">
        <ele>2957.4</ele>
        <time>1970-01-01T03:08:48.000Z</time>
      </trkpt>
      <trkpt lat="42.647821" lon="0.64705">
        <ele>2957.4</ele>
        <time>1970-01-01T03:08:49.000Z</time>
      </trkpt>
      <trkpt lat="42.647812" lon="0.647043">
        <ele>2958.2</ele>
        <time>1970-01-01T03:08:51.000Z</time>
      </trkpt>
      <trkpt lat="42.647808" lon="0.647037">
        <ele>2958.2</ele>
        <time>1970-01-01T03:08:52.000Z</time>
      </trkpt>
      <trkpt lat="42.647803" lon="0.647031">
        <ele>2958.8</ele>
        <time>1970-01-01T03:08:53.000Z</time>
      </trkpt>
      <trkpt lat="42.647801" lon="0.647029">
        <ele>2958.8</ele>
        <time>1970-01-01T03:08:54.000Z</time>
      </trkpt>
      <trkpt lat="42.6478" lon="0.647025">
        <ele>2958.8</ele>
        <time>1970-01-01T03:08:56.000Z</time>
      </trkpt>
      <trkpt lat="42.6478" lon="0.647022">
        <ele>2958.8</ele>
        <time>1970-01-01T03:08:57.000Z</time>
      </trkpt>
      <trkpt lat="42.647799" lon="0.647019">
        <ele>2958.8</ele>
        <time>1970-01-01T03:08:58.000Z</time>
      </trkpt>
      <trkpt lat="42.647798" lon="0.647018">
        <ele>2958.8</ele>
        <time>1970-01-01T03:08:59.000Z</time>
      </trkpt>
      <trkpt lat="42.647796" lon="0.647015">
        <ele>2958.8</ele>
        <time>1970-01-01T03:09:01.000Z</time>
      </trkpt>
      <trkpt lat="42.647793" lon="0.647012">
        <ele>2958.8</ele>
        <time>1970-01-01T03:09:02.000Z</time>
      </trkpt>
      <trkpt lat="42.647791" lon="0.647011">
        <ele>2958.8</ele>
        <time>1970-01-01T03:09:03.000Z</time>
      </trkpt>
      <trkpt lat="42.647783" lon="0.647013">
        <ele>2959.5</ele>
        <time>1970-01-01T03:09:05.000Z</time>
      </trkpt>
      <trkpt lat="42.647777" lon="0.647016">
        <ele>2959.5</ele>
        <time>1970-01-01T03:09:06.000Z</time>
      </trkpt>
      <trkpt lat="42.647769" lon="0.647017">
        <ele>2959.5</ele>
        <time>1970-01-01T03:09:07.000Z</time>
      </trkpt>
      <trkpt lat="42.647766" lon="0.647016">
        <ele>2959.5</ele>
        <time>1970-01-01T03:09:08.000Z</time>
      </trkpt>
      <trkpt lat="42.647763" lon="0.647016">
        <ele>2959.5</ele>
        <time>1970-01-01T03:09:10.000Z</time>
      </trkpt>
      <trkpt lat="42.64776" lon="0.647016">
        <ele>2959.5</ele>
        <time>1970-01-01T03:09:11.000Z</time>
      </trkpt>
      <trkpt lat="42.647757" lon="0.647015">
        <ele>2959.5</ele>
        <time>1970-01-01T03:09:12.000Z</time>
      </trkpt>
      <trkpt lat="42.647754" lon="0.647015">
        <ele>2960.2</ele>
        <time>1970-01-01T03:09:13.000Z</time>
      </trkpt>
      <trkpt lat="42.64775" lon="0.647014">
        <ele>2960.2</ele>
        <time>1970-01-01T03:09:14.000Z</time>
      </trkpt>
      <trkpt lat="42.647747" lon="0.647014">
        <ele>2960.2</ele>
        <time>1970-01-01T03:09:15.000Z</time>
      </trkpt>
      <trkpt lat="42.647744" lon="0.647013">
        <ele>2960.2</ele>
        <time>1970-01-01T03:09:16.000Z</time>
      </trkpt>
      <trkpt lat="42.647741" lon="0.647013">
        <ele>2960.2</ele>
        <time>1970-01-01T03:09:17.000Z</time>
      </trkpt>
      <trkpt lat="42.647738" lon="0.647013">
        <ele>2960.2</ele>
        <time>1970-01-01T03:09:18.000Z</time>
      </trkpt>
      <trkpt lat="42.647735" lon="0.647012">
        <ele>2960.2</ele>
        <time>1970-01-01T03:09:20.000Z</time>
      </trkpt>
      <trkpt lat="42.647732" lon="0.647012">
        <ele>2960.2</ele>
        <time>1970-01-01T03:09:21.000Z</time>
      </trkpt>
      <trkpt lat="42.647729" lon="0.647011">
        <ele>2960.2</ele>
        <time>1970-01-01T03:09:22.000Z</time>
      </trkpt>
      <trkpt lat="42.647726" lon="0.647011">
        <ele>2960.2</ele>
        <time>1970-01-01T03:09:23.000Z</time>
      </trkpt>
      <trkpt lat="42.647722" lon="0.64701">
        <ele>2961</ele>
        <time>1970-01-01T03:09:24.000Z</time>
      </trkpt>
      <trkpt lat="42.647719" lon="0.64701">
        <ele>2961</ele>
        <time>1970-01-01T03:09:25.000Z</time>
      </trkpt>
      <trkpt lat="42.647716" lon="0.64701">
        <ele>2961</ele>
        <time>1970-01-01T03:09:26.000Z</time>
      </trkpt>
      <trkpt lat="42.647708" lon="0.647008">
        <ele>2961</ele>
        <time>1970-01-01T03:09:27.000Z</time>
      </trkpt>
      <trkpt lat="42.647697" lon="0.647006">
        <ele>2961</ele>
        <time>1970-01-01T03:09:29.000Z</time>
      </trkpt>
      <trkpt lat="42.647694" lon="0.647005">
        <ele>2961</ele>
        <time>1970-01-01T03:09:30.000Z</time>
      </trkpt>
      <trkpt lat="42.647691" lon="0.647004">
        <ele>2961.6</ele>
        <time>1970-01-01T03:09:31.000Z</time>
      </trkpt>
      <trkpt lat="42.64769" lon="0.647003">
        <ele>2961.6</ele>
        <time>1970-01-01T03:09:32.000Z</time>
      </trkpt>
      <trkpt lat="42.647689" lon="0.646999">
        <ele>2961.6</ele>
        <time>1970-01-01T03:09:33.000Z</time>
      </trkpt>
      <trkpt lat="42.647684" lon="0.646991">
        <ele>2962.3</ele>
        <time>1970-01-01T03:09:35.000Z</time>
      </trkpt>
      <trkpt lat="42.64768" lon="0.646987">
        <ele>2962.3</ele>
        <time>1970-01-01T03:09:36.000Z</time>
      </trkpt>
      <trkpt lat="42.647673" lon="0.646984">
        <ele>2962.3</ele>
        <time>1970-01-01T03:09:37.000Z</time>
      </trkpt>
      <trkpt lat="42.647668" lon="0.646985">
        <ele>2962.3</ele>
        <time>1970-01-01T03:09:38.000Z</time>
      </trkpt>
      <trkpt lat="42.64766" lon="0.646983">
        <ele>2962.3</ele>
        <time>1970-01-01T03:09:40.000Z</time>
      </trkpt>
      <trkpt lat="42.647651" lon="0.646983">
        <ele>2962.9</ele>
        <time>1970-01-01T03:09:41.000Z</time>
      </trkpt>
      <trkpt lat="42.647647" lon="0.646985">
        <ele>2962.9</ele>
        <time>1970-01-01T03:09:42.000Z</time>
      </trkpt>
      <trkpt lat="42.647646" lon="0.646988">
        <ele>2962.9</ele>
        <time>1970-01-01T03:09:43.000Z</time>
      </trkpt>
      <trkpt lat="42.647644" lon="0.646989">
        <ele>2962.9</ele>
        <time>1970-01-01T03:09:45.000Z</time>
      </trkpt>
      <trkpt lat="42.64764" lon="0.646987">
        <ele>2962.9</ele>
        <time>1970-01-01T03:09:46.000Z</time>
      </trkpt>
      <trkpt lat="42.647635" lon="0.646984">
        <ele>2962.9</ele>
        <time>1970-01-01T03:09:47.000Z</time>
      </trkpt>
      <trkpt lat="42.647625" lon="0.646982">
        <ele>2963.5</ele>
        <time>1970-01-01T03:09:49.000Z</time>
      </trkpt>
      <trkpt lat="42.64762" lon="0.646977">
        <ele>2963.5</ele>
        <time>1970-01-01T03:09:50.000Z</time>
      </trkpt>
      <trkpt lat="42.647617" lon="0.646967">
        <ele>2963.5</ele>
        <time>1970-01-01T03:09:52.000Z</time>
      </trkpt>
      <trkpt lat="42.647614" lon="0.646957">
        <ele>2963.5</ele>
        <time>1970-01-01T03:09:53.000Z</time>
      </trkpt>
      <trkpt lat="42.647614" lon="0.646949">
        <ele>2963.5</ele>
        <time>1970-01-01T03:09:54.000Z</time>
      </trkpt>
      <trkpt lat="42.647614" lon="0.646946">
        <ele>2964.2</ele>
        <time>1970-01-01T03:09:55.000Z</time>
      </trkpt>
      <trkpt lat="42.647615" lon="0.646945">
        <ele>2964.2</ele>
        <time>1970-01-01T03:09:56.000Z</time>
      </trkpt>
      <trkpt lat="42.647616" lon="0.646946">
        <ele>2964.2</ele>
        <time>1970-01-01T03:09:57.000Z</time>
      </trkpt>
      <trkpt lat="42.647616" lon="0.646944">
        <ele>2964.2</ele>
        <time>1970-01-01T03:09:58.000Z</time>
      </trkpt>
      <trkpt lat="42.647614" lon="0.64694">
        <ele>2964.2</ele>
        <time>1970-01-01T03:09:59.000Z</time>
      </trkpt>
      <trkpt lat="42.647613" lon="0.646937">
        <ele>2964.2</ele>
        <time>1970-01-01T03:10:00.000Z</time>
      </trkpt>
      <trkpt lat="42.647612" lon="0.646936">
        <ele>2964.2</ele>
        <time>1970-01-01T03:10:01.000Z</time>
      </trkpt>
      <trkpt lat="42.647613" lon="0.646936">
        <ele>2964.2</ele>
        <time>1970-01-01T03:10:02.000Z</time>
      </trkpt>
      <trkpt lat="42.647611" lon="0.646932">
        <ele>2964.2</ele>
        <time>1970-01-01T03:10:03.000Z</time>
      </trkpt>
      <trkpt lat="42.647608" lon="0.64693">
        <ele>2964.2</ele>
        <time>1970-01-01T03:10:04.000Z</time>
      </trkpt>
      <trkpt lat="42.647604" lon="0.646926">
        <ele>2964.2</ele>
        <time>1970-01-01T03:10:06.000Z</time>
      </trkpt>
      <trkpt lat="42.647602" lon="0.646922">
        <ele>2964.2</ele>
        <time>1970-01-01T03:10:07.000Z</time>
      </trkpt>
      <trkpt lat="42.647602" lon="0.64692">
        <ele>2964.2</ele>
        <time>1970-01-01T03:10:08.000Z</time>
      </trkpt>
      <trkpt lat="42.647602" lon="0.646919">
        <ele>2964.2</ele>
        <time>1970-01-01T03:10:09.000Z</time>
      </trkpt>
      <trkpt lat="42.647602" lon="0.646918">
        <ele>2964.2</ele>
        <time>1970-01-01T03:10:10.000Z</time>
      </trkpt>
      <trkpt lat="42.6476" lon="0.646915">
        <ele>2964.2</ele>
        <time>1970-01-01T03:10:11.000Z</time>
      </trkpt>
      <trkpt lat="42.647598" lon="0.646914">
        <ele>2964.2</ele>
        <time>1970-01-01T03:10:12.000Z</time>
      </trkpt>
      <trkpt lat="42.647596" lon="0.646913">
        <ele>2964.8</ele>
        <time>1970-01-01T03:10:13.000Z</time>
      </trkpt>
      <trkpt lat="42.64759" lon="0.646909">
        <ele>2964.8</ele>
        <time>1970-01-01T03:10:15.000Z</time>
      </trkpt>
      <trkpt lat="42.647591" lon="0.646908">
        <ele>2964.8</ele>
        <time>1970-01-01T03:10:16.000Z</time>
      </trkpt>
      <trkpt lat="42.647592" lon="0.646908">
        <ele>2964.8</ele>
        <time>1970-01-01T03:10:17.000Z</time>
      </trkpt>
      <trkpt lat="42.647593" lon="0.646906">
        <ele>2964.8</ele>
        <time>1970-01-01T03:10:18.000Z</time>
      </trkpt>
      <trkpt lat="42.647594" lon="0.646906">
        <ele>2964.8</ele>
        <time>1970-01-01T03:10:19.000Z</time>
      </trkpt>
      <trkpt lat="42.647595" lon="0.646903">
        <ele>2965.4</ele>
        <time>1970-01-01T03:10:20.000Z</time>
      </trkpt>
      <trkpt lat="42.647595" lon="0.646899">
        <ele>2965.4</ele>
        <time>1970-01-01T03:10:21.000Z</time>
      </trkpt>
      <trkpt lat="42.647594" lon="0.646893">
        <ele>2965.4</ele>
        <time>1970-01-01T03:10:22.000Z</time>
      </trkpt>
      <trkpt lat="42.64759" lon="0.646885">
        <ele>2965.4</ele>
        <time>1970-01-01T03:10:23.000Z</time>
      </trkpt>
      <trkpt lat="42.647585" lon="0.646877">
        <ele>2965.4</ele>
        <time>1970-01-01T03:10:24.000Z</time>
      </trkpt>
      <trkpt lat="42.647581" lon="0.646869">
        <ele>2965.4</ele>
        <time>1970-01-01T03:10:25.000Z</time>
      </trkpt>
      <trkpt lat="42.647579" lon="0.646862">
        <ele>2966</ele>
        <time>1970-01-01T03:10:26.000Z</time>
      </trkpt>
      <trkpt lat="42.647578" lon="0.646858">
        <ele>2966</ele>
        <time>1970-01-01T03:10:27.000Z</time>
      </trkpt>
      <trkpt lat="42.647577" lon="0.646852">
        <ele>2966</ele>
        <time>1970-01-01T03:10:28.000Z</time>
      </trkpt>
      <trkpt lat="42.647576" lon="0.646844">
        <ele>2966</ele>
        <time>1970-01-01T03:10:29.000Z</time>
      </trkpt>
      <trkpt lat="42.647573" lon="0.646837">
        <ele>2966</ele>
        <time>1970-01-01T03:10:30.000Z</time>
      </trkpt>
      <trkpt lat="42.647569" lon="0.646833">
        <ele>2966</ele>
        <time>1970-01-01T03:10:32.000Z</time>
      </trkpt>
      <trkpt lat="42.647568" lon="0.646835">
        <ele>2966</ele>
        <time>1970-01-01T03:10:33.000Z</time>
      </trkpt>
      <trkpt lat="42.647569" lon="0.646838">
        <ele>2966</ele>
        <time>1970-01-01T03:10:35.000Z</time>
      </trkpt>
      <trkpt lat="42.647568" lon="0.646837">
        <ele>2966</ele>
        <time>1970-01-01T03:10:36.000Z</time>
      </trkpt>
      <trkpt lat="42.647567" lon="0.646837">
        <ele>2966</ele>
        <time>1970-01-01T03:10:37.000Z</time>
      </trkpt>
      <trkpt lat="42.647567" lon="0.646836">
        <ele>2966</ele>
        <time>1970-01-01T03:10:38.000Z</time>
      </trkpt>
      <trkpt lat="42.647567" lon="0.646836">
        <ele>2966</ele>
        <time>1970-01-01T03:10:39.000Z</time>
      </trkpt>
      <trkpt lat="42.647567" lon="0.646836">
        <ele>2966</ele>
        <time>1970-01-01T03:10:40.000Z</time>
      </trkpt>
      <trkpt lat="42.647566" lon="0.646836">
        <ele>2966</ele>
        <time>1970-01-01T03:10:41.000Z</time>
      </trkpt>
      <trkpt lat="42.647565" lon="0.646836">
        <ele>2966.6</ele>
        <time>1970-01-01T03:10:42.000Z</time>
      </trkpt>
      <trkpt lat="42.647565" lon="0.646836">
        <ele>2966.6</ele>
        <time>1970-01-01T03:10:43.000Z</time>
      </trkpt>
      <trkpt lat="42.647562" lon="0.646836">
        <ele>2966.6</ele>
        <time>1970-01-01T03:10:45.000Z</time>
      </trkpt>
      <trkpt lat="42.64756" lon="0.646836">
        <ele>2966.6</ele>
        <time>1970-01-01T03:10:46.000Z</time>
      </trkpt>
      <trkpt lat="42.647559" lon="0.646837">
        <ele>2966.6</ele>
        <time>1970-01-01T03:10:47.000Z</time>
      </trkpt>
      <trkpt lat="42.647559" lon="0.646837">
        <ele>2966.6</ele>
        <time>1970-01-01T03:10:48.000Z</time>
      </trkpt>
      <trkpt lat="42.647558" lon="0.646836">
        <ele>2966.6</ele>
        <time>1970-01-01T03:10:49.000Z</time>
      </trkpt>
      <trkpt lat="42.647558" lon="0.646836">
        <ele>2966.6</ele>
        <time>1970-01-01T03:10:50.000Z</time>
      </trkpt>
      <trkpt lat="42.647558" lon="0.646836">
        <ele>2966.6</ele>
        <time>1970-01-01T03:10:51.000Z</time>
      </trkpt>
      <trkpt lat="42.647558" lon="0.646836">
        <ele>2966.6</ele>
        <time>1970-01-01T03:10:52.000Z</time>
      </trkpt>
      <trkpt lat="42.647558" lon="0.646836">
        <ele>2966.6</ele>
        <time>1970-01-01T03:10:53.000Z</time>
      </trkpt>
      <trkpt lat="42.647558" lon="0.646836">
        <ele>2966.6</ele>
        <time>1970-01-01T03:10:54.000Z</time>
      </trkpt>
      <trkpt lat="42.647558" lon="0.646836">
        <ele>2966.6</ele>
        <time>1970-01-01T03:10:55.000Z</time>
      </trkpt>
      <trkpt lat="42.647558" lon="0.646836">
        <ele>2966.6</ele>
        <time>1970-01-01T03:10:56.000Z</time>
      </trkpt>
      <trkpt lat="42.647557" lon="0.646836">
        <ele>2966.6</ele>
        <time>1970-01-01T03:10:57.000Z</time>
      </trkpt>
      <trkpt lat="42.647557" lon="0.646836">
        <ele>2966.6</ele>
        <time>1970-01-01T03:10:58.000Z</time>
      </trkpt>
      <trkpt lat="42.647556" lon="0.646837">
        <ele>2966.6</ele>
        <time>1970-01-01T03:10:59.000Z</time>
      </trkpt>
      <trkpt lat="42.647556" lon="0.646837">
        <ele>2966.6</ele>
        <time>1970-01-01T03:11:00.000Z</time>
      </trkpt>
      <trkpt lat="42.647556" lon="0.646837">
        <ele>2966.6</ele>
        <time>1970-01-01T03:11:01.000Z</time>
      </trkpt>
      <trkpt lat="42.647556" lon="0.646837">
        <ele>2966.6</ele>
        <time>1970-01-01T03:11:02.000Z</time>
      </trkpt>
      <trkpt lat="42.647556" lon="0.646838">
        <ele>2966.6</ele>
        <time>1970-01-01T03:11:03.000Z</time>
      </trkpt>
      <trkpt lat="42.647556" lon="0.646838">
        <ele>2966.6</ele>
        <time>1970-01-01T03:11:05.000Z</time>
      </trkpt>
      <trkpt lat="42.647555" lon="0.646838">
        <ele>2966.6</ele>
        <time>1970-01-01T03:11:06.000Z</time>
      </trkpt>
      <trkpt lat="42.647553" lon="0.646837">
        <ele>2966.6</ele>
        <time>1970-01-01T03:11:07.000Z</time>
      </trkpt>
      <trkpt lat="42.64755" lon="0.646835">
        <ele>2966.6</ele>
        <time>1970-01-01T03:11:08.000Z</time>
      </trkpt>
      <trkpt lat="42.647545" lon="0.646834">
        <ele>2966.6</ele>
        <time>1970-01-01T03:11:09.000Z</time>
      </trkpt>
      <trkpt lat="42.647541" lon="0.646833">
        <ele>2966.6</ele>
        <time>1970-01-01T03:11:10.000Z</time>
      </trkpt>
      <trkpt lat="42.647537" lon="0.646834">
        <ele>2966.6</ele>
        <time>1970-01-01T03:11:11.000Z</time>
      </trkpt>
      <trkpt lat="42.647531" lon="0.646835">
        <ele>2967.3</ele>
        <time>1970-01-01T03:11:12.000Z</time>
      </trkpt>
      <trkpt lat="42.647528" lon="0.646835">
        <ele>2967.3</ele>
        <time>1970-01-01T03:11:13.000Z</time>
      </trkpt>
      <trkpt lat="42.647527" lon="0.646835">
        <ele>2967.3</ele>
        <time>1970-01-01T03:11:14.000Z</time>
      </trkpt>
      <trkpt lat="42.647527" lon="0.646836">
        <ele>2967.3</ele>
        <time>1970-01-01T03:11:15.000Z</time>
      </trkpt>
      <trkpt lat="42.647527" lon="0.646836">
        <ele>2967.3</ele>
        <time>1970-01-01T03:11:16.000Z</time>
      </trkpt>
      <trkpt lat="42.647526" lon="0.646836">
        <ele>2967.3</ele>
        <time>1970-01-01T03:11:18.000Z</time>
      </trkpt>
      <trkpt lat="42.647526" lon="0.646836">
        <ele>2967.3</ele>
        <time>1970-01-01T03:11:19.000Z</time>
      </trkpt>
      <trkpt lat="42.647525" lon="0.646835">
        <ele>2967.3</ele>
        <time>1970-01-01T03:11:20.000Z</time>
      </trkpt>
      <trkpt lat="42.647521" lon="0.646831">
        <ele>2967.3</ele>
        <time>1970-01-01T03:11:22.000Z</time>
      </trkpt>
      <trkpt lat="42.647518" lon="0.646829">
        <ele>2967.3</ele>
        <time>1970-01-01T03:11:23.000Z</time>
      </trkpt>
      <trkpt lat="42.64751" lon="0.64683">
        <ele>2967.3</ele>
        <time>1970-01-01T03:11:24.000Z</time>
      </trkpt>
      <trkpt lat="42.647505" lon="0.646833">
        <ele>2967.3</ele>
        <time>1970-01-01T03:11:25.000Z</time>
      </trkpt>
      <trkpt lat="42.647497" lon="0.646838">
        <ele>2968</ele>
        <time>1970-01-01T03:11:27.000Z</time>
      </trkpt>
      <trkpt lat="42.647493" lon="0.646838">
        <ele>2968</ele>
        <time>1970-01-01T03:11:28.000Z</time>
      </trkpt>
      <trkpt lat="42.647491" lon="0.646837">
        <ele>2968</ele>
        <time>1970-01-01T03:11:29.000Z</time>
      </trkpt>
      <trkpt lat="42.647489" lon="0.646836">
        <ele>2968</ele>
        <time>1970-01-01T03:11:30.000Z</time>
      </trkpt>
      <trkpt lat="42.647486" lon="0.646831">
        <ele>2968</ele>
        <time>1970-01-01T03:11:31.000Z</time>
      </trkpt>
      <trkpt lat="42.647483" lon="0.646827">
        <ele>2968</ele>
        <time>1970-01-01T03:11:32.000Z</time>
      </trkpt>
      <trkpt lat="42.647481" lon="0.646824">
        <ele>2968</ele>
        <time>1970-01-01T03:11:33.000Z</time>
      </trkpt>
      <trkpt lat="42.647478" lon="0.646822">
        <ele>2968</ele>
        <time>1970-01-01T03:11:34.000Z</time>
      </trkpt>
      <trkpt lat="42.647475" lon="0.64682">
        <ele>2968.7</ele>
        <time>1970-01-01T03:11:35.000Z</time>
      </trkpt>
      <trkpt lat="42.647469" lon="0.64682">
        <ele>2969.4</ele>
        <time>1970-01-01T03:11:37.000Z</time>
      </trkpt>
      <trkpt lat="42.647468" lon="0.646819">
        <ele>2969.4</ele>
        <time>1970-01-01T03:11:38.000Z</time>
      </trkpt>
      <trkpt lat="42.647468" lon="0.646818">
        <ele>2969.4</ele>
        <time>1970-01-01T03:11:39.000Z</time>
      </trkpt>
      <trkpt lat="42.647467" lon="0.646817">
        <ele>2969.4</ele>
        <time>1970-01-01T03:11:40.000Z</time>
      </trkpt>
      <trkpt lat="42.647465" lon="0.646815">
        <ele>2969.4</ele>
        <time>1970-01-01T03:11:41.000Z</time>
      </trkpt>
      <trkpt lat="42.647465" lon="0.646814">
        <ele>2969.4</ele>
        <time>1970-01-01T03:11:42.000Z</time>
      </trkpt>
      <trkpt lat="42.647466" lon="0.646809">
        <ele>2969.4</ele>
        <time>1970-01-01T03:11:43.000Z</time>
      </trkpt>
      <trkpt lat="42.647462" lon="0.646805">
        <ele>2969.4</ele>
        <time>1970-01-01T03:11:45.000Z</time>
      </trkpt>
      <trkpt lat="42.647459" lon="0.646804">
        <ele>2969.4</ele>
        <time>1970-01-01T03:11:46.000Z</time>
      </trkpt>
      <trkpt lat="42.647456" lon="0.646804">
        <ele>2969.4</ele>
        <time>1970-01-01T03:11:47.000Z</time>
      </trkpt>
      <trkpt lat="42.64745" lon="0.646806">
        <ele>2969.4</ele>
        <time>1970-01-01T03:11:49.000Z</time>
      </trkpt>
      <trkpt lat="42.647448" lon="0.646807">
        <ele>2969.4</ele>
        <time>1970-01-01T03:11:50.000Z</time>
      </trkpt>
      <trkpt lat="42.647448" lon="0.646808">
        <ele>2969.4</ele>
        <time>1970-01-01T03:11:51.000Z</time>
      </trkpt>
      <trkpt lat="42.647448" lon="0.646808">
        <ele>2969.4</ele>
        <time>1970-01-01T03:11:52.000Z</time>
      </trkpt>
      <trkpt lat="42.647447" lon="0.646806">
        <ele>2969.4</ele>
        <time>1970-01-01T03:11:53.000Z</time>
      </trkpt>
      <trkpt lat="42.647442" lon="0.646803">
        <ele>2969.4</ele>
        <time>1970-01-01T03:11:55.000Z</time>
      </trkpt>
      <trkpt lat="42.647439" lon="0.6468">
        <ele>2969.4</ele>
        <time>1970-01-01T03:11:56.000Z</time>
      </trkpt>
      <trkpt lat="42.647437" lon="0.646799">
        <ele>2970.1</ele>
        <time>1970-01-01T03:11:57.000Z</time>
      </trkpt>
      <trkpt lat="42.647432" lon="0.646792">
        <ele>2970.1</ele>
        <time>1970-01-01T03:11:58.000Z</time>
      </trkpt>
      <trkpt lat="42.647427" lon="0.646782">
        <ele>2970.1</ele>
        <time>1970-01-01T03:12:00.000Z</time>
      </trkpt>
      <trkpt lat="42.647424" lon="0.646776">
        <ele>2970.8</ele>
        <time>1970-01-01T03:12:01.000Z</time>
      </trkpt>
      <trkpt lat="42.647419" lon="0.646769">
        <ele>2970.8</ele>
        <time>1970-01-01T03:12:02.000Z</time>
      </trkpt>
      <trkpt lat="42.647411" lon="0.64676">
        <ele>2970.8</ele>
        <time>1970-01-01T03:12:03.000Z</time>
      </trkpt>
      <trkpt lat="42.647408" lon="0.646757">
        <ele>2970.8</ele>
        <time>1970-01-01T03:12:04.000Z</time>
      </trkpt>
      <trkpt lat="42.647406" lon="0.646757">
        <ele>2971.5</ele>
        <time>1970-01-01T03:12:06.000Z</time>
      </trkpt>
      <trkpt lat="42.647404" lon="0.646756">
        <ele>2971.5</ele>
        <time>1970-01-01T03:12:07.000Z</time>
      </trkpt>
      <trkpt lat="42.647403" lon="0.646756">
        <ele>2971.5</ele>
        <time>1970-01-01T03:12:08.000Z</time>
      </trkpt>
      <trkpt lat="42.647401" lon="0.646756">
        <ele>2971.5</ele>
        <time>1970-01-01T03:12:09.000Z</time>
      </trkpt>
      <trkpt lat="42.647397" lon="0.646756">
        <ele>2971.5</ele>
        <time>1970-01-01T03:12:11.000Z</time>
      </trkpt>
      <trkpt lat="42.647393" lon="0.646758">
        <ele>2971.5</ele>
        <time>1970-01-01T03:12:13.000Z</time>
      </trkpt>
      <trkpt lat="42.647388" lon="0.64676">
        <ele>2971.5</ele>
        <time>1970-01-01T03:12:14.000Z</time>
      </trkpt>
      <trkpt lat="42.647386" lon="0.64676">
        <ele>2971.5</ele>
        <time>1970-01-01T03:12:15.000Z</time>
      </trkpt>
      <trkpt lat="42.647384" lon="0.64676">
        <ele>2971.5</ele>
        <time>1970-01-01T03:12:16.000Z</time>
      </trkpt>
      <trkpt lat="42.647381" lon="0.646759">
        <ele>2971.5</ele>
        <time>1970-01-01T03:12:17.000Z</time>
      </trkpt>
      <trkpt lat="42.647379" lon="0.646757">
        <ele>2971.5</ele>
        <time>1970-01-01T03:12:18.000Z</time>
      </trkpt>
      <trkpt lat="42.647377" lon="0.646756">
        <ele>2971.5</ele>
        <time>1970-01-01T03:12:19.000Z</time>
      </trkpt>
      <trkpt lat="42.647375" lon="0.646755">
        <ele>2972.2</ele>
        <time>1970-01-01T03:12:21.000Z</time>
      </trkpt>
      <trkpt lat="42.647371" lon="0.646751">
        <ele>2972.2</ele>
        <time>1970-01-01T03:12:22.000Z</time>
      </trkpt>
      <trkpt lat="42.647367" lon="0.646748">
        <ele>2972.2</ele>
        <time>1970-01-01T03:12:23.000Z</time>
      </trkpt>
      <trkpt lat="42.647362" lon="0.646745">
        <ele>2972.2</ele>
        <time>1970-01-01T03:12:24.000Z</time>
      </trkpt>
      <trkpt lat="42.647358" lon="0.646739">
        <ele>2972.2</ele>
        <time>1970-01-01T03:12:25.000Z</time>
      </trkpt>
      <trkpt lat="42.647354" lon="0.646734">
        <ele>2972.9</ele>
        <time>1970-01-01T03:12:26.000Z</time>
      </trkpt>
      <trkpt lat="42.647351" lon="0.646732">
        <ele>2972.9</ele>
        <time>1970-01-01T03:12:27.000Z</time>
      </trkpt>
      <trkpt lat="42.647348" lon="0.64673">
        <ele>2972.9</ele>
        <time>1970-01-01T03:12:28.000Z</time>
      </trkpt>
      <trkpt lat="42.647345" lon="0.646724">
        <ele>2972.9</ele>
        <time>1970-01-01T03:12:29.000Z</time>
      </trkpt>
      <trkpt lat="42.647342" lon="0.646718">
        <ele>2973.6</ele>
        <time>1970-01-01T03:12:30.000Z</time>
      </trkpt>
      <trkpt lat="42.647336" lon="0.646711">
        <ele>2973.6</ele>
        <time>1970-01-01T03:12:31.000Z</time>
      </trkpt>
      <trkpt lat="42.647327" lon="0.646706">
        <ele>2973.6</ele>
        <time>1970-01-01T03:12:32.000Z</time>
      </trkpt>
      <trkpt lat="42.64732" lon="0.646703">
        <ele>2973.6</ele>
        <time>1970-01-01T03:12:33.000Z</time>
      </trkpt>
      <trkpt lat="42.647311" lon="0.6467">
        <ele>2974.4</ele>
        <time>1970-01-01T03:12:34.000Z</time>
      </trkpt>
      <trkpt lat="42.647303" lon="0.646696">
        <ele>2974.4</ele>
        <time>1970-01-01T03:12:35.000Z</time>
      </trkpt>
      <trkpt lat="42.647296" lon="0.64669">
        <ele>2975.2</ele>
        <time>1970-01-01T03:12:36.000Z</time>
      </trkpt>
      <trkpt lat="42.647288" lon="0.646679">
        <ele>2975.2</ele>
        <time>1970-01-01T03:12:38.000Z</time>
      </trkpt>
      <trkpt lat="42.647284" lon="0.646673">
        <ele>2975.2</ele>
        <time>1970-01-01T03:12:39.000Z</time>
      </trkpt>
      <trkpt lat="42.647278" lon="0.646667">
        <ele>2976</ele>
        <time>1970-01-01T03:12:40.000Z</time>
      </trkpt>
      <trkpt lat="42.647272" lon="0.646664">
        <ele>2976</ele>
        <time>1970-01-01T03:12:41.000Z</time>
      </trkpt>
      <trkpt lat="42.647267" lon="0.646661">
        <ele>2976</ele>
        <time>1970-01-01T03:12:42.000Z</time>
      </trkpt>
      <trkpt lat="42.647261" lon="0.646658">
        <ele>2976</ele>
        <time>1970-01-01T03:12:43.000Z</time>
      </trkpt>
      <trkpt lat="42.647254" lon="0.646655">
        <ele>2976</ele>
        <time>1970-01-01T03:12:44.000Z</time>
      </trkpt>
      <trkpt lat="42.647248" lon="0.646654">
        <ele>2977</ele>
        <time>1970-01-01T03:12:45.000Z</time>
      </trkpt>
      <trkpt lat="42.647242" lon="0.646653">
        <ele>2977</ele>
        <time>1970-01-01T03:12:46.000Z</time>
      </trkpt>
      <trkpt lat="42.647238" lon="0.646653">
        <ele>2977</ele>
        <time>1970-01-01T03:12:47.000Z</time>
      </trkpt>
      <trkpt lat="42.647237" lon="0.646653">
        <ele>2977</ele>
        <time>1970-01-01T03:12:48.000Z</time>
      </trkpt>
      <trkpt lat="42.647231" lon="0.646652">
        <ele>2977</ele>
        <time>1970-01-01T03:12:49.000Z</time>
      </trkpt>
      <trkpt lat="42.647219" lon="0.646649">
        <ele>2977</ele>
        <time>1970-01-01T03:12:50.000Z</time>
      </trkpt>
      <trkpt lat="42.647206" lon="0.646649">
        <ele>2977.9</ele>
        <time>1970-01-01T03:12:51.000Z</time>
      </trkpt>
      <trkpt lat="42.647195" lon="0.646647">
        <ele>2978.8</ele>
        <time>1970-01-01T03:12:52.000Z</time>
      </trkpt>
      <trkpt lat="42.647185" lon="0.646642">
        <ele>2979.7</ele>
        <time>1970-01-01T03:12:54.000Z</time>
      </trkpt>
      <trkpt lat="42.647173" lon="0.646641">
        <ele>2979.7</ele>
        <time>1970-01-01T03:12:55.000Z</time>
      </trkpt>
      <trkpt lat="42.647165" lon="0.646641">
        <ele>2979.7</ele>
        <time>1970-01-01T03:12:56.000Z</time>
      </trkpt>
      <trkpt lat="42.647144" lon="0.646643">
        <ele>2980.6</ele>
        <time>1970-01-01T03:12:58.000Z</time>
      </trkpt>
      <trkpt lat="42.647131" lon="0.646642">
        <ele>2980.6</ele>
        <time>1970-01-01T03:12:59.000Z</time>
      </trkpt>
      <trkpt lat="42.647118" lon="0.64664">
        <ele>2981.4</ele>
        <time>1970-01-01T03:13:00.000Z</time>
      </trkpt>
      <trkpt lat="42.647107" lon="0.646639">
        <ele>2981.4</ele>
        <time>1970-01-01T03:13:01.000Z</time>
      </trkpt>
      <trkpt lat="42.647097" lon="0.646638">
        <ele>2981.4</ele>
        <time>1970-01-01T03:13:02.000Z</time>
      </trkpt>
      <trkpt lat="42.647087" lon="0.646638">
        <ele>2982.2</ele>
        <time>1970-01-01T03:13:03.000Z</time>
      </trkpt>
      <trkpt lat="42.647077" lon="0.646641">
        <ele>2982.2</ele>
        <time>1970-01-01T03:13:04.000Z</time>
      </trkpt>
      <trkpt lat="42.647065" lon="0.646644">
        <ele>2982.2</ele>
        <time>1970-01-01T03:13:05.000Z</time>
      </trkpt>
      <trkpt lat="42.647044" lon="0.646649">
        <ele>2982.1</ele>
        <time>1970-01-01T03:13:07.000Z</time>
      </trkpt>
      <trkpt lat="42.647036" lon="0.646651">
        <ele>2982.1</ele>
        <time>1970-01-01T03:13:08.000Z</time>
      </trkpt>
      <trkpt lat="42.647028" lon="0.646653">
        <ele>2983</ele>
        <time>1970-01-01T03:13:09.000Z</time>
      </trkpt>
      <trkpt lat="42.647017" lon="0.646654">
        <ele>2983</ele>
        <time>1970-01-01T03:13:10.000Z</time>
      </trkpt>
      <trkpt lat="42.647006" lon="0.646655">
        <ele>2983</ele>
        <time>1970-01-01T03:13:11.000Z</time>
      </trkpt>
      <trkpt lat="42.646995" lon="0.646656">
        <ele>2983.9</ele>
        <time>1970-01-01T03:13:12.000Z</time>
      </trkpt>
      <trkpt lat="42.646986" lon="0.646658">
        <ele>2983.9</ele>
        <time>1970-01-01T03:13:13.000Z</time>
      </trkpt>
      <trkpt lat="42.646974" lon="0.646662">
        <ele>2983.9</ele>
        <time>1970-01-01T03:13:14.000Z</time>
      </trkpt>
      <trkpt lat="42.646961" lon="0.646668">
        <ele>2984.7</ele>
        <time>1970-01-01T03:13:16.000Z</time>
      </trkpt>
      <trkpt lat="42.646949" lon="0.646675">
        <ele>2984.7</ele>
        <time>1970-01-01T03:13:17.000Z</time>
      </trkpt>
      <trkpt lat="42.64694" lon="0.646682">
        <ele>2984.7</ele>
        <time>1970-01-01T03:13:18.000Z</time>
      </trkpt>
      <trkpt lat="42.646936" lon="0.646686">
        <ele>2984.7</ele>
        <time>1970-01-01T03:13:19.000Z</time>
      </trkpt>
      <trkpt lat="42.646934" lon="0.646688">
        <ele>2984.7</ele>
        <time>1970-01-01T03:13:20.000Z</time>
      </trkpt>
      <trkpt lat="42.646928" lon="0.646691">
        <ele>2985.6</ele>
        <time>1970-01-01T03:13:21.000Z</time>
      </trkpt>
      <trkpt lat="42.646921" lon="0.646693">
        <ele>2984.6</ele>
        <time>1970-01-01T03:13:22.000Z</time>
      </trkpt>
      <trkpt lat="42.64691" lon="0.646699">
        <ele>2984.6</ele>
        <time>1970-01-01T03:13:24.000Z</time>
      </trkpt>
      <trkpt lat="42.646905" lon="0.646704">
        <ele>2984.6</ele>
        <time>1970-01-01T03:13:25.000Z</time>
      </trkpt>
      <trkpt lat="42.646899" lon="0.646705">
        <ele>2985.4</ele>
        <time>1970-01-01T03:13:26.000Z</time>
      </trkpt>
      <trkpt lat="42.646892" lon="0.646705">
        <ele>2985.4</ele>
        <time>1970-01-01T03:13:27.000Z</time>
      </trkpt>
      <trkpt lat="42.646877" lon="0.646706">
        <ele>2985.4</ele>
        <time>1970-01-01T03:13:28.000Z</time>
      </trkpt>
      <trkpt lat="42.646866" lon="0.646712">
        <ele>2986.1</ele>
        <time>1970-01-01T03:13:29.000Z</time>
      </trkpt>
      <trkpt lat="42.646855" lon="0.646719">
        <ele>2986.1</ele>
        <time>1970-01-01T03:13:31.000Z</time>
      </trkpt>
      <trkpt lat="42.646847" lon="0.64672">
        <ele>2986.1</ele>
        <time>1970-01-01T03:13:32.000Z</time>
      </trkpt>
      <trkpt lat="42.646837" lon="0.646726">
        <ele>2986.7</ele>
        <time>1970-01-01T03:13:33.000Z</time>
      </trkpt>
      <trkpt lat="42.64683" lon="0.646737">
        <ele>2985.7</ele>
        <time>1970-01-01T03:13:34.000Z</time>
      </trkpt>
      <trkpt lat="42.646821" lon="0.646747">
        <ele>2985.7</ele>
        <time>1970-01-01T03:13:35.000Z</time>
      </trkpt>
      <trkpt lat="42.646815" lon="0.646754">
        <ele>2985.7</ele>
        <time>1970-01-01T03:13:36.000Z</time>
      </trkpt>
      <trkpt lat="42.646808" lon="0.646761">
        <ele>2985.7</ele>
        <time>1970-01-01T03:13:37.000Z</time>
      </trkpt>
      <trkpt lat="42.646798" lon="0.646766">
        <ele>2986.4</ele>
        <time>1970-01-01T03:13:38.000Z</time>
      </trkpt>
      <trkpt lat="42.646787" lon="0.646768">
        <ele>2986.4</ele>
        <time>1970-01-01T03:13:39.000Z</time>
      </trkpt>
      <trkpt lat="42.64678" lon="0.646767">
        <ele>2986.4</ele>
        <time>1970-01-01T03:13:40.000Z</time>
      </trkpt>
      <trkpt lat="42.646769" lon="0.646763">
        <ele>2987</ele>
        <time>1970-01-01T03:13:41.000Z</time>
      </trkpt>
      <trkpt lat="42.646759" lon="0.64676">
        <ele>2987</ele>
        <time>1970-01-01T03:13:43.000Z</time>
      </trkpt>
      <trkpt lat="42.646749" lon="0.646751">
        <ele>2987</ele>
        <time>1970-01-01T03:13:44.000Z</time>
      </trkpt>
      <trkpt lat="42.646742" lon="0.646747">
        <ele>2987.7</ele>
        <time>1970-01-01T03:13:46.000Z</time>
      </trkpt>
      <trkpt lat="42.646734" lon="0.646742">
        <ele>2987.7</ele>
        <time>1970-01-01T03:13:47.000Z</time>
      </trkpt>
      <trkpt lat="42.646724" lon="0.646735">
        <ele>2987.7</ele>
        <time>1970-01-01T03:13:48.000Z</time>
      </trkpt>
      <trkpt lat="42.64671" lon="0.646731">
        <ele>2989.6</ele>
        <time>1970-01-01T03:13:50.000Z</time>
      </trkpt>
      <trkpt lat="42.646703" lon="0.646734">
        <ele>2989.6</ele>
        <time>1970-01-01T03:13:51.000Z</time>
      </trkpt>
      <trkpt lat="42.646696" lon="0.646736">
        <ele>2988.5</ele>
        <time>1970-01-01T03:13:52.000Z</time>
      </trkpt>
      <trkpt lat="42.64669" lon="0.646739">
        <ele>2988.5</ele>
        <time>1970-01-01T03:13:53.000Z</time>
      </trkpt>
      <trkpt lat="42.646682" lon="0.646743">
        <ele>2988.5</ele>
        <time>1970-01-01T03:13:54.000Z</time>
      </trkpt>
      <trkpt lat="42.646675" lon="0.646747">
        <ele>2989.2</ele>
        <time>1970-01-01T03:13:55.000Z</time>
      </trkpt>
      <trkpt lat="42.646666" lon="0.64675">
        <ele>2989.2</ele>
        <time>1970-01-01T03:13:56.000Z</time>
      </trkpt>
      <trkpt lat="42.646653" lon="0.646751">
        <ele>2989.2</ele>
        <time>1970-01-01T03:13:58.000Z</time>
      </trkpt>
      <trkpt lat="42.646646" lon="0.646752">
        <ele>2989.8</ele>
        <time>1970-01-01T03:13:59.000Z</time>
      </trkpt>
      <trkpt lat="42.646637" lon="0.646752">
        <ele>2989.8</ele>
        <time>1970-01-01T03:14:00.000Z</time>
      </trkpt>
      <trkpt lat="42.646626" lon="0.646752">
        <ele>2989.8</ele>
        <time>1970-01-01T03:14:02.000Z</time>
      </trkpt>
      <trkpt lat="42.646621" lon="0.646754">
        <ele>2989.8</ele>
        <time>1970-01-01T03:14:03.000Z</time>
      </trkpt>
      <trkpt lat="42.646614" lon="0.646756">
        <ele>2990.4</ele>
        <time>1970-01-01T03:14:04.000Z</time>
      </trkpt>
      <trkpt lat="42.646604" lon="0.646759">
        <ele>2990.4</ele>
        <time>1970-01-01T03:14:05.000Z</time>
      </trkpt>
      <trkpt lat="42.646593" lon="0.646761">
        <ele>2990.4</ele>
        <time>1970-01-01T03:14:07.000Z</time>
      </trkpt>
      <trkpt lat="42.646587" lon="0.646765">
        <ele>2990.4</ele>
        <time>1970-01-01T03:14:08.000Z</time>
      </trkpt>
      <trkpt lat="42.646577" lon="0.646769">
        <ele>2991</ele>
        <time>1970-01-01T03:14:10.000Z</time>
      </trkpt>
      <trkpt lat="42.646567" lon="0.646773">
        <ele>2991</ele>
        <time>1970-01-01T03:14:11.000Z</time>
      </trkpt>
      <trkpt lat="42.64656" lon="0.646775">
        <ele>2991</ele>
        <time>1970-01-01T03:14:12.000Z</time>
      </trkpt>
      <trkpt lat="42.646555" lon="0.646776">
        <ele>2991</ele>
        <time>1970-01-01T03:14:13.000Z</time>
      </trkpt>
      <trkpt lat="42.646547" lon="0.646778">
        <ele>2990.4</ele>
        <time>1970-01-01T03:14:14.000Z</time>
      </trkpt>
      <trkpt lat="42.646536" lon="0.646782">
        <ele>2990.4</ele>
        <time>1970-01-01T03:14:15.000Z</time>
      </trkpt>
      <trkpt lat="42.646525" lon="0.646786">
        <ele>2990.4</ele>
        <time>1970-01-01T03:14:17.000Z</time>
      </trkpt>
      <trkpt lat="42.646514" lon="0.646787">
        <ele>2990.9</ele>
        <time>1970-01-01T03:14:18.000Z</time>
      </trkpt>
      <trkpt lat="42.646503" lon="0.646786">
        <ele>2990.9</ele>
        <time>1970-01-01T03:14:20.000Z</time>
      </trkpt>
      <trkpt lat="42.646494" lon="0.646786">
        <ele>2990.9</ele>
        <time>1970-01-01T03:14:21.000Z</time>
      </trkpt>
      <trkpt lat="42.646487" lon="0.646787">
        <ele>2991.4</ele>
        <time>1970-01-01T03:14:22.000Z</time>
      </trkpt>
      <trkpt lat="42.646477" lon="0.64679">
        <ele>2991.4</ele>
        <time>1970-01-01T03:14:23.000Z</time>
      </trkpt>
      <trkpt lat="42.646468" lon="0.646794">
        <ele>2991.4</ele>
        <time>1970-01-01T03:14:25.000Z</time>
      </trkpt>
      <trkpt lat="42.64646" lon="0.646798">
        <ele>2991.9</ele>
        <time>1970-01-01T03:14:26.000Z</time>
      </trkpt>
      <trkpt lat="42.646455" lon="0.646799">
        <ele>2991.9</ele>
        <time>1970-01-01T03:14:27.000Z</time>
      </trkpt>
      <trkpt lat="42.64644" lon="0.6468">
        <ele>2991.9</ele>
        <time>1970-01-01T03:14:29.000Z</time>
      </trkpt>
      <trkpt lat="42.646432" lon="0.646804">
        <ele>2991.9</ele>
        <time>1970-01-01T03:14:31.000Z</time>
      </trkpt>
      <trkpt lat="42.646422" lon="0.646807">
        <ele>2992.4</ele>
        <time>1970-01-01T03:14:33.000Z</time>
      </trkpt>
      <trkpt lat="42.646413" lon="0.64681">
        <ele>2992.4</ele>
        <time>1970-01-01T03:14:34.000Z</time>
      </trkpt>
      <trkpt lat="42.646408" lon="0.646812">
        <ele>2992.4</ele>
        <time>1970-01-01T03:14:35.000Z</time>
      </trkpt>
      <trkpt lat="42.646402" lon="0.646816">
        <ele>2992.4</ele>
        <time>1970-01-01T03:14:36.000Z</time>
      </trkpt>
      <trkpt lat="42.646396" lon="0.646822">
        <ele>2991.7</ele>
        <time>1970-01-01T03:14:37.000Z</time>
      </trkpt>
      <trkpt lat="42.64639" lon="0.646829">
        <ele>2991.7</ele>
        <time>1970-01-01T03:14:39.000Z</time>
      </trkpt>
      <trkpt lat="42.646384" lon="0.646835">
        <ele>2991.7</ele>
        <time>1970-01-01T03:14:40.000Z</time>
      </trkpt>
      <trkpt lat="42.646378" lon="0.646841">
        <ele>2991.7</ele>
        <time>1970-01-01T03:14:41.000Z</time>
      </trkpt>
      <trkpt lat="42.646372" lon="0.646848">
        <ele>2991.7</ele>
        <time>1970-01-01T03:14:42.000Z</time>
      </trkpt>
      <trkpt lat="42.646365" lon="0.646857">
        <ele>2992.2</ele>
        <time>1970-01-01T03:14:43.000Z</time>
      </trkpt>
      <trkpt lat="42.646358" lon="0.646864">
        <ele>2991</ele>
        <time>1970-01-01T03:14:44.000Z</time>
      </trkpt>
      <trkpt lat="42.64635" lon="0.646869">
        <ele>2991</ele>
        <time>1970-01-01T03:14:45.000Z</time>
      </trkpt>
      <trkpt lat="42.646341" lon="0.646874">
        <ele>2991</ele>
        <time>1970-01-01T03:14:47.000Z</time>
      </trkpt>
      <trkpt lat="42.646331" lon="0.646875">
        <ele>2991.4</ele>
        <time>1970-01-01T03:14:48.000Z</time>
      </trkpt>
      <trkpt lat="42.646325" lon="0.646875">
        <ele>2991.4</ele>
        <time>1970-01-01T03:14:49.000Z</time>
      </trkpt>
      <trkpt lat="42.646318" lon="0.646875">
        <ele>2991.4</ele>
        <time>1970-01-01T03:14:50.000Z</time>
      </trkpt>
      <trkpt lat="42.646306" lon="0.646874">
        <ele>2991.4</ele>
        <time>1970-01-01T03:14:52.000Z</time>
      </trkpt>
      <trkpt lat="42.646297" lon="0.646874">
        <ele>2991.9</ele>
        <time>1970-01-01T03:14:53.000Z</time>
      </trkpt>
      <trkpt lat="42.646292" lon="0.646874">
        <ele>2991.9</ele>
        <time>1970-01-01T03:14:54.000Z</time>
      </trkpt>
      <trkpt lat="42.646288" lon="0.646874">
        <ele>2991.9</ele>
        <time>1970-01-01T03:14:55.000Z</time>
      </trkpt>
      <trkpt lat="42.646282" lon="0.646875">
        <ele>2991.9</ele>
        <time>1970-01-01T03:14:56.000Z</time>
      </trkpt>
      <trkpt lat="42.646278" lon="0.646876">
        <ele>2991.9</ele>
        <time>1970-01-01T03:14:57.000Z</time>
      </trkpt>
      <trkpt lat="42.646272" lon="0.646875">
        <ele>2991.9</ele>
        <time>1970-01-01T03:14:59.000Z</time>
      </trkpt>
      <trkpt lat="42.646268" lon="0.646874">
        <ele>2992.3</ele>
        <time>1970-01-01T03:15:00.000Z</time>
      </trkpt>
      <trkpt lat="42.646264" lon="0.646873">
        <ele>2992.3</ele>
        <time>1970-01-01T03:15:01.000Z</time>
      </trkpt>
      <trkpt lat="42.646259" lon="0.646872">
        <ele>2992.3</ele>
        <time>1970-01-01T03:15:02.000Z</time>
      </trkpt>
      <trkpt lat="42.646254" lon="0.64687">
        <ele>2992.3</ele>
        <time>1970-01-01T03:15:03.000Z</time>
      </trkpt>
      <trkpt lat="42.646249" lon="0.64687">
        <ele>2992.3</ele>
        <time>1970-01-01T03:15:04.000Z</time>
      </trkpt>
      <trkpt lat="42.64623" lon="0.646874">
        <ele>2992.7</ele>
        <time>1970-01-01T03:15:06.000Z</time>
      </trkpt>
      <trkpt lat="42.646222" lon="0.646876">
        <ele>2992.7</ele>
        <time>1970-01-01T03:15:07.000Z</time>
      </trkpt>
      <trkpt lat="42.646213" lon="0.646879">
        <ele>2992.7</ele>
        <time>1970-01-01T03:15:08.000Z</time>
      </trkpt>
      <trkpt lat="42.646204" lon="0.646881">
        <ele>2993</ele>
        <time>1970-01-01T03:15:09.000Z</time>
      </trkpt>
      <trkpt lat="42.646189" lon="0.646883">
        <ele>2993</ele>
        <time>1970-01-01T03:15:11.000Z</time>
      </trkpt>
      <trkpt lat="42.646174" lon="0.646883">
        <ele>2993.4</ele>
        <time>1970-01-01T03:15:12.000Z</time>
      </trkpt>
      <trkpt lat="42.64616" lon="0.646882">
        <ele>2993.4</ele>
        <time>1970-01-01T03:15:14.000Z</time>
      </trkpt>
      <trkpt lat="42.646149" lon="0.646881">
        <ele>2993.4</ele>
        <time>1970-01-01T03:15:15.000Z</time>
      </trkpt>
      <trkpt lat="42.64614" lon="0.64688">
        <ele>2993.8</ele>
        <time>1970-01-01T03:15:16.000Z</time>
      </trkpt>
      <trkpt lat="42.646132" lon="0.646879">
        <ele>2993.8</ele>
        <time>1970-01-01T03:15:17.000Z</time>
      </trkpt>
      <trkpt lat="42.646122" lon="0.646875">
        <ele>2993.8</ele>
        <time>1970-01-01T03:15:18.000Z</time>
      </trkpt>
      <trkpt lat="42.646115" lon="0.646874">
        <ele>2993.8</ele>
        <time>1970-01-01T03:15:20.000Z</time>
      </trkpt>
      <trkpt lat="42.646108" lon="0.646873">
        <ele>2994.3</ele>
        <time>1970-01-01T03:15:21.000Z</time>
      </trkpt>
      <trkpt lat="42.646101" lon="0.646872">
        <ele>2994.3</ele>
        <time>1970-01-01T03:15:22.000Z</time>
      </trkpt>
      <trkpt lat="42.646087" lon="0.646868">
        <ele>2994.3</ele>
        <time>1970-01-01T03:15:24.000Z</time>
      </trkpt>
      <trkpt lat="42.64608" lon="0.646864">
        <ele>2994.7</ele>
        <time>1970-01-01T03:15:25.000Z</time>
      </trkpt>
      <trkpt lat="42.646073" lon="0.646865">
        <ele>2994.7</ele>
        <time>1970-01-01T03:15:26.000Z</time>
      </trkpt>
      <trkpt lat="42.646065" lon="0.646869">
        <ele>2994.7</ele>
        <time>1970-01-01T03:15:28.000Z</time>
      </trkpt>
      <trkpt lat="42.646056" lon="0.64687">
        <ele>2994.7</ele>
        <time>1970-01-01T03:15:30.000Z</time>
      </trkpt>
      <trkpt lat="42.646051" lon="0.646871">
        <ele>2994.7</ele>
        <time>1970-01-01T03:15:31.000Z</time>
      </trkpt>
      <trkpt lat="42.646045" lon="0.646871">
        <ele>2995.2</ele>
        <time>1970-01-01T03:15:32.000Z</time>
      </trkpt>
      <trkpt lat="42.646039" lon="0.646871">
        <ele>2995.2</ele>
        <time>1970-01-01T03:15:33.000Z</time>
      </trkpt>
      <trkpt lat="42.646034" lon="0.64687">
        <ele>2995.2</ele>
        <time>1970-01-01T03:15:34.000Z</time>
      </trkpt>
      <trkpt lat="42.646031" lon="0.646871">
        <ele>2995.2</ele>
        <time>1970-01-01T03:15:35.000Z</time>
      </trkpt>
      <trkpt lat="42.646023" lon="0.646871">
        <ele>2995.2</ele>
        <time>1970-01-01T03:15:37.000Z</time>
      </trkpt>
      <trkpt lat="42.646016" lon="0.646872">
        <ele>2995.5</ele>
        <time>1970-01-01T03:15:38.000Z</time>
      </trkpt>
      <trkpt lat="42.646011" lon="0.646872">
        <ele>2995.5</ele>
        <time>1970-01-01T03:15:40.000Z</time>
      </trkpt>
      <trkpt lat="42.64601" lon="0.646871">
        <ele>2995.5</ele>
        <time>1970-01-01T03:15:41.000Z</time>
      </trkpt>
      <trkpt lat="42.646009" lon="0.64687">
        <ele>2995.5</ele>
        <time>1970-01-01T03:15:42.000Z</time>
      </trkpt>
      <trkpt lat="42.646007" lon="0.646869">
        <ele>2995.5</ele>
        <time>1970-01-01T03:15:43.000Z</time>
      </trkpt>
      <trkpt lat="42.646004" lon="0.646867">
        <ele>2995.5</ele>
        <time>1970-01-01T03:15:44.000Z</time>
      </trkpt>
      <trkpt lat="42.645999" lon="0.646865">
        <ele>2995.5</ele>
        <time>1970-01-01T03:15:45.000Z</time>
      </trkpt>
      <trkpt lat="42.645994" lon="0.646864">
        <ele>2995.5</ele>
        <time>1970-01-01T03:15:46.000Z</time>
      </trkpt>
      <trkpt lat="42.64599" lon="0.646865">
        <ele>2995.5</ele>
        <time>1970-01-01T03:15:47.000Z</time>
      </trkpt>
      <trkpt lat="42.645984" lon="0.646865">
        <ele>2995.9</ele>
        <time>1970-01-01T03:15:48.000Z</time>
      </trkpt>
      <trkpt lat="42.645979" lon="0.646865">
        <ele>2995.9</ele>
        <time>1970-01-01T03:15:49.000Z</time>
      </trkpt>
      <trkpt lat="42.645974" lon="0.646863">
        <ele>2995.9</ele>
        <time>1970-01-01T03:15:50.000Z</time>
      </trkpt>
      <trkpt lat="42.645964" lon="0.646862">
        <ele>2997.1</ele>
        <time>1970-01-01T03:15:52.000Z</time>
      </trkpt>
      <trkpt lat="42.645957" lon="0.646864">
        <ele>2995.9</ele>
        <time>1970-01-01T03:15:53.000Z</time>
      </trkpt>
      <trkpt lat="42.645953" lon="0.646865">
        <ele>2996.2</ele>
        <time>1970-01-01T03:15:54.000Z</time>
      </trkpt>
      <trkpt lat="42.645948" lon="0.646866">
        <ele>2996.2</ele>
        <time>1970-01-01T03:15:55.000Z</time>
      </trkpt>
      <trkpt lat="42.645943" lon="0.646867">
        <ele>2996.2</ele>
        <time>1970-01-01T03:15:56.000Z</time>
      </trkpt>
      <trkpt lat="42.645937" lon="0.646869">
        <ele>2996.2</ele>
        <time>1970-01-01T03:15:57.000Z</time>
      </trkpt>
      <trkpt lat="42.64593" lon="0.64687">
        <ele>2996.2</ele>
        <time>1970-01-01T03:15:58.000Z</time>
      </trkpt>
      <trkpt lat="42.645925" lon="0.646872">
        <ele>2996.2</ele>
        <time>1970-01-01T03:15:59.000Z</time>
      </trkpt>
      <trkpt lat="42.645917" lon="0.646875">
        <ele>2996.6</ele>
        <time>1970-01-01T03:16:01.000Z</time>
      </trkpt>
      <trkpt lat="42.645914" lon="0.646877">
        <ele>2996.6</ele>
        <time>1970-01-01T03:16:02.000Z</time>
      </trkpt>
      <trkpt lat="42.645911" lon="0.64688">
        <ele>2996.6</ele>
        <time>1970-01-01T03:16:03.000Z</time>
      </trkpt>
      <trkpt lat="42.645906" lon="0.646883">
        <ele>2996.6</ele>
        <time>1970-01-01T03:16:04.000Z</time>
      </trkpt>
      <trkpt lat="42.645901" lon="0.646885">
        <ele>2996.6</ele>
        <time>1970-01-01T03:16:05.000Z</time>
      </trkpt>
      <trkpt lat="42.645896" lon="0.646887">
        <ele>2996.6</ele>
        <time>1970-01-01T03:16:06.000Z</time>
      </trkpt>
      <trkpt lat="42.64589" lon="0.64689">
        <ele>2997</ele>
        <time>1970-01-01T03:16:07.000Z</time>
      </trkpt>
      <trkpt lat="42.645881" lon="0.646893">
        <ele>2997</ele>
        <time>1970-01-01T03:16:09.000Z</time>
      </trkpt>
      <trkpt lat="42.645875" lon="0.646896">
        <ele>2997</ele>
        <time>1970-01-01T03:16:10.000Z</time>
      </trkpt>
      <trkpt lat="42.645871" lon="0.646898">
        <ele>2997</ele>
        <time>1970-01-01T03:16:11.000Z</time>
      </trkpt>
      <trkpt lat="42.645868" lon="0.646899">
        <ele>2997</ele>
        <time>1970-01-01T03:16:12.000Z</time>
      </trkpt>
      <trkpt lat="42.645864" lon="0.646899">
        <ele>2997</ele>
        <time>1970-01-01T03:16:13.000Z</time>
      </trkpt>
      <trkpt lat="42.645859" lon="0.6469">
        <ele>2997.4</ele>
        <time>1970-01-01T03:16:14.000Z</time>
      </trkpt>
      <trkpt lat="42.645854" lon="0.6469">
        <ele>2997.4</ele>
        <time>1970-01-01T03:16:15.000Z</time>
      </trkpt>
      <trkpt lat="42.645845" lon="0.646901">
        <ele>2997.4</ele>
        <time>1970-01-01T03:16:17.000Z</time>
      </trkpt>
      <trkpt lat="42.645842" lon="0.646903">
        <ele>2997.4</ele>
        <time>1970-01-01T03:16:18.000Z</time>
      </trkpt>
      <trkpt lat="42.645839" lon="0.646904">
        <ele>2997.4</ele>
        <time>1970-01-01T03:16:19.000Z</time>
      </trkpt>
      <trkpt lat="42.645834" lon="0.646906">
        <ele>2996.2</ele>
        <time>1970-01-01T03:16:20.000Z</time>
      </trkpt>
      <trkpt lat="42.645829" lon="0.646906">
        <ele>2996.2</ele>
        <time>1970-01-01T03:16:21.000Z</time>
      </trkpt>
      <trkpt lat="42.64582" lon="0.646906">
        <ele>2996.7</ele>
        <time>1970-01-01T03:16:23.000Z</time>
      </trkpt>
      <trkpt lat="42.64581" lon="0.646908">
        <ele>2996.7</ele>
        <time>1970-01-01T03:16:25.000Z</time>
      </trkpt>
      <trkpt lat="42.645809" lon="0.646909">
        <ele>2996.7</ele>
        <time>1970-01-01T03:16:26.000Z</time>
      </trkpt>
      <trkpt lat="42.645807" lon="0.646912">
        <ele>2996.7</ele>
        <time>1970-01-01T03:16:27.000Z</time>
      </trkpt>
      <trkpt lat="42.645805" lon="0.646912">
        <ele>2996.7</ele>
        <time>1970-01-01T03:16:28.000Z</time>
      </trkpt>
      <trkpt lat="42.6458" lon="0.646913">
        <ele>2996.7</ele>
        <time>1970-01-01T03:16:29.000Z</time>
      </trkpt>
      <trkpt lat="42.645797" lon="0.646914">
        <ele>2997.1</ele>
        <time>1970-01-01T03:16:30.000Z</time>
      </trkpt>
      <trkpt lat="42.645793" lon="0.646913">
        <ele>2997.1</ele>
        <time>1970-01-01T03:16:31.000Z</time>
      </trkpt>
      <trkpt lat="42.64579" lon="0.646912">
        <ele>2997.1</ele>
        <time>1970-01-01T03:16:32.000Z</time>
      </trkpt>
      <trkpt lat="42.645785" lon="0.646909">
        <ele>2997.1</ele>
        <time>1970-01-01T03:16:33.000Z</time>
      </trkpt>
      <trkpt lat="42.645781" lon="0.646907">
        <ele>2997.1</ele>
        <time>1970-01-01T03:16:34.000Z</time>
      </trkpt>
      <trkpt lat="42.645777" lon="0.646908">
        <ele>2997.1</ele>
        <time>1970-01-01T03:16:35.000Z</time>
      </trkpt>
      <trkpt lat="42.645773" lon="0.646908">
        <ele>2997.1</ele>
        <time>1970-01-01T03:16:36.000Z</time>
      </trkpt>
      <trkpt lat="42.645769" lon="0.646913">
        <ele>2997.1</ele>
        <time>1970-01-01T03:16:38.000Z</time>
      </trkpt>
      <trkpt lat="42.645765" lon="0.646915">
        <ele>2997.6</ele>
        <time>1970-01-01T03:16:39.000Z</time>
      </trkpt>
      <trkpt lat="42.645762" lon="0.646916">
        <ele>2997.6</ele>
        <time>1970-01-01T03:16:40.000Z</time>
      </trkpt>
      <trkpt lat="42.645758" lon="0.646918">
        <ele>2997.6</ele>
        <time>1970-01-01T03:16:41.000Z</time>
      </trkpt>
      <trkpt lat="42.645753" lon="0.64692">
        <ele>2997.6</ele>
        <time>1970-01-01T03:16:42.000Z</time>
      </trkpt>
      <trkpt lat="42.645747" lon="0.646919">
        <ele>2997.6</ele>
        <time>1970-01-01T03:16:43.000Z</time>
      </trkpt>
      <trkpt lat="42.645742" lon="0.646918">
        <ele>2997.6</ele>
        <time>1970-01-01T03:16:44.000Z</time>
      </trkpt>
      <trkpt lat="42.645736" lon="0.646918">
        <ele>2997.6</ele>
        <time>1970-01-01T03:16:45.000Z</time>
      </trkpt>
      <trkpt lat="42.645729" lon="0.646921">
        <ele>2998</ele>
        <time>1970-01-01T03:16:46.000Z</time>
      </trkpt>
      <trkpt lat="42.645722" lon="0.646926">
        <ele>2998</ele>
        <time>1970-01-01T03:16:48.000Z</time>
      </trkpt>
      <trkpt lat="42.645717" lon="0.646928">
        <ele>2998</ele>
        <time>1970-01-01T03:16:49.000Z</time>
      </trkpt>
      <trkpt lat="42.645709" lon="0.646933">
        <ele>2998</ele>
        <time>1970-01-01T03:16:51.000Z</time>
      </trkpt>
      <trkpt lat="42.645703" lon="0.646941">
        <ele>2998</ele>
        <time>1970-01-01T03:16:52.000Z</time>
      </trkpt>
      <trkpt lat="42.645697" lon="0.646948">
        <ele>2998.4</ele>
        <time>1970-01-01T03:16:53.000Z</time>
      </trkpt>
      <trkpt lat="42.645691" lon="0.646956">
        <ele>2997.3</ele>
        <time>1970-01-01T03:16:54.000Z</time>
      </trkpt>
      <trkpt lat="42.645681" lon="0.646963">
        <ele>2997.3</ele>
        <time>1970-01-01T03:16:56.000Z</time>
      </trkpt>
      <trkpt lat="42.645671" lon="0.646967">
        <ele>2997.7</ele>
        <time>1970-01-01T03:16:57.000Z</time>
      </trkpt>
      <trkpt lat="42.645668" lon="0.646969">
        <ele>2997.7</ele>
        <time>1970-01-01T03:16:58.000Z</time>
      </trkpt>
      <trkpt lat="42.645666" lon="0.64697">
        <ele>2997.7</ele>
        <time>1970-01-01T03:16:59.000Z</time>
      </trkpt>
      <trkpt lat="42.645662" lon="0.646971">
        <ele>2997.7</ele>
        <time>1970-01-01T03:17:00.000Z</time>
      </trkpt>
      <trkpt lat="42.645656" lon="0.646973">
        <ele>2997.7</ele>
        <time>1970-01-01T03:17:01.000Z</time>
      </trkpt>
      <trkpt lat="42.645649" lon="0.646974">
        <ele>2997.7</ele>
        <time>1970-01-01T03:17:02.000Z</time>
      </trkpt>
      <trkpt lat="42.645638" lon="0.646975">
        <ele>2998.3</ele>
        <time>1970-01-01T03:17:04.000Z</time>
      </trkpt>
      <trkpt lat="42.645629" lon="0.646974">
        <ele>2998.3</ele>
        <time>1970-01-01T03:17:05.000Z</time>
      </trkpt>
      <trkpt lat="42.645623" lon="0.646973">
        <ele>2998.3</ele>
        <time>1970-01-01T03:17:06.000Z</time>
      </trkpt>
      <trkpt lat="42.645611" lon="0.646966">
        <ele>2998.3</ele>
        <time>1970-01-01T03:17:08.000Z</time>
      </trkpt>
      <trkpt lat="42.645608" lon="0.646963">
        <ele>2998.3</ele>
        <time>1970-01-01T03:17:09.000Z</time>
      </trkpt>
      <trkpt lat="42.645606" lon="0.64696">
        <ele>2998.8</ele>
        <time>1970-01-01T03:17:10.000Z</time>
      </trkpt>
      <trkpt lat="42.645599" lon="0.646955">
        <ele>2998.8</ele>
        <time>1970-01-01T03:17:12.000Z</time>
      </trkpt>
      <trkpt lat="42.645594" lon="0.646952">
        <ele>2998.8</ele>
        <time>1970-01-01T03:17:13.000Z</time>
      </trkpt>
      <trkpt lat="42.645591" lon="0.646949">
        <ele>2998.8</ele>
        <time>1970-01-01T03:17:14.000Z</time>
      </trkpt>
      <trkpt lat="42.645587" lon="0.646946">
        <ele>3000</ele>
        <time>1970-01-01T03:17:15.000Z</time>
      </trkpt>
      <trkpt lat="42.645582" lon="0.646943">
        <ele>3000</ele>
        <time>1970-01-01T03:17:16.000Z</time>
      </trkpt>
      <trkpt lat="42.645578" lon="0.646941">
        <ele>3000</ele>
        <time>1970-01-01T03:17:17.000Z</time>
      </trkpt>
      <trkpt lat="42.645572" lon="0.646941">
        <ele>3000.6</ele>
        <time>1970-01-01T03:17:19.000Z</time>
      </trkpt>
      <trkpt lat="42.645563" lon="0.646941">
        <ele>3000.6</ele>
        <time>1970-01-01T03:17:20.000Z</time>
      </trkpt>
      <trkpt lat="42.645558" lon="0.646942">
        <ele>3000.6</ele>
        <time>1970-01-01T03:17:21.000Z</time>
      </trkpt>
      <trkpt lat="42.645554" lon="0.646943">
        <ele>3000.6</ele>
        <time>1970-01-01T03:17:22.000Z</time>
      </trkpt>
      <trkpt lat="42.64555" lon="0.646943">
        <ele>3000.6</ele>
        <time>1970-01-01T03:17:23.000Z</time>
      </trkpt>
      <trkpt lat="42.645545" lon="0.646942">
        <ele>3000.6</ele>
        <time>1970-01-01T03:17:24.000Z</time>
      </trkpt>
      <trkpt lat="42.645539" lon="0.646943">
        <ele>3001.1</ele>
        <time>1970-01-01T03:17:25.000Z</time>
      </trkpt>
      <trkpt lat="42.645535" lon="0.646944">
        <ele>3001.1</ele>
        <time>1970-01-01T03:17:26.000Z</time>
      </trkpt>
      <trkpt lat="42.64553" lon="0.646944">
        <ele>3001.1</ele>
        <time>1970-01-01T03:17:27.000Z</time>
      </trkpt>
      <trkpt lat="42.645525" lon="0.646945">
        <ele>3001.1</ele>
        <time>1970-01-01T03:17:28.000Z</time>
      </trkpt>
      <trkpt lat="42.645521" lon="0.646946">
        <ele>3001.1</ele>
        <time>1970-01-01T03:17:29.000Z</time>
      </trkpt>
      <trkpt lat="42.645517" lon="0.646947">
        <ele>3001.1</ele>
        <time>1970-01-01T03:17:30.000Z</time>
      </trkpt>
      <trkpt lat="42.645514" lon="0.646947">
        <ele>3001.1</ele>
        <time>1970-01-01T03:17:31.000Z</time>
      </trkpt>
      <trkpt lat="42.645508" lon="0.646948">
        <ele>3001.7</ele>
        <time>1970-01-01T03:17:32.000Z</time>
      </trkpt>
      <trkpt lat="42.645502" lon="0.64695">
        <ele>3000.7</ele>
        <time>1970-01-01T03:17:33.000Z</time>
      </trkpt>
      <trkpt lat="42.645495" lon="0.64695">
        <ele>3000.7</ele>
        <time>1970-01-01T03:17:35.000Z</time>
      </trkpt>
      <trkpt lat="42.645489" lon="0.64695">
        <ele>3000.7</ele>
        <time>1970-01-01T03:17:36.000Z</time>
      </trkpt>
      <trkpt lat="42.645481" lon="0.646949">
        <ele>3001.2</ele>
        <time>1970-01-01T03:17:37.000Z</time>
      </trkpt>
      <trkpt lat="42.645474" lon="0.64695">
        <ele>3001.2</ele>
        <time>1970-01-01T03:17:38.000Z</time>
      </trkpt>
      <trkpt lat="42.645466" lon="0.64695">
        <ele>3001.2</ele>
        <time>1970-01-01T03:17:39.000Z</time>
      </trkpt>
      <trkpt lat="42.645458" lon="0.646948">
        <ele>3002.3</ele>
        <time>1970-01-01T03:17:40.000Z</time>
      </trkpt>
      <trkpt lat="42.645451" lon="0.64695">
        <ele>3001.2</ele>
        <time>1970-01-01T03:17:42.000Z</time>
      </trkpt>
      <trkpt lat="42.645444" lon="0.646952">
        <ele>3001.8</ele>
        <time>1970-01-01T03:17:43.000Z</time>
      </trkpt>
      <trkpt lat="42.64544" lon="0.646953">
        <ele>3001.8</ele>
        <time>1970-01-01T03:17:44.000Z</time>
      </trkpt>
      <trkpt lat="42.645435" lon="0.646954">
        <ele>3001.8</ele>
        <time>1970-01-01T03:17:45.000Z</time>
      </trkpt>
      <trkpt lat="42.645428" lon="0.646954">
        <ele>3001.8</ele>
        <time>1970-01-01T03:17:46.000Z</time>
      </trkpt>
      <trkpt lat="42.645422" lon="0.646954">
        <ele>3001.8</ele>
        <time>1970-01-01T03:17:47.000Z</time>
      </trkpt>
      <trkpt lat="42.645417" lon="0.646955">
        <ele>3002.4</ele>
        <time>1970-01-01T03:17:48.000Z</time>
      </trkpt>
      <trkpt lat="42.645412" lon="0.646957">
        <ele>3002.4</ele>
        <time>1970-01-01T03:17:49.000Z</time>
      </trkpt>
      <trkpt lat="42.645401" lon="0.646966">
        <ele>3002.4</ele>
        <time>1970-01-01T03:17:51.000Z</time>
      </trkpt>
      <trkpt lat="42.645397" lon="0.646972">
        <ele>3002.4</ele>
        <time>1970-01-01T03:17:52.000Z</time>
      </trkpt>
      <trkpt lat="42.64539" lon="0.646975">
        <ele>3002.4</ele>
        <time>1970-01-01T03:17:53.000Z</time>
      </trkpt>
      <trkpt lat="42.64538" lon="0.646978">
        <ele>3003</ele>
        <time>1970-01-01T03:17:55.000Z</time>
      </trkpt>
      <trkpt lat="42.64537" lon="0.646978">
        <ele>3003</ele>
        <time>1970-01-01T03:17:56.000Z</time>
      </trkpt>
      <trkpt lat="42.64536" lon="0.646977">
        <ele>3003</ele>
        <time>1970-01-01T03:17:58.000Z</time>
      </trkpt>
      <trkpt lat="42.645348" lon="0.646976">
        <ele>3003.6</ele>
        <time>1970-01-01T03:17:59.000Z</time>
      </trkpt>
      <trkpt lat="42.645339" lon="0.646975">
        <ele>3003.6</ele>
        <time>1970-01-01T03:18:00.000Z</time>
      </trkpt>
      <trkpt lat="42.645329" lon="0.646975">
        <ele>3003.6</ele>
        <time>1970-01-01T03:18:01.000Z</time>
      </trkpt>
      <trkpt lat="42.645318" lon="0.646977">
        <ele>3004.2</ele>
        <time>1970-01-01T03:18:03.000Z</time>
      </trkpt>
      <trkpt lat="42.64531" lon="0.646979">
        <ele>3004.2</ele>
        <time>1970-01-01T03:18:04.000Z</time>
      </trkpt>
      <trkpt lat="42.645304" lon="0.64698">
        <ele>3004.2</ele>
        <time>1970-01-01T03:18:05.000Z</time>
      </trkpt>
      <trkpt lat="42.645295" lon="0.646987">
        <ele>3004.2</ele>
        <time>1970-01-01T03:18:06.000Z</time>
      </trkpt>
      <trkpt lat="42.645287" lon="0.646995">
        <ele>3003.8</ele>
        <time>1970-01-01T03:18:08.000Z</time>
      </trkpt>
      <trkpt lat="42.645281" lon="0.647007">
        <ele>3003.8</ele>
        <time>1970-01-01T03:18:09.000Z</time>
      </trkpt>
      <trkpt lat="42.645275" lon="0.647013">
        <ele>3003.8</ele>
        <time>1970-01-01T03:18:10.000Z</time>
      </trkpt>
      <trkpt lat="42.645268" lon="0.64702">
        <ele>3003.8</ele>
        <time>1970-01-01T03:18:11.000Z</time>
      </trkpt>
      <trkpt lat="42.64526" lon="0.647027">
        <ele>3004.4</ele>
        <time>1970-01-01T03:18:13.000Z</time>
      </trkpt>
      <trkpt lat="42.645254" lon="0.647033">
        <ele>3004.4</ele>
        <time>1970-01-01T03:18:14.000Z</time>
      </trkpt>
      <trkpt lat="42.645247" lon="0.647037">
        <ele>3003.3</ele>
        <time>1970-01-01T03:18:15.000Z</time>
      </trkpt>
      <trkpt lat="42.64524" lon="0.647041">
        <ele>3003.3</ele>
        <time>1970-01-01T03:18:16.000Z</time>
      </trkpt>
      <trkpt lat="42.645235" lon="0.647043">
        <ele>3003.3</ele>
        <time>1970-01-01T03:18:17.000Z</time>
      </trkpt>
      <trkpt lat="42.645229" lon="0.647046">
        <ele>3003.8</ele>
        <time>1970-01-01T03:18:18.000Z</time>
      </trkpt>
      <trkpt lat="42.645218" lon="0.64705">
        <ele>3003.8</ele>
        <time>1970-01-01T03:18:19.000Z</time>
      </trkpt>
      <trkpt lat="42.645208" lon="0.647051">
        <ele>3003.8</ele>
        <time>1970-01-01T03:18:21.000Z</time>
      </trkpt>
      <trkpt lat="42.645201" lon="0.647051">
        <ele>3003.8</ele>
        <time>1970-01-01T03:18:22.000Z</time>
      </trkpt>
      <trkpt lat="42.645194" lon="0.647053">
        <ele>3004.3</ele>
        <time>1970-01-01T03:18:23.000Z</time>
      </trkpt>
      <trkpt lat="42.645184" lon="0.647057">
        <ele>3004.3</ele>
        <time>1970-01-01T03:18:24.000Z</time>
      </trkpt>
      <trkpt lat="42.645176" lon="0.647059">
        <ele>3004.3</ele>
        <time>1970-01-01T03:18:26.000Z</time>
      </trkpt>
      <trkpt lat="42.645171" lon="0.647062">
        <ele>3004.3</ele>
        <time>1970-01-01T03:18:27.000Z</time>
      </trkpt>
      <trkpt lat="42.645166" lon="0.647065">
        <ele>3004.3</ele>
        <time>1970-01-01T03:18:28.000Z</time>
      </trkpt>
      <trkpt lat="42.645162" lon="0.647069">
        <ele>3004.8</ele>
        <time>1970-01-01T03:18:29.000Z</time>
      </trkpt>
      <trkpt lat="42.645156" lon="0.647074">
        <ele>3004.8</ele>
        <time>1970-01-01T03:18:30.000Z</time>
      </trkpt>
      <trkpt lat="42.645151" lon="0.647078">
        <ele>3003.7</ele>
        <time>1970-01-01T03:18:31.000Z</time>
      </trkpt>
      <trkpt lat="42.645145" lon="0.647084">
        <ele>3003.7</ele>
        <time>1970-01-01T03:18:32.000Z</time>
      </trkpt>
      <trkpt lat="42.645138" lon="0.647089">
        <ele>3003.7</ele>
        <time>1970-01-01T03:18:33.000Z</time>
      </trkpt>
      <trkpt lat="42.645131" lon="0.647093">
        <ele>3004.2</ele>
        <time>1970-01-01T03:18:34.000Z</time>
      </trkpt>
      <trkpt lat="42.645126" lon="0.647096">
        <ele>3004.2</ele>
        <time>1970-01-01T03:18:35.000Z</time>
      </trkpt>
      <trkpt lat="42.645117" lon="0.647097">
        <ele>3004.2</ele>
        <time>1970-01-01T03:18:36.000Z</time>
      </trkpt>
      <trkpt lat="42.645107" lon="0.647098">
        <ele>3004.2</ele>
        <time>1970-01-01T03:18:38.000Z</time>
      </trkpt>
      <trkpt lat="42.645099" lon="0.647096">
        <ele>3004.6</ele>
        <time>1970-01-01T03:18:39.000Z</time>
      </trkpt>
      <trkpt lat="42.645084" lon="0.647095">
        <ele>3004.6</ele>
        <time>1970-01-01T03:18:40.000Z</time>
      </trkpt>
      <trkpt lat="42.645077" lon="0.647096">
        <ele>3004.6</ele>
        <time>1970-01-01T03:18:42.000Z</time>
      </trkpt>
      <trkpt lat="42.645069" lon="0.647098">
        <ele>3005.1</ele>
        <time>1970-01-01T03:18:43.000Z</time>
      </trkpt>
      <trkpt lat="42.645062" lon="0.647099">
        <ele>3005.1</ele>
        <time>1970-01-01T03:18:44.000Z</time>
      </trkpt>
      <trkpt lat="42.645053" lon="0.647103">
        <ele>3005.1</ele>
        <time>1970-01-01T03:18:45.000Z</time>
      </trkpt>
      <trkpt lat="42.645044" lon="0.647108">
        <ele>3005.1</ele>
        <time>1970-01-01T03:18:46.000Z</time>
      </trkpt>
      <trkpt lat="42.645033" lon="0.647115">
        <ele>3005.5</ele>
        <time>1970-01-01T03:18:48.000Z</time>
      </trkpt>
      <trkpt lat="42.645024" lon="0.647122">
        <ele>3004.5</ele>
        <time>1970-01-01T03:18:49.000Z</time>
      </trkpt>
      <trkpt lat="42.645015" lon="0.647126">
        <ele>3004.5</ele>
        <time>1970-01-01T03:18:50.000Z</time>
      </trkpt>
      <trkpt lat="42.644997" lon="0.647133">
        <ele>3004.9</ele>
        <time>1970-01-01T03:18:52.000Z</time>
      </trkpt>
      <trkpt lat="42.644988" lon="0.647138">
        <ele>3004.9</ele>
        <time>1970-01-01T03:18:53.000Z</time>
      </trkpt>
      <trkpt lat="42.644978" lon="0.647142">
        <ele>3004.9</ele>
        <time>1970-01-01T03:18:54.000Z</time>
      </trkpt>
      <trkpt lat="42.644968" lon="0.647147">
        <ele>3005.3</ele>
        <time>1970-01-01T03:18:56.000Z</time>
      </trkpt>
      <trkpt lat="42.644958" lon="0.647151">
        <ele>3005.3</ele>
        <time>1970-01-01T03:18:57.000Z</time>
      </trkpt>
      <trkpt lat="42.64495" lon="0.647154">
        <ele>3005.3</ele>
        <time>1970-01-01T03:18:58.000Z</time>
      </trkpt>
      <trkpt lat="42.644936" lon="0.647158">
        <ele>3005.6</ele>
        <time>1970-01-01T03:18:59.000Z</time>
      </trkpt>
      <trkpt lat="42.644925" lon="0.647162">
        <ele>3005.6</ele>
        <time>1970-01-01T03:19:01.000Z</time>
      </trkpt>
      <trkpt lat="42.644917" lon="0.647164">
        <ele>3004.7</ele>
        <time>1970-01-01T03:19:02.000Z</time>
      </trkpt>
      <trkpt lat="42.64491" lon="0.647166">
        <ele>3005</ele>
        <time>1970-01-01T03:19:03.000Z</time>
      </trkpt>
      <trkpt lat="42.644903" lon="0.647169">
        <ele>3005</ele>
        <time>1970-01-01T03:19:04.000Z</time>
      </trkpt>
      <trkpt lat="42.644894" lon="0.647172">
        <ele>3005</ele>
        <time>1970-01-01T03:19:05.000Z</time>
      </trkpt>
      <trkpt lat="42.644886" lon="0.647175">
        <ele>3005</ele>
        <time>1970-01-01T03:19:07.000Z</time>
      </trkpt>
      <trkpt lat="42.644877" lon="0.647181">
        <ele>3005.3</ele>
        <time>1970-01-01T03:19:08.000Z</time>
      </trkpt>
      <trkpt lat="42.644869" lon="0.647184">
        <ele>3005.3</ele>
        <time>1970-01-01T03:19:09.000Z</time>
      </trkpt>
      <trkpt lat="42.644858" lon="0.647187">
        <ele>3005.3</ele>
        <time>1970-01-01T03:19:11.000Z</time>
      </trkpt>
      <trkpt lat="42.644852" lon="0.647188">
        <ele>3005.3</ele>
        <time>1970-01-01T03:19:12.000Z</time>
      </trkpt>
      <trkpt lat="42.644848" lon="0.647189">
        <ele>3005.6</ele>
        <time>1970-01-01T03:19:13.000Z</time>
      </trkpt>
      <trkpt lat="42.644842" lon="0.647192">
        <ele>3005.6</ele>
        <time>1970-01-01T03:19:14.000Z</time>
      </trkpt>
      <trkpt lat="42.64483" lon="0.647198">
        <ele>3005.6</ele>
        <time>1970-01-01T03:19:15.000Z</time>
      </trkpt>
      <trkpt lat="42.644821" lon="0.647204">
        <ele>3005.6</ele>
        <time>1970-01-01T03:19:17.000Z</time>
      </trkpt>
      <trkpt lat="42.644811" lon="0.647209">
        <ele>3004.9</ele>
        <time>1970-01-01T03:19:18.000Z</time>
      </trkpt>
      <trkpt lat="42.644802" lon="0.647215">
        <ele>3004.9</ele>
        <time>1970-01-01T03:19:20.000Z</time>
      </trkpt>
      <trkpt lat="42.644796" lon="0.64722">
        <ele>3004.9</ele>
        <time>1970-01-01T03:19:21.000Z</time>
      </trkpt>
      <trkpt lat="42.644783" lon="0.647224">
        <ele>3005.2</ele>
        <time>1970-01-01T03:19:22.000Z</time>
      </trkpt>
      <trkpt lat="42.644776" lon="0.647225">
        <ele>3005.2</ele>
        <time>1970-01-01T03:19:24.000Z</time>
      </trkpt>
      <trkpt lat="42.644768" lon="0.647226">
        <ele>3005.2</ele>
        <time>1970-01-01T03:19:25.000Z</time>
      </trkpt>
      <trkpt lat="42.644761" lon="0.647228">
        <ele>3005.2</ele>
        <time>1970-01-01T03:19:27.000Z</time>
      </trkpt>
      <trkpt lat="42.644753" lon="0.647229">
        <ele>3005.6</ele>
        <time>1970-01-01T03:19:28.000Z</time>
      </trkpt>
      <trkpt lat="42.644745" lon="0.64723">
        <ele>3005.6</ele>
        <time>1970-01-01T03:19:29.000Z</time>
      </trkpt>
      <trkpt lat="42.644738" lon="0.647232">
        <ele>3005.6</ele>
        <time>1970-01-01T03:19:30.000Z</time>
      </trkpt>
      <trkpt lat="42.64473" lon="0.647233">
        <ele>3005.6</ele>
        <time>1970-01-01T03:19:32.000Z</time>
      </trkpt>
      <trkpt lat="42.644723" lon="0.647235">
        <ele>3005.9</ele>
        <time>1970-01-01T03:19:33.000Z</time>
      </trkpt>
      <trkpt lat="42.644715" lon="0.647236">
        <ele>3005.9</ele>
        <time>1970-01-01T03:19:34.000Z</time>
      </trkpt>
      <trkpt lat="42.644708" lon="0.647237">
        <ele>3005.9</ele>
        <time>1970-01-01T03:19:35.000Z</time>
      </trkpt>
      <trkpt lat="42.6447" lon="0.647239">
        <ele>3005.9</ele>
        <time>1970-01-01T03:19:37.000Z</time>
      </trkpt>
      <trkpt lat="42.644693" lon="0.64724">
        <ele>3005.9</ele>
        <time>1970-01-01T03:19:38.000Z</time>
      </trkpt>
      <trkpt lat="42.644688" lon="0.647241">
        <ele>3006.3</ele>
        <time>1970-01-01T03:19:39.000Z</time>
      </trkpt>
      <trkpt lat="42.644677" lon="0.647244">
        <ele>3006.3</ele>
        <time>1970-01-01T03:19:41.000Z</time>
      </trkpt>
      <trkpt lat="42.644669" lon="0.647247">
        <ele>3006.3</ele>
        <time>1970-01-01T03:19:42.000Z</time>
      </trkpt>
      <trkpt lat="42.644665" lon="0.647248">
        <ele>3006.3</ele>
        <time>1970-01-01T03:19:43.000Z</time>
      </trkpt>
      <trkpt lat="42.644659" lon="0.647251">
        <ele>3005.8</ele>
        <time>1970-01-01T03:19:44.000Z</time>
      </trkpt>
      <trkpt lat="42.644653" lon="0.647254">
        <ele>3005.8</ele>
        <time>1970-01-01T03:19:45.000Z</time>
      </trkpt>
      <trkpt lat="42.644645" lon="0.647257">
        <ele>3005.8</ele>
        <time>1970-01-01T03:19:46.000Z</time>
      </trkpt>
      <trkpt lat="42.64464" lon="0.647259">
        <ele>3005.8</ele>
        <time>1970-01-01T03:19:47.000Z</time>
      </trkpt>
      <trkpt lat="42.644631" lon="0.647261">
        <ele>3005.8</ele>
        <time>1970-01-01T03:19:49.000Z</time>
      </trkpt>
      <trkpt lat="42.644619" lon="0.647261">
        <ele>3006.2</ele>
        <time>1970-01-01T03:19:50.000Z</time>
      </trkpt>
      <trkpt lat="42.644612" lon="0.647261">
        <ele>3006.2</ele>
        <time>1970-01-01T03:19:51.000Z</time>
      </trkpt>
      <trkpt lat="42.644605" lon="0.647262">
        <ele>3006.2</ele>
        <time>1970-01-01T03:19:52.000Z</time>
      </trkpt>
      <trkpt lat="42.6446" lon="0.647264">
        <ele>3006.2</ele>
        <time>1970-01-01T03:19:53.000Z</time>
      </trkpt>
      <trkpt lat="42.644591" lon="0.647267">
        <ele>3006.6</ele>
        <time>1970-01-01T03:19:54.000Z</time>
      </trkpt>
      <trkpt lat="42.644584" lon="0.647271">
        <ele>3006.6</ele>
        <time>1970-01-01T03:19:56.000Z</time>
      </trkpt>
      <trkpt lat="42.644578" lon="0.647277">
        <ele>3006.6</ele>
        <time>1970-01-01T03:19:58.000Z</time>
      </trkpt>
      <trkpt lat="42.64457" lon="0.647282">
        <ele>3006.6</ele>
        <time>1970-01-01T03:19:59.000Z</time>
      </trkpt>
      <trkpt lat="42.644567" lon="0.647287">
        <ele>3006.6</ele>
        <time>1970-01-01T03:20:00.000Z</time>
      </trkpt>
      <trkpt lat="42.644564" lon="0.64729">
        <ele>3006.9</ele>
        <time>1970-01-01T03:20:01.000Z</time>
      </trkpt>
      <trkpt lat="42.644557" lon="0.647294">
        <ele>3006.1</ele>
        <time>1970-01-01T03:20:02.000Z</time>
      </trkpt>
      <trkpt lat="42.644549" lon="0.647297">
        <ele>3006.1</ele>
        <time>1970-01-01T03:20:04.000Z</time>
      </trkpt>
      <trkpt lat="42.644544" lon="0.647298">
        <ele>3006.1</ele>
        <time>1970-01-01T03:20:05.000Z</time>
      </trkpt>
      <trkpt lat="42.644538" lon="0.6473">
        <ele>3006.1</ele>
        <time>1970-01-01T03:20:06.000Z</time>
      </trkpt>
      <trkpt lat="42.644534" lon="0.647301">
        <ele>3006.6</ele>
        <time>1970-01-01T03:20:07.000Z</time>
      </trkpt>
      <trkpt lat="42.644529" lon="0.647303">
        <ele>3006.6</ele>
        <time>1970-01-01T03:20:08.000Z</time>
      </trkpt>
      <trkpt lat="42.644524" lon="0.647303">
        <ele>3006.6</ele>
        <time>1970-01-01T03:20:09.000Z</time>
      </trkpt>
      <trkpt lat="42.64452" lon="0.647305">
        <ele>3006.6</ele>
        <time>1970-01-01T03:20:10.000Z</time>
      </trkpt>
      <trkpt lat="42.644516" lon="0.647307">
        <ele>3006.6</ele>
        <time>1970-01-01T03:20:11.000Z</time>
      </trkpt>
      <trkpt lat="42.644512" lon="0.647311">
        <ele>3006.6</ele>
        <time>1970-01-01T03:20:12.000Z</time>
      </trkpt>
      <trkpt lat="42.644504" lon="0.647315">
        <ele>3006.6</ele>
        <time>1970-01-01T03:20:14.000Z</time>
      </trkpt>
      <trkpt lat="42.644494" lon="0.647318">
        <ele>3007.1</ele>
        <time>1970-01-01T03:20:15.000Z</time>
      </trkpt>
      <trkpt lat="42.64449" lon="0.647319">
        <ele>3007.1</ele>
        <time>1970-01-01T03:20:16.000Z</time>
      </trkpt>
      <trkpt lat="42.644484" lon="0.647319">
        <ele>3007.1</ele>
        <time>1970-01-01T03:20:17.000Z</time>
      </trkpt>
      <trkpt lat="42.644478" lon="0.647321">
        <ele>3007.1</ele>
        <time>1970-01-01T03:20:18.000Z</time>
      </trkpt>
      <trkpt lat="42.644472" lon="0.647323">
        <ele>3007.1</ele>
        <time>1970-01-01T03:20:19.000Z</time>
      </trkpt>
      <trkpt lat="42.644467" lon="0.647324">
        <ele>3007.7</ele>
        <time>1970-01-01T03:20:20.000Z</time>
      </trkpt>
      <trkpt lat="42.644459" lon="0.647328">
        <ele>3007.7</ele>
        <time>1970-01-01T03:20:21.000Z</time>
      </trkpt>
      <trkpt lat="42.644451" lon="0.647333">
        <ele>3007.7</ele>
        <time>1970-01-01T03:20:23.000Z</time>
      </trkpt>
      <trkpt lat="42.644443" lon="0.647341">
        <ele>3007</ele>
        <time>1970-01-01T03:20:24.000Z</time>
      </trkpt>
      <trkpt lat="42.644436" lon="0.647347">
        <ele>3007.7</ele>
        <time>1970-01-01T03:20:26.000Z</time>
      </trkpt>
      <trkpt lat="42.644428" lon="0.647351">
        <ele>3007.7</ele>
        <time>1970-01-01T03:20:27.000Z</time>
      </trkpt>
      <trkpt lat="42.644423" lon="0.647352">
        <ele>3007.7</ele>
        <time>1970-01-01T03:20:28.000Z</time>
      </trkpt>
      <trkpt lat="42.644415" lon="0.647352">
        <ele>3007.7</ele>
        <time>1970-01-01T03:20:29.000Z</time>
      </trkpt>
      <trkpt lat="42.644397" lon="0.64735">
        <ele>3008.4</ele>
        <time>1970-01-01T03:20:31.000Z</time>
      </trkpt>
      <trkpt lat="42.644382" lon="0.647349">
        <ele>3008.4</ele>
        <time>1970-01-01T03:20:32.000Z</time>
      </trkpt>
      <trkpt lat="42.644374" lon="0.64735">
        <ele>3009.1</ele>
        <time>1970-01-01T03:20:33.000Z</time>
      </trkpt>
      <trkpt lat="42.644363" lon="0.647355">
        <ele>3009.1</ele>
        <time>1970-01-01T03:20:34.000Z</time>
      </trkpt>
      <trkpt lat="42.644355" lon="0.64736">
        <ele>3009.1</ele>
        <time>1970-01-01T03:20:36.000Z</time>
      </trkpt>
      <trkpt lat="42.644348" lon="0.647366">
        <ele>3009.1</ele>
        <time>1970-01-01T03:20:37.000Z</time>
      </trkpt>
      <trkpt lat="42.644339" lon="0.647371">
        <ele>3009.7</ele>
        <time>1970-01-01T03:20:39.000Z</time>
      </trkpt>
      <trkpt lat="42.644332" lon="0.647377">
        <ele>3009.7</ele>
        <time>1970-01-01T03:20:40.000Z</time>
      </trkpt>
      <trkpt lat="42.644327" lon="0.647383">
        <ele>3009</ele>
        <time>1970-01-01T03:20:41.000Z</time>
      </trkpt>
      <trkpt lat="42.644321" lon="0.647388">
        <ele>3009</ele>
        <time>1970-01-01T03:20:43.000Z</time>
      </trkpt>
      <trkpt lat="42.644316" lon="0.647392">
        <ele>3009</ele>
        <time>1970-01-01T03:20:44.000Z</time>
      </trkpt>
      <trkpt lat="42.644312" lon="0.647395">
        <ele>3009.5</ele>
        <time>1970-01-01T03:20:45.000Z</time>
      </trkpt>
      <trkpt lat="42.644309" lon="0.647398">
        <ele>3009.5</ele>
        <time>1970-01-01T03:20:46.000Z</time>
      </trkpt>
      <trkpt lat="42.644308" lon="0.647399">
        <ele>3009.5</ele>
        <time>1970-01-01T03:20:47.000Z</time>
      </trkpt>
      <trkpt lat="42.644305" lon="0.647401">
        <ele>3009.5</ele>
        <time>1970-01-01T03:20:48.000Z</time>
      </trkpt>
      <trkpt lat="42.644302" lon="0.647402">
        <ele>3009.5</ele>
        <time>1970-01-01T03:20:49.000Z</time>
      </trkpt>
      <trkpt lat="42.644299" lon="0.647403">
        <ele>3009.5</ele>
        <time>1970-01-01T03:20:50.000Z</time>
      </trkpt>
      <trkpt lat="42.644294" lon="0.647404">
        <ele>3009.5</ele>
        <time>1970-01-01T03:20:51.000Z</time>
      </trkpt>
      <trkpt lat="42.644291" lon="0.647406">
        <ele>3009.5</ele>
        <time>1970-01-01T03:20:52.000Z</time>
      </trkpt>
      <trkpt lat="42.644288" lon="0.647408">
        <ele>3009.5</ele>
        <time>1970-01-01T03:20:53.000Z</time>
      </trkpt>
      <trkpt lat="42.644284" lon="0.64741">
        <ele>3009.5</ele>
        <time>1970-01-01T03:20:54.000Z</time>
      </trkpt>
      <trkpt lat="42.64428" lon="0.647412">
        <ele>3010.1</ele>
        <time>1970-01-01T03:20:56.000Z</time>
      </trkpt>
      <trkpt lat="42.644275" lon="0.647415">
        <ele>3010.1</ele>
        <time>1970-01-01T03:20:57.000Z</time>
      </trkpt>
      <trkpt lat="42.64427" lon="0.647418">
        <ele>3010.1</ele>
        <time>1970-01-01T03:20:58.000Z</time>
      </trkpt>
      <trkpt lat="42.644264" lon="0.647423">
        <ele>3009.4</ele>
        <time>1970-01-01T03:21:00.000Z</time>
      </trkpt>
      <trkpt lat="42.644258" lon="0.647427">
        <ele>3009.4</ele>
        <time>1970-01-01T03:21:01.000Z</time>
      </trkpt>
      <trkpt lat="42.644253" lon="0.647429">
        <ele>3009.4</ele>
        <time>1970-01-01T03:21:02.000Z</time>
      </trkpt>
      <trkpt lat="42.644248" lon="0.64743">
        <ele>3010.1</ele>
        <time>1970-01-01T03:21:03.000Z</time>
      </trkpt>
      <trkpt lat="42.644239" lon="0.647432">
        <ele>3010.1</ele>
        <time>1970-01-01T03:21:05.000Z</time>
      </trkpt>
      <trkpt lat="42.64423" lon="0.647434">
        <ele>3010.1</ele>
        <time>1970-01-01T03:21:07.000Z</time>
      </trkpt>
      <trkpt lat="42.644223" lon="0.647437">
        <ele>3010.1</ele>
        <time>1970-01-01T03:21:08.000Z</time>
      </trkpt>
      <trkpt lat="42.644218" lon="0.647441">
        <ele>3010.8</ele>
        <time>1970-01-01T03:21:09.000Z</time>
      </trkpt>
      <trkpt lat="42.644213" lon="0.647444">
        <ele>3010.8</ele>
        <time>1970-01-01T03:21:10.000Z</time>
      </trkpt>
      <trkpt lat="42.644208" lon="0.647445">
        <ele>3010.8</ele>
        <time>1970-01-01T03:21:11.000Z</time>
      </trkpt>
      <trkpt lat="42.644197" lon="0.647446">
        <ele>3010.8</ele>
        <time>1970-01-01T03:21:13.000Z</time>
      </trkpt>
      <trkpt lat="42.644189" lon="0.647447">
        <ele>3010.8</ele>
        <time>1970-01-01T03:21:14.000Z</time>
      </trkpt>
      <trkpt lat="42.644185" lon="0.647449">
        <ele>3011.7</ele>
        <time>1970-01-01T03:21:15.000Z</time>
      </trkpt>
      <trkpt lat="42.644181" lon="0.647452">
        <ele>3011.7</ele>
        <time>1970-01-01T03:21:16.000Z</time>
      </trkpt>
      <trkpt lat="42.644172" lon="0.647457">
        <ele>3011.7</ele>
        <time>1970-01-01T03:21:18.000Z</time>
      </trkpt>
      <trkpt lat="42.644165" lon="0.647463">
        <ele>3011.7</ele>
        <time>1970-01-01T03:21:19.000Z</time>
      </trkpt>
      <trkpt lat="42.644157" lon="0.647467">
        <ele>3010.9</ele>
        <time>1970-01-01T03:21:20.000Z</time>
      </trkpt>
      <trkpt lat="42.644147" lon="0.647473">
        <ele>3011.8</ele>
        <time>1970-01-01T03:21:22.000Z</time>
      </trkpt>
      <trkpt lat="42.644136" lon="0.647478">
        <ele>3011.8</ele>
        <time>1970-01-01T03:21:23.000Z</time>
      </trkpt>
      <trkpt lat="42.644128" lon="0.64748">
        <ele>3011.8</ele>
        <time>1970-01-01T03:21:24.000Z</time>
      </trkpt>
      <trkpt lat="42.644119" lon="0.647481">
        <ele>3012.6</ele>
        <time>1970-01-01T03:21:25.000Z</time>
      </trkpt>
      <trkpt lat="42.644109" lon="0.647481">
        <ele>3012.6</ele>
        <time>1970-01-01T03:21:27.000Z</time>
      </trkpt>
      <trkpt lat="42.644102" lon="0.647482">
        <ele>3012.6</ele>
        <time>1970-01-01T03:21:28.000Z</time>
      </trkpt>
      <trkpt lat="42.644097" lon="0.647485">
        <ele>3012.6</ele>
        <time>1970-01-01T03:21:29.000Z</time>
      </trkpt>
      <trkpt lat="42.64409" lon="0.647489">
        <ele>3013.4</ele>
        <time>1970-01-01T03:21:31.000Z</time>
      </trkpt>
      <trkpt lat="42.64408" lon="0.647491">
        <ele>3013.4</ele>
        <time>1970-01-01T03:21:32.000Z</time>
      </trkpt>
      <trkpt lat="42.644073" lon="0.647493">
        <ele>3013.4</ele>
        <time>1970-01-01T03:21:33.000Z</time>
      </trkpt>
      <trkpt lat="42.644067" lon="0.647496">
        <ele>3013.4</ele>
        <time>1970-01-01T03:21:34.000Z</time>
      </trkpt>
      <trkpt lat="42.644061" lon="0.647499">
        <ele>3014.2</ele>
        <time>1970-01-01T03:21:35.000Z</time>
      </trkpt>
      <trkpt lat="42.644055" lon="0.647504">
        <ele>3014.2</ele>
        <time>1970-01-01T03:21:36.000Z</time>
      </trkpt>
      <trkpt lat="42.644047" lon="0.647512">
        <ele>3013.5</ele>
        <time>1970-01-01T03:21:37.000Z</time>
      </trkpt>
      <trkpt lat="42.644039" lon="0.647521">
        <ele>3013.5</ele>
        <time>1970-01-01T03:21:39.000Z</time>
      </trkpt>
      <trkpt lat="42.644028" lon="0.647528">
        <ele>3014.3</ele>
        <time>1970-01-01T03:21:40.000Z</time>
      </trkpt>
      <trkpt lat="42.644018" lon="0.647531">
        <ele>3014.3</ele>
        <time>1970-01-01T03:21:41.000Z</time>
      </trkpt>
      <trkpt lat="42.644009" lon="0.647531">
        <ele>3014.3</ele>
        <time>1970-01-01T03:21:43.000Z</time>
      </trkpt>
      <trkpt lat="42.644004" lon="0.647531">
        <ele>3014.3</ele>
        <time>1970-01-01T03:21:44.000Z</time>
      </trkpt>
      <trkpt lat="42.644" lon="0.647532">
        <ele>3014.3</ele>
        <time>1970-01-01T03:21:45.000Z</time>
      </trkpt>
      <trkpt lat="42.643992" lon="0.647535">
        <ele>3015.3</ele>
        <time>1970-01-01T03:21:47.000Z</time>
      </trkpt>
      <trkpt lat="42.643985" lon="0.647532">
        <ele>3015.3</ele>
        <time>1970-01-01T03:21:48.000Z</time>
      </trkpt>
      <trkpt lat="42.64398" lon="0.647528">
        <ele>3015.3</ele>
        <time>1970-01-01T03:21:49.000Z</time>
      </trkpt>
      <trkpt lat="42.643973" lon="0.647518">
        <ele>3015.3</ele>
        <time>1970-01-01T03:21:50.000Z</time>
      </trkpt>
      <trkpt lat="42.643966" lon="0.647505">
        <ele>3017.1</ele>
        <time>1970-01-01T03:21:52.000Z</time>
      </trkpt>
      <trkpt lat="42.643961" lon="0.647498">
        <ele>3017.1</ele>
        <time>1970-01-01T03:21:53.000Z</time>
      </trkpt>
      <trkpt lat="42.643953" lon="0.647495">
        <ele>3017.1</ele>
        <time>1970-01-01T03:21:54.000Z</time>
      </trkpt>
      <trkpt lat="42.643942" lon="0.647494">
        <ele>3017.1</ele>
        <time>1970-01-01T03:21:55.000Z</time>
      </trkpt>
      <trkpt lat="42.643929" lon="0.647498">
        <ele>3018.2</ele>
        <time>1970-01-01T03:21:57.000Z</time>
      </trkpt>
      <trkpt lat="42.643917" lon="0.647506">
        <ele>3018.2</ele>
        <time>1970-01-01T03:21:58.000Z</time>
      </trkpt>
      <trkpt lat="42.643908" lon="0.647513">
        <ele>3017.4</ele>
        <time>1970-01-01T03:21:59.000Z</time>
      </trkpt>
      <trkpt lat="42.643895" lon="0.647524">
        <ele>3018.6</ele>
        <time>1970-01-01T03:22:01.000Z</time>
      </trkpt>
      <trkpt lat="42.643886" lon="0.647534">
        <ele>3018.6</ele>
        <time>1970-01-01T03:22:02.000Z</time>
      </trkpt>
      <trkpt lat="42.643877" lon="0.647544">
        <ele>3018.6</ele>
        <time>1970-01-01T03:22:03.000Z</time>
      </trkpt>
      <trkpt lat="42.643868" lon="0.647549">
        <ele>3019.8</ele>
        <time>1970-01-01T03:22:05.000Z</time>
      </trkpt>
      <trkpt lat="42.643858" lon="0.647557">
        <ele>3019</ele>
        <time>1970-01-01T03:22:07.000Z</time>
      </trkpt>
      <trkpt lat="42.643849" lon="0.647567">
        <ele>3019</ele>
        <time>1970-01-01T03:22:08.000Z</time>
      </trkpt>
      <trkpt lat="42.643843" lon="0.647574">
        <ele>3019</ele>
        <time>1970-01-01T03:22:09.000Z</time>
      </trkpt>
      <trkpt lat="42.643837" lon="0.647582">
        <ele>3020.1</ele>
        <time>1970-01-01T03:22:10.000Z</time>
      </trkpt>
      <trkpt lat="42.64383" lon="0.647596">
        <ele>3019.4</ele>
        <time>1970-01-01T03:22:12.000Z</time>
      </trkpt>
      <trkpt lat="42.643822" lon="0.647602">
        <ele>3019.4</ele>
        <time>1970-01-01T03:22:13.000Z</time>
      </trkpt>
      <trkpt lat="42.643813" lon="0.647602">
        <ele>3019.4</ele>
        <time>1970-01-01T03:22:14.000Z</time>
      </trkpt>
      <trkpt lat="42.643805" lon="0.6476">
        <ele>3020.5</ele>
        <time>1970-01-01T03:22:15.000Z</time>
      </trkpt>
      <trkpt lat="42.643798" lon="0.647607">
        <ele>3020.5</ele>
        <time>1970-01-01T03:22:17.000Z</time>
      </trkpt>
      <trkpt lat="42.643798" lon="0.647619">
        <ele>3020.5</ele>
        <time>1970-01-01T03:22:18.000Z</time>
      </trkpt>
      <trkpt lat="42.643803" lon="0.647636">
        <ele>3019.9</ele>
        <time>1970-01-01T03:22:19.000Z</time>
      </trkpt>
      <trkpt lat="42.643808" lon="0.647648">
        <ele>3019.9</ele>
        <time>1970-01-01T03:22:20.000Z</time>
      </trkpt>
      <trkpt lat="42.64381" lon="0.647666">
        <ele>3018.8</ele>
        <time>1970-01-01T03:22:22.000Z</time>
      </trkpt>
      <trkpt lat="42.6438" lon="0.647685">
        <ele>3019.3</ele>
        <time>1970-01-01T03:22:24.000Z</time>
      </trkpt>
      <trkpt lat="42.643791" lon="0.647688">
        <ele>3019.3</ele>
        <time>1970-01-01T03:22:25.000Z</time>
      </trkpt>
      <trkpt lat="42.643784" lon="0.647682">
        <ele>3019.3</ele>
        <time>1970-01-01T03:22:26.000Z</time>
      </trkpt>
      <trkpt lat="42.643784" lon="0.647672">
        <ele>3019.9</ele>
        <time>1970-01-01T03:22:27.000Z</time>
      </trkpt>
      <trkpt lat="42.643785" lon="0.647665">
        <ele>3019.9</ele>
        <time>1970-01-01T03:22:28.000Z</time>
      </trkpt>
      <trkpt lat="42.643785" lon="0.647661">
        <ele>3019.9</ele>
        <time>1970-01-01T03:22:29.000Z</time>
      </trkpt>
      <trkpt lat="42.643784" lon="0.647659">
        <ele>3019.9</ele>
        <time>1970-01-01T03:22:30.000Z</time>
      </trkpt>
      <trkpt lat="42.643783" lon="0.647658">
        <ele>3019.9</ele>
        <time>1970-01-01T03:22:31.000Z</time>
      </trkpt>
      <trkpt lat="42.643782" lon="0.647656">
        <ele>3019.9</ele>
        <time>1970-01-01T03:22:32.000Z</time>
      </trkpt>
      <trkpt lat="42.643782" lon="0.647654">
        <ele>3019.9</ele>
        <time>1970-01-01T03:22:33.000Z</time>
      </trkpt>
      <trkpt lat="42.643782" lon="0.647653">
        <ele>3019.9</ele>
        <time>1970-01-01T03:22:34.000Z</time>
      </trkpt>
      <trkpt lat="42.643781" lon="0.647652">
        <ele>3019.9</ele>
        <time>1970-01-01T03:22:35.000Z</time>
      </trkpt>
      <trkpt lat="42.64378" lon="0.647652">
        <ele>3019.9</ele>
        <time>1970-01-01T03:22:36.000Z</time>
      </trkpt>
      <trkpt lat="42.64378" lon="0.647653">
        <ele>3019.9</ele>
        <time>1970-01-01T03:22:37.000Z</time>
      </trkpt>
      <trkpt lat="42.643779" lon="0.647654">
        <ele>3019.9</ele>
        <time>1970-01-01T03:22:38.000Z</time>
      </trkpt>
      <trkpt lat="42.64378" lon="0.647656">
        <ele>3019.9</ele>
        <time>1970-01-01T03:22:40.000Z</time>
      </trkpt>
      <trkpt lat="42.64378" lon="0.647657">
        <ele>3019.9</ele>
        <time>1970-01-01T03:22:41.000Z</time>
      </trkpt>
      <trkpt lat="42.643782" lon="0.647662">
        <ele>3019.9</ele>
        <time>1970-01-01T03:22:42.000Z</time>
      </trkpt>
      <trkpt lat="42.643785" lon="0.647664">
        <ele>3019.9</ele>
        <time>1970-01-01T03:22:43.000Z</time>
      </trkpt>
      <trkpt lat="42.643788" lon="0.647665">
        <ele>3019.9</ele>
        <time>1970-01-01T03:22:44.000Z</time>
      </trkpt>
      <trkpt lat="42.64379" lon="0.647664">
        <ele>3019.9</ele>
        <time>1970-01-01T03:22:45.000Z</time>
      </trkpt>
      <trkpt lat="42.643793" lon="0.647663">
        <ele>3019.9</ele>
        <time>1970-01-01T03:22:46.000Z</time>
      </trkpt>
      <trkpt lat="42.643795" lon="0.647661">
        <ele>3019.9</ele>
        <time>1970-01-01T03:22:47.000Z</time>
      </trkpt>
      <trkpt lat="42.643798" lon="0.64766">
        <ele>3019.9</ele>
        <time>1970-01-01T03:22:48.000Z</time>
      </trkpt>
      <trkpt lat="42.643799" lon="0.64766">
        <ele>3019.9</ele>
        <time>1970-01-01T03:22:49.000Z</time>
      </trkpt>
      <trkpt lat="42.643801" lon="0.647658">
        <ele>3019.9</ele>
        <time>1970-01-01T03:22:50.000Z</time>
      </trkpt>
      <trkpt lat="42.643801" lon="0.647658">
        <ele>3019.9</ele>
        <time>1970-01-01T03:22:51.000Z</time>
      </trkpt>
      <trkpt lat="42.643802" lon="0.647658">
        <ele>3019.9</ele>
        <time>1970-01-01T03:22:52.000Z</time>
      </trkpt>
      <trkpt lat="42.643803" lon="0.647657">
        <ele>3019.9</ele>
        <time>1970-01-01T03:22:53.000Z</time>
      </trkpt>
      <trkpt lat="42.643804" lon="0.647656">
        <ele>3019.9</ele>
        <time>1970-01-01T03:22:54.000Z</time>
      </trkpt>
      <trkpt lat="42.643805" lon="0.647656">
        <ele>3019.9</ele>
        <time>1970-01-01T03:22:55.000Z</time>
      </trkpt>
      <trkpt lat="42.643806" lon="0.647655">
        <ele>3019.9</ele>
        <time>1970-01-01T03:22:56.000Z</time>
      </trkpt>
      <trkpt lat="42.643806" lon="0.647654">
        <ele>3019.9</ele>
        <time>1970-01-01T03:22:57.000Z</time>
      </trkpt>
      <trkpt lat="42.643807" lon="0.647651">
        <ele>3019.9</ele>
        <time>1970-01-01T03:22:58.000Z</time>
      </trkpt>
      <trkpt lat="42.643807" lon="0.647649">
        <ele>3019.9</ele>
        <time>1970-01-01T03:22:59.000Z</time>
      </trkpt>
      <trkpt lat="42.643808" lon="0.647648">
        <ele>3019.9</ele>
        <time>1970-01-01T03:23:00.000Z</time>
      </trkpt>
      <trkpt lat="42.643808" lon="0.647648">
        <ele>3019.9</ele>
        <time>1970-01-01T03:23:01.000Z</time>
      </trkpt>
      <trkpt lat="42.643808" lon="0.647648">
        <ele>3019.9</ele>
        <time>1970-01-01T03:23:02.000Z</time>
      </trkpt>
      <trkpt lat="42.643808" lon="0.647648">
        <ele>3019.9</ele>
        <time>1970-01-01T03:23:03.000Z</time>
      </trkpt>
      <trkpt lat="42.643808" lon="0.647648">
        <ele>3019.9</ele>
        <time>1970-01-01T03:23:04.000Z</time>
      </trkpt>
      <trkpt lat="42.643808" lon="0.647648">
        <ele>3019.9</ele>
        <time>1970-01-01T03:23:05.000Z</time>
      </trkpt>
      <trkpt lat="42.643808" lon="0.647648">
        <ele>3019.9</ele>
        <time>1970-01-01T03:23:06.000Z</time>
      </trkpt>
      <trkpt lat="42.643808" lon="0.647648">
        <ele>3019.9</ele>
        <time>1970-01-01T03:23:07.000Z</time>
      </trkpt>
      <trkpt lat="42.643808" lon="0.647648">
        <ele>3019.9</ele>
        <time>1970-01-01T03:23:08.000Z</time>
      </trkpt>
      <trkpt lat="42.643808" lon="0.647648">
        <ele>3019.9</ele>
        <time>1970-01-01T03:23:09.000Z</time>
      </trkpt>
      <trkpt lat="42.643808" lon="0.647648">
        <ele>3019.9</ele>
        <time>1970-01-01T03:23:10.000Z</time>
      </trkpt>
      <trkpt lat="42.643808" lon="0.647648">
        <ele>3019.9</ele>
        <time>1970-01-01T03:23:11.000Z</time>
      </trkpt>
      <trkpt lat="42.643808" lon="0.647648">
        <ele>3019.9</ele>
        <time>1970-01-01T03:23:12.000Z</time>
      </trkpt>
      <trkpt lat="42.643808" lon="0.647648">
        <ele>3019.9</ele>
        <time>1970-01-01T03:23:13.000Z</time>
      </trkpt>
      <trkpt lat="42.643808" lon="0.647648">
        <ele>3019.9</ele>
        <time>1970-01-01T03:23:14.000Z</time>
      </trkpt>
      <trkpt lat="42.643808" lon="0.647648">
        <ele>3019.9</ele>
        <time>1970-01-01T03:23:15.000Z</time>
      </trkpt>
      <trkpt lat="42.643808" lon="0.647648">
        <ele>3019.9</ele>
        <time>1970-01-01T03:23:16.000Z</time>
      </trkpt>
      <trkpt lat="42.643808" lon="0.647648">
        <ele>3019.9</ele>
        <time>1970-01-01T03:23:17.000Z</time>
      </trkpt>
      <trkpt lat="42.643808" lon="0.647648">
        <ele>3019.9</ele>
        <time>1970-01-01T03:23:18.000Z</time>
      </trkpt>
      <trkpt lat="42.643808" lon="0.647648">
        <ele>3019.9</ele>
        <time>1970-01-01T03:23:19.000Z</time>
      </trkpt>
      <trkpt lat="42.643808" lon="0.647648">
        <ele>3019.9</ele>
        <time>1970-01-01T03:23:20.000Z</time>
      </trkpt>
      <trkpt lat="42.643808" lon="0.647648">
        <ele>3019.9</ele>
        <time>1970-01-01T03:23:21.000Z</time>
      </trkpt>
      <trkpt lat="42.643808" lon="0.647648">
        <ele>3019.9</ele>
        <time>1970-01-01T03:23:22.000Z</time>
      </trkpt>
      <trkpt lat="42.643808" lon="0.647648">
        <ele>3019.9</ele>
        <time>1970-01-01T03:23:23.000Z</time>
      </trkpt>
      <trkpt lat="42.643808" lon="0.647648">
        <ele>3019.9</ele>
        <time>1970-01-01T03:23:24.000Z</time>
      </trkpt>
      <trkpt lat="42.643808" lon="0.647648">
        <ele>3019.9</ele>
        <time>1970-01-01T03:23:25.000Z</time>
      </trkpt>
      <trkpt lat="42.643808" lon="0.647648">
        <ele>3019.9</ele>
        <time>1970-01-01T03:23:26.000Z</time>
      </trkpt>
      <trkpt lat="42.643808" lon="0.647648">
        <ele>3019.9</ele>
        <time>1970-01-01T03:23:27.000Z</time>
      </trkpt>
      <trkpt lat="42.643808" lon="0.647648">
        <ele>3019.9</ele>
        <time>1970-01-01T03:23:28.000Z</time>
      </trkpt>
      <trkpt lat="42.643808" lon="0.647648">
        <ele>3019.9</ele>
        <time>1970-01-01T03:23:29.000Z</time>
      </trkpt>
      <trkpt lat="42.643808" lon="0.647648">
        <ele>3019.9</ele>
        <time>1970-01-01T03:23:30.000Z</time>
      </trkpt>
      <trkpt lat="42.643808" lon="0.647648">
        <ele>3019.9</ele>
        <time>1970-01-01T03:23:31.000Z</time>
      </trkpt>
      <trkpt lat="42.643808" lon="0.647648">
        <ele>3019.9</ele>
        <time>1970-01-01T03:23:32.000Z</time>
      </trkpt>
      <trkpt lat="42.643808" lon="0.647648">
        <ele>3019.9</ele>
        <time>1970-01-01T03:23:33.000Z</time>
      </trkpt>
      <trkpt lat="42.643808" lon="0.647648">
        <ele>3019.9</ele>
        <time>1970-01-01T03:23:34.000Z</time>
      </trkpt>
      <trkpt lat="42.643808" lon="0.647648">
        <ele>3019.9</ele>
        <time>1970-01-01T03:23:35.000Z</time>
      </trkpt>
      <trkpt lat="42.643808" lon="0.647648">
        <ele>3019.9</ele>
        <time>1970-01-01T03:23:36.000Z</time>
      </trkpt>
      <trkpt lat="42.643808" lon="0.647648">
        <ele>3019.9</ele>
        <time>1970-01-01T03:23:37.000Z</time>
      </trkpt>
      <trkpt lat="42.643808" lon="0.647648">
        <ele>3019.9</ele>
        <time>1970-01-01T03:23:38.000Z</time>
      </trkpt>
      <trkpt lat="42.643808" lon="0.647648">
        <ele>3019.9</ele>
        <time>1970-01-01T03:23:39.000Z</time>
      </trkpt>
      <trkpt lat="42.643808" lon="0.647648">
        <ele>3019.9</ele>
        <time>1970-01-01T03:23:40.000Z</time>
      </trkpt>
      <trkpt lat="42.643808" lon="0.647648">
        <ele>3019.9</ele>
        <time>1970-01-01T03:23:41.000Z</time>
      </trkpt>
      <trkpt lat="42.643808" lon="0.647648">
        <ele>3019.9</ele>
        <time>1970-01-01T03:23:42.000Z</time>
      </trkpt>
      <trkpt lat="42.643808" lon="0.647648">
        <ele>3019.9</ele>
        <time>1970-01-01T03:23:43.000Z</time>
      </trkpt>
      <trkpt lat="42.643808" lon="0.647648">
        <ele>3019.9</ele>
        <time>1970-01-01T03:23:44.000Z</time>
      </trkpt>
      <trkpt lat="42.643808" lon="0.647648">
        <ele>3019.9</ele>
        <time>1970-01-01T03:23:45.000Z</time>
      </trkpt>
      <trkpt lat="42.643808" lon="0.647648">
        <ele>3019.9</ele>
        <time>1970-01-01T03:23:46.000Z</time>
      </trkpt>
      <trkpt lat="42.643808" lon="0.647648">
        <ele>3019.9</ele>
        <time>1970-01-01T03:23:47.000Z</time>
      </trkpt>
      <trkpt lat="42.643808" lon="0.647648">
        <ele>3019.9</ele>
        <time>1970-01-01T03:23:48.000Z</time>
      </trkpt>
      <trkpt lat="42.643808" lon="0.647648">
        <ele>3019.9</ele>
        <time>1970-01-01T03:23:49.000Z</time>
      </trkpt>
      <trkpt lat="42.643808" lon="0.647648">
        <ele>3019.9</ele>
        <time>1970-01-01T03:23:50.000Z</time>
      </trkpt>
      <trkpt lat="42.643808" lon="0.647648">
        <ele>3019.9</ele>
        <time>1970-01-01T03:23:51.000Z</time>
      </trkpt>
      <trkpt lat="42.643808" lon="0.647648">
        <ele>3019.9</ele>
        <time>1970-01-01T03:23:52.000Z</time>
      </trkpt>
      <trkpt lat="42.643808" lon="0.647648">
        <ele>3019.9</ele>
        <time>1970-01-01T03:23:53.000Z</time>
      </trkpt>
      <trkpt lat="42.643808" lon="0.647648">
        <ele>3019.9</ele>
        <time>1970-01-01T03:23:54.000Z</time>
      </trkpt>
      <trkpt lat="42.643808" lon="0.647648">
        <ele>3019.9</ele>
        <time>1970-01-01T03:23:55.000Z</time>
      </trkpt>
      <trkpt lat="42.643808" lon="0.647648">
        <ele>3019.9</ele>
        <time>1970-01-01T03:23:56.000Z</time>
      </trkpt>
      <trkpt lat="42.643808" lon="0.647648">
        <ele>3019.9</ele>
        <time>1970-01-01T03:23:57.000Z</time>
      </trkpt>
      <trkpt lat="42.643808" lon="0.647648">
        <ele>3019.9</ele>
        <time>1970-01-01T03:23:58.000Z</time>
      </trkpt>
      <trkpt lat="42.643808" lon="0.647648">
        <ele>3019.9</ele>
        <time>1970-01-01T03:23:59.000Z</time>
      </trkpt>
      <trkpt lat="42.643808" lon="0.647648">
        <ele>3019.9</ele>
        <time>1970-01-01T03:24:00.000Z</time>
      </trkpt>
      <trkpt lat="42.643808" lon="0.647648">
        <ele>3019.9</ele>
        <time>1970-01-01T03:24:01.000Z</time>
      </trkpt>
      <trkpt lat="42.643808" lon="0.647648">
        <ele>3020.3</ele>
        <time>1970-01-01T03:24:02.000Z</time>
      </trkpt>
      <trkpt lat="42.643808" lon="0.647648">
        <ele>3020.7</ele>
        <time>1970-01-01T03:24:03.000Z</time>
      </trkpt>
      <trkpt lat="42.643808" lon="0.647648">
        <ele>3021.1</ele>
        <time>1970-01-01T03:24:04.000Z</time>
      </trkpt>
      <trkpt lat="42.643808" lon="0.647648">
        <ele>3021.5</ele>
        <time>1970-01-01T03:24:05.000Z</time>
      </trkpt>
      <trkpt lat="42.643808" lon="0.647648">
        <ele>3021.9</ele>
        <time>1970-01-01T03:24:06.000Z</time>
      </trkpt>
      <trkpt lat="42.643808" lon="0.647648">
        <ele>3022.3</ele>
        <time>1970-01-01T03:24:07.000Z</time>
      </trkpt>
      <trkpt lat="42.643808" lon="0.647648">
        <ele>3022.7</ele>
        <time>1970-01-01T03:24:08.000Z</time>
      </trkpt>
      <trkpt lat="42.643808" lon="0.647648">
        <ele>3023.1</ele>
        <time>1970-01-01T03:24:09.000Z</time>
      </trkpt>
      <trkpt lat="42.643808" lon="0.647648">
        <ele>3023.5</ele>
        <time>1970-01-01T03:24:10.000Z</time>
      </trkpt>
      <trkpt lat="42.643808" lon="0.647648">
        <ele>3023.9</ele>
        <time>1970-01-01T03:24:11.000Z</time>
      </trkpt>
      <trkpt lat="42.643808" lon="0.647648">
        <ele>3024.2</ele>
        <time>1970-01-01T03:24:12.000Z</time>
      </trkpt>
      <trkpt lat="42.643808" lon="0.647648">
        <ele>3024.6</ele>
        <time>1970-01-01T03:24:13.000Z</time>
      </trkpt>
      <trkpt lat="42.643808" lon="0.647648">
        <ele>3025</ele>
        <time>1970-01-01T03:24:14.000Z</time>
      </trkpt>
      <trkpt lat="42.643808" lon="0.647648">
        <ele>3025.4</ele>
        <time>1970-01-01T03:24:15.000Z</time>
      </trkpt>
      <trkpt lat="42.643808" lon="0.647648">
        <ele>3025.8</ele>
        <time>1970-01-01T03:24:16.000Z</time>
      </trkpt>
      <trkpt lat="42.643808" lon="0.647648">
        <ele>3026.2</ele>
        <time>1970-01-01T03:24:17.000Z</time>
      </trkpt>
      <trkpt lat="42.643808" lon="0.647648">
        <ele>3026.6</ele>
        <time>1970-01-01T03:24:18.000Z</time>
      </trkpt>
      <trkpt lat="42.643808" lon="0.647648">
        <ele>3027</ele>
        <time>1970-01-01T03:24:19.000Z</time>
      </trkpt>
      <trkpt lat="42.643808" lon="0.647648">
        <ele>3027.4</ele>
        <time>1970-01-01T03:24:20.000Z</time>
      </trkpt>
      <trkpt lat="42.643808" lon="0.647648">
        <ele>3027.8</ele>
        <time>1970-01-01T03:24:21.000Z</time>
      </trkpt>
      <trkpt lat="42.643808" lon="0.647648">
        <ele>3028.2</ele>
        <time>1970-01-01T03:24:22.000Z</time>
      </trkpt>
      <trkpt lat="42.643808" lon="0.647648">
        <ele>3028.6</ele>
        <time>1970-01-01T03:24:23.000Z</time>
      </trkpt>
      <trkpt lat="42.643808" lon="0.647648">
        <ele>3029</ele>
        <time>1970-01-01T03:24:24.000Z</time>
      </trkpt>
      <trkpt lat="42.643808" lon="0.647648">
        <ele>3029.4</ele>
        <time>1970-01-01T03:24:25.000Z</time>
      </trkpt>
      <trkpt lat="42.643808" lon="0.647648">
        <ele>3029.8</ele>
        <time>1970-01-01T03:24:26.000Z</time>
      </trkpt>
      <trkpt lat="42.643808" lon="0.647648">
        <ele>3030.2</ele>
        <time>1970-01-01T03:24:27.000Z</time>
      </trkpt>
      <trkpt lat="42.643808" lon="0.647648">
        <ele>3030.6</ele>
        <time>1970-01-01T03:24:28.000Z</time>
      </trkpt>
      <trkpt lat="42.643808" lon="0.647648">
        <ele>3031</ele>
        <time>1970-01-01T03:24:29.000Z</time>
      </trkpt>
      <trkpt lat="42.643808" lon="0.647648">
        <ele>3031.4</ele>
        <time>1970-01-01T03:24:30.000Z</time>
      </trkpt>
      <trkpt lat="42.643808" lon="0.647648">
        <ele>3031.8</ele>
        <time>1970-01-01T03:24:31.000Z</time>
      </trkpt>
      <trkpt lat="42.643808" lon="0.647648">
        <ele>3032.1</ele>
        <time>1970-01-01T03:24:32.000Z</time>
      </trkpt>
      <trkpt lat="42.643809" lon="0.647648">
        <ele>3031.4</ele>
        <time>1970-01-01T03:24:33.000Z</time>
      </trkpt>
      <trkpt lat="42.643808" lon="0.647648">
        <ele>3032.9</ele>
        <time>1970-01-01T03:24:34.000Z</time>
      </trkpt>
      <trkpt lat="42.643808" lon="0.647648">
        <ele>3033.3</ele>
        <time>1970-01-01T03:24:35.000Z</time>
      </trkpt>
      <trkpt lat="42.643808" lon="0.647648">
        <ele>3033.7</ele>
        <time>1970-01-01T03:24:36.000Z</time>
      </trkpt>
      <trkpt lat="42.643808" lon="0.647648">
        <ele>3034.1</ele>
        <time>1970-01-01T03:24:37.000Z</time>
      </trkpt>
      <trkpt lat="42.643808" lon="0.647648">
        <ele>3034.5</ele>
        <time>1970-01-01T03:24:38.000Z</time>
      </trkpt>
      <trkpt lat="42.643808" lon="0.647648">
        <ele>3034.9</ele>
        <time>1970-01-01T03:24:39.000Z</time>
      </trkpt>
      <trkpt lat="42.643808" lon="0.647648">
        <ele>3035.3</ele>
        <time>1970-01-01T03:24:40.000Z</time>
      </trkpt>
      <trkpt lat="42.643808" lon="0.647648">
        <ele>3035.7</ele>
        <time>1970-01-01T03:24:41.000Z</time>
      </trkpt>
      <trkpt lat="42.643809" lon="0.647648">
        <ele>3035</ele>
        <time>1970-01-01T03:24:42.000Z</time>
      </trkpt>
      <trkpt lat="42.643809" lon="0.647648">
        <ele>3035.4</ele>
        <time>1970-01-01T03:24:43.000Z</time>
      </trkpt>
      <trkpt lat="42.643809" lon="0.647648">
        <ele>3035.8</ele>
        <time>1970-01-01T03:24:44.000Z</time>
      </trkpt>
      <trkpt lat="42.643809" lon="0.647648">
        <ele>3036.2</ele>
        <time>1970-01-01T03:24:45.000Z</time>
      </trkpt>
      <trkpt lat="42.643809" lon="0.647648">
        <ele>3036.6</ele>
        <time>1970-01-01T03:24:46.000Z</time>
      </trkpt>
      <trkpt lat="42.643809" lon="0.647648">
        <ele>3037</ele>
        <time>1970-01-01T03:24:47.000Z</time>
      </trkpt>
      <trkpt lat="42.643809" lon="0.647648">
        <ele>3037.4</ele>
        <time>1970-01-01T03:24:48.000Z</time>
      </trkpt>
      <trkpt lat="42.643809" lon="0.647648">
        <ele>3037.8</ele>
        <time>1970-01-01T03:24:49.000Z</time>
      </trkpt>
      <trkpt lat="42.643809" lon="0.647648">
        <ele>3038.2</ele>
        <time>1970-01-01T03:24:50.000Z</time>
      </trkpt>
      <trkpt lat="42.643809" lon="0.647648">
        <ele>3038.6</ele>
        <time>1970-01-01T03:24:51.000Z</time>
      </trkpt>
      <trkpt lat="42.643809" lon="0.647648">
        <ele>3038.9</ele>
        <time>1970-01-01T03:24:52.000Z</time>
      </trkpt>
      <trkpt lat="42.643809" lon="0.647648">
        <ele>3039.3</ele>
        <time>1970-01-01T03:24:53.000Z</time>
      </trkpt>
      <trkpt lat="42.643809" lon="0.647648">
        <ele>3039.7</ele>
        <time>1970-01-01T03:24:54.000Z</time>
      </trkpt>
      <trkpt lat="42.643809" lon="0.647647">
        <ele>3040.1</ele>
        <time>1970-01-01T03:24:55.000Z</time>
      </trkpt>
      <trkpt lat="42.643809" lon="0.647648">
        <ele>3040.5</ele>
        <time>1970-01-01T03:24:56.000Z</time>
      </trkpt>
      <trkpt lat="42.643809" lon="0.647647">
        <ele>3040.9</ele>
        <time>1970-01-01T03:24:57.000Z</time>
      </trkpt>
      <trkpt lat="42.643809" lon="0.647647">
        <ele>3041.3</ele>
        <time>1970-01-01T03:24:58.000Z</time>
      </trkpt>
      <trkpt lat="42.643809" lon="0.647647">
        <ele>3041.7</ele>
        <time>1970-01-01T03:24:59.000Z</time>
      </trkpt>
      <trkpt lat="42.643809" lon="0.647647">
        <ele>3042.1</ele>
        <time>1970-01-01T03:25:00.000Z</time>
      </trkpt>
      <trkpt lat="42.643809" lon="0.647647">
        <ele>3042.5</ele>
        <time>1970-01-01T03:25:01.000Z</time>
      </trkpt>
      <trkpt lat="42.643809" lon="0.647647">
        <ele>3042.9</ele>
        <time>1970-01-01T03:25:02.000Z</time>
      </trkpt>
      <trkpt lat="42.643809" lon="0.647647">
        <ele>3043.3</ele>
        <time>1970-01-01T03:25:03.000Z</time>
      </trkpt>
      <trkpt lat="42.643809" lon="0.647647">
        <ele>3043.7</ele>
        <time>1970-01-01T03:25:04.000Z</time>
      </trkpt>
      <trkpt lat="42.643809" lon="0.647647">
        <ele>3044.1</ele>
        <time>1970-01-01T03:25:05.000Z</time>
      </trkpt>
      <trkpt lat="42.643809" lon="0.647647">
        <ele>3044.5</ele>
        <time>1970-01-01T03:25:06.000Z</time>
      </trkpt>
      <trkpt lat="42.643809" lon="0.647647">
        <ele>3044.9</ele>
        <time>1970-01-01T03:25:07.000Z</time>
      </trkpt>
      <trkpt lat="42.643809" lon="0.647647">
        <ele>3045.3</ele>
        <time>1970-01-01T03:25:08.000Z</time>
      </trkpt>
      <trkpt lat="42.643809" lon="0.647647">
        <ele>3045.7</ele>
        <time>1970-01-01T03:25:09.000Z</time>
      </trkpt>
      <trkpt lat="42.643809" lon="0.647647">
        <ele>3046.1</ele>
        <time>1970-01-01T03:25:10.000Z</time>
      </trkpt>
      <trkpt lat="42.643809" lon="0.647647">
        <ele>3046.5</ele>
        <time>1970-01-01T03:25:11.000Z</time>
      </trkpt>
      <trkpt lat="42.643809" lon="0.647647">
        <ele>3046.8</ele>
        <time>1970-01-01T03:25:12.000Z</time>
      </trkpt>
      <trkpt lat="42.643809" lon="0.647647">
        <ele>3047.2</ele>
        <time>1970-01-01T03:25:13.000Z</time>
      </trkpt>
      <trkpt lat="42.643809" lon="0.647647">
        <ele>3047.6</ele>
        <time>1970-01-01T03:25:14.000Z</time>
      </trkpt>
      <trkpt lat="42.643809" lon="0.647647">
        <ele>3048</ele>
        <time>1970-01-01T03:25:15.000Z</time>
      </trkpt>
      <trkpt lat="42.643809" lon="0.647647">
        <ele>3048.4</ele>
        <time>1970-01-01T03:25:16.000Z</time>
      </trkpt>
      <trkpt lat="42.643809" lon="0.647647">
        <ele>3048.8</ele>
        <time>1970-01-01T03:25:17.000Z</time>
      </trkpt>
      <trkpt lat="42.643809" lon="0.647647">
        <ele>3049.2</ele>
        <time>1970-01-01T03:25:18.000Z</time>
      </trkpt>
      <trkpt lat="42.643809" lon="0.647647">
        <ele>3049.6</ele>
        <time>1970-01-01T03:25:19.000Z</time>
      </trkpt>
      <trkpt lat="42.643809" lon="0.647647">
        <ele>3050</ele>
        <time>1970-01-01T03:25:20.000Z</time>
      </trkpt>
      <trkpt lat="42.643809" lon="0.647647">
        <ele>3050.4</ele>
        <time>1970-01-01T03:25:21.000Z</time>
      </trkpt>
      <trkpt lat="42.643809" lon="0.647647">
        <ele>3050.8</ele>
        <time>1970-01-01T03:25:22.000Z</time>
      </trkpt>
      <trkpt lat="42.643809" lon="0.647647">
        <ele>3051.2</ele>
        <time>1970-01-01T03:25:23.000Z</time>
      </trkpt>
      <trkpt lat="42.643809" lon="0.647647">
        <ele>3051.6</ele>
        <time>1970-01-01T03:25:24.000Z</time>
      </trkpt>
      <trkpt lat="42.643809" lon="0.647647">
        <ele>3052</ele>
        <time>1970-01-01T03:25:25.000Z</time>
      </trkpt>
      <trkpt lat="42.643809" lon="0.647647">
        <ele>3052.4</ele>
        <time>1970-01-01T03:25:26.000Z</time>
      </trkpt>
      <trkpt lat="42.643809" lon="0.647647">
        <ele>3052.8</ele>
        <time>1970-01-01T03:25:27.000Z</time>
      </trkpt>
      <trkpt lat="42.643809" lon="0.647647">
        <ele>3053.2</ele>
        <time>1970-01-01T03:25:28.000Z</time>
      </trkpt>
      <trkpt lat="42.643809" lon="0.647647">
        <ele>3053.6</ele>
        <time>1970-01-01T03:25:29.000Z</time>
      </trkpt>
      <trkpt lat="42.643809" lon="0.647647">
        <ele>3054</ele>
        <time>1970-01-01T03:25:30.000Z</time>
      </trkpt>
      <trkpt lat="42.643809" lon="0.647647">
        <ele>3054.4</ele>
        <time>1970-01-01T03:25:31.000Z</time>
      </trkpt>
      <trkpt lat="42.643809" lon="0.647647">
        <ele>3054.7</ele>
        <time>1970-01-01T03:25:32.000Z</time>
      </trkpt>
      <trkpt lat="42.643809" lon="0.647647">
        <ele>3055.1</ele>
        <time>1970-01-01T03:25:33.000Z</time>
      </trkpt>
      <trkpt lat="42.643809" lon="0.647647">
        <ele>3055.5</ele>
        <time>1970-01-01T03:25:34.000Z</time>
      </trkpt>
      <trkpt lat="42.643809" lon="0.647647">
        <ele>3055.9</ele>
        <time>1970-01-01T03:25:35.000Z</time>
      </trkpt>
      <trkpt lat="42.643809" lon="0.647647">
        <ele>3056.3</ele>
        <time>1970-01-01T03:25:36.000Z</time>
      </trkpt>
      <trkpt lat="42.643809" lon="0.647647">
        <ele>3056.7</ele>
        <time>1970-01-01T03:25:37.000Z</time>
      </trkpt>
      <trkpt lat="42.643809" lon="0.647647">
        <ele>3057.1</ele>
        <time>1970-01-01T03:25:38.000Z</time>
      </trkpt>
      <trkpt lat="42.643809" lon="0.647647">
        <ele>3057.5</ele>
        <time>1970-01-01T03:25:39.000Z</time>
      </trkpt>
      <trkpt lat="42.643809" lon="0.647647">
        <ele>3057.9</ele>
        <time>1970-01-01T03:25:40.000Z</time>
      </trkpt>
      <trkpt lat="42.643809" lon="0.647647">
        <ele>3058.3</ele>
        <time>1970-01-01T03:25:41.000Z</time>
      </trkpt>
      <trkpt lat="42.643809" lon="0.647647">
        <ele>3058.3</ele>
        <time>1970-01-01T03:25:42.000Z</time>
      </trkpt>
      <trkpt lat="42.643809" lon="0.647647">
        <ele>3058.3</ele>
        <time>1970-01-01T03:25:43.000Z</time>
      </trkpt>
      <trkpt lat="42.643809" lon="0.647647">
        <ele>3058.3</ele>
        <time>1970-01-01T03:25:44.000Z</time>
      </trkpt>
      <trkpt lat="42.643809" lon="0.647647">
        <ele>3058.3</ele>
        <time>1970-01-01T03:25:45.000Z</time>
      </trkpt>
      <trkpt lat="42.643809" lon="0.647647">
        <ele>3058.3</ele>
        <time>1970-01-01T03:25:46.000Z</time>
      </trkpt>
      <trkpt lat="42.643809" lon="0.647647">
        <ele>3058.3</ele>
        <time>1970-01-01T03:25:47.000Z</time>
      </trkpt>
      <trkpt lat="42.643809" lon="0.647647">
        <ele>3058.3</ele>
        <time>1970-01-01T03:25:48.000Z</time>
      </trkpt>
      <trkpt lat="42.643809" lon="0.647647">
        <ele>3058.3</ele>
        <time>1970-01-01T03:25:49.000Z</time>
      </trkpt>
      <trkpt lat="42.643809" lon="0.647647">
        <ele>3058.3</ele>
        <time>1970-01-01T03:25:50.000Z</time>
      </trkpt>
      <trkpt lat="42.643809" lon="0.647647">
        <ele>3058.3</ele>
        <time>1970-01-01T03:25:51.000Z</time>
      </trkpt>
      <trkpt lat="42.643809" lon="0.647647">
        <ele>3058.3</ele>
        <time>1970-01-01T03:25:52.000Z</time>
      </trkpt>
      <trkpt lat="42.643809" lon="0.647647">
        <ele>3058.3</ele>
        <time>1970-01-01T03:25:53.000Z</time>
      </trkpt>
      <trkpt lat="42.643809" lon="0.647647">
        <ele>3058.3</ele>
        <time>1970-01-01T03:25:54.000Z</time>
      </trkpt>
      <trkpt lat="42.643809" lon="0.647647">
        <ele>3058.3</ele>
        <time>1970-01-01T03:25:55.000Z</time>
      </trkpt>
      <trkpt lat="42.643809" lon="0.647647">
        <ele>3058.3</ele>
        <time>1970-01-01T03:25:56.000Z</time>
      </trkpt>
      <trkpt lat="42.643809" lon="0.647647">
        <ele>3058.3</ele>
        <time>1970-01-01T03:25:57.000Z</time>
      </trkpt>
      <trkpt lat="42.643809" lon="0.647647">
        <ele>3058.3</ele>
        <time>1970-01-01T03:25:58.000Z</time>
      </trkpt>
      <trkpt lat="42.643809" lon="0.647647">
        <ele>3058.3</ele>
        <time>1970-01-01T03:25:59.000Z</time>
      </trkpt>
      <trkpt lat="42.643809" lon="0.647647">
        <ele>3058.3</ele>
        <time>1970-01-01T03:26:00.000Z</time>
      </trkpt>
      <trkpt lat="42.643809" lon="0.647647">
        <ele>3058.3</ele>
        <time>1970-01-01T03:26:01.000Z</time>
      </trkpt>
      <trkpt lat="42.643809" lon="0.647647">
        <ele>3058.3</ele>
        <time>1970-01-01T03:26:02.000Z</time>
      </trkpt>
      <trkpt lat="42.643809" lon="0.647647">
        <ele>3058.3</ele>
        <time>1970-01-01T03:26:03.000Z</time>
      </trkpt>
      <trkpt lat="42.643809" lon="0.647647">
        <ele>3058.3</ele>
        <time>1970-01-01T03:26:04.000Z</time>
      </trkpt>
      <trkpt lat="42.643809" lon="0.647647">
        <ele>3058.3</ele>
        <time>1970-01-01T03:26:05.000Z</time>
      </trkpt>
      <trkpt lat="42.643809" lon="0.647647">
        <ele>3058.3</ele>
        <time>1970-01-01T03:26:06.000Z</time>
      </trkpt>
      <trkpt lat="42.643809" lon="0.647647">
        <ele>3058.3</ele>
        <time>1970-01-01T03:26:07.000Z</time>
      </trkpt>
      <trkpt lat="42.643809" lon="0.647647">
        <ele>3058.3</ele>
        <time>1970-01-01T03:26:08.000Z</time>
      </trkpt>
      <trkpt lat="42.643809" lon="0.647647">
        <ele>3058.3</ele>
        <time>1970-01-01T03:26:09.000Z</time>
      </trkpt>
      <trkpt lat="42.643809" lon="0.647647">
        <ele>3058.3</ele>
        <time>1970-01-01T03:26:10.000Z</time>
      </trkpt>
      <trkpt lat="42.643809" lon="0.647647">
        <ele>3058.3</ele>
        <time>1970-01-01T03:26:11.000Z</time>
      </trkpt>
      <trkpt lat="42.643809" lon="0.647647">
        <ele>3058.3</ele>
        <time>1970-01-01T03:26:12.000Z</time>
      </trkpt>
      <trkpt lat="42.643809" lon="0.647647">
        <ele>3058.3</ele>
        <time>1970-01-01T03:26:13.000Z</time>
      </trkpt>
      <trkpt lat="42.643809" lon="0.647647">
        <ele>3058.3</ele>
        <time>1970-01-01T03:26:14.000Z</time>
      </trkpt>
      <trkpt lat="42.643809" lon="0.647647">
        <ele>3058.3</ele>
        <time>1970-01-01T03:26:15.000Z</time>
      </trkpt>
      <trkpt lat="42.643809" lon="0.647647">
        <ele>3058.3</ele>
        <time>1970-01-01T03:26:16.000Z</time>
      </trkpt>
      <trkpt lat="42.643809" lon="0.647647">
        <ele>3058.3</ele>
        <time>1970-01-01T03:26:17.000Z</time>
      </trkpt>
      <trkpt lat="42.643809" lon="0.647647">
        <ele>3058.3</ele>
        <time>1970-01-01T03:26:18.000Z</time>
      </trkpt>
      <trkpt lat="42.643809" lon="0.647647">
        <ele>3058.3</ele>
        <time>1970-01-01T03:26:19.000Z</time>
      </trkpt>
      <trkpt lat="42.643809" lon="0.647647">
        <ele>3058.3</ele>
        <time>1970-01-01T03:26:20.000Z</time>
      </trkpt>
      <trkpt lat="42.643809" lon="0.647647">
        <ele>3058.3</ele>
        <time>1970-01-01T03:26:21.000Z</time>
      </trkpt>
      <trkpt lat="42.643809" lon="0.647647">
        <ele>3058.3</ele>
        <time>1970-01-01T03:26:22.000Z</time>
      </trkpt>
      <trkpt lat="42.643809" lon="0.647647">
        <ele>3058.3</ele>
        <time>1970-01-01T03:26:23.000Z</time>
      </trkpt>
      <trkpt lat="42.643809" lon="0.647647">
        <ele>3058.3</ele>
        <time>1970-01-01T03:26:24.000Z</time>
      </trkpt>
      <trkpt lat="42.643809" lon="0.647647">
        <ele>3058.3</ele>
        <time>1970-01-01T03:26:25.000Z</time>
      </trkpt>
      <trkpt lat="42.643809" lon="0.647647">
        <ele>3058.3</ele>
        <time>1970-01-01T03:26:26.000Z</time>
      </trkpt>
      <trkpt lat="42.643809" lon="0.647647">
        <ele>3058.3</ele>
        <time>1970-01-01T03:26:27.000Z</time>
      </trkpt>
      <trkpt lat="42.643809" lon="0.647647">
        <ele>3058.3</ele>
        <time>1970-01-01T03:26:28.000Z</time>
      </trkpt>
      <trkpt lat="42.643809" lon="0.647647">
        <ele>3058.3</ele>
        <time>1970-01-01T03:26:29.000Z</time>
      </trkpt>
      <trkpt lat="42.643809" lon="0.647647">
        <ele>3058.3</ele>
        <time>1970-01-01T03:26:30.000Z</time>
      </trkpt>
      <trkpt lat="42.643809" lon="0.647647">
        <ele>3058.3</ele>
        <time>1970-01-01T03:26:31.000Z</time>
      </trkpt>
      <trkpt lat="42.643809" lon="0.647647">
        <ele>3058.3</ele>
        <time>1970-01-01T03:26:32.000Z</time>
      </trkpt>
      <trkpt lat="42.643809" lon="0.647647">
        <ele>3058.3</ele>
        <time>1970-01-01T03:26:33.000Z</time>
      </trkpt>
      <trkpt lat="42.643809" lon="0.647647">
        <ele>3058.3</ele>
        <time>1970-01-01T03:26:34.000Z</time>
      </trkpt>
      <trkpt lat="42.643809" lon="0.647647">
        <ele>3058.3</ele>
        <time>1970-01-01T03:26:35.000Z</time>
      </trkpt>
      <trkpt lat="42.643809" lon="0.647647">
        <ele>3058.3</ele>
        <time>1970-01-01T03:26:36.000Z</time>
      </trkpt>
      <trkpt lat="42.643809" lon="0.647647">
        <ele>3058.3</ele>
        <time>1970-01-01T03:26:37.000Z</time>
      </trkpt>
      <trkpt lat="42.643809" lon="0.647647">
        <ele>3058.3</ele>
        <time>1970-01-01T03:26:38.000Z</time>
      </trkpt>
      <trkpt lat="42.643809" lon="0.647647">
        <ele>3058.3</ele>
        <time>1970-01-01T03:26:39.000Z</time>
      </trkpt>
      <trkpt lat="42.643809" lon="0.647647">
        <ele>3058.3</ele>
        <time>1970-01-01T03:26:40.000Z</time>
      </trkpt>
      <trkpt lat="42.643809" lon="0.647647">
        <ele>3058.3</ele>
        <time>1970-01-01T03:26:41.000Z</time>
      </trkpt>
      <trkpt lat="42.643809" lon="0.647647">
        <ele>3058.3</ele>
        <time>1970-01-01T03:26:42.000Z</time>
      </trkpt>
      <trkpt lat="42.643809" lon="0.647647">
        <ele>3058.3</ele>
        <time>1970-01-01T03:26:43.000Z</time>
      </trkpt>
      <trkpt lat="42.643809" lon="0.647647">
        <ele>3058.3</ele>
        <time>1970-01-01T03:26:44.000Z</time>
      </trkpt>
      <trkpt lat="42.643809" lon="0.647647">
        <ele>3058.3</ele>
        <time>1970-01-01T03:26:45.000Z</time>
      </trkpt>
      <trkpt lat="42.643809" lon="0.647647">
        <ele>3058.3</ele>
        <time>1970-01-01T03:26:46.000Z</time>
      </trkpt>
      <trkpt lat="42.643809" lon="0.647647">
        <ele>3058.3</ele>
        <time>1970-01-01T03:26:47.000Z</time>
      </trkpt>
      <trkpt lat="42.643809" lon="0.647647">
        <ele>3058.3</ele>
        <time>1970-01-01T03:26:48.000Z</time>
      </trkpt>
      <trkpt lat="42.643809" lon="0.647647">
        <ele>3058.3</ele>
        <time>1970-01-01T03:26:49.000Z</time>
      </trkpt>
      <trkpt lat="42.643809" lon="0.647647">
        <ele>3058.3</ele>
        <time>1970-01-01T03:26:50.000Z</time>
      </trkpt>
      <trkpt lat="42.643809" lon="0.647647">
        <ele>3058.3</ele>
        <time>1970-01-01T03:26:51.000Z</time>
      </trkpt>
      <trkpt lat="42.643809" lon="0.647647">
        <ele>3058.3</ele>
        <time>1970-01-01T03:26:52.000Z</time>
      </trkpt>
      <trkpt lat="42.643809" lon="0.647647">
        <ele>3058.3</ele>
        <time>1970-01-01T03:26:53.000Z</time>
      </trkpt>
      <trkpt lat="42.643809" lon="0.647647">
        <ele>3058.3</ele>
        <time>1970-01-01T03:26:54.000Z</time>
      </trkpt>
      <trkpt lat="42.643809" lon="0.647647">
        <ele>3058.3</ele>
        <time>1970-01-01T03:26:55.000Z</time>
      </trkpt>
      <trkpt lat="42.643809" lon="0.647647">
        <ele>3058.3</ele>
        <time>1970-01-01T03:26:56.000Z</time>
      </trkpt>
      <trkpt lat="42.643809" lon="0.647647">
        <ele>3058.3</ele>
        <time>1970-01-01T03:26:57.000Z</time>
      </trkpt>
      <trkpt lat="42.643809" lon="0.647647">
        <ele>3058.3</ele>
        <time>1970-01-01T03:26:58.000Z</time>
      </trkpt>
      <trkpt lat="42.643809" lon="0.647647">
        <ele>3058.3</ele>
        <time>1970-01-01T03:26:59.000Z</time>
      </trkpt>
      <trkpt lat="42.643809" lon="0.647647">
        <ele>3058.3</ele>
        <time>1970-01-01T03:27:00.000Z</time>
      </trkpt>
      <trkpt lat="42.643809" lon="0.647647">
        <ele>3058.3</ele>
        <time>1970-01-01T03:27:01.000Z</time>
      </trkpt>
      <trkpt lat="42.643809" lon="0.647647">
        <ele>3058.3</ele>
        <time>1970-01-01T03:27:02.000Z</time>
      </trkpt>
      <trkpt lat="42.643809" lon="0.647647">
        <ele>3058.3</ele>
        <time>1970-01-01T03:27:03.000Z</time>
      </trkpt>
      <trkpt lat="42.643809" lon="0.647647">
        <ele>3058.3</ele>
        <time>1970-01-01T03:27:04.000Z</time>
      </trkpt>
      <trkpt lat="42.643809" lon="0.647647">
        <ele>3058.3</ele>
        <time>1970-01-01T03:27:05.000Z</time>
      </trkpt>
      <trkpt lat="42.643809" lon="0.647647">
        <ele>3058.3</ele>
        <time>1970-01-01T03:27:06.000Z</time>
      </trkpt>
      <trkpt lat="42.643809" lon="0.647647">
        <ele>3058.3</ele>
        <time>1970-01-01T03:27:07.000Z</time>
      </trkpt>
      <trkpt lat="42.643809" lon="0.647647">
        <ele>3058.3</ele>
        <time>1970-01-01T03:27:08.000Z</time>
      </trkpt>
      <trkpt lat="42.643809" lon="0.647647">
        <ele>3058.3</ele>
        <time>1970-01-01T03:27:09.000Z</time>
      </trkpt>
      <trkpt lat="42.643809" lon="0.647647">
        <ele>3058.3</ele>
        <time>1970-01-01T03:27:10.000Z</time>
      </trkpt>
      <trkpt lat="42.643809" lon="0.647647">
        <ele>3058.3</ele>
        <time>1970-01-01T03:27:11.000Z</time>
      </trkpt>
      <trkpt lat="42.643809" lon="0.647647">
        <ele>3058.3</ele>
        <time>1970-01-01T03:27:12.000Z</time>
      </trkpt>
      <trkpt lat="42.643809" lon="0.647647">
        <ele>3058.3</ele>
        <time>1970-01-01T03:27:13.000Z</time>
      </trkpt>
      <trkpt lat="42.643809" lon="0.647647">
        <ele>3058.3</ele>
        <time>1970-01-01T03:27:14.000Z</time>
      </trkpt>
      <trkpt lat="42.643809" lon="0.647647">
        <ele>3058.3</ele>
        <time>1970-01-01T03:27:15.000Z</time>
      </trkpt>
      <trkpt lat="42.643809" lon="0.647647">
        <ele>3058.3</ele>
        <time>1970-01-01T03:27:16.000Z</time>
      </trkpt>
      <trkpt lat="42.643809" lon="0.647647">
        <ele>3058.3</ele>
        <time>1970-01-01T03:27:17.000Z</time>
      </trkpt>
      <trkpt lat="42.643809" lon="0.647647">
        <ele>3058.3</ele>
        <time>1970-01-01T03:27:18.000Z</time>
      </trkpt>
      <trkpt lat="42.643809" lon="0.647647">
        <ele>3058.3</ele>
        <time>1970-01-01T03:27:19.000Z</time>
      </trkpt>
      <trkpt lat="42.643809" lon="0.647647">
        <ele>3058.3</ele>
        <time>1970-01-01T03:27:20.000Z</time>
      </trkpt>
      <trkpt lat="42.643809" lon="0.647647">
        <ele>3058.3</ele>
        <time>1970-01-01T03:27:21.000Z</time>
      </trkpt>
      <trkpt lat="42.643809" lon="0.647647">
        <ele>3058.3</ele>
        <time>1970-01-01T03:27:22.000Z</time>
      </trkpt>
      <trkpt lat="42.643809" lon="0.647647">
        <ele>3058.3</ele>
        <time>1970-01-01T03:27:23.000Z</time>
      </trkpt>
      <trkpt lat="42.643809" lon="0.647647">
        <ele>3058.3</ele>
        <time>1970-01-01T03:27:24.000Z</time>
      </trkpt>
      <trkpt lat="42.643809" lon="0.647647">
        <ele>3058.3</ele>
        <time>1970-01-01T03:27:25.000Z</time>
      </trkpt>
      <trkpt lat="42.643809" lon="0.647647">
        <ele>3058.3</ele>
        <time>1970-01-01T03:27:26.000Z</time>
      </trkpt>
      <trkpt lat="42.643809" lon="0.647647">
        <ele>3058.3</ele>
        <time>1970-01-01T03:27:27.000Z</time>
      </trkpt>
      <trkpt lat="42.643809" lon="0.647647">
        <ele>3058.3</ele>
        <time>1970-01-01T03:27:28.000Z</time>
      </trkpt>
      <trkpt lat="42.643809" lon="0.647647">
        <ele>3058.3</ele>
        <time>1970-01-01T03:27:29.000Z</time>
      </trkpt>
      <trkpt lat="42.643809" lon="0.647647">
        <ele>3058.3</ele>
        <time>1970-01-01T03:27:30.000Z</time>
      </trkpt>
      <trkpt lat="42.643809" lon="0.647647">
        <ele>3058.3</ele>
        <time>1970-01-01T03:27:31.000Z</time>
      </trkpt>
      <trkpt lat="42.643809" lon="0.647647">
        <ele>3058.3</ele>
        <time>1970-01-01T03:27:32.000Z</time>
      </trkpt>
      <trkpt lat="42.643809" lon="0.647647">
        <ele>3058.3</ele>
        <time>1970-01-01T03:27:33.000Z</time>
      </trkpt>
      <trkpt lat="42.643809" lon="0.647647">
        <ele>3058.3</ele>
        <time>1970-01-01T03:27:34.000Z</time>
      </trkpt>
      <trkpt lat="42.643809" lon="0.647647">
        <ele>3058.3</ele>
        <time>1970-01-01T03:27:35.000Z</time>
      </trkpt>
      <trkpt lat="42.643809" lon="0.647647">
        <ele>3058.3</ele>
        <time>1970-01-01T03:27:36.000Z</time>
      </trkpt>
      <trkpt lat="42.643809" lon="0.647647">
        <ele>3058.3</ele>
        <time>1970-01-01T03:27:37.000Z</time>
      </trkpt>
      <trkpt lat="42.643809" lon="0.647647">
        <ele>3058.3</ele>
        <time>1970-01-01T03:27:38.000Z</time>
      </trkpt>
      <trkpt lat="42.643809" lon="0.647647">
        <ele>3058.3</ele>
        <time>1970-01-01T03:27:39.000Z</time>
      </trkpt>
      <trkpt lat="42.643809" lon="0.647647">
        <ele>3058.3</ele>
        <time>1970-01-01T03:27:40.000Z</time>
      </trkpt>
      <trkpt lat="42.643809" lon="0.647647">
        <ele>3058.3</ele>
        <time>1970-01-01T03:27:41.000Z</time>
      </trkpt>
      <trkpt lat="42.643809" lon="0.647647">
        <ele>3058.3</ele>
        <time>1970-01-01T03:27:42.000Z</time>
      </trkpt>
      <trkpt lat="42.643809" lon="0.647647">
        <ele>3058.3</ele>
        <time>1970-01-01T03:27:43.000Z</time>
      </trkpt>
      <trkpt lat="42.643809" lon="0.647647">
        <ele>3058.3</ele>
        <time>1970-01-01T03:27:44.000Z</time>
      </trkpt>
      <trkpt lat="42.643809" lon="0.647647">
        <ele>3058.3</ele>
        <time>1970-01-01T03:27:45.000Z</time>
      </trkpt>
      <trkpt lat="42.643809" lon="0.647647">
        <ele>3058.3</ele>
        <time>1970-01-01T03:27:46.000Z</time>
      </trkpt>
      <trkpt lat="42.643809" lon="0.647647">
        <ele>3058.3</ele>
        <time>1970-01-01T03:27:47.000Z</time>
      </trkpt>
      <trkpt lat="42.643809" lon="0.647647">
        <ele>3058.3</ele>
        <time>1970-01-01T03:27:48.000Z</time>
      </trkpt>
      <trkpt lat="42.643809" lon="0.647647">
        <ele>3058.3</ele>
        <time>1970-01-01T03:27:49.000Z</time>
      </trkpt>
      <trkpt lat="42.643809" lon="0.647647">
        <ele>3058.3</ele>
        <time>1970-01-01T03:27:50.000Z</time>
      </trkpt>
      <trkpt lat="42.643809" lon="0.647647">
        <ele>3058.3</ele>
        <time>1970-01-01T03:27:51.000Z</time>
      </trkpt>
      <trkpt lat="42.643809" lon="0.647647">
        <ele>3058.3</ele>
        <time>1970-01-01T03:27:52.000Z</time>
      </trkpt>
      <trkpt lat="42.643809" lon="0.647647">
        <ele>3058.3</ele>
        <time>1970-01-01T03:27:53.000Z</time>
      </trkpt>
      <trkpt lat="42.643809" lon="0.647647">
        <ele>3058.3</ele>
        <time>1970-01-01T03:27:54.000Z</time>
      </trkpt>
      <trkpt lat="42.643809" lon="0.647647">
        <ele>3058.3</ele>
        <time>1970-01-01T03:27:55.000Z</time>
      </trkpt>
      <trkpt lat="42.643809" lon="0.647647">
        <ele>3058.3</ele>
        <time>1970-01-01T03:27:56.000Z</time>
      </trkpt>
      <trkpt lat="42.643809" lon="0.647647">
        <ele>3058.3</ele>
        <time>1970-01-01T03:27:57.000Z</time>
      </trkpt>
      <trkpt lat="42.643809" lon="0.647647">
        <ele>3058.3</ele>
        <time>1970-01-01T03:27:58.000Z</time>
      </trkpt>
      <trkpt lat="42.643809" lon="0.647647">
        <ele>3058.3</ele>
        <time>1970-01-01T03:27:59.000Z</time>
      </trkpt>
      <trkpt lat="42.643809" lon="0.647647">
        <ele>3058.3</ele>
        <time>1970-01-01T03:28:00.000Z</time>
      </trkpt>
      <trkpt lat="42.643809" lon="0.647647">
        <ele>3058.3</ele>
        <time>1970-01-01T03:28:01.000Z</time>
      </trkpt>
      <trkpt lat="42.643809" lon="0.647647">
        <ele>3058.3</ele>
        <time>1970-01-01T03:28:02.000Z</time>
      </trkpt>
      <trkpt lat="42.643809" lon="0.647647">
        <ele>3058.3</ele>
        <time>1970-01-01T03:28:03.000Z</time>
      </trkpt>
      <trkpt lat="42.643809" lon="0.647647">
        <ele>3058.3</ele>
        <time>1970-01-01T03:28:04.000Z</time>
      </trkpt>
      <trkpt lat="42.643809" lon="0.647647">
        <ele>3058.3</ele>
        <time>1970-01-01T03:28:05.000Z</time>
      </trkpt>
      <trkpt lat="42.643809" lon="0.647647">
        <ele>3058.3</ele>
        <time>1970-01-01T03:28:06.000Z</time>
      </trkpt>
      <trkpt lat="42.643809" lon="0.647647">
        <ele>3058.3</ele>
        <time>1970-01-01T03:28:07.000Z</time>
      </trkpt>
      <trkpt lat="42.643809" lon="0.647647">
        <ele>3058.3</ele>
        <time>1970-01-01T03:28:08.000Z</time>
      </trkpt>
      <trkpt lat="42.643809" lon="0.647647">
        <ele>3058.3</ele>
        <time>1970-01-01T03:28:09.000Z</time>
      </trkpt>
      <trkpt lat="42.643809" lon="0.647647">
        <ele>3058.3</ele>
        <time>1970-01-01T03:28:10.000Z</time>
      </trkpt>
      <trkpt lat="42.643809" lon="0.647647">
        <ele>3058.3</ele>
        <time>1970-01-01T03:28:11.000Z</time>
      </trkpt>
      <trkpt lat="42.643809" lon="0.647647">
        <ele>3058.3</ele>
        <time>1970-01-01T03:28:12.000Z</time>
      </trkpt>
      <trkpt lat="42.643809" lon="0.647647">
        <ele>3058.3</ele>
        <time>1970-01-01T03:28:13.000Z</time>
      </trkpt>
      <trkpt lat="42.643809" lon="0.647647">
        <ele>3058.3</ele>
        <time>1970-01-01T03:28:14.000Z</time>
      </trkpt>
      <trkpt lat="42.643809" lon="0.647647">
        <ele>3058.3</ele>
        <time>1970-01-01T03:28:15.000Z</time>
      </trkpt>
      <trkpt lat="42.643809" lon="0.647647">
        <ele>3058.3</ele>
        <time>1970-01-01T03:28:16.000Z</time>
      </trkpt>
      <trkpt lat="42.643809" lon="0.647647">
        <ele>3058.3</ele>
        <time>1970-01-01T03:28:17.000Z</time>
      </trkpt>
      <trkpt lat="42.643809" lon="0.647647">
        <ele>3058.3</ele>
        <time>1970-01-01T03:28:18.000Z</time>
      </trkpt>
      <trkpt lat="42.643809" lon="0.647647">
        <ele>3058.3</ele>
        <time>1970-01-01T03:28:19.000Z</time>
      </trkpt>
      <trkpt lat="42.643809" lon="0.647647">
        <ele>3058.3</ele>
        <time>1970-01-01T03:28:20.000Z</time>
      </trkpt>
      <trkpt lat="42.643809" lon="0.647647">
        <ele>3058.3</ele>
        <time>1970-01-01T03:28:21.000Z</time>
      </trkpt>
      <trkpt lat="42.643809" lon="0.647647">
        <ele>3058.3</ele>
        <time>1970-01-01T03:28:22.000Z</time>
      </trkpt>
      <trkpt lat="42.643809" lon="0.647647">
        <ele>3058.3</ele>
        <time>1970-01-01T03:28:23.000Z</time>
      </trkpt>
      <trkpt lat="42.643809" lon="0.647647">
        <ele>3058.3</ele>
        <time>1970-01-01T03:28:24.000Z</time>
      </trkpt>
      <trkpt lat="42.643809" lon="0.647647">
        <ele>3058.3</ele>
        <time>1970-01-01T03:28:25.000Z</time>
      </trkpt>
      <trkpt lat="42.643809" lon="0.647647">
        <ele>3058.3</ele>
        <time>1970-01-01T03:28:26.000Z</time>
      </trkpt>
      <trkpt lat="42.643809" lon="0.647647">
        <ele>3058.3</ele>
        <time>1970-01-01T03:28:27.000Z</time>
      </trkpt>
      <trkpt lat="42.643809" lon="0.647647">
        <ele>3058.3</ele>
        <time>1970-01-01T03:28:28.000Z</time>
      </trkpt>
      <trkpt lat="42.643809" lon="0.647647">
        <ele>3058.3</ele>
        <time>1970-01-01T03:28:29.000Z</time>
      </trkpt>
      <trkpt lat="42.643809" lon="0.647647">
        <ele>3058.3</ele>
        <time>1970-01-01T03:28:30.000Z</time>
      </trkpt>
      <trkpt lat="42.643809" lon="0.647647">
        <ele>3058.3</ele>
        <time>1970-01-01T03:28:31.000Z</time>
      </trkpt>
      <trkpt lat="42.643809" lon="0.647647">
        <ele>3058.3</ele>
        <time>1970-01-01T03:28:32.000Z</time>
      </trkpt>
      <trkpt lat="42.643809" lon="0.647647">
        <ele>3058.3</ele>
        <time>1970-01-01T03:28:33.000Z</time>
      </trkpt>
      <trkpt lat="42.643809" lon="0.647647">
        <ele>3058.3</ele>
        <time>1970-01-01T03:28:34.000Z</time>
      </trkpt>
      <trkpt lat="42.643809" lon="0.647647">
        <ele>3058.3</ele>
        <time>1970-01-01T03:28:35.000Z</time>
      </trkpt>
      <trkpt lat="42.643809" lon="0.647647">
        <ele>3058.3</ele>
        <time>1970-01-01T03:28:36.000Z</time>
      </trkpt>
      <trkpt lat="42.643809" lon="0.647647">
        <ele>3058.3</ele>
        <time>1970-01-01T03:28:37.000Z</time>
      </trkpt>
      <trkpt lat="42.643809" lon="0.647647">
        <ele>3058.3</ele>
        <time>1970-01-01T03:28:38.000Z</time>
      </trkpt>
      <trkpt lat="42.643809" lon="0.647647">
        <ele>3058.3</ele>
        <time>1970-01-01T03:28:39.000Z</time>
      </trkpt>
      <trkpt lat="42.643809" lon="0.647647">
        <ele>3058.3</ele>
        <time>1970-01-01T03:28:40.000Z</time>
      </trkpt>
      <trkpt lat="42.643809" lon="0.647647">
        <ele>3058.3</ele>
        <time>1970-01-01T03:28:41.000Z</time>
      </trkpt>
      <trkpt lat="42.643809" lon="0.647647">
        <ele>3058.3</ele>
        <time>1970-01-01T03:28:42.000Z</time>
      </trkpt>
      <trkpt lat="42.643809" lon="0.647647">
        <ele>3058.3</ele>
        <time>1970-01-01T03:28:43.000Z</time>
      </trkpt>
      <trkpt lat="42.643809" lon="0.647647">
        <ele>3058.3</ele>
        <time>1970-01-01T03:28:44.000Z</time>
      </trkpt>
      <trkpt lat="42.643809" lon="0.647647">
        <ele>3058.3</ele>
        <time>1970-01-01T03:28:45.000Z</time>
      </trkpt>
      <trkpt lat="42.643809" lon="0.647647">
        <ele>3058.3</ele>
        <time>1970-01-01T03:28:46.000Z</time>
      </trkpt>
      <trkpt lat="42.643809" lon="0.647647">
        <ele>3058.3</ele>
        <time>1970-01-01T03:28:47.000Z</time>
      </trkpt>
      <trkpt lat="42.643809" lon="0.647647">
        <ele>3058.3</ele>
        <time>1970-01-01T03:28:48.000Z</time>
      </trkpt>
      <trkpt lat="42.643809" lon="0.647647">
        <ele>3058.3</ele>
        <time>1970-01-01T03:28:49.000Z</time>
      </trkpt>
      <trkpt lat="42.643809" lon="0.647647">
        <ele>3058.3</ele>
        <time>1970-01-01T03:28:50.000Z</time>
      </trkpt>
      <trkpt lat="42.643809" lon="0.647647">
        <ele>3058.3</ele>
        <time>1970-01-01T03:28:51.000Z</time>
      </trkpt>
      <trkpt lat="42.643809" lon="0.647647">
        <ele>3058.3</ele>
        <time>1970-01-01T03:28:52.000Z</time>
      </trkpt>
      <trkpt lat="42.643809" lon="0.647647">
        <ele>3058.3</ele>
        <time>1970-01-01T03:28:53.000Z</time>
      </trkpt>
      <trkpt lat="42.643809" lon="0.647647">
        <ele>3058.3</ele>
        <time>1970-01-01T03:28:54.000Z</time>
      </trkpt>
      <trkpt lat="42.643809" lon="0.647647">
        <ele>3058.3</ele>
        <time>1970-01-01T03:28:55.000Z</time>
      </trkpt>
      <trkpt lat="42.643809" lon="0.647647">
        <ele>3058.3</ele>
        <time>1970-01-01T03:28:56.000Z</time>
      </trkpt>
      <trkpt lat="42.643809" lon="0.647647">
        <ele>3058.3</ele>
        <time>1970-01-01T03:28:57.000Z</time>
      </trkpt>
      <trkpt lat="42.643809" lon="0.647647">
        <ele>3058.3</ele>
        <time>1970-01-01T03:28:58.000Z</time>
      </trkpt>
      <trkpt lat="42.643809" lon="0.647647">
        <ele>3058.3</ele>
        <time>1970-01-01T03:28:59.000Z</time>
      </trkpt>
      <trkpt lat="42.643809" lon="0.647647">
        <ele>3058.3</ele>
        <time>1970-01-01T03:29:00.000Z</time>
      </trkpt>
      <trkpt lat="42.643809" lon="0.647647">
        <ele>3058.3</ele>
        <time>1970-01-01T03:29:01.000Z</time>
      </trkpt>
      <trkpt lat="42.643809" lon="0.647647">
        <ele>3058.3</ele>
        <time>1970-01-01T03:29:02.000Z</time>
      </trkpt>
      <trkpt lat="42.643809" lon="0.647647">
        <ele>3058.3</ele>
        <time>1970-01-01T03:29:03.000Z</time>
      </trkpt>
      <trkpt lat="42.643809" lon="0.647647">
        <ele>3058.3</ele>
        <time>1970-01-01T03:29:04.000Z</time>
      </trkpt>
      <trkpt lat="42.643809" lon="0.647647">
        <ele>3058.3</ele>
        <time>1970-01-01T03:29:05.000Z</time>
      </trkpt>
      <trkpt lat="42.643809" lon="0.647647">
        <ele>3058.3</ele>
        <time>1970-01-01T03:29:06.000Z</time>
      </trkpt>
      <trkpt lat="42.643809" lon="0.647647">
        <ele>3058.3</ele>
        <time>1970-01-01T03:29:07.000Z</time>
      </trkpt>
      <trkpt lat="42.643809" lon="0.647647">
        <ele>3058.3</ele>
        <time>1970-01-01T03:29:08.000Z</time>
      </trkpt>
      <trkpt lat="42.643809" lon="0.647647">
        <ele>3058.3</ele>
        <time>1970-01-01T03:29:09.000Z</time>
      </trkpt>
      <trkpt lat="42.643809" lon="0.647647">
        <ele>3058.3</ele>
        <time>1970-01-01T03:29:10.000Z</time>
      </trkpt>
      <trkpt lat="42.643809" lon="0.647647">
        <ele>3058.3</ele>
        <time>1970-01-01T03:29:11.000Z</time>
      </trkpt>
      <trkpt lat="42.643809" lon="0.647647">
        <ele>3058.3</ele>
        <time>1970-01-01T03:29:12.000Z</time>
      </trkpt>
      <trkpt lat="42.643809" lon="0.647647">
        <ele>3058.3</ele>
        <time>1970-01-01T03:29:13.000Z</time>
      </trkpt>
      <trkpt lat="42.643809" lon="0.647647">
        <ele>3058.3</ele>
        <time>1970-01-01T03:29:14.000Z</time>
      </trkpt>
      <trkpt lat="42.643809" lon="0.647647">
        <ele>3058.3</ele>
        <time>1970-01-01T03:29:15.000Z</time>
      </trkpt>
      <trkpt lat="42.643809" lon="0.647647">
        <ele>3058.3</ele>
        <time>1970-01-01T03:29:16.000Z</time>
      </trkpt>
      <trkpt lat="42.643809" lon="0.647647">
        <ele>3058.3</ele>
        <time>1970-01-01T03:29:17.000Z</time>
      </trkpt>
      <trkpt lat="42.643809" lon="0.647647">
        <ele>3058.3</ele>
        <time>1970-01-01T03:29:18.000Z</time>
      </trkpt>
      <trkpt lat="42.643809" lon="0.647647">
        <ele>3058.3</ele>
        <time>1970-01-01T03:29:19.000Z</time>
      </trkpt>
      <trkpt lat="42.643809" lon="0.647647">
        <ele>3058.3</ele>
        <time>1970-01-01T03:29:20.000Z</time>
      </trkpt>
      <trkpt lat="42.643809" lon="0.647647">
        <ele>3058.3</ele>
        <time>1970-01-01T03:29:21.000Z</time>
      </trkpt>
      <trkpt lat="42.643809" lon="0.647647">
        <ele>3058.3</ele>
        <time>1970-01-01T03:29:22.000Z</time>
      </trkpt>
      <trkpt lat="42.643809" lon="0.647647">
        <ele>3058.3</ele>
        <time>1970-01-01T03:29:23.000Z</time>
      </trkpt>
      <trkpt lat="42.643809" lon="0.647647">
        <ele>3058.3</ele>
        <time>1970-01-01T03:29:24.000Z</time>
      </trkpt>
      <trkpt lat="42.643809" lon="0.647647">
        <ele>3058.3</ele>
        <time>1970-01-01T03:29:25.000Z</time>
      </trkpt>
      <trkpt lat="42.643809" lon="0.647647">
        <ele>3058.3</ele>
        <time>1970-01-01T03:29:26.000Z</time>
      </trkpt>
      <trkpt lat="42.643809" lon="0.647647">
        <ele>3058.3</ele>
        <time>1970-01-01T03:29:27.000Z</time>
      </trkpt>
      <trkpt lat="42.643809" lon="0.647647">
        <ele>3058.3</ele>
        <time>1970-01-01T03:29:28.000Z</time>
      </trkpt>
      <trkpt lat="42.643809" lon="0.647647">
        <ele>3058.3</ele>
        <time>1970-01-01T03:29:29.000Z</time>
      </trkpt>
      <trkpt lat="42.643809" lon="0.647647">
        <ele>3058.3</ele>
        <time>1970-01-01T03:29:30.000Z</time>
      </trkpt>
      <trkpt lat="42.643809" lon="0.647647">
        <ele>3058.3</ele>
        <time>1970-01-01T03:29:31.000Z</time>
      </trkpt>
      <trkpt lat="42.643809" lon="0.647647">
        <ele>3058.3</ele>
        <time>1970-01-01T03:29:32.000Z</time>
      </trkpt>
      <trkpt lat="42.643809" lon="0.647647">
        <ele>3058.3</ele>
        <time>1970-01-01T03:29:33.000Z</time>
      </trkpt>
      <trkpt lat="42.643809" lon="0.647647">
        <ele>3058.3</ele>
        <time>1970-01-01T03:29:34.000Z</time>
      </trkpt>
      <trkpt lat="42.643809" lon="0.647647">
        <ele>3058.3</ele>
        <time>1970-01-01T03:29:35.000Z</time>
      </trkpt>
      <trkpt lat="42.643809" lon="0.647647">
        <ele>3058.3</ele>
        <time>1970-01-01T03:29:36.000Z</time>
      </trkpt>
      <trkpt lat="42.643809" lon="0.647647">
        <ele>3058.3</ele>
        <time>1970-01-01T03:29:37.000Z</time>
      </trkpt>
      <trkpt lat="42.643809" lon="0.647647">
        <ele>3058.3</ele>
        <time>1970-01-01T03:29:38.000Z</time>
      </trkpt>
      <trkpt lat="42.643809" lon="0.647647">
        <ele>3058.3</ele>
        <time>1970-01-01T03:29:39.000Z</time>
      </trkpt>
      <trkpt lat="42.643809" lon="0.647647">
        <ele>3058.3</ele>
        <time>1970-01-01T03:29:40.000Z</time>
      </trkpt>
      <trkpt lat="42.643809" lon="0.647647">
        <ele>3058.3</ele>
        <time>1970-01-01T03:29:41.000Z</time>
      </trkpt>
      <trkpt lat="42.643809" lon="0.647647">
        <ele>3058.3</ele>
        <time>1970-01-01T03:29:42.000Z</time>
      </trkpt>
      <trkpt lat="42.643809" lon="0.647647">
        <ele>3058.3</ele>
        <time>1970-01-01T03:29:43.000Z</time>
      </trkpt>
      <trkpt lat="42.643809" lon="0.647647">
        <ele>3058.3</ele>
        <time>1970-01-01T03:29:44.000Z</time>
      </trkpt>
      <trkpt lat="42.643809" lon="0.647647">
        <ele>3058.3</ele>
        <time>1970-01-01T03:29:45.000Z</time>
      </trkpt>
      <trkpt lat="42.643809" lon="0.647647">
        <ele>3058.3</ele>
        <time>1970-01-01T03:29:46.000Z</time>
      </trkpt>
      <trkpt lat="42.643809" lon="0.647647">
        <ele>3058.3</ele>
        <time>1970-01-01T03:29:47.000Z</time>
      </trkpt>
      <trkpt lat="42.643809" lon="0.647647">
        <ele>3058.3</ele>
        <time>1970-01-01T03:29:48.000Z</time>
      </trkpt>
      <trkpt lat="42.643809" lon="0.647647">
        <ele>3058.3</ele>
        <time>1970-01-01T03:29:49.000Z</time>
      </trkpt>
      <trkpt lat="42.643809" lon="0.647647">
        <ele>3058.3</ele>
        <time>1970-01-01T03:29:50.000Z</time>
      </trkpt>
      <trkpt lat="42.643809" lon="0.647647">
        <ele>3058.3</ele>
        <time>1970-01-01T03:29:51.000Z</time>
      </trkpt>
      <trkpt lat="42.643809" lon="0.647647">
        <ele>3058.3</ele>
        <time>1970-01-01T03:29:52.000Z</time>
      </trkpt>
      <trkpt lat="42.643809" lon="0.647647">
        <ele>3058.3</ele>
        <time>1970-01-01T03:29:53.000Z</time>
      </trkpt>
      <trkpt lat="42.643809" lon="0.647647">
        <ele>3058.3</ele>
        <time>1970-01-01T03:29:54.000Z</time>
      </trkpt>
      <trkpt lat="42.643809" lon="0.647647">
        <ele>3058.3</ele>
        <time>1970-01-01T03:29:55.000Z</time>
      </trkpt>
      <trkpt lat="42.643809" lon="0.647647">
        <ele>3058.3</ele>
        <time>1970-01-01T03:29:56.000Z</time>
      </trkpt>
      <trkpt lat="42.643809" lon="0.647647">
        <ele>3058.3</ele>
        <time>1970-01-01T03:29:57.000Z</time>
      </trkpt>
      <trkpt lat="42.643809" lon="0.647647">
        <ele>3058.3</ele>
        <time>1970-01-01T03:29:58.000Z</time>
      </trkpt>
      <trkpt lat="42.643809" lon="0.647647">
        <ele>3058.3</ele>
        <time>1970-01-01T03:29:59.000Z</time>
      </trkpt>
      <trkpt lat="42.643809" lon="0.647647">
        <ele>3058.3</ele>
        <time>1970-01-01T03:30:00.000Z</time>
      </trkpt>
      <trkpt lat="42.643809" lon="0.647647">
        <ele>3058.3</ele>
        <time>1970-01-01T03:30:01.000Z</time>
      </trkpt>
      <trkpt lat="42.643809" lon="0.647647">
        <ele>3058.3</ele>
        <time>1970-01-01T03:30:02.000Z</time>
      </trkpt>
      <trkpt lat="42.643809" lon="0.647647">
        <ele>3058.3</ele>
        <time>1970-01-01T03:30:03.000Z</time>
      </trkpt>
      <trkpt lat="42.643809" lon="0.647647">
        <ele>3058.3</ele>
        <time>1970-01-01T03:30:04.000Z</time>
      </trkpt>
      <trkpt lat="42.643809" lon="0.647647">
        <ele>3058.3</ele>
        <time>1970-01-01T03:30:05.000Z</time>
      </trkpt>
      <trkpt lat="42.643809" lon="0.647647">
        <ele>3058.3</ele>
        <time>1970-01-01T03:30:06.000Z</time>
      </trkpt>
      <trkpt lat="42.643809" lon="0.647647">
        <ele>3058.3</ele>
        <time>1970-01-01T03:30:07.000Z</time>
      </trkpt>
      <trkpt lat="42.643809" lon="0.647647">
        <ele>3058.3</ele>
        <time>1970-01-01T03:30:08.000Z</time>
      </trkpt>
      <trkpt lat="42.643809" lon="0.647647">
        <ele>3058.3</ele>
        <time>1970-01-01T03:30:09.000Z</time>
      </trkpt>
      <trkpt lat="42.643809" lon="0.647647">
        <ele>3058.3</ele>
        <time>1970-01-01T03:30:10.000Z</time>
      </trkpt>
      <trkpt lat="42.643809" lon="0.647647">
        <ele>3058.3</ele>
        <time>1970-01-01T03:30:11.000Z</time>
      </trkpt>
      <trkpt lat="42.643809" lon="0.647647">
        <ele>3058.3</ele>
        <time>1970-01-01T03:30:12.000Z</time>
      </trkpt>
      <trkpt lat="42.643809" lon="0.647647">
        <ele>3058.3</ele>
        <time>1970-01-01T03:30:13.000Z</time>
      </trkpt>
      <trkpt lat="42.643809" lon="0.647647">
        <ele>3058.3</ele>
        <time>1970-01-01T03:30:14.000Z</time>
      </trkpt>
      <trkpt lat="42.643809" lon="0.647647">
        <ele>3058.3</ele>
        <time>1970-01-01T03:30:15.000Z</time>
      </trkpt>
      <trkpt lat="42.643809" lon="0.647647">
        <ele>3058.3</ele>
        <time>1970-01-01T03:30:16.000Z</time>
      </trkpt>
      <trkpt lat="42.643809" lon="0.647647">
        <ele>3058.3</ele>
        <time>1970-01-01T03:30:17.000Z</time>
      </trkpt>
      <trkpt lat="42.643809" lon="0.647647">
        <ele>3058.3</ele>
        <time>1970-01-01T03:30:18.000Z</time>
      </trkpt>
      <trkpt lat="42.643809" lon="0.647647">
        <ele>3058.3</ele>
        <time>1970-01-01T03:30:19.000Z</time>
      </trkpt>
      <trkpt lat="42.643809" lon="0.647647">
        <ele>3058.3</ele>
        <time>1970-01-01T03:30:20.000Z</time>
      </trkpt>
      <trkpt lat="42.643809" lon="0.647647">
        <ele>3058.3</ele>
        <time>1970-01-01T03:30:21.000Z</time>
      </trkpt>
      <trkpt lat="42.643809" lon="0.647647">
        <ele>3058.3</ele>
        <time>1970-01-01T03:30:22.000Z</time>
      </trkpt>
      <trkpt lat="42.643809" lon="0.647647">
        <ele>3058.3</ele>
        <time>1970-01-01T03:30:23.000Z</time>
      </trkpt>
      <trkpt lat="42.643809" lon="0.647647">
        <ele>3058.3</ele>
        <time>1970-01-01T03:30:24.000Z</time>
      </trkpt>
      <trkpt lat="42.643809" lon="0.647647">
        <ele>3058.3</ele>
        <time>1970-01-01T03:30:25.000Z</time>
      </trkpt>
      <trkpt lat="42.643809" lon="0.647647">
        <ele>3058.3</ele>
        <time>1970-01-01T03:30:26.000Z</time>
      </trkpt>
      <trkpt lat="42.643809" lon="0.647647">
        <ele>3058.3</ele>
        <time>1970-01-01T03:30:27.000Z</time>
      </trkpt>
      <trkpt lat="42.643809" lon="0.647647">
        <ele>3058.3</ele>
        <time>1970-01-01T03:30:28.000Z</time>
      </trkpt>
      <trkpt lat="42.643809" lon="0.647647">
        <ele>3058.3</ele>
        <time>1970-01-01T03:30:29.000Z</time>
      </trkpt>
      <trkpt lat="42.643809" lon="0.647647">
        <ele>3058.3</ele>
        <time>1970-01-01T03:30:30.000Z</time>
      </trkpt>
      <trkpt lat="42.643809" lon="0.647647">
        <ele>3058.3</ele>
        <time>1970-01-01T03:30:31.000Z</time>
      </trkpt>
      <trkpt lat="42.643809" lon="0.647647">
        <ele>3058.3</ele>
        <time>1970-01-01T03:30:32.000Z</time>
      </trkpt>
      <trkpt lat="42.643809" lon="0.647647">
        <ele>3058.3</ele>
        <time>1970-01-01T03:30:33.000Z</time>
      </trkpt>
      <trkpt lat="42.643809" lon="0.647647">
        <ele>3058.3</ele>
        <time>1970-01-01T03:30:34.000Z</time>
      </trkpt>
      <trkpt lat="42.643809" lon="0.647647">
        <ele>3058.3</ele>
        <time>1970-01-01T03:30:35.000Z</time>
      </trkpt>
      <trkpt lat="42.643809" lon="0.647647">
        <ele>3058.3</ele>
        <time>1970-01-01T03:30:36.000Z</time>
      </trkpt>
      <trkpt lat="42.643809" lon="0.647647">
        <ele>3058.3</ele>
        <time>1970-01-01T03:30:37.000Z</time>
      </trkpt>
      <trkpt lat="42.643809" lon="0.647647">
        <ele>3058.3</ele>
        <time>1970-01-01T03:30:38.000Z</time>
      </trkpt>
      <trkpt lat="42.643809" lon="0.647647">
        <ele>3058.3</ele>
        <time>1970-01-01T03:30:39.000Z</time>
      </trkpt>
      <trkpt lat="42.643809" lon="0.647647">
        <ele>3058.3</ele>
        <time>1970-01-01T03:30:40.000Z</time>
      </trkpt>
      <trkpt lat="42.643809" lon="0.647647">
        <ele>3058.3</ele>
        <time>1970-01-01T03:30:41.000Z</time>
      </trkpt>
      <trkpt lat="42.643809" lon="0.647647">
        <ele>3058.3</ele>
        <time>1970-01-01T03:30:42.000Z</time>
      </trkpt>
      <trkpt lat="42.643809" lon="0.647647">
        <ele>3058.3</ele>
        <time>1970-01-01T03:30:43.000Z</time>
      </trkpt>
      <trkpt lat="42.643809" lon="0.647647">
        <ele>3058.3</ele>
        <time>1970-01-01T03:30:44.000Z</time>
      </trkpt>
      <trkpt lat="42.643809" lon="0.647647">
        <ele>3058.3</ele>
        <time>1970-01-01T03:30:45.000Z</time>
      </trkpt>
      <trkpt lat="42.643809" lon="0.647647">
        <ele>3058.3</ele>
        <time>1970-01-01T03:30:46.000Z</time>
      </trkpt>
      <trkpt lat="42.643828" lon="0.647649">
        <ele>3058.3</ele>
        <time>1970-01-01T03:30:54.000Z</time>
      </trkpt>
      <trkpt lat="42.643825" lon="0.647632">
        <ele>3058.9</ele>
        <time>1970-01-01T03:30:55.000Z</time>
      </trkpt>
      <trkpt lat="42.643815" lon="0.647626">
        <ele>3058.9</ele>
        <time>1970-01-01T03:30:56.000Z</time>
      </trkpt>
      <trkpt lat="42.643808" lon="0.647619">
        <ele>3060.1</ele>
        <time>1970-01-01T03:30:57.000Z</time>
      </trkpt>
      <trkpt lat="42.643806" lon="0.647617">
        <ele>3060.1</ele>
        <time>1970-01-01T03:30:58.000Z</time>
      </trkpt>
      <trkpt lat="42.643804" lon="0.647618">
        <ele>3060.1</ele>
        <time>1970-01-01T03:30:59.000Z</time>
      </trkpt>
      <trkpt lat="42.643802" lon="0.647622">
        <ele>3060.1</ele>
        <time>1970-01-01T03:31:00.000Z</time>
      </trkpt>
      <trkpt lat="42.643802" lon="0.647624">
        <ele>3060.1</ele>
        <time>1970-01-01T03:31:01.000Z</time>
      </trkpt>
      <trkpt lat="42.643802" lon="0.647625">
        <ele>3060.1</ele>
        <time>1970-01-01T03:31:02.000Z</time>
      </trkpt>
      <trkpt lat="42.643802" lon="0.647634">
        <ele>3060.1</ele>
        <time>1970-01-01T03:31:04.000Z</time>
      </trkpt>
      <trkpt lat="42.643803" lon="0.647636">
        <ele>3059.4</ele>
        <time>1970-01-01T03:31:05.000Z</time>
      </trkpt>
      <trkpt lat="42.643805" lon="0.647638">
        <ele>3059.4</ele>
        <time>1970-01-01T03:31:06.000Z</time>
      </trkpt>
      <trkpt lat="42.643806" lon="0.64764">
        <ele>3059.4</ele>
        <time>1970-01-01T03:31:07.000Z</time>
      </trkpt>
      <trkpt lat="42.643807" lon="0.64764">
        <ele>3059.4</ele>
        <time>1970-01-01T03:31:08.000Z</time>
      </trkpt>
      <trkpt lat="42.643808" lon="0.647641">
        <ele>3059.4</ele>
        <time>1970-01-01T03:31:09.000Z</time>
      </trkpt>
      <trkpt lat="42.643808" lon="0.647642">
        <ele>3059.4</ele>
        <time>1970-01-01T03:31:10.000Z</time>
      </trkpt>
      <trkpt lat="42.643809" lon="0.647645">
        <ele>3058.3</ele>
        <time>1970-01-01T03:31:12.000Z</time>
      </trkpt>
      <trkpt lat="42.64381" lon="0.647647">
        <ele>3058.3</ele>
        <time>1970-01-01T03:31:13.000Z</time>
      </trkpt>
      <trkpt lat="42.64381" lon="0.647648">
        <ele>3058.3</ele>
        <time>1970-01-01T03:31:14.000Z</time>
      </trkpt>
      <trkpt lat="42.643811" lon="0.64765">
        <ele>3058.3</ele>
        <time>1970-01-01T03:31:15.000Z</time>
      </trkpt>
      <trkpt lat="42.643812" lon="0.647651">
        <ele>3058.3</ele>
        <time>1970-01-01T03:31:16.000Z</time>
      </trkpt>
      <trkpt lat="42.643813" lon="0.647651">
        <ele>3058.3</ele>
        <time>1970-01-01T03:31:17.000Z</time>
      </trkpt>
      <trkpt lat="42.643813" lon="0.647652">
        <ele>3058.3</ele>
        <time>1970-01-01T03:31:18.000Z</time>
      </trkpt>
      <trkpt lat="42.643813" lon="0.647651">
        <ele>3058.3</ele>
        <time>1970-01-01T03:31:19.000Z</time>
      </trkpt>
      <trkpt lat="42.643813" lon="0.64765">
        <ele>3058.3</ele>
        <time>1970-01-01T03:31:20.000Z</time>
      </trkpt>
      <trkpt lat="42.643813" lon="0.64765">
        <ele>3058.3</ele>
        <time>1970-01-01T03:31:21.000Z</time>
      </trkpt>
      <trkpt lat="42.643814" lon="0.647649">
        <ele>3058.3</ele>
        <time>1970-01-01T03:31:23.000Z</time>
      </trkpt>
      <trkpt lat="42.643815" lon="0.647648">
        <ele>3058.3</ele>
        <time>1970-01-01T03:31:24.000Z</time>
      </trkpt>
      <trkpt lat="42.643816" lon="0.647648">
        <ele>3058.3</ele>
        <time>1970-01-01T03:31:25.000Z</time>
      </trkpt>
      <trkpt lat="42.643816" lon="0.647647">
        <ele>3058.3</ele>
        <time>1970-01-01T03:31:26.000Z</time>
      </trkpt>
      <trkpt lat="42.643817" lon="0.647646">
        <ele>3058.3</ele>
        <time>1970-01-01T03:31:27.000Z</time>
      </trkpt>
      <trkpt lat="42.643817" lon="0.647646">
        <ele>3058.3</ele>
        <time>1970-01-01T03:31:28.000Z</time>
      </trkpt>
      <trkpt lat="42.643817" lon="0.647645">
        <ele>3058.3</ele>
        <time>1970-01-01T03:31:29.000Z</time>
      </trkpt>
      <trkpt lat="42.643818" lon="0.647645">
        <ele>3058.3</ele>
        <time>1970-01-01T03:31:30.000Z</time>
      </trkpt>
      <trkpt lat="42.643818" lon="0.647646">
        <ele>3058.3</ele>
        <time>1970-01-01T03:31:31.000Z</time>
      </trkpt>
      <trkpt lat="42.643818" lon="0.647646">
        <ele>3058.3</ele>
        <time>1970-01-01T03:31:32.000Z</time>
      </trkpt>
      <trkpt lat="42.643818" lon="0.647645">
        <ele>3058.3</ele>
        <time>1970-01-01T03:31:33.000Z</time>
      </trkpt>
      <trkpt lat="42.643817" lon="0.647645">
        <ele>3058.3</ele>
        <time>1970-01-01T03:31:34.000Z</time>
      </trkpt>
      <trkpt lat="42.643817" lon="0.647644">
        <ele>3058.3</ele>
        <time>1970-01-01T03:31:35.000Z</time>
      </trkpt>
      <trkpt lat="42.643816" lon="0.647641">
        <ele>3058.3</ele>
        <time>1970-01-01T03:31:37.000Z</time>
      </trkpt>
      <trkpt lat="42.643816" lon="0.64764">
        <ele>3058.3</ele>
        <time>1970-01-01T03:31:39.000Z</time>
      </trkpt>
      <trkpt lat="42.643815" lon="0.647639">
        <ele>3058.3</ele>
        <time>1970-01-01T03:31:40.000Z</time>
      </trkpt>
      <trkpt lat="42.643815" lon="0.647639">
        <ele>3058.3</ele>
        <time>1970-01-01T03:31:41.000Z</time>
      </trkpt>
      <trkpt lat="42.643815" lon="0.64764">
        <ele>3058.3</ele>
        <time>1970-01-01T03:31:43.000Z</time>
      </trkpt>
      <trkpt lat="42.643816" lon="0.647641">
        <ele>3058.3</ele>
        <time>1970-01-01T03:31:44.000Z</time>
      </trkpt>
      <trkpt lat="42.643816" lon="0.647642">
        <ele>3058.3</ele>
        <time>1970-01-01T03:31:45.000Z</time>
      </trkpt>
      <trkpt lat="42.643815" lon="0.647642">
        <ele>3058.3</ele>
        <time>1970-01-01T03:31:47.000Z</time>
      </trkpt>
      <trkpt lat="42.643815" lon="0.647642">
        <ele>3058.3</ele>
        <time>1970-01-01T03:31:48.000Z</time>
      </trkpt>
      <trkpt lat="42.643814" lon="0.647639">
        <ele>3058.3</ele>
        <time>1970-01-01T03:31:49.000Z</time>
      </trkpt>
      <trkpt lat="42.643813" lon="0.647638">
        <ele>3058.3</ele>
        <time>1970-01-01T03:31:50.000Z</time>
      </trkpt>
      <trkpt lat="42.643811" lon="0.647637">
        <ele>3058.3</ele>
        <time>1970-01-01T03:31:51.000Z</time>
      </trkpt>
      <trkpt lat="42.643809" lon="0.647636">
        <ele>3058.3</ele>
        <time>1970-01-01T03:31:52.000Z</time>
      </trkpt>
      <trkpt lat="42.643805" lon="0.647633">
        <ele>3060.1</ele>
        <time>1970-01-01T03:31:53.000Z</time>
      </trkpt>
      <trkpt lat="42.643803" lon="0.64763">
        <ele>3060.1</ele>
        <time>1970-01-01T03:31:54.000Z</time>
      </trkpt>
      <trkpt lat="42.643799" lon="0.64763">
        <ele>3060.1</ele>
        <time>1970-01-01T03:31:55.000Z</time>
      </trkpt>
      <trkpt lat="42.643797" lon="0.647631">
        <ele>3060.1</ele>
        <time>1970-01-01T03:31:56.000Z</time>
      </trkpt>
      <trkpt lat="42.643792" lon="0.647631">
        <ele>3060.1</ele>
        <time>1970-01-01T03:31:57.000Z</time>
      </trkpt>
      <trkpt lat="42.643784" lon="0.647632">
        <ele>3060.1</ele>
        <time>1970-01-01T03:31:58.000Z</time>
      </trkpt>
      <trkpt lat="42.643774" lon="0.647631">
        <ele>3061.2</ele>
        <time>1970-01-01T03:31:59.000Z</time>
      </trkpt>
      <trkpt lat="42.643764" lon="0.647628">
        <ele>3061.2</ele>
        <time>1970-01-01T03:32:01.000Z</time>
      </trkpt>
      <trkpt lat="42.643754" lon="0.64762">
        <ele>3061.2</ele>
        <time>1970-01-01T03:32:02.000Z</time>
      </trkpt>
      <trkpt lat="42.643742" lon="0.64762">
        <ele>3062.4</ele>
        <time>1970-01-01T03:32:03.000Z</time>
      </trkpt>
      <trkpt lat="42.643736" lon="0.647624">
        <ele>3062.4</ele>
        <time>1970-01-01T03:32:04.000Z</time>
      </trkpt>
      <trkpt lat="42.643731" lon="0.647624">
        <ele>3062.4</ele>
        <time>1970-01-01T03:32:05.000Z</time>
      </trkpt>
      <trkpt lat="42.643723" lon="0.647621">
        <ele>3062.4</ele>
        <time>1970-01-01T03:32:06.000Z</time>
      </trkpt>
      <trkpt lat="42.643717" lon="0.647616">
        <ele>3062.4</ele>
        <time>1970-01-01T03:32:08.000Z</time>
      </trkpt>
      <trkpt lat="42.643718" lon="0.647613">
        <ele>3062.4</ele>
        <time>1970-01-01T03:32:09.000Z</time>
      </trkpt>
      <trkpt lat="42.64372" lon="0.64761">
        <ele>3062.4</ele>
        <time>1970-01-01T03:32:10.000Z</time>
      </trkpt>
      <trkpt lat="42.643722" lon="0.647608">
        <ele>3062.4</ele>
        <time>1970-01-01T03:32:11.000Z</time>
      </trkpt>
      <trkpt lat="42.643723" lon="0.647607">
        <ele>3062.4</ele>
        <time>1970-01-01T03:32:12.000Z</time>
      </trkpt>
      <trkpt lat="42.643722" lon="0.647604">
        <ele>3062.4</ele>
        <time>1970-01-01T03:32:13.000Z</time>
      </trkpt>
      <trkpt lat="42.643721" lon="0.647601">
        <ele>3062.4</ele>
        <time>1970-01-01T03:32:14.000Z</time>
      </trkpt>
      <trkpt lat="42.643721" lon="0.647597">
        <ele>3062.4</ele>
        <time>1970-01-01T03:32:15.000Z</time>
      </trkpt>
      <trkpt lat="42.643722" lon="0.647593">
        <ele>3062.4</ele>
        <time>1970-01-01T03:32:16.000Z</time>
      </trkpt>
      <trkpt lat="42.643724" lon="0.647589">
        <ele>3063.1</ele>
        <time>1970-01-01T03:32:17.000Z</time>
      </trkpt>
      <trkpt lat="42.643725" lon="0.647587">
        <ele>3063.1</ele>
        <time>1970-01-01T03:32:18.000Z</time>
      </trkpt>
      <trkpt lat="42.643725" lon="0.647585">
        <ele>3063.1</ele>
        <time>1970-01-01T03:32:19.000Z</time>
      </trkpt>
      <trkpt lat="42.643726" lon="0.647583">
        <ele>3063.1</ele>
        <time>1970-01-01T03:32:20.000Z</time>
      </trkpt>
      <trkpt lat="42.643727" lon="0.64758">
        <ele>3063.1</ele>
        <time>1970-01-01T03:32:21.000Z</time>
      </trkpt>
      <trkpt lat="42.643727" lon="0.64758">
        <ele>3063.1</ele>
        <time>1970-01-01T03:32:22.000Z</time>
      </trkpt>
      <trkpt lat="42.643726" lon="0.647579">
        <ele>3063.1</ele>
        <time>1970-01-01T03:32:23.000Z</time>
      </trkpt>
      <trkpt lat="42.643725" lon="0.647578">
        <ele>3063.1</ele>
        <time>1970-01-01T03:32:24.000Z</time>
      </trkpt>
      <trkpt lat="42.643725" lon="0.647578">
        <ele>3063.1</ele>
        <time>1970-01-01T03:32:25.000Z</time>
      </trkpt>
      <trkpt lat="42.643724" lon="0.647578">
        <ele>3063.1</ele>
        <time>1970-01-01T03:32:26.000Z</time>
      </trkpt>
      <trkpt lat="42.643723" lon="0.647576">
        <ele>3063.1</ele>
        <time>1970-01-01T03:32:27.000Z</time>
      </trkpt>
      <trkpt lat="42.643723" lon="0.647574">
        <ele>3063.1</ele>
        <time>1970-01-01T03:32:28.000Z</time>
      </trkpt>
      <trkpt lat="42.643725" lon="0.647572">
        <ele>3063.1</ele>
        <time>1970-01-01T03:32:29.000Z</time>
      </trkpt>
      <trkpt lat="42.643729" lon="0.647573">
        <ele>3063.1</ele>
        <time>1970-01-01T03:32:31.000Z</time>
      </trkpt>
      <trkpt lat="42.643732" lon="0.647572">
        <ele>3063.1</ele>
        <time>1970-01-01T03:32:32.000Z</time>
      </trkpt>
      <trkpt lat="42.643737" lon="0.647574">
        <ele>3063.1</ele>
        <time>1970-01-01T03:32:33.000Z</time>
      </trkpt>
      <trkpt lat="42.643738" lon="0.647576">
        <ele>3063.1</ele>
        <time>1970-01-01T03:32:34.000Z</time>
      </trkpt>
      <trkpt lat="42.643739" lon="0.647579">
        <ele>3063.1</ele>
        <time>1970-01-01T03:32:35.000Z</time>
      </trkpt>
      <trkpt lat="42.643739" lon="0.647582">
        <ele>3063.1</ele>
        <time>1970-01-01T03:32:36.000Z</time>
      </trkpt>
      <trkpt lat="42.643739" lon="0.647583">
        <ele>3063.1</ele>
        <time>1970-01-01T03:32:37.000Z</time>
      </trkpt>
      <trkpt lat="42.64374" lon="0.647586">
        <ele>3063.1</ele>
        <time>1970-01-01T03:32:38.000Z</time>
      </trkpt>
      <trkpt lat="42.643741" lon="0.647588">
        <ele>3063.1</ele>
        <time>1970-01-01T03:32:39.000Z</time>
      </trkpt>
      <trkpt lat="42.643742" lon="0.64759">
        <ele>3063.1</ele>
        <time>1970-01-01T03:32:40.000Z</time>
      </trkpt>
      <trkpt lat="42.643743" lon="0.647592">
        <ele>3063.1</ele>
        <time>1970-01-01T03:32:41.000Z</time>
      </trkpt>
      <trkpt lat="42.643744" lon="0.647593">
        <ele>3062.4</ele>
        <time>1970-01-01T03:32:42.000Z</time>
      </trkpt>
      <trkpt lat="42.643744" lon="0.647594">
        <ele>3062.4</ele>
        <time>1970-01-01T03:32:43.000Z</time>
      </trkpt>
      <trkpt lat="42.643744" lon="0.647594">
        <ele>3062.4</ele>
        <time>1970-01-01T03:32:44.000Z</time>
      </trkpt>
      <trkpt lat="42.643744" lon="0.647594">
        <ele>3062.4</ele>
        <time>1970-01-01T03:32:45.000Z</time>
      </trkpt>
      <trkpt lat="42.643744" lon="0.647595">
        <ele>3062.4</ele>
        <time>1970-01-01T03:32:46.000Z</time>
      </trkpt>
      <trkpt lat="42.643744" lon="0.647596">
        <ele>3062.4</ele>
        <time>1970-01-01T03:32:47.000Z</time>
      </trkpt>
      <trkpt lat="42.643744" lon="0.647597">
        <ele>3062.4</ele>
        <time>1970-01-01T03:32:48.000Z</time>
      </trkpt>
      <trkpt lat="42.643743" lon="0.647596">
        <ele>3062.4</ele>
        <time>1970-01-01T03:32:49.000Z</time>
      </trkpt>
      <trkpt lat="42.643742" lon="0.647596">
        <ele>3062.4</ele>
        <time>1970-01-01T03:32:50.000Z</time>
      </trkpt>
      <trkpt lat="42.643743" lon="0.647598">
        <ele>3062.4</ele>
        <time>1970-01-01T03:32:52.000Z</time>
      </trkpt>
      <trkpt lat="42.643742" lon="0.647597">
        <ele>3062.4</ele>
        <time>1970-01-01T03:32:53.000Z</time>
      </trkpt>
      <trkpt lat="42.643738" lon="0.647596">
        <ele>3062.4</ele>
        <time>1970-01-01T03:32:55.000Z</time>
      </trkpt>
      <trkpt lat="42.643735" lon="0.647594">
        <ele>3062.4</ele>
        <time>1970-01-01T03:32:56.000Z</time>
      </trkpt>
      <trkpt lat="42.643735" lon="0.647591">
        <ele>3063.1</ele>
        <time>1970-01-01T03:32:58.000Z</time>
      </trkpt>
      <trkpt lat="42.643734" lon="0.647589">
        <ele>3063.1</ele>
        <time>1970-01-01T03:32:59.000Z</time>
      </trkpt>
      <trkpt lat="42.643733" lon="0.647586">
        <ele>3063.1</ele>
        <time>1970-01-01T03:33:00.000Z</time>
      </trkpt>
      <trkpt lat="42.643733" lon="0.647585">
        <ele>3063.1</ele>
        <time>1970-01-01T03:33:01.000Z</time>
      </trkpt>
      <trkpt lat="42.643733" lon="0.647584">
        <ele>3063.1</ele>
        <time>1970-01-01T03:33:02.000Z</time>
      </trkpt>
      <trkpt lat="42.643732" lon="0.647584">
        <ele>3063.1</ele>
        <time>1970-01-01T03:33:03.000Z</time>
      </trkpt>
      <trkpt lat="42.643732" lon="0.647585">
        <ele>3063.1</ele>
        <time>1970-01-01T03:33:04.000Z</time>
      </trkpt>
      <trkpt lat="42.643731" lon="0.647585">
        <ele>3063.1</ele>
        <time>1970-01-01T03:33:05.000Z</time>
      </trkpt>
      <trkpt lat="42.643731" lon="0.647585">
        <ele>3063.1</ele>
        <time>1970-01-01T03:33:06.000Z</time>
      </trkpt>
      <trkpt lat="42.643732" lon="0.647586">
        <ele>3063.1</ele>
        <time>1970-01-01T03:33:07.000Z</time>
      </trkpt>
      <trkpt lat="42.643733" lon="0.647586">
        <ele>3063.1</ele>
        <time>1970-01-01T03:33:08.000Z</time>
      </trkpt>
      <trkpt lat="42.643733" lon="0.647587">
        <ele>3063.1</ele>
        <time>1970-01-01T03:33:10.000Z</time>
      </trkpt>
      <trkpt lat="42.643734" lon="0.647587">
        <ele>3063.1</ele>
        <time>1970-01-01T03:33:11.000Z</time>
      </trkpt>
      <trkpt lat="42.643734" lon="0.647587">
        <ele>3063.1</ele>
        <time>1970-01-01T03:33:12.000Z</time>
      </trkpt>
      <trkpt lat="42.643735" lon="0.647586">
        <ele>3063.1</ele>
        <time>1970-01-01T03:33:13.000Z</time>
      </trkpt>
      <trkpt lat="42.643735" lon="0.647585">
        <ele>3063.1</ele>
        <time>1970-01-01T03:33:14.000Z</time>
      </trkpt>
      <trkpt lat="42.643735" lon="0.647584">
        <ele>3063.1</ele>
        <time>1970-01-01T03:33:15.000Z</time>
      </trkpt>
      <trkpt lat="42.643734" lon="0.647583">
        <ele>3063.1</ele>
        <time>1970-01-01T03:33:16.000Z</time>
      </trkpt>
      <trkpt lat="42.643733" lon="0.647581">
        <ele>3063.1</ele>
        <time>1970-01-01T03:33:17.000Z</time>
      </trkpt>
      <trkpt lat="42.643733" lon="0.64758">
        <ele>3063.1</ele>
        <time>1970-01-01T03:33:18.000Z</time>
      </trkpt>
      <trkpt lat="42.643732" lon="0.647579">
        <ele>3063.1</ele>
        <time>1970-01-01T03:33:20.000Z</time>
      </trkpt>
      <trkpt lat="42.643732" lon="0.647579">
        <ele>3063.1</ele>
        <time>1970-01-01T03:33:21.000Z</time>
      </trkpt>
      <trkpt lat="42.643731" lon="0.647579">
        <ele>3063.1</ele>
        <time>1970-01-01T03:33:22.000Z</time>
      </trkpt>
      <trkpt lat="42.643731" lon="0.647578">
        <ele>3063.1</ele>
        <time>1970-01-01T03:33:23.000Z</time>
      </trkpt>
      <trkpt lat="42.643731" lon="0.647577">
        <ele>3063.1</ele>
        <time>1970-01-01T03:33:24.000Z</time>
      </trkpt>
      <trkpt lat="42.643731" lon="0.647576">
        <ele>3063.1</ele>
        <time>1970-01-01T03:33:25.000Z</time>
      </trkpt>
      <trkpt lat="42.64373" lon="0.647576">
        <ele>3063.1</ele>
        <time>1970-01-01T03:33:26.000Z</time>
      </trkpt>
      <trkpt lat="42.64373" lon="0.647577">
        <ele>3063.1</ele>
        <time>1970-01-01T03:33:27.000Z</time>
      </trkpt>
      <trkpt lat="42.643731" lon="0.647578">
        <ele>3063.1</ele>
        <time>1970-01-01T03:33:28.000Z</time>
      </trkpt>
      <trkpt lat="42.643731" lon="0.647579">
        <ele>3063.1</ele>
        <time>1970-01-01T03:33:29.000Z</time>
      </trkpt>
      <trkpt lat="42.643731" lon="0.64758">
        <ele>3063.1</ele>
        <time>1970-01-01T03:33:30.000Z</time>
      </trkpt>
      <trkpt lat="42.64373" lon="0.647582">
        <ele>3063.1</ele>
        <time>1970-01-01T03:33:32.000Z</time>
      </trkpt>
      <trkpt lat="42.64373" lon="0.647583">
        <ele>3063.1</ele>
        <time>1970-01-01T03:33:33.000Z</time>
      </trkpt>
      <trkpt lat="42.643731" lon="0.647584">
        <ele>3063.1</ele>
        <time>1970-01-01T03:33:34.000Z</time>
      </trkpt>
      <trkpt lat="42.643731" lon="0.647584">
        <ele>3063.1</ele>
        <time>1970-01-01T03:33:35.000Z</time>
      </trkpt>
      <trkpt lat="42.643731" lon="0.647585">
        <ele>3063.1</ele>
        <time>1970-01-01T03:33:36.000Z</time>
      </trkpt>
      <trkpt lat="42.643731" lon="0.647585">
        <ele>3063.1</ele>
        <time>1970-01-01T03:33:37.000Z</time>
      </trkpt>
      <trkpt lat="42.643731" lon="0.647585">
        <ele>3063.1</ele>
        <time>1970-01-01T03:33:38.000Z</time>
      </trkpt>
      <trkpt lat="42.643732" lon="0.647585">
        <ele>3063.1</ele>
        <time>1970-01-01T03:33:39.000Z</time>
      </trkpt>
      <trkpt lat="42.643732" lon="0.647585">
        <ele>3063.1</ele>
        <time>1970-01-01T03:33:40.000Z</time>
      </trkpt>
      <trkpt lat="42.643733" lon="0.647586">
        <ele>3063.1</ele>
        <time>1970-01-01T03:33:41.000Z</time>
      </trkpt>
      <trkpt lat="42.643734" lon="0.647586">
        <ele>3063.1</ele>
        <time>1970-01-01T03:33:42.000Z</time>
      </trkpt>
      <trkpt lat="42.643735" lon="0.647586">
        <ele>3063.1</ele>
        <time>1970-01-01T03:33:43.000Z</time>
      </trkpt>
      <trkpt lat="42.643735" lon="0.647586">
        <ele>3063.1</ele>
        <time>1970-01-01T03:33:44.000Z</time>
      </trkpt>
      <trkpt lat="42.643735" lon="0.647586">
        <ele>3063.1</ele>
        <time>1970-01-01T03:33:45.000Z</time>
      </trkpt>
      <trkpt lat="42.643735" lon="0.647586">
        <ele>3063.1</ele>
        <time>1970-01-01T03:33:46.000Z</time>
      </trkpt>
      <trkpt lat="42.643735" lon="0.647585">
        <ele>3063.1</ele>
        <time>1970-01-01T03:33:47.000Z</time>
      </trkpt>
      <trkpt lat="42.643735" lon="0.647585">
        <ele>3063.1</ele>
        <time>1970-01-01T03:33:48.000Z</time>
      </trkpt>
      <trkpt lat="42.643735" lon="0.647585">
        <ele>3063.1</ele>
        <time>1970-01-01T03:33:49.000Z</time>
      </trkpt>
      <trkpt lat="42.643735" lon="0.647584">
        <ele>3063.1</ele>
        <time>1970-01-01T03:33:50.000Z</time>
      </trkpt>
      <trkpt lat="42.643735" lon="0.647585">
        <ele>3063.1</ele>
        <time>1970-01-01T03:33:51.000Z</time>
      </trkpt>
      <trkpt lat="42.643735" lon="0.647585">
        <ele>3063.1</ele>
        <time>1970-01-01T03:33:52.000Z</time>
      </trkpt>
      <trkpt lat="42.643735" lon="0.647584">
        <ele>3063.1</ele>
        <time>1970-01-01T03:33:53.000Z</time>
      </trkpt>
      <trkpt lat="42.643734" lon="0.647584">
        <ele>3063.1</ele>
        <time>1970-01-01T03:33:54.000Z</time>
      </trkpt>
      <trkpt lat="42.643734" lon="0.647584">
        <ele>3063.1</ele>
        <time>1970-01-01T03:33:55.000Z</time>
      </trkpt>
      <trkpt lat="42.643734" lon="0.647584">
        <ele>3063.1</ele>
        <time>1970-01-01T03:33:56.000Z</time>
      </trkpt>
      <trkpt lat="42.643734" lon="0.647584">
        <ele>3063.1</ele>
        <time>1970-01-01T03:33:57.000Z</time>
      </trkpt>
      <trkpt lat="42.643733" lon="0.647584">
        <ele>3063.1</ele>
        <time>1970-01-01T03:33:58.000Z</time>
      </trkpt>
      <trkpt lat="42.643733" lon="0.647584">
        <ele>3063.1</ele>
        <time>1970-01-01T03:33:59.000Z</time>
      </trkpt>
      <trkpt lat="42.643734" lon="0.647584">
        <ele>3063.1</ele>
        <time>1970-01-01T03:34:00.000Z</time>
      </trkpt>
      <trkpt lat="42.643734" lon="0.647584">
        <ele>3063.1</ele>
        <time>1970-01-01T03:34:01.000Z</time>
      </trkpt>
      <trkpt lat="42.643734" lon="0.647584">
        <ele>3063.1</ele>
        <time>1970-01-01T03:34:02.000Z</time>
      </trkpt>
      <trkpt lat="42.643734" lon="0.647585">
        <ele>3063.1</ele>
        <time>1970-01-01T03:34:03.000Z</time>
      </trkpt>
      <trkpt lat="42.643737" lon="0.647581">
        <ele>3063.1</ele>
        <time>1970-01-01T03:34:04.000Z</time>
      </trkpt>
      <trkpt lat="42.643739" lon="0.647579">
        <ele>3063.1</ele>
        <time>1970-01-01T03:34:05.000Z</time>
      </trkpt>
      <trkpt lat="42.64374" lon="0.647578">
        <ele>3063.1</ele>
        <time>1970-01-01T03:34:06.000Z</time>
      </trkpt>
      <trkpt lat="42.643741" lon="0.647577">
        <ele>3063.1</ele>
        <time>1970-01-01T03:34:07.000Z</time>
      </trkpt>
      <trkpt lat="42.643741" lon="0.647577">
        <ele>3063.1</ele>
        <time>1970-01-01T03:34:08.000Z</time>
      </trkpt>
      <trkpt lat="42.64374" lon="0.647579">
        <ele>3063.1</ele>
        <time>1970-01-01T03:34:09.000Z</time>
      </trkpt>
      <trkpt lat="42.64374" lon="0.64758">
        <ele>3063.1</ele>
        <time>1970-01-01T03:34:10.000Z</time>
      </trkpt>
      <trkpt lat="42.64374" lon="0.647581">
        <ele>3063.1</ele>
        <time>1970-01-01T03:34:11.000Z</time>
      </trkpt>
      <trkpt lat="42.64374" lon="0.647582">
        <ele>3063.1</ele>
        <time>1970-01-01T03:34:12.000Z</time>
      </trkpt>
      <trkpt lat="42.64374" lon="0.647582">
        <ele>3063.1</ele>
        <time>1970-01-01T03:34:13.000Z</time>
      </trkpt>
      <trkpt lat="42.64374" lon="0.647582">
        <ele>3063.1</ele>
        <time>1970-01-01T03:34:14.000Z</time>
      </trkpt>
      <trkpt lat="42.64374" lon="0.647582">
        <ele>3063.1</ele>
        <time>1970-01-01T03:34:15.000Z</time>
      </trkpt>
      <trkpt lat="42.64374" lon="0.647584">
        <ele>3063.1</ele>
        <time>1970-01-01T03:34:16.000Z</time>
      </trkpt>
      <trkpt lat="42.643741" lon="0.647586">
        <ele>3063.1</ele>
        <time>1970-01-01T03:34:17.000Z</time>
      </trkpt>
      <trkpt lat="42.643742" lon="0.647587">
        <ele>3063.1</ele>
        <time>1970-01-01T03:34:18.000Z</time>
      </trkpt>
      <trkpt lat="42.643741" lon="0.647587">
        <ele>3063.1</ele>
        <time>1970-01-01T03:34:19.000Z</time>
      </trkpt>
      <trkpt lat="42.643738" lon="0.647586">
        <ele>3063.1</ele>
        <time>1970-01-01T03:34:20.000Z</time>
      </trkpt>
      <trkpt lat="42.643737" lon="0.647586">
        <ele>3063.1</ele>
        <time>1970-01-01T03:34:21.000Z</time>
      </trkpt>
      <trkpt lat="42.643733" lon="0.647587">
        <ele>3063.1</ele>
        <time>1970-01-01T03:34:22.000Z</time>
      </trkpt>
      <trkpt lat="42.643725" lon="0.647591">
        <ele>3063.1</ele>
        <time>1970-01-01T03:34:24.000Z</time>
      </trkpt>
      <trkpt lat="42.643723" lon="0.647601">
        <ele>3062.4</ele>
        <time>1970-01-01T03:34:26.000Z</time>
      </trkpt>
      <trkpt lat="42.643723" lon="0.647607">
        <ele>3062.4</ele>
        <time>1970-01-01T03:34:27.000Z</time>
      </trkpt>
      <trkpt lat="42.643723" lon="0.647608">
        <ele>3062.4</ele>
        <time>1970-01-01T03:34:28.000Z</time>
      </trkpt>
      <trkpt lat="42.643721" lon="0.647608">
        <ele>3062.4</ele>
        <time>1970-01-01T03:34:29.000Z</time>
      </trkpt>
      <trkpt lat="42.643721" lon="0.647607">
        <ele>3062.4</ele>
        <time>1970-01-01T03:34:30.000Z</time>
      </trkpt>
      <trkpt lat="42.64372" lon="0.647606">
        <ele>3062.4</ele>
        <time>1970-01-01T03:34:31.000Z</time>
      </trkpt>
      <trkpt lat="42.64372" lon="0.647605">
        <ele>3062.4</ele>
        <time>1970-01-01T03:34:32.000Z</time>
      </trkpt>
      <trkpt lat="42.643719" lon="0.647605">
        <ele>3062.4</ele>
        <time>1970-01-01T03:34:33.000Z</time>
      </trkpt>
      <trkpt lat="42.643718" lon="0.647604">
        <ele>3062.4</ele>
        <time>1970-01-01T03:34:34.000Z</time>
      </trkpt>
      <trkpt lat="42.643717" lon="0.647603">
        <ele>3062.4</ele>
        <time>1970-01-01T03:34:35.000Z</time>
      </trkpt>
      <trkpt lat="42.643707" lon="0.647598">
        <ele>3063.6</ele>
        <time>1970-01-01T03:34:37.000Z</time>
      </trkpt>
      <trkpt lat="42.643702" lon="0.647594">
        <ele>3063.6</ele>
        <time>1970-01-01T03:34:38.000Z</time>
      </trkpt>
      <trkpt lat="42.643688" lon="0.647593">
        <ele>3063.6</ele>
        <time>1970-01-01T03:34:39.000Z</time>
      </trkpt>
      <trkpt lat="42.643681" lon="0.647606">
        <ele>3064.8</ele>
        <time>1970-01-01T03:34:40.000Z</time>
      </trkpt>
      <trkpt lat="42.643685" lon="0.647622">
        <ele>3063.6</ele>
        <time>1970-01-01T03:34:42.000Z</time>
      </trkpt>
      <trkpt lat="42.643686" lon="0.647626">
        <ele>3063.6</ele>
        <time>1970-01-01T03:34:43.000Z</time>
      </trkpt>
      <trkpt lat="42.643683" lon="0.647626">
        <ele>3063.6</ele>
        <time>1970-01-01T03:34:44.000Z</time>
      </trkpt>
      <trkpt lat="42.643681" lon="0.647625">
        <ele>3064.8</ele>
        <time>1970-01-01T03:34:45.000Z</time>
      </trkpt>
      <trkpt lat="42.643678" lon="0.647625">
        <ele>3064.8</ele>
        <time>1970-01-01T03:34:46.000Z</time>
      </trkpt>
      <trkpt lat="42.643676" lon="0.647625">
        <ele>3064.8</ele>
        <time>1970-01-01T03:34:47.000Z</time>
      </trkpt>
      <trkpt lat="42.643674" lon="0.647625">
        <ele>3064.8</ele>
        <time>1970-01-01T03:34:48.000Z</time>
      </trkpt>
      <trkpt lat="42.643673" lon="0.647626">
        <ele>3064.8</ele>
        <time>1970-01-01T03:34:49.000Z</time>
      </trkpt>
      <trkpt lat="42.643673" lon="0.647625">
        <ele>3064.8</ele>
        <time>1970-01-01T03:34:50.000Z</time>
      </trkpt>
      <trkpt lat="42.643672" lon="0.647621">
        <ele>3064.8</ele>
        <time>1970-01-01T03:34:51.000Z</time>
      </trkpt>
      <trkpt lat="42.643672" lon="0.647617">
        <ele>3064.8</ele>
        <time>1970-01-01T03:34:52.000Z</time>
      </trkpt>
      <trkpt lat="42.643672" lon="0.647613">
        <ele>3064.8</ele>
        <time>1970-01-01T03:34:53.000Z</time>
      </trkpt>
      <trkpt lat="42.643672" lon="0.647608">
        <ele>3064.8</ele>
        <time>1970-01-01T03:34:54.000Z</time>
      </trkpt>
      <trkpt lat="42.64367" lon="0.647604">
        <ele>3064.8</ele>
        <time>1970-01-01T03:34:55.000Z</time>
      </trkpt>
      <trkpt lat="42.643669" lon="0.647602">
        <ele>3064.8</ele>
        <time>1970-01-01T03:34:56.000Z</time>
      </trkpt>
      <trkpt lat="42.643669" lon="0.647601">
        <ele>3064.8</ele>
        <time>1970-01-01T03:34:57.000Z</time>
      </trkpt>
      <trkpt lat="42.643668" lon="0.647599">
        <ele>3064.8</ele>
        <time>1970-01-01T03:34:58.000Z</time>
      </trkpt>
      <trkpt lat="42.643668" lon="0.647598">
        <ele>3064.8</ele>
        <time>1970-01-01T03:34:59.000Z</time>
      </trkpt>
      <trkpt lat="42.643667" lon="0.647597">
        <ele>3064.8</ele>
        <time>1970-01-01T03:35:00.000Z</time>
      </trkpt>
      <trkpt lat="42.643667" lon="0.647596">
        <ele>3064.8</ele>
        <time>1970-01-01T03:35:01.000Z</time>
      </trkpt>
      <trkpt lat="42.643665" lon="0.647594">
        <ele>3064.8</ele>
        <time>1970-01-01T03:35:02.000Z</time>
      </trkpt>
      <trkpt lat="42.643663" lon="0.647591">
        <ele>3065.6</ele>
        <time>1970-01-01T03:35:03.000Z</time>
      </trkpt>
      <trkpt lat="42.643661" lon="0.647585">
        <ele>3065.6</ele>
        <time>1970-01-01T03:35:04.000Z</time>
      </trkpt>
      <trkpt lat="42.643658" lon="0.64758">
        <ele>3065.6</ele>
        <time>1970-01-01T03:35:05.000Z</time>
      </trkpt>
      <trkpt lat="42.643655" lon="0.647574">
        <ele>3065.6</ele>
        <time>1970-01-01T03:35:06.000Z</time>
      </trkpt>
      <trkpt lat="42.643641" lon="0.647571">
        <ele>3066.8</ele>
        <time>1970-01-01T03:35:07.000Z</time>
      </trkpt>
      <trkpt lat="42.643637" lon="0.647568">
        <ele>3066.8</ele>
        <time>1970-01-01T03:35:08.000Z</time>
      </trkpt>
      <trkpt lat="42.643635" lon="0.647565">
        <ele>3066.8</ele>
        <time>1970-01-01T03:35:09.000Z</time>
      </trkpt>
      <trkpt lat="42.643631" lon="0.647563">
        <ele>3066.8</ele>
        <time>1970-01-01T03:35:10.000Z</time>
      </trkpt>
      <trkpt lat="42.64362" lon="0.647565">
        <ele>3066.8</ele>
        <time>1970-01-01T03:35:12.000Z</time>
      </trkpt>
      <trkpt lat="42.643614" lon="0.647571">
        <ele>3068.2</ele>
        <time>1970-01-01T03:35:13.000Z</time>
      </trkpt>
      <trkpt lat="42.643612" lon="0.647573">
        <ele>3068.2</ele>
        <time>1970-01-01T03:35:14.000Z</time>
      </trkpt>
      <trkpt lat="42.643611" lon="0.647574">
        <ele>3068.2</ele>
        <time>1970-01-01T03:35:15.000Z</time>
      </trkpt>
      <trkpt lat="42.64361" lon="0.647573">
        <ele>3068.2</ele>
        <time>1970-01-01T03:35:16.000Z</time>
      </trkpt>
      <trkpt lat="42.64361" lon="0.647572">
        <ele>3068.2</ele>
        <time>1970-01-01T03:35:17.000Z</time>
      </trkpt>
      <trkpt lat="42.643604" lon="0.647567">
        <ele>3068.2</ele>
        <time>1970-01-01T03:35:18.000Z</time>
      </trkpt>
      <trkpt lat="42.643597" lon="0.647557">
        <ele>3068.2</ele>
        <time>1970-01-01T03:35:19.000Z</time>
      </trkpt>
      <trkpt lat="42.643591" lon="0.647547">
        <ele>3068.9</ele>
        <time>1970-01-01T03:35:20.000Z</time>
      </trkpt>
      <trkpt lat="42.643583" lon="0.647537">
        <ele>3070.3</ele>
        <time>1970-01-01T03:35:22.000Z</time>
      </trkpt>
      <trkpt lat="42.643573" lon="0.647529">
        <ele>3070.3</ele>
        <time>1970-01-01T03:35:23.000Z</time>
      </trkpt>
      <trkpt lat="42.643561" lon="0.647522">
        <ele>3070.3</ele>
        <time>1970-01-01T03:35:24.000Z</time>
      </trkpt>
      <trkpt lat="42.643532" lon="0.647514">
        <ele>3071.6</ele>
        <time>1970-01-01T03:35:25.000Z</time>
      </trkpt>
      <trkpt lat="42.643516" lon="0.647511">
        <ele>3072.9</ele>
        <time>1970-01-01T03:35:27.000Z</time>
      </trkpt>
      <trkpt lat="42.643508" lon="0.647508">
        <ele>3072.9</ele>
        <time>1970-01-01T03:35:28.000Z</time>
      </trkpt>
      <trkpt lat="42.6435" lon="0.647503">
        <ele>3073.6</ele>
        <time>1970-01-01T03:35:29.000Z</time>
      </trkpt>
      <trkpt lat="42.643491" lon="0.647493">
        <ele>3074.9</ele>
        <time>1970-01-01T03:35:30.000Z</time>
      </trkpt>
      <trkpt lat="42.643482" lon="0.647485">
        <ele>3074.9</ele>
        <time>1970-01-01T03:35:31.000Z</time>
      </trkpt>
      <trkpt lat="42.643474" lon="0.64748">
        <ele>3074.9</ele>
        <time>1970-01-01T03:35:32.000Z</time>
      </trkpt>
      <trkpt lat="42.643454" lon="0.647478">
        <ele>3076.1</ele>
        <time>1970-01-01T03:35:33.000Z</time>
      </trkpt>
      <trkpt lat="42.643446" lon="0.647477">
        <ele>3076.1</ele>
        <time>1970-01-01T03:35:34.000Z</time>
      </trkpt>
      <trkpt lat="42.643438" lon="0.647477">
        <ele>3076.1</ele>
        <time>1970-01-01T03:35:35.000Z</time>
      </trkpt>
      <trkpt lat="42.643427" lon="0.647473">
        <ele>3077.2</ele>
        <time>1970-01-01T03:35:36.000Z</time>
      </trkpt>
      <trkpt lat="42.643418" lon="0.64747">
        <ele>3077.2</ele>
        <time>1970-01-01T03:35:38.000Z</time>
      </trkpt>
      <trkpt lat="42.643407" lon="0.647468">
        <ele>3077.2</ele>
        <time>1970-01-01T03:35:39.000Z</time>
      </trkpt>
      <trkpt lat="42.643401" lon="0.647467">
        <ele>3077.2</ele>
        <time>1970-01-01T03:35:40.000Z</time>
      </trkpt>
      <trkpt lat="42.643395" lon="0.647467">
        <ele>3078.5</ele>
        <time>1970-01-01T03:35:41.000Z</time>
      </trkpt>
      <trkpt lat="42.643386" lon="0.647468">
        <ele>3078.5</ele>
        <time>1970-01-01T03:35:42.000Z</time>
      </trkpt>
      <trkpt lat="42.643378" lon="0.647471">
        <ele>3078.5</ele>
        <time>1970-01-01T03:35:44.000Z</time>
      </trkpt>
      <trkpt lat="42.64337" lon="0.647474">
        <ele>3078.5</ele>
        <time>1970-01-01T03:35:45.000Z</time>
      </trkpt>
      <trkpt lat="42.643367" lon="0.647475">
        <ele>3078.5</ele>
        <time>1970-01-01T03:35:46.000Z</time>
      </trkpt>
      <trkpt lat="42.643362" lon="0.647478">
        <ele>3079.8</ele>
        <time>1970-01-01T03:35:47.000Z</time>
      </trkpt>
      <trkpt lat="42.643354" lon="0.647479">
        <ele>3079.8</ele>
        <time>1970-01-01T03:35:49.000Z</time>
      </trkpt>
      <trkpt lat="42.643349" lon="0.64748">
        <ele>3079.8</ele>
        <time>1970-01-01T03:35:50.000Z</time>
      </trkpt>
      <trkpt lat="42.643345" lon="0.647481">
        <ele>3079.8</ele>
        <time>1970-01-01T03:35:51.000Z</time>
      </trkpt>
      <trkpt lat="42.64334" lon="0.64748">
        <ele>3079.8</ele>
        <time>1970-01-01T03:35:52.000Z</time>
      </trkpt>
      <trkpt lat="42.643333" lon="0.64748">
        <ele>3081.2</ele>
        <time>1970-01-01T03:35:54.000Z</time>
      </trkpt>
      <trkpt lat="42.643325" lon="0.647477">
        <ele>3081.2</ele>
        <time>1970-01-01T03:35:55.000Z</time>
      </trkpt>
      <trkpt lat="42.643316" lon="0.647477">
        <ele>3081.2</ele>
        <time>1970-01-01T03:35:56.000Z</time>
      </trkpt>
      <trkpt lat="42.643308" lon="0.647478">
        <ele>3081.2</ele>
        <time>1970-01-01T03:35:58.000Z</time>
      </trkpt>
      <trkpt lat="42.643298" lon="0.64748">
        <ele>3082.6</ele>
        <time>1970-01-01T03:35:59.000Z</time>
      </trkpt>
      <trkpt lat="42.64329" lon="0.647484">
        <ele>3082.6</ele>
        <time>1970-01-01T03:36:00.000Z</time>
      </trkpt>
      <trkpt lat="42.643285" lon="0.647486">
        <ele>3082.6</ele>
        <time>1970-01-01T03:36:01.000Z</time>
      </trkpt>
      <trkpt lat="42.643278" lon="0.64749">
        <ele>3082.6</ele>
        <time>1970-01-01T03:36:02.000Z</time>
      </trkpt>
      <trkpt lat="42.643265" lon="0.647492">
        <ele>3084</ele>
        <time>1970-01-01T03:36:03.000Z</time>
      </trkpt>
      <trkpt lat="42.643255" lon="0.647495">
        <ele>3084</ele>
        <time>1970-01-01T03:36:05.000Z</time>
      </trkpt>
      <trkpt lat="42.643249" lon="0.647501">
        <ele>3084</ele>
        <time>1970-01-01T03:36:06.000Z</time>
      </trkpt>
      <trkpt lat="42.643243" lon="0.647507">
        <ele>3083.3</ele>
        <time>1970-01-01T03:36:07.000Z</time>
      </trkpt>
      <trkpt lat="42.643234" lon="0.647509">
        <ele>3084.7</ele>
        <time>1970-01-01T03:36:08.000Z</time>
      </trkpt>
      <trkpt lat="42.643224" lon="0.647511">
        <ele>3084.7</ele>
        <time>1970-01-01T03:36:10.000Z</time>
      </trkpt>
      <trkpt lat="42.643215" lon="0.647513">
        <ele>3084.7</ele>
        <time>1970-01-01T03:36:11.000Z</time>
      </trkpt>
      <trkpt lat="42.643208" lon="0.64752">
        <ele>3085.9</ele>
        <time>1970-01-01T03:36:13.000Z</time>
      </trkpt>
      <trkpt lat="42.643203" lon="0.647525">
        <ele>3085.9</ele>
        <time>1970-01-01T03:36:14.000Z</time>
      </trkpt>
      <trkpt lat="42.643199" lon="0.647527">
        <ele>3085.9</ele>
        <time>1970-01-01T03:36:15.000Z</time>
      </trkpt>
      <trkpt lat="42.643194" lon="0.647528">
        <ele>3085.9</ele>
        <time>1970-01-01T03:36:16.000Z</time>
      </trkpt>
      <trkpt lat="42.643179" lon="0.647529">
        <ele>3085.9</ele>
        <time>1970-01-01T03:36:18.000Z</time>
      </trkpt>
      <trkpt lat="42.64317" lon="0.647533">
        <ele>3087.2</ele>
        <time>1970-01-01T03:36:19.000Z</time>
      </trkpt>
      <trkpt lat="42.643163" lon="0.647535">
        <ele>3087.2</ele>
        <time>1970-01-01T03:36:20.000Z</time>
      </trkpt>
      <trkpt lat="42.643154" lon="0.647538">
        <ele>3087.2</ele>
        <time>1970-01-01T03:36:21.000Z</time>
      </trkpt>
      <trkpt lat="42.643144" lon="0.647542">
        <ele>3088.5</ele>
        <time>1970-01-01T03:36:23.000Z</time>
      </trkpt>
      <trkpt lat="42.643136" lon="0.647548">
        <ele>3088.5</ele>
        <time>1970-01-01T03:36:24.000Z</time>
      </trkpt>
      <trkpt lat="42.643132" lon="0.647552">
        <ele>3087.8</ele>
        <time>1970-01-01T03:36:25.000Z</time>
      </trkpt>
      <trkpt lat="42.643126" lon="0.647556">
        <ele>3087.8</ele>
        <time>1970-01-01T03:36:26.000Z</time>
      </trkpt>
      <trkpt lat="42.643119" lon="0.647561">
        <ele>3087.8</ele>
        <time>1970-01-01T03:36:27.000Z</time>
      </trkpt>
      <trkpt lat="42.643112" lon="0.647565">
        <ele>3089.2</ele>
        <time>1970-01-01T03:36:29.000Z</time>
      </trkpt>
      <trkpt lat="42.643106" lon="0.647568">
        <ele>3089.2</ele>
        <time>1970-01-01T03:36:30.000Z</time>
      </trkpt>
      <trkpt lat="42.6431" lon="0.647572">
        <ele>3089.2</ele>
        <time>1970-01-01T03:36:31.000Z</time>
      </trkpt>
      <trkpt lat="42.643097" lon="0.647571">
        <ele>3089.2</ele>
        <time>1970-01-01T03:36:32.000Z</time>
      </trkpt>
      <trkpt lat="42.643091" lon="0.647571">
        <ele>3089.2</ele>
        <time>1970-01-01T03:36:33.000Z</time>
      </trkpt>
      <trkpt lat="42.643082" lon="0.647572">
        <ele>3090.7</ele>
        <time>1970-01-01T03:36:35.000Z</time>
      </trkpt>
      <trkpt lat="42.643075" lon="0.647575">
        <ele>3090.7</ele>
        <time>1970-01-01T03:36:36.000Z</time>
      </trkpt>
      <trkpt lat="42.64307" lon="0.647578">
        <ele>3090.7</ele>
        <time>1970-01-01T03:36:37.000Z</time>
      </trkpt>
      <trkpt lat="42.643057" lon="0.647582">
        <ele>3090.7</ele>
        <time>1970-01-01T03:36:39.000Z</time>
      </trkpt>
      <trkpt lat="42.643048" lon="0.647585">
        <ele>3092.3</ele>
        <time>1970-01-01T03:36:40.000Z</time>
      </trkpt>
      <trkpt lat="42.643042" lon="0.647587">
        <ele>3092.3</ele>
        <time>1970-01-01T03:36:41.000Z</time>
      </trkpt>
      <trkpt lat="42.643036" lon="0.647589">
        <ele>3092.3</ele>
        <time>1970-01-01T03:36:42.000Z</time>
      </trkpt>
      <trkpt lat="42.643029" lon="0.647592">
        <ele>3092.3</ele>
        <time>1970-01-01T03:36:44.000Z</time>
      </trkpt>
      <trkpt lat="42.643022" lon="0.647595">
        <ele>3091.7</ele>
        <time>1970-01-01T03:36:45.000Z</time>
      </trkpt>
      <trkpt lat="42.643017" lon="0.647596">
        <ele>3093.3</ele>
        <time>1970-01-01T03:36:46.000Z</time>
      </trkpt>
      <trkpt lat="42.643014" lon="0.647598">
        <ele>3093.3</ele>
        <time>1970-01-01T03:36:47.000Z</time>
      </trkpt>
      <trkpt lat="42.64301" lon="0.6476">
        <ele>3093.3</ele>
        <time>1970-01-01T03:36:48.000Z</time>
      </trkpt>
      <trkpt lat="42.643006" lon="0.647603">
        <ele>3093.3</ele>
        <time>1970-01-01T03:36:49.000Z</time>
      </trkpt>
      <trkpt lat="42.643001" lon="0.647605">
        <ele>3093.3</ele>
        <time>1970-01-01T03:36:50.000Z</time>
      </trkpt>
      <trkpt lat="42.642994" lon="0.647608">
        <ele>3093.3</ele>
        <time>1970-01-01T03:36:51.000Z</time>
      </trkpt>
      <trkpt lat="42.642988" lon="0.64761">
        <ele>3093.3</ele>
        <time>1970-01-01T03:36:52.000Z</time>
      </trkpt>
      <trkpt lat="42.642979" lon="0.647615">
        <ele>3094.7</ele>
        <time>1970-01-01T03:36:54.000Z</time>
      </trkpt>
      <trkpt lat="42.642972" lon="0.64762">
        <ele>3094.7</ele>
        <time>1970-01-01T03:36:56.000Z</time>
      </trkpt>
      <trkpt lat="42.642965" lon="0.647623">
        <ele>3094.7</ele>
        <time>1970-01-01T03:36:57.000Z</time>
      </trkpt>
      <trkpt lat="42.642959" lon="0.647625">
        <ele>3094.7</ele>
        <time>1970-01-01T03:36:58.000Z</time>
      </trkpt>
      <trkpt lat="42.642954" lon="0.647628">
        <ele>3096.1</ele>
        <time>1970-01-01T03:36:59.000Z</time>
      </trkpt>
      <trkpt lat="42.642949" lon="0.64763">
        <ele>3096.1</ele>
        <time>1970-01-01T03:37:00.000Z</time>
      </trkpt>
      <trkpt lat="42.642938" lon="0.647634">
        <ele>3096.1</ele>
        <time>1970-01-01T03:37:02.000Z</time>
      </trkpt>
      <trkpt lat="42.642931" lon="0.647638">
        <ele>3095.5</ele>
        <time>1970-01-01T03:37:03.000Z</time>
      </trkpt>
      <trkpt lat="42.642927" lon="0.647641">
        <ele>3095.5</ele>
        <time>1970-01-01T03:37:04.000Z</time>
      </trkpt>
      <trkpt lat="42.642922" lon="0.647644">
        <ele>3096.7</ele>
        <time>1970-01-01T03:37:05.000Z</time>
      </trkpt>
      <trkpt lat="42.642917" lon="0.647647">
        <ele>3096.7</ele>
        <time>1970-01-01T03:37:06.000Z</time>
      </trkpt>
      <trkpt lat="42.642911" lon="0.64765">
        <ele>3096.7</ele>
        <time>1970-01-01T03:37:07.000Z</time>
      </trkpt>
      <trkpt lat="42.642904" lon="0.647654">
        <ele>3096.7</ele>
        <time>1970-01-01T03:37:09.000Z</time>
      </trkpt>
      <trkpt lat="42.642899" lon="0.647659">
        <ele>3096.8</ele>
        <time>1970-01-01T03:37:10.000Z</time>
      </trkpt>
      <trkpt lat="42.642894" lon="0.647661">
        <ele>3096.9</ele>
        <time>1970-01-01T03:37:11.000Z</time>
      </trkpt>
      <trkpt lat="42.64289" lon="0.647664">
        <ele>3096.9</ele>
        <time>1970-01-01T03:37:12.000Z</time>
      </trkpt>
      <trkpt lat="42.642886" lon="0.647666">
        <ele>3097</ele>
        <time>1970-01-01T03:37:14.000Z</time>
      </trkpt>
      <trkpt lat="42.642882" lon="0.647668">
        <ele>3097</ele>
        <time>1970-01-01T03:37:15.000Z</time>
      </trkpt>
      <trkpt lat="42.642875" lon="0.64767">
        <ele>3097.1</ele>
        <time>1970-01-01T03:37:16.000Z</time>
      </trkpt>
      <trkpt lat="42.642869" lon="0.647672">
        <ele>3097.2</ele>
        <time>1970-01-01T03:37:17.000Z</time>
      </trkpt>
      <trkpt lat="42.642864" lon="0.647674">
        <ele>3097.2</ele>
        <time>1970-01-01T03:37:18.000Z</time>
      </trkpt>
      <trkpt lat="42.642855" lon="0.647679">
        <ele>3097.3</ele>
        <time>1970-01-01T03:37:19.000Z</time>
      </trkpt>
      <trkpt lat="42.642845" lon="0.647685">
        <ele>3097.5</ele>
        <time>1970-01-01T03:37:21.000Z</time>
      </trkpt>
      <trkpt lat="42.642839" lon="0.647691">
        <ele>3097.6</ele>
        <time>1970-01-01T03:37:22.000Z</time>
      </trkpt>
      <trkpt lat="42.642831" lon="0.647697">
        <ele>3097.7</ele>
        <time>1970-01-01T03:37:24.000Z</time>
      </trkpt>
      <trkpt lat="42.642825" lon="0.647701">
        <ele>3097.7</ele>
        <time>1970-01-01T03:37:25.000Z</time>
      </trkpt>
      <trkpt lat="42.64282" lon="0.647705">
        <ele>3097.8</ele>
        <time>1970-01-01T03:37:26.000Z</time>
      </trkpt>
      <trkpt lat="42.642816" lon="0.647708">
        <ele>3097.9</ele>
        <time>1970-01-01T03:37:27.000Z</time>
      </trkpt>
      <trkpt lat="42.642811" lon="0.647713">
        <ele>3097.9</ele>
        <time>1970-01-01T03:37:28.000Z</time>
      </trkpt>
      <trkpt lat="42.642806" lon="0.647718">
        <ele>3098</ele>
        <time>1970-01-01T03:37:29.000Z</time>
      </trkpt>
      <trkpt lat="42.642803" lon="0.647721">
        <ele>3098.1</ele>
        <time>1970-01-01T03:37:30.000Z</time>
      </trkpt>
      <trkpt lat="42.642799" lon="0.647725">
        <ele>3098.1</ele>
        <time>1970-01-01T03:37:31.000Z</time>
      </trkpt>
      <trkpt lat="42.642796" lon="0.647727">
        <ele>3098.2</ele>
        <time>1970-01-01T03:37:32.000Z</time>
      </trkpt>
      <trkpt lat="42.642793" lon="0.64773">
        <ele>3098.2</ele>
        <time>1970-01-01T03:37:33.000Z</time>
      </trkpt>
      <trkpt lat="42.642787" lon="0.647734">
        <ele>3098.3</ele>
        <time>1970-01-01T03:37:34.000Z</time>
      </trkpt>
      <trkpt lat="42.64278" lon="0.647741">
        <ele>3098.4</ele>
        <time>1970-01-01T03:37:36.000Z</time>
      </trkpt>
      <trkpt lat="42.642775" lon="0.647746">
        <ele>3098.5</ele>
        <time>1970-01-01T03:37:37.000Z</time>
      </trkpt>
      <trkpt lat="42.64277" lon="0.647752">
        <ele>3098.6</ele>
        <time>1970-01-01T03:37:38.000Z</time>
      </trkpt>
      <trkpt lat="42.642765" lon="0.647756">
        <ele>3098.6</ele>
        <time>1970-01-01T03:37:39.000Z</time>
      </trkpt>
      <trkpt lat="42.642756" lon="0.647762">
        <ele>3098.7</ele>
        <time>1970-01-01T03:37:41.000Z</time>
      </trkpt>
      <trkpt lat="42.642747" lon="0.647768">
        <ele>3098.9</ele>
        <time>1970-01-01T03:37:42.000Z</time>
      </trkpt>
      <trkpt lat="42.64274" lon="0.647772">
        <ele>3099</ele>
        <time>1970-01-01T03:37:43.000Z</time>
      </trkpt>
      <trkpt lat="42.642733" lon="0.647776">
        <ele>3099</ele>
        <time>1970-01-01T03:37:44.000Z</time>
      </trkpt>
      <trkpt lat="42.642728" lon="0.647779">
        <ele>3099.1</ele>
        <time>1970-01-01T03:37:45.000Z</time>
      </trkpt>
      <trkpt lat="42.642719" lon="0.647782">
        <ele>3099.2</ele>
        <time>1970-01-01T03:37:47.000Z</time>
      </trkpt>
      <trkpt lat="42.64271" lon="0.647785">
        <ele>3099.3</ele>
        <time>1970-01-01T03:37:48.000Z</time>
      </trkpt>
      <trkpt lat="42.642706" lon="0.647787">
        <ele>3099.4</ele>
        <time>1970-01-01T03:37:49.000Z</time>
      </trkpt>
      <trkpt lat="42.642696" lon="0.64779">
        <ele>3099.5</ele>
        <time>1970-01-01T03:37:51.000Z</time>
      </trkpt>
      <trkpt lat="42.642688" lon="0.647792">
        <ele>3099.6</ele>
        <time>1970-01-01T03:37:52.000Z</time>
      </trkpt>
      <trkpt lat="42.642681" lon="0.647793">
        <ele>3099.7</ele>
        <time>1970-01-01T03:37:53.000Z</time>
      </trkpt>
      <trkpt lat="42.642676" lon="0.647793">
        <ele>3099.8</ele>
        <time>1970-01-01T03:37:54.000Z</time>
      </trkpt>
      <trkpt lat="42.642672" lon="0.647794">
        <ele>3099.8</ele>
        <time>1970-01-01T03:37:55.000Z</time>
      </trkpt>
      <trkpt lat="42.642666" lon="0.647796">
        <ele>3099.9</ele>
        <time>1970-01-01T03:37:56.000Z</time>
      </trkpt>
      <trkpt lat="42.642659" lon="0.647798">
        <ele>3100</ele>
        <time>1970-01-01T03:37:57.000Z</time>
      </trkpt>
      <trkpt lat="42.642652" lon="0.647799">
        <ele>3100.1</ele>
        <time>1970-01-01T03:37:58.000Z</time>
      </trkpt>
      <trkpt lat="42.642646" lon="0.647801">
        <ele>3100.1</ele>
        <time>1970-01-01T03:37:59.000Z</time>
      </trkpt>
      <trkpt lat="42.642637" lon="0.647805">
        <ele>3100.2</ele>
        <time>1970-01-01T03:38:01.000Z</time>
      </trkpt>
      <trkpt lat="42.642632" lon="0.647809">
        <ele>3100.3</ele>
        <time>1970-01-01T03:38:02.000Z</time>
      </trkpt>
      <trkpt lat="42.642625" lon="0.647813">
        <ele>3100.4</ele>
        <time>1970-01-01T03:38:03.000Z</time>
      </trkpt>
      <trkpt lat="42.642619" lon="0.647818">
        <ele>3100.5</ele>
        <time>1970-01-01T03:38:04.000Z</time>
      </trkpt>
      <trkpt lat="42.642613" lon="0.647822">
        <ele>3100.6</ele>
        <time>1970-01-01T03:38:05.000Z</time>
      </trkpt>
      <trkpt lat="42.642606" lon="0.647826">
        <ele>3100.7</ele>
        <time>1970-01-01T03:38:06.000Z</time>
      </trkpt>
      <trkpt lat="42.642597" lon="0.647833">
        <ele>3100.8</ele>
        <time>1970-01-01T03:38:08.000Z</time>
      </trkpt>
      <trkpt lat="42.642588" lon="0.64784">
        <ele>3100.9</ele>
        <time>1970-01-01T03:38:09.000Z</time>
      </trkpt>
      <trkpt lat="42.642582" lon="0.647846">
        <ele>3101</ele>
        <time>1970-01-01T03:38:10.000Z</time>
      </trkpt>
      <trkpt lat="42.642576" lon="0.647852">
        <ele>3101.1</ele>
        <time>1970-01-01T03:38:11.000Z</time>
      </trkpt>
      <trkpt lat="42.642569" lon="0.647859">
        <ele>3101.2</ele>
        <time>1970-01-01T03:38:13.000Z</time>
      </trkpt>
      <trkpt lat="42.642558" lon="0.647866">
        <ele>3101.3</ele>
        <time>1970-01-01T03:38:14.000Z</time>
      </trkpt>
      <trkpt lat="42.642552" lon="0.647869">
        <ele>3101.4</ele>
        <time>1970-01-01T03:38:15.000Z</time>
      </trkpt>
      <trkpt lat="42.642545" lon="0.647873">
        <ele>3101.5</ele>
        <time>1970-01-01T03:38:16.000Z</time>
      </trkpt>
      <trkpt lat="42.642538" lon="0.647876">
        <ele>3101.6</ele>
        <time>1970-01-01T03:38:18.000Z</time>
      </trkpt>
      <trkpt lat="42.642532" lon="0.647879">
        <ele>3101.7</ele>
        <time>1970-01-01T03:38:19.000Z</time>
      </trkpt>
      <trkpt lat="42.642525" lon="0.647882">
        <ele>3101.8</ele>
        <time>1970-01-01T03:38:20.000Z</time>
      </trkpt>
      <trkpt lat="42.642519" lon="0.647887">
        <ele>3101.9</ele>
        <time>1970-01-01T03:38:22.000Z</time>
      </trkpt>
      <trkpt lat="42.642515" lon="0.647891">
        <ele>3101.9</ele>
        <time>1970-01-01T03:38:23.000Z</time>
      </trkpt>
      <trkpt lat="42.642509" lon="0.647894">
        <ele>3102</ele>
        <time>1970-01-01T03:38:24.000Z</time>
      </trkpt>
      <trkpt lat="42.642504" lon="0.647896">
        <ele>3102.1</ele>
        <time>1970-01-01T03:38:25.000Z</time>
      </trkpt>
      <trkpt lat="42.642501" lon="0.647898">
        <ele>3102.1</ele>
        <time>1970-01-01T03:38:26.000Z</time>
      </trkpt>
      <trkpt lat="42.642497" lon="0.647901">
        <ele>3102.2</ele>
        <time>1970-01-01T03:38:27.000Z</time>
      </trkpt>
      <trkpt lat="42.64249" lon="0.647908">
        <ele>3102.3</ele>
        <time>1970-01-01T03:38:29.000Z</time>
      </trkpt>
      <trkpt lat="42.642483" lon="0.647916">
        <ele>3102.4</ele>
        <time>1970-01-01T03:38:30.000Z</time>
      </trkpt>
      <trkpt lat="42.642479" lon="0.64792">
        <ele>3102.5</ele>
        <time>1970-01-01T03:38:31.000Z</time>
      </trkpt>
      <trkpt lat="42.642474" lon="0.647924">
        <ele>3102.6</ele>
        <time>1970-01-01T03:38:32.000Z</time>
      </trkpt>
      <trkpt lat="42.642466" lon="0.64793">
        <ele>3102.7</ele>
        <time>1970-01-01T03:38:34.000Z</time>
      </trkpt>
      <trkpt lat="42.642458" lon="0.647937">
        <ele>3102.8</ele>
        <time>1970-01-01T03:38:36.000Z</time>
      </trkpt>
      <trkpt lat="42.642453" lon="0.64794">
        <ele>3102.9</ele>
        <time>1970-01-01T03:38:37.000Z</time>
      </trkpt>
      <trkpt lat="42.642449" lon="0.647943">
        <ele>3103</ele>
        <time>1970-01-01T03:38:38.000Z</time>
      </trkpt>
      <trkpt lat="42.642447" lon="0.647946">
        <ele>3103</ele>
        <time>1970-01-01T03:38:39.000Z</time>
      </trkpt>
      <trkpt lat="42.642442" lon="0.647953">
        <ele>3103.1</ele>
        <time>1970-01-01T03:38:40.000Z</time>
      </trkpt>
      <trkpt lat="42.642434" lon="0.647961">
        <ele>3103.3</ele>
        <time>1970-01-01T03:38:42.000Z</time>
      </trkpt>
      <trkpt lat="42.642428" lon="0.647967">
        <ele>3103.4</ele>
        <time>1970-01-01T03:38:43.000Z</time>
      </trkpt>
      <trkpt lat="42.642423" lon="0.647971">
        <ele>3103.4</ele>
        <time>1970-01-01T03:38:44.000Z</time>
      </trkpt>
      <trkpt lat="42.642418" lon="0.647976">
        <ele>3103.5</ele>
        <time>1970-01-01T03:38:46.000Z</time>
      </trkpt>
      <trkpt lat="42.642412" lon="0.647981">
        <ele>3103.6</ele>
        <time>1970-01-01T03:38:47.000Z</time>
      </trkpt>
      <trkpt lat="42.642408" lon="0.647985">
        <ele>3103.7</ele>
        <time>1970-01-01T03:38:48.000Z</time>
      </trkpt>
      <trkpt lat="42.642403" lon="0.647988">
        <ele>3103.8</ele>
        <time>1970-01-01T03:38:49.000Z</time>
      </trkpt>
      <trkpt lat="42.642399" lon="0.647989">
        <ele>3103.8</ele>
        <time>1970-01-01T03:38:50.000Z</time>
      </trkpt>
      <trkpt lat="42.642395" lon="0.647992">
        <ele>3103.9</ele>
        <time>1970-01-01T03:38:52.000Z</time>
      </trkpt>
      <trkpt lat="42.642392" lon="0.647994">
        <ele>3103.9</ele>
        <time>1970-01-01T03:38:53.000Z</time>
      </trkpt>
      <trkpt lat="42.642388" lon="0.647996">
        <ele>3104</ele>
        <time>1970-01-01T03:38:54.000Z</time>
      </trkpt>
      <trkpt lat="42.642384" lon="0.647998">
        <ele>3104.1</ele>
        <time>1970-01-01T03:38:55.000Z</time>
      </trkpt>
      <trkpt lat="42.64238" lon="0.648002">
        <ele>3104.1</ele>
        <time>1970-01-01T03:38:56.000Z</time>
      </trkpt>
      <trkpt lat="42.642378" lon="0.648005">
        <ele>3104.2</ele>
        <time>1970-01-01T03:38:57.000Z</time>
      </trkpt>
      <trkpt lat="42.642374" lon="0.648009">
        <ele>3104.2</ele>
        <time>1970-01-01T03:38:58.000Z</time>
      </trkpt>
      <trkpt lat="42.64237" lon="0.648011">
        <ele>3104.3</ele>
        <time>1970-01-01T03:38:59.000Z</time>
      </trkpt>
      <trkpt lat="42.642366" lon="0.648014">
        <ele>3104.4</ele>
        <time>1970-01-01T03:39:00.000Z</time>
      </trkpt>
      <trkpt lat="42.642361" lon="0.648018">
        <ele>3104.4</ele>
        <time>1970-01-01T03:39:01.000Z</time>
      </trkpt>
      <trkpt lat="42.642356" lon="0.64802">
        <ele>3104.5</ele>
        <time>1970-01-01T03:39:02.000Z</time>
      </trkpt>
      <trkpt lat="42.642348" lon="0.648024">
        <ele>3104.6</ele>
        <time>1970-01-01T03:39:04.000Z</time>
      </trkpt>
      <trkpt lat="42.642345" lon="0.648026">
        <ele>3104.7</ele>
        <time>1970-01-01T03:39:05.000Z</time>
      </trkpt>
      <trkpt lat="42.64234" lon="0.648025">
        <ele>3104.8</ele>
        <time>1970-01-01T03:39:06.000Z</time>
      </trkpt>
      <trkpt lat="42.642329" lon="0.648024">
        <ele>3104.9</ele>
        <time>1970-01-01T03:39:08.000Z</time>
      </trkpt>
      <trkpt lat="42.642323" lon="0.648021">
        <ele>3105</ele>
        <time>1970-01-01T03:39:09.000Z</time>
      </trkpt>
      <trkpt lat="42.642318" lon="0.648019">
        <ele>3105.1</ele>
        <time>1970-01-01T03:39:10.000Z</time>
      </trkpt>
      <trkpt lat="42.642311" lon="0.648017">
        <ele>3105.2</ele>
        <time>1970-01-01T03:39:11.000Z</time>
      </trkpt>
      <trkpt lat="42.642298" lon="0.648016">
        <ele>3105.4</ele>
        <time>1970-01-01T03:39:13.000Z</time>
      </trkpt>
      <trkpt lat="42.642292" lon="0.648017">
        <ele>3105.4</ele>
        <time>1970-01-01T03:39:14.000Z</time>
      </trkpt>
      <trkpt lat="42.642286" lon="0.648019">
        <ele>3105.5</ele>
        <time>1970-01-01T03:39:15.000Z</time>
      </trkpt>
      <trkpt lat="42.642279" lon="0.648023">
        <ele>3105.6</ele>
        <time>1970-01-01T03:39:16.000Z</time>
      </trkpt>
      <trkpt lat="42.642272" lon="0.648027">
        <ele>3105.7</ele>
        <time>1970-01-01T03:39:17.000Z</time>
      </trkpt>
      <trkpt lat="42.642265" lon="0.648032">
        <ele>3105.8</ele>
        <time>1970-01-01T03:39:18.000Z</time>
      </trkpt>
      <trkpt lat="42.642258" lon="0.648036">
        <ele>3106</ele>
        <time>1970-01-01T03:39:20.000Z</time>
      </trkpt>
      <trkpt lat="42.642249" lon="0.64804">
        <ele>3106.1</ele>
        <time>1970-01-01T03:39:21.000Z</time>
      </trkpt>
      <trkpt lat="42.642243" lon="0.648047">
        <ele>3106.2</ele>
        <time>1970-01-01T03:39:22.000Z</time>
      </trkpt>
      <trkpt lat="42.642236" lon="0.648053">
        <ele>3106.3</ele>
        <time>1970-01-01T03:39:24.000Z</time>
      </trkpt>
      <trkpt lat="42.642232" lon="0.648057">
        <ele>3106.4</ele>
        <time>1970-01-01T03:39:25.000Z</time>
      </trkpt>
      <trkpt lat="42.642228" lon="0.648059">
        <ele>3106.4</ele>
        <time>1970-01-01T03:39:26.000Z</time>
      </trkpt>
      <trkpt lat="42.642224" lon="0.648062">
        <ele>3106.5</ele>
        <time>1970-01-01T03:39:27.000Z</time>
      </trkpt>
      <trkpt lat="42.642216" lon="0.648069">
        <ele>3106.6</ele>
        <time>1970-01-01T03:39:28.000Z</time>
      </trkpt>
      <trkpt lat="42.642207" lon="0.648075">
        <ele>3106.8</ele>
        <time>1970-01-01T03:39:30.000Z</time>
      </trkpt>
      <trkpt lat="42.642199" lon="0.64808">
        <ele>3106.9</ele>
        <time>1970-01-01T03:39:32.000Z</time>
      </trkpt>
      <trkpt lat="42.642193" lon="0.648085">
        <ele>3107</ele>
        <time>1970-01-01T03:39:34.000Z</time>
      </trkpt>
      <trkpt lat="42.642189" lon="0.648086">
        <ele>3107</ele>
        <time>1970-01-01T03:39:35.000Z</time>
      </trkpt>
      <trkpt lat="42.642185" lon="0.648089">
        <ele>3107.1</ele>
        <time>1970-01-01T03:39:36.000Z</time>
      </trkpt>
      <trkpt lat="42.642177" lon="0.648093">
        <ele>3107.2</ele>
        <time>1970-01-01T03:39:37.000Z</time>
      </trkpt>
      <trkpt lat="42.642167" lon="0.648098">
        <ele>3107.4</ele>
        <time>1970-01-01T03:39:39.000Z</time>
      </trkpt>
      <trkpt lat="42.642161" lon="0.648101">
        <ele>3107.4</ele>
        <time>1970-01-01T03:39:40.000Z</time>
      </trkpt>
      <trkpt lat="42.642153" lon="0.648106">
        <ele>3107.5</ele>
        <time>1970-01-01T03:39:42.000Z</time>
      </trkpt>
      <trkpt lat="42.642148" lon="0.648109">
        <ele>3107.6</ele>
        <time>1970-01-01T03:39:43.000Z</time>
      </trkpt>
      <trkpt lat="42.642144" lon="0.648112">
        <ele>3107.7</ele>
        <time>1970-01-01T03:39:44.000Z</time>
      </trkpt>
      <trkpt lat="42.642136" lon="0.648118">
        <ele>3107.8</ele>
        <time>1970-01-01T03:39:45.000Z</time>
      </trkpt>
      <trkpt lat="42.642127" lon="0.648124">
        <ele>3107.9</ele>
        <time>1970-01-01T03:39:47.000Z</time>
      </trkpt>
      <trkpt lat="42.642121" lon="0.648129">
        <ele>3108</ele>
        <time>1970-01-01T03:39:48.000Z</time>
      </trkpt>
      <trkpt lat="42.642115" lon="0.648135">
        <ele>3108.1</ele>
        <time>1970-01-01T03:39:49.000Z</time>
      </trkpt>
      <trkpt lat="42.642106" lon="0.64814">
        <ele>3108.2</ele>
        <time>1970-01-01T03:39:51.000Z</time>
      </trkpt>
      <trkpt lat="42.6421" lon="0.648145">
        <ele>3108.3</ele>
        <time>1970-01-01T03:39:52.000Z</time>
      </trkpt>
      <trkpt lat="42.642094" lon="0.648151">
        <ele>3108.4</ele>
        <time>1970-01-01T03:39:53.000Z</time>
      </trkpt>
      <trkpt lat="42.642086" lon="0.648159">
        <ele>3108.5</ele>
        <time>1970-01-01T03:39:55.000Z</time>
      </trkpt>
      <trkpt lat="42.64208" lon="0.648165">
        <ele>3108.6</ele>
        <time>1970-01-01T03:39:56.000Z</time>
      </trkpt>
      <trkpt lat="42.642076" lon="0.648169">
        <ele>3108.7</ele>
        <time>1970-01-01T03:39:57.000Z</time>
      </trkpt>
      <trkpt lat="42.642069" lon="0.648177">
        <ele>3108.8</ele>
        <time>1970-01-01T03:39:58.000Z</time>
      </trkpt>
      <trkpt lat="42.642053" lon="0.648186">
        <ele>3109</ele>
        <time>1970-01-01T03:40:00.000Z</time>
      </trkpt>
      <trkpt lat="42.642047" lon="0.648189">
        <ele>3109.1</ele>
        <time>1970-01-01T03:40:01.000Z</time>
      </trkpt>
      <trkpt lat="42.64204" lon="0.648192">
        <ele>3109.2</ele>
        <time>1970-01-01T03:40:03.000Z</time>
      </trkpt>
      <trkpt lat="42.642034" lon="0.648195">
        <ele>3109.3</ele>
        <time>1970-01-01T03:40:04.000Z</time>
      </trkpt>
      <trkpt lat="42.642028" lon="0.648199">
        <ele>3109.3</ele>
        <time>1970-01-01T03:40:05.000Z</time>
      </trkpt>
      <trkpt lat="42.642022" lon="0.648202">
        <ele>3109.4</ele>
        <time>1970-01-01T03:40:06.000Z</time>
      </trkpt>
      <trkpt lat="42.642016" lon="0.648205">
        <ele>3109.5</ele>
        <time>1970-01-01T03:40:08.000Z</time>
      </trkpt>
      <trkpt lat="42.64201" lon="0.648209">
        <ele>3109.6</ele>
        <time>1970-01-01T03:40:09.000Z</time>
      </trkpt>
      <trkpt lat="42.642003" lon="0.648212">
        <ele>3109.7</ele>
        <time>1970-01-01T03:40:10.000Z</time>
      </trkpt>
      <trkpt lat="42.641998" lon="0.648216">
        <ele>3109.8</ele>
        <time>1970-01-01T03:40:11.000Z</time>
      </trkpt>
      <trkpt lat="42.64199" lon="0.648221">
        <ele>3109.9</ele>
        <time>1970-01-01T03:40:12.000Z</time>
      </trkpt>
      <trkpt lat="42.641984" lon="0.648225">
        <ele>3110</ele>
        <time>1970-01-01T03:40:13.000Z</time>
      </trkpt>
      <trkpt lat="42.641977" lon="0.648231">
        <ele>3110.1</ele>
        <time>1970-01-01T03:40:14.000Z</time>
      </trkpt>
      <trkpt lat="42.641967" lon="0.648242">
        <ele>3110.2</ele>
        <time>1970-01-01T03:40:16.000Z</time>
      </trkpt>
      <trkpt lat="42.641958" lon="0.648256">
        <ele>3110.4</ele>
        <time>1970-01-01T03:40:18.000Z</time>
      </trkpt>
      <trkpt lat="42.641949" lon="0.648268">
        <ele>3110.5</ele>
        <time>1970-01-01T03:40:19.000Z</time>
      </trkpt>
      <trkpt lat="42.641939" lon="0.64828">
        <ele>3110.7</ele>
        <time>1970-01-01T03:40:21.000Z</time>
      </trkpt>
      <trkpt lat="42.641931" lon="0.648287">
        <ele>3110.8</ele>
        <time>1970-01-01T03:40:22.000Z</time>
      </trkpt>
      <trkpt lat="42.641924" lon="0.648292">
        <ele>3110.9</ele>
        <time>1970-01-01T03:40:23.000Z</time>
      </trkpt>
      <trkpt lat="42.641917" lon="0.648296">
        <ele>3111</ele>
        <time>1970-01-01T03:40:25.000Z</time>
      </trkpt>
      <trkpt lat="42.641909" lon="0.6483">
        <ele>3111.1</ele>
        <time>1970-01-01T03:40:26.000Z</time>
      </trkpt>
      <trkpt lat="42.641904" lon="0.648303">
        <ele>3111.2</ele>
        <time>1970-01-01T03:40:27.000Z</time>
      </trkpt>
      <trkpt lat="42.641898" lon="0.648306">
        <ele>3111.3</ele>
        <time>1970-01-01T03:40:28.000Z</time>
      </trkpt>
      <trkpt lat="42.641894" lon="0.648308">
        <ele>3111.3</ele>
        <time>1970-01-01T03:40:29.000Z</time>
      </trkpt>
      <trkpt lat="42.641889" lon="0.648312">
        <ele>3111.4</ele>
        <time>1970-01-01T03:40:30.000Z</time>
      </trkpt>
      <trkpt lat="42.641879" lon="0.648317">
        <ele>3111.5</ele>
        <time>1970-01-01T03:40:32.000Z</time>
      </trkpt>
      <trkpt lat="42.641872" lon="0.64832">
        <ele>3111.6</ele>
        <time>1970-01-01T03:40:33.000Z</time>
      </trkpt>
      <trkpt lat="42.641859" lon="0.648324">
        <ele>3111.8</ele>
        <time>1970-01-01T03:40:35.000Z</time>
      </trkpt>
      <trkpt lat="42.641849" lon="0.648328">
        <ele>3111.9</ele>
        <time>1970-01-01T03:40:36.000Z</time>
      </trkpt>
      <trkpt lat="42.641844" lon="0.648331">
        <ele>3112</ele>
        <time>1970-01-01T03:40:37.000Z</time>
      </trkpt>
      <trkpt lat="42.641838" lon="0.648336">
        <ele>3112.1</ele>
        <time>1970-01-01T03:40:38.000Z</time>
      </trkpt>
      <trkpt lat="42.641832" lon="0.648341">
        <ele>3112.2</ele>
        <time>1970-01-01T03:40:39.000Z</time>
      </trkpt>
      <trkpt lat="42.641825" lon="0.648346">
        <ele>3112.3</ele>
        <time>1970-01-01T03:40:40.000Z</time>
      </trkpt>
      <trkpt lat="42.641817" lon="0.648356">
        <ele>3112.4</ele>
        <time>1970-01-01T03:40:42.000Z</time>
      </trkpt>
      <trkpt lat="42.641812" lon="0.64836">
        <ele>3112.5</ele>
        <time>1970-01-01T03:40:43.000Z</time>
      </trkpt>
      <trkpt lat="42.641806" lon="0.648364">
        <ele>3112.6</ele>
        <time>1970-01-01T03:40:44.000Z</time>
      </trkpt>
      <trkpt lat="42.6418" lon="0.648366">
        <ele>3112.6</ele>
        <time>1970-01-01T03:40:45.000Z</time>
      </trkpt>
      <trkpt lat="42.641796" lon="0.648368">
        <ele>3112.7</ele>
        <time>1970-01-01T03:40:46.000Z</time>
      </trkpt>
      <trkpt lat="42.641791" lon="0.64837">
        <ele>3112.8</ele>
        <time>1970-01-01T03:40:47.000Z</time>
      </trkpt>
      <trkpt lat="42.641786" lon="0.648373">
        <ele>3112.8</ele>
        <time>1970-01-01T03:40:48.000Z</time>
      </trkpt>
      <trkpt lat="42.641782" lon="0.648374">
        <ele>3112.9</ele>
        <time>1970-01-01T03:40:49.000Z</time>
      </trkpt>
      <trkpt lat="42.641777" lon="0.648377">
        <ele>3113</ele>
        <time>1970-01-01T03:40:50.000Z</time>
      </trkpt>
      <trkpt lat="42.641772" lon="0.64838">
        <ele>3113</ele>
        <time>1970-01-01T03:40:51.000Z</time>
      </trkpt>
      <trkpt lat="42.641767" lon="0.648382">
        <ele>3113.1</ele>
        <time>1970-01-01T03:40:52.000Z</time>
      </trkpt>
      <trkpt lat="42.641763" lon="0.648383">
        <ele>3113.2</ele>
        <time>1970-01-01T03:40:53.000Z</time>
      </trkpt>
      <trkpt lat="42.64176" lon="0.648383">
        <ele>3113.2</ele>
        <time>1970-01-01T03:40:54.000Z</time>
      </trkpt>
      <trkpt lat="42.641758" lon="0.648383">
        <ele>3113.2</ele>
        <time>1970-01-01T03:40:55.000Z</time>
      </trkpt>
      <trkpt lat="42.641755" lon="0.648384">
        <ele>3113.3</ele>
        <time>1970-01-01T03:40:56.000Z</time>
      </trkpt>
      <trkpt lat="42.641751" lon="0.648385">
        <ele>3113.3</ele>
        <time>1970-01-01T03:40:57.000Z</time>
      </trkpt>
      <trkpt lat="42.641748" lon="0.648387">
        <ele>3113.4</ele>
        <time>1970-01-01T03:40:58.000Z</time>
      </trkpt>
      <trkpt lat="42.641745" lon="0.64839">
        <ele>3113.4</ele>
        <time>1970-01-01T03:40:59.000Z</time>
      </trkpt>
      <trkpt lat="42.641737" lon="0.648395">
        <ele>3113.5</ele>
        <time>1970-01-01T03:41:01.000Z</time>
      </trkpt>
      <trkpt lat="42.641731" lon="0.648397">
        <ele>3113.6</ele>
        <time>1970-01-01T03:41:02.000Z</time>
      </trkpt>
      <trkpt lat="42.641724" lon="0.648399">
        <ele>3113.7</ele>
        <time>1970-01-01T03:41:04.000Z</time>
      </trkpt>
      <trkpt lat="42.641715" lon="0.648402">
        <ele>3113.9</ele>
        <time>1970-01-01T03:41:05.000Z</time>
      </trkpt>
      <trkpt lat="42.641708" lon="0.648405">
        <ele>3114</ele>
        <time>1970-01-01T03:41:06.000Z</time>
      </trkpt>
      <trkpt lat="42.641703" lon="0.648407">
        <ele>3114</ele>
        <time>1970-01-01T03:41:07.000Z</time>
      </trkpt>
      <trkpt lat="42.641694" lon="0.648412">
        <ele>3114.2</ele>
        <time>1970-01-01T03:41:09.000Z</time>
      </trkpt>
      <trkpt lat="42.641685" lon="0.648415">
        <ele>3114.3</ele>
        <time>1970-01-01T03:41:10.000Z</time>
      </trkpt>
      <trkpt lat="42.641679" lon="0.648417">
        <ele>3114.4</ele>
        <time>1970-01-01T03:41:12.000Z</time>
      </trkpt>
      <trkpt lat="42.641677" lon="0.648417">
        <ele>3114.4</ele>
        <time>1970-01-01T03:41:13.000Z</time>
      </trkpt>
      <trkpt lat="42.641674" lon="0.648418">
        <ele>3114.5</ele>
        <time>1970-01-01T03:41:14.000Z</time>
      </trkpt>
      <trkpt lat="42.641672" lon="0.648417">
        <ele>3114.5</ele>
        <time>1970-01-01T03:41:15.000Z</time>
      </trkpt>
      <trkpt lat="42.64167" lon="0.648417">
        <ele>3114.5</ele>
        <time>1970-01-01T03:41:16.000Z</time>
      </trkpt>
      <trkpt lat="42.641667" lon="0.648417">
        <ele>3114.6</ele>
        <time>1970-01-01T03:41:17.000Z</time>
      </trkpt>
      <trkpt lat="42.641664" lon="0.648418">
        <ele>3114.6</ele>
        <time>1970-01-01T03:41:18.000Z</time>
      </trkpt>
      <trkpt lat="42.641661" lon="0.648419">
        <ele>3114.7</ele>
        <time>1970-01-01T03:41:19.000Z</time>
      </trkpt>
      <trkpt lat="42.641659" lon="0.648419">
        <ele>3114.7</ele>
        <time>1970-01-01T03:41:20.000Z</time>
      </trkpt>
      <trkpt lat="42.641656" lon="0.64842">
        <ele>3114.7</ele>
        <time>1970-01-01T03:41:21.000Z</time>
      </trkpt>
      <trkpt lat="42.64165" lon="0.64842">
        <ele>3114.8</ele>
        <time>1970-01-01T03:41:23.000Z</time>
      </trkpt>
      <trkpt lat="42.641643" lon="0.648419">
        <ele>3114.9</ele>
        <time>1970-01-01T03:41:24.000Z</time>
      </trkpt>
      <trkpt lat="42.641639" lon="0.648417">
        <ele>3115</ele>
        <time>1970-01-01T03:41:25.000Z</time>
      </trkpt>
      <trkpt lat="42.641634" lon="0.648416">
        <ele>3115.1</ele>
        <time>1970-01-01T03:41:26.000Z</time>
      </trkpt>
      <trkpt lat="42.641629" lon="0.648415">
        <ele>3115.1</ele>
        <time>1970-01-01T03:41:27.000Z</time>
      </trkpt>
      <trkpt lat="42.641623" lon="0.648415">
        <ele>3115.2</ele>
        <time>1970-01-01T03:41:28.000Z</time>
      </trkpt>
      <trkpt lat="42.641616" lon="0.648418">
        <ele>3115.3</ele>
        <time>1970-01-01T03:41:30.000Z</time>
      </trkpt>
      <trkpt lat="42.641609" lon="0.648421">
        <ele>3115.4</ele>
        <time>1970-01-01T03:41:31.000Z</time>
      </trkpt>
      <trkpt lat="42.641603" lon="0.648425">
        <ele>3115.5</ele>
        <time>1970-01-01T03:41:32.000Z</time>
      </trkpt>
      <trkpt lat="42.641593" lon="0.648431">
        <ele>3115.7</ele>
        <time>1970-01-01T03:41:33.000Z</time>
      </trkpt>
      <trkpt lat="42.641574" lon="0.648444">
        <ele>3116</ele>
        <time>1970-01-01T03:41:35.000Z</time>
      </trkpt>
      <trkpt lat="42.641561" lon="0.64845">
        <ele>3116.2</ele>
        <time>1970-01-01T03:41:36.000Z</time>
      </trkpt>
      <trkpt lat="42.64155" lon="0.648451">
        <ele>3116.3</ele>
        <time>1970-01-01T03:41:37.000Z</time>
      </trkpt>
      <trkpt lat="42.641541" lon="0.648452">
        <ele>3116.4</ele>
        <time>1970-01-01T03:41:38.000Z</time>
      </trkpt>
      <trkpt lat="42.641531" lon="0.648457">
        <ele>3116.6</ele>
        <time>1970-01-01T03:41:39.000Z</time>
      </trkpt>
      <trkpt lat="42.641519" lon="0.648464">
        <ele>3116.7</ele>
        <time>1970-01-01T03:41:41.000Z</time>
      </trkpt>
      <trkpt lat="42.641512" lon="0.648468">
        <ele>3116.8</ele>
        <time>1970-01-01T03:41:42.000Z</time>
      </trkpt>
      <trkpt lat="42.641506" lon="0.648472">
        <ele>3116.9</ele>
        <time>1970-01-01T03:41:43.000Z</time>
      </trkpt>
      <trkpt lat="42.641499" lon="0.648477">
        <ele>3117</ele>
        <time>1970-01-01T03:41:45.000Z</time>
      </trkpt>
      <trkpt lat="42.641491" lon="0.648485">
        <ele>3117.2</ele>
        <time>1970-01-01T03:41:46.000Z</time>
      </trkpt>
      <trkpt lat="42.641487" lon="0.64849">
        <ele>3117.2</ele>
        <time>1970-01-01T03:41:47.000Z</time>
      </trkpt>
      <trkpt lat="42.641483" lon="0.648495">
        <ele>3117.3</ele>
        <time>1970-01-01T03:41:48.000Z</time>
      </trkpt>
      <trkpt lat="42.641479" lon="0.648502">
        <ele>3117.4</ele>
        <time>1970-01-01T03:41:49.000Z</time>
      </trkpt>
      <trkpt lat="42.641474" lon="0.648509">
        <ele>3117.5</ele>
        <time>1970-01-01T03:41:50.000Z</time>
      </trkpt>
      <trkpt lat="42.641471" lon="0.648517">
        <ele>3117.6</ele>
        <time>1970-01-01T03:41:51.000Z</time>
      </trkpt>
      <trkpt lat="42.64147" lon="0.648524">
        <ele>3117.6</ele>
        <time>1970-01-01T03:41:52.000Z</time>
      </trkpt>
      <trkpt lat="42.641466" lon="0.648534">
        <ele>3117.7</ele>
        <time>1970-01-01T03:41:54.000Z</time>
      </trkpt>
      <trkpt lat="42.641465" lon="0.648539">
        <ele>3117.8</ele>
        <time>1970-01-01T03:41:55.000Z</time>
      </trkpt>
      <trkpt lat="42.641462" lon="0.648545">
        <ele>3117.9</ele>
        <time>1970-01-01T03:41:56.000Z</time>
      </trkpt>
      <trkpt lat="42.641462" lon="0.648548">
        <ele>3117.9</ele>
        <time>1970-01-01T03:41:57.000Z</time>
      </trkpt>
      <trkpt lat="42.641464" lon="0.648546">
        <ele>3117.9</ele>
        <time>1970-01-01T03:41:58.000Z</time>
      </trkpt>
      <trkpt lat="42.641464" lon="0.648548">
        <ele>3117.9</ele>
        <time>1970-01-01T03:41:59.000Z</time>
      </trkpt>
      <trkpt lat="42.641462" lon="0.648552">
        <ele>3118</ele>
        <time>1970-01-01T03:42:00.000Z</time>
      </trkpt>
      <trkpt lat="42.64146" lon="0.648557">
        <ele>3118.1</ele>
        <time>1970-01-01T03:42:01.000Z</time>
      </trkpt>
      <trkpt lat="42.641458" lon="0.64856">
        <ele>3118.1</ele>
        <time>1970-01-01T03:42:02.000Z</time>
      </trkpt>
      <trkpt lat="42.641456" lon="0.648563">
        <ele>3118.1</ele>
        <time>1970-01-01T03:42:03.000Z</time>
      </trkpt>
      <trkpt lat="42.641455" lon="0.648567">
        <ele>3118.2</ele>
        <time>1970-01-01T03:42:04.000Z</time>
      </trkpt>
      <trkpt lat="42.64145" lon="0.648578">
        <ele>3118.3</ele>
        <time>1970-01-01T03:42:06.000Z</time>
      </trkpt>
      <trkpt lat="42.641447" lon="0.648582">
        <ele>3118.4</ele>
        <time>1970-01-01T03:42:07.000Z</time>
      </trkpt>
      <trkpt lat="42.641442" lon="0.648588">
        <ele>3118.4</ele>
        <time>1970-01-01T03:42:08.000Z</time>
      </trkpt>
      <trkpt lat="42.641439" lon="0.64859">
        <ele>3118.5</ele>
        <time>1970-01-01T03:42:09.000Z</time>
      </trkpt>
      <trkpt lat="42.641434" lon="0.648589">
        <ele>3118.6</ele>
        <time>1970-01-01T03:42:10.000Z</time>
      </trkpt>
      <trkpt lat="42.641433" lon="0.648585">
        <ele>3118.6</ele>
        <time>1970-01-01T03:42:11.000Z</time>
      </trkpt>
      <trkpt lat="42.641432" lon="0.648582">
        <ele>3118.6</ele>
        <time>1970-01-01T03:42:12.000Z</time>
      </trkpt>
      <trkpt lat="42.641429" lon="0.648579">
        <ele>3118.7</ele>
        <time>1970-01-01T03:42:13.000Z</time>
      </trkpt>
      <trkpt lat="42.641425" lon="0.648573">
        <ele>3118.8</ele>
        <time>1970-01-01T03:42:14.000Z</time>
      </trkpt>
      <trkpt lat="42.641421" lon="0.648567">
        <ele>3118.8</ele>
        <time>1970-01-01T03:42:15.000Z</time>
      </trkpt>
      <trkpt lat="42.641413" lon="0.648551">
        <ele>3119</ele>
        <time>1970-01-01T03:42:17.000Z</time>
      </trkpt>
      <trkpt lat="42.641409" lon="0.648543">
        <ele>3119.1</ele>
        <time>1970-01-01T03:42:18.000Z</time>
      </trkpt>
      <trkpt lat="42.641404" lon="0.648536">
        <ele>3119.2</ele>
        <time>1970-01-01T03:42:20.000Z</time>
      </trkpt>
      <trkpt lat="42.6414" lon="0.648531">
        <ele>3119.3</ele>
        <time>1970-01-01T03:42:21.000Z</time>
      </trkpt>
      <trkpt lat="42.641396" lon="0.648524">
        <ele>3119.4</ele>
        <time>1970-01-01T03:42:22.000Z</time>
      </trkpt>
      <trkpt lat="42.641394" lon="0.648521">
        <ele>3119.5</ele>
        <time>1970-01-01T03:42:23.000Z</time>
      </trkpt>
      <trkpt lat="42.641393" lon="0.64852">
        <ele>3119.5</ele>
        <time>1970-01-01T03:42:24.000Z</time>
      </trkpt>
      <trkpt lat="42.641391" lon="0.648516">
        <ele>3119.5</ele>
        <time>1970-01-01T03:42:25.000Z</time>
      </trkpt>
      <trkpt lat="42.641389" lon="0.648513">
        <ele>3119.6</ele>
        <time>1970-01-01T03:42:26.000Z</time>
      </trkpt>
      <trkpt lat="42.641387" lon="0.648509">
        <ele>3119.6</ele>
        <time>1970-01-01T03:42:27.000Z</time>
      </trkpt>
      <trkpt lat="42.641386" lon="0.648506">
        <ele>3119.6</ele>
        <time>1970-01-01T03:42:28.000Z</time>
      </trkpt>
      <trkpt lat="42.641385" lon="0.648504">
        <ele>3119.7</ele>
        <time>1970-01-01T03:42:29.000Z</time>
      </trkpt>
      <trkpt lat="42.641385" lon="0.648502">
        <ele>3119.7</ele>
        <time>1970-01-01T03:42:30.000Z</time>
      </trkpt>
      <trkpt lat="42.641385" lon="0.648499">
        <ele>3119.7</ele>
        <time>1970-01-01T03:42:31.000Z</time>
      </trkpt>
      <trkpt lat="42.641383" lon="0.648497">
        <ele>3119.8</ele>
        <time>1970-01-01T03:42:32.000Z</time>
      </trkpt>
      <trkpt lat="42.641381" lon="0.648492">
        <ele>3119.8</ele>
        <time>1970-01-01T03:42:33.000Z</time>
      </trkpt>
      <trkpt lat="42.641377" lon="0.648489">
        <ele>3119.9</ele>
        <time>1970-01-01T03:42:34.000Z</time>
      </trkpt>
      <trkpt lat="42.641371" lon="0.648486">
        <ele>3120</ele>
        <time>1970-01-01T03:42:36.000Z</time>
      </trkpt>
      <trkpt lat="42.641369" lon="0.648484">
        <ele>3120</ele>
        <time>1970-01-01T03:42:37.000Z</time>
      </trkpt>
      <trkpt lat="42.641367" lon="0.648481">
        <ele>3120</ele>
        <time>1970-01-01T03:42:38.000Z</time>
      </trkpt>
      <trkpt lat="42.641366" lon="0.648481">
        <ele>3120.1</ele>
        <time>1970-01-01T03:42:39.000Z</time>
      </trkpt>
      <trkpt lat="42.641366" lon="0.64848">
        <ele>3120.1</ele>
        <time>1970-01-01T03:42:40.000Z</time>
      </trkpt>
      <trkpt lat="42.641367" lon="0.648474">
        <ele>3120.1</ele>
        <time>1970-01-01T03:42:42.000Z</time>
      </trkpt>
      <trkpt lat="42.641367" lon="0.648468">
        <ele>3120.2</ele>
        <time>1970-01-01T03:42:43.000Z</time>
      </trkpt>
      <trkpt lat="42.641367" lon="0.648466">
        <ele>3120.2</ele>
        <time>1970-01-01T03:42:44.000Z</time>
      </trkpt>
      <trkpt lat="42.641366" lon="0.648463">
        <ele>3120.3</ele>
        <time>1970-01-01T03:42:45.000Z</time>
      </trkpt>
      <trkpt lat="42.641365" lon="0.648459">
        <ele>3120.3</ele>
        <time>1970-01-01T03:42:46.000Z</time>
      </trkpt>
      <trkpt lat="42.641365" lon="0.648458">
        <ele>3120.3</ele>
        <time>1970-01-01T03:42:47.000Z</time>
      </trkpt>
      <trkpt lat="42.641364" lon="0.648456">
        <ele>3120.3</ele>
        <time>1970-01-01T03:42:48.000Z</time>
      </trkpt>
      <trkpt lat="42.641363" lon="0.648454">
        <ele>3120.4</ele>
        <time>1970-01-01T03:42:49.000Z</time>
      </trkpt>
      <trkpt lat="42.641361" lon="0.648453">
        <ele>3120.4</ele>
        <time>1970-01-01T03:42:50.000Z</time>
      </trkpt>
      <trkpt lat="42.641354" lon="0.648452">
        <ele>3120.5</ele>
        <time>1970-01-01T03:42:52.000Z</time>
      </trkpt>
      <trkpt lat="42.641351" lon="0.64845">
        <ele>3120.5</ele>
        <time>1970-01-01T03:42:53.000Z</time>
      </trkpt>
      <trkpt lat="42.641344" lon="0.648449">
        <ele>3120.6</ele>
        <time>1970-01-01T03:42:55.000Z</time>
      </trkpt>
      <trkpt lat="42.641341" lon="0.64845">
        <ele>3120.7</ele>
        <time>1970-01-01T03:42:56.000Z</time>
      </trkpt>
      <trkpt lat="42.641332" lon="0.648451">
        <ele>3120.8</ele>
        <time>1970-01-01T03:42:58.000Z</time>
      </trkpt>
      <trkpt lat="42.641323" lon="0.648453">
        <ele>3120.9</ele>
        <time>1970-01-01T03:42:59.000Z</time>
      </trkpt>
      <trkpt lat="42.641318" lon="0.648457">
        <ele>3121</ele>
        <time>1970-01-01T03:43:00.000Z</time>
      </trkpt>
      <trkpt lat="42.641312" lon="0.648464">
        <ele>3121.1</ele>
        <time>1970-01-01T03:43:01.000Z</time>
      </trkpt>
      <trkpt lat="42.641301" lon="0.648479">
        <ele>3121.3</ele>
        <time>1970-01-01T03:43:03.000Z</time>
      </trkpt>
      <trkpt lat="42.641295" lon="0.648489">
        <ele>3121.5</ele>
        <time>1970-01-01T03:43:04.000Z</time>
      </trkpt>
      <trkpt lat="42.641289" lon="0.648497">
        <ele>3121.6</ele>
        <time>1970-01-01T03:43:05.000Z</time>
      </trkpt>
      <trkpt lat="42.641281" lon="0.648508">
        <ele>3121.8</ele>
        <time>1970-01-01T03:43:06.000Z</time>
      </trkpt>
      <trkpt lat="42.641275" lon="0.64852">
        <ele>3121.9</ele>
        <time>1970-01-01T03:43:08.000Z</time>
      </trkpt>
      <trkpt lat="42.641272" lon="0.648526">
        <ele>3122</ele>
        <time>1970-01-01T03:43:09.000Z</time>
      </trkpt>
      <trkpt lat="42.641267" lon="0.648538">
        <ele>3122.1</ele>
        <time>1970-01-01T03:43:10.000Z</time>
      </trkpt>
      <trkpt lat="42.641263" lon="0.648551">
        <ele>3122.3</ele>
        <time>1970-01-01T03:43:12.000Z</time>
      </trkpt>
      <trkpt lat="42.641262" lon="0.648562">
        <ele>3122.4</ele>
        <time>1970-01-01T03:43:13.000Z</time>
      </trkpt>
      <trkpt lat="42.641259" lon="0.648574">
        <ele>3122.5</ele>
        <time>1970-01-01T03:43:15.000Z</time>
      </trkpt>
      <trkpt lat="42.641258" lon="0.648581">
        <ele>3122.6</ele>
        <time>1970-01-01T03:43:16.000Z</time>
      </trkpt>
      <trkpt lat="42.641258" lon="0.648586">
        <ele>3122.6</ele>
        <time>1970-01-01T03:43:17.000Z</time>
      </trkpt>
      <trkpt lat="42.641259" lon="0.648587">
        <ele>3122.7</ele>
        <time>1970-01-01T03:43:18.000Z</time>
      </trkpt>
      <trkpt lat="42.641262" lon="0.648586">
        <ele>3122.7</ele>
        <time>1970-01-01T03:43:19.000Z</time>
      </trkpt>
      <trkpt lat="42.641264" lon="0.648584">
        <ele>3122.7</ele>
        <time>1970-01-01T03:43:20.000Z</time>
      </trkpt>
      <trkpt lat="42.641266" lon="0.648581">
        <ele>3122.8</ele>
        <time>1970-01-01T03:43:21.000Z</time>
      </trkpt>
      <trkpt lat="42.641268" lon="0.64858">
        <ele>3122.8</ele>
        <time>1970-01-01T03:43:22.000Z</time>
      </trkpt>
      <trkpt lat="42.64127" lon="0.648579">
        <ele>3122.8</ele>
        <time>1970-01-01T03:43:23.000Z</time>
      </trkpt>
      <trkpt lat="42.64127" lon="0.648581">
        <ele>3122.9</ele>
        <time>1970-01-01T03:43:24.000Z</time>
      </trkpt>
      <trkpt lat="42.64127" lon="0.648585">
        <ele>3122.9</ele>
        <time>1970-01-01T03:43:25.000Z</time>
      </trkpt>
      <trkpt lat="42.64127" lon="0.648589">
        <ele>3122.9</ele>
        <time>1970-01-01T03:43:27.000Z</time>
      </trkpt>
      <trkpt lat="42.641271" lon="0.648591">
        <ele>3123</ele>
        <time>1970-01-01T03:43:28.000Z</time>
      </trkpt>
      <trkpt lat="42.641272" lon="0.648591">
        <ele>3123</ele>
        <time>1970-01-01T03:43:29.000Z</time>
      </trkpt>
      <trkpt lat="42.641272" lon="0.648591">
        <ele>3123</ele>
        <time>1970-01-01T03:43:30.000Z</time>
      </trkpt>
      <trkpt lat="42.641273" lon="0.648592">
        <ele>3123</ele>
        <time>1970-01-01T03:43:31.000Z</time>
      </trkpt>
      <trkpt lat="42.641273" lon="0.648592">
        <ele>3123</ele>
        <time>1970-01-01T03:43:32.000Z</time>
      </trkpt>
      <trkpt lat="42.641272" lon="0.648594">
        <ele>3123</ele>
        <time>1970-01-01T03:43:33.000Z</time>
      </trkpt>
      <trkpt lat="42.64127" lon="0.648599">
        <ele>3123.1</ele>
        <time>1970-01-01T03:43:34.000Z</time>
      </trkpt>
      <trkpt lat="42.641267" lon="0.648608">
        <ele>3123.2</ele>
        <time>1970-01-01T03:43:35.000Z</time>
      </trkpt>
      <trkpt lat="42.641265" lon="0.648621">
        <ele>3123.3</ele>
        <time>1970-01-01T03:43:37.000Z</time>
      </trkpt>
      <trkpt lat="42.641264" lon="0.648632">
        <ele>3123.5</ele>
        <time>1970-01-01T03:43:38.000Z</time>
      </trkpt>
      <trkpt lat="42.641262" lon="0.648641">
        <ele>3123.6</ele>
        <time>1970-01-01T03:43:39.000Z</time>
      </trkpt>
      <trkpt lat="42.641262" lon="0.64865">
        <ele>3123.7</ele>
        <time>1970-01-01T03:43:40.000Z</time>
      </trkpt>
      <trkpt lat="42.641263" lon="0.648655">
        <ele>3123.7</ele>
        <time>1970-01-01T03:43:41.000Z</time>
      </trkpt>
      <trkpt lat="42.641265" lon="0.648657">
        <ele>3123.8</ele>
        <time>1970-01-01T03:43:42.000Z</time>
      </trkpt>
      <trkpt lat="42.641267" lon="0.648659">
        <ele>3123.8</ele>
        <time>1970-01-01T03:43:43.000Z</time>
      </trkpt>
      <trkpt lat="42.641269" lon="0.648661">
        <ele>3123.8</ele>
        <time>1970-01-01T03:43:44.000Z</time>
      </trkpt>
      <trkpt lat="42.64127" lon="0.648664">
        <ele>3123.9</ele>
        <time>1970-01-01T03:43:46.000Z</time>
      </trkpt>
      <trkpt lat="42.641271" lon="0.648669">
        <ele>3123.9</ele>
        <time>1970-01-01T03:43:47.000Z</time>
      </trkpt>
      <trkpt lat="42.641271" lon="0.648673">
        <ele>3124</ele>
        <time>1970-01-01T03:43:48.000Z</time>
      </trkpt>
      <trkpt lat="42.641271" lon="0.648676">
        <ele>3124</ele>
        <time>1970-01-01T03:43:49.000Z</time>
      </trkpt>
      <trkpt lat="42.641271" lon="0.648681">
        <ele>3124.1</ele>
        <time>1970-01-01T03:43:51.000Z</time>
      </trkpt>
      <trkpt lat="42.64127" lon="0.648686">
        <ele>3124.1</ele>
        <time>1970-01-01T03:43:52.000Z</time>
      </trkpt>
      <trkpt lat="42.641271" lon="0.648692">
        <ele>3124.2</ele>
        <time>1970-01-01T03:43:53.000Z</time>
      </trkpt>
      <trkpt lat="42.641272" lon="0.648698">
        <ele>3124.3</ele>
        <time>1970-01-01T03:43:54.000Z</time>
      </trkpt>
      <trkpt lat="42.641273" lon="0.648711">
        <ele>3124.4</ele>
        <time>1970-01-01T03:43:55.000Z</time>
      </trkpt>
      <trkpt lat="42.641274" lon="0.648736">
        <ele>3124.7</ele>
        <time>1970-01-01T03:43:57.000Z</time>
      </trkpt>
      <trkpt lat="42.641273" lon="0.648748">
        <ele>3124.9</ele>
        <time>1970-01-01T03:43:58.000Z</time>
      </trkpt>
      <trkpt lat="42.641272" lon="0.64876">
        <ele>3125</ele>
        <time>1970-01-01T03:44:00.000Z</time>
      </trkpt>
      <trkpt lat="42.64127" lon="0.648771">
        <ele>3125.2</ele>
        <time>1970-01-01T03:44:01.000Z</time>
      </trkpt>
      <trkpt lat="42.641269" lon="0.648783">
        <ele>3125.3</ele>
        <time>1970-01-01T03:44:02.000Z</time>
      </trkpt>
      <trkpt lat="42.641267" lon="0.648795">
        <ele>3125.5</ele>
        <time>1970-01-01T03:44:04.000Z</time>
      </trkpt>
      <trkpt lat="42.641266" lon="0.648807">
        <ele>3125.7</ele>
        <time>1970-01-01T03:44:05.000Z</time>
      </trkpt>
      <trkpt lat="42.641263" lon="0.648816">
        <ele>3125.8</ele>
        <time>1970-01-01T03:44:06.000Z</time>
      </trkpt>
      <trkpt lat="42.641259" lon="0.648828">
        <ele>3126</ele>
        <time>1970-01-01T03:44:08.000Z</time>
      </trkpt>
      <trkpt lat="42.641252" lon="0.64884">
        <ele>3126.2</ele>
        <time>1970-01-01T03:44:09.000Z</time>
      </trkpt>
      <trkpt lat="42.641248" lon="0.648848">
        <ele>3126.3</ele>
        <time>1970-01-01T03:44:10.000Z</time>
      </trkpt>
      <trkpt lat="42.641243" lon="0.648856">
        <ele>3126.4</ele>
        <time>1970-01-01T03:44:11.000Z</time>
      </trkpt>
      <trkpt lat="42.64124" lon="0.648863">
        <ele>3126.6</ele>
        <time>1970-01-01T03:44:12.000Z</time>
      </trkpt>
      <trkpt lat="42.641237" lon="0.64887">
        <ele>3126.7</ele>
        <time>1970-01-01T03:44:13.000Z</time>
      </trkpt>
      <trkpt lat="42.641234" lon="0.648879">
        <ele>3126.8</ele>
        <time>1970-01-01T03:44:14.000Z</time>
      </trkpt>
      <trkpt lat="42.64123" lon="0.648888">
        <ele>3126.9</ele>
        <time>1970-01-01T03:44:15.000Z</time>
      </trkpt>
      <trkpt lat="42.641221" lon="0.6489">
        <ele>3127.2</ele>
        <time>1970-01-01T03:44:17.000Z</time>
      </trkpt>
      <trkpt lat="42.641217" lon="0.648904">
        <ele>3127.3</ele>
        <time>1970-01-01T03:44:18.000Z</time>
      </trkpt>
      <trkpt lat="42.641211" lon="0.648906">
        <ele>3127.4</ele>
        <time>1970-01-01T03:44:19.000Z</time>
      </trkpt>
      <trkpt lat="42.641203" lon="0.648912">
        <ele>3127.5</ele>
        <time>1970-01-01T03:44:21.000Z</time>
      </trkpt>
      <trkpt lat="42.641197" lon="0.648917">
        <ele>3127.7</ele>
        <time>1970-01-01T03:44:22.000Z</time>
      </trkpt>
      <trkpt lat="42.641193" lon="0.64892">
        <ele>3127.7</ele>
        <time>1970-01-01T03:44:23.000Z</time>
      </trkpt>
      <trkpt lat="42.641188" lon="0.648923">
        <ele>3127.8</ele>
        <time>1970-01-01T03:44:24.000Z</time>
      </trkpt>
      <trkpt lat="42.64118" lon="0.648927">
        <ele>3128</ele>
        <time>1970-01-01T03:44:26.000Z</time>
      </trkpt>
      <trkpt lat="42.641171" lon="0.648928">
        <ele>3128.2</ele>
        <time>1970-01-01T03:44:27.000Z</time>
      </trkpt>
      <trkpt lat="42.641167" lon="0.648929">
        <ele>3128.2</ele>
        <time>1970-01-01T03:44:28.000Z</time>
      </trkpt>
      <trkpt lat="42.641161" lon="0.648931">
        <ele>3128.3</ele>
        <time>1970-01-01T03:44:29.000Z</time>
      </trkpt>
      <trkpt lat="42.641155" lon="0.648933">
        <ele>3128.5</ele>
        <time>1970-01-01T03:44:30.000Z</time>
      </trkpt>
      <trkpt lat="42.641149" lon="0.648935">
        <ele>3128.6</ele>
        <time>1970-01-01T03:44:31.000Z</time>
      </trkpt>
      <trkpt lat="42.641146" lon="0.648936">
        <ele>3128.6</ele>
        <time>1970-01-01T03:44:32.000Z</time>
      </trkpt>
      <trkpt lat="42.641143" lon="0.648936">
        <ele>3128.7</ele>
        <time>1970-01-01T03:44:33.000Z</time>
      </trkpt>
      <trkpt lat="42.641137" lon="0.64894">
        <ele>3128.8</ele>
        <time>1970-01-01T03:44:34.000Z</time>
      </trkpt>
      <trkpt lat="42.641131" lon="0.648949">
        <ele>3128.9</ele>
        <time>1970-01-01T03:44:36.000Z</time>
      </trkpt>
      <trkpt lat="42.641129" lon="0.648959">
        <ele>3129.1</ele>
        <time>1970-01-01T03:44:37.000Z</time>
      </trkpt>
      <trkpt lat="42.641127" lon="0.648967">
        <ele>3129.2</ele>
        <time>1970-01-01T03:44:38.000Z</time>
      </trkpt>
      <trkpt lat="42.641123" lon="0.64898">
        <ele>3129.3</ele>
        <time>1970-01-01T03:44:39.000Z</time>
      </trkpt>
      <trkpt lat="42.641118" lon="0.648989">
        <ele>3129.5</ele>
        <time>1970-01-01T03:44:41.000Z</time>
      </trkpt>
      <trkpt lat="42.641115" lon="0.648994">
        <ele>3129.5</ele>
        <time>1970-01-01T03:44:42.000Z</time>
      </trkpt>
      <trkpt lat="42.64111" lon="0.649003">
        <ele>3129.7</ele>
        <time>1970-01-01T03:44:43.000Z</time>
      </trkpt>
      <trkpt lat="42.641103" lon="0.649013">
        <ele>3129.8</ele>
        <time>1970-01-01T03:44:45.000Z</time>
      </trkpt>
      <trkpt lat="42.641098" lon="0.649021">
        <ele>3130</ele>
        <time>1970-01-01T03:44:47.000Z</time>
      </trkpt>
      <trkpt lat="42.641096" lon="0.649026">
        <ele>3130</ele>
        <time>1970-01-01T03:44:48.000Z</time>
      </trkpt>
      <trkpt lat="42.641094" lon="0.649032">
        <ele>3130.1</ele>
        <time>1970-01-01T03:44:49.000Z</time>
      </trkpt>
      <trkpt lat="42.641092" lon="0.649038">
        <ele>3130.2</ele>
        <time>1970-01-01T03:44:50.000Z</time>
      </trkpt>
      <trkpt lat="42.641091" lon="0.64904">
        <ele>3130.2</ele>
        <time>1970-01-01T03:44:51.000Z</time>
      </trkpt>
      <trkpt lat="42.641092" lon="0.649041">
        <ele>3130.2</ele>
        <time>1970-01-01T03:44:52.000Z</time>
      </trkpt>
      <trkpt lat="42.641093" lon="0.64904">
        <ele>3130.2</ele>
        <time>1970-01-01T03:44:53.000Z</time>
      </trkpt>
      <trkpt lat="42.641095" lon="0.649037">
        <ele>3130.3</ele>
        <time>1970-01-01T03:44:54.000Z</time>
      </trkpt>
      <trkpt lat="42.641096" lon="0.649036">
        <ele>3130.3</ele>
        <time>1970-01-01T03:44:55.000Z</time>
      </trkpt>
      <trkpt lat="42.641095" lon="0.649039">
        <ele>3130.3</ele>
        <time>1970-01-01T03:44:56.000Z</time>
      </trkpt>
      <trkpt lat="42.641092" lon="0.649046">
        <ele>3130.4</ele>
        <time>1970-01-01T03:44:58.000Z</time>
      </trkpt>
      <trkpt lat="42.641088" lon="0.649058">
        <ele>3130.6</ele>
        <time>1970-01-01T03:44:59.000Z</time>
      </trkpt>
      <trkpt lat="42.641083" lon="0.649073">
        <ele>3130.7</ele>
        <time>1970-01-01T03:45:00.000Z</time>
      </trkpt>
      <trkpt lat="42.641077" lon="0.649089">
        <ele>3130.9</ele>
        <time>1970-01-01T03:45:02.000Z</time>
      </trkpt>
      <trkpt lat="42.641071" lon="0.649102">
        <ele>3131.1</ele>
        <time>1970-01-01T03:45:03.000Z</time>
      </trkpt>
      <trkpt lat="42.641067" lon="0.64911">
        <ele>3131.2</ele>
        <time>1970-01-01T03:45:04.000Z</time>
      </trkpt>
      <trkpt lat="42.641058" lon="0.649121">
        <ele>3131.4</ele>
        <time>1970-01-01T03:45:06.000Z</time>
      </trkpt>
      <trkpt lat="42.641044" lon="0.649135">
        <ele>3131.6</ele>
        <time>1970-01-01T03:45:07.000Z</time>
      </trkpt>
      <trkpt lat="42.641039" lon="0.649144">
        <ele>3131.7</ele>
        <time>1970-01-01T03:45:08.000Z</time>
      </trkpt>
      <trkpt lat="42.641036" lon="0.649151">
        <ele>3131.8</ele>
        <time>1970-01-01T03:45:09.000Z</time>
      </trkpt>
      <trkpt lat="42.641029" lon="0.649163">
        <ele>3132</ele>
        <time>1970-01-01T03:45:10.000Z</time>
      </trkpt>
      <trkpt lat="42.641019" lon="0.649176">
        <ele>3132.2</ele>
        <time>1970-01-01T03:45:12.000Z</time>
      </trkpt>
      <trkpt lat="42.641012" lon="0.649185">
        <ele>3132.3</ele>
        <time>1970-01-01T03:45:13.000Z</time>
      </trkpt>
      <trkpt lat="42.641005" lon="0.64919">
        <ele>3132.4</ele>
        <time>1970-01-01T03:45:14.000Z</time>
      </trkpt>
      <trkpt lat="42.640997" lon="0.64919">
        <ele>3132.5</ele>
        <time>1970-01-01T03:45:15.000Z</time>
      </trkpt>
      <trkpt lat="42.640992" lon="0.649193">
        <ele>3132.6</ele>
        <time>1970-01-01T03:45:16.000Z</time>
      </trkpt>
      <trkpt lat="42.640984" lon="0.649203">
        <ele>3132.7</ele>
        <time>1970-01-01T03:45:17.000Z</time>
      </trkpt>
      <trkpt lat="42.640975" lon="0.649213">
        <ele>3132.9</ele>
        <time>1970-01-01T03:45:19.000Z</time>
      </trkpt>
      <trkpt lat="42.640966" lon="0.649225">
        <ele>3133.1</ele>
        <time>1970-01-01T03:45:20.000Z</time>
      </trkpt>
      <trkpt lat="42.640956" lon="0.649237">
        <ele>3133.2</ele>
        <time>1970-01-01T03:45:22.000Z</time>
      </trkpt>
      <trkpt lat="42.640949" lon="0.649243">
        <ele>3133.4</ele>
        <time>1970-01-01T03:45:23.000Z</time>
      </trkpt>
      <trkpt lat="42.640944" lon="0.649247">
        <ele>3133.4</ele>
        <time>1970-01-01T03:45:24.000Z</time>
      </trkpt>
      <trkpt lat="42.640941" lon="0.649252">
        <ele>3133.5</ele>
        <time>1970-01-01T03:45:25.000Z</time>
      </trkpt>
      <trkpt lat="42.64094" lon="0.649263">
        <ele>3133.6</ele>
        <time>1970-01-01T03:45:26.000Z</time>
      </trkpt>
      <trkpt lat="42.64094" lon="0.649276">
        <ele>3133.8</ele>
        <time>1970-01-01T03:45:28.000Z</time>
      </trkpt>
      <trkpt lat="42.640938" lon="0.649288">
        <ele>3133.9</ele>
        <time>1970-01-01T03:45:29.000Z</time>
      </trkpt>
      <trkpt lat="42.640938" lon="0.649294">
        <ele>3133.9</ele>
        <time>1970-01-01T03:45:30.000Z</time>
      </trkpt>
      <trkpt lat="42.640936" lon="0.649303">
        <ele>3134</ele>
        <time>1970-01-01T03:45:31.000Z</time>
      </trkpt>
      <trkpt lat="42.64093" lon="0.649313">
        <ele>3134.2</ele>
        <time>1970-01-01T03:45:33.000Z</time>
      </trkpt>
      <trkpt lat="42.640926" lon="0.649317">
        <ele>3134.2</ele>
        <time>1970-01-01T03:45:34.000Z</time>
      </trkpt>
      <trkpt lat="42.640923" lon="0.649323">
        <ele>3134.3</ele>
        <time>1970-01-01T03:45:35.000Z</time>
      </trkpt>
      <trkpt lat="42.640918" lon="0.649339">
        <ele>3134.5</ele>
        <time>1970-01-01T03:45:36.000Z</time>
      </trkpt>
      <trkpt lat="42.640914" lon="0.649346">
        <ele>3134.6</ele>
        <time>1970-01-01T03:45:37.000Z</time>
      </trkpt>
      <trkpt lat="42.640911" lon="0.649353">
        <ele>3134.6</ele>
        <time>1970-01-01T03:45:38.000Z</time>
      </trkpt>
      <trkpt lat="42.640907" lon="0.64936">
        <ele>3134.7</ele>
        <time>1970-01-01T03:45:40.000Z</time>
      </trkpt>
      <trkpt lat="42.640904" lon="0.649367">
        <ele>3134.8</ele>
        <time>1970-01-01T03:45:41.000Z</time>
      </trkpt>
      <trkpt lat="42.640894" lon="0.649374">
        <ele>3135</ele>
        <time>1970-01-01T03:45:42.000Z</time>
      </trkpt>
      <trkpt lat="42.640883" lon="0.649382">
        <ele>3135.1</ele>
        <time>1970-01-01T03:45:44.000Z</time>
      </trkpt>
      <trkpt lat="42.640874" lon="0.649389">
        <ele>3135.3</ele>
        <time>1970-01-01T03:45:45.000Z</time>
      </trkpt>
      <trkpt lat="42.640868" lon="0.649395">
        <ele>3135.4</ele>
        <time>1970-01-01T03:45:46.000Z</time>
      </trkpt>
      <trkpt lat="42.640862" lon="0.649403">
        <ele>3135.5</ele>
        <time>1970-01-01T03:45:47.000Z</time>
      </trkpt>
      <trkpt lat="42.640856" lon="0.649415">
        <ele>3135.6</ele>
        <time>1970-01-01T03:45:49.000Z</time>
      </trkpt>
      <trkpt lat="42.640852" lon="0.649422">
        <ele>3135.7</ele>
        <time>1970-01-01T03:45:50.000Z</time>
      </trkpt>
      <trkpt lat="42.640848" lon="0.649427">
        <ele>3135.7</ele>
        <time>1970-01-01T03:45:51.000Z</time>
      </trkpt>
      <trkpt lat="42.640845" lon="0.649431">
        <ele>3135.8</ele>
        <time>1970-01-01T03:45:52.000Z</time>
      </trkpt>
      <trkpt lat="42.640845" lon="0.649433">
        <ele>3135.8</ele>
        <time>1970-01-01T03:45:53.000Z</time>
      </trkpt>
      <trkpt lat="42.640845" lon="0.649431">
        <ele>3135.8</ele>
        <time>1970-01-01T03:45:55.000Z</time>
      </trkpt>
      <trkpt lat="42.640841" lon="0.649434">
        <ele>3135.9</ele>
        <time>1970-01-01T03:45:56.000Z</time>
      </trkpt>
      <trkpt lat="42.640839" lon="0.649436">
        <ele>3135.9</ele>
        <time>1970-01-01T03:45:57.000Z</time>
      </trkpt>
      <trkpt lat="42.640835" lon="0.649438">
        <ele>3136</ele>
        <time>1970-01-01T03:45:58.000Z</time>
      </trkpt>
      <trkpt lat="42.640831" lon="0.64944">
        <ele>3136</ele>
        <time>1970-01-01T03:45:59.000Z</time>
      </trkpt>
      <trkpt lat="42.640826" lon="0.649443">
        <ele>3136.1</ele>
        <time>1970-01-01T03:46:00.000Z</time>
      </trkpt>
      <trkpt lat="42.640822" lon="0.649446">
        <ele>3136.2</ele>
        <time>1970-01-01T03:46:01.000Z</time>
      </trkpt>
      <trkpt lat="42.640816" lon="0.64945">
        <ele>3136.2</ele>
        <time>1970-01-01T03:46:02.000Z</time>
      </trkpt>
      <trkpt lat="42.64081" lon="0.649454">
        <ele>3136.3</ele>
        <time>1970-01-01T03:46:03.000Z</time>
      </trkpt>
      <trkpt lat="42.640805" lon="0.649458">
        <ele>3136.4</ele>
        <time>1970-01-01T03:46:04.000Z</time>
      </trkpt>
      <trkpt lat="42.640798" lon="0.649466">
        <ele>3136.5</ele>
        <time>1970-01-01T03:46:06.000Z</time>
      </trkpt>
      <trkpt lat="42.640796" lon="0.649467">
        <ele>3136.5</ele>
        <time>1970-01-01T03:46:07.000Z</time>
      </trkpt>
      <trkpt lat="42.640798" lon="0.649464">
        <ele>3136.6</ele>
        <time>1970-01-01T03:46:08.000Z</time>
      </trkpt>
      <trkpt lat="42.640798" lon="0.649459">
        <ele>3136.6</ele>
        <time>1970-01-01T03:46:10.000Z</time>
      </trkpt>
      <trkpt lat="42.640798" lon="0.649459">
        <ele>3136.6</ele>
        <time>1970-01-01T03:46:11.000Z</time>
      </trkpt>
      <trkpt lat="42.640797" lon="0.64946">
        <ele>3136.7</ele>
        <time>1970-01-01T03:46:12.000Z</time>
      </trkpt>
      <trkpt lat="42.640798" lon="0.649461">
        <ele>3136.7</ele>
        <time>1970-01-01T03:46:13.000Z</time>
      </trkpt>
      <trkpt lat="42.640798" lon="0.649463">
        <ele>3136.7</ele>
        <time>1970-01-01T03:46:14.000Z</time>
      </trkpt>
      <trkpt lat="42.640799" lon="0.649464">
        <ele>3136.7</ele>
        <time>1970-01-01T03:46:16.000Z</time>
      </trkpt>
      <trkpt lat="42.640798" lon="0.649466">
        <ele>3136.7</ele>
        <time>1970-01-01T03:46:17.000Z</time>
      </trkpt>
      <trkpt lat="42.640798" lon="0.649468">
        <ele>3136.7</ele>
        <time>1970-01-01T03:46:18.000Z</time>
      </trkpt>
      <trkpt lat="42.640796" lon="0.649473">
        <ele>3136.8</ele>
        <time>1970-01-01T03:46:19.000Z</time>
      </trkpt>
      <trkpt lat="42.640792" lon="0.649482">
        <ele>3136.9</ele>
        <time>1970-01-01T03:46:20.000Z</time>
      </trkpt>
      <trkpt lat="42.640788" lon="0.649492">
        <ele>3137</ele>
        <time>1970-01-01T03:46:22.000Z</time>
      </trkpt>
      <trkpt lat="42.640781" lon="0.649498">
        <ele>3137.1</ele>
        <time>1970-01-01T03:46:23.000Z</time>
      </trkpt>
      <trkpt lat="42.640772" lon="0.649501">
        <ele>3137.2</ele>
        <time>1970-01-01T03:46:24.000Z</time>
      </trkpt>
      <trkpt lat="42.640761" lon="0.649501">
        <ele>3137.4</ele>
        <time>1970-01-01T03:46:25.000Z</time>
      </trkpt>
      <trkpt lat="42.640752" lon="0.649503">
        <ele>3137.5</ele>
        <time>1970-01-01T03:46:26.000Z</time>
      </trkpt>
      <trkpt lat="42.640742" lon="0.649509">
        <ele>3137.6</ele>
        <time>1970-01-01T03:46:27.000Z</time>
      </trkpt>
      <trkpt lat="42.640734" lon="0.649518">
        <ele>3137.7</ele>
        <time>1970-01-01T03:46:28.000Z</time>
      </trkpt>
      <trkpt lat="42.640726" lon="0.649529">
        <ele>3137.9</ele>
        <time>1970-01-01T03:46:30.000Z</time>
      </trkpt>
      <trkpt lat="42.640718" lon="0.649541">
        <ele>3138.1</ele>
        <time>1970-01-01T03:46:31.000Z</time>
      </trkpt>
      <trkpt lat="42.64071" lon="0.649551">
        <ele>3138.2</ele>
        <time>1970-01-01T03:46:32.000Z</time>
      </trkpt>
      <trkpt lat="42.640705" lon="0.649557">
        <ele>3138.3</ele>
        <time>1970-01-01T03:46:33.000Z</time>
      </trkpt>
      <trkpt lat="42.6407" lon="0.649564">
        <ele>3138.4</ele>
        <time>1970-01-01T03:46:34.000Z</time>
      </trkpt>
      <trkpt lat="42.640692" lon="0.649573">
        <ele>3138.5</ele>
        <time>1970-01-01T03:46:35.000Z</time>
      </trkpt>
      <trkpt lat="42.640683" lon="0.649581">
        <ele>3138.7</ele>
        <time>1970-01-01T03:46:37.000Z</time>
      </trkpt>
      <trkpt lat="42.640675" lon="0.64959">
        <ele>3138.8</ele>
        <time>1970-01-01T03:46:38.000Z</time>
      </trkpt>
      <trkpt lat="42.640666" lon="0.649598">
        <ele>3139</ele>
        <time>1970-01-01T03:46:40.000Z</time>
      </trkpt>
      <trkpt lat="42.64066" lon="0.649606">
        <ele>3139.1</ele>
        <time>1970-01-01T03:46:41.000Z</time>
      </trkpt>
      <trkpt lat="42.640654" lon="0.649612">
        <ele>3139.2</ele>
        <time>1970-01-01T03:46:43.000Z</time>
      </trkpt>
      <trkpt lat="42.64065" lon="0.649614">
        <ele>3139.2</ele>
        <time>1970-01-01T03:46:44.000Z</time>
      </trkpt>
      <trkpt lat="42.640645" lon="0.649615">
        <ele>3139.3</ele>
        <time>1970-01-01T03:46:45.000Z</time>
      </trkpt>
      <trkpt lat="42.640642" lon="0.649617">
        <ele>3139.3</ele>
        <time>1970-01-01T03:46:46.000Z</time>
      </trkpt>
      <trkpt lat="42.640642" lon="0.64962">
        <ele>3139.4</ele>
        <time>1970-01-01T03:46:47.000Z</time>
      </trkpt>
      <trkpt lat="42.640642" lon="0.649622">
        <ele>3139.4</ele>
        <time>1970-01-01T03:46:48.000Z</time>
      </trkpt>
      <trkpt lat="42.640643" lon="0.649626">
        <ele>3139.4</ele>
        <time>1970-01-01T03:46:49.000Z</time>
      </trkpt>
      <trkpt lat="42.640643" lon="0.64963">
        <ele>3139.6</ele>
        <time>1970-01-01T03:46:50.000Z</time>
      </trkpt>
      <trkpt lat="42.640644" lon="0.649632">
        <ele>3139.6</ele>
        <time>1970-01-01T03:46:51.000Z</time>
      </trkpt>
      <trkpt lat="42.640645" lon="0.649633">
        <ele>3139.6</ele>
        <time>1970-01-01T03:46:52.000Z</time>
      </trkpt>
      <trkpt lat="42.640646" lon="0.649634">
        <ele>3139.6</ele>
        <time>1970-01-01T03:46:53.000Z</time>
      </trkpt>
      <trkpt lat="42.640647" lon="0.649634">
        <ele>3139.6</ele>
        <time>1970-01-01T03:46:54.000Z</time>
      </trkpt>
      <trkpt lat="42.640648" lon="0.649635">
        <ele>3139.6</ele>
        <time>1970-01-01T03:46:55.000Z</time>
      </trkpt>
      <trkpt lat="42.640646" lon="0.649638">
        <ele>3139.8</ele>
        <time>1970-01-01T03:46:57.000Z</time>
      </trkpt>
      <trkpt lat="42.640644" lon="0.649643">
        <ele>3139.8</ele>
        <time>1970-01-01T03:46:58.000Z</time>
      </trkpt>
      <trkpt lat="42.640643" lon="0.649646">
        <ele>3139.9</ele>
        <time>1970-01-01T03:46:59.000Z</time>
      </trkpt>
      <trkpt lat="42.640637" lon="0.649651">
        <ele>3140</ele>
        <time>1970-01-01T03:47:00.000Z</time>
      </trkpt>
      <trkpt lat="42.640631" lon="0.649658">
        <ele>3140.1</ele>
        <time>1970-01-01T03:47:02.000Z</time>
      </trkpt>
      <trkpt lat="42.640629" lon="0.64966">
        <ele>3140.1</ele>
        <time>1970-01-01T03:47:03.000Z</time>
      </trkpt>
      <trkpt lat="42.640629" lon="0.64966">
        <ele>3140.1</ele>
        <time>1970-01-01T03:47:04.000Z</time>
      </trkpt>
      <trkpt lat="42.640627" lon="0.649662">
        <ele>3140.2</ele>
        <time>1970-01-01T03:47:05.000Z</time>
      </trkpt>
      <trkpt lat="42.640626" lon="0.649665">
        <ele>3140.3</ele>
        <time>1970-01-01T03:47:06.000Z</time>
      </trkpt>
      <trkpt lat="42.640626" lon="0.649666">
        <ele>3140.3</ele>
        <time>1970-01-01T03:47:07.000Z</time>
      </trkpt>
      <trkpt lat="42.640625" lon="0.649667">
        <ele>3140.3</ele>
        <time>1970-01-01T03:47:08.000Z</time>
      </trkpt>
      <trkpt lat="42.640624" lon="0.649669">
        <ele>3140.3</ele>
        <time>1970-01-01T03:47:09.000Z</time>
      </trkpt>
      <trkpt lat="42.640622" lon="0.649669">
        <ele>3140.4</ele>
        <time>1970-01-01T03:47:10.000Z</time>
      </trkpt>
      <trkpt lat="42.64062" lon="0.649669">
        <ele>3140.4</ele>
        <time>1970-01-01T03:47:11.000Z</time>
      </trkpt>
      <trkpt lat="42.640616" lon="0.649669">
        <ele>3140.5</ele>
        <time>1970-01-01T03:47:12.000Z</time>
      </trkpt>
      <trkpt lat="42.640613" lon="0.649669">
        <ele>3140.6</ele>
        <time>1970-01-01T03:47:13.000Z</time>
      </trkpt>
      <trkpt lat="42.640608" lon="0.649672">
        <ele>3140.6</ele>
        <time>1970-01-01T03:47:14.000Z</time>
      </trkpt>
      <trkpt lat="42.640605" lon="0.649677">
        <ele>3140.7</ele>
        <time>1970-01-01T03:47:15.000Z</time>
      </trkpt>
      <trkpt lat="42.640605" lon="0.649681">
        <ele>3140.7</ele>
        <time>1970-01-01T03:47:16.000Z</time>
      </trkpt>
      <trkpt lat="42.640605" lon="0.649682">
        <ele>3140.8</ele>
        <time>1970-01-01T03:47:17.000Z</time>
      </trkpt>
      <trkpt lat="42.640605" lon="0.649682">
        <ele>3140.8</ele>
        <time>1970-01-01T03:47:18.000Z</time>
      </trkpt>
      <trkpt lat="42.640605" lon="0.649683">
        <ele>3140.9</ele>
        <time>1970-01-01T03:47:19.000Z</time>
      </trkpt>
      <trkpt lat="42.640604" lon="0.649683">
        <ele>3140.9</ele>
        <time>1970-01-01T03:47:20.000Z</time>
      </trkpt>
      <trkpt lat="42.640604" lon="0.649683">
        <ele>3140.9</ele>
        <time>1970-01-01T03:47:21.000Z</time>
      </trkpt>
      <trkpt lat="42.640604" lon="0.649684">
        <ele>3140.9</ele>
        <time>1970-01-01T03:47:22.000Z</time>
      </trkpt>
      <trkpt lat="42.640604" lon="0.649685">
        <ele>3140.9</ele>
        <time>1970-01-01T03:47:23.000Z</time>
      </trkpt>
      <trkpt lat="42.640603" lon="0.649687">
        <ele>3140.9</ele>
        <time>1970-01-01T03:47:24.000Z</time>
      </trkpt>
      <trkpt lat="42.640602" lon="0.649688">
        <ele>3141</ele>
        <time>1970-01-01T03:47:25.000Z</time>
      </trkpt>
      <trkpt lat="42.640602" lon="0.649689">
        <ele>3141.1</ele>
        <time>1970-01-01T03:47:26.000Z</time>
      </trkpt>
      <trkpt lat="42.640601" lon="0.64969">
        <ele>3141.1</ele>
        <time>1970-01-01T03:47:27.000Z</time>
      </trkpt>
      <trkpt lat="42.640601" lon="0.649693">
        <ele>3141.1</ele>
        <time>1970-01-01T03:47:29.000Z</time>
      </trkpt>
      <trkpt lat="42.640601" lon="0.649696">
        <ele>3141.1</ele>
        <time>1970-01-01T03:47:31.000Z</time>
      </trkpt>
      <trkpt lat="42.640601" lon="0.649697">
        <ele>3141.1</ele>
        <time>1970-01-01T03:47:32.000Z</time>
      </trkpt>
      <trkpt lat="42.6406" lon="0.649699">
        <ele>3141.2</ele>
        <time>1970-01-01T03:47:33.000Z</time>
      </trkpt>
      <trkpt lat="42.640598" lon="0.6497">
        <ele>3141.3</ele>
        <time>1970-01-01T03:47:34.000Z</time>
      </trkpt>
      <trkpt lat="42.640595" lon="0.649702">
        <ele>3141.3</ele>
        <time>1970-01-01T03:47:35.000Z</time>
      </trkpt>
      <trkpt lat="42.640588" lon="0.649704">
        <ele>3141.4</ele>
        <time>1970-01-01T03:47:36.000Z</time>
      </trkpt>
      <trkpt lat="42.640579" lon="0.649705">
        <ele>3141.5</ele>
        <time>1970-01-01T03:47:37.000Z</time>
      </trkpt>
      <trkpt lat="42.640572" lon="0.649707">
        <ele>3141.6</ele>
        <time>1970-01-01T03:47:38.000Z</time>
      </trkpt>
      <trkpt lat="42.640565" lon="0.649714">
        <ele>3141.7</ele>
        <time>1970-01-01T03:47:39.000Z</time>
      </trkpt>
      <trkpt lat="42.640563" lon="0.649723">
        <ele>3141.9</ele>
        <time>1970-01-01T03:47:41.000Z</time>
      </trkpt>
      <trkpt lat="42.640562" lon="0.649725">
        <ele>3142</ele>
        <time>1970-01-01T03:47:42.000Z</time>
      </trkpt>
      <trkpt lat="42.640557" lon="0.64973">
        <ele>3142</ele>
        <time>1970-01-01T03:47:44.000Z</time>
      </trkpt>
      <trkpt lat="42.64055" lon="0.649732">
        <ele>3142.1</ele>
        <time>1970-01-01T03:47:45.000Z</time>
      </trkpt>
      <trkpt lat="42.640542" lon="0.649731">
        <ele>3142.2</ele>
        <time>1970-01-01T03:47:46.000Z</time>
      </trkpt>
      <trkpt lat="42.640531" lon="0.649733">
        <ele>3142.4</ele>
        <time>1970-01-01T03:47:47.000Z</time>
      </trkpt>
      <trkpt lat="42.640521" lon="0.649737">
        <ele>3142.5</ele>
        <time>1970-01-01T03:47:49.000Z</time>
      </trkpt>
      <trkpt lat="42.640508" lon="0.649742">
        <ele>3142.7</ele>
        <time>1970-01-01T03:47:50.000Z</time>
      </trkpt>
      <trkpt lat="42.640495" lon="0.649747">
        <ele>3142.9</ele>
        <time>1970-01-01T03:47:51.000Z</time>
      </trkpt>
      <trkpt lat="42.640482" lon="0.649754">
        <ele>3143.1</ele>
        <time>1970-01-01T03:47:53.000Z</time>
      </trkpt>
      <trkpt lat="42.640478" lon="0.649764">
        <ele>3143.2</ele>
        <time>1970-01-01T03:47:55.000Z</time>
      </trkpt>
      <trkpt lat="42.640476" lon="0.649769">
        <ele>3143.3</ele>
        <time>1970-01-01T03:47:56.000Z</time>
      </trkpt>
      <trkpt lat="42.64047" lon="0.649774">
        <ele>3143.4</ele>
        <time>1970-01-01T03:47:57.000Z</time>
      </trkpt>
      <trkpt lat="42.640461" lon="0.649778">
        <ele>3143.5</ele>
        <time>1970-01-01T03:47:58.000Z</time>
      </trkpt>
      <trkpt lat="42.640454" lon="0.649781">
        <ele>3143.6</ele>
        <time>1970-01-01T03:47:59.000Z</time>
      </trkpt>
      <trkpt lat="42.640435" lon="0.649786">
        <ele>3143.9</ele>
        <time>1970-01-01T03:48:00.000Z</time>
      </trkpt>
      <trkpt lat="42.640427" lon="0.649789">
        <ele>3144</ele>
        <time>1970-01-01T03:48:02.000Z</time>
      </trkpt>
      <trkpt lat="42.640419" lon="0.649792">
        <ele>3144.1</ele>
        <time>1970-01-01T03:48:03.000Z</time>
      </trkpt>
      <trkpt lat="42.64041" lon="0.649795">
        <ele>3144.4</ele>
        <time>1970-01-01T03:48:04.000Z</time>
      </trkpt>
      <trkpt lat="42.640405" lon="0.649799">
        <ele>3144.4</ele>
        <time>1970-01-01T03:48:05.000Z</time>
      </trkpt>
      <trkpt lat="42.640397" lon="0.649809">
        <ele>3144.6</ele>
        <time>1970-01-01T03:48:06.000Z</time>
      </trkpt>
      <trkpt lat="42.640389" lon="0.649819">
        <ele>3144.8</ele>
        <time>1970-01-01T03:48:08.000Z</time>
      </trkpt>
      <trkpt lat="42.640383" lon="0.649827">
        <ele>3144.9</ele>
        <time>1970-01-01T03:48:09.000Z</time>
      </trkpt>
      <trkpt lat="42.640375" lon="0.64984">
        <ele>3145.1</ele>
        <time>1970-01-01T03:48:10.000Z</time>
      </trkpt>
      <trkpt lat="42.640369" lon="0.649851">
        <ele>3145.3</ele>
        <time>1970-01-01T03:48:12.000Z</time>
      </trkpt>
      <trkpt lat="42.640363" lon="0.649862">
        <ele>3145.4</ele>
        <time>1970-01-01T03:48:13.000Z</time>
      </trkpt>
      <trkpt lat="42.64036" lon="0.649873">
        <ele>3145.6</ele>
        <time>1970-01-01T03:48:14.000Z</time>
      </trkpt>
      <trkpt lat="42.640355" lon="0.649886">
        <ele>3145.8</ele>
        <time>1970-01-01T03:48:16.000Z</time>
      </trkpt>
      <trkpt lat="42.640351" lon="0.649898">
        <ele>3146</ele>
        <time>1970-01-01T03:48:17.000Z</time>
      </trkpt>
      <trkpt lat="42.640347" lon="0.649911">
        <ele>3146.2</ele>
        <time>1970-01-01T03:48:18.000Z</time>
      </trkpt>
      <trkpt lat="42.640344" lon="0.649921">
        <ele>3146.3</ele>
        <time>1970-01-01T03:48:19.000Z</time>
      </trkpt>
      <trkpt lat="42.640336" lon="0.649925">
        <ele>3146.5</ele>
        <time>1970-01-01T03:48:21.000Z</time>
      </trkpt>
      <trkpt lat="42.640327" lon="0.649921">
        <ele>3146.6</ele>
        <time>1970-01-01T03:48:22.000Z</time>
      </trkpt>
      <trkpt lat="42.640321" lon="0.649911">
        <ele>3146.8</ele>
        <time>1970-01-01T03:48:23.000Z</time>
      </trkpt>
      <trkpt lat="42.640317" lon="0.649903">
        <ele>3146.9</ele>
        <time>1970-01-01T03:48:24.000Z</time>
      </trkpt>
      <trkpt lat="42.640311" lon="0.649895">
        <ele>3147.1</ele>
        <time>1970-01-01T03:48:25.000Z</time>
      </trkpt>
      <trkpt lat="42.640305" lon="0.649886">
        <ele>3147.3</ele>
        <time>1970-01-01T03:48:27.000Z</time>
      </trkpt>
      <trkpt lat="42.6403" lon="0.649878">
        <ele>3147.4</ele>
        <time>1970-01-01T03:48:28.000Z</time>
      </trkpt>
      <trkpt lat="42.640296" lon="0.649875">
        <ele>3147.5</ele>
        <time>1970-01-01T03:48:29.000Z</time>
      </trkpt>
      <trkpt lat="42.64029" lon="0.649883">
        <ele>3147.7</ele>
        <time>1970-01-01T03:48:30.000Z</time>
      </trkpt>
      <trkpt lat="42.640286" lon="0.649893">
        <ele>3147.9</ele>
        <time>1970-01-01T03:48:32.000Z</time>
      </trkpt>
      <trkpt lat="42.640281" lon="0.649905">
        <ele>3148</ele>
        <time>1970-01-01T03:48:33.000Z</time>
      </trkpt>
      <trkpt lat="42.640273" lon="0.649912">
        <ele>3148.2</ele>
        <time>1970-01-01T03:48:35.000Z</time>
      </trkpt>
      <trkpt lat="42.640268" lon="0.649912">
        <ele>3148.3</ele>
        <time>1970-01-01T03:48:36.000Z</time>
      </trkpt>
      <trkpt lat="42.640264" lon="0.649911">
        <ele>3148.5</ele>
        <time>1970-01-01T03:48:37.000Z</time>
      </trkpt>
      <trkpt lat="42.640259" lon="0.649914">
        <ele>3148.5</ele>
        <time>1970-01-01T03:48:38.000Z</time>
      </trkpt>
      <trkpt lat="42.640252" lon="0.649919">
        <ele>3148.7</ele>
        <time>1970-01-01T03:48:40.000Z</time>
      </trkpt>
      <trkpt lat="42.640249" lon="0.649922">
        <ele>3148.7</ele>
        <time>1970-01-01T03:48:41.000Z</time>
      </trkpt>
      <trkpt lat="42.640243" lon="0.649924">
        <ele>3148.9</ele>
        <time>1970-01-01T03:48:43.000Z</time>
      </trkpt>
      <trkpt lat="42.640239" lon="0.649925">
        <ele>3149</ele>
        <time>1970-01-01T03:48:44.000Z</time>
      </trkpt>
      <trkpt lat="42.640236" lon="0.649924">
        <ele>3149</ele>
        <time>1970-01-01T03:48:45.000Z</time>
      </trkpt>
      <trkpt lat="42.64023" lon="0.649926">
        <ele>3149.1</ele>
        <time>1970-01-01T03:48:47.000Z</time>
      </trkpt>
      <trkpt lat="42.640221" lon="0.649929">
        <ele>3149.3</ele>
        <time>1970-01-01T03:48:48.000Z</time>
      </trkpt>
      <trkpt lat="42.640216" lon="0.649931">
        <ele>3149.4</ele>
        <time>1970-01-01T03:48:49.000Z</time>
      </trkpt>
      <trkpt lat="42.640207" lon="0.649934">
        <ele>3149.5</ele>
        <time>1970-01-01T03:48:50.000Z</time>
      </trkpt>
      <trkpt lat="42.640197" lon="0.649935">
        <ele>3149.7</ele>
        <time>1970-01-01T03:48:52.000Z</time>
      </trkpt>
      <trkpt lat="42.640191" lon="0.649934">
        <ele>3149.8</ele>
        <time>1970-01-01T03:48:53.000Z</time>
      </trkpt>
      <trkpt lat="42.640186" lon="0.649933">
        <ele>3149.8</ele>
        <time>1970-01-01T03:48:54.000Z</time>
      </trkpt>
      <trkpt lat="42.64018" lon="0.649932">
        <ele>3149.9</ele>
        <time>1970-01-01T03:48:56.000Z</time>
      </trkpt>
      <trkpt lat="42.640175" lon="0.649931">
        <ele>3150</ele>
        <time>1970-01-01T03:48:57.000Z</time>
      </trkpt>
      <trkpt lat="42.64017" lon="0.649931">
        <ele>3150.1</ele>
        <time>1970-01-01T03:48:58.000Z</time>
      </trkpt>
      <trkpt lat="42.640166" lon="0.649932">
        <ele>3150.1</ele>
        <time>1970-01-01T03:48:59.000Z</time>
      </trkpt>
      <trkpt lat="42.64016" lon="0.649934">
        <ele>3150.2</ele>
        <time>1970-01-01T03:49:01.000Z</time>
      </trkpt>
      <trkpt lat="42.640154" lon="0.649938">
        <ele>3150.3</ele>
        <time>1970-01-01T03:49:02.000Z</time>
      </trkpt>
      <trkpt lat="42.640149" lon="0.649947">
        <ele>3150.5</ele>
        <time>1970-01-01T03:49:03.000Z</time>
      </trkpt>
      <trkpt lat="42.640149" lon="0.649953">
        <ele>3150.5</ele>
        <time>1970-01-01T03:49:04.000Z</time>
      </trkpt>
      <trkpt lat="42.640149" lon="0.649967">
        <ele>3150.7</ele>
        <time>1970-01-01T03:49:06.000Z</time>
      </trkpt>
      <trkpt lat="42.640148" lon="0.649972">
        <ele>3150.7</ele>
        <time>1970-01-01T03:49:07.000Z</time>
      </trkpt>
      <trkpt lat="42.640147" lon="0.649978">
        <ele>3150.8</ele>
        <time>1970-01-01T03:49:08.000Z</time>
      </trkpt>
      <trkpt lat="42.640147" lon="0.649986">
        <ele>3150.9</ele>
        <time>1970-01-01T03:49:09.000Z</time>
      </trkpt>
      <trkpt lat="42.640147" lon="0.649994">
        <ele>3150.9</ele>
        <time>1970-01-01T03:49:10.000Z</time>
      </trkpt>
      <trkpt lat="42.640147" lon="0.650002">
        <ele>3151</ele>
        <time>1970-01-01T03:49:11.000Z</time>
      </trkpt>
      <trkpt lat="42.640146" lon="0.650007">
        <ele>3151.1</ele>
        <time>1970-01-01T03:49:12.000Z</time>
      </trkpt>
      <trkpt lat="42.640147" lon="0.650015">
        <ele>3151.2</ele>
        <time>1970-01-01T03:49:13.000Z</time>
      </trkpt>
      <trkpt lat="42.640148" lon="0.650022">
        <ele>3151.2</ele>
        <time>1970-01-01T03:49:15.000Z</time>
      </trkpt>
      <trkpt lat="42.640145" lon="0.650028">
        <ele>3151.3</ele>
        <time>1970-01-01T03:49:16.000Z</time>
      </trkpt>
      <trkpt lat="42.640133" lon="0.650034">
        <ele>3151.5</ele>
        <time>1970-01-01T03:49:18.000Z</time>
      </trkpt>
      <trkpt lat="42.640124" lon="0.650043">
        <ele>3151.6</ele>
        <time>1970-01-01T03:49:19.000Z</time>
      </trkpt>
      <trkpt lat="42.640118" lon="0.650054">
        <ele>3151.8</ele>
        <time>1970-01-01T03:49:20.000Z</time>
      </trkpt>
      <trkpt lat="42.640115" lon="0.65007">
        <ele>3151.9</ele>
        <time>1970-01-01T03:49:22.000Z</time>
      </trkpt>
      <trkpt lat="42.640111" lon="0.650081">
        <ele>3152</ele>
        <time>1970-01-01T03:49:23.000Z</time>
      </trkpt>
      <trkpt lat="42.640096" lon="0.6501">
        <ele>3152.3</ele>
        <time>1970-01-01T03:49:24.000Z</time>
      </trkpt>
      <trkpt lat="42.640091" lon="0.650108">
        <ele>3152.4</ele>
        <time>1970-01-01T03:49:26.000Z</time>
      </trkpt>
      <trkpt lat="42.640085" lon="0.650116">
        <ele>3152.5</ele>
        <time>1970-01-01T03:49:27.000Z</time>
      </trkpt>
      <trkpt lat="42.640074" lon="0.650131">
        <ele>3152.7</ele>
        <time>1970-01-01T03:49:28.000Z</time>
      </trkpt>
      <trkpt lat="42.640069" lon="0.650138">
        <ele>3152.8</ele>
        <time>1970-01-01T03:49:29.000Z</time>
      </trkpt>
      <trkpt lat="42.640063" lon="0.650145">
        <ele>3152.9</ele>
        <time>1970-01-01T03:49:30.000Z</time>
      </trkpt>
      <trkpt lat="42.640058" lon="0.650152">
        <ele>3153</ele>
        <time>1970-01-01T03:49:31.000Z</time>
      </trkpt>
      <trkpt lat="42.640049" lon="0.650164">
        <ele>3153.1</ele>
        <time>1970-01-01T03:49:33.000Z</time>
      </trkpt>
      <trkpt lat="42.640043" lon="0.650173">
        <ele>3153.2</ele>
        <time>1970-01-01T03:49:34.000Z</time>
      </trkpt>
      <trkpt lat="42.64004" lon="0.650181">
        <ele>3153.3</ele>
        <time>1970-01-01T03:49:35.000Z</time>
      </trkpt>
      <trkpt lat="42.640038" lon="0.650188">
        <ele>3153.4</ele>
        <time>1970-01-01T03:49:36.000Z</time>
      </trkpt>
      <trkpt lat="42.640036" lon="0.650197">
        <ele>3153.4</ele>
        <time>1970-01-01T03:49:37.000Z</time>
      </trkpt>
      <trkpt lat="42.640034" lon="0.650206">
        <ele>3153.5</ele>
        <time>1970-01-01T03:49:38.000Z</time>
      </trkpt>
      <trkpt lat="42.640031" lon="0.650217">
        <ele>3153.6</ele>
        <time>1970-01-01T03:49:39.000Z</time>
      </trkpt>
      <trkpt lat="42.640019" lon="0.650233">
        <ele>3153.8</ele>
        <time>1970-01-01T03:49:41.000Z</time>
      </trkpt>
      <trkpt lat="42.640013" lon="0.65024">
        <ele>3153.9</ele>
        <time>1970-01-01T03:49:42.000Z</time>
      </trkpt>
      <trkpt lat="42.640008" lon="0.650246">
        <ele>3154</ele>
        <time>1970-01-01T03:49:43.000Z</time>
      </trkpt>
      <trkpt lat="42.640002" lon="0.650253">
        <ele>3154.1</ele>
        <time>1970-01-01T03:49:44.000Z</time>
      </trkpt>
      <trkpt lat="42.639992" lon="0.65026">
        <ele>3154.2</ele>
        <time>1970-01-01T03:49:46.000Z</time>
      </trkpt>
      <trkpt lat="42.639977" lon="0.650267">
        <ele>3154.4</ele>
        <time>1970-01-01T03:49:47.000Z</time>
      </trkpt>
      <trkpt lat="42.639967" lon="0.650279">
        <ele>3154.5</ele>
        <time>1970-01-01T03:49:49.000Z</time>
      </trkpt>
      <trkpt lat="42.639962" lon="0.650286">
        <ele>3154.6</ele>
        <time>1970-01-01T03:49:50.000Z</time>
      </trkpt>
      <trkpt lat="42.639957" lon="0.650292">
        <ele>3154.7</ele>
        <time>1970-01-01T03:49:51.000Z</time>
      </trkpt>
      <trkpt lat="42.639953" lon="0.650297">
        <ele>3154.8</ele>
        <time>1970-01-01T03:49:52.000Z</time>
      </trkpt>
      <trkpt lat="42.639948" lon="0.650307">
        <ele>3154.9</ele>
        <time>1970-01-01T03:49:53.000Z</time>
      </trkpt>
      <trkpt lat="42.639942" lon="0.650314">
        <ele>3155</ele>
        <time>1970-01-01T03:49:55.000Z</time>
      </trkpt>
      <trkpt lat="42.639933" lon="0.650316">
        <ele>3155.1</ele>
        <time>1970-01-01T03:49:56.000Z</time>
      </trkpt>
      <trkpt lat="42.639927" lon="0.650316">
        <ele>3155.1</ele>
        <time>1970-01-01T03:49:57.000Z</time>
      </trkpt>
      <trkpt lat="42.639921" lon="0.650316">
        <ele>3155.2</ele>
        <time>1970-01-01T03:49:58.000Z</time>
      </trkpt>
      <trkpt lat="42.639916" lon="0.650318">
        <ele>3155.2</ele>
        <time>1970-01-01T03:49:59.000Z</time>
      </trkpt>
      <trkpt lat="42.639909" lon="0.650319">
        <ele>3155.3</ele>
        <time>1970-01-01T03:50:00.000Z</time>
      </trkpt>
      <trkpt lat="42.639901" lon="0.650318">
        <ele>3155.4</ele>
        <time>1970-01-01T03:50:01.000Z</time>
      </trkpt>
      <trkpt lat="42.639895" lon="0.650318">
        <ele>3155.5</ele>
        <time>1970-01-01T03:50:02.000Z</time>
      </trkpt>
      <trkpt lat="42.639887" lon="0.65032">
        <ele>3155.6</ele>
        <time>1970-01-01T03:50:04.000Z</time>
      </trkpt>
      <trkpt lat="42.639888" lon="0.650318">
        <ele>3155.6</ele>
        <time>1970-01-01T03:50:06.000Z</time>
      </trkpt>
      <trkpt lat="42.639886" lon="0.650318">
        <ele>3155.6</ele>
        <time>1970-01-01T03:50:07.000Z</time>
      </trkpt>
      <trkpt lat="42.639884" lon="0.650319">
        <ele>3155.6</ele>
        <time>1970-01-01T03:50:08.000Z</time>
      </trkpt>
      <trkpt lat="42.63988" lon="0.650321">
        <ele>3155.7</ele>
        <time>1970-01-01T03:50:09.000Z</time>
      </trkpt>
      <trkpt lat="42.639877" lon="0.650323">
        <ele>3155.7</ele>
        <time>1970-01-01T03:50:10.000Z</time>
      </trkpt>
      <trkpt lat="42.639874" lon="0.650324">
        <ele>3155.7</ele>
        <time>1970-01-01T03:50:11.000Z</time>
      </trkpt>
      <trkpt lat="42.639872" lon="0.650326">
        <ele>3155.8</ele>
        <time>1970-01-01T03:50:12.000Z</time>
      </trkpt>
      <trkpt lat="42.639866" lon="0.650329">
        <ele>3155.8</ele>
        <time>1970-01-01T03:50:14.000Z</time>
      </trkpt>
      <trkpt lat="42.639864" lon="0.650332">
        <ele>3155.9</ele>
        <time>1970-01-01T03:50:15.000Z</time>
      </trkpt>
      <trkpt lat="42.639863" lon="0.650337">
        <ele>3155.9</ele>
        <time>1970-01-01T03:50:17.000Z</time>
      </trkpt>
      <trkpt lat="42.63986" lon="0.650341">
        <ele>3155.9</ele>
        <time>1970-01-01T03:50:18.000Z</time>
      </trkpt>
      <trkpt lat="42.639861" lon="0.650343">
        <ele>3156</ele>
        <time>1970-01-01T03:50:19.000Z</time>
      </trkpt>
      <trkpt lat="42.639858" lon="0.650346">
        <ele>3156</ele>
        <time>1970-01-01T03:50:21.000Z</time>
      </trkpt>
      <trkpt lat="42.639854" lon="0.650348">
        <ele>3156</ele>
        <time>1970-01-01T03:50:22.000Z</time>
      </trkpt>
      <trkpt lat="42.639851" lon="0.650349">
        <ele>3156.1</ele>
        <time>1970-01-01T03:50:23.000Z</time>
      </trkpt>
      <trkpt lat="42.639849" lon="0.650349">
        <ele>3156.1</ele>
        <time>1970-01-01T03:50:24.000Z</time>
      </trkpt>
      <trkpt lat="42.639846" lon="0.650347">
        <ele>3156.1</ele>
        <time>1970-01-01T03:50:25.000Z</time>
      </trkpt>
      <trkpt lat="42.639843" lon="0.650346">
        <ele>3156.2</ele>
        <time>1970-01-01T03:50:26.000Z</time>
      </trkpt>
      <trkpt lat="42.639837" lon="0.650345">
        <ele>3156.2</ele>
        <time>1970-01-01T03:50:28.000Z</time>
      </trkpt>
      <trkpt lat="42.639831" lon="0.650342">
        <ele>3156.3</ele>
        <time>1970-01-01T03:50:30.000Z</time>
      </trkpt>
      <trkpt lat="42.639825" lon="0.650339">
        <ele>3156.4</ele>
        <time>1970-01-01T03:50:31.000Z</time>
      </trkpt>
      <trkpt lat="42.63982" lon="0.650336">
        <ele>3156.4</ele>
        <time>1970-01-01T03:50:32.000Z</time>
      </trkpt>
      <trkpt lat="42.639813" lon="0.650338">
        <ele>3156.5</ele>
        <time>1970-01-01T03:50:33.000Z</time>
      </trkpt>
      <trkpt lat="42.639803" lon="0.650342">
        <ele>3156.6</ele>
        <time>1970-01-01T03:50:35.000Z</time>
      </trkpt>
      <trkpt lat="42.639795" lon="0.650349">
        <ele>3156.7</ele>
        <time>1970-01-01T03:50:36.000Z</time>
      </trkpt>
      <trkpt lat="42.639789" lon="0.650354">
        <ele>3156.8</ele>
        <time>1970-01-01T03:50:37.000Z</time>
      </trkpt>
      <trkpt lat="42.639783" lon="0.650359">
        <ele>3156.8</ele>
        <time>1970-01-01T03:50:38.000Z</time>
      </trkpt>
      <trkpt lat="42.639777" lon="0.650364">
        <ele>3156.9</ele>
        <time>1970-01-01T03:50:39.000Z</time>
      </trkpt>
      <trkpt lat="42.639772" lon="0.650366">
        <ele>3157</ele>
        <time>1970-01-01T03:50:40.000Z</time>
      </trkpt>
      <trkpt lat="42.639768" lon="0.650367">
        <ele>3157</ele>
        <time>1970-01-01T03:50:41.000Z</time>
      </trkpt>
      <trkpt lat="42.639763" lon="0.650367">
        <ele>3157</ele>
        <time>1970-01-01T03:50:42.000Z</time>
      </trkpt>
      <trkpt lat="42.639753" lon="0.650372">
        <ele>3157.1</ele>
        <time>1970-01-01T03:50:44.000Z</time>
      </trkpt>
      <trkpt lat="42.63975" lon="0.650378">
        <ele>3157.2</ele>
        <time>1970-01-01T03:50:45.000Z</time>
      </trkpt>
      <trkpt lat="42.639747" lon="0.650383">
        <ele>3157.2</ele>
        <time>1970-01-01T03:50:46.000Z</time>
      </trkpt>
      <trkpt lat="42.639746" lon="0.650389">
        <ele>3157.3</ele>
        <time>1970-01-01T03:50:47.000Z</time>
      </trkpt>
      <trkpt lat="42.639745" lon="0.650394">
        <ele>3157.3</ele>
        <time>1970-01-01T03:50:48.000Z</time>
      </trkpt>
      <trkpt lat="42.639743" lon="0.650397">
        <ele>3157.3</ele>
        <time>1970-01-01T03:50:49.000Z</time>
      </trkpt>
      <trkpt lat="42.63974" lon="0.6504">
        <ele>3157.4</ele>
        <time>1970-01-01T03:50:50.000Z</time>
      </trkpt>
      <trkpt lat="42.639735" lon="0.650405">
        <ele>3157.4</ele>
        <time>1970-01-01T03:50:52.000Z</time>
      </trkpt>
      <trkpt lat="42.639729" lon="0.650408">
        <ele>3157.5</ele>
        <time>1970-01-01T03:50:53.000Z</time>
      </trkpt>
      <trkpt lat="42.639723" lon="0.650411">
        <ele>3157.6</ele>
        <time>1970-01-01T03:50:54.000Z</time>
      </trkpt>
      <trkpt lat="42.639716" lon="0.650414">
        <ele>3157.6</ele>
        <time>1970-01-01T03:50:55.000Z</time>
      </trkpt>
      <trkpt lat="42.639707" lon="0.650419">
        <ele>3157.7</ele>
        <time>1970-01-01T03:50:57.000Z</time>
      </trkpt>
      <trkpt lat="42.639699" lon="0.650427">
        <ele>3157.8</ele>
        <time>1970-01-01T03:50:58.000Z</time>
      </trkpt>
      <trkpt lat="42.639695" lon="0.65043">
        <ele>3157.9</ele>
        <time>1970-01-01T03:50:59.000Z</time>
      </trkpt>
      <trkpt lat="42.639693" lon="0.650431">
        <ele>3157.9</ele>
        <time>1970-01-01T03:51:00.000Z</time>
      </trkpt>
      <trkpt lat="42.639687" lon="0.650434">
        <ele>3157.9</ele>
        <time>1970-01-01T03:51:01.000Z</time>
      </trkpt>
      <trkpt lat="42.639682" lon="0.650437">
        <ele>3158</ele>
        <time>1970-01-01T03:51:02.000Z</time>
      </trkpt>
      <trkpt lat="42.639676" lon="0.650438">
        <ele>3158</ele>
        <time>1970-01-01T03:51:04.000Z</time>
      </trkpt>
      <trkpt lat="42.639671" lon="0.650438">
        <ele>3158.1</ele>
        <time>1970-01-01T03:51:05.000Z</time>
      </trkpt>
      <trkpt lat="42.639666" lon="0.650436">
        <ele>3158.1</ele>
        <time>1970-01-01T03:51:06.000Z</time>
      </trkpt>
      <trkpt lat="42.63966" lon="0.650435">
        <ele>3158.2</ele>
        <time>1970-01-01T03:51:07.000Z</time>
      </trkpt>
      <trkpt lat="42.639657" lon="0.650437">
        <ele>3158.2</ele>
        <time>1970-01-01T03:51:08.000Z</time>
      </trkpt>
      <trkpt lat="42.639655" lon="0.650441">
        <ele>3158.3</ele>
        <time>1970-01-01T03:51:09.000Z</time>
      </trkpt>
      <trkpt lat="42.639649" lon="0.650447">
        <ele>3158.3</ele>
        <time>1970-01-01T03:51:11.000Z</time>
      </trkpt>
      <trkpt lat="42.639647" lon="0.65045">
        <ele>3158.4</ele>
        <time>1970-01-01T03:51:12.000Z</time>
      </trkpt>
      <trkpt lat="42.639638" lon="0.650455">
        <ele>3158.4</ele>
        <time>1970-01-01T03:51:13.000Z</time>
      </trkpt>
      <trkpt lat="42.63963" lon="0.650461">
        <ele>3158.5</ele>
        <time>1970-01-01T03:51:15.000Z</time>
      </trkpt>
      <trkpt lat="42.639626" lon="0.650471">
        <ele>3158.6</ele>
        <time>1970-01-01T03:51:16.000Z</time>
      </trkpt>
      <trkpt lat="42.639626" lon="0.650484">
        <ele>3158.7</ele>
        <time>1970-01-01T03:51:18.000Z</time>
      </trkpt>
      <trkpt lat="42.63963" lon="0.65049">
        <ele>3158.7</ele>
        <time>1970-01-01T03:51:19.000Z</time>
      </trkpt>
      <trkpt lat="42.639628" lon="0.650495">
        <ele>3158.8</ele>
        <time>1970-01-01T03:51:20.000Z</time>
      </trkpt>
      <trkpt lat="42.639624" lon="0.650499">
        <ele>3158.8</ele>
        <time>1970-01-01T03:51:21.000Z</time>
      </trkpt>
      <trkpt lat="42.639619" lon="0.650503">
        <ele>3158.9</ele>
        <time>1970-01-01T03:51:22.000Z</time>
      </trkpt>
      <trkpt lat="42.639614" lon="0.650506">
        <ele>3158.9</ele>
        <time>1970-01-01T03:51:23.000Z</time>
      </trkpt>
      <trkpt lat="42.63961" lon="0.65051">
        <ele>3158.9</ele>
        <time>1970-01-01T03:51:25.000Z</time>
      </trkpt>
      <trkpt lat="42.639605" lon="0.650514">
        <ele>3159</ele>
        <time>1970-01-01T03:51:26.000Z</time>
      </trkpt>
      <trkpt lat="42.6396" lon="0.650518">
        <ele>3159</ele>
        <time>1970-01-01T03:51:27.000Z</time>
      </trkpt>
      <trkpt lat="42.639591" lon="0.650525">
        <ele>3159.1</ele>
        <time>1970-01-01T03:51:29.000Z</time>
      </trkpt>
      <trkpt lat="42.639578" lon="0.650527">
        <ele>3159.2</ele>
        <time>1970-01-01T03:51:31.000Z</time>
      </trkpt>
      <trkpt lat="42.639566" lon="0.650531">
        <ele>3159.4</ele>
        <time>1970-01-01T03:51:32.000Z</time>
      </trkpt>
      <trkpt lat="42.639559" lon="0.650533">
        <ele>3159.4</ele>
        <time>1970-01-01T03:51:33.000Z</time>
      </trkpt>
      <trkpt lat="42.639553" lon="0.650536">
        <ele>3159.5</ele>
        <time>1970-01-01T03:51:34.000Z</time>
      </trkpt>
      <trkpt lat="42.639546" lon="0.650539">
        <ele>3159.5</ele>
        <time>1970-01-01T03:51:35.000Z</time>
      </trkpt>
      <trkpt lat="42.639535" lon="0.650544">
        <ele>3159.6</ele>
        <time>1970-01-01T03:51:37.000Z</time>
      </trkpt>
      <trkpt lat="42.639526" lon="0.650547">
        <ele>3159.7</ele>
        <time>1970-01-01T03:51:38.000Z</time>
      </trkpt>
      <trkpt lat="42.639518" lon="0.65055">
        <ele>3159.8</ele>
        <time>1970-01-01T03:51:39.000Z</time>
      </trkpt>
      <trkpt lat="42.639507" lon="0.650555">
        <ele>3159.9</ele>
        <time>1970-01-01T03:51:40.000Z</time>
      </trkpt>
      <trkpt lat="42.639499" lon="0.650557">
        <ele>3159.9</ele>
        <time>1970-01-01T03:51:42.000Z</time>
      </trkpt>
      <trkpt lat="42.639491" lon="0.650549">
        <ele>3160</ele>
        <time>1970-01-01T03:51:43.000Z</time>
      </trkpt>
      <trkpt lat="42.639489" lon="0.650541">
        <ele>3160.1</ele>
        <time>1970-01-01T03:51:44.000Z</time>
      </trkpt>
      <trkpt lat="42.639489" lon="0.65054">
        <ele>3160.1</ele>
        <time>1970-01-01T03:51:45.000Z</time>
      </trkpt>
      <trkpt lat="42.639491" lon="0.65054">
        <ele>3160.1</ele>
        <time>1970-01-01T03:51:46.000Z</time>
      </trkpt>
      <trkpt lat="42.639495" lon="0.650541">
        <ele>3160.2</ele>
        <time>1970-01-01T03:51:47.000Z</time>
      </trkpt>
      <trkpt lat="42.639495" lon="0.650544">
        <ele>3160.2</ele>
        <time>1970-01-01T03:51:48.000Z</time>
      </trkpt>
      <trkpt lat="42.639489" lon="0.650549">
        <ele>3160.2</ele>
        <time>1970-01-01T03:51:50.000Z</time>
      </trkpt>
      <trkpt lat="42.639481" lon="0.650558">
        <ele>3160.3</ele>
        <time>1970-01-01T03:51:51.000Z</time>
      </trkpt>
      <trkpt lat="42.639474" lon="0.650567">
        <ele>3160.4</ele>
        <time>1970-01-01T03:51:52.000Z</time>
      </trkpt>
      <trkpt lat="42.639466" lon="0.650577">
        <ele>3160.5</ele>
        <time>1970-01-01T03:51:53.000Z</time>
      </trkpt>
      <trkpt lat="42.63946" lon="0.650586">
        <ele>3160.6</ele>
        <time>1970-01-01T03:51:54.000Z</time>
      </trkpt>
      <trkpt lat="42.639453" lon="0.650597">
        <ele>3160.7</ele>
        <time>1970-01-01T03:51:55.000Z</time>
      </trkpt>
      <trkpt lat="42.639447" lon="0.650604">
        <ele>3160.7</ele>
        <time>1970-01-01T03:51:56.000Z</time>
      </trkpt>
      <trkpt lat="42.639433" lon="0.650608">
        <ele>3160.9</ele>
        <time>1970-01-01T03:51:58.000Z</time>
      </trkpt>
      <trkpt lat="42.639423" lon="0.650612">
        <ele>3161</ele>
        <time>1970-01-01T03:51:59.000Z</time>
      </trkpt>
      <trkpt lat="42.639416" lon="0.650616">
        <ele>3161</ele>
        <time>1970-01-01T03:52:00.000Z</time>
      </trkpt>
      <trkpt lat="42.639411" lon="0.65062">
        <ele>3161.1</ele>
        <time>1970-01-01T03:52:01.000Z</time>
      </trkpt>
      <trkpt lat="42.639404" lon="0.650628">
        <ele>3161.2</ele>
        <time>1970-01-01T03:52:02.000Z</time>
      </trkpt>
      <trkpt lat="42.639395" lon="0.65064">
        <ele>3161.3</ele>
        <time>1970-01-01T03:52:04.000Z</time>
      </trkpt>
      <trkpt lat="42.63939" lon="0.65065">
        <ele>3161.3</ele>
        <time>1970-01-01T03:52:05.000Z</time>
      </trkpt>
      <trkpt lat="42.639381" lon="0.650659">
        <ele>3161.4</ele>
        <time>1970-01-01T03:52:06.000Z</time>
      </trkpt>
      <trkpt lat="42.639372" lon="0.650666">
        <ele>3161.5</ele>
        <time>1970-01-01T03:52:07.000Z</time>
      </trkpt>
      <trkpt lat="42.639361" lon="0.650669">
        <ele>3161.6</ele>
        <time>1970-01-01T03:52:09.000Z</time>
      </trkpt>
      <trkpt lat="42.63935" lon="0.650669">
        <ele>3161.7</ele>
        <time>1970-01-01T03:52:10.000Z</time>
      </trkpt>
      <trkpt lat="42.63934" lon="0.650669">
        <ele>3161.8</ele>
        <time>1970-01-01T03:52:11.000Z</time>
      </trkpt>
      <trkpt lat="42.639331" lon="0.650671">
        <ele>3161.8</ele>
        <time>1970-01-01T03:52:12.000Z</time>
      </trkpt>
      <trkpt lat="42.639322" lon="0.650675">
        <ele>3161.9</ele>
        <time>1970-01-01T03:52:13.000Z</time>
      </trkpt>
      <trkpt lat="42.63931" lon="0.650683">
        <ele>3162</ele>
        <time>1970-01-01T03:52:15.000Z</time>
      </trkpt>
      <trkpt lat="42.639301" lon="0.650687">
        <ele>3162.1</ele>
        <time>1970-01-01T03:52:16.000Z</time>
      </trkpt>
      <trkpt lat="42.639291" lon="0.650692">
        <ele>3162.2</ele>
        <time>1970-01-01T03:52:17.000Z</time>
      </trkpt>
      <trkpt lat="42.639285" lon="0.650695">
        <ele>3162.2</ele>
        <time>1970-01-01T03:52:18.000Z</time>
      </trkpt>
      <trkpt lat="42.639279" lon="0.650699">
        <ele>3162.3</ele>
        <time>1970-01-01T03:52:19.000Z</time>
      </trkpt>
      <trkpt lat="42.639269" lon="0.650705">
        <ele>3162.4</ele>
        <time>1970-01-01T03:52:20.000Z</time>
      </trkpt>
      <trkpt lat="42.639259" lon="0.650711">
        <ele>3162.4</ele>
        <time>1970-01-01T03:52:22.000Z</time>
      </trkpt>
      <trkpt lat="42.63925" lon="0.650717">
        <ele>3162.5</ele>
        <time>1970-01-01T03:52:23.000Z</time>
      </trkpt>
      <trkpt lat="42.639241" lon="0.650724">
        <ele>3162.6</ele>
        <time>1970-01-01T03:52:24.000Z</time>
      </trkpt>
      <trkpt lat="42.639233" lon="0.650732">
        <ele>3162.6</ele>
        <time>1970-01-01T03:52:25.000Z</time>
      </trkpt>
      <trkpt lat="42.639225" lon="0.650741">
        <ele>3162.7</ele>
        <time>1970-01-01T03:52:27.000Z</time>
      </trkpt>
      <trkpt lat="42.639218" lon="0.650748">
        <ele>3162.8</ele>
        <time>1970-01-01T03:52:28.000Z</time>
      </trkpt>
      <trkpt lat="42.63921" lon="0.650754">
        <ele>3162.8</ele>
        <time>1970-01-01T03:52:29.000Z</time>
      </trkpt>
      <trkpt lat="42.639201" lon="0.650756">
        <ele>3162.9</ele>
        <time>1970-01-01T03:52:30.000Z</time>
      </trkpt>
      <trkpt lat="42.639194" lon="0.650755">
        <ele>3162.9</ele>
        <time>1970-01-01T03:52:31.000Z</time>
      </trkpt>
      <trkpt lat="42.639184" lon="0.650752">
        <ele>3163</ele>
        <time>1970-01-01T03:52:32.000Z</time>
      </trkpt>
      <trkpt lat="42.639175" lon="0.650752">
        <ele>3163.1</ele>
        <time>1970-01-01T03:52:34.000Z</time>
      </trkpt>
      <trkpt lat="42.639166" lon="0.650754">
        <ele>3163.1</ele>
        <time>1970-01-01T03:52:35.000Z</time>
      </trkpt>
      <trkpt lat="42.639162" lon="0.650756">
        <ele>3163.2</ele>
        <time>1970-01-01T03:52:36.000Z</time>
      </trkpt>
      <trkpt lat="42.639156" lon="0.650763">
        <ele>3163.2</ele>
        <time>1970-01-01T03:52:37.000Z</time>
      </trkpt>
      <trkpt lat="42.639147" lon="0.650769">
        <ele>3163.3</ele>
        <time>1970-01-01T03:52:39.000Z</time>
      </trkpt>
      <trkpt lat="42.639139" lon="0.650774">
        <ele>3163.3</ele>
        <time>1970-01-01T03:52:40.000Z</time>
      </trkpt>
      <trkpt lat="42.639134" lon="0.650777">
        <ele>3163.3</ele>
        <time>1970-01-01T03:52:41.000Z</time>
      </trkpt>
      <trkpt lat="42.639126" lon="0.650782">
        <ele>3163.4</ele>
        <time>1970-01-01T03:52:42.000Z</time>
      </trkpt>
      <trkpt lat="42.639115" lon="0.650787">
        <ele>3163.5</ele>
        <time>1970-01-01T03:52:44.000Z</time>
      </trkpt>
      <trkpt lat="42.639108" lon="0.650791">
        <ele>3163.5</ele>
        <time>1970-01-01T03:52:45.000Z</time>
      </trkpt>
      <trkpt lat="42.639103" lon="0.650795">
        <ele>3163.6</ele>
        <time>1970-01-01T03:52:46.000Z</time>
      </trkpt>
      <trkpt lat="42.639094" lon="0.6508">
        <ele>3163.6</ele>
        <time>1970-01-01T03:52:47.000Z</time>
      </trkpt>
      <trkpt lat="42.639085" lon="0.650804">
        <ele>3163.7</ele>
        <time>1970-01-01T03:52:49.000Z</time>
      </trkpt>
      <trkpt lat="42.639076" lon="0.650807">
        <ele>3163.7</ele>
        <time>1970-01-01T03:52:50.000Z</time>
      </trkpt>
      <trkpt lat="42.639071" lon="0.65081">
        <ele>3163.7</ele>
        <time>1970-01-01T03:52:51.000Z</time>
      </trkpt>
      <trkpt lat="42.639064" lon="0.650812">
        <ele>3163.8</ele>
        <time>1970-01-01T03:52:52.000Z</time>
      </trkpt>
      <trkpt lat="42.639051" lon="0.650819">
        <ele>3163.9</ele>
        <time>1970-01-01T03:52:54.000Z</time>
      </trkpt>
      <trkpt lat="42.639042" lon="0.650823">
        <ele>3163.9</ele>
        <time>1970-01-01T03:52:55.000Z</time>
      </trkpt>
      <trkpt lat="42.639032" lon="0.650827">
        <ele>3164</ele>
        <time>1970-01-01T03:52:56.000Z</time>
      </trkpt>
      <trkpt lat="42.639022" lon="0.650832">
        <ele>3164</ele>
        <time>1970-01-01T03:52:58.000Z</time>
      </trkpt>
      <trkpt lat="42.639011" lon="0.650838">
        <ele>3164.1</ele>
        <time>1970-01-01T03:52:59.000Z</time>
      </trkpt>
      <trkpt lat="42.639" lon="0.650844">
        <ele>3164.2</ele>
        <time>1970-01-01T03:53:00.000Z</time>
      </trkpt>
      <trkpt lat="42.638988" lon="0.650848">
        <ele>3164.2</ele>
        <time>1970-01-01T03:53:01.000Z</time>
      </trkpt>
      <trkpt lat="42.638976" lon="0.650854">
        <ele>3164.3</ele>
        <time>1970-01-01T03:53:03.000Z</time>
      </trkpt>
      <trkpt lat="42.638967" lon="0.650859">
        <ele>3164.3</ele>
        <time>1970-01-01T03:53:04.000Z</time>
      </trkpt>
      <trkpt lat="42.638958" lon="0.650865">
        <ele>3164.4</ele>
        <time>1970-01-01T03:53:06.000Z</time>
      </trkpt>
      <trkpt lat="42.638949" lon="0.65087">
        <ele>3164.4</ele>
        <time>1970-01-01T03:53:07.000Z</time>
      </trkpt>
      <trkpt lat="42.638942" lon="0.650873">
        <ele>3164.5</ele>
        <time>1970-01-01T03:53:08.000Z</time>
      </trkpt>
      <trkpt lat="42.638935" lon="0.650876">
        <ele>3164.5</ele>
        <time>1970-01-01T03:53:09.000Z</time>
      </trkpt>
      <trkpt lat="42.638928" lon="0.65088">
        <ele>3164.5</ele>
        <time>1970-01-01T03:53:10.000Z</time>
      </trkpt>
      <trkpt lat="42.63892" lon="0.650885">
        <ele>3164.6</ele>
        <time>1970-01-01T03:53:11.000Z</time>
      </trkpt>
      <trkpt lat="42.638912" lon="0.650889">
        <ele>3164.6</ele>
        <time>1970-01-01T03:53:13.000Z</time>
      </trkpt>
      <trkpt lat="42.638904" lon="0.650894">
        <ele>3164.7</ele>
        <time>1970-01-01T03:53:14.000Z</time>
      </trkpt>
      <trkpt lat="42.638893" lon="0.650901">
        <ele>3164.7</ele>
        <time>1970-01-01T03:53:15.000Z</time>
      </trkpt>
      <trkpt lat="42.638875" lon="0.650914">
        <ele>3164.8</ele>
        <time>1970-01-01T03:53:17.000Z</time>
      </trkpt>
      <trkpt lat="42.638868" lon="0.650919">
        <ele>3164.9</ele>
        <time>1970-01-01T03:53:18.000Z</time>
      </trkpt>
      <trkpt lat="42.638861" lon="0.650924">
        <ele>3164.9</ele>
        <time>1970-01-01T03:53:19.000Z</time>
      </trkpt>
      <trkpt lat="42.63885" lon="0.65093">
        <ele>3165</ele>
        <time>1970-01-01T03:53:20.000Z</time>
      </trkpt>
      <trkpt lat="42.63884" lon="0.650937">
        <ele>3165</ele>
        <time>1970-01-01T03:53:22.000Z</time>
      </trkpt>
      <trkpt lat="42.638831" lon="0.650945">
        <ele>3165.1</ele>
        <time>1970-01-01T03:53:23.000Z</time>
      </trkpt>
      <trkpt lat="42.638813" lon="0.650963">
        <ele>3165.2</ele>
        <time>1970-01-01T03:53:24.000Z</time>
      </trkpt>
      <trkpt lat="42.638807" lon="0.650969">
        <ele>3165.2</ele>
        <time>1970-01-01T03:53:26.000Z</time>
      </trkpt>
      <trkpt lat="42.638801" lon="0.650976">
        <ele>3165.2</ele>
        <time>1970-01-01T03:53:27.000Z</time>
      </trkpt>
      <trkpt lat="42.638794" lon="0.650982">
        <ele>3165.3</ele>
        <time>1970-01-01T03:53:28.000Z</time>
      </trkpt>
      <trkpt lat="42.638788" lon="0.650986">
        <ele>3165.3</ele>
        <time>1970-01-01T03:53:29.000Z</time>
      </trkpt>
      <trkpt lat="42.638777" lon="0.650992">
        <ele>3165.4</ele>
        <time>1970-01-01T03:53:30.000Z</time>
      </trkpt>
      <trkpt lat="42.638768" lon="0.650997">
        <ele>3165.4</ele>
        <time>1970-01-01T03:53:32.000Z</time>
      </trkpt>
      <trkpt lat="42.638758" lon="0.651002">
        <ele>3165.5</ele>
        <time>1970-01-01T03:53:33.000Z</time>
      </trkpt>
      <trkpt lat="42.638745" lon="0.651008">
        <ele>3165.5</ele>
        <time>1970-01-01T03:53:34.000Z</time>
      </trkpt>
      <trkpt lat="42.638732" lon="0.651013">
        <ele>3165.6</ele>
        <time>1970-01-01T03:53:36.000Z</time>
      </trkpt>
      <trkpt lat="42.638724" lon="0.651016">
        <ele>3165.6</ele>
        <time>1970-01-01T03:53:37.000Z</time>
      </trkpt>
      <trkpt lat="42.638716" lon="0.651019">
        <ele>3165.7</ele>
        <time>1970-01-01T03:53:38.000Z</time>
      </trkpt>
      <trkpt lat="42.638707" lon="0.651022">
        <ele>3165.7</ele>
        <time>1970-01-01T03:53:39.000Z</time>
      </trkpt>
      <trkpt lat="42.638695" lon="0.651025">
        <ele>3165.8</ele>
        <time>1970-01-01T03:53:41.000Z</time>
      </trkpt>
      <trkpt lat="42.638688" lon="0.651027">
        <ele>3165.8</ele>
        <time>1970-01-01T03:53:42.000Z</time>
      </trkpt>
      <trkpt lat="42.638681" lon="0.651029">
        <ele>3165.8</ele>
        <time>1970-01-01T03:53:43.000Z</time>
      </trkpt>
      <trkpt lat="42.638672" lon="0.651032">
        <ele>3165.9</ele>
        <time>1970-01-01T03:53:45.000Z</time>
      </trkpt>
      <trkpt lat="42.638662" lon="0.651035">
        <ele>3165.9</ele>
        <time>1970-01-01T03:53:46.000Z</time>
      </trkpt>
      <trkpt lat="42.638655" lon="0.651037">
        <ele>3166</ele>
        <time>1970-01-01T03:53:47.000Z</time>
      </trkpt>
      <trkpt lat="42.638647" lon="0.651039">
        <ele>3166</ele>
        <time>1970-01-01T03:53:48.000Z</time>
      </trkpt>
      <trkpt lat="42.638639" lon="0.65104">
        <ele>3166.1</ele>
        <time>1970-01-01T03:53:49.000Z</time>
      </trkpt>
      <trkpt lat="42.638626" lon="0.651044">
        <ele>3166.1</ele>
        <time>1970-01-01T03:53:51.000Z</time>
      </trkpt>
      <trkpt lat="42.638617" lon="0.651049">
        <ele>3166.2</ele>
        <time>1970-01-01T03:53:52.000Z</time>
      </trkpt>
      <trkpt lat="42.638611" lon="0.651053">
        <ele>3166.2</ele>
        <time>1970-01-01T03:53:53.000Z</time>
      </trkpt>
      <trkpt lat="42.638601" lon="0.651062">
        <ele>3166.3</ele>
        <time>1970-01-01T03:53:54.000Z</time>
      </trkpt>
      <trkpt lat="42.638594" lon="0.651069">
        <ele>3166.3</ele>
        <time>1970-01-01T03:53:56.000Z</time>
      </trkpt>
      <trkpt lat="42.638585" lon="0.651077">
        <ele>3166.3</ele>
        <time>1970-01-01T03:53:57.000Z</time>
      </trkpt>
      <trkpt lat="42.638577" lon="0.651083">
        <ele>3166.4</ele>
        <time>1970-01-01T03:53:58.000Z</time>
      </trkpt>
      <trkpt lat="42.638567" lon="0.65109">
        <ele>3166.5</ele>
        <time>1970-01-01T03:54:00.000Z</time>
      </trkpt>
      <trkpt lat="42.638555" lon="0.651097">
        <ele>3166.5</ele>
        <time>1970-01-01T03:54:01.000Z</time>
      </trkpt>
      <trkpt lat="42.638546" lon="0.651101">
        <ele>3166.6</ele>
        <time>1970-01-01T03:54:02.000Z</time>
      </trkpt>
      <trkpt lat="42.638539" lon="0.651103">
        <ele>3166.6</ele>
        <time>1970-01-01T03:54:03.000Z</time>
      </trkpt>
      <trkpt lat="42.638527" lon="0.651109">
        <ele>3166.7</ele>
        <time>1970-01-01T03:54:05.000Z</time>
      </trkpt>
      <trkpt lat="42.638514" lon="0.651115">
        <ele>3166.7</ele>
        <time>1970-01-01T03:54:06.000Z</time>
      </trkpt>
      <trkpt lat="42.638503" lon="0.651119">
        <ele>3166.8</ele>
        <time>1970-01-01T03:54:07.000Z</time>
      </trkpt>
      <trkpt lat="42.638489" lon="0.651124">
        <ele>3166.9</ele>
        <time>1970-01-01T03:54:09.000Z</time>
      </trkpt>
      <trkpt lat="42.638481" lon="0.651127">
        <ele>3166.9</ele>
        <time>1970-01-01T03:54:10.000Z</time>
      </trkpt>
      <trkpt lat="42.638473" lon="0.651129">
        <ele>3167</ele>
        <time>1970-01-01T03:54:11.000Z</time>
      </trkpt>
      <trkpt lat="42.638466" lon="0.651131">
        <ele>3167</ele>
        <time>1970-01-01T03:54:12.000Z</time>
      </trkpt>
      <trkpt lat="42.638455" lon="0.651134">
        <ele>3167.1</ele>
        <time>1970-01-01T03:54:13.000Z</time>
      </trkpt>
      <trkpt lat="42.638445" lon="0.651139">
        <ele>3167.1</ele>
        <time>1970-01-01T03:54:15.000Z</time>
      </trkpt>
      <trkpt lat="42.638439" lon="0.651143">
        <ele>3167.2</ele>
        <time>1970-01-01T03:54:16.000Z</time>
      </trkpt>
      <trkpt lat="42.63843" lon="0.651148">
        <ele>3167.2</ele>
        <time>1970-01-01T03:54:17.000Z</time>
      </trkpt>
      <trkpt lat="42.638418" lon="0.651153">
        <ele>3167.3</ele>
        <time>1970-01-01T03:54:19.000Z</time>
      </trkpt>
      <trkpt lat="42.638408" lon="0.651157">
        <ele>3167.4</ele>
        <time>1970-01-01T03:54:20.000Z</time>
      </trkpt>
      <trkpt lat="42.638402" lon="0.65116">
        <ele>3167.4</ele>
        <time>1970-01-01T03:54:21.000Z</time>
      </trkpt>
      <trkpt lat="42.638392" lon="0.651166">
        <ele>3167.5</ele>
        <time>1970-01-01T03:54:23.000Z</time>
      </trkpt>
      <trkpt lat="42.638381" lon="0.651172">
        <ele>3167.5</ele>
        <time>1970-01-01T03:54:24.000Z</time>
      </trkpt>
      <trkpt lat="42.638373" lon="0.651176">
        <ele>3167.6</ele>
        <time>1970-01-01T03:54:25.000Z</time>
      </trkpt>
      <trkpt lat="42.638367" lon="0.65118">
        <ele>3167.6</ele>
        <time>1970-01-01T03:54:26.000Z</time>
      </trkpt>
      <trkpt lat="42.638358" lon="0.651188">
        <ele>3167.7</ele>
        <time>1970-01-01T03:54:27.000Z</time>
      </trkpt>
      <trkpt lat="42.638347" lon="0.651197">
        <ele>3167.8</ele>
        <time>1970-01-01T03:54:29.000Z</time>
      </trkpt>
      <trkpt lat="42.638341" lon="0.651211">
        <ele>3167.9</ele>
        <time>1970-01-01T03:54:31.000Z</time>
      </trkpt>
      <trkpt lat="42.63835" lon="0.651225">
        <ele>3168</ele>
        <time>1970-01-01T03:54:32.000Z</time>
      </trkpt>
      <trkpt lat="42.638358" lon="0.651228">
        <ele>3168</ele>
        <time>1970-01-01T03:54:33.000Z</time>
      </trkpt>
      <trkpt lat="42.63836" lon="0.651227">
        <ele>3168</ele>
        <time>1970-01-01T03:54:34.000Z</time>
      </trkpt>
      <trkpt lat="42.638362" lon="0.651226">
        <ele>3168</ele>
        <time>1970-01-01T03:54:35.000Z</time>
      </trkpt>
      <trkpt lat="42.638362" lon="0.651227">
        <ele>3168.1</ele>
        <time>1970-01-01T03:54:36.000Z</time>
      </trkpt>
      <trkpt lat="42.638362" lon="0.651228">
        <ele>3168.1</ele>
        <time>1970-01-01T03:54:37.000Z</time>
      </trkpt>
      <trkpt lat="42.638361" lon="0.651229">
        <ele>3168.1</ele>
        <time>1970-01-01T03:54:38.000Z</time>
      </trkpt>
      <trkpt lat="42.63836" lon="0.65123">
        <ele>3168.1</ele>
        <time>1970-01-01T03:54:39.000Z</time>
      </trkpt>
      <trkpt lat="42.638359" lon="0.651232">
        <ele>3168.1</ele>
        <time>1970-01-01T03:54:40.000Z</time>
      </trkpt>
      <trkpt lat="42.638353" lon="0.651234">
        <ele>3168.1</ele>
        <time>1970-01-01T03:54:41.000Z</time>
      </trkpt>
      <trkpt lat="42.638341" lon="0.651236">
        <ele>3168.2</ele>
        <time>1970-01-01T03:54:42.000Z</time>
      </trkpt>
      <trkpt lat="42.638326" lon="0.651239">
        <ele>3168.3</ele>
        <time>1970-01-01T03:54:43.000Z</time>
      </trkpt>
      <trkpt lat="42.63831" lon="0.651243">
        <ele>3168.4</ele>
        <time>1970-01-01T03:54:45.000Z</time>
      </trkpt>
      <trkpt lat="42.638293" lon="0.651249">
        <ele>3168.6</ele>
        <time>1970-01-01T03:54:46.000Z</time>
      </trkpt>
      <trkpt lat="42.638278" lon="0.651254">
        <ele>3168.7</ele>
        <time>1970-01-01T03:54:47.000Z</time>
      </trkpt>
      <trkpt lat="42.638251" lon="0.651264">
        <ele>3168.9</ele>
        <time>1970-01-01T03:54:48.000Z</time>
      </trkpt>
      <trkpt lat="42.63824" lon="0.651269">
        <ele>3169</ele>
        <time>1970-01-01T03:54:50.000Z</time>
      </trkpt>
      <trkpt lat="42.638229" lon="0.651273">
        <ele>3169</ele>
        <time>1970-01-01T03:54:51.000Z</time>
      </trkpt>
      <trkpt lat="42.638219" lon="0.651278">
        <ele>3169.1</ele>
        <time>1970-01-01T03:54:52.000Z</time>
      </trkpt>
      <trkpt lat="42.638208" lon="0.651282">
        <ele>3169.2</ele>
        <time>1970-01-01T03:54:53.000Z</time>
      </trkpt>
      <trkpt lat="42.638196" lon="0.651289">
        <ele>3169.3</ele>
        <time>1970-01-01T03:54:55.000Z</time>
      </trkpt>
      <trkpt lat="42.638187" lon="0.651295">
        <ele>3169.4</ele>
        <time>1970-01-01T03:54:56.000Z</time>
      </trkpt>
      <trkpt lat="42.638181" lon="0.6513">
        <ele>3169.4</ele>
        <time>1970-01-01T03:54:57.000Z</time>
      </trkpt>
      <trkpt lat="42.638174" lon="0.651306">
        <ele>3169.5</ele>
        <time>1970-01-01T03:54:58.000Z</time>
      </trkpt>
      <trkpt lat="42.638162" lon="0.651318">
        <ele>3169.6</ele>
        <time>1970-01-01T03:54:59.000Z</time>
      </trkpt>
      <trkpt lat="42.638153" lon="0.651326">
        <ele>3169.7</ele>
        <time>1970-01-01T03:55:01.000Z</time>
      </trkpt>
      <trkpt lat="42.638145" lon="0.651333">
        <ele>3169.8</ele>
        <time>1970-01-01T03:55:02.000Z</time>
      </trkpt>
      <trkpt lat="42.638134" lon="0.651341">
        <ele>3169.9</ele>
        <time>1970-01-01T03:55:04.000Z</time>
      </trkpt>
      <trkpt lat="42.638124" lon="0.651347">
        <ele>3169.9</ele>
        <time>1970-01-01T03:55:05.000Z</time>
      </trkpt>
      <trkpt lat="42.638115" lon="0.651352">
        <ele>3170</ele>
        <time>1970-01-01T03:55:06.000Z</time>
      </trkpt>
      <trkpt lat="42.638103" lon="0.651359">
        <ele>3170.1</ele>
        <time>1970-01-01T03:55:08.000Z</time>
      </trkpt>
      <trkpt lat="42.638092" lon="0.651365">
        <ele>3170.2</ele>
        <time>1970-01-01T03:55:09.000Z</time>
      </trkpt>
      <trkpt lat="42.638082" lon="0.651367">
        <ele>3170.3</ele>
        <time>1970-01-01T03:55:10.000Z</time>
      </trkpt>
      <trkpt lat="42.638076" lon="0.651369">
        <ele>3170.3</ele>
        <time>1970-01-01T03:55:11.000Z</time>
      </trkpt>
      <trkpt lat="42.638064" lon="0.651372">
        <ele>3170.4</ele>
        <time>1970-01-01T03:55:12.000Z</time>
      </trkpt>
      <trkpt lat="42.638053" lon="0.651377">
        <ele>3170.5</ele>
        <time>1970-01-01T03:55:14.000Z</time>
      </trkpt>
      <trkpt lat="42.638041" lon="0.651383">
        <ele>3170.6</ele>
        <time>1970-01-01T03:55:15.000Z</time>
      </trkpt>
      <trkpt lat="42.638032" lon="0.651388">
        <ele>3170.6</ele>
        <time>1970-01-01T03:55:16.000Z</time>
      </trkpt>
      <trkpt lat="42.638021" lon="0.651392">
        <ele>3170.7</ele>
        <time>1970-01-01T03:55:18.000Z</time>
      </trkpt>
      <trkpt lat="42.638013" lon="0.651396">
        <ele>3170.8</ele>
        <time>1970-01-01T03:55:19.000Z</time>
      </trkpt>
      <trkpt lat="42.638007" lon="0.651399">
        <ele>3170.8</ele>
        <time>1970-01-01T03:55:20.000Z</time>
      </trkpt>
      <trkpt lat="42.637998" lon="0.651402">
        <ele>3170.9</ele>
        <time>1970-01-01T03:55:21.000Z</time>
      </trkpt>
      <trkpt lat="42.637989" lon="0.651407">
        <ele>3170.9</ele>
        <time>1970-01-01T03:55:23.000Z</time>
      </trkpt>
      <trkpt lat="42.637978" lon="0.651413">
        <ele>3171</ele>
        <time>1970-01-01T03:55:24.000Z</time>
      </trkpt>
      <trkpt lat="42.63797" lon="0.651417">
        <ele>3171.1</ele>
        <time>1970-01-01T03:55:25.000Z</time>
      </trkpt>
      <trkpt lat="42.637959" lon="0.651424">
        <ele>3171.2</ele>
        <time>1970-01-01T03:55:27.000Z</time>
      </trkpt>
      <trkpt lat="42.637949" lon="0.651431">
        <ele>3171.2</ele>
        <time>1970-01-01T03:55:28.000Z</time>
      </trkpt>
      <trkpt lat="42.637941" lon="0.651437">
        <ele>3171.3</ele>
        <time>1970-01-01T03:55:29.000Z</time>
      </trkpt>
      <trkpt lat="42.637934" lon="0.651443">
        <ele>3171.3</ele>
        <time>1970-01-01T03:55:30.000Z</time>
      </trkpt>
      <trkpt lat="42.637924" lon="0.65145">
        <ele>3171.4</ele>
        <time>1970-01-01T03:55:31.000Z</time>
      </trkpt>
      <trkpt lat="42.637914" lon="0.651457">
        <ele>3171.5</ele>
        <time>1970-01-01T03:55:33.000Z</time>
      </trkpt>
      <trkpt lat="42.637905" lon="0.651462">
        <ele>3171.5</ele>
        <time>1970-01-01T03:55:34.000Z</time>
      </trkpt>
      <trkpt lat="42.637899" lon="0.651466">
        <ele>3171.6</ele>
        <time>1970-01-01T03:55:35.000Z</time>
      </trkpt>
      <trkpt lat="42.637889" lon="0.651474">
        <ele>3171.7</ele>
        <time>1970-01-01T03:55:36.000Z</time>
      </trkpt>
      <trkpt lat="42.63788" lon="0.651499">
        <ele>3171.8</ele>
        <time>1970-01-01T03:55:38.000Z</time>
      </trkpt>
      <trkpt lat="42.637878" lon="0.651514">
        <ele>3171.9</ele>
        <time>1970-01-01T03:55:40.000Z</time>
      </trkpt>
      <trkpt lat="42.637875" lon="0.651528">
        <ele>3171.9</ele>
        <time>1970-01-01T03:55:41.000Z</time>
      </trkpt>
      <trkpt lat="42.637876" lon="0.651539">
        <ele>3172</ele>
        <time>1970-01-01T03:55:42.000Z</time>
      </trkpt>
      <trkpt lat="42.637878" lon="0.651544">
        <ele>3172</ele>
        <time>1970-01-01T03:55:43.000Z</time>
      </trkpt>
      <trkpt lat="42.637868" lon="0.651555">
        <ele>3172.1</ele>
        <time>1970-01-01T03:55:44.000Z</time>
      </trkpt>
      <trkpt lat="42.637857" lon="0.651562">
        <ele>3172.2</ele>
        <time>1970-01-01T03:55:46.000Z</time>
      </trkpt>
      <trkpt lat="42.637844" lon="0.65157">
        <ele>3172.3</ele>
        <time>1970-01-01T03:55:47.000Z</time>
      </trkpt>
      <trkpt lat="42.637834" lon="0.651575">
        <ele>3172.3</ele>
        <time>1970-01-01T03:55:48.000Z</time>
      </trkpt>
      <trkpt lat="42.637827" lon="0.651579">
        <ele>3172.4</ele>
        <time>1970-01-01T03:55:49.000Z</time>
      </trkpt>
      <trkpt lat="42.637808" lon="0.651589">
        <ele>3172.5</ele>
        <time>1970-01-01T03:55:50.000Z</time>
      </trkpt>
      <trkpt lat="42.6378" lon="0.651594">
        <ele>3172.6</ele>
        <time>1970-01-01T03:55:52.000Z</time>
      </trkpt>
      <trkpt lat="42.637793" lon="0.651599">
        <ele>3172.6</ele>
        <time>1970-01-01T03:55:53.000Z</time>
      </trkpt>
      <trkpt lat="42.637787" lon="0.651603">
        <ele>3172.7</ele>
        <time>1970-01-01T03:55:54.000Z</time>
      </trkpt>
      <trkpt lat="42.637777" lon="0.651609">
        <ele>3172.8</ele>
        <time>1970-01-01T03:55:55.000Z</time>
      </trkpt>
      <trkpt lat="42.637767" lon="0.651613">
        <ele>3172.8</ele>
        <time>1970-01-01T03:55:57.000Z</time>
      </trkpt>
      <trkpt lat="42.637757" lon="0.651614">
        <ele>3172.9</ele>
        <time>1970-01-01T03:55:58.000Z</time>
      </trkpt>
      <trkpt lat="42.637748" lon="0.651614">
        <ele>3173</ele>
        <time>1970-01-01T03:55:59.000Z</time>
      </trkpt>
      <trkpt lat="42.637734" lon="0.651617">
        <ele>3173.1</ele>
        <time>1970-01-01T03:56:01.000Z</time>
      </trkpt>
      <trkpt lat="42.637723" lon="0.651622">
        <ele>3173.2</ele>
        <time>1970-01-01T03:56:02.000Z</time>
      </trkpt>
      <trkpt lat="42.637715" lon="0.651626">
        <ele>3173.2</ele>
        <time>1970-01-01T03:56:03.000Z</time>
      </trkpt>
      <trkpt lat="42.63771" lon="0.651629">
        <ele>3173.3</ele>
        <time>1970-01-01T03:56:04.000Z</time>
      </trkpt>
      <trkpt lat="42.637703" lon="0.651634">
        <ele>3173.3</ele>
        <time>1970-01-01T03:56:05.000Z</time>
      </trkpt>
      <trkpt lat="42.637695" lon="0.65164">
        <ele>3173.4</ele>
        <time>1970-01-01T03:56:07.000Z</time>
      </trkpt>
      <trkpt lat="42.637686" lon="0.651646">
        <ele>3173.5</ele>
        <time>1970-01-01T03:56:08.000Z</time>
      </trkpt>
      <trkpt lat="42.637678" lon="0.651649">
        <ele>3173.5</ele>
        <time>1970-01-01T03:56:09.000Z</time>
      </trkpt>
      <trkpt lat="42.63767" lon="0.651653">
        <ele>3173.6</ele>
        <time>1970-01-01T03:56:11.000Z</time>
      </trkpt>
      <trkpt lat="42.63766" lon="0.651657">
        <ele>3173.7</ele>
        <time>1970-01-01T03:56:12.000Z</time>
      </trkpt>
      <trkpt lat="42.637651" lon="0.651659">
        <ele>3173.7</ele>
        <time>1970-01-01T03:56:13.000Z</time>
      </trkpt>
      <trkpt lat="42.637642" lon="0.651662">
        <ele>3173.8</ele>
        <time>1970-01-01T03:56:15.000Z</time>
      </trkpt>
      <trkpt lat="42.637632" lon="0.651667">
        <ele>3173.9</ele>
        <time>1970-01-01T03:56:16.000Z</time>
      </trkpt>
      <trkpt lat="42.637627" lon="0.651669">
        <ele>3173.9</ele>
        <time>1970-01-01T03:56:17.000Z</time>
      </trkpt>
      <trkpt lat="42.637618" lon="0.651674">
        <ele>3174</ele>
        <time>1970-01-01T03:56:18.000Z</time>
      </trkpt>
      <trkpt lat="42.637609" lon="0.651679">
        <ele>3174</ele>
        <time>1970-01-01T03:56:20.000Z</time>
      </trkpt>
      <trkpt lat="42.6376" lon="0.651684">
        <ele>3174.1</ele>
        <time>1970-01-01T03:56:21.000Z</time>
      </trkpt>
      <trkpt lat="42.637592" lon="0.65169">
        <ele>3174.2</ele>
        <time>1970-01-01T03:56:22.000Z</time>
      </trkpt>
      <trkpt lat="42.637575" lon="0.651699">
        <ele>3174.3</ele>
        <time>1970-01-01T03:56:24.000Z</time>
      </trkpt>
      <trkpt lat="42.637567" lon="0.651703">
        <ele>3174.4</ele>
        <time>1970-01-01T03:56:25.000Z</time>
      </trkpt>
      <trkpt lat="42.63756" lon="0.651706">
        <ele>3174.4</ele>
        <time>1970-01-01T03:56:27.000Z</time>
      </trkpt>
      <trkpt lat="42.637552" lon="0.65171">
        <ele>3174.5</ele>
        <time>1970-01-01T03:56:28.000Z</time>
      </trkpt>
      <trkpt lat="42.637544" lon="0.651713">
        <ele>3174.5</ele>
        <time>1970-01-01T03:56:29.000Z</time>
      </trkpt>
      <trkpt lat="42.637537" lon="0.651717">
        <ele>3174.6</ele>
        <time>1970-01-01T03:56:30.000Z</time>
      </trkpt>
      <trkpt lat="42.637529" lon="0.65172">
        <ele>3174.6</ele>
        <time>1970-01-01T03:56:31.000Z</time>
      </trkpt>
      <trkpt lat="42.637518" lon="0.651724">
        <ele>3174.7</ele>
        <time>1970-01-01T03:56:33.000Z</time>
      </trkpt>
      <trkpt lat="42.63751" lon="0.651728">
        <ele>3174.8</ele>
        <time>1970-01-01T03:56:34.000Z</time>
      </trkpt>
      <trkpt lat="42.6375" lon="0.651732">
        <ele>3174.8</ele>
        <time>1970-01-01T03:56:36.000Z</time>
      </trkpt>
      <trkpt lat="42.637493" lon="0.651737">
        <ele>3174.9</ele>
        <time>1970-01-01T03:56:37.000Z</time>
      </trkpt>
      <trkpt lat="42.637488" lon="0.651742">
        <ele>3174.9</ele>
        <time>1970-01-01T03:56:38.000Z</time>
      </trkpt>
      <trkpt lat="42.637483" lon="0.651747">
        <ele>3175</ele>
        <time>1970-01-01T03:56:39.000Z</time>
      </trkpt>
      <trkpt lat="42.637476" lon="0.651754">
        <ele>3175</ele>
        <time>1970-01-01T03:56:40.000Z</time>
      </trkpt>
      <trkpt lat="42.637469" lon="0.651761">
        <ele>3175.1</ele>
        <time>1970-01-01T03:56:41.000Z</time>
      </trkpt>
      <trkpt lat="42.637462" lon="0.651767">
        <ele>3175.1</ele>
        <time>1970-01-01T03:56:42.000Z</time>
      </trkpt>
      <trkpt lat="42.637454" lon="0.651775">
        <ele>3175.2</ele>
        <time>1970-01-01T03:56:43.000Z</time>
      </trkpt>
      <trkpt lat="42.637446" lon="0.651783">
        <ele>3175.3</ele>
        <time>1970-01-01T03:56:45.000Z</time>
      </trkpt>
      <trkpt lat="42.637435" lon="0.651792">
        <ele>3175.3</ele>
        <time>1970-01-01T03:56:46.000Z</time>
      </trkpt>
      <trkpt lat="42.637426" lon="0.6518">
        <ele>3175.4</ele>
        <time>1970-01-01T03:56:48.000Z</time>
      </trkpt>
      <trkpt lat="42.637416" lon="0.651808">
        <ele>3175.5</ele>
        <time>1970-01-01T03:56:49.000Z</time>
      </trkpt>
      <trkpt lat="42.637407" lon="0.651816">
        <ele>3175.5</ele>
        <time>1970-01-01T03:56:50.000Z</time>
      </trkpt>
      <trkpt lat="42.637401" lon="0.65182">
        <ele>3175.6</ele>
        <time>1970-01-01T03:56:51.000Z</time>
      </trkpt>
      <trkpt lat="42.637392" lon="0.651826">
        <ele>3175.6</ele>
        <time>1970-01-01T03:56:52.000Z</time>
      </trkpt>
      <trkpt lat="42.637382" lon="0.651835">
        <ele>3175.7</ele>
        <time>1970-01-01T03:56:54.000Z</time>
      </trkpt>
      <trkpt lat="42.637375" lon="0.65184">
        <ele>3175.7</ele>
        <time>1970-01-01T03:56:55.000Z</time>
      </trkpt>
      <trkpt lat="42.637368" lon="0.651846">
        <ele>3175.8</ele>
        <time>1970-01-01T03:56:56.000Z</time>
      </trkpt>
      <trkpt lat="42.637363" lon="0.651849">
        <ele>3175.8</ele>
        <time>1970-01-01T03:56:57.000Z</time>
      </trkpt>
      <trkpt lat="42.637354" lon="0.651856">
        <ele>3175.9</ele>
        <time>1970-01-01T03:56:58.000Z</time>
      </trkpt>
      <trkpt lat="42.637341" lon="0.651862">
        <ele>3176</ele>
        <time>1970-01-01T03:57:00.000Z</time>
      </trkpt>
      <trkpt lat="42.637333" lon="0.651863">
        <ele>3176</ele>
        <time>1970-01-01T03:57:01.000Z</time>
      </trkpt>
      <trkpt lat="42.637319" lon="0.651863">
        <ele>3176.1</ele>
        <time>1970-01-01T03:57:03.000Z</time>
      </trkpt>
      <trkpt lat="42.63731" lon="0.651863">
        <ele>3176.1</ele>
        <time>1970-01-01T03:57:04.000Z</time>
      </trkpt>
      <trkpt lat="42.637301" lon="0.651865">
        <ele>3176.2</ele>
        <time>1970-01-01T03:57:05.000Z</time>
      </trkpt>
      <trkpt lat="42.63729" lon="0.651866">
        <ele>3176.2</ele>
        <time>1970-01-01T03:57:07.000Z</time>
      </trkpt>
      <trkpt lat="42.637283" lon="0.651868">
        <ele>3176.3</ele>
        <time>1970-01-01T03:57:08.000Z</time>
      </trkpt>
      <trkpt lat="42.637277" lon="0.65187">
        <ele>3176.3</ele>
        <time>1970-01-01T03:57:09.000Z</time>
      </trkpt>
      <trkpt lat="42.637272" lon="0.651872">
        <ele>3176.3</ele>
        <time>1970-01-01T03:57:10.000Z</time>
      </trkpt>
      <trkpt lat="42.637263" lon="0.651875">
        <ele>3176.4</ele>
        <time>1970-01-01T03:57:12.000Z</time>
      </trkpt>
      <trkpt lat="42.637254" lon="0.651878">
        <ele>3176.4</ele>
        <time>1970-01-01T03:57:13.000Z</time>
      </trkpt>
      <trkpt lat="42.637244" lon="0.651881">
        <ele>3176.5</ele>
        <time>1970-01-01T03:57:15.000Z</time>
      </trkpt>
      <trkpt lat="42.637236" lon="0.651883">
        <ele>3176.5</ele>
        <time>1970-01-01T03:57:16.000Z</time>
      </trkpt>
      <trkpt lat="42.637229" lon="0.651884">
        <ele>3176.5</ele>
        <time>1970-01-01T03:57:17.000Z</time>
      </trkpt>
      <trkpt lat="42.637223" lon="0.651886">
        <ele>3176.6</ele>
        <time>1970-01-01T03:57:18.000Z</time>
      </trkpt>
      <trkpt lat="42.637217" lon="0.651884">
        <ele>3176.6</ele>
        <time>1970-01-01T03:57:19.000Z</time>
      </trkpt>
      <trkpt lat="42.637211" lon="0.651884">
        <ele>3176.6</ele>
        <time>1970-01-01T03:57:20.000Z</time>
      </trkpt>
      <trkpt lat="42.637201" lon="0.651885">
        <ele>3176.7</ele>
        <time>1970-01-01T03:57:22.000Z</time>
      </trkpt>
      <trkpt lat="42.637193" lon="0.651888">
        <ele>3176.7</ele>
        <time>1970-01-01T03:57:24.000Z</time>
      </trkpt>
      <trkpt lat="42.637189" lon="0.65189">
        <ele>3176.7</ele>
        <time>1970-01-01T03:57:25.000Z</time>
      </trkpt>
      <trkpt lat="42.637189" lon="0.651891">
        <ele>3176.7</ele>
        <time>1970-01-01T03:57:26.000Z</time>
      </trkpt>
      <trkpt lat="42.637191" lon="0.651891">
        <ele>3176.8</ele>
        <time>1970-01-01T03:57:27.000Z</time>
      </trkpt>
      <trkpt lat="42.637189" lon="0.651891">
        <ele>3176.8</ele>
        <time>1970-01-01T03:57:28.000Z</time>
      </trkpt>
      <trkpt lat="42.637182" lon="0.651891">
        <ele>3176.8</ele>
        <time>1970-01-01T03:57:30.000Z</time>
      </trkpt>
      <trkpt lat="42.637175" lon="0.651893">
        <ele>3176.8</ele>
        <time>1970-01-01T03:57:31.000Z</time>
      </trkpt>
      <trkpt lat="42.637169" lon="0.651895">
        <ele>3176.9</ele>
        <time>1970-01-01T03:57:32.000Z</time>
      </trkpt>
      <trkpt lat="42.637156" lon="0.651902">
        <ele>3176.9</ele>
        <time>1970-01-01T03:57:34.000Z</time>
      </trkpt>
      <trkpt lat="42.637137" lon="0.651912">
        <ele>3177</ele>
        <time>1970-01-01T03:57:35.000Z</time>
      </trkpt>
      <trkpt lat="42.637129" lon="0.651916">
        <ele>3177.1</ele>
        <time>1970-01-01T03:57:37.000Z</time>
      </trkpt>
      <trkpt lat="42.637121" lon="0.65192">
        <ele>3177.1</ele>
        <time>1970-01-01T03:57:38.000Z</time>
      </trkpt>
      <trkpt lat="42.637111" lon="0.651924">
        <ele>3177.1</ele>
        <time>1970-01-01T03:57:39.000Z</time>
      </trkpt>
      <trkpt lat="42.637102" lon="0.651926">
        <ele>3177.2</ele>
        <time>1970-01-01T03:57:40.000Z</time>
      </trkpt>
      <trkpt lat="42.637093" lon="0.651928">
        <ele>3177.2</ele>
        <time>1970-01-01T03:57:41.000Z</time>
      </trkpt>
      <trkpt lat="42.637084" lon="0.651931">
        <ele>3177.3</ele>
        <time>1970-01-01T03:57:43.000Z</time>
      </trkpt>
      <trkpt lat="42.637074" lon="0.651936">
        <ele>3177.3</ele>
        <time>1970-01-01T03:57:44.000Z</time>
      </trkpt>
      <trkpt lat="42.637069" lon="0.65194">
        <ele>3177.3</ele>
        <time>1970-01-01T03:57:45.000Z</time>
      </trkpt>
      <trkpt lat="42.637061" lon="0.651947">
        <ele>3177.4</ele>
        <time>1970-01-01T03:57:47.000Z</time>
      </trkpt>
      <trkpt lat="42.637053" lon="0.651953">
        <ele>3177.4</ele>
        <time>1970-01-01T03:57:48.000Z</time>
      </trkpt>
      <trkpt lat="42.637045" lon="0.65196">
        <ele>3177.5</ele>
        <time>1970-01-01T03:57:50.000Z</time>
      </trkpt>
      <trkpt lat="42.637035" lon="0.651965">
        <ele>3177.5</ele>
        <time>1970-01-01T03:57:51.000Z</time>
      </trkpt>
      <trkpt lat="42.637029" lon="0.651969">
        <ele>3177.5</ele>
        <time>1970-01-01T03:57:52.000Z</time>
      </trkpt>
      <trkpt lat="42.637021" lon="0.651974">
        <ele>3177.6</ele>
        <time>1970-01-01T03:57:53.000Z</time>
      </trkpt>
      <trkpt lat="42.637011" lon="0.651979">
        <ele>3177.6</ele>
        <time>1970-01-01T03:57:55.000Z</time>
      </trkpt>
      <trkpt lat="42.637004" lon="0.651982">
        <ele>3177.6</ele>
        <time>1970-01-01T03:57:56.000Z</time>
      </trkpt>
      <trkpt lat="42.636996" lon="0.651986">
        <ele>3177.6</ele>
        <time>1970-01-01T03:57:57.000Z</time>
      </trkpt>
      <trkpt lat="42.636985" lon="0.651991">
        <ele>3177.7</ele>
        <time>1970-01-01T03:57:59.000Z</time>
      </trkpt>
      <trkpt lat="42.636972" lon="0.651996">
        <ele>3177.7</ele>
        <time>1970-01-01T03:58:01.000Z</time>
      </trkpt>
      <trkpt lat="42.636962" lon="0.651997">
        <ele>3177.8</ele>
        <time>1970-01-01T03:58:02.000Z</time>
      </trkpt>
      <trkpt lat="42.636952" lon="0.651999">
        <ele>3177.8</ele>
        <time>1970-01-01T03:58:04.000Z</time>
      </trkpt>
      <trkpt lat="42.636945" lon="0.652">
        <ele>3177.8</ele>
        <time>1970-01-01T03:58:05.000Z</time>
      </trkpt>
      <trkpt lat="42.636938" lon="0.652003">
        <ele>3177.8</ele>
        <time>1970-01-01T03:58:07.000Z</time>
      </trkpt>
      <trkpt lat="42.63693" lon="0.652008">
        <ele>3177.9</ele>
        <time>1970-01-01T03:58:08.000Z</time>
      </trkpt>
      <trkpt lat="42.636924" lon="0.652012">
        <ele>3177.9</ele>
        <time>1970-01-01T03:58:09.000Z</time>
      </trkpt>
      <trkpt lat="42.636916" lon="0.652019">
        <ele>3177.9</ele>
        <time>1970-01-01T03:58:11.000Z</time>
      </trkpt>
      <trkpt lat="42.63691" lon="0.652023">
        <ele>3177.9</ele>
        <time>1970-01-01T03:58:12.000Z</time>
      </trkpt>
      <trkpt lat="42.636904" lon="0.652026">
        <ele>3177.9</ele>
        <time>1970-01-01T03:58:13.000Z</time>
      </trkpt>
      <trkpt lat="42.6369" lon="0.652029">
        <ele>3178</ele>
        <time>1970-01-01T03:58:14.000Z</time>
      </trkpt>
      <trkpt lat="42.636895" lon="0.652031">
        <ele>3178</ele>
        <time>1970-01-01T03:58:15.000Z</time>
      </trkpt>
      <trkpt lat="42.636885" lon="0.652034">
        <ele>3178</ele>
        <time>1970-01-01T03:58:16.000Z</time>
      </trkpt>
      <trkpt lat="42.636875" lon="0.652038">
        <ele>3178</ele>
        <time>1970-01-01T03:58:18.000Z</time>
      </trkpt>
      <trkpt lat="42.636864" lon="0.652041">
        <ele>3178.1</ele>
        <time>1970-01-01T03:58:20.000Z</time>
      </trkpt>
      <trkpt lat="42.636859" lon="0.652044">
        <ele>3178.1</ele>
        <time>1970-01-01T03:58:21.000Z</time>
      </trkpt>
      <trkpt lat="42.636851" lon="0.65205">
        <ele>3178.1</ele>
        <time>1970-01-01T03:58:22.000Z</time>
      </trkpt>
      <trkpt lat="42.636844" lon="0.65206">
        <ele>3178.2</ele>
        <time>1970-01-01T03:58:24.000Z</time>
      </trkpt>
      <trkpt lat="42.636838" lon="0.652067">
        <ele>3178.2</ele>
        <time>1970-01-01T03:58:25.000Z</time>
      </trkpt>
      <trkpt lat="42.636829" lon="0.652077">
        <ele>3178.2</ele>
        <time>1970-01-01T03:58:27.000Z</time>
      </trkpt>
      <trkpt lat="42.636823" lon="0.652086">
        <ele>3178.3</ele>
        <time>1970-01-01T03:58:28.000Z</time>
      </trkpt>
      <trkpt lat="42.636818" lon="0.65209">
        <ele>3178.3</ele>
        <time>1970-01-01T03:58:29.000Z</time>
      </trkpt>
      <trkpt lat="42.636813" lon="0.652094">
        <ele>3178.3</ele>
        <time>1970-01-01T03:58:30.000Z</time>
      </trkpt>
      <trkpt lat="42.636808" lon="0.652096">
        <ele>3178.3</ele>
        <time>1970-01-01T03:58:31.000Z</time>
      </trkpt>
      <trkpt lat="42.636803" lon="0.652097">
        <ele>3178.3</ele>
        <time>1970-01-01T03:58:32.000Z</time>
      </trkpt>
      <trkpt lat="42.636796" lon="0.652098">
        <ele>3178.4</ele>
        <time>1970-01-01T03:58:33.000Z</time>
      </trkpt>
      <trkpt lat="42.63679" lon="0.652099">
        <ele>3178.4</ele>
        <time>1970-01-01T03:58:34.000Z</time>
      </trkpt>
      <trkpt lat="42.636784" lon="0.652102">
        <ele>3178.4</ele>
        <time>1970-01-01T03:58:35.000Z</time>
      </trkpt>
      <trkpt lat="42.636775" lon="0.652107">
        <ele>3178.5</ele>
        <time>1970-01-01T03:58:37.000Z</time>
      </trkpt>
      <trkpt lat="42.636768" lon="0.65211">
        <ele>3178.5</ele>
        <time>1970-01-01T03:58:39.000Z</time>
      </trkpt>
      <trkpt lat="42.636758" lon="0.652114">
        <ele>3178.5</ele>
        <time>1970-01-01T03:58:40.000Z</time>
      </trkpt>
      <trkpt lat="42.636751" lon="0.652117">
        <ele>3178.6</ele>
        <time>1970-01-01T03:58:41.000Z</time>
      </trkpt>
      <trkpt lat="42.636745" lon="0.65212">
        <ele>3178.6</ele>
        <time>1970-01-01T03:58:42.000Z</time>
      </trkpt>
      <trkpt lat="42.636738" lon="0.652124">
        <ele>3178.6</ele>
        <time>1970-01-01T03:58:43.000Z</time>
      </trkpt>
      <trkpt lat="42.636727" lon="0.652129">
        <ele>3178.7</ele>
        <time>1970-01-01T03:58:45.000Z</time>
      </trkpt>
      <trkpt lat="42.636721" lon="0.652131">
        <ele>3178.7</ele>
        <time>1970-01-01T03:58:46.000Z</time>
      </trkpt>
      <trkpt lat="42.636713" lon="0.652134">
        <ele>3178.7</ele>
        <time>1970-01-01T03:58:48.000Z</time>
      </trkpt>
      <trkpt lat="42.636707" lon="0.652135">
        <ele>3178.8</ele>
        <time>1970-01-01T03:58:49.000Z</time>
      </trkpt>
      <trkpt lat="42.636699" lon="0.652135">
        <ele>3178.8</ele>
        <time>1970-01-01T03:58:50.000Z</time>
      </trkpt>
      <trkpt lat="42.636688" lon="0.652135">
        <ele>3178.8</ele>
        <time>1970-01-01T03:58:52.000Z</time>
      </trkpt>
      <trkpt lat="42.636678" lon="0.652135">
        <ele>3178.9</ele>
        <time>1970-01-01T03:58:53.000Z</time>
      </trkpt>
      <trkpt lat="42.636673" lon="0.652135">
        <ele>3178.9</ele>
        <time>1970-01-01T03:58:54.000Z</time>
      </trkpt>
      <trkpt lat="42.636664" lon="0.652138">
        <ele>3178.9</ele>
        <time>1970-01-01T03:58:55.000Z</time>
      </trkpt>
      <trkpt lat="42.636656" lon="0.652143">
        <ele>3179</ele>
        <time>1970-01-01T03:58:57.000Z</time>
      </trkpt>
      <trkpt lat="42.636649" lon="0.652153">
        <ele>3179</ele>
        <time>1970-01-01T03:58:58.000Z</time>
      </trkpt>
      <trkpt lat="42.636642" lon="0.652165">
        <ele>3179</ele>
        <time>1970-01-01T03:59:00.000Z</time>
      </trkpt>
      <trkpt lat="42.636635" lon="0.652176">
        <ele>3179</ele>
        <time>1970-01-01T03:59:01.000Z</time>
      </trkpt>
      <trkpt lat="42.636631" lon="0.652184">
        <ele>3179.1</ele>
        <time>1970-01-01T03:59:02.000Z</time>
      </trkpt>
      <trkpt lat="42.636626" lon="0.652194">
        <ele>3179.1</ele>
        <time>1970-01-01T03:59:03.000Z</time>
      </trkpt>
      <trkpt lat="42.636623" lon="0.6522">
        <ele>3179.1</ele>
        <time>1970-01-01T03:59:04.000Z</time>
      </trkpt>
      <trkpt lat="42.636618" lon="0.652209">
        <ele>3179.1</ele>
        <time>1970-01-01T03:59:05.000Z</time>
      </trkpt>
      <trkpt lat="42.63661" lon="0.652221">
        <ele>3179.2</ele>
        <time>1970-01-01T03:59:07.000Z</time>
      </trkpt>
      <trkpt lat="42.636601" lon="0.652231">
        <ele>3179.2</ele>
        <time>1970-01-01T03:59:08.000Z</time>
      </trkpt>
      <trkpt lat="42.636596" lon="0.652237">
        <ele>3179.2</ele>
        <time>1970-01-01T03:59:09.000Z</time>
      </trkpt>
      <trkpt lat="42.636587" lon="0.652247">
        <ele>3179.4</ele>
        <time>1970-01-01T03:59:10.000Z</time>
      </trkpt>
      <trkpt lat="42.636578" lon="0.652255">
        <ele>3179.6</ele>
        <time>1970-01-01T03:59:12.000Z</time>
      </trkpt>
      <trkpt lat="42.636567" lon="0.652262">
        <ele>3179.8</ele>
        <time>1970-01-01T03:59:13.000Z</time>
      </trkpt>
      <trkpt lat="42.63656" lon="0.652268">
        <ele>3179.9</ele>
        <time>1970-01-01T03:59:14.000Z</time>
      </trkpt>
      <trkpt lat="42.636551" lon="0.652274">
        <ele>3180</ele>
        <time>1970-01-01T03:59:15.000Z</time>
      </trkpt>
      <trkpt lat="42.63654" lon="0.652282">
        <ele>3180.2</ele>
        <time>1970-01-01T03:59:17.000Z</time>
      </trkpt>
      <trkpt lat="42.636533" lon="0.652285">
        <ele>3180.3</ele>
        <time>1970-01-01T03:59:18.000Z</time>
      </trkpt>
      <trkpt lat="42.63652" lon="0.652292">
        <ele>3180.5</ele>
        <time>1970-01-01T03:59:19.000Z</time>
      </trkpt>
      <trkpt lat="42.636513" lon="0.652296">
        <ele>3180.6</ele>
        <time>1970-01-01T03:59:20.000Z</time>
      </trkpt>
      <trkpt lat="42.636505" lon="0.652301">
        <ele>3180.8</ele>
        <time>1970-01-01T03:59:22.000Z</time>
      </trkpt>
      <trkpt lat="42.636498" lon="0.652305">
        <ele>3180.9</ele>
        <time>1970-01-01T03:59:23.000Z</time>
      </trkpt>
      <trkpt lat="42.636493" lon="0.652308">
        <ele>3180.9</ele>
        <time>1970-01-01T03:59:24.000Z</time>
      </trkpt>
      <trkpt lat="42.636483" lon="0.652315">
        <ele>3181.1</ele>
        <time>1970-01-01T03:59:26.000Z</time>
      </trkpt>
      <trkpt lat="42.636473" lon="0.652325">
        <ele>3181.3</ele>
        <time>1970-01-01T03:59:27.000Z</time>
      </trkpt>
      <trkpt lat="42.636468" lon="0.652331">
        <ele>3181.4</ele>
        <time>1970-01-01T03:59:28.000Z</time>
      </trkpt>
      <trkpt lat="42.636461" lon="0.652338">
        <ele>3181.5</ele>
        <time>1970-01-01T03:59:29.000Z</time>
      </trkpt>
      <trkpt lat="42.63645" lon="0.65235">
        <ele>3181.7</ele>
        <time>1970-01-01T03:59:31.000Z</time>
      </trkpt>
      <trkpt lat="42.636443" lon="0.65236">
        <ele>3181.9</ele>
        <time>1970-01-01T03:59:32.000Z</time>
      </trkpt>
      <trkpt lat="42.636437" lon="0.652369">
        <ele>3182</ele>
        <time>1970-01-01T03:59:33.000Z</time>
      </trkpt>
      <trkpt lat="42.636431" lon="0.65238">
        <ele>3182.1</ele>
        <time>1970-01-01T03:59:34.000Z</time>
      </trkpt>
      <trkpt lat="42.636425" lon="0.65239">
        <ele>3182.3</ele>
        <time>1970-01-01T03:59:35.000Z</time>
      </trkpt>
      <trkpt lat="42.636418" lon="0.652403">
        <ele>3182.4</ele>
        <time>1970-01-01T03:59:36.000Z</time>
      </trkpt>
      <trkpt lat="42.636413" lon="0.65241">
        <ele>3182.5</ele>
        <time>1970-01-01T03:59:37.000Z</time>
      </trkpt>
      <trkpt lat="42.636406" lon="0.652418">
        <ele>3182.7</ele>
        <time>1970-01-01T03:59:38.000Z</time>
      </trkpt>
      <trkpt lat="42.6364" lon="0.652426">
        <ele>3182.8</ele>
        <time>1970-01-01T03:59:39.000Z</time>
      </trkpt>
      <trkpt lat="42.636394" lon="0.652433">
        <ele>3182.9</ele>
        <time>1970-01-01T03:59:40.000Z</time>
      </trkpt>
      <trkpt lat="42.636383" lon="0.652445">
        <ele>3183.1</ele>
        <time>1970-01-01T03:59:42.000Z</time>
      </trkpt>
      <trkpt lat="42.636373" lon="0.652452">
        <ele>3183.2</ele>
        <time>1970-01-01T03:59:43.000Z</time>
      </trkpt>
      <trkpt lat="42.636366" lon="0.652457">
        <ele>3183.3</ele>
        <time>1970-01-01T03:59:44.000Z</time>
      </trkpt>
      <trkpt lat="42.636359" lon="0.652462">
        <ele>3183.5</ele>
        <time>1970-01-01T03:59:45.000Z</time>
      </trkpt>
      <trkpt lat="42.636354" lon="0.652468">
        <ele>3183.5</ele>
        <time>1970-01-01T03:59:46.000Z</time>
      </trkpt>
      <trkpt lat="42.63635" lon="0.652473">
        <ele>3183.6</ele>
        <time>1970-01-01T03:59:47.000Z</time>
      </trkpt>
      <trkpt lat="42.636341" lon="0.652484">
        <ele>3183.8</ele>
        <time>1970-01-01T03:59:49.000Z</time>
      </trkpt>
      <trkpt lat="42.636333" lon="0.652496">
        <ele>3183.9</ele>
        <time>1970-01-01T03:59:50.000Z</time>
      </trkpt>
      <trkpt lat="42.636326" lon="0.652503">
        <ele>3184</ele>
        <time>1970-01-01T03:59:51.000Z</time>
      </trkpt>
      <trkpt lat="42.636321" lon="0.652508">
        <ele>3184.1</ele>
        <time>1970-01-01T03:59:52.000Z</time>
      </trkpt>
      <trkpt lat="42.636308" lon="0.652516">
        <ele>3184.3</ele>
        <time>1970-01-01T03:59:54.000Z</time>
      </trkpt>
      <trkpt lat="42.636295" lon="0.652521">
        <ele>3184.5</ele>
        <time>1970-01-01T03:59:55.000Z</time>
      </trkpt>
      <trkpt lat="42.636289" lon="0.652523">
        <ele>3184.6</ele>
        <time>1970-01-01T03:59:56.000Z</time>
      </trkpt>
      <trkpt lat="42.636282" lon="0.652523">
        <ele>3184.7</ele>
        <time>1970-01-01T03:59:57.000Z</time>
      </trkpt>
      <trkpt lat="42.636268" lon="0.652525">
        <ele>3184.8</ele>
        <time>1970-01-01T03:59:59.000Z</time>
      </trkpt>
      <trkpt lat="42.636261" lon="0.652525">
        <ele>3184.9</ele>
        <time>1970-01-01T04:00:00.000Z</time>
      </trkpt>
      <trkpt lat="42.636251" lon="0.652526">
        <ele>3185.1</ele>
        <time>1970-01-01T04:00:01.000Z</time>
      </trkpt>
      <trkpt lat="42.636245" lon="0.652528">
        <ele>3185.1</ele>
        <time>1970-01-01T04:00:02.000Z</time>
      </trkpt>
      <trkpt lat="42.636233" lon="0.65253">
        <ele>3185.3</ele>
        <time>1970-01-01T04:00:04.000Z</time>
      </trkpt>
      <trkpt lat="42.636222" lon="0.652534">
        <ele>3185.4</ele>
        <time>1970-01-01T04:00:05.000Z</time>
      </trkpt>
      <trkpt lat="42.636212" lon="0.652539">
        <ele>3185.6</ele>
        <time>1970-01-01T04:00:06.000Z</time>
      </trkpt>
      <trkpt lat="42.636202" lon="0.652547">
        <ele>3185.7</ele>
        <time>1970-01-01T04:00:08.000Z</time>
      </trkpt>
      <trkpt lat="42.636193" lon="0.652555">
        <ele>3185.9</ele>
        <time>1970-01-01T04:00:10.000Z</time>
      </trkpt>
      <trkpt lat="42.636188" lon="0.652562">
        <ele>3186</ele>
        <time>1970-01-01T04:00:11.000Z</time>
      </trkpt>
      <trkpt lat="42.636183" lon="0.652568">
        <ele>3186.1</ele>
        <time>1970-01-01T04:00:12.000Z</time>
      </trkpt>
      <trkpt lat="42.636178" lon="0.652572">
        <ele>3186.1</ele>
        <time>1970-01-01T04:00:13.000Z</time>
      </trkpt>
      <trkpt lat="42.636176" lon="0.652576">
        <ele>3186.2</ele>
        <time>1970-01-01T04:00:14.000Z</time>
      </trkpt>
      <trkpt lat="42.636169" lon="0.652581">
        <ele>3186.3</ele>
        <time>1970-01-01T04:00:15.000Z</time>
      </trkpt>
      <trkpt lat="42.636159" lon="0.652588">
        <ele>3186.4</ele>
        <time>1970-01-01T04:00:17.000Z</time>
      </trkpt>
      <trkpt lat="42.636154" lon="0.652592">
        <ele>3186.5</ele>
        <time>1970-01-01T04:00:18.000Z</time>
      </trkpt>
      <trkpt lat="42.636146" lon="0.652596">
        <ele>3186.6</ele>
        <time>1970-01-01T04:00:19.000Z</time>
      </trkpt>
      <trkpt lat="42.636136" lon="0.652602">
        <ele>3186.8</ele>
        <time>1970-01-01T04:00:21.000Z</time>
      </trkpt>
      <trkpt lat="42.636128" lon="0.652609">
        <ele>3186.9</ele>
        <time>1970-01-01T04:00:22.000Z</time>
      </trkpt>
      <trkpt lat="42.636123" lon="0.652613">
        <ele>3187.3</ele>
        <time>1970-01-01T04:00:23.000Z</time>
      </trkpt>
      <trkpt lat="42.636118" lon="0.65262">
        <ele>3187.3</ele>
        <time>1970-01-01T04:00:24.000Z</time>
      </trkpt>
      <trkpt lat="42.636111" lon="0.652631">
        <ele>3187.3</ele>
        <time>1970-01-01T04:00:26.000Z</time>
      </trkpt>
      <trkpt lat="42.636105" lon="0.652639">
        <ele>3187.4</ele>
        <time>1970-01-01T04:00:27.000Z</time>
      </trkpt>
      <trkpt lat="42.636101" lon="0.652641">
        <ele>3187.4</ele>
        <time>1970-01-01T04:00:28.000Z</time>
      </trkpt>
      <trkpt lat="42.636097" lon="0.652644">
        <ele>3187.4</ele>
        <time>1970-01-01T04:00:29.000Z</time>
      </trkpt>
      <trkpt lat="42.636089" lon="0.65265">
        <ele>3187.4</ele>
        <time>1970-01-01T04:00:31.000Z</time>
      </trkpt>
      <trkpt lat="42.636082" lon="0.652656">
        <ele>3187.5</ele>
        <time>1970-01-01T04:00:32.000Z</time>
      </trkpt>
      <trkpt lat="42.636077" lon="0.652659">
        <ele>3187.5</ele>
        <time>1970-01-01T04:00:33.000Z</time>
      </trkpt>
      <trkpt lat="42.636072" lon="0.652661">
        <ele>3187.5</ele>
        <time>1970-01-01T04:00:34.000Z</time>
      </trkpt>
      <trkpt lat="42.636067" lon="0.652664">
        <ele>3187.5</ele>
        <time>1970-01-01T04:00:35.000Z</time>
      </trkpt>
      <trkpt lat="42.636061" lon="0.652668">
        <ele>3187.5</ele>
        <time>1970-01-01T04:00:36.000Z</time>
      </trkpt>
      <trkpt lat="42.636055" lon="0.652672">
        <ele>3187.6</ele>
        <time>1970-01-01T04:00:37.000Z</time>
      </trkpt>
      <trkpt lat="42.636049" lon="0.652678">
        <ele>3187.6</ele>
        <time>1970-01-01T04:00:38.000Z</time>
      </trkpt>
      <trkpt lat="42.636044" lon="0.652683">
        <ele>3187.6</ele>
        <time>1970-01-01T04:00:39.000Z</time>
      </trkpt>
      <trkpt lat="42.63604" lon="0.652686">
        <ele>3187.6</ele>
        <time>1970-01-01T04:00:40.000Z</time>
      </trkpt>
      <trkpt lat="42.636031" lon="0.652693">
        <ele>3187.7</ele>
        <time>1970-01-01T04:00:42.000Z</time>
      </trkpt>
      <trkpt lat="42.636026" lon="0.652696">
        <ele>3187.7</ele>
        <time>1970-01-01T04:00:43.000Z</time>
      </trkpt>
      <trkpt lat="42.636019" lon="0.652701">
        <ele>3187.7</ele>
        <time>1970-01-01T04:00:44.000Z</time>
      </trkpt>
      <trkpt lat="42.636014" lon="0.652705">
        <ele>3187.7</ele>
        <time>1970-01-01T04:00:45.000Z</time>
      </trkpt>
      <trkpt lat="42.636004" lon="0.65271">
        <ele>3187.7</ele>
        <time>1970-01-01T04:00:47.000Z</time>
      </trkpt>
      <trkpt lat="42.635993" lon="0.652714">
        <ele>3187.8</ele>
        <time>1970-01-01T04:00:49.000Z</time>
      </trkpt>
      <trkpt lat="42.635985" lon="0.652717">
        <ele>3187.8</ele>
        <time>1970-01-01T04:00:50.000Z</time>
      </trkpt>
      <trkpt lat="42.63598" lon="0.652718">
        <ele>3187.8</ele>
        <time>1970-01-01T04:00:51.000Z</time>
      </trkpt>
      <trkpt lat="42.635975" lon="0.652718">
        <ele>3187.8</ele>
        <time>1970-01-01T04:00:52.000Z</time>
      </trkpt>
      <trkpt lat="42.635958" lon="0.652719">
        <ele>3187.8</ele>
        <time>1970-01-01T04:00:53.000Z</time>
      </trkpt>
      <trkpt lat="42.635946" lon="0.652719">
        <ele>3187.9</ele>
        <time>1970-01-01T04:00:55.000Z</time>
      </trkpt>
      <trkpt lat="42.635934" lon="0.652719">
        <ele>3187.9</ele>
        <time>1970-01-01T04:00:56.000Z</time>
      </trkpt>
      <trkpt lat="42.63592" lon="0.652719">
        <ele>3187.9</ele>
        <time>1970-01-01T04:00:57.000Z</time>
      </trkpt>
      <trkpt lat="42.635911" lon="0.65272">
        <ele>3187.9</ele>
        <time>1970-01-01T04:00:58.000Z</time>
      </trkpt>
      <trkpt lat="42.6359" lon="0.652722">
        <ele>3187.9</ele>
        <time>1970-01-01T04:01:00.000Z</time>
      </trkpt>
      <trkpt lat="42.635896" lon="0.652724">
        <ele>3187.9</ele>
        <time>1970-01-01T04:01:01.000Z</time>
      </trkpt>
      <trkpt lat="42.635885" lon="0.652727">
        <ele>3188</ele>
        <time>1970-01-01T04:01:03.000Z</time>
      </trkpt>
      <trkpt lat="42.63588" lon="0.65273">
        <ele>3188</ele>
        <time>1970-01-01T04:01:04.000Z</time>
      </trkpt>
      <trkpt lat="42.635875" lon="0.652731">
        <ele>3188</ele>
        <time>1970-01-01T04:01:05.000Z</time>
      </trkpt>
      <trkpt lat="42.635869" lon="0.652733">
        <ele>3188</ele>
        <time>1970-01-01T04:01:07.000Z</time>
      </trkpt>
      <trkpt lat="42.635865" lon="0.652734">
        <ele>3188</ele>
        <time>1970-01-01T04:01:08.000Z</time>
      </trkpt>
      <trkpt lat="42.63586" lon="0.652736">
        <ele>3188</ele>
        <time>1970-01-01T04:01:09.000Z</time>
      </trkpt>
      <trkpt lat="42.635856" lon="0.652739">
        <ele>3188</ele>
        <time>1970-01-01T04:01:10.000Z</time>
      </trkpt>
      <trkpt lat="42.635852" lon="0.652742">
        <ele>3188</ele>
        <time>1970-01-01T04:01:11.000Z</time>
      </trkpt>
      <trkpt lat="42.635847" lon="0.652746">
        <ele>3188</ele>
        <time>1970-01-01T04:01:12.000Z</time>
      </trkpt>
      <trkpt lat="42.635841" lon="0.652748">
        <ele>3188</ele>
        <time>1970-01-01T04:01:13.000Z</time>
      </trkpt>
      <trkpt lat="42.635835" lon="0.652749">
        <ele>3188</ele>
        <time>1970-01-01T04:01:14.000Z</time>
      </trkpt>
      <trkpt lat="42.63583" lon="0.65275">
        <ele>3188.1</ele>
        <time>1970-01-01T04:01:15.000Z</time>
      </trkpt>
      <trkpt lat="42.635823" lon="0.652749">
        <ele>3188.1</ele>
        <time>1970-01-01T04:01:16.000Z</time>
      </trkpt>
      <trkpt lat="42.635814" lon="0.65275">
        <ele>3188.1</ele>
        <time>1970-01-01T04:01:17.000Z</time>
      </trkpt>
      <trkpt lat="42.635804" lon="0.652751">
        <ele>3188.1</ele>
        <time>1970-01-01T04:01:18.000Z</time>
      </trkpt>
      <trkpt lat="42.635795" lon="0.652751">
        <ele>3188.1</ele>
        <time>1970-01-01T04:01:19.000Z</time>
      </trkpt>
      <trkpt lat="42.635786" lon="0.652751">
        <ele>3188.1</ele>
        <time>1970-01-01T04:01:20.000Z</time>
      </trkpt>
      <trkpt lat="42.635772" lon="0.652748">
        <ele>3188.1</ele>
        <time>1970-01-01T04:01:22.000Z</time>
      </trkpt>
      <trkpt lat="42.635762" lon="0.652744">
        <ele>3188.2</ele>
        <time>1970-01-01T04:01:23.000Z</time>
      </trkpt>
      <trkpt lat="42.635754" lon="0.652743">
        <ele>3188.2</ele>
        <time>1970-01-01T04:01:24.000Z</time>
      </trkpt>
      <trkpt lat="42.635747" lon="0.652742">
        <ele>3188.2</ele>
        <time>1970-01-01T04:01:25.000Z</time>
      </trkpt>
      <trkpt lat="42.635736" lon="0.652743">
        <ele>3188.2</ele>
        <time>1970-01-01T04:01:27.000Z</time>
      </trkpt>
      <trkpt lat="42.635732" lon="0.652746">
        <ele>3188.2</ele>
        <time>1970-01-01T04:01:28.000Z</time>
      </trkpt>
      <trkpt lat="42.635728" lon="0.65275">
        <ele>3188.2</ele>
        <time>1970-01-01T04:01:29.000Z</time>
      </trkpt>
      <trkpt lat="42.635726" lon="0.652754">
        <ele>3188.2</ele>
        <time>1970-01-01T04:01:30.000Z</time>
      </trkpt>
      <trkpt lat="42.635721" lon="0.65276">
        <ele>3188.3</ele>
        <time>1970-01-01T04:01:32.000Z</time>
      </trkpt>
      <trkpt lat="42.635718" lon="0.652764">
        <ele>3188.3</ele>
        <time>1970-01-01T04:01:33.000Z</time>
      </trkpt>
      <trkpt lat="42.635716" lon="0.652769">
        <ele>3188.3</ele>
        <time>1970-01-01T04:01:34.000Z</time>
      </trkpt>
      <trkpt lat="42.635714" lon="0.652774">
        <ele>3188.3</ele>
        <time>1970-01-01T04:01:35.000Z</time>
      </trkpt>
      <trkpt lat="42.635712" lon="0.652784">
        <ele>3188.3</ele>
        <time>1970-01-01T04:01:36.000Z</time>
      </trkpt>
      <trkpt lat="42.635707" lon="0.652793">
        <ele>3188.3</ele>
        <time>1970-01-01T04:01:38.000Z</time>
      </trkpt>
      <trkpt lat="42.635705" lon="0.6528">
        <ele>3188.3</ele>
        <time>1970-01-01T04:01:39.000Z</time>
      </trkpt>
      <trkpt lat="42.6357" lon="0.65281">
        <ele>3188.4</ele>
        <time>1970-01-01T04:01:40.000Z</time>
      </trkpt>
      <trkpt lat="42.635693" lon="0.65282">
        <ele>3188.4</ele>
        <time>1970-01-01T04:01:42.000Z</time>
      </trkpt>
      <trkpt lat="42.635688" lon="0.652825">
        <ele>3188.4</ele>
        <time>1970-01-01T04:01:43.000Z</time>
      </trkpt>
      <trkpt lat="42.635682" lon="0.652828">
        <ele>3188.4</ele>
        <time>1970-01-01T04:01:44.000Z</time>
      </trkpt>
      <trkpt lat="42.635675" lon="0.652832">
        <ele>3188.5</ele>
        <time>1970-01-01T04:01:46.000Z</time>
      </trkpt>
      <trkpt lat="42.635664" lon="0.652838">
        <ele>3188.5</ele>
        <time>1970-01-01T04:01:47.000Z</time>
      </trkpt>
      <trkpt lat="42.635657" lon="0.652841">
        <ele>3188.5</ele>
        <time>1970-01-01T04:01:48.000Z</time>
      </trkpt>
      <trkpt lat="42.635649" lon="0.652845">
        <ele>3188.6</ele>
        <time>1970-01-01T04:01:49.000Z</time>
      </trkpt>
      <trkpt lat="42.63564" lon="0.652849">
        <ele>3188.6</ele>
        <time>1970-01-01T04:01:51.000Z</time>
      </trkpt>
      <trkpt lat="42.635632" lon="0.652851">
        <ele>3188.6</ele>
        <time>1970-01-01T04:01:52.000Z</time>
      </trkpt>
      <trkpt lat="42.635626" lon="0.652853">
        <ele>3188.6</ele>
        <time>1970-01-01T04:01:53.000Z</time>
      </trkpt>
      <trkpt lat="42.635617" lon="0.652858">
        <ele>3188.7</ele>
        <time>1970-01-01T04:01:54.000Z</time>
      </trkpt>
      <trkpt lat="42.635608" lon="0.652866">
        <ele>3188.7</ele>
        <time>1970-01-01T04:01:56.000Z</time>
      </trkpt>
      <trkpt lat="42.635602" lon="0.652871">
        <ele>3188.8</ele>
        <time>1970-01-01T04:01:57.000Z</time>
      </trkpt>
      <trkpt lat="42.635596" lon="0.652873">
        <ele>3188.8</ele>
        <time>1970-01-01T04:01:58.000Z</time>
      </trkpt>
      <trkpt lat="42.635592" lon="0.652875">
        <ele>3188.8</ele>
        <time>1970-01-01T04:01:59.000Z</time>
      </trkpt>
      <trkpt lat="42.635584" lon="0.65288">
        <ele>3188.8</ele>
        <time>1970-01-01T04:02:01.000Z</time>
      </trkpt>
      <trkpt lat="42.635576" lon="0.652885">
        <ele>3188.9</ele>
        <time>1970-01-01T04:02:02.000Z</time>
      </trkpt>
      <trkpt lat="42.635568" lon="0.65289">
        <ele>3188.9</ele>
        <time>1970-01-01T04:02:04.000Z</time>
      </trkpt>
      <trkpt lat="42.635561" lon="0.652895">
        <ele>3188.9</ele>
        <time>1970-01-01T04:02:05.000Z</time>
      </trkpt>
      <trkpt lat="42.635555" lon="0.652898">
        <ele>3189</ele>
        <time>1970-01-01T04:02:06.000Z</time>
      </trkpt>
      <trkpt lat="42.63555" lon="0.652903">
        <ele>3189</ele>
        <time>1970-01-01T04:02:07.000Z</time>
      </trkpt>
      <trkpt lat="42.635546" lon="0.652907">
        <ele>3189</ele>
        <time>1970-01-01T04:02:08.000Z</time>
      </trkpt>
      <trkpt lat="42.635541" lon="0.652912">
        <ele>3189</ele>
        <time>1970-01-01T04:02:09.000Z</time>
      </trkpt>
      <trkpt lat="42.635536" lon="0.652917">
        <ele>3189.1</ele>
        <time>1970-01-01T04:02:10.000Z</time>
      </trkpt>
      <trkpt lat="42.635532" lon="0.65292">
        <ele>3189.1</ele>
        <time>1970-01-01T04:02:11.000Z</time>
      </trkpt>
      <trkpt lat="42.635531" lon="0.65292">
        <ele>3189.1</ele>
        <time>1970-01-01T04:02:13.000Z</time>
      </trkpt>
      <trkpt lat="42.635528" lon="0.652922">
        <ele>3189.1</ele>
        <time>1970-01-01T04:02:14.000Z</time>
      </trkpt>
      <trkpt lat="42.635524" lon="0.652922">
        <ele>3189.1</ele>
        <time>1970-01-01T04:02:15.000Z</time>
      </trkpt>
      <trkpt lat="42.635522" lon="0.652922">
        <ele>3189.1</ele>
        <time>1970-01-01T04:02:16.000Z</time>
      </trkpt>
      <trkpt lat="42.635517" lon="0.652922">
        <ele>3189.2</ele>
        <time>1970-01-01T04:02:17.000Z</time>
      </trkpt>
      <trkpt lat="42.635508" lon="0.652925">
        <ele>3189.2</ele>
        <time>1970-01-01T04:02:19.000Z</time>
      </trkpt>
      <trkpt lat="42.6355" lon="0.65293">
        <ele>3189.3</ele>
        <time>1970-01-01T04:02:20.000Z</time>
      </trkpt>
      <trkpt lat="42.635491" lon="0.652933">
        <ele>3189.3</ele>
        <time>1970-01-01T04:02:21.000Z</time>
      </trkpt>
      <trkpt lat="42.635485" lon="0.652935">
        <ele>3189.3</ele>
        <time>1970-01-01T04:02:22.000Z</time>
      </trkpt>
      <trkpt lat="42.63548" lon="0.652936">
        <ele>3189.4</ele>
        <time>1970-01-01T04:02:23.000Z</time>
      </trkpt>
      <trkpt lat="42.635474" lon="0.652936">
        <ele>3189.4</ele>
        <time>1970-01-01T04:02:24.000Z</time>
      </trkpt>
      <trkpt lat="42.63547" lon="0.652936">
        <ele>3189.4</ele>
        <time>1970-01-01T04:02:25.000Z</time>
      </trkpt>
      <trkpt lat="42.635464" lon="0.652937">
        <ele>3189.4</ele>
        <time>1970-01-01T04:02:26.000Z</time>
      </trkpt>
      <trkpt lat="42.63545" lon="0.652934">
        <ele>3189.5</ele>
        <time>1970-01-01T04:02:27.000Z</time>
      </trkpt>
      <trkpt lat="42.635443" lon="0.652932">
        <ele>3189.5</ele>
        <time>1970-01-01T04:02:28.000Z</time>
      </trkpt>
      <trkpt lat="42.635436" lon="0.65293">
        <ele>3189.6</ele>
        <time>1970-01-01T04:02:30.000Z</time>
      </trkpt>
      <trkpt lat="42.635428" lon="0.652928">
        <ele>3189.6</ele>
        <time>1970-01-01T04:02:31.000Z</time>
      </trkpt>
      <trkpt lat="42.635421" lon="0.652927">
        <ele>3189.6</ele>
        <time>1970-01-01T04:02:32.000Z</time>
      </trkpt>
      <trkpt lat="42.635414" lon="0.652924">
        <ele>3189.7</ele>
        <time>1970-01-01T04:02:33.000Z</time>
      </trkpt>
      <trkpt lat="42.635409" lon="0.652922">
        <ele>3189.7</ele>
        <time>1970-01-01T04:02:34.000Z</time>
      </trkpt>
      <trkpt lat="42.635402" lon="0.652922">
        <ele>3189.7</ele>
        <time>1970-01-01T04:02:35.000Z</time>
      </trkpt>
      <trkpt lat="42.635396" lon="0.652922">
        <ele>3189.8</ele>
        <time>1970-01-01T04:02:36.000Z</time>
      </trkpt>
      <trkpt lat="42.635389" lon="0.652924">
        <ele>3189.8</ele>
        <time>1970-01-01T04:02:37.000Z</time>
      </trkpt>
      <trkpt lat="42.635382" lon="0.652925">
        <ele>3189.8</ele>
        <time>1970-01-01T04:02:38.000Z</time>
      </trkpt>
      <trkpt lat="42.635378" lon="0.652927">
        <ele>3189.9</ele>
        <time>1970-01-01T04:02:39.000Z</time>
      </trkpt>
      <trkpt lat="42.635373" lon="0.65293">
        <ele>3189.9</ele>
        <time>1970-01-01T04:02:40.000Z</time>
      </trkpt>
      <trkpt lat="42.635368" lon="0.652933">
        <ele>3189.9</ele>
        <time>1970-01-01T04:02:41.000Z</time>
      </trkpt>
      <trkpt lat="42.635363" lon="0.652937">
        <ele>3189.9</ele>
        <time>1970-01-01T04:02:42.000Z</time>
      </trkpt>
      <trkpt lat="42.635358" lon="0.652939">
        <ele>3190</ele>
        <time>1970-01-01T04:02:43.000Z</time>
      </trkpt>
      <trkpt lat="42.63535" lon="0.65294">
        <ele>3190</ele>
        <time>1970-01-01T04:02:45.000Z</time>
      </trkpt>
      <trkpt lat="42.635344" lon="0.652938">
        <ele>3190</ele>
        <time>1970-01-01T04:02:46.000Z</time>
      </trkpt>
      <trkpt lat="42.635337" lon="0.652937">
        <ele>3190.1</ele>
        <time>1970-01-01T04:02:47.000Z</time>
      </trkpt>
      <trkpt lat="42.635329" lon="0.652937">
        <ele>3190.1</ele>
        <time>1970-01-01T04:02:49.000Z</time>
      </trkpt>
      <trkpt lat="42.635324" lon="0.652935">
        <ele>3190.1</ele>
        <time>1970-01-01T04:02:50.000Z</time>
      </trkpt>
      <trkpt lat="42.635319" lon="0.652934">
        <ele>3190.2</ele>
        <time>1970-01-01T04:02:51.000Z</time>
      </trkpt>
      <trkpt lat="42.635316" lon="0.652934">
        <ele>3190.2</ele>
        <time>1970-01-01T04:02:52.000Z</time>
      </trkpt>
      <trkpt lat="42.635309" lon="0.652934">
        <ele>3190.2</ele>
        <time>1970-01-01T04:02:53.000Z</time>
      </trkpt>
      <trkpt lat="42.635302" lon="0.652933">
        <ele>3190.2</ele>
        <time>1970-01-01T04:02:54.000Z</time>
      </trkpt>
      <trkpt lat="42.635295" lon="0.652932">
        <ele>3190.3</ele>
        <time>1970-01-01T04:02:55.000Z</time>
      </trkpt>
      <trkpt lat="42.635284" lon="0.65293">
        <ele>3190.3</ele>
        <time>1970-01-01T04:02:56.000Z</time>
      </trkpt>
      <trkpt lat="42.635271" lon="0.652929">
        <ele>3190.4</ele>
        <time>1970-01-01T04:02:58.000Z</time>
      </trkpt>
      <trkpt lat="42.635264" lon="0.652929">
        <ele>3190.4</ele>
        <time>1970-01-01T04:02:59.000Z</time>
      </trkpt>
      <trkpt lat="42.635258" lon="0.65293">
        <ele>3190.5</ele>
        <time>1970-01-01T04:03:00.000Z</time>
      </trkpt>
      <trkpt lat="42.635254" lon="0.652932">
        <ele>3190.5</ele>
        <time>1970-01-01T04:03:01.000Z</time>
      </trkpt>
      <trkpt lat="42.63525" lon="0.652933">
        <ele>3190.5</ele>
        <time>1970-01-01T04:03:02.000Z</time>
      </trkpt>
      <trkpt lat="42.635243" lon="0.652934">
        <ele>3190.5</ele>
        <time>1970-01-01T04:03:04.000Z</time>
      </trkpt>
      <trkpt lat="42.635235" lon="0.652936">
        <ele>3190.5</ele>
        <time>1970-01-01T04:03:05.000Z</time>
      </trkpt>
      <trkpt lat="42.635231" lon="0.652937">
        <ele>3190.5</ele>
        <time>1970-01-01T04:03:06.000Z</time>
      </trkpt>
      <trkpt lat="42.635225" lon="0.652939">
        <ele>3190.4</ele>
        <time>1970-01-01T04:03:07.000Z</time>
      </trkpt>
      <trkpt lat="42.63522" lon="0.652941">
        <ele>3190.4</ele>
        <time>1970-01-01T04:03:08.000Z</time>
      </trkpt>
      <trkpt lat="42.635216" lon="0.652942">
        <ele>3190.3</ele>
        <time>1970-01-01T04:03:09.000Z</time>
      </trkpt>
      <trkpt lat="42.63521" lon="0.652945">
        <ele>3190.2</ele>
        <time>1970-01-01T04:03:11.000Z</time>
      </trkpt>
      <trkpt lat="42.635203" lon="0.652946">
        <ele>3190.2</ele>
        <time>1970-01-01T04:03:12.000Z</time>
      </trkpt>
      <trkpt lat="42.635198" lon="0.652947">
        <ele>3190.1</ele>
        <time>1970-01-01T04:03:13.000Z</time>
      </trkpt>
      <trkpt lat="42.635195" lon="0.652952">
        <ele>3190.1</ele>
        <time>1970-01-01T04:03:15.000Z</time>
      </trkpt>
      <trkpt lat="42.635188" lon="0.652955">
        <ele>3190</ele>
        <time>1970-01-01T04:03:16.000Z</time>
      </trkpt>
      <trkpt lat="42.635183" lon="0.652959">
        <ele>3189.9</ele>
        <time>1970-01-01T04:03:17.000Z</time>
      </trkpt>
      <trkpt lat="42.63518" lon="0.652964">
        <ele>3189.9</ele>
        <time>1970-01-01T04:03:18.000Z</time>
      </trkpt>
      <trkpt lat="42.635177" lon="0.652974">
        <ele>3189.8</ele>
        <time>1970-01-01T04:03:20.000Z</time>
      </trkpt>
      <trkpt lat="42.635175" lon="0.65298">
        <ele>3189.7</ele>
        <time>1970-01-01T04:03:21.000Z</time>
      </trkpt>
      <trkpt lat="42.635173" lon="0.652983">
        <ele>3189.7</ele>
        <time>1970-01-01T04:03:22.000Z</time>
      </trkpt>
      <trkpt lat="42.635168" lon="0.652986">
        <ele>3189.6</ele>
        <time>1970-01-01T04:03:24.000Z</time>
      </trkpt>
      <trkpt lat="42.635162" lon="0.652989">
        <ele>3189.6</ele>
        <time>1970-01-01T04:03:25.000Z</time>
      </trkpt>
      <trkpt lat="42.635158" lon="0.652988">
        <ele>3189.5</ele>
        <time>1970-01-01T04:03:26.000Z</time>
      </trkpt>
      <trkpt lat="42.635154" lon="0.652989">
        <ele>3189.5</ele>
        <time>1970-01-01T04:03:27.000Z</time>
      </trkpt>
      <trkpt lat="42.635148" lon="0.65299">
        <ele>3189.4</ele>
        <time>1970-01-01T04:03:29.000Z</time>
      </trkpt>
      <trkpt lat="42.63514" lon="0.652994">
        <ele>3189.3</ele>
        <time>1970-01-01T04:03:30.000Z</time>
      </trkpt>
      <trkpt lat="42.635133" lon="0.652999">
        <ele>3189.2</ele>
        <time>1970-01-01T04:03:32.000Z</time>
      </trkpt>
      <trkpt lat="42.635128" lon="0.653003">
        <ele>3189.2</ele>
        <time>1970-01-01T04:03:33.000Z</time>
      </trkpt>
      <trkpt lat="42.635124" lon="0.653007">
        <ele>3189.1</ele>
        <time>1970-01-01T04:03:34.000Z</time>
      </trkpt>
      <trkpt lat="42.635122" lon="0.653009">
        <ele>3189.1</ele>
        <time>1970-01-01T04:03:35.000Z</time>
      </trkpt>
      <trkpt lat="42.635116" lon="0.653011">
        <ele>3189</ele>
        <time>1970-01-01T04:03:37.000Z</time>
      </trkpt>
      <trkpt lat="42.635112" lon="0.653011">
        <ele>3189</ele>
        <time>1970-01-01T04:03:38.000Z</time>
      </trkpt>
      <trkpt lat="42.635103" lon="0.653015">
        <ele>3188.9</ele>
        <time>1970-01-01T04:03:39.000Z</time>
      </trkpt>
      <trkpt lat="42.635094" lon="0.653015">
        <ele>3188.8</ele>
        <time>1970-01-01T04:03:40.000Z</time>
      </trkpt>
      <trkpt lat="42.635086" lon="0.653017">
        <ele>3188.7</ele>
        <time>1970-01-01T04:03:41.000Z</time>
      </trkpt>
      <trkpt lat="42.635073" lon="0.653016">
        <ele>3188.4</ele>
        <time>1970-01-01T04:03:43.000Z</time>
      </trkpt>
      <trkpt lat="42.63506" lon="0.653014">
        <ele>3188.4</ele>
        <time>1970-01-01T04:03:44.000Z</time>
      </trkpt>
      <trkpt lat="42.635053" lon="0.653012">
        <ele>3188.4</ele>
        <time>1970-01-01T04:03:45.000Z</time>
      </trkpt>
      <trkpt lat="42.635047" lon="0.65301">
        <ele>3188.4</ele>
        <time>1970-01-01T04:03:46.000Z</time>
      </trkpt>
      <trkpt lat="42.635043" lon="0.65301">
        <ele>3188.4</ele>
        <time>1970-01-01T04:03:47.000Z</time>
      </trkpt>
      <trkpt lat="42.63504" lon="0.653008">
        <ele>3188.4</ele>
        <time>1970-01-01T04:03:48.000Z</time>
      </trkpt>
      <trkpt lat="42.635034" lon="0.653006">
        <ele>3188.4</ele>
        <time>1970-01-01T04:03:50.000Z</time>
      </trkpt>
      <trkpt lat="42.635029" lon="0.653002">
        <ele>3188.4</ele>
        <time>1970-01-01T04:03:51.000Z</time>
      </trkpt>
      <trkpt lat="42.635025" lon="0.652999">
        <ele>3188.4</ele>
        <time>1970-01-01T04:03:52.000Z</time>
      </trkpt>
      <trkpt lat="42.635022" lon="0.653">
        <ele>3188.4</ele>
        <time>1970-01-01T04:03:53.000Z</time>
      </trkpt>
      <trkpt lat="42.635019" lon="0.653">
        <ele>3188.4</ele>
        <time>1970-01-01T04:03:54.000Z</time>
      </trkpt>
      <trkpt lat="42.635014" lon="0.653001">
        <ele>3188.4</ele>
        <time>1970-01-01T04:03:55.000Z</time>
      </trkpt>
      <trkpt lat="42.634998" lon="0.653002">
        <ele>3188.4</ele>
        <time>1970-01-01T04:03:57.000Z</time>
      </trkpt>
      <trkpt lat="42.634989" lon="0.653004">
        <ele>3188.4</ele>
        <time>1970-01-01T04:03:58.000Z</time>
      </trkpt>
      <trkpt lat="42.634976" lon="0.653011">
        <ele>3188.4</ele>
        <time>1970-01-01T04:04:00.000Z</time>
      </trkpt>
      <trkpt lat="42.634968" lon="0.653014">
        <ele>3188.4</ele>
        <time>1970-01-01T04:04:01.000Z</time>
      </trkpt>
      <trkpt lat="42.634961" lon="0.653016">
        <ele>3188.4</ele>
        <time>1970-01-01T04:04:02.000Z</time>
      </trkpt>
      <trkpt lat="42.634955" lon="0.653017">
        <ele>3188.4</ele>
        <time>1970-01-01T04:04:03.000Z</time>
      </trkpt>
      <trkpt lat="42.634951" lon="0.653016">
        <ele>3188.4</ele>
        <time>1970-01-01T04:04:04.000Z</time>
      </trkpt>
      <trkpt lat="42.634944" lon="0.653015">
        <ele>3188.4</ele>
        <time>1970-01-01T04:04:05.000Z</time>
      </trkpt>
      <trkpt lat="42.634934" lon="0.653016">
        <ele>3188.4</ele>
        <time>1970-01-01T04:04:06.000Z</time>
      </trkpt>
      <trkpt lat="42.634918" lon="0.653017">
        <ele>3188.4</ele>
        <time>1970-01-01T04:04:08.000Z</time>
      </trkpt>
      <trkpt lat="42.634907" lon="0.653019">
        <ele>3188.4</ele>
        <time>1970-01-01T04:04:09.000Z</time>
      </trkpt>
      <trkpt lat="42.634894" lon="0.65302">
        <ele>3188.4</ele>
        <time>1970-01-01T04:04:11.000Z</time>
      </trkpt>
      <trkpt lat="42.634888" lon="0.653021">
        <ele>3188.4</ele>
        <time>1970-01-01T04:04:12.000Z</time>
      </trkpt>
      <trkpt lat="42.63488" lon="0.653022">
        <ele>3188.4</ele>
        <time>1970-01-01T04:04:13.000Z</time>
      </trkpt>
      <trkpt lat="42.634875" lon="0.65302">
        <ele>3188.4</ele>
        <time>1970-01-01T04:04:14.000Z</time>
      </trkpt>
      <trkpt lat="42.634864" lon="0.653018">
        <ele>3188.4</ele>
        <time>1970-01-01T04:04:16.000Z</time>
      </trkpt>
      <trkpt lat="42.634859" lon="0.653015">
        <ele>3188.4</ele>
        <time>1970-01-01T04:04:17.000Z</time>
      </trkpt>
      <trkpt lat="42.634858" lon="0.65301">
        <ele>3188.5</ele>
        <time>1970-01-01T04:04:18.000Z</time>
      </trkpt>
      <trkpt lat="42.634854" lon="0.653003">
        <ele>3188.5</ele>
        <time>1970-01-01T04:04:20.000Z</time>
      </trkpt>
      <trkpt lat="42.634852" lon="0.653002">
        <ele>3188.5</ele>
        <time>1970-01-01T04:04:21.000Z</time>
      </trkpt>
      <trkpt lat="42.63485" lon="0.653001">
        <ele>3188.5</ele>
        <time>1970-01-01T04:04:22.000Z</time>
      </trkpt>
      <trkpt lat="42.634848" lon="0.653002">
        <ele>3188.5</ele>
        <time>1970-01-01T04:04:23.000Z</time>
      </trkpt>
      <trkpt lat="42.634843" lon="0.653007">
        <ele>3188.5</ele>
        <time>1970-01-01T04:04:25.000Z</time>
      </trkpt>
      <trkpt lat="42.634839" lon="0.65301">
        <ele>3188.5</ele>
        <time>1970-01-01T04:04:26.000Z</time>
      </trkpt>
      <trkpt lat="42.634835" lon="0.653015">
        <ele>3188.5</ele>
        <time>1970-01-01T04:04:27.000Z</time>
      </trkpt>
      <trkpt lat="42.634829" lon="0.653019">
        <ele>3188.5</ele>
        <time>1970-01-01T04:04:28.000Z</time>
      </trkpt>
      <trkpt lat="42.634826" lon="0.653017">
        <ele>3188.5</ele>
        <time>1970-01-01T04:04:29.000Z</time>
      </trkpt>
      <trkpt lat="42.634824" lon="0.653013">
        <ele>3188.5</ele>
        <time>1970-01-01T04:04:30.000Z</time>
      </trkpt>
      <trkpt lat="42.634824" lon="0.653009">
        <ele>3188.5</ele>
        <time>1970-01-01T04:04:31.000Z</time>
      </trkpt>
      <trkpt lat="42.634826" lon="0.653003">
        <ele>3188.6</ele>
        <time>1970-01-01T04:04:33.000Z</time>
      </trkpt>
      <trkpt lat="42.634829" lon="0.653002">
        <ele>3188.6</ele>
        <time>1970-01-01T04:04:34.000Z</time>
      </trkpt>
      <trkpt lat="42.634829" lon="0.653001">
        <ele>3188.6</ele>
        <time>1970-01-01T04:04:35.000Z</time>
      </trkpt>
      <trkpt lat="42.634828" lon="0.652998">
        <ele>3188.6</ele>
        <time>1970-01-01T04:04:36.000Z</time>
      </trkpt>
      <trkpt lat="42.634828" lon="0.652996">
        <ele>3188.6</ele>
        <time>1970-01-01T04:04:38.000Z</time>
      </trkpt>
      <trkpt lat="42.634832" lon="0.652997">
        <ele>3188.6</ele>
        <time>1970-01-01T04:04:39.000Z</time>
      </trkpt>
      <trkpt lat="42.634832" lon="0.652993">
        <ele>3188.6</ele>
        <time>1970-01-01T04:04:41.000Z</time>
      </trkpt>
      <trkpt lat="42.634832" lon="0.65299">
        <ele>3188.6</ele>
        <time>1970-01-01T04:04:42.000Z</time>
      </trkpt>
      <trkpt lat="42.634833" lon="0.652989">
        <ele>3188.6</ele>
        <time>1970-01-01T04:04:44.000Z</time>
      </trkpt>
      <trkpt lat="42.634835" lon="0.652984">
        <ele>3188.6</ele>
        <time>1970-01-01T04:04:45.000Z</time>
      </trkpt>
      <trkpt lat="42.634835" lon="0.65298">
        <ele>3188.6</ele>
        <time>1970-01-01T04:04:46.000Z</time>
      </trkpt>
      <trkpt lat="42.634835" lon="0.652982">
        <ele>3188.6</ele>
        <time>1970-01-01T04:04:47.000Z</time>
      </trkpt>
      <trkpt lat="42.634832" lon="0.65298">
        <ele>3188.6</ele>
        <time>1970-01-01T04:04:48.000Z</time>
      </trkpt>
      <trkpt lat="42.634831" lon="0.652978">
        <ele>3188.6</ele>
        <time>1970-01-01T04:04:50.000Z</time>
      </trkpt>
      <trkpt lat="42.63483" lon="0.652979">
        <ele>3188.6</ele>
        <time>1970-01-01T04:04:51.000Z</time>
      </trkpt>
      <trkpt lat="42.63483" lon="0.652981">
        <ele>3188.6</ele>
        <time>1970-01-01T04:04:53.000Z</time>
      </trkpt>
      <trkpt lat="42.634829" lon="0.652979">
        <ele>3188.6</ele>
        <time>1970-01-01T04:04:54.000Z</time>
      </trkpt>
      <trkpt lat="42.634828" lon="0.652978">
        <ele>3188.6</ele>
        <time>1970-01-01T04:04:55.000Z</time>
      </trkpt>
      <trkpt lat="42.634827" lon="0.652977">
        <ele>3188.6</ele>
        <time>1970-01-01T04:04:56.000Z</time>
      </trkpt>
      <trkpt lat="42.634826" lon="0.652975">
        <ele>3188.6</ele>
        <time>1970-01-01T04:04:58.000Z</time>
      </trkpt>
      <trkpt lat="42.634825" lon="0.652973">
        <ele>3188.6</ele>
        <time>1970-01-01T04:04:59.000Z</time>
      </trkpt>
      <trkpt lat="42.634825" lon="0.652969">
        <ele>3188.6</ele>
        <time>1970-01-01T04:05:00.000Z</time>
      </trkpt>
      <trkpt lat="42.634827" lon="0.652968">
        <ele>3188.7</ele>
        <time>1970-01-01T04:05:01.000Z</time>
      </trkpt>
      <trkpt lat="42.634829" lon="0.652965">
        <ele>3188.7</ele>
        <time>1970-01-01T04:05:02.000Z</time>
      </trkpt>
      <trkpt lat="42.634829" lon="0.65296">
        <ele>3188.7</ele>
        <time>1970-01-01T04:05:03.000Z</time>
      </trkpt>
      <trkpt lat="42.634829" lon="0.652958">
        <ele>3188.7</ele>
        <time>1970-01-01T04:05:04.000Z</time>
      </trkpt>
      <trkpt lat="42.634829" lon="0.652956">
        <ele>3188.7</ele>
        <time>1970-01-01T04:05:06.000Z</time>
      </trkpt>
      <trkpt lat="42.634826" lon="0.65295">
        <ele>3188.7</ele>
        <time>1970-01-01T04:05:07.000Z</time>
      </trkpt>
      <trkpt lat="42.634824" lon="0.652948">
        <ele>3188.7</ele>
        <time>1970-01-01T04:05:08.000Z</time>
      </trkpt>
      <trkpt lat="42.634822" lon="0.652946">
        <ele>3188.7</ele>
        <time>1970-01-01T04:05:09.000Z</time>
      </trkpt>
      <trkpt lat="42.634818" lon="0.652942">
        <ele>3188.7</ele>
        <time>1970-01-01T04:05:11.000Z</time>
      </trkpt>
      <trkpt lat="42.634814" lon="0.652938">
        <ele>3188.7</ele>
        <time>1970-01-01T04:05:12.000Z</time>
      </trkpt>
      <trkpt lat="42.634813" lon="0.652934">
        <ele>3188.7</ele>
        <time>1970-01-01T04:05:13.000Z</time>
      </trkpt>
      <trkpt lat="42.634811" lon="0.652933">
        <ele>3188.7</ele>
        <time>1970-01-01T04:05:15.000Z</time>
      </trkpt>
      <trkpt lat="42.634806" lon="0.65294">
        <ele>3188.7</ele>
        <time>1970-01-01T04:05:16.000Z</time>
      </trkpt>
      <trkpt lat="42.634805" lon="0.652946">
        <ele>3188.7</ele>
        <time>1970-01-01T04:05:17.000Z</time>
      </trkpt>
      <trkpt lat="42.634803" lon="0.652951">
        <ele>3188.8</ele>
        <time>1970-01-01T04:05:18.000Z</time>
      </trkpt>
      <trkpt lat="42.634798" lon="0.652956">
        <ele>3188.8</ele>
        <time>1970-01-01T04:05:19.000Z</time>
      </trkpt>
      <trkpt lat="42.634793" lon="0.652958">
        <ele>3188.8</ele>
        <time>1970-01-01T04:05:20.000Z</time>
      </trkpt>
      <trkpt lat="42.634785" lon="0.65296">
        <ele>3188.8</ele>
        <time>1970-01-01T04:05:22.000Z</time>
      </trkpt>
      <trkpt lat="42.634774" lon="0.652962">
        <ele>3188.8</ele>
        <time>1970-01-01T04:05:23.000Z</time>
      </trkpt>
      <trkpt lat="42.63476" lon="0.652959">
        <ele>3188.9</ele>
        <time>1970-01-01T04:05:25.000Z</time>
      </trkpt>
      <trkpt lat="42.634753" lon="0.652959">
        <ele>3188.9</ele>
        <time>1970-01-01T04:05:26.000Z</time>
      </trkpt>
      <trkpt lat="42.634746" lon="0.652957">
        <ele>3188.9</ele>
        <time>1970-01-01T04:05:27.000Z</time>
      </trkpt>
      <trkpt lat="42.634739" lon="0.652954">
        <ele>3188.9</ele>
        <time>1970-01-01T04:05:29.000Z</time>
      </trkpt>
      <trkpt lat="42.634733" lon="0.652949">
        <ele>3188.9</ele>
        <time>1970-01-01T04:05:31.000Z</time>
      </trkpt>
      <trkpt lat="42.634731" lon="0.652947">
        <ele>3188.9</ele>
        <time>1970-01-01T04:05:32.000Z</time>
      </trkpt>
      <trkpt lat="42.634728" lon="0.652945">
        <ele>3188.9</ele>
        <time>1970-01-01T04:05:33.000Z</time>
      </trkpt>
      <trkpt lat="42.634725" lon="0.652942">
        <ele>3188.9</ele>
        <time>1970-01-01T04:05:34.000Z</time>
      </trkpt>
      <trkpt lat="42.634722" lon="0.652937">
        <ele>3188.9</ele>
        <time>1970-01-01T04:05:36.000Z</time>
      </trkpt>
      <trkpt lat="42.63472" lon="0.652932">
        <ele>3188.9</ele>
        <time>1970-01-01T04:05:37.000Z</time>
      </trkpt>
      <trkpt lat="42.634714" lon="0.652925">
        <ele>3189</ele>
        <time>1970-01-01T04:05:39.000Z</time>
      </trkpt>
      <trkpt lat="42.63471" lon="0.652921">
        <ele>3189</ele>
        <time>1970-01-01T04:05:40.000Z</time>
      </trkpt>
      <trkpt lat="42.634707" lon="0.652918">
        <ele>3189</ele>
        <time>1970-01-01T04:05:41.000Z</time>
      </trkpt>
      <trkpt lat="42.634705" lon="0.652913">
        <ele>3189</ele>
        <time>1970-01-01T04:05:42.000Z</time>
      </trkpt>
      <trkpt lat="42.634703" lon="0.652909">
        <ele>3189</ele>
        <time>1970-01-01T04:05:43.000Z</time>
      </trkpt>
      <trkpt lat="42.634702" lon="0.652901">
        <ele>3189</ele>
        <time>1970-01-01T04:05:44.000Z</time>
      </trkpt>
      <trkpt lat="42.634701" lon="0.652895">
        <ele>3189</ele>
        <time>1970-01-01T04:05:46.000Z</time>
      </trkpt>
      <trkpt lat="42.634696" lon="0.652892">
        <ele>3189</ele>
        <time>1970-01-01T04:05:47.000Z</time>
      </trkpt>
      <trkpt lat="42.63469" lon="0.652892">
        <ele>3189</ele>
        <time>1970-01-01T04:05:48.000Z</time>
      </trkpt>
      <trkpt lat="42.634681" lon="0.65289">
        <ele>3189</ele>
        <time>1970-01-01T04:05:50.000Z</time>
      </trkpt>
      <trkpt lat="42.634674" lon="0.652885">
        <ele>3189</ele>
        <time>1970-01-01T04:05:51.000Z</time>
      </trkpt>
      <trkpt lat="42.634669" lon="0.652883">
        <ele>3189</ele>
        <time>1970-01-01T04:05:52.000Z</time>
      </trkpt>
      <trkpt lat="42.634662" lon="0.652881">
        <ele>3189</ele>
        <time>1970-01-01T04:05:53.000Z</time>
      </trkpt>
      <trkpt lat="42.634653" lon="0.652882">
        <ele>3189.1</ele>
        <time>1970-01-01T04:05:54.000Z</time>
      </trkpt>
      <trkpt lat="42.634642" lon="0.652888">
        <ele>3189.1</ele>
        <time>1970-01-01T04:05:56.000Z</time>
      </trkpt>
      <trkpt lat="42.634635" lon="0.652898">
        <ele>3189.1</ele>
        <time>1970-01-01T04:05:58.000Z</time>
      </trkpt>
      <trkpt lat="42.634628" lon="0.652905">
        <ele>3189.1</ele>
        <time>1970-01-01T04:05:59.000Z</time>
      </trkpt>
      <trkpt lat="42.634623" lon="0.652907">
        <ele>3189.1</ele>
        <time>1970-01-01T04:06:00.000Z</time>
      </trkpt>
      <trkpt lat="42.634614" lon="0.652914">
        <ele>3189.1</ele>
        <time>1970-01-01T04:06:02.000Z</time>
      </trkpt>
      <trkpt lat="42.63461" lon="0.652919">
        <ele>3189.1</ele>
        <time>1970-01-01T04:06:03.000Z</time>
      </trkpt>
      <trkpt lat="42.634606" lon="0.652922">
        <ele>3189.1</ele>
        <time>1970-01-01T04:06:04.000Z</time>
      </trkpt>
      <trkpt lat="42.634599" lon="0.652923">
        <ele>3189.1</ele>
        <time>1970-01-01T04:06:05.000Z</time>
      </trkpt>
      <trkpt lat="42.634583" lon="0.652928">
        <ele>3189.2</ele>
        <time>1970-01-01T04:06:06.000Z</time>
      </trkpt>
      <trkpt lat="42.634574" lon="0.652938">
        <ele>3189.2</ele>
        <time>1970-01-01T04:06:08.000Z</time>
      </trkpt>
      <trkpt lat="42.63457" lon="0.652946">
        <ele>3189.2</ele>
        <time>1970-01-01T04:06:09.000Z</time>
      </trkpt>
      <trkpt lat="42.634567" lon="0.652951">
        <ele>3189.2</ele>
        <time>1970-01-01T04:06:10.000Z</time>
      </trkpt>
      <trkpt lat="42.634565" lon="0.652954">
        <ele>3189.2</ele>
        <time>1970-01-01T04:06:11.000Z</time>
      </trkpt>
      <trkpt lat="42.634561" lon="0.652955">
        <ele>3189.2</ele>
        <time>1970-01-01T04:06:12.000Z</time>
      </trkpt>
      <trkpt lat="42.634555" lon="0.652955">
        <ele>3189.2</ele>
        <time>1970-01-01T04:06:14.000Z</time>
      </trkpt>
      <trkpt lat="42.63455" lon="0.652955">
        <ele>3189.2</ele>
        <time>1970-01-01T04:06:15.000Z</time>
      </trkpt>
      <trkpt lat="42.634547" lon="0.652956">
        <ele>3189.2</ele>
        <time>1970-01-01T04:06:16.000Z</time>
      </trkpt>
      <trkpt lat="42.634543" lon="0.652957">
        <ele>3189.2</ele>
        <time>1970-01-01T04:06:17.000Z</time>
      </trkpt>
      <trkpt lat="42.634538" lon="0.652961">
        <ele>3189.2</ele>
        <time>1970-01-01T04:06:18.000Z</time>
      </trkpt>
      <trkpt lat="42.634533" lon="0.652969">
        <ele>3189.2</ele>
        <time>1970-01-01T04:06:20.000Z</time>
      </trkpt>
      <trkpt lat="42.634528" lon="0.652978">
        <ele>3189.3</ele>
        <time>1970-01-01T04:06:21.000Z</time>
      </trkpt>
      <trkpt lat="42.634525" lon="0.652983">
        <ele>3189.3</ele>
        <time>1970-01-01T04:06:22.000Z</time>
      </trkpt>
      <trkpt lat="42.634523" lon="0.652988">
        <ele>3189.3</ele>
        <time>1970-01-01T04:06:23.000Z</time>
      </trkpt>
      <trkpt lat="42.634522" lon="0.652994">
        <ele>3189.3</ele>
        <time>1970-01-01T04:06:24.000Z</time>
      </trkpt>
      <trkpt lat="42.634519" lon="0.653002">
        <ele>3189.3</ele>
        <time>1970-01-01T04:06:25.000Z</time>
      </trkpt>
      <trkpt lat="42.634514" lon="0.65301">
        <ele>3189.3</ele>
        <time>1970-01-01T04:06:26.000Z</time>
      </trkpt>
      <trkpt lat="42.63451" lon="0.653019">
        <ele>3189.3</ele>
        <time>1970-01-01T04:06:27.000Z</time>
      </trkpt>
      <trkpt lat="42.634501" lon="0.653038">
        <ele>3189.3</ele>
        <time>1970-01-01T04:06:29.000Z</time>
      </trkpt>
      <trkpt lat="42.634499" lon="0.65305">
        <ele>3189.4</ele>
        <time>1970-01-01T04:06:30.000Z</time>
      </trkpt>
      <trkpt lat="42.634498" lon="0.653064">
        <ele>3189.4</ele>
        <time>1970-01-01T04:06:31.000Z</time>
      </trkpt>
      <trkpt lat="42.634502" lon="0.653069">
        <ele>3189.4</ele>
        <time>1970-01-01T04:06:32.000Z</time>
      </trkpt>
      <trkpt lat="42.634506" lon="0.65307">
        <ele>3189.4</ele>
        <time>1970-01-01T04:06:33.000Z</time>
      </trkpt>
      <trkpt lat="42.634509" lon="0.65307">
        <ele>3189.4</ele>
        <time>1970-01-01T04:06:34.000Z</time>
      </trkpt>
      <trkpt lat="42.634512" lon="0.65307">
        <ele>3189.4</ele>
        <time>1970-01-01T04:06:35.000Z</time>
      </trkpt>
      <trkpt lat="42.634514" lon="0.653069">
        <ele>3189.4</ele>
        <time>1970-01-01T04:06:36.000Z</time>
      </trkpt>
      <trkpt lat="42.634515" lon="0.653069">
        <ele>3189.4</ele>
        <time>1970-01-01T04:06:37.000Z</time>
      </trkpt>
      <trkpt lat="42.634516" lon="0.653069">
        <ele>3189.4</ele>
        <time>1970-01-01T04:06:38.000Z</time>
      </trkpt>
      <trkpt lat="42.634516" lon="0.653069">
        <ele>3189.4</ele>
        <time>1970-01-01T04:06:39.000Z</time>
      </trkpt>
      <trkpt lat="42.634517" lon="0.653069">
        <ele>3189.4</ele>
        <time>1970-01-01T04:06:40.000Z</time>
      </trkpt>
      <trkpt lat="42.634518" lon="0.653068">
        <ele>3189.4</ele>
        <time>1970-01-01T04:06:41.000Z</time>
      </trkpt>
      <trkpt lat="42.634518" lon="0.653069">
        <ele>3189.4</ele>
        <time>1970-01-01T04:06:42.000Z</time>
      </trkpt>
      <trkpt lat="42.634519" lon="0.653069">
        <ele>3189.4</ele>
        <time>1970-01-01T04:06:43.000Z</time>
      </trkpt>
      <trkpt lat="42.634519" lon="0.653068">
        <ele>3189.4</ele>
        <time>1970-01-01T04:06:44.000Z</time>
      </trkpt>
      <trkpt lat="42.63452" lon="0.653068">
        <ele>3189.4</ele>
        <time>1970-01-01T04:06:45.000Z</time>
      </trkpt>
      <trkpt lat="42.63452" lon="0.653068">
        <ele>3189.4</ele>
        <time>1970-01-01T04:06:46.000Z</time>
      </trkpt>
      <trkpt lat="42.634522" lon="0.653064">
        <ele>3189.4</ele>
        <time>1970-01-01T04:06:47.000Z</time>
      </trkpt>
      <trkpt lat="42.634524" lon="0.65306">
        <ele>3189.4</ele>
        <time>1970-01-01T04:06:48.000Z</time>
      </trkpt>
      <trkpt lat="42.634525" lon="0.653058">
        <ele>3189.4</ele>
        <time>1970-01-01T04:06:49.000Z</time>
      </trkpt>
      <trkpt lat="42.634526" lon="0.653057">
        <ele>3189.4</ele>
        <time>1970-01-01T04:06:50.000Z</time>
      </trkpt>
      <trkpt lat="42.634526" lon="0.653056">
        <ele>3189.4</ele>
        <time>1970-01-01T04:06:51.000Z</time>
      </trkpt>
      <trkpt lat="42.634526" lon="0.653056">
        <ele>3189.4</ele>
        <time>1970-01-01T04:06:52.000Z</time>
      </trkpt>
      <trkpt lat="42.634526" lon="0.653056">
        <ele>3189.4</ele>
        <time>1970-01-01T04:06:53.000Z</time>
      </trkpt>
      <trkpt lat="42.634526" lon="0.653056">
        <ele>3189.4</ele>
        <time>1970-01-01T04:06:54.000Z</time>
      </trkpt>
      <trkpt lat="42.634526" lon="0.653056">
        <ele>3189.4</ele>
        <time>1970-01-01T04:06:55.000Z</time>
      </trkpt>
      <trkpt lat="42.634526" lon="0.653055">
        <ele>3189.4</ele>
        <time>1970-01-01T04:06:56.000Z</time>
      </trkpt>
      <trkpt lat="42.634526" lon="0.653055">
        <ele>3189.4</ele>
        <time>1970-01-01T04:06:57.000Z</time>
      </trkpt>
      <trkpt lat="42.634526" lon="0.653055">
        <ele>3189.4</ele>
        <time>1970-01-01T04:06:58.000Z</time>
      </trkpt>
      <trkpt lat="42.634526" lon="0.653054">
        <ele>3189.4</ele>
        <time>1970-01-01T04:06:59.000Z</time>
      </trkpt>
      <trkpt lat="42.634525" lon="0.653055">
        <ele>3189.5</ele>
        <time>1970-01-01T04:07:00.000Z</time>
      </trkpt>
      <trkpt lat="42.634526" lon="0.653057">
        <ele>3189.5</ele>
        <time>1970-01-01T04:07:01.000Z</time>
      </trkpt>
      <trkpt lat="42.634525" lon="0.653067">
        <ele>3189.5</ele>
        <time>1970-01-01T04:07:03.000Z</time>
      </trkpt>
      <trkpt lat="42.634527" lon="0.653066">
        <ele>3189.5</ele>
        <time>1970-01-01T04:07:04.000Z</time>
      </trkpt>
      <trkpt lat="42.634529" lon="0.653066">
        <ele>3189.5</ele>
        <time>1970-01-01T04:07:05.000Z</time>
      </trkpt>
      <trkpt lat="42.63453" lon="0.653066">
        <ele>3189.5</ele>
        <time>1970-01-01T04:07:06.000Z</time>
      </trkpt>
      <trkpt lat="42.634531" lon="0.653065">
        <ele>3189.5</ele>
        <time>1970-01-01T04:07:07.000Z</time>
      </trkpt>
      <trkpt lat="42.634532" lon="0.653064">
        <ele>3189.5</ele>
        <time>1970-01-01T04:07:08.000Z</time>
      </trkpt>
      <trkpt lat="42.634532" lon="0.653064">
        <ele>3189.5</ele>
        <time>1970-01-01T04:07:09.000Z</time>
      </trkpt>
      <trkpt lat="42.634533" lon="0.653064">
        <ele>3189.5</ele>
        <time>1970-01-01T04:07:10.000Z</time>
      </trkpt>
      <trkpt lat="42.634533" lon="0.653063">
        <ele>3189.5</ele>
        <time>1970-01-01T04:07:11.000Z</time>
      </trkpt>
      <trkpt lat="42.634534" lon="0.653063">
        <ele>3189.5</ele>
        <time>1970-01-01T04:07:12.000Z</time>
      </trkpt>
      <trkpt lat="42.634534" lon="0.653063">
        <ele>3189.5</ele>
        <time>1970-01-01T04:07:13.000Z</time>
      </trkpt>
      <trkpt lat="42.634534" lon="0.653063">
        <ele>3189.5</ele>
        <time>1970-01-01T04:07:14.000Z</time>
      </trkpt>
      <trkpt lat="42.634534" lon="0.653063">
        <ele>3189.5</ele>
        <time>1970-01-01T04:07:15.000Z</time>
      </trkpt>
      <trkpt lat="42.634535" lon="0.653062">
        <ele>3189.5</ele>
        <time>1970-01-01T04:07:16.000Z</time>
      </trkpt>
      <trkpt lat="42.634535" lon="0.653061">
        <ele>3189.5</ele>
        <time>1970-01-01T04:07:17.000Z</time>
      </trkpt>
      <trkpt lat="42.634535" lon="0.653061">
        <ele>3189.5</ele>
        <time>1970-01-01T04:07:18.000Z</time>
      </trkpt>
      <trkpt lat="42.634535" lon="0.65306">
        <ele>3189.5</ele>
        <time>1970-01-01T04:07:19.000Z</time>
      </trkpt>
      <trkpt lat="42.634536" lon="0.65306">
        <ele>3189.5</ele>
        <time>1970-01-01T04:07:20.000Z</time>
      </trkpt>
      <trkpt lat="42.634536" lon="0.65306">
        <ele>3189.5</ele>
        <time>1970-01-01T04:07:21.000Z</time>
      </trkpt>
      <trkpt lat="42.634536" lon="0.653061">
        <ele>3189.5</ele>
        <time>1970-01-01T04:07:22.000Z</time>
      </trkpt>
      <trkpt lat="42.634536" lon="0.653061">
        <ele>3189.5</ele>
        <time>1970-01-01T04:07:23.000Z</time>
      </trkpt>
      <trkpt lat="42.634533" lon="0.653061">
        <ele>3189.5</ele>
        <time>1970-01-01T04:07:24.000Z</time>
      </trkpt>
      <trkpt lat="42.634531" lon="0.653061">
        <ele>3189.5</ele>
        <time>1970-01-01T04:07:25.000Z</time>
      </trkpt>
      <trkpt lat="42.63453" lon="0.653061">
        <ele>3189.5</ele>
        <time>1970-01-01T04:07:26.000Z</time>
      </trkpt>
      <trkpt lat="42.63453" lon="0.653061">
        <ele>3189.5</ele>
        <time>1970-01-01T04:07:27.000Z</time>
      </trkpt>
      <trkpt lat="42.63453" lon="0.653061">
        <ele>3189.5</ele>
        <time>1970-01-01T04:07:28.000Z</time>
      </trkpt>
      <trkpt lat="42.634535" lon="0.653061">
        <ele>3189.5</ele>
        <time>1970-01-01T04:07:29.000Z</time>
      </trkpt>
      <trkpt lat="42.634537" lon="0.653062">
        <ele>3189.5</ele>
        <time>1970-01-01T04:07:30.000Z</time>
      </trkpt>
      <trkpt lat="42.634537" lon="0.653062">
        <ele>3189.5</ele>
        <time>1970-01-01T04:07:32.000Z</time>
      </trkpt>
      <trkpt lat="42.634537" lon="0.653063">
        <ele>3189.5</ele>
        <time>1970-01-01T04:07:33.000Z</time>
      </trkpt>
      <trkpt lat="42.634537" lon="0.653063">
        <ele>3189.5</ele>
        <time>1970-01-01T04:07:34.000Z</time>
      </trkpt>
      <trkpt lat="42.634536" lon="0.653063">
        <ele>3189.5</ele>
        <time>1970-01-01T04:07:35.000Z</time>
      </trkpt>
      <trkpt lat="42.634536" lon="0.653063">
        <ele>3189.5</ele>
        <time>1970-01-01T04:07:36.000Z</time>
      </trkpt>
      <trkpt lat="42.634536" lon="0.653063">
        <ele>3189.5</ele>
        <time>1970-01-01T04:07:37.000Z</time>
      </trkpt>
      <trkpt lat="42.634535" lon="0.653063">
        <ele>3189.5</ele>
        <time>1970-01-01T04:07:38.000Z</time>
      </trkpt>
      <trkpt lat="42.634535" lon="0.653063">
        <ele>3189.5</ele>
        <time>1970-01-01T04:07:39.000Z</time>
      </trkpt>
      <trkpt lat="42.634535" lon="0.653062">
        <ele>3189.5</ele>
        <time>1970-01-01T04:07:40.000Z</time>
      </trkpt>
      <trkpt lat="42.634535" lon="0.653062">
        <ele>3189.5</ele>
        <time>1970-01-01T04:07:41.000Z</time>
      </trkpt>
      <trkpt lat="42.634534" lon="0.653062">
        <ele>3189.5</ele>
        <time>1970-01-01T04:07:42.000Z</time>
      </trkpt>
      <trkpt lat="42.634534" lon="0.653062">
        <ele>3189.5</ele>
        <time>1970-01-01T04:07:43.000Z</time>
      </trkpt>
      <trkpt lat="42.634534" lon="0.653062">
        <ele>3189.5</ele>
        <time>1970-01-01T04:07:44.000Z</time>
      </trkpt>
      <trkpt lat="42.634535" lon="0.653062">
        <ele>3189.5</ele>
        <time>1970-01-01T04:07:45.000Z</time>
      </trkpt>
      <trkpt lat="42.634536" lon="0.653063">
        <ele>3189.5</ele>
        <time>1970-01-01T04:07:46.000Z</time>
      </trkpt>
      <trkpt lat="42.634536" lon="0.653062">
        <ele>3189.5</ele>
        <time>1970-01-01T04:07:48.000Z</time>
      </trkpt>
      <trkpt lat="42.634537" lon="0.653062">
        <ele>3189.5</ele>
        <time>1970-01-01T04:07:49.000Z</time>
      </trkpt>
      <trkpt lat="42.634538" lon="0.653061">
        <ele>3189.5</ele>
        <time>1970-01-01T04:07:50.000Z</time>
      </trkpt>
      <trkpt lat="42.634539" lon="0.653062">
        <ele>3189.5</ele>
        <time>1970-01-01T04:07:51.000Z</time>
      </trkpt>
      <trkpt lat="42.63454" lon="0.65306">
        <ele>3189.5</ele>
        <time>1970-01-01T04:07:52.000Z</time>
      </trkpt>
      <trkpt lat="42.63454" lon="0.65306">
        <ele>3189.5</ele>
        <time>1970-01-01T04:07:53.000Z</time>
      </trkpt>
      <trkpt lat="42.63454" lon="0.653061">
        <ele>3189.5</ele>
        <time>1970-01-01T04:07:54.000Z</time>
      </trkpt>
      <trkpt lat="42.63454" lon="0.653064">
        <ele>3189.6</ele>
        <time>1970-01-01T04:07:55.000Z</time>
      </trkpt>
      <trkpt lat="42.634539" lon="0.653066">
        <ele>3189.6</ele>
        <time>1970-01-01T04:07:56.000Z</time>
      </trkpt>
      <trkpt lat="42.634541" lon="0.653063">
        <ele>3189.6</ele>
        <time>1970-01-01T04:07:57.000Z</time>
      </trkpt>
      <trkpt lat="42.634542" lon="0.653062">
        <ele>3189.6</ele>
        <time>1970-01-01T04:07:58.000Z</time>
      </trkpt>
      <trkpt lat="42.634543" lon="0.65306">
        <ele>3189.6</ele>
        <time>1970-01-01T04:08:00.000Z</time>
      </trkpt>
      <trkpt lat="42.634543" lon="0.653061">
        <ele>3189.6</ele>
        <time>1970-01-01T04:08:01.000Z</time>
      </trkpt>
      <trkpt lat="42.634542" lon="0.653061">
        <ele>3189.6</ele>
        <time>1970-01-01T04:08:02.000Z</time>
      </trkpt>
      <trkpt lat="42.634542" lon="0.653062">
        <ele>3189.6</ele>
        <time>1970-01-01T04:08:03.000Z</time>
      </trkpt>
      <trkpt lat="42.634542" lon="0.653062">
        <ele>3189.6</ele>
        <time>1970-01-01T04:08:04.000Z</time>
      </trkpt>
      <trkpt lat="42.634543" lon="0.653063">
        <ele>3189.6</ele>
        <time>1970-01-01T04:08:05.000Z</time>
      </trkpt>
      <trkpt lat="42.634543" lon="0.653063">
        <ele>3189.6</ele>
        <time>1970-01-01T04:08:06.000Z</time>
      </trkpt>
      <trkpt lat="42.634543" lon="0.653064">
        <ele>3189.6</ele>
        <time>1970-01-01T04:08:07.000Z</time>
      </trkpt>
      <trkpt lat="42.634543" lon="0.653063">
        <ele>3189.6</ele>
        <time>1970-01-01T04:08:08.000Z</time>
      </trkpt>
      <trkpt lat="42.634544" lon="0.653062">
        <ele>3189.6</ele>
        <time>1970-01-01T04:08:09.000Z</time>
      </trkpt>
      <trkpt lat="42.634544" lon="0.653062">
        <ele>3189.6</ele>
        <time>1970-01-01T04:08:10.000Z</time>
      </trkpt>
      <trkpt lat="42.634544" lon="0.653063">
        <ele>3189.6</ele>
        <time>1970-01-01T04:08:11.000Z</time>
      </trkpt>
      <trkpt lat="42.634545" lon="0.653062">
        <ele>3189.6</ele>
        <time>1970-01-01T04:08:12.000Z</time>
      </trkpt>
      <trkpt lat="42.634545" lon="0.653062">
        <ele>3189.6</ele>
        <time>1970-01-01T04:08:13.000Z</time>
      </trkpt>
      <trkpt lat="42.634545" lon="0.653062">
        <ele>3189.6</ele>
        <time>1970-01-01T04:08:14.000Z</time>
      </trkpt>
      <trkpt lat="42.634546" lon="0.653062">
        <ele>3189.6</ele>
        <time>1970-01-01T04:08:16.000Z</time>
      </trkpt>
      <trkpt lat="42.634546" lon="0.653062">
        <ele>3189.6</ele>
        <time>1970-01-01T04:08:17.000Z</time>
      </trkpt>
      <trkpt lat="42.634547" lon="0.653063">
        <ele>3189.6</ele>
        <time>1970-01-01T04:08:18.000Z</time>
      </trkpt>
      <trkpt lat="42.634548" lon="0.653064">
        <ele>3189.6</ele>
        <time>1970-01-01T04:08:19.000Z</time>
      </trkpt>
      <trkpt lat="42.634548" lon="0.653064">
        <ele>3189.6</ele>
        <time>1970-01-01T04:08:20.000Z</time>
      </trkpt>
      <trkpt lat="42.634548" lon="0.653064">
        <ele>3189.6</ele>
        <time>1970-01-01T04:08:21.000Z</time>
      </trkpt>
      <trkpt lat="42.634549" lon="0.653065">
        <ele>3189.6</ele>
        <time>1970-01-01T04:08:22.000Z</time>
      </trkpt>
      <trkpt lat="42.634549" lon="0.653065">
        <ele>3189.6</ele>
        <time>1970-01-01T04:08:23.000Z</time>
      </trkpt>
      <trkpt lat="42.63455" lon="0.653066">
        <ele>3189.6</ele>
        <time>1970-01-01T04:08:25.000Z</time>
      </trkpt>
      <trkpt lat="42.63455" lon="0.653066">
        <ele>3189.6</ele>
        <time>1970-01-01T04:08:26.000Z</time>
      </trkpt>
      <trkpt lat="42.634551" lon="0.653065">
        <ele>3189.6</ele>
        <time>1970-01-01T04:08:27.000Z</time>
      </trkpt>
      <trkpt lat="42.634551" lon="0.653066">
        <ele>3189.6</ele>
        <time>1970-01-01T04:08:28.000Z</time>
      </trkpt>
      <trkpt lat="42.634551" lon="0.653067">
        <ele>3189.6</ele>
        <time>1970-01-01T04:08:29.000Z</time>
      </trkpt>
      <trkpt lat="42.634551" lon="0.653069">
        <ele>3189.6</ele>
        <time>1970-01-01T04:08:30.000Z</time>
      </trkpt>
      <trkpt lat="42.634551" lon="0.65307">
        <ele>3189.6</ele>
        <time>1970-01-01T04:08:31.000Z</time>
      </trkpt>
      <trkpt lat="42.63455" lon="0.653071">
        <ele>3189.6</ele>
        <time>1970-01-01T04:08:32.000Z</time>
      </trkpt>
      <trkpt lat="42.63455" lon="0.653072">
        <ele>3189.6</ele>
        <time>1970-01-01T04:08:33.000Z</time>
      </trkpt>
      <trkpt lat="42.63455" lon="0.653073">
        <ele>3189.6</ele>
        <time>1970-01-01T04:08:34.000Z</time>
      </trkpt>
      <trkpt lat="42.63455" lon="0.653073">
        <ele>3189.6</ele>
        <time>1970-01-01T04:08:35.000Z</time>
      </trkpt>
      <trkpt lat="42.63455" lon="0.653073">
        <ele>3189.6</ele>
        <time>1970-01-01T04:08:36.000Z</time>
      </trkpt>
      <trkpt lat="42.63455" lon="0.653073">
        <ele>3189.6</ele>
        <time>1970-01-01T04:08:37.000Z</time>
      </trkpt>
      <trkpt lat="42.63455" lon="0.653073">
        <ele>3189.6</ele>
        <time>1970-01-01T04:08:38.000Z</time>
      </trkpt>
      <trkpt lat="42.63455" lon="0.653073">
        <ele>3189.6</ele>
        <time>1970-01-01T04:08:39.000Z</time>
      </trkpt>
      <trkpt lat="42.634549" lon="0.653073">
        <ele>3189.6</ele>
        <time>1970-01-01T04:08:40.000Z</time>
      </trkpt>
      <trkpt lat="42.634549" lon="0.653073">
        <ele>3189.6</ele>
        <time>1970-01-01T04:08:41.000Z</time>
      </trkpt>
      <trkpt lat="42.634549" lon="0.653074">
        <ele>3189.6</ele>
        <time>1970-01-01T04:08:42.000Z</time>
      </trkpt>
      <trkpt lat="42.634549" lon="0.653074">
        <ele>3189.6</ele>
        <time>1970-01-01T04:08:43.000Z</time>
      </trkpt>
      <trkpt lat="42.634549" lon="0.653074">
        <ele>3189.6</ele>
        <time>1970-01-01T04:08:44.000Z</time>
      </trkpt>
      <trkpt lat="42.634549" lon="0.653073">
        <ele>3189.6</ele>
        <time>1970-01-01T04:08:45.000Z</time>
      </trkpt>
      <trkpt lat="42.634548" lon="0.653073">
        <ele>3189.6</ele>
        <time>1970-01-01T04:08:46.000Z</time>
      </trkpt>
      <trkpt lat="42.634548" lon="0.653073">
        <ele>3189.6</ele>
        <time>1970-01-01T04:08:47.000Z</time>
      </trkpt>
      <trkpt lat="42.634547" lon="0.653072">
        <ele>3189.6</ele>
        <time>1970-01-01T04:08:48.000Z</time>
      </trkpt>
      <trkpt lat="42.634547" lon="0.653072">
        <ele>3189.6</ele>
        <time>1970-01-01T04:08:49.000Z</time>
      </trkpt>
      <trkpt lat="42.634547" lon="0.653072">
        <ele>3189.6</ele>
        <time>1970-01-01T04:08:50.000Z</time>
      </trkpt>
      <trkpt lat="42.634547" lon="0.653072">
        <ele>3189.6</ele>
        <time>1970-01-01T04:08:51.000Z</time>
      </trkpt>
      <trkpt lat="42.634547" lon="0.653072">
        <ele>3189.6</ele>
        <time>1970-01-01T04:08:52.000Z</time>
      </trkpt>
      <trkpt lat="42.634547" lon="0.653073">
        <ele>3189.6</ele>
        <time>1970-01-01T04:08:53.000Z</time>
      </trkpt>
      <trkpt lat="42.634547" lon="0.653073">
        <ele>3189.6</ele>
        <time>1970-01-01T04:08:54.000Z</time>
      </trkpt>
      <trkpt lat="42.634547" lon="0.653073">
        <ele>3189.6</ele>
        <time>1970-01-01T04:08:55.000Z</time>
      </trkpt>
      <trkpt lat="42.634547" lon="0.653073">
        <ele>3189.6</ele>
        <time>1970-01-01T04:08:56.000Z</time>
      </trkpt>
      <trkpt lat="42.634547" lon="0.653073">
        <ele>3189.6</ele>
        <time>1970-01-01T04:08:57.000Z</time>
      </trkpt>
      <trkpt lat="42.634547" lon="0.653073">
        <ele>3189.6</ele>
        <time>1970-01-01T04:08:58.000Z</time>
      </trkpt>
      <trkpt lat="42.634547" lon="0.653072">
        <ele>3189.6</ele>
        <time>1970-01-01T04:08:59.000Z</time>
      </trkpt>
      <trkpt lat="42.634548" lon="0.653072">
        <ele>3189.6</ele>
        <time>1970-01-01T04:09:00.000Z</time>
      </trkpt>
      <trkpt lat="42.634548" lon="0.653072">
        <ele>3189.6</ele>
        <time>1970-01-01T04:09:01.000Z</time>
      </trkpt>
      <trkpt lat="42.634548" lon="0.653072">
        <ele>3189.6</ele>
        <time>1970-01-01T04:09:02.000Z</time>
      </trkpt>
      <trkpt lat="42.634548" lon="0.653072">
        <ele>3189.6</ele>
        <time>1970-01-01T04:09:03.000Z</time>
      </trkpt>
      <trkpt lat="42.634548" lon="0.653072">
        <ele>3189.6</ele>
        <time>1970-01-01T04:09:04.000Z</time>
      </trkpt>
      <trkpt lat="42.634548" lon="0.653072">
        <ele>3189.6</ele>
        <time>1970-01-01T04:09:05.000Z</time>
      </trkpt>
      <trkpt lat="42.634548" lon="0.653072">
        <ele>3189.6</ele>
        <time>1970-01-01T04:09:06.000Z</time>
      </trkpt>
      <trkpt lat="42.634548" lon="0.653072">
        <ele>3189.6</ele>
        <time>1970-01-01T04:09:07.000Z</time>
      </trkpt>
      <trkpt lat="42.634548" lon="0.653072">
        <ele>3189.6</ele>
        <time>1970-01-01T04:09:08.000Z</time>
      </trkpt>
      <trkpt lat="42.634547" lon="0.653072">
        <ele>3189.6</ele>
        <time>1970-01-01T04:09:09.000Z</time>
      </trkpt>
      <trkpt lat="42.634547" lon="0.653072">
        <ele>3189.6</ele>
        <time>1970-01-01T04:09:10.000Z</time>
      </trkpt>
      <trkpt lat="42.634547" lon="0.653072">
        <ele>3189.6</ele>
        <time>1970-01-01T04:09:11.000Z</time>
      </trkpt>
      <trkpt lat="42.634547" lon="0.653072">
        <ele>3189.6</ele>
        <time>1970-01-01T04:09:12.000Z</time>
      </trkpt>
      <trkpt lat="42.634547" lon="0.653072">
        <ele>3189.6</ele>
        <time>1970-01-01T04:09:13.000Z</time>
      </trkpt>
      <trkpt lat="42.634547" lon="0.653072">
        <ele>3189.6</ele>
        <time>1970-01-01T04:09:14.000Z</time>
      </trkpt>
      <trkpt lat="42.634547" lon="0.653071">
        <ele>3189.6</ele>
        <time>1970-01-01T04:09:15.000Z</time>
      </trkpt>
      <trkpt lat="42.634548" lon="0.653071">
        <ele>3189.6</ele>
        <time>1970-01-01T04:09:16.000Z</time>
      </trkpt>
      <trkpt lat="42.634548" lon="0.653071">
        <ele>3189.6</ele>
        <time>1970-01-01T04:09:17.000Z</time>
      </trkpt>
      <trkpt lat="42.634547" lon="0.653071">
        <ele>3189.6</ele>
        <time>1970-01-01T04:09:18.000Z</time>
      </trkpt>
      <trkpt lat="42.634547" lon="0.653071">
        <ele>3189.6</ele>
        <time>1970-01-01T04:09:19.000Z</time>
      </trkpt>
      <trkpt lat="42.634547" lon="0.653071">
        <ele>3189.6</ele>
        <time>1970-01-01T04:09:20.000Z</time>
      </trkpt>
      <trkpt lat="42.634547" lon="0.653071">
        <ele>3189.6</ele>
        <time>1970-01-01T04:09:21.000Z</time>
      </trkpt>
      <trkpt lat="42.634547" lon="0.653071">
        <ele>3189.6</ele>
        <time>1970-01-01T04:09:22.000Z</time>
      </trkpt>
      <trkpt lat="42.634547" lon="0.653071">
        <ele>3189.6</ele>
        <time>1970-01-01T04:09:23.000Z</time>
      </trkpt>
      <trkpt lat="42.634547" lon="0.653071">
        <ele>3189.6</ele>
        <time>1970-01-01T04:09:24.000Z</time>
      </trkpt>
      <trkpt lat="42.634547" lon="0.653071">
        <ele>3189.6</ele>
        <time>1970-01-01T04:09:25.000Z</time>
      </trkpt>
      <trkpt lat="42.634547" lon="0.653071">
        <ele>3189.6</ele>
        <time>1970-01-01T04:09:26.000Z</time>
      </trkpt>
      <trkpt lat="42.634547" lon="0.653071">
        <ele>3189.6</ele>
        <time>1970-01-01T04:09:27.000Z</time>
      </trkpt>
      <trkpt lat="42.634547" lon="0.653071">
        <ele>3189.6</ele>
        <time>1970-01-01T04:09:28.000Z</time>
      </trkpt>
      <trkpt lat="42.634547" lon="0.653071">
        <ele>3189.6</ele>
        <time>1970-01-01T04:09:29.000Z</time>
      </trkpt>
      <trkpt lat="42.634547" lon="0.653071">
        <ele>3189.6</ele>
        <time>1970-01-01T04:09:30.000Z</time>
      </trkpt>
      <trkpt lat="42.634547" lon="0.653071">
        <ele>3189.6</ele>
        <time>1970-01-01T04:09:31.000Z</time>
      </trkpt>
      <trkpt lat="42.634547" lon="0.653071">
        <ele>3189.6</ele>
        <time>1970-01-01T04:09:32.000Z</time>
      </trkpt>
      <trkpt lat="42.634547" lon="0.653071">
        <ele>3189.6</ele>
        <time>1970-01-01T04:09:33.000Z</time>
      </trkpt>
      <trkpt lat="42.634547" lon="0.653071">
        <ele>3189.6</ele>
        <time>1970-01-01T04:09:34.000Z</time>
      </trkpt>
      <trkpt lat="42.634547" lon="0.653071">
        <ele>3189.6</ele>
        <time>1970-01-01T04:09:35.000Z</time>
      </trkpt>
      <trkpt lat="42.634547" lon="0.653071">
        <ele>3189.6</ele>
        <time>1970-01-01T04:09:36.000Z</time>
      </trkpt>
      <trkpt lat="42.634547" lon="0.653071">
        <ele>3189.6</ele>
        <time>1970-01-01T04:09:37.000Z</time>
      </trkpt>
      <trkpt lat="42.634547" lon="0.653071">
        <ele>3189.6</ele>
        <time>1970-01-01T04:09:38.000Z</time>
      </trkpt>
      <trkpt lat="42.634547" lon="0.653071">
        <ele>3189.6</ele>
        <time>1970-01-01T04:09:39.000Z</time>
      </trkpt>
      <trkpt lat="42.634547" lon="0.653071">
        <ele>3189.6</ele>
        <time>1970-01-01T04:09:40.000Z</time>
      </trkpt>
      <trkpt lat="42.634547" lon="0.653071">
        <ele>3189.6</ele>
        <time>1970-01-01T04:09:41.000Z</time>
      </trkpt>
      <trkpt lat="42.634548" lon="0.653071">
        <ele>3189.6</ele>
        <time>1970-01-01T04:09:42.000Z</time>
      </trkpt>
      <trkpt lat="42.634548" lon="0.653071">
        <ele>3189.6</ele>
        <time>1970-01-01T04:09:43.000Z</time>
      </trkpt>
      <trkpt lat="42.634548" lon="0.653071">
        <ele>3189.6</ele>
        <time>1970-01-01T04:09:44.000Z</time>
      </trkpt>
      <trkpt lat="42.634548" lon="0.653071">
        <ele>3189.6</ele>
        <time>1970-01-01T04:09:45.000Z</time>
      </trkpt>
      <trkpt lat="42.634548" lon="0.653071">
        <ele>3189.6</ele>
        <time>1970-01-01T04:09:46.000Z</time>
      </trkpt>
      <trkpt lat="42.634548" lon="0.653071">
        <ele>3189.6</ele>
        <time>1970-01-01T04:09:47.000Z</time>
      </trkpt>
      <trkpt lat="42.634548" lon="0.653071">
        <ele>3189.6</ele>
        <time>1970-01-01T04:09:48.000Z</time>
      </trkpt>
      <trkpt lat="42.634548" lon="0.653071">
        <ele>3189.6</ele>
        <time>1970-01-01T04:09:49.000Z</time>
      </trkpt>
      <trkpt lat="42.634548" lon="0.653071">
        <ele>3189.6</ele>
        <time>1970-01-01T04:09:50.000Z</time>
      </trkpt>
      <trkpt lat="42.634548" lon="0.653071">
        <ele>3189.6</ele>
        <time>1970-01-01T04:09:51.000Z</time>
      </trkpt>
      <trkpt lat="42.634548" lon="0.653071">
        <ele>3189.6</ele>
        <time>1970-01-01T04:09:52.000Z</time>
      </trkpt>
      <trkpt lat="42.634548" lon="0.653071">
        <ele>3189.6</ele>
        <time>1970-01-01T04:09:53.000Z</time>
      </trkpt>
      <trkpt lat="42.634548" lon="0.653071">
        <ele>3189.6</ele>
        <time>1970-01-01T04:09:54.000Z</time>
      </trkpt>
      <trkpt lat="42.634548" lon="0.653071">
        <ele>3189.6</ele>
        <time>1970-01-01T04:09:55.000Z</time>
      </trkpt>
      <trkpt lat="42.634548" lon="0.653071">
        <ele>3189.6</ele>
        <time>1970-01-01T04:09:56.000Z</time>
      </trkpt>
      <trkpt lat="42.634548" lon="0.653071">
        <ele>3189.6</ele>
        <time>1970-01-01T04:09:57.000Z</time>
      </trkpt>
      <trkpt lat="42.634548" lon="0.653071">
        <ele>3189.6</ele>
        <time>1970-01-01T04:09:58.000Z</time>
      </trkpt>
      <trkpt lat="42.634548" lon="0.653071">
        <ele>3189.6</ele>
        <time>1970-01-01T04:09:59.000Z</time>
      </trkpt>
      <trkpt lat="42.634548" lon="0.653071">
        <ele>3189.6</ele>
        <time>1970-01-01T04:10:00.000Z</time>
      </trkpt>
      <trkpt lat="42.634548" lon="0.653071">
        <ele>3189.6</ele>
        <time>1970-01-01T04:10:01.000Z</time>
      </trkpt>
      <trkpt lat="42.634548" lon="0.653071">
        <ele>3189.6</ele>
        <time>1970-01-01T04:10:02.000Z</time>
      </trkpt>
      <trkpt lat="42.634548" lon="0.653071">
        <ele>3189.6</ele>
        <time>1970-01-01T04:10:03.000Z</time>
      </trkpt>
      <trkpt lat="42.634548" lon="0.653071">
        <ele>3189.6</ele>
        <time>1970-01-01T04:10:04.000Z</time>
      </trkpt>
      <trkpt lat="42.634548" lon="0.653071">
        <ele>3189.6</ele>
        <time>1970-01-01T04:10:05.000Z</time>
      </trkpt>
      <trkpt lat="42.634548" lon="0.653071">
        <ele>3189.6</ele>
        <time>1970-01-01T04:10:06.000Z</time>
      </trkpt>
      <trkpt lat="42.634548" lon="0.653071">
        <ele>3189.6</ele>
        <time>1970-01-01T04:10:07.000Z</time>
      </trkpt>
      <trkpt lat="42.634548" lon="0.653071">
        <ele>3189.6</ele>
        <time>1970-01-01T04:10:08.000Z</time>
      </trkpt>
      <trkpt lat="42.634548" lon="0.653071">
        <ele>3189.6</ele>
        <time>1970-01-01T04:10:09.000Z</time>
      </trkpt>
      <trkpt lat="42.634548" lon="0.653071">
        <ele>3189.6</ele>
        <time>1970-01-01T04:10:10.000Z</time>
      </trkpt>
      <trkpt lat="42.634548" lon="0.653071">
        <ele>3189.6</ele>
        <time>1970-01-01T04:10:11.000Z</time>
      </trkpt>
      <trkpt lat="42.634548" lon="0.653071">
        <ele>3189.6</ele>
        <time>1970-01-01T04:10:12.000Z</time>
      </trkpt>
      <trkpt lat="42.634548" lon="0.653071">
        <ele>3189.6</ele>
        <time>1970-01-01T04:10:13.000Z</time>
      </trkpt>
      <trkpt lat="42.634548" lon="0.653071">
        <ele>3189.6</ele>
        <time>1970-01-01T04:10:14.000Z</time>
      </trkpt>
      <trkpt lat="42.634548" lon="0.653071">
        <ele>3189.6</ele>
        <time>1970-01-01T04:10:15.000Z</time>
      </trkpt>
      <trkpt lat="42.634548" lon="0.653071">
        <ele>3189.6</ele>
        <time>1970-01-01T04:10:16.000Z</time>
      </trkpt>
      <trkpt lat="42.634548" lon="0.653071">
        <ele>3189.6</ele>
        <time>1970-01-01T04:10:17.000Z</time>
      </trkpt>
      <trkpt lat="42.634548" lon="0.653071">
        <ele>3189.6</ele>
        <time>1970-01-01T04:10:18.000Z</time>
      </trkpt>
      <trkpt lat="42.634548" lon="0.653071">
        <ele>3189.6</ele>
        <time>1970-01-01T04:10:19.000Z</time>
      </trkpt>
      <trkpt lat="42.634548" lon="0.653071">
        <ele>3189.6</ele>
        <time>1970-01-01T04:10:20.000Z</time>
      </trkpt>
      <trkpt lat="42.634548" lon="0.653071">
        <ele>3189.6</ele>
        <time>1970-01-01T04:10:21.000Z</time>
      </trkpt>
      <trkpt lat="42.634548" lon="0.653071">
        <ele>3189.6</ele>
        <time>1970-01-01T04:10:22.000Z</time>
      </trkpt>
      <trkpt lat="42.634548" lon="0.653071">
        <ele>3189.6</ele>
        <time>1970-01-01T04:10:23.000Z</time>
      </trkpt>
      <trkpt lat="42.634548" lon="0.653071">
        <ele>3189.6</ele>
        <time>1970-01-01T04:10:24.000Z</time>
      </trkpt>
      <trkpt lat="42.634548" lon="0.653071">
        <ele>3189.6</ele>
        <time>1970-01-01T04:10:25.000Z</time>
      </trkpt>
      <trkpt lat="42.634548" lon="0.653071">
        <ele>3189.6</ele>
        <time>1970-01-01T04:10:26.000Z</time>
      </trkpt>
      <trkpt lat="42.634548" lon="0.653071">
        <ele>3189.6</ele>
        <time>1970-01-01T04:10:27.000Z</time>
      </trkpt>
      <trkpt lat="42.634548" lon="0.653071">
        <ele>3189.6</ele>
        <time>1970-01-01T04:10:28.000Z</time>
      </trkpt>
      <trkpt lat="42.634548" lon="0.653071">
        <ele>3189.6</ele>
        <time>1970-01-01T04:10:29.000Z</time>
      </trkpt>
      <trkpt lat="42.634548" lon="0.653071">
        <ele>3189.6</ele>
        <time>1970-01-01T04:10:30.000Z</time>
      </trkpt>
      <trkpt lat="42.634548" lon="0.653071">
        <ele>3189.6</ele>
        <time>1970-01-01T04:10:31.000Z</time>
      </trkpt>
      <trkpt lat="42.634548" lon="0.653071">
        <ele>3189.6</ele>
        <time>1970-01-01T04:10:32.000Z</time>
      </trkpt>
      <trkpt lat="42.634548" lon="0.653071">
        <ele>3189.6</ele>
        <time>1970-01-01T04:10:33.000Z</time>
      </trkpt>
      <trkpt lat="42.634548" lon="0.653071">
        <ele>3189.6</ele>
        <time>1970-01-01T04:10:34.000Z</time>
      </trkpt>
      <trkpt lat="42.634548" lon="0.653071">
        <ele>3189.6</ele>
        <time>1970-01-01T04:10:35.000Z</time>
      </trkpt>
      <trkpt lat="42.634548" lon="0.653071">
        <ele>3189.6</ele>
        <time>1970-01-01T04:10:36.000Z</time>
      </trkpt>
      <trkpt lat="42.634548" lon="0.653071">
        <ele>3189.6</ele>
        <time>1970-01-01T04:10:37.000Z</time>
      </trkpt>
      <trkpt lat="42.634548" lon="0.653071">
        <ele>3189.6</ele>
        <time>1970-01-01T04:10:38.000Z</time>
      </trkpt>
      <trkpt lat="42.634548" lon="0.653071">
        <ele>3189.6</ele>
        <time>1970-01-01T04:10:39.000Z</time>
      </trkpt>
      <trkpt lat="42.634548" lon="0.65307">
        <ele>3189.6</ele>
        <time>1970-01-01T04:10:40.000Z</time>
      </trkpt>
      <trkpt lat="42.634548" lon="0.65307">
        <ele>3189.6</ele>
        <time>1970-01-01T04:10:41.000Z</time>
      </trkpt>
      <trkpt lat="42.634548" lon="0.65307">
        <ele>3189.6</ele>
        <time>1970-01-01T04:10:42.000Z</time>
      </trkpt>
      <trkpt lat="42.634548" lon="0.65307">
        <ele>3189.6</ele>
        <time>1970-01-01T04:10:43.000Z</time>
      </trkpt>
      <trkpt lat="42.634548" lon="0.65307">
        <ele>3189.6</ele>
        <time>1970-01-01T04:10:44.000Z</time>
      </trkpt>
      <trkpt lat="42.634548" lon="0.65307">
        <ele>3189.6</ele>
        <time>1970-01-01T04:10:45.000Z</time>
      </trkpt>
      <trkpt lat="42.634548" lon="0.65307">
        <ele>3189.6</ele>
        <time>1970-01-01T04:10:46.000Z</time>
      </trkpt>
      <trkpt lat="42.634548" lon="0.65307">
        <ele>3189.6</ele>
        <time>1970-01-01T04:10:47.000Z</time>
      </trkpt>
      <trkpt lat="42.634548" lon="0.65307">
        <ele>3189.6</ele>
        <time>1970-01-01T04:10:48.000Z</time>
      </trkpt>
      <trkpt lat="42.634548" lon="0.65307">
        <ele>3189.6</ele>
        <time>1970-01-01T04:10:49.000Z</time>
      </trkpt>
      <trkpt lat="42.634548" lon="0.653071">
        <ele>3189.7</ele>
        <time>1970-01-01T04:10:50.000Z</time>
      </trkpt>
      <trkpt lat="42.634548" lon="0.653071">
        <ele>3189.7</ele>
        <time>1970-01-01T04:10:51.000Z</time>
      </trkpt>
      <trkpt lat="42.634548" lon="0.653071">
        <ele>3189.7</ele>
        <time>1970-01-01T04:10:52.000Z</time>
      </trkpt>
      <trkpt lat="42.634548" lon="0.653071">
        <ele>3189.7</ele>
        <time>1970-01-01T04:10:53.000Z</time>
      </trkpt>
      <trkpt lat="42.634548" lon="0.653071">
        <ele>3189.7</ele>
        <time>1970-01-01T04:10:54.000Z</time>
      </trkpt>
      <trkpt lat="42.634548" lon="0.653071">
        <ele>3189.7</ele>
        <time>1970-01-01T04:10:55.000Z</time>
      </trkpt>
      <trkpt lat="42.634548" lon="0.653071">
        <ele>3189.7</ele>
        <time>1970-01-01T04:10:56.000Z</time>
      </trkpt>
      <trkpt lat="42.634548" lon="0.653071">
        <ele>3189.7</ele>
        <time>1970-01-01T04:10:57.000Z</time>
      </trkpt>
      <trkpt lat="42.634548" lon="0.653071">
        <ele>3189.7</ele>
        <time>1970-01-01T04:10:58.000Z</time>
      </trkpt>
      <trkpt lat="42.634548" lon="0.653071">
        <ele>3189.7</ele>
        <time>1970-01-01T04:10:59.000Z</time>
      </trkpt>
      <trkpt lat="42.634548" lon="0.653071">
        <ele>3189.7</ele>
        <time>1970-01-01T04:11:00.000Z</time>
      </trkpt>
      <trkpt lat="42.634548" lon="0.653071">
        <ele>3189.7</ele>
        <time>1970-01-01T04:11:01.000Z</time>
      </trkpt>
      <trkpt lat="42.634548" lon="0.653071">
        <ele>3189.7</ele>
        <time>1970-01-01T04:11:02.000Z</time>
      </trkpt>
      <trkpt lat="42.634548" lon="0.653071">
        <ele>3189.7</ele>
        <time>1970-01-01T04:11:03.000Z</time>
      </trkpt>
      <trkpt lat="42.634548" lon="0.653071">
        <ele>3189.7</ele>
        <time>1970-01-01T04:11:04.000Z</time>
      </trkpt>
      <trkpt lat="42.634548" lon="0.653071">
        <ele>3189.7</ele>
        <time>1970-01-01T04:11:05.000Z</time>
      </trkpt>
      <trkpt lat="42.634548" lon="0.653071">
        <ele>3189.7</ele>
        <time>1970-01-01T04:11:06.000Z</time>
      </trkpt>
      <trkpt lat="42.634548" lon="0.653071">
        <ele>3189.7</ele>
        <time>1970-01-01T04:11:07.000Z</time>
      </trkpt>
      <trkpt lat="42.634548" lon="0.653071">
        <ele>3189.7</ele>
        <time>1970-01-01T04:11:08.000Z</time>
      </trkpt>
      <trkpt lat="42.634548" lon="0.653071">
        <ele>3189.7</ele>
        <time>1970-01-01T04:11:09.000Z</time>
      </trkpt>
      <trkpt lat="42.634548" lon="0.653071">
        <ele>3189.8</ele>
        <time>1970-01-01T04:11:10.000Z</time>
      </trkpt>
      <trkpt lat="42.634548" lon="0.653071">
        <ele>3189.8</ele>
        <time>1970-01-01T04:11:11.000Z</time>
      </trkpt>
      <trkpt lat="42.634548" lon="0.653071">
        <ele>3189.8</ele>
        <time>1970-01-01T04:11:12.000Z</time>
      </trkpt>
      <trkpt lat="42.634548" lon="0.653071">
        <ele>3189.8</ele>
        <time>1970-01-01T04:11:13.000Z</time>
      </trkpt>
      <trkpt lat="42.634548" lon="0.653071">
        <ele>3189.8</ele>
        <time>1970-01-01T04:11:14.000Z</time>
      </trkpt>
      <trkpt lat="42.634548" lon="0.653071">
        <ele>3189.8</ele>
        <time>1970-01-01T04:11:15.000Z</time>
      </trkpt>
      <trkpt lat="42.634548" lon="0.653071">
        <ele>3189.8</ele>
        <time>1970-01-01T04:11:16.000Z</time>
      </trkpt>
      <trkpt lat="42.634548" lon="0.653071">
        <ele>3189.8</ele>
        <time>1970-01-01T04:11:17.000Z</time>
      </trkpt>
      <trkpt lat="42.634548" lon="0.653071">
        <ele>3189.8</ele>
        <time>1970-01-01T04:11:18.000Z</time>
      </trkpt>
      <trkpt lat="42.634548" lon="0.653071">
        <ele>3189.8</ele>
        <time>1970-01-01T04:11:19.000Z</time>
      </trkpt>
      <trkpt lat="42.634548" lon="0.653071">
        <ele>3189.8</ele>
        <time>1970-01-01T04:11:20.000Z</time>
      </trkpt>
      <trkpt lat="42.634548" lon="0.653071">
        <ele>3189.8</ele>
        <time>1970-01-01T04:11:21.000Z</time>
      </trkpt>
      <trkpt lat="42.634548" lon="0.653071">
        <ele>3189.8</ele>
        <time>1970-01-01T04:11:22.000Z</time>
      </trkpt>
      <trkpt lat="42.634548" lon="0.653071">
        <ele>3189.8</ele>
        <time>1970-01-01T04:11:23.000Z</time>
      </trkpt>
      <trkpt lat="42.634548" lon="0.653071">
        <ele>3189.8</ele>
        <time>1970-01-01T04:11:24.000Z</time>
      </trkpt>
      <trkpt lat="42.634548" lon="0.653071">
        <ele>3189.8</ele>
        <time>1970-01-01T04:11:25.000Z</time>
      </trkpt>
      <trkpt lat="42.634548" lon="0.653071">
        <ele>3189.8</ele>
        <time>1970-01-01T04:11:26.000Z</time>
      </trkpt>
      <trkpt lat="42.634548" lon="0.653071">
        <ele>3189.8</ele>
        <time>1970-01-01T04:11:27.000Z</time>
      </trkpt>
      <trkpt lat="42.634548" lon="0.653071">
        <ele>3189.8</ele>
        <time>1970-01-01T04:11:28.000Z</time>
      </trkpt>
      <trkpt lat="42.634548" lon="0.653071">
        <ele>3189.8</ele>
        <time>1970-01-01T04:11:29.000Z</time>
      </trkpt>
      <trkpt lat="42.634548" lon="0.653071">
        <ele>3189.8</ele>
        <time>1970-01-01T04:11:30.000Z</time>
      </trkpt>
      <trkpt lat="42.634548" lon="0.653071">
        <ele>3189.8</ele>
        <time>1970-01-01T04:11:31.000Z</time>
      </trkpt>
      <trkpt lat="42.634548" lon="0.653071">
        <ele>3189.8</ele>
        <time>1970-01-01T04:11:32.000Z</time>
      </trkpt>
      <trkpt lat="42.634548" lon="0.653071">
        <ele>3189.8</ele>
        <time>1970-01-01T04:11:33.000Z</time>
      </trkpt>
      <trkpt lat="42.634548" lon="0.653071">
        <ele>3189.8</ele>
        <time>1970-01-01T04:11:34.000Z</time>
      </trkpt>
      <trkpt lat="42.634548" lon="0.653071">
        <ele>3189.9</ele>
        <time>1970-01-01T04:11:35.000Z</time>
      </trkpt>
      <trkpt lat="42.634548" lon="0.653071">
        <ele>3189.9</ele>
        <time>1970-01-01T04:11:36.000Z</time>
      </trkpt>
      <trkpt lat="42.634548" lon="0.653071">
        <ele>3189.9</ele>
        <time>1970-01-01T04:11:37.000Z</time>
      </trkpt>
      <trkpt lat="42.634548" lon="0.653071">
        <ele>3189.9</ele>
        <time>1970-01-01T04:11:38.000Z</time>
      </trkpt>
      <trkpt lat="42.634548" lon="0.653071">
        <ele>3189.9</ele>
        <time>1970-01-01T04:11:39.000Z</time>
      </trkpt>
      <trkpt lat="42.634548" lon="0.653071">
        <ele>3189.9</ele>
        <time>1970-01-01T04:11:40.000Z</time>
      </trkpt>
      <trkpt lat="42.634548" lon="0.653072">
        <ele>3189.9</ele>
        <time>1970-01-01T04:11:41.000Z</time>
      </trkpt>
      <trkpt lat="42.634548" lon="0.653072">
        <ele>3189.9</ele>
        <time>1970-01-01T04:11:42.000Z</time>
      </trkpt>
      <trkpt lat="42.634548" lon="0.653071">
        <ele>3189.9</ele>
        <time>1970-01-01T04:11:43.000Z</time>
      </trkpt>
      <trkpt lat="42.634548" lon="0.653071">
        <ele>3189.9</ele>
        <time>1970-01-01T04:11:44.000Z</time>
      </trkpt>
      <trkpt lat="42.634548" lon="0.653071">
        <ele>3189.9</ele>
        <time>1970-01-01T04:11:45.000Z</time>
      </trkpt>
      <trkpt lat="42.634548" lon="0.653072">
        <ele>3189.9</ele>
        <time>1970-01-01T04:11:46.000Z</time>
      </trkpt>
      <trkpt lat="42.634548" lon="0.653072">
        <ele>3189.9</ele>
        <time>1970-01-01T04:11:47.000Z</time>
      </trkpt>
      <trkpt lat="42.634548" lon="0.653072">
        <ele>3189.9</ele>
        <time>1970-01-01T04:11:48.000Z</time>
      </trkpt>
      <trkpt lat="42.634548" lon="0.653072">
        <ele>3189.9</ele>
        <time>1970-01-01T04:11:49.000Z</time>
      </trkpt>
      <trkpt lat="42.634548" lon="0.653072">
        <ele>3189.9</ele>
        <time>1970-01-01T04:11:50.000Z</time>
      </trkpt>
      <trkpt lat="42.634548" lon="0.653072">
        <ele>3189.9</ele>
        <time>1970-01-01T04:11:51.000Z</time>
      </trkpt>
      <trkpt lat="42.634549" lon="0.653072">
        <ele>3189.9</ele>
        <time>1970-01-01T04:11:52.000Z</time>
      </trkpt>
      <trkpt lat="42.634549" lon="0.653072">
        <ele>3189.9</ele>
        <time>1970-01-01T04:11:53.000Z</time>
      </trkpt>
      <trkpt lat="42.634549" lon="0.653072">
        <ele>3189.9</ele>
        <time>1970-01-01T04:11:54.000Z</time>
      </trkpt>
      <trkpt lat="42.634549" lon="0.653072">
        <ele>3189.9</ele>
        <time>1970-01-01T04:11:55.000Z</time>
      </trkpt>
      <trkpt lat="42.634549" lon="0.653072">
        <ele>3189.9</ele>
        <time>1970-01-01T04:11:56.000Z</time>
      </trkpt>
      <trkpt lat="42.634549" lon="0.653072">
        <ele>3189.9</ele>
        <time>1970-01-01T04:11:57.000Z</time>
      </trkpt>
      <trkpt lat="42.634549" lon="0.653072">
        <ele>3189.9</ele>
        <time>1970-01-01T04:11:58.000Z</time>
      </trkpt>
      <trkpt lat="42.634549" lon="0.653072">
        <ele>3189.9</ele>
        <time>1970-01-01T04:11:59.000Z</time>
      </trkpt>
      <trkpt lat="42.634549" lon="0.653072">
        <ele>3190</ele>
        <time>1970-01-01T04:12:00.000Z</time>
      </trkpt>
      <trkpt lat="42.634549" lon="0.653072">
        <ele>3190</ele>
        <time>1970-01-01T04:12:01.000Z</time>
      </trkpt>
      <trkpt lat="42.634549" lon="0.653072">
        <ele>3190</ele>
        <time>1970-01-01T04:12:02.000Z</time>
      </trkpt>
      <trkpt lat="42.634549" lon="0.653072">
        <ele>3190</ele>
        <time>1970-01-01T04:12:03.000Z</time>
      </trkpt>
      <trkpt lat="42.634549" lon="0.653072">
        <ele>3190</ele>
        <time>1970-01-01T04:12:04.000Z</time>
      </trkpt>
      <trkpt lat="42.634549" lon="0.653072">
        <ele>3190</ele>
        <time>1970-01-01T04:12:05.000Z</time>
      </trkpt>
      <trkpt lat="42.634549" lon="0.653072">
        <ele>3190</ele>
        <time>1970-01-01T04:12:06.000Z</time>
      </trkpt>
      <trkpt lat="42.634549" lon="0.653072">
        <ele>3190</ele>
        <time>1970-01-01T04:12:07.000Z</time>
      </trkpt>
      <trkpt lat="42.634549" lon="0.653073">
        <ele>3190</ele>
        <time>1970-01-01T04:12:08.000Z</time>
      </trkpt>
      <trkpt lat="42.634549" lon="0.653072">
        <ele>3190</ele>
        <time>1970-01-01T04:12:09.000Z</time>
      </trkpt>
      <trkpt lat="42.634549" lon="0.653072">
        <ele>3190</ele>
        <time>1970-01-01T04:12:10.000Z</time>
      </trkpt>
      <trkpt lat="42.634549" lon="0.653072">
        <ele>3190</ele>
        <time>1970-01-01T04:12:11.000Z</time>
      </trkpt>
      <trkpt lat="42.63455" lon="0.653072">
        <ele>3190</ele>
        <time>1970-01-01T04:12:12.000Z</time>
      </trkpt>
      <trkpt lat="42.63455" lon="0.653072">
        <ele>3190</ele>
        <time>1970-01-01T04:12:13.000Z</time>
      </trkpt>
      <trkpt lat="42.63455" lon="0.653072">
        <ele>3190</ele>
        <time>1970-01-01T04:12:14.000Z</time>
      </trkpt>
      <trkpt lat="42.63455" lon="0.653072">
        <ele>3190</ele>
        <time>1970-01-01T04:12:15.000Z</time>
      </trkpt>
      <trkpt lat="42.634551" lon="0.653072">
        <ele>3190</ele>
        <time>1970-01-01T04:12:16.000Z</time>
      </trkpt>
      <trkpt lat="42.63455" lon="0.653072">
        <ele>3190</ele>
        <time>1970-01-01T04:12:17.000Z</time>
      </trkpt>
      <trkpt lat="42.63455" lon="0.653073">
        <ele>3190</ele>
        <time>1970-01-01T04:12:18.000Z</time>
      </trkpt>
      <trkpt lat="42.634549" lon="0.653074">
        <ele>3190</ele>
        <time>1970-01-01T04:12:19.000Z</time>
      </trkpt>
      <trkpt lat="42.634549" lon="0.653075">
        <ele>3190</ele>
        <time>1970-01-01T04:12:20.000Z</time>
      </trkpt>
      <trkpt lat="42.634549" lon="0.653075">
        <ele>3190</ele>
        <time>1970-01-01T04:12:21.000Z</time>
      </trkpt>
      <trkpt lat="42.634549" lon="0.653075">
        <ele>3190</ele>
        <time>1970-01-01T04:12:22.000Z</time>
      </trkpt>
      <trkpt lat="42.634549" lon="0.653073">
        <ele>3190</ele>
        <time>1970-01-01T04:12:23.000Z</time>
      </trkpt>
      <trkpt lat="42.634549" lon="0.653073">
        <ele>3190</ele>
        <time>1970-01-01T04:12:24.000Z</time>
      </trkpt>
      <trkpt lat="42.634549" lon="0.653072">
        <ele>3190.1</ele>
        <time>1970-01-01T04:12:25.000Z</time>
      </trkpt>
      <trkpt lat="42.634549" lon="0.653072">
        <ele>3190.1</ele>
        <time>1970-01-01T04:12:26.000Z</time>
      </trkpt>
      <trkpt lat="42.634549" lon="0.653072">
        <ele>3190.1</ele>
        <time>1970-01-01T04:12:27.000Z</time>
      </trkpt>
      <trkpt lat="42.634549" lon="0.653072">
        <ele>3190.1</ele>
        <time>1970-01-01T04:12:28.000Z</time>
      </trkpt>
      <trkpt lat="42.634549" lon="0.653072">
        <ele>3190.1</ele>
        <time>1970-01-01T04:12:29.000Z</time>
      </trkpt>
      <trkpt lat="42.634549" lon="0.653072">
        <ele>3190.1</ele>
        <time>1970-01-01T04:12:30.000Z</time>
      </trkpt>
      <trkpt lat="42.634549" lon="0.653072">
        <ele>3190.1</ele>
        <time>1970-01-01T04:12:31.000Z</time>
      </trkpt>
      <trkpt lat="42.634549" lon="0.653072">
        <ele>3190.1</ele>
        <time>1970-01-01T04:12:32.000Z</time>
      </trkpt>
      <trkpt lat="42.634549" lon="0.653072">
        <ele>3190.1</ele>
        <time>1970-01-01T04:12:33.000Z</time>
      </trkpt>
      <trkpt lat="42.634549" lon="0.653072">
        <ele>3190.1</ele>
        <time>1970-01-01T04:12:34.000Z</time>
      </trkpt>
      <trkpt lat="42.634549" lon="0.653072">
        <ele>3190.1</ele>
        <time>1970-01-01T04:12:35.000Z</time>
      </trkpt>
      <trkpt lat="42.634549" lon="0.653072">
        <ele>3190.1</ele>
        <time>1970-01-01T04:12:36.000Z</time>
      </trkpt>
      <trkpt lat="42.634549" lon="0.653072">
        <ele>3190.1</ele>
        <time>1970-01-01T04:12:37.000Z</time>
      </trkpt>
      <trkpt lat="42.634549" lon="0.653072">
        <ele>3190.1</ele>
        <time>1970-01-01T04:12:38.000Z</time>
      </trkpt>
      <trkpt lat="42.634549" lon="0.653072">
        <ele>3190.1</ele>
        <time>1970-01-01T04:12:39.000Z</time>
      </trkpt>
      <trkpt lat="42.634549" lon="0.653072">
        <ele>3190.1</ele>
        <time>1970-01-01T04:12:40.000Z</time>
      </trkpt>
      <trkpt lat="42.634549" lon="0.653072">
        <ele>3190.1</ele>
        <time>1970-01-01T04:12:41.000Z</time>
      </trkpt>
      <trkpt lat="42.634549" lon="0.653072">
        <ele>3190.1</ele>
        <time>1970-01-01T04:12:42.000Z</time>
      </trkpt>
      <trkpt lat="42.634549" lon="0.653072">
        <ele>3190.1</ele>
        <time>1970-01-01T04:12:43.000Z</time>
      </trkpt>
      <trkpt lat="42.634549" lon="0.653072">
        <ele>3190.1</ele>
        <time>1970-01-01T04:12:44.000Z</time>
      </trkpt>
      <trkpt lat="42.634549" lon="0.653072">
        <ele>3190.1</ele>
        <time>1970-01-01T04:12:45.000Z</time>
      </trkpt>
      <trkpt lat="42.634549" lon="0.653072">
        <ele>3190.1</ele>
        <time>1970-01-01T04:12:46.000Z</time>
      </trkpt>
      <trkpt lat="42.634549" lon="0.653072">
        <ele>3190.1</ele>
        <time>1970-01-01T04:12:47.000Z</time>
      </trkpt>
      <trkpt lat="42.634549" lon="0.653072">
        <ele>3190.1</ele>
        <time>1970-01-01T04:12:48.000Z</time>
      </trkpt>
      <trkpt lat="42.634549" lon="0.653072">
        <ele>3190.1</ele>
        <time>1970-01-01T04:12:49.000Z</time>
      </trkpt>
      <trkpt lat="42.634549" lon="0.653072">
        <ele>3190.1</ele>
        <time>1970-01-01T04:12:50.000Z</time>
      </trkpt>
      <trkpt lat="42.634552" lon="0.653058">
        <ele>3190.2</ele>
        <time>1970-01-01T04:12:51.000Z</time>
      </trkpt>
      <trkpt lat="42.634554" lon="0.653051">
        <ele>3190.2</ele>
        <time>1970-01-01T04:12:52.000Z</time>
      </trkpt>
      <trkpt lat="42.634552" lon="0.653053">
        <ele>3190.2</ele>
        <time>1970-01-01T04:12:53.000Z</time>
      </trkpt>
      <trkpt lat="42.634548" lon="0.65306">
        <ele>3190.2</ele>
        <time>1970-01-01T04:12:54.000Z</time>
      </trkpt>
      <trkpt lat="42.634545" lon="0.653067">
        <ele>3190.2</ele>
        <time>1970-01-01T04:12:55.000Z</time>
      </trkpt>
      <trkpt lat="42.634545" lon="0.653071">
        <ele>3190.3</ele>
        <time>1970-01-01T04:12:57.000Z</time>
      </trkpt>
      <trkpt lat="42.634543" lon="0.653073">
        <ele>3190.3</ele>
        <time>1970-01-01T04:12:58.000Z</time>
      </trkpt>
      <trkpt lat="42.634542" lon="0.653075">
        <ele>3190.3</ele>
        <time>1970-01-01T04:12:59.000Z</time>
      </trkpt>
      <trkpt lat="42.634547" lon="0.653082">
        <ele>3190.3</ele>
        <time>1970-01-01T04:13:01.000Z</time>
      </trkpt>
      <trkpt lat="42.63455" lon="0.653089">
        <ele>3190.3</ele>
        <time>1970-01-01T04:13:02.000Z</time>
      </trkpt>
      <trkpt lat="42.634552" lon="0.653095">
        <ele>3190.3</ele>
        <time>1970-01-01T04:13:03.000Z</time>
      </trkpt>
      <trkpt lat="42.634552" lon="0.653107">
        <ele>3190.4</ele>
        <time>1970-01-01T04:13:05.000Z</time>
      </trkpt>
      <trkpt lat="42.634552" lon="0.653109">
        <ele>3190.4</ele>
        <time>1970-01-01T04:13:06.000Z</time>
      </trkpt>
      <trkpt lat="42.634552" lon="0.653111">
        <ele>3190.4</ele>
        <time>1970-01-01T04:13:07.000Z</time>
      </trkpt>
      <trkpt lat="42.634552" lon="0.653112">
        <ele>3190.4</ele>
        <time>1970-01-01T04:13:08.000Z</time>
      </trkpt>
      <trkpt lat="42.634553" lon="0.653113">
        <ele>3190.4</ele>
        <time>1970-01-01T04:13:09.000Z</time>
      </trkpt>
      <trkpt lat="42.634553" lon="0.653114">
        <ele>3190.4</ele>
        <time>1970-01-01T04:13:10.000Z</time>
      </trkpt>
      <trkpt lat="42.634554" lon="0.653115">
        <ele>3190.4</ele>
        <time>1970-01-01T04:13:11.000Z</time>
      </trkpt>
      <trkpt lat="42.634554" lon="0.653116">
        <ele>3190.4</ele>
        <time>1970-01-01T04:13:12.000Z</time>
      </trkpt>
      <trkpt lat="42.634554" lon="0.653116">
        <ele>3190.4</ele>
        <time>1970-01-01T04:13:14.000Z</time>
      </trkpt>
      <trkpt lat="42.634554" lon="0.653115">
        <ele>3190.4</ele>
        <time>1970-01-01T04:13:15.000Z</time>
      </trkpt>
      <trkpt lat="42.634555" lon="0.653115">
        <ele>3190.4</ele>
        <time>1970-01-01T04:13:16.000Z</time>
      </trkpt>
      <trkpt lat="42.634555" lon="0.653116">
        <ele>3190.4</ele>
        <time>1970-01-01T04:13:17.000Z</time>
      </trkpt>
      <trkpt lat="42.634556" lon="0.653118">
        <ele>3190.4</ele>
        <time>1970-01-01T04:13:19.000Z</time>
      </trkpt>
      <trkpt lat="42.634558" lon="0.653118">
        <ele>3190.4</ele>
        <time>1970-01-01T04:13:20.000Z</time>
      </trkpt>
      <trkpt lat="42.634559" lon="0.653118">
        <ele>3190.4</ele>
        <time>1970-01-01T04:13:21.000Z</time>
      </trkpt>
      <trkpt lat="42.63456" lon="0.653118">
        <ele>3190.5</ele>
        <time>1970-01-01T04:13:22.000Z</time>
      </trkpt>
      <trkpt lat="42.634561" lon="0.653118">
        <ele>3190.5</ele>
        <time>1970-01-01T04:13:23.000Z</time>
      </trkpt>
      <trkpt lat="42.634561" lon="0.653117">
        <ele>3190.5</ele>
        <time>1970-01-01T04:13:24.000Z</time>
      </trkpt>
      <trkpt lat="42.634561" lon="0.653117">
        <ele>3190.5</ele>
        <time>1970-01-01T04:13:25.000Z</time>
      </trkpt>
      <trkpt lat="42.634561" lon="0.653116">
        <ele>3190.5</ele>
        <time>1970-01-01T04:13:26.000Z</time>
      </trkpt>
      <trkpt lat="42.634561" lon="0.653114">
        <ele>3190.5</ele>
        <time>1970-01-01T04:13:27.000Z</time>
      </trkpt>
      <trkpt lat="42.63456" lon="0.653114">
        <ele>3190.5</ele>
        <time>1970-01-01T04:13:28.000Z</time>
      </trkpt>
      <trkpt lat="42.63456" lon="0.653113">
        <ele>3190.5</ele>
        <time>1970-01-01T04:13:29.000Z</time>
      </trkpt>
      <trkpt lat="42.634559" lon="0.653111">
        <ele>3190.5</ele>
        <time>1970-01-01T04:13:30.000Z</time>
      </trkpt>
      <trkpt lat="42.634558" lon="0.653111">
        <ele>3190.5</ele>
        <time>1970-01-01T04:13:31.000Z</time>
      </trkpt>
      <trkpt lat="42.634558" lon="0.653111">
        <ele>3190.5</ele>
        <time>1970-01-01T04:13:32.000Z</time>
      </trkpt>
      <trkpt lat="42.634558" lon="0.653111">
        <ele>3190.5</ele>
        <time>1970-01-01T04:13:33.000Z</time>
      </trkpt>
      <trkpt lat="42.634557" lon="0.653112">
        <ele>3190.5</ele>
        <time>1970-01-01T04:13:34.000Z</time>
      </trkpt>
      <trkpt lat="42.634557" lon="0.653111">
        <ele>3190.5</ele>
        <time>1970-01-01T04:13:35.000Z</time>
      </trkpt>
      <trkpt lat="42.634556" lon="0.653112">
        <ele>3190.5</ele>
        <time>1970-01-01T04:13:36.000Z</time>
      </trkpt>
      <trkpt lat="42.634556" lon="0.653112">
        <ele>3190.5</ele>
        <time>1970-01-01T04:13:37.000Z</time>
      </trkpt>
      <trkpt lat="42.634556" lon="0.653112">
        <ele>3190.5</ele>
        <time>1970-01-01T04:13:38.000Z</time>
      </trkpt>
      <trkpt lat="42.634556" lon="0.653113">
        <ele>3190.5</ele>
        <time>1970-01-01T04:13:39.000Z</time>
      </trkpt>
      <trkpt lat="42.634556" lon="0.653113">
        <ele>3190.5</ele>
        <time>1970-01-01T04:13:40.000Z</time>
      </trkpt>
      <trkpt lat="42.634557" lon="0.653113">
        <ele>3190.5</ele>
        <time>1970-01-01T04:13:42.000Z</time>
      </trkpt>
      <trkpt lat="42.634557" lon="0.653113">
        <ele>3190.5</ele>
        <time>1970-01-01T04:13:43.000Z</time>
      </trkpt>
      <trkpt lat="42.634558" lon="0.653113">
        <ele>3190.5</ele>
        <time>1970-01-01T04:13:44.000Z</time>
      </trkpt>
      <trkpt lat="42.634558" lon="0.653113">
        <ele>3190.5</ele>
        <time>1970-01-01T04:13:45.000Z</time>
      </trkpt>
      <trkpt lat="42.634558" lon="0.653112">
        <ele>3190.5</ele>
        <time>1970-01-01T04:13:46.000Z</time>
      </trkpt>
      <trkpt lat="42.634557" lon="0.653111">
        <ele>3190.5</ele>
        <time>1970-01-01T04:13:47.000Z</time>
      </trkpt>
      <trkpt lat="42.634556" lon="0.653109">
        <ele>3190.5</ele>
        <time>1970-01-01T04:13:48.000Z</time>
      </trkpt>
      <trkpt lat="42.634555" lon="0.653109">
        <ele>3190.5</ele>
        <time>1970-01-01T04:13:49.000Z</time>
      </trkpt>
      <trkpt lat="42.634554" lon="0.653109">
        <ele>3190.5</ele>
        <time>1970-01-01T04:13:50.000Z</time>
      </trkpt>
      <trkpt lat="42.634554" lon="0.653109">
        <ele>3190.5</ele>
        <time>1970-01-01T04:13:51.000Z</time>
      </trkpt>
      <trkpt lat="42.63455" lon="0.653108">
        <ele>3190.6</ele>
        <time>1970-01-01T04:13:52.000Z</time>
      </trkpt>
      <trkpt lat="42.634548" lon="0.653107">
        <ele>3190.6</ele>
        <time>1970-01-01T04:13:53.000Z</time>
      </trkpt>
      <trkpt lat="42.634547" lon="0.653107">
        <ele>3190.6</ele>
        <time>1970-01-01T04:13:54.000Z</time>
      </trkpt>
      <trkpt lat="42.634547" lon="0.653107">
        <ele>3190.6</ele>
        <time>1970-01-01T04:13:55.000Z</time>
      </trkpt>
      <trkpt lat="42.634547" lon="0.653107">
        <ele>3190.6</ele>
        <time>1970-01-01T04:13:56.000Z</time>
      </trkpt>
      <trkpt lat="42.634547" lon="0.653107">
        <ele>3190.6</ele>
        <time>1970-01-01T04:13:57.000Z</time>
      </trkpt>
      <trkpt lat="42.634547" lon="0.653107">
        <ele>3190.6</ele>
        <time>1970-01-01T04:13:58.000Z</time>
      </trkpt>
      <trkpt lat="42.634547" lon="0.653107">
        <ele>3190.6</ele>
        <time>1970-01-01T04:13:59.000Z</time>
      </trkpt>
      <trkpt lat="42.634547" lon="0.653107">
        <ele>3190.6</ele>
        <time>1970-01-01T04:14:00.000Z</time>
      </trkpt>
      <trkpt lat="42.634547" lon="0.653107">
        <ele>3190.6</ele>
        <time>1970-01-01T04:14:01.000Z</time>
      </trkpt>
      <trkpt lat="42.634547" lon="0.653107">
        <ele>3190.6</ele>
        <time>1970-01-01T04:14:02.000Z</time>
      </trkpt>
      <trkpt lat="42.634547" lon="0.653107">
        <ele>3190.6</ele>
        <time>1970-01-01T04:14:03.000Z</time>
      </trkpt>
      <trkpt lat="42.634547" lon="0.653107">
        <ele>3190.6</ele>
        <time>1970-01-01T04:14:04.000Z</time>
      </trkpt>
      <trkpt lat="42.634547" lon="0.653107">
        <ele>3190.6</ele>
        <time>1970-01-01T04:14:05.000Z</time>
      </trkpt>
      <trkpt lat="42.634547" lon="0.653107">
        <ele>3190.6</ele>
        <time>1970-01-01T04:14:06.000Z</time>
      </trkpt>
      <trkpt lat="42.634547" lon="0.653106">
        <ele>3190.6</ele>
        <time>1970-01-01T04:14:07.000Z</time>
      </trkpt>
      <trkpt lat="42.634547" lon="0.653106">
        <ele>3190.6</ele>
        <time>1970-01-01T04:14:08.000Z</time>
      </trkpt>
      <trkpt lat="42.634547" lon="0.653106">
        <ele>3190.6</ele>
        <time>1970-01-01T04:14:09.000Z</time>
      </trkpt>
      <trkpt lat="42.634547" lon="0.653107">
        <ele>3190.6</ele>
        <time>1970-01-01T04:14:10.000Z</time>
      </trkpt>
      <trkpt lat="42.634547" lon="0.653107">
        <ele>3190.6</ele>
        <time>1970-01-01T04:14:11.000Z</time>
      </trkpt>
      <trkpt lat="42.634547" lon="0.653107">
        <ele>3190.6</ele>
        <time>1970-01-01T04:14:12.000Z</time>
      </trkpt>
      <trkpt lat="42.634547" lon="0.653107">
        <ele>3190.6</ele>
        <time>1970-01-01T04:14:13.000Z</time>
      </trkpt>
      <trkpt lat="42.634547" lon="0.653107">
        <ele>3190.6</ele>
        <time>1970-01-01T04:14:14.000Z</time>
      </trkpt>
      <trkpt lat="42.634547" lon="0.653107">
        <ele>3190.6</ele>
        <time>1970-01-01T04:14:15.000Z</time>
      </trkpt>
      <trkpt lat="42.634547" lon="0.653107">
        <ele>3190.6</ele>
        <time>1970-01-01T04:14:16.000Z</time>
      </trkpt>
      <trkpt lat="42.634547" lon="0.653107">
        <ele>3190.6</ele>
        <time>1970-01-01T04:14:17.000Z</time>
      </trkpt>
      <trkpt lat="42.634547" lon="0.653107">
        <ele>3190.6</ele>
        <time>1970-01-01T04:14:18.000Z</time>
      </trkpt>
      <trkpt lat="42.634547" lon="0.653107">
        <ele>3190.6</ele>
        <time>1970-01-01T04:14:19.000Z</time>
      </trkpt>
      <trkpt lat="42.634547" lon="0.653106">
        <ele>3190.6</ele>
        <time>1970-01-01T04:14:20.000Z</time>
      </trkpt>
      <trkpt lat="42.634547" lon="0.653106">
        <ele>3190.6</ele>
        <time>1970-01-01T04:14:21.000Z</time>
      </trkpt>
      <trkpt lat="42.634547" lon="0.653106">
        <ele>3190.6</ele>
        <time>1970-01-01T04:14:22.000Z</time>
      </trkpt>
      <trkpt lat="42.634547" lon="0.653106">
        <ele>3190.6</ele>
        <time>1970-01-01T04:14:23.000Z</time>
      </trkpt>
      <trkpt lat="42.634547" lon="0.653106">
        <ele>3190.6</ele>
        <time>1970-01-01T04:14:24.000Z</time>
      </trkpt>
      <trkpt lat="42.634547" lon="0.653106">
        <ele>3190.6</ele>
        <time>1970-01-01T04:14:25.000Z</time>
      </trkpt>
      <trkpt lat="42.634547" lon="0.653106">
        <ele>3190.6</ele>
        <time>1970-01-01T04:14:26.000Z</time>
      </trkpt>
      <trkpt lat="42.634547" lon="0.653106">
        <ele>3190.6</ele>
        <time>1970-01-01T04:14:27.000Z</time>
      </trkpt>
      <trkpt lat="42.634547" lon="0.653106">
        <ele>3190.6</ele>
        <time>1970-01-01T04:14:28.000Z</time>
      </trkpt>
      <trkpt lat="42.634547" lon="0.653106">
        <ele>3190.6</ele>
        <time>1970-01-01T04:14:29.000Z</time>
      </trkpt>
      <trkpt lat="42.634547" lon="0.653106">
        <ele>3190.6</ele>
        <time>1970-01-01T04:14:30.000Z</time>
      </trkpt>
      <trkpt lat="42.634547" lon="0.653106">
        <ele>3190.6</ele>
        <time>1970-01-01T04:14:31.000Z</time>
      </trkpt>
      <trkpt lat="42.634547" lon="0.653106">
        <ele>3190.6</ele>
        <time>1970-01-01T04:14:32.000Z</time>
      </trkpt>
      <trkpt lat="42.634547" lon="0.653106">
        <ele>3190.6</ele>
        <time>1970-01-01T04:14:33.000Z</time>
      </trkpt>
      <trkpt lat="42.634547" lon="0.653106">
        <ele>3190.6</ele>
        <time>1970-01-01T04:14:34.000Z</time>
      </trkpt>
      <trkpt lat="42.634547" lon="0.653106">
        <ele>3190.6</ele>
        <time>1970-01-01T04:14:35.000Z</time>
      </trkpt>
      <trkpt lat="42.634547" lon="0.653106">
        <ele>3190.6</ele>
        <time>1970-01-01T04:14:36.000Z</time>
      </trkpt>
      <trkpt lat="42.634547" lon="0.653106">
        <ele>3190.6</ele>
        <time>1970-01-01T04:14:37.000Z</time>
      </trkpt>
      <trkpt lat="42.634547" lon="0.653106">
        <ele>3190.6</ele>
        <time>1970-01-01T04:14:38.000Z</time>
      </trkpt>
      <trkpt lat="42.634547" lon="0.653106">
        <ele>3190.6</ele>
        <time>1970-01-01T04:14:39.000Z</time>
      </trkpt>
      <trkpt lat="42.634547" lon="0.653106">
        <ele>3190.6</ele>
        <time>1970-01-01T04:14:40.000Z</time>
      </trkpt>
      <trkpt lat="42.634547" lon="0.653106">
        <ele>3190.6</ele>
        <time>1970-01-01T04:14:41.000Z</time>
      </trkpt>
      <trkpt lat="42.634547" lon="0.653106">
        <ele>3190.6</ele>
        <time>1970-01-01T04:14:42.000Z</time>
      </trkpt>
      <trkpt lat="42.634547" lon="0.653106">
        <ele>3190.6</ele>
        <time>1970-01-01T04:14:43.000Z</time>
      </trkpt>
      <trkpt lat="42.634547" lon="0.653106">
        <ele>3190.6</ele>
        <time>1970-01-01T04:14:44.000Z</time>
      </trkpt>
      <trkpt lat="42.634547" lon="0.653106">
        <ele>3190.6</ele>
        <time>1970-01-01T04:14:45.000Z</time>
      </trkpt>
      <trkpt lat="42.634547" lon="0.653106">
        <ele>3190.6</ele>
        <time>1970-01-01T04:14:46.000Z</time>
      </trkpt>
      <trkpt lat="42.634547" lon="0.653106">
        <ele>3190.6</ele>
        <time>1970-01-01T04:14:47.000Z</time>
      </trkpt>
      <trkpt lat="42.634547" lon="0.653106">
        <ele>3190.6</ele>
        <time>1970-01-01T04:14:48.000Z</time>
      </trkpt>
      <trkpt lat="42.634547" lon="0.653106">
        <ele>3190.6</ele>
        <time>1970-01-01T04:14:49.000Z</time>
      </trkpt>
      <trkpt lat="42.634547" lon="0.653106">
        <ele>3190.6</ele>
        <time>1970-01-01T04:14:50.000Z</time>
      </trkpt>
      <trkpt lat="42.634547" lon="0.653106">
        <ele>3190.6</ele>
        <time>1970-01-01T04:14:51.000Z</time>
      </trkpt>
      <trkpt lat="42.634547" lon="0.653106">
        <ele>3190.6</ele>
        <time>1970-01-01T04:14:52.000Z</time>
      </trkpt>
      <trkpt lat="42.634547" lon="0.653106">
        <ele>3190.6</ele>
        <time>1970-01-01T04:14:53.000Z</time>
      </trkpt>
      <trkpt lat="42.634547" lon="0.653106">
        <ele>3190.6</ele>
        <time>1970-01-01T04:14:54.000Z</time>
      </trkpt>
      <trkpt lat="42.634547" lon="0.653106">
        <ele>3190.6</ele>
        <time>1970-01-01T04:14:55.000Z</time>
      </trkpt>
      <trkpt lat="42.634547" lon="0.653106">
        <ele>3190.6</ele>
        <time>1970-01-01T04:14:56.000Z</time>
      </trkpt>
      <trkpt lat="42.634547" lon="0.653107">
        <ele>3190.6</ele>
        <time>1970-01-01T04:14:57.000Z</time>
      </trkpt>
      <trkpt lat="42.634547" lon="0.653106">
        <ele>3190.6</ele>
        <time>1970-01-01T04:14:58.000Z</time>
      </trkpt>
      <trkpt lat="42.634547" lon="0.653106">
        <ele>3190.6</ele>
        <time>1970-01-01T04:14:59.000Z</time>
      </trkpt>
      <trkpt lat="42.634547" lon="0.653107">
        <ele>3190.6</ele>
        <time>1970-01-01T04:15:00.000Z</time>
      </trkpt>
      <trkpt lat="42.634547" lon="0.653107">
        <ele>3190.6</ele>
        <time>1970-01-01T04:15:01.000Z</time>
      </trkpt>
      <trkpt lat="42.634547" lon="0.653107">
        <ele>3190.6</ele>
        <time>1970-01-01T04:15:02.000Z</time>
      </trkpt>
      <trkpt lat="42.634547" lon="0.653107">
        <ele>3190.6</ele>
        <time>1970-01-01T04:15:03.000Z</time>
      </trkpt>
      <trkpt lat="42.634547" lon="0.653107">
        <ele>3190.6</ele>
        <time>1970-01-01T04:15:04.000Z</time>
      </trkpt>
      <trkpt lat="42.634547" lon="0.653107">
        <ele>3190.6</ele>
        <time>1970-01-01T04:15:05.000Z</time>
      </trkpt>
      <trkpt lat="42.634547" lon="0.653108">
        <ele>3190.6</ele>
        <time>1970-01-01T04:15:06.000Z</time>
      </trkpt>
      <trkpt lat="42.634548" lon="0.653109">
        <ele>3190.6</ele>
        <time>1970-01-01T04:15:07.000Z</time>
      </trkpt>
      <trkpt lat="42.634548" lon="0.653111">
        <ele>3190.6</ele>
        <time>1970-01-01T04:15:08.000Z</time>
      </trkpt>
      <trkpt lat="42.634548" lon="0.653112">
        <ele>3190.6</ele>
        <time>1970-01-01T04:15:09.000Z</time>
      </trkpt>
      <trkpt lat="42.634548" lon="0.653112">
        <ele>3190.6</ele>
        <time>1970-01-01T04:15:10.000Z</time>
      </trkpt>
      <trkpt lat="42.634549" lon="0.653111">
        <ele>3190.6</ele>
        <time>1970-01-01T04:15:11.000Z</time>
      </trkpt>
      <trkpt lat="42.634551" lon="0.65311">
        <ele>3190.6</ele>
        <time>1970-01-01T04:15:12.000Z</time>
      </trkpt>
      <trkpt lat="42.63455" lon="0.653111">
        <ele>3190.6</ele>
        <time>1970-01-01T04:15:13.000Z</time>
      </trkpt>
      <trkpt lat="42.63455" lon="0.653111">
        <ele>3190.6</ele>
        <time>1970-01-01T04:15:15.000Z</time>
      </trkpt>
      <trkpt lat="42.634549" lon="0.65311">
        <ele>3190.6</ele>
        <time>1970-01-01T04:15:16.000Z</time>
      </trkpt>
      <trkpt lat="42.634549" lon="0.653109">
        <ele>3190.6</ele>
        <time>1970-01-01T04:15:17.000Z</time>
      </trkpt>
      <trkpt lat="42.634549" lon="0.653109">
        <ele>3190.6</ele>
        <time>1970-01-01T04:15:18.000Z</time>
      </trkpt>
      <trkpt lat="42.63455" lon="0.653109">
        <ele>3190.6</ele>
        <time>1970-01-01T04:15:19.000Z</time>
      </trkpt>
      <trkpt lat="42.634551" lon="0.653109">
        <ele>3190.7</ele>
        <time>1970-01-01T04:15:20.000Z</time>
      </trkpt>
      <trkpt lat="42.634551" lon="0.65311">
        <ele>3190.7</ele>
        <time>1970-01-01T04:15:22.000Z</time>
      </trkpt>
      <trkpt lat="42.63455" lon="0.653111">
        <ele>3190.7</ele>
        <time>1970-01-01T04:15:23.000Z</time>
      </trkpt>
      <trkpt lat="42.63455" lon="0.653112">
        <ele>3190.7</ele>
        <time>1970-01-01T04:15:25.000Z</time>
      </trkpt>
      <trkpt lat="42.63455" lon="0.653112">
        <ele>3190.7</ele>
        <time>1970-01-01T04:15:26.000Z</time>
      </trkpt>
      <trkpt lat="42.63455" lon="0.653113">
        <ele>3190.7</ele>
        <time>1970-01-01T04:15:27.000Z</time>
      </trkpt>
      <trkpt lat="42.63455" lon="0.653113">
        <ele>3190.7</ele>
        <time>1970-01-01T04:15:28.000Z</time>
      </trkpt>
      <trkpt lat="42.63455" lon="0.653113">
        <ele>3190.7</ele>
        <time>1970-01-01T04:15:29.000Z</time>
      </trkpt>
      <trkpt lat="42.63455" lon="0.653114">
        <ele>3190.7</ele>
        <time>1970-01-01T04:15:30.000Z</time>
      </trkpt>
      <trkpt lat="42.63455" lon="0.653115">
        <ele>3190.7</ele>
        <time>1970-01-01T04:15:31.000Z</time>
      </trkpt>
      <trkpt lat="42.63455" lon="0.653115">
        <ele>3190.7</ele>
        <time>1970-01-01T04:15:33.000Z</time>
      </trkpt>
      <trkpt lat="42.634551" lon="0.653116">
        <ele>3190.7</ele>
        <time>1970-01-01T04:15:34.000Z</time>
      </trkpt>
      <trkpt lat="42.634551" lon="0.653116">
        <ele>3190.7</ele>
        <time>1970-01-01T04:15:35.000Z</time>
      </trkpt>
      <trkpt lat="42.634551" lon="0.653116">
        <ele>3190.7</ele>
        <time>1970-01-01T04:15:36.000Z</time>
      </trkpt>
      <trkpt lat="42.634551" lon="0.653115">
        <ele>3190.7</ele>
        <time>1970-01-01T04:15:37.000Z</time>
      </trkpt>
      <trkpt lat="42.634551" lon="0.653115">
        <ele>3190.7</ele>
        <time>1970-01-01T04:15:38.000Z</time>
      </trkpt>
      <trkpt lat="42.634551" lon="0.653115">
        <ele>3190.7</ele>
        <time>1970-01-01T04:15:39.000Z</time>
      </trkpt>
      <trkpt lat="42.63455" lon="0.653114">
        <ele>3190.7</ele>
        <time>1970-01-01T04:15:40.000Z</time>
      </trkpt>
      <trkpt lat="42.634551" lon="0.653114">
        <ele>3190.7</ele>
        <time>1970-01-01T04:15:41.000Z</time>
      </trkpt>
      <trkpt lat="42.634551" lon="0.653114">
        <ele>3190.7</ele>
        <time>1970-01-01T04:15:42.000Z</time>
      </trkpt>
      <trkpt lat="42.634551" lon="0.653114">
        <ele>3190.7</ele>
        <time>1970-01-01T04:15:43.000Z</time>
      </trkpt>
      <trkpt lat="42.634551" lon="0.653114">
        <ele>3190.7</ele>
        <time>1970-01-01T04:15:44.000Z</time>
      </trkpt>
      <trkpt lat="42.634551" lon="0.653114">
        <ele>3190.7</ele>
        <time>1970-01-01T04:15:45.000Z</time>
      </trkpt>
      <trkpt lat="42.634552" lon="0.653114">
        <ele>3190.7</ele>
        <time>1970-01-01T04:15:46.000Z</time>
      </trkpt>
      <trkpt lat="42.634551" lon="0.653114">
        <ele>3190.7</ele>
        <time>1970-01-01T04:15:47.000Z</time>
      </trkpt>
      <trkpt lat="42.63455" lon="0.653114">
        <ele>3190.7</ele>
        <time>1970-01-01T04:15:48.000Z</time>
      </trkpt>
      <trkpt lat="42.634549" lon="0.653114">
        <ele>3190.7</ele>
        <time>1970-01-01T04:15:49.000Z</time>
      </trkpt>
      <trkpt lat="42.634549" lon="0.653115">
        <ele>3190.7</ele>
        <time>1970-01-01T04:15:50.000Z</time>
      </trkpt>
      <trkpt lat="42.634548" lon="0.653115">
        <ele>3190.7</ele>
        <time>1970-01-01T04:15:51.000Z</time>
      </trkpt>
      <trkpt lat="42.634548" lon="0.653115">
        <ele>3190.7</ele>
        <time>1970-01-01T04:15:52.000Z</time>
      </trkpt>
      <trkpt lat="42.634548" lon="0.653115">
        <ele>3190.7</ele>
        <time>1970-01-01T04:15:53.000Z</time>
      </trkpt>
      <trkpt lat="42.634548" lon="0.653115">
        <ele>3190.7</ele>
        <time>1970-01-01T04:15:54.000Z</time>
      </trkpt>
      <trkpt lat="42.634548" lon="0.653115">
        <ele>3190.7</ele>
        <time>1970-01-01T04:15:55.000Z</time>
      </trkpt>
      <trkpt lat="42.634548" lon="0.653115">
        <ele>3190.7</ele>
        <time>1970-01-01T04:15:56.000Z</time>
      </trkpt>
      <trkpt lat="42.634548" lon="0.653115">
        <ele>3190.7</ele>
        <time>1970-01-01T04:15:57.000Z</time>
      </trkpt>
      <trkpt lat="42.634548" lon="0.653115">
        <ele>3190.7</ele>
        <time>1970-01-01T04:15:58.000Z</time>
      </trkpt>
      <trkpt lat="42.634548" lon="0.653114">
        <ele>3190.7</ele>
        <time>1970-01-01T04:15:59.000Z</time>
      </trkpt>
      <trkpt lat="42.634548" lon="0.653114">
        <ele>3190.7</ele>
        <time>1970-01-01T04:16:00.000Z</time>
      </trkpt>
      <trkpt lat="42.634548" lon="0.653115">
        <ele>3190.7</ele>
        <time>1970-01-01T04:16:01.000Z</time>
      </trkpt>
      <trkpt lat="42.634548" lon="0.653114">
        <ele>3190.7</ele>
        <time>1970-01-01T04:16:02.000Z</time>
      </trkpt>
      <trkpt lat="42.634548" lon="0.653114">
        <ele>3190.7</ele>
        <time>1970-01-01T04:16:03.000Z</time>
      </trkpt>
      <trkpt lat="42.634548" lon="0.653114">
        <ele>3190.7</ele>
        <time>1970-01-01T04:16:04.000Z</time>
      </trkpt>
      <trkpt lat="42.634549" lon="0.653114">
        <ele>3190.7</ele>
        <time>1970-01-01T04:16:05.000Z</time>
      </trkpt>
      <trkpt lat="42.634549" lon="0.653114">
        <ele>3190.7</ele>
        <time>1970-01-01T04:16:06.000Z</time>
      </trkpt>
      <trkpt lat="42.634549" lon="0.653114">
        <ele>3190.7</ele>
        <time>1970-01-01T04:16:07.000Z</time>
      </trkpt>
      <trkpt lat="42.634549" lon="0.653114">
        <ele>3190.7</ele>
        <time>1970-01-01T04:16:08.000Z</time>
      </trkpt>
      <trkpt lat="42.634549" lon="0.653114">
        <ele>3190.7</ele>
        <time>1970-01-01T04:16:09.000Z</time>
      </trkpt>
      <trkpt lat="42.634549" lon="0.653114">
        <ele>3190.7</ele>
        <time>1970-01-01T04:16:10.000Z</time>
      </trkpt>
      <trkpt lat="42.634548" lon="0.653114">
        <ele>3190.7</ele>
        <time>1970-01-01T04:16:11.000Z</time>
      </trkpt>
      <trkpt lat="42.634549" lon="0.653113">
        <ele>3190.7</ele>
        <time>1970-01-01T04:16:12.000Z</time>
      </trkpt>
      <trkpt lat="42.634549" lon="0.653112">
        <ele>3190.7</ele>
        <time>1970-01-01T04:16:13.000Z</time>
      </trkpt>
      <trkpt lat="42.634549" lon="0.653112">
        <ele>3190.7</ele>
        <time>1970-01-01T04:16:14.000Z</time>
      </trkpt>
      <trkpt lat="42.634549" lon="0.653112">
        <ele>3190.7</ele>
        <time>1970-01-01T04:16:15.000Z</time>
      </trkpt>
      <trkpt lat="42.634549" lon="0.653112">
        <ele>3190.7</ele>
        <time>1970-01-01T04:16:16.000Z</time>
      </trkpt>
      <trkpt lat="42.634549" lon="0.653113">
        <ele>3190.7</ele>
        <time>1970-01-01T04:16:17.000Z</time>
      </trkpt>
      <trkpt lat="42.634549" lon="0.653113">
        <ele>3190.7</ele>
        <time>1970-01-01T04:16:18.000Z</time>
      </trkpt>
      <trkpt lat="42.634549" lon="0.653113">
        <ele>3190.7</ele>
        <time>1970-01-01T04:16:19.000Z</time>
      </trkpt>
      <trkpt lat="42.634549" lon="0.653113">
        <ele>3190.7</ele>
        <time>1970-01-01T04:16:20.000Z</time>
      </trkpt>
      <trkpt lat="42.634548" lon="0.653113">
        <ele>3190.8</ele>
        <time>1970-01-01T04:16:21.000Z</time>
      </trkpt>
      <trkpt lat="42.634548" lon="0.653113">
        <ele>3190.8</ele>
        <time>1970-01-01T04:16:22.000Z</time>
      </trkpt>
      <trkpt lat="42.634548" lon="0.653113">
        <ele>3190.8</ele>
        <time>1970-01-01T04:16:23.000Z</time>
      </trkpt>
      <trkpt lat="42.634548" lon="0.653113">
        <ele>3190.8</ele>
        <time>1970-01-01T04:16:24.000Z</time>
      </trkpt>
      <trkpt lat="42.634548" lon="0.653113">
        <ele>3190.8</ele>
        <time>1970-01-01T04:16:25.000Z</time>
      </trkpt>
      <trkpt lat="42.634549" lon="0.653112">
        <ele>3190.8</ele>
        <time>1970-01-01T04:16:26.000Z</time>
      </trkpt>
      <trkpt lat="42.634548" lon="0.653113">
        <ele>3190.8</ele>
        <time>1970-01-01T04:16:27.000Z</time>
      </trkpt>
      <trkpt lat="42.634547" lon="0.653115">
        <ele>3190.8</ele>
        <time>1970-01-01T04:16:28.000Z</time>
      </trkpt>
      <trkpt lat="42.634545" lon="0.653116">
        <ele>3190.8</ele>
        <time>1970-01-01T04:16:29.000Z</time>
      </trkpt>
      <trkpt lat="42.634544" lon="0.653119">
        <ele>3190.8</ele>
        <time>1970-01-01T04:16:30.000Z</time>
      </trkpt>
      <trkpt lat="42.634541" lon="0.653126">
        <ele>3190.8</ele>
        <time>1970-01-01T04:16:31.000Z</time>
      </trkpt>
      <trkpt lat="42.63454" lon="0.653132">
        <ele>3190.8</ele>
        <time>1970-01-01T04:16:32.000Z</time>
      </trkpt>
      <trkpt lat="42.634539" lon="0.653134">
        <ele>3190.8</ele>
        <time>1970-01-01T04:16:33.000Z</time>
      </trkpt>
      <trkpt lat="42.634543" lon="0.653126">
        <ele>3190.9</ele>
        <time>1970-01-01T04:16:34.000Z</time>
      </trkpt>
      <trkpt lat="42.634544" lon="0.653125">
        <ele>3190.9</ele>
        <time>1970-01-01T04:16:35.000Z</time>
      </trkpt>
      <trkpt lat="42.634545" lon="0.653124">
        <ele>3190.9</ele>
        <time>1970-01-01T04:16:36.000Z</time>
      </trkpt>
      <trkpt lat="42.634545" lon="0.653124">
        <ele>3190.9</ele>
        <time>1970-01-01T04:16:37.000Z</time>
      </trkpt>
      <trkpt lat="42.634544" lon="0.653125">
        <ele>3190.9</ele>
        <time>1970-01-01T04:16:38.000Z</time>
      </trkpt>
      <trkpt lat="42.634544" lon="0.653125">
        <ele>3190.9</ele>
        <time>1970-01-01T04:16:39.000Z</time>
      </trkpt>
      <trkpt lat="42.634544" lon="0.653125">
        <ele>3190.9</ele>
        <time>1970-01-01T04:16:40.000Z</time>
      </trkpt>
      <trkpt lat="42.634543" lon="0.653126">
        <ele>3190.9</ele>
        <time>1970-01-01T04:16:41.000Z</time>
      </trkpt>
      <trkpt lat="42.634543" lon="0.653127">
        <ele>3190.9</ele>
        <time>1970-01-01T04:16:42.000Z</time>
      </trkpt>
      <trkpt lat="42.634543" lon="0.653127">
        <ele>3190.9</ele>
        <time>1970-01-01T04:16:43.000Z</time>
      </trkpt>
      <trkpt lat="42.634543" lon="0.653128">
        <ele>3190.9</ele>
        <time>1970-01-01T04:16:44.000Z</time>
      </trkpt>
      <trkpt lat="42.634543" lon="0.653129">
        <ele>3190.9</ele>
        <time>1970-01-01T04:16:45.000Z</time>
      </trkpt>
      <trkpt lat="42.634543" lon="0.653129">
        <ele>3190.9</ele>
        <time>1970-01-01T04:16:46.000Z</time>
      </trkpt>
      <trkpt lat="42.634544" lon="0.653129">
        <ele>3190.9</ele>
        <time>1970-01-01T04:16:47.000Z</time>
      </trkpt>
      <trkpt lat="42.634544" lon="0.653129">
        <ele>3190.9</ele>
        <time>1970-01-01T04:16:48.000Z</time>
      </trkpt>
      <trkpt lat="42.634543" lon="0.653129">
        <ele>3190.9</ele>
        <time>1970-01-01T04:16:49.000Z</time>
      </trkpt>
      <trkpt lat="42.634542" lon="0.65313">
        <ele>3190.9</ele>
        <time>1970-01-01T04:16:50.000Z</time>
      </trkpt>
      <trkpt lat="42.63454" lon="0.653131">
        <ele>3190.9</ele>
        <time>1970-01-01T04:16:51.000Z</time>
      </trkpt>
      <trkpt lat="42.63454" lon="0.653131">
        <ele>3190.9</ele>
        <time>1970-01-01T04:16:52.000Z</time>
      </trkpt>
      <trkpt lat="42.634539" lon="0.653132">
        <ele>3190.9</ele>
        <time>1970-01-01T04:16:53.000Z</time>
      </trkpt>
      <trkpt lat="42.634539" lon="0.653132">
        <ele>3190.9</ele>
        <time>1970-01-01T04:16:54.000Z</time>
      </trkpt>
      <trkpt lat="42.634539" lon="0.653132">
        <ele>3190.9</ele>
        <time>1970-01-01T04:16:55.000Z</time>
      </trkpt>
      <trkpt lat="42.634539" lon="0.653132">
        <ele>3190.9</ele>
        <time>1970-01-01T04:16:56.000Z</time>
      </trkpt>
      <trkpt lat="42.634539" lon="0.653132">
        <ele>3190.9</ele>
        <time>1970-01-01T04:16:57.000Z</time>
      </trkpt>
      <trkpt lat="42.634539" lon="0.653132">
        <ele>3190.9</ele>
        <time>1970-01-01T04:16:58.000Z</time>
      </trkpt>
      <trkpt lat="42.634539" lon="0.653132">
        <ele>3190.9</ele>
        <time>1970-01-01T04:16:59.000Z</time>
      </trkpt>
      <trkpt lat="42.634539" lon="0.653132">
        <ele>3190.9</ele>
        <time>1970-01-01T04:17:00.000Z</time>
      </trkpt>
      <trkpt lat="42.634539" lon="0.653132">
        <ele>3190.9</ele>
        <time>1970-01-01T04:17:01.000Z</time>
      </trkpt>
      <trkpt lat="42.634539" lon="0.653132">
        <ele>3190.9</ele>
        <time>1970-01-01T04:17:02.000Z</time>
      </trkpt>
      <trkpt lat="42.634542" lon="0.653133">
        <ele>3191</ele>
        <time>1970-01-01T04:17:03.000Z</time>
      </trkpt>
      <trkpt lat="42.634543" lon="0.653133">
        <ele>3191</ele>
        <time>1970-01-01T04:17:04.000Z</time>
      </trkpt>
      <trkpt lat="42.634544" lon="0.653133">
        <ele>3191</ele>
        <time>1970-01-01T04:17:05.000Z</time>
      </trkpt>
      <trkpt lat="42.634544" lon="0.653134">
        <ele>3191</ele>
        <time>1970-01-01T04:17:06.000Z</time>
      </trkpt>
      <trkpt lat="42.634544" lon="0.653134">
        <ele>3191</ele>
        <time>1970-01-01T04:17:07.000Z</time>
      </trkpt>
      <trkpt lat="42.634545" lon="0.653134">
        <ele>3191</ele>
        <time>1970-01-01T04:17:09.000Z</time>
      </trkpt>
      <trkpt lat="42.634545" lon="0.653134">
        <ele>3191</ele>
        <time>1970-01-01T04:17:10.000Z</time>
      </trkpt>
      <trkpt lat="42.634545" lon="0.653135">
        <ele>3191</ele>
        <time>1970-01-01T04:17:11.000Z</time>
      </trkpt>
      <trkpt lat="42.634544" lon="0.653137">
        <ele>3191</ele>
        <time>1970-01-01T04:17:12.000Z</time>
      </trkpt>
      <trkpt lat="42.634544" lon="0.653138">
        <ele>3191</ele>
        <time>1970-01-01T04:17:14.000Z</time>
      </trkpt>
      <trkpt lat="42.634543" lon="0.653138">
        <ele>3191</ele>
        <time>1970-01-01T04:17:15.000Z</time>
      </trkpt>
      <trkpt lat="42.634543" lon="0.653139">
        <ele>3191</ele>
        <time>1970-01-01T04:17:16.000Z</time>
      </trkpt>
      <trkpt lat="42.634543" lon="0.65314">
        <ele>3191</ele>
        <time>1970-01-01T04:17:17.000Z</time>
      </trkpt>
      <trkpt lat="42.634543" lon="0.653141">
        <ele>3191</ele>
        <time>1970-01-01T04:17:18.000Z</time>
      </trkpt>
      <trkpt lat="42.634543" lon="0.653141">
        <ele>3191</ele>
        <time>1970-01-01T04:17:19.000Z</time>
      </trkpt>
      <trkpt lat="42.634543" lon="0.653141">
        <ele>3191</ele>
        <time>1970-01-01T04:17:20.000Z</time>
      </trkpt>
      <trkpt lat="42.634542" lon="0.653142">
        <ele>3191</ele>
        <time>1970-01-01T04:17:21.000Z</time>
      </trkpt>
      <trkpt lat="42.634541" lon="0.653144">
        <ele>3191</ele>
        <time>1970-01-01T04:17:22.000Z</time>
      </trkpt>
      <trkpt lat="42.634538" lon="0.653148">
        <ele>3191</ele>
        <time>1970-01-01T04:17:23.000Z</time>
      </trkpt>
      <trkpt lat="42.634536" lon="0.65315">
        <ele>3191</ele>
        <time>1970-01-01T04:17:24.000Z</time>
      </trkpt>
      <trkpt lat="42.634535" lon="0.65315">
        <ele>3191</ele>
        <time>1970-01-01T04:17:25.000Z</time>
      </trkpt>
      <trkpt lat="42.634533" lon="0.65315">
        <ele>3191.1</ele>
        <time>1970-01-01T04:17:26.000Z</time>
      </trkpt>
      <trkpt lat="42.634532" lon="0.653151">
        <ele>3191.1</ele>
        <time>1970-01-01T04:17:27.000Z</time>
      </trkpt>
      <trkpt lat="42.634531" lon="0.653151">
        <ele>3191.1</ele>
        <time>1970-01-01T04:17:28.000Z</time>
      </trkpt>
      <trkpt lat="42.63453" lon="0.653151">
        <ele>3191.1</ele>
        <time>1970-01-01T04:17:29.000Z</time>
      </trkpt>
      <trkpt lat="42.634529" lon="0.653151">
        <ele>3191.1</ele>
        <time>1970-01-01T04:17:30.000Z</time>
      </trkpt>
      <trkpt lat="42.634529" lon="0.653151">
        <ele>3191.1</ele>
        <time>1970-01-01T04:17:31.000Z</time>
      </trkpt>
      <trkpt lat="42.634528" lon="0.653152">
        <ele>3191.1</ele>
        <time>1970-01-01T04:17:32.000Z</time>
      </trkpt>
      <trkpt lat="42.634527" lon="0.653152">
        <ele>3191.1</ele>
        <time>1970-01-01T04:17:33.000Z</time>
      </trkpt>
      <trkpt lat="42.634526" lon="0.653155">
        <ele>3191.1</ele>
        <time>1970-01-01T04:17:34.000Z</time>
      </trkpt>
      <trkpt lat="42.634524" lon="0.653157">
        <ele>3191.1</ele>
        <time>1970-01-01T04:17:35.000Z</time>
      </trkpt>
      <trkpt lat="42.634523" lon="0.653157">
        <ele>3191.1</ele>
        <time>1970-01-01T04:17:36.000Z</time>
      </trkpt>
      <trkpt lat="42.634523" lon="0.653157">
        <ele>3191.1</ele>
        <time>1970-01-01T04:17:37.000Z</time>
      </trkpt>
      <trkpt lat="42.634522" lon="0.653157">
        <ele>3191.1</ele>
        <time>1970-01-01T04:17:38.000Z</time>
      </trkpt>
      <trkpt lat="42.634522" lon="0.653158">
        <ele>3191.1</ele>
        <time>1970-01-01T04:17:39.000Z</time>
      </trkpt>
      <trkpt lat="42.634522" lon="0.653158">
        <ele>3191.1</ele>
        <time>1970-01-01T04:17:40.000Z</time>
      </trkpt>
      <trkpt lat="42.634522" lon="0.653158">
        <ele>3191.1</ele>
        <time>1970-01-01T04:17:41.000Z</time>
      </trkpt>
      <trkpt lat="42.634522" lon="0.653159">
        <ele>3191.1</ele>
        <time>1970-01-01T04:17:42.000Z</time>
      </trkpt>
      <trkpt lat="42.634522" lon="0.65316">
        <ele>3191.1</ele>
        <time>1970-01-01T04:17:43.000Z</time>
      </trkpt>
      <trkpt lat="42.634522" lon="0.653161">
        <ele>3191.1</ele>
        <time>1970-01-01T04:17:44.000Z</time>
      </trkpt>
      <trkpt lat="42.634522" lon="0.653161">
        <ele>3191.1</ele>
        <time>1970-01-01T04:17:45.000Z</time>
      </trkpt>
      <trkpt lat="42.634523" lon="0.653161">
        <ele>3191.1</ele>
        <time>1970-01-01T04:17:46.000Z</time>
      </trkpt>
      <trkpt lat="42.634522" lon="0.65316">
        <ele>3191.1</ele>
        <time>1970-01-01T04:17:47.000Z</time>
      </trkpt>
      <trkpt lat="42.634522" lon="0.653161">
        <ele>3191.1</ele>
        <time>1970-01-01T04:17:48.000Z</time>
      </trkpt>
      <trkpt lat="42.634522" lon="0.653161">
        <ele>3191.1</ele>
        <time>1970-01-01T04:17:49.000Z</time>
      </trkpt>
      <trkpt lat="42.634522" lon="0.653161">
        <ele>3191.1</ele>
        <time>1970-01-01T04:17:50.000Z</time>
      </trkpt>
      <trkpt lat="42.634521" lon="0.653162">
        <ele>3191.1</ele>
        <time>1970-01-01T04:17:51.000Z</time>
      </trkpt>
      <trkpt lat="42.634521" lon="0.653162">
        <ele>3191.1</ele>
        <time>1970-01-01T04:17:52.000Z</time>
      </trkpt>
      <trkpt lat="42.634521" lon="0.653161">
        <ele>3191.2</ele>
        <time>1970-01-01T04:17:53.000Z</time>
      </trkpt>
      <trkpt lat="42.63452" lon="0.65316">
        <ele>3191.2</ele>
        <time>1970-01-01T04:17:54.000Z</time>
      </trkpt>
      <trkpt lat="42.63452" lon="0.653159">
        <ele>3191.2</ele>
        <time>1970-01-01T04:17:55.000Z</time>
      </trkpt>
      <trkpt lat="42.634522" lon="0.653154">
        <ele>3191.2</ele>
        <time>1970-01-01T04:17:56.000Z</time>
      </trkpt>
      <trkpt lat="42.634523" lon="0.653152">
        <ele>3191.2</ele>
        <time>1970-01-01T04:17:57.000Z</time>
      </trkpt>
      <trkpt lat="42.634524" lon="0.65315">
        <ele>3191.2</ele>
        <time>1970-01-01T04:17:58.000Z</time>
      </trkpt>
      <trkpt lat="42.634524" lon="0.653149">
        <ele>3191.2</ele>
        <time>1970-01-01T04:17:59.000Z</time>
      </trkpt>
      <trkpt lat="42.634524" lon="0.653149">
        <ele>3191.2</ele>
        <time>1970-01-01T04:18:00.000Z</time>
      </trkpt>
      <trkpt lat="42.634524" lon="0.653149">
        <ele>3191.2</ele>
        <time>1970-01-01T04:18:01.000Z</time>
      </trkpt>
      <trkpt lat="42.634524" lon="0.653149">
        <ele>3191.2</ele>
        <time>1970-01-01T04:18:02.000Z</time>
      </trkpt>
      <trkpt lat="42.634524" lon="0.653149">
        <ele>3191.2</ele>
        <time>1970-01-01T04:18:03.000Z</time>
      </trkpt>
      <trkpt lat="42.634524" lon="0.653149">
        <ele>3191.2</ele>
        <time>1970-01-01T04:18:04.000Z</time>
      </trkpt>
      <trkpt lat="42.634524" lon="0.653149">
        <ele>3191.2</ele>
        <time>1970-01-01T04:18:05.000Z</time>
      </trkpt>
      <trkpt lat="42.634524" lon="0.653149">
        <ele>3191.2</ele>
        <time>1970-01-01T04:18:06.000Z</time>
      </trkpt>
      <trkpt lat="42.634523" lon="0.653149">
        <ele>3191.2</ele>
        <time>1970-01-01T04:18:07.000Z</time>
      </trkpt>
      <trkpt lat="42.634521" lon="0.653149">
        <ele>3191.2</ele>
        <time>1970-01-01T04:18:08.000Z</time>
      </trkpt>
      <trkpt lat="42.63452" lon="0.653149">
        <ele>3191.2</ele>
        <time>1970-01-01T04:18:09.000Z</time>
      </trkpt>
      <trkpt lat="42.634514" lon="0.653148">
        <ele>3191.2</ele>
        <time>1970-01-01T04:18:10.000Z</time>
      </trkpt>
      <trkpt lat="42.634508" lon="0.653152">
        <ele>3191.3</ele>
        <time>1970-01-01T04:18:11.000Z</time>
      </trkpt>
      <trkpt lat="42.634505" lon="0.653153">
        <ele>3191.3</ele>
        <time>1970-01-01T04:18:12.000Z</time>
      </trkpt>
      <trkpt lat="42.634505" lon="0.653152">
        <ele>3191.3</ele>
        <time>1970-01-01T04:18:13.000Z</time>
      </trkpt>
      <trkpt lat="42.634506" lon="0.653151">
        <ele>3191.3</ele>
        <time>1970-01-01T04:18:14.000Z</time>
      </trkpt>
      <trkpt lat="42.634507" lon="0.653149">
        <ele>3191.3</ele>
        <time>1970-01-01T04:18:15.000Z</time>
      </trkpt>
      <trkpt lat="42.634506" lon="0.653148">
        <ele>3191.3</ele>
        <time>1970-01-01T04:18:16.000Z</time>
      </trkpt>
      <trkpt lat="42.634502" lon="0.653148">
        <ele>3191.3</ele>
        <time>1970-01-01T04:18:18.000Z</time>
      </trkpt>
      <trkpt lat="42.634496" lon="0.653152">
        <ele>3191.4</ele>
        <time>1970-01-01T04:18:19.000Z</time>
      </trkpt>
      <trkpt lat="42.63449" lon="0.653156">
        <ele>3191.4</ele>
        <time>1970-01-01T04:18:20.000Z</time>
      </trkpt>
      <trkpt lat="42.63448" lon="0.653162">
        <ele>3191.5</ele>
        <time>1970-01-01T04:18:21.000Z</time>
      </trkpt>
      <trkpt lat="42.634474" lon="0.653167">
        <ele>3191.5</ele>
        <time>1970-01-01T04:18:22.000Z</time>
      </trkpt>
      <trkpt lat="42.634468" lon="0.653172">
        <ele>3191.5</ele>
        <time>1970-01-01T04:18:23.000Z</time>
      </trkpt>
      <trkpt lat="42.634463" lon="0.653178">
        <ele>3191.6</ele>
        <time>1970-01-01T04:18:24.000Z</time>
      </trkpt>
      <trkpt lat="42.634459" lon="0.653184">
        <ele>3191.6</ele>
        <time>1970-01-01T04:18:25.000Z</time>
      </trkpt>
      <trkpt lat="42.634458" lon="0.653189">
        <ele>3191.6</ele>
        <time>1970-01-01T04:18:26.000Z</time>
      </trkpt>
      <trkpt lat="42.634455" lon="0.653194">
        <ele>3191.7</ele>
        <time>1970-01-01T04:18:27.000Z</time>
      </trkpt>
      <trkpt lat="42.634453" lon="0.653199">
        <ele>3191.7</ele>
        <time>1970-01-01T04:18:28.000Z</time>
      </trkpt>
      <trkpt lat="42.634452" lon="0.653203">
        <ele>3191.7</ele>
        <time>1970-01-01T04:18:29.000Z</time>
      </trkpt>
      <trkpt lat="42.63445" lon="0.653206">
        <ele>3191.7</ele>
        <time>1970-01-01T04:18:30.000Z</time>
      </trkpt>
      <trkpt lat="42.634445" lon="0.653211">
        <ele>3191.8</ele>
        <time>1970-01-01T04:18:31.000Z</time>
      </trkpt>
      <trkpt lat="42.63444" lon="0.653216">
        <ele>3191.8</ele>
        <time>1970-01-01T04:18:32.000Z</time>
      </trkpt>
      <trkpt lat="42.634436" lon="0.65322">
        <ele>3191.8</ele>
        <time>1970-01-01T04:18:33.000Z</time>
      </trkpt>
      <trkpt lat="42.634433" lon="0.653224">
        <ele>3191.8</ele>
        <time>1970-01-01T04:18:34.000Z</time>
      </trkpt>
      <trkpt lat="42.634431" lon="0.653228">
        <ele>3191.9</ele>
        <time>1970-01-01T04:18:35.000Z</time>
      </trkpt>
      <trkpt lat="42.634433" lon="0.653233">
        <ele>3191.9</ele>
        <time>1970-01-01T04:18:36.000Z</time>
      </trkpt>
      <trkpt lat="42.634432" lon="0.653238">
        <ele>3191.9</ele>
        <time>1970-01-01T04:18:37.000Z</time>
      </trkpt>
      <trkpt lat="42.63443" lon="0.65324">
        <ele>3191.9</ele>
        <time>1970-01-01T04:18:38.000Z</time>
      </trkpt>
      <trkpt lat="42.634426" lon="0.653242">
        <ele>3191.9</ele>
        <time>1970-01-01T04:18:39.000Z</time>
      </trkpt>
      <trkpt lat="42.634423" lon="0.653243">
        <ele>3192</ele>
        <time>1970-01-01T04:18:41.000Z</time>
      </trkpt>
      <trkpt lat="42.63442" lon="0.653245">
        <ele>3192</ele>
        <time>1970-01-01T04:18:42.000Z</time>
      </trkpt>
      <trkpt lat="42.634419" lon="0.653246">
        <ele>3192</ele>
        <time>1970-01-01T04:18:43.000Z</time>
      </trkpt>
      <trkpt lat="42.634418" lon="0.653247">
        <ele>3192</ele>
        <time>1970-01-01T04:18:44.000Z</time>
      </trkpt>
      <trkpt lat="42.634414" lon="0.653248">
        <ele>3192</ele>
        <time>1970-01-01T04:18:45.000Z</time>
      </trkpt>
      <trkpt lat="42.63441" lon="0.65325">
        <ele>3192</ele>
        <time>1970-01-01T04:18:46.000Z</time>
      </trkpt>
      <trkpt lat="42.634406" lon="0.653251">
        <ele>3192.1</ele>
        <time>1970-01-01T04:18:47.000Z</time>
      </trkpt>
      <trkpt lat="42.634403" lon="0.653251">
        <ele>3192.1</ele>
        <time>1970-01-01T04:18:48.000Z</time>
      </trkpt>
      <trkpt lat="42.634393" lon="0.653249">
        <ele>3192.1</ele>
        <time>1970-01-01T04:18:50.000Z</time>
      </trkpt>
      <trkpt lat="42.634386" lon="0.653247">
        <ele>3192.2</ele>
        <time>1970-01-01T04:18:51.000Z</time>
      </trkpt>
      <trkpt lat="42.634381" lon="0.653246">
        <ele>3192.2</ele>
        <time>1970-01-01T04:18:52.000Z</time>
      </trkpt>
      <trkpt lat="42.634377" lon="0.653244">
        <ele>3192.2</ele>
        <time>1970-01-01T04:18:53.000Z</time>
      </trkpt>
      <trkpt lat="42.634372" lon="0.653243">
        <ele>3192.3</ele>
        <time>1970-01-01T04:18:55.000Z</time>
      </trkpt>
      <trkpt lat="42.63437" lon="0.653244">
        <ele>3192.3</ele>
        <time>1970-01-01T04:18:56.000Z</time>
      </trkpt>
      <trkpt lat="42.634369" lon="0.653243">
        <ele>3192.3</ele>
        <time>1970-01-01T04:18:57.000Z</time>
      </trkpt>
      <trkpt lat="42.634367" lon="0.653241">
        <ele>3192.3</ele>
        <time>1970-01-01T04:18:59.000Z</time>
      </trkpt>
      <trkpt lat="42.634364" lon="0.65324">
        <ele>3192.3</ele>
        <time>1970-01-01T04:19:00.000Z</time>
      </trkpt>
      <trkpt lat="42.634361" lon="0.65324">
        <ele>3192.3</ele>
        <time>1970-01-01T04:19:01.000Z</time>
      </trkpt>
      <trkpt lat="42.634352" lon="0.653241">
        <ele>3192.4</ele>
        <time>1970-01-01T04:19:02.000Z</time>
      </trkpt>
      <trkpt lat="42.634344" lon="0.653242">
        <ele>3192.4</ele>
        <time>1970-01-01T04:19:04.000Z</time>
      </trkpt>
      <trkpt lat="42.634337" lon="0.653244">
        <ele>3192.5</ele>
        <time>1970-01-01T04:19:05.000Z</time>
      </trkpt>
      <trkpt lat="42.634328" lon="0.653249">
        <ele>3192.5</ele>
        <time>1970-01-01T04:19:06.000Z</time>
      </trkpt>
      <trkpt lat="42.634322" lon="0.653254">
        <ele>3192.6</ele>
        <time>1970-01-01T04:19:08.000Z</time>
      </trkpt>
      <trkpt lat="42.634318" lon="0.653261">
        <ele>3192.6</ele>
        <time>1970-01-01T04:19:09.000Z</time>
      </trkpt>
      <trkpt lat="42.634317" lon="0.653264">
        <ele>3192.6</ele>
        <time>1970-01-01T04:19:10.000Z</time>
      </trkpt>
      <trkpt lat="42.634314" lon="0.653268">
        <ele>3192.7</ele>
        <time>1970-01-01T04:19:11.000Z</time>
      </trkpt>
      <trkpt lat="42.634312" lon="0.653273">
        <ele>3192.7</ele>
        <time>1970-01-01T04:19:12.000Z</time>
      </trkpt>
      <trkpt lat="42.63431" lon="0.653279">
        <ele>3192.7</ele>
        <time>1970-01-01T04:19:13.000Z</time>
      </trkpt>
      <trkpt lat="42.634309" lon="0.653291">
        <ele>3192.8</ele>
        <time>1970-01-01T04:19:15.000Z</time>
      </trkpt>
      <trkpt lat="42.634308" lon="0.6533">
        <ele>3192.8</ele>
        <time>1970-01-01T04:19:16.000Z</time>
      </trkpt>
      <trkpt lat="42.634307" lon="0.653309">
        <ele>3192.8</ele>
        <time>1970-01-01T04:19:17.000Z</time>
      </trkpt>
      <trkpt lat="42.634306" lon="0.65332">
        <ele>3192.9</ele>
        <time>1970-01-01T04:19:18.000Z</time>
      </trkpt>
      <trkpt lat="42.634305" lon="0.653335">
        <ele>3192.9</ele>
        <time>1970-01-01T04:19:19.000Z</time>
      </trkpt>
      <trkpt lat="42.634303" lon="0.653363">
        <ele>3193.1</ele>
        <time>1970-01-01T04:19:21.000Z</time>
      </trkpt>
      <trkpt lat="42.634301" lon="0.653377">
        <ele>3193.1</ele>
        <time>1970-01-01T04:19:22.000Z</time>
      </trkpt>
      <trkpt lat="42.634297" lon="0.653393">
        <ele>3193.2</ele>
        <time>1970-01-01T04:19:23.000Z</time>
      </trkpt>
      <trkpt lat="42.634294" lon="0.653404">
        <ele>3193.2</ele>
        <time>1970-01-01T04:19:24.000Z</time>
      </trkpt>
      <trkpt lat="42.634292" lon="0.653412">
        <ele>3193.2</ele>
        <time>1970-01-01T04:19:25.000Z</time>
      </trkpt>
      <trkpt lat="42.634288" lon="0.653426">
        <ele>3193.3</ele>
        <time>1970-01-01T04:19:27.000Z</time>
      </trkpt>
      <trkpt lat="42.634283" lon="0.65344">
        <ele>3193.3</ele>
        <time>1970-01-01T04:19:28.000Z</time>
      </trkpt>
      <trkpt lat="42.634281" lon="0.653446">
        <ele>3193.4</ele>
        <time>1970-01-01T04:19:29.000Z</time>
      </trkpt>
      <trkpt lat="42.634279" lon="0.653452">
        <ele>3193.4</ele>
        <time>1970-01-01T04:19:30.000Z</time>
      </trkpt>
      <trkpt lat="42.634278" lon="0.65346">
        <ele>3193.4</ele>
        <time>1970-01-01T04:19:31.000Z</time>
      </trkpt>
      <trkpt lat="42.634278" lon="0.653469">
        <ele>3193.4</ele>
        <time>1970-01-01T04:19:32.000Z</time>
      </trkpt>
      <trkpt lat="42.634278" lon="0.653476">
        <ele>3193.4</ele>
        <time>1970-01-01T04:19:33.000Z</time>
      </trkpt>
      <trkpt lat="42.634278" lon="0.653482">
        <ele>3193.5</ele>
        <time>1970-01-01T04:19:34.000Z</time>
      </trkpt>
      <trkpt lat="42.634278" lon="0.653491">
        <ele>3193.5</ele>
        <time>1970-01-01T04:19:35.000Z</time>
      </trkpt>
      <trkpt lat="42.63428" lon="0.653506">
        <ele>3193.7</ele>
        <time>1970-01-01T04:19:37.000Z</time>
      </trkpt>
      <trkpt lat="42.634282" lon="0.653519">
        <ele>3193.7</ele>
        <time>1970-01-01T04:19:38.000Z</time>
      </trkpt>
      <trkpt lat="42.634284" lon="0.653529">
        <ele>3193.7</ele>
        <time>1970-01-01T04:19:39.000Z</time>
      </trkpt>
      <trkpt lat="42.634285" lon="0.653538">
        <ele>3193.7</ele>
        <time>1970-01-01T04:19:40.000Z</time>
      </trkpt>
      <trkpt lat="42.634286" lon="0.65355">
        <ele>3193.7</ele>
        <time>1970-01-01T04:19:41.000Z</time>
      </trkpt>
      <trkpt lat="42.634286" lon="0.653558">
        <ele>3193.7</ele>
        <time>1970-01-01T04:19:42.000Z</time>
      </trkpt>
      <trkpt lat="42.634287" lon="0.653564">
        <ele>3193.7</ele>
        <time>1970-01-01T04:19:43.000Z</time>
      </trkpt>
      <trkpt lat="42.634288" lon="0.653571">
        <ele>3193.7</ele>
        <time>1970-01-01T04:19:44.000Z</time>
      </trkpt>
      <trkpt lat="42.634288" lon="0.653584">
        <ele>3193.7</ele>
        <time>1970-01-01T04:19:46.000Z</time>
      </trkpt>
      <trkpt lat="42.63429" lon="0.653597">
        <ele>3193.7</ele>
        <time>1970-01-01T04:19:48.000Z</time>
      </trkpt>
      <trkpt lat="42.634291" lon="0.653604">
        <ele>3193.7</ele>
        <time>1970-01-01T04:19:49.000Z</time>
      </trkpt>
      <trkpt lat="42.634291" lon="0.653617">
        <ele>3193.7</ele>
        <time>1970-01-01T04:19:50.000Z</time>
      </trkpt>
      <trkpt lat="42.634291" lon="0.653625">
        <ele>3193.7</ele>
        <time>1970-01-01T04:19:51.000Z</time>
      </trkpt>
      <trkpt lat="42.63429" lon="0.653634">
        <ele>3193.7</ele>
        <time>1970-01-01T04:19:52.000Z</time>
      </trkpt>
      <trkpt lat="42.634288" lon="0.653649">
        <ele>3193.7</ele>
        <time>1970-01-01T04:19:54.000Z</time>
      </trkpt>
      <trkpt lat="42.634286" lon="0.653659">
        <ele>3193.7</ele>
        <time>1970-01-01T04:19:55.000Z</time>
      </trkpt>
      <trkpt lat="42.634283" lon="0.653666">
        <ele>3193.7</ele>
        <time>1970-01-01T04:19:56.000Z</time>
      </trkpt>
      <trkpt lat="42.63428" lon="0.653676">
        <ele>3193.7</ele>
        <time>1970-01-01T04:19:57.000Z</time>
      </trkpt>
      <trkpt lat="42.634278" lon="0.653684">
        <ele>3193.7</ele>
        <time>1970-01-01T04:19:59.000Z</time>
      </trkpt>
      <trkpt lat="42.634278" lon="0.65369">
        <ele>3193.7</ele>
        <time>1970-01-01T04:20:00.000Z</time>
      </trkpt>
      <trkpt lat="42.634279" lon="0.653693">
        <ele>3193.7</ele>
        <time>1970-01-01T04:20:01.000Z</time>
      </trkpt>
      <trkpt lat="42.634279" lon="0.653696">
        <ele>3193.7</ele>
        <time>1970-01-01T04:20:02.000Z</time>
      </trkpt>
      <trkpt lat="42.634281" lon="0.653699">
        <ele>3193.8</ele>
        <time>1970-01-01T04:20:03.000Z</time>
      </trkpt>
      <trkpt lat="42.634282" lon="0.653702">
        <ele>3193.8</ele>
        <time>1970-01-01T04:20:04.000Z</time>
      </trkpt>
      <trkpt lat="42.634284" lon="0.653708">
        <ele>3193.8</ele>
        <time>1970-01-01T04:20:05.000Z</time>
      </trkpt>
      <trkpt lat="42.634285" lon="0.653715">
        <ele>3193.8</ele>
        <time>1970-01-01T04:20:06.000Z</time>
      </trkpt>
      <trkpt lat="42.634287" lon="0.653724">
        <ele>3193.8</ele>
        <time>1970-01-01T04:20:08.000Z</time>
      </trkpt>
      <trkpt lat="42.634288" lon="0.65373">
        <ele>3193.8</ele>
        <time>1970-01-01T04:20:09.000Z</time>
      </trkpt>
      <trkpt lat="42.634288" lon="0.653736">
        <ele>3193.8</ele>
        <time>1970-01-01T04:20:10.000Z</time>
      </trkpt>
      <trkpt lat="42.634289" lon="0.653743">
        <ele>3193.8</ele>
        <time>1970-01-01T04:20:11.000Z</time>
      </trkpt>
      <trkpt lat="42.634289" lon="0.653747">
        <ele>3193.8</ele>
        <time>1970-01-01T04:20:12.000Z</time>
      </trkpt>
      <trkpt lat="42.63429" lon="0.653752">
        <ele>3193.8</ele>
        <time>1970-01-01T04:20:13.000Z</time>
      </trkpt>
      <trkpt lat="42.63429" lon="0.653758">
        <ele>3193.8</ele>
        <time>1970-01-01T04:20:14.000Z</time>
      </trkpt>
      <trkpt lat="42.63429" lon="0.653769">
        <ele>3193.8</ele>
        <time>1970-01-01T04:20:16.000Z</time>
      </trkpt>
      <trkpt lat="42.634291" lon="0.653774">
        <ele>3193.8</ele>
        <time>1970-01-01T04:20:17.000Z</time>
      </trkpt>
      <trkpt lat="42.634292" lon="0.653779">
        <ele>3193.8</ele>
        <time>1970-01-01T04:20:18.000Z</time>
      </trkpt>
      <trkpt lat="42.634293" lon="0.653784">
        <ele>3193.8</ele>
        <time>1970-01-01T04:20:19.000Z</time>
      </trkpt>
      <trkpt lat="42.634293" lon="0.653789">
        <ele>3193.8</ele>
        <time>1970-01-01T04:20:20.000Z</time>
      </trkpt>
      <trkpt lat="42.634293" lon="0.653793">
        <ele>3193.8</ele>
        <time>1970-01-01T04:20:21.000Z</time>
      </trkpt>
      <trkpt lat="42.634292" lon="0.653797">
        <ele>3193.8</ele>
        <time>1970-01-01T04:20:22.000Z</time>
      </trkpt>
      <trkpt lat="42.634291" lon="0.653806">
        <ele>3193.8</ele>
        <time>1970-01-01T04:20:24.000Z</time>
      </trkpt>
      <trkpt lat="42.634291" lon="0.653811">
        <ele>3193.8</ele>
        <time>1970-01-01T04:20:25.000Z</time>
      </trkpt>
      <trkpt lat="42.634291" lon="0.653819">
        <ele>3193.8</ele>
        <time>1970-01-01T04:20:26.000Z</time>
      </trkpt>
      <trkpt lat="42.634291" lon="0.653826">
        <ele>3193.8</ele>
        <time>1970-01-01T04:20:27.000Z</time>
      </trkpt>
      <trkpt lat="42.63429" lon="0.65383">
        <ele>3193.8</ele>
        <time>1970-01-01T04:20:28.000Z</time>
      </trkpt>
      <trkpt lat="42.634289" lon="0.653834">
        <ele>3193.8</ele>
        <time>1970-01-01T04:20:29.000Z</time>
      </trkpt>
      <trkpt lat="42.634289" lon="0.653837">
        <ele>3193.8</ele>
        <time>1970-01-01T04:20:30.000Z</time>
      </trkpt>
      <trkpt lat="42.634289" lon="0.653841">
        <ele>3193.8</ele>
        <time>1970-01-01T04:20:31.000Z</time>
      </trkpt>
      <trkpt lat="42.634289" lon="0.653846">
        <ele>3193.8</ele>
        <time>1970-01-01T04:20:32.000Z</time>
      </trkpt>
      <trkpt lat="42.63429" lon="0.653855">
        <ele>3193.8</ele>
        <time>1970-01-01T04:20:34.000Z</time>
      </trkpt>
      <trkpt lat="42.634291" lon="0.653862">
        <ele>3193.9</ele>
        <time>1970-01-01T04:20:35.000Z</time>
      </trkpt>
      <trkpt lat="42.634293" lon="0.653869">
        <ele>3193.9</ele>
        <time>1970-01-01T04:20:36.000Z</time>
      </trkpt>
      <trkpt lat="42.634294" lon="0.653877">
        <ele>3193.9</ele>
        <time>1970-01-01T04:20:37.000Z</time>
      </trkpt>
      <trkpt lat="42.634296" lon="0.653883">
        <ele>3193.9</ele>
        <time>1970-01-01T04:20:38.000Z</time>
      </trkpt>
      <trkpt lat="42.634298" lon="0.653888">
        <ele>3193.9</ele>
        <time>1970-01-01T04:20:39.000Z</time>
      </trkpt>
      <trkpt lat="42.634299" lon="0.653892">
        <ele>3193.9</ele>
        <time>1970-01-01T04:20:40.000Z</time>
      </trkpt>
      <trkpt lat="42.6343" lon="0.653896">
        <ele>3193.9</ele>
        <time>1970-01-01T04:20:41.000Z</time>
      </trkpt>
      <trkpt lat="42.634301" lon="0.653902">
        <ele>3193.9</ele>
        <time>1970-01-01T04:20:42.000Z</time>
      </trkpt>
      <trkpt lat="42.634302" lon="0.653907">
        <ele>3193.9</ele>
        <time>1970-01-01T04:20:43.000Z</time>
      </trkpt>
      <trkpt lat="42.634303" lon="0.653914">
        <ele>3193.9</ele>
        <time>1970-01-01T04:20:44.000Z</time>
      </trkpt>
      <trkpt lat="42.634305" lon="0.65392">
        <ele>3193.9</ele>
        <time>1970-01-01T04:20:45.000Z</time>
      </trkpt>
      <trkpt lat="42.634307" lon="0.653923">
        <ele>3193.9</ele>
        <time>1970-01-01T04:20:46.000Z</time>
      </trkpt>
      <trkpt lat="42.634308" lon="0.653924">
        <ele>3193.9</ele>
        <time>1970-01-01T04:20:47.000Z</time>
      </trkpt>
      <trkpt lat="42.634309" lon="0.653926">
        <ele>3193.9</ele>
        <time>1970-01-01T04:20:48.000Z</time>
      </trkpt>
      <trkpt lat="42.634309" lon="0.65393">
        <ele>3193.9</ele>
        <time>1970-01-01T04:20:49.000Z</time>
      </trkpt>
      <trkpt lat="42.634311" lon="0.653936">
        <ele>3193.9</ele>
        <time>1970-01-01T04:20:50.000Z</time>
      </trkpt>
      <trkpt lat="42.634312" lon="0.653942">
        <ele>3194</ele>
        <time>1970-01-01T04:20:51.000Z</time>
      </trkpt>
      <trkpt lat="42.634313" lon="0.653947">
        <ele>3194</ele>
        <time>1970-01-01T04:20:52.000Z</time>
      </trkpt>
      <trkpt lat="42.634314" lon="0.653955">
        <ele>3194</ele>
        <time>1970-01-01T04:20:53.000Z</time>
      </trkpt>
      <trkpt lat="42.634316" lon="0.653964">
        <ele>3194</ele>
        <time>1970-01-01T04:20:54.000Z</time>
      </trkpt>
      <trkpt lat="42.634318" lon="0.653972">
        <ele>3194</ele>
        <time>1970-01-01T04:20:55.000Z</time>
      </trkpt>
      <trkpt lat="42.634319" lon="0.653983">
        <ele>3194</ele>
        <time>1970-01-01T04:20:56.000Z</time>
      </trkpt>
      <trkpt lat="42.634319" lon="0.653994">
        <ele>3194</ele>
        <time>1970-01-01T04:20:58.000Z</time>
      </trkpt>
      <trkpt lat="42.63432" lon="0.654002">
        <ele>3194</ele>
        <time>1970-01-01T04:20:59.000Z</time>
      </trkpt>
      <trkpt lat="42.63432" lon="0.654007">
        <ele>3194</ele>
        <time>1970-01-01T04:21:00.000Z</time>
      </trkpt>
      <trkpt lat="42.63432" lon="0.654014">
        <ele>3194.1</ele>
        <time>1970-01-01T04:21:01.000Z</time>
      </trkpt>
      <trkpt lat="42.634322" lon="0.65402">
        <ele>3194.1</ele>
        <time>1970-01-01T04:21:02.000Z</time>
      </trkpt>
      <trkpt lat="42.634322" lon="0.654026">
        <ele>3194.1</ele>
        <time>1970-01-01T04:21:03.000Z</time>
      </trkpt>
      <trkpt lat="42.634322" lon="0.654031">
        <ele>3194.1</ele>
        <time>1970-01-01T04:21:05.000Z</time>
      </trkpt>
      <trkpt lat="42.634322" lon="0.654033">
        <ele>3194.1</ele>
        <time>1970-01-01T04:21:06.000Z</time>
      </trkpt>
      <trkpt lat="42.634322" lon="0.654036">
        <ele>3194.1</ele>
        <time>1970-01-01T04:21:07.000Z</time>
      </trkpt>
      <trkpt lat="42.634322" lon="0.654041">
        <ele>3194.1</ele>
        <time>1970-01-01T04:21:08.000Z</time>
      </trkpt>
      <trkpt lat="42.634322" lon="0.654047">
        <ele>3194.1</ele>
        <time>1970-01-01T04:21:10.000Z</time>
      </trkpt>
      <trkpt lat="42.634323" lon="0.654052">
        <ele>3194.1</ele>
        <time>1970-01-01T04:21:11.000Z</time>
      </trkpt>
      <trkpt lat="42.634323" lon="0.654056">
        <ele>3194.1</ele>
        <time>1970-01-01T04:21:12.000Z</time>
      </trkpt>
      <trkpt lat="42.634324" lon="0.654062">
        <ele>3194.1</ele>
        <time>1970-01-01T04:21:14.000Z</time>
      </trkpt>
      <trkpt lat="42.634324" lon="0.654068">
        <ele>3194.1</ele>
        <time>1970-01-01T04:21:15.000Z</time>
      </trkpt>
      <trkpt lat="42.634324" lon="0.654072">
        <ele>3194.1</ele>
        <time>1970-01-01T04:21:16.000Z</time>
      </trkpt>
      <trkpt lat="42.634323" lon="0.654077">
        <ele>3194.1</ele>
        <time>1970-01-01T04:21:17.000Z</time>
      </trkpt>
      <trkpt lat="42.634322" lon="0.654081">
        <ele>3194.1</ele>
        <time>1970-01-01T04:21:18.000Z</time>
      </trkpt>
      <trkpt lat="42.634322" lon="0.654086">
        <ele>3194.1</ele>
        <time>1970-01-01T04:21:19.000Z</time>
      </trkpt>
      <trkpt lat="42.634322" lon="0.654093">
        <ele>3194.2</ele>
        <time>1970-01-01T04:21:20.000Z</time>
      </trkpt>
      <trkpt lat="42.634322" lon="0.654101">
        <ele>3194.2</ele>
        <time>1970-01-01T04:21:21.000Z</time>
      </trkpt>
      <trkpt lat="42.634321" lon="0.65411">
        <ele>3194.2</ele>
        <time>1970-01-01T04:21:22.000Z</time>
      </trkpt>
      <trkpt lat="42.63432" lon="0.654118">
        <ele>3194.2</ele>
        <time>1970-01-01T04:21:23.000Z</time>
      </trkpt>
      <trkpt lat="42.63432" lon="0.654124">
        <ele>3194.2</ele>
        <time>1970-01-01T04:21:24.000Z</time>
      </trkpt>
      <trkpt lat="42.634319" lon="0.654131">
        <ele>3194.2</ele>
        <time>1970-01-01T04:21:25.000Z</time>
      </trkpt>
      <trkpt lat="42.634318" lon="0.654139">
        <ele>3194.2</ele>
        <time>1970-01-01T04:21:26.000Z</time>
      </trkpt>
      <trkpt lat="42.634317" lon="0.654148">
        <ele>3194.2</ele>
        <time>1970-01-01T04:21:27.000Z</time>
      </trkpt>
      <trkpt lat="42.634317" lon="0.654154">
        <ele>3194.2</ele>
        <time>1970-01-01T04:21:28.000Z</time>
      </trkpt>
      <trkpt lat="42.634317" lon="0.654163">
        <ele>3194.3</ele>
        <time>1970-01-01T04:21:30.000Z</time>
      </trkpt>
      <trkpt lat="42.634316" lon="0.654164">
        <ele>3194.3</ele>
        <time>1970-01-01T04:21:31.000Z</time>
      </trkpt>
      <trkpt lat="42.634315" lon="0.654165">
        <ele>3194.3</ele>
        <time>1970-01-01T04:21:32.000Z</time>
      </trkpt>
      <trkpt lat="42.634313" lon="0.654166">
        <ele>3194.3</ele>
        <time>1970-01-01T04:21:33.000Z</time>
      </trkpt>
      <trkpt lat="42.634313" lon="0.654169">
        <ele>3194.3</ele>
        <time>1970-01-01T04:21:34.000Z</time>
      </trkpt>
      <trkpt lat="42.634313" lon="0.654171">
        <ele>3194.3</ele>
        <time>1970-01-01T04:21:35.000Z</time>
      </trkpt>
      <trkpt lat="42.634313" lon="0.654175">
        <ele>3194.3</ele>
        <time>1970-01-01T04:21:36.000Z</time>
      </trkpt>
      <trkpt lat="42.634313" lon="0.654178">
        <ele>3194.3</ele>
        <time>1970-01-01T04:21:37.000Z</time>
      </trkpt>
      <trkpt lat="42.634313" lon="0.654182">
        <ele>3194.3</ele>
        <time>1970-01-01T04:21:38.000Z</time>
      </trkpt>
      <trkpt lat="42.634314" lon="0.654188">
        <ele>3194.3</ele>
        <time>1970-01-01T04:21:39.000Z</time>
      </trkpt>
      <trkpt lat="42.634314" lon="0.654192">
        <ele>3194.3</ele>
        <time>1970-01-01T04:21:40.000Z</time>
      </trkpt>
      <trkpt lat="42.634314" lon="0.654197">
        <ele>3194.3</ele>
        <time>1970-01-01T04:21:41.000Z</time>
      </trkpt>
      <trkpt lat="42.634315" lon="0.654203">
        <ele>3194.3</ele>
        <time>1970-01-01T04:21:42.000Z</time>
      </trkpt>
      <trkpt lat="42.634315" lon="0.65421">
        <ele>3194.3</ele>
        <time>1970-01-01T04:21:43.000Z</time>
      </trkpt>
      <trkpt lat="42.634315" lon="0.654222">
        <ele>3194.4</ele>
        <time>1970-01-01T04:21:45.000Z</time>
      </trkpt>
      <trkpt lat="42.634314" lon="0.654231">
        <ele>3194.4</ele>
        <time>1970-01-01T04:21:46.000Z</time>
      </trkpt>
      <trkpt lat="42.634314" lon="0.654241">
        <ele>3194.4</ele>
        <time>1970-01-01T04:21:47.000Z</time>
      </trkpt>
      <trkpt lat="42.634314" lon="0.654246">
        <ele>3194.4</ele>
        <time>1970-01-01T04:21:48.000Z</time>
      </trkpt>
      <trkpt lat="42.634314" lon="0.654258">
        <ele>3198.2</ele>
        <time>1970-01-01T04:21:50.000Z</time>
      </trkpt>
      <trkpt lat="42.634314" lon="0.654264">
        <ele>3198.3</ele>
        <time>1970-01-01T04:21:51.000Z</time>
      </trkpt>
      <trkpt lat="42.634314" lon="0.654269">
        <ele>3198.5</ele>
        <time>1970-01-01T04:21:52.000Z</time>
      </trkpt>
      <trkpt lat="42.634313" lon="0.654275">
        <ele>3198.6</ele>
        <time>1970-01-01T04:21:53.000Z</time>
      </trkpt>
      <trkpt lat="42.634314" lon="0.65428">
        <ele>3198.8</ele>
        <time>1970-01-01T04:21:54.000Z</time>
      </trkpt>
      <trkpt lat="42.634313" lon="0.654286">
        <ele>3198.9</ele>
        <time>1970-01-01T04:21:55.000Z</time>
      </trkpt>
      <trkpt lat="42.634314" lon="0.654294">
        <ele>3199.2</ele>
        <time>1970-01-01T04:21:56.000Z</time>
      </trkpt>
      <trkpt lat="42.634314" lon="0.654301">
        <ele>3199.4</ele>
        <time>1970-01-01T04:21:57.000Z</time>
      </trkpt>
      <trkpt lat="42.634314" lon="0.654314">
        <ele>3199.7</ele>
        <time>1970-01-01T04:21:59.000Z</time>
      </trkpt>
      <trkpt lat="42.634314" lon="0.654324">
        <ele>3200</ele>
        <time>1970-01-01T04:22:00.000Z</time>
      </trkpt>
      <trkpt lat="42.634313" lon="0.654333">
        <ele>3200.3</ele>
        <time>1970-01-01T04:22:01.000Z</time>
      </trkpt>
      <trkpt lat="42.634313" lon="0.654341">
        <ele>3200.5</ele>
        <time>1970-01-01T04:22:02.000Z</time>
      </trkpt>
      <trkpt lat="42.634313" lon="0.654348">
        <ele>3200.7</ele>
        <time>1970-01-01T04:22:03.000Z</time>
      </trkpt>
      <trkpt lat="42.634313" lon="0.654356">
        <ele>3200.9</ele>
        <time>1970-01-01T04:22:04.000Z</time>
      </trkpt>
      <trkpt lat="42.634314" lon="0.654364">
        <ele>3201.1</ele>
        <time>1970-01-01T04:22:05.000Z</time>
      </trkpt>
      <trkpt lat="42.634315" lon="0.654373">
        <ele>3201.4</ele>
        <time>1970-01-01T04:22:06.000Z</time>
      </trkpt>
      <trkpt lat="42.634317" lon="0.65438">
        <ele>3201.6</ele>
        <time>1970-01-01T04:22:07.000Z</time>
      </trkpt>
      <trkpt lat="42.634318" lon="0.654388">
        <ele>3201.8</ele>
        <time>1970-01-01T04:22:08.000Z</time>
      </trkpt>
      <trkpt lat="42.63432" lon="0.654396">
        <ele>3202.1</ele>
        <time>1970-01-01T04:22:09.000Z</time>
      </trkpt>
      <trkpt lat="42.634322" lon="0.654405">
        <ele>3202.4</ele>
        <time>1970-01-01T04:22:10.000Z</time>
      </trkpt>
      <trkpt lat="42.634325" lon="0.654417">
        <ele>3202.7</ele>
        <time>1970-01-01T04:22:12.000Z</time>
      </trkpt>
      <trkpt lat="42.634326" lon="0.654425">
        <ele>3202.9</ele>
        <time>1970-01-01T04:22:13.000Z</time>
      </trkpt>
      <trkpt lat="42.634328" lon="0.654433">
        <ele>3203.2</ele>
        <time>1970-01-01T04:22:14.000Z</time>
      </trkpt>
      <trkpt lat="42.634329" lon="0.654438">
        <ele>3203.3</ele>
        <time>1970-01-01T04:22:15.000Z</time>
      </trkpt>
      <trkpt lat="42.634331" lon="0.654446">
        <ele>3203.6</ele>
        <time>1970-01-01T04:22:17.000Z</time>
      </trkpt>
      <trkpt lat="42.634332" lon="0.654452">
        <ele>3203.8</ele>
        <time>1970-01-01T04:22:18.000Z</time>
      </trkpt>
      <trkpt lat="42.634333" lon="0.654457">
        <ele>3203.9</ele>
        <time>1970-01-01T04:22:19.000Z</time>
      </trkpt>
      <trkpt lat="42.634333" lon="0.654461">
        <ele>3204</ele>
        <time>1970-01-01T04:22:20.000Z</time>
      </trkpt>
      <trkpt lat="42.634333" lon="0.654466">
        <ele>3204.2</ele>
        <time>1970-01-01T04:22:21.000Z</time>
      </trkpt>
      <trkpt lat="42.634335" lon="0.65447">
        <ele>3204.3</ele>
        <time>1970-01-01T04:22:22.000Z</time>
      </trkpt>
      <trkpt lat="42.634336" lon="0.654475">
        <ele>3204.5</ele>
        <time>1970-01-01T04:22:23.000Z</time>
      </trkpt>
      <trkpt lat="42.634337" lon="0.654479">
        <ele>3204.6</ele>
        <time>1970-01-01T04:22:24.000Z</time>
      </trkpt>
      <trkpt lat="42.634338" lon="0.654482">
        <ele>3204.7</ele>
        <time>1970-01-01T04:22:25.000Z</time>
      </trkpt>
      <trkpt lat="42.634339" lon="0.654485">
        <ele>3204.8</ele>
        <time>1970-01-01T04:22:26.000Z</time>
      </trkpt>
      <trkpt lat="42.63434" lon="0.654487">
        <ele>3204.9</ele>
        <time>1970-01-01T04:22:27.000Z</time>
      </trkpt>
      <trkpt lat="42.634341" lon="0.654488">
        <ele>3204.9</ele>
        <time>1970-01-01T04:22:28.000Z</time>
      </trkpt>
      <trkpt lat="42.634342" lon="0.65449">
        <ele>3205</ele>
        <time>1970-01-01T04:22:29.000Z</time>
      </trkpt>
      <trkpt lat="42.634342" lon="0.654491">
        <ele>3205</ele>
        <time>1970-01-01T04:22:30.000Z</time>
      </trkpt>
      <trkpt lat="42.634343" lon="0.654492">
        <ele>3205.1</ele>
        <time>1970-01-01T04:22:31.000Z</time>
      </trkpt>
      <trkpt lat="42.634343" lon="0.654493">
        <ele>3205.1</ele>
        <time>1970-01-01T04:22:32.000Z</time>
      </trkpt>
      <trkpt lat="42.634344" lon="0.654494">
        <ele>3205.2</ele>
        <time>1970-01-01T04:22:33.000Z</time>
      </trkpt>
      <trkpt lat="42.634345" lon="0.654495">
        <ele>3205.2</ele>
        <time>1970-01-01T04:22:34.000Z</time>
      </trkpt>
      <trkpt lat="42.634345" lon="0.654496">
        <ele>3205.3</ele>
        <time>1970-01-01T04:22:35.000Z</time>
      </trkpt>
      <trkpt lat="42.634346" lon="0.654496">
        <ele>3205.3</ele>
        <time>1970-01-01T04:22:36.000Z</time>
      </trkpt>
      <trkpt lat="42.634346" lon="0.654497">
        <ele>3205.3</ele>
        <time>1970-01-01T04:22:37.000Z</time>
      </trkpt>
      <trkpt lat="42.634346" lon="0.654498">
        <ele>3205.4</ele>
        <time>1970-01-01T04:22:38.000Z</time>
      </trkpt>
      <trkpt lat="42.634347" lon="0.654499">
        <ele>3205.4</ele>
        <time>1970-01-01T04:22:39.000Z</time>
      </trkpt>
      <trkpt lat="42.634347" lon="0.654499">
        <ele>3205.4</ele>
        <time>1970-01-01T04:22:40.000Z</time>
      </trkpt>
      <trkpt lat="42.634347" lon="0.6545">
        <ele>3205.4</ele>
        <time>1970-01-01T04:22:41.000Z</time>
      </trkpt>
      <trkpt lat="42.634348" lon="0.654503">
        <ele>3205.5</ele>
        <time>1970-01-01T04:22:42.000Z</time>
      </trkpt>
      <trkpt lat="42.634349" lon="0.654505">
        <ele>3205.6</ele>
        <time>1970-01-01T04:22:43.000Z</time>
      </trkpt>
      <trkpt lat="42.63435" lon="0.654509">
        <ele>3205.7</ele>
        <time>1970-01-01T04:22:45.000Z</time>
      </trkpt>
      <trkpt lat="42.63435" lon="0.654511">
        <ele>3205.8</ele>
        <time>1970-01-01T04:22:46.000Z</time>
      </trkpt>
      <trkpt lat="42.63435" lon="0.654512">
        <ele>3205.8</ele>
        <time>1970-01-01T04:22:47.000Z</time>
      </trkpt>
      <trkpt lat="42.63435" lon="0.654513">
        <ele>3205.9</ele>
        <time>1970-01-01T04:22:48.000Z</time>
      </trkpt>
      <trkpt lat="42.63435" lon="0.654514">
        <ele>3205.9</ele>
        <time>1970-01-01T04:22:49.000Z</time>
      </trkpt>
      <trkpt lat="42.634351" lon="0.654514">
        <ele>3205.9</ele>
        <time>1970-01-01T04:22:50.000Z</time>
      </trkpt>
      <trkpt lat="42.634351" lon="0.654515">
        <ele>3206</ele>
        <time>1970-01-01T04:22:51.000Z</time>
      </trkpt>
      <trkpt lat="42.634351" lon="0.654518">
        <ele>3206.1</ele>
        <time>1970-01-01T04:22:52.000Z</time>
      </trkpt>
      <trkpt lat="42.634351" lon="0.654522">
        <ele>3206.2</ele>
        <time>1970-01-01T04:22:53.000Z</time>
      </trkpt>
      <trkpt lat="42.63435" lon="0.654528">
        <ele>3206.4</ele>
        <time>1970-01-01T04:22:54.000Z</time>
      </trkpt>
      <trkpt lat="42.634349" lon="0.654531">
        <ele>3206.5</ele>
        <time>1970-01-01T04:22:55.000Z</time>
      </trkpt>
      <trkpt lat="42.634348" lon="0.654536">
        <ele>3206.6</ele>
        <time>1970-01-01T04:22:57.000Z</time>
      </trkpt>
      <trkpt lat="42.634347" lon="0.654542">
        <ele>3206.8</ele>
        <time>1970-01-01T04:22:58.000Z</time>
      </trkpt>
      <trkpt lat="42.634346" lon="0.65455">
        <ele>3207.1</ele>
        <time>1970-01-01T04:22:59.000Z</time>
      </trkpt>
      <trkpt lat="42.634346" lon="0.654556">
        <ele>3207.2</ele>
        <time>1970-01-01T04:23:00.000Z</time>
      </trkpt>
      <trkpt lat="42.634345" lon="0.654564">
        <ele>3207.5</ele>
        <time>1970-01-01T04:23:01.000Z</time>
      </trkpt>
      <trkpt lat="42.634345" lon="0.654572">
        <ele>3207.7</ele>
        <time>1970-01-01T04:23:02.000Z</time>
      </trkpt>
      <trkpt lat="42.634344" lon="0.654578">
        <ele>3207.9</ele>
        <time>1970-01-01T04:23:03.000Z</time>
      </trkpt>
      <trkpt lat="42.634344" lon="0.654584">
        <ele>3208.1</ele>
        <time>1970-01-01T04:23:04.000Z</time>
      </trkpt>
      <trkpt lat="42.634344" lon="0.654587">
        <ele>3208.2</ele>
        <time>1970-01-01T04:23:05.000Z</time>
      </trkpt>
      <trkpt lat="42.634344" lon="0.654591">
        <ele>3208.3</ele>
        <time>1970-01-01T04:23:06.000Z</time>
      </trkpt>
      <trkpt lat="42.634344" lon="0.654596">
        <ele>3208.5</ele>
        <time>1970-01-01T04:23:07.000Z</time>
      </trkpt>
      <trkpt lat="42.634344" lon="0.654601">
        <ele>3208.6</ele>
        <time>1970-01-01T04:23:08.000Z</time>
      </trkpt>
      <trkpt lat="42.634346" lon="0.654605">
        <ele>3208.8</ele>
        <time>1970-01-01T04:23:10.000Z</time>
      </trkpt>
      <trkpt lat="42.634347" lon="0.654608">
        <ele>3208.9</ele>
        <time>1970-01-01T04:23:11.000Z</time>
      </trkpt>
      <trkpt lat="42.634349" lon="0.65461">
        <ele>3209</ele>
        <time>1970-01-01T04:23:12.000Z</time>
      </trkpt>
      <trkpt lat="42.63435" lon="0.654611">
        <ele>3209.1</ele>
        <time>1970-01-01T04:23:13.000Z</time>
      </trkpt>
      <trkpt lat="42.634351" lon="0.654613">
        <ele>3209.1</ele>
        <time>1970-01-01T04:23:14.000Z</time>
      </trkpt>
      <trkpt lat="42.634351" lon="0.654615">
        <ele>3209.2</ele>
        <time>1970-01-01T04:23:15.000Z</time>
      </trkpt>
      <trkpt lat="42.634353" lon="0.654617">
        <ele>3209.3</ele>
        <time>1970-01-01T04:23:16.000Z</time>
      </trkpt>
      <trkpt lat="42.634357" lon="0.654618">
        <ele>3209.5</ele>
        <time>1970-01-01T04:23:18.000Z</time>
      </trkpt>
      <trkpt lat="42.63436" lon="0.654621">
        <ele>3209.7</ele>
        <time>1970-01-01T04:23:19.000Z</time>
      </trkpt>
      <trkpt lat="42.634364" lon="0.654624">
        <ele>3209.9</ele>
        <time>1970-01-01T04:23:20.000Z</time>
      </trkpt>
      <trkpt lat="42.634367" lon="0.654627">
        <ele>3210</ele>
        <time>1970-01-01T04:23:21.000Z</time>
      </trkpt>
      <trkpt lat="42.634369" lon="0.654629">
        <ele>3210.2</ele>
        <time>1970-01-01T04:23:22.000Z</time>
      </trkpt>
      <trkpt lat="42.63437" lon="0.65463">
        <ele>3210.2</ele>
        <time>1970-01-01T04:23:23.000Z</time>
      </trkpt>
      <trkpt lat="42.63437" lon="0.65463">
        <ele>3210.2</ele>
        <time>1970-01-01T04:23:24.000Z</time>
      </trkpt>
      <trkpt lat="42.634371" lon="0.654632">
        <ele>3210.3</ele>
        <time>1970-01-01T04:23:25.000Z</time>
      </trkpt>
      <trkpt lat="42.634373" lon="0.654635">
        <ele>3210.4</ele>
        <time>1970-01-01T04:23:26.000Z</time>
      </trkpt>
      <trkpt lat="42.634374" lon="0.654637">
        <ele>3210.5</ele>
        <time>1970-01-01T04:23:27.000Z</time>
      </trkpt>
      <trkpt lat="42.634375" lon="0.654637">
        <ele>3210.6</ele>
        <time>1970-01-01T04:23:28.000Z</time>
      </trkpt>
      <trkpt lat="42.634379" lon="0.654642">
        <ele>3210.8</ele>
        <time>1970-01-01T04:23:30.000Z</time>
      </trkpt>
      <trkpt lat="42.634381" lon="0.654643">
        <ele>3210.9</ele>
        <time>1970-01-01T04:23:31.000Z</time>
      </trkpt>
      <trkpt lat="42.634385" lon="0.654644">
        <ele>3211.1</ele>
        <time>1970-01-01T04:23:32.000Z</time>
      </trkpt>
      <trkpt lat="42.634386" lon="0.654643">
        <ele>3211.1</ele>
        <time>1970-01-01T04:23:33.000Z</time>
      </trkpt>
      <trkpt lat="42.634387" lon="0.654644">
        <ele>3211.2</ele>
        <time>1970-01-01T04:23:34.000Z</time>
      </trkpt>
      <trkpt lat="42.634388" lon="0.654644">
        <ele>3211.3</ele>
        <time>1970-01-01T04:23:35.000Z</time>
      </trkpt>
      <trkpt lat="42.634389" lon="0.654646">
        <ele>3211.3</ele>
        <time>1970-01-01T04:23:36.000Z</time>
      </trkpt>
      <trkpt lat="42.634389" lon="0.654646">
        <ele>3211.3</ele>
        <time>1970-01-01T04:23:37.000Z</time>
      </trkpt>
      <trkpt lat="42.63439" lon="0.654647">
        <ele>3211.4</ele>
        <time>1970-01-01T04:23:38.000Z</time>
      </trkpt>
      <trkpt lat="42.634391" lon="0.654648">
        <ele>3211.5</ele>
        <time>1970-01-01T04:23:39.000Z</time>
      </trkpt>
      <trkpt lat="42.634392" lon="0.654648">
        <ele>3211.5</ele>
        <time>1970-01-01T04:23:40.000Z</time>
      </trkpt>
      <trkpt lat="42.634393" lon="0.654648">
        <ele>3211.6</ele>
        <time>1970-01-01T04:23:41.000Z</time>
      </trkpt>
      <trkpt lat="42.634393" lon="0.654648">
        <ele>3211.6</ele>
        <time>1970-01-01T04:23:42.000Z</time>
      </trkpt>
      <trkpt lat="42.634394" lon="0.654649">
        <ele>3211.6</ele>
        <time>1970-01-01T04:23:43.000Z</time>
      </trkpt>
      <trkpt lat="42.634394" lon="0.65465">
        <ele>3211.6</ele>
        <time>1970-01-01T04:23:44.000Z</time>
      </trkpt>
      <trkpt lat="42.634395" lon="0.654653">
        <ele>3211.8</ele>
        <time>1970-01-01T04:23:45.000Z</time>
      </trkpt>
      <trkpt lat="42.634395" lon="0.654655">
        <ele>3211.8</ele>
        <time>1970-01-01T04:23:47.000Z</time>
      </trkpt>
      <trkpt lat="42.634396" lon="0.654657">
        <ele>3211.9</ele>
        <time>1970-01-01T04:23:48.000Z</time>
      </trkpt>
      <trkpt lat="42.634397" lon="0.654658">
        <ele>3212</ele>
        <time>1970-01-01T04:23:49.000Z</time>
      </trkpt>
      <trkpt lat="42.634398" lon="0.654662">
        <ele>3212.1</ele>
        <time>1970-01-01T04:23:50.000Z</time>
      </trkpt>
      <trkpt lat="42.634399" lon="0.654663">
        <ele>3212.2</ele>
        <time>1970-01-01T04:23:51.000Z</time>
      </trkpt>
      <trkpt lat="42.634399" lon="0.654664">
        <ele>3212.2</ele>
        <time>1970-01-01T04:23:52.000Z</time>
      </trkpt>
      <trkpt lat="42.6344" lon="0.654665">
        <ele>3212.3</ele>
        <time>1970-01-01T04:23:53.000Z</time>
      </trkpt>
      <trkpt lat="42.634401" lon="0.654666">
        <ele>3212.3</ele>
        <time>1970-01-01T04:23:54.000Z</time>
      </trkpt>
      <trkpt lat="42.6344" lon="0.654667">
        <ele>3212.4</ele>
        <time>1970-01-01T04:23:55.000Z</time>
      </trkpt>
      <trkpt lat="42.6344" lon="0.654667">
        <ele>3212.4</ele>
        <time>1970-01-01T04:23:56.000Z</time>
      </trkpt>
      <trkpt lat="42.6344" lon="0.654669">
        <ele>3212.5</ele>
        <time>1970-01-01T04:23:57.000Z</time>
      </trkpt>
      <trkpt lat="42.6344" lon="0.65467">
        <ele>3212.5</ele>
        <time>1970-01-01T04:23:58.000Z</time>
      </trkpt>
      <trkpt lat="42.6344" lon="0.654671">
        <ele>3212.5</ele>
        <time>1970-01-01T04:23:59.000Z</time>
      </trkpt>
      <trkpt lat="42.6344" lon="0.654672">
        <ele>3212.6</ele>
        <time>1970-01-01T04:24:01.000Z</time>
      </trkpt>
      <trkpt lat="42.6344" lon="0.654673">
        <ele>3212.6</ele>
        <time>1970-01-01T04:24:02.000Z</time>
      </trkpt>
      <trkpt lat="42.6344" lon="0.654676">
        <ele>3212.7</ele>
        <time>1970-01-01T04:24:03.000Z</time>
      </trkpt>
      <trkpt lat="42.6344" lon="0.654679">
        <ele>3212.8</ele>
        <time>1970-01-01T04:24:04.000Z</time>
      </trkpt>
      <trkpt lat="42.634398" lon="0.654683">
        <ele>3213</ele>
        <time>1970-01-01T04:24:06.000Z</time>
      </trkpt>
      <trkpt lat="42.634397" lon="0.654685">
        <ele>3213.1</ele>
        <time>1970-01-01T04:24:07.000Z</time>
      </trkpt>
      <trkpt lat="42.634396" lon="0.654687">
        <ele>3213.2</ele>
        <time>1970-01-01T04:24:08.000Z</time>
      </trkpt>
      <trkpt lat="42.634396" lon="0.654688">
        <ele>3213.2</ele>
        <time>1970-01-01T04:24:09.000Z</time>
      </trkpt>
      <trkpt lat="42.634396" lon="0.654689">
        <ele>3213.2</ele>
        <time>1970-01-01T04:24:10.000Z</time>
      </trkpt>
      <trkpt lat="42.634396" lon="0.654691">
        <ele>3213.3</ele>
        <time>1970-01-01T04:24:11.000Z</time>
      </trkpt>
      <trkpt lat="42.634396" lon="0.654692">
        <ele>3213.3</ele>
        <time>1970-01-01T04:24:12.000Z</time>
      </trkpt>
      <trkpt lat="42.634396" lon="0.654693">
        <ele>3213.4</ele>
        <time>1970-01-01T04:24:13.000Z</time>
      </trkpt>
      <trkpt lat="42.634396" lon="0.654694">
        <ele>3213.4</ele>
        <time>1970-01-01T04:24:14.000Z</time>
      </trkpt>
      <trkpt lat="42.634394" lon="0.654698">
        <ele>3213.6</ele>
        <time>1970-01-01T04:24:16.000Z</time>
      </trkpt>
      <trkpt lat="42.634394" lon="0.654699">
        <ele>3213.6</ele>
        <time>1970-01-01T04:24:17.000Z</time>
      </trkpt>
      <trkpt lat="42.634394" lon="0.6547">
        <ele>3213.6</ele>
        <time>1970-01-01T04:24:18.000Z</time>
      </trkpt>
      <trkpt lat="42.634394" lon="0.654699">
        <ele>3213.7</ele>
        <time>1970-01-01T04:24:19.000Z</time>
      </trkpt>
      <trkpt lat="42.634394" lon="0.6547">
        <ele>3213.7</ele>
        <time>1970-01-01T04:24:20.000Z</time>
      </trkpt>
      <trkpt lat="42.634394" lon="0.654701">
        <ele>3213.8</ele>
        <time>1970-01-01T04:24:21.000Z</time>
      </trkpt>
      <trkpt lat="42.634393" lon="0.654702">
        <ele>3213.8</ele>
        <time>1970-01-01T04:24:22.000Z</time>
      </trkpt>
      <trkpt lat="42.634391" lon="0.654703">
        <ele>3213.9</ele>
        <time>1970-01-01T04:24:23.000Z</time>
      </trkpt>
      <trkpt lat="42.634391" lon="0.654703">
        <ele>3213.9</ele>
        <time>1970-01-01T04:24:24.000Z</time>
      </trkpt>
      <trkpt lat="42.63439" lon="0.654703">
        <ele>3214</ele>
        <time>1970-01-01T04:24:25.000Z</time>
      </trkpt>
      <trkpt lat="42.634389" lon="0.654704">
        <ele>3214</ele>
        <time>1970-01-01T04:24:26.000Z</time>
      </trkpt>
      <trkpt lat="42.634387" lon="0.654706">
        <ele>3214.2</ele>
        <time>1970-01-01T04:24:27.000Z</time>
      </trkpt>
      <trkpt lat="42.634385" lon="0.654707">
        <ele>3214.3</ele>
        <time>1970-01-01T04:24:29.000Z</time>
      </trkpt>
      <trkpt lat="42.634384" lon="0.654709">
        <ele>3214.4</ele>
        <time>1970-01-01T04:24:30.000Z</time>
      </trkpt>
      <trkpt lat="42.634383" lon="0.65471">
        <ele>3214.5</ele>
        <time>1970-01-01T04:24:31.000Z</time>
      </trkpt>
      <trkpt lat="42.634382" lon="0.654709">
        <ele>3214.5</ele>
        <time>1970-01-01T04:24:32.000Z</time>
      </trkpt>
      <trkpt lat="42.634381" lon="0.654709">
        <ele>3214.6</ele>
        <time>1970-01-01T04:24:33.000Z</time>
      </trkpt>
      <trkpt lat="42.63438" lon="0.654708">
        <ele>3214.6</ele>
        <time>1970-01-01T04:24:34.000Z</time>
      </trkpt>
      <trkpt lat="42.634379" lon="0.654708">
        <ele>3214.7</ele>
        <time>1970-01-01T04:24:35.000Z</time>
      </trkpt>
      <trkpt lat="42.634378" lon="0.654709">
        <ele>3214.8</ele>
        <time>1970-01-01T04:24:36.000Z</time>
      </trkpt>
      <trkpt lat="42.634378" lon="0.654711">
        <ele>3214.8</ele>
        <time>1970-01-01T04:24:37.000Z</time>
      </trkpt>
      <trkpt lat="42.634378" lon="0.654711">
        <ele>3214.8</ele>
        <time>1970-01-01T04:24:38.000Z</time>
      </trkpt>
      <trkpt lat="42.634378" lon="0.654716">
        <ele>3215</ele>
        <time>1970-01-01T04:24:39.000Z</time>
      </trkpt>
      <trkpt lat="42.634377" lon="0.65472">
        <ele>3215.2</ele>
        <time>1970-01-01T04:24:40.000Z</time>
      </trkpt>
      <trkpt lat="42.634376" lon="0.654723">
        <ele>3215.3</ele>
        <time>1970-01-01T04:24:41.000Z</time>
      </trkpt>
      <trkpt lat="42.634375" lon="0.654724">
        <ele>3215.4</ele>
        <time>1970-01-01T04:24:42.000Z</time>
      </trkpt>
      <trkpt lat="42.634374" lon="0.654726">
        <ele>3215.5</ele>
        <time>1970-01-01T04:24:43.000Z</time>
      </trkpt>
      <trkpt lat="42.634373" lon="0.654727">
        <ele>3215.5</ele>
        <time>1970-01-01T04:24:44.000Z</time>
      </trkpt>
      <trkpt lat="42.634373" lon="0.654731">
        <ele>3215.7</ele>
        <time>1970-01-01T04:24:45.000Z</time>
      </trkpt>
      <trkpt lat="42.634373" lon="0.654734">
        <ele>3215.8</ele>
        <time>1970-01-01T04:24:46.000Z</time>
      </trkpt>
      <trkpt lat="42.634372" lon="0.654735">
        <ele>3215.9</ele>
        <time>1970-01-01T04:24:47.000Z</time>
      </trkpt>
      <trkpt lat="42.63437" lon="0.654736">
        <ele>3216</ele>
        <time>1970-01-01T04:24:48.000Z</time>
      </trkpt>
      <trkpt lat="42.634368" lon="0.654738">
        <ele>3216.1</ele>
        <time>1970-01-01T04:24:49.000Z</time>
      </trkpt>
      <trkpt lat="42.634367" lon="0.654741">
        <ele>3216.3</ele>
        <time>1970-01-01T04:24:50.000Z</time>
      </trkpt>
      <trkpt lat="42.634367" lon="0.654742">
        <ele>3216.3</ele>
        <time>1970-01-01T04:24:51.000Z</time>
      </trkpt>
      <trkpt lat="42.634367" lon="0.654743">
        <ele>3216.3</ele>
        <time>1970-01-01T04:24:52.000Z</time>
      </trkpt>
      <trkpt lat="42.634366" lon="0.654743">
        <ele>3216.4</ele>
        <time>1970-01-01T04:24:53.000Z</time>
      </trkpt>
      <trkpt lat="42.634366" lon="0.654744">
        <ele>3216.4</ele>
        <time>1970-01-01T04:24:54.000Z</time>
      </trkpt>
      <trkpt lat="42.634365" lon="0.654745">
        <ele>3216.5</ele>
        <time>1970-01-01T04:24:55.000Z</time>
      </trkpt>
      <trkpt lat="42.634364" lon="0.654746">
        <ele>3216.6</ele>
        <time>1970-01-01T04:24:56.000Z</time>
      </trkpt>
      <trkpt lat="42.634363" lon="0.654748">
        <ele>3216.6</ele>
        <time>1970-01-01T04:24:58.000Z</time>
      </trkpt>
      <trkpt lat="42.634362" lon="0.654748">
        <ele>3216.7</ele>
        <time>1970-01-01T04:24:59.000Z</time>
      </trkpt>
      <trkpt lat="42.634361" lon="0.654751">
        <ele>3216.8</ele>
        <time>1970-01-01T04:25:00.000Z</time>
      </trkpt>
      <trkpt lat="42.634359" lon="0.654754">
        <ele>3217</ele>
        <time>1970-01-01T04:25:01.000Z</time>
      </trkpt>
      <trkpt lat="42.634357" lon="0.654756">
        <ele>3217.1</ele>
        <time>1970-01-01T04:25:02.000Z</time>
      </trkpt>
      <trkpt lat="42.634355" lon="0.654761">
        <ele>3217.4</ele>
        <time>1970-01-01T04:25:04.000Z</time>
      </trkpt>
      <trkpt lat="42.634353" lon="0.654764">
        <ele>3217.5</ele>
        <time>1970-01-01T04:25:05.000Z</time>
      </trkpt>
      <trkpt lat="42.634352" lon="0.654765">
        <ele>3217.6</ele>
        <time>1970-01-01T04:25:06.000Z</time>
      </trkpt>
      <trkpt lat="42.634351" lon="0.654764">
        <ele>3217.7</ele>
        <time>1970-01-01T04:25:07.000Z</time>
      </trkpt>
      <trkpt lat="42.634351" lon="0.654763">
        <ele>3217.7</ele>
        <time>1970-01-01T04:25:08.000Z</time>
      </trkpt>
      <trkpt lat="42.63435" lon="0.654764">
        <ele>3217.8</ele>
        <time>1970-01-01T04:25:09.000Z</time>
      </trkpt>
      <trkpt lat="42.63435" lon="0.654765">
        <ele>3217.8</ele>
        <time>1970-01-01T04:25:10.000Z</time>
      </trkpt>
      <trkpt lat="42.63435" lon="0.654766">
        <ele>3217.9</ele>
        <time>1970-01-01T04:25:11.000Z</time>
      </trkpt>
      <trkpt lat="42.63435" lon="0.654768">
        <ele>3217.9</ele>
        <time>1970-01-01T04:25:13.000Z</time>
      </trkpt>
      <trkpt lat="42.634351" lon="0.654769">
        <ele>3218</ele>
        <time>1970-01-01T04:25:14.000Z</time>
      </trkpt>
      <trkpt lat="42.634351" lon="0.65477">
        <ele>3218.1</ele>
        <time>1970-01-01T04:25:15.000Z</time>
      </trkpt>
      <trkpt lat="42.634351" lon="0.65477">
        <ele>3218.1</ele>
        <time>1970-01-01T04:25:16.000Z</time>
      </trkpt>
      <trkpt lat="42.634352" lon="0.654769">
        <ele>3218.1</ele>
        <time>1970-01-01T04:25:17.000Z</time>
      </trkpt>
      <trkpt lat="42.634352" lon="0.654773">
        <ele>3218.3</ele>
        <time>1970-01-01T04:25:18.000Z</time>
      </trkpt>
      <trkpt lat="42.634352" lon="0.654776">
        <ele>3218.4</ele>
        <time>1970-01-01T04:25:19.000Z</time>
      </trkpt>
      <trkpt lat="42.634352" lon="0.654778">
        <ele>3218.5</ele>
        <time>1970-01-01T04:25:20.000Z</time>
      </trkpt>
      <trkpt lat="42.634352" lon="0.65478">
        <ele>3218.6</ele>
        <time>1970-01-01T04:25:21.000Z</time>
      </trkpt>
      <trkpt lat="42.634351" lon="0.654781">
        <ele>3218.6</ele>
        <time>1970-01-01T04:25:22.000Z</time>
      </trkpt>
      <trkpt lat="42.63435" lon="0.654781">
        <ele>3218.7</ele>
        <time>1970-01-01T04:25:24.000Z</time>
      </trkpt>
      <trkpt lat="42.634347" lon="0.654784">
        <ele>3218.9</ele>
        <time>1970-01-01T04:25:25.000Z</time>
      </trkpt>
      <trkpt lat="42.634344" lon="0.654788">
        <ele>3219.1</ele>
        <time>1970-01-01T04:25:26.000Z</time>
      </trkpt>
      <trkpt lat="42.634342" lon="0.654791">
        <ele>3219.3</ele>
        <time>1970-01-01T04:25:27.000Z</time>
      </trkpt>
      <trkpt lat="42.63434" lon="0.654797">
        <ele>3219.6</ele>
        <time>1970-01-01T04:25:28.000Z</time>
      </trkpt>
      <trkpt lat="42.634337" lon="0.654804">
        <ele>3219.9</ele>
        <time>1970-01-01T04:25:29.000Z</time>
      </trkpt>
      <trkpt lat="42.634335" lon="0.654805">
        <ele>3220</ele>
        <time>1970-01-01T04:25:30.000Z</time>
      </trkpt>
      <trkpt lat="42.634329" lon="0.65481">
        <ele>3220.4</ele>
        <time>1970-01-01T04:25:32.000Z</time>
      </trkpt>
      <trkpt lat="42.634326" lon="0.654813">
        <ele>3220.6</ele>
        <time>1970-01-01T04:25:33.000Z</time>
      </trkpt>
      <trkpt lat="42.634324" lon="0.654814">
        <ele>3220.7</ele>
        <time>1970-01-01T04:25:34.000Z</time>
      </trkpt>
      <trkpt lat="42.634321" lon="0.654817">
        <ele>3221</ele>
        <time>1970-01-01T04:25:35.000Z</time>
      </trkpt>
      <trkpt lat="42.634319" lon="0.65482">
        <ele>3221.1</ele>
        <time>1970-01-01T04:25:36.000Z</time>
      </trkpt>
      <trkpt lat="42.634318" lon="0.654823">
        <ele>3221.3</ele>
        <time>1970-01-01T04:25:37.000Z</time>
      </trkpt>
      <trkpt lat="42.634317" lon="0.654827">
        <ele>3221.4</ele>
        <time>1970-01-01T04:25:38.000Z</time>
      </trkpt>
      <trkpt lat="42.634315" lon="0.65483">
        <ele>3221.6</ele>
        <time>1970-01-01T04:25:39.000Z</time>
      </trkpt>
      <trkpt lat="42.634314" lon="0.654834">
        <ele>3221.8</ele>
        <time>1970-01-01T04:25:41.000Z</time>
      </trkpt>
      <trkpt lat="42.634313" lon="0.654834">
        <ele>3221.8</ele>
        <time>1970-01-01T04:25:42.000Z</time>
      </trkpt>
      <trkpt lat="42.634312" lon="0.654835">
        <ele>3221.9</ele>
        <time>1970-01-01T04:25:43.000Z</time>
      </trkpt>
      <trkpt lat="42.634312" lon="0.654836">
        <ele>3221.9</ele>
        <time>1970-01-01T04:25:44.000Z</time>
      </trkpt>
      <trkpt lat="42.634311" lon="0.654837">
        <ele>3222</ele>
        <time>1970-01-01T04:25:45.000Z</time>
      </trkpt>
      <trkpt lat="42.634311" lon="0.654837">
        <ele>3222</ele>
        <time>1970-01-01T04:25:46.000Z</time>
      </trkpt>
      <trkpt lat="42.634309" lon="0.654839">
        <ele>3222.1</ele>
        <time>1970-01-01T04:25:47.000Z</time>
      </trkpt>
      <trkpt lat="42.634308" lon="0.654839">
        <ele>3222.2</ele>
        <time>1970-01-01T04:25:48.000Z</time>
      </trkpt>
      <trkpt lat="42.634307" lon="0.654841">
        <ele>3222.3</ele>
        <time>1970-01-01T04:25:50.000Z</time>
      </trkpt>
      <trkpt lat="42.634306" lon="0.654843">
        <ele>3222.4</ele>
        <time>1970-01-01T04:25:51.000Z</time>
      </trkpt>
      <trkpt lat="42.634305" lon="0.654842">
        <ele>3222.5</ele>
        <time>1970-01-01T04:25:52.000Z</time>
      </trkpt>
      <trkpt lat="42.634304" lon="0.654843">
        <ele>3222.5</ele>
        <time>1970-01-01T04:25:53.000Z</time>
      </trkpt>
      <trkpt lat="42.634303" lon="0.654843">
        <ele>3222.6</ele>
        <time>1970-01-01T04:25:54.000Z</time>
      </trkpt>
      <trkpt lat="42.634302" lon="0.654844">
        <ele>3222.7</ele>
        <time>1970-01-01T04:25:55.000Z</time>
      </trkpt>
      <trkpt lat="42.634302" lon="0.654845">
        <ele>3222.7</ele>
        <time>1970-01-01T04:25:56.000Z</time>
      </trkpt>
      <trkpt lat="42.634302" lon="0.654845">
        <ele>3222.7</ele>
        <time>1970-01-01T04:25:57.000Z</time>
      </trkpt>
      <trkpt lat="42.634302" lon="0.654844">
        <ele>3222.7</ele>
        <time>1970-01-01T04:25:58.000Z</time>
      </trkpt>
      <trkpt lat="42.634302" lon="0.654842">
        <ele>3222.8</ele>
        <time>1970-01-01T04:25:59.000Z</time>
      </trkpt>
      <trkpt lat="42.634302" lon="0.654842">
        <ele>3222.8</ele>
        <time>1970-01-01T04:26:00.000Z</time>
      </trkpt>
      <trkpt lat="42.634299" lon="0.654844">
        <ele>3223</ele>
        <time>1970-01-01T04:26:02.000Z</time>
      </trkpt>
      <trkpt lat="42.634296" lon="0.654846">
        <ele>3223.2</ele>
        <time>1970-01-01T04:26:03.000Z</time>
      </trkpt>
      <trkpt lat="42.634294" lon="0.654847">
        <ele>3223.3</ele>
        <time>1970-01-01T04:26:04.000Z</time>
      </trkpt>
      <trkpt lat="42.634292" lon="0.654849">
        <ele>3223.5</ele>
        <time>1970-01-01T04:26:05.000Z</time>
      </trkpt>
      <trkpt lat="42.634289" lon="0.654852">
        <ele>3223.7</ele>
        <time>1970-01-01T04:26:06.000Z</time>
      </trkpt>
      <trkpt lat="42.634287" lon="0.654853">
        <ele>3223.8</ele>
        <time>1970-01-01T04:26:07.000Z</time>
      </trkpt>
      <trkpt lat="42.634286" lon="0.654854">
        <ele>3223.8</ele>
        <time>1970-01-01T04:26:08.000Z</time>
      </trkpt>
      <trkpt lat="42.634285" lon="0.654855">
        <ele>3223.9</ele>
        <time>1970-01-01T04:26:09.000Z</time>
      </trkpt>
      <trkpt lat="42.634284" lon="0.654855">
        <ele>3224</ele>
        <time>1970-01-01T04:26:11.000Z</time>
      </trkpt>
      <trkpt lat="42.634281" lon="0.654857">
        <ele>3224.2</ele>
        <time>1970-01-01T04:26:12.000Z</time>
      </trkpt>
      <trkpt lat="42.634279" lon="0.654859">
        <ele>3224.3</ele>
        <time>1970-01-01T04:26:13.000Z</time>
      </trkpt>
      <trkpt lat="42.634277" lon="0.65486">
        <ele>3224.4</ele>
        <time>1970-01-01T04:26:14.000Z</time>
      </trkpt>
      <trkpt lat="42.634276" lon="0.654861">
        <ele>3224.5</ele>
        <time>1970-01-01T04:26:15.000Z</time>
      </trkpt>
      <trkpt lat="42.634272" lon="0.654864">
        <ele>3224.7</ele>
        <time>1970-01-01T04:26:16.000Z</time>
      </trkpt>
      <trkpt lat="42.634271" lon="0.654866">
        <ele>3224.8</ele>
        <time>1970-01-01T04:26:17.000Z</time>
      </trkpt>
      <trkpt lat="42.634269" lon="0.654867">
        <ele>3225</ele>
        <time>1970-01-01T04:26:18.000Z</time>
      </trkpt>
      <trkpt lat="42.634265" lon="0.654869">
        <ele>3225.2</ele>
        <time>1970-01-01T04:26:19.000Z</time>
      </trkpt>
      <trkpt lat="42.634261" lon="0.654871">
        <ele>3225.4</ele>
        <time>1970-01-01T04:26:20.000Z</time>
      </trkpt>
      <trkpt lat="42.634258" lon="0.654873">
        <ele>3225.6</ele>
        <time>1970-01-01T04:26:21.000Z</time>
      </trkpt>
      <trkpt lat="42.634256" lon="0.654873">
        <ele>3225.7</ele>
        <time>1970-01-01T04:26:22.000Z</time>
      </trkpt>
      <trkpt lat="42.634256" lon="0.654873">
        <ele>3225.7</ele>
        <time>1970-01-01T04:26:23.000Z</time>
      </trkpt>
      <trkpt lat="42.634256" lon="0.654873">
        <ele>3225.7</ele>
        <time>1970-01-01T04:26:24.000Z</time>
      </trkpt>
      <trkpt lat="42.634255" lon="0.654876">
        <ele>3225.9</ele>
        <time>1970-01-01T04:26:25.000Z</time>
      </trkpt>
      <trkpt lat="42.634254" lon="0.65488">
        <ele>3226</ele>
        <time>1970-01-01T04:26:26.000Z</time>
      </trkpt>
      <trkpt lat="42.634252" lon="0.654885">
        <ele>3226.3</ele>
        <time>1970-01-01T04:26:27.000Z</time>
      </trkpt>
      <trkpt lat="42.634248" lon="0.654891">
        <ele>3226.6</ele>
        <time>1970-01-01T04:26:28.000Z</time>
      </trkpt>
      <trkpt lat="42.634247" lon="0.654891">
        <ele>3226.7</ele>
        <time>1970-01-01T04:26:29.000Z</time>
      </trkpt>
      <trkpt lat="42.634243" lon="0.654893">
        <ele>3226.9</ele>
        <time>1970-01-01T04:26:30.000Z</time>
      </trkpt>
      <trkpt lat="42.634237" lon="0.654892">
        <ele>3227.2</ele>
        <time>1970-01-01T04:26:31.000Z</time>
      </trkpt>
      <trkpt lat="42.634233" lon="0.654891">
        <ele>3227.5</ele>
        <time>1970-01-01T04:26:32.000Z</time>
      </trkpt>
      <trkpt lat="42.634227" lon="0.654885">
        <ele>3227.9</ele>
        <time>1970-01-01T04:26:34.000Z</time>
      </trkpt>
      <trkpt lat="42.634226" lon="0.654882">
        <ele>3228</ele>
        <time>1970-01-01T04:26:35.000Z</time>
      </trkpt>
      <trkpt lat="42.634226" lon="0.654878">
        <ele>3228.2</ele>
        <time>1970-01-01T04:26:36.000Z</time>
      </trkpt>
      <trkpt lat="42.634222" lon="0.654876">
        <ele>3228.4</ele>
        <time>1970-01-01T04:26:38.000Z</time>
      </trkpt>
      <trkpt lat="42.634221" lon="0.654876">
        <ele>3228.5</ele>
        <time>1970-01-01T04:26:39.000Z</time>
      </trkpt>
      <trkpt lat="42.634218" lon="0.654876">
        <ele>3228.6</ele>
        <time>1970-01-01T04:26:40.000Z</time>
      </trkpt>
      <trkpt lat="42.634217" lon="0.654877">
        <ele>3228.7</ele>
        <time>1970-01-01T04:26:41.000Z</time>
      </trkpt>
      <trkpt lat="42.634219" lon="0.654885">
        <ele>3229.1</ele>
        <time>1970-01-01T04:26:43.000Z</time>
      </trkpt>
      <trkpt lat="42.634223" lon="0.654893">
        <ele>3229.5</ele>
        <time>1970-01-01T04:26:44.000Z</time>
      </trkpt>
      <trkpt lat="42.634229" lon="0.654902">
        <ele>3229.9</ele>
        <time>1970-01-01T04:26:45.000Z</time>
      </trkpt>
      <trkpt lat="42.634238" lon="0.65491">
        <ele>3230.5</ele>
        <time>1970-01-01T04:26:46.000Z</time>
      </trkpt>
      <trkpt lat="42.634244" lon="0.654919">
        <ele>3231</ele>
        <time>1970-01-01T04:26:47.000Z</time>
      </trkpt>
      <trkpt lat="42.634249" lon="0.654929">
        <ele>3231.5</ele>
        <time>1970-01-01T04:26:48.000Z</time>
      </trkpt>
      <trkpt lat="42.634256" lon="0.654936">
        <ele>3232</ele>
        <time>1970-01-01T04:26:49.000Z</time>
      </trkpt>
      <trkpt lat="42.634259" lon="0.654942">
        <ele>3232.3</ele>
        <time>1970-01-01T04:26:50.000Z</time>
      </trkpt>
      <trkpt lat="42.634263" lon="0.654947">
        <ele>3232.6</ele>
        <time>1970-01-01T04:26:51.000Z</time>
      </trkpt>
      <trkpt lat="42.634267" lon="0.654952">
        <ele>3232.8</ele>
        <time>1970-01-01T04:26:52.000Z</time>
      </trkpt>
      <trkpt lat="42.634268" lon="0.654951">
        <ele>3232.9</ele>
        <time>1970-01-01T04:26:53.000Z</time>
      </trkpt>
      <trkpt lat="42.634267" lon="0.654949">
        <ele>3233</ele>
        <time>1970-01-01T04:26:54.000Z</time>
      </trkpt>
      <trkpt lat="42.634262" lon="0.654954">
        <ele>3233.3</ele>
        <time>1970-01-01T04:26:56.000Z</time>
      </trkpt>
      <trkpt lat="42.634256" lon="0.654959">
        <ele>3233.7</ele>
        <time>1970-01-01T04:26:57.000Z</time>
      </trkpt>
      <trkpt lat="42.634248" lon="0.654964">
        <ele>3234.2</ele>
        <time>1970-01-01T04:26:58.000Z</time>
      </trkpt>
      <trkpt lat="42.634238" lon="0.654965">
        <ele>3234.7</ele>
        <time>1970-01-01T04:26:59.000Z</time>
      </trkpt>
      <trkpt lat="42.634233" lon="0.654963">
        <ele>3235</ele>
        <time>1970-01-01T04:27:00.000Z</time>
      </trkpt>
      <trkpt lat="42.634229" lon="0.654959">
        <ele>3235.3</ele>
        <time>1970-01-01T04:27:01.000Z</time>
      </trkpt>
      <trkpt lat="42.634225" lon="0.654952">
        <ele>3235.7</ele>
        <time>1970-01-01T04:27:03.000Z</time>
      </trkpt>
      <trkpt lat="42.63422" lon="0.654953">
        <ele>3235.9</ele>
        <time>1970-01-01T04:27:04.000Z</time>
      </trkpt>
      <trkpt lat="42.634215" lon="0.654953">
        <ele>3236.2</ele>
        <time>1970-01-01T04:27:05.000Z</time>
      </trkpt>
      <trkpt lat="42.634209" lon="0.654953">
        <ele>3236.5</ele>
        <time>1970-01-01T04:27:06.000Z</time>
      </trkpt>
      <trkpt lat="42.634204" lon="0.654954">
        <ele>3236.7</ele>
        <time>1970-01-01T04:27:07.000Z</time>
      </trkpt>
      <trkpt lat="42.634196" lon="0.654955">
        <ele>3237.1</ele>
        <time>1970-01-01T04:27:08.000Z</time>
      </trkpt>
      <trkpt lat="42.634187" lon="0.654958">
        <ele>3237.6</ele>
        <time>1970-01-01T04:27:09.000Z</time>
      </trkpt>
      <trkpt lat="42.634179" lon="0.65496">
        <ele>3238</ele>
        <time>1970-01-01T04:27:10.000Z</time>
      </trkpt>
      <trkpt lat="42.634176" lon="0.654958">
        <ele>3238.1</ele>
        <time>1970-01-01T04:27:11.000Z</time>
      </trkpt>
      <trkpt lat="42.634175" lon="0.654954">
        <ele>3238.3</ele>
        <time>1970-01-01T04:27:12.000Z</time>
      </trkpt>
      <trkpt lat="42.634175" lon="0.65495">
        <ele>3238.4</ele>
        <time>1970-01-01T04:27:13.000Z</time>
      </trkpt>
      <trkpt lat="42.634172" lon="0.654949">
        <ele>3238.6</ele>
        <time>1970-01-01T04:27:14.000Z</time>
      </trkpt>
      <trkpt lat="42.634169" lon="0.654948">
        <ele>3238.7</ele>
        <time>1970-01-01T04:27:15.000Z</time>
      </trkpt>
      <trkpt lat="42.634161" lon="0.654948">
        <ele>3239.1</ele>
        <time>1970-01-01T04:27:17.000Z</time>
      </trkpt>
      <trkpt lat="42.634152" lon="0.654949">
        <ele>3239.5</ele>
        <time>1970-01-01T04:27:18.000Z</time>
      </trkpt>
      <trkpt lat="42.634145" lon="0.654949">
        <ele>3239.9</ele>
        <time>1970-01-01T04:27:19.000Z</time>
      </trkpt>
      <trkpt lat="42.634132" lon="0.654948">
        <ele>3240.5</ele>
        <time>1970-01-01T04:27:20.000Z</time>
      </trkpt>
      <trkpt lat="42.634117" lon="0.654947">
        <ele>3241.2</ele>
        <time>1970-01-01T04:27:22.000Z</time>
      </trkpt>
      <trkpt lat="42.634107" lon="0.654945">
        <ele>3241.7</ele>
        <time>1970-01-01T04:27:23.000Z</time>
      </trkpt>
      <trkpt lat="42.634097" lon="0.654942">
        <ele>3242.2</ele>
        <time>1970-01-01T04:27:24.000Z</time>
      </trkpt>
      <trkpt lat="42.634079" lon="0.654938">
        <ele>3243</ele>
        <time>1970-01-01T04:27:26.000Z</time>
      </trkpt>
      <trkpt lat="42.63407" lon="0.654936">
        <ele>3243.4</ele>
        <time>1970-01-01T04:27:27.000Z</time>
      </trkpt>
      <trkpt lat="42.634061" lon="0.654933">
        <ele>3243.8</ele>
        <time>1970-01-01T04:27:28.000Z</time>
      </trkpt>
      <trkpt lat="42.634055" lon="0.654931">
        <ele>3244.1</ele>
        <time>1970-01-01T04:27:29.000Z</time>
      </trkpt>
      <trkpt lat="42.63405" lon="0.65493">
        <ele>3244.3</ele>
        <time>1970-01-01T04:27:30.000Z</time>
      </trkpt>
      <trkpt lat="42.634043" lon="0.654929">
        <ele>3244.6</ele>
        <time>1970-01-01T04:27:31.000Z</time>
      </trkpt>
      <trkpt lat="42.634035" lon="0.65493">
        <ele>3245</ele>
        <time>1970-01-01T04:27:32.000Z</time>
      </trkpt>
      <trkpt lat="42.634024" lon="0.654932">
        <ele>3245.5</ele>
        <time>1970-01-01T04:27:34.000Z</time>
      </trkpt>
      <trkpt lat="42.63402" lon="0.654934">
        <ele>3245.7</ele>
        <time>1970-01-01T04:27:35.000Z</time>
      </trkpt>
      <trkpt lat="42.634017" lon="0.654936">
        <ele>3245.8</ele>
        <time>1970-01-01T04:27:36.000Z</time>
      </trkpt>
      <trkpt lat="42.634014" lon="0.654939">
        <ele>3246</ele>
        <time>1970-01-01T04:27:37.000Z</time>
      </trkpt>
      <trkpt lat="42.634013" lon="0.65494">
        <ele>3246</ele>
        <time>1970-01-01T04:27:38.000Z</time>
      </trkpt>
      <trkpt lat="42.634015" lon="0.654941">
        <ele>3246.1</ele>
        <time>1970-01-01T04:27:39.000Z</time>
      </trkpt>
      <trkpt lat="42.634017" lon="0.654943">
        <ele>3246.2</ele>
        <time>1970-01-01T04:27:40.000Z</time>
      </trkpt>
      <trkpt lat="42.634018" lon="0.654945">
        <ele>3246.3</ele>
        <time>1970-01-01T04:27:41.000Z</time>
      </trkpt>
      <trkpt lat="42.634014" lon="0.654949">
        <ele>3246.5</ele>
        <time>1970-01-01T04:27:43.000Z</time>
      </trkpt>
      <trkpt lat="42.634013" lon="0.654951">
        <ele>3246.6</ele>
        <time>1970-01-01T04:27:44.000Z</time>
      </trkpt>
      <trkpt lat="42.634012" lon="0.654954">
        <ele>3246.7</ele>
        <time>1970-01-01T04:27:45.000Z</time>
      </trkpt>
      <trkpt lat="42.634012" lon="0.654956">
        <ele>3246.8</ele>
        <time>1970-01-01T04:27:46.000Z</time>
      </trkpt>
      <trkpt lat="42.634013" lon="0.654958">
        <ele>3246.9</ele>
        <time>1970-01-01T04:27:47.000Z</time>
      </trkpt>
      <trkpt lat="42.634015" lon="0.65496">
        <ele>3247</ele>
        <time>1970-01-01T04:27:48.000Z</time>
      </trkpt>
      <trkpt lat="42.634013" lon="0.654961">
        <ele>3247.2</ele>
        <time>1970-01-01T04:27:49.000Z</time>
      </trkpt>
      <trkpt lat="42.634011" lon="0.654965">
        <ele>3247.3</ele>
        <time>1970-01-01T04:27:51.000Z</time>
      </trkpt>
      <trkpt lat="42.63401" lon="0.654967">
        <ele>3247.4</ele>
        <time>1970-01-01T04:27:52.000Z</time>
      </trkpt>
      <trkpt lat="42.634009" lon="0.65497">
        <ele>3247.4</ele>
        <time>1970-01-01T04:27:53.000Z</time>
      </trkpt>
      <trkpt lat="42.634005" lon="0.654975">
        <ele>3247.6</ele>
        <time>1970-01-01T04:27:54.000Z</time>
      </trkpt>
      <trkpt lat="42.633999" lon="0.654981">
        <ele>3247.7</ele>
        <time>1970-01-01T04:27:56.000Z</time>
      </trkpt>
      <trkpt lat="42.633995" lon="0.654984">
        <ele>3247.9</ele>
        <time>1970-01-01T04:27:57.000Z</time>
      </trkpt>
      <trkpt lat="42.63399" lon="0.654984">
        <ele>3248</ele>
        <time>1970-01-01T04:27:58.000Z</time>
      </trkpt>
      <trkpt lat="42.633981" lon="0.654986">
        <ele>3248.2</ele>
        <time>1970-01-01T04:27:59.000Z</time>
      </trkpt>
      <trkpt lat="42.633965" lon="0.65499">
        <ele>3248.6</ele>
        <time>1970-01-01T04:28:01.000Z</time>
      </trkpt>
      <trkpt lat="42.633958" lon="0.654992">
        <ele>3248.8</ele>
        <time>1970-01-01T04:28:02.000Z</time>
      </trkpt>
      <trkpt lat="42.633952" lon="0.654992">
        <ele>3249</ele>
        <time>1970-01-01T04:28:03.000Z</time>
      </trkpt>
      <trkpt lat="42.633942" lon="0.654992">
        <ele>3249.2</ele>
        <time>1970-01-01T04:28:05.000Z</time>
      </trkpt>
      <trkpt lat="42.633939" lon="0.654991">
        <ele>3249.3</ele>
        <time>1970-01-01T04:28:06.000Z</time>
      </trkpt>
      <trkpt lat="42.633939" lon="0.654992">
        <ele>3249.3</ele>
        <time>1970-01-01T04:28:07.000Z</time>
      </trkpt>
      <trkpt lat="42.633941" lon="0.654993">
        <ele>3249.4</ele>
        <time>1970-01-01T04:28:08.000Z</time>
      </trkpt>
      <trkpt lat="42.633943" lon="0.654994">
        <ele>3249.4</ele>
        <time>1970-01-01T04:28:09.000Z</time>
      </trkpt>
      <trkpt lat="42.633941" lon="0.654996">
        <ele>3249.5</ele>
        <time>1970-01-01T04:28:11.000Z</time>
      </trkpt>
      <trkpt lat="42.633938" lon="0.654997">
        <ele>3249.6</ele>
        <time>1970-01-01T04:28:12.000Z</time>
      </trkpt>
      <trkpt lat="42.633933" lon="0.654997">
        <ele>3249.7</ele>
        <time>1970-01-01T04:28:13.000Z</time>
      </trkpt>
      <trkpt lat="42.63393" lon="0.654997">
        <ele>3249.8</ele>
        <time>1970-01-01T04:28:14.000Z</time>
      </trkpt>
      <trkpt lat="42.633931" lon="0.654997">
        <ele>3249.8</ele>
        <time>1970-01-01T04:28:15.000Z</time>
      </trkpt>
      <trkpt lat="42.633926" lon="0.654999">
        <ele>3249.9</ele>
        <time>1970-01-01T04:28:17.000Z</time>
      </trkpt>
      <trkpt lat="42.63392" lon="0.655001">
        <ele>3250.1</ele>
        <time>1970-01-01T04:28:18.000Z</time>
      </trkpt>
      <trkpt lat="42.633913" lon="0.655003">
        <ele>3250.3</ele>
        <time>1970-01-01T04:28:19.000Z</time>
      </trkpt>
      <trkpt lat="42.633907" lon="0.655005">
        <ele>3250.4</ele>
        <time>1970-01-01T04:28:20.000Z</time>
      </trkpt>
      <trkpt lat="42.6339" lon="0.655006">
        <ele>3250.6</ele>
        <time>1970-01-01T04:28:21.000Z</time>
      </trkpt>
      <trkpt lat="42.633896" lon="0.655006">
        <ele>3250.7</ele>
        <time>1970-01-01T04:28:22.000Z</time>
      </trkpt>
      <trkpt lat="42.633892" lon="0.655009">
        <ele>3250.8</ele>
        <time>1970-01-01T04:28:23.000Z</time>
      </trkpt>
      <trkpt lat="42.633888" lon="0.65501">
        <ele>3250.9</ele>
        <time>1970-01-01T04:28:24.000Z</time>
      </trkpt>
      <trkpt lat="42.633884" lon="0.655013">
        <ele>3251</ele>
        <time>1970-01-01T04:28:25.000Z</time>
      </trkpt>
      <trkpt lat="42.633881" lon="0.655016">
        <ele>3251.1</ele>
        <time>1970-01-01T04:28:26.000Z</time>
      </trkpt>
      <trkpt lat="42.633878" lon="0.65502">
        <ele>3251.2</ele>
        <time>1970-01-01T04:28:27.000Z</time>
      </trkpt>
      <trkpt lat="42.633874" lon="0.655024">
        <ele>3251.3</ele>
        <time>1970-01-01T04:28:28.000Z</time>
      </trkpt>
      <trkpt lat="42.633873" lon="0.655026">
        <ele>3251.4</ele>
        <time>1970-01-01T04:28:29.000Z</time>
      </trkpt>
      <trkpt lat="42.633873" lon="0.655026">
        <ele>3251.4</ele>
        <time>1970-01-01T04:28:31.000Z</time>
      </trkpt>
      <trkpt lat="42.63387" lon="0.655027">
        <ele>3251.5</ele>
        <time>1970-01-01T04:28:32.000Z</time>
      </trkpt>
      <trkpt lat="42.63387" lon="0.655028">
        <ele>3251.5</ele>
        <time>1970-01-01T04:28:34.000Z</time>
      </trkpt>
      <trkpt lat="42.633867" lon="0.655032">
        <ele>3251.6</ele>
        <time>1970-01-01T04:28:35.000Z</time>
      </trkpt>
      <trkpt lat="42.633865" lon="0.655035">
        <ele>3251.7</ele>
        <time>1970-01-01T04:28:36.000Z</time>
      </trkpt>
      <trkpt lat="42.633863" lon="0.655039">
        <ele>3251.8</ele>
        <time>1970-01-01T04:28:37.000Z</time>
      </trkpt>
      <trkpt lat="42.633858" lon="0.655048">
        <ele>3252</ele>
        <time>1970-01-01T04:28:39.000Z</time>
      </trkpt>
      <trkpt lat="42.633855" lon="0.655053">
        <ele>3252.1</ele>
        <time>1970-01-01T04:28:40.000Z</time>
      </trkpt>
      <trkpt lat="42.633853" lon="0.655056">
        <ele>3252.2</ele>
        <time>1970-01-01T04:28:41.000Z</time>
      </trkpt>
      <trkpt lat="42.633848" lon="0.655059">
        <ele>3252.3</ele>
        <time>1970-01-01T04:28:42.000Z</time>
      </trkpt>
      <trkpt lat="42.633838" lon="0.655063">
        <ele>3252.6</ele>
        <time>1970-01-01T04:28:44.000Z</time>
      </trkpt>
      <trkpt lat="42.633831" lon="0.655063">
        <ele>3252.7</ele>
        <time>1970-01-01T04:28:45.000Z</time>
      </trkpt>
      <trkpt lat="42.633826" lon="0.655064">
        <ele>3252.9</ele>
        <time>1970-01-01T04:28:46.000Z</time>
      </trkpt>
      <trkpt lat="42.633814" lon="0.655066">
        <ele>3253.2</ele>
        <time>1970-01-01T04:28:48.000Z</time>
      </trkpt>
      <trkpt lat="42.633815" lon="0.655067">
        <ele>3253.2</ele>
        <time>1970-01-01T04:28:49.000Z</time>
      </trkpt>
      <trkpt lat="42.633818" lon="0.655067">
        <ele>3253.3</ele>
        <time>1970-01-01T04:28:50.000Z</time>
      </trkpt>
      <trkpt lat="42.633823" lon="0.655067">
        <ele>3253.4</ele>
        <time>1970-01-01T04:28:51.000Z</time>
      </trkpt>
      <trkpt lat="42.633827" lon="0.655068">
        <ele>3253.5</ele>
        <time>1970-01-01T04:28:52.000Z</time>
      </trkpt>
      <trkpt lat="42.633832" lon="0.655069">
        <ele>3253.6</ele>
        <time>1970-01-01T04:28:53.000Z</time>
      </trkpt>
      <trkpt lat="42.633834" lon="0.655069">
        <ele>3253.7</ele>
        <time>1970-01-01T04:28:54.000Z</time>
      </trkpt>
      <trkpt lat="42.633836" lon="0.655071">
        <ele>3253.8</ele>
        <time>1970-01-01T04:28:55.000Z</time>
      </trkpt>
      <trkpt lat="42.633836" lon="0.655073">
        <ele>3253.8</ele>
        <time>1970-01-01T04:28:56.000Z</time>
      </trkpt>
      <trkpt lat="42.633838" lon="0.655075">
        <ele>3253.9</ele>
        <time>1970-01-01T04:28:58.000Z</time>
      </trkpt>
      <trkpt lat="42.633837" lon="0.655078">
        <ele>3253.9</ele>
        <time>1970-01-01T04:28:59.000Z</time>
      </trkpt>
      <trkpt lat="42.633836" lon="0.655079">
        <ele>3253.9</ele>
        <time>1970-01-01T04:29:00.000Z</time>
      </trkpt>
      <trkpt lat="42.633834" lon="0.65508">
        <ele>3254</ele>
        <time>1970-01-01T04:29:01.000Z</time>
      </trkpt>
      <trkpt lat="42.633832" lon="0.655081">
        <ele>3254.1</ele>
        <time>1970-01-01T04:29:02.000Z</time>
      </trkpt>
      <trkpt lat="42.633831" lon="0.65508">
        <ele>3254.1</ele>
        <time>1970-01-01T04:29:03.000Z</time>
      </trkpt>
      <trkpt lat="42.633829" lon="0.655081">
        <ele>3254.1</ele>
        <time>1970-01-01T04:29:04.000Z</time>
      </trkpt>
      <trkpt lat="42.633828" lon="0.655081">
        <ele>3254.2</ele>
        <time>1970-01-01T04:29:05.000Z</time>
      </trkpt>
      <trkpt lat="42.633827" lon="0.65508">
        <ele>3254.2</ele>
        <time>1970-01-01T04:29:06.000Z</time>
      </trkpt>
      <trkpt lat="42.633825" lon="0.655081">
        <ele>3254.2</ele>
        <time>1970-01-01T04:29:07.000Z</time>
      </trkpt>
      <trkpt lat="42.633823" lon="0.655081">
        <ele>3254.3</ele>
        <time>1970-01-01T04:29:09.000Z</time>
      </trkpt>
      <trkpt lat="42.633821" lon="0.65508">
        <ele>3254.4</ele>
        <time>1970-01-01T04:29:10.000Z</time>
      </trkpt>
      <trkpt lat="42.633818" lon="0.655081">
        <ele>3254.4</ele>
        <time>1970-01-01T04:29:11.000Z</time>
      </trkpt>
      <trkpt lat="42.633815" lon="0.655081">
        <ele>3254.5</ele>
        <time>1970-01-01T04:29:12.000Z</time>
      </trkpt>
      <trkpt lat="42.633811" lon="0.655081">
        <ele>3254.6</ele>
        <time>1970-01-01T04:29:13.000Z</time>
      </trkpt>
      <trkpt lat="42.633807" lon="0.65508">
        <ele>3254.7</ele>
        <time>1970-01-01T04:29:14.000Z</time>
      </trkpt>
      <trkpt lat="42.6338" lon="0.655078">
        <ele>3254.9</ele>
        <time>1970-01-01T04:29:16.000Z</time>
      </trkpt>
      <trkpt lat="42.633798" lon="0.655077">
        <ele>3254.9</ele>
        <time>1970-01-01T04:29:17.000Z</time>
      </trkpt>
      <trkpt lat="42.633795" lon="0.655078">
        <ele>3255</ele>
        <time>1970-01-01T04:29:18.000Z</time>
      </trkpt>
      <trkpt lat="42.633793" lon="0.655078">
        <ele>3255.1</ele>
        <time>1970-01-01T04:29:19.000Z</time>
      </trkpt>
      <trkpt lat="42.633791" lon="0.655079">
        <ele>3255.1</ele>
        <time>1970-01-01T04:29:20.000Z</time>
      </trkpt>
      <trkpt lat="42.63379" lon="0.655079">
        <ele>3255.2</ele>
        <time>1970-01-01T04:29:21.000Z</time>
      </trkpt>
      <trkpt lat="42.633789" lon="0.655079">
        <ele>3255.2</ele>
        <time>1970-01-01T04:29:22.000Z</time>
      </trkpt>
      <trkpt lat="42.633788" lon="0.65508">
        <ele>3255.2</ele>
        <time>1970-01-01T04:29:23.000Z</time>
      </trkpt>
      <trkpt lat="42.633786" lon="0.655081">
        <ele>3255.3</ele>
        <time>1970-01-01T04:29:24.000Z</time>
      </trkpt>
      <trkpt lat="42.633786" lon="0.655082">
        <ele>3255.3</ele>
        <time>1970-01-01T04:29:25.000Z</time>
      </trkpt>
      <trkpt lat="42.633785" lon="0.655083">
        <ele>3255.3</ele>
        <time>1970-01-01T04:29:26.000Z</time>
      </trkpt>
      <trkpt lat="42.633785" lon="0.655084">
        <ele>3255.3</ele>
        <time>1970-01-01T04:29:27.000Z</time>
      </trkpt>
      <trkpt lat="42.633785" lon="0.655086">
        <ele>3255.4</ele>
        <time>1970-01-01T04:29:28.000Z</time>
      </trkpt>
      <trkpt lat="42.633785" lon="0.655086">
        <ele>3255.4</ele>
        <time>1970-01-01T04:29:29.000Z</time>
      </trkpt>
      <trkpt lat="42.633785" lon="0.655087">
        <ele>3255.4</ele>
        <time>1970-01-01T04:29:30.000Z</time>
      </trkpt>
      <trkpt lat="42.633785" lon="0.655088">
        <ele>3255.4</ele>
        <time>1970-01-01T04:29:31.000Z</time>
      </trkpt>
      <trkpt lat="42.633785" lon="0.655089">
        <ele>3255.4</ele>
        <time>1970-01-01T04:29:32.000Z</time>
      </trkpt>
      <trkpt lat="42.633786" lon="0.65509">
        <ele>3255.5</ele>
        <time>1970-01-01T04:29:33.000Z</time>
      </trkpt>
      <trkpt lat="42.633786" lon="0.655091">
        <ele>3255.5</ele>
        <time>1970-01-01T04:29:34.000Z</time>
      </trkpt>
      <trkpt lat="42.633786" lon="0.655091">
        <ele>3255.5</ele>
        <time>1970-01-01T04:29:35.000Z</time>
      </trkpt>
      <trkpt lat="42.633788" lon="0.655085">
        <ele>3255.6</ele>
        <time>1970-01-01T04:29:36.000Z</time>
      </trkpt>
      <trkpt lat="42.633789" lon="0.655082">
        <ele>3255.7</ele>
        <time>1970-01-01T04:29:37.000Z</time>
      </trkpt>
      <trkpt lat="42.63379" lon="0.65508">
        <ele>3255.7</ele>
        <time>1970-01-01T04:29:38.000Z</time>
      </trkpt>
      <trkpt lat="42.63379" lon="0.655079">
        <ele>3255.7</ele>
        <time>1970-01-01T04:29:39.000Z</time>
      </trkpt>
      <trkpt lat="42.63379" lon="0.655079">
        <ele>3255.7</ele>
        <time>1970-01-01T04:29:40.000Z</time>
      </trkpt>
      <trkpt lat="42.63379" lon="0.655079">
        <ele>3255.7</ele>
        <time>1970-01-01T04:29:41.000Z</time>
      </trkpt>
      <trkpt lat="42.63379" lon="0.655079">
        <ele>3255.7</ele>
        <time>1970-01-01T04:29:42.000Z</time>
      </trkpt>
      <trkpt lat="42.63379" lon="0.655079">
        <ele>3255.7</ele>
        <time>1970-01-01T04:29:43.000Z</time>
      </trkpt>
      <trkpt lat="42.63379" lon="0.655079">
        <ele>3255.7</ele>
        <time>1970-01-01T04:29:44.000Z</time>
      </trkpt>
      <trkpt lat="42.63379" lon="0.655079">
        <ele>3255.7</ele>
        <time>1970-01-01T04:29:45.000Z</time>
      </trkpt>
      <trkpt lat="42.63379" lon="0.65508">
        <ele>3255.7</ele>
        <time>1970-01-01T04:29:46.000Z</time>
      </trkpt>
      <trkpt lat="42.633788" lon="0.65508">
        <ele>3255.8</ele>
        <time>1970-01-01T04:29:47.000Z</time>
      </trkpt>
      <trkpt lat="42.633786" lon="0.655081">
        <ele>3255.8</ele>
        <time>1970-01-01T04:29:48.000Z</time>
      </trkpt>
      <trkpt lat="42.633785" lon="0.655082">
        <ele>3255.9</ele>
        <time>1970-01-01T04:29:49.000Z</time>
      </trkpt>
      <trkpt lat="42.633783" lon="0.655085">
        <ele>3255.9</ele>
        <time>1970-01-01T04:29:50.000Z</time>
      </trkpt>
      <trkpt lat="42.633777" lon="0.655087">
        <ele>3256.1</ele>
        <time>1970-01-01T04:29:51.000Z</time>
      </trkpt>
      <trkpt lat="42.633774" lon="0.655089">
        <ele>3256.2</ele>
        <time>1970-01-01T04:29:52.000Z</time>
      </trkpt>
      <trkpt lat="42.63377" lon="0.655089">
        <ele>3256.3</ele>
        <time>1970-01-01T04:29:53.000Z</time>
      </trkpt>
      <trkpt lat="42.633763" lon="0.655089">
        <ele>3256.5</ele>
        <time>1970-01-01T04:29:54.000Z</time>
      </trkpt>
      <trkpt lat="42.63376" lon="0.655088">
        <ele>3256.5</ele>
        <time>1970-01-01T04:29:55.000Z</time>
      </trkpt>
      <trkpt lat="42.633759" lon="0.655086">
        <ele>3256.6</ele>
        <time>1970-01-01T04:29:56.000Z</time>
      </trkpt>
      <trkpt lat="42.633753" lon="0.655085">
        <ele>3256.7</ele>
        <time>1970-01-01T04:29:57.000Z</time>
      </trkpt>
      <trkpt lat="42.633749" lon="0.655084">
        <ele>3256.8</ele>
        <time>1970-01-01T04:29:58.000Z</time>
      </trkpt>
      <trkpt lat="42.633742" lon="0.655082">
        <ele>3257</ele>
        <time>1970-01-01T04:30:00.000Z</time>
      </trkpt>
      <trkpt lat="42.633734" lon="0.655082">
        <ele>3257.2</ele>
        <time>1970-01-01T04:30:01.000Z</time>
      </trkpt>
      <trkpt lat="42.633727" lon="0.655082">
        <ele>3257.4</ele>
        <time>1970-01-01T04:30:02.000Z</time>
      </trkpt>
      <trkpt lat="42.63372" lon="0.655083">
        <ele>3257.6</ele>
        <time>1970-01-01T04:30:03.000Z</time>
      </trkpt>
      <trkpt lat="42.633717" lon="0.655084">
        <ele>3257.7</ele>
        <time>1970-01-01T04:30:04.000Z</time>
      </trkpt>
      <trkpt lat="42.633715" lon="0.655084">
        <ele>3257.7</ele>
        <time>1970-01-01T04:30:05.000Z</time>
      </trkpt>
      <trkpt lat="42.633713" lon="0.655085">
        <ele>3257.8</ele>
        <time>1970-01-01T04:30:06.000Z</time>
      </trkpt>
      <trkpt lat="42.633712" lon="0.655085">
        <ele>3257.8</ele>
        <time>1970-01-01T04:30:07.000Z</time>
      </trkpt>
      <trkpt lat="42.633709" lon="0.655086">
        <ele>3257.9</ele>
        <time>1970-01-01T04:30:08.000Z</time>
      </trkpt>
      <trkpt lat="42.633704" lon="0.655086">
        <ele>3258</ele>
        <time>1970-01-01T04:30:09.000Z</time>
      </trkpt>
      <trkpt lat="42.633699" lon="0.655088">
        <ele>3258.1</ele>
        <time>1970-01-01T04:30:10.000Z</time>
      </trkpt>
      <trkpt lat="42.633697" lon="0.655089">
        <ele>3258.2</ele>
        <time>1970-01-01T04:30:11.000Z</time>
      </trkpt>
      <trkpt lat="42.63369" lon="0.65509">
        <ele>3258.4</ele>
        <time>1970-01-01T04:30:12.000Z</time>
      </trkpt>
      <trkpt lat="42.633684" lon="0.655092">
        <ele>3258.5</ele>
        <time>1970-01-01T04:30:13.000Z</time>
      </trkpt>
      <trkpt lat="42.633677" lon="0.655094">
        <ele>3258.7</ele>
        <time>1970-01-01T04:30:14.000Z</time>
      </trkpt>
      <trkpt lat="42.633669" lon="0.655095">
        <ele>3258.9</ele>
        <time>1970-01-01T04:30:15.000Z</time>
      </trkpt>
      <trkpt lat="42.633662" lon="0.655095">
        <ele>3259.1</ele>
        <time>1970-01-01T04:30:16.000Z</time>
      </trkpt>
      <trkpt lat="42.633653" lon="0.655092">
        <ele>3259.3</ele>
        <time>1970-01-01T04:30:17.000Z</time>
      </trkpt>
      <trkpt lat="42.633648" lon="0.65509">
        <ele>3259.4</ele>
        <time>1970-01-01T04:30:18.000Z</time>
      </trkpt>
      <trkpt lat="42.633642" lon="0.655089">
        <ele>3259.6</ele>
        <time>1970-01-01T04:30:19.000Z</time>
      </trkpt>
      <trkpt lat="42.633638" lon="0.655088">
        <ele>3259.7</ele>
        <time>1970-01-01T04:30:20.000Z</time>
      </trkpt>
      <trkpt lat="42.633636" lon="0.655088">
        <ele>3259.7</ele>
        <time>1970-01-01T04:30:21.000Z</time>
      </trkpt>
      <trkpt lat="42.633634" lon="0.655089">
        <ele>3259.8</ele>
        <time>1970-01-01T04:30:22.000Z</time>
      </trkpt>
      <trkpt lat="42.633635" lon="0.65509">
        <ele>3259.8</ele>
        <time>1970-01-01T04:30:23.000Z</time>
      </trkpt>
      <trkpt lat="42.63363" lon="0.655093">
        <ele>3260</ele>
        <time>1970-01-01T04:30:25.000Z</time>
      </trkpt>
      <trkpt lat="42.63363" lon="0.655093">
        <ele>3260</ele>
        <time>1970-01-01T04:30:26.000Z</time>
      </trkpt>
      <trkpt lat="42.633629" lon="0.655094">
        <ele>3260</ele>
        <time>1970-01-01T04:30:27.000Z</time>
      </trkpt>
      <trkpt lat="42.633625" lon="0.655095">
        <ele>3260.1</ele>
        <time>1970-01-01T04:30:28.000Z</time>
      </trkpt>
      <trkpt lat="42.63362" lon="0.655096">
        <ele>3260.2</ele>
        <time>1970-01-01T04:30:29.000Z</time>
      </trkpt>
      <trkpt lat="42.633615" lon="0.655096">
        <ele>3260.4</ele>
        <time>1970-01-01T04:30:30.000Z</time>
      </trkpt>
      <trkpt lat="42.63361" lon="0.655098">
        <ele>3260.5</ele>
        <time>1970-01-01T04:30:31.000Z</time>
      </trkpt>
      <trkpt lat="42.633607" lon="0.655099">
        <ele>3260.6</ele>
        <time>1970-01-01T04:30:33.000Z</time>
      </trkpt>
      <trkpt lat="42.633601" lon="0.655101">
        <ele>3260.7</ele>
        <time>1970-01-01T04:30:34.000Z</time>
      </trkpt>
      <trkpt lat="42.633598" lon="0.655104">
        <ele>3260.8</ele>
        <time>1970-01-01T04:30:35.000Z</time>
      </trkpt>
      <trkpt lat="42.633592" lon="0.655111">
        <ele>3261</ele>
        <time>1970-01-01T04:30:37.000Z</time>
      </trkpt>
      <trkpt lat="42.633591" lon="0.655117">
        <ele>3261.1</ele>
        <time>1970-01-01T04:30:38.000Z</time>
      </trkpt>
      <trkpt lat="42.633592" lon="0.655125">
        <ele>3261.3</ele>
        <time>1970-01-01T04:30:39.000Z</time>
      </trkpt>
      <trkpt lat="42.633593" lon="0.655138">
        <ele>3261.5</ele>
        <time>1970-01-01T04:30:41.000Z</time>
      </trkpt>
      <trkpt lat="42.633595" lon="0.655147">
        <ele>3261.7</ele>
        <time>1970-01-01T04:30:42.000Z</time>
      </trkpt>
      <trkpt lat="42.633598" lon="0.655155">
        <ele>3261.9</ele>
        <time>1970-01-01T04:30:43.000Z</time>
      </trkpt>
      <trkpt lat="42.633602" lon="0.655159">
        <ele>3262</ele>
        <time>1970-01-01T04:30:44.000Z</time>
      </trkpt>
      <trkpt lat="42.633605" lon="0.655166">
        <ele>3262.1</ele>
        <time>1970-01-01T04:30:45.000Z</time>
      </trkpt>
      <trkpt lat="42.633609" lon="0.655171">
        <ele>3262.3</ele>
        <time>1970-01-01T04:30:46.000Z</time>
      </trkpt>
      <trkpt lat="42.63361" lon="0.65518">
        <ele>3262.4</ele>
        <time>1970-01-01T04:30:47.000Z</time>
      </trkpt>
      <trkpt lat="42.633614" lon="0.655184">
        <ele>3262.6</ele>
        <time>1970-01-01T04:30:48.000Z</time>
      </trkpt>
      <trkpt lat="42.633617" lon="0.655188">
        <ele>3262.7</ele>
        <time>1970-01-01T04:30:49.000Z</time>
      </trkpt>
      <trkpt lat="42.633618" lon="0.655188">
        <ele>3262.7</ele>
        <time>1970-01-01T04:30:51.000Z</time>
      </trkpt>
      <trkpt lat="42.633618" lon="0.655187">
        <ele>3262.7</ele>
        <time>1970-01-01T04:30:52.000Z</time>
      </trkpt>
      <trkpt lat="42.633618" lon="0.655184">
        <ele>3262.8</ele>
        <time>1970-01-01T04:30:53.000Z</time>
      </trkpt>
      <trkpt lat="42.633618" lon="0.655183">
        <ele>3262.8</ele>
        <time>1970-01-01T04:30:54.000Z</time>
      </trkpt>
      <trkpt lat="42.633618" lon="0.655182">
        <ele>3262.8</ele>
        <time>1970-01-01T04:30:55.000Z</time>
      </trkpt>
      <trkpt lat="42.633617" lon="0.655181">
        <ele>3262.8</ele>
        <time>1970-01-01T04:30:56.000Z</time>
      </trkpt>
      <trkpt lat="42.633616" lon="0.655181">
        <ele>3262.9</ele>
        <time>1970-01-01T04:30:57.000Z</time>
      </trkpt>
      <trkpt lat="42.633615" lon="0.655184">
        <ele>3262.9</ele>
        <time>1970-01-01T04:30:58.000Z</time>
      </trkpt>
      <trkpt lat="42.633614" lon="0.655185">
        <ele>3263</ele>
        <time>1970-01-01T04:30:59.000Z</time>
      </trkpt>
      <trkpt lat="42.63361" lon="0.655191">
        <ele>3263.1</ele>
        <time>1970-01-01T04:31:00.000Z</time>
      </trkpt>
      <trkpt lat="42.633607" lon="0.655195">
        <ele>3263.2</ele>
        <time>1970-01-01T04:31:01.000Z</time>
      </trkpt>
      <trkpt lat="42.633593" lon="0.655202">
        <ele>3263.6</ele>
        <time>1970-01-01T04:31:03.000Z</time>
      </trkpt>
      <trkpt lat="42.633589" lon="0.655201">
        <ele>3263.7</ele>
        <time>1970-01-01T04:31:04.000Z</time>
      </trkpt>
      <trkpt lat="42.633587" lon="0.655198">
        <ele>3263.8</ele>
        <time>1970-01-01T04:31:05.000Z</time>
      </trkpt>
      <trkpt lat="42.633586" lon="0.655195">
        <ele>3263.8</ele>
        <time>1970-01-01T04:31:06.000Z</time>
      </trkpt>
      <trkpt lat="42.633584" lon="0.655196">
        <ele>3263.9</ele>
        <time>1970-01-01T04:31:07.000Z</time>
      </trkpt>
      <trkpt lat="42.633576" lon="0.655197">
        <ele>3264.1</ele>
        <time>1970-01-01T04:31:09.000Z</time>
      </trkpt>
      <trkpt lat="42.633569" lon="0.655197">
        <ele>3264.3</ele>
        <time>1970-01-01T04:31:10.000Z</time>
      </trkpt>
      <trkpt lat="42.633556" lon="0.655193">
        <ele>3264.6</ele>
        <time>1970-01-01T04:31:12.000Z</time>
      </trkpt>
      <trkpt lat="42.633551" lon="0.655189">
        <ele>3264.7</ele>
        <time>1970-01-01T04:31:13.000Z</time>
      </trkpt>
      <trkpt lat="42.633549" lon="0.655186">
        <ele>3264.8</ele>
        <time>1970-01-01T04:31:14.000Z</time>
      </trkpt>
      <trkpt lat="42.633548" lon="0.655183">
        <ele>3264.9</ele>
        <time>1970-01-01T04:31:15.000Z</time>
      </trkpt>
      <trkpt lat="42.633546" lon="0.655182">
        <ele>3264.9</ele>
        <time>1970-01-01T04:31:16.000Z</time>
      </trkpt>
      <trkpt lat="42.633545" lon="0.65518">
        <ele>3265</ele>
        <time>1970-01-01T04:31:17.000Z</time>
      </trkpt>
      <trkpt lat="42.633544" lon="0.655179">
        <ele>3265</ele>
        <time>1970-01-01T04:31:18.000Z</time>
      </trkpt>
      <trkpt lat="42.633544" lon="0.655177">
        <ele>3265.1</ele>
        <time>1970-01-01T04:31:19.000Z</time>
      </trkpt>
      <trkpt lat="42.633545" lon="0.655176">
        <ele>3265.1</ele>
        <time>1970-01-01T04:31:20.000Z</time>
      </trkpt>
      <trkpt lat="42.633545" lon="0.655177">
        <ele>3265.1</ele>
        <time>1970-01-01T04:31:21.000Z</time>
      </trkpt>
      <trkpt lat="42.633546" lon="0.655179">
        <ele>3265.1</ele>
        <time>1970-01-01T04:31:22.000Z</time>
      </trkpt>
      <trkpt lat="42.633546" lon="0.655182">
        <ele>3265.2</ele>
        <time>1970-01-01T04:31:23.000Z</time>
      </trkpt>
      <trkpt lat="42.633549" lon="0.655189">
        <ele>3265.4</ele>
        <time>1970-01-01T04:31:25.000Z</time>
      </trkpt>
      <trkpt lat="42.633551" lon="0.655192">
        <ele>3265.4</ele>
        <time>1970-01-01T04:31:26.000Z</time>
      </trkpt>
      <trkpt lat="42.633552" lon="0.655194">
        <ele>3265.5</ele>
        <time>1970-01-01T04:31:27.000Z</time>
      </trkpt>
      <trkpt lat="42.633554" lon="0.655196">
        <ele>3265.5</ele>
        <time>1970-01-01T04:31:28.000Z</time>
      </trkpt>
      <trkpt lat="42.633555" lon="0.655198">
        <ele>3265.6</ele>
        <time>1970-01-01T04:31:29.000Z</time>
      </trkpt>
      <trkpt lat="42.633556" lon="0.655199">
        <ele>3265.6</ele>
        <time>1970-01-01T04:31:30.000Z</time>
      </trkpt>
      <trkpt lat="42.633558" lon="0.655201">
        <ele>3265.7</ele>
        <time>1970-01-01T04:31:31.000Z</time>
      </trkpt>
      <trkpt lat="42.633558" lon="0.655202">
        <ele>3265.7</ele>
        <time>1970-01-01T04:31:32.000Z</time>
      </trkpt>
      <trkpt lat="42.633559" lon="0.655202">
        <ele>3265.7</ele>
        <time>1970-01-01T04:31:33.000Z</time>
      </trkpt>
      <trkpt lat="42.63356" lon="0.655203">
        <ele>3265.8</ele>
        <time>1970-01-01T04:31:34.000Z</time>
      </trkpt>
      <trkpt lat="42.63356" lon="0.655203">
        <ele>3265.8</ele>
        <time>1970-01-01T04:31:35.000Z</time>
      </trkpt>
      <trkpt lat="42.63356" lon="0.655203">
        <ele>3265.8</ele>
        <time>1970-01-01T04:31:36.000Z</time>
      </trkpt>
      <trkpt lat="42.633559" lon="0.655204">
        <ele>3265.8</ele>
        <time>1970-01-01T04:31:37.000Z</time>
      </trkpt>
      <trkpt lat="42.633558" lon="0.655205">
        <ele>3265.8</ele>
        <time>1970-01-01T04:31:38.000Z</time>
      </trkpt>
      <trkpt lat="42.633558" lon="0.655207">
        <ele>3265.9</ele>
        <time>1970-01-01T04:31:39.000Z</time>
      </trkpt>
      <trkpt lat="42.633556" lon="0.655208">
        <ele>3265.9</ele>
        <time>1970-01-01T04:31:40.000Z</time>
      </trkpt>
      <trkpt lat="42.633554" lon="0.65521">
        <ele>3266</ele>
        <time>1970-01-01T04:31:41.000Z</time>
      </trkpt>
      <trkpt lat="42.633554" lon="0.655211">
        <ele>3266</ele>
        <time>1970-01-01T04:31:42.000Z</time>
      </trkpt>
      <trkpt lat="42.633553" lon="0.655213">
        <ele>3266</ele>
        <time>1970-01-01T04:31:43.000Z</time>
      </trkpt>
      <trkpt lat="42.633554" lon="0.655215">
        <ele>3266.1</ele>
        <time>1970-01-01T04:31:44.000Z</time>
      </trkpt>
      <trkpt lat="42.633555" lon="0.655217">
        <ele>3266.1</ele>
        <time>1970-01-01T04:31:45.000Z</time>
      </trkpt>
      <trkpt lat="42.633556" lon="0.655219">
        <ele>3266.2</ele>
        <time>1970-01-01T04:31:46.000Z</time>
      </trkpt>
      <trkpt lat="42.633557" lon="0.65522">
        <ele>3266.2</ele>
        <time>1970-01-01T04:31:47.000Z</time>
      </trkpt>
      <trkpt lat="42.633557" lon="0.655221">
        <ele>3266.2</ele>
        <time>1970-01-01T04:31:48.000Z</time>
      </trkpt>
      <trkpt lat="42.633557" lon="0.655221">
        <ele>3266.2</ele>
        <time>1970-01-01T04:31:49.000Z</time>
      </trkpt>
      <trkpt lat="42.633557" lon="0.655221">
        <ele>3266.2</ele>
        <time>1970-01-01T04:31:50.000Z</time>
      </trkpt>
      <trkpt lat="42.633557" lon="0.655222">
        <ele>3266.2</ele>
        <time>1970-01-01T04:31:51.000Z</time>
      </trkpt>
      <trkpt lat="42.633557" lon="0.655223">
        <ele>3266.3</ele>
        <time>1970-01-01T04:31:52.000Z</time>
      </trkpt>
      <trkpt lat="42.633557" lon="0.655224">
        <ele>3266.3</ele>
        <time>1970-01-01T04:31:53.000Z</time>
      </trkpt>
      <trkpt lat="42.633557" lon="0.655225">
        <ele>3266.3</ele>
        <time>1970-01-01T04:31:54.000Z</time>
      </trkpt>
      <trkpt lat="42.633557" lon="0.655225">
        <ele>3266.3</ele>
        <time>1970-01-01T04:31:55.000Z</time>
      </trkpt>
      <trkpt lat="42.633557" lon="0.655224">
        <ele>3266.3</ele>
        <time>1970-01-01T04:31:56.000Z</time>
      </trkpt>
      <trkpt lat="42.633558" lon="0.655222">
        <ele>3266.4</ele>
        <time>1970-01-01T04:31:57.000Z</time>
      </trkpt>
      <trkpt lat="42.633559" lon="0.655221">
        <ele>3266.4</ele>
        <time>1970-01-01T04:31:58.000Z</time>
      </trkpt>
      <trkpt lat="42.633561" lon="0.65522">
        <ele>3266.4</ele>
        <time>1970-01-01T04:32:00.000Z</time>
      </trkpt>
      <trkpt lat="42.633563" lon="0.655217">
        <ele>3266.5</ele>
        <time>1970-01-01T04:32:01.000Z</time>
      </trkpt>
      <trkpt lat="42.633564" lon="0.655217">
        <ele>3266.5</ele>
        <time>1970-01-01T04:32:02.000Z</time>
      </trkpt>
      <trkpt lat="42.633566" lon="0.655217">
        <ele>3266.6</ele>
        <time>1970-01-01T04:32:03.000Z</time>
      </trkpt>
      <trkpt lat="42.63357" lon="0.655216">
        <ele>3266.7</ele>
        <time>1970-01-01T04:32:05.000Z</time>
      </trkpt>
      <trkpt lat="42.633573" lon="0.655217">
        <ele>3266.8</ele>
        <time>1970-01-01T04:32:06.000Z</time>
      </trkpt>
      <trkpt lat="42.633574" lon="0.655217">
        <ele>3266.8</ele>
        <time>1970-01-01T04:32:07.000Z</time>
      </trkpt>
      <trkpt lat="42.633577" lon="0.655218">
        <ele>3266.9</ele>
        <time>1970-01-01T04:32:08.000Z</time>
      </trkpt>
      <trkpt lat="42.633579" lon="0.655214">
        <ele>3267</ele>
        <time>1970-01-01T04:32:10.000Z</time>
      </trkpt>
      <trkpt lat="42.63358" lon="0.655212">
        <ele>3267</ele>
        <time>1970-01-01T04:32:11.000Z</time>
      </trkpt>
      <trkpt lat="42.63358" lon="0.655209">
        <ele>3267.1</ele>
        <time>1970-01-01T04:32:12.000Z</time>
      </trkpt>
      <trkpt lat="42.633581" lon="0.655204">
        <ele>3267.2</ele>
        <time>1970-01-01T04:32:13.000Z</time>
      </trkpt>
      <trkpt lat="42.633582" lon="0.655199">
        <ele>3267.3</ele>
        <time>1970-01-01T04:32:14.000Z</time>
      </trkpt>
      <trkpt lat="42.633583" lon="0.655198">
        <ele>3267.3</ele>
        <time>1970-01-01T04:32:15.000Z</time>
      </trkpt>
      <trkpt lat="42.633585" lon="0.655198">
        <ele>3267.3</ele>
        <time>1970-01-01T04:32:16.000Z</time>
      </trkpt>
      <trkpt lat="42.633585" lon="0.655196">
        <ele>3267.4</ele>
        <time>1970-01-01T04:32:17.000Z</time>
      </trkpt>
      <trkpt lat="42.633584" lon="0.655193">
        <ele>3267.4</ele>
        <time>1970-01-01T04:32:18.000Z</time>
      </trkpt>
      <trkpt lat="42.633583" lon="0.655189">
        <ele>3267.5</ele>
        <time>1970-01-01T04:32:19.000Z</time>
      </trkpt>
      <trkpt lat="42.63358" lon="0.655184">
        <ele>3267.6</ele>
        <time>1970-01-01T04:32:20.000Z</time>
      </trkpt>
      <trkpt lat="42.63358" lon="0.655181">
        <ele>3267.7</ele>
        <time>1970-01-01T04:32:21.000Z</time>
      </trkpt>
      <trkpt lat="42.63358" lon="0.65518">
        <ele>3267.7</ele>
        <time>1970-01-01T04:32:22.000Z</time>
      </trkpt>
      <trkpt lat="42.63358" lon="0.655177">
        <ele>3267.8</ele>
        <time>1970-01-01T04:32:23.000Z</time>
      </trkpt>
      <trkpt lat="42.633578" lon="0.655173">
        <ele>3267.9</ele>
        <time>1970-01-01T04:32:24.000Z</time>
      </trkpt>
      <trkpt lat="42.633575" lon="0.655165">
        <ele>3268</ele>
        <time>1970-01-01T04:32:26.000Z</time>
      </trkpt>
      <trkpt lat="42.633573" lon="0.655157">
        <ele>3268.2</ele>
        <time>1970-01-01T04:32:27.000Z</time>
      </trkpt>
      <trkpt lat="42.633573" lon="0.655152">
        <ele>3268.3</ele>
        <time>1970-01-01T04:32:28.000Z</time>
      </trkpt>
      <trkpt lat="42.633573" lon="0.65515">
        <ele>3268.3</ele>
        <time>1970-01-01T04:32:29.000Z</time>
      </trkpt>
      <trkpt lat="42.633575" lon="0.655147">
        <ele>3268.4</ele>
        <time>1970-01-01T04:32:30.000Z</time>
      </trkpt>
      <trkpt lat="42.633577" lon="0.655143">
        <ele>3268.5</ele>
        <time>1970-01-01T04:32:31.000Z</time>
      </trkpt>
      <trkpt lat="42.63358" lon="0.655142">
        <ele>3268.6</ele>
        <time>1970-01-01T04:32:32.000Z</time>
      </trkpt>
      <trkpt lat="42.633584" lon="0.655142">
        <ele>3268.7</ele>
        <time>1970-01-01T04:32:33.000Z</time>
      </trkpt>
      <trkpt lat="42.633588" lon="0.655143">
        <ele>3268.8</ele>
        <time>1970-01-01T04:32:34.000Z</time>
      </trkpt>
      <trkpt lat="42.633592" lon="0.655143">
        <ele>3268.9</ele>
        <time>1970-01-01T04:32:35.000Z</time>
      </trkpt>
      <trkpt lat="42.633592" lon="0.655143">
        <ele>3268.9</ele>
        <time>1970-01-01T04:32:36.000Z</time>
      </trkpt>
      <trkpt lat="42.633592" lon="0.655143">
        <ele>3268.9</ele>
        <time>1970-01-01T04:32:37.000Z</time>
      </trkpt>
      <trkpt lat="42.63359" lon="0.65514">
        <ele>3268.9</ele>
        <time>1970-01-01T04:32:38.000Z</time>
      </trkpt>
      <trkpt lat="42.633588" lon="0.655136">
        <ele>3269</ele>
        <time>1970-01-01T04:32:39.000Z</time>
      </trkpt>
      <trkpt lat="42.633582" lon="0.655131">
        <ele>3269.2</ele>
        <time>1970-01-01T04:32:40.000Z</time>
      </trkpt>
      <trkpt lat="42.633578" lon="0.655127">
        <ele>3269.3</ele>
        <time>1970-01-01T04:32:42.000Z</time>
      </trkpt>
      <trkpt lat="42.633574" lon="0.655128">
        <ele>3269.4</ele>
        <time>1970-01-01T04:32:43.000Z</time>
      </trkpt>
      <trkpt lat="42.633572" lon="0.655129">
        <ele>3269.5</ele>
        <time>1970-01-01T04:32:44.000Z</time>
      </trkpt>
      <trkpt lat="42.63357" lon="0.65513">
        <ele>3269.5</ele>
        <time>1970-01-01T04:32:45.000Z</time>
      </trkpt>
      <trkpt lat="42.633567" lon="0.655127">
        <ele>3269.6</ele>
        <time>1970-01-01T04:32:46.000Z</time>
      </trkpt>
      <trkpt lat="42.633565" lon="0.655124">
        <ele>3269.7</ele>
        <time>1970-01-01T04:32:47.000Z</time>
      </trkpt>
      <trkpt lat="42.633562" lon="0.65512">
        <ele>3269.8</ele>
        <time>1970-01-01T04:32:49.000Z</time>
      </trkpt>
      <trkpt lat="42.633557" lon="0.655118">
        <ele>3269.9</ele>
        <time>1970-01-01T04:32:51.000Z</time>
      </trkpt>
      <trkpt lat="42.63355" lon="0.655113">
        <ele>3270.1</ele>
        <time>1970-01-01T04:32:52.000Z</time>
      </trkpt>
      <trkpt lat="42.633545" lon="0.655112">
        <ele>3270.3</ele>
        <time>1970-01-01T04:32:53.000Z</time>
      </trkpt>
      <trkpt lat="42.63354" lon="0.655109">
        <ele>3270.4</ele>
        <time>1970-01-01T04:32:54.000Z</time>
      </trkpt>
      <trkpt lat="42.633535" lon="0.655108">
        <ele>3270.5</ele>
        <time>1970-01-01T04:32:55.000Z</time>
      </trkpt>
      <trkpt lat="42.633531" lon="0.655108">
        <ele>3270.6</ele>
        <time>1970-01-01T04:32:56.000Z</time>
      </trkpt>
      <trkpt lat="42.633528" lon="0.65511">
        <ele>3270.7</ele>
        <time>1970-01-01T04:32:57.000Z</time>
      </trkpt>
      <trkpt lat="42.633526" lon="0.655113">
        <ele>3270.8</ele>
        <time>1970-01-01T04:32:58.000Z</time>
      </trkpt>
      <trkpt lat="42.633525" lon="0.655113">
        <ele>3270.9</ele>
        <time>1970-01-01T04:32:59.000Z</time>
      </trkpt>
      <trkpt lat="42.633521" lon="0.655111">
        <ele>3271</ele>
        <time>1970-01-01T04:33:00.000Z</time>
      </trkpt>
      <trkpt lat="42.633516" lon="0.655107">
        <ele>3271.2</ele>
        <time>1970-01-01T04:33:02.000Z</time>
      </trkpt>
      <trkpt lat="42.633513" lon="0.655107">
        <ele>3271.3</ele>
        <time>1970-01-01T04:33:03.000Z</time>
      </trkpt>
      <trkpt lat="42.63351" lon="0.655103">
        <ele>3271.5</ele>
        <time>1970-01-01T04:33:04.000Z</time>
      </trkpt>
      <trkpt lat="42.633505" lon="0.655099">
        <ele>3271.6</ele>
        <time>1970-01-01T04:33:05.000Z</time>
      </trkpt>
      <trkpt lat="42.633493" lon="0.655094">
        <ele>3272</ele>
        <time>1970-01-01T04:33:07.000Z</time>
      </trkpt>
      <trkpt lat="42.633488" lon="0.655096">
        <ele>3272.1</ele>
        <time>1970-01-01T04:33:08.000Z</time>
      </trkpt>
      <trkpt lat="42.633484" lon="0.655097">
        <ele>3272.3</ele>
        <time>1970-01-01T04:33:09.000Z</time>
      </trkpt>
      <trkpt lat="42.633478" lon="0.655098">
        <ele>3272.5</ele>
        <time>1970-01-01T04:33:11.000Z</time>
      </trkpt>
      <trkpt lat="42.633474" lon="0.655094">
        <ele>3272.6</ele>
        <time>1970-01-01T04:33:12.000Z</time>
      </trkpt>
      <trkpt lat="42.633472" lon="0.655092">
        <ele>3272.8</ele>
        <time>1970-01-01T04:33:13.000Z</time>
      </trkpt>
      <trkpt lat="42.63347" lon="0.655089">
        <ele>3272.9</ele>
        <time>1970-01-01T04:33:14.000Z</time>
      </trkpt>
      <trkpt lat="42.633469" lon="0.655087">
        <ele>3272.9</ele>
        <time>1970-01-01T04:33:15.000Z</time>
      </trkpt>
      <trkpt lat="42.633469" lon="0.655085">
        <ele>3273.1</ele>
        <time>1970-01-01T04:33:16.000Z</time>
      </trkpt>
      <trkpt lat="42.633467" lon="0.655082">
        <ele>3273.1</ele>
        <time>1970-01-01T04:33:18.000Z</time>
      </trkpt>
      <trkpt lat="42.633465" lon="0.655078">
        <ele>3273.2</ele>
        <time>1970-01-01T04:33:19.000Z</time>
      </trkpt>
      <trkpt lat="42.633462" lon="0.655075">
        <ele>3273.4</ele>
        <time>1970-01-01T04:33:20.000Z</time>
      </trkpt>
      <trkpt lat="42.633458" lon="0.65507">
        <ele>3273.5</ele>
        <time>1970-01-01T04:33:21.000Z</time>
      </trkpt>
      <trkpt lat="42.633452" lon="0.655063">
        <ele>3273.8</ele>
        <time>1970-01-01T04:33:22.000Z</time>
      </trkpt>
      <trkpt lat="42.633446" lon="0.655057">
        <ele>3274</ele>
        <time>1970-01-01T04:33:23.000Z</time>
      </trkpt>
      <trkpt lat="42.633437" lon="0.655048">
        <ele>3274.3</ele>
        <time>1970-01-01T04:33:24.000Z</time>
      </trkpt>
      <trkpt lat="42.633429" lon="0.655041">
        <ele>3274.6</ele>
        <time>1970-01-01T04:33:25.000Z</time>
      </trkpt>
      <trkpt lat="42.633423" lon="0.655037">
        <ele>3274.8</ele>
        <time>1970-01-01T04:33:26.000Z</time>
      </trkpt>
      <trkpt lat="42.633416" lon="0.655034">
        <ele>3275</ele>
        <time>1970-01-01T04:33:27.000Z</time>
      </trkpt>
      <trkpt lat="42.63341" lon="0.655029">
        <ele>3275.3</ele>
        <time>1970-01-01T04:33:28.000Z</time>
      </trkpt>
      <trkpt lat="42.633406" lon="0.655022">
        <ele>3275.5</ele>
        <time>1970-01-01T04:33:29.000Z</time>
      </trkpt>
      <trkpt lat="42.633401" lon="0.655015">
        <ele>3275.7</ele>
        <time>1970-01-01T04:33:30.000Z</time>
      </trkpt>
      <trkpt lat="42.633397" lon="0.655009">
        <ele>3275.9</ele>
        <time>1970-01-01T04:33:31.000Z</time>
      </trkpt>
      <trkpt lat="42.633392" lon="0.655002">
        <ele>3276.1</ele>
        <time>1970-01-01T04:33:32.000Z</time>
      </trkpt>
      <trkpt lat="42.633386" lon="0.654997">
        <ele>3276.3</ele>
        <time>1970-01-01T04:33:33.000Z</time>
      </trkpt>
      <trkpt lat="42.633381" lon="0.654993">
        <ele>3276.5</ele>
        <time>1970-01-01T04:33:34.000Z</time>
      </trkpt>
      <trkpt lat="42.633378" lon="0.654993">
        <ele>3276.6</ele>
        <time>1970-01-01T04:33:35.000Z</time>
      </trkpt>
      <trkpt lat="42.633377" lon="0.654993">
        <ele>3276.7</ele>
        <time>1970-01-01T04:33:36.000Z</time>
      </trkpt>
      <trkpt lat="42.633375" lon="0.654992">
        <ele>3276.7</ele>
        <time>1970-01-01T04:33:37.000Z</time>
      </trkpt>
      <trkpt lat="42.633374" lon="0.654993">
        <ele>3276.8</ele>
        <time>1970-01-01T04:33:38.000Z</time>
      </trkpt>
      <trkpt lat="42.633373" lon="0.654994">
        <ele>3276.9</ele>
        <time>1970-01-01T04:33:39.000Z</time>
      </trkpt>
      <trkpt lat="42.63337" lon="0.654994">
        <ele>3277</ele>
        <time>1970-01-01T04:33:40.000Z</time>
      </trkpt>
      <trkpt lat="42.633367" lon="0.654993">
        <ele>3277.1</ele>
        <time>1970-01-01T04:33:41.000Z</time>
      </trkpt>
      <trkpt lat="42.633364" lon="0.654991">
        <ele>3277.2</ele>
        <time>1970-01-01T04:33:42.000Z</time>
      </trkpt>
      <trkpt lat="42.633363" lon="0.65499">
        <ele>3277.4</ele>
        <time>1970-01-01T04:33:43.000Z</time>
      </trkpt>
      <trkpt lat="42.633355" lon="0.654982">
        <ele>3277.6</ele>
        <time>1970-01-01T04:33:45.000Z</time>
      </trkpt>
      <trkpt lat="42.633353" lon="0.654981">
        <ele>3277.7</ele>
        <time>1970-01-01T04:33:46.000Z</time>
      </trkpt>
      <trkpt lat="42.633355" lon="0.654981">
        <ele>3277.8</ele>
        <time>1970-01-01T04:33:47.000Z</time>
      </trkpt>
      <trkpt lat="42.633355" lon="0.654981">
        <ele>3277.8</ele>
        <time>1970-01-01T04:33:48.000Z</time>
      </trkpt>
      <trkpt lat="42.633351" lon="0.654974">
        <ele>3278</ele>
        <time>1970-01-01T04:33:50.000Z</time>
      </trkpt>
      <trkpt lat="42.633348" lon="0.654972">
        <ele>3278.2</ele>
        <time>1970-01-01T04:33:51.000Z</time>
      </trkpt>
      <trkpt lat="42.633345" lon="0.654971">
        <ele>3278.3</ele>
        <time>1970-01-01T04:33:52.000Z</time>
      </trkpt>
      <trkpt lat="42.633344" lon="0.654974">
        <ele>3278.4</ele>
        <time>1970-01-01T04:33:53.000Z</time>
      </trkpt>
      <trkpt lat="42.633342" lon="0.654974">
        <ele>3278.5</ele>
        <time>1970-01-01T04:33:54.000Z</time>
      </trkpt>
      <trkpt lat="42.633338" lon="0.654973">
        <ele>3278.6</ele>
        <time>1970-01-01T04:33:55.000Z</time>
      </trkpt>
      <trkpt lat="42.633334" lon="0.654973">
        <ele>3278.8</ele>
        <time>1970-01-01T04:33:56.000Z</time>
      </trkpt>
      <trkpt lat="42.633325" lon="0.654974">
        <ele>3279</ele>
        <time>1970-01-01T04:33:58.000Z</time>
      </trkpt>
      <trkpt lat="42.63332" lon="0.654975">
        <ele>3279.2</ele>
        <time>1970-01-01T04:33:59.000Z</time>
      </trkpt>
      <trkpt lat="42.633318" lon="0.654977">
        <ele>3279.3</ele>
        <time>1970-01-01T04:34:00.000Z</time>
      </trkpt>
      <trkpt lat="42.633319" lon="0.654977">
        <ele>3279.4</ele>
        <time>1970-01-01T04:34:01.000Z</time>
      </trkpt>
      <trkpt lat="42.633321" lon="0.654976">
        <ele>3279.4</ele>
        <time>1970-01-01T04:34:02.000Z</time>
      </trkpt>
      <trkpt lat="42.633321" lon="0.654975">
        <ele>3279.5</ele>
        <time>1970-01-01T04:34:03.000Z</time>
      </trkpt>
      <trkpt lat="42.63332" lon="0.654973">
        <ele>3279.6</ele>
        <time>1970-01-01T04:34:04.000Z</time>
      </trkpt>
      <trkpt lat="42.633325" lon="0.654969">
        <ele>3279.8</ele>
        <time>1970-01-01T04:34:06.000Z</time>
      </trkpt>
      <trkpt lat="42.633325" lon="0.654968">
        <ele>3279.9</ele>
        <time>1970-01-01T04:34:07.000Z</time>
      </trkpt>
      <trkpt lat="42.633324" lon="0.654967">
        <ele>3279.9</ele>
        <time>1970-01-01T04:34:08.000Z</time>
      </trkpt>
      <trkpt lat="42.633327" lon="0.654966">
        <ele>3280</ele>
        <time>1970-01-01T04:34:09.000Z</time>
      </trkpt>
      <trkpt lat="42.633325" lon="0.654963">
        <ele>3280.1</ele>
        <time>1970-01-01T04:34:11.000Z</time>
      </trkpt>
      <trkpt lat="42.633327" lon="0.654963">
        <ele>3280.2</ele>
        <time>1970-01-01T04:34:12.000Z</time>
      </trkpt>
      <trkpt lat="42.633329" lon="0.654964">
        <ele>3280.3</ele>
        <time>1970-01-01T04:34:13.000Z</time>
      </trkpt>
      <trkpt lat="42.63333" lon="0.654963">
        <ele>3280.4</ele>
        <time>1970-01-01T04:34:15.000Z</time>
      </trkpt>
      <trkpt lat="42.63333" lon="0.654964">
        <ele>3280.4</ele>
        <time>1970-01-01T04:34:16.000Z</time>
      </trkpt>
      <trkpt lat="42.63333" lon="0.654964">
        <ele>3280.5</ele>
        <time>1970-01-01T04:34:17.000Z</time>
      </trkpt>
      <trkpt lat="42.633331" lon="0.654965">
        <ele>3280.5</ele>
        <time>1970-01-01T04:34:18.000Z</time>
      </trkpt>
      <trkpt lat="42.633327" lon="0.654965">
        <ele>3280.7</ele>
        <time>1970-01-01T04:34:19.000Z</time>
      </trkpt>
      <trkpt lat="42.633326" lon="0.654965">
        <ele>3280.8</ele>
        <time>1970-01-01T04:34:20.000Z</time>
      </trkpt>
      <trkpt lat="42.633323" lon="0.654966">
        <ele>3280.9</ele>
        <time>1970-01-01T04:34:21.000Z</time>
      </trkpt>
      <trkpt lat="42.633319" lon="0.654967">
        <ele>3281.1</ele>
        <time>1970-01-01T04:34:22.000Z</time>
      </trkpt>
      <trkpt lat="42.633319" lon="0.654966">
        <ele>3281.1</ele>
        <time>1970-01-01T04:34:23.000Z</time>
      </trkpt>
      <trkpt lat="42.63332" lon="0.654966">
        <ele>3281.1</ele>
        <time>1970-01-01T04:34:24.000Z</time>
      </trkpt>
      <trkpt lat="42.633321" lon="0.654963">
        <ele>3281.3</ele>
        <time>1970-01-01T04:34:26.000Z</time>
      </trkpt>
      <trkpt lat="42.63332" lon="0.654962">
        <ele>3281.3</ele>
        <time>1970-01-01T04:34:27.000Z</time>
      </trkpt>
      <trkpt lat="42.633319" lon="0.654962">
        <ele>3281.3</ele>
        <time>1970-01-01T04:34:28.000Z</time>
      </trkpt>
      <trkpt lat="42.633318" lon="0.654963">
        <ele>3281.5</ele>
        <time>1970-01-01T04:34:29.000Z</time>
      </trkpt>
      <trkpt lat="42.633317" lon="0.654963">
        <ele>3281.5</ele>
        <time>1970-01-01T04:34:30.000Z</time>
      </trkpt>
      <trkpt lat="42.633314" lon="0.654964">
        <ele>3281.7</ele>
        <time>1970-01-01T04:34:31.000Z</time>
      </trkpt>
      <trkpt lat="42.633307" lon="0.654965">
        <ele>3281.9</ele>
        <time>1970-01-01T04:34:32.000Z</time>
      </trkpt>
      <trkpt lat="42.633305" lon="0.654965">
        <ele>3281.9</ele>
        <time>1970-01-01T04:34:33.000Z</time>
      </trkpt>
      <trkpt lat="42.6333" lon="0.654967">
        <ele>3282.1</ele>
        <time>1970-01-01T04:34:34.000Z</time>
      </trkpt>
      <trkpt lat="42.633296" lon="0.65497">
        <ele>3282.3</ele>
        <time>1970-01-01T04:34:35.000Z</time>
      </trkpt>
      <trkpt lat="42.633293" lon="0.654973">
        <ele>3282.4</ele>
        <time>1970-01-01T04:34:36.000Z</time>
      </trkpt>
      <trkpt lat="42.633292" lon="0.654974">
        <ele>3282.5</ele>
        <time>1970-01-01T04:34:37.000Z</time>
      </trkpt>
      <trkpt lat="42.633291" lon="0.654975">
        <ele>3282.5</ele>
        <time>1970-01-01T04:34:38.000Z</time>
      </trkpt>
      <trkpt lat="42.633288" lon="0.654978">
        <ele>3282.7</ele>
        <time>1970-01-01T04:34:39.000Z</time>
      </trkpt>
      <trkpt lat="42.633287" lon="0.654984">
        <ele>3282.9</ele>
        <time>1970-01-01T04:34:40.000Z</time>
      </trkpt>
      <trkpt lat="42.633285" lon="0.654989">
        <ele>3283</ele>
        <time>1970-01-01T04:34:41.000Z</time>
      </trkpt>
      <trkpt lat="42.633283" lon="0.654994">
        <ele>3283.2</ele>
        <time>1970-01-01T04:34:43.000Z</time>
      </trkpt>
      <trkpt lat="42.633281" lon="0.654999">
        <ele>3283.3</ele>
        <time>1970-01-01T04:34:44.000Z</time>
      </trkpt>
      <trkpt lat="42.633278" lon="0.655007">
        <ele>3283.5</ele>
        <time>1970-01-01T04:34:46.000Z</time>
      </trkpt>
      <trkpt lat="42.633276" lon="0.655012">
        <ele>3283.7</ele>
        <time>1970-01-01T04:34:47.000Z</time>
      </trkpt>
      <trkpt lat="42.633274" lon="0.655015">
        <ele>3283.7</ele>
        <time>1970-01-01T04:34:48.000Z</time>
      </trkpt>
      <trkpt lat="42.633274" lon="0.655017">
        <ele>3283.9</ele>
        <time>1970-01-01T04:34:49.000Z</time>
      </trkpt>
      <trkpt lat="42.633274" lon="0.655019">
        <ele>3283.9</ele>
        <time>1970-01-01T04:34:50.000Z</time>
      </trkpt>
      <trkpt lat="42.633275" lon="0.65502">
        <ele>3284</ele>
        <time>1970-01-01T04:34:51.000Z</time>
      </trkpt>
      <trkpt lat="42.633275" lon="0.655021">
        <ele>3284</ele>
        <time>1970-01-01T04:34:52.000Z</time>
      </trkpt>
      <trkpt lat="42.633275" lon="0.655022">
        <ele>3284</ele>
        <time>1970-01-01T04:34:53.000Z</time>
      </trkpt>
      <trkpt lat="42.633274" lon="0.655024">
        <ele>3284</ele>
        <time>1970-01-01T04:34:55.000Z</time>
      </trkpt>
      <trkpt lat="42.633274" lon="0.655025">
        <ele>3284.1</ele>
        <time>1970-01-01T04:34:56.000Z</time>
      </trkpt>
      <trkpt lat="42.633275" lon="0.655026">
        <ele>3284.1</ele>
        <time>1970-01-01T04:34:57.000Z</time>
      </trkpt>
      <trkpt lat="42.633276" lon="0.655027">
        <ele>3284.1</ele>
        <time>1970-01-01T04:34:58.000Z</time>
      </trkpt>
      <trkpt lat="42.633276" lon="0.655027">
        <ele>3284.1</ele>
        <time>1970-01-01T04:34:59.000Z</time>
      </trkpt>
      <trkpt lat="42.633276" lon="0.655028">
        <ele>3284.1</ele>
        <time>1970-01-01T04:35:00.000Z</time>
      </trkpt>
      <trkpt lat="42.633276" lon="0.65503">
        <ele>3284.2</ele>
        <time>1970-01-01T04:35:01.000Z</time>
      </trkpt>
      <trkpt lat="42.633273" lon="0.655037">
        <ele>3284.3</ele>
        <time>1970-01-01T04:35:03.000Z</time>
      </trkpt>
      <trkpt lat="42.633271" lon="0.655042">
        <ele>3284.5</ele>
        <time>1970-01-01T04:35:04.000Z</time>
      </trkpt>
      <trkpt lat="42.633268" lon="0.655049">
        <ele>3284.6</ele>
        <time>1970-01-01T04:35:05.000Z</time>
      </trkpt>
      <trkpt lat="42.633266" lon="0.655055">
        <ele>3284.7</ele>
        <time>1970-01-01T04:35:06.000Z</time>
      </trkpt>
      <trkpt lat="42.633265" lon="0.655058">
        <ele>3284.8</ele>
        <time>1970-01-01T04:35:07.000Z</time>
      </trkpt>
      <trkpt lat="42.633264" lon="0.655064">
        <ele>3284.9</ele>
        <time>1970-01-01T04:35:09.000Z</time>
      </trkpt>
      <trkpt lat="42.633264" lon="0.655067">
        <ele>3285</ele>
        <time>1970-01-01T04:35:10.000Z</time>
      </trkpt>
      <trkpt lat="42.633263" lon="0.65507">
        <ele>3285</ele>
        <time>1970-01-01T04:35:11.000Z</time>
      </trkpt>
      <trkpt lat="42.633263" lon="0.655072">
        <ele>3285.1</ele>
        <time>1970-01-01T04:35:12.000Z</time>
      </trkpt>
      <trkpt lat="42.63326" lon="0.655077">
        <ele>3285.2</ele>
        <time>1970-01-01T04:35:14.000Z</time>
      </trkpt>
      <trkpt lat="42.633258" lon="0.65508">
        <ele>3285.3</ele>
        <time>1970-01-01T04:35:15.000Z</time>
      </trkpt>
      <trkpt lat="42.633257" lon="0.655084">
        <ele>3285.4</ele>
        <time>1970-01-01T04:35:16.000Z</time>
      </trkpt>
      <trkpt lat="42.633256" lon="0.655088">
        <ele>3285.5</ele>
        <time>1970-01-01T04:35:17.000Z</time>
      </trkpt>
      <trkpt lat="42.633255" lon="0.655096">
        <ele>3285.6</ele>
        <time>1970-01-01T04:35:19.000Z</time>
      </trkpt>
      <trkpt lat="42.633255" lon="0.655102">
        <ele>3285.7</ele>
        <time>1970-01-01T04:35:20.000Z</time>
      </trkpt>
      <trkpt lat="42.633254" lon="0.655108">
        <ele>3285.8</ele>
        <time>1970-01-01T04:35:21.000Z</time>
      </trkpt>
      <trkpt lat="42.633253" lon="0.655112">
        <ele>3285.9</ele>
        <time>1970-01-01T04:35:22.000Z</time>
      </trkpt>
      <trkpt lat="42.633253" lon="0.655115">
        <ele>3286</ele>
        <time>1970-01-01T04:35:23.000Z</time>
      </trkpt>
      <trkpt lat="42.633253" lon="0.655117">
        <ele>3286</ele>
        <time>1970-01-01T04:35:24.000Z</time>
      </trkpt>
      <trkpt lat="42.633252" lon="0.655119">
        <ele>3286.1</ele>
        <time>1970-01-01T04:35:25.000Z</time>
      </trkpt>
      <trkpt lat="42.633251" lon="0.655121">
        <ele>3286.1</ele>
        <time>1970-01-01T04:35:26.000Z</time>
      </trkpt>
      <trkpt lat="42.633251" lon="0.655124">
        <ele>3286.2</ele>
        <time>1970-01-01T04:35:27.000Z</time>
      </trkpt>
      <trkpt lat="42.63325" lon="0.655127">
        <ele>3286.2</ele>
        <time>1970-01-01T04:35:28.000Z</time>
      </trkpt>
      <trkpt lat="42.63325" lon="0.65513">
        <ele>3286.3</ele>
        <time>1970-01-01T04:35:29.000Z</time>
      </trkpt>
      <trkpt lat="42.63325" lon="0.655132">
        <ele>3286.3</ele>
        <time>1970-01-01T04:35:30.000Z</time>
      </trkpt>
      <trkpt lat="42.633251" lon="0.655136">
        <ele>3286.4</ele>
        <time>1970-01-01T04:35:31.000Z</time>
      </trkpt>
      <trkpt lat="42.633251" lon="0.655139">
        <ele>3286.5</ele>
        <time>1970-01-01T04:35:32.000Z</time>
      </trkpt>
      <trkpt lat="42.633251" lon="0.655144">
        <ele>3286.6</ele>
        <time>1970-01-01T04:35:33.000Z</time>
      </trkpt>
      <trkpt lat="42.63325" lon="0.655149">
        <ele>3286.7</ele>
        <time>1970-01-01T04:35:34.000Z</time>
      </trkpt>
      <trkpt lat="42.633249" lon="0.655152">
        <ele>3286.7</ele>
        <time>1970-01-01T04:35:35.000Z</time>
      </trkpt>
      <trkpt lat="42.633248" lon="0.655153">
        <ele>3286.8</ele>
        <time>1970-01-01T04:35:36.000Z</time>
      </trkpt>
      <trkpt lat="42.633246" lon="0.655162">
        <ele>3287</ele>
        <time>1970-01-01T04:35:37.000Z</time>
      </trkpt>
      <trkpt lat="42.633244" lon="0.655169">
        <ele>3287.1</ele>
        <time>1970-01-01T04:35:38.000Z</time>
      </trkpt>
      <trkpt lat="42.633244" lon="0.655172">
        <ele>3287.2</ele>
        <time>1970-01-01T04:35:39.000Z</time>
      </trkpt>
      <trkpt lat="42.633244" lon="0.655173">
        <ele>3287.2</ele>
        <time>1970-01-01T04:35:40.000Z</time>
      </trkpt>
      <trkpt lat="42.633243" lon="0.655173">
        <ele>3287.2</ele>
        <time>1970-01-01T04:35:41.000Z</time>
      </trkpt>
      <trkpt lat="42.633243" lon="0.655175">
        <ele>3287.2</ele>
        <time>1970-01-01T04:35:42.000Z</time>
      </trkpt>
      <trkpt lat="42.633243" lon="0.655177">
        <ele>3287.3</ele>
        <time>1970-01-01T04:35:43.000Z</time>
      </trkpt>
      <trkpt lat="42.633243" lon="0.655179">
        <ele>3287.3</ele>
        <time>1970-01-01T04:35:44.000Z</time>
      </trkpt>
      <trkpt lat="42.633242" lon="0.65518">
        <ele>3287.4</ele>
        <time>1970-01-01T04:35:45.000Z</time>
      </trkpt>
      <trkpt lat="42.633242" lon="0.655182">
        <ele>3287.4</ele>
        <time>1970-01-01T04:35:46.000Z</time>
      </trkpt>
      <trkpt lat="42.633241" lon="0.655184">
        <ele>3287.4</ele>
        <time>1970-01-01T04:35:47.000Z</time>
      </trkpt>
      <trkpt lat="42.63324" lon="0.655187">
        <ele>3287.5</ele>
        <time>1970-01-01T04:35:48.000Z</time>
      </trkpt>
      <trkpt lat="42.633239" lon="0.655189">
        <ele>3287.6</ele>
        <time>1970-01-01T04:35:49.000Z</time>
      </trkpt>
      <trkpt lat="42.633238" lon="0.655189">
        <ele>3287.6</ele>
        <time>1970-01-01T04:35:50.000Z</time>
      </trkpt>
      <trkpt lat="42.633238" lon="0.655189">
        <ele>3287.6</ele>
        <time>1970-01-01T04:35:51.000Z</time>
      </trkpt>
      <trkpt lat="42.633237" lon="0.65519">
        <ele>3287.6</ele>
        <time>1970-01-01T04:35:52.000Z</time>
      </trkpt>
      <trkpt lat="42.633237" lon="0.655191">
        <ele>3287.6</ele>
        <time>1970-01-01T04:35:53.000Z</time>
      </trkpt>
      <trkpt lat="42.633236" lon="0.655191">
        <ele>3287.7</ele>
        <time>1970-01-01T04:35:54.000Z</time>
      </trkpt>
      <trkpt lat="42.633236" lon="0.655191">
        <ele>3287.7</ele>
        <time>1970-01-01T04:35:55.000Z</time>
      </trkpt>
      <trkpt lat="42.633236" lon="0.655191">
        <ele>3287.7</ele>
        <time>1970-01-01T04:35:56.000Z</time>
      </trkpt>
      <trkpt lat="42.633234" lon="0.655193">
        <ele>3287.7</ele>
        <time>1970-01-01T04:35:57.000Z</time>
      </trkpt>
      <trkpt lat="42.633232" lon="0.655195">
        <ele>3287.8</ele>
        <time>1970-01-01T04:35:58.000Z</time>
      </trkpt>
      <trkpt lat="42.633229" lon="0.655197">
        <ele>3287.9</ele>
        <time>1970-01-01T04:35:59.000Z</time>
      </trkpt>
      <trkpt lat="42.633221" lon="0.655199">
        <ele>3288.1</ele>
        <time>1970-01-01T04:36:01.000Z</time>
      </trkpt>
      <trkpt lat="42.633218" lon="0.655198">
        <ele>3288.2</ele>
        <time>1970-01-01T04:36:02.000Z</time>
      </trkpt>
      <trkpt lat="42.633215" lon="0.655198">
        <ele>3288.3</ele>
        <time>1970-01-01T04:36:03.000Z</time>
      </trkpt>
      <trkpt lat="42.633212" lon="0.655198">
        <ele>3288.3</ele>
        <time>1970-01-01T04:36:04.000Z</time>
      </trkpt>
      <trkpt lat="42.633209" lon="0.655197">
        <ele>3288.4</ele>
        <time>1970-01-01T04:36:05.000Z</time>
      </trkpt>
      <trkpt lat="42.633206" lon="0.655194">
        <ele>3288.5</ele>
        <time>1970-01-01T04:36:06.000Z</time>
      </trkpt>
      <trkpt lat="42.633201" lon="0.655189">
        <ele>3288.7</ele>
        <time>1970-01-01T04:36:07.000Z</time>
      </trkpt>
      <trkpt lat="42.633196" lon="0.655183">
        <ele>3288.9</ele>
        <time>1970-01-01T04:36:09.000Z</time>
      </trkpt>
      <trkpt lat="42.633194" lon="0.655179">
        <ele>3289</ele>
        <time>1970-01-01T04:36:10.000Z</time>
      </trkpt>
      <trkpt lat="42.633191" lon="0.655174">
        <ele>3289.1</ele>
        <time>1970-01-01T04:36:11.000Z</time>
      </trkpt>
      <trkpt lat="42.633189" lon="0.65517">
        <ele>3289.2</ele>
        <time>1970-01-01T04:36:12.000Z</time>
      </trkpt>
      <trkpt lat="42.633189" lon="0.65517">
        <ele>3289.2</ele>
        <time>1970-01-01T04:36:13.000Z</time>
      </trkpt>
      <trkpt lat="42.633188" lon="0.655169">
        <ele>3289.2</ele>
        <time>1970-01-01T04:36:14.000Z</time>
      </trkpt>
      <trkpt lat="42.633187" lon="0.655168">
        <ele>3289.2</ele>
        <time>1970-01-01T04:36:15.000Z</time>
      </trkpt>
      <trkpt lat="42.633183" lon="0.655167">
        <ele>3289.3</ele>
        <time>1970-01-01T04:36:17.000Z</time>
      </trkpt>
      <trkpt lat="42.633178" lon="0.655168">
        <ele>3289.5</ele>
        <time>1970-01-01T04:36:18.000Z</time>
      </trkpt>
      <trkpt lat="42.633176" lon="0.655172">
        <ele>3289.6</ele>
        <time>1970-01-01T04:36:19.000Z</time>
      </trkpt>
      <trkpt lat="42.633176" lon="0.655175">
        <ele>3289.6</ele>
        <time>1970-01-01T04:36:20.000Z</time>
      </trkpt>
      <trkpt lat="42.633175" lon="0.655182">
        <ele>3289.8</ele>
        <time>1970-01-01T04:36:21.000Z</time>
      </trkpt>
      <trkpt lat="42.633173" lon="0.655189">
        <ele>3289.9</ele>
        <time>1970-01-01T04:36:23.000Z</time>
      </trkpt>
      <trkpt lat="42.633172" lon="0.655194">
        <ele>3290</ele>
        <time>1970-01-01T04:36:24.000Z</time>
      </trkpt>
      <trkpt lat="42.633172" lon="0.655198">
        <ele>3290.1</ele>
        <time>1970-01-01T04:36:25.000Z</time>
      </trkpt>
      <trkpt lat="42.633171" lon="0.655203">
        <ele>3290.2</ele>
        <time>1970-01-01T04:36:26.000Z</time>
      </trkpt>
      <trkpt lat="42.633171" lon="0.655207">
        <ele>3290.3</ele>
        <time>1970-01-01T04:36:27.000Z</time>
      </trkpt>
      <trkpt lat="42.633171" lon="0.655212">
        <ele>3290.4</ele>
        <time>1970-01-01T04:36:28.000Z</time>
      </trkpt>
      <trkpt lat="42.633171" lon="0.655216">
        <ele>3290.4</ele>
        <time>1970-01-01T04:36:29.000Z</time>
      </trkpt>
      <trkpt lat="42.633171" lon="0.65522">
        <ele>3290.5</ele>
        <time>1970-01-01T04:36:30.000Z</time>
      </trkpt>
      <trkpt lat="42.633171" lon="0.655224">
        <ele>3290.6</ele>
        <time>1970-01-01T04:36:31.000Z</time>
      </trkpt>
      <trkpt lat="42.633171" lon="0.655229">
        <ele>3290.7</ele>
        <time>1970-01-01T04:36:32.000Z</time>
      </trkpt>
      <trkpt lat="42.63317" lon="0.655234">
        <ele>3290.8</ele>
        <time>1970-01-01T04:36:33.000Z</time>
      </trkpt>
      <trkpt lat="42.633169" lon="0.655239">
        <ele>3290.9</ele>
        <time>1970-01-01T04:36:34.000Z</time>
      </trkpt>
      <trkpt lat="42.633167" lon="0.655242">
        <ele>3291</ele>
        <time>1970-01-01T04:36:35.000Z</time>
      </trkpt>
      <trkpt lat="42.633165" lon="0.655245">
        <ele>3291.1</ele>
        <time>1970-01-01T04:36:36.000Z</time>
      </trkpt>
      <trkpt lat="42.633163" lon="0.655246">
        <ele>3291.1</ele>
        <time>1970-01-01T04:36:37.000Z</time>
      </trkpt>
      <trkpt lat="42.633162" lon="0.655247">
        <ele>3291.1</ele>
        <time>1970-01-01T04:36:38.000Z</time>
      </trkpt>
      <trkpt lat="42.633161" lon="0.655249">
        <ele>3291.2</ele>
        <time>1970-01-01T04:36:39.000Z</time>
      </trkpt>
      <trkpt lat="42.63316" lon="0.655251">
        <ele>3291.2</ele>
        <time>1970-01-01T04:36:41.000Z</time>
      </trkpt>
      <trkpt lat="42.633159" lon="0.655254">
        <ele>3291.3</ele>
        <time>1970-01-01T04:36:42.000Z</time>
      </trkpt>
      <trkpt lat="42.633158" lon="0.655257">
        <ele>3291.4</ele>
        <time>1970-01-01T04:36:44.000Z</time>
      </trkpt>
      <trkpt lat="42.633156" lon="0.65526">
        <ele>3291.4</ele>
        <time>1970-01-01T04:36:45.000Z</time>
      </trkpt>
      <trkpt lat="42.633154" lon="0.655263">
        <ele>3291.5</ele>
        <time>1970-01-01T04:36:46.000Z</time>
      </trkpt>
      <trkpt lat="42.633152" lon="0.655267">
        <ele>3291.6</ele>
        <time>1970-01-01T04:36:47.000Z</time>
      </trkpt>
      <trkpt lat="42.633152" lon="0.655269">
        <ele>3291.7</ele>
        <time>1970-01-01T04:36:48.000Z</time>
      </trkpt>
      <trkpt lat="42.633152" lon="0.65527">
        <ele>3291.7</ele>
        <time>1970-01-01T04:36:49.000Z</time>
      </trkpt>
      <trkpt lat="42.633151" lon="0.655274">
        <ele>3291.8</ele>
        <time>1970-01-01T04:36:50.000Z</time>
      </trkpt>
      <trkpt lat="42.633149" lon="0.655279">
        <ele>3291.9</ele>
        <time>1970-01-01T04:36:52.000Z</time>
      </trkpt>
      <trkpt lat="42.633147" lon="0.655285">
        <ele>3292</ele>
        <time>1970-01-01T04:36:53.000Z</time>
      </trkpt>
      <trkpt lat="42.633146" lon="0.655291">
        <ele>3292.1</ele>
        <time>1970-01-01T04:36:54.000Z</time>
      </trkpt>
      <trkpt lat="42.633144" lon="0.655296">
        <ele>3292.2</ele>
        <time>1970-01-01T04:36:55.000Z</time>
      </trkpt>
      <trkpt lat="42.633142" lon="0.6553">
        <ele>3292.3</ele>
        <time>1970-01-01T04:36:56.000Z</time>
      </trkpt>
      <trkpt lat="42.63314" lon="0.655307">
        <ele>3292.5</ele>
        <time>1970-01-01T04:36:58.000Z</time>
      </trkpt>
      <trkpt lat="42.633139" lon="0.65531">
        <ele>3292.5</ele>
        <time>1970-01-01T04:36:59.000Z</time>
      </trkpt>
      <trkpt lat="42.633137" lon="0.655316">
        <ele>3292.7</ele>
        <time>1970-01-01T04:37:00.000Z</time>
      </trkpt>
      <trkpt lat="42.633133" lon="0.655322">
        <ele>3292.8</ele>
        <time>1970-01-01T04:37:01.000Z</time>
      </trkpt>
      <trkpt lat="42.63313" lon="0.655328">
        <ele>3293</ele>
        <time>1970-01-01T04:37:02.000Z</time>
      </trkpt>
      <trkpt lat="42.633127" lon="0.655333">
        <ele>3293.1</ele>
        <time>1970-01-01T04:37:03.000Z</time>
      </trkpt>
      <trkpt lat="42.633125" lon="0.655336">
        <ele>3293.2</ele>
        <time>1970-01-01T04:37:04.000Z</time>
      </trkpt>
      <trkpt lat="42.633123" lon="0.655341">
        <ele>3293.3</ele>
        <time>1970-01-01T04:37:05.000Z</time>
      </trkpt>
      <trkpt lat="42.63312" lon="0.655343">
        <ele>3293.4</ele>
        <time>1970-01-01T04:37:06.000Z</time>
      </trkpt>
      <trkpt lat="42.633118" lon="0.655345">
        <ele>3293.4</ele>
        <time>1970-01-01T04:37:07.000Z</time>
      </trkpt>
      <trkpt lat="42.633115" lon="0.655347">
        <ele>3293.5</ele>
        <time>1970-01-01T04:37:08.000Z</time>
      </trkpt>
      <trkpt lat="42.633114" lon="0.655347">
        <ele>3293.5</ele>
        <time>1970-01-01T04:37:09.000Z</time>
      </trkpt>
      <trkpt lat="42.633113" lon="0.655347">
        <ele>3293.6</ele>
        <time>1970-01-01T04:37:10.000Z</time>
      </trkpt>
      <trkpt lat="42.633113" lon="0.655347">
        <ele>3293.6</ele>
        <time>1970-01-01T04:37:11.000Z</time>
      </trkpt>
      <trkpt lat="42.633112" lon="0.655346">
        <ele>3293.6</ele>
        <time>1970-01-01T04:37:12.000Z</time>
      </trkpt>
      <trkpt lat="42.633112" lon="0.655346">
        <ele>3293.6</ele>
        <time>1970-01-01T04:37:13.000Z</time>
      </trkpt>
      <trkpt lat="42.633111" lon="0.655346">
        <ele>3293.6</ele>
        <time>1970-01-01T04:37:14.000Z</time>
      </trkpt>
      <trkpt lat="42.633107" lon="0.655348">
        <ele>3293.7</ele>
        <time>1970-01-01T04:37:15.000Z</time>
      </trkpt>
      <trkpt lat="42.633104" lon="0.65535">
        <ele>3293.8</ele>
        <time>1970-01-01T04:37:16.000Z</time>
      </trkpt>
      <trkpt lat="42.633101" lon="0.655351">
        <ele>3293.9</ele>
        <time>1970-01-01T04:37:17.000Z</time>
      </trkpt>
      <trkpt lat="42.633098" lon="0.655353">
        <ele>3294</ele>
        <time>1970-01-01T04:37:18.000Z</time>
      </trkpt>
      <trkpt lat="42.633096" lon="0.655356">
        <ele>3294.1</ele>
        <time>1970-01-01T04:37:19.000Z</time>
      </trkpt>
      <trkpt lat="42.633094" lon="0.655358">
        <ele>3294.1</ele>
        <time>1970-01-01T04:37:20.000Z</time>
      </trkpt>
      <trkpt lat="42.633092" lon="0.65536">
        <ele>3294.2</ele>
        <time>1970-01-01T04:37:21.000Z</time>
      </trkpt>
      <trkpt lat="42.633091" lon="0.655361">
        <ele>3294.2</ele>
        <time>1970-01-01T04:37:22.000Z</time>
      </trkpt>
      <trkpt lat="42.63309" lon="0.655363">
        <ele>3294.3</ele>
        <time>1970-01-01T04:37:23.000Z</time>
      </trkpt>
      <trkpt lat="42.633089" lon="0.655366">
        <ele>3294.4</ele>
        <time>1970-01-01T04:37:24.000Z</time>
      </trkpt>
      <trkpt lat="42.633088" lon="0.655369">
        <ele>3294.4</ele>
        <time>1970-01-01T04:37:25.000Z</time>
      </trkpt>
      <trkpt lat="42.633088" lon="0.65537">
        <ele>3294.4</ele>
        <time>1970-01-01T04:37:26.000Z</time>
      </trkpt>
      <trkpt lat="42.633086" lon="0.655374">
        <ele>3294.5</ele>
        <time>1970-01-01T04:37:28.000Z</time>
      </trkpt>
      <trkpt lat="42.633083" lon="0.655378">
        <ele>3294.6</ele>
        <time>1970-01-01T04:37:29.000Z</time>
      </trkpt>
      <trkpt lat="42.633082" lon="0.655381">
        <ele>3294.7</ele>
        <time>1970-01-01T04:37:30.000Z</time>
      </trkpt>
      <trkpt lat="42.633079" lon="0.655385">
        <ele>3294.8</ele>
        <time>1970-01-01T04:37:31.000Z</time>
      </trkpt>
      <trkpt lat="42.633076" lon="0.655389">
        <ele>3294.9</ele>
        <time>1970-01-01T04:37:32.000Z</time>
      </trkpt>
      <trkpt lat="42.633074" lon="0.655393">
        <ele>3295</ele>
        <time>1970-01-01T04:37:33.000Z</time>
      </trkpt>
      <trkpt lat="42.633072" lon="0.655398">
        <ele>3295.1</ele>
        <time>1970-01-01T04:37:34.000Z</time>
      </trkpt>
      <trkpt lat="42.633069" lon="0.655406">
        <ele>3295.3</ele>
        <time>1970-01-01T04:37:36.000Z</time>
      </trkpt>
      <trkpt lat="42.633067" lon="0.655412">
        <ele>3295.4</ele>
        <time>1970-01-01T04:37:37.000Z</time>
      </trkpt>
      <trkpt lat="42.633066" lon="0.655415">
        <ele>3295.5</ele>
        <time>1970-01-01T04:37:38.000Z</time>
      </trkpt>
      <trkpt lat="42.633065" lon="0.655419">
        <ele>3295.6</ele>
        <time>1970-01-01T04:37:39.000Z</time>
      </trkpt>
      <trkpt lat="42.633065" lon="0.655422">
        <ele>3295.6</ele>
        <time>1970-01-01T04:37:40.000Z</time>
      </trkpt>
      <trkpt lat="42.633064" lon="0.655425">
        <ele>3295.7</ele>
        <time>1970-01-01T04:37:41.000Z</time>
      </trkpt>
      <trkpt lat="42.633063" lon="0.655427">
        <ele>3295.8</ele>
        <time>1970-01-01T04:37:42.000Z</time>
      </trkpt>
      <trkpt lat="42.63306" lon="0.655433">
        <ele>3295.9</ele>
        <time>1970-01-01T04:37:43.000Z</time>
      </trkpt>
      <trkpt lat="42.633056" lon="0.655439">
        <ele>3296</ele>
        <time>1970-01-01T04:37:44.000Z</time>
      </trkpt>
      <trkpt lat="42.633053" lon="0.655442">
        <ele>3296.1</ele>
        <time>1970-01-01T04:37:45.000Z</time>
      </trkpt>
      <trkpt lat="42.63305" lon="0.655445">
        <ele>3296.2</ele>
        <time>1970-01-01T04:37:46.000Z</time>
      </trkpt>
      <trkpt lat="42.633049" lon="0.655447">
        <ele>3296.3</ele>
        <time>1970-01-01T04:37:47.000Z</time>
      </trkpt>
      <trkpt lat="42.633047" lon="0.655452">
        <ele>3296.4</ele>
        <time>1970-01-01T04:37:48.000Z</time>
      </trkpt>
      <trkpt lat="42.633046" lon="0.655456">
        <ele>3296.5</ele>
        <time>1970-01-01T04:37:49.000Z</time>
      </trkpt>
      <trkpt lat="42.633046" lon="0.655457">
        <ele>3296.5</ele>
        <time>1970-01-01T04:37:50.000Z</time>
      </trkpt>
      <trkpt lat="42.633047" lon="0.655454">
        <ele>3296.6</ele>
        <time>1970-01-01T04:37:52.000Z</time>
      </trkpt>
      <trkpt lat="42.633047" lon="0.655456">
        <ele>3296.6</ele>
        <time>1970-01-01T04:37:53.000Z</time>
      </trkpt>
      <trkpt lat="42.633046" lon="0.655458">
        <ele>3296.7</ele>
        <time>1970-01-01T04:37:54.000Z</time>
      </trkpt>
      <trkpt lat="42.633045" lon="0.655461">
        <ele>3296.7</ele>
        <time>1970-01-01T04:37:55.000Z</time>
      </trkpt>
      <trkpt lat="42.633044" lon="0.655465">
        <ele>3296.8</ele>
        <time>1970-01-01T04:37:56.000Z</time>
      </trkpt>
      <trkpt lat="42.633042" lon="0.65547">
        <ele>3296.9</ele>
        <time>1970-01-01T04:37:57.000Z</time>
      </trkpt>
      <trkpt lat="42.633041" lon="0.655475">
        <ele>3297</ele>
        <time>1970-01-01T04:37:58.000Z</time>
      </trkpt>
      <trkpt lat="42.63304" lon="0.655482">
        <ele>3297.2</ele>
        <time>1970-01-01T04:37:59.000Z</time>
      </trkpt>
      <trkpt lat="42.633041" lon="0.655489">
        <ele>3297.3</ele>
        <time>1970-01-01T04:38:00.000Z</time>
      </trkpt>
      <trkpt lat="42.63304" lon="0.655494">
        <ele>3297.4</ele>
        <time>1970-01-01T04:38:01.000Z</time>
      </trkpt>
      <trkpt lat="42.63304" lon="0.655494">
        <ele>3297.4</ele>
        <time>1970-01-01T04:38:02.000Z</time>
      </trkpt>
      <trkpt lat="42.633039" lon="0.655495">
        <ele>3297.4</ele>
        <time>1970-01-01T04:38:03.000Z</time>
      </trkpt>
      <trkpt lat="42.633038" lon="0.655497">
        <ele>3297.5</ele>
        <time>1970-01-01T04:38:04.000Z</time>
      </trkpt>
      <trkpt lat="42.633038" lon="0.655498">
        <ele>3297.5</ele>
        <time>1970-01-01T04:38:05.000Z</time>
      </trkpt>
      <trkpt lat="42.633037" lon="0.655499">
        <ele>3297.5</ele>
        <time>1970-01-01T04:38:06.000Z</time>
      </trkpt>
      <trkpt lat="42.633037" lon="0.6555">
        <ele>3297.5</ele>
        <time>1970-01-01T04:38:07.000Z</time>
      </trkpt>
      <trkpt lat="42.633036" lon="0.655502">
        <ele>3297.6</ele>
        <time>1970-01-01T04:38:08.000Z</time>
      </trkpt>
      <trkpt lat="42.633036" lon="0.655503">
        <ele>3297.6</ele>
        <time>1970-01-01T04:38:09.000Z</time>
      </trkpt>
      <trkpt lat="42.633035" lon="0.655504">
        <ele>3297.6</ele>
        <time>1970-01-01T04:38:10.000Z</time>
      </trkpt>
      <trkpt lat="42.633035" lon="0.655506">
        <ele>3297.7</ele>
        <time>1970-01-01T04:38:11.000Z</time>
      </trkpt>
      <trkpt lat="42.633034" lon="0.655507">
        <ele>3297.7</ele>
        <time>1970-01-01T04:38:12.000Z</time>
      </trkpt>
      <trkpt lat="42.633034" lon="0.655507">
        <ele>3297.7</ele>
        <time>1970-01-01T04:38:13.000Z</time>
      </trkpt>
      <trkpt lat="42.633034" lon="0.655508">
        <ele>3297.7</ele>
        <time>1970-01-01T04:38:14.000Z</time>
      </trkpt>
      <trkpt lat="42.633033" lon="0.655508">
        <ele>3297.8</ele>
        <time>1970-01-01T04:38:15.000Z</time>
      </trkpt>
      <trkpt lat="42.633034" lon="0.655505">
        <ele>3297.8</ele>
        <time>1970-01-01T04:38:16.000Z</time>
      </trkpt>
      <trkpt lat="42.633034" lon="0.655503">
        <ele>3297.9</ele>
        <time>1970-01-01T04:38:17.000Z</time>
      </trkpt>
      <trkpt lat="42.633034" lon="0.655502">
        <ele>3297.9</ele>
        <time>1970-01-01T04:38:18.000Z</time>
      </trkpt>
      <trkpt lat="42.633034" lon="0.655502">
        <ele>3297.9</ele>
        <time>1970-01-01T04:38:19.000Z</time>
      </trkpt>
      <trkpt lat="42.633034" lon="0.655502">
        <ele>3297.9</ele>
        <time>1970-01-01T04:38:20.000Z</time>
      </trkpt>
      <trkpt lat="42.633034" lon="0.655502">
        <ele>3297.9</ele>
        <time>1970-01-01T04:38:21.000Z</time>
      </trkpt>
      <trkpt lat="42.633034" lon="0.655502">
        <ele>3297.9</ele>
        <time>1970-01-01T04:38:22.000Z</time>
      </trkpt>
      <trkpt lat="42.633034" lon="0.655502">
        <ele>3297.9</ele>
        <time>1970-01-01T04:38:23.000Z</time>
      </trkpt>
      <trkpt lat="42.633034" lon="0.655502">
        <ele>3297.9</ele>
        <time>1970-01-01T04:38:24.000Z</time>
      </trkpt>
      <trkpt lat="42.633034" lon="0.655502">
        <ele>3297.9</ele>
        <time>1970-01-01T04:38:25.000Z</time>
      </trkpt>
      <trkpt lat="42.633034" lon="0.655502">
        <ele>3297.9</ele>
        <time>1970-01-01T04:38:26.000Z</time>
      </trkpt>
      <trkpt lat="42.633034" lon="0.655502">
        <ele>3297.9</ele>
        <time>1970-01-01T04:38:27.000Z</time>
      </trkpt>
      <trkpt lat="42.633034" lon="0.655502">
        <ele>3297.9</ele>
        <time>1970-01-01T04:38:28.000Z</time>
      </trkpt>
      <trkpt lat="42.633034" lon="0.655502">
        <ele>3297.9</ele>
        <time>1970-01-01T04:38:29.000Z</time>
      </trkpt>
      <trkpt lat="42.633034" lon="0.655502">
        <ele>3297.9</ele>
        <time>1970-01-01T04:38:30.000Z</time>
      </trkpt>
      <trkpt lat="42.633034" lon="0.655502">
        <ele>3297.9</ele>
        <time>1970-01-01T04:38:31.000Z</time>
      </trkpt>
      <trkpt lat="42.633034" lon="0.655502">
        <ele>3297.9</ele>
        <time>1970-01-01T04:38:32.000Z</time>
      </trkpt>
      <trkpt lat="42.633034" lon="0.655502">
        <ele>3297.9</ele>
        <time>1970-01-01T04:38:33.000Z</time>
      </trkpt>
      <trkpt lat="42.633034" lon="0.655502">
        <ele>3297.9</ele>
        <time>1970-01-01T04:38:34.000Z</time>
      </trkpt>
      <trkpt lat="42.633034" lon="0.655502">
        <ele>3297.9</ele>
        <time>1970-01-01T04:38:35.000Z</time>
      </trkpt>
      <trkpt lat="42.633034" lon="0.655502">
        <ele>3297.9</ele>
        <time>1970-01-01T04:38:36.000Z</time>
      </trkpt>
      <trkpt lat="42.633034" lon="0.655502">
        <ele>3297.9</ele>
        <time>1970-01-01T04:38:37.000Z</time>
      </trkpt>
      <trkpt lat="42.633034" lon="0.655502">
        <ele>3297.9</ele>
        <time>1970-01-01T04:38:38.000Z</time>
      </trkpt>
      <trkpt lat="42.633034" lon="0.655502">
        <ele>3297.9</ele>
        <time>1970-01-01T04:38:39.000Z</time>
      </trkpt>
      <trkpt lat="42.633034" lon="0.655502">
        <ele>3297.9</ele>
        <time>1970-01-01T04:38:40.000Z</time>
      </trkpt>
      <trkpt lat="42.633034" lon="0.655502">
        <ele>3297.9</ele>
        <time>1970-01-01T04:38:41.000Z</time>
      </trkpt>
      <trkpt lat="42.633034" lon="0.655502">
        <ele>3297.9</ele>
        <time>1970-01-01T04:38:42.000Z</time>
      </trkpt>
      <trkpt lat="42.633034" lon="0.655502">
        <ele>3297.9</ele>
        <time>1970-01-01T04:38:43.000Z</time>
      </trkpt>
      <trkpt lat="42.633034" lon="0.655502">
        <ele>3297.9</ele>
        <time>1970-01-01T04:38:44.000Z</time>
      </trkpt>
      <trkpt lat="42.633034" lon="0.655502">
        <ele>3297.9</ele>
        <time>1970-01-01T04:38:45.000Z</time>
      </trkpt>
      <trkpt lat="42.633034" lon="0.655502">
        <ele>3297.9</ele>
        <time>1970-01-01T04:38:46.000Z</time>
      </trkpt>
      <trkpt lat="42.633034" lon="0.655502">
        <ele>3297.9</ele>
        <time>1970-01-01T04:38:47.000Z</time>
      </trkpt>
      <trkpt lat="42.633034" lon="0.655502">
        <ele>3297.9</ele>
        <time>1970-01-01T04:38:48.000Z</time>
      </trkpt>
      <trkpt lat="42.633034" lon="0.655502">
        <ele>3297.9</ele>
        <time>1970-01-01T04:38:49.000Z</time>
      </trkpt>
      <trkpt lat="42.633034" lon="0.655502">
        <ele>3297.9</ele>
        <time>1970-01-01T04:38:50.000Z</time>
      </trkpt>
      <trkpt lat="42.633034" lon="0.655502">
        <ele>3297.9</ele>
        <time>1970-01-01T04:38:51.000Z</time>
      </trkpt>
      <trkpt lat="42.633034" lon="0.655502">
        <ele>3297.9</ele>
        <time>1970-01-01T04:38:52.000Z</time>
      </trkpt>
      <trkpt lat="42.633034" lon="0.655502">
        <ele>3297.9</ele>
        <time>1970-01-01T04:38:53.000Z</time>
      </trkpt>
      <trkpt lat="42.633032" lon="0.655505">
        <ele>3298</ele>
        <time>1970-01-01T04:38:54.000Z</time>
      </trkpt>
      <trkpt lat="42.63303" lon="0.655511">
        <ele>3298.1</ele>
        <time>1970-01-01T04:38:55.000Z</time>
      </trkpt>
      <trkpt lat="42.633029" lon="0.655516">
        <ele>3298.2</ele>
        <time>1970-01-01T04:38:56.000Z</time>
      </trkpt>
      <trkpt lat="42.633028" lon="0.655523">
        <ele>3298.3</ele>
        <time>1970-01-01T04:38:57.000Z</time>
      </trkpt>
      <trkpt lat="42.633026" lon="0.655532">
        <ele>3298.5</ele>
        <time>1970-01-01T04:38:58.000Z</time>
      </trkpt>
      <trkpt lat="42.633026" lon="0.655541">
        <ele>3298.7</ele>
        <time>1970-01-01T04:38:59.000Z</time>
      </trkpt>
      <trkpt lat="42.633026" lon="0.655549">
        <ele>3298.8</ele>
        <time>1970-01-01T04:39:00.000Z</time>
      </trkpt>
      <trkpt lat="42.633028" lon="0.655552">
        <ele>3298.9</ele>
        <time>1970-01-01T04:39:01.000Z</time>
      </trkpt>
      <trkpt lat="42.633031" lon="0.655553">
        <ele>3299</ele>
        <time>1970-01-01T04:39:02.000Z</time>
      </trkpt>
      <trkpt lat="42.633034" lon="0.655554">
        <ele>3299.1</ele>
        <time>1970-01-01T04:39:03.000Z</time>
      </trkpt>
      <trkpt lat="42.633037" lon="0.655557">
        <ele>3299.2</ele>
        <time>1970-01-01T04:39:04.000Z</time>
      </trkpt>
      <trkpt lat="42.63304" lon="0.655566">
        <ele>3299.4</ele>
        <time>1970-01-01T04:39:05.000Z</time>
      </trkpt>
      <trkpt lat="42.633042" lon="0.655574">
        <ele>3299.5</ele>
        <time>1970-01-01T04:39:06.000Z</time>
      </trkpt>
      <trkpt lat="42.633041" lon="0.655583">
        <ele>3299.7</ele>
        <time>1970-01-01T04:39:07.000Z</time>
      </trkpt>
      <trkpt lat="42.633038" lon="0.655587">
        <ele>3299.8</ele>
        <time>1970-01-01T04:39:08.000Z</time>
      </trkpt>
      <trkpt lat="42.633033" lon="0.655596">
        <ele>3300</ele>
        <time>1970-01-01T04:39:09.000Z</time>
      </trkpt>
      <trkpt lat="42.63303" lon="0.655605">
        <ele>3300.2</ele>
        <time>1970-01-01T04:39:10.000Z</time>
      </trkpt>
      <trkpt lat="42.633027" lon="0.655611">
        <ele>3300.4</ele>
        <time>1970-01-01T04:39:11.000Z</time>
      </trkpt>
      <trkpt lat="42.633025" lon="0.655612">
        <ele>3300.4</ele>
        <time>1970-01-01T04:39:12.000Z</time>
      </trkpt>
      <trkpt lat="42.633024" lon="0.655616">
        <ele>3300.5</ele>
        <time>1970-01-01T04:39:13.000Z</time>
      </trkpt>
      <trkpt lat="42.633025" lon="0.655624">
        <ele>3300.7</ele>
        <time>1970-01-01T04:39:15.000Z</time>
      </trkpt>
      <trkpt lat="42.633026" lon="0.655631">
        <ele>3300.8</ele>
        <time>1970-01-01T04:39:16.000Z</time>
      </trkpt>
      <trkpt lat="42.633027" lon="0.655637">
        <ele>3300.9</ele>
        <time>1970-01-01T04:39:17.000Z</time>
      </trkpt>
      <trkpt lat="42.633027" lon="0.655644">
        <ele>3301.1</ele>
        <time>1970-01-01T04:39:18.000Z</time>
      </trkpt>
      <trkpt lat="42.633027" lon="0.655648">
        <ele>3301.1</ele>
        <time>1970-01-01T04:39:19.000Z</time>
      </trkpt>
      <trkpt lat="42.633026" lon="0.655654">
        <ele>3301.3</ele>
        <time>1970-01-01T04:39:20.000Z</time>
      </trkpt>
      <trkpt lat="42.633024" lon="0.65566">
        <ele>3301.4</ele>
        <time>1970-01-01T04:39:21.000Z</time>
      </trkpt>
      <trkpt lat="42.63302" lon="0.65567">
        <ele>3301.6</ele>
        <time>1970-01-01T04:39:23.000Z</time>
      </trkpt>
      <trkpt lat="42.633018" lon="0.655679">
        <ele>3301.8</ele>
        <time>1970-01-01T04:39:24.000Z</time>
      </trkpt>
      <trkpt lat="42.633016" lon="0.655686">
        <ele>3301.9</ele>
        <time>1970-01-01T04:39:25.000Z</time>
      </trkpt>
      <trkpt lat="42.633015" lon="0.655692">
        <ele>3302.1</ele>
        <time>1970-01-01T04:39:26.000Z</time>
      </trkpt>
      <trkpt lat="42.633012" lon="0.655704">
        <ele>3302.3</ele>
        <time>1970-01-01T04:39:28.000Z</time>
      </trkpt>
      <trkpt lat="42.633011" lon="0.655708">
        <ele>3302.4</ele>
        <time>1970-01-01T04:39:29.000Z</time>
      </trkpt>
      <trkpt lat="42.63301" lon="0.655711">
        <ele>3302.5</ele>
        <time>1970-01-01T04:39:30.000Z</time>
      </trkpt>
      <trkpt lat="42.633009" lon="0.65571">
        <ele>3302.5</ele>
        <time>1970-01-01T04:39:31.000Z</time>
      </trkpt>
      <trkpt lat="42.633009" lon="0.655709">
        <ele>3302.5</ele>
        <time>1970-01-01T04:39:32.000Z</time>
      </trkpt>
      <trkpt lat="42.633009" lon="0.655708">
        <ele>3302.5</ele>
        <time>1970-01-01T04:39:33.000Z</time>
      </trkpt>
      <trkpt lat="42.633008" lon="0.655707">
        <ele>3302.6</ele>
        <time>1970-01-01T04:39:34.000Z</time>
      </trkpt>
      <trkpt lat="42.633007" lon="0.655706">
        <ele>3302.6</ele>
        <time>1970-01-01T04:39:36.000Z</time>
      </trkpt>
      <trkpt lat="42.633006" lon="0.655709">
        <ele>3302.7</ele>
        <time>1970-01-01T04:39:37.000Z</time>
      </trkpt>
      <trkpt lat="42.633005" lon="0.655713">
        <ele>3302.7</ele>
        <time>1970-01-01T04:39:38.000Z</time>
      </trkpt>
      <trkpt lat="42.633007" lon="0.655716">
        <ele>3302.8</ele>
        <time>1970-01-01T04:39:39.000Z</time>
      </trkpt>
      <trkpt lat="42.633008" lon="0.655718">
        <ele>3302.9</ele>
        <time>1970-01-01T04:39:40.000Z</time>
      </trkpt>
      <trkpt lat="42.63301" lon="0.655721">
        <ele>3302.9</ele>
        <time>1970-01-01T04:39:41.000Z</time>
      </trkpt>
      <trkpt lat="42.633012" lon="0.655722">
        <ele>3303</ele>
        <time>1970-01-01T04:39:42.000Z</time>
      </trkpt>
      <trkpt lat="42.633017" lon="0.655727">
        <ele>3303.2</ele>
        <time>1970-01-01T04:39:43.000Z</time>
      </trkpt>
      <trkpt lat="42.63302" lon="0.655729">
        <ele>3303.3</ele>
        <time>1970-01-01T04:39:44.000Z</time>
      </trkpt>
      <trkpt lat="42.633023" lon="0.655731">
        <ele>3303.3</ele>
        <time>1970-01-01T04:39:45.000Z</time>
      </trkpt>
      <trkpt lat="42.633026" lon="0.655733">
        <ele>3303.4</ele>
        <time>1970-01-01T04:39:46.000Z</time>
      </trkpt>
      <trkpt lat="42.633029" lon="0.655735">
        <ele>3303.5</ele>
        <time>1970-01-01T04:39:47.000Z</time>
      </trkpt>
      <trkpt lat="42.633031" lon="0.655737">
        <ele>3303.6</ele>
        <time>1970-01-01T04:39:48.000Z</time>
      </trkpt>
      <trkpt lat="42.63303" lon="0.655742">
        <ele>3303.7</ele>
        <time>1970-01-01T04:39:50.000Z</time>
      </trkpt>
      <trkpt lat="42.633029" lon="0.655745">
        <ele>3303.7</ele>
        <time>1970-01-01T04:39:51.000Z</time>
      </trkpt>
      <trkpt lat="42.633028" lon="0.655745">
        <ele>3303.8</ele>
        <time>1970-01-01T04:39:52.000Z</time>
      </trkpt>
      <trkpt lat="42.633026" lon="0.655746">
        <ele>3303.8</ele>
        <time>1970-01-01T04:39:54.000Z</time>
      </trkpt>
      <trkpt lat="42.633025" lon="0.65575">
        <ele>3303.9</ele>
        <time>1970-01-01T04:39:55.000Z</time>
      </trkpt>
      <trkpt lat="42.633025" lon="0.655753">
        <ele>3304</ele>
        <time>1970-01-01T04:39:57.000Z</time>
      </trkpt>
      <trkpt lat="42.633026" lon="0.655756">
        <ele>3304</ele>
        <time>1970-01-01T04:39:58.000Z</time>
      </trkpt>
      <trkpt lat="42.633025" lon="0.655759">
        <ele>3304.1</ele>
        <time>1970-01-01T04:39:59.000Z</time>
      </trkpt>
      <trkpt lat="42.633025" lon="0.655762">
        <ele>3304.2</ele>
        <time>1970-01-01T04:40:00.000Z</time>
      </trkpt>
      <trkpt lat="42.633025" lon="0.655762">
        <ele>3304.2</ele>
        <time>1970-01-01T04:40:01.000Z</time>
      </trkpt>
      <trkpt lat="42.633025" lon="0.655763">
        <ele>3304.2</ele>
        <time>1970-01-01T04:40:02.000Z</time>
      </trkpt>
      <trkpt lat="42.633024" lon="0.655763">
        <ele>3304.2</ele>
        <time>1970-01-01T04:40:03.000Z</time>
      </trkpt>
      <trkpt lat="42.633024" lon="0.655763">
        <ele>3304.2</ele>
        <time>1970-01-01T04:40:04.000Z</time>
      </trkpt>
      <trkpt lat="42.633024" lon="0.655764">
        <ele>3304.2</ele>
        <time>1970-01-01T04:40:05.000Z</time>
      </trkpt>
      <trkpt lat="42.633024" lon="0.655765">
        <ele>3304.2</ele>
        <time>1970-01-01T04:40:06.000Z</time>
      </trkpt>
      <trkpt lat="42.633024" lon="0.655767">
        <ele>3304.3</ele>
        <time>1970-01-01T04:40:07.000Z</time>
      </trkpt>
      <trkpt lat="42.633023" lon="0.655768">
        <ele>3304.3</ele>
        <time>1970-01-01T04:40:08.000Z</time>
      </trkpt>
      <trkpt lat="42.633023" lon="0.655769">
        <ele>3304.3</ele>
        <time>1970-01-01T04:40:09.000Z</time>
      </trkpt>
      <trkpt lat="42.633023" lon="0.655771">
        <ele>3304.4</ele>
        <time>1970-01-01T04:40:10.000Z</time>
      </trkpt>
      <trkpt lat="42.633021" lon="0.655776">
        <ele>3304.5</ele>
        <time>1970-01-01T04:40:12.000Z</time>
      </trkpt>
      <trkpt lat="42.633018" lon="0.655776">
        <ele>3304.6</ele>
        <time>1970-01-01T04:40:13.000Z</time>
      </trkpt>
      <trkpt lat="42.633016" lon="0.655776">
        <ele>3304.6</ele>
        <time>1970-01-01T04:40:14.000Z</time>
      </trkpt>
      <trkpt lat="42.633015" lon="0.655775">
        <ele>3304.6</ele>
        <time>1970-01-01T04:40:15.000Z</time>
      </trkpt>
      <trkpt lat="42.633015" lon="0.655774">
        <ele>3304.7</ele>
        <time>1970-01-01T04:40:16.000Z</time>
      </trkpt>
      <trkpt lat="42.633013" lon="0.655773">
        <ele>3304.7</ele>
        <time>1970-01-01T04:40:17.000Z</time>
      </trkpt>
      <trkpt lat="42.63301" lon="0.655774">
        <ele>3304.8</ele>
        <time>1970-01-01T04:40:18.000Z</time>
      </trkpt>
      <trkpt lat="42.633005" lon="0.655774">
        <ele>3304.9</ele>
        <time>1970-01-01T04:40:19.000Z</time>
      </trkpt>
      <trkpt lat="42.632999" lon="0.655778">
        <ele>3305.1</ele>
        <time>1970-01-01T04:40:20.000Z</time>
      </trkpt>
      <trkpt lat="42.632991" lon="0.655787">
        <ele>3305.4</ele>
        <time>1970-01-01T04:40:22.000Z</time>
      </trkpt>
      <trkpt lat="42.632984" lon="0.655792">
        <ele>3305.6</ele>
        <time>1970-01-01T04:40:23.000Z</time>
      </trkpt>
      <trkpt lat="42.632975" lon="0.6558">
        <ele>3305.9</ele>
        <time>1970-01-01T04:40:25.000Z</time>
      </trkpt>
      <trkpt lat="42.63297" lon="0.655805">
        <ele>3306</ele>
        <time>1970-01-01T04:40:26.000Z</time>
      </trkpt>
      <trkpt lat="42.632966" lon="0.655809">
        <ele>3306.2</ele>
        <time>1970-01-01T04:40:27.000Z</time>
      </trkpt>
      <trkpt lat="42.632962" lon="0.655813">
        <ele>3306.3</ele>
        <time>1970-01-01T04:40:28.000Z</time>
      </trkpt>
      <trkpt lat="42.632958" lon="0.655817">
        <ele>3306.4</ele>
        <time>1970-01-01T04:40:29.000Z</time>
      </trkpt>
      <trkpt lat="42.632954" lon="0.655822">
        <ele>3306.6</ele>
        <time>1970-01-01T04:40:30.000Z</time>
      </trkpt>
      <trkpt lat="42.63295" lon="0.655828">
        <ele>3306.7</ele>
        <time>1970-01-01T04:40:31.000Z</time>
      </trkpt>
      <trkpt lat="42.632948" lon="0.655832">
        <ele>3306.8</ele>
        <time>1970-01-01T04:40:32.000Z</time>
      </trkpt>
      <trkpt lat="42.632944" lon="0.655838">
        <ele>3307</ele>
        <time>1970-01-01T04:40:33.000Z</time>
      </trkpt>
      <trkpt lat="42.63294" lon="0.655842">
        <ele>3307.1</ele>
        <time>1970-01-01T04:40:34.000Z</time>
      </trkpt>
      <trkpt lat="42.632938" lon="0.655846">
        <ele>3307.2</ele>
        <time>1970-01-01T04:40:35.000Z</time>
      </trkpt>
      <trkpt lat="42.632936" lon="0.655849">
        <ele>3307.3</ele>
        <time>1970-01-01T04:40:36.000Z</time>
      </trkpt>
      <trkpt lat="42.632933" lon="0.655852">
        <ele>3307.4</ele>
        <time>1970-01-01T04:40:37.000Z</time>
      </trkpt>
      <trkpt lat="42.632932" lon="0.655853">
        <ele>3307.4</ele>
        <time>1970-01-01T04:40:38.000Z</time>
      </trkpt>
      <trkpt lat="42.63293" lon="0.655855">
        <ele>3307.5</ele>
        <time>1970-01-01T04:40:39.000Z</time>
      </trkpt>
      <trkpt lat="42.632924" lon="0.655861">
        <ele>3307.7</ele>
        <time>1970-01-01T04:40:41.000Z</time>
      </trkpt>
      <trkpt lat="42.632922" lon="0.655863">
        <ele>3307.8</ele>
        <time>1970-01-01T04:40:42.000Z</time>
      </trkpt>
      <trkpt lat="42.632916" lon="0.655867">
        <ele>3307.9</ele>
        <time>1970-01-01T04:40:43.000Z</time>
      </trkpt>
      <trkpt lat="42.63291" lon="0.655873">
        <ele>3308.1</ele>
        <time>1970-01-01T04:40:44.000Z</time>
      </trkpt>
      <trkpt lat="42.632905" lon="0.655879">
        <ele>3308.3</ele>
        <time>1970-01-01T04:40:45.000Z</time>
      </trkpt>
      <trkpt lat="42.632899" lon="0.655885">
        <ele>3308.5</ele>
        <time>1970-01-01T04:40:46.000Z</time>
      </trkpt>
      <trkpt lat="42.632891" lon="0.655896">
        <ele>3308.8</ele>
        <time>1970-01-01T04:40:48.000Z</time>
      </trkpt>
      <trkpt lat="42.632883" lon="0.655902">
        <ele>3309</ele>
        <time>1970-01-01T04:40:50.000Z</time>
      </trkpt>
      <trkpt lat="42.632879" lon="0.655904">
        <ele>3309.2</ele>
        <time>1970-01-01T04:40:51.000Z</time>
      </trkpt>
      <trkpt lat="42.632877" lon="0.655902">
        <ele>3309.2</ele>
        <time>1970-01-01T04:40:52.000Z</time>
      </trkpt>
      <trkpt lat="42.632875" lon="0.655899">
        <ele>3309.3</ele>
        <time>1970-01-01T04:40:53.000Z</time>
      </trkpt>
      <trkpt lat="42.632873" lon="0.655896">
        <ele>3309.4</ele>
        <time>1970-01-01T04:40:54.000Z</time>
      </trkpt>
      <trkpt lat="42.632872" lon="0.655894">
        <ele>3309.4</ele>
        <time>1970-01-01T04:40:55.000Z</time>
      </trkpt>
      <trkpt lat="42.63287" lon="0.655892">
        <ele>3309.5</ele>
        <time>1970-01-01T04:40:56.000Z</time>
      </trkpt>
      <trkpt lat="42.632868" lon="0.655891">
        <ele>3309.5</ele>
        <time>1970-01-01T04:40:57.000Z</time>
      </trkpt>
      <trkpt lat="42.632865" lon="0.655891">
        <ele>3309.6</ele>
        <time>1970-01-01T04:40:58.000Z</time>
      </trkpt>
      <trkpt lat="42.632862" lon="0.65589">
        <ele>3309.7</ele>
        <time>1970-01-01T04:40:59.000Z</time>
      </trkpt>
      <trkpt lat="42.632859" lon="0.655891">
        <ele>3309.8</ele>
        <time>1970-01-01T04:41:00.000Z</time>
      </trkpt>
      <trkpt lat="42.632856" lon="0.655893">
        <ele>3309.9</ele>
        <time>1970-01-01T04:41:01.000Z</time>
      </trkpt>
      <trkpt lat="42.632854" lon="0.655897">
        <ele>3310</ele>
        <time>1970-01-01T04:41:02.000Z</time>
      </trkpt>
      <trkpt lat="42.63285" lon="0.655905">
        <ele>3310.2</ele>
        <time>1970-01-01T04:41:04.000Z</time>
      </trkpt>
      <trkpt lat="42.632847" lon="0.655909">
        <ele>3310.3</ele>
        <time>1970-01-01T04:41:05.000Z</time>
      </trkpt>
      <trkpt lat="42.632844" lon="0.655913">
        <ele>3310.4</ele>
        <time>1970-01-01T04:41:06.000Z</time>
      </trkpt>
      <trkpt lat="42.632841" lon="0.655915">
        <ele>3310.5</ele>
        <time>1970-01-01T04:41:07.000Z</time>
      </trkpt>
      <trkpt lat="42.632836" lon="0.655917">
        <ele>3310.6</ele>
        <time>1970-01-01T04:41:08.000Z</time>
      </trkpt>
      <trkpt lat="42.632834" lon="0.655917">
        <ele>3310.7</ele>
        <time>1970-01-01T04:41:09.000Z</time>
      </trkpt>
      <trkpt lat="42.632833" lon="0.655915">
        <ele>3310.7</ele>
        <time>1970-01-01T04:41:10.000Z</time>
      </trkpt>
      <trkpt lat="42.632833" lon="0.655914">
        <ele>3310.7</ele>
        <time>1970-01-01T04:41:11.000Z</time>
      </trkpt>
      <trkpt lat="42.632831" lon="0.655914">
        <ele>3310.8</ele>
        <time>1970-01-01T04:41:12.000Z</time>
      </trkpt>
      <trkpt lat="42.632828" lon="0.655916">
        <ele>3310.9</ele>
        <time>1970-01-01T04:41:13.000Z</time>
      </trkpt>
      <trkpt lat="42.632823" lon="0.655919">
        <ele>3311</ele>
        <time>1970-01-01T04:41:14.000Z</time>
      </trkpt>
      <trkpt lat="42.632817" lon="0.655921">
        <ele>3311.2</ele>
        <time>1970-01-01T04:41:15.000Z</time>
      </trkpt>
      <trkpt lat="42.632812" lon="0.655922">
        <ele>3311.3</ele>
        <time>1970-01-01T04:41:16.000Z</time>
      </trkpt>
      <trkpt lat="42.632806" lon="0.655924">
        <ele>3311.5</ele>
        <time>1970-01-01T04:41:17.000Z</time>
      </trkpt>
      <trkpt lat="42.632797" lon="0.655924">
        <ele>3311.7</ele>
        <time>1970-01-01T04:41:19.000Z</time>
      </trkpt>
      <trkpt lat="42.632791" lon="0.655924">
        <ele>3311.9</ele>
        <time>1970-01-01T04:41:20.000Z</time>
      </trkpt>
      <trkpt lat="42.632784" lon="0.655923">
        <ele>3312.1</ele>
        <time>1970-01-01T04:41:21.000Z</time>
      </trkpt>
      <trkpt lat="42.632779" lon="0.655923">
        <ele>3312.2</ele>
        <time>1970-01-01T04:41:22.000Z</time>
      </trkpt>
      <trkpt lat="42.632773" lon="0.655922">
        <ele>3312.3</ele>
        <time>1970-01-01T04:41:23.000Z</time>
      </trkpt>
      <trkpt lat="42.632768" lon="0.65592">
        <ele>3312.5</ele>
        <time>1970-01-01T04:41:24.000Z</time>
      </trkpt>
      <trkpt lat="42.632763" lon="0.655921">
        <ele>3312.6</ele>
        <time>1970-01-01T04:41:26.000Z</time>
      </trkpt>
      <trkpt lat="42.632758" lon="0.655923">
        <ele>3312.8</ele>
        <time>1970-01-01T04:41:27.000Z</time>
      </trkpt>
      <trkpt lat="42.632753" lon="0.655925">
        <ele>3312.9</ele>
        <time>1970-01-01T04:41:28.000Z</time>
      </trkpt>
      <trkpt lat="42.632747" lon="0.655928">
        <ele>3313.1</ele>
        <time>1970-01-01T04:41:29.000Z</time>
      </trkpt>
      <trkpt lat="42.632742" lon="0.655932">
        <ele>3313.2</ele>
        <time>1970-01-01T04:41:30.000Z</time>
      </trkpt>
      <trkpt lat="42.63274" lon="0.655938">
        <ele>3313.3</ele>
        <time>1970-01-01T04:41:31.000Z</time>
      </trkpt>
      <trkpt lat="42.63274" lon="0.65594">
        <ele>3313.4</ele>
        <time>1970-01-01T04:41:32.000Z</time>
      </trkpt>
      <trkpt lat="42.632739" lon="0.655941">
        <ele>3313.4</ele>
        <time>1970-01-01T04:41:33.000Z</time>
      </trkpt>
      <trkpt lat="42.632736" lon="0.655941">
        <ele>3313.5</ele>
        <time>1970-01-01T04:41:34.000Z</time>
      </trkpt>
      <trkpt lat="42.632734" lon="0.655942">
        <ele>3313.6</ele>
        <time>1970-01-01T04:41:35.000Z</time>
      </trkpt>
      <trkpt lat="42.632732" lon="0.655942">
        <ele>3313.6</ele>
        <time>1970-01-01T04:41:36.000Z</time>
      </trkpt>
      <trkpt lat="42.632729" lon="0.655943">
        <ele>3313.7</ele>
        <time>1970-01-01T04:41:37.000Z</time>
      </trkpt>
      <trkpt lat="42.632727" lon="0.655943">
        <ele>3313.7</ele>
        <time>1970-01-01T04:41:38.000Z</time>
      </trkpt>
      <trkpt lat="42.632723" lon="0.655943">
        <ele>3313.8</ele>
        <time>1970-01-01T04:41:39.000Z</time>
      </trkpt>
      <trkpt lat="42.632717" lon="0.655943">
        <ele>3314</ele>
        <time>1970-01-01T04:41:40.000Z</time>
      </trkpt>
      <trkpt lat="42.632713" lon="0.655943">
        <ele>3314.1</ele>
        <time>1970-01-01T04:41:41.000Z</time>
      </trkpt>
      <trkpt lat="42.632707" lon="0.655943">
        <ele>3314.3</ele>
        <time>1970-01-01T04:41:43.000Z</time>
      </trkpt>
      <trkpt lat="42.632703" lon="0.655944">
        <ele>3314.4</ele>
        <time>1970-01-01T04:41:44.000Z</time>
      </trkpt>
      <trkpt lat="42.632701" lon="0.655945">
        <ele>3314.4</ele>
        <time>1970-01-01T04:41:45.000Z</time>
      </trkpt>
      <trkpt lat="42.632699" lon="0.655944">
        <ele>3314.5</ele>
        <time>1970-01-01T04:41:46.000Z</time>
      </trkpt>
      <trkpt lat="42.632698" lon="0.655943">
        <ele>3314.5</ele>
        <time>1970-01-01T04:41:47.000Z</time>
      </trkpt>
      <trkpt lat="42.632695" lon="0.655938">
        <ele>3314.6</ele>
        <time>1970-01-01T04:41:49.000Z</time>
      </trkpt>
      <trkpt lat="42.632691" lon="0.655936">
        <ele>3314.8</ele>
        <time>1970-01-01T04:41:50.000Z</time>
      </trkpt>
      <trkpt lat="42.632692" lon="0.655934">
        <ele>3314.8</ele>
        <time>1970-01-01T04:41:51.000Z</time>
      </trkpt>
      <trkpt lat="42.632693" lon="0.655933">
        <ele>3314.8</ele>
        <time>1970-01-01T04:41:52.000Z</time>
      </trkpt>
      <trkpt lat="42.632691" lon="0.655931">
        <ele>3314.9</ele>
        <time>1970-01-01T04:41:54.000Z</time>
      </trkpt>
      <trkpt lat="42.632689" lon="0.655929">
        <ele>3315</ele>
        <time>1970-01-01T04:41:55.000Z</time>
      </trkpt>
      <trkpt lat="42.632686" lon="0.655927">
        <ele>3315.1</ele>
        <time>1970-01-01T04:41:56.000Z</time>
      </trkpt>
      <trkpt lat="42.632683" lon="0.655926">
        <ele>3315.1</ele>
        <time>1970-01-01T04:41:57.000Z</time>
      </trkpt>
      <trkpt lat="42.632678" lon="0.655925">
        <ele>3315.3</ele>
        <time>1970-01-01T04:41:58.000Z</time>
      </trkpt>
      <trkpt lat="42.632669" lon="0.655928">
        <ele>3315.5</ele>
        <time>1970-01-01T04:42:00.000Z</time>
      </trkpt>
      <trkpt lat="42.632665" lon="0.655933">
        <ele>3315.7</ele>
        <time>1970-01-01T04:42:01.000Z</time>
      </trkpt>
      <trkpt lat="42.632663" lon="0.655939">
        <ele>3315.8</ele>
        <time>1970-01-01T04:42:02.000Z</time>
      </trkpt>
      <trkpt lat="42.632662" lon="0.655946">
        <ele>3315.9</ele>
        <time>1970-01-01T04:42:03.000Z</time>
      </trkpt>
      <trkpt lat="42.632662" lon="0.655954">
        <ele>3316.1</ele>
        <time>1970-01-01T04:42:04.000Z</time>
      </trkpt>
      <trkpt lat="42.632663" lon="0.655961">
        <ele>3316.2</ele>
        <time>1970-01-01T04:42:05.000Z</time>
      </trkpt>
      <trkpt lat="42.632664" lon="0.655975">
        <ele>3316.5</ele>
        <time>1970-01-01T04:42:07.000Z</time>
      </trkpt>
      <trkpt lat="42.632665" lon="0.655984">
        <ele>3316.7</ele>
        <time>1970-01-01T04:42:08.000Z</time>
      </trkpt>
      <trkpt lat="42.632665" lon="0.65599">
        <ele>3316.8</ele>
        <time>1970-01-01T04:42:09.000Z</time>
      </trkpt>
      <trkpt lat="42.632665" lon="0.656">
        <ele>3317</ele>
        <time>1970-01-01T04:42:11.000Z</time>
      </trkpt>
      <trkpt lat="42.632665" lon="0.656006">
        <ele>3317.1</ele>
        <time>1970-01-01T04:42:12.000Z</time>
      </trkpt>
      <trkpt lat="42.632665" lon="0.656011">
        <ele>3317.2</ele>
        <time>1970-01-01T04:42:13.000Z</time>
      </trkpt>
      <trkpt lat="42.632665" lon="0.656015">
        <ele>3317.3</ele>
        <time>1970-01-01T04:42:14.000Z</time>
      </trkpt>
      <trkpt lat="42.632665" lon="0.656021">
        <ele>3317.4</ele>
        <time>1970-01-01T04:42:15.000Z</time>
      </trkpt>
      <trkpt lat="42.632664" lon="0.656027">
        <ele>3317.5</ele>
        <time>1970-01-01T04:42:16.000Z</time>
      </trkpt>
      <trkpt lat="42.632664" lon="0.656032">
        <ele>3317.6</ele>
        <time>1970-01-01T04:42:17.000Z</time>
      </trkpt>
      <trkpt lat="42.632663" lon="0.656036">
        <ele>3317.7</ele>
        <time>1970-01-01T04:42:18.000Z</time>
      </trkpt>
      <trkpt lat="42.632663" lon="0.656041">
        <ele>3317.8</ele>
        <time>1970-01-01T04:42:19.000Z</time>
      </trkpt>
      <trkpt lat="42.632662" lon="0.656051">
        <ele>3318</ele>
        <time>1970-01-01T04:42:20.000Z</time>
      </trkpt>
      <trkpt lat="42.632661" lon="0.656058">
        <ele>3318.1</ele>
        <time>1970-01-01T04:42:21.000Z</time>
      </trkpt>
      <trkpt lat="42.632661" lon="0.656064">
        <ele>3318.2</ele>
        <time>1970-01-01T04:42:22.000Z</time>
      </trkpt>
      <trkpt lat="42.632661" lon="0.656072">
        <ele>3318.4</ele>
        <time>1970-01-01T04:42:23.000Z</time>
      </trkpt>
      <trkpt lat="42.632661" lon="0.65608">
        <ele>3318.5</ele>
        <time>1970-01-01T04:42:24.000Z</time>
      </trkpt>
      <trkpt lat="42.632661" lon="0.656089">
        <ele>3318.7</ele>
        <time>1970-01-01T04:42:25.000Z</time>
      </trkpt>
      <trkpt lat="42.632661" lon="0.656097">
        <ele>3318.9</ele>
        <time>1970-01-01T04:42:26.000Z</time>
      </trkpt>
      <trkpt lat="42.63266" lon="0.656104">
        <ele>3319</ele>
        <time>1970-01-01T04:42:27.000Z</time>
      </trkpt>
      <trkpt lat="42.63266" lon="0.65611">
        <ele>3319.1</ele>
        <time>1970-01-01T04:42:28.000Z</time>
      </trkpt>
      <trkpt lat="42.63266" lon="0.656115">
        <ele>3319.2</ele>
        <time>1970-01-01T04:42:29.000Z</time>
      </trkpt>
      <trkpt lat="42.632659" lon="0.656116">
        <ele>3319.3</ele>
        <time>1970-01-01T04:42:30.000Z</time>
      </trkpt>
      <trkpt lat="42.632659" lon="0.656115">
        <ele>3319.3</ele>
        <time>1970-01-01T04:42:31.000Z</time>
      </trkpt>
      <trkpt lat="42.632658" lon="0.656117">
        <ele>3319.3</ele>
        <time>1970-01-01T04:42:32.000Z</time>
      </trkpt>
      <trkpt lat="42.632658" lon="0.65612">
        <ele>3319.4</ele>
        <time>1970-01-01T04:42:33.000Z</time>
      </trkpt>
      <trkpt lat="42.632658" lon="0.656122">
        <ele>3319.4</ele>
        <time>1970-01-01T04:42:34.000Z</time>
      </trkpt>
      <trkpt lat="42.632658" lon="0.656127">
        <ele>3319.5</ele>
        <time>1970-01-01T04:42:35.000Z</time>
      </trkpt>
      <trkpt lat="42.632658" lon="0.656136">
        <ele>3319.7</ele>
        <time>1970-01-01T04:42:36.000Z</time>
      </trkpt>
      <trkpt lat="42.632658" lon="0.656142">
        <ele>3319.8</ele>
        <time>1970-01-01T04:42:37.000Z</time>
      </trkpt>
      <trkpt lat="42.632655" lon="0.656152">
        <ele>3320</ele>
        <time>1970-01-01T04:42:39.000Z</time>
      </trkpt>
      <trkpt lat="42.632653" lon="0.656158">
        <ele>3320.2</ele>
        <time>1970-01-01T04:42:40.000Z</time>
      </trkpt>
      <trkpt lat="42.632646" lon="0.65617">
        <ele>3320.5</ele>
        <time>1970-01-01T04:42:42.000Z</time>
      </trkpt>
      <trkpt lat="42.632643" lon="0.656173">
        <ele>3320.6</ele>
        <time>1970-01-01T04:42:43.000Z</time>
      </trkpt>
      <trkpt lat="42.632639" lon="0.656176">
        <ele>3320.7</ele>
        <time>1970-01-01T04:42:44.000Z</time>
      </trkpt>
      <trkpt lat="42.632635" lon="0.65618">
        <ele>3320.8</ele>
        <time>1970-01-01T04:42:45.000Z</time>
      </trkpt>
      <trkpt lat="42.632631" lon="0.65618">
        <ele>3320.9</ele>
        <time>1970-01-01T04:42:47.000Z</time>
      </trkpt>
      <trkpt lat="42.632628" lon="0.656181">
        <ele>3321</ele>
        <time>1970-01-01T04:42:48.000Z</time>
      </trkpt>
      <trkpt lat="42.632623" lon="0.656184">
        <ele>3321.1</ele>
        <time>1970-01-01T04:42:50.000Z</time>
      </trkpt>
      <trkpt lat="42.632622" lon="0.656185">
        <ele>3321.2</ele>
        <time>1970-01-01T04:42:51.000Z</time>
      </trkpt>
      <trkpt lat="42.632621" lon="0.656186">
        <ele>3321.2</ele>
        <time>1970-01-01T04:42:52.000Z</time>
      </trkpt>
      <trkpt lat="42.632619" lon="0.656188">
        <ele>3321.3</ele>
        <time>1970-01-01T04:42:53.000Z</time>
      </trkpt>
      <trkpt lat="42.632617" lon="0.656189">
        <ele>3321.3</ele>
        <time>1970-01-01T04:42:54.000Z</time>
      </trkpt>
      <trkpt lat="42.632614" lon="0.656194">
        <ele>3321.4</ele>
        <time>1970-01-01T04:42:56.000Z</time>
      </trkpt>
      <trkpt lat="42.632608" lon="0.656204">
        <ele>3321.7</ele>
        <time>1970-01-01T04:42:58.000Z</time>
      </trkpt>
      <trkpt lat="42.6326" lon="0.656218">
        <ele>3322</ele>
        <time>1970-01-01T04:43:00.000Z</time>
      </trkpt>
      <trkpt lat="42.632596" lon="0.656224">
        <ele>3322.2</ele>
        <time>1970-01-01T04:43:01.000Z</time>
      </trkpt>
      <trkpt lat="42.632591" lon="0.656229">
        <ele>3322.4</ele>
        <time>1970-01-01T04:43:02.000Z</time>
      </trkpt>
      <trkpt lat="42.632588" lon="0.656234">
        <ele>3322.5</ele>
        <time>1970-01-01T04:43:03.000Z</time>
      </trkpt>
      <trkpt lat="42.632586" lon="0.656237">
        <ele>3322.6</ele>
        <time>1970-01-01T04:43:04.000Z</time>
      </trkpt>
      <trkpt lat="42.632585" lon="0.656238">
        <ele>3322.6</ele>
        <time>1970-01-01T04:43:05.000Z</time>
      </trkpt>
      <trkpt lat="42.632584" lon="0.656238">
        <ele>3322.6</ele>
        <time>1970-01-01T04:43:06.000Z</time>
      </trkpt>
      <trkpt lat="42.632582" lon="0.656242">
        <ele>3322.7</ele>
        <time>1970-01-01T04:43:07.000Z</time>
      </trkpt>
      <trkpt lat="42.632578" lon="0.656248">
        <ele>3322.9</ele>
        <time>1970-01-01T04:43:09.000Z</time>
      </trkpt>
      <trkpt lat="42.632574" lon="0.656252">
        <ele>3323</ele>
        <time>1970-01-01T04:43:10.000Z</time>
      </trkpt>
      <trkpt lat="42.632571" lon="0.656254">
        <ele>3323.1</ele>
        <time>1970-01-01T04:43:11.000Z</time>
      </trkpt>
      <trkpt lat="42.632567" lon="0.656258">
        <ele>3323.2</ele>
        <time>1970-01-01T04:43:12.000Z</time>
      </trkpt>
      <trkpt lat="42.632562" lon="0.656262">
        <ele>3323.4</ele>
        <time>1970-01-01T04:43:13.000Z</time>
      </trkpt>
      <trkpt lat="42.632557" lon="0.656265">
        <ele>3323.5</ele>
        <time>1970-01-01T04:43:14.000Z</time>
      </trkpt>
      <trkpt lat="42.632553" lon="0.656266">
        <ele>3323.6</ele>
        <time>1970-01-01T04:43:15.000Z</time>
      </trkpt>
      <trkpt lat="42.632547" lon="0.656271">
        <ele>3323.8</ele>
        <time>1970-01-01T04:43:17.000Z</time>
      </trkpt>
      <trkpt lat="42.63255" lon="0.656271">
        <ele>3323.9</ele>
        <time>1970-01-01T04:43:18.000Z</time>
      </trkpt>
      <trkpt lat="42.632552" lon="0.656269">
        <ele>3324</ele>
        <time>1970-01-01T04:43:19.000Z</time>
      </trkpt>
      <trkpt lat="42.632554" lon="0.656268">
        <ele>3324</ele>
        <time>1970-01-01T04:43:20.000Z</time>
      </trkpt>
      <trkpt lat="42.632556" lon="0.656268">
        <ele>3324.1</ele>
        <time>1970-01-01T04:43:21.000Z</time>
      </trkpt>
      <trkpt lat="42.632555" lon="0.656271">
        <ele>3324.1</ele>
        <time>1970-01-01T04:43:22.000Z</time>
      </trkpt>
      <trkpt lat="42.632552" lon="0.656277">
        <ele>3324.3</ele>
        <time>1970-01-01T04:43:23.000Z</time>
      </trkpt>
      <trkpt lat="42.63255" lon="0.656281">
        <ele>3324.4</ele>
        <time>1970-01-01T04:43:24.000Z</time>
      </trkpt>
      <trkpt lat="42.632549" lon="0.656284">
        <ele>3324.4</ele>
        <time>1970-01-01T04:43:25.000Z</time>
      </trkpt>
      <trkpt lat="42.632549" lon="0.656284">
        <ele>3324.4</ele>
        <time>1970-01-01T04:43:26.000Z</time>
      </trkpt>
      <trkpt lat="42.632549" lon="0.656284">
        <ele>3324.4</ele>
        <time>1970-01-01T04:43:27.000Z</time>
      </trkpt>
      <trkpt lat="42.632546" lon="0.656285">
        <ele>3324.5</ele>
        <time>1970-01-01T04:43:28.000Z</time>
      </trkpt>
      <trkpt lat="42.632539" lon="0.65629">
        <ele>3324.7</ele>
        <time>1970-01-01T04:43:30.000Z</time>
      </trkpt>
      <trkpt lat="42.632534" lon="0.656293">
        <ele>3324.9</ele>
        <time>1970-01-01T04:43:31.000Z</time>
      </trkpt>
      <trkpt lat="42.632527" lon="0.656297">
        <ele>3325.1</ele>
        <time>1970-01-01T04:43:32.000Z</time>
      </trkpt>
      <trkpt lat="42.632522" lon="0.656301">
        <ele>3325.2</ele>
        <time>1970-01-01T04:43:34.000Z</time>
      </trkpt>
      <trkpt lat="42.632521" lon="0.656301">
        <ele>3325.3</ele>
        <time>1970-01-01T04:43:35.000Z</time>
      </trkpt>
      <trkpt lat="42.63252" lon="0.656305">
        <ele>3325.3</ele>
        <time>1970-01-01T04:43:36.000Z</time>
      </trkpt>
      <trkpt lat="42.632519" lon="0.656307">
        <ele>3325.4</ele>
        <time>1970-01-01T04:43:37.000Z</time>
      </trkpt>
      <trkpt lat="42.632516" lon="0.656311">
        <ele>3325.5</ele>
        <time>1970-01-01T04:43:38.000Z</time>
      </trkpt>
      <trkpt lat="42.632511" lon="0.656317">
        <ele>3325.7</ele>
        <time>1970-01-01T04:43:39.000Z</time>
      </trkpt>
      <trkpt lat="42.632509" lon="0.65632">
        <ele>3325.7</ele>
        <time>1970-01-01T04:43:40.000Z</time>
      </trkpt>
      <trkpt lat="42.632505" lon="0.656325">
        <ele>3325.9</ele>
        <time>1970-01-01T04:43:41.000Z</time>
      </trkpt>
      <trkpt lat="42.632502" lon="0.65633">
        <ele>3326</ele>
        <time>1970-01-01T04:43:43.000Z</time>
      </trkpt>
      <trkpt lat="42.6325" lon="0.656335">
        <ele>3326.1</ele>
        <time>1970-01-01T04:43:44.000Z</time>
      </trkpt>
      <trkpt lat="42.632498" lon="0.656337">
        <ele>3326.2</ele>
        <time>1970-01-01T04:43:45.000Z</time>
      </trkpt>
      <trkpt lat="42.632492" lon="0.656344">
        <ele>3326.4</ele>
        <time>1970-01-01T04:43:47.000Z</time>
      </trkpt>
      <trkpt lat="42.632487" lon="0.656349">
        <ele>3326.6</ele>
        <time>1970-01-01T04:43:48.000Z</time>
      </trkpt>
      <trkpt lat="42.632482" lon="0.656352">
        <ele>3326.7</ele>
        <time>1970-01-01T04:43:49.000Z</time>
      </trkpt>
      <trkpt lat="42.632478" lon="0.656354">
        <ele>3326.8</ele>
        <time>1970-01-01T04:43:50.000Z</time>
      </trkpt>
      <trkpt lat="42.632468" lon="0.656367">
        <ele>3327.2</ele>
        <time>1970-01-01T04:43:52.000Z</time>
      </trkpt>
      <trkpt lat="42.632463" lon="0.656376">
        <ele>3327.4</ele>
        <time>1970-01-01T04:43:53.000Z</time>
      </trkpt>
      <trkpt lat="42.632463" lon="0.65638">
        <ele>3327.5</ele>
        <time>1970-01-01T04:43:54.000Z</time>
      </trkpt>
      <trkpt lat="42.632465" lon="0.656378">
        <ele>3327.6</ele>
        <time>1970-01-01T04:43:55.000Z</time>
      </trkpt>
      <trkpt lat="42.632468" lon="0.656375">
        <ele>3327.7</ele>
        <time>1970-01-01T04:43:56.000Z</time>
      </trkpt>
      <trkpt lat="42.632471" lon="0.656371">
        <ele>3327.8</ele>
        <time>1970-01-01T04:43:57.000Z</time>
      </trkpt>
      <trkpt lat="42.632471" lon="0.656369">
        <ele>3327.8</ele>
        <time>1970-01-01T04:43:58.000Z</time>
      </trkpt>
      <trkpt lat="42.63247" lon="0.656369">
        <ele>3327.8</ele>
        <time>1970-01-01T04:43:59.000Z</time>
      </trkpt>
      <trkpt lat="42.632467" lon="0.656371">
        <ele>3327.9</ele>
        <time>1970-01-01T04:44:01.000Z</time>
      </trkpt>
      <trkpt lat="42.632459" lon="0.656376">
        <ele>3328.1</ele>
        <time>1970-01-01T04:44:02.000Z</time>
      </trkpt>
      <trkpt lat="42.632448" lon="0.656384">
        <ele>3328.5</ele>
        <time>1970-01-01T04:44:04.000Z</time>
      </trkpt>
      <trkpt lat="42.632444" lon="0.65639">
        <ele>3328.6</ele>
        <time>1970-01-01T04:44:05.000Z</time>
      </trkpt>
      <trkpt lat="42.632445" lon="0.65639">
        <ele>3328.7</ele>
        <time>1970-01-01T04:44:06.000Z</time>
      </trkpt>
      <trkpt lat="42.632447" lon="0.656387">
        <ele>3328.7</ele>
        <time>1970-01-01T04:44:07.000Z</time>
      </trkpt>
      <trkpt lat="42.63245" lon="0.656385">
        <ele>3328.8</ele>
        <time>1970-01-01T04:44:09.000Z</time>
      </trkpt>
      <trkpt lat="42.632449" lon="0.656385">
        <ele>3328.9</ele>
        <time>1970-01-01T04:44:10.000Z</time>
      </trkpt>
      <trkpt lat="42.632448" lon="0.656382">
        <ele>3328.9</ele>
        <time>1970-01-01T04:44:11.000Z</time>
      </trkpt>
      <trkpt lat="42.632446" lon="0.656383">
        <ele>3329</ele>
        <time>1970-01-01T04:44:13.000Z</time>
      </trkpt>
      <trkpt lat="42.63244" lon="0.656387">
        <ele>3329.2</ele>
        <time>1970-01-01T04:44:14.000Z</time>
      </trkpt>
      <trkpt lat="42.632435" lon="0.656391">
        <ele>3329.3</ele>
        <time>1970-01-01T04:44:15.000Z</time>
      </trkpt>
      <trkpt lat="42.632432" lon="0.656393">
        <ele>3329.4</ele>
        <time>1970-01-01T04:44:16.000Z</time>
      </trkpt>
      <trkpt lat="42.632433" lon="0.656392">
        <ele>3329.4</ele>
        <time>1970-01-01T04:44:17.000Z</time>
      </trkpt>
      <trkpt lat="42.632432" lon="0.656391">
        <ele>3329.5</ele>
        <time>1970-01-01T04:44:18.000Z</time>
      </trkpt>
      <trkpt lat="42.632432" lon="0.65639">
        <ele>3329.5</ele>
        <time>1970-01-01T04:44:19.000Z</time>
      </trkpt>
      <trkpt lat="42.632432" lon="0.656391">
        <ele>3329.5</ele>
        <time>1970-01-01T04:44:20.000Z</time>
      </trkpt>
      <trkpt lat="42.632431" lon="0.656391">
        <ele>3329.5</ele>
        <time>1970-01-01T04:44:21.000Z</time>
      </trkpt>
      <trkpt lat="42.632429" lon="0.656392">
        <ele>3329.6</ele>
        <time>1970-01-01T04:44:22.000Z</time>
      </trkpt>
      <trkpt lat="42.632426" lon="0.656397">
        <ele>3329.7</ele>
        <time>1970-01-01T04:44:23.000Z</time>
      </trkpt>
      <trkpt lat="42.63242" lon="0.656405">
        <ele>3329.9</ele>
        <time>1970-01-01T04:44:25.000Z</time>
      </trkpt>
      <trkpt lat="42.632413" lon="0.656414">
        <ele>3330.2</ele>
        <time>1970-01-01T04:44:26.000Z</time>
      </trkpt>
      <trkpt lat="42.632407" lon="0.65642">
        <ele>3330.4</ele>
        <time>1970-01-01T04:44:27.000Z</time>
      </trkpt>
      <trkpt lat="42.632402" lon="0.656428">
        <ele>3330.6</ele>
        <time>1970-01-01T04:44:29.000Z</time>
      </trkpt>
      <trkpt lat="42.632398" lon="0.656435">
        <ele>3330.8</ele>
        <time>1970-01-01T04:44:30.000Z</time>
      </trkpt>
      <trkpt lat="42.632395" lon="0.656444">
        <ele>3330.9</ele>
        <time>1970-01-01T04:44:31.000Z</time>
      </trkpt>
      <trkpt lat="42.632393" lon="0.656452">
        <ele>3331.1</ele>
        <time>1970-01-01T04:44:32.000Z</time>
      </trkpt>
      <trkpt lat="42.632392" lon="0.65646">
        <ele>3331.3</ele>
        <time>1970-01-01T04:44:33.000Z</time>
      </trkpt>
      <trkpt lat="42.632388" lon="0.656472">
        <ele>3331.5</ele>
        <time>1970-01-01T04:44:35.000Z</time>
      </trkpt>
      <trkpt lat="42.632388" lon="0.656473">
        <ele>3331.5</ele>
        <time>1970-01-01T04:44:36.000Z</time>
      </trkpt>
      <trkpt lat="42.632388" lon="0.656471">
        <ele>3331.6</ele>
        <time>1970-01-01T04:44:37.000Z</time>
      </trkpt>
      <trkpt lat="42.632389" lon="0.656468">
        <ele>3331.6</ele>
        <time>1970-01-01T04:44:38.000Z</time>
      </trkpt>
      <trkpt lat="42.632389" lon="0.656467">
        <ele>3331.7</ele>
        <time>1970-01-01T04:44:39.000Z</time>
      </trkpt>
      <trkpt lat="42.632388" lon="0.656468">
        <ele>3331.7</ele>
        <time>1970-01-01T04:44:40.000Z</time>
      </trkpt>
      <trkpt lat="42.632385" lon="0.65647">
        <ele>3331.8</ele>
        <time>1970-01-01T04:44:41.000Z</time>
      </trkpt>
      <trkpt lat="42.632383" lon="0.65647">
        <ele>3331.8</ele>
        <time>1970-01-01T04:44:42.000Z</time>
      </trkpt>
      <trkpt lat="42.632379" lon="0.656474">
        <ele>3332</ele>
        <time>1970-01-01T04:44:43.000Z</time>
      </trkpt>
      <trkpt lat="42.632373" lon="0.656478">
        <ele>3332.2</ele>
        <time>1970-01-01T04:44:44.000Z</time>
      </trkpt>
      <trkpt lat="42.632368" lon="0.656483">
        <ele>3332.3</ele>
        <time>1970-01-01T04:44:45.000Z</time>
      </trkpt>
      <trkpt lat="42.632367" lon="0.656482">
        <ele>3332.3</ele>
        <time>1970-01-01T04:44:46.000Z</time>
      </trkpt>
      <trkpt lat="42.632368" lon="0.656479">
        <ele>3332.4</ele>
        <time>1970-01-01T04:44:47.000Z</time>
      </trkpt>
      <trkpt lat="42.632368" lon="0.656475">
        <ele>3332.5</ele>
        <time>1970-01-01T04:44:48.000Z</time>
      </trkpt>
      <trkpt lat="42.632369" lon="0.656472">
        <ele>3332.6</ele>
        <time>1970-01-01T04:44:49.000Z</time>
      </trkpt>
      <trkpt lat="42.632369" lon="0.65647">
        <ele>3332.6</ele>
        <time>1970-01-01T04:44:50.000Z</time>
      </trkpt>
      <trkpt lat="42.632369" lon="0.656468">
        <ele>3332.6</ele>
        <time>1970-01-01T04:44:51.000Z</time>
      </trkpt>
      <trkpt lat="42.632369" lon="0.656468">
        <ele>3332.6</ele>
        <time>1970-01-01T04:44:52.000Z</time>
      </trkpt>
      <trkpt lat="42.632368" lon="0.656467">
        <ele>3332.7</ele>
        <time>1970-01-01T04:44:53.000Z</time>
      </trkpt>
      <trkpt lat="42.632367" lon="0.656466">
        <ele>3332.7</ele>
        <time>1970-01-01T04:44:54.000Z</time>
      </trkpt>
      <trkpt lat="42.632368" lon="0.656465">
        <ele>3332.7</ele>
        <time>1970-01-01T04:44:55.000Z</time>
      </trkpt>
      <trkpt lat="42.632368" lon="0.656464">
        <ele>3332.7</ele>
        <time>1970-01-01T04:44:56.000Z</time>
      </trkpt>
      <trkpt lat="42.632368" lon="0.656464">
        <ele>3332.7</ele>
        <time>1970-01-01T04:44:57.000Z</time>
      </trkpt>
      <trkpt lat="42.632368" lon="0.656464">
        <ele>3332.7</ele>
        <time>1970-01-01T04:44:58.000Z</time>
      </trkpt>
      <trkpt lat="42.632368" lon="0.656463">
        <ele>3332.8</ele>
        <time>1970-01-01T04:44:59.000Z</time>
      </trkpt>
      <trkpt lat="42.632368" lon="0.656464">
        <ele>3332.8</ele>
        <time>1970-01-01T04:45:00.000Z</time>
      </trkpt>
      <trkpt lat="42.632368" lon="0.656464">
        <ele>3332.8</ele>
        <time>1970-01-01T04:45:01.000Z</time>
      </trkpt>
      <trkpt lat="42.632372" lon="0.656461">
        <ele>3332.9</ele>
        <time>1970-01-01T04:45:02.000Z</time>
      </trkpt>
      <trkpt lat="42.632374" lon="0.656458">
        <ele>3333</ele>
        <time>1970-01-01T04:45:03.000Z</time>
      </trkpt>
      <trkpt lat="42.632375" lon="0.656457">
        <ele>3333</ele>
        <time>1970-01-01T04:45:04.000Z</time>
      </trkpt>
      <trkpt lat="42.632375" lon="0.656456">
        <ele>3333</ele>
        <time>1970-01-01T04:45:05.000Z</time>
      </trkpt>
      <trkpt lat="42.632375" lon="0.656456">
        <ele>3333</ele>
        <time>1970-01-01T04:45:06.000Z</time>
      </trkpt>
      <trkpt lat="42.632376" lon="0.656456">
        <ele>3333.1</ele>
        <time>1970-01-01T04:45:07.000Z</time>
      </trkpt>
      <trkpt lat="42.632375" lon="0.656456">
        <ele>3333.1</ele>
        <time>1970-01-01T04:45:08.000Z</time>
      </trkpt>
      <trkpt lat="42.632375" lon="0.656456">
        <ele>3333.1</ele>
        <time>1970-01-01T04:45:09.000Z</time>
      </trkpt>
      <trkpt lat="42.632375" lon="0.656456">
        <ele>3333.1</ele>
        <time>1970-01-01T04:45:10.000Z</time>
      </trkpt>
      <trkpt lat="42.632375" lon="0.656456">
        <ele>3333.1</ele>
        <time>1970-01-01T04:45:11.000Z</time>
      </trkpt>
      <trkpt lat="42.632375" lon="0.656456">
        <ele>3333.1</ele>
        <time>1970-01-01T04:45:12.000Z</time>
      </trkpt>
      <trkpt lat="42.632375" lon="0.656456">
        <ele>3333.1</ele>
        <time>1970-01-01T04:45:13.000Z</time>
      </trkpt>
      <trkpt lat="42.632375" lon="0.656456">
        <ele>3333.1</ele>
        <time>1970-01-01T04:45:14.000Z</time>
      </trkpt>
      <trkpt lat="42.632375" lon="0.656456">
        <ele>3333.1</ele>
        <time>1970-01-01T04:45:15.000Z</time>
      </trkpt>
      <trkpt lat="42.632372" lon="0.656455">
        <ele>3333.2</ele>
        <time>1970-01-01T04:45:16.000Z</time>
      </trkpt>
      <trkpt lat="42.632371" lon="0.656456">
        <ele>3333.2</ele>
        <time>1970-01-01T04:45:17.000Z</time>
      </trkpt>
      <trkpt lat="42.632369" lon="0.656456">
        <ele>3333.3</ele>
        <time>1970-01-01T04:45:18.000Z</time>
      </trkpt>
      <trkpt lat="42.632366" lon="0.656455">
        <ele>3333.3</ele>
        <time>1970-01-01T04:45:19.000Z</time>
      </trkpt>
      <trkpt lat="42.632362" lon="0.656456">
        <ele>3333.4</ele>
        <time>1970-01-01T04:45:20.000Z</time>
      </trkpt>
      <trkpt lat="42.632358" lon="0.656457">
        <ele>3333.6</ele>
        <time>1970-01-01T04:45:21.000Z</time>
      </trkpt>
      <trkpt lat="42.632357" lon="0.65646">
        <ele>3333.6</ele>
        <time>1970-01-01T04:45:22.000Z</time>
      </trkpt>
      <trkpt lat="42.632355" lon="0.656464">
        <ele>3333.7</ele>
        <time>1970-01-01T04:45:23.000Z</time>
      </trkpt>
      <trkpt lat="42.632351" lon="0.656466">
        <ele>3333.8</ele>
        <time>1970-01-01T04:45:24.000Z</time>
      </trkpt>
      <trkpt lat="42.632345" lon="0.656473">
        <ele>3334</ele>
        <time>1970-01-01T04:45:26.000Z</time>
      </trkpt>
      <trkpt lat="42.632342" lon="0.656475">
        <ele>3334.1</ele>
        <time>1970-01-01T04:45:27.000Z</time>
      </trkpt>
      <trkpt lat="42.632339" lon="0.656478">
        <ele>3334.2</ele>
        <time>1970-01-01T04:45:28.000Z</time>
      </trkpt>
      <trkpt lat="42.632338" lon="0.656479">
        <ele>3334.3</ele>
        <time>1970-01-01T04:45:29.000Z</time>
      </trkpt>
      <trkpt lat="42.632336" lon="0.656481">
        <ele>3334.3</ele>
        <time>1970-01-01T04:45:30.000Z</time>
      </trkpt>
      <trkpt lat="42.632333" lon="0.656481">
        <ele>3334.4</ele>
        <time>1970-01-01T04:45:31.000Z</time>
      </trkpt>
      <trkpt lat="42.632327" lon="0.656481">
        <ele>3334.6</ele>
        <time>1970-01-01T04:45:32.000Z</time>
      </trkpt>
      <trkpt lat="42.632318" lon="0.656479">
        <ele>3334.8</ele>
        <time>1970-01-01T04:45:34.000Z</time>
      </trkpt>
      <trkpt lat="42.632313" lon="0.656481">
        <ele>3334.9</ele>
        <time>1970-01-01T04:45:35.000Z</time>
      </trkpt>
      <trkpt lat="42.632308" lon="0.656484">
        <ele>3335.1</ele>
        <time>1970-01-01T04:45:36.000Z</time>
      </trkpt>
      <trkpt lat="42.632303" lon="0.656494">
        <ele>3335.3</ele>
        <time>1970-01-01T04:45:38.000Z</time>
      </trkpt>
      <trkpt lat="42.632301" lon="0.656499">
        <ele>3335.4</ele>
        <time>1970-01-01T04:45:39.000Z</time>
      </trkpt>
      <trkpt lat="42.632296" lon="0.656504">
        <ele>3335.6</ele>
        <time>1970-01-01T04:45:40.000Z</time>
      </trkpt>
      <trkpt lat="42.632294" lon="0.656508">
        <ele>3335.7</ele>
        <time>1970-01-01T04:45:41.000Z</time>
      </trkpt>
      <trkpt lat="42.63229" lon="0.656513">
        <ele>3335.8</ele>
        <time>1970-01-01T04:45:42.000Z</time>
      </trkpt>
      <trkpt lat="42.632287" lon="0.656516">
        <ele>3335.9</ele>
        <time>1970-01-01T04:45:43.000Z</time>
      </trkpt>
      <trkpt lat="42.632287" lon="0.656517">
        <ele>3335.9</ele>
        <time>1970-01-01T04:45:44.000Z</time>
      </trkpt>
      <trkpt lat="42.632288" lon="0.656517">
        <ele>3336</ele>
        <time>1970-01-01T04:45:45.000Z</time>
      </trkpt>
      <trkpt lat="42.632289" lon="0.656516">
        <ele>3336</ele>
        <time>1970-01-01T04:45:46.000Z</time>
      </trkpt>
      <trkpt lat="42.632288" lon="0.656516">
        <ele>3336</ele>
        <time>1970-01-01T04:45:47.000Z</time>
      </trkpt>
      <trkpt lat="42.632284" lon="0.656518">
        <ele>3336.1</ele>
        <time>1970-01-01T04:45:49.000Z</time>
      </trkpt>
      <trkpt lat="42.632281" lon="0.656518">
        <ele>3336.2</ele>
        <time>1970-01-01T04:45:50.000Z</time>
      </trkpt>
      <trkpt lat="42.632279" lon="0.656518">
        <ele>3336.3</ele>
        <time>1970-01-01T04:45:51.000Z</time>
      </trkpt>
      <trkpt lat="42.632276" lon="0.656516">
        <ele>3336.4</ele>
        <time>1970-01-01T04:45:52.000Z</time>
      </trkpt>
      <trkpt lat="42.632271" lon="0.656514">
        <ele>3336.5</ele>
        <time>1970-01-01T04:45:53.000Z</time>
      </trkpt>
      <trkpt lat="42.632265" lon="0.656514">
        <ele>3336.7</ele>
        <time>1970-01-01T04:45:54.000Z</time>
      </trkpt>
      <trkpt lat="42.632258" lon="0.656513">
        <ele>3336.8</ele>
        <time>1970-01-01T04:45:55.000Z</time>
      </trkpt>
      <trkpt lat="42.632252" lon="0.656513">
        <ele>3337</ele>
        <time>1970-01-01T04:45:56.000Z</time>
      </trkpt>
      <trkpt lat="42.632247" lon="0.656514">
        <ele>3337.1</ele>
        <time>1970-01-01T04:45:57.000Z</time>
      </trkpt>
      <trkpt lat="42.632241" lon="0.656513">
        <ele>3337.3</ele>
        <time>1970-01-01T04:45:58.000Z</time>
      </trkpt>
      <trkpt lat="42.632239" lon="0.656511">
        <ele>3337.4</ele>
        <time>1970-01-01T04:45:59.000Z</time>
      </trkpt>
      <trkpt lat="42.632237" lon="0.656508">
        <ele>3337.4</ele>
        <time>1970-01-01T04:46:01.000Z</time>
      </trkpt>
      <trkpt lat="42.632232" lon="0.656507">
        <ele>3337.6</ele>
        <time>1970-01-01T04:46:02.000Z</time>
      </trkpt>
      <trkpt lat="42.63223" lon="0.656505">
        <ele>3337.6</ele>
        <time>1970-01-01T04:46:03.000Z</time>
      </trkpt>
      <trkpt lat="42.632231" lon="0.656503">
        <ele>3337.7</ele>
        <time>1970-01-01T04:46:04.000Z</time>
      </trkpt>
      <trkpt lat="42.632226" lon="0.656501">
        <ele>3337.8</ele>
        <time>1970-01-01T04:46:06.000Z</time>
      </trkpt>
      <trkpt lat="42.632224" lon="0.656502">
        <ele>3337.9</ele>
        <time>1970-01-01T04:46:07.000Z</time>
      </trkpt>
      <trkpt lat="42.63222" lon="0.656503">
        <ele>3338</ele>
        <time>1970-01-01T04:46:08.000Z</time>
      </trkpt>
      <trkpt lat="42.632217" lon="0.656503">
        <ele>3338.1</ele>
        <time>1970-01-01T04:46:09.000Z</time>
      </trkpt>
      <trkpt lat="42.632219" lon="0.656504">
        <ele>3338.1</ele>
        <time>1970-01-01T04:46:10.000Z</time>
      </trkpt>
      <trkpt lat="42.632219" lon="0.656505">
        <ele>3338.1</ele>
        <time>1970-01-01T04:46:11.000Z</time>
      </trkpt>
      <trkpt lat="42.632221" lon="0.656506">
        <ele>3338.2</ele>
        <time>1970-01-01T04:46:12.000Z</time>
      </trkpt>
      <trkpt lat="42.632222" lon="0.656506">
        <ele>3338.2</ele>
        <time>1970-01-01T04:46:14.000Z</time>
      </trkpt>
      <trkpt lat="42.632221" lon="0.656505">
        <ele>3338.3</ele>
        <time>1970-01-01T04:46:15.000Z</time>
      </trkpt>
      <trkpt lat="42.63222" lon="0.656504">
        <ele>3338.3</ele>
        <time>1970-01-01T04:46:16.000Z</time>
      </trkpt>
      <trkpt lat="42.632219" lon="0.656504">
        <ele>3338.3</ele>
        <time>1970-01-01T04:46:17.000Z</time>
      </trkpt>
      <trkpt lat="42.632218" lon="0.656503">
        <ele>3338.4</ele>
        <time>1970-01-01T04:46:18.000Z</time>
      </trkpt>
      <trkpt lat="42.632217" lon="0.656501">
        <ele>3338.4</ele>
        <time>1970-01-01T04:46:19.000Z</time>
      </trkpt>
      <trkpt lat="42.632217" lon="0.656499">
        <ele>3338.4</ele>
        <time>1970-01-01T04:46:20.000Z</time>
      </trkpt>
      <trkpt lat="42.632217" lon="0.656498">
        <ele>3338.5</ele>
        <time>1970-01-01T04:46:21.000Z</time>
      </trkpt>
      <trkpt lat="42.632216" lon="0.656496">
        <ele>3338.5</ele>
        <time>1970-01-01T04:46:23.000Z</time>
      </trkpt>
      <trkpt lat="42.632214" lon="0.656495">
        <ele>3338.6</ele>
        <time>1970-01-01T04:46:24.000Z</time>
      </trkpt>
      <trkpt lat="42.632213" lon="0.656494">
        <ele>3338.6</ele>
        <time>1970-01-01T04:46:25.000Z</time>
      </trkpt>
      <trkpt lat="42.632212" lon="0.656494">
        <ele>3338.6</ele>
        <time>1970-01-01T04:46:26.000Z</time>
      </trkpt>
      <trkpt lat="42.632209" lon="0.656494">
        <ele>3338.7</ele>
        <time>1970-01-01T04:46:27.000Z</time>
      </trkpt>
      <trkpt lat="42.632207" lon="0.656495">
        <ele>3338.8</ele>
        <time>1970-01-01T04:46:28.000Z</time>
      </trkpt>
      <trkpt lat="42.632204" lon="0.656496">
        <ele>3338.8</ele>
        <time>1970-01-01T04:46:29.000Z</time>
      </trkpt>
      <trkpt lat="42.6322" lon="0.656497">
        <ele>3338.9</ele>
        <time>1970-01-01T04:46:31.000Z</time>
      </trkpt>
      <trkpt lat="42.632197" lon="0.656497">
        <ele>3339</ele>
        <time>1970-01-01T04:46:32.000Z</time>
      </trkpt>
      <trkpt lat="42.632195" lon="0.656497">
        <ele>3339.1</ele>
        <time>1970-01-01T04:46:33.000Z</time>
      </trkpt>
      <trkpt lat="42.632192" lon="0.656495">
        <ele>3339.2</ele>
        <time>1970-01-01T04:46:34.000Z</time>
      </trkpt>
      <trkpt lat="42.632188" lon="0.656493">
        <ele>3339.3</ele>
        <time>1970-01-01T04:46:35.000Z</time>
      </trkpt>
      <trkpt lat="42.632187" lon="0.65649">
        <ele>3339.3</ele>
        <time>1970-01-01T04:46:36.000Z</time>
      </trkpt>
      <trkpt lat="42.632186" lon="0.656488">
        <ele>3339.4</ele>
        <time>1970-01-01T04:46:37.000Z</time>
      </trkpt>
      <trkpt lat="42.632184" lon="0.656486">
        <ele>3339.5</ele>
        <time>1970-01-01T04:46:38.000Z</time>
      </trkpt>
      <trkpt lat="42.632183" lon="0.656485">
        <ele>3339.5</ele>
        <time>1970-01-01T04:46:39.000Z</time>
      </trkpt>
      <trkpt lat="42.632181" lon="0.656482">
        <ele>3339.6</ele>
        <time>1970-01-01T04:46:41.000Z</time>
      </trkpt>
      <trkpt lat="42.63218" lon="0.656481">
        <ele>3339.6</ele>
        <time>1970-01-01T04:46:42.000Z</time>
      </trkpt>
      <trkpt lat="42.632179" lon="0.65648">
        <ele>3339.6</ele>
        <time>1970-01-01T04:46:43.000Z</time>
      </trkpt>
      <trkpt lat="42.632178" lon="0.65648">
        <ele>3339.7</ele>
        <time>1970-01-01T04:46:44.000Z</time>
      </trkpt>
      <trkpt lat="42.632176" lon="0.656478">
        <ele>3339.7</ele>
        <time>1970-01-01T04:46:45.000Z</time>
      </trkpt>
      <trkpt lat="42.632176" lon="0.656479">
        <ele>3339.7</ele>
        <time>1970-01-01T04:46:46.000Z</time>
      </trkpt>
      <trkpt lat="42.632175" lon="0.65648">
        <ele>3339.8</ele>
        <time>1970-01-01T04:46:47.000Z</time>
      </trkpt>
      <trkpt lat="42.632175" lon="0.65648">
        <ele>3339.8</ele>
        <time>1970-01-01T04:46:48.000Z</time>
      </trkpt>
      <trkpt lat="42.632174" lon="0.65648">
        <ele>3339.8</ele>
        <time>1970-01-01T04:46:49.000Z</time>
      </trkpt>
      <trkpt lat="42.632173" lon="0.65648">
        <ele>3339.8</ele>
        <time>1970-01-01T04:46:50.000Z</time>
      </trkpt>
      <trkpt lat="42.632173" lon="0.65648">
        <ele>3339.8</ele>
        <time>1970-01-01T04:46:51.000Z</time>
      </trkpt>
      <trkpt lat="42.632171" lon="0.656479">
        <ele>3339.9</ele>
        <time>1970-01-01T04:46:52.000Z</time>
      </trkpt>
      <trkpt lat="42.632169" lon="0.656478">
        <ele>3339.9</ele>
        <time>1970-01-01T04:46:53.000Z</time>
      </trkpt>
      <trkpt lat="42.632167" lon="0.656477">
        <ele>3340</ele>
        <time>1970-01-01T04:46:54.000Z</time>
      </trkpt>
      <trkpt lat="42.632164" lon="0.656474">
        <ele>3340.1</ele>
        <time>1970-01-01T04:46:55.000Z</time>
      </trkpt>
      <trkpt lat="42.632161" lon="0.65647">
        <ele>3340.2</ele>
        <time>1970-01-01T04:46:56.000Z</time>
      </trkpt>
      <trkpt lat="42.632159" lon="0.656467">
        <ele>3340.3</ele>
        <time>1970-01-01T04:46:57.000Z</time>
      </trkpt>
      <trkpt lat="42.632159" lon="0.656465">
        <ele>3340.3</ele>
        <time>1970-01-01T04:46:58.000Z</time>
      </trkpt>
      <trkpt lat="42.632159" lon="0.656465">
        <ele>3340.3</ele>
        <time>1970-01-01T04:46:59.000Z</time>
      </trkpt>
      <trkpt lat="42.632159" lon="0.656464">
        <ele>3340.3</ele>
        <time>1970-01-01T04:47:00.000Z</time>
      </trkpt>
      <trkpt lat="42.632159" lon="0.656464">
        <ele>3340.3</ele>
        <time>1970-01-01T04:47:01.000Z</time>
      </trkpt>
      <trkpt lat="42.632158" lon="0.656462">
        <ele>3340.4</ele>
        <time>1970-01-01T04:47:02.000Z</time>
      </trkpt>
      <trkpt lat="42.632155" lon="0.65646">
        <ele>3340.5</ele>
        <time>1970-01-01T04:47:03.000Z</time>
      </trkpt>
      <trkpt lat="42.632154" lon="0.65646">
        <ele>3340.5</ele>
        <time>1970-01-01T04:47:04.000Z</time>
      </trkpt>
      <trkpt lat="42.632153" lon="0.65646">
        <ele>3340.5</ele>
        <time>1970-01-01T04:47:05.000Z</time>
      </trkpt>
      <trkpt lat="42.632151" lon="0.65646">
        <ele>3340.6</ele>
        <time>1970-01-01T04:47:06.000Z</time>
      </trkpt>
      <trkpt lat="42.63215" lon="0.656458">
        <ele>3340.6</ele>
        <time>1970-01-01T04:47:07.000Z</time>
      </trkpt>
      <trkpt lat="42.632149" lon="0.656456">
        <ele>3340.7</ele>
        <time>1970-01-01T04:47:08.000Z</time>
      </trkpt>
      <trkpt lat="42.632147" lon="0.656454">
        <ele>3340.7</ele>
        <time>1970-01-01T04:47:09.000Z</time>
      </trkpt>
      <trkpt lat="42.632143" lon="0.65645">
        <ele>3340.9</ele>
        <time>1970-01-01T04:47:10.000Z</time>
      </trkpt>
      <trkpt lat="42.632139" lon="0.656448">
        <ele>3341</ele>
        <time>1970-01-01T04:47:11.000Z</time>
      </trkpt>
      <trkpt lat="42.632138" lon="0.656448">
        <ele>3341</ele>
        <time>1970-01-01T04:47:12.000Z</time>
      </trkpt>
      <trkpt lat="42.632137" lon="0.656447">
        <ele>3341</ele>
        <time>1970-01-01T04:47:13.000Z</time>
      </trkpt>
      <trkpt lat="42.632136" lon="0.656446">
        <ele>3341.1</ele>
        <time>1970-01-01T04:47:14.000Z</time>
      </trkpt>
      <trkpt lat="42.632137" lon="0.656446">
        <ele>3341.1</ele>
        <time>1970-01-01T04:47:15.000Z</time>
      </trkpt>
      <trkpt lat="42.632137" lon="0.656445">
        <ele>3341.1</ele>
        <time>1970-01-01T04:47:16.000Z</time>
      </trkpt>
      <trkpt lat="42.632137" lon="0.656444">
        <ele>3341.1</ele>
        <time>1970-01-01T04:47:17.000Z</time>
      </trkpt>
      <trkpt lat="42.632135" lon="0.656441">
        <ele>3341.2</ele>
        <time>1970-01-01T04:47:18.000Z</time>
      </trkpt>
      <trkpt lat="42.632134" lon="0.656439">
        <ele>3341.3</ele>
        <time>1970-01-01T04:47:19.000Z</time>
      </trkpt>
      <trkpt lat="42.632133" lon="0.656436">
        <ele>3341.3</ele>
        <time>1970-01-01T04:47:20.000Z</time>
      </trkpt>
      <trkpt lat="42.63213" lon="0.65643">
        <ele>3341.5</ele>
        <time>1970-01-01T04:47:21.000Z</time>
      </trkpt>
      <trkpt lat="42.632129" lon="0.656426">
        <ele>3341.6</ele>
        <time>1970-01-01T04:47:22.000Z</time>
      </trkpt>
      <trkpt lat="42.632127" lon="0.656424">
        <ele>3341.6</ele>
        <time>1970-01-01T04:47:23.000Z</time>
      </trkpt>
      <trkpt lat="42.632125" lon="0.656421">
        <ele>3341.7</ele>
        <time>1970-01-01T04:47:24.000Z</time>
      </trkpt>
      <trkpt lat="42.632125" lon="0.656421">
        <ele>3341.7</ele>
        <time>1970-01-01T04:47:25.000Z</time>
      </trkpt>
      <trkpt lat="42.632125" lon="0.656422">
        <ele>3341.7</ele>
        <time>1970-01-01T04:47:26.000Z</time>
      </trkpt>
      <trkpt lat="42.632124" lon="0.656426">
        <ele>3341.8</ele>
        <time>1970-01-01T04:47:27.000Z</time>
      </trkpt>
      <trkpt lat="42.632124" lon="0.656427">
        <ele>3341.8</ele>
        <time>1970-01-01T04:47:28.000Z</time>
      </trkpt>
      <trkpt lat="42.632121" lon="0.656426">
        <ele>3341.9</ele>
        <time>1970-01-01T04:47:29.000Z</time>
      </trkpt>
      <trkpt lat="42.632118" lon="0.656426">
        <ele>3342</ele>
        <time>1970-01-01T04:47:30.000Z</time>
      </trkpt>
      <trkpt lat="42.632114" lon="0.656426">
        <ele>3342.1</ele>
        <time>1970-01-01T04:47:31.000Z</time>
      </trkpt>
      <trkpt lat="42.632106" lon="0.656422">
        <ele>3342.3</ele>
        <time>1970-01-01T04:47:33.000Z</time>
      </trkpt>
      <trkpt lat="42.632102" lon="0.656419">
        <ele>3342.4</ele>
        <time>1970-01-01T04:47:34.000Z</time>
      </trkpt>
      <trkpt lat="42.632096" lon="0.656413">
        <ele>3342.6</ele>
        <time>1970-01-01T04:47:35.000Z</time>
      </trkpt>
      <trkpt lat="42.632094" lon="0.65641">
        <ele>3342.7</ele>
        <time>1970-01-01T04:47:36.000Z</time>
      </trkpt>
      <trkpt lat="42.632093" lon="0.656408">
        <ele>3342.8</ele>
        <time>1970-01-01T04:47:37.000Z</time>
      </trkpt>
      <trkpt lat="42.632093" lon="0.656408">
        <ele>3342.8</ele>
        <time>1970-01-01T04:47:38.000Z</time>
      </trkpt>
      <trkpt lat="42.632091" lon="0.656406">
        <ele>3342.8</ele>
        <time>1970-01-01T04:47:39.000Z</time>
      </trkpt>
      <trkpt lat="42.632089" lon="0.656405">
        <ele>3342.9</ele>
        <time>1970-01-01T04:47:40.000Z</time>
      </trkpt>
      <trkpt lat="42.632089" lon="0.656404">
        <ele>3342.9</ele>
        <time>1970-01-01T04:47:41.000Z</time>
      </trkpt>
      <trkpt lat="42.632089" lon="0.656404">
        <ele>3342.9</ele>
        <time>1970-01-01T04:47:42.000Z</time>
      </trkpt>
      <trkpt lat="42.632089" lon="0.656404">
        <ele>3342.9</ele>
        <time>1970-01-01T04:47:43.000Z</time>
      </trkpt>
      <trkpt lat="42.632089" lon="0.656404">
        <ele>3342.9</ele>
        <time>1970-01-01T04:47:44.000Z</time>
      </trkpt>
      <trkpt lat="42.632088" lon="0.656404">
        <ele>3342.9</ele>
        <time>1970-01-01T04:47:45.000Z</time>
      </trkpt>
      <trkpt lat="42.632087" lon="0.656403">
        <ele>3343</ele>
        <time>1970-01-01T04:47:46.000Z</time>
      </trkpt>
      <trkpt lat="42.632085" lon="0.656401">
        <ele>3343</ele>
        <time>1970-01-01T04:47:47.000Z</time>
      </trkpt>
      <trkpt lat="42.632082" lon="0.656399">
        <ele>3343.1</ele>
        <time>1970-01-01T04:47:48.000Z</time>
      </trkpt>
      <trkpt lat="42.632079" lon="0.656397">
        <ele>3343.2</ele>
        <time>1970-01-01T04:47:49.000Z</time>
      </trkpt>
      <trkpt lat="42.632078" lon="0.656395">
        <ele>3343.3</ele>
        <time>1970-01-01T04:47:50.000Z</time>
      </trkpt>
      <trkpt lat="42.632076" lon="0.656394">
        <ele>3343.3</ele>
        <time>1970-01-01T04:47:51.000Z</time>
      </trkpt>
      <trkpt lat="42.632074" lon="0.656392">
        <ele>3343.4</ele>
        <time>1970-01-01T04:47:52.000Z</time>
      </trkpt>
      <trkpt lat="42.632072" lon="0.656389">
        <ele>3343.5</ele>
        <time>1970-01-01T04:47:53.000Z</time>
      </trkpt>
      <trkpt lat="42.632071" lon="0.656387">
        <ele>3343.5</ele>
        <time>1970-01-01T04:47:54.000Z</time>
      </trkpt>
      <trkpt lat="42.632069" lon="0.656386">
        <ele>3343.6</ele>
        <time>1970-01-01T04:47:55.000Z</time>
      </trkpt>
      <trkpt lat="42.632066" lon="0.656384">
        <ele>3343.6</ele>
        <time>1970-01-01T04:47:57.000Z</time>
      </trkpt>
      <trkpt lat="42.632063" lon="0.656381">
        <ele>3343.7</ele>
        <time>1970-01-01T04:47:58.000Z</time>
      </trkpt>
      <trkpt lat="42.632059" lon="0.656379">
        <ele>3343.9</ele>
        <time>1970-01-01T04:47:59.000Z</time>
      </trkpt>
      <trkpt lat="42.632057" lon="0.656377">
        <ele>3343.9</ele>
        <time>1970-01-01T04:48:00.000Z</time>
      </trkpt>
      <trkpt lat="42.632054" lon="0.656374">
        <ele>3344</ele>
        <time>1970-01-01T04:48:01.000Z</time>
      </trkpt>
      <trkpt lat="42.632051" lon="0.656371">
        <ele>3344.1</ele>
        <time>1970-01-01T04:48:02.000Z</time>
      </trkpt>
      <trkpt lat="42.632048" lon="0.656367">
        <ele>3344.2</ele>
        <time>1970-01-01T04:48:03.000Z</time>
      </trkpt>
      <trkpt lat="42.632047" lon="0.656366">
        <ele>3344.3</ele>
        <time>1970-01-01T04:48:04.000Z</time>
      </trkpt>
      <trkpt lat="42.632047" lon="0.656366">
        <ele>3344.3</ele>
        <time>1970-01-01T04:48:05.000Z</time>
      </trkpt>
      <trkpt lat="42.632048" lon="0.656366">
        <ele>3344.3</ele>
        <time>1970-01-01T04:48:06.000Z</time>
      </trkpt>
      <trkpt lat="42.632047" lon="0.656366">
        <ele>3344.3</ele>
        <time>1970-01-01T04:48:07.000Z</time>
      </trkpt>
      <trkpt lat="42.632048" lon="0.656366">
        <ele>3344.3</ele>
        <time>1970-01-01T04:48:08.000Z</time>
      </trkpt>
      <trkpt lat="42.632048" lon="0.656365">
        <ele>3344.4</ele>
        <time>1970-01-01T04:48:09.000Z</time>
      </trkpt>
      <trkpt lat="42.632044" lon="0.656361">
        <ele>3344.5</ele>
        <time>1970-01-01T04:48:11.000Z</time>
      </trkpt>
      <trkpt lat="42.632042" lon="0.656359">
        <ele>3344.6</ele>
        <time>1970-01-01T04:48:12.000Z</time>
      </trkpt>
      <trkpt lat="42.632038" lon="0.656356">
        <ele>3344.7</ele>
        <time>1970-01-01T04:48:13.000Z</time>
      </trkpt>
      <trkpt lat="42.632033" lon="0.656354">
        <ele>3344.8</ele>
        <time>1970-01-01T04:48:14.000Z</time>
      </trkpt>
      <trkpt lat="42.632029" lon="0.656352">
        <ele>3344.9</ele>
        <time>1970-01-01T04:48:15.000Z</time>
      </trkpt>
      <trkpt lat="42.632027" lon="0.656353">
        <ele>3345</ele>
        <time>1970-01-01T04:48:16.000Z</time>
      </trkpt>
      <trkpt lat="42.632027" lon="0.656356">
        <ele>3345</ele>
        <time>1970-01-01T04:48:17.000Z</time>
      </trkpt>
      <trkpt lat="42.632028" lon="0.656358">
        <ele>3345.1</ele>
        <time>1970-01-01T04:48:18.000Z</time>
      </trkpt>
      <trkpt lat="42.632029" lon="0.65636">
        <ele>3345.1</ele>
        <time>1970-01-01T04:48:19.000Z</time>
      </trkpt>
      <trkpt lat="42.632029" lon="0.656362">
        <ele>3345.2</ele>
        <time>1970-01-01T04:48:20.000Z</time>
      </trkpt>
      <trkpt lat="42.632029" lon="0.656363">
        <ele>3345.2</ele>
        <time>1970-01-01T04:48:21.000Z</time>
      </trkpt>
      <trkpt lat="42.63203" lon="0.656364">
        <ele>3345.2</ele>
        <time>1970-01-01T04:48:22.000Z</time>
      </trkpt>
      <trkpt lat="42.63203" lon="0.656365">
        <ele>3345.2</ele>
        <time>1970-01-01T04:48:23.000Z</time>
      </trkpt>
      <trkpt lat="42.632027" lon="0.656367">
        <ele>3345.3</ele>
        <time>1970-01-01T04:48:24.000Z</time>
      </trkpt>
      <trkpt lat="42.632025" lon="0.656369">
        <ele>3345.4</ele>
        <time>1970-01-01T04:48:25.000Z</time>
      </trkpt>
      <trkpt lat="42.632023" lon="0.656372">
        <ele>3345.5</ele>
        <time>1970-01-01T04:48:26.000Z</time>
      </trkpt>
      <trkpt lat="42.632022" lon="0.656374">
        <ele>3345.5</ele>
        <time>1970-01-01T04:48:27.000Z</time>
      </trkpt>
      <trkpt lat="42.632021" lon="0.656376">
        <ele>3345.6</ele>
        <time>1970-01-01T04:48:28.000Z</time>
      </trkpt>
      <trkpt lat="42.632019" lon="0.656377">
        <ele>3345.6</ele>
        <time>1970-01-01T04:48:29.000Z</time>
      </trkpt>
      <trkpt lat="42.632017" lon="0.656378">
        <ele>3345.7</ele>
        <time>1970-01-01T04:48:30.000Z</time>
      </trkpt>
      <trkpt lat="42.632014" lon="0.656379">
        <ele>3345.8</ele>
        <time>1970-01-01T04:48:32.000Z</time>
      </trkpt>
      <trkpt lat="42.632012" lon="0.65638">
        <ele>3345.8</ele>
        <time>1970-01-01T04:48:33.000Z</time>
      </trkpt>
      <trkpt lat="42.632008" lon="0.65638">
        <ele>3345.9</ele>
        <time>1970-01-01T04:48:34.000Z</time>
      </trkpt>
      <trkpt lat="42.632004" lon="0.65638">
        <ele>3346</ele>
        <time>1970-01-01T04:48:35.000Z</time>
      </trkpt>
      <trkpt lat="42.632003" lon="0.656379">
        <ele>3346.1</ele>
        <time>1970-01-01T04:48:36.000Z</time>
      </trkpt>
      <trkpt lat="42.632003" lon="0.656378">
        <ele>3346.1</ele>
        <time>1970-01-01T04:48:37.000Z</time>
      </trkpt>
      <trkpt lat="42.632002" lon="0.656378">
        <ele>3346.1</ele>
        <time>1970-01-01T04:48:38.000Z</time>
      </trkpt>
      <trkpt lat="42.632001" lon="0.656378">
        <ele>3346.1</ele>
        <time>1970-01-01T04:48:39.000Z</time>
      </trkpt>
      <trkpt lat="42.632" lon="0.656377">
        <ele>3346.2</ele>
        <time>1970-01-01T04:48:40.000Z</time>
      </trkpt>
      <trkpt lat="42.631998" lon="0.656375">
        <ele>3346.2</ele>
        <time>1970-01-01T04:48:41.000Z</time>
      </trkpt>
      <trkpt lat="42.631997" lon="0.656373">
        <ele>3346.3</ele>
        <time>1970-01-01T04:48:42.000Z</time>
      </trkpt>
      <trkpt lat="42.631994" lon="0.656369">
        <ele>3346.4</ele>
        <time>1970-01-01T04:48:43.000Z</time>
      </trkpt>
      <trkpt lat="42.631993" lon="0.656367">
        <ele>3346.4</ele>
        <time>1970-01-01T04:48:44.000Z</time>
      </trkpt>
      <trkpt lat="42.631993" lon="0.656366">
        <ele>3346.5</ele>
        <time>1970-01-01T04:48:45.000Z</time>
      </trkpt>
      <trkpt lat="42.631994" lon="0.656366">
        <ele>3346.5</ele>
        <time>1970-01-01T04:48:46.000Z</time>
      </trkpt>
      <trkpt lat="42.631994" lon="0.656365">
        <ele>3346.5</ele>
        <time>1970-01-01T04:48:47.000Z</time>
      </trkpt>
      <trkpt lat="42.631993" lon="0.656364">
        <ele>3346.5</ele>
        <time>1970-01-01T04:48:48.000Z</time>
      </trkpt>
      <trkpt lat="42.631991" lon="0.656361">
        <ele>3346.6</ele>
        <time>1970-01-01T04:48:49.000Z</time>
      </trkpt>
      <trkpt lat="42.631988" lon="0.656359">
        <ele>3346.7</ele>
        <time>1970-01-01T04:48:50.000Z</time>
      </trkpt>
      <trkpt lat="42.631984" lon="0.656355">
        <ele>3346.8</ele>
        <time>1970-01-01T04:48:51.000Z</time>
      </trkpt>
      <trkpt lat="42.63198" lon="0.656353">
        <ele>3347</ele>
        <time>1970-01-01T04:48:53.000Z</time>
      </trkpt>
      <trkpt lat="42.631976" lon="0.65635">
        <ele>3347.1</ele>
        <time>1970-01-01T04:48:54.000Z</time>
      </trkpt>
      <trkpt lat="42.631968" lon="0.656347">
        <ele>3347.3</ele>
        <time>1970-01-01T04:48:56.000Z</time>
      </trkpt>
      <trkpt lat="42.631965" lon="0.656345">
        <ele>3347.4</ele>
        <time>1970-01-01T04:48:57.000Z</time>
      </trkpt>
      <trkpt lat="42.631962" lon="0.656344">
        <ele>3347.5</ele>
        <time>1970-01-01T04:48:58.000Z</time>
      </trkpt>
      <trkpt lat="42.63196" lon="0.656342">
        <ele>3347.5</ele>
        <time>1970-01-01T04:48:59.000Z</time>
      </trkpt>
      <trkpt lat="42.631957" lon="0.65634">
        <ele>3347.6</ele>
        <time>1970-01-01T04:49:00.000Z</time>
      </trkpt>
      <trkpt lat="42.631956" lon="0.656339">
        <ele>3347.6</ele>
        <time>1970-01-01T04:49:02.000Z</time>
      </trkpt>
      <trkpt lat="42.631956" lon="0.656337">
        <ele>3347.7</ele>
        <time>1970-01-01T04:49:03.000Z</time>
      </trkpt>
      <trkpt lat="42.631956" lon="0.656335">
        <ele>3347.7</ele>
        <time>1970-01-01T04:49:04.000Z</time>
      </trkpt>
      <trkpt lat="42.631956" lon="0.656333">
        <ele>3347.8</ele>
        <time>1970-01-01T04:49:05.000Z</time>
      </trkpt>
      <trkpt lat="42.631956" lon="0.656333">
        <ele>3347.8</ele>
        <time>1970-01-01T04:49:06.000Z</time>
      </trkpt>
      <trkpt lat="42.631957" lon="0.656332">
        <ele>3347.8</ele>
        <time>1970-01-01T04:49:07.000Z</time>
      </trkpt>
      <trkpt lat="42.631957" lon="0.65633">
        <ele>3347.8</ele>
        <time>1970-01-01T04:49:08.000Z</time>
      </trkpt>
      <trkpt lat="42.631957" lon="0.656328">
        <ele>3347.9</ele>
        <time>1970-01-01T04:49:09.000Z</time>
      </trkpt>
      <trkpt lat="42.631954" lon="0.656326">
        <ele>3348</ele>
        <time>1970-01-01T04:49:10.000Z</time>
      </trkpt>
      <trkpt lat="42.631949" lon="0.65632">
        <ele>3348.1</ele>
        <time>1970-01-01T04:49:12.000Z</time>
      </trkpt>
      <trkpt lat="42.631942" lon="0.656315">
        <ele>3348.3</ele>
        <time>1970-01-01T04:49:13.000Z</time>
      </trkpt>
      <trkpt lat="42.631938" lon="0.656313">
        <ele>3348.5</ele>
        <time>1970-01-01T04:49:14.000Z</time>
      </trkpt>
      <trkpt lat="42.631927" lon="0.656312">
        <ele>3348.8</ele>
        <time>1970-01-01T04:49:16.000Z</time>
      </trkpt>
      <trkpt lat="42.631921" lon="0.656315">
        <ele>3348.9</ele>
        <time>1970-01-01T04:49:17.000Z</time>
      </trkpt>
      <trkpt lat="42.631915" lon="0.656324">
        <ele>3349.2</ele>
        <time>1970-01-01T04:49:18.000Z</time>
      </trkpt>
      <trkpt lat="42.631912" lon="0.65633">
        <ele>3349.3</ele>
        <time>1970-01-01T04:49:19.000Z</time>
      </trkpt>
      <trkpt lat="42.63191" lon="0.656337">
        <ele>3349.4</ele>
        <time>1970-01-01T04:49:20.000Z</time>
      </trkpt>
      <trkpt lat="42.631909" lon="0.656345">
        <ele>3349.6</ele>
        <time>1970-01-01T04:49:21.000Z</time>
      </trkpt>
      <trkpt lat="42.631908" lon="0.656353">
        <ele>3349.8</ele>
        <time>1970-01-01T04:49:22.000Z</time>
      </trkpt>
      <trkpt lat="42.631907" lon="0.656359">
        <ele>3349.9</ele>
        <time>1970-01-01T04:49:23.000Z</time>
      </trkpt>
      <trkpt lat="42.631907" lon="0.656364">
        <ele>3350</ele>
        <time>1970-01-01T04:49:24.000Z</time>
      </trkpt>
      <trkpt lat="42.631906" lon="0.656368">
        <ele>3350.1</ele>
        <time>1970-01-01T04:49:25.000Z</time>
      </trkpt>
      <trkpt lat="42.631905" lon="0.656369">
        <ele>3350.1</ele>
        <time>1970-01-01T04:49:26.000Z</time>
      </trkpt>
      <trkpt lat="42.631904" lon="0.656368">
        <ele>3350.1</ele>
        <time>1970-01-01T04:49:27.000Z</time>
      </trkpt>
      <trkpt lat="42.631903" lon="0.656369">
        <ele>3350.2</ele>
        <time>1970-01-01T04:49:28.000Z</time>
      </trkpt>
      <trkpt lat="42.631903" lon="0.656371">
        <ele>3350.2</ele>
        <time>1970-01-01T04:49:29.000Z</time>
      </trkpt>
      <trkpt lat="42.631902" lon="0.656374">
        <ele>3350.3</ele>
        <time>1970-01-01T04:49:31.000Z</time>
      </trkpt>
      <trkpt lat="42.631902" lon="0.656378">
        <ele>3350.3</ele>
        <time>1970-01-01T04:49:32.000Z</time>
      </trkpt>
      <trkpt lat="42.631902" lon="0.656385">
        <ele>3350.5</ele>
        <time>1970-01-01T04:49:33.000Z</time>
      </trkpt>
      <trkpt lat="42.631901" lon="0.656389">
        <ele>3350.6</ele>
        <time>1970-01-01T04:49:34.000Z</time>
      </trkpt>
      <trkpt lat="42.631901" lon="0.656396">
        <ele>3350.7</ele>
        <time>1970-01-01T04:49:35.000Z</time>
      </trkpt>
      <trkpt lat="42.631899" lon="0.656405">
        <ele>3350.9</ele>
        <time>1970-01-01T04:49:36.000Z</time>
      </trkpt>
      <trkpt lat="42.631896" lon="0.656413">
        <ele>3351.1</ele>
        <time>1970-01-01T04:49:38.000Z</time>
      </trkpt>
      <trkpt lat="42.631893" lon="0.65642">
        <ele>3351.2</ele>
        <time>1970-01-01T04:49:39.000Z</time>
      </trkpt>
      <trkpt lat="42.631891" lon="0.656421">
        <ele>3351.3</ele>
        <time>1970-01-01T04:49:40.000Z</time>
      </trkpt>
      <trkpt lat="42.63189" lon="0.65642">
        <ele>3351.3</ele>
        <time>1970-01-01T04:49:41.000Z</time>
      </trkpt>
      <trkpt lat="42.631887" lon="0.656426">
        <ele>3351.4</ele>
        <time>1970-01-01T04:49:43.000Z</time>
      </trkpt>
      <trkpt lat="42.631885" lon="0.65643">
        <ele>3351.5</ele>
        <time>1970-01-01T04:49:45.000Z</time>
      </trkpt>
      <trkpt lat="42.631882" lon="0.656435">
        <ele>3351.7</ele>
        <time>1970-01-01T04:49:46.000Z</time>
      </trkpt>
      <trkpt lat="42.63188" lon="0.656438">
        <ele>3351.7</ele>
        <time>1970-01-01T04:49:47.000Z</time>
      </trkpt>
      <trkpt lat="42.631878" lon="0.65644">
        <ele>3351.8</ele>
        <time>1970-01-01T04:49:48.000Z</time>
      </trkpt>
      <trkpt lat="42.631877" lon="0.656443">
        <ele>3351.9</ele>
        <time>1970-01-01T04:49:49.000Z</time>
      </trkpt>
      <trkpt lat="42.631877" lon="0.656444">
        <ele>3351.9</ele>
        <time>1970-01-01T04:49:50.000Z</time>
      </trkpt>
      <trkpt lat="42.631878" lon="0.656446">
        <ele>3351.9</ele>
        <time>1970-01-01T04:49:51.000Z</time>
      </trkpt>
      <trkpt lat="42.631878" lon="0.656448">
        <ele>3352</ele>
        <time>1970-01-01T04:49:52.000Z</time>
      </trkpt>
      <trkpt lat="42.631878" lon="0.65645">
        <ele>3352</ele>
        <time>1970-01-01T04:49:53.000Z</time>
      </trkpt>
      <trkpt lat="42.631878" lon="0.656453">
        <ele>3352.1</ele>
        <time>1970-01-01T04:49:54.000Z</time>
      </trkpt>
      <trkpt lat="42.631877" lon="0.656456">
        <ele>3352.1</ele>
        <time>1970-01-01T04:49:55.000Z</time>
      </trkpt>
      <trkpt lat="42.631875" lon="0.656458">
        <ele>3352.2</ele>
        <time>1970-01-01T04:49:56.000Z</time>
      </trkpt>
      <trkpt lat="42.631873" lon="0.65646">
        <ele>3352.3</ele>
        <time>1970-01-01T04:49:57.000Z</time>
      </trkpt>
      <trkpt lat="42.63187" lon="0.656463">
        <ele>3352.4</ele>
        <time>1970-01-01T04:49:59.000Z</time>
      </trkpt>
      <trkpt lat="42.631868" lon="0.656464">
        <ele>3352.4</ele>
        <time>1970-01-01T04:50:00.000Z</time>
      </trkpt>
      <trkpt lat="42.631866" lon="0.656464">
        <ele>3352.5</ele>
        <time>1970-01-01T04:50:01.000Z</time>
      </trkpt>
      <trkpt lat="42.631866" lon="0.656463">
        <ele>3352.5</ele>
        <time>1970-01-01T04:50:02.000Z</time>
      </trkpt>
      <trkpt lat="42.631865" lon="0.656463">
        <ele>3352.5</ele>
        <time>1970-01-01T04:50:03.000Z</time>
      </trkpt>
      <trkpt lat="42.631864" lon="0.656462">
        <ele>3352.5</ele>
        <time>1970-01-01T04:50:04.000Z</time>
      </trkpt>
      <trkpt lat="42.631861" lon="0.656462">
        <ele>3352.6</ele>
        <time>1970-01-01T04:50:06.000Z</time>
      </trkpt>
      <trkpt lat="42.631859" lon="0.656461">
        <ele>3352.7</ele>
        <time>1970-01-01T04:50:07.000Z</time>
      </trkpt>
      <trkpt lat="42.631857" lon="0.65646">
        <ele>3352.7</ele>
        <time>1970-01-01T04:50:08.000Z</time>
      </trkpt>
      <trkpt lat="42.631854" lon="0.656459">
        <ele>3352.8</ele>
        <time>1970-01-01T04:50:09.000Z</time>
      </trkpt>
      <trkpt lat="42.631853" lon="0.656459">
        <ele>3352.8</ele>
        <time>1970-01-01T04:50:10.000Z</time>
      </trkpt>
      <trkpt lat="42.631852" lon="0.656459">
        <ele>3352.9</ele>
        <time>1970-01-01T04:50:11.000Z</time>
      </trkpt>
      <trkpt lat="42.631852" lon="0.65646">
        <ele>3352.9</ele>
        <time>1970-01-01T04:50:12.000Z</time>
      </trkpt>
      <trkpt lat="42.631852" lon="0.656461">
        <ele>3352.9</ele>
        <time>1970-01-01T04:50:13.000Z</time>
      </trkpt>
      <trkpt lat="42.631851" lon="0.656461">
        <ele>3352.9</ele>
        <time>1970-01-01T04:50:14.000Z</time>
      </trkpt>
      <trkpt lat="42.631851" lon="0.656462">
        <ele>3353</ele>
        <time>1970-01-01T04:50:15.000Z</time>
      </trkpt>
      <trkpt lat="42.631851" lon="0.656462">
        <ele>3353</ele>
        <time>1970-01-01T04:50:16.000Z</time>
      </trkpt>
      <trkpt lat="42.631849" lon="0.656461">
        <ele>3353</ele>
        <time>1970-01-01T04:50:17.000Z</time>
      </trkpt>
      <trkpt lat="42.631849" lon="0.656461">
        <ele>3353</ele>
        <time>1970-01-01T04:50:18.000Z</time>
      </trkpt>
      <trkpt lat="42.631847" lon="0.656461">
        <ele>3353.1</ele>
        <time>1970-01-01T04:50:19.000Z</time>
      </trkpt>
      <trkpt lat="42.631847" lon="0.65646">
        <ele>3353.1</ele>
        <time>1970-01-01T04:50:20.000Z</time>
      </trkpt>
      <trkpt lat="42.631846" lon="0.656459">
        <ele>3353.1</ele>
        <time>1970-01-01T04:50:21.000Z</time>
      </trkpt>
      <trkpt lat="42.631846" lon="0.656459">
        <ele>3353.1</ele>
        <time>1970-01-01T04:50:22.000Z</time>
      </trkpt>
      <trkpt lat="42.631845" lon="0.656459">
        <ele>3353.1</ele>
        <time>1970-01-01T04:50:23.000Z</time>
      </trkpt>
      <trkpt lat="42.631845" lon="0.65646">
        <ele>3353.2</ele>
        <time>1970-01-01T04:50:24.000Z</time>
      </trkpt>
      <trkpt lat="42.631843" lon="0.65646">
        <ele>3353.2</ele>
        <time>1970-01-01T04:50:25.000Z</time>
      </trkpt>
      <trkpt lat="42.631842" lon="0.65646">
        <ele>3353.2</ele>
        <time>1970-01-01T04:50:26.000Z</time>
      </trkpt>
      <trkpt lat="42.63184" lon="0.65646">
        <ele>3353.3</ele>
        <time>1970-01-01T04:50:27.000Z</time>
      </trkpt>
      <trkpt lat="42.631839" lon="0.65646">
        <ele>3353.3</ele>
        <time>1970-01-01T04:50:28.000Z</time>
      </trkpt>
      <trkpt lat="42.631839" lon="0.65646">
        <ele>3353.3</ele>
        <time>1970-01-01T04:50:29.000Z</time>
      </trkpt>
      <trkpt lat="42.631838" lon="0.656459">
        <ele>3353.4</ele>
        <time>1970-01-01T04:50:30.000Z</time>
      </trkpt>
      <trkpt lat="42.631838" lon="0.656459">
        <ele>3353.4</ele>
        <time>1970-01-01T04:50:31.000Z</time>
      </trkpt>
      <trkpt lat="42.631838" lon="0.656457">
        <ele>3353.4</ele>
        <time>1970-01-01T04:50:32.000Z</time>
      </trkpt>
      <trkpt lat="42.631837" lon="0.656456">
        <ele>3353.4</ele>
        <time>1970-01-01T04:50:33.000Z</time>
      </trkpt>
      <trkpt lat="42.631835" lon="0.656452">
        <ele>3353.5</ele>
        <time>1970-01-01T04:50:34.000Z</time>
      </trkpt>
      <trkpt lat="42.631835" lon="0.65645">
        <ele>3353.6</ele>
        <time>1970-01-01T04:50:35.000Z</time>
      </trkpt>
      <trkpt lat="42.631834" lon="0.656449">
        <ele>3353.6</ele>
        <time>1970-01-01T04:50:36.000Z</time>
      </trkpt>
      <trkpt lat="42.631833" lon="0.656449">
        <ele>3353.6</ele>
        <time>1970-01-01T04:50:37.000Z</time>
      </trkpt>
      <trkpt lat="42.631832" lon="0.656449">
        <ele>3353.6</ele>
        <time>1970-01-01T04:50:38.000Z</time>
      </trkpt>
      <trkpt lat="42.631832" lon="0.656449">
        <ele>3353.6</ele>
        <time>1970-01-01T04:50:39.000Z</time>
      </trkpt>
      <trkpt lat="42.631832" lon="0.656448">
        <ele>3353.7</ele>
        <time>1970-01-01T04:50:40.000Z</time>
      </trkpt>
      <trkpt lat="42.631833" lon="0.656447">
        <ele>3353.7</ele>
        <time>1970-01-01T04:50:41.000Z</time>
      </trkpt>
      <trkpt lat="42.631834" lon="0.656447">
        <ele>3353.7</ele>
        <time>1970-01-01T04:50:42.000Z</time>
      </trkpt>
      <trkpt lat="42.631835" lon="0.656447">
        <ele>3353.8</ele>
        <time>1970-01-01T04:50:43.000Z</time>
      </trkpt>
      <trkpt lat="42.631834" lon="0.656448">
        <ele>3353.8</ele>
        <time>1970-01-01T04:50:44.000Z</time>
      </trkpt>
      <trkpt lat="42.631832" lon="0.656448">
        <ele>3353.8</ele>
        <time>1970-01-01T04:50:45.000Z</time>
      </trkpt>
      <trkpt lat="42.631832" lon="0.656448">
        <ele>3353.8</ele>
        <time>1970-01-01T04:50:46.000Z</time>
      </trkpt>
      <trkpt lat="42.631831" lon="0.656448">
        <ele>3353.9</ele>
        <time>1970-01-01T04:50:47.000Z</time>
      </trkpt>
      <trkpt lat="42.631831" lon="0.656448">
        <ele>3353.9</ele>
        <time>1970-01-01T04:50:48.000Z</time>
      </trkpt>
      <trkpt lat="42.631831" lon="0.656448">
        <ele>3353.9</ele>
        <time>1970-01-01T04:50:49.000Z</time>
      </trkpt>
      <trkpt lat="42.631831" lon="0.656447">
        <ele>3353.9</ele>
        <time>1970-01-01T04:50:50.000Z</time>
      </trkpt>
      <trkpt lat="42.631831" lon="0.656447">
        <ele>3353.9</ele>
        <time>1970-01-01T04:50:51.000Z</time>
      </trkpt>
      <trkpt lat="42.631831" lon="0.656447">
        <ele>3353.9</ele>
        <time>1970-01-01T04:50:52.000Z</time>
      </trkpt>
      <trkpt lat="42.631831" lon="0.656447">
        <ele>3353.9</ele>
        <time>1970-01-01T04:50:53.000Z</time>
      </trkpt>
      <trkpt lat="42.631831" lon="0.656448">
        <ele>3353.9</ele>
        <time>1970-01-01T04:50:54.000Z</time>
      </trkpt>
      <trkpt lat="42.631831" lon="0.656449">
        <ele>3353.9</ele>
        <time>1970-01-01T04:50:55.000Z</time>
      </trkpt>
      <trkpt lat="42.631833" lon="0.656447">
        <ele>3354</ele>
        <time>1970-01-01T04:50:56.000Z</time>
      </trkpt>
      <trkpt lat="42.631835" lon="0.656446">
        <ele>3354</ele>
        <time>1970-01-01T04:50:57.000Z</time>
      </trkpt>
      <trkpt lat="42.631834" lon="0.656448">
        <ele>3354.1</ele>
        <time>1970-01-01T04:50:59.000Z</time>
      </trkpt>
      <trkpt lat="42.631833" lon="0.656448">
        <ele>3354.1</ele>
        <time>1970-01-01T04:51:00.000Z</time>
      </trkpt>
      <trkpt lat="42.631833" lon="0.656449">
        <ele>3354.1</ele>
        <time>1970-01-01T04:51:01.000Z</time>
      </trkpt>
      <trkpt lat="42.631833" lon="0.656449">
        <ele>3354.1</ele>
        <time>1970-01-01T04:51:02.000Z</time>
      </trkpt>
      <trkpt lat="42.631834" lon="0.656449">
        <ele>3354.2</ele>
        <time>1970-01-01T04:51:03.000Z</time>
      </trkpt>
      <trkpt lat="42.631834" lon="0.656449">
        <ele>3354.2</ele>
        <time>1970-01-01T04:51:04.000Z</time>
      </trkpt>
      <trkpt lat="42.631834" lon="0.656449">
        <ele>3354.2</ele>
        <time>1970-01-01T04:51:05.000Z</time>
      </trkpt>
      <trkpt lat="42.631833" lon="0.656449">
        <ele>3354.2</ele>
        <time>1970-01-01T04:51:06.000Z</time>
      </trkpt>
      <trkpt lat="42.631833" lon="0.65645">
        <ele>3354.2</ele>
        <time>1970-01-01T04:51:07.000Z</time>
      </trkpt>
      <trkpt lat="42.631833" lon="0.65645">
        <ele>3354.2</ele>
        <time>1970-01-01T04:51:08.000Z</time>
      </trkpt>
      <trkpt lat="42.631833" lon="0.65645">
        <ele>3354.2</ele>
        <time>1970-01-01T04:51:09.000Z</time>
      </trkpt>
      <trkpt lat="42.631833" lon="0.65645">
        <ele>3354.2</ele>
        <time>1970-01-01T04:51:10.000Z</time>
      </trkpt>
      <trkpt lat="42.631833" lon="0.65645">
        <ele>3354.2</ele>
        <time>1970-01-01T04:51:11.000Z</time>
      </trkpt>
      <trkpt lat="42.631833" lon="0.656449">
        <ele>3354.2</ele>
        <time>1970-01-01T04:51:12.000Z</time>
      </trkpt>
      <trkpt lat="42.631833" lon="0.656449">
        <ele>3354.2</ele>
        <time>1970-01-01T04:51:13.000Z</time>
      </trkpt>
      <trkpt lat="42.631833" lon="0.656448">
        <ele>3354.3</ele>
        <time>1970-01-01T04:51:14.000Z</time>
      </trkpt>
      <trkpt lat="42.631833" lon="0.656449">
        <ele>3354.3</ele>
        <time>1970-01-01T04:51:15.000Z</time>
      </trkpt>
      <trkpt lat="42.631833" lon="0.656449">
        <ele>3354.3</ele>
        <time>1970-01-01T04:51:16.000Z</time>
      </trkpt>
      <trkpt lat="42.631833" lon="0.656449">
        <ele>3354.3</ele>
        <time>1970-01-01T04:51:17.000Z</time>
      </trkpt>
      <trkpt lat="42.631833" lon="0.656449">
        <ele>3354.3</ele>
        <time>1970-01-01T04:51:18.000Z</time>
      </trkpt>
      <trkpt lat="42.631833" lon="0.656448">
        <ele>3354.3</ele>
        <time>1970-01-01T04:51:19.000Z</time>
      </trkpt>
      <trkpt lat="42.631832" lon="0.656448">
        <ele>3354.3</ele>
        <time>1970-01-01T04:51:20.000Z</time>
      </trkpt>
      <trkpt lat="42.631832" lon="0.656448">
        <ele>3354.3</ele>
        <time>1970-01-01T04:51:21.000Z</time>
      </trkpt>
      <trkpt lat="42.631832" lon="0.656448">
        <ele>3354.3</ele>
        <time>1970-01-01T04:51:22.000Z</time>
      </trkpt>
      <trkpt lat="42.631832" lon="0.656448">
        <ele>3354.3</ele>
        <time>1970-01-01T04:51:23.000Z</time>
      </trkpt>
      <trkpt lat="42.631832" lon="0.656448">
        <ele>3354.3</ele>
        <time>1970-01-01T04:51:24.000Z</time>
      </trkpt>
      <trkpt lat="42.631832" lon="0.656448">
        <ele>3354.3</ele>
        <time>1970-01-01T04:51:25.000Z</time>
      </trkpt>
      <trkpt lat="42.631832" lon="0.656448">
        <ele>3354.3</ele>
        <time>1970-01-01T04:51:26.000Z</time>
      </trkpt>
      <trkpt lat="42.631832" lon="0.656448">
        <ele>3354.3</ele>
        <time>1970-01-01T04:51:27.000Z</time>
      </trkpt>
      <trkpt lat="42.631832" lon="0.656448">
        <ele>3354.3</ele>
        <time>1970-01-01T04:51:28.000Z</time>
      </trkpt>
      <trkpt lat="42.631832" lon="0.656448">
        <ele>3354.3</ele>
        <time>1970-01-01T04:51:29.000Z</time>
      </trkpt>
      <trkpt lat="42.631832" lon="0.656448">
        <ele>3354.3</ele>
        <time>1970-01-01T04:51:30.000Z</time>
      </trkpt>
      <trkpt lat="42.631832" lon="0.656448">
        <ele>3354.3</ele>
        <time>1970-01-01T04:51:31.000Z</time>
      </trkpt>
      <trkpt lat="42.631832" lon="0.656448">
        <ele>3354.3</ele>
        <time>1970-01-01T04:51:32.000Z</time>
      </trkpt>
      <trkpt lat="42.631832" lon="0.656448">
        <ele>3354.3</ele>
        <time>1970-01-01T04:51:33.000Z</time>
      </trkpt>
      <trkpt lat="42.631832" lon="0.656448">
        <ele>3354.3</ele>
        <time>1970-01-01T04:51:34.000Z</time>
      </trkpt>
      <trkpt lat="42.631832" lon="0.656448">
        <ele>3354.3</ele>
        <time>1970-01-01T04:51:35.000Z</time>
      </trkpt>
      <trkpt lat="42.631832" lon="0.656448">
        <ele>3354.3</ele>
        <time>1970-01-01T04:51:36.000Z</time>
      </trkpt>
      <trkpt lat="42.631832" lon="0.656448">
        <ele>3354.3</ele>
        <time>1970-01-01T04:51:37.000Z</time>
      </trkpt>
      <trkpt lat="42.631832" lon="0.656448">
        <ele>3354.3</ele>
        <time>1970-01-01T04:51:38.000Z</time>
      </trkpt>
      <trkpt lat="42.631832" lon="0.656448">
        <ele>3354.3</ele>
        <time>1970-01-01T04:51:39.000Z</time>
      </trkpt>
      <trkpt lat="42.631832" lon="0.656448">
        <ele>3354.3</ele>
        <time>1970-01-01T04:51:40.000Z</time>
      </trkpt>
      <trkpt lat="42.631832" lon="0.656448">
        <ele>3354.3</ele>
        <time>1970-01-01T04:51:41.000Z</time>
      </trkpt>
      <trkpt lat="42.631832" lon="0.656448">
        <ele>3354.3</ele>
        <time>1970-01-01T04:51:42.000Z</time>
      </trkpt>
      <trkpt lat="42.631832" lon="0.656448">
        <ele>3354.3</ele>
        <time>1970-01-01T04:51:43.000Z</time>
      </trkpt>
      <trkpt lat="42.631832" lon="0.656448">
        <ele>3354.3</ele>
        <time>1970-01-01T04:51:44.000Z</time>
      </trkpt>
      <trkpt lat="42.631832" lon="0.656448">
        <ele>3354.3</ele>
        <time>1970-01-01T04:51:45.000Z</time>
      </trkpt>
      <trkpt lat="42.631832" lon="0.656448">
        <ele>3354.3</ele>
        <time>1970-01-01T04:51:46.000Z</time>
      </trkpt>
      <trkpt lat="42.631832" lon="0.656448">
        <ele>3354.3</ele>
        <time>1970-01-01T04:51:47.000Z</time>
      </trkpt>
      <trkpt lat="42.631832" lon="0.656448">
        <ele>3354.3</ele>
        <time>1970-01-01T04:51:48.000Z</time>
      </trkpt>
      <trkpt lat="42.631832" lon="0.656448">
        <ele>3354.3</ele>
        <time>1970-01-01T04:51:49.000Z</time>
      </trkpt>
      <trkpt lat="42.631832" lon="0.656448">
        <ele>3354.3</ele>
        <time>1970-01-01T04:51:50.000Z</time>
      </trkpt>
      <trkpt lat="42.631832" lon="0.656448">
        <ele>3354.3</ele>
        <time>1970-01-01T04:51:51.000Z</time>
      </trkpt>
      <trkpt lat="42.631832" lon="0.656448">
        <ele>3354.3</ele>
        <time>1970-01-01T04:51:52.000Z</time>
      </trkpt>
      <trkpt lat="42.631832" lon="0.656448">
        <ele>3354.3</ele>
        <time>1970-01-01T04:51:53.000Z</time>
      </trkpt>
      <trkpt lat="42.631832" lon="0.656448">
        <ele>3354.3</ele>
        <time>1970-01-01T04:51:54.000Z</time>
      </trkpt>
      <trkpt lat="42.631832" lon="0.656448">
        <ele>3354.3</ele>
        <time>1970-01-01T04:51:55.000Z</time>
      </trkpt>
      <trkpt lat="42.631832" lon="0.656448">
        <ele>3354.3</ele>
        <time>1970-01-01T04:51:56.000Z</time>
      </trkpt>
      <trkpt lat="42.631832" lon="0.656448">
        <ele>3354.3</ele>
        <time>1970-01-01T04:51:57.000Z</time>
      </trkpt>
      <trkpt lat="42.631832" lon="0.656448">
        <ele>3354.3</ele>
        <time>1970-01-01T04:51:58.000Z</time>
      </trkpt>
      <trkpt lat="42.631832" lon="0.656448">
        <ele>3354.3</ele>
        <time>1970-01-01T04:51:59.000Z</time>
      </trkpt>
      <trkpt lat="42.631832" lon="0.656448">
        <ele>3354.3</ele>
        <time>1970-01-01T04:52:00.000Z</time>
      </trkpt>
      <trkpt lat="42.631832" lon="0.656448">
        <ele>3354.3</ele>
        <time>1970-01-01T04:52:01.000Z</time>
      </trkpt>
      <trkpt lat="42.631832" lon="0.656448">
        <ele>3354.3</ele>
        <time>1970-01-01T04:52:02.000Z</time>
      </trkpt>
      <trkpt lat="42.631832" lon="0.656448">
        <ele>3354.3</ele>
        <time>1970-01-01T04:52:03.000Z</time>
      </trkpt>
      <trkpt lat="42.631832" lon="0.656448">
        <ele>3354.3</ele>
        <time>1970-01-01T04:52:04.000Z</time>
      </trkpt>
      <trkpt lat="42.631832" lon="0.656448">
        <ele>3354.3</ele>
        <time>1970-01-01T04:52:05.000Z</time>
      </trkpt>
      <trkpt lat="42.631832" lon="0.656448">
        <ele>3354.3</ele>
        <time>1970-01-01T04:52:06.000Z</time>
      </trkpt>
      <trkpt lat="42.631832" lon="0.656448">
        <ele>3354.3</ele>
        <time>1970-01-01T04:52:07.000Z</time>
      </trkpt>
      <trkpt lat="42.631832" lon="0.656448">
        <ele>3354.3</ele>
        <time>1970-01-01T04:52:08.000Z</time>
      </trkpt>
      <trkpt lat="42.631832" lon="0.656448">
        <ele>3354.3</ele>
        <time>1970-01-01T04:52:09.000Z</time>
      </trkpt>
      <trkpt lat="42.631832" lon="0.656448">
        <ele>3354.3</ele>
        <time>1970-01-01T04:52:10.000Z</time>
      </trkpt>
      <trkpt lat="42.631832" lon="0.656448">
        <ele>3354.3</ele>
        <time>1970-01-01T04:52:11.000Z</time>
      </trkpt>
      <trkpt lat="42.631832" lon="0.656448">
        <ele>3354.3</ele>
        <time>1970-01-01T04:52:12.000Z</time>
      </trkpt>
      <trkpt lat="42.631832" lon="0.656448">
        <ele>3354.3</ele>
        <time>1970-01-01T04:52:13.000Z</time>
      </trkpt>
      <trkpt lat="42.631832" lon="0.656448">
        <ele>3354.3</ele>
        <time>1970-01-01T04:52:14.000Z</time>
      </trkpt>
      <trkpt lat="42.631832" lon="0.656448">
        <ele>3354.3</ele>
        <time>1970-01-01T04:52:15.000Z</time>
      </trkpt>
      <trkpt lat="42.631832" lon="0.656448">
        <ele>3354.3</ele>
        <time>1970-01-01T04:52:16.000Z</time>
      </trkpt>
      <trkpt lat="42.631832" lon="0.656448">
        <ele>3354.3</ele>
        <time>1970-01-01T04:52:17.000Z</time>
      </trkpt>
      <trkpt lat="42.631832" lon="0.656448">
        <ele>3354.3</ele>
        <time>1970-01-01T04:52:18.000Z</time>
      </trkpt>
      <trkpt lat="42.631832" lon="0.656448">
        <ele>3354.3</ele>
        <time>1970-01-01T04:52:19.000Z</time>
      </trkpt>
      <trkpt lat="42.631832" lon="0.656448">
        <ele>3354.3</ele>
        <time>1970-01-01T04:52:20.000Z</time>
      </trkpt>
      <trkpt lat="42.631832" lon="0.656448">
        <ele>3354.3</ele>
        <time>1970-01-01T04:52:21.000Z</time>
      </trkpt>
      <trkpt lat="42.631832" lon="0.656448">
        <ele>3354.3</ele>
        <time>1970-01-01T04:52:22.000Z</time>
      </trkpt>
      <trkpt lat="42.631832" lon="0.656448">
        <ele>3354.3</ele>
        <time>1970-01-01T04:52:23.000Z</time>
      </trkpt>
      <trkpt lat="42.631832" lon="0.656448">
        <ele>3354.3</ele>
        <time>1970-01-01T04:52:24.000Z</time>
      </trkpt>
      <trkpt lat="42.631832" lon="0.656448">
        <ele>3354.3</ele>
        <time>1970-01-01T04:52:25.000Z</time>
      </trkpt>
      <trkpt lat="42.631832" lon="0.656448">
        <ele>3354.3</ele>
        <time>1970-01-01T04:52:26.000Z</time>
      </trkpt>
      <trkpt lat="42.631832" lon="0.656448">
        <ele>3354.3</ele>
        <time>1970-01-01T04:52:27.000Z</time>
      </trkpt>
      <trkpt lat="42.631832" lon="0.656448">
        <ele>3354.3</ele>
        <time>1970-01-01T04:52:28.000Z</time>
      </trkpt>
      <trkpt lat="42.631832" lon="0.656448">
        <ele>3354.3</ele>
        <time>1970-01-01T04:52:29.000Z</time>
      </trkpt>
      <trkpt lat="42.631832" lon="0.656448">
        <ele>3354.3</ele>
        <time>1970-01-01T04:52:30.000Z</time>
      </trkpt>
      <trkpt lat="42.631832" lon="0.656448">
        <ele>3354.3</ele>
        <time>1970-01-01T04:52:31.000Z</time>
      </trkpt>
      <trkpt lat="42.631832" lon="0.656448">
        <ele>3354.3</ele>
        <time>1970-01-01T04:52:32.000Z</time>
      </trkpt>
      <trkpt lat="42.631832" lon="0.656448">
        <ele>3354.3</ele>
        <time>1970-01-01T04:52:33.000Z</time>
      </trkpt>
      <trkpt lat="42.631832" lon="0.656448">
        <ele>3354.3</ele>
        <time>1970-01-01T04:52:34.000Z</time>
      </trkpt>
      <trkpt lat="42.631832" lon="0.656448">
        <ele>3354.3</ele>
        <time>1970-01-01T04:52:35.000Z</time>
      </trkpt>
      <trkpt lat="42.631832" lon="0.656448">
        <ele>3354.3</ele>
        <time>1970-01-01T04:52:36.000Z</time>
      </trkpt>
      <trkpt lat="42.631832" lon="0.656448">
        <ele>3354.3</ele>
        <time>1970-01-01T04:52:37.000Z</time>
      </trkpt>
      <trkpt lat="42.631832" lon="0.656448">
        <ele>3354.3</ele>
        <time>1970-01-01T04:52:38.000Z</time>
      </trkpt>
      <trkpt lat="42.631832" lon="0.656448">
        <ele>3354.3</ele>
        <time>1970-01-01T04:52:39.000Z</time>
      </trkpt>
      <trkpt lat="42.631832" lon="0.656448">
        <ele>3354.3</ele>
        <time>1970-01-01T04:52:40.000Z</time>
      </trkpt>
      <trkpt lat="42.631832" lon="0.656448">
        <ele>3354.3</ele>
        <time>1970-01-01T04:52:41.000Z</time>
      </trkpt>
      <trkpt lat="42.631832" lon="0.656448">
        <ele>3354.3</ele>
        <time>1970-01-01T04:52:42.000Z</time>
      </trkpt>
      <trkpt lat="42.631832" lon="0.656448">
        <ele>3354.3</ele>
        <time>1970-01-01T04:52:43.000Z</time>
      </trkpt>
      <trkpt lat="42.631832" lon="0.656448">
        <ele>3354.3</ele>
        <time>1970-01-01T04:52:44.000Z</time>
      </trkpt>
      <trkpt lat="42.631831" lon="0.656448">
        <ele>3354.3</ele>
        <time>1970-01-01T04:52:45.000Z</time>
      </trkpt>
      <trkpt lat="42.631831" lon="0.656448">
        <ele>3354.3</ele>
        <time>1970-01-01T04:52:46.000Z</time>
      </trkpt>
      <trkpt lat="42.631831" lon="0.656448">
        <ele>3354.3</ele>
        <time>1970-01-01T04:52:47.000Z</time>
      </trkpt>
      <trkpt lat="42.631831" lon="0.656448">
        <ele>3354.3</ele>
        <time>1970-01-01T04:52:48.000Z</time>
      </trkpt>
      <trkpt lat="42.631831" lon="0.656448">
        <ele>3354.3</ele>
        <time>1970-01-01T04:52:49.000Z</time>
      </trkpt>
      <trkpt lat="42.631831" lon="0.656448">
        <ele>3354.3</ele>
        <time>1970-01-01T04:52:50.000Z</time>
      </trkpt>
      <trkpt lat="42.631831" lon="0.656448">
        <ele>3354.3</ele>
        <time>1970-01-01T04:52:51.000Z</time>
      </trkpt>
      <trkpt lat="42.631831" lon="0.656448">
        <ele>3354.3</ele>
        <time>1970-01-01T04:52:52.000Z</time>
      </trkpt>
      <trkpt lat="42.631831" lon="0.656448">
        <ele>3354.3</ele>
        <time>1970-01-01T04:52:53.000Z</time>
      </trkpt>
      <trkpt lat="42.631831" lon="0.656448">
        <ele>3354.3</ele>
        <time>1970-01-01T04:52:54.000Z</time>
      </trkpt>
      <trkpt lat="42.631831" lon="0.656448">
        <ele>3354.3</ele>
        <time>1970-01-01T04:52:55.000Z</time>
      </trkpt>
      <trkpt lat="42.631831" lon="0.656448">
        <ele>3354.3</ele>
        <time>1970-01-01T04:52:56.000Z</time>
      </trkpt>
      <trkpt lat="42.631831" lon="0.656448">
        <ele>3354.3</ele>
        <time>1970-01-01T04:52:57.000Z</time>
      </trkpt>
      <trkpt lat="42.631831" lon="0.656448">
        <ele>3354.3</ele>
        <time>1970-01-01T04:52:58.000Z</time>
      </trkpt>
      <trkpt lat="42.631831" lon="0.656448">
        <ele>3354.3</ele>
        <time>1970-01-01T04:52:59.000Z</time>
      </trkpt>
      <trkpt lat="42.631831" lon="0.656448">
        <ele>3354.3</ele>
        <time>1970-01-01T04:53:00.000Z</time>
      </trkpt>
      <trkpt lat="42.631831" lon="0.656448">
        <ele>3354.3</ele>
        <time>1970-01-01T04:53:01.000Z</time>
      </trkpt>
      <trkpt lat="42.631831" lon="0.656448">
        <ele>3354.3</ele>
        <time>1970-01-01T04:53:02.000Z</time>
      </trkpt>
      <trkpt lat="42.631831" lon="0.656449">
        <ele>3354.4</ele>
        <time>1970-01-01T04:53:03.000Z</time>
      </trkpt>
      <trkpt lat="42.631831" lon="0.65645">
        <ele>3354.4</ele>
        <time>1970-01-01T04:53:04.000Z</time>
      </trkpt>
      <trkpt lat="42.631831" lon="0.65645">
        <ele>3354.4</ele>
        <time>1970-01-01T04:53:05.000Z</time>
      </trkpt>
      <trkpt lat="42.631831" lon="0.656451">
        <ele>3354.4</ele>
        <time>1970-01-01T04:53:06.000Z</time>
      </trkpt>
      <trkpt lat="42.631832" lon="0.65645">
        <ele>3354.4</ele>
        <time>1970-01-01T04:53:08.000Z</time>
      </trkpt>
      <trkpt lat="42.631833" lon="0.656451">
        <ele>3354.5</ele>
        <time>1970-01-01T04:53:09.000Z</time>
      </trkpt>
      <trkpt lat="42.631834" lon="0.656451">
        <ele>3354.5</ele>
        <time>1970-01-01T04:53:10.000Z</time>
      </trkpt>
      <trkpt lat="42.631834" lon="0.656452">
        <ele>3354.5</ele>
        <time>1970-01-01T04:53:11.000Z</time>
      </trkpt>
      <trkpt lat="42.631834" lon="0.656452">
        <ele>3354.5</ele>
        <time>1970-01-01T04:53:12.000Z</time>
      </trkpt>
      <trkpt lat="42.631834" lon="0.656452">
        <ele>3354.5</ele>
        <time>1970-01-01T04:53:13.000Z</time>
      </trkpt>
      <trkpt lat="42.631833" lon="0.656452">
        <ele>3354.5</ele>
        <time>1970-01-01T04:53:14.000Z</time>
      </trkpt>
      <trkpt lat="42.631833" lon="0.656452">
        <ele>3354.5</ele>
        <time>1970-01-01T04:53:15.000Z</time>
      </trkpt>
      <trkpt lat="42.631833" lon="0.656452">
        <ele>3354.5</ele>
        <time>1970-01-01T04:53:16.000Z</time>
      </trkpt>
      <trkpt lat="42.631833" lon="0.656452">
        <ele>3354.5</ele>
        <time>1970-01-01T04:53:17.000Z</time>
      </trkpt>
      <trkpt lat="42.631833" lon="0.656452">
        <ele>3354.5</ele>
        <time>1970-01-01T04:53:18.000Z</time>
      </trkpt>
      <trkpt lat="42.631833" lon="0.656452">
        <ele>3354.5</ele>
        <time>1970-01-01T04:53:19.000Z</time>
      </trkpt>
      <trkpt lat="42.631833" lon="0.656452">
        <ele>3354.5</ele>
        <time>1970-01-01T04:53:20.000Z</time>
      </trkpt>
      <trkpt lat="42.631833" lon="0.656453">
        <ele>3354.6</ele>
        <time>1970-01-01T04:53:21.000Z</time>
      </trkpt>
      <trkpt lat="42.631833" lon="0.656453">
        <ele>3354.6</ele>
        <time>1970-01-01T04:53:22.000Z</time>
      </trkpt>
      <trkpt lat="42.631833" lon="0.656453">
        <ele>3354.6</ele>
        <time>1970-01-01T04:53:23.000Z</time>
      </trkpt>
      <trkpt lat="42.631833" lon="0.656453">
        <ele>3354.6</ele>
        <time>1970-01-01T04:53:24.000Z</time>
      </trkpt>
      <trkpt lat="42.631833" lon="0.656453">
        <ele>3354.6</ele>
        <time>1970-01-01T04:53:25.000Z</time>
      </trkpt>
      <trkpt lat="42.631833" lon="0.656452">
        <ele>3354.6</ele>
        <time>1970-01-01T04:53:26.000Z</time>
      </trkpt>
      <trkpt lat="42.631832" lon="0.656452">
        <ele>3354.6</ele>
        <time>1970-01-01T04:53:27.000Z</time>
      </trkpt>
      <trkpt lat="42.631831" lon="0.656451">
        <ele>3354.6</ele>
        <time>1970-01-01T04:53:28.000Z</time>
      </trkpt>
      <trkpt lat="42.63183" lon="0.656451">
        <ele>3354.7</ele>
        <time>1970-01-01T04:53:29.000Z</time>
      </trkpt>
      <trkpt lat="42.63183" lon="0.656451">
        <ele>3354.7</ele>
        <time>1970-01-01T04:53:30.000Z</time>
      </trkpt>
      <trkpt lat="42.63183" lon="0.656451">
        <ele>3354.7</ele>
        <time>1970-01-01T04:53:31.000Z</time>
      </trkpt>
      <trkpt lat="42.63183" lon="0.656451">
        <ele>3354.7</ele>
        <time>1970-01-01T04:53:32.000Z</time>
      </trkpt>
      <trkpt lat="42.63183" lon="0.656451">
        <ele>3354.7</ele>
        <time>1970-01-01T04:53:33.000Z</time>
      </trkpt>
      <trkpt lat="42.63183" lon="0.656451">
        <ele>3354.7</ele>
        <time>1970-01-01T04:53:34.000Z</time>
      </trkpt>
      <trkpt lat="42.63183" lon="0.656451">
        <ele>3354.7</ele>
        <time>1970-01-01T04:53:35.000Z</time>
      </trkpt>
      <trkpt lat="42.63183" lon="0.656451">
        <ele>3354.7</ele>
        <time>1970-01-01T04:53:36.000Z</time>
      </trkpt>
      <trkpt lat="42.63183" lon="0.656451">
        <ele>3354.7</ele>
        <time>1970-01-01T04:53:37.000Z</time>
      </trkpt>
      <trkpt lat="42.63183" lon="0.656451">
        <ele>3354.7</ele>
        <time>1970-01-01T04:53:38.000Z</time>
      </trkpt>
      <trkpt lat="42.63183" lon="0.656451">
        <ele>3354.7</ele>
        <time>1970-01-01T04:53:39.000Z</time>
      </trkpt>
      <trkpt lat="42.63183" lon="0.656451">
        <ele>3354.7</ele>
        <time>1970-01-01T04:53:40.000Z</time>
      </trkpt>
      <trkpt lat="42.63183" lon="0.656451">
        <ele>3354.7</ele>
        <time>1970-01-01T04:53:41.000Z</time>
      </trkpt>
      <trkpt lat="42.63183" lon="0.656451">
        <ele>3354.7</ele>
        <time>1970-01-01T04:53:42.000Z</time>
      </trkpt>
      <trkpt lat="42.63183" lon="0.656451">
        <ele>3354.7</ele>
        <time>1970-01-01T04:53:43.000Z</time>
      </trkpt>
      <trkpt lat="42.63183" lon="0.656451">
        <ele>3354.7</ele>
        <time>1970-01-01T04:53:44.000Z</time>
      </trkpt>
      <trkpt lat="42.63183" lon="0.656451">
        <ele>3354.7</ele>
        <time>1970-01-01T04:53:45.000Z</time>
      </trkpt>
      <trkpt lat="42.63183" lon="0.656451">
        <ele>3354.7</ele>
        <time>1970-01-01T04:53:46.000Z</time>
      </trkpt>
      <trkpt lat="42.63183" lon="0.656451">
        <ele>3354.7</ele>
        <time>1970-01-01T04:53:47.000Z</time>
      </trkpt>
      <trkpt lat="42.63183" lon="0.656451">
        <ele>3354.7</ele>
        <time>1970-01-01T04:53:48.000Z</time>
      </trkpt>
      <trkpt lat="42.63183" lon="0.656451">
        <ele>3354.7</ele>
        <time>1970-01-01T04:53:49.000Z</time>
      </trkpt>
      <trkpt lat="42.63183" lon="0.656451">
        <ele>3354.7</ele>
        <time>1970-01-01T04:53:50.000Z</time>
      </trkpt>
      <trkpt lat="42.63183" lon="0.656451">
        <ele>3354.7</ele>
        <time>1970-01-01T04:53:51.000Z</time>
      </trkpt>
      <trkpt lat="42.63183" lon="0.656451">
        <ele>3354.7</ele>
        <time>1970-01-01T04:53:52.000Z</time>
      </trkpt>
      <trkpt lat="42.63183" lon="0.656451">
        <ele>3354.7</ele>
        <time>1970-01-01T04:53:53.000Z</time>
      </trkpt>
      <trkpt lat="42.63183" lon="0.656451">
        <ele>3354.7</ele>
        <time>1970-01-01T04:53:54.000Z</time>
      </trkpt>
      <trkpt lat="42.63183" lon="0.656451">
        <ele>3354.7</ele>
        <time>1970-01-01T04:53:55.000Z</time>
      </trkpt>
      <trkpt lat="42.63183" lon="0.656451">
        <ele>3354.7</ele>
        <time>1970-01-01T04:53:56.000Z</time>
      </trkpt>
      <trkpt lat="42.63183" lon="0.656451">
        <ele>3354.7</ele>
        <time>1970-01-01T04:53:57.000Z</time>
      </trkpt>
      <trkpt lat="42.63183" lon="0.656451">
        <ele>3354.7</ele>
        <time>1970-01-01T04:53:58.000Z</time>
      </trkpt>
      <trkpt lat="42.63183" lon="0.656451">
        <ele>3354.7</ele>
        <time>1970-01-01T04:53:59.000Z</time>
      </trkpt>
      <trkpt lat="42.63183" lon="0.656451">
        <ele>3354.7</ele>
        <time>1970-01-01T04:54:00.000Z</time>
      </trkpt>
      <trkpt lat="42.63183" lon="0.656451">
        <ele>3354.7</ele>
        <time>1970-01-01T04:54:01.000Z</time>
      </trkpt>
      <trkpt lat="42.63183" lon="0.656451">
        <ele>3354.7</ele>
        <time>1970-01-01T04:54:02.000Z</time>
      </trkpt>
      <trkpt lat="42.63183" lon="0.656451">
        <ele>3354.7</ele>
        <time>1970-01-01T04:54:03.000Z</time>
      </trkpt>
      <trkpt lat="42.63183" lon="0.656451">
        <ele>3354.7</ele>
        <time>1970-01-01T04:54:04.000Z</time>
      </trkpt>
      <trkpt lat="42.63183" lon="0.656451">
        <ele>3354.7</ele>
        <time>1970-01-01T04:54:05.000Z</time>
      </trkpt>
      <trkpt lat="42.63183" lon="0.656451">
        <ele>3354.7</ele>
        <time>1970-01-01T04:54:06.000Z</time>
      </trkpt>
      <trkpt lat="42.63183" lon="0.656451">
        <ele>3354.7</ele>
        <time>1970-01-01T04:54:07.000Z</time>
      </trkpt>
      <trkpt lat="42.63183" lon="0.656451">
        <ele>3354.7</ele>
        <time>1970-01-01T04:54:08.000Z</time>
      </trkpt>
      <trkpt lat="42.63183" lon="0.656451">
        <ele>3354.7</ele>
        <time>1970-01-01T04:54:09.000Z</time>
      </trkpt>
      <trkpt lat="42.63183" lon="0.656451">
        <ele>3354.7</ele>
        <time>1970-01-01T04:54:10.000Z</time>
      </trkpt>
      <trkpt lat="42.63183" lon="0.656451">
        <ele>3354.7</ele>
        <time>1970-01-01T04:54:11.000Z</time>
      </trkpt>
      <trkpt lat="42.63183" lon="0.656451">
        <ele>3354.7</ele>
        <time>1970-01-01T04:54:12.000Z</time>
      </trkpt>
      <trkpt lat="42.63183" lon="0.656451">
        <ele>3354.7</ele>
        <time>1970-01-01T04:54:13.000Z</time>
      </trkpt>
      <trkpt lat="42.63183" lon="0.656451">
        <ele>3354.7</ele>
        <time>1970-01-01T04:54:14.000Z</time>
      </trkpt>
      <trkpt lat="42.63183" lon="0.656451">
        <ele>3354.7</ele>
        <time>1970-01-01T04:54:15.000Z</time>
      </trkpt>
      <trkpt lat="42.63183" lon="0.656451">
        <ele>3354.7</ele>
        <time>1970-01-01T04:54:16.000Z</time>
      </trkpt>
      <trkpt lat="42.63183" lon="0.656451">
        <ele>3354.7</ele>
        <time>1970-01-01T04:54:17.000Z</time>
      </trkpt>
      <trkpt lat="42.63183" lon="0.656451">
        <ele>3354.7</ele>
        <time>1970-01-01T04:54:18.000Z</time>
      </trkpt>
      <trkpt lat="42.63183" lon="0.656451">
        <ele>3354.7</ele>
        <time>1970-01-01T04:54:19.000Z</time>
      </trkpt>
      <trkpt lat="42.63183" lon="0.656451">
        <ele>3354.7</ele>
        <time>1970-01-01T04:54:20.000Z</time>
      </trkpt>
      <trkpt lat="42.63183" lon="0.656451">
        <ele>3354.7</ele>
        <time>1970-01-01T04:54:21.000Z</time>
      </trkpt>
      <trkpt lat="42.63183" lon="0.656451">
        <ele>3354.7</ele>
        <time>1970-01-01T04:54:22.000Z</time>
      </trkpt>
      <trkpt lat="42.63183" lon="0.656451">
        <ele>3354.7</ele>
        <time>1970-01-01T04:54:23.000Z</time>
      </trkpt>
      <trkpt lat="42.63183" lon="0.656451">
        <ele>3354.7</ele>
        <time>1970-01-01T04:54:24.000Z</time>
      </trkpt>
      <trkpt lat="42.63183" lon="0.656451">
        <ele>3354.7</ele>
        <time>1970-01-01T04:54:25.000Z</time>
      </trkpt>
      <trkpt lat="42.63183" lon="0.656451">
        <ele>3354.7</ele>
        <time>1970-01-01T04:54:26.000Z</time>
      </trkpt>
      <trkpt lat="42.63183" lon="0.656451">
        <ele>3354.7</ele>
        <time>1970-01-01T04:54:27.000Z</time>
      </trkpt>
      <trkpt lat="42.63183" lon="0.656451">
        <ele>3354.7</ele>
        <time>1970-01-01T04:54:28.000Z</time>
      </trkpt>
      <trkpt lat="42.63183" lon="0.656451">
        <ele>3354.7</ele>
        <time>1970-01-01T04:54:29.000Z</time>
      </trkpt>
      <trkpt lat="42.63183" lon="0.656451">
        <ele>3354.7</ele>
        <time>1970-01-01T04:54:30.000Z</time>
      </trkpt>
      <trkpt lat="42.63183" lon="0.656451">
        <ele>3354.7</ele>
        <time>1970-01-01T04:54:31.000Z</time>
      </trkpt>
      <trkpt lat="42.63183" lon="0.656451">
        <ele>3354.7</ele>
        <time>1970-01-01T04:54:32.000Z</time>
      </trkpt>
      <trkpt lat="42.63183" lon="0.656451">
        <ele>3354.7</ele>
        <time>1970-01-01T04:54:33.000Z</time>
      </trkpt>
      <trkpt lat="42.631834" lon="0.656451">
        <ele>3354.8</ele>
        <time>1970-01-01T04:54:34.000Z</time>
      </trkpt>
      <trkpt lat="42.631835" lon="0.65645">
        <ele>3354.8</ele>
        <time>1970-01-01T04:54:35.000Z</time>
      </trkpt>
      <trkpt lat="42.631836" lon="0.65645">
        <ele>3354.8</ele>
        <time>1970-01-01T04:54:36.000Z</time>
      </trkpt>
      <trkpt lat="42.631835" lon="0.65645">
        <ele>3354.9</ele>
        <time>1970-01-01T04:54:37.000Z</time>
      </trkpt>
      <trkpt lat="42.63183" lon="0.656451">
        <ele>3355</ele>
        <time>1970-01-01T04:54:38.000Z</time>
      </trkpt>
      <trkpt lat="42.631823" lon="0.656449">
        <ele>3355.2</ele>
        <time>1970-01-01T04:54:39.000Z</time>
      </trkpt>
      <trkpt lat="42.631818" lon="0.656445">
        <ele>3355.3</ele>
        <time>1970-01-01T04:54:40.000Z</time>
      </trkpt>
      <trkpt lat="42.631816" lon="0.656441">
        <ele>3355.4</ele>
        <time>1970-01-01T04:54:41.000Z</time>
      </trkpt>
      <trkpt lat="42.631818" lon="0.656439">
        <ele>3355.5</ele>
        <time>1970-01-01T04:54:43.000Z</time>
      </trkpt>
      <trkpt lat="42.631817" lon="0.656438">
        <ele>3355.5</ele>
        <time>1970-01-01T04:54:44.000Z</time>
      </trkpt>
      <trkpt lat="42.631816" lon="0.656441">
        <ele>3355.6</ele>
        <time>1970-01-01T04:54:45.000Z</time>
      </trkpt>
      <trkpt lat="42.631815" lon="0.656452">
        <ele>3355.8</ele>
        <time>1970-01-01T04:54:46.000Z</time>
      </trkpt>
      <trkpt lat="42.63181" lon="0.656458">
        <ele>3356</ele>
        <time>1970-01-01T04:54:47.000Z</time>
      </trkpt>
      <trkpt lat="42.631808" lon="0.656459">
        <ele>3356</ele>
        <time>1970-01-01T04:54:49.000Z</time>
      </trkpt>
      <trkpt lat="42.631809" lon="0.656455">
        <ele>3356.1</ele>
        <time>1970-01-01T04:54:50.000Z</time>
      </trkpt>
      <trkpt lat="42.631816" lon="0.656458">
        <ele>3356.3</ele>
        <time>1970-01-01T04:54:51.000Z</time>
      </trkpt>
      <trkpt lat="42.631822" lon="0.656465">
        <ele>3356.5</ele>
        <time>1970-01-01T04:54:52.000Z</time>
      </trkpt>
      <trkpt lat="42.631821" lon="0.656471">
        <ele>3356.6</ele>
        <time>1970-01-01T04:54:53.000Z</time>
      </trkpt>
      <trkpt lat="42.631824" lon="0.656469">
        <ele>3356.7</ele>
        <time>1970-01-01T04:54:54.000Z</time>
      </trkpt>
      <trkpt lat="42.631826" lon="0.656454">
        <ele>3357</ele>
        <time>1970-01-01T04:54:56.000Z</time>
      </trkpt>
      <trkpt lat="42.631824" lon="0.656443">
        <ele>3357.2</ele>
        <time>1970-01-01T04:54:57.000Z</time>
      </trkpt>
      <trkpt lat="42.631822" lon="0.656437">
        <ele>3357.4</ele>
        <time>1970-01-01T04:54:58.000Z</time>
      </trkpt>
      <trkpt lat="42.63182" lon="0.656436">
        <ele>3357.4</ele>
        <time>1970-01-01T04:54:59.000Z</time>
      </trkpt>
      <trkpt lat="42.631817" lon="0.656435">
        <ele>3357.5</ele>
        <time>1970-01-01T04:55:00.000Z</time>
      </trkpt>
      <trkpt lat="42.631815" lon="0.656434">
        <ele>3357.6</ele>
        <time>1970-01-01T04:55:02.000Z</time>
      </trkpt>
      <trkpt lat="42.631816" lon="0.656432">
        <ele>3357.7</ele>
        <time>1970-01-01T04:55:04.000Z</time>
      </trkpt>
      <trkpt lat="42.631818" lon="0.656432">
        <ele>3357.8</ele>
        <time>1970-01-01T04:55:05.000Z</time>
      </trkpt>
      <trkpt lat="42.631819" lon="0.656432">
        <ele>3357.8</ele>
        <time>1970-01-01T04:55:06.000Z</time>
      </trkpt>
      <trkpt lat="42.63182" lon="0.656432">
        <ele>3357.8</ele>
        <time>1970-01-01T04:55:07.000Z</time>
      </trkpt>
      <trkpt lat="42.631821" lon="0.656432">
        <ele>3357.8</ele>
        <time>1970-01-01T04:55:08.000Z</time>
      </trkpt>
      <trkpt lat="42.631825" lon="0.656432">
        <ele>3358</ele>
        <time>1970-01-01T04:55:09.000Z</time>
      </trkpt>
      <trkpt lat="42.631826" lon="0.65643">
        <ele>3358.1</ele>
        <time>1970-01-01T04:55:10.000Z</time>
      </trkpt>
      <trkpt lat="42.631823" lon="0.656426">
        <ele>3358.2</ele>
        <time>1970-01-01T04:55:11.000Z</time>
      </trkpt>
      <trkpt lat="42.631819" lon="0.656425">
        <ele>3358.3</ele>
        <time>1970-01-01T04:55:12.000Z</time>
      </trkpt>
      <trkpt lat="42.631813" lon="0.656428">
        <ele>3358.5</ele>
        <time>1970-01-01T04:55:13.000Z</time>
      </trkpt>
      <trkpt lat="42.63181" lon="0.656431">
        <ele>3358.6</ele>
        <time>1970-01-01T04:55:14.000Z</time>
      </trkpt>
      <trkpt lat="42.631808" lon="0.656432">
        <ele>3358.6</ele>
        <time>1970-01-01T04:55:15.000Z</time>
      </trkpt>
      <trkpt lat="42.631806" lon="0.656433">
        <ele>3358.7</ele>
        <time>1970-01-01T04:55:16.000Z</time>
      </trkpt>
      <trkpt lat="42.631805" lon="0.656435">
        <ele>3358.7</ele>
        <time>1970-01-01T04:55:17.000Z</time>
      </trkpt>
      <trkpt lat="42.631803" lon="0.656435">
        <ele>3358.8</ele>
        <time>1970-01-01T04:55:18.000Z</time>
      </trkpt>
      <trkpt lat="42.631802" lon="0.656436">
        <ele>3358.8</ele>
        <time>1970-01-01T04:55:19.000Z</time>
      </trkpt>
      <trkpt lat="42.631801" lon="0.656437">
        <ele>3358.9</ele>
        <time>1970-01-01T04:55:20.000Z</time>
      </trkpt>
      <trkpt lat="42.631799" lon="0.656439">
        <ele>3359</ele>
        <time>1970-01-01T04:55:21.000Z</time>
      </trkpt>
      <trkpt lat="42.631797" lon="0.65644">
        <ele>3359.1</ele>
        <time>1970-01-01T04:55:22.000Z</time>
      </trkpt>
      <trkpt lat="42.631795" lon="0.65644">
        <ele>3359.1</ele>
        <time>1970-01-01T04:55:24.000Z</time>
      </trkpt>
      <trkpt lat="42.631792" lon="0.656439">
        <ele>3359.2</ele>
        <time>1970-01-01T04:55:26.000Z</time>
      </trkpt>
      <trkpt lat="42.63179" lon="0.65644">
        <ele>3359.3</ele>
        <time>1970-01-01T04:55:27.000Z</time>
      </trkpt>
      <trkpt lat="42.631789" lon="0.656442">
        <ele>3359.3</ele>
        <time>1970-01-01T04:55:28.000Z</time>
      </trkpt>
      <trkpt lat="42.631788" lon="0.656444">
        <ele>3359.4</ele>
        <time>1970-01-01T04:55:29.000Z</time>
      </trkpt>
      <trkpt lat="42.631786" lon="0.656445">
        <ele>3359.4</ele>
        <time>1970-01-01T04:55:31.000Z</time>
      </trkpt>
      <trkpt lat="42.631785" lon="0.656447">
        <ele>3359.5</ele>
        <time>1970-01-01T04:55:32.000Z</time>
      </trkpt>
      <trkpt lat="42.631781" lon="0.656451">
        <ele>3359.6</ele>
        <time>1970-01-01T04:55:33.000Z</time>
      </trkpt>
      <trkpt lat="42.631778" lon="0.656452">
        <ele>3359.7</ele>
        <time>1970-01-01T04:55:35.000Z</time>
      </trkpt>
      <trkpt lat="42.631773" lon="0.656451">
        <ele>3359.8</ele>
        <time>1970-01-01T04:55:36.000Z</time>
      </trkpt>
      <trkpt lat="42.631771" lon="0.65645">
        <ele>3359.9</ele>
        <time>1970-01-01T04:55:37.000Z</time>
      </trkpt>
      <trkpt lat="42.631769" lon="0.656449">
        <ele>3359.9</ele>
        <time>1970-01-01T04:55:38.000Z</time>
      </trkpt>
      <trkpt lat="42.631764" lon="0.656449">
        <ele>3360.1</ele>
        <time>1970-01-01T04:55:40.000Z</time>
      </trkpt>
      <trkpt lat="42.631761" lon="0.656451">
        <ele>3360.2</ele>
        <time>1970-01-01T04:55:41.000Z</time>
      </trkpt>
      <trkpt lat="42.631758" lon="0.656454">
        <ele>3360.3</ele>
        <time>1970-01-01T04:55:42.000Z</time>
      </trkpt>
      <trkpt lat="42.631753" lon="0.656459">
        <ele>3360.4</ele>
        <time>1970-01-01T04:55:44.000Z</time>
      </trkpt>
      <trkpt lat="42.63175" lon="0.65646">
        <ele>3360.5</ele>
        <time>1970-01-01T04:55:45.000Z</time>
      </trkpt>
      <trkpt lat="42.631747" lon="0.656459">
        <ele>3360.6</ele>
        <time>1970-01-01T04:55:46.000Z</time>
      </trkpt>
      <trkpt lat="42.63174" lon="0.656457">
        <ele>3360.8</ele>
        <time>1970-01-01T04:55:47.000Z</time>
      </trkpt>
      <trkpt lat="42.631735" lon="0.656456">
        <ele>3360.9</ele>
        <time>1970-01-01T04:55:48.000Z</time>
      </trkpt>
      <trkpt lat="42.631724" lon="0.656454">
        <ele>3361.2</ele>
        <time>1970-01-01T04:55:50.000Z</time>
      </trkpt>
      <trkpt lat="42.631718" lon="0.65645">
        <ele>3361.3</ele>
        <time>1970-01-01T04:55:51.000Z</time>
      </trkpt>
      <trkpt lat="42.631712" lon="0.656444">
        <ele>3361.5</ele>
        <time>1970-01-01T04:55:52.000Z</time>
      </trkpt>
      <trkpt lat="42.631706" lon="0.656439">
        <ele>3361.7</ele>
        <time>1970-01-01T04:55:53.000Z</time>
      </trkpt>
      <trkpt lat="42.631699" lon="0.656432">
        <ele>3361.8</ele>
        <time>1970-01-01T04:55:54.000Z</time>
      </trkpt>
      <trkpt lat="42.631696" lon="0.656424">
        <ele>3362</ele>
        <time>1970-01-01T04:55:56.000Z</time>
      </trkpt>
      <trkpt lat="42.631694" lon="0.656416">
        <ele>3362.1</ele>
        <time>1970-01-01T04:55:57.000Z</time>
      </trkpt>
      <trkpt lat="42.631689" lon="0.656413">
        <ele>3362.3</ele>
        <time>1970-01-01T04:55:58.000Z</time>
      </trkpt>
      <trkpt lat="42.631684" lon="0.656409">
        <ele>3362.4</ele>
        <time>1970-01-01T04:55:59.000Z</time>
      </trkpt>
      <trkpt lat="42.631678" lon="0.656406">
        <ele>3362.6</ele>
        <time>1970-01-01T04:56:00.000Z</time>
      </trkpt>
      <trkpt lat="42.631676" lon="0.656405">
        <ele>3362.6</ele>
        <time>1970-01-01T04:56:01.000Z</time>
      </trkpt>
      <trkpt lat="42.63167" lon="0.656402">
        <ele>3362.7</ele>
        <time>1970-01-01T04:56:03.000Z</time>
      </trkpt>
      <trkpt lat="42.631665" lon="0.656401">
        <ele>3362.8</ele>
        <time>1970-01-01T04:56:04.000Z</time>
      </trkpt>
      <trkpt lat="42.631661" lon="0.656401">
        <ele>3362.9</ele>
        <time>1970-01-01T04:56:05.000Z</time>
      </trkpt>
      <trkpt lat="42.631657" lon="0.6564">
        <ele>3363.5</ele>
        <time>1970-01-01T04:56:06.000Z</time>
      </trkpt>
      <trkpt lat="42.631654" lon="0.6564">
        <ele>3363.8</ele>
        <time>1970-01-01T04:56:07.000Z</time>
      </trkpt>
      <trkpt lat="42.631654" lon="0.656403">
        <ele>3363.8</ele>
        <time>1970-01-01T04:56:08.000Z</time>
      </trkpt>
      <trkpt lat="42.631654" lon="0.656406">
        <ele>3363.9</ele>
        <time>1970-01-01T04:56:09.000Z</time>
      </trkpt>
      <trkpt lat="42.631655" lon="0.656407">
        <ele>3363.9</ele>
        <time>1970-01-01T04:56:10.000Z</time>
      </trkpt>
      <trkpt lat="42.631655" lon="0.656412">
        <ele>3363.9</ele>
        <time>1970-01-01T04:56:12.000Z</time>
      </trkpt>
      <trkpt lat="42.631654" lon="0.656414">
        <ele>3363.9</ele>
        <time>1970-01-01T04:56:13.000Z</time>
      </trkpt>
      <trkpt lat="42.631653" lon="0.656415">
        <ele>3363.9</ele>
        <time>1970-01-01T04:56:14.000Z</time>
      </trkpt>
      <trkpt lat="42.631652" lon="0.656418">
        <ele>3364</ele>
        <time>1970-01-01T04:56:16.000Z</time>
      </trkpt>
      <trkpt lat="42.63165" lon="0.65642">
        <ele>3364</ele>
        <time>1970-01-01T04:56:17.000Z</time>
      </trkpt>
      <trkpt lat="42.631648" lon="0.656423">
        <ele>3364</ele>
        <time>1970-01-01T04:56:18.000Z</time>
      </trkpt>
      <trkpt lat="42.631646" lon="0.656425">
        <ele>3364</ele>
        <time>1970-01-01T04:56:19.000Z</time>
      </trkpt>
      <trkpt lat="42.631645" lon="0.656426">
        <ele>3364</ele>
        <time>1970-01-01T04:56:20.000Z</time>
      </trkpt>
      <trkpt lat="42.631644" lon="0.656427">
        <ele>3364</ele>
        <time>1970-01-01T04:56:21.000Z</time>
      </trkpt>
      <trkpt lat="42.631644" lon="0.656427">
        <ele>3364</ele>
        <time>1970-01-01T04:56:22.000Z</time>
      </trkpt>
      <trkpt lat="42.631643" lon="0.656427">
        <ele>3364</ele>
        <time>1970-01-01T04:56:24.000Z</time>
      </trkpt>
      <trkpt lat="42.631641" lon="0.656426">
        <ele>3364.1</ele>
        <time>1970-01-01T04:56:25.000Z</time>
      </trkpt>
      <trkpt lat="42.631637" lon="0.656427">
        <ele>3364.1</ele>
        <time>1970-01-01T04:56:26.000Z</time>
      </trkpt>
      <trkpt lat="42.631636" lon="0.656426">
        <ele>3364.1</ele>
        <time>1970-01-01T04:56:27.000Z</time>
      </trkpt>
      <trkpt lat="42.631635" lon="0.656426">
        <ele>3364.1</ele>
        <time>1970-01-01T04:56:28.000Z</time>
      </trkpt>
      <trkpt lat="42.631634" lon="0.656427">
        <ele>3364.1</ele>
        <time>1970-01-01T04:56:29.000Z</time>
      </trkpt>
      <trkpt lat="42.631634" lon="0.656427">
        <ele>3364.1</ele>
        <time>1970-01-01T04:56:30.000Z</time>
      </trkpt>
      <trkpt lat="42.631634" lon="0.656427">
        <ele>3364.1</ele>
        <time>1970-01-01T04:56:31.000Z</time>
      </trkpt>
      <trkpt lat="42.631634" lon="0.656427">
        <ele>3364.1</ele>
        <time>1970-01-01T04:56:32.000Z</time>
      </trkpt>
      <trkpt lat="42.631633" lon="0.656427">
        <ele>3364.1</ele>
        <time>1970-01-01T04:56:33.000Z</time>
      </trkpt>
      <trkpt lat="42.631631" lon="0.656426">
        <ele>3364.1</ele>
        <time>1970-01-01T04:56:34.000Z</time>
      </trkpt>
      <trkpt lat="42.631631" lon="0.656426">
        <ele>3364.1</ele>
        <time>1970-01-01T04:56:35.000Z</time>
      </trkpt>
      <trkpt lat="42.63163" lon="0.656425">
        <ele>3364.2</ele>
        <time>1970-01-01T04:56:36.000Z</time>
      </trkpt>
      <trkpt lat="42.631629" lon="0.656424">
        <ele>3364.2</ele>
        <time>1970-01-01T04:56:37.000Z</time>
      </trkpt>
      <trkpt lat="42.631628" lon="0.656424">
        <ele>3364.2</ele>
        <time>1970-01-01T04:56:38.000Z</time>
      </trkpt>
      <trkpt lat="42.631629" lon="0.656424">
        <ele>3364.2</ele>
        <time>1970-01-01T04:56:39.000Z</time>
      </trkpt>
      <trkpt lat="42.631629" lon="0.656424">
        <ele>3364.2</ele>
        <time>1970-01-01T04:56:40.000Z</time>
      </trkpt>
      <trkpt lat="42.631628" lon="0.656423">
        <ele>3364.2</ele>
        <time>1970-01-01T04:56:41.000Z</time>
      </trkpt>
      <trkpt lat="42.631628" lon="0.656423">
        <ele>3364.2</ele>
        <time>1970-01-01T04:56:42.000Z</time>
      </trkpt>
      <trkpt lat="42.631628" lon="0.656422">
        <ele>3364.2</ele>
        <time>1970-01-01T04:56:43.000Z</time>
      </trkpt>
      <trkpt lat="42.631628" lon="0.656422">
        <ele>3364.2</ele>
        <time>1970-01-01T04:56:44.000Z</time>
      </trkpt>
      <trkpt lat="42.631628" lon="0.656422">
        <ele>3364.2</ele>
        <time>1970-01-01T04:56:46.000Z</time>
      </trkpt>
      <trkpt lat="42.631628" lon="0.656422">
        <ele>3364.2</ele>
        <time>1970-01-01T04:56:47.000Z</time>
      </trkpt>
      <trkpt lat="42.631627" lon="0.656422">
        <ele>3364.2</ele>
        <time>1970-01-01T04:56:48.000Z</time>
      </trkpt>
      <trkpt lat="42.631627" lon="0.656422">
        <ele>3364.2</ele>
        <time>1970-01-01T04:56:49.000Z</time>
      </trkpt>
      <trkpt lat="42.631627" lon="0.656423">
        <ele>3364.2</ele>
        <time>1970-01-01T04:56:50.000Z</time>
      </trkpt>
      <trkpt lat="42.631627" lon="0.656424">
        <ele>3364.2</ele>
        <time>1970-01-01T04:56:51.000Z</time>
      </trkpt>
      <trkpt lat="42.631628" lon="0.656424">
        <ele>3364.2</ele>
        <time>1970-01-01T04:56:52.000Z</time>
      </trkpt>
      <trkpt lat="42.631628" lon="0.656425">
        <ele>3364.2</ele>
        <time>1970-01-01T04:56:53.000Z</time>
      </trkpt>
      <trkpt lat="42.631627" lon="0.656426">
        <ele>3364.2</ele>
        <time>1970-01-01T04:56:54.000Z</time>
      </trkpt>
      <trkpt lat="42.631627" lon="0.656426">
        <ele>3364.2</ele>
        <time>1970-01-01T04:56:55.000Z</time>
      </trkpt>
      <trkpt lat="42.631627" lon="0.656426">
        <ele>3364.2</ele>
        <time>1970-01-01T04:56:57.000Z</time>
      </trkpt>
      <trkpt lat="42.631628" lon="0.656426">
        <ele>3364.3</ele>
        <time>1970-01-01T04:56:58.000Z</time>
      </trkpt>
      <trkpt lat="42.631628" lon="0.656426">
        <ele>3364.3</ele>
        <time>1970-01-01T04:56:59.000Z</time>
      </trkpt>
      <trkpt lat="42.631628" lon="0.656426">
        <ele>3364.3</ele>
        <time>1970-01-01T04:57:00.000Z</time>
      </trkpt>
      <trkpt lat="42.631629" lon="0.656426">
        <ele>3364.3</ele>
        <time>1970-01-01T04:57:01.000Z</time>
      </trkpt>
      <trkpt lat="42.631629" lon="0.656426">
        <ele>3364.3</ele>
        <time>1970-01-01T04:57:02.000Z</time>
      </trkpt>
      <trkpt lat="42.631628" lon="0.656426">
        <ele>3364.3</ele>
        <time>1970-01-01T04:57:03.000Z</time>
      </trkpt>
      <trkpt lat="42.631628" lon="0.656426">
        <ele>3364.3</ele>
        <time>1970-01-01T04:57:04.000Z</time>
      </trkpt>
      <trkpt lat="42.631628" lon="0.656425">
        <ele>3364.3</ele>
        <time>1970-01-01T04:57:05.000Z</time>
      </trkpt>
      <trkpt lat="42.631627" lon="0.656425">
        <ele>3364.3</ele>
        <time>1970-01-01T04:57:06.000Z</time>
      </trkpt>
      <trkpt lat="42.631627" lon="0.656425">
        <ele>3364.3</ele>
        <time>1970-01-01T04:57:07.000Z</time>
      </trkpt>
      <trkpt lat="42.631626" lon="0.656424">
        <ele>3364.3</ele>
        <time>1970-01-01T04:57:08.000Z</time>
      </trkpt>
      <trkpt lat="42.63163" lon="0.656423">
        <ele>3364.3</ele>
        <time>1970-01-01T04:57:09.000Z</time>
      </trkpt>
      <trkpt lat="42.631633" lon="0.656422">
        <ele>3364.4</ele>
        <time>1970-01-01T04:57:10.000Z</time>
      </trkpt>
      <trkpt lat="42.631634" lon="0.656422">
        <ele>3364.4</ele>
        <time>1970-01-01T04:57:11.000Z</time>
      </trkpt>
      <trkpt lat="42.631635" lon="0.656421">
        <ele>3364.4</ele>
        <time>1970-01-01T04:57:12.000Z</time>
      </trkpt>
      <trkpt lat="42.631635" lon="0.656421">
        <ele>3364.4</ele>
        <time>1970-01-01T04:57:13.000Z</time>
      </trkpt>
      <trkpt lat="42.631635" lon="0.656421">
        <ele>3364.4</ele>
        <time>1970-01-01T04:57:14.000Z</time>
      </trkpt>
      <trkpt lat="42.631635" lon="0.656421">
        <ele>3364.4</ele>
        <time>1970-01-01T04:57:15.000Z</time>
      </trkpt>
      <trkpt lat="42.631635" lon="0.656421">
        <ele>3364.4</ele>
        <time>1970-01-01T04:57:16.000Z</time>
      </trkpt>
      <trkpt lat="42.631634" lon="0.656418">
        <ele>3364.4</ele>
        <time>1970-01-01T04:57:17.000Z</time>
      </trkpt>
      <trkpt lat="42.631633" lon="0.656414">
        <ele>3364.4</ele>
        <time>1970-01-01T04:57:18.000Z</time>
      </trkpt>
      <trkpt lat="42.631631" lon="0.656409">
        <ele>3364.5</ele>
        <time>1970-01-01T04:57:19.000Z</time>
      </trkpt>
      <trkpt lat="42.631626" lon="0.656417">
        <ele>3364.5</ele>
        <time>1970-01-01T04:57:20.000Z</time>
      </trkpt>
      <trkpt lat="42.631622" lon="0.656424">
        <ele>3364.6</ele>
        <time>1970-01-01T04:57:22.000Z</time>
      </trkpt>
      <trkpt lat="42.631618" lon="0.656426">
        <ele>3364.7</ele>
        <time>1970-01-01T04:57:23.000Z</time>
      </trkpt>
      <trkpt lat="42.631617" lon="0.656427">
        <ele>3364.7</ele>
        <time>1970-01-01T04:57:24.000Z</time>
      </trkpt>
      <trkpt lat="42.631616" lon="0.656427">
        <ele>3364.7</ele>
        <time>1970-01-01T04:57:25.000Z</time>
      </trkpt>
      <trkpt lat="42.631616" lon="0.656427">
        <ele>3364.7</ele>
        <time>1970-01-01T04:57:26.000Z</time>
      </trkpt>
      <trkpt lat="42.631614" lon="0.656426">
        <ele>3364.7</ele>
        <time>1970-01-01T04:57:27.000Z</time>
      </trkpt>
      <trkpt lat="42.631613" lon="0.656428">
        <ele>3364.7</ele>
        <time>1970-01-01T04:57:28.000Z</time>
      </trkpt>
      <trkpt lat="42.631612" lon="0.656431">
        <ele>3364.7</ele>
        <time>1970-01-01T04:57:29.000Z</time>
      </trkpt>
      <trkpt lat="42.631609" lon="0.656437">
        <ele>3364.8</ele>
        <time>1970-01-01T04:57:30.000Z</time>
      </trkpt>
      <trkpt lat="42.631605" lon="0.656443">
        <ele>3364.8</ele>
        <time>1970-01-01T04:57:31.000Z</time>
      </trkpt>
      <trkpt lat="42.631599" lon="0.656452">
        <ele>3364.9</ele>
        <time>1970-01-01T04:57:33.000Z</time>
      </trkpt>
      <trkpt lat="42.631596" lon="0.656454">
        <ele>3365</ele>
        <time>1970-01-01T04:57:34.000Z</time>
      </trkpt>
      <trkpt lat="42.631591" lon="0.656457">
        <ele>3365</ele>
        <time>1970-01-01T04:57:35.000Z</time>
      </trkpt>
      <trkpt lat="42.631585" lon="0.656454">
        <ele>3365.1</ele>
        <time>1970-01-01T04:57:36.000Z</time>
      </trkpt>
      <trkpt lat="42.631584" lon="0.656451">
        <ele>3365.1</ele>
        <time>1970-01-01T04:57:37.000Z</time>
      </trkpt>
      <trkpt lat="42.631582" lon="0.65645">
        <ele>3365.1</ele>
        <time>1970-01-01T04:57:38.000Z</time>
      </trkpt>
      <trkpt lat="42.63158" lon="0.656449">
        <ele>3365.2</ele>
        <time>1970-01-01T04:57:39.000Z</time>
      </trkpt>
      <trkpt lat="42.631579" lon="0.65645">
        <ele>3365.2</ele>
        <time>1970-01-01T04:57:40.000Z</time>
      </trkpt>
      <trkpt lat="42.631578" lon="0.656449">
        <ele>3365.2</ele>
        <time>1970-01-01T04:57:41.000Z</time>
      </trkpt>
      <trkpt lat="42.631576" lon="0.656449">
        <ele>3365.2</ele>
        <time>1970-01-01T04:57:42.000Z</time>
      </trkpt>
      <trkpt lat="42.631576" lon="0.656448">
        <ele>3365.2</ele>
        <time>1970-01-01T04:57:43.000Z</time>
      </trkpt>
      <trkpt lat="42.631575" lon="0.656448">
        <ele>3365.2</ele>
        <time>1970-01-01T04:57:44.000Z</time>
      </trkpt>
      <trkpt lat="42.631575" lon="0.656449">
        <ele>3365.2</ele>
        <time>1970-01-01T04:57:45.000Z</time>
      </trkpt>
      <trkpt lat="42.631575" lon="0.656449">
        <ele>3365.2</ele>
        <time>1970-01-01T04:57:46.000Z</time>
      </trkpt>
      <trkpt lat="42.631575" lon="0.65645">
        <ele>3365.2</ele>
        <time>1970-01-01T04:57:47.000Z</time>
      </trkpt>
      <trkpt lat="42.631574" lon="0.656451">
        <ele>3365.3</ele>
        <time>1970-01-01T04:57:48.000Z</time>
      </trkpt>
      <trkpt lat="42.631574" lon="0.656452">
        <ele>3365.3</ele>
        <time>1970-01-01T04:57:49.000Z</time>
      </trkpt>
      <trkpt lat="42.631573" lon="0.656454">
        <ele>3365.3</ele>
        <time>1970-01-01T04:57:51.000Z</time>
      </trkpt>
      <trkpt lat="42.631573" lon="0.656454">
        <ele>3365.3</ele>
        <time>1970-01-01T04:57:52.000Z</time>
      </trkpt>
      <trkpt lat="42.631572" lon="0.656455">
        <ele>3365.3</ele>
        <time>1970-01-01T04:57:53.000Z</time>
      </trkpt>
      <trkpt lat="42.631571" lon="0.656456">
        <ele>3365.3</ele>
        <time>1970-01-01T04:57:54.000Z</time>
      </trkpt>
      <trkpt lat="42.63157" lon="0.656455">
        <ele>3365.3</ele>
        <time>1970-01-01T04:57:55.000Z</time>
      </trkpt>
      <trkpt lat="42.63157" lon="0.656455">
        <ele>3365.3</ele>
        <time>1970-01-01T04:57:56.000Z</time>
      </trkpt>
      <trkpt lat="42.63157" lon="0.656455">
        <ele>3365.3</ele>
        <time>1970-01-01T04:57:57.000Z</time>
      </trkpt>
      <trkpt lat="42.63157" lon="0.656454">
        <ele>3365.3</ele>
        <time>1970-01-01T04:57:58.000Z</time>
      </trkpt>
      <trkpt lat="42.63157" lon="0.656454">
        <ele>3365.3</ele>
        <time>1970-01-01T04:57:59.000Z</time>
      </trkpt>
      <trkpt lat="42.631569" lon="0.656453">
        <ele>3365.4</ele>
        <time>1970-01-01T04:58:00.000Z</time>
      </trkpt>
      <trkpt lat="42.631566" lon="0.656452">
        <ele>3365.4</ele>
        <time>1970-01-01T04:58:02.000Z</time>
      </trkpt>
      <trkpt lat="42.631563" lon="0.656455">
        <ele>3365.4</ele>
        <time>1970-01-01T04:58:03.000Z</time>
      </trkpt>
      <trkpt lat="42.631563" lon="0.656453">
        <ele>3365.4</ele>
        <time>1970-01-01T04:58:04.000Z</time>
      </trkpt>
      <trkpt lat="42.631564" lon="0.656452">
        <ele>3365.5</ele>
        <time>1970-01-01T04:58:05.000Z</time>
      </trkpt>
      <trkpt lat="42.631564" lon="0.65645">
        <ele>3365.5</ele>
        <time>1970-01-01T04:58:06.000Z</time>
      </trkpt>
      <trkpt lat="42.631565" lon="0.656449">
        <ele>3365.5</ele>
        <time>1970-01-01T04:58:07.000Z</time>
      </trkpt>
      <trkpt lat="42.631566" lon="0.656448">
        <ele>3365.5</ele>
        <time>1970-01-01T04:58:08.000Z</time>
      </trkpt>
      <trkpt lat="42.631567" lon="0.656447">
        <ele>3365.5</ele>
        <time>1970-01-01T04:58:09.000Z</time>
      </trkpt>
      <trkpt lat="42.631568" lon="0.656446">
        <ele>3365.5</ele>
        <time>1970-01-01T04:58:10.000Z</time>
      </trkpt>
      <trkpt lat="42.631568" lon="0.656446">
        <ele>3365.5</ele>
        <time>1970-01-01T04:58:11.000Z</time>
      </trkpt>
      <trkpt lat="42.631569" lon="0.656446">
        <ele>3365.5</ele>
        <time>1970-01-01T04:58:12.000Z</time>
      </trkpt>
      <trkpt lat="42.631569" lon="0.656446">
        <ele>3365.5</ele>
        <time>1970-01-01T04:58:13.000Z</time>
      </trkpt>
      <trkpt lat="42.631569" lon="0.656446">
        <ele>3365.5</ele>
        <time>1970-01-01T04:58:14.000Z</time>
      </trkpt>
      <trkpt lat="42.631569" lon="0.656446">
        <ele>3365.5</ele>
        <time>1970-01-01T04:58:15.000Z</time>
      </trkpt>
      <trkpt lat="42.631569" lon="0.656446">
        <ele>3365.5</ele>
        <time>1970-01-01T04:58:16.000Z</time>
      </trkpt>
      <trkpt lat="42.631568" lon="0.656446">
        <ele>3365.6</ele>
        <time>1970-01-01T04:58:17.000Z</time>
      </trkpt>
      <trkpt lat="42.631567" lon="0.656445">
        <ele>3365.6</ele>
        <time>1970-01-01T04:58:18.000Z</time>
      </trkpt>
      <trkpt lat="42.631566" lon="0.656444">
        <ele>3365.6</ele>
        <time>1970-01-01T04:58:19.000Z</time>
      </trkpt>
      <trkpt lat="42.631565" lon="0.656443">
        <ele>3365.6</ele>
        <time>1970-01-01T04:58:20.000Z</time>
      </trkpt>
      <trkpt lat="42.631564" lon="0.656442">
        <ele>3365.6</ele>
        <time>1970-01-01T04:58:21.000Z</time>
      </trkpt>
      <trkpt lat="42.631563" lon="0.656442">
        <ele>3365.6</ele>
        <time>1970-01-01T04:58:22.000Z</time>
      </trkpt>
      <trkpt lat="42.631563" lon="0.656442">
        <ele>3365.6</ele>
        <time>1970-01-01T04:58:23.000Z</time>
      </trkpt>
      <trkpt lat="42.631564" lon="0.656443">
        <ele>3365.6</ele>
        <time>1970-01-01T04:58:24.000Z</time>
      </trkpt>
      <trkpt lat="42.631563" lon="0.656443">
        <ele>3365.7</ele>
        <time>1970-01-01T04:58:25.000Z</time>
      </trkpt>
      <trkpt lat="42.631563" lon="0.656444">
        <ele>3365.7</ele>
        <time>1970-01-01T04:58:26.000Z</time>
      </trkpt>
      <trkpt lat="42.631562" lon="0.656444">
        <ele>3365.7</ele>
        <time>1970-01-01T04:58:27.000Z</time>
      </trkpt>
      <trkpt lat="42.631562" lon="0.656444">
        <ele>3365.7</ele>
        <time>1970-01-01T04:58:28.000Z</time>
      </trkpt>
      <trkpt lat="42.631563" lon="0.656443">
        <ele>3365.7</ele>
        <time>1970-01-01T04:58:29.000Z</time>
      </trkpt>
      <trkpt lat="42.631563" lon="0.656442">
        <ele>3365.7</ele>
        <time>1970-01-01T04:58:30.000Z</time>
      </trkpt>
      <trkpt lat="42.631563" lon="0.656442">
        <ele>3365.7</ele>
        <time>1970-01-01T04:58:31.000Z</time>
      </trkpt>
      <trkpt lat="42.631564" lon="0.656441">
        <ele>3365.7</ele>
        <time>1970-01-01T04:58:32.000Z</time>
      </trkpt>
      <trkpt lat="42.631564" lon="0.656441">
        <ele>3365.7</ele>
        <time>1970-01-01T04:58:33.000Z</time>
      </trkpt>
      <trkpt lat="42.631564" lon="0.656441">
        <ele>3365.7</ele>
        <time>1970-01-01T04:58:34.000Z</time>
      </trkpt>
      <trkpt lat="42.631564" lon="0.65644">
        <ele>3365.7</ele>
        <time>1970-01-01T04:58:35.000Z</time>
      </trkpt>
      <trkpt lat="42.631564" lon="0.65644">
        <ele>3365.7</ele>
        <time>1970-01-01T04:58:36.000Z</time>
      </trkpt>
      <trkpt lat="42.631564" lon="0.656439">
        <ele>3365.7</ele>
        <time>1970-01-01T04:58:37.000Z</time>
      </trkpt>
      <trkpt lat="42.631564" lon="0.656439">
        <ele>3365.7</ele>
        <time>1970-01-01T04:58:38.000Z</time>
      </trkpt>
      <trkpt lat="42.631565" lon="0.656438">
        <ele>3365.7</ele>
        <time>1970-01-01T04:58:39.000Z</time>
      </trkpt>
      <trkpt lat="42.631565" lon="0.656438">
        <ele>3365.7</ele>
        <time>1970-01-01T04:58:40.000Z</time>
      </trkpt>
      <trkpt lat="42.631564" lon="0.656439">
        <ele>3365.8</ele>
        <time>1970-01-01T04:58:41.000Z</time>
      </trkpt>
      <trkpt lat="42.631564" lon="0.656439">
        <ele>3365.8</ele>
        <time>1970-01-01T04:58:42.000Z</time>
      </trkpt>
      <trkpt lat="42.631564" lon="0.656439">
        <ele>3365.8</ele>
        <time>1970-01-01T04:58:43.000Z</time>
      </trkpt>
      <trkpt lat="42.631564" lon="0.656439">
        <ele>3365.8</ele>
        <time>1970-01-01T04:58:44.000Z</time>
      </trkpt>
      <trkpt lat="42.631564" lon="0.656439">
        <ele>3365.8</ele>
        <time>1970-01-01T04:58:45.000Z</time>
      </trkpt>
      <trkpt lat="42.631563" lon="0.656439">
        <ele>3365.8</ele>
        <time>1970-01-01T04:58:46.000Z</time>
      </trkpt>
      <trkpt lat="42.631561" lon="0.656441">
        <ele>3365.8</ele>
        <time>1970-01-01T04:58:48.000Z</time>
      </trkpt>
      <trkpt lat="42.63156" lon="0.65644">
        <ele>3365.8</ele>
        <time>1970-01-01T04:58:49.000Z</time>
      </trkpt>
      <trkpt lat="42.631559" lon="0.656439">
        <ele>3365.8</ele>
        <time>1970-01-01T04:58:51.000Z</time>
      </trkpt>
      <trkpt lat="42.631559" lon="0.656438">
        <ele>3365.8</ele>
        <time>1970-01-01T04:58:52.000Z</time>
      </trkpt>
      <trkpt lat="42.631559" lon="0.656437">
        <ele>3365.8</ele>
        <time>1970-01-01T04:58:53.000Z</time>
      </trkpt>
      <trkpt lat="42.631559" lon="0.656437">
        <ele>3365.8</ele>
        <time>1970-01-01T04:58:54.000Z</time>
      </trkpt>
      <trkpt lat="42.631559" lon="0.656437">
        <ele>3365.8</ele>
        <time>1970-01-01T04:58:55.000Z</time>
      </trkpt>
      <trkpt lat="42.631559" lon="0.656437">
        <ele>3365.8</ele>
        <time>1970-01-01T04:58:56.000Z</time>
      </trkpt>
      <trkpt lat="42.631559" lon="0.656437">
        <ele>3365.8</ele>
        <time>1970-01-01T04:58:57.000Z</time>
      </trkpt>
      <trkpt lat="42.631558" lon="0.656437">
        <ele>3365.9</ele>
        <time>1970-01-01T04:58:58.000Z</time>
      </trkpt>
      <trkpt lat="42.631558" lon="0.656436">
        <ele>3365.9</ele>
        <time>1970-01-01T04:59:00.000Z</time>
      </trkpt>
      <trkpt lat="42.631557" lon="0.656435">
        <ele>3365.9</ele>
        <time>1970-01-01T04:59:01.000Z</time>
      </trkpt>
      <trkpt lat="42.631557" lon="0.656435">
        <ele>3365.9</ele>
        <time>1970-01-01T04:59:02.000Z</time>
      </trkpt>
      <trkpt lat="42.631556" lon="0.656435">
        <ele>3365.9</ele>
        <time>1970-01-01T04:59:03.000Z</time>
      </trkpt>
      <trkpt lat="42.631556" lon="0.656435">
        <ele>3365.9</ele>
        <time>1970-01-01T04:59:04.000Z</time>
      </trkpt>
      <trkpt lat="42.631555" lon="0.656435">
        <ele>3365.9</ele>
        <time>1970-01-01T04:59:05.000Z</time>
      </trkpt>
      <trkpt lat="42.631556" lon="0.656436">
        <ele>3365.9</ele>
        <time>1970-01-01T04:59:06.000Z</time>
      </trkpt>
      <trkpt lat="42.631556" lon="0.656436">
        <ele>3365.9</ele>
        <time>1970-01-01T04:59:07.000Z</time>
      </trkpt>
      <trkpt lat="42.631556" lon="0.656436">
        <ele>3365.9</ele>
        <time>1970-01-01T04:59:08.000Z</time>
      </trkpt>
      <trkpt lat="42.631556" lon="0.656436">
        <ele>3365.9</ele>
        <time>1970-01-01T04:59:09.000Z</time>
      </trkpt>
      <trkpt lat="42.631556" lon="0.656436">
        <ele>3365.9</ele>
        <time>1970-01-01T04:59:10.000Z</time>
      </trkpt>
      <trkpt lat="42.631556" lon="0.656435">
        <ele>3365.9</ele>
        <time>1970-01-01T04:59:11.000Z</time>
      </trkpt>
      <trkpt lat="42.63156" lon="0.656436">
        <ele>3366</ele>
        <time>1970-01-01T04:59:12.000Z</time>
      </trkpt>
      <trkpt lat="42.631562" lon="0.656437">
        <ele>3366</ele>
        <time>1970-01-01T04:59:13.000Z</time>
      </trkpt>
      <trkpt lat="42.631563" lon="0.656437">
        <ele>3366</ele>
        <time>1970-01-01T04:59:14.000Z</time>
      </trkpt>
      <trkpt lat="42.63156" lon="0.656437">
        <ele>3366.1</ele>
        <time>1970-01-01T04:59:15.000Z</time>
      </trkpt>
      <trkpt lat="42.631556" lon="0.656436">
        <ele>3366.1</ele>
        <time>1970-01-01T04:59:17.000Z</time>
      </trkpt>
      <trkpt lat="42.631555" lon="0.656435">
        <ele>3366.1</ele>
        <time>1970-01-01T04:59:18.000Z</time>
      </trkpt>
      <trkpt lat="42.631554" lon="0.656436">
        <ele>3366.2</ele>
        <time>1970-01-01T04:59:19.000Z</time>
      </trkpt>
      <trkpt lat="42.631553" lon="0.656437">
        <ele>3366.2</ele>
        <time>1970-01-01T04:59:20.000Z</time>
      </trkpt>
      <trkpt lat="42.631553" lon="0.656437">
        <ele>3366.2</ele>
        <time>1970-01-01T04:59:21.000Z</time>
      </trkpt>
      <trkpt lat="42.631552" lon="0.656437">
        <ele>3366.2</ele>
        <time>1970-01-01T04:59:22.000Z</time>
      </trkpt>
      <trkpt lat="42.631552" lon="0.656437">
        <ele>3366.2</ele>
        <time>1970-01-01T04:59:23.000Z</time>
      </trkpt>
      <trkpt lat="42.631551" lon="0.656437">
        <ele>3366.2</ele>
        <time>1970-01-01T04:59:24.000Z</time>
      </trkpt>
      <trkpt lat="42.63155" lon="0.656436">
        <ele>3366.2</ele>
        <time>1970-01-01T04:59:25.000Z</time>
      </trkpt>
      <trkpt lat="42.631549" lon="0.656436">
        <ele>3366.2</ele>
        <time>1970-01-01T04:59:26.000Z</time>
      </trkpt>
      <trkpt lat="42.631548" lon="0.656437">
        <ele>3366.3</ele>
        <time>1970-01-01T04:59:27.000Z</time>
      </trkpt>
      <trkpt lat="42.631547" lon="0.656437">
        <ele>3366.3</ele>
        <time>1970-01-01T04:59:29.000Z</time>
      </trkpt>
      <trkpt lat="42.631547" lon="0.656438">
        <ele>3366.3</ele>
        <time>1970-01-01T04:59:30.000Z</time>
      </trkpt>
      <trkpt lat="42.631547" lon="0.656438">
        <ele>3366.3</ele>
        <time>1970-01-01T04:59:31.000Z</time>
      </trkpt>
      <trkpt lat="42.631546" lon="0.656439">
        <ele>3366.3</ele>
        <time>1970-01-01T04:59:32.000Z</time>
      </trkpt>
      <trkpt lat="42.631546" lon="0.65644">
        <ele>3366.3</ele>
        <time>1970-01-01T04:59:33.000Z</time>
      </trkpt>
      <trkpt lat="42.631547" lon="0.656441">
        <ele>3366.3</ele>
        <time>1970-01-01T04:59:34.000Z</time>
      </trkpt>
      <trkpt lat="42.631547" lon="0.656442">
        <ele>3366.3</ele>
        <time>1970-01-01T04:59:35.000Z</time>
      </trkpt>
      <trkpt lat="42.631547" lon="0.656443">
        <ele>3366.3</ele>
        <time>1970-01-01T04:59:36.000Z</time>
      </trkpt>
      <trkpt lat="42.631547" lon="0.656444">
        <ele>3366.4</ele>
        <time>1970-01-01T04:59:37.000Z</time>
      </trkpt>
      <trkpt lat="42.631547" lon="0.656444">
        <ele>3366.4</ele>
        <time>1970-01-01T04:59:38.000Z</time>
      </trkpt>
      <trkpt lat="42.631547" lon="0.656446">
        <ele>3366.4</ele>
        <time>1970-01-01T04:59:39.000Z</time>
      </trkpt>
      <trkpt lat="42.631547" lon="0.656447">
        <ele>3366.4</ele>
        <time>1970-01-01T04:59:40.000Z</time>
      </trkpt>
      <trkpt lat="42.631547" lon="0.65645">
        <ele>3366.4</ele>
        <time>1970-01-01T04:59:42.000Z</time>
      </trkpt>
      <trkpt lat="42.631548" lon="0.656451">
        <ele>3366.4</ele>
        <time>1970-01-01T04:59:43.000Z</time>
      </trkpt>
      <trkpt lat="42.631548" lon="0.656451">
        <ele>3366.4</ele>
        <time>1970-01-01T04:59:44.000Z</time>
      </trkpt>
      <trkpt lat="42.631549" lon="0.65645">
        <ele>3366.4</ele>
        <time>1970-01-01T04:59:46.000Z</time>
      </trkpt>
      <trkpt lat="42.63155" lon="0.656451">
        <ele>3366.5</ele>
        <time>1970-01-01T04:59:47.000Z</time>
      </trkpt>
      <trkpt lat="42.631549" lon="0.656452">
        <ele>3366.5</ele>
        <time>1970-01-01T04:59:48.000Z</time>
      </trkpt>
      <trkpt lat="42.63155" lon="0.656452">
        <ele>3366.5</ele>
        <time>1970-01-01T04:59:49.000Z</time>
      </trkpt>
      <trkpt lat="42.63155" lon="0.656452">
        <ele>3366.5</ele>
        <time>1970-01-01T04:59:50.000Z</time>
      </trkpt>
      <trkpt lat="42.63155" lon="0.656453">
        <ele>3366.5</ele>
        <time>1970-01-01T04:59:51.000Z</time>
      </trkpt>
      <trkpt lat="42.63155" lon="0.656454">
        <ele>3366.5</ele>
        <time>1970-01-01T04:59:52.000Z</time>
      </trkpt>
      <trkpt lat="42.63155" lon="0.656455">
        <ele>3366.5</ele>
        <time>1970-01-01T04:59:53.000Z</time>
      </trkpt>
      <trkpt lat="42.631551" lon="0.656456">
        <ele>3366.5</ele>
        <time>1970-01-01T04:59:54.000Z</time>
      </trkpt>
      <trkpt lat="42.631551" lon="0.656456">
        <ele>3366.5</ele>
        <time>1970-01-01T04:59:55.000Z</time>
      </trkpt>
      <trkpt lat="42.63155" lon="0.656457">
        <ele>3366.6</ele>
        <time>1970-01-01T04:59:56.000Z</time>
      </trkpt>
      <trkpt lat="42.63155" lon="0.656457">
        <ele>3366.6</ele>
        <time>1970-01-01T04:59:57.000Z</time>
      </trkpt>
      <trkpt lat="42.631549" lon="0.656457">
        <ele>3366.6</ele>
        <time>1970-01-01T04:59:58.000Z</time>
      </trkpt>
      <trkpt lat="42.631547" lon="0.656457">
        <ele>3366.6</ele>
        <time>1970-01-01T04:59:59.000Z</time>
      </trkpt>
      <trkpt lat="42.631547" lon="0.656456">
        <ele>3366.6</ele>
        <time>1970-01-01T05:00:00.000Z</time>
      </trkpt>
      <trkpt lat="42.631547" lon="0.656456">
        <ele>3366.6</ele>
        <time>1970-01-01T05:00:01.000Z</time>
      </trkpt>
      <trkpt lat="42.631547" lon="0.656456">
        <ele>3366.6</ele>
        <time>1970-01-01T05:00:02.000Z</time>
      </trkpt>
      <trkpt lat="42.631547" lon="0.656455">
        <ele>3366.6</ele>
        <time>1970-01-01T05:00:03.000Z</time>
      </trkpt>
      <trkpt lat="42.631547" lon="0.656454">
        <ele>3366.6</ele>
        <time>1970-01-01T05:00:04.000Z</time>
      </trkpt>
      <trkpt lat="42.631547" lon="0.656453">
        <ele>3366.6</ele>
        <time>1970-01-01T05:00:05.000Z</time>
      </trkpt>
      <trkpt lat="42.631547" lon="0.656453">
        <ele>3366.6</ele>
        <time>1970-01-01T05:00:06.000Z</time>
      </trkpt>
      <trkpt lat="42.631547" lon="0.656453">
        <ele>3366.6</ele>
        <time>1970-01-01T05:00:07.000Z</time>
      </trkpt>
      <trkpt lat="42.631547" lon="0.656453">
        <ele>3366.6</ele>
        <time>1970-01-01T05:00:08.000Z</time>
      </trkpt>
      <trkpt lat="42.631549" lon="0.656453">
        <ele>3366.7</ele>
        <time>1970-01-01T05:00:09.000Z</time>
      </trkpt>
      <trkpt lat="42.63155" lon="0.656452">
        <ele>3366.7</ele>
        <time>1970-01-01T05:00:10.000Z</time>
      </trkpt>
      <trkpt lat="42.63155" lon="0.656452">
        <ele>3366.7</ele>
        <time>1970-01-01T05:00:11.000Z</time>
      </trkpt>
      <trkpt lat="42.631551" lon="0.656452">
        <ele>3366.7</ele>
        <time>1970-01-01T05:00:12.000Z</time>
      </trkpt>
      <trkpt lat="42.631551" lon="0.656452">
        <ele>3366.7</ele>
        <time>1970-01-01T05:00:13.000Z</time>
      </trkpt>
      <trkpt lat="42.631551" lon="0.656452">
        <ele>3366.7</ele>
        <time>1970-01-01T05:00:14.000Z</time>
      </trkpt>
      <trkpt lat="42.631551" lon="0.656452">
        <ele>3366.7</ele>
        <time>1970-01-01T05:00:15.000Z</time>
      </trkpt>
      <trkpt lat="42.631551" lon="0.656452">
        <ele>3366.7</ele>
        <time>1970-01-01T05:00:16.000Z</time>
      </trkpt>
      <trkpt lat="42.63155" lon="0.656452">
        <ele>3366.7</ele>
        <time>1970-01-01T05:00:17.000Z</time>
      </trkpt>
      <trkpt lat="42.631548" lon="0.656451">
        <ele>3366.7</ele>
        <time>1970-01-01T05:00:18.000Z</time>
      </trkpt>
      <trkpt lat="42.631546" lon="0.656449">
        <ele>3366.8</ele>
        <time>1970-01-01T05:00:19.000Z</time>
      </trkpt>
      <trkpt lat="42.631544" lon="0.656447">
        <ele>3366.8</ele>
        <time>1970-01-01T05:00:20.000Z</time>
      </trkpt>
      <trkpt lat="42.631544" lon="0.656446">
        <ele>3366.8</ele>
        <time>1970-01-01T05:00:21.000Z</time>
      </trkpt>
      <trkpt lat="42.631543" lon="0.656445">
        <ele>3366.8</ele>
        <time>1970-01-01T05:00:22.000Z</time>
      </trkpt>
      <trkpt lat="42.631544" lon="0.656444">
        <ele>3366.9</ele>
        <time>1970-01-01T05:00:23.000Z</time>
      </trkpt>
      <trkpt lat="42.631544" lon="0.656444">
        <ele>3366.9</ele>
        <time>1970-01-01T05:00:24.000Z</time>
      </trkpt>
      <trkpt lat="42.631544" lon="0.656444">
        <ele>3366.9</ele>
        <time>1970-01-01T05:00:25.000Z</time>
      </trkpt>
      <trkpt lat="42.631544" lon="0.656444">
        <ele>3366.9</ele>
        <time>1970-01-01T05:00:26.000Z</time>
      </trkpt>
      <trkpt lat="42.631544" lon="0.656444">
        <ele>3366.9</ele>
        <time>1970-01-01T05:00:27.000Z</time>
      </trkpt>
      <trkpt lat="42.631544" lon="0.656444">
        <ele>3366.9</ele>
        <time>1970-01-01T05:00:28.000Z</time>
      </trkpt>
      <trkpt lat="42.631545" lon="0.656445">
        <ele>3366.9</ele>
        <time>1970-01-01T05:00:29.000Z</time>
      </trkpt>
      <trkpt lat="42.631544" lon="0.656446">
        <ele>3366.9</ele>
        <time>1970-01-01T05:00:30.000Z</time>
      </trkpt>
      <trkpt lat="42.631544" lon="0.656446">
        <ele>3366.9</ele>
        <time>1970-01-01T05:00:31.000Z</time>
      </trkpt>
      <trkpt lat="42.631544" lon="0.656446">
        <ele>3366.9</ele>
        <time>1970-01-01T05:00:32.000Z</time>
      </trkpt>
      <trkpt lat="42.631543" lon="0.656445">
        <ele>3366.9</ele>
        <time>1970-01-01T05:00:33.000Z</time>
      </trkpt>
      <trkpt lat="42.631543" lon="0.656445">
        <ele>3366.9</ele>
        <time>1970-01-01T05:00:34.000Z</time>
      </trkpt>
      <trkpt lat="42.631543" lon="0.656445">
        <ele>3366.9</ele>
        <time>1970-01-01T05:00:35.000Z</time>
      </trkpt>
      <trkpt lat="42.631543" lon="0.656445">
        <ele>3366.9</ele>
        <time>1970-01-01T05:00:36.000Z</time>
      </trkpt>
      <trkpt lat="42.631543" lon="0.656445">
        <ele>3366.9</ele>
        <time>1970-01-01T05:00:37.000Z</time>
      </trkpt>
      <trkpt lat="42.631543" lon="0.656445">
        <ele>3366.9</ele>
        <time>1970-01-01T05:00:38.000Z</time>
      </trkpt>
      <trkpt lat="42.631544" lon="0.656445">
        <ele>3366.9</ele>
        <time>1970-01-01T05:00:39.000Z</time>
      </trkpt>
      <trkpt lat="42.631544" lon="0.656445">
        <ele>3366.9</ele>
        <time>1970-01-01T05:00:40.000Z</time>
      </trkpt>
      <trkpt lat="42.631544" lon="0.656445">
        <ele>3366.9</ele>
        <time>1970-01-01T05:00:41.000Z</time>
      </trkpt>
      <trkpt lat="42.631544" lon="0.656444">
        <ele>3366.9</ele>
        <time>1970-01-01T05:00:42.000Z</time>
      </trkpt>
      <trkpt lat="42.631544" lon="0.656444">
        <ele>3366.9</ele>
        <time>1970-01-01T05:00:43.000Z</time>
      </trkpt>
      <trkpt lat="42.631544" lon="0.656444">
        <ele>3366.9</ele>
        <time>1970-01-01T05:00:44.000Z</time>
      </trkpt>
      <trkpt lat="42.631544" lon="0.656444">
        <ele>3366.9</ele>
        <time>1970-01-01T05:00:45.000Z</time>
      </trkpt>
      <trkpt lat="42.631544" lon="0.656444">
        <ele>3366.9</ele>
        <time>1970-01-01T05:00:46.000Z</time>
      </trkpt>
      <trkpt lat="42.631544" lon="0.656446">
        <ele>3367</ele>
        <time>1970-01-01T05:00:48.000Z</time>
      </trkpt>
      <trkpt lat="42.631544" lon="0.656445">
        <ele>3367</ele>
        <time>1970-01-01T05:00:49.000Z</time>
      </trkpt>
      <trkpt lat="42.631544" lon="0.656445">
        <ele>3367</ele>
        <time>1970-01-01T05:00:50.000Z</time>
      </trkpt>
      <trkpt lat="42.631543" lon="0.656445">
        <ele>3367</ele>
        <time>1970-01-01T05:00:51.000Z</time>
      </trkpt>
      <trkpt lat="42.631543" lon="0.656445">
        <ele>3367</ele>
        <time>1970-01-01T05:00:52.000Z</time>
      </trkpt>
      <trkpt lat="42.631541" lon="0.656445">
        <ele>3367</ele>
        <time>1970-01-01T05:00:53.000Z</time>
      </trkpt>
      <trkpt lat="42.63154" lon="0.656446">
        <ele>3367</ele>
        <time>1970-01-01T05:00:54.000Z</time>
      </trkpt>
      <trkpt lat="42.631538" lon="0.656445">
        <ele>3367.1</ele>
        <time>1970-01-01T05:00:55.000Z</time>
      </trkpt>
      <trkpt lat="42.631537" lon="0.656445">
        <ele>3367.1</ele>
        <time>1970-01-01T05:00:56.000Z</time>
      </trkpt>
      <trkpt lat="42.631536" lon="0.656445">
        <ele>3367.1</ele>
        <time>1970-01-01T05:00:57.000Z</time>
      </trkpt>
      <trkpt lat="42.631535" lon="0.656444">
        <ele>3367.1</ele>
        <time>1970-01-01T05:00:58.000Z</time>
      </trkpt>
      <trkpt lat="42.631534" lon="0.656445">
        <ele>3367.1</ele>
        <time>1970-01-01T05:00:59.000Z</time>
      </trkpt>
      <trkpt lat="42.631533" lon="0.656445">
        <ele>3367.2</ele>
        <time>1970-01-01T05:01:00.000Z</time>
      </trkpt>
      <trkpt lat="42.631533" lon="0.656445">
        <ele>3367.2</ele>
        <time>1970-01-01T05:01:01.000Z</time>
      </trkpt>
      <trkpt lat="42.631532" lon="0.656446">
        <ele>3367.2</ele>
        <time>1970-01-01T05:01:02.000Z</time>
      </trkpt>
      <trkpt lat="42.631532" lon="0.656446">
        <ele>3367.2</ele>
        <time>1970-01-01T05:01:03.000Z</time>
      </trkpt>
      <trkpt lat="42.631532" lon="0.656445">
        <ele>3367.2</ele>
        <time>1970-01-01T05:01:04.000Z</time>
      </trkpt>
      <trkpt lat="42.631532" lon="0.656445">
        <ele>3367.2</ele>
        <time>1970-01-01T05:01:05.000Z</time>
      </trkpt>
      <trkpt lat="42.631533" lon="0.656445">
        <ele>3367.2</ele>
        <time>1970-01-01T05:01:06.000Z</time>
      </trkpt>
      <trkpt lat="42.631533" lon="0.656444">
        <ele>3367.2</ele>
        <time>1970-01-01T05:01:07.000Z</time>
      </trkpt>
      <trkpt lat="42.631532" lon="0.656443">
        <ele>3367.2</ele>
        <time>1970-01-01T05:01:09.000Z</time>
      </trkpt>
      <trkpt lat="42.631531" lon="0.656443">
        <ele>3367.3</ele>
        <time>1970-01-01T05:01:10.000Z</time>
      </trkpt>
      <trkpt lat="42.63153" lon="0.656445">
        <ele>3367.3</ele>
        <time>1970-01-01T05:01:11.000Z</time>
      </trkpt>
      <trkpt lat="42.63153" lon="0.656445">
        <ele>3367.3</ele>
        <time>1970-01-01T05:01:12.000Z</time>
      </trkpt>
      <trkpt lat="42.631529" lon="0.656447">
        <ele>3367.3</ele>
        <time>1970-01-01T05:01:13.000Z</time>
      </trkpt>
      <trkpt lat="42.631527" lon="0.656447">
        <ele>3367.3</ele>
        <time>1970-01-01T05:01:15.000Z</time>
      </trkpt>
      <trkpt lat="42.631526" lon="0.656447">
        <ele>3367.4</ele>
        <time>1970-01-01T05:01:16.000Z</time>
      </trkpt>
      <trkpt lat="42.631526" lon="0.656447">
        <ele>3367.4</ele>
        <time>1970-01-01T05:01:17.000Z</time>
      </trkpt>
      <trkpt lat="42.631525" lon="0.656447">
        <ele>3367.4</ele>
        <time>1970-01-01T05:01:18.000Z</time>
      </trkpt>
      <trkpt lat="42.631524" lon="0.656447">
        <ele>3367.4</ele>
        <time>1970-01-01T05:01:19.000Z</time>
      </trkpt>
      <trkpt lat="42.631523" lon="0.656447">
        <ele>3367.4</ele>
        <time>1970-01-01T05:01:20.000Z</time>
      </trkpt>
      <trkpt lat="42.631523" lon="0.656448">
        <ele>3367.4</ele>
        <time>1970-01-01T05:01:21.000Z</time>
      </trkpt>
      <trkpt lat="42.631522" lon="0.656448">
        <ele>3367.4</ele>
        <time>1970-01-01T05:01:22.000Z</time>
      </trkpt>
      <trkpt lat="42.63152" lon="0.656449">
        <ele>3367.5</ele>
        <time>1970-01-01T05:01:24.000Z</time>
      </trkpt>
      <trkpt lat="42.63152" lon="0.656449">
        <ele>3367.5</ele>
        <time>1970-01-01T05:01:25.000Z</time>
      </trkpt>
      <trkpt lat="42.631519" lon="0.656449">
        <ele>3367.5</ele>
        <time>1970-01-01T05:01:26.000Z</time>
      </trkpt>
      <trkpt lat="42.631518" lon="0.656451">
        <ele>3367.5</ele>
        <time>1970-01-01T05:01:27.000Z</time>
      </trkpt>
      <trkpt lat="42.631517" lon="0.656453">
        <ele>3367.5</ele>
        <time>1970-01-01T05:01:28.000Z</time>
      </trkpt>
      <trkpt lat="42.631517" lon="0.656453">
        <ele>3367.5</ele>
        <time>1970-01-01T05:01:29.000Z</time>
      </trkpt>
      <trkpt lat="42.631517" lon="0.656453">
        <ele>3367.5</ele>
        <time>1970-01-01T05:01:30.000Z</time>
      </trkpt>
      <trkpt lat="42.631517" lon="0.656453">
        <ele>3367.5</ele>
        <time>1970-01-01T05:01:31.000Z</time>
      </trkpt>
      <trkpt lat="42.631517" lon="0.656453">
        <ele>3367.5</ele>
        <time>1970-01-01T05:01:32.000Z</time>
      </trkpt>
      <trkpt lat="42.631516" lon="0.656453">
        <ele>3367.6</ele>
        <time>1970-01-01T05:01:33.000Z</time>
      </trkpt>
      <trkpt lat="42.631516" lon="0.656453">
        <ele>3367.6</ele>
        <time>1970-01-01T05:01:34.000Z</time>
      </trkpt>
      <trkpt lat="42.631515" lon="0.656453">
        <ele>3367.6</ele>
        <time>1970-01-01T05:01:35.000Z</time>
      </trkpt>
      <trkpt lat="42.631515" lon="0.656453">
        <ele>3367.6</ele>
        <time>1970-01-01T05:01:36.000Z</time>
      </trkpt>
      <trkpt lat="42.631513" lon="0.656454">
        <ele>3367.6</ele>
        <time>1970-01-01T05:01:38.000Z</time>
      </trkpt>
      <trkpt lat="42.631513" lon="0.656454">
        <ele>3367.6</ele>
        <time>1970-01-01T05:01:39.000Z</time>
      </trkpt>
      <trkpt lat="42.631513" lon="0.656454">
        <ele>3367.6</ele>
        <time>1970-01-01T05:01:40.000Z</time>
      </trkpt>
      <trkpt lat="42.631512" lon="0.656454">
        <ele>3367.6</ele>
        <time>1970-01-01T05:01:41.000Z</time>
      </trkpt>
      <trkpt lat="42.631512" lon="0.656455">
        <ele>3367.6</ele>
        <time>1970-01-01T05:01:42.000Z</time>
      </trkpt>
      <trkpt lat="42.631512" lon="0.656455">
        <ele>3367.6</ele>
        <time>1970-01-01T05:01:43.000Z</time>
      </trkpt>
      <trkpt lat="42.631512" lon="0.656454">
        <ele>3367.6</ele>
        <time>1970-01-01T05:01:44.000Z</time>
      </trkpt>
      <trkpt lat="42.631512" lon="0.656454">
        <ele>3367.6</ele>
        <time>1970-01-01T05:01:45.000Z</time>
      </trkpt>
      <trkpt lat="42.631511" lon="0.656453">
        <ele>3367.7</ele>
        <time>1970-01-01T05:01:46.000Z</time>
      </trkpt>
      <trkpt lat="42.631511" lon="0.656453">
        <ele>3367.7</ele>
        <time>1970-01-01T05:01:47.000Z</time>
      </trkpt>
      <trkpt lat="42.631511" lon="0.656453">
        <ele>3367.7</ele>
        <time>1970-01-01T05:01:48.000Z</time>
      </trkpt>
      <trkpt lat="42.63151" lon="0.656454">
        <ele>3367.7</ele>
        <time>1970-01-01T05:01:49.000Z</time>
      </trkpt>
      <trkpt lat="42.631509" lon="0.656456">
        <ele>3367.7</ele>
        <time>1970-01-01T05:01:50.000Z</time>
      </trkpt>
      <trkpt lat="42.631508" lon="0.656459">
        <ele>3367.7</ele>
        <time>1970-01-01T05:01:52.000Z</time>
      </trkpt>
      <trkpt lat="42.631508" lon="0.65646">
        <ele>3367.8</ele>
        <time>1970-01-01T05:01:53.000Z</time>
      </trkpt>
      <trkpt lat="42.631507" lon="0.656461">
        <ele>3367.8</ele>
        <time>1970-01-01T05:01:54.000Z</time>
      </trkpt>
      <trkpt lat="42.631506" lon="0.656462">
        <ele>3367.8</ele>
        <time>1970-01-01T05:01:55.000Z</time>
      </trkpt>
      <trkpt lat="42.631505" lon="0.656464">
        <ele>3367.8</ele>
        <time>1970-01-01T05:01:57.000Z</time>
      </trkpt>
      <trkpt lat="42.631504" lon="0.656466">
        <ele>3367.9</ele>
        <time>1970-01-01T05:01:58.000Z</time>
      </trkpt>
      <trkpt lat="42.631503" lon="0.656467">
        <ele>3367.9</ele>
        <time>1970-01-01T05:01:59.000Z</time>
      </trkpt>
      <trkpt lat="42.631503" lon="0.656469">
        <ele>3367.9</ele>
        <time>1970-01-01T05:02:00.000Z</time>
      </trkpt>
      <trkpt lat="42.631502" lon="0.65647">
        <ele>3367.9</ele>
        <time>1970-01-01T05:02:01.000Z</time>
      </trkpt>
      <trkpt lat="42.631501" lon="0.656472">
        <ele>3367.9</ele>
        <time>1970-01-01T05:02:02.000Z</time>
      </trkpt>
      <trkpt lat="42.631501" lon="0.656475">
        <ele>3368</ele>
        <time>1970-01-01T05:02:04.000Z</time>
      </trkpt>
      <trkpt lat="42.631501" lon="0.656476">
        <ele>3368</ele>
        <time>1970-01-01T05:02:05.000Z</time>
      </trkpt>
      <trkpt lat="42.631501" lon="0.656478">
        <ele>3368</ele>
        <time>1970-01-01T05:02:06.000Z</time>
      </trkpt>
      <trkpt lat="42.631501" lon="0.656479">
        <ele>3368</ele>
        <time>1970-01-01T05:02:07.000Z</time>
      </trkpt>
      <trkpt lat="42.631502" lon="0.65648">
        <ele>3368</ele>
        <time>1970-01-01T05:02:08.000Z</time>
      </trkpt>
      <trkpt lat="42.631501" lon="0.656481">
        <ele>3368.1</ele>
        <time>1970-01-01T05:02:10.000Z</time>
      </trkpt>
      <trkpt lat="42.631501" lon="0.656482">
        <ele>3368.1</ele>
        <time>1970-01-01T05:02:11.000Z</time>
      </trkpt>
      <trkpt lat="42.6315" lon="0.656481">
        <ele>3368.1</ele>
        <time>1970-01-01T05:02:13.000Z</time>
      </trkpt>
      <trkpt lat="42.631498" lon="0.656481">
        <ele>3368.1</ele>
        <time>1970-01-01T05:02:14.000Z</time>
      </trkpt>
      <trkpt lat="42.631497" lon="0.656481">
        <ele>3368.1</ele>
        <time>1970-01-01T05:02:15.000Z</time>
      </trkpt>
      <trkpt lat="42.631496" lon="0.656481">
        <ele>3368.2</ele>
        <time>1970-01-01T05:02:16.000Z</time>
      </trkpt>
      <trkpt lat="42.631496" lon="0.656481">
        <ele>3368.2</ele>
        <time>1970-01-01T05:02:17.000Z</time>
      </trkpt>
      <trkpt lat="42.631496" lon="0.656481">
        <ele>3368.2</ele>
        <time>1970-01-01T05:02:18.000Z</time>
      </trkpt>
      <trkpt lat="42.631495" lon="0.656481">
        <ele>3368.2</ele>
        <time>1970-01-01T05:02:19.000Z</time>
      </trkpt>
      <trkpt lat="42.631495" lon="0.656482">
        <ele>3368.2</ele>
        <time>1970-01-01T05:02:20.000Z</time>
      </trkpt>
      <trkpt lat="42.631495" lon="0.656483">
        <ele>3368.2</ele>
        <time>1970-01-01T05:02:22.000Z</time>
      </trkpt>
      <trkpt lat="42.631494" lon="0.656484">
        <ele>3368.2</ele>
        <time>1970-01-01T05:02:23.000Z</time>
      </trkpt>
      <trkpt lat="42.631494" lon="0.656486">
        <ele>3368.3</ele>
        <time>1970-01-01T05:02:24.000Z</time>
      </trkpt>
      <trkpt lat="42.631493" lon="0.656487">
        <ele>3368.3</ele>
        <time>1970-01-01T05:02:25.000Z</time>
      </trkpt>
      <trkpt lat="42.631493" lon="0.656488">
        <ele>3368.3</ele>
        <time>1970-01-01T05:02:26.000Z</time>
      </trkpt>
      <trkpt lat="42.631493" lon="0.656489">
        <ele>3368.3</ele>
        <time>1970-01-01T05:02:27.000Z</time>
      </trkpt>
      <trkpt lat="42.631491" lon="0.656489">
        <ele>3368.3</ele>
        <time>1970-01-01T05:02:28.000Z</time>
      </trkpt>
      <trkpt lat="42.63149" lon="0.65649">
        <ele>3368.4</ele>
        <time>1970-01-01T05:02:29.000Z</time>
      </trkpt>
      <trkpt lat="42.631488" lon="0.65649">
        <ele>3368.4</ele>
        <time>1970-01-01T05:02:31.000Z</time>
      </trkpt>
      <trkpt lat="42.631487" lon="0.656491">
        <ele>3368.4</ele>
        <time>1970-01-01T05:02:32.000Z</time>
      </trkpt>
      <trkpt lat="42.631486" lon="0.656491">
        <ele>3368.4</ele>
        <time>1970-01-01T05:02:33.000Z</time>
      </trkpt>
      <trkpt lat="42.631486" lon="0.65649">
        <ele>3368.4</ele>
        <time>1970-01-01T05:02:35.000Z</time>
      </trkpt>
      <trkpt lat="42.631486" lon="0.65649">
        <ele>3368.4</ele>
        <time>1970-01-01T05:02:36.000Z</time>
      </trkpt>
      <trkpt lat="42.631485" lon="0.65649">
        <ele>3368.5</ele>
        <time>1970-01-01T05:02:37.000Z</time>
      </trkpt>
      <trkpt lat="42.631484" lon="0.65649">
        <ele>3368.5</ele>
        <time>1970-01-01T05:02:38.000Z</time>
      </trkpt>
      <trkpt lat="42.631484" lon="0.65649">
        <ele>3368.5</ele>
        <time>1970-01-01T05:02:39.000Z</time>
      </trkpt>
      <trkpt lat="42.631484" lon="0.65649">
        <ele>3368.5</ele>
        <time>1970-01-01T05:02:40.000Z</time>
      </trkpt>
      <trkpt lat="42.631483" lon="0.65649">
        <ele>3368.5</ele>
        <time>1970-01-01T05:02:41.000Z</time>
      </trkpt>
      <trkpt lat="42.631483" lon="0.65649">
        <ele>3368.5</ele>
        <time>1970-01-01T05:02:42.000Z</time>
      </trkpt>
      <trkpt lat="42.631482" lon="0.656491">
        <ele>3368.5</ele>
        <time>1970-01-01T05:02:43.000Z</time>
      </trkpt>
      <trkpt lat="42.631481" lon="0.656492">
        <ele>3368.5</ele>
        <time>1970-01-01T05:02:44.000Z</time>
      </trkpt>
      <trkpt lat="42.63148" lon="0.656493">
        <ele>3368.6</ele>
        <time>1970-01-01T05:02:45.000Z</time>
      </trkpt>
      <trkpt lat="42.631479" lon="0.656493">
        <ele>3368.6</ele>
        <time>1970-01-01T05:02:46.000Z</time>
      </trkpt>
      <trkpt lat="42.631479" lon="0.656494">
        <ele>3368.6</ele>
        <time>1970-01-01T05:02:47.000Z</time>
      </trkpt>
      <trkpt lat="42.631478" lon="0.656495">
        <ele>3368.6</ele>
        <time>1970-01-01T05:02:48.000Z</time>
      </trkpt>
      <trkpt lat="42.631478" lon="0.656496">
        <ele>3368.6</ele>
        <time>1970-01-01T05:02:49.000Z</time>
      </trkpt>
      <trkpt lat="42.631478" lon="0.656496">
        <ele>3368.6</ele>
        <time>1970-01-01T05:02:50.000Z</time>
      </trkpt>
      <trkpt lat="42.631478" lon="0.656497">
        <ele>3368.6</ele>
        <time>1970-01-01T05:02:51.000Z</time>
      </trkpt>
      <trkpt lat="42.631477" lon="0.656497">
        <ele>3368.7</ele>
        <time>1970-01-01T05:02:52.000Z</time>
      </trkpt>
      <trkpt lat="42.631477" lon="0.656499">
        <ele>3368.7</ele>
        <time>1970-01-01T05:02:54.000Z</time>
      </trkpt>
      <trkpt lat="42.631478" lon="0.656501">
        <ele>3368.7</ele>
        <time>1970-01-01T05:02:55.000Z</time>
      </trkpt>
      <trkpt lat="42.631479" lon="0.656501">
        <ele>3368.7</ele>
        <time>1970-01-01T05:02:57.000Z</time>
      </trkpt>
      <trkpt lat="42.63148" lon="0.656501">
        <ele>3368.7</ele>
        <time>1970-01-01T05:02:58.000Z</time>
      </trkpt>
      <trkpt lat="42.631481" lon="0.6565">
        <ele>3368.8</ele>
        <time>1970-01-01T05:02:59.000Z</time>
      </trkpt>
      <trkpt lat="42.631481" lon="0.6565">
        <ele>3368.8</ele>
        <time>1970-01-01T05:03:00.000Z</time>
      </trkpt>
      <trkpt lat="42.631482" lon="0.6565">
        <ele>3368.8</ele>
        <time>1970-01-01T05:03:01.000Z</time>
      </trkpt>
      <trkpt lat="42.631483" lon="0.6565">
        <ele>3368.8</ele>
        <time>1970-01-01T05:03:02.000Z</time>
      </trkpt>
      <trkpt lat="42.631484" lon="0.6565">
        <ele>3368.8</ele>
        <time>1970-01-01T05:03:03.000Z</time>
      </trkpt>
      <trkpt lat="42.631484" lon="0.656499">
        <ele>3368.8</ele>
        <time>1970-01-01T05:03:04.000Z</time>
      </trkpt>
      <trkpt lat="42.631485" lon="0.656499">
        <ele>3368.9</ele>
        <time>1970-01-01T05:03:05.000Z</time>
      </trkpt>
      <trkpt lat="42.631483" lon="0.656497">
        <ele>3368.9</ele>
        <time>1970-01-01T05:03:06.000Z</time>
      </trkpt>
      <trkpt lat="42.631485" lon="0.656498">
        <ele>3368.9</ele>
        <time>1970-01-01T05:03:07.000Z</time>
      </trkpt>
      <trkpt lat="42.631485" lon="0.656499">
        <ele>3368.9</ele>
        <time>1970-01-01T05:03:08.000Z</time>
      </trkpt>
      <trkpt lat="42.631486" lon="0.656498">
        <ele>3369</ele>
        <time>1970-01-01T05:03:10.000Z</time>
      </trkpt>
      <trkpt lat="42.631486" lon="0.656499">
        <ele>3369</ele>
        <time>1970-01-01T05:03:11.000Z</time>
      </trkpt>
      <trkpt lat="42.631486" lon="0.656499">
        <ele>3369</ele>
        <time>1970-01-01T05:03:12.000Z</time>
      </trkpt>
      <trkpt lat="42.631486" lon="0.6565">
        <ele>3369</ele>
        <time>1970-01-01T05:03:13.000Z</time>
      </trkpt>
      <trkpt lat="42.631485" lon="0.6565">
        <ele>3369</ele>
        <time>1970-01-01T05:03:14.000Z</time>
      </trkpt>
      <trkpt lat="42.631484" lon="0.656501">
        <ele>3369</ele>
        <time>1970-01-01T05:03:15.000Z</time>
      </trkpt>
      <trkpt lat="42.631483" lon="0.656501">
        <ele>3369</ele>
        <time>1970-01-01T05:03:16.000Z</time>
      </trkpt>
      <trkpt lat="42.631479" lon="0.656502">
        <ele>3369.1</ele>
        <time>1970-01-01T05:03:18.000Z</time>
      </trkpt>
      <trkpt lat="42.631478" lon="0.656504">
        <ele>3369.2</ele>
        <time>1970-01-01T05:03:19.000Z</time>
      </trkpt>
      <trkpt lat="42.631478" lon="0.656505">
        <ele>3369.2</ele>
        <time>1970-01-01T05:03:20.000Z</time>
      </trkpt>
      <trkpt lat="42.631478" lon="0.656506">
        <ele>3369.2</ele>
        <time>1970-01-01T05:03:21.000Z</time>
      </trkpt>
      <trkpt lat="42.631478" lon="0.656507">
        <ele>3369.2</ele>
        <time>1970-01-01T05:03:22.000Z</time>
      </trkpt>
      <trkpt lat="42.631478" lon="0.656509">
        <ele>3369.2</ele>
        <time>1970-01-01T05:03:23.000Z</time>
      </trkpt>
      <trkpt lat="42.631478" lon="0.656511">
        <ele>3369.2</ele>
        <time>1970-01-01T05:03:24.000Z</time>
      </trkpt>
      <trkpt lat="42.631479" lon="0.656512">
        <ele>3369.3</ele>
        <time>1970-01-01T05:03:25.000Z</time>
      </trkpt>
      <trkpt lat="42.631479" lon="0.656513">
        <ele>3369.3</ele>
        <time>1970-01-01T05:03:26.000Z</time>
      </trkpt>
      <trkpt lat="42.631479" lon="0.656515">
        <ele>3369.3</ele>
        <time>1970-01-01T05:03:27.000Z</time>
      </trkpt>
      <trkpt lat="42.631479" lon="0.656516">
        <ele>3369.3</ele>
        <time>1970-01-01T05:03:28.000Z</time>
      </trkpt>
      <trkpt lat="42.631479" lon="0.656516">
        <ele>3369.3</ele>
        <time>1970-01-01T05:03:29.000Z</time>
      </trkpt>
      <trkpt lat="42.63148" lon="0.656517">
        <ele>3369.3</ele>
        <time>1970-01-01T05:03:30.000Z</time>
      </trkpt>
      <trkpt lat="42.631481" lon="0.656517">
        <ele>3369.4</ele>
        <time>1970-01-01T05:03:31.000Z</time>
      </trkpt>
      <trkpt lat="42.631481" lon="0.656518">
        <ele>3369.4</ele>
        <time>1970-01-01T05:03:32.000Z</time>
      </trkpt>
      <trkpt lat="42.63148" lon="0.656517">
        <ele>3369.4</ele>
        <time>1970-01-01T05:03:33.000Z</time>
      </trkpt>
      <trkpt lat="42.63148" lon="0.656518">
        <ele>3369.4</ele>
        <time>1970-01-01T05:03:35.000Z</time>
      </trkpt>
      <trkpt lat="42.63148" lon="0.656518">
        <ele>3369.4</ele>
        <time>1970-01-01T05:03:36.000Z</time>
      </trkpt>
      <trkpt lat="42.631478" lon="0.656518">
        <ele>3369.4</ele>
        <time>1970-01-01T05:03:37.000Z</time>
      </trkpt>
      <trkpt lat="42.631477" lon="0.656518">
        <ele>3369.5</ele>
        <time>1970-01-01T05:03:38.000Z</time>
      </trkpt>
      <trkpt lat="42.631475" lon="0.656518">
        <ele>3369.5</ele>
        <time>1970-01-01T05:03:40.000Z</time>
      </trkpt>
      <trkpt lat="42.631473" lon="0.656518">
        <ele>3369.5</ele>
        <time>1970-01-01T05:03:41.000Z</time>
      </trkpt>
      <trkpt lat="42.631471" lon="0.656517">
        <ele>3369.6</ele>
        <time>1970-01-01T05:03:43.000Z</time>
      </trkpt>
      <trkpt lat="42.631469" lon="0.656516">
        <ele>3369.6</ele>
        <time>1970-01-01T05:03:44.000Z</time>
      </trkpt>
      <trkpt lat="42.631468" lon="0.656516">
        <ele>3369.6</ele>
        <time>1970-01-01T05:03:45.000Z</time>
      </trkpt>
      <trkpt lat="42.631467" lon="0.656515">
        <ele>3369.6</ele>
        <time>1970-01-01T05:03:46.000Z</time>
      </trkpt>
      <trkpt lat="42.631467" lon="0.656515">
        <ele>3369.6</ele>
        <time>1970-01-01T05:03:47.000Z</time>
      </trkpt>
      <trkpt lat="42.631466" lon="0.656515">
        <ele>3369.7</ele>
        <time>1970-01-01T05:03:48.000Z</time>
      </trkpt>
      <trkpt lat="42.631465" lon="0.656514">
        <ele>3369.7</ele>
        <time>1970-01-01T05:03:49.000Z</time>
      </trkpt>
      <trkpt lat="42.631463" lon="0.656513">
        <ele>3369.7</ele>
        <time>1970-01-01T05:03:50.000Z</time>
      </trkpt>
      <trkpt lat="42.631461" lon="0.656512">
        <ele>3369.8</ele>
        <time>1970-01-01T05:03:51.000Z</time>
      </trkpt>
      <trkpt lat="42.63146" lon="0.656513">
        <ele>3369.8</ele>
        <time>1970-01-01T05:03:52.000Z</time>
      </trkpt>
      <trkpt lat="42.63146" lon="0.656514">
        <ele>3369.8</ele>
        <time>1970-01-01T05:03:54.000Z</time>
      </trkpt>
      <trkpt lat="42.63146" lon="0.656516">
        <ele>3369.8</ele>
        <time>1970-01-01T05:03:55.000Z</time>
      </trkpt>
      <trkpt lat="42.63146" lon="0.656519">
        <ele>3369.8</ele>
        <time>1970-01-01T05:03:56.000Z</time>
      </trkpt>
      <trkpt lat="42.63146" lon="0.656519">
        <ele>3369.8</ele>
        <time>1970-01-01T05:03:57.000Z</time>
      </trkpt>
      <trkpt lat="42.631459" lon="0.65652">
        <ele>3369.9</ele>
        <time>1970-01-01T05:03:58.000Z</time>
      </trkpt>
      <trkpt lat="42.631459" lon="0.65652">
        <ele>3369.9</ele>
        <time>1970-01-01T05:03:59.000Z</time>
      </trkpt>
      <trkpt lat="42.631458" lon="0.656521">
        <ele>3369.9</ele>
        <time>1970-01-01T05:04:00.000Z</time>
      </trkpt>
      <trkpt lat="42.631457" lon="0.656521">
        <ele>3369.9</ele>
        <time>1970-01-01T05:04:01.000Z</time>
      </trkpt>
      <trkpt lat="42.631456" lon="0.65652">
        <ele>3369.9</ele>
        <time>1970-01-01T05:04:02.000Z</time>
      </trkpt>
      <trkpt lat="42.631455" lon="0.65652">
        <ele>3369.9</ele>
        <time>1970-01-01T05:04:03.000Z</time>
      </trkpt>
      <trkpt lat="42.631453" lon="0.65652">
        <ele>3370</ele>
        <time>1970-01-01T05:04:04.000Z</time>
      </trkpt>
      <trkpt lat="42.631453" lon="0.65652">
        <ele>3370</ele>
        <time>1970-01-01T05:04:05.000Z</time>
      </trkpt>
      <trkpt lat="42.631452" lon="0.65652">
        <ele>3370</ele>
        <time>1970-01-01T05:04:06.000Z</time>
      </trkpt>
      <trkpt lat="42.631452" lon="0.65652">
        <ele>3370</ele>
        <time>1970-01-01T05:04:07.000Z</time>
      </trkpt>
      <trkpt lat="42.631451" lon="0.65652">
        <ele>3370</ele>
        <time>1970-01-01T05:04:08.000Z</time>
      </trkpt>
      <trkpt lat="42.631451" lon="0.65652">
        <ele>3370</ele>
        <time>1970-01-01T05:04:09.000Z</time>
      </trkpt>
      <trkpt lat="42.631451" lon="0.656519">
        <ele>3370</ele>
        <time>1970-01-01T05:04:10.000Z</time>
      </trkpt>
      <trkpt lat="42.63145" lon="0.656519">
        <ele>3370</ele>
        <time>1970-01-01T05:04:11.000Z</time>
      </trkpt>
      <trkpt lat="42.631449" lon="0.656519">
        <ele>3370.1</ele>
        <time>1970-01-01T05:04:13.000Z</time>
      </trkpt>
      <trkpt lat="42.631449" lon="0.656519">
        <ele>3370.1</ele>
        <time>1970-01-01T05:04:14.000Z</time>
      </trkpt>
      <trkpt lat="42.631448" lon="0.656519">
        <ele>3370.1</ele>
        <time>1970-01-01T05:04:15.000Z</time>
      </trkpt>
      <trkpt lat="42.631446" lon="0.656519">
        <ele>3370.1</ele>
        <time>1970-01-01T05:04:17.000Z</time>
      </trkpt>
      <trkpt lat="42.631445" lon="0.656522">
        <ele>3370.2</ele>
        <time>1970-01-01T05:04:18.000Z</time>
      </trkpt>
      <trkpt lat="42.631445" lon="0.656523">
        <ele>3370.2</ele>
        <time>1970-01-01T05:04:19.000Z</time>
      </trkpt>
      <trkpt lat="42.631444" lon="0.656525">
        <ele>3370.2</ele>
        <time>1970-01-01T05:04:20.000Z</time>
      </trkpt>
      <trkpt lat="42.631443" lon="0.656526">
        <ele>3370.2</ele>
        <time>1970-01-01T05:04:21.000Z</time>
      </trkpt>
      <trkpt lat="42.631443" lon="0.656528">
        <ele>3370.3</ele>
        <time>1970-01-01T05:04:22.000Z</time>
      </trkpt>
      <trkpt lat="42.631441" lon="0.656531">
        <ele>3370.3</ele>
        <time>1970-01-01T05:04:23.000Z</time>
      </trkpt>
      <trkpt lat="42.631438" lon="0.656535">
        <ele>3370.4</ele>
        <time>1970-01-01T05:04:24.000Z</time>
      </trkpt>
      <trkpt lat="42.631434" lon="0.656539">
        <ele>3370.5</ele>
        <time>1970-01-01T05:04:26.000Z</time>
      </trkpt>
      <trkpt lat="42.631432" lon="0.656539">
        <ele>3370.5</ele>
        <time>1970-01-01T05:04:27.000Z</time>
      </trkpt>
      <trkpt lat="42.63143" lon="0.65654">
        <ele>3370.5</ele>
        <time>1970-01-01T05:04:28.000Z</time>
      </trkpt>
      <trkpt lat="42.63143" lon="0.656541">
        <ele>3370.6</ele>
        <time>1970-01-01T05:04:29.000Z</time>
      </trkpt>
      <trkpt lat="42.631429" lon="0.656542">
        <ele>3370.6</ele>
        <time>1970-01-01T05:04:31.000Z</time>
      </trkpt>
      <trkpt lat="42.631429" lon="0.656543">
        <ele>3370.6</ele>
        <time>1970-01-01T05:04:32.000Z</time>
      </trkpt>
      <trkpt lat="42.631429" lon="0.656543">
        <ele>3370.6</ele>
        <time>1970-01-01T05:04:33.000Z</time>
      </trkpt>
      <trkpt lat="42.631427" lon="0.656544">
        <ele>3370.6</ele>
        <time>1970-01-01T05:04:34.000Z</time>
      </trkpt>
      <trkpt lat="42.631425" lon="0.656546">
        <ele>3370.7</ele>
        <time>1970-01-01T05:04:35.000Z</time>
      </trkpt>
      <trkpt lat="42.631421" lon="0.656548">
        <ele>3370.7</ele>
        <time>1970-01-01T05:04:37.000Z</time>
      </trkpt>
      <trkpt lat="42.631418" lon="0.65655">
        <ele>3370.8</ele>
        <time>1970-01-01T05:04:39.000Z</time>
      </trkpt>
      <trkpt lat="42.631415" lon="0.656553">
        <ele>3370.9</ele>
        <time>1970-01-01T05:04:40.000Z</time>
      </trkpt>
      <trkpt lat="42.631413" lon="0.656554">
        <ele>3370.9</ele>
        <time>1970-01-01T05:04:41.000Z</time>
      </trkpt>
      <trkpt lat="42.631412" lon="0.656555">
        <ele>3370.9</ele>
        <time>1970-01-01T05:04:42.000Z</time>
      </trkpt>
      <trkpt lat="42.631412" lon="0.656555">
        <ele>3370.9</ele>
        <time>1970-01-01T05:04:43.000Z</time>
      </trkpt>
      <trkpt lat="42.631411" lon="0.656556">
        <ele>3370.9</ele>
        <time>1970-01-01T05:04:44.000Z</time>
      </trkpt>
      <trkpt lat="42.631411" lon="0.656557">
        <ele>3371</ele>
        <time>1970-01-01T05:04:45.000Z</time>
      </trkpt>
      <trkpt lat="42.63141" lon="0.656559">
        <ele>3371</ele>
        <time>1970-01-01T05:04:46.000Z</time>
      </trkpt>
      <trkpt lat="42.631409" lon="0.656561">
        <ele>3371</ele>
        <time>1970-01-01T05:04:47.000Z</time>
      </trkpt>
      <trkpt lat="42.631409" lon="0.656563">
        <ele>3371</ele>
        <time>1970-01-01T05:04:48.000Z</time>
      </trkpt>
      <trkpt lat="42.631409" lon="0.656565">
        <ele>3371</ele>
        <time>1970-01-01T05:04:49.000Z</time>
      </trkpt>
      <trkpt lat="42.631407" lon="0.656567">
        <ele>3371.1</ele>
        <time>1970-01-01T05:04:50.000Z</time>
      </trkpt>
      <trkpt lat="42.631406" lon="0.65657">
        <ele>3371.1</ele>
        <time>1970-01-01T05:04:51.000Z</time>
      </trkpt>
      <trkpt lat="42.631403" lon="0.656574">
        <ele>3371.1</ele>
        <time>1970-01-01T05:04:53.000Z</time>
      </trkpt>
      <trkpt lat="42.6314" lon="0.656576">
        <ele>3371.1</ele>
        <time>1970-01-01T05:04:54.000Z</time>
      </trkpt>
      <trkpt lat="42.631396" lon="0.656582">
        <ele>3371.1</ele>
        <time>1970-01-01T05:04:55.000Z</time>
      </trkpt>
      <trkpt lat="42.631393" lon="0.656587">
        <ele>3371.1</ele>
        <time>1970-01-01T05:04:56.000Z</time>
      </trkpt>
      <trkpt lat="42.631391" lon="0.656592">
        <ele>3371.2</ele>
        <time>1970-01-01T05:04:57.000Z</time>
      </trkpt>
      <trkpt lat="42.631388" lon="0.656596">
        <ele>3371.2</ele>
        <time>1970-01-01T05:04:58.000Z</time>
      </trkpt>
      <trkpt lat="42.631381" lon="0.656603">
        <ele>3371.2</ele>
        <time>1970-01-01T05:04:59.000Z</time>
      </trkpt>
      <trkpt lat="42.631375" lon="0.656608">
        <ele>3371.2</ele>
        <time>1970-01-01T05:05:00.000Z</time>
      </trkpt>
      <trkpt lat="42.631368" lon="0.65661">
        <ele>3371.3</ele>
        <time>1970-01-01T05:05:02.000Z</time>
      </trkpt>
      <trkpt lat="42.631358" lon="0.656612">
        <ele>3371.3</ele>
        <time>1970-01-01T05:05:03.000Z</time>
      </trkpt>
      <trkpt lat="42.631354" lon="0.656614">
        <ele>3371.3</ele>
        <time>1970-01-01T05:05:04.000Z</time>
      </trkpt>
      <trkpt lat="42.631348" lon="0.656617">
        <ele>3371.4</ele>
        <time>1970-01-01T05:05:05.000Z</time>
      </trkpt>
      <trkpt lat="42.631344" lon="0.656619">
        <ele>3371.4</ele>
        <time>1970-01-01T05:05:06.000Z</time>
      </trkpt>
      <trkpt lat="42.631333" lon="0.656622">
        <ele>3371.4</ele>
        <time>1970-01-01T05:05:07.000Z</time>
      </trkpt>
      <trkpt lat="42.631324" lon="0.656624">
        <ele>3371.5</ele>
        <time>1970-01-01T05:05:08.000Z</time>
      </trkpt>
      <trkpt lat="42.631315" lon="0.65663">
        <ele>3371.5</ele>
        <time>1970-01-01T05:05:09.000Z</time>
      </trkpt>
      <trkpt lat="42.63131" lon="0.656635">
        <ele>3371.5</ele>
        <time>1970-01-01T05:05:10.000Z</time>
      </trkpt>
      <trkpt lat="42.631304" lon="0.656639">
        <ele>3371.6</ele>
        <time>1970-01-01T05:05:11.000Z</time>
      </trkpt>
      <trkpt lat="42.631296" lon="0.656644">
        <ele>3371.6</ele>
        <time>1970-01-01T05:05:12.000Z</time>
      </trkpt>
      <trkpt lat="42.631283" lon="0.656656">
        <ele>3371.7</ele>
        <time>1970-01-01T05:05:13.000Z</time>
      </trkpt>
      <trkpt lat="42.631277" lon="0.656661">
        <ele>3371.7</ele>
        <time>1970-01-01T05:05:14.000Z</time>
      </trkpt>
      <trkpt lat="42.631272" lon="0.656666">
        <ele>3371.7</ele>
        <time>1970-01-01T05:05:15.000Z</time>
      </trkpt>
      <trkpt lat="42.631266" lon="0.656671">
        <ele>3371.8</ele>
        <time>1970-01-01T05:05:16.000Z</time>
      </trkpt>
      <trkpt lat="42.631259" lon="0.656672">
        <ele>3371.8</ele>
        <time>1970-01-01T05:05:18.000Z</time>
      </trkpt>
      <trkpt lat="42.631255" lon="0.656671">
        <ele>3371.8</ele>
        <time>1970-01-01T05:05:19.000Z</time>
      </trkpt>
      <trkpt lat="42.631253" lon="0.656669">
        <ele>3371.8</ele>
        <time>1970-01-01T05:05:20.000Z</time>
      </trkpt>
      <trkpt lat="42.63125" lon="0.656668">
        <ele>3371.8</ele>
        <time>1970-01-01T05:05:21.000Z</time>
      </trkpt>
      <trkpt lat="42.631244" lon="0.656669">
        <ele>3371.9</ele>
        <time>1970-01-01T05:05:22.000Z</time>
      </trkpt>
      <trkpt lat="42.631238" lon="0.656671">
        <ele>3371.9</ele>
        <time>1970-01-01T05:05:23.000Z</time>
      </trkpt>
      <trkpt lat="42.63123" lon="0.65667">
        <ele>3371.9</ele>
        <time>1970-01-01T05:05:25.000Z</time>
      </trkpt>
      <trkpt lat="42.631222" lon="0.656671">
        <ele>3372</ele>
        <time>1970-01-01T05:05:26.000Z</time>
      </trkpt>
      <trkpt lat="42.631214" lon="0.656674">
        <ele>3372</ele>
        <time>1970-01-01T05:05:27.000Z</time>
      </trkpt>
      <trkpt lat="42.631207" lon="0.656679">
        <ele>3372</ele>
        <time>1970-01-01T05:05:29.000Z</time>
      </trkpt>
      <trkpt lat="42.631206" lon="0.656679">
        <ele>3372</ele>
        <time>1970-01-01T05:05:30.000Z</time>
      </trkpt>
      <trkpt lat="42.631202" lon="0.656681">
        <ele>3372.1</ele>
        <time>1970-01-01T05:05:32.000Z</time>
      </trkpt>
      <trkpt lat="42.631197" lon="0.65668">
        <ele>3372.1</ele>
        <time>1970-01-01T05:05:33.000Z</time>
      </trkpt>
      <trkpt lat="42.631194" lon="0.656679">
        <ele>3372.1</ele>
        <time>1970-01-01T05:05:34.000Z</time>
      </trkpt>
      <trkpt lat="42.631194" lon="0.656679">
        <ele>3372.1</ele>
        <time>1970-01-01T05:05:35.000Z</time>
      </trkpt>
      <trkpt lat="42.631193" lon="0.656679">
        <ele>3372.1</ele>
        <time>1970-01-01T05:05:36.000Z</time>
      </trkpt>
      <trkpt lat="42.631193" lon="0.656678">
        <ele>3372.1</ele>
        <time>1970-01-01T05:05:37.000Z</time>
      </trkpt>
      <trkpt lat="42.631193" lon="0.656676">
        <ele>3372.1</ele>
        <time>1970-01-01T05:05:38.000Z</time>
      </trkpt>
      <trkpt lat="42.63119" lon="0.656673">
        <ele>3372.1</ele>
        <time>1970-01-01T05:05:40.000Z</time>
      </trkpt>
      <trkpt lat="42.63119" lon="0.656674">
        <ele>3372.1</ele>
        <time>1970-01-01T05:05:41.000Z</time>
      </trkpt>
      <trkpt lat="42.631189" lon="0.656674">
        <ele>3372.1</ele>
        <time>1970-01-01T05:05:42.000Z</time>
      </trkpt>
      <trkpt lat="42.631189" lon="0.656675">
        <ele>3372.1</ele>
        <time>1970-01-01T05:05:43.000Z</time>
      </trkpt>
      <trkpt lat="42.631189" lon="0.656675">
        <ele>3372.1</ele>
        <time>1970-01-01T05:05:44.000Z</time>
      </trkpt>
      <trkpt lat="42.631189" lon="0.656675">
        <ele>3372.1</ele>
        <time>1970-01-01T05:05:45.000Z</time>
      </trkpt>
      <trkpt lat="42.631189" lon="0.656675">
        <ele>3372.1</ele>
        <time>1970-01-01T05:05:46.000Z</time>
      </trkpt>
      <trkpt lat="42.631189" lon="0.656674">
        <ele>3372.1</ele>
        <time>1970-01-01T05:05:47.000Z</time>
      </trkpt>
      <trkpt lat="42.631188" lon="0.656672">
        <ele>3372.2</ele>
        <time>1970-01-01T05:05:48.000Z</time>
      </trkpt>
      <trkpt lat="42.631186" lon="0.65667">
        <ele>3372.2</ele>
        <time>1970-01-01T05:05:49.000Z</time>
      </trkpt>
      <trkpt lat="42.631184" lon="0.656671">
        <ele>3372.2</ele>
        <time>1970-01-01T05:05:51.000Z</time>
      </trkpt>
      <trkpt lat="42.631183" lon="0.656672">
        <ele>3372.2</ele>
        <time>1970-01-01T05:05:52.000Z</time>
      </trkpt>
      <trkpt lat="42.631183" lon="0.656672">
        <ele>3372.2</ele>
        <time>1970-01-01T05:05:53.000Z</time>
      </trkpt>
      <trkpt lat="42.631182" lon="0.656673">
        <ele>3372.2</ele>
        <time>1970-01-01T05:05:54.000Z</time>
      </trkpt>
      <trkpt lat="42.63118" lon="0.656676">
        <ele>3372.2</ele>
        <time>1970-01-01T05:05:55.000Z</time>
      </trkpt>
      <trkpt lat="42.63118" lon="0.656678">
        <ele>3372.2</ele>
        <time>1970-01-01T05:05:56.000Z</time>
      </trkpt>
      <trkpt lat="42.63118" lon="0.65668">
        <ele>3372.2</ele>
        <time>1970-01-01T05:05:57.000Z</time>
      </trkpt>
      <trkpt lat="42.631176" lon="0.656686">
        <ele>3372.2</ele>
        <time>1970-01-01T05:05:59.000Z</time>
      </trkpt>
      <trkpt lat="42.631175" lon="0.656685">
        <ele>3372.2</ele>
        <time>1970-01-01T05:06:00.000Z</time>
      </trkpt>
      <trkpt lat="42.631175" lon="0.656685">
        <ele>3372.2</ele>
        <time>1970-01-01T05:06:01.000Z</time>
      </trkpt>
      <trkpt lat="42.631176" lon="0.656685">
        <ele>3372.2</ele>
        <time>1970-01-01T05:06:02.000Z</time>
      </trkpt>
      <trkpt lat="42.631176" lon="0.656685">
        <ele>3372.2</ele>
        <time>1970-01-01T05:06:03.000Z</time>
      </trkpt>
      <trkpt lat="42.631176" lon="0.656686">
        <ele>3372.2</ele>
        <time>1970-01-01T05:06:04.000Z</time>
      </trkpt>
      <trkpt lat="42.631175" lon="0.656685">
        <ele>3372.3</ele>
        <time>1970-01-01T05:06:05.000Z</time>
      </trkpt>
      <trkpt lat="42.631174" lon="0.656685">
        <ele>3372.3</ele>
        <time>1970-01-01T05:06:07.000Z</time>
      </trkpt>
      <trkpt lat="42.631175" lon="0.656685">
        <ele>3372.3</ele>
        <time>1970-01-01T05:06:08.000Z</time>
      </trkpt>
      <trkpt lat="42.631174" lon="0.656685">
        <ele>3372.3</ele>
        <time>1970-01-01T05:06:09.000Z</time>
      </trkpt>
      <trkpt lat="42.631175" lon="0.656685">
        <ele>3372.3</ele>
        <time>1970-01-01T05:06:10.000Z</time>
      </trkpt>
      <trkpt lat="42.631175" lon="0.656685">
        <ele>3372.3</ele>
        <time>1970-01-01T05:06:11.000Z</time>
      </trkpt>
      <trkpt lat="42.631175" lon="0.656686">
        <ele>3372.3</ele>
        <time>1970-01-01T05:06:12.000Z</time>
      </trkpt>
      <trkpt lat="42.631175" lon="0.656687">
        <ele>3372.3</ele>
        <time>1970-01-01T05:06:13.000Z</time>
      </trkpt>
      <trkpt lat="42.631176" lon="0.656688">
        <ele>3372.3</ele>
        <time>1970-01-01T05:06:14.000Z</time>
      </trkpt>
      <trkpt lat="42.631177" lon="0.656688">
        <ele>3372.3</ele>
        <time>1970-01-01T05:06:15.000Z</time>
      </trkpt>
      <trkpt lat="42.631177" lon="0.656689">
        <ele>3372.3</ele>
        <time>1970-01-01T05:06:16.000Z</time>
      </trkpt>
      <trkpt lat="42.631177" lon="0.65669">
        <ele>3372.3</ele>
        <time>1970-01-01T05:06:17.000Z</time>
      </trkpt>
      <trkpt lat="42.631177" lon="0.656691">
        <ele>3372.3</ele>
        <time>1970-01-01T05:06:18.000Z</time>
      </trkpt>
      <trkpt lat="42.631178" lon="0.656691">
        <ele>3372.3</ele>
        <time>1970-01-01T05:06:19.000Z</time>
      </trkpt>
      <trkpt lat="42.631178" lon="0.656691">
        <ele>3372.3</ele>
        <time>1970-01-01T05:06:20.000Z</time>
      </trkpt>
      <trkpt lat="42.631178" lon="0.656692">
        <ele>3372.3</ele>
        <time>1970-01-01T05:06:21.000Z</time>
      </trkpt>
      <trkpt lat="42.631178" lon="0.656692">
        <ele>3372.3</ele>
        <time>1970-01-01T05:06:22.000Z</time>
      </trkpt>
      <trkpt lat="42.631178" lon="0.656692">
        <ele>3372.3</ele>
        <time>1970-01-01T05:06:23.000Z</time>
      </trkpt>
      <trkpt lat="42.631178" lon="0.656692">
        <ele>3372.3</ele>
        <time>1970-01-01T05:06:24.000Z</time>
      </trkpt>
      <trkpt lat="42.631178" lon="0.656692">
        <ele>3372.3</ele>
        <time>1970-01-01T05:06:25.000Z</time>
      </trkpt>
      <trkpt lat="42.631178" lon="0.656692">
        <ele>3372.3</ele>
        <time>1970-01-01T05:06:26.000Z</time>
      </trkpt>
      <trkpt lat="42.631178" lon="0.656693">
        <ele>3372.3</ele>
        <time>1970-01-01T05:06:27.000Z</time>
      </trkpt>
      <trkpt lat="42.631178" lon="0.656693">
        <ele>3372.3</ele>
        <time>1970-01-01T05:06:28.000Z</time>
      </trkpt>
      <trkpt lat="42.631179" lon="0.656693">
        <ele>3372.3</ele>
        <time>1970-01-01T05:06:29.000Z</time>
      </trkpt>
      <trkpt lat="42.631179" lon="0.656694">
        <ele>3372.3</ele>
        <time>1970-01-01T05:06:30.000Z</time>
      </trkpt>
      <trkpt lat="42.631178" lon="0.656694">
        <ele>3372.3</ele>
        <time>1970-01-01T05:06:31.000Z</time>
      </trkpt>
      <trkpt lat="42.631178" lon="0.656693">
        <ele>3372.3</ele>
        <time>1970-01-01T05:06:32.000Z</time>
      </trkpt>
      <trkpt lat="42.631178" lon="0.656691">
        <ele>3372.3</ele>
        <time>1970-01-01T05:06:33.000Z</time>
      </trkpt>
      <trkpt lat="42.631177" lon="0.65669">
        <ele>3372.3</ele>
        <time>1970-01-01T05:06:35.000Z</time>
      </trkpt>
      <trkpt lat="42.631177" lon="0.656689">
        <ele>3372.3</ele>
        <time>1970-01-01T05:06:36.000Z</time>
      </trkpt>
      <trkpt lat="42.631177" lon="0.656689">
        <ele>3372.3</ele>
        <time>1970-01-01T05:06:37.000Z</time>
      </trkpt>
      <trkpt lat="42.631177" lon="0.656689">
        <ele>3372.3</ele>
        <time>1970-01-01T05:06:38.000Z</time>
      </trkpt>
      <trkpt lat="42.631177" lon="0.656688">
        <ele>3372.3</ele>
        <time>1970-01-01T05:06:39.000Z</time>
      </trkpt>
      <trkpt lat="42.631176" lon="0.656688">
        <ele>3372.3</ele>
        <time>1970-01-01T05:06:40.000Z</time>
      </trkpt>
      <trkpt lat="42.631177" lon="0.656687">
        <ele>3372.3</ele>
        <time>1970-01-01T05:06:41.000Z</time>
      </trkpt>
      <trkpt lat="42.631177" lon="0.656687">
        <ele>3372.3</ele>
        <time>1970-01-01T05:06:42.000Z</time>
      </trkpt>
      <trkpt lat="42.631177" lon="0.656687">
        <ele>3372.3</ele>
        <time>1970-01-01T05:06:43.000Z</time>
      </trkpt>
      <trkpt lat="42.631177" lon="0.656687">
        <ele>3372.3</ele>
        <time>1970-01-01T05:06:44.000Z</time>
      </trkpt>
      <trkpt lat="42.631177" lon="0.656687">
        <ele>3372.3</ele>
        <time>1970-01-01T05:06:45.000Z</time>
      </trkpt>
      <trkpt lat="42.631177" lon="0.656688">
        <ele>3372.4</ele>
        <time>1970-01-01T05:06:46.000Z</time>
      </trkpt>
      <trkpt lat="42.631177" lon="0.656688">
        <ele>3372.4</ele>
        <time>1970-01-01T05:06:47.000Z</time>
      </trkpt>
      <trkpt lat="42.631177" lon="0.65669">
        <ele>3372.4</ele>
        <time>1970-01-01T05:06:49.000Z</time>
      </trkpt>
      <trkpt lat="42.631179" lon="0.656691">
        <ele>3372.4</ele>
        <time>1970-01-01T05:06:51.000Z</time>
      </trkpt>
      <trkpt lat="42.63118" lon="0.656691">
        <ele>3372.4</ele>
        <time>1970-01-01T05:06:52.000Z</time>
      </trkpt>
      <trkpt lat="42.63118" lon="0.656691">
        <ele>3372.4</ele>
        <time>1970-01-01T05:06:54.000Z</time>
      </trkpt>
      <trkpt lat="42.63118" lon="0.656691">
        <ele>3372.4</ele>
        <time>1970-01-01T05:06:55.000Z</time>
      </trkpt>
      <trkpt lat="42.63118" lon="0.65669">
        <ele>3372.4</ele>
        <time>1970-01-01T05:06:56.000Z</time>
      </trkpt>
      <trkpt lat="42.63118" lon="0.656689">
        <ele>3372.4</ele>
        <time>1970-01-01T05:06:57.000Z</time>
      </trkpt>
      <trkpt lat="42.631179" lon="0.656689">
        <ele>3372.4</ele>
        <time>1970-01-01T05:06:58.000Z</time>
      </trkpt>
      <trkpt lat="42.631179" lon="0.656689">
        <ele>3372.4</ele>
        <time>1970-01-01T05:06:59.000Z</time>
      </trkpt>
      <trkpt lat="42.631179" lon="0.65669">
        <ele>3372.4</ele>
        <time>1970-01-01T05:07:00.000Z</time>
      </trkpt>
      <trkpt lat="42.63118" lon="0.65669">
        <ele>3372.4</ele>
        <time>1970-01-01T05:07:01.000Z</time>
      </trkpt>
      <trkpt lat="42.63118" lon="0.65669">
        <ele>3372.4</ele>
        <time>1970-01-01T05:07:02.000Z</time>
      </trkpt>
      <trkpt lat="42.631181" lon="0.65669">
        <ele>3372.4</ele>
        <time>1970-01-01T05:07:03.000Z</time>
      </trkpt>
      <trkpt lat="42.631182" lon="0.65669">
        <ele>3372.4</ele>
        <time>1970-01-01T05:07:04.000Z</time>
      </trkpt>
      <trkpt lat="42.631183" lon="0.65669">
        <ele>3372.4</ele>
        <time>1970-01-01T05:07:05.000Z</time>
      </trkpt>
      <trkpt lat="42.631184" lon="0.65669">
        <ele>3372.4</ele>
        <time>1970-01-01T05:07:06.000Z</time>
      </trkpt>
      <trkpt lat="42.631184" lon="0.656689">
        <ele>3372.4</ele>
        <time>1970-01-01T05:07:07.000Z</time>
      </trkpt>
      <trkpt lat="42.631185" lon="0.65669">
        <ele>3372.4</ele>
        <time>1970-01-01T05:07:08.000Z</time>
      </trkpt>
      <trkpt lat="42.631184" lon="0.65669">
        <ele>3372.4</ele>
        <time>1970-01-01T05:07:09.000Z</time>
      </trkpt>
      <trkpt lat="42.631184" lon="0.656689">
        <ele>3372.4</ele>
        <time>1970-01-01T05:07:10.000Z</time>
      </trkpt>
      <trkpt lat="42.631183" lon="0.656689">
        <ele>3372.4</ele>
        <time>1970-01-01T05:07:11.000Z</time>
      </trkpt>
      <trkpt lat="42.631182" lon="0.656689">
        <ele>3372.4</ele>
        <time>1970-01-01T05:07:12.000Z</time>
      </trkpt>
      <trkpt lat="42.631181" lon="0.656686">
        <ele>3372.4</ele>
        <time>1970-01-01T05:07:13.000Z</time>
      </trkpt>
      <trkpt lat="42.631181" lon="0.656684">
        <ele>3372.4</ele>
        <time>1970-01-01T05:07:14.000Z</time>
      </trkpt>
      <trkpt lat="42.63118" lon="0.656683">
        <ele>3372.5</ele>
        <time>1970-01-01T05:07:15.000Z</time>
      </trkpt>
      <trkpt lat="42.63118" lon="0.656682">
        <ele>3372.5</ele>
        <time>1970-01-01T05:07:16.000Z</time>
      </trkpt>
      <trkpt lat="42.63118" lon="0.656682">
        <ele>3372.5</ele>
        <time>1970-01-01T05:07:17.000Z</time>
      </trkpt>
      <trkpt lat="42.631179" lon="0.656684">
        <ele>3372.5</ele>
        <time>1970-01-01T05:07:18.000Z</time>
      </trkpt>
      <trkpt lat="42.631178" lon="0.656686">
        <ele>3372.5</ele>
        <time>1970-01-01T05:07:19.000Z</time>
      </trkpt>
      <trkpt lat="42.631178" lon="0.656688">
        <ele>3372.5</ele>
        <time>1970-01-01T05:07:20.000Z</time>
      </trkpt>
      <trkpt lat="42.631178" lon="0.656687">
        <ele>3372.5</ele>
        <time>1970-01-01T05:07:22.000Z</time>
      </trkpt>
      <trkpt lat="42.631177" lon="0.656684">
        <ele>3372.5</ele>
        <time>1970-01-01T05:07:23.000Z</time>
      </trkpt>
      <trkpt lat="42.631178" lon="0.656683">
        <ele>3372.5</ele>
        <time>1970-01-01T05:07:24.000Z</time>
      </trkpt>
      <trkpt lat="42.631178" lon="0.656683">
        <ele>3372.5</ele>
        <time>1970-01-01T05:07:25.000Z</time>
      </trkpt>
      <trkpt lat="42.631178" lon="0.656682">
        <ele>3372.5</ele>
        <time>1970-01-01T05:07:26.000Z</time>
      </trkpt>
      <trkpt lat="42.631179" lon="0.656682">
        <ele>3372.5</ele>
        <time>1970-01-01T05:07:27.000Z</time>
      </trkpt>
      <trkpt lat="42.631179" lon="0.656681">
        <ele>3372.5</ele>
        <time>1970-01-01T05:07:28.000Z</time>
      </trkpt>
      <trkpt lat="42.631179" lon="0.656681">
        <ele>3372.5</ele>
        <time>1970-01-01T05:07:29.000Z</time>
      </trkpt>
      <trkpt lat="42.63118" lon="0.65668">
        <ele>3372.5</ele>
        <time>1970-01-01T05:07:30.000Z</time>
      </trkpt>
      <trkpt lat="42.63118" lon="0.65668">
        <ele>3372.5</ele>
        <time>1970-01-01T05:07:31.000Z</time>
      </trkpt>
      <trkpt lat="42.631181" lon="0.65668">
        <ele>3372.5</ele>
        <time>1970-01-01T05:07:32.000Z</time>
      </trkpt>
      <trkpt lat="42.631181" lon="0.656679">
        <ele>3372.5</ele>
        <time>1970-01-01T05:07:33.000Z</time>
      </trkpt>
      <trkpt lat="42.631181" lon="0.656678">
        <ele>3372.5</ele>
        <time>1970-01-01T05:07:34.000Z</time>
      </trkpt>
      <trkpt lat="42.631181" lon="0.656678">
        <ele>3372.5</ele>
        <time>1970-01-01T05:07:35.000Z</time>
      </trkpt>
      <trkpt lat="42.631181" lon="0.656679">
        <ele>3372.5</ele>
        <time>1970-01-01T05:07:36.000Z</time>
      </trkpt>
      <trkpt lat="42.631181" lon="0.656679">
        <ele>3372.5</ele>
        <time>1970-01-01T05:07:37.000Z</time>
      </trkpt>
      <trkpt lat="42.631182" lon="0.656679">
        <ele>3372.5</ele>
        <time>1970-01-01T05:07:38.000Z</time>
      </trkpt>
      <trkpt lat="42.631182" lon="0.656679">
        <ele>3372.5</ele>
        <time>1970-01-01T05:07:39.000Z</time>
      </trkpt>
      <trkpt lat="42.631183" lon="0.656679">
        <ele>3372.5</ele>
        <time>1970-01-01T05:07:40.000Z</time>
      </trkpt>
      <trkpt lat="42.631183" lon="0.65668">
        <ele>3372.5</ele>
        <time>1970-01-01T05:07:41.000Z</time>
      </trkpt>
      <trkpt lat="42.631183" lon="0.65668">
        <ele>3372.5</ele>
        <time>1970-01-01T05:07:42.000Z</time>
      </trkpt>
      <trkpt lat="42.63118" lon="0.656682">
        <ele>3372.6</ele>
        <time>1970-01-01T05:07:43.000Z</time>
      </trkpt>
      <trkpt lat="42.631179" lon="0.656684">
        <ele>3372.6</ele>
        <time>1970-01-01T05:07:44.000Z</time>
      </trkpt>
      <trkpt lat="42.631178" lon="0.656684">
        <ele>3372.6</ele>
        <time>1970-01-01T05:07:45.000Z</time>
      </trkpt>
      <trkpt lat="42.631178" lon="0.656685">
        <ele>3372.6</ele>
        <time>1970-01-01T05:07:46.000Z</time>
      </trkpt>
      <trkpt lat="42.631178" lon="0.656685">
        <ele>3372.6</ele>
        <time>1970-01-01T05:07:47.000Z</time>
      </trkpt>
      <trkpt lat="42.631181" lon="0.656683">
        <ele>3372.6</ele>
        <time>1970-01-01T05:07:48.000Z</time>
      </trkpt>
      <trkpt lat="42.631182" lon="0.656683">
        <ele>3372.6</ele>
        <time>1970-01-01T05:07:49.000Z</time>
      </trkpt>
      <trkpt lat="42.631183" lon="0.656683">
        <ele>3372.6</ele>
        <time>1970-01-01T05:07:50.000Z</time>
      </trkpt>
      <trkpt lat="42.631183" lon="0.656683">
        <ele>3372.6</ele>
        <time>1970-01-01T05:07:51.000Z</time>
      </trkpt>
      <trkpt lat="42.631183" lon="0.656683">
        <ele>3372.6</ele>
        <time>1970-01-01T05:07:52.000Z</time>
      </trkpt>
      <trkpt lat="42.631182" lon="0.656682">
        <ele>3372.6</ele>
        <time>1970-01-01T05:07:53.000Z</time>
      </trkpt>
      <trkpt lat="42.631182" lon="0.656682">
        <ele>3372.6</ele>
        <time>1970-01-01T05:07:54.000Z</time>
      </trkpt>
      <trkpt lat="42.631181" lon="0.656682">
        <ele>3372.6</ele>
        <time>1970-01-01T05:07:55.000Z</time>
      </trkpt>
      <trkpt lat="42.631181" lon="0.656682">
        <ele>3372.6</ele>
        <time>1970-01-01T05:07:56.000Z</time>
      </trkpt>
      <trkpt lat="42.631181" lon="0.656682">
        <ele>3372.6</ele>
        <time>1970-01-01T05:07:57.000Z</time>
      </trkpt>
      <trkpt lat="42.631182" lon="0.656683">
        <ele>3372.6</ele>
        <time>1970-01-01T05:07:58.000Z</time>
      </trkpt>
      <trkpt lat="42.631182" lon="0.656684">
        <ele>3372.6</ele>
        <time>1970-01-01T05:08:00.000Z</time>
      </trkpt>
      <trkpt lat="42.631182" lon="0.656684">
        <ele>3372.6</ele>
        <time>1970-01-01T05:08:01.000Z</time>
      </trkpt>
      <trkpt lat="42.631182" lon="0.656684">
        <ele>3372.6</ele>
        <time>1970-01-01T05:08:02.000Z</time>
      </trkpt>
      <trkpt lat="42.631181" lon="0.656685">
        <ele>3372.6</ele>
        <time>1970-01-01T05:08:03.000Z</time>
      </trkpt>
      <trkpt lat="42.631181" lon="0.656685">
        <ele>3372.6</ele>
        <time>1970-01-01T05:08:04.000Z</time>
      </trkpt>
      <trkpt lat="42.631181" lon="0.656685">
        <ele>3372.6</ele>
        <time>1970-01-01T05:08:05.000Z</time>
      </trkpt>
      <trkpt lat="42.631181" lon="0.656684">
        <ele>3372.6</ele>
        <time>1970-01-01T05:08:06.000Z</time>
      </trkpt>
      <trkpt lat="42.631182" lon="0.656682">
        <ele>3372.6</ele>
        <time>1970-01-01T05:08:07.000Z</time>
      </trkpt>
      <trkpt lat="42.631182" lon="0.656679">
        <ele>3372.6</ele>
        <time>1970-01-01T05:08:08.000Z</time>
      </trkpt>
      <trkpt lat="42.631182" lon="0.656674">
        <ele>3372.7</ele>
        <time>1970-01-01T05:08:10.000Z</time>
      </trkpt>
      <trkpt lat="42.631183" lon="0.65667">
        <ele>3372.7</ele>
        <time>1970-01-01T05:08:11.000Z</time>
      </trkpt>
      <trkpt lat="42.631183" lon="0.656669">
        <ele>3372.7</ele>
        <time>1970-01-01T05:08:13.000Z</time>
      </trkpt>
      <trkpt lat="42.631184" lon="0.656668">
        <ele>3372.7</ele>
        <time>1970-01-01T05:08:14.000Z</time>
      </trkpt>
      <trkpt lat="42.631183" lon="0.656668">
        <ele>3372.7</ele>
        <time>1970-01-01T05:08:15.000Z</time>
      </trkpt>
      <trkpt lat="42.631182" lon="0.656668">
        <ele>3372.7</ele>
        <time>1970-01-01T05:08:17.000Z</time>
      </trkpt>
      <trkpt lat="42.631181" lon="0.656669">
        <ele>3372.7</ele>
        <time>1970-01-01T05:08:18.000Z</time>
      </trkpt>
      <trkpt lat="42.63118" lon="0.65667">
        <ele>3372.7</ele>
        <time>1970-01-01T05:08:19.000Z</time>
      </trkpt>
      <trkpt lat="42.631177" lon="0.656672">
        <ele>3372.7</ele>
        <time>1970-01-01T05:08:20.000Z</time>
      </trkpt>
      <trkpt lat="42.631175" lon="0.656674">
        <ele>3372.7</ele>
        <time>1970-01-01T05:08:21.000Z</time>
      </trkpt>
      <trkpt lat="42.631172" lon="0.656674">
        <ele>3372.7</ele>
        <time>1970-01-01T05:08:22.000Z</time>
      </trkpt>
      <trkpt lat="42.631171" lon="0.656674">
        <ele>3372.7</ele>
        <time>1970-01-01T05:08:23.000Z</time>
      </trkpt>
      <trkpt lat="42.631167" lon="0.656673">
        <ele>3372.8</ele>
        <time>1970-01-01T05:08:24.000Z</time>
      </trkpt>
      <trkpt lat="42.631164" lon="0.656673">
        <ele>3372.8</ele>
        <time>1970-01-01T05:08:25.000Z</time>
      </trkpt>
      <trkpt lat="42.631162" lon="0.656672">
        <ele>3372.8</ele>
        <time>1970-01-01T05:08:26.000Z</time>
      </trkpt>
      <trkpt lat="42.63116" lon="0.656671">
        <ele>3372.8</ele>
        <time>1970-01-01T05:08:27.000Z</time>
      </trkpt>
      <trkpt lat="42.631158" lon="0.65667">
        <ele>3372.8</ele>
        <time>1970-01-01T05:08:28.000Z</time>
      </trkpt>
      <trkpt lat="42.631154" lon="0.656667">
        <ele>3372.8</ele>
        <time>1970-01-01T05:08:29.000Z</time>
      </trkpt>
      <trkpt lat="42.631149" lon="0.656665">
        <ele>3372.8</ele>
        <time>1970-01-01T05:08:30.000Z</time>
      </trkpt>
      <trkpt lat="42.631146" lon="0.656666">
        <ele>3372.9</ele>
        <time>1970-01-01T05:08:31.000Z</time>
      </trkpt>
      <trkpt lat="42.631144" lon="0.656669">
        <ele>3372.9</ele>
        <time>1970-01-01T05:08:33.000Z</time>
      </trkpt>
      <trkpt lat="42.631143" lon="0.65667">
        <ele>3372.9</ele>
        <time>1970-01-01T05:08:34.000Z</time>
      </trkpt>
      <trkpt lat="42.631141" lon="0.656671">
        <ele>3372.9</ele>
        <time>1970-01-01T05:08:35.000Z</time>
      </trkpt>
      <trkpt lat="42.63114" lon="0.656672">
        <ele>3372.9</ele>
        <time>1970-01-01T05:08:36.000Z</time>
      </trkpt>
      <trkpt lat="42.631139" lon="0.656672">
        <ele>3372.9</ele>
        <time>1970-01-01T05:08:37.000Z</time>
      </trkpt>
      <trkpt lat="42.631139" lon="0.656673">
        <ele>3372.9</ele>
        <time>1970-01-01T05:08:38.000Z</time>
      </trkpt>
      <trkpt lat="42.631139" lon="0.656675">
        <ele>3372.9</ele>
        <time>1970-01-01T05:08:39.000Z</time>
      </trkpt>
      <trkpt lat="42.63114" lon="0.656677">
        <ele>3372.9</ele>
        <time>1970-01-01T05:08:40.000Z</time>
      </trkpt>
      <trkpt lat="42.63114" lon="0.656679">
        <ele>3372.9</ele>
        <time>1970-01-01T05:08:41.000Z</time>
      </trkpt>
      <trkpt lat="42.631141" lon="0.656683">
        <ele>3372.9</ele>
        <time>1970-01-01T05:08:42.000Z</time>
      </trkpt>
      <trkpt lat="42.631143" lon="0.656684">
        <ele>3372.9</ele>
        <time>1970-01-01T05:08:43.000Z</time>
      </trkpt>
      <trkpt lat="42.631144" lon="0.656683">
        <ele>3372.9</ele>
        <time>1970-01-01T05:08:44.000Z</time>
      </trkpt>
      <trkpt lat="42.631146" lon="0.656682">
        <ele>3373</ele>
        <time>1970-01-01T05:08:45.000Z</time>
      </trkpt>
      <trkpt lat="42.631147" lon="0.656682">
        <ele>3373</ele>
        <time>1970-01-01T05:08:46.000Z</time>
      </trkpt>
      <trkpt lat="42.631148" lon="0.656682">
        <ele>3373</ele>
        <time>1970-01-01T05:08:47.000Z</time>
      </trkpt>
      <trkpt lat="42.631148" lon="0.656682">
        <ele>3373</ele>
        <time>1970-01-01T05:08:48.000Z</time>
      </trkpt>
      <trkpt lat="42.631149" lon="0.656683">
        <ele>3373</ele>
        <time>1970-01-01T05:08:49.000Z</time>
      </trkpt>
      <trkpt lat="42.63115" lon="0.656683">
        <ele>3373</ele>
        <time>1970-01-01T05:08:50.000Z</time>
      </trkpt>
      <trkpt lat="42.63115" lon="0.656682">
        <ele>3373</ele>
        <time>1970-01-01T05:08:51.000Z</time>
      </trkpt>
      <trkpt lat="42.63115" lon="0.656682">
        <ele>3373</ele>
        <time>1970-01-01T05:08:52.000Z</time>
      </trkpt>
      <trkpt lat="42.63115" lon="0.656683">
        <ele>3373</ele>
        <time>1970-01-01T05:08:53.000Z</time>
      </trkpt>
      <trkpt lat="42.63115" lon="0.656684">
        <ele>3373</ele>
        <time>1970-01-01T05:08:54.000Z</time>
      </trkpt>
      <trkpt lat="42.631149" lon="0.656684">
        <ele>3373</ele>
        <time>1970-01-01T05:08:55.000Z</time>
      </trkpt>
      <trkpt lat="42.631148" lon="0.656686">
        <ele>3373</ele>
        <time>1970-01-01T05:08:56.000Z</time>
      </trkpt>
      <trkpt lat="42.631151" lon="0.656686">
        <ele>3373</ele>
        <time>1970-01-01T05:08:57.000Z</time>
      </trkpt>
      <trkpt lat="42.631157" lon="0.656679">
        <ele>3373</ele>
        <time>1970-01-01T05:08:59.000Z</time>
      </trkpt>
      <trkpt lat="42.63116" lon="0.656673">
        <ele>3373.1</ele>
        <time>1970-01-01T05:09:00.000Z</time>
      </trkpt>
      <trkpt lat="42.631165" lon="0.656657">
        <ele>3373.1</ele>
        <time>1970-01-01T05:09:02.000Z</time>
      </trkpt>
      <trkpt lat="42.631167" lon="0.65665">
        <ele>3373.1</ele>
        <time>1970-01-01T05:09:03.000Z</time>
      </trkpt>
      <trkpt lat="42.63117" lon="0.656643">
        <ele>3373.2</ele>
        <time>1970-01-01T05:09:05.000Z</time>
      </trkpt>
      <trkpt lat="42.631173" lon="0.656639">
        <ele>3373.2</ele>
        <time>1970-01-01T05:09:06.000Z</time>
      </trkpt>
      <trkpt lat="42.631176" lon="0.656634">
        <ele>3373.2</ele>
        <time>1970-01-01T05:09:07.000Z</time>
      </trkpt>
      <trkpt lat="42.631179" lon="0.656633">
        <ele>3373.2</ele>
        <time>1970-01-01T05:09:08.000Z</time>
      </trkpt>
      <trkpt lat="42.631181" lon="0.656635">
        <ele>3373.2</ele>
        <time>1970-01-01T05:09:09.000Z</time>
      </trkpt>
      <trkpt lat="42.631183" lon="0.656634">
        <ele>3373.2</ele>
        <time>1970-01-01T05:09:10.000Z</time>
      </trkpt>
      <trkpt lat="42.631185" lon="0.656633">
        <ele>3373.3</ele>
        <time>1970-01-01T05:09:11.000Z</time>
      </trkpt>
      <trkpt lat="42.63119" lon="0.656637">
        <ele>3373.3</ele>
        <time>1970-01-01T05:09:12.000Z</time>
      </trkpt>
      <trkpt lat="42.631193" lon="0.656639">
        <ele>3373.3</ele>
        <time>1970-01-01T05:09:13.000Z</time>
      </trkpt>
      <trkpt lat="42.631194" lon="0.656642">
        <ele>3373.3</ele>
        <time>1970-01-01T05:09:14.000Z</time>
      </trkpt>
      <trkpt lat="42.631195" lon="0.656645">
        <ele>3373.3</ele>
        <time>1970-01-01T05:09:15.000Z</time>
      </trkpt>
      <trkpt lat="42.631196" lon="0.656646">
        <ele>3373.3</ele>
        <time>1970-01-01T05:09:16.000Z</time>
      </trkpt>
      <trkpt lat="42.631196" lon="0.656648">
        <ele>3373.3</ele>
        <time>1970-01-01T05:09:17.000Z</time>
      </trkpt>
      <trkpt lat="42.631196" lon="0.656648">
        <ele>3373.3</ele>
        <time>1970-01-01T05:09:18.000Z</time>
      </trkpt>
      <trkpt lat="42.631197" lon="0.656649">
        <ele>3373.3</ele>
        <time>1970-01-01T05:09:19.000Z</time>
      </trkpt>
      <trkpt lat="42.631197" lon="0.65665">
        <ele>3373.3</ele>
        <time>1970-01-01T05:09:20.000Z</time>
      </trkpt>
      <trkpt lat="42.631197" lon="0.656652">
        <ele>3373.3</ele>
        <time>1970-01-01T05:09:21.000Z</time>
      </trkpt>
      <trkpt lat="42.631197" lon="0.656652">
        <ele>3373.3</ele>
        <time>1970-01-01T05:09:22.000Z</time>
      </trkpt>
      <trkpt lat="42.631198" lon="0.656652">
        <ele>3373.3</ele>
        <time>1970-01-01T05:09:23.000Z</time>
      </trkpt>
      <trkpt lat="42.631198" lon="0.656651">
        <ele>3373.3</ele>
        <time>1970-01-01T05:09:24.000Z</time>
      </trkpt>
      <trkpt lat="42.631199" lon="0.656651">
        <ele>3373.4</ele>
        <time>1970-01-01T05:09:25.000Z</time>
      </trkpt>
      <trkpt lat="42.631199" lon="0.656651">
        <ele>3373.4</ele>
        <time>1970-01-01T05:09:26.000Z</time>
      </trkpt>
      <trkpt lat="42.6312" lon="0.656652">
        <ele>3373.4</ele>
        <time>1970-01-01T05:09:27.000Z</time>
      </trkpt>
      <trkpt lat="42.6312" lon="0.656653">
        <ele>3373.4</ele>
        <time>1970-01-01T05:09:28.000Z</time>
      </trkpt>
      <trkpt lat="42.631201" lon="0.656652">
        <ele>3373.4</ele>
        <time>1970-01-01T05:09:29.000Z</time>
      </trkpt>
      <trkpt lat="42.631203" lon="0.656652">
        <ele>3373.4</ele>
        <time>1970-01-01T05:09:30.000Z</time>
      </trkpt>
      <trkpt lat="42.631205" lon="0.656653">
        <ele>3373.4</ele>
        <time>1970-01-01T05:09:31.000Z</time>
      </trkpt>
      <trkpt lat="42.631205" lon="0.656653">
        <ele>3373.4</ele>
        <time>1970-01-01T05:09:32.000Z</time>
      </trkpt>
      <trkpt lat="42.631202" lon="0.65665">
        <ele>3373.4</ele>
        <time>1970-01-01T05:09:33.000Z</time>
      </trkpt>
      <trkpt lat="42.631198" lon="0.656648">
        <ele>3373.4</ele>
        <time>1970-01-01T05:09:34.000Z</time>
      </trkpt>
      <trkpt lat="42.631192" lon="0.656648">
        <ele>3373.4</ele>
        <time>1970-01-01T05:09:36.000Z</time>
      </trkpt>
      <trkpt lat="42.631188" lon="0.656649">
        <ele>3373.5</ele>
        <time>1970-01-01T05:09:37.000Z</time>
      </trkpt>
      <trkpt lat="42.631187" lon="0.656649">
        <ele>3373.5</ele>
        <time>1970-01-01T05:09:38.000Z</time>
      </trkpt>
      <trkpt lat="42.631185" lon="0.656649">
        <ele>3373.5</ele>
        <time>1970-01-01T05:09:39.000Z</time>
      </trkpt>
      <trkpt lat="42.631183" lon="0.65665">
        <ele>3373.5</ele>
        <time>1970-01-01T05:09:40.000Z</time>
      </trkpt>
      <trkpt lat="42.631182" lon="0.65665">
        <ele>3373.5</ele>
        <time>1970-01-01T05:09:41.000Z</time>
      </trkpt>
      <trkpt lat="42.63118" lon="0.656649">
        <ele>3373.5</ele>
        <time>1970-01-01T05:09:42.000Z</time>
      </trkpt>
      <trkpt lat="42.631179" lon="0.656649">
        <ele>3373.5</ele>
        <time>1970-01-01T05:09:43.000Z</time>
      </trkpt>
      <trkpt lat="42.631178" lon="0.656649">
        <ele>3373.5</ele>
        <time>1970-01-01T05:09:44.000Z</time>
      </trkpt>
      <trkpt lat="42.631178" lon="0.656649">
        <ele>3373.5</ele>
        <time>1970-01-01T05:09:46.000Z</time>
      </trkpt>
      <trkpt lat="42.631178" lon="0.656649">
        <ele>3373.5</ele>
        <time>1970-01-01T05:09:47.000Z</time>
      </trkpt>
      <trkpt lat="42.631177" lon="0.656649">
        <ele>3373.5</ele>
        <time>1970-01-01T05:09:48.000Z</time>
      </trkpt>
      <trkpt lat="42.631177" lon="0.656649">
        <ele>3373.5</ele>
        <time>1970-01-01T05:09:49.000Z</time>
      </trkpt>
      <trkpt lat="42.631177" lon="0.656648">
        <ele>3373.5</ele>
        <time>1970-01-01T05:09:50.000Z</time>
      </trkpt>
      <trkpt lat="42.631177" lon="0.656647">
        <ele>3373.5</ele>
        <time>1970-01-01T05:09:51.000Z</time>
      </trkpt>
      <trkpt lat="42.631177" lon="0.656646">
        <ele>3373.5</ele>
        <time>1970-01-01T05:09:52.000Z</time>
      </trkpt>
      <trkpt lat="42.631176" lon="0.656645">
        <ele>3373.5</ele>
        <time>1970-01-01T05:09:53.000Z</time>
      </trkpt>
      <trkpt lat="42.631176" lon="0.656645">
        <ele>3373.5</ele>
        <time>1970-01-01T05:09:54.000Z</time>
      </trkpt>
      <trkpt lat="42.631175" lon="0.656644">
        <ele>3373.5</ele>
        <time>1970-01-01T05:09:55.000Z</time>
      </trkpt>
      <trkpt lat="42.631174" lon="0.656644">
        <ele>3373.5</ele>
        <time>1970-01-01T05:09:57.000Z</time>
      </trkpt>
      <trkpt lat="42.631174" lon="0.656642">
        <ele>3373.5</ele>
        <time>1970-01-01T05:09:58.000Z</time>
      </trkpt>
      <trkpt lat="42.631175" lon="0.65664">
        <ele>3373.5</ele>
        <time>1970-01-01T05:09:59.000Z</time>
      </trkpt>
      <trkpt lat="42.631175" lon="0.656639">
        <ele>3373.6</ele>
        <time>1970-01-01T05:10:00.000Z</time>
      </trkpt>
      <trkpt lat="42.631175" lon="0.656638">
        <ele>3373.6</ele>
        <time>1970-01-01T05:10:01.000Z</time>
      </trkpt>
      <trkpt lat="42.631176" lon="0.656637">
        <ele>3373.6</ele>
        <time>1970-01-01T05:10:02.000Z</time>
      </trkpt>
      <trkpt lat="42.631176" lon="0.656636">
        <ele>3373.6</ele>
        <time>1970-01-01T05:10:03.000Z</time>
      </trkpt>
      <trkpt lat="42.631176" lon="0.656635">
        <ele>3373.6</ele>
        <time>1970-01-01T05:10:04.000Z</time>
      </trkpt>
      <trkpt lat="42.631178" lon="0.656634">
        <ele>3373.6</ele>
        <time>1970-01-01T05:10:05.000Z</time>
      </trkpt>
      <trkpt lat="42.631175" lon="0.656635">
        <ele>3373.6</ele>
        <time>1970-01-01T05:10:06.000Z</time>
      </trkpt>
      <trkpt lat="42.63117" lon="0.656638">
        <ele>3373.6</ele>
        <time>1970-01-01T05:10:07.000Z</time>
      </trkpt>
      <trkpt lat="42.631168" lon="0.656643">
        <ele>3373.6</ele>
        <time>1970-01-01T05:10:08.000Z</time>
      </trkpt>
      <trkpt lat="42.631171" lon="0.65664">
        <ele>3373.6</ele>
        <time>1970-01-01T05:10:09.000Z</time>
      </trkpt>
      <trkpt lat="42.631171" lon="0.656639">
        <ele>3373.7</ele>
        <time>1970-01-01T05:10:10.000Z</time>
      </trkpt>
      <trkpt lat="42.631169" lon="0.656642">
        <ele>3373.7</ele>
        <time>1970-01-01T05:10:11.000Z</time>
      </trkpt>
      <trkpt lat="42.631168" lon="0.656643">
        <ele>3373.7</ele>
        <time>1970-01-01T05:10:12.000Z</time>
      </trkpt>
      <trkpt lat="42.631166" lon="0.656643">
        <ele>3373.7</ele>
        <time>1970-01-01T05:10:14.000Z</time>
      </trkpt>
      <trkpt lat="42.631161" lon="0.656644">
        <ele>3373.7</ele>
        <time>1970-01-01T05:10:15.000Z</time>
      </trkpt>
      <trkpt lat="42.631157" lon="0.656649">
        <ele>3373.7</ele>
        <time>1970-01-01T05:10:17.000Z</time>
      </trkpt>
      <trkpt lat="42.631155" lon="0.656651">
        <ele>3373.7</ele>
        <time>1970-01-01T05:10:18.000Z</time>
      </trkpt>
      <trkpt lat="42.631153" lon="0.656653">
        <ele>3373.7</ele>
        <time>1970-01-01T05:10:20.000Z</time>
      </trkpt>
      <trkpt lat="42.631151" lon="0.656655">
        <ele>3373.8</ele>
        <time>1970-01-01T05:10:22.000Z</time>
      </trkpt>
      <trkpt lat="42.63115" lon="0.656656">
        <ele>3373.8</ele>
        <time>1970-01-01T05:10:23.000Z</time>
      </trkpt>
      <trkpt lat="42.631149" lon="0.656657">
        <ele>3373.8</ele>
        <time>1970-01-01T05:10:24.000Z</time>
      </trkpt>
      <trkpt lat="42.631148" lon="0.656657">
        <ele>3373.8</ele>
        <time>1970-01-01T05:10:25.000Z</time>
      </trkpt>
      <trkpt lat="42.631148" lon="0.656657">
        <ele>3373.8</ele>
        <time>1970-01-01T05:10:26.000Z</time>
      </trkpt>
      <trkpt lat="42.631147" lon="0.656657">
        <ele>3373.8</ele>
        <time>1970-01-01T05:10:27.000Z</time>
      </trkpt>
      <trkpt lat="42.631146" lon="0.656656">
        <ele>3373.8</ele>
        <time>1970-01-01T05:10:28.000Z</time>
      </trkpt>
      <trkpt lat="42.631146" lon="0.656656">
        <ele>3373.8</ele>
        <time>1970-01-01T05:10:29.000Z</time>
      </trkpt>
      <trkpt lat="42.631146" lon="0.656656">
        <ele>3373.8</ele>
        <time>1970-01-01T05:10:30.000Z</time>
      </trkpt>
      <trkpt lat="42.631146" lon="0.656657">
        <ele>3373.8</ele>
        <time>1970-01-01T05:10:31.000Z</time>
      </trkpt>
      <trkpt lat="42.631146" lon="0.656657">
        <ele>3373.8</ele>
        <time>1970-01-01T05:10:32.000Z</time>
      </trkpt>
      <trkpt lat="42.631146" lon="0.656658">
        <ele>3373.8</ele>
        <time>1970-01-01T05:10:33.000Z</time>
      </trkpt>
      <trkpt lat="42.631147" lon="0.656659">
        <ele>3373.8</ele>
        <time>1970-01-01T05:10:34.000Z</time>
      </trkpt>
      <trkpt lat="42.631147" lon="0.65666">
        <ele>3373.8</ele>
        <time>1970-01-01T05:10:35.000Z</time>
      </trkpt>
      <trkpt lat="42.631148" lon="0.656663">
        <ele>3373.8</ele>
        <time>1970-01-01T05:10:36.000Z</time>
      </trkpt>
      <trkpt lat="42.631147" lon="0.656664">
        <ele>3373.8</ele>
        <time>1970-01-01T05:10:37.000Z</time>
      </trkpt>
      <trkpt lat="42.631144" lon="0.656664">
        <ele>3373.8</ele>
        <time>1970-01-01T05:10:38.000Z</time>
      </trkpt>
      <trkpt lat="42.631139" lon="0.65667">
        <ele>3373.9</ele>
        <time>1970-01-01T05:10:40.000Z</time>
      </trkpt>
      <trkpt lat="42.631138" lon="0.656673">
        <ele>3373.9</ele>
        <time>1970-01-01T05:10:41.000Z</time>
      </trkpt>
      <trkpt lat="42.631136" lon="0.656675">
        <ele>3373.9</ele>
        <time>1970-01-01T05:10:42.000Z</time>
      </trkpt>
      <trkpt lat="42.631134" lon="0.656676">
        <ele>3373.9</ele>
        <time>1970-01-01T05:10:43.000Z</time>
      </trkpt>
      <trkpt lat="42.631134" lon="0.656676">
        <ele>3373.9</ele>
        <time>1970-01-01T05:10:44.000Z</time>
      </trkpt>
      <trkpt lat="42.631133" lon="0.656673">
        <ele>3373.9</ele>
        <time>1970-01-01T05:10:45.000Z</time>
      </trkpt>
      <trkpt lat="42.631132" lon="0.65667">
        <ele>3373.9</ele>
        <time>1970-01-01T05:10:47.000Z</time>
      </trkpt>
      <trkpt lat="42.631132" lon="0.656669">
        <ele>3373.9</ele>
        <time>1970-01-01T05:10:48.000Z</time>
      </trkpt>
      <trkpt lat="42.631131" lon="0.656668">
        <ele>3373.9</ele>
        <time>1970-01-01T05:10:49.000Z</time>
      </trkpt>
      <trkpt lat="42.631131" lon="0.656667">
        <ele>3373.9</ele>
        <time>1970-01-01T05:10:50.000Z</time>
      </trkpt>
      <trkpt lat="42.63113" lon="0.656666">
        <ele>3373.9</ele>
        <time>1970-01-01T05:10:51.000Z</time>
      </trkpt>
      <trkpt lat="42.63113" lon="0.656666">
        <ele>3373.9</ele>
        <time>1970-01-01T05:10:52.000Z</time>
      </trkpt>
      <trkpt lat="42.631129" lon="0.656666">
        <ele>3373.9</ele>
        <time>1970-01-01T05:10:53.000Z</time>
      </trkpt>
      <trkpt lat="42.631129" lon="0.656666">
        <ele>3373.9</ele>
        <time>1970-01-01T05:10:54.000Z</time>
      </trkpt>
      <trkpt lat="42.631129" lon="0.656666">
        <ele>3373.9</ele>
        <time>1970-01-01T05:10:55.000Z</time>
      </trkpt>
      <trkpt lat="42.631129" lon="0.656666">
        <ele>3373.9</ele>
        <time>1970-01-01T05:10:57.000Z</time>
      </trkpt>
      <trkpt lat="42.631129" lon="0.656666">
        <ele>3373.9</ele>
        <time>1970-01-01T05:10:58.000Z</time>
      </trkpt>
      <trkpt lat="42.63113" lon="0.656667">
        <ele>3373.9</ele>
        <time>1970-01-01T05:11:00.000Z</time>
      </trkpt>
      <trkpt lat="42.63113" lon="0.656668">
        <ele>3373.9</ele>
        <time>1970-01-01T05:11:01.000Z</time>
      </trkpt>
      <trkpt lat="42.631129" lon="0.656668">
        <ele>3373.9</ele>
        <time>1970-01-01T05:11:02.000Z</time>
      </trkpt>
      <trkpt lat="42.631129" lon="0.656668">
        <ele>3373.9</ele>
        <time>1970-01-01T05:11:03.000Z</time>
      </trkpt>
      <trkpt lat="42.631129" lon="0.656668">
        <ele>3373.9</ele>
        <time>1970-01-01T05:11:04.000Z</time>
      </trkpt>
      <trkpt lat="42.631129" lon="0.656669">
        <ele>3373.9</ele>
        <time>1970-01-01T05:11:05.000Z</time>
      </trkpt>
      <trkpt lat="42.63113" lon="0.656669">
        <ele>3373.9</ele>
        <time>1970-01-01T05:11:06.000Z</time>
      </trkpt>
      <trkpt lat="42.63113" lon="0.65667">
        <ele>3374</ele>
        <time>1970-01-01T05:11:07.000Z</time>
      </trkpt>
      <trkpt lat="42.63113" lon="0.65667">
        <ele>3374</ele>
        <time>1970-01-01T05:11:08.000Z</time>
      </trkpt>
      <trkpt lat="42.63113" lon="0.65667">
        <ele>3374</ele>
        <time>1970-01-01T05:11:09.000Z</time>
      </trkpt>
      <trkpt lat="42.631129" lon="0.65667">
        <ele>3374</ele>
        <time>1970-01-01T05:11:10.000Z</time>
      </trkpt>
      <trkpt lat="42.631129" lon="0.65667">
        <ele>3374</ele>
        <time>1970-01-01T05:11:11.000Z</time>
      </trkpt>
      <trkpt lat="42.63113" lon="0.656671">
        <ele>3374</ele>
        <time>1970-01-01T05:11:13.000Z</time>
      </trkpt>
      <trkpt lat="42.63113" lon="0.65667">
        <ele>3374</ele>
        <time>1970-01-01T05:11:14.000Z</time>
      </trkpt>
      <trkpt lat="42.63113" lon="0.65667">
        <ele>3374</ele>
        <time>1970-01-01T05:11:15.000Z</time>
      </trkpt>
      <trkpt lat="42.631131" lon="0.65667">
        <ele>3374</ele>
        <time>1970-01-01T05:11:16.000Z</time>
      </trkpt>
      <trkpt lat="42.63113" lon="0.656671">
        <ele>3374</ele>
        <time>1970-01-01T05:11:17.000Z</time>
      </trkpt>
      <trkpt lat="42.63113" lon="0.656672">
        <ele>3374</ele>
        <time>1970-01-01T05:11:18.000Z</time>
      </trkpt>
      <trkpt lat="42.631129" lon="0.656672">
        <ele>3374</ele>
        <time>1970-01-01T05:11:19.000Z</time>
      </trkpt>
      <trkpt lat="42.631128" lon="0.656673">
        <ele>3374</ele>
        <time>1970-01-01T05:11:21.000Z</time>
      </trkpt>
      <trkpt lat="42.631128" lon="0.656672">
        <ele>3374</ele>
        <time>1970-01-01T05:11:22.000Z</time>
      </trkpt>
      <trkpt lat="42.631128" lon="0.656672">
        <ele>3374</ele>
        <time>1970-01-01T05:11:23.000Z</time>
      </trkpt>
      <trkpt lat="42.631128" lon="0.656673">
        <ele>3374</ele>
        <time>1970-01-01T05:11:24.000Z</time>
      </trkpt>
      <trkpt lat="42.631128" lon="0.656672">
        <ele>3374</ele>
        <time>1970-01-01T05:11:25.000Z</time>
      </trkpt>
      <trkpt lat="42.631128" lon="0.656672">
        <ele>3374</ele>
        <time>1970-01-01T05:11:26.000Z</time>
      </trkpt>
      <trkpt lat="42.631127" lon="0.656672">
        <ele>3374</ele>
        <time>1970-01-01T05:11:27.000Z</time>
      </trkpt>
      <trkpt lat="42.631126" lon="0.656672">
        <ele>3374</ele>
        <time>1970-01-01T05:11:28.000Z</time>
      </trkpt>
      <trkpt lat="42.631126" lon="0.656672">
        <ele>3374</ele>
        <time>1970-01-01T05:11:29.000Z</time>
      </trkpt>
      <trkpt lat="42.631125" lon="0.656673">
        <ele>3374</ele>
        <time>1970-01-01T05:11:30.000Z</time>
      </trkpt>
      <trkpt lat="42.631124" lon="0.656673">
        <ele>3374</ele>
        <time>1970-01-01T05:11:31.000Z</time>
      </trkpt>
      <trkpt lat="42.631124" lon="0.656672">
        <ele>3374</ele>
        <time>1970-01-01T05:11:32.000Z</time>
      </trkpt>
      <trkpt lat="42.631125" lon="0.656672">
        <ele>3374</ele>
        <time>1970-01-01T05:11:33.000Z</time>
      </trkpt>
      <trkpt lat="42.631125" lon="0.656671">
        <ele>3374</ele>
        <time>1970-01-01T05:11:34.000Z</time>
      </trkpt>
      <trkpt lat="42.631126" lon="0.65667">
        <ele>3374</ele>
        <time>1970-01-01T05:11:35.000Z</time>
      </trkpt>
      <trkpt lat="42.631126" lon="0.656669">
        <ele>3374</ele>
        <time>1970-01-01T05:11:36.000Z</time>
      </trkpt>
      <trkpt lat="42.631126" lon="0.656667">
        <ele>3374</ele>
        <time>1970-01-01T05:11:37.000Z</time>
      </trkpt>
      <trkpt lat="42.631126" lon="0.656665">
        <ele>3374</ele>
        <time>1970-01-01T05:11:39.000Z</time>
      </trkpt>
      <trkpt lat="42.631126" lon="0.656663">
        <ele>3374.1</ele>
        <time>1970-01-01T05:11:40.000Z</time>
      </trkpt>
      <trkpt lat="42.631126" lon="0.656658">
        <ele>3374.1</ele>
        <time>1970-01-01T05:11:42.000Z</time>
      </trkpt>
      <trkpt lat="42.631126" lon="0.656657">
        <ele>3374.1</ele>
        <time>1970-01-01T05:11:43.000Z</time>
      </trkpt>
      <trkpt lat="42.631126" lon="0.656657">
        <ele>3374.1</ele>
        <time>1970-01-01T05:11:44.000Z</time>
      </trkpt>
      <trkpt lat="42.631125" lon="0.656656">
        <ele>3374.1</ele>
        <time>1970-01-01T05:11:45.000Z</time>
      </trkpt>
      <trkpt lat="42.631124" lon="0.656655">
        <ele>3374.1</ele>
        <time>1970-01-01T05:11:46.000Z</time>
      </trkpt>
      <trkpt lat="42.631123" lon="0.656655">
        <ele>3374.1</ele>
        <time>1970-01-01T05:11:47.000Z</time>
      </trkpt>
      <trkpt lat="42.631123" lon="0.656654">
        <ele>3374.1</ele>
        <time>1970-01-01T05:11:48.000Z</time>
      </trkpt>
      <trkpt lat="42.631122" lon="0.656654">
        <ele>3374.1</ele>
        <time>1970-01-01T05:11:49.000Z</time>
      </trkpt>
      <trkpt lat="42.631122" lon="0.656655">
        <ele>3374.1</ele>
        <time>1970-01-01T05:11:50.000Z</time>
      </trkpt>
      <trkpt lat="42.631123" lon="0.656654">
        <ele>3374.1</ele>
        <time>1970-01-01T05:11:51.000Z</time>
      </trkpt>
      <trkpt lat="42.631122" lon="0.656652">
        <ele>3374.1</ele>
        <time>1970-01-01T05:11:52.000Z</time>
      </trkpt>
      <trkpt lat="42.631122" lon="0.656654">
        <ele>3374.1</ele>
        <time>1970-01-01T05:11:53.000Z</time>
      </trkpt>
      <trkpt lat="42.631122" lon="0.656657">
        <ele>3374.1</ele>
        <time>1970-01-01T05:11:55.000Z</time>
      </trkpt>
      <trkpt lat="42.631123" lon="0.656658">
        <ele>3374.1</ele>
        <time>1970-01-01T05:11:56.000Z</time>
      </trkpt>
      <trkpt lat="42.631124" lon="0.656658">
        <ele>3374.1</ele>
        <time>1970-01-01T05:11:57.000Z</time>
      </trkpt>
      <trkpt lat="42.631126" lon="0.656658">
        <ele>3374.1</ele>
        <time>1970-01-01T05:11:58.000Z</time>
      </trkpt>
      <trkpt lat="42.631128" lon="0.656659">
        <ele>3374.2</ele>
        <time>1970-01-01T05:11:59.000Z</time>
      </trkpt>
      <trkpt lat="42.631129" lon="0.656659">
        <ele>3374.2</ele>
        <time>1970-01-01T05:12:00.000Z</time>
      </trkpt>
      <trkpt lat="42.63113" lon="0.656659">
        <ele>3374.2</ele>
        <time>1970-01-01T05:12:01.000Z</time>
      </trkpt>
      <trkpt lat="42.631132" lon="0.656658">
        <ele>3374.2</ele>
        <time>1970-01-01T05:12:02.000Z</time>
      </trkpt>
      <trkpt lat="42.631131" lon="0.656657">
        <ele>3374.2</ele>
        <time>1970-01-01T05:12:03.000Z</time>
      </trkpt>
      <trkpt lat="42.631131" lon="0.656657">
        <ele>3374.2</ele>
        <time>1970-01-01T05:12:04.000Z</time>
      </trkpt>
      <trkpt lat="42.631131" lon="0.656656">
        <ele>3374.2</ele>
        <time>1970-01-01T05:12:05.000Z</time>
      </trkpt>
      <trkpt lat="42.63113" lon="0.656656">
        <ele>3374.2</ele>
        <time>1970-01-01T05:12:06.000Z</time>
      </trkpt>
      <trkpt lat="42.63113" lon="0.656656">
        <ele>3374.2</ele>
        <time>1970-01-01T05:12:07.000Z</time>
      </trkpt>
      <trkpt lat="42.63113" lon="0.656656">
        <ele>3374.2</ele>
        <time>1970-01-01T05:12:08.000Z</time>
      </trkpt>
      <trkpt lat="42.631129" lon="0.656656">
        <ele>3374.2</ele>
        <time>1970-01-01T05:12:09.000Z</time>
      </trkpt>
      <trkpt lat="42.631129" lon="0.656656">
        <ele>3374.2</ele>
        <time>1970-01-01T05:12:10.000Z</time>
      </trkpt>
      <trkpt lat="42.631128" lon="0.656657">
        <ele>3374.2</ele>
        <time>1970-01-01T05:12:11.000Z</time>
      </trkpt>
      <trkpt lat="42.631128" lon="0.656657">
        <ele>3374.2</ele>
        <time>1970-01-01T05:12:12.000Z</time>
      </trkpt>
      <trkpt lat="42.631127" lon="0.656656">
        <ele>3374.2</ele>
        <time>1970-01-01T05:12:13.000Z</time>
      </trkpt>
      <trkpt lat="42.631127" lon="0.656656">
        <ele>3374.2</ele>
        <time>1970-01-01T05:12:14.000Z</time>
      </trkpt>
      <trkpt lat="42.631128" lon="0.656655">
        <ele>3374.2</ele>
        <time>1970-01-01T05:12:15.000Z</time>
      </trkpt>
      <trkpt lat="42.631127" lon="0.656656">
        <ele>3374.2</ele>
        <time>1970-01-01T05:12:16.000Z</time>
      </trkpt>
      <trkpt lat="42.631127" lon="0.656656">
        <ele>3374.2</ele>
        <time>1970-01-01T05:12:17.000Z</time>
      </trkpt>
      <trkpt lat="42.631128" lon="0.656654">
        <ele>3374.2</ele>
        <time>1970-01-01T05:12:18.000Z</time>
      </trkpt>
      <trkpt lat="42.631129" lon="0.656653">
        <ele>3374.2</ele>
        <time>1970-01-01T05:12:19.000Z</time>
      </trkpt>
      <trkpt lat="42.631129" lon="0.656652">
        <ele>3374.2</ele>
        <time>1970-01-01T05:12:20.000Z</time>
      </trkpt>
      <trkpt lat="42.631128" lon="0.656652">
        <ele>3374.2</ele>
        <time>1970-01-01T05:12:21.000Z</time>
      </trkpt>
      <trkpt lat="42.631127" lon="0.656652">
        <ele>3374.2</ele>
        <time>1970-01-01T05:12:22.000Z</time>
      </trkpt>
      <trkpt lat="42.631126" lon="0.656654">
        <ele>3374.2</ele>
        <time>1970-01-01T05:12:23.000Z</time>
      </trkpt>
      <trkpt lat="42.631125" lon="0.656655">
        <ele>3374.3</ele>
        <time>1970-01-01T05:12:24.000Z</time>
      </trkpt>
      <trkpt lat="42.631124" lon="0.656655">
        <ele>3374.3</ele>
        <time>1970-01-01T05:12:25.000Z</time>
      </trkpt>
      <trkpt lat="42.631124" lon="0.656656">
        <ele>3374.3</ele>
        <time>1970-01-01T05:12:26.000Z</time>
      </trkpt>
      <trkpt lat="42.631123" lon="0.656656">
        <ele>3374.3</ele>
        <time>1970-01-01T05:12:27.000Z</time>
      </trkpt>
      <trkpt lat="42.631123" lon="0.656656">
        <ele>3374.3</ele>
        <time>1970-01-01T05:12:28.000Z</time>
      </trkpt>
      <trkpt lat="42.631123" lon="0.656656">
        <ele>3374.3</ele>
        <time>1970-01-01T05:12:29.000Z</time>
      </trkpt>
      <trkpt lat="42.631123" lon="0.656656">
        <ele>3374.3</ele>
        <time>1970-01-01T05:12:30.000Z</time>
      </trkpt>
      <trkpt lat="42.631123" lon="0.656656">
        <ele>3374.3</ele>
        <time>1970-01-01T05:12:31.000Z</time>
      </trkpt>
      <trkpt lat="42.631123" lon="0.656656">
        <ele>3374.3</ele>
        <time>1970-01-01T05:12:32.000Z</time>
      </trkpt>
      <trkpt lat="42.631123" lon="0.656656">
        <ele>3374.3</ele>
        <time>1970-01-01T05:12:33.000Z</time>
      </trkpt>
      <trkpt lat="42.631123" lon="0.656656">
        <ele>3374.3</ele>
        <time>1970-01-01T05:12:34.000Z</time>
      </trkpt>
      <trkpt lat="42.631123" lon="0.656656">
        <ele>3374.3</ele>
        <time>1970-01-01T05:12:35.000Z</time>
      </trkpt>
      <trkpt lat="42.631123" lon="0.656656">
        <ele>3374.3</ele>
        <time>1970-01-01T05:12:36.000Z</time>
      </trkpt>
      <trkpt lat="42.631124" lon="0.656655">
        <ele>3374.3</ele>
        <time>1970-01-01T05:12:37.000Z</time>
      </trkpt>
      <trkpt lat="42.631125" lon="0.656653">
        <ele>3374.3</ele>
        <time>1970-01-01T05:12:38.000Z</time>
      </trkpt>
      <trkpt lat="42.631126" lon="0.656652">
        <ele>3374.3</ele>
        <time>1970-01-01T05:12:39.000Z</time>
      </trkpt>
      <trkpt lat="42.631126" lon="0.656652">
        <ele>3374.3</ele>
        <time>1970-01-01T05:12:40.000Z</time>
      </trkpt>
      <trkpt lat="42.631126" lon="0.656652">
        <ele>3374.3</ele>
        <time>1970-01-01T05:12:41.000Z</time>
      </trkpt>
      <trkpt lat="42.631126" lon="0.656652">
        <ele>3374.3</ele>
        <time>1970-01-01T05:12:42.000Z</time>
      </trkpt>
      <trkpt lat="42.631125" lon="0.656654">
        <ele>3374.3</ele>
        <time>1970-01-01T05:12:43.000Z</time>
      </trkpt>
      <trkpt lat="42.631123" lon="0.656655">
        <ele>3374.3</ele>
        <time>1970-01-01T05:12:44.000Z</time>
      </trkpt>
      <trkpt lat="42.631122" lon="0.656655">
        <ele>3374.3</ele>
        <time>1970-01-01T05:12:45.000Z</time>
      </trkpt>
      <trkpt lat="42.631122" lon="0.656655">
        <ele>3374.3</ele>
        <time>1970-01-01T05:12:46.000Z</time>
      </trkpt>
      <trkpt lat="42.63112" lon="0.656656">
        <ele>3374.3</ele>
        <time>1970-01-01T05:12:47.000Z</time>
      </trkpt>
      <trkpt lat="42.631119" lon="0.656659">
        <ele>3374.3</ele>
        <time>1970-01-01T05:12:48.000Z</time>
      </trkpt>
      <trkpt lat="42.631117" lon="0.656662">
        <ele>3374.3</ele>
        <time>1970-01-01T05:12:49.000Z</time>
      </trkpt>
      <trkpt lat="42.631117" lon="0.656665">
        <ele>3374.3</ele>
        <time>1970-01-01T05:12:50.000Z</time>
      </trkpt>
      <trkpt lat="42.631117" lon="0.656667">
        <ele>3374.4</ele>
        <time>1970-01-01T05:12:51.000Z</time>
      </trkpt>
      <trkpt lat="42.631117" lon="0.656667">
        <ele>3374.4</ele>
        <time>1970-01-01T05:12:52.000Z</time>
      </trkpt>
      <trkpt lat="42.631117" lon="0.656667">
        <ele>3374.4</ele>
        <time>1970-01-01T05:12:53.000Z</time>
      </trkpt>
      <trkpt lat="42.631117" lon="0.656667">
        <ele>3374.4</ele>
        <time>1970-01-01T05:12:54.000Z</time>
      </trkpt>
      <trkpt lat="42.631118" lon="0.656666">
        <ele>3374.4</ele>
        <time>1970-01-01T05:12:55.000Z</time>
      </trkpt>
      <trkpt lat="42.631118" lon="0.656666">
        <ele>3374.4</ele>
        <time>1970-01-01T05:12:56.000Z</time>
      </trkpt>
      <trkpt lat="42.631118" lon="0.656666">
        <ele>3374.4</ele>
        <time>1970-01-01T05:12:57.000Z</time>
      </trkpt>
      <trkpt lat="42.631118" lon="0.656666">
        <ele>3374.4</ele>
        <time>1970-01-01T05:12:58.000Z</time>
      </trkpt>
      <trkpt lat="42.631118" lon="0.656666">
        <ele>3374.4</ele>
        <time>1970-01-01T05:12:59.000Z</time>
      </trkpt>
      <trkpt lat="42.631121" lon="0.656667">
        <ele>3374.4</ele>
        <time>1970-01-01T05:13:00.000Z</time>
      </trkpt>
      <trkpt lat="42.631123" lon="0.656669">
        <ele>3374.4</ele>
        <time>1970-01-01T05:13:01.000Z</time>
      </trkpt>
      <trkpt lat="42.631125" lon="0.65667">
        <ele>3374.4</ele>
        <time>1970-01-01T05:13:02.000Z</time>
      </trkpt>
      <trkpt lat="42.631125" lon="0.65667">
        <ele>3374.4</ele>
        <time>1970-01-01T05:13:03.000Z</time>
      </trkpt>
      <trkpt lat="42.631124" lon="0.656669">
        <ele>3374.4</ele>
        <time>1970-01-01T05:13:04.000Z</time>
      </trkpt>
      <trkpt lat="42.631123" lon="0.656669">
        <ele>3374.4</ele>
        <time>1970-01-01T05:13:05.000Z</time>
      </trkpt>
      <trkpt lat="42.631122" lon="0.656669">
        <ele>3374.4</ele>
        <time>1970-01-01T05:13:06.000Z</time>
      </trkpt>
      <trkpt lat="42.631121" lon="0.656668">
        <ele>3374.4</ele>
        <time>1970-01-01T05:13:07.000Z</time>
      </trkpt>
      <trkpt lat="42.631121" lon="0.656668">
        <ele>3374.4</ele>
        <time>1970-01-01T05:13:08.000Z</time>
      </trkpt>
      <trkpt lat="42.631121" lon="0.656668">
        <ele>3374.4</ele>
        <time>1970-01-01T05:13:09.000Z</time>
      </trkpt>
      <trkpt lat="42.631122" lon="0.656667">
        <ele>3374.4</ele>
        <time>1970-01-01T05:13:10.000Z</time>
      </trkpt>
      <trkpt lat="42.631122" lon="0.656667">
        <ele>3374.4</ele>
        <time>1970-01-01T05:13:11.000Z</time>
      </trkpt>
      <trkpt lat="42.631122" lon="0.656666">
        <ele>3374.4</ele>
        <time>1970-01-01T05:13:12.000Z</time>
      </trkpt>
      <trkpt lat="42.631123" lon="0.656664">
        <ele>3374.4</ele>
        <time>1970-01-01T05:13:14.000Z</time>
      </trkpt>
      <trkpt lat="42.631123" lon="0.656663">
        <ele>3374.4</ele>
        <time>1970-01-01T05:13:15.000Z</time>
      </trkpt>
      <trkpt lat="42.631123" lon="0.656663">
        <ele>3374.4</ele>
        <time>1970-01-01T05:13:16.000Z</time>
      </trkpt>
      <trkpt lat="42.631124" lon="0.656663">
        <ele>3374.4</ele>
        <time>1970-01-01T05:13:17.000Z</time>
      </trkpt>
      <trkpt lat="42.631124" lon="0.656663">
        <ele>3374.4</ele>
        <time>1970-01-01T05:13:18.000Z</time>
      </trkpt>
      <trkpt lat="42.631124" lon="0.656663">
        <ele>3374.4</ele>
        <time>1970-01-01T05:13:19.000Z</time>
      </trkpt>
      <trkpt lat="42.631125" lon="0.656663">
        <ele>3374.4</ele>
        <time>1970-01-01T05:13:20.000Z</time>
      </trkpt>
      <trkpt lat="42.631126" lon="0.656663">
        <ele>3374.4</ele>
        <time>1970-01-01T05:13:21.000Z</time>
      </trkpt>
      <trkpt lat="42.631127" lon="0.656665">
        <ele>3374.5</ele>
        <time>1970-01-01T05:13:23.000Z</time>
      </trkpt>
      <trkpt lat="42.631127" lon="0.656665">
        <ele>3374.5</ele>
        <time>1970-01-01T05:13:24.000Z</time>
      </trkpt>
      <trkpt lat="42.631127" lon="0.656664">
        <ele>3374.5</ele>
        <time>1970-01-01T05:13:25.000Z</time>
      </trkpt>
      <trkpt lat="42.631127" lon="0.656663">
        <ele>3374.5</ele>
        <time>1970-01-01T05:13:26.000Z</time>
      </trkpt>
      <trkpt lat="42.631127" lon="0.656662">
        <ele>3374.5</ele>
        <time>1970-01-01T05:13:27.000Z</time>
      </trkpt>
      <trkpt lat="42.631126" lon="0.656662">
        <ele>3374.5</ele>
        <time>1970-01-01T05:13:28.000Z</time>
      </trkpt>
      <trkpt lat="42.631126" lon="0.656661">
        <ele>3374.5</ele>
        <time>1970-01-01T05:13:29.000Z</time>
      </trkpt>
      <trkpt lat="42.631126" lon="0.656661">
        <ele>3374.5</ele>
        <time>1970-01-01T05:13:30.000Z</time>
      </trkpt>
      <trkpt lat="42.631126" lon="0.656662">
        <ele>3374.5</ele>
        <time>1970-01-01T05:13:31.000Z</time>
      </trkpt>
      <trkpt lat="42.631126" lon="0.656662">
        <ele>3374.5</ele>
        <time>1970-01-01T05:13:32.000Z</time>
      </trkpt>
      <trkpt lat="42.631126" lon="0.656661">
        <ele>3374.5</ele>
        <time>1970-01-01T05:13:33.000Z</time>
      </trkpt>
      <trkpt lat="42.631124" lon="0.65666">
        <ele>3374.5</ele>
        <time>1970-01-01T05:13:34.000Z</time>
      </trkpt>
      <trkpt lat="42.631123" lon="0.656661">
        <ele>3374.5</ele>
        <time>1970-01-01T05:13:36.000Z</time>
      </trkpt>
      <trkpt lat="42.631122" lon="0.656662">
        <ele>3374.5</ele>
        <time>1970-01-01T05:13:37.000Z</time>
      </trkpt>
      <trkpt lat="42.631121" lon="0.656663">
        <ele>3374.5</ele>
        <time>1970-01-01T05:13:38.000Z</time>
      </trkpt>
      <trkpt lat="42.63112" lon="0.656664">
        <ele>3374.5</ele>
        <time>1970-01-01T05:13:39.000Z</time>
      </trkpt>
      <trkpt lat="42.631119" lon="0.656665">
        <ele>3374.5</ele>
        <time>1970-01-01T05:13:40.000Z</time>
      </trkpt>
      <trkpt lat="42.631119" lon="0.656665">
        <ele>3374.5</ele>
        <time>1970-01-01T05:13:41.000Z</time>
      </trkpt>
      <trkpt lat="42.631118" lon="0.656664">
        <ele>3374.5</ele>
        <time>1970-01-01T05:13:42.000Z</time>
      </trkpt>
      <trkpt lat="42.631118" lon="0.656664">
        <ele>3374.5</ele>
        <time>1970-01-01T05:13:43.000Z</time>
      </trkpt>
      <trkpt lat="42.631118" lon="0.656662">
        <ele>3374.5</ele>
        <time>1970-01-01T05:13:44.000Z</time>
      </trkpt>
      <trkpt lat="42.631119" lon="0.656658">
        <ele>3374.5</ele>
        <time>1970-01-01T05:13:45.000Z</time>
      </trkpt>
      <trkpt lat="42.631118" lon="0.656655">
        <ele>3374.5</ele>
        <time>1970-01-01T05:13:46.000Z</time>
      </trkpt>
      <trkpt lat="42.631117" lon="0.656654">
        <ele>3374.6</ele>
        <time>1970-01-01T05:13:47.000Z</time>
      </trkpt>
      <trkpt lat="42.631116" lon="0.656653">
        <ele>3374.6</ele>
        <time>1970-01-01T05:13:48.000Z</time>
      </trkpt>
      <trkpt lat="42.631115" lon="0.656652">
        <ele>3374.6</ele>
        <time>1970-01-01T05:13:49.000Z</time>
      </trkpt>
      <trkpt lat="42.631114" lon="0.656652">
        <ele>3374.6</ele>
        <time>1970-01-01T05:13:50.000Z</time>
      </trkpt>
      <trkpt lat="42.631113" lon="0.656651">
        <ele>3374.6</ele>
        <time>1970-01-01T05:13:51.000Z</time>
      </trkpt>
      <trkpt lat="42.631112" lon="0.656651">
        <ele>3374.6</ele>
        <time>1970-01-01T05:13:52.000Z</time>
      </trkpt>
      <trkpt lat="42.631111" lon="0.65665">
        <ele>3374.6</ele>
        <time>1970-01-01T05:13:53.000Z</time>
      </trkpt>
      <trkpt lat="42.631111" lon="0.65665">
        <ele>3374.6</ele>
        <time>1970-01-01T05:13:54.000Z</time>
      </trkpt>
      <trkpt lat="42.63111" lon="0.65665">
        <ele>3374.6</ele>
        <time>1970-01-01T05:13:55.000Z</time>
      </trkpt>
      <trkpt lat="42.63111" lon="0.656649">
        <ele>3374.6</ele>
        <time>1970-01-01T05:13:56.000Z</time>
      </trkpt>
      <trkpt lat="42.63111" lon="0.656649">
        <ele>3374.6</ele>
        <time>1970-01-01T05:13:57.000Z</time>
      </trkpt>
      <trkpt lat="42.63111" lon="0.656649">
        <ele>3374.6</ele>
        <time>1970-01-01T05:13:58.000Z</time>
      </trkpt>
      <trkpt lat="42.63111" lon="0.656648">
        <ele>3374.6</ele>
        <time>1970-01-01T05:13:59.000Z</time>
      </trkpt>
      <trkpt lat="42.63111" lon="0.656648">
        <ele>3374.6</ele>
        <time>1970-01-01T05:14:00.000Z</time>
      </trkpt>
      <trkpt lat="42.63111" lon="0.656648">
        <ele>3374.6</ele>
        <time>1970-01-01T05:14:01.000Z</time>
      </trkpt>
      <trkpt lat="42.63111" lon="0.656648">
        <ele>3374.6</ele>
        <time>1970-01-01T05:14:02.000Z</time>
      </trkpt>
      <trkpt lat="42.631109" lon="0.65665">
        <ele>3374.6</ele>
        <time>1970-01-01T05:14:03.000Z</time>
      </trkpt>
      <trkpt lat="42.631108" lon="0.656651">
        <ele>3374.6</ele>
        <time>1970-01-01T05:14:04.000Z</time>
      </trkpt>
      <trkpt lat="42.631108" lon="0.656652">
        <ele>3374.6</ele>
        <time>1970-01-01T05:14:05.000Z</time>
      </trkpt>
      <trkpt lat="42.631108" lon="0.656652">
        <ele>3374.6</ele>
        <time>1970-01-01T05:14:06.000Z</time>
      </trkpt>
      <trkpt lat="42.631108" lon="0.656652">
        <ele>3374.6</ele>
        <time>1970-01-01T05:14:07.000Z</time>
      </trkpt>
      <trkpt lat="42.631108" lon="0.656652">
        <ele>3374.6</ele>
        <time>1970-01-01T05:14:08.000Z</time>
      </trkpt>
      <trkpt lat="42.631108" lon="0.656652">
        <ele>3374.6</ele>
        <time>1970-01-01T05:14:09.000Z</time>
      </trkpt>
      <trkpt lat="42.631108" lon="0.656652">
        <ele>3374.6</ele>
        <time>1970-01-01T05:14:10.000Z</time>
      </trkpt>
      <trkpt lat="42.631108" lon="0.656652">
        <ele>3374.6</ele>
        <time>1970-01-01T05:14:11.000Z</time>
      </trkpt>
      <trkpt lat="42.631108" lon="0.656652">
        <ele>3374.6</ele>
        <time>1970-01-01T05:14:12.000Z</time>
      </trkpt>
      <trkpt lat="42.631108" lon="0.656652">
        <ele>3374.6</ele>
        <time>1970-01-01T05:14:13.000Z</time>
      </trkpt>
      <trkpt lat="42.631108" lon="0.656652">
        <ele>3374.6</ele>
        <time>1970-01-01T05:14:14.000Z</time>
      </trkpt>
      <trkpt lat="42.631108" lon="0.656652">
        <ele>3374.6</ele>
        <time>1970-01-01T05:14:15.000Z</time>
      </trkpt>
      <trkpt lat="42.631108" lon="0.656652">
        <ele>3374.6</ele>
        <time>1970-01-01T05:14:16.000Z</time>
      </trkpt>
      <trkpt lat="42.631108" lon="0.656653">
        <ele>3374.6</ele>
        <time>1970-01-01T05:14:17.000Z</time>
      </trkpt>
      <trkpt lat="42.631108" lon="0.656652">
        <ele>3374.6</ele>
        <time>1970-01-01T05:14:18.000Z</time>
      </trkpt>
      <trkpt lat="42.631108" lon="0.656653">
        <ele>3374.6</ele>
        <time>1970-01-01T05:14:19.000Z</time>
      </trkpt>
      <trkpt lat="42.631108" lon="0.656653">
        <ele>3374.6</ele>
        <time>1970-01-01T05:14:20.000Z</time>
      </trkpt>
      <trkpt lat="42.631108" lon="0.656653">
        <ele>3374.6</ele>
        <time>1970-01-01T05:14:21.000Z</time>
      </trkpt>
      <trkpt lat="42.631108" lon="0.656652">
        <ele>3374.6</ele>
        <time>1970-01-01T05:14:22.000Z</time>
      </trkpt>
      <trkpt lat="42.631108" lon="0.656652">
        <ele>3374.6</ele>
        <time>1970-01-01T05:14:23.000Z</time>
      </trkpt>
      <trkpt lat="42.631107" lon="0.656654">
        <ele>3374.6</ele>
        <time>1970-01-01T05:14:24.000Z</time>
      </trkpt>
      <trkpt lat="42.631107" lon="0.656656">
        <ele>3374.6</ele>
        <time>1970-01-01T05:14:25.000Z</time>
      </trkpt>
      <trkpt lat="42.631107" lon="0.656656">
        <ele>3374.6</ele>
        <time>1970-01-01T05:14:26.000Z</time>
      </trkpt>
      <trkpt lat="42.631106" lon="0.656656">
        <ele>3374.6</ele>
        <time>1970-01-01T05:14:27.000Z</time>
      </trkpt>
      <trkpt lat="42.631106" lon="0.656655">
        <ele>3374.6</ele>
        <time>1970-01-01T05:14:28.000Z</time>
      </trkpt>
      <trkpt lat="42.631108" lon="0.656654">
        <ele>3374.7</ele>
        <time>1970-01-01T05:14:29.000Z</time>
      </trkpt>
      <trkpt lat="42.631111" lon="0.656653">
        <ele>3374.7</ele>
        <time>1970-01-01T05:14:30.000Z</time>
      </trkpt>
      <trkpt lat="42.631111" lon="0.656653">
        <ele>3374.7</ele>
        <time>1970-01-01T05:14:31.000Z</time>
      </trkpt>
      <trkpt lat="42.631113" lon="0.656654">
        <ele>3374.7</ele>
        <time>1970-01-01T05:14:32.000Z</time>
      </trkpt>
      <trkpt lat="42.631113" lon="0.656654">
        <ele>3374.7</ele>
        <time>1970-01-01T05:14:33.000Z</time>
      </trkpt>
      <trkpt lat="42.631114" lon="0.656654">
        <ele>3374.7</ele>
        <time>1970-01-01T05:14:34.000Z</time>
      </trkpt>
      <trkpt lat="42.631114" lon="0.656654">
        <ele>3374.7</ele>
        <time>1970-01-01T05:14:35.000Z</time>
      </trkpt>
      <trkpt lat="42.631115" lon="0.656657">
        <ele>3374.7</ele>
        <time>1970-01-01T05:14:37.000Z</time>
      </trkpt>
      <trkpt lat="42.631115" lon="0.656658">
        <ele>3374.7</ele>
        <time>1970-01-01T05:14:38.000Z</time>
      </trkpt>
      <trkpt lat="42.631114" lon="0.65666">
        <ele>3374.7</ele>
        <time>1970-01-01T05:14:40.000Z</time>
      </trkpt>
      <trkpt lat="42.631114" lon="0.65666">
        <ele>3374.7</ele>
        <time>1970-01-01T05:14:41.000Z</time>
      </trkpt>
      <trkpt lat="42.631115" lon="0.656662">
        <ele>3374.7</ele>
        <time>1970-01-01T05:14:42.000Z</time>
      </trkpt>
      <trkpt lat="42.631116" lon="0.656665">
        <ele>3374.7</ele>
        <time>1970-01-01T05:14:43.000Z</time>
      </trkpt>
      <trkpt lat="42.631119" lon="0.656667">
        <ele>3374.7</ele>
        <time>1970-01-01T05:14:45.000Z</time>
      </trkpt>
      <trkpt lat="42.631119" lon="0.656665">
        <ele>3374.7</ele>
        <time>1970-01-01T05:14:46.000Z</time>
      </trkpt>
      <trkpt lat="42.63112" lon="0.656665">
        <ele>3374.7</ele>
        <time>1970-01-01T05:14:47.000Z</time>
      </trkpt>
      <trkpt lat="42.631121" lon="0.656664">
        <ele>3374.8</ele>
        <time>1970-01-01T05:14:48.000Z</time>
      </trkpt>
      <trkpt lat="42.631122" lon="0.656664">
        <ele>3374.8</ele>
        <time>1970-01-01T05:14:49.000Z</time>
      </trkpt>
      <trkpt lat="42.631123" lon="0.656664">
        <ele>3374.8</ele>
        <time>1970-01-01T05:14:50.000Z</time>
      </trkpt>
      <trkpt lat="42.631124" lon="0.656664">
        <ele>3374.8</ele>
        <time>1970-01-01T05:14:51.000Z</time>
      </trkpt>
      <trkpt lat="42.631124" lon="0.656666">
        <ele>3374.8</ele>
        <time>1970-01-01T05:14:52.000Z</time>
      </trkpt>
      <trkpt lat="42.631124" lon="0.656666">
        <ele>3374.8</ele>
        <time>1970-01-01T05:14:53.000Z</time>
      </trkpt>
      <trkpt lat="42.631125" lon="0.656668">
        <ele>3374.8</ele>
        <time>1970-01-01T05:14:54.000Z</time>
      </trkpt>
      <trkpt lat="42.631127" lon="0.656669">
        <ele>3374.8</ele>
        <time>1970-01-01T05:14:56.000Z</time>
      </trkpt>
      <trkpt lat="42.631127" lon="0.65667">
        <ele>3374.8</ele>
        <time>1970-01-01T05:14:57.000Z</time>
      </trkpt>
      <trkpt lat="42.63113" lon="0.656671">
        <ele>3374.8</ele>
        <time>1970-01-01T05:14:58.000Z</time>
      </trkpt>
      <trkpt lat="42.631132" lon="0.656672">
        <ele>3374.8</ele>
        <time>1970-01-01T05:14:59.000Z</time>
      </trkpt>
      <trkpt lat="42.631134" lon="0.656672">
        <ele>3374.8</ele>
        <time>1970-01-01T05:15:00.000Z</time>
      </trkpt>
      <trkpt lat="42.631136" lon="0.656673">
        <ele>3374.8</ele>
        <time>1970-01-01T05:15:01.000Z</time>
      </trkpt>
      <trkpt lat="42.631137" lon="0.656673">
        <ele>3374.8</ele>
        <time>1970-01-01T05:15:02.000Z</time>
      </trkpt>
      <trkpt lat="42.631139" lon="0.656673">
        <ele>3374.8</ele>
        <time>1970-01-01T05:15:03.000Z</time>
      </trkpt>
      <trkpt lat="42.631141" lon="0.656673">
        <ele>3374.9</ele>
        <time>1970-01-01T05:15:04.000Z</time>
      </trkpt>
      <trkpt lat="42.631142" lon="0.656673">
        <ele>3374.9</ele>
        <time>1970-01-01T05:15:05.000Z</time>
      </trkpt>
      <trkpt lat="42.631143" lon="0.656674">
        <ele>3374.9</ele>
        <time>1970-01-01T05:15:06.000Z</time>
      </trkpt>
      <trkpt lat="42.631144" lon="0.656675">
        <ele>3374.9</ele>
        <time>1970-01-01T05:15:07.000Z</time>
      </trkpt>
      <trkpt lat="42.631145" lon="0.656675">
        <ele>3374.9</ele>
        <time>1970-01-01T05:15:08.000Z</time>
      </trkpt>
      <trkpt lat="42.631145" lon="0.656674">
        <ele>3374.9</ele>
        <time>1970-01-01T05:15:09.000Z</time>
      </trkpt>
      <trkpt lat="42.631146" lon="0.656672">
        <ele>3374.9</ele>
        <time>1970-01-01T05:15:10.000Z</time>
      </trkpt>
      <trkpt lat="42.631146" lon="0.656672">
        <ele>3374.9</ele>
        <time>1970-01-01T05:15:11.000Z</time>
      </trkpt>
      <trkpt lat="42.631146" lon="0.656672">
        <ele>3374.9</ele>
        <time>1970-01-01T05:15:12.000Z</time>
      </trkpt>
      <trkpt lat="42.631145" lon="0.656672">
        <ele>3374.9</ele>
        <time>1970-01-01T05:15:13.000Z</time>
      </trkpt>
      <trkpt lat="42.631145" lon="0.656672">
        <ele>3374.9</ele>
        <time>1970-01-01T05:15:14.000Z</time>
      </trkpt>
      <trkpt lat="42.631145" lon="0.656672">
        <ele>3374.9</ele>
        <time>1970-01-01T05:15:15.000Z</time>
      </trkpt>
      <trkpt lat="42.631145" lon="0.656672">
        <ele>3374.9</ele>
        <time>1970-01-01T05:15:16.000Z</time>
      </trkpt>
      <trkpt lat="42.631145" lon="0.656672">
        <ele>3374.9</ele>
        <time>1970-01-01T05:15:17.000Z</time>
      </trkpt>
      <trkpt lat="42.631145" lon="0.656673">
        <ele>3374.9</ele>
        <time>1970-01-01T05:15:18.000Z</time>
      </trkpt>
      <trkpt lat="42.631144" lon="0.656673">
        <ele>3374.9</ele>
        <time>1970-01-01T05:15:19.000Z</time>
      </trkpt>
      <trkpt lat="42.631144" lon="0.656673">
        <ele>3374.9</ele>
        <time>1970-01-01T05:15:20.000Z</time>
      </trkpt>
      <trkpt lat="42.631144" lon="0.656673">
        <ele>3374.9</ele>
        <time>1970-01-01T05:15:21.000Z</time>
      </trkpt>
      <trkpt lat="42.631144" lon="0.656673">
        <ele>3374.9</ele>
        <time>1970-01-01T05:15:22.000Z</time>
      </trkpt>
      <trkpt lat="42.631143" lon="0.656673">
        <ele>3374.9</ele>
        <time>1970-01-01T05:15:23.000Z</time>
      </trkpt>
      <trkpt lat="42.631144" lon="0.656671">
        <ele>3374.9</ele>
        <time>1970-01-01T05:15:25.000Z</time>
      </trkpt>
      <trkpt lat="42.631144" lon="0.65667">
        <ele>3374.9</ele>
        <time>1970-01-01T05:15:26.000Z</time>
      </trkpt>
      <trkpt lat="42.631147" lon="0.656664">
        <ele>3374.9</ele>
        <time>1970-01-01T05:15:28.000Z</time>
      </trkpt>
      <trkpt lat="42.631148" lon="0.656664">
        <ele>3374.9</ele>
        <time>1970-01-01T05:15:29.000Z</time>
      </trkpt>
      <trkpt lat="42.631149" lon="0.656664">
        <ele>3374.9</ele>
        <time>1970-01-01T05:15:30.000Z</time>
      </trkpt>
      <trkpt lat="42.631149" lon="0.656664">
        <ele>3374.9</ele>
        <time>1970-01-01T05:15:31.000Z</time>
      </trkpt>
      <trkpt lat="42.63115" lon="0.656662">
        <ele>3375</ele>
        <time>1970-01-01T05:15:32.000Z</time>
      </trkpt>
      <trkpt lat="42.63115" lon="0.65666">
        <ele>3375</ele>
        <time>1970-01-01T05:15:33.000Z</time>
      </trkpt>
      <trkpt lat="42.631149" lon="0.656661">
        <ele>3375</ele>
        <time>1970-01-01T05:15:34.000Z</time>
      </trkpt>
      <trkpt lat="42.631148" lon="0.656664">
        <ele>3375</ele>
        <time>1970-01-01T05:15:35.000Z</time>
      </trkpt>
      <trkpt lat="42.631148" lon="0.656665">
        <ele>3375</ele>
        <time>1970-01-01T05:15:36.000Z</time>
      </trkpt>
      <trkpt lat="42.631149" lon="0.656665">
        <ele>3375</ele>
        <time>1970-01-01T05:15:37.000Z</time>
      </trkpt>
      <trkpt lat="42.63115" lon="0.656664">
        <ele>3375</ele>
        <time>1970-01-01T05:15:38.000Z</time>
      </trkpt>
      <trkpt lat="42.63115" lon="0.656662">
        <ele>3375</ele>
        <time>1970-01-01T05:15:39.000Z</time>
      </trkpt>
      <trkpt lat="42.631151" lon="0.656661">
        <ele>3375</ele>
        <time>1970-01-01T05:15:40.000Z</time>
      </trkpt>
      <trkpt lat="42.631152" lon="0.656661">
        <ele>3375</ele>
        <time>1970-01-01T05:15:41.000Z</time>
      </trkpt>
      <trkpt lat="42.631152" lon="0.656661">
        <ele>3375</ele>
        <time>1970-01-01T05:15:42.000Z</time>
      </trkpt>
      <trkpt lat="42.631152" lon="0.656662">
        <ele>3375</ele>
        <time>1970-01-01T05:15:43.000Z</time>
      </trkpt>
      <trkpt lat="42.631154" lon="0.656664">
        <ele>3375</ele>
        <time>1970-01-01T05:15:44.000Z</time>
      </trkpt>
      <trkpt lat="42.631155" lon="0.656665">
        <ele>3375</ele>
        <time>1970-01-01T05:15:45.000Z</time>
      </trkpt>
      <trkpt lat="42.631157" lon="0.656667">
        <ele>3375</ele>
        <time>1970-01-01T05:15:46.000Z</time>
      </trkpt>
      <trkpt lat="42.631157" lon="0.656668">
        <ele>3375</ele>
        <time>1970-01-01T05:15:48.000Z</time>
      </trkpt>
      <trkpt lat="42.631158" lon="0.656669">
        <ele>3375</ele>
        <time>1970-01-01T05:15:49.000Z</time>
      </trkpt>
      <trkpt lat="42.631158" lon="0.656669">
        <ele>3375</ele>
        <time>1970-01-01T05:15:50.000Z</time>
      </trkpt>
      <trkpt lat="42.631158" lon="0.65667">
        <ele>3375</ele>
        <time>1970-01-01T05:15:51.000Z</time>
      </trkpt>
      <trkpt lat="42.631157" lon="0.65667">
        <ele>3375</ele>
        <time>1970-01-01T05:15:52.000Z</time>
      </trkpt>
      <trkpt lat="42.631157" lon="0.656669">
        <ele>3375</ele>
        <time>1970-01-01T05:15:53.000Z</time>
      </trkpt>
      <trkpt lat="42.63116" lon="0.656669">
        <ele>3375.1</ele>
        <time>1970-01-01T05:15:55.000Z</time>
      </trkpt>
      <trkpt lat="42.631163" lon="0.656669">
        <ele>3375.1</ele>
        <time>1970-01-01T05:15:56.000Z</time>
      </trkpt>
      <trkpt lat="42.631166" lon="0.656668">
        <ele>3375.1</ele>
        <time>1970-01-01T05:15:57.000Z</time>
      </trkpt>
      <trkpt lat="42.631167" lon="0.656668">
        <ele>3375.1</ele>
        <time>1970-01-01T05:15:58.000Z</time>
      </trkpt>
      <trkpt lat="42.631169" lon="0.656667">
        <ele>3375.1</ele>
        <time>1970-01-01T05:15:59.000Z</time>
      </trkpt>
      <trkpt lat="42.63117" lon="0.656667">
        <ele>3375.1</ele>
        <time>1970-01-01T05:16:00.000Z</time>
      </trkpt>
      <trkpt lat="42.631171" lon="0.656666">
        <ele>3375.1</ele>
        <time>1970-01-01T05:16:01.000Z</time>
      </trkpt>
      <trkpt lat="42.631172" lon="0.656665">
        <ele>3375.1</ele>
        <time>1970-01-01T05:16:02.000Z</time>
      </trkpt>
      <trkpt lat="42.631173" lon="0.656665">
        <ele>3375.1</ele>
        <time>1970-01-01T05:16:03.000Z</time>
      </trkpt>
      <trkpt lat="42.631173" lon="0.656666">
        <ele>3375.1</ele>
        <time>1970-01-01T05:16:04.000Z</time>
      </trkpt>
      <trkpt lat="42.631173" lon="0.656666">
        <ele>3375.1</ele>
        <time>1970-01-01T05:16:05.000Z</time>
      </trkpt>
      <trkpt lat="42.631173" lon="0.656667">
        <ele>3375.1</ele>
        <time>1970-01-01T05:16:06.000Z</time>
      </trkpt>
      <trkpt lat="42.631173" lon="0.656669">
        <ele>3375.1</ele>
        <time>1970-01-01T05:16:07.000Z</time>
      </trkpt>
      <trkpt lat="42.631173" lon="0.65667">
        <ele>3375.1</ele>
        <time>1970-01-01T05:16:08.000Z</time>
      </trkpt>
      <trkpt lat="42.631173" lon="0.656672">
        <ele>3375.1</ele>
        <time>1970-01-01T05:16:09.000Z</time>
      </trkpt>
      <trkpt lat="42.631173" lon="0.656673">
        <ele>3375.1</ele>
        <time>1970-01-01T05:16:10.000Z</time>
      </trkpt>
      <trkpt lat="42.631173" lon="0.656674">
        <ele>3375.1</ele>
        <time>1970-01-01T05:16:11.000Z</time>
      </trkpt>
      <trkpt lat="42.631173" lon="0.656675">
        <ele>3375.1</ele>
        <time>1970-01-01T05:16:13.000Z</time>
      </trkpt>
      <trkpt lat="42.631173" lon="0.656675">
        <ele>3375.1</ele>
        <time>1970-01-01T05:16:14.000Z</time>
      </trkpt>
      <trkpt lat="42.631173" lon="0.656676">
        <ele>3375.1</ele>
        <time>1970-01-01T05:16:15.000Z</time>
      </trkpt>
      <trkpt lat="42.631172" lon="0.656677">
        <ele>3375.2</ele>
        <time>1970-01-01T05:16:17.000Z</time>
      </trkpt>
      <trkpt lat="42.631173" lon="0.656678">
        <ele>3375.2</ele>
        <time>1970-01-01T05:16:18.000Z</time>
      </trkpt>
      <trkpt lat="42.631173" lon="0.656678">
        <ele>3375.2</ele>
        <time>1970-01-01T05:16:19.000Z</time>
      </trkpt>
      <trkpt lat="42.631173" lon="0.656678">
        <ele>3375.2</ele>
        <time>1970-01-01T05:16:20.000Z</time>
      </trkpt>
      <trkpt lat="42.631174" lon="0.656678">
        <ele>3375.2</ele>
        <time>1970-01-01T05:16:21.000Z</time>
      </trkpt>
      <trkpt lat="42.631173" lon="0.656677">
        <ele>3375.2</ele>
        <time>1970-01-01T05:16:22.000Z</time>
      </trkpt>
      <trkpt lat="42.631174" lon="0.656677">
        <ele>3375.2</ele>
        <time>1970-01-01T05:16:23.000Z</time>
      </trkpt>
      <trkpt lat="42.631174" lon="0.656677">
        <ele>3375.2</ele>
        <time>1970-01-01T05:16:24.000Z</time>
      </trkpt>
      <trkpt lat="42.631175" lon="0.656676">
        <ele>3375.2</ele>
        <time>1970-01-01T05:16:25.000Z</time>
      </trkpt>
      <trkpt lat="42.631175" lon="0.656676">
        <ele>3375.2</ele>
        <time>1970-01-01T05:16:26.000Z</time>
      </trkpt>
      <trkpt lat="42.631175" lon="0.656677">
        <ele>3375.2</ele>
        <time>1970-01-01T05:16:27.000Z</time>
      </trkpt>
      <trkpt lat="42.631176" lon="0.656677">
        <ele>3375.2</ele>
        <time>1970-01-01T05:16:28.000Z</time>
      </trkpt>
      <trkpt lat="42.631176" lon="0.656677">
        <ele>3375.2</ele>
        <time>1970-01-01T05:16:29.000Z</time>
      </trkpt>
      <trkpt lat="42.631176" lon="0.656676">
        <ele>3375.2</ele>
        <time>1970-01-01T05:16:30.000Z</time>
      </trkpt>
      <trkpt lat="42.631176" lon="0.656676">
        <ele>3375.2</ele>
        <time>1970-01-01T05:16:31.000Z</time>
      </trkpt>
      <trkpt lat="42.631176" lon="0.656676">
        <ele>3375.2</ele>
        <time>1970-01-01T05:16:32.000Z</time>
      </trkpt>
      <trkpt lat="42.631176" lon="0.656677">
        <ele>3375.2</ele>
        <time>1970-01-01T05:16:33.000Z</time>
      </trkpt>
      <trkpt lat="42.631176" lon="0.656677">
        <ele>3375.2</ele>
        <time>1970-01-01T05:16:34.000Z</time>
      </trkpt>
      <trkpt lat="42.631176" lon="0.656677">
        <ele>3375.2</ele>
        <time>1970-01-01T05:16:35.000Z</time>
      </trkpt>
      <trkpt lat="42.631175" lon="0.656677">
        <ele>3375.2</ele>
        <time>1970-01-01T05:16:36.000Z</time>
      </trkpt>
      <trkpt lat="42.631175" lon="0.656677">
        <ele>3375.2</ele>
        <time>1970-01-01T05:16:37.000Z</time>
      </trkpt>
      <trkpt lat="42.631175" lon="0.656677">
        <ele>3375.2</ele>
        <time>1970-01-01T05:16:38.000Z</time>
      </trkpt>
      <trkpt lat="42.631175" lon="0.656677">
        <ele>3375.2</ele>
        <time>1970-01-01T05:16:39.000Z</time>
      </trkpt>
      <trkpt lat="42.631175" lon="0.656677">
        <ele>3375.2</ele>
        <time>1970-01-01T05:16:40.000Z</time>
      </trkpt>
      <trkpt lat="42.631175" lon="0.656677">
        <ele>3375.2</ele>
        <time>1970-01-01T05:16:41.000Z</time>
      </trkpt>
      <trkpt lat="42.631175" lon="0.656677">
        <ele>3375.2</ele>
        <time>1970-01-01T05:16:42.000Z</time>
      </trkpt>
      <trkpt lat="42.631175" lon="0.656677">
        <ele>3375.2</ele>
        <time>1970-01-01T05:16:43.000Z</time>
      </trkpt>
      <trkpt lat="42.631175" lon="0.656677">
        <ele>3375.2</ele>
        <time>1970-01-01T05:16:44.000Z</time>
      </trkpt>
      <trkpt lat="42.631175" lon="0.656677">
        <ele>3375.2</ele>
        <time>1970-01-01T05:16:45.000Z</time>
      </trkpt>
      <trkpt lat="42.631175" lon="0.656677">
        <ele>3375.2</ele>
        <time>1970-01-01T05:16:46.000Z</time>
      </trkpt>
      <trkpt lat="42.631175" lon="0.656677">
        <ele>3375.2</ele>
        <time>1970-01-01T05:16:47.000Z</time>
      </trkpt>
      <trkpt lat="42.631175" lon="0.656677">
        <ele>3375.2</ele>
        <time>1970-01-01T05:16:48.000Z</time>
      </trkpt>
      <trkpt lat="42.631175" lon="0.656678">
        <ele>3375.2</ele>
        <time>1970-01-01T05:16:49.000Z</time>
      </trkpt>
      <trkpt lat="42.631176" lon="0.65668">
        <ele>3375.2</ele>
        <time>1970-01-01T05:16:50.000Z</time>
      </trkpt>
      <trkpt lat="42.631176" lon="0.65668">
        <ele>3375.2</ele>
        <time>1970-01-01T05:16:51.000Z</time>
      </trkpt>
      <trkpt lat="42.631178" lon="0.656681">
        <ele>3375.2</ele>
        <time>1970-01-01T05:16:52.000Z</time>
      </trkpt>
      <trkpt lat="42.631174" lon="0.656684">
        <ele>3375.2</ele>
        <time>1970-01-01T05:16:53.000Z</time>
      </trkpt>
      <trkpt lat="42.631174" lon="0.656687">
        <ele>3375.2</ele>
        <time>1970-01-01T05:16:55.000Z</time>
      </trkpt>
      <trkpt lat="42.631175" lon="0.656687">
        <ele>3375.2</ele>
        <time>1970-01-01T05:16:56.000Z</time>
      </trkpt>
      <trkpt lat="42.631178" lon="0.656686">
        <ele>3375.3</ele>
        <time>1970-01-01T05:16:57.000Z</time>
      </trkpt>
      <trkpt lat="42.631179" lon="0.656685">
        <ele>3375.3</ele>
        <time>1970-01-01T05:16:58.000Z</time>
      </trkpt>
      <trkpt lat="42.63118" lon="0.656683">
        <ele>3375.3</ele>
        <time>1970-01-01T05:17:00.000Z</time>
      </trkpt>
      <trkpt lat="42.631182" lon="0.656681">
        <ele>3375.3</ele>
        <time>1970-01-01T05:17:01.000Z</time>
      </trkpt>
      <trkpt lat="42.631182" lon="0.65668">
        <ele>3375.3</ele>
        <time>1970-01-01T05:17:02.000Z</time>
      </trkpt>
      <trkpt lat="42.631183" lon="0.656679">
        <ele>3375.3</ele>
        <time>1970-01-01T05:17:03.000Z</time>
      </trkpt>
      <trkpt lat="42.631183" lon="0.656679">
        <ele>3375.3</ele>
        <time>1970-01-01T05:17:04.000Z</time>
      </trkpt>
      <trkpt lat="42.631183" lon="0.65668">
        <ele>3375.3</ele>
        <time>1970-01-01T05:17:05.000Z</time>
      </trkpt>
      <trkpt lat="42.631182" lon="0.656682">
        <ele>3375.3</ele>
        <time>1970-01-01T05:17:07.000Z</time>
      </trkpt>
      <trkpt lat="42.631182" lon="0.656684">
        <ele>3375.3</ele>
        <time>1970-01-01T05:17:08.000Z</time>
      </trkpt>
      <trkpt lat="42.631181" lon="0.656685">
        <ele>3375.3</ele>
        <time>1970-01-01T05:17:09.000Z</time>
      </trkpt>
      <trkpt lat="42.631182" lon="0.656684">
        <ele>3375.3</ele>
        <time>1970-01-01T05:17:10.000Z</time>
      </trkpt>
      <trkpt lat="42.631182" lon="0.656684">
        <ele>3375.3</ele>
        <time>1970-01-01T05:17:11.000Z</time>
      </trkpt>
      <trkpt lat="42.631182" lon="0.656683">
        <ele>3375.3</ele>
        <time>1970-01-01T05:17:12.000Z</time>
      </trkpt>
      <trkpt lat="42.631183" lon="0.656683">
        <ele>3375.4</ele>
        <time>1970-01-01T05:17:13.000Z</time>
      </trkpt>
      <trkpt lat="42.631184" lon="0.656683">
        <ele>3375.4</ele>
        <time>1970-01-01T05:17:14.000Z</time>
      </trkpt>
      <trkpt lat="42.631184" lon="0.656683">
        <ele>3375.4</ele>
        <time>1970-01-01T05:17:15.000Z</time>
      </trkpt>
      <trkpt lat="42.631185" lon="0.656684">
        <ele>3375.4</ele>
        <time>1970-01-01T05:17:17.000Z</time>
      </trkpt>
      <trkpt lat="42.631185" lon="0.656684">
        <ele>3375.4</ele>
        <time>1970-01-01T05:17:18.000Z</time>
      </trkpt>
      <trkpt lat="42.631185" lon="0.656683">
        <ele>3375.4</ele>
        <time>1970-01-01T05:17:19.000Z</time>
      </trkpt>
      <trkpt lat="42.631186" lon="0.656683">
        <ele>3375.4</ele>
        <time>1970-01-01T05:17:20.000Z</time>
      </trkpt>
      <trkpt lat="42.631186" lon="0.65668">
        <ele>3375.4</ele>
        <time>1970-01-01T05:17:22.000Z</time>
      </trkpt>
      <trkpt lat="42.631189" lon="0.656677">
        <ele>3375.5</ele>
        <time>1970-01-01T05:17:23.000Z</time>
      </trkpt>
      <trkpt lat="42.631196" lon="0.656672">
        <ele>3375.5</ele>
        <time>1970-01-01T05:17:24.000Z</time>
      </trkpt>
      <trkpt lat="42.631204" lon="0.656673">
        <ele>3375.5</ele>
        <time>1970-01-01T05:17:26.000Z</time>
      </trkpt>
      <trkpt lat="42.63121" lon="0.656676">
        <ele>3375.5</ele>
        <time>1970-01-01T05:17:27.000Z</time>
      </trkpt>
      <trkpt lat="42.631228" lon="0.656679">
        <ele>3375.5</ele>
        <time>1970-01-01T05:17:29.000Z</time>
      </trkpt>
      <trkpt lat="42.631239" lon="0.656682">
        <ele>3375.6</ele>
        <time>1970-01-01T05:17:30.000Z</time>
      </trkpt>
      <trkpt lat="42.631248" lon="0.65669">
        <ele>3375.5</ele>
        <time>1970-01-01T05:17:31.000Z</time>
      </trkpt>
      <trkpt lat="42.631254" lon="0.656696">
        <ele>3375.4</ele>
        <time>1970-01-01T05:17:32.000Z</time>
      </trkpt>
      <trkpt lat="42.631263" lon="0.656705">
        <ele>3375.3</ele>
        <time>1970-01-01T05:17:34.000Z</time>
      </trkpt>
      <trkpt lat="42.631272" lon="0.656705">
        <ele>3375.2</ele>
        <time>1970-01-01T05:17:35.000Z</time>
      </trkpt>
      <trkpt lat="42.631282" lon="0.656702">
        <ele>3375.1</ele>
        <time>1970-01-01T05:17:36.000Z</time>
      </trkpt>
      <trkpt lat="42.631303" lon="0.656693">
        <ele>3374.7</ele>
        <time>1970-01-01T05:17:38.000Z</time>
      </trkpt>
      <trkpt lat="42.631309" lon="0.656688">
        <ele>3374.7</ele>
        <time>1970-01-01T05:17:39.000Z</time>
      </trkpt>
      <trkpt lat="42.631313" lon="0.656685">
        <ele>3374.6</ele>
        <time>1970-01-01T05:17:40.000Z</time>
      </trkpt>
      <trkpt lat="42.631317" lon="0.656682">
        <ele>3374.6</ele>
        <time>1970-01-01T05:17:41.000Z</time>
      </trkpt>
      <trkpt lat="42.631319" lon="0.656679">
        <ele>3374.5</ele>
        <time>1970-01-01T05:17:42.000Z</time>
      </trkpt>
      <trkpt lat="42.631315" lon="0.656675">
        <ele>3374.5</ele>
        <time>1970-01-01T05:17:43.000Z</time>
      </trkpt>
      <trkpt lat="42.631311" lon="0.656672">
        <ele>3374.4</ele>
        <time>1970-01-01T05:17:44.000Z</time>
      </trkpt>
      <trkpt lat="42.631306" lon="0.65667">
        <ele>3374.3</ele>
        <time>1970-01-01T05:17:45.000Z</time>
      </trkpt>
      <trkpt lat="42.631303" lon="0.656669">
        <ele>3374.3</ele>
        <time>1970-01-01T05:17:46.000Z</time>
      </trkpt>
      <trkpt lat="42.631301" lon="0.656668">
        <ele>3374.3</ele>
        <time>1970-01-01T05:17:47.000Z</time>
      </trkpt>
      <trkpt lat="42.631298" lon="0.656667">
        <ele>3374.3</ele>
        <time>1970-01-01T05:17:48.000Z</time>
      </trkpt>
      <trkpt lat="42.631295" lon="0.656666">
        <ele>3374.2</ele>
        <time>1970-01-01T05:17:49.000Z</time>
      </trkpt>
      <trkpt lat="42.631293" lon="0.656666">
        <ele>3374.2</ele>
        <time>1970-01-01T05:17:50.000Z</time>
      </trkpt>
      <trkpt lat="42.631291" lon="0.656665">
        <ele>3374.2</ele>
        <time>1970-01-01T05:17:51.000Z</time>
      </trkpt>
      <trkpt lat="42.63129" lon="0.656664">
        <ele>3374.2</ele>
        <time>1970-01-01T05:17:52.000Z</time>
      </trkpt>
      <trkpt lat="42.631289" lon="0.656664">
        <ele>3374.1</ele>
        <time>1970-01-01T05:17:53.000Z</time>
      </trkpt>
      <trkpt lat="42.631287" lon="0.656663">
        <ele>3374.1</ele>
        <time>1970-01-01T05:17:54.000Z</time>
      </trkpt>
      <trkpt lat="42.631286" lon="0.656662">
        <ele>3374.1</ele>
        <time>1970-01-01T05:17:55.000Z</time>
      </trkpt>
      <trkpt lat="42.631285" lon="0.656661">
        <ele>3374.1</ele>
        <time>1970-01-01T05:17:56.000Z</time>
      </trkpt>
      <trkpt lat="42.631285" lon="0.656661">
        <ele>3374.1</ele>
        <time>1970-01-01T05:17:57.000Z</time>
      </trkpt>
      <trkpt lat="42.631284" lon="0.65666">
        <ele>3374.1</ele>
        <time>1970-01-01T05:17:58.000Z</time>
      </trkpt>
      <trkpt lat="42.631282" lon="0.656667">
        <ele>3374</ele>
        <time>1970-01-01T05:17:59.000Z</time>
      </trkpt>
      <trkpt lat="42.631281" lon="0.656669">
        <ele>3374</ele>
        <time>1970-01-01T05:18:00.000Z</time>
      </trkpt>
      <trkpt lat="42.631284" lon="0.656664">
        <ele>3373.9</ele>
        <time>1970-01-01T05:18:01.000Z</time>
      </trkpt>
      <trkpt lat="42.631286" lon="0.656662">
        <ele>3373.9</ele>
        <time>1970-01-01T05:18:02.000Z</time>
      </trkpt>
      <trkpt lat="42.631289" lon="0.656661">
        <ele>3373.9</ele>
        <time>1970-01-01T05:18:03.000Z</time>
      </trkpt>
      <trkpt lat="42.631293" lon="0.656659">
        <ele>3373.8</ele>
        <time>1970-01-01T05:18:04.000Z</time>
      </trkpt>
      <trkpt lat="42.631296" lon="0.656658">
        <ele>3373.8</ele>
        <time>1970-01-01T05:18:05.000Z</time>
      </trkpt>
      <trkpt lat="42.631296" lon="0.656659">
        <ele>3373.8</ele>
        <time>1970-01-01T05:18:06.000Z</time>
      </trkpt>
      <trkpt lat="42.631295" lon="0.65666">
        <ele>3373.7</ele>
        <time>1970-01-01T05:18:07.000Z</time>
      </trkpt>
      <trkpt lat="42.631295" lon="0.65666">
        <ele>3373.7</ele>
        <time>1970-01-01T05:18:08.000Z</time>
      </trkpt>
      <trkpt lat="42.631295" lon="0.65666">
        <ele>3373.7</ele>
        <time>1970-01-01T05:18:09.000Z</time>
      </trkpt>
      <trkpt lat="42.631295" lon="0.65666">
        <ele>3373.7</ele>
        <time>1970-01-01T05:18:10.000Z</time>
      </trkpt>
      <trkpt lat="42.631294" lon="0.656661">
        <ele>3373.7</ele>
        <time>1970-01-01T05:18:11.000Z</time>
      </trkpt>
      <trkpt lat="42.631294" lon="0.656662">
        <ele>3373.7</ele>
        <time>1970-01-01T05:18:12.000Z</time>
      </trkpt>
      <trkpt lat="42.631295" lon="0.656662">
        <ele>3373.7</ele>
        <time>1970-01-01T05:18:13.000Z</time>
      </trkpt>
      <trkpt lat="42.631295" lon="0.656662">
        <ele>3373.7</ele>
        <time>1970-01-01T05:18:14.000Z</time>
      </trkpt>
      <trkpt lat="42.631296" lon="0.656663">
        <ele>3373.7</ele>
        <time>1970-01-01T05:18:15.000Z</time>
      </trkpt>
      <trkpt lat="42.631297" lon="0.656664">
        <ele>3373.7</ele>
        <time>1970-01-01T05:18:17.000Z</time>
      </trkpt>
      <trkpt lat="42.631297" lon="0.656664">
        <ele>3373.7</ele>
        <time>1970-01-01T05:18:18.000Z</time>
      </trkpt>
      <trkpt lat="42.631297" lon="0.656664">
        <ele>3373.7</ele>
        <time>1970-01-01T05:18:19.000Z</time>
      </trkpt>
      <trkpt lat="42.631297" lon="0.656664">
        <ele>3373.7</ele>
        <time>1970-01-01T05:18:20.000Z</time>
      </trkpt>
      <trkpt lat="42.631297" lon="0.656664">
        <ele>3373.7</ele>
        <time>1970-01-01T05:18:21.000Z</time>
      </trkpt>
      <trkpt lat="42.631297" lon="0.656664">
        <ele>3373.7</ele>
        <time>1970-01-01T05:18:22.000Z</time>
      </trkpt>
      <trkpt lat="42.631296" lon="0.656665">
        <ele>3373.7</ele>
        <time>1970-01-01T05:18:23.000Z</time>
      </trkpt>
      <trkpt lat="42.631297" lon="0.656665">
        <ele>3373.7</ele>
        <time>1970-01-01T05:18:25.000Z</time>
      </trkpt>
      <trkpt lat="42.631299" lon="0.656667">
        <ele>3373.6</ele>
        <time>1970-01-01T05:18:27.000Z</time>
      </trkpt>
      <trkpt lat="42.6313" lon="0.656666">
        <ele>3373.6</ele>
        <time>1970-01-01T05:18:28.000Z</time>
      </trkpt>
      <trkpt lat="42.6313" lon="0.656665">
        <ele>3373.6</ele>
        <time>1970-01-01T05:18:29.000Z</time>
      </trkpt>
      <trkpt lat="42.631301" lon="0.656664">
        <ele>3373.6</ele>
        <time>1970-01-01T05:18:30.000Z</time>
      </trkpt>
      <trkpt lat="42.631301" lon="0.656664">
        <ele>3373.5</ele>
        <time>1970-01-01T05:18:31.000Z</time>
      </trkpt>
      <trkpt lat="42.631301" lon="0.656663">
        <ele>3373.5</ele>
        <time>1970-01-01T05:18:32.000Z</time>
      </trkpt>
      <trkpt lat="42.631301" lon="0.656663">
        <ele>3373.5</ele>
        <time>1970-01-01T05:18:33.000Z</time>
      </trkpt>
      <trkpt lat="42.6313" lon="0.656662">
        <ele>3373.5</ele>
        <time>1970-01-01T05:18:34.000Z</time>
      </trkpt>
      <trkpt lat="42.6313" lon="0.656662">
        <ele>3373.5</ele>
        <time>1970-01-01T05:18:35.000Z</time>
      </trkpt>
      <trkpt lat="42.631298" lon="0.656662">
        <ele>3373.5</ele>
        <time>1970-01-01T05:18:36.000Z</time>
      </trkpt>
      <trkpt lat="42.631298" lon="0.656662">
        <ele>3373.5</ele>
        <time>1970-01-01T05:18:37.000Z</time>
      </trkpt>
      <trkpt lat="42.631298" lon="0.656662">
        <ele>3373.5</ele>
        <time>1970-01-01T05:18:38.000Z</time>
      </trkpt>
      <trkpt lat="42.631297" lon="0.656662">
        <ele>3373.4</ele>
        <time>1970-01-01T05:18:39.000Z</time>
      </trkpt>
      <trkpt lat="42.631298" lon="0.656662">
        <ele>3373.4</ele>
        <time>1970-01-01T05:18:40.000Z</time>
      </trkpt>
      <trkpt lat="42.631298" lon="0.656662">
        <ele>3373.4</ele>
        <time>1970-01-01T05:18:41.000Z</time>
      </trkpt>
      <trkpt lat="42.631298" lon="0.656662">
        <ele>3373.4</ele>
        <time>1970-01-01T05:18:42.000Z</time>
      </trkpt>
      <trkpt lat="42.631297" lon="0.656662">
        <ele>3373.4</ele>
        <time>1970-01-01T05:18:43.000Z</time>
      </trkpt>
      <trkpt lat="42.631297" lon="0.656663">
        <ele>3373.4</ele>
        <time>1970-01-01T05:18:44.000Z</time>
      </trkpt>
      <trkpt lat="42.631296" lon="0.656663">
        <ele>3373.4</ele>
        <time>1970-01-01T05:18:45.000Z</time>
      </trkpt>
      <trkpt lat="42.631294" lon="0.65666">
        <ele>3373.3</ele>
        <time>1970-01-01T05:18:46.000Z</time>
      </trkpt>
      <trkpt lat="42.631293" lon="0.656659">
        <ele>3373.3</ele>
        <time>1970-01-01T05:18:47.000Z</time>
      </trkpt>
      <trkpt lat="42.631292" lon="0.656658">
        <ele>3373.3</ele>
        <time>1970-01-01T05:18:48.000Z</time>
      </trkpt>
      <trkpt lat="42.631291" lon="0.656657">
        <ele>3373.3</ele>
        <time>1970-01-01T05:18:49.000Z</time>
      </trkpt>
      <trkpt lat="42.631291" lon="0.656657">
        <ele>3373.3</ele>
        <time>1970-01-01T05:18:50.000Z</time>
      </trkpt>
      <trkpt lat="42.631291" lon="0.656657">
        <ele>3373.3</ele>
        <time>1970-01-01T05:18:51.000Z</time>
      </trkpt>
      <trkpt lat="42.631291" lon="0.656657">
        <ele>3373.3</ele>
        <time>1970-01-01T05:18:52.000Z</time>
      </trkpt>
      <trkpt lat="42.631291" lon="0.656657">
        <ele>3373.3</ele>
        <time>1970-01-01T05:18:53.000Z</time>
      </trkpt>
      <trkpt lat="42.631291" lon="0.656657">
        <ele>3373.3</ele>
        <time>1970-01-01T05:18:54.000Z</time>
      </trkpt>
      <trkpt lat="42.631291" lon="0.656657">
        <ele>3373.3</ele>
        <time>1970-01-01T05:18:55.000Z</time>
      </trkpt>
      <trkpt lat="42.631291" lon="0.656657">
        <ele>3373.3</ele>
        <time>1970-01-01T05:18:56.000Z</time>
      </trkpt>
      <trkpt lat="42.631291" lon="0.656657">
        <ele>3373.3</ele>
        <time>1970-01-01T05:18:57.000Z</time>
      </trkpt>
      <trkpt lat="42.631291" lon="0.656657">
        <ele>3373.3</ele>
        <time>1970-01-01T05:18:58.000Z</time>
      </trkpt>
      <trkpt lat="42.631291" lon="0.656657">
        <ele>3373.3</ele>
        <time>1970-01-01T05:18:59.000Z</time>
      </trkpt>
      <trkpt lat="42.631291" lon="0.656657">
        <ele>3373.3</ele>
        <time>1970-01-01T05:19:00.000Z</time>
      </trkpt>
      <trkpt lat="42.631291" lon="0.656657">
        <ele>3373.3</ele>
        <time>1970-01-01T05:19:01.000Z</time>
      </trkpt>
      <trkpt lat="42.631291" lon="0.656657">
        <ele>3373.3</ele>
        <time>1970-01-01T05:19:02.000Z</time>
      </trkpt>
      <trkpt lat="42.631291" lon="0.656657">
        <ele>3373.3</ele>
        <time>1970-01-01T05:19:03.000Z</time>
      </trkpt>
      <trkpt lat="42.631291" lon="0.656657">
        <ele>3373.3</ele>
        <time>1970-01-01T05:19:04.000Z</time>
      </trkpt>
      <trkpt lat="42.631291" lon="0.656657">
        <ele>3373.3</ele>
        <time>1970-01-01T05:19:05.000Z</time>
      </trkpt>
      <trkpt lat="42.631291" lon="0.656657">
        <ele>3373.3</ele>
        <time>1970-01-01T05:19:06.000Z</time>
      </trkpt>
      <trkpt lat="42.631291" lon="0.656657">
        <ele>3373.3</ele>
        <time>1970-01-01T05:19:07.000Z</time>
      </trkpt>
      <trkpt lat="42.631291" lon="0.656657">
        <ele>3373.3</ele>
        <time>1970-01-01T05:19:08.000Z</time>
      </trkpt>
      <trkpt lat="42.631291" lon="0.656657">
        <ele>3373.3</ele>
        <time>1970-01-01T05:19:09.000Z</time>
      </trkpt>
      <trkpt lat="42.631291" lon="0.656657">
        <ele>3373.3</ele>
        <time>1970-01-01T05:19:10.000Z</time>
      </trkpt>
      <trkpt lat="42.631291" lon="0.656657">
        <ele>3373.3</ele>
        <time>1970-01-01T05:19:11.000Z</time>
      </trkpt>
      <trkpt lat="42.631291" lon="0.656657">
        <ele>3373.3</ele>
        <time>1970-01-01T05:19:12.000Z</time>
      </trkpt>
      <trkpt lat="42.631291" lon="0.656657">
        <ele>3373.3</ele>
        <time>1970-01-01T05:19:13.000Z</time>
      </trkpt>
      <trkpt lat="42.631291" lon="0.656657">
        <ele>3373.3</ele>
        <time>1970-01-01T05:19:14.000Z</time>
      </trkpt>
      <trkpt lat="42.631291" lon="0.656658">
        <ele>3373.3</ele>
        <time>1970-01-01T05:19:15.000Z</time>
      </trkpt>
      <trkpt lat="42.631292" lon="0.656659">
        <ele>3373.3</ele>
        <time>1970-01-01T05:19:16.000Z</time>
      </trkpt>
      <trkpt lat="42.631292" lon="0.656659">
        <ele>3373.3</ele>
        <time>1970-01-01T05:19:17.000Z</time>
      </trkpt>
      <trkpt lat="42.631292" lon="0.656659">
        <ele>3373.3</ele>
        <time>1970-01-01T05:19:18.000Z</time>
      </trkpt>
      <trkpt lat="42.631293" lon="0.656659">
        <ele>3373.3</ele>
        <time>1970-01-01T05:19:19.000Z</time>
      </trkpt>
      <trkpt lat="42.631293" lon="0.656659">
        <ele>3373.3</ele>
        <time>1970-01-01T05:19:20.000Z</time>
      </trkpt>
      <trkpt lat="42.631293" lon="0.656659">
        <ele>3373.3</ele>
        <time>1970-01-01T05:19:21.000Z</time>
      </trkpt>
      <trkpt lat="42.631293" lon="0.656659">
        <ele>3373.3</ele>
        <time>1970-01-01T05:19:22.000Z</time>
      </trkpt>
      <trkpt lat="42.631294" lon="0.656658">
        <ele>3373.3</ele>
        <time>1970-01-01T05:19:23.000Z</time>
      </trkpt>
      <trkpt lat="42.631294" lon="0.656658">
        <ele>3373.3</ele>
        <time>1970-01-01T05:19:24.000Z</time>
      </trkpt>
      <trkpt lat="42.631294" lon="0.656657">
        <ele>3373.2</ele>
        <time>1970-01-01T05:19:25.000Z</time>
      </trkpt>
      <trkpt lat="42.631294" lon="0.656656">
        <ele>3373.2</ele>
        <time>1970-01-01T05:19:26.000Z</time>
      </trkpt>
      <trkpt lat="42.631294" lon="0.656655">
        <ele>3373.2</ele>
        <time>1970-01-01T05:19:27.000Z</time>
      </trkpt>
      <trkpt lat="42.631294" lon="0.656654">
        <ele>3373.2</ele>
        <time>1970-01-01T05:19:28.000Z</time>
      </trkpt>
      <trkpt lat="42.631294" lon="0.656654">
        <ele>3373.2</ele>
        <time>1970-01-01T05:19:29.000Z</time>
      </trkpt>
      <trkpt lat="42.631294" lon="0.656654">
        <ele>3373.2</ele>
        <time>1970-01-01T05:19:30.000Z</time>
      </trkpt>
      <trkpt lat="42.631294" lon="0.656654">
        <ele>3373.2</ele>
        <time>1970-01-01T05:19:31.000Z</time>
      </trkpt>
      <trkpt lat="42.631294" lon="0.656653">
        <ele>3373.2</ele>
        <time>1970-01-01T05:19:32.000Z</time>
      </trkpt>
      <trkpt lat="42.631295" lon="0.656651">
        <ele>3373.2</ele>
        <time>1970-01-01T05:19:34.000Z</time>
      </trkpt>
      <trkpt lat="42.631297" lon="0.656649">
        <ele>3373.2</ele>
        <time>1970-01-01T05:19:35.000Z</time>
      </trkpt>
      <trkpt lat="42.631299" lon="0.656648">
        <ele>3373.1</ele>
        <time>1970-01-01T05:19:36.000Z</time>
      </trkpt>
      <trkpt lat="42.631301" lon="0.656647">
        <ele>3373.1</ele>
        <time>1970-01-01T05:19:37.000Z</time>
      </trkpt>
      <trkpt lat="42.631305" lon="0.656645">
        <ele>3373.1</ele>
        <time>1970-01-01T05:19:38.000Z</time>
      </trkpt>
      <trkpt lat="42.631309" lon="0.656644">
        <ele>3373</ele>
        <time>1970-01-01T05:19:39.000Z</time>
      </trkpt>
      <trkpt lat="42.631314" lon="0.656644">
        <ele>3372.9</ele>
        <time>1970-01-01T05:19:40.000Z</time>
      </trkpt>
      <trkpt lat="42.631319" lon="0.656643">
        <ele>3372.9</ele>
        <time>1970-01-01T05:19:41.000Z</time>
      </trkpt>
      <trkpt lat="42.631326" lon="0.656641">
        <ele>3372.8</ele>
        <time>1970-01-01T05:19:43.000Z</time>
      </trkpt>
      <trkpt lat="42.631331" lon="0.656638">
        <ele>3372.7</ele>
        <time>1970-01-01T05:19:44.000Z</time>
      </trkpt>
      <trkpt lat="42.631335" lon="0.656637">
        <ele>3372.7</ele>
        <time>1970-01-01T05:19:45.000Z</time>
      </trkpt>
      <trkpt lat="42.63134" lon="0.656634">
        <ele>3372.6</ele>
        <time>1970-01-01T05:19:46.000Z</time>
      </trkpt>
      <trkpt lat="42.631343" lon="0.656632">
        <ele>3372.6</ele>
        <time>1970-01-01T05:19:47.000Z</time>
      </trkpt>
      <trkpt lat="42.631347" lon="0.65663">
        <ele>3372.5</ele>
        <time>1970-01-01T05:19:48.000Z</time>
      </trkpt>
      <trkpt lat="42.631353" lon="0.656629">
        <ele>3372.5</ele>
        <time>1970-01-01T05:19:49.000Z</time>
      </trkpt>
      <trkpt lat="42.631356" lon="0.656627">
        <ele>3372.4</ele>
        <time>1970-01-01T05:19:50.000Z</time>
      </trkpt>
      <trkpt lat="42.631364" lon="0.656626">
        <ele>3372.3</ele>
        <time>1970-01-01T05:19:52.000Z</time>
      </trkpt>
      <trkpt lat="42.631367" lon="0.656626">
        <ele>3372.3</ele>
        <time>1970-01-01T05:19:53.000Z</time>
      </trkpt>
      <trkpt lat="42.631369" lon="0.656626">
        <ele>3372.3</ele>
        <time>1970-01-01T05:19:54.000Z</time>
      </trkpt>
      <trkpt lat="42.631371" lon="0.656625">
        <ele>3372.2</ele>
        <time>1970-01-01T05:19:55.000Z</time>
      </trkpt>
      <trkpt lat="42.631371" lon="0.656625">
        <ele>3372.2</ele>
        <time>1970-01-01T05:19:56.000Z</time>
      </trkpt>
      <trkpt lat="42.631371" lon="0.656625">
        <ele>3372.2</ele>
        <time>1970-01-01T05:19:57.000Z</time>
      </trkpt>
      <trkpt lat="42.631372" lon="0.656626">
        <ele>3372.2</ele>
        <time>1970-01-01T05:19:58.000Z</time>
      </trkpt>
      <trkpt lat="42.631374" lon="0.656625">
        <ele>3372.2</ele>
        <time>1970-01-01T05:19:59.000Z</time>
      </trkpt>
      <trkpt lat="42.631375" lon="0.656625">
        <ele>3372.2</ele>
        <time>1970-01-01T05:20:00.000Z</time>
      </trkpt>
      <trkpt lat="42.631376" lon="0.656624">
        <ele>3372.2</ele>
        <time>1970-01-01T05:20:01.000Z</time>
      </trkpt>
      <trkpt lat="42.631377" lon="0.656624">
        <ele>3372.2</ele>
        <time>1970-01-01T05:20:02.000Z</time>
      </trkpt>
      <trkpt lat="42.631378" lon="0.656623">
        <ele>3372.2</ele>
        <time>1970-01-01T05:20:03.000Z</time>
      </trkpt>
      <trkpt lat="42.631379" lon="0.656623">
        <ele>3372.1</ele>
        <time>1970-01-01T05:20:04.000Z</time>
      </trkpt>
      <trkpt lat="42.631379" lon="0.656623">
        <ele>3372.1</ele>
        <time>1970-01-01T05:20:05.000Z</time>
      </trkpt>
      <trkpt lat="42.63138" lon="0.656623">
        <ele>3372.1</ele>
        <time>1970-01-01T05:20:06.000Z</time>
      </trkpt>
      <trkpt lat="42.63138" lon="0.656622">
        <ele>3372.1</ele>
        <time>1970-01-01T05:20:07.000Z</time>
      </trkpt>
      <trkpt lat="42.63138" lon="0.656622">
        <ele>3372.1</ele>
        <time>1970-01-01T05:20:08.000Z</time>
      </trkpt>
      <trkpt lat="42.631381" lon="0.656622">
        <ele>3372.1</ele>
        <time>1970-01-01T05:20:09.000Z</time>
      </trkpt>
      <trkpt lat="42.631381" lon="0.656622">
        <ele>3372.1</ele>
        <time>1970-01-01T05:20:10.000Z</time>
      </trkpt>
      <trkpt lat="42.631381" lon="0.656622">
        <ele>3372.1</ele>
        <time>1970-01-01T05:20:11.000Z</time>
      </trkpt>
      <trkpt lat="42.631381" lon="0.656622">
        <ele>3372.1</ele>
        <time>1970-01-01T05:20:12.000Z</time>
      </trkpt>
      <trkpt lat="42.631381" lon="0.656622">
        <ele>3372.1</ele>
        <time>1970-01-01T05:20:13.000Z</time>
      </trkpt>
      <trkpt lat="42.631381" lon="0.656621">
        <ele>3372.1</ele>
        <time>1970-01-01T05:20:14.000Z</time>
      </trkpt>
      <trkpt lat="42.631381" lon="0.65662">
        <ele>3372.1</ele>
        <time>1970-01-01T05:20:15.000Z</time>
      </trkpt>
      <trkpt lat="42.63138" lon="0.656619">
        <ele>3372.1</ele>
        <time>1970-01-01T05:20:16.000Z</time>
      </trkpt>
      <trkpt lat="42.63138" lon="0.656618">
        <ele>3372.1</ele>
        <time>1970-01-01T05:20:17.000Z</time>
      </trkpt>
      <trkpt lat="42.631379" lon="0.656618">
        <ele>3372.1</ele>
        <time>1970-01-01T05:20:18.000Z</time>
      </trkpt>
      <trkpt lat="42.631379" lon="0.656618">
        <ele>3372.1</ele>
        <time>1970-01-01T05:20:19.000Z</time>
      </trkpt>
      <trkpt lat="42.631376" lon="0.656622">
        <ele>3372</ele>
        <time>1970-01-01T05:20:20.000Z</time>
      </trkpt>
      <trkpt lat="42.631378" lon="0.656619">
        <ele>3372</ele>
        <time>1970-01-01T05:20:21.000Z</time>
      </trkpt>
      <trkpt lat="42.63138" lon="0.656616">
        <ele>3371.9</ele>
        <time>1970-01-01T05:20:22.000Z</time>
      </trkpt>
      <trkpt lat="42.631381" lon="0.656613">
        <ele>3371.9</ele>
        <time>1970-01-01T05:20:23.000Z</time>
      </trkpt>
      <trkpt lat="42.631381" lon="0.656613">
        <ele>3371.9</ele>
        <time>1970-01-01T05:20:24.000Z</time>
      </trkpt>
      <trkpt lat="42.631381" lon="0.656612">
        <ele>3371.9</ele>
        <time>1970-01-01T05:20:25.000Z</time>
      </trkpt>
      <trkpt lat="42.631383" lon="0.65661">
        <ele>3371.9</ele>
        <time>1970-01-01T05:20:26.000Z</time>
      </trkpt>
      <trkpt lat="42.631385" lon="0.656608">
        <ele>3371.8</ele>
        <time>1970-01-01T05:20:27.000Z</time>
      </trkpt>
      <trkpt lat="42.631388" lon="0.656605">
        <ele>3371.8</ele>
        <time>1970-01-01T05:20:28.000Z</time>
      </trkpt>
      <trkpt lat="42.631389" lon="0.656604">
        <ele>3371.8</ele>
        <time>1970-01-01T05:20:29.000Z</time>
      </trkpt>
      <trkpt lat="42.631391" lon="0.656603">
        <ele>3371.8</ele>
        <time>1970-01-01T05:20:30.000Z</time>
      </trkpt>
      <trkpt lat="42.631393" lon="0.656602">
        <ele>3371.7</ele>
        <time>1970-01-01T05:20:31.000Z</time>
      </trkpt>
      <trkpt lat="42.631395" lon="0.656601">
        <ele>3371.7</ele>
        <time>1970-01-01T05:20:32.000Z</time>
      </trkpt>
      <trkpt lat="42.631397" lon="0.656601">
        <ele>3371.7</ele>
        <time>1970-01-01T05:20:33.000Z</time>
      </trkpt>
      <trkpt lat="42.631398" lon="0.656601">
        <ele>3371.7</ele>
        <time>1970-01-01T05:20:34.000Z</time>
      </trkpt>
      <trkpt lat="42.631399" lon="0.6566">
        <ele>3371.7</ele>
        <time>1970-01-01T05:20:35.000Z</time>
      </trkpt>
      <trkpt lat="42.6314" lon="0.656599">
        <ele>3371.6</ele>
        <time>1970-01-01T05:20:36.000Z</time>
      </trkpt>
      <trkpt lat="42.631401" lon="0.656598">
        <ele>3371.6</ele>
        <time>1970-01-01T05:20:37.000Z</time>
      </trkpt>
      <trkpt lat="42.631402" lon="0.656597">
        <ele>3371.6</ele>
        <time>1970-01-01T05:20:38.000Z</time>
      </trkpt>
      <trkpt lat="42.631404" lon="0.656595">
        <ele>3371.6</ele>
        <time>1970-01-01T05:20:40.000Z</time>
      </trkpt>
      <trkpt lat="42.631405" lon="0.656593">
        <ele>3371.6</ele>
        <time>1970-01-01T05:20:41.000Z</time>
      </trkpt>
      <trkpt lat="42.631406" lon="0.656592">
        <ele>3371.5</ele>
        <time>1970-01-01T05:20:42.000Z</time>
      </trkpt>
      <trkpt lat="42.631408" lon="0.65659">
        <ele>3371.5</ele>
        <time>1970-01-01T05:20:43.000Z</time>
      </trkpt>
      <trkpt lat="42.631409" lon="0.656589">
        <ele>3371.5</ele>
        <time>1970-01-01T05:20:44.000Z</time>
      </trkpt>
      <trkpt lat="42.63141" lon="0.656589">
        <ele>3371.5</ele>
        <time>1970-01-01T05:20:45.000Z</time>
      </trkpt>
      <trkpt lat="42.63141" lon="0.656589">
        <ele>3371.5</ele>
        <time>1970-01-01T05:20:46.000Z</time>
      </trkpt>
      <trkpt lat="42.63141" lon="0.656588">
        <ele>3371.5</ele>
        <time>1970-01-01T05:20:47.000Z</time>
      </trkpt>
      <trkpt lat="42.63141" lon="0.656588">
        <ele>3371.5</ele>
        <time>1970-01-01T05:20:48.000Z</time>
      </trkpt>
      <trkpt lat="42.63141" lon="0.656588">
        <ele>3371.5</ele>
        <time>1970-01-01T05:20:49.000Z</time>
      </trkpt>
      <trkpt lat="42.63141" lon="0.656587">
        <ele>3371.5</ele>
        <time>1970-01-01T05:20:50.000Z</time>
      </trkpt>
      <trkpt lat="42.63141" lon="0.656587">
        <ele>3371.5</ele>
        <time>1970-01-01T05:20:51.000Z</time>
      </trkpt>
      <trkpt lat="42.631411" lon="0.656587">
        <ele>3371.5</ele>
        <time>1970-01-01T05:20:52.000Z</time>
      </trkpt>
      <trkpt lat="42.631413" lon="0.656584">
        <ele>3371.4</ele>
        <time>1970-01-01T05:20:54.000Z</time>
      </trkpt>
      <trkpt lat="42.631412" lon="0.656583">
        <ele>3371.4</ele>
        <time>1970-01-01T05:20:55.000Z</time>
      </trkpt>
      <trkpt lat="42.631412" lon="0.656581">
        <ele>3371.4</ele>
        <time>1970-01-01T05:20:56.000Z</time>
      </trkpt>
      <trkpt lat="42.631411" lon="0.656579">
        <ele>3371.4</ele>
        <time>1970-01-01T05:20:57.000Z</time>
      </trkpt>
      <trkpt lat="42.631411" lon="0.656577">
        <ele>3371.4</ele>
        <time>1970-01-01T05:20:58.000Z</time>
      </trkpt>
      <trkpt lat="42.63141" lon="0.656576">
        <ele>3371.3</ele>
        <time>1970-01-01T05:20:59.000Z</time>
      </trkpt>
      <trkpt lat="42.631411" lon="0.656574">
        <ele>3371.3</ele>
        <time>1970-01-01T05:21:00.000Z</time>
      </trkpt>
      <trkpt lat="42.631413" lon="0.656572">
        <ele>3371.3</ele>
        <time>1970-01-01T05:21:01.000Z</time>
      </trkpt>
      <trkpt lat="42.631414" lon="0.656572">
        <ele>3371.3</ele>
        <time>1970-01-01T05:21:02.000Z</time>
      </trkpt>
      <trkpt lat="42.631414" lon="0.656571">
        <ele>3371.3</ele>
        <time>1970-01-01T05:21:03.000Z</time>
      </trkpt>
      <trkpt lat="42.631415" lon="0.65657">
        <ele>3371.3</ele>
        <time>1970-01-01T05:21:04.000Z</time>
      </trkpt>
      <trkpt lat="42.631415" lon="0.65657">
        <ele>3371.3</ele>
        <time>1970-01-01T05:21:05.000Z</time>
      </trkpt>
      <trkpt lat="42.631416" lon="0.656569">
        <ele>3371.2</ele>
        <time>1970-01-01T05:21:06.000Z</time>
      </trkpt>
      <trkpt lat="42.631416" lon="0.65657">
        <ele>3371.2</ele>
        <time>1970-01-01T05:21:07.000Z</time>
      </trkpt>
      <trkpt lat="42.631417" lon="0.656569">
        <ele>3371.2</ele>
        <time>1970-01-01T05:21:08.000Z</time>
      </trkpt>
      <trkpt lat="42.631417" lon="0.656568">
        <ele>3371.2</ele>
        <time>1970-01-01T05:21:09.000Z</time>
      </trkpt>
      <trkpt lat="42.631417" lon="0.656568">
        <ele>3371.2</ele>
        <time>1970-01-01T05:21:10.000Z</time>
      </trkpt>
      <trkpt lat="42.631417" lon="0.656567">
        <ele>3371.2</ele>
        <time>1970-01-01T05:21:11.000Z</time>
      </trkpt>
      <trkpt lat="42.631416" lon="0.656566">
        <ele>3371.2</ele>
        <time>1970-01-01T05:21:12.000Z</time>
      </trkpt>
      <trkpt lat="42.631417" lon="0.656566">
        <ele>3371.2</ele>
        <time>1970-01-01T05:21:13.000Z</time>
      </trkpt>
      <trkpt lat="42.631417" lon="0.656565">
        <ele>3371.2</ele>
        <time>1970-01-01T05:21:14.000Z</time>
      </trkpt>
      <trkpt lat="42.631418" lon="0.656564">
        <ele>3371.1</ele>
        <time>1970-01-01T05:21:15.000Z</time>
      </trkpt>
      <trkpt lat="42.631417" lon="0.656562">
        <ele>3371.1</ele>
        <time>1970-01-01T05:21:16.000Z</time>
      </trkpt>
      <trkpt lat="42.631418" lon="0.656561">
        <ele>3371.1</ele>
        <time>1970-01-01T05:21:17.000Z</time>
      </trkpt>
      <trkpt lat="42.631417" lon="0.656559">
        <ele>3371.1</ele>
        <time>1970-01-01T05:21:18.000Z</time>
      </trkpt>
      <trkpt lat="42.631417" lon="0.656556">
        <ele>3370.9</ele>
        <time>1970-01-01T05:21:19.000Z</time>
      </trkpt>
      <trkpt lat="42.631417" lon="0.656554">
        <ele>3370.9</ele>
        <time>1970-01-01T05:21:20.000Z</time>
      </trkpt>
      <trkpt lat="42.631418" lon="0.656553">
        <ele>3370.8</ele>
        <time>1970-01-01T05:21:21.000Z</time>
      </trkpt>
      <trkpt lat="42.631418" lon="0.656552">
        <ele>3370.8</ele>
        <time>1970-01-01T05:21:22.000Z</time>
      </trkpt>
      <trkpt lat="42.631418" lon="0.656551">
        <ele>3370.8</ele>
        <time>1970-01-01T05:21:23.000Z</time>
      </trkpt>
      <trkpt lat="42.631418" lon="0.656551">
        <ele>3370.8</ele>
        <time>1970-01-01T05:21:24.000Z</time>
      </trkpt>
      <trkpt lat="42.631418" lon="0.656552">
        <ele>3370.8</ele>
        <time>1970-01-01T05:21:26.000Z</time>
      </trkpt>
      <trkpt lat="42.631419" lon="0.656552">
        <ele>3370.8</ele>
        <time>1970-01-01T05:21:27.000Z</time>
      </trkpt>
      <trkpt lat="42.631419" lon="0.656552">
        <ele>3370.8</ele>
        <time>1970-01-01T05:21:28.000Z</time>
      </trkpt>
      <trkpt lat="42.63142" lon="0.656552">
        <ele>3370.8</ele>
        <time>1970-01-01T05:21:29.000Z</time>
      </trkpt>
      <trkpt lat="42.631421" lon="0.656551">
        <ele>3370.8</ele>
        <time>1970-01-01T05:21:31.000Z</time>
      </trkpt>
      <trkpt lat="42.631421" lon="0.65655">
        <ele>3370.8</ele>
        <time>1970-01-01T05:21:32.000Z</time>
      </trkpt>
      <trkpt lat="42.631422" lon="0.65655">
        <ele>3370.7</ele>
        <time>1970-01-01T05:21:33.000Z</time>
      </trkpt>
      <trkpt lat="42.631423" lon="0.65655">
        <ele>3370.7</ele>
        <time>1970-01-01T05:21:34.000Z</time>
      </trkpt>
      <trkpt lat="42.631423" lon="0.656549">
        <ele>3370.7</ele>
        <time>1970-01-01T05:21:35.000Z</time>
      </trkpt>
      <trkpt lat="42.631423" lon="0.656549">
        <ele>3370.7</ele>
        <time>1970-01-01T05:21:36.000Z</time>
      </trkpt>
      <trkpt lat="42.631424" lon="0.656549">
        <ele>3370.7</ele>
        <time>1970-01-01T05:21:37.000Z</time>
      </trkpt>
      <trkpt lat="42.631423" lon="0.656548">
        <ele>3370.7</ele>
        <time>1970-01-01T05:21:38.000Z</time>
      </trkpt>
      <trkpt lat="42.631423" lon="0.656548">
        <ele>3370.7</ele>
        <time>1970-01-01T05:21:39.000Z</time>
      </trkpt>
      <trkpt lat="42.631423" lon="0.656548">
        <ele>3370.7</ele>
        <time>1970-01-01T05:21:40.000Z</time>
      </trkpt>
      <trkpt lat="42.631423" lon="0.656548">
        <ele>3370.7</ele>
        <time>1970-01-01T05:21:41.000Z</time>
      </trkpt>
      <trkpt lat="42.631422" lon="0.656547">
        <ele>3370.7</ele>
        <time>1970-01-01T05:21:42.000Z</time>
      </trkpt>
      <trkpt lat="42.631422" lon="0.656547">
        <ele>3370.7</ele>
        <time>1970-01-01T05:21:43.000Z</time>
      </trkpt>
      <trkpt lat="42.631422" lon="0.656547">
        <ele>3370.7</ele>
        <time>1970-01-01T05:21:45.000Z</time>
      </trkpt>
      <trkpt lat="42.631423" lon="0.656546">
        <ele>3370.6</ele>
        <time>1970-01-01T05:21:46.000Z</time>
      </trkpt>
      <trkpt lat="42.631423" lon="0.656546">
        <ele>3370.6</ele>
        <time>1970-01-01T05:21:47.000Z</time>
      </trkpt>
      <trkpt lat="42.631423" lon="0.656547">
        <ele>3370.6</ele>
        <time>1970-01-01T05:21:48.000Z</time>
      </trkpt>
      <trkpt lat="42.631424" lon="0.656547">
        <ele>3370.6</ele>
        <time>1970-01-01T05:21:50.000Z</time>
      </trkpt>
      <trkpt lat="42.631425" lon="0.656547">
        <ele>3370.6</ele>
        <time>1970-01-01T05:21:51.000Z</time>
      </trkpt>
      <trkpt lat="42.631425" lon="0.656547">
        <ele>3370.6</ele>
        <time>1970-01-01T05:21:52.000Z</time>
      </trkpt>
      <trkpt lat="42.631425" lon="0.656547">
        <ele>3370.6</ele>
        <time>1970-01-01T05:21:53.000Z</time>
      </trkpt>
      <trkpt lat="42.631426" lon="0.656546">
        <ele>3370.6</ele>
        <time>1970-01-01T05:21:54.000Z</time>
      </trkpt>
      <trkpt lat="42.631426" lon="0.656546">
        <ele>3370.6</ele>
        <time>1970-01-01T05:21:55.000Z</time>
      </trkpt>
      <trkpt lat="42.631426" lon="0.656545">
        <ele>3370.6</ele>
        <time>1970-01-01T05:21:56.000Z</time>
      </trkpt>
      <trkpt lat="42.631426" lon="0.656546">
        <ele>3370.6</ele>
        <time>1970-01-01T05:21:58.000Z</time>
      </trkpt>
      <trkpt lat="42.631426" lon="0.656546">
        <ele>3370.6</ele>
        <time>1970-01-01T05:21:59.000Z</time>
      </trkpt>
      <trkpt lat="42.631426" lon="0.656546">
        <ele>3370.6</ele>
        <time>1970-01-01T05:22:00.000Z</time>
      </trkpt>
      <trkpt lat="42.631426" lon="0.656546">
        <ele>3370.6</ele>
        <time>1970-01-01T05:22:01.000Z</time>
      </trkpt>
      <trkpt lat="42.631427" lon="0.656547">
        <ele>3370.5</ele>
        <time>1970-01-01T05:22:02.000Z</time>
      </trkpt>
      <trkpt lat="42.631427" lon="0.656547">
        <ele>3370.5</ele>
        <time>1970-01-01T05:22:03.000Z</time>
      </trkpt>
      <trkpt lat="42.631427" lon="0.656547">
        <ele>3370.5</ele>
        <time>1970-01-01T05:22:04.000Z</time>
      </trkpt>
      <trkpt lat="42.631426" lon="0.656547">
        <ele>3370.5</ele>
        <time>1970-01-01T05:22:05.000Z</time>
      </trkpt>
      <trkpt lat="42.631426" lon="0.656547">
        <ele>3370.5</ele>
        <time>1970-01-01T05:22:06.000Z</time>
      </trkpt>
      <trkpt lat="42.631426" lon="0.656547">
        <ele>3370.5</ele>
        <time>1970-01-01T05:22:07.000Z</time>
      </trkpt>
      <trkpt lat="42.631426" lon="0.656546">
        <ele>3370.5</ele>
        <time>1970-01-01T05:22:08.000Z</time>
      </trkpt>
      <trkpt lat="42.631426" lon="0.656546">
        <ele>3370.5</ele>
        <time>1970-01-01T05:22:09.000Z</time>
      </trkpt>
      <trkpt lat="42.631426" lon="0.656546">
        <ele>3370.5</ele>
        <time>1970-01-01T05:22:10.000Z</time>
      </trkpt>
      <trkpt lat="42.631426" lon="0.656546">
        <ele>3370.5</ele>
        <time>1970-01-01T05:22:11.000Z</time>
      </trkpt>
      <trkpt lat="42.631426" lon="0.656544">
        <ele>3370.5</ele>
        <time>1970-01-01T05:22:12.000Z</time>
      </trkpt>
      <trkpt lat="42.631426" lon="0.656544">
        <ele>3370.5</ele>
        <time>1970-01-01T05:22:14.000Z</time>
      </trkpt>
      <trkpt lat="42.631427" lon="0.656544">
        <ele>3370.5</ele>
        <time>1970-01-01T05:22:15.000Z</time>
      </trkpt>
      <trkpt lat="42.631428" lon="0.656544">
        <ele>3370.5</ele>
        <time>1970-01-01T05:22:16.000Z</time>
      </trkpt>
      <trkpt lat="42.631428" lon="0.656544">
        <ele>3370.5</ele>
        <time>1970-01-01T05:22:17.000Z</time>
      </trkpt>
      <trkpt lat="42.631429" lon="0.656545">
        <ele>3370.5</ele>
        <time>1970-01-01T05:22:18.000Z</time>
      </trkpt>
      <trkpt lat="42.63143" lon="0.656548">
        <ele>3370.4</ele>
        <time>1970-01-01T05:22:20.000Z</time>
      </trkpt>
      <trkpt lat="42.631429" lon="0.656548">
        <ele>3370.4</ele>
        <time>1970-01-01T05:22:21.000Z</time>
      </trkpt>
      <trkpt lat="42.631428" lon="0.656549">
        <ele>3370.4</ele>
        <time>1970-01-01T05:22:22.000Z</time>
      </trkpt>
      <trkpt lat="42.631427" lon="0.656549">
        <ele>3370.4</ele>
        <time>1970-01-01T05:22:23.000Z</time>
      </trkpt>
      <trkpt lat="42.631427" lon="0.656549">
        <ele>3370.4</ele>
        <time>1970-01-01T05:22:24.000Z</time>
      </trkpt>
      <trkpt lat="42.631427" lon="0.656549">
        <ele>3370.4</ele>
        <time>1970-01-01T05:22:25.000Z</time>
      </trkpt>
      <trkpt lat="42.631427" lon="0.656551">
        <ele>3370.3</ele>
        <time>1970-01-01T05:22:26.000Z</time>
      </trkpt>
      <trkpt lat="42.631427" lon="0.656552">
        <ele>3370.3</ele>
        <time>1970-01-01T05:22:27.000Z</time>
      </trkpt>
      <trkpt lat="42.631427" lon="0.656553">
        <ele>3370.3</ele>
        <time>1970-01-01T05:22:28.000Z</time>
      </trkpt>
      <trkpt lat="42.631427" lon="0.656553">
        <ele>3370.3</ele>
        <time>1970-01-01T05:22:29.000Z</time>
      </trkpt>
      <trkpt lat="42.631426" lon="0.656554">
        <ele>3370.3</ele>
        <time>1970-01-01T05:22:30.000Z</time>
      </trkpt>
      <trkpt lat="42.631426" lon="0.656555">
        <ele>3370.3</ele>
        <time>1970-01-01T05:22:31.000Z</time>
      </trkpt>
      <trkpt lat="42.631426" lon="0.656557">
        <ele>3370.3</ele>
        <time>1970-01-01T05:22:32.000Z</time>
      </trkpt>
      <trkpt lat="42.631427" lon="0.656558">
        <ele>3370.3</ele>
        <time>1970-01-01T05:22:33.000Z</time>
      </trkpt>
      <trkpt lat="42.631427" lon="0.656559">
        <ele>3370.2</ele>
        <time>1970-01-01T05:22:34.000Z</time>
      </trkpt>
      <trkpt lat="42.631427" lon="0.65656">
        <ele>3370.2</ele>
        <time>1970-01-01T05:22:35.000Z</time>
      </trkpt>
      <trkpt lat="42.631426" lon="0.656561">
        <ele>3370.2</ele>
        <time>1970-01-01T05:22:36.000Z</time>
      </trkpt>
      <trkpt lat="42.631426" lon="0.656562">
        <ele>3370.2</ele>
        <time>1970-01-01T05:22:37.000Z</time>
      </trkpt>
      <trkpt lat="42.631425" lon="0.656564">
        <ele>3370.2</ele>
        <time>1970-01-01T05:22:39.000Z</time>
      </trkpt>
      <trkpt lat="42.631424" lon="0.656565">
        <ele>3370.2</ele>
        <time>1970-01-01T05:22:40.000Z</time>
      </trkpt>
      <trkpt lat="42.631424" lon="0.656565">
        <ele>3370.2</ele>
        <time>1970-01-01T05:22:41.000Z</time>
      </trkpt>
      <trkpt lat="42.631426" lon="0.656569">
        <ele>3370.1</ele>
        <time>1970-01-01T05:22:43.000Z</time>
      </trkpt>
      <trkpt lat="42.631427" lon="0.656568">
        <ele>3370.1</ele>
        <time>1970-01-01T05:22:44.000Z</time>
      </trkpt>
      <trkpt lat="42.631429" lon="0.656566">
        <ele>3370.1</ele>
        <time>1970-01-01T05:22:46.000Z</time>
      </trkpt>
      <trkpt lat="42.631429" lon="0.656566">
        <ele>3370.1</ele>
        <time>1970-01-01T05:22:47.000Z</time>
      </trkpt>
      <trkpt lat="42.631429" lon="0.656565">
        <ele>3370</ele>
        <time>1970-01-01T05:22:48.000Z</time>
      </trkpt>
      <trkpt lat="42.63143" lon="0.656563">
        <ele>3370</ele>
        <time>1970-01-01T05:22:49.000Z</time>
      </trkpt>
      <trkpt lat="42.63143" lon="0.656562">
        <ele>3370</ele>
        <time>1970-01-01T05:22:50.000Z</time>
      </trkpt>
      <trkpt lat="42.63143" lon="0.656561">
        <ele>3370</ele>
        <time>1970-01-01T05:22:51.000Z</time>
      </trkpt>
      <trkpt lat="42.63143" lon="0.656561">
        <ele>3370</ele>
        <time>1970-01-01T05:22:52.000Z</time>
      </trkpt>
      <trkpt lat="42.63143" lon="0.65656">
        <ele>3370</ele>
        <time>1970-01-01T05:22:53.000Z</time>
      </trkpt>
      <trkpt lat="42.63143" lon="0.65656">
        <ele>3370</ele>
        <time>1970-01-01T05:22:54.000Z</time>
      </trkpt>
      <trkpt lat="42.63143" lon="0.656559">
        <ele>3370</ele>
        <time>1970-01-01T05:22:55.000Z</time>
      </trkpt>
      <trkpt lat="42.631429" lon="0.656558">
        <ele>3370</ele>
        <time>1970-01-01T05:22:56.000Z</time>
      </trkpt>
      <trkpt lat="42.631429" lon="0.656557">
        <ele>3369.9</ele>
        <time>1970-01-01T05:22:58.000Z</time>
      </trkpt>
      <trkpt lat="42.631428" lon="0.656555">
        <ele>3369.9</ele>
        <time>1970-01-01T05:22:59.000Z</time>
      </trkpt>
      <trkpt lat="42.631428" lon="0.656554">
        <ele>3369.9</ele>
        <time>1970-01-01T05:23:00.000Z</time>
      </trkpt>
      <trkpt lat="42.631429" lon="0.656555">
        <ele>3369.9</ele>
        <time>1970-01-01T05:23:02.000Z</time>
      </trkpt>
      <trkpt lat="42.631427" lon="0.656554">
        <ele>3369.9</ele>
        <time>1970-01-01T05:23:04.000Z</time>
      </trkpt>
      <trkpt lat="42.631426" lon="0.656555">
        <ele>3369.8</ele>
        <time>1970-01-01T05:23:05.000Z</time>
      </trkpt>
      <trkpt lat="42.631426" lon="0.656556">
        <ele>3369.8</ele>
        <time>1970-01-01T05:23:06.000Z</time>
      </trkpt>
      <trkpt lat="42.631425" lon="0.656556">
        <ele>3369.8</ele>
        <time>1970-01-01T05:23:07.000Z</time>
      </trkpt>
      <trkpt lat="42.631426" lon="0.656555">
        <ele>3369.8</ele>
        <time>1970-01-01T05:23:09.000Z</time>
      </trkpt>
      <trkpt lat="42.631426" lon="0.656553">
        <ele>3369.8</ele>
        <time>1970-01-01T05:23:10.000Z</time>
      </trkpt>
      <trkpt lat="42.631426" lon="0.656553">
        <ele>3369.8</ele>
        <time>1970-01-01T05:23:11.000Z</time>
      </trkpt>
      <trkpt lat="42.631426" lon="0.656552">
        <ele>3369.8</ele>
        <time>1970-01-01T05:23:12.000Z</time>
      </trkpt>
      <trkpt lat="42.631426" lon="0.656551">
        <ele>3369.7</ele>
        <time>1970-01-01T05:23:13.000Z</time>
      </trkpt>
      <trkpt lat="42.631426" lon="0.65655">
        <ele>3369.7</ele>
        <time>1970-01-01T05:23:14.000Z</time>
      </trkpt>
      <trkpt lat="42.631426" lon="0.65655">
        <ele>3369.7</ele>
        <time>1970-01-01T05:23:15.000Z</time>
      </trkpt>
      <trkpt lat="42.631427" lon="0.65655">
        <ele>3369.7</ele>
        <time>1970-01-01T05:23:16.000Z</time>
      </trkpt>
      <trkpt lat="42.631427" lon="0.65655">
        <ele>3369.7</ele>
        <time>1970-01-01T05:23:17.000Z</time>
      </trkpt>
      <trkpt lat="42.631427" lon="0.65655">
        <ele>3369.7</ele>
        <time>1970-01-01T05:23:18.000Z</time>
      </trkpt>
      <trkpt lat="42.631427" lon="0.65655">
        <ele>3369.7</ele>
        <time>1970-01-01T05:23:19.000Z</time>
      </trkpt>
      <trkpt lat="42.631428" lon="0.65655">
        <ele>3369.7</ele>
        <time>1970-01-01T05:23:20.000Z</time>
      </trkpt>
      <trkpt lat="42.631428" lon="0.656549">
        <ele>3369.7</ele>
        <time>1970-01-01T05:23:21.000Z</time>
      </trkpt>
      <trkpt lat="42.631428" lon="0.656548">
        <ele>3369.7</ele>
        <time>1970-01-01T05:23:22.000Z</time>
      </trkpt>
      <trkpt lat="42.631428" lon="0.656548">
        <ele>3369.7</ele>
        <time>1970-01-01T05:23:23.000Z</time>
      </trkpt>
      <trkpt lat="42.631429" lon="0.656548">
        <ele>3369.7</ele>
        <time>1970-01-01T05:23:25.000Z</time>
      </trkpt>
      <trkpt lat="42.631429" lon="0.656548">
        <ele>3369.7</ele>
        <time>1970-01-01T05:23:26.000Z</time>
      </trkpt>
      <trkpt lat="42.631429" lon="0.656547">
        <ele>3369.7</ele>
        <time>1970-01-01T05:23:27.000Z</time>
      </trkpt>
      <trkpt lat="42.631428" lon="0.656547">
        <ele>3369.6</ele>
        <time>1970-01-01T05:23:28.000Z</time>
      </trkpt>
      <trkpt lat="42.631428" lon="0.656547">
        <ele>3369.6</ele>
        <time>1970-01-01T05:23:29.000Z</time>
      </trkpt>
      <trkpt lat="42.631426" lon="0.656545">
        <ele>3369.6</ele>
        <time>1970-01-01T05:23:30.000Z</time>
      </trkpt>
      <trkpt lat="42.631428" lon="0.656545">
        <ele>3369.6</ele>
        <time>1970-01-01T05:23:31.000Z</time>
      </trkpt>
      <trkpt lat="42.631428" lon="0.656545">
        <ele>3369.6</ele>
        <time>1970-01-01T05:23:32.000Z</time>
      </trkpt>
      <trkpt lat="42.631428" lon="0.656544">
        <ele>3369.6</ele>
        <time>1970-01-01T05:23:33.000Z</time>
      </trkpt>
      <trkpt lat="42.631429" lon="0.656543">
        <ele>3369.5</ele>
        <time>1970-01-01T05:23:34.000Z</time>
      </trkpt>
      <trkpt lat="42.631429" lon="0.656543">
        <ele>3369.5</ele>
        <time>1970-01-01T05:23:35.000Z</time>
      </trkpt>
      <trkpt lat="42.631429" lon="0.656542">
        <ele>3369.5</ele>
        <time>1970-01-01T05:23:36.000Z</time>
      </trkpt>
      <trkpt lat="42.631429" lon="0.656541">
        <ele>3369.5</ele>
        <time>1970-01-01T05:23:37.000Z</time>
      </trkpt>
      <trkpt lat="42.63143" lon="0.656541">
        <ele>3369.5</ele>
        <time>1970-01-01T05:23:38.000Z</time>
      </trkpt>
      <trkpt lat="42.631431" lon="0.656539">
        <ele>3369.5</ele>
        <time>1970-01-01T05:23:39.000Z</time>
      </trkpt>
      <trkpt lat="42.631433" lon="0.656537">
        <ele>3369.4</ele>
        <time>1970-01-01T05:23:40.000Z</time>
      </trkpt>
      <trkpt lat="42.631433" lon="0.656537">
        <ele>3369.4</ele>
        <time>1970-01-01T05:23:41.000Z</time>
      </trkpt>
      <trkpt lat="42.631435" lon="0.656537">
        <ele>3369.4</ele>
        <time>1970-01-01T05:23:42.000Z</time>
      </trkpt>
      <trkpt lat="42.631436" lon="0.656536">
        <ele>3369.4</ele>
        <time>1970-01-01T05:23:43.000Z</time>
      </trkpt>
      <trkpt lat="42.631438" lon="0.656536">
        <ele>3369.4</ele>
        <time>1970-01-01T05:23:44.000Z</time>
      </trkpt>
      <trkpt lat="42.631439" lon="0.656536">
        <ele>3369.4</ele>
        <time>1970-01-01T05:23:45.000Z</time>
      </trkpt>
      <trkpt lat="42.63144" lon="0.656536">
        <ele>3369.3</ele>
        <time>1970-01-01T05:23:46.000Z</time>
      </trkpt>
      <trkpt lat="42.631441" lon="0.656537">
        <ele>3369.3</ele>
        <time>1970-01-01T05:23:47.000Z</time>
      </trkpt>
      <trkpt lat="42.631441" lon="0.656537">
        <ele>3369.3</ele>
        <time>1970-01-01T05:23:48.000Z</time>
      </trkpt>
      <trkpt lat="42.631441" lon="0.656537">
        <ele>3369.3</ele>
        <time>1970-01-01T05:23:49.000Z</time>
      </trkpt>
      <trkpt lat="42.631442" lon="0.656537">
        <ele>3369.3</ele>
        <time>1970-01-01T05:23:50.000Z</time>
      </trkpt>
      <trkpt lat="42.631442" lon="0.656537">
        <ele>3369.3</ele>
        <time>1970-01-01T05:23:51.000Z</time>
      </trkpt>
      <trkpt lat="42.631443" lon="0.656537">
        <ele>3369.3</ele>
        <time>1970-01-01T05:23:52.000Z</time>
      </trkpt>
      <trkpt lat="42.631443" lon="0.656537">
        <ele>3369.3</ele>
        <time>1970-01-01T05:23:53.000Z</time>
      </trkpt>
      <trkpt lat="42.631442" lon="0.656538">
        <ele>3369.3</ele>
        <time>1970-01-01T05:23:54.000Z</time>
      </trkpt>
      <trkpt lat="42.631442" lon="0.656538">
        <ele>3369.3</ele>
        <time>1970-01-01T05:23:55.000Z</time>
      </trkpt>
      <trkpt lat="42.631441" lon="0.656538">
        <ele>3369.3</ele>
        <time>1970-01-01T05:23:56.000Z</time>
      </trkpt>
      <trkpt lat="42.631441" lon="0.656538">
        <ele>3369.3</ele>
        <time>1970-01-01T05:23:57.000Z</time>
      </trkpt>
      <trkpt lat="42.631441" lon="0.656538">
        <ele>3369.3</ele>
        <time>1970-01-01T05:23:58.000Z</time>
      </trkpt>
      <trkpt lat="42.631441" lon="0.656538">
        <ele>3369.3</ele>
        <time>1970-01-01T05:23:59.000Z</time>
      </trkpt>
      <trkpt lat="42.631441" lon="0.656538">
        <ele>3369.3</ele>
        <time>1970-01-01T05:24:00.000Z</time>
      </trkpt>
      <trkpt lat="42.631441" lon="0.656538">
        <ele>3369.3</ele>
        <time>1970-01-01T05:24:01.000Z</time>
      </trkpt>
      <trkpt lat="42.631441" lon="0.656538">
        <ele>3369.3</ele>
        <time>1970-01-01T05:24:02.000Z</time>
      </trkpt>
      <trkpt lat="42.631441" lon="0.656538">
        <ele>3369.3</ele>
        <time>1970-01-01T05:24:03.000Z</time>
      </trkpt>
      <trkpt lat="42.631441" lon="0.656538">
        <ele>3369.3</ele>
        <time>1970-01-01T05:24:04.000Z</time>
      </trkpt>
      <trkpt lat="42.631441" lon="0.656538">
        <ele>3369.3</ele>
        <time>1970-01-01T05:24:05.000Z</time>
      </trkpt>
      <trkpt lat="42.631441" lon="0.656538">
        <ele>3369.3</ele>
        <time>1970-01-01T05:24:06.000Z</time>
      </trkpt>
      <trkpt lat="42.631441" lon="0.656538">
        <ele>3369.3</ele>
        <time>1970-01-01T05:24:07.000Z</time>
      </trkpt>
      <trkpt lat="42.631441" lon="0.656538">
        <ele>3369.3</ele>
        <time>1970-01-01T05:24:08.000Z</time>
      </trkpt>
      <trkpt lat="42.631443" lon="0.656539">
        <ele>3369.2</ele>
        <time>1970-01-01T05:24:09.000Z</time>
      </trkpt>
      <trkpt lat="42.631445" lon="0.65654">
        <ele>3369.2</ele>
        <time>1970-01-01T05:24:10.000Z</time>
      </trkpt>
      <trkpt lat="42.631447" lon="0.656541">
        <ele>3369.2</ele>
        <time>1970-01-01T05:24:11.000Z</time>
      </trkpt>
      <trkpt lat="42.631448" lon="0.656538">
        <ele>3369.1</ele>
        <time>1970-01-01T05:24:12.000Z</time>
      </trkpt>
      <trkpt lat="42.631448" lon="0.656533">
        <ele>3369.1</ele>
        <time>1970-01-01T05:24:13.000Z</time>
      </trkpt>
      <trkpt lat="42.631449" lon="0.656529">
        <ele>3369</ele>
        <time>1970-01-01T05:24:14.000Z</time>
      </trkpt>
      <trkpt lat="42.63145" lon="0.656527">
        <ele>3369</ele>
        <time>1970-01-01T05:24:15.000Z</time>
      </trkpt>
      <trkpt lat="42.631451" lon="0.656525">
        <ele>3369</ele>
        <time>1970-01-01T05:24:16.000Z</time>
      </trkpt>
      <trkpt lat="42.631453" lon="0.656525">
        <ele>3368.9</ele>
        <time>1970-01-01T05:24:17.000Z</time>
      </trkpt>
      <trkpt lat="42.631454" lon="0.656523">
        <ele>3368.9</ele>
        <time>1970-01-01T05:24:18.000Z</time>
      </trkpt>
      <trkpt lat="42.631455" lon="0.656522">
        <ele>3368.9</ele>
        <time>1970-01-01T05:24:19.000Z</time>
      </trkpt>
      <trkpt lat="42.631456" lon="0.656521">
        <ele>3368.9</ele>
        <time>1970-01-01T05:24:20.000Z</time>
      </trkpt>
      <trkpt lat="42.631457" lon="0.65652">
        <ele>3368.9</ele>
        <time>1970-01-01T05:24:21.000Z</time>
      </trkpt>
      <trkpt lat="42.631457" lon="0.65652">
        <ele>3368.9</ele>
        <time>1970-01-01T05:24:22.000Z</time>
      </trkpt>
      <trkpt lat="42.631458" lon="0.656519">
        <ele>3368.8</ele>
        <time>1970-01-01T05:24:23.000Z</time>
      </trkpt>
      <trkpt lat="42.631458" lon="0.656518">
        <ele>3368.8</ele>
        <time>1970-01-01T05:24:24.000Z</time>
      </trkpt>
      <trkpt lat="42.631459" lon="0.656518">
        <ele>3368.8</ele>
        <time>1970-01-01T05:24:25.000Z</time>
      </trkpt>
      <trkpt lat="42.63146" lon="0.656518">
        <ele>3368.8</ele>
        <time>1970-01-01T05:24:26.000Z</time>
      </trkpt>
      <trkpt lat="42.631459" lon="0.656518">
        <ele>3368.8</ele>
        <time>1970-01-01T05:24:27.000Z</time>
      </trkpt>
      <trkpt lat="42.631459" lon="0.656518">
        <ele>3368.8</ele>
        <time>1970-01-01T05:24:28.000Z</time>
      </trkpt>
      <trkpt lat="42.631459" lon="0.656518">
        <ele>3368.8</ele>
        <time>1970-01-01T05:24:29.000Z</time>
      </trkpt>
      <trkpt lat="42.631459" lon="0.656518">
        <ele>3368.8</ele>
        <time>1970-01-01T05:24:30.000Z</time>
      </trkpt>
      <trkpt lat="42.631459" lon="0.656518">
        <ele>3368.8</ele>
        <time>1970-01-01T05:24:31.000Z</time>
      </trkpt>
      <trkpt lat="42.631459" lon="0.656518">
        <ele>3368.8</ele>
        <time>1970-01-01T05:24:32.000Z</time>
      </trkpt>
      <trkpt lat="42.63146" lon="0.656518">
        <ele>3368.8</ele>
        <time>1970-01-01T05:24:33.000Z</time>
      </trkpt>
      <trkpt lat="42.63146" lon="0.656519">
        <ele>3368.8</ele>
        <time>1970-01-01T05:24:34.000Z</time>
      </trkpt>
      <trkpt lat="42.631461" lon="0.65652">
        <ele>3368.7</ele>
        <time>1970-01-01T05:24:35.000Z</time>
      </trkpt>
      <trkpt lat="42.631461" lon="0.65652">
        <ele>3368.7</ele>
        <time>1970-01-01T05:24:36.000Z</time>
      </trkpt>
      <trkpt lat="42.631461" lon="0.65652">
        <ele>3368.7</ele>
        <time>1970-01-01T05:24:37.000Z</time>
      </trkpt>
      <trkpt lat="42.631459" lon="0.656521">
        <ele>3368.7</ele>
        <time>1970-01-01T05:24:38.000Z</time>
      </trkpt>
      <trkpt lat="42.631461" lon="0.65652">
        <ele>3368.7</ele>
        <time>1970-01-01T05:24:39.000Z</time>
      </trkpt>
      <trkpt lat="42.631462" lon="0.65652">
        <ele>3368.7</ele>
        <time>1970-01-01T05:24:40.000Z</time>
      </trkpt>
      <trkpt lat="42.631462" lon="0.656519">
        <ele>3368.7</ele>
        <time>1970-01-01T05:24:41.000Z</time>
      </trkpt>
      <trkpt lat="42.63146" lon="0.656521">
        <ele>3368.6</ele>
        <time>1970-01-01T05:24:42.000Z</time>
      </trkpt>
      <trkpt lat="42.631458" lon="0.656521">
        <ele>3368.6</ele>
        <time>1970-01-01T05:24:43.000Z</time>
      </trkpt>
      <trkpt lat="42.631457" lon="0.656522">
        <ele>3368.6</ele>
        <time>1970-01-01T05:24:44.000Z</time>
      </trkpt>
      <trkpt lat="42.631457" lon="0.656522">
        <ele>3368.6</ele>
        <time>1970-01-01T05:24:45.000Z</time>
      </trkpt>
      <trkpt lat="42.631456" lon="0.656522">
        <ele>3368.6</ele>
        <time>1970-01-01T05:24:46.000Z</time>
      </trkpt>
      <trkpt lat="42.631456" lon="0.656522">
        <ele>3368.6</ele>
        <time>1970-01-01T05:24:47.000Z</time>
      </trkpt>
      <trkpt lat="42.631456" lon="0.656522">
        <ele>3368.6</ele>
        <time>1970-01-01T05:24:48.000Z</time>
      </trkpt>
      <trkpt lat="42.631456" lon="0.656522">
        <ele>3368.6</ele>
        <time>1970-01-01T05:24:49.000Z</time>
      </trkpt>
      <trkpt lat="42.631457" lon="0.656522">
        <ele>3368.5</ele>
        <time>1970-01-01T05:24:50.000Z</time>
      </trkpt>
      <trkpt lat="42.631457" lon="0.656522">
        <ele>3368.5</ele>
        <time>1970-01-01T05:24:51.000Z</time>
      </trkpt>
      <trkpt lat="42.631457" lon="0.656522">
        <ele>3368.5</ele>
        <time>1970-01-01T05:24:52.000Z</time>
      </trkpt>
      <trkpt lat="42.631457" lon="0.656522">
        <ele>3368.5</ele>
        <time>1970-01-01T05:24:53.000Z</time>
      </trkpt>
      <trkpt lat="42.631457" lon="0.656522">
        <ele>3368.5</ele>
        <time>1970-01-01T05:24:54.000Z</time>
      </trkpt>
      <trkpt lat="42.631457" lon="0.656522">
        <ele>3368.5</ele>
        <time>1970-01-01T05:24:55.000Z</time>
      </trkpt>
      <trkpt lat="42.631457" lon="0.656522">
        <ele>3368.5</ele>
        <time>1970-01-01T05:24:56.000Z</time>
      </trkpt>
      <trkpt lat="42.631457" lon="0.656522">
        <ele>3368.5</ele>
        <time>1970-01-01T05:24:57.000Z</time>
      </trkpt>
      <trkpt lat="42.631457" lon="0.656522">
        <ele>3368.5</ele>
        <time>1970-01-01T05:24:58.000Z</time>
      </trkpt>
      <trkpt lat="42.631456" lon="0.656522">
        <ele>3368.5</ele>
        <time>1970-01-01T05:24:59.000Z</time>
      </trkpt>
      <trkpt lat="42.631456" lon="0.656522">
        <ele>3368.5</ele>
        <time>1970-01-01T05:25:00.000Z</time>
      </trkpt>
      <trkpt lat="42.631456" lon="0.656522">
        <ele>3368.5</ele>
        <time>1970-01-01T05:25:01.000Z</time>
      </trkpt>
      <trkpt lat="42.631456" lon="0.656522">
        <ele>3368.5</ele>
        <time>1970-01-01T05:25:02.000Z</time>
      </trkpt>
      <trkpt lat="42.631456" lon="0.656522">
        <ele>3368.5</ele>
        <time>1970-01-01T05:25:03.000Z</time>
      </trkpt>
      <trkpt lat="42.631456" lon="0.656522">
        <ele>3368.5</ele>
        <time>1970-01-01T05:25:04.000Z</time>
      </trkpt>
      <trkpt lat="42.631456" lon="0.656522">
        <ele>3368.5</ele>
        <time>1970-01-01T05:25:05.000Z</time>
      </trkpt>
      <trkpt lat="42.631456" lon="0.656522">
        <ele>3368.5</ele>
        <time>1970-01-01T05:25:06.000Z</time>
      </trkpt>
      <trkpt lat="42.631456" lon="0.656522">
        <ele>3368.5</ele>
        <time>1970-01-01T05:25:07.000Z</time>
      </trkpt>
      <trkpt lat="42.631456" lon="0.656522">
        <ele>3368.5</ele>
        <time>1970-01-01T05:25:08.000Z</time>
      </trkpt>
      <trkpt lat="42.631456" lon="0.656522">
        <ele>3368.5</ele>
        <time>1970-01-01T05:25:09.000Z</time>
      </trkpt>
      <trkpt lat="42.631456" lon="0.656522">
        <ele>3368.5</ele>
        <time>1970-01-01T05:25:10.000Z</time>
      </trkpt>
      <trkpt lat="42.631456" lon="0.656522">
        <ele>3368.5</ele>
        <time>1970-01-01T05:25:11.000Z</time>
      </trkpt>
      <trkpt lat="42.631456" lon="0.656522">
        <ele>3368.5</ele>
        <time>1970-01-01T05:25:12.000Z</time>
      </trkpt>
      <trkpt lat="42.631456" lon="0.656522">
        <ele>3368.5</ele>
        <time>1970-01-01T05:25:13.000Z</time>
      </trkpt>
      <trkpt lat="42.631458" lon="0.656523">
        <ele>3368.5</ele>
        <time>1970-01-01T05:25:14.000Z</time>
      </trkpt>
      <trkpt lat="42.631458" lon="0.656523">
        <ele>3368.5</ele>
        <time>1970-01-01T05:25:15.000Z</time>
      </trkpt>
      <trkpt lat="42.631459" lon="0.656523">
        <ele>3368.5</ele>
        <time>1970-01-01T05:25:16.000Z</time>
      </trkpt>
      <trkpt lat="42.631459" lon="0.656522">
        <ele>3368.5</ele>
        <time>1970-01-01T05:25:17.000Z</time>
      </trkpt>
      <trkpt lat="42.631458" lon="0.656522">
        <ele>3368.5</ele>
        <time>1970-01-01T05:25:18.000Z</time>
      </trkpt>
      <trkpt lat="42.63146" lon="0.656523">
        <ele>3368.4</ele>
        <time>1970-01-01T05:25:19.000Z</time>
      </trkpt>
      <trkpt lat="42.631461" lon="0.656525">
        <ele>3368.4</ele>
        <time>1970-01-01T05:25:20.000Z</time>
      </trkpt>
      <trkpt lat="42.63146" lon="0.656519">
        <ele>3368.3</ele>
        <time>1970-01-01T05:25:21.000Z</time>
      </trkpt>
      <trkpt lat="42.631459" lon="0.656517">
        <ele>3368.3</ele>
        <time>1970-01-01T05:25:22.000Z</time>
      </trkpt>
      <trkpt lat="42.631459" lon="0.656517">
        <ele>3368.3</ele>
        <time>1970-01-01T05:25:23.000Z</time>
      </trkpt>
      <trkpt lat="42.63146" lon="0.656517">
        <ele>3368.3</ele>
        <time>1970-01-01T05:25:24.000Z</time>
      </trkpt>
      <trkpt lat="42.631461" lon="0.656517">
        <ele>3368.3</ele>
        <time>1970-01-01T05:25:25.000Z</time>
      </trkpt>
      <trkpt lat="42.631462" lon="0.656518">
        <ele>3368.3</ele>
        <time>1970-01-01T05:25:26.000Z</time>
      </trkpt>
      <trkpt lat="42.631462" lon="0.656519">
        <ele>3368.2</ele>
        <time>1970-01-01T05:25:27.000Z</time>
      </trkpt>
      <trkpt lat="42.631462" lon="0.656519">
        <ele>3368.2</ele>
        <time>1970-01-01T05:25:28.000Z</time>
      </trkpt>
      <trkpt lat="42.631462" lon="0.65652">
        <ele>3368.2</ele>
        <time>1970-01-01T05:25:29.000Z</time>
      </trkpt>
      <trkpt lat="42.631463" lon="0.65652">
        <ele>3368.2</ele>
        <time>1970-01-01T05:25:30.000Z</time>
      </trkpt>
      <trkpt lat="42.631463" lon="0.65652">
        <ele>3368.2</ele>
        <time>1970-01-01T05:25:31.000Z</time>
      </trkpt>
      <trkpt lat="42.631464" lon="0.65652">
        <ele>3368.2</ele>
        <time>1970-01-01T05:25:32.000Z</time>
      </trkpt>
      <trkpt lat="42.631463" lon="0.65652">
        <ele>3368.2</ele>
        <time>1970-01-01T05:25:33.000Z</time>
      </trkpt>
      <trkpt lat="42.631464" lon="0.65652">
        <ele>3368.2</ele>
        <time>1970-01-01T05:25:34.000Z</time>
      </trkpt>
      <trkpt lat="42.631464" lon="0.65652">
        <ele>3368.2</ele>
        <time>1970-01-01T05:25:35.000Z</time>
      </trkpt>
      <trkpt lat="42.631464" lon="0.65652">
        <ele>3368.2</ele>
        <time>1970-01-01T05:25:36.000Z</time>
      </trkpt>
      <trkpt lat="42.631465" lon="0.65652">
        <ele>3368.2</ele>
        <time>1970-01-01T05:25:37.000Z</time>
      </trkpt>
      <trkpt lat="42.631465" lon="0.65652">
        <ele>3368.2</ele>
        <time>1970-01-01T05:25:38.000Z</time>
      </trkpt>
      <trkpt lat="42.631465" lon="0.65652">
        <ele>3368.2</ele>
        <time>1970-01-01T05:25:39.000Z</time>
      </trkpt>
      <trkpt lat="42.631465" lon="0.65652">
        <ele>3368.2</ele>
        <time>1970-01-01T05:25:40.000Z</time>
      </trkpt>
      <trkpt lat="42.631462" lon="0.656521">
        <ele>3368.1</ele>
        <time>1970-01-01T05:25:41.000Z</time>
      </trkpt>
      <trkpt lat="42.631461" lon="0.656521">
        <ele>3368.1</ele>
        <time>1970-01-01T05:25:42.000Z</time>
      </trkpt>
      <trkpt lat="42.63146" lon="0.656521">
        <ele>3368.1</ele>
        <time>1970-01-01T05:25:43.000Z</time>
      </trkpt>
      <trkpt lat="42.63146" lon="0.656522">
        <ele>3368.1</ele>
        <time>1970-01-01T05:25:44.000Z</time>
      </trkpt>
      <trkpt lat="42.631461" lon="0.656522">
        <ele>3368.1</ele>
        <time>1970-01-01T05:25:45.000Z</time>
      </trkpt>
      <trkpt lat="42.631461" lon="0.656522">
        <ele>3368.1</ele>
        <time>1970-01-01T05:25:46.000Z</time>
      </trkpt>
      <trkpt lat="42.631462" lon="0.656522">
        <ele>3368.1</ele>
        <time>1970-01-01T05:25:47.000Z</time>
      </trkpt>
      <trkpt lat="42.631462" lon="0.656522">
        <ele>3368.1</ele>
        <time>1970-01-01T05:25:48.000Z</time>
      </trkpt>
      <trkpt lat="42.631461" lon="0.656522">
        <ele>3368</ele>
        <time>1970-01-01T05:25:49.000Z</time>
      </trkpt>
      <trkpt lat="42.631461" lon="0.656522">
        <ele>3368</ele>
        <time>1970-01-01T05:25:50.000Z</time>
      </trkpt>
      <trkpt lat="42.631461" lon="0.656522">
        <ele>3368</ele>
        <time>1970-01-01T05:25:51.000Z</time>
      </trkpt>
      <trkpt lat="42.631461" lon="0.656522">
        <ele>3368</ele>
        <time>1970-01-01T05:25:52.000Z</time>
      </trkpt>
      <trkpt lat="42.631461" lon="0.656522">
        <ele>3368</ele>
        <time>1970-01-01T05:25:53.000Z</time>
      </trkpt>
      <trkpt lat="42.631461" lon="0.656522">
        <ele>3368</ele>
        <time>1970-01-01T05:25:54.000Z</time>
      </trkpt>
      <trkpt lat="42.631461" lon="0.656522">
        <ele>3368</ele>
        <time>1970-01-01T05:25:55.000Z</time>
      </trkpt>
      <trkpt lat="42.631461" lon="0.656522">
        <ele>3368</ele>
        <time>1970-01-01T05:25:56.000Z</time>
      </trkpt>
      <trkpt lat="42.631461" lon="0.656522">
        <ele>3368</ele>
        <time>1970-01-01T05:25:57.000Z</time>
      </trkpt>
      <trkpt lat="42.631461" lon="0.656522">
        <ele>3368</ele>
        <time>1970-01-01T05:25:58.000Z</time>
      </trkpt>
      <trkpt lat="42.631461" lon="0.656522">
        <ele>3368</ele>
        <time>1970-01-01T05:25:59.000Z</time>
      </trkpt>
      <trkpt lat="42.631461" lon="0.656522">
        <ele>3368</ele>
        <time>1970-01-01T05:26:00.000Z</time>
      </trkpt>
      <trkpt lat="42.631461" lon="0.656523">
        <ele>3368</ele>
        <time>1970-01-01T05:26:01.000Z</time>
      </trkpt>
      <trkpt lat="42.631463" lon="0.656518">
        <ele>3368</ele>
        <time>1970-01-01T05:26:02.000Z</time>
      </trkpt>
      <trkpt lat="42.631464" lon="0.656517">
        <ele>3368</ele>
        <time>1970-01-01T05:26:03.000Z</time>
      </trkpt>
      <trkpt lat="42.631464" lon="0.656515">
        <ele>3367.9</ele>
        <time>1970-01-01T05:26:04.000Z</time>
      </trkpt>
      <trkpt lat="42.631464" lon="0.656514">
        <ele>3367.9</ele>
        <time>1970-01-01T05:26:05.000Z</time>
      </trkpt>
      <trkpt lat="42.631466" lon="0.656512">
        <ele>3367.9</ele>
        <time>1970-01-01T05:26:06.000Z</time>
      </trkpt>
      <trkpt lat="42.631466" lon="0.656509">
        <ele>3367.9</ele>
        <time>1970-01-01T05:26:08.000Z</time>
      </trkpt>
      <trkpt lat="42.631466" lon="0.656508">
        <ele>3367.9</ele>
        <time>1970-01-01T05:26:09.000Z</time>
      </trkpt>
      <trkpt lat="42.631465" lon="0.656503">
        <ele>3367.8</ele>
        <time>1970-01-01T05:26:10.000Z</time>
      </trkpt>
      <trkpt lat="42.631466" lon="0.656501">
        <ele>3367.8</ele>
        <time>1970-01-01T05:26:11.000Z</time>
      </trkpt>
      <trkpt lat="42.631467" lon="0.656499">
        <ele>3367.8</ele>
        <time>1970-01-01T05:26:12.000Z</time>
      </trkpt>
      <trkpt lat="42.631467" lon="0.656497">
        <ele>3367.7</ele>
        <time>1970-01-01T05:26:13.000Z</time>
      </trkpt>
      <trkpt lat="42.631467" lon="0.656496">
        <ele>3367.7</ele>
        <time>1970-01-01T05:26:14.000Z</time>
      </trkpt>
      <trkpt lat="42.631467" lon="0.656496">
        <ele>3367.7</ele>
        <time>1970-01-01T05:26:15.000Z</time>
      </trkpt>
      <trkpt lat="42.631467" lon="0.656495">
        <ele>3367.7</ele>
        <time>1970-01-01T05:26:16.000Z</time>
      </trkpt>
      <trkpt lat="42.631466" lon="0.656495">
        <ele>3367.7</ele>
        <time>1970-01-01T05:26:17.000Z</time>
      </trkpt>
      <trkpt lat="42.631466" lon="0.656495">
        <ele>3367.7</ele>
        <time>1970-01-01T05:26:18.000Z</time>
      </trkpt>
      <trkpt lat="42.631465" lon="0.656494">
        <ele>3367.7</ele>
        <time>1970-01-01T05:26:20.000Z</time>
      </trkpt>
      <trkpt lat="42.631465" lon="0.656493">
        <ele>3367.7</ele>
        <time>1970-01-01T05:26:21.000Z</time>
      </trkpt>
      <trkpt lat="42.631465" lon="0.656492">
        <ele>3367.7</ele>
        <time>1970-01-01T05:26:22.000Z</time>
      </trkpt>
      <trkpt lat="42.631465" lon="0.656491">
        <ele>3367.7</ele>
        <time>1970-01-01T05:26:23.000Z</time>
      </trkpt>
      <trkpt lat="42.631465" lon="0.656491">
        <ele>3367.7</ele>
        <time>1970-01-01T05:26:24.000Z</time>
      </trkpt>
      <trkpt lat="42.631465" lon="0.65649">
        <ele>3367.7</ele>
        <time>1970-01-01T05:26:25.000Z</time>
      </trkpt>
      <trkpt lat="42.631466" lon="0.656489">
        <ele>3367.6</ele>
        <time>1970-01-01T05:26:26.000Z</time>
      </trkpt>
      <trkpt lat="42.631466" lon="0.656489">
        <ele>3367.6</ele>
        <time>1970-01-01T05:26:27.000Z</time>
      </trkpt>
      <trkpt lat="42.631464" lon="0.656493">
        <ele>3367.6</ele>
        <time>1970-01-01T05:26:28.000Z</time>
      </trkpt>
      <trkpt lat="42.631462" lon="0.656495">
        <ele>3367.6</ele>
        <time>1970-01-01T05:26:29.000Z</time>
      </trkpt>
      <trkpt lat="42.631462" lon="0.656497">
        <ele>3367.5</ele>
        <time>1970-01-01T05:26:30.000Z</time>
      </trkpt>
      <trkpt lat="42.631461" lon="0.656498">
        <ele>3367.5</ele>
        <time>1970-01-01T05:26:31.000Z</time>
      </trkpt>
      <trkpt lat="42.631461" lon="0.656498">
        <ele>3367.5</ele>
        <time>1970-01-01T05:26:32.000Z</time>
      </trkpt>
      <trkpt lat="42.631461" lon="0.656498">
        <ele>3367.5</ele>
        <time>1970-01-01T05:26:33.000Z</time>
      </trkpt>
      <trkpt lat="42.631461" lon="0.656498">
        <ele>3367.5</ele>
        <time>1970-01-01T05:26:34.000Z</time>
      </trkpt>
      <trkpt lat="42.631461" lon="0.656498">
        <ele>3367.5</ele>
        <time>1970-01-01T05:26:35.000Z</time>
      </trkpt>
      <trkpt lat="42.631461" lon="0.656498">
        <ele>3367.5</ele>
        <time>1970-01-01T05:26:36.000Z</time>
      </trkpt>
      <trkpt lat="42.631461" lon="0.656498">
        <ele>3367.5</ele>
        <time>1970-01-01T05:26:37.000Z</time>
      </trkpt>
      <trkpt lat="42.631461" lon="0.656498">
        <ele>3367.5</ele>
        <time>1970-01-01T05:26:38.000Z</time>
      </trkpt>
      <trkpt lat="42.631461" lon="0.656498">
        <ele>3367.5</ele>
        <time>1970-01-01T05:26:39.000Z</time>
      </trkpt>
      <trkpt lat="42.631461" lon="0.656498">
        <ele>3367.5</ele>
        <time>1970-01-01T05:26:40.000Z</time>
      </trkpt>
      <trkpt lat="42.631461" lon="0.656498">
        <ele>3367.5</ele>
        <time>1970-01-01T05:26:41.000Z</time>
      </trkpt>
      <trkpt lat="42.631461" lon="0.656498">
        <ele>3367.5</ele>
        <time>1970-01-01T05:26:42.000Z</time>
      </trkpt>
      <trkpt lat="42.631461" lon="0.656498">
        <ele>3367.5</ele>
        <time>1970-01-01T05:26:43.000Z</time>
      </trkpt>
      <trkpt lat="42.631461" lon="0.656498">
        <ele>3367.5</ele>
        <time>1970-01-01T05:26:44.000Z</time>
      </trkpt>
      <trkpt lat="42.631461" lon="0.656498">
        <ele>3367.5</ele>
        <time>1970-01-01T05:26:45.000Z</time>
      </trkpt>
      <trkpt lat="42.631461" lon="0.656498">
        <ele>3367.5</ele>
        <time>1970-01-01T05:26:46.000Z</time>
      </trkpt>
      <trkpt lat="42.631461" lon="0.656498">
        <ele>3367.5</ele>
        <time>1970-01-01T05:26:47.000Z</time>
      </trkpt>
      <trkpt lat="42.631461" lon="0.656498">
        <ele>3367.5</ele>
        <time>1970-01-01T05:26:48.000Z</time>
      </trkpt>
      <trkpt lat="42.631461" lon="0.656498">
        <ele>3367.5</ele>
        <time>1970-01-01T05:26:49.000Z</time>
      </trkpt>
      <trkpt lat="42.631461" lon="0.656498">
        <ele>3367.5</ele>
        <time>1970-01-01T05:26:50.000Z</time>
      </trkpt>
      <trkpt lat="42.631461" lon="0.656498">
        <ele>3367.5</ele>
        <time>1970-01-01T05:26:51.000Z</time>
      </trkpt>
      <trkpt lat="42.631461" lon="0.656498">
        <ele>3367.5</ele>
        <time>1970-01-01T05:26:52.000Z</time>
      </trkpt>
      <trkpt lat="42.631461" lon="0.656498">
        <ele>3367.5</ele>
        <time>1970-01-01T05:26:53.000Z</time>
      </trkpt>
      <trkpt lat="42.631461" lon="0.656498">
        <ele>3367.5</ele>
        <time>1970-01-01T05:26:54.000Z</time>
      </trkpt>
      <trkpt lat="42.631461" lon="0.656498">
        <ele>3367.5</ele>
        <time>1970-01-01T05:26:55.000Z</time>
      </trkpt>
      <trkpt lat="42.631461" lon="0.656498">
        <ele>3367.5</ele>
        <time>1970-01-01T05:26:56.000Z</time>
      </trkpt>
      <trkpt lat="42.631461" lon="0.656498">
        <ele>3367.5</ele>
        <time>1970-01-01T05:26:57.000Z</time>
      </trkpt>
      <trkpt lat="42.631461" lon="0.656498">
        <ele>3367.5</ele>
        <time>1970-01-01T05:26:58.000Z</time>
      </trkpt>
      <trkpt lat="42.631461" lon="0.656498">
        <ele>3367.5</ele>
        <time>1970-01-01T05:26:59.000Z</time>
      </trkpt>
      <trkpt lat="42.631461" lon="0.656498">
        <ele>3367.5</ele>
        <time>1970-01-01T05:27:00.000Z</time>
      </trkpt>
      <trkpt lat="42.631461" lon="0.656498">
        <ele>3367.5</ele>
        <time>1970-01-01T05:27:01.000Z</time>
      </trkpt>
      <trkpt lat="42.631461" lon="0.656498">
        <ele>3367.5</ele>
        <time>1970-01-01T05:27:02.000Z</time>
      </trkpt>
      <trkpt lat="42.631461" lon="0.656498">
        <ele>3367.5</ele>
        <time>1970-01-01T05:27:03.000Z</time>
      </trkpt>
      <trkpt lat="42.631461" lon="0.656498">
        <ele>3367.5</ele>
        <time>1970-01-01T05:27:04.000Z</time>
      </trkpt>
      <trkpt lat="42.631461" lon="0.656498">
        <ele>3367.5</ele>
        <time>1970-01-01T05:27:05.000Z</time>
      </trkpt>
      <trkpt lat="42.631461" lon="0.656498">
        <ele>3367.5</ele>
        <time>1970-01-01T05:27:06.000Z</time>
      </trkpt>
      <trkpt lat="42.631461" lon="0.656498">
        <ele>3367.5</ele>
        <time>1970-01-01T05:27:07.000Z</time>
      </trkpt>
      <trkpt lat="42.631461" lon="0.656498">
        <ele>3367.5</ele>
        <time>1970-01-01T05:27:08.000Z</time>
      </trkpt>
      <trkpt lat="42.631461" lon="0.656498">
        <ele>3367.5</ele>
        <time>1970-01-01T05:27:09.000Z</time>
      </trkpt>
      <trkpt lat="42.631461" lon="0.656498">
        <ele>3367.5</ele>
        <time>1970-01-01T05:27:10.000Z</time>
      </trkpt>
      <trkpt lat="42.631461" lon="0.656498">
        <ele>3367.5</ele>
        <time>1970-01-01T05:27:11.000Z</time>
      </trkpt>
      <trkpt lat="42.631461" lon="0.656499">
        <ele>3367.5</ele>
        <time>1970-01-01T05:27:12.000Z</time>
      </trkpt>
      <trkpt lat="42.631463" lon="0.6565">
        <ele>3367.5</ele>
        <time>1970-01-01T05:27:13.000Z</time>
      </trkpt>
      <trkpt lat="42.631465" lon="0.656501">
        <ele>3367.4</ele>
        <time>1970-01-01T05:27:14.000Z</time>
      </trkpt>
      <trkpt lat="42.631466" lon="0.656502">
        <ele>3367.4</ele>
        <time>1970-01-01T05:27:15.000Z</time>
      </trkpt>
      <trkpt lat="42.631467" lon="0.656503">
        <ele>3367.4</ele>
        <time>1970-01-01T05:27:16.000Z</time>
      </trkpt>
      <trkpt lat="42.631467" lon="0.656503">
        <ele>3367.4</ele>
        <time>1970-01-01T05:27:17.000Z</time>
      </trkpt>
      <trkpt lat="42.631467" lon="0.656503">
        <ele>3367.4</ele>
        <time>1970-01-01T05:27:18.000Z</time>
      </trkpt>
      <trkpt lat="42.631467" lon="0.656503">
        <ele>3367.4</ele>
        <time>1970-01-01T05:27:19.000Z</time>
      </trkpt>
      <trkpt lat="42.631466" lon="0.6565">
        <ele>3367.4</ele>
        <time>1970-01-01T05:27:20.000Z</time>
      </trkpt>
      <trkpt lat="42.631467" lon="0.656498">
        <ele>3367.4</ele>
        <time>1970-01-01T05:27:21.000Z</time>
      </trkpt>
      <trkpt lat="42.631467" lon="0.656498">
        <ele>3367.4</ele>
        <time>1970-01-01T05:27:22.000Z</time>
      </trkpt>
      <trkpt lat="42.631467" lon="0.656498">
        <ele>3367.4</ele>
        <time>1970-01-01T05:27:23.000Z</time>
      </trkpt>
      <trkpt lat="42.631467" lon="0.656498">
        <ele>3367.4</ele>
        <time>1970-01-01T05:27:24.000Z</time>
      </trkpt>
      <trkpt lat="42.631468" lon="0.656499">
        <ele>3367.3</ele>
        <time>1970-01-01T05:27:25.000Z</time>
      </trkpt>
      <trkpt lat="42.631468" lon="0.656499">
        <ele>3367.3</ele>
        <time>1970-01-01T05:27:26.000Z</time>
      </trkpt>
      <trkpt lat="42.631468" lon="0.656499">
        <ele>3367.3</ele>
        <time>1970-01-01T05:27:27.000Z</time>
      </trkpt>
      <trkpt lat="42.631468" lon="0.656498">
        <ele>3367.3</ele>
        <time>1970-01-01T05:27:29.000Z</time>
      </trkpt>
      <trkpt lat="42.631468" lon="0.656498">
        <ele>3367.3</ele>
        <time>1970-01-01T05:27:30.000Z</time>
      </trkpt>
      <trkpt lat="42.631468" lon="0.656497">
        <ele>3367.3</ele>
        <time>1970-01-01T05:27:31.000Z</time>
      </trkpt>
      <trkpt lat="42.631468" lon="0.656498">
        <ele>3367.3</ele>
        <time>1970-01-01T05:27:32.000Z</time>
      </trkpt>
      <trkpt lat="42.631469" lon="0.656498">
        <ele>3367.3</ele>
        <time>1970-01-01T05:27:33.000Z</time>
      </trkpt>
      <trkpt lat="42.631469" lon="0.656499">
        <ele>3367.3</ele>
        <time>1970-01-01T05:27:34.000Z</time>
      </trkpt>
      <trkpt lat="42.631469" lon="0.656499">
        <ele>3367.3</ele>
        <time>1970-01-01T05:27:35.000Z</time>
      </trkpt>
      <trkpt lat="42.63147" lon="0.656498">
        <ele>3367.3</ele>
        <time>1970-01-01T05:27:36.000Z</time>
      </trkpt>
      <trkpt lat="42.631471" lon="0.656498">
        <ele>3367.3</ele>
        <time>1970-01-01T05:27:37.000Z</time>
      </trkpt>
      <trkpt lat="42.631472" lon="0.656497">
        <ele>3367.2</ele>
        <time>1970-01-01T05:27:38.000Z</time>
      </trkpt>
      <trkpt lat="42.631473" lon="0.656497">
        <ele>3367.2</ele>
        <time>1970-01-01T05:27:39.000Z</time>
      </trkpt>
      <trkpt lat="42.631476" lon="0.656496">
        <ele>3367.2</ele>
        <time>1970-01-01T05:27:41.000Z</time>
      </trkpt>
      <trkpt lat="42.631477" lon="0.656495">
        <ele>3367.2</ele>
        <time>1970-01-01T05:27:42.000Z</time>
      </trkpt>
      <trkpt lat="42.631478" lon="0.656496">
        <ele>3367.2</ele>
        <time>1970-01-01T05:27:43.000Z</time>
      </trkpt>
      <trkpt lat="42.631479" lon="0.656496">
        <ele>3367.1</ele>
        <time>1970-01-01T05:27:44.000Z</time>
      </trkpt>
      <trkpt lat="42.63148" lon="0.656494">
        <ele>3367.1</ele>
        <time>1970-01-01T05:27:45.000Z</time>
      </trkpt>
      <trkpt lat="42.63148" lon="0.656491">
        <ele>3367.1</ele>
        <time>1970-01-01T05:27:46.000Z</time>
      </trkpt>
      <trkpt lat="42.63148" lon="0.656491">
        <ele>3367.1</ele>
        <time>1970-01-01T05:27:47.000Z</time>
      </trkpt>
      <trkpt lat="42.63148" lon="0.656491">
        <ele>3367.1</ele>
        <time>1970-01-01T05:27:48.000Z</time>
      </trkpt>
      <trkpt lat="42.63148" lon="0.65649">
        <ele>3367.1</ele>
        <time>1970-01-01T05:27:49.000Z</time>
      </trkpt>
      <trkpt lat="42.631481" lon="0.65649">
        <ele>3367.1</ele>
        <time>1970-01-01T05:27:50.000Z</time>
      </trkpt>
      <trkpt lat="42.631481" lon="0.65649">
        <ele>3367.1</ele>
        <time>1970-01-01T05:27:51.000Z</time>
      </trkpt>
      <trkpt lat="42.631481" lon="0.65649">
        <ele>3367.1</ele>
        <time>1970-01-01T05:27:52.000Z</time>
      </trkpt>
      <trkpt lat="42.631481" lon="0.65649">
        <ele>3367.1</ele>
        <time>1970-01-01T05:27:53.000Z</time>
      </trkpt>
      <trkpt lat="42.631481" lon="0.65649">
        <ele>3367.1</ele>
        <time>1970-01-01T05:27:54.000Z</time>
      </trkpt>
      <trkpt lat="42.63148" lon="0.656489">
        <ele>3367</ele>
        <time>1970-01-01T05:27:55.000Z</time>
      </trkpt>
      <trkpt lat="42.63148" lon="0.656488">
        <ele>3367</ele>
        <time>1970-01-01T05:27:56.000Z</time>
      </trkpt>
      <trkpt lat="42.63148" lon="0.656488">
        <ele>3367</ele>
        <time>1970-01-01T05:27:57.000Z</time>
      </trkpt>
      <trkpt lat="42.631482" lon="0.656489">
        <ele>3367</ele>
        <time>1970-01-01T05:27:58.000Z</time>
      </trkpt>
      <trkpt lat="42.631483" lon="0.65649">
        <ele>3367</ele>
        <time>1970-01-01T05:27:59.000Z</time>
      </trkpt>
      <trkpt lat="42.631484" lon="0.656491">
        <ele>3367</ele>
        <time>1970-01-01T05:28:00.000Z</time>
      </trkpt>
      <trkpt lat="42.631484" lon="0.656491">
        <ele>3367</ele>
        <time>1970-01-01T05:28:01.000Z</time>
      </trkpt>
      <trkpt lat="42.631484" lon="0.656491">
        <ele>3367</ele>
        <time>1970-01-01T05:28:02.000Z</time>
      </trkpt>
      <trkpt lat="42.631484" lon="0.656491">
        <ele>3367</ele>
        <time>1970-01-01T05:28:03.000Z</time>
      </trkpt>
      <trkpt lat="42.631484" lon="0.656491">
        <ele>3367</ele>
        <time>1970-01-01T05:28:04.000Z</time>
      </trkpt>
      <trkpt lat="42.631484" lon="0.656491">
        <ele>3367</ele>
        <time>1970-01-01T05:28:05.000Z</time>
      </trkpt>
      <trkpt lat="42.631484" lon="0.656491">
        <ele>3367</ele>
        <time>1970-01-01T05:28:06.000Z</time>
      </trkpt>
      <trkpt lat="42.631485" lon="0.656489">
        <ele>3367</ele>
        <time>1970-01-01T05:28:07.000Z</time>
      </trkpt>
      <trkpt lat="42.631485" lon="0.656488">
        <ele>3366.9</ele>
        <time>1970-01-01T05:28:08.000Z</time>
      </trkpt>
      <trkpt lat="42.631485" lon="0.656488">
        <ele>3366.9</ele>
        <time>1970-01-01T05:28:09.000Z</time>
      </trkpt>
      <trkpt lat="42.631485" lon="0.656488">
        <ele>3366.9</ele>
        <time>1970-01-01T05:28:10.000Z</time>
      </trkpt>
      <trkpt lat="42.631485" lon="0.656488">
        <ele>3366.9</ele>
        <time>1970-01-01T05:28:11.000Z</time>
      </trkpt>
      <trkpt lat="42.631485" lon="0.656488">
        <ele>3366.9</ele>
        <time>1970-01-01T05:28:12.000Z</time>
      </trkpt>
      <trkpt lat="42.631485" lon="0.656488">
        <ele>3366.9</ele>
        <time>1970-01-01T05:28:13.000Z</time>
      </trkpt>
      <trkpt lat="42.631486" lon="0.656487">
        <ele>3366.9</ele>
        <time>1970-01-01T05:28:14.000Z</time>
      </trkpt>
      <trkpt lat="42.631486" lon="0.656486">
        <ele>3366.9</ele>
        <time>1970-01-01T05:28:15.000Z</time>
      </trkpt>
      <trkpt lat="42.631486" lon="0.656486">
        <ele>3366.9</ele>
        <time>1970-01-01T05:28:16.000Z</time>
      </trkpt>
      <trkpt lat="42.631486" lon="0.656486">
        <ele>3366.9</ele>
        <time>1970-01-01T05:28:17.000Z</time>
      </trkpt>
      <trkpt lat="42.631485" lon="0.656486">
        <ele>3366.9</ele>
        <time>1970-01-01T05:28:18.000Z</time>
      </trkpt>
      <trkpt lat="42.631485" lon="0.656486">
        <ele>3366.9</ele>
        <time>1970-01-01T05:28:19.000Z</time>
      </trkpt>
      <trkpt lat="42.631485" lon="0.656486">
        <ele>3366.9</ele>
        <time>1970-01-01T05:28:20.000Z</time>
      </trkpt>
      <trkpt lat="42.631485" lon="0.656486">
        <ele>3366.9</ele>
        <time>1970-01-01T05:28:21.000Z</time>
      </trkpt>
      <trkpt lat="42.631485" lon="0.656486">
        <ele>3366.9</ele>
        <time>1970-01-01T05:28:22.000Z</time>
      </trkpt>
      <trkpt lat="42.631485" lon="0.656486">
        <ele>3366.9</ele>
        <time>1970-01-01T05:28:23.000Z</time>
      </trkpt>
      <trkpt lat="42.631486" lon="0.656488">
        <ele>3366.9</ele>
        <time>1970-01-01T05:28:24.000Z</time>
      </trkpt>
      <trkpt lat="42.631487" lon="0.656488">
        <ele>3366.9</ele>
        <time>1970-01-01T05:28:25.000Z</time>
      </trkpt>
      <trkpt lat="42.631487" lon="0.656487">
        <ele>3366.9</ele>
        <time>1970-01-01T05:28:26.000Z</time>
      </trkpt>
      <trkpt lat="42.631488" lon="0.656486">
        <ele>3366.9</ele>
        <time>1970-01-01T05:28:27.000Z</time>
      </trkpt>
      <trkpt lat="42.631488" lon="0.656485">
        <ele>3366.8</ele>
        <time>1970-01-01T05:28:28.000Z</time>
      </trkpt>
      <trkpt lat="42.631488" lon="0.656485">
        <ele>3366.8</ele>
        <time>1970-01-01T05:28:29.000Z</time>
      </trkpt>
      <trkpt lat="42.631488" lon="0.656485">
        <ele>3366.8</ele>
        <time>1970-01-01T05:28:30.000Z</time>
      </trkpt>
      <trkpt lat="42.631488" lon="0.656485">
        <ele>3366.8</ele>
        <time>1970-01-01T05:28:31.000Z</time>
      </trkpt>
      <trkpt lat="42.631488" lon="0.656485">
        <ele>3366.8</ele>
        <time>1970-01-01T05:28:32.000Z</time>
      </trkpt>
      <trkpt lat="42.631487" lon="0.656486">
        <ele>3366.8</ele>
        <time>1970-01-01T05:28:33.000Z</time>
      </trkpt>
      <trkpt lat="42.631486" lon="0.656488">
        <ele>3366.8</ele>
        <time>1970-01-01T05:28:34.000Z</time>
      </trkpt>
      <trkpt lat="42.631485" lon="0.656487">
        <ele>3366.8</ele>
        <time>1970-01-01T05:28:35.000Z</time>
      </trkpt>
      <trkpt lat="42.631485" lon="0.656485">
        <ele>3366.8</ele>
        <time>1970-01-01T05:28:36.000Z</time>
      </trkpt>
      <trkpt lat="42.631484" lon="0.656483">
        <ele>3366.8</ele>
        <time>1970-01-01T05:28:37.000Z</time>
      </trkpt>
      <trkpt lat="42.631485" lon="0.656482">
        <ele>3366.7</ele>
        <time>1970-01-01T05:28:38.000Z</time>
      </trkpt>
      <trkpt lat="42.631485" lon="0.656481">
        <ele>3366.7</ele>
        <time>1970-01-01T05:28:40.000Z</time>
      </trkpt>
      <trkpt lat="42.631486" lon="0.656481">
        <ele>3366.7</ele>
        <time>1970-01-01T05:28:41.000Z</time>
      </trkpt>
      <trkpt lat="42.631486" lon="0.656482">
        <ele>3366.7</ele>
        <time>1970-01-01T05:28:42.000Z</time>
      </trkpt>
      <trkpt lat="42.631486" lon="0.656481">
        <ele>3366.7</ele>
        <time>1970-01-01T05:28:43.000Z</time>
      </trkpt>
      <trkpt lat="42.631487" lon="0.656481">
        <ele>3366.7</ele>
        <time>1970-01-01T05:28:44.000Z</time>
      </trkpt>
      <trkpt lat="42.631487" lon="0.656481">
        <ele>3366.7</ele>
        <time>1970-01-01T05:28:45.000Z</time>
      </trkpt>
      <trkpt lat="42.631487" lon="0.656481">
        <ele>3366.7</ele>
        <time>1970-01-01T05:28:46.000Z</time>
      </trkpt>
      <trkpt lat="42.631487" lon="0.656481">
        <ele>3366.7</ele>
        <time>1970-01-01T05:28:47.000Z</time>
      </trkpt>
      <trkpt lat="42.631487" lon="0.656481">
        <ele>3366.7</ele>
        <time>1970-01-01T05:28:48.000Z</time>
      </trkpt>
      <trkpt lat="42.631487" lon="0.656479">
        <ele>3366.7</ele>
        <time>1970-01-01T05:28:50.000Z</time>
      </trkpt>
      <trkpt lat="42.631487" lon="0.65648">
        <ele>3366.7</ele>
        <time>1970-01-01T05:28:51.000Z</time>
      </trkpt>
      <trkpt lat="42.631487" lon="0.65648">
        <ele>3366.7</ele>
        <time>1970-01-01T05:28:52.000Z</time>
      </trkpt>
      <trkpt lat="42.631487" lon="0.65648">
        <ele>3366.7</ele>
        <time>1970-01-01T05:28:53.000Z</time>
      </trkpt>
      <trkpt lat="42.631487" lon="0.65648">
        <ele>3366.7</ele>
        <time>1970-01-01T05:28:54.000Z</time>
      </trkpt>
      <trkpt lat="42.631487" lon="0.656479">
        <ele>3366.7</ele>
        <time>1970-01-01T05:28:55.000Z</time>
      </trkpt>
      <trkpt lat="42.631487" lon="0.656478">
        <ele>3366.6</ele>
        <time>1970-01-01T05:28:57.000Z</time>
      </trkpt>
      <trkpt lat="42.631488" lon="0.656477">
        <ele>3366.6</ele>
        <time>1970-01-01T05:28:58.000Z</time>
      </trkpt>
      <trkpt lat="42.631489" lon="0.656476">
        <ele>3366.6</ele>
        <time>1970-01-01T05:28:59.000Z</time>
      </trkpt>
      <trkpt lat="42.631489" lon="0.656476">
        <ele>3366.6</ele>
        <time>1970-01-01T05:29:00.000Z</time>
      </trkpt>
      <trkpt lat="42.63149" lon="0.656475">
        <ele>3366.6</ele>
        <time>1970-01-01T05:29:02.000Z</time>
      </trkpt>
      <trkpt lat="42.631491" lon="0.656475">
        <ele>3366.6</ele>
        <time>1970-01-01T05:29:03.000Z</time>
      </trkpt>
      <trkpt lat="42.631491" lon="0.656475">
        <ele>3366.6</ele>
        <time>1970-01-01T05:29:04.000Z</time>
      </trkpt>
      <trkpt lat="42.631492" lon="0.656475">
        <ele>3366.6</ele>
        <time>1970-01-01T05:29:05.000Z</time>
      </trkpt>
      <trkpt lat="42.631492" lon="0.656475">
        <ele>3366.6</ele>
        <time>1970-01-01T05:29:06.000Z</time>
      </trkpt>
      <trkpt lat="42.631491" lon="0.656475">
        <ele>3366.6</ele>
        <time>1970-01-01T05:29:07.000Z</time>
      </trkpt>
      <trkpt lat="42.631491" lon="0.656476">
        <ele>3366.6</ele>
        <time>1970-01-01T05:29:08.000Z</time>
      </trkpt>
      <trkpt lat="42.631491" lon="0.656476">
        <ele>3366.6</ele>
        <time>1970-01-01T05:29:09.000Z</time>
      </trkpt>
      <trkpt lat="42.631491" lon="0.656477">
        <ele>3366.6</ele>
        <time>1970-01-01T05:29:10.000Z</time>
      </trkpt>
      <trkpt lat="42.631491" lon="0.656477">
        <ele>3366.6</ele>
        <time>1970-01-01T05:29:11.000Z</time>
      </trkpt>
      <trkpt lat="42.631491" lon="0.656477">
        <ele>3366.6</ele>
        <time>1970-01-01T05:29:12.000Z</time>
      </trkpt>
      <trkpt lat="42.631491" lon="0.656477">
        <ele>3366.6</ele>
        <time>1970-01-01T05:29:13.000Z</time>
      </trkpt>
      <trkpt lat="42.631491" lon="0.656477">
        <ele>3366.6</ele>
        <time>1970-01-01T05:29:14.000Z</time>
      </trkpt>
      <trkpt lat="42.631493" lon="0.65648">
        <ele>3366.5</ele>
        <time>1970-01-01T05:29:15.000Z</time>
      </trkpt>
      <trkpt lat="42.631493" lon="0.656482">
        <ele>3366.5</ele>
        <time>1970-01-01T05:29:16.000Z</time>
      </trkpt>
      <trkpt lat="42.631494" lon="0.656483">
        <ele>3366.5</ele>
        <time>1970-01-01T05:29:17.000Z</time>
      </trkpt>
      <trkpt lat="42.631494" lon="0.656483">
        <ele>3366.5</ele>
        <time>1970-01-01T05:29:18.000Z</time>
      </trkpt>
      <trkpt lat="42.631494" lon="0.656484">
        <ele>3366.5</ele>
        <time>1970-01-01T05:29:19.000Z</time>
      </trkpt>
      <trkpt lat="42.631494" lon="0.656483">
        <ele>3366.5</ele>
        <time>1970-01-01T05:29:20.000Z</time>
      </trkpt>
      <trkpt lat="42.631494" lon="0.656483">
        <ele>3366.5</ele>
        <time>1970-01-01T05:29:21.000Z</time>
      </trkpt>
      <trkpt lat="42.631494" lon="0.656483">
        <ele>3366.5</ele>
        <time>1970-01-01T05:29:22.000Z</time>
      </trkpt>
      <trkpt lat="42.631494" lon="0.656483">
        <ele>3366.5</ele>
        <time>1970-01-01T05:29:23.000Z</time>
      </trkpt>
      <trkpt lat="42.631494" lon="0.656483">
        <ele>3366.5</ele>
        <time>1970-01-01T05:29:24.000Z</time>
      </trkpt>
      <trkpt lat="42.631494" lon="0.656483">
        <ele>3366.5</ele>
        <time>1970-01-01T05:29:25.000Z</time>
      </trkpt>
      <trkpt lat="42.631494" lon="0.656483">
        <ele>3366.5</ele>
        <time>1970-01-01T05:29:26.000Z</time>
      </trkpt>
      <trkpt lat="42.631494" lon="0.656483">
        <ele>3366.5</ele>
        <time>1970-01-01T05:29:27.000Z</time>
      </trkpt>
      <trkpt lat="42.631494" lon="0.656483">
        <ele>3366.5</ele>
        <time>1970-01-01T05:29:28.000Z</time>
      </trkpt>
      <trkpt lat="42.631494" lon="0.656483">
        <ele>3366.5</ele>
        <time>1970-01-01T05:29:29.000Z</time>
      </trkpt>
      <trkpt lat="42.631494" lon="0.656483">
        <ele>3366.5</ele>
        <time>1970-01-01T05:29:30.000Z</time>
      </trkpt>
      <trkpt lat="42.631494" lon="0.656483">
        <ele>3366.5</ele>
        <time>1970-01-01T05:29:31.000Z</time>
      </trkpt>
      <trkpt lat="42.631494" lon="0.656483">
        <ele>3366.5</ele>
        <time>1970-01-01T05:29:32.000Z</time>
      </trkpt>
      <trkpt lat="42.631494" lon="0.656483">
        <ele>3366.5</ele>
        <time>1970-01-01T05:29:33.000Z</time>
      </trkpt>
      <trkpt lat="42.631493" lon="0.656482">
        <ele>3366.5</ele>
        <time>1970-01-01T05:29:34.000Z</time>
      </trkpt>
      <trkpt lat="42.631491" lon="0.656481">
        <ele>3366.4</ele>
        <time>1970-01-01T05:29:35.000Z</time>
      </trkpt>
      <trkpt lat="42.631491" lon="0.656481">
        <ele>3366.4</ele>
        <time>1970-01-01T05:29:36.000Z</time>
      </trkpt>
      <trkpt lat="42.63149" lon="0.65648">
        <ele>3366.4</ele>
        <time>1970-01-01T05:29:37.000Z</time>
      </trkpt>
      <trkpt lat="42.631491" lon="0.65648">
        <ele>3366.4</ele>
        <time>1970-01-01T05:29:38.000Z</time>
      </trkpt>
      <trkpt lat="42.631491" lon="0.656479">
        <ele>3366.4</ele>
        <time>1970-01-01T05:29:39.000Z</time>
      </trkpt>
      <trkpt lat="42.631491" lon="0.656478">
        <ele>3366.4</ele>
        <time>1970-01-01T05:29:40.000Z</time>
      </trkpt>
      <trkpt lat="42.631492" lon="0.656477">
        <ele>3366.4</ele>
        <time>1970-01-01T05:29:41.000Z</time>
      </trkpt>
      <trkpt lat="42.631492" lon="0.656476">
        <ele>3366.4</ele>
        <time>1970-01-01T05:29:42.000Z</time>
      </trkpt>
      <trkpt lat="42.631493" lon="0.656476">
        <ele>3366.3</ele>
        <time>1970-01-01T05:29:43.000Z</time>
      </trkpt>
      <trkpt lat="42.631494" lon="0.656476">
        <ele>3366.3</ele>
        <time>1970-01-01T05:29:44.000Z</time>
      </trkpt>
      <trkpt lat="42.631495" lon="0.656476">
        <ele>3366.3</ele>
        <time>1970-01-01T05:29:45.000Z</time>
      </trkpt>
      <trkpt lat="42.631495" lon="0.656476">
        <ele>3366.3</ele>
        <time>1970-01-01T05:29:46.000Z</time>
      </trkpt>
      <trkpt lat="42.631496" lon="0.656476">
        <ele>3366.3</ele>
        <time>1970-01-01T05:29:47.000Z</time>
      </trkpt>
      <trkpt lat="42.631497" lon="0.656477">
        <ele>3366.3</ele>
        <time>1970-01-01T05:29:48.000Z</time>
      </trkpt>
      <trkpt lat="42.631497" lon="0.656477">
        <ele>3366.3</ele>
        <time>1970-01-01T05:29:49.000Z</time>
      </trkpt>
      <trkpt lat="42.631497" lon="0.656478">
        <ele>3366.3</ele>
        <time>1970-01-01T05:29:50.000Z</time>
      </trkpt>
      <trkpt lat="42.631497" lon="0.656478">
        <ele>3366.3</ele>
        <time>1970-01-01T05:29:51.000Z</time>
      </trkpt>
      <trkpt lat="42.631498" lon="0.656478">
        <ele>3366.3</ele>
        <time>1970-01-01T05:29:52.000Z</time>
      </trkpt>
      <trkpt lat="42.631498" lon="0.656479">
        <ele>3366.3</ele>
        <time>1970-01-01T05:29:53.000Z</time>
      </trkpt>
      <trkpt lat="42.631498" lon="0.656479">
        <ele>3366.3</ele>
        <time>1970-01-01T05:29:54.000Z</time>
      </trkpt>
      <trkpt lat="42.631499" lon="0.656479">
        <ele>3366.3</ele>
        <time>1970-01-01T05:29:55.000Z</time>
      </trkpt>
      <trkpt lat="42.631499" lon="0.656479">
        <ele>3366.3</ele>
        <time>1970-01-01T05:29:56.000Z</time>
      </trkpt>
      <trkpt lat="42.631498" lon="0.656479">
        <ele>3366.2</ele>
        <time>1970-01-01T05:29:57.000Z</time>
      </trkpt>
      <trkpt lat="42.631496" lon="0.656481">
        <ele>3366.2</ele>
        <time>1970-01-01T05:29:58.000Z</time>
      </trkpt>
      <trkpt lat="42.631495" lon="0.656481">
        <ele>3366.2</ele>
        <time>1970-01-01T05:29:59.000Z</time>
      </trkpt>
      <trkpt lat="42.631494" lon="0.656482">
        <ele>3366.2</ele>
        <time>1970-01-01T05:30:00.000Z</time>
      </trkpt>
      <trkpt lat="42.631494" lon="0.656482">
        <ele>3366.2</ele>
        <time>1970-01-01T05:30:01.000Z</time>
      </trkpt>
      <trkpt lat="42.631494" lon="0.656482">
        <ele>3366.2</ele>
        <time>1970-01-01T05:30:02.000Z</time>
      </trkpt>
      <trkpt lat="42.631494" lon="0.656482">
        <ele>3366.2</ele>
        <time>1970-01-01T05:30:03.000Z</time>
      </trkpt>
      <trkpt lat="42.631494" lon="0.656482">
        <ele>3366.2</ele>
        <time>1970-01-01T05:30:04.000Z</time>
      </trkpt>
      <trkpt lat="42.631494" lon="0.656482">
        <ele>3366.2</ele>
        <time>1970-01-01T05:30:05.000Z</time>
      </trkpt>
      <trkpt lat="42.631494" lon="0.656482">
        <ele>3366.2</ele>
        <time>1970-01-01T05:30:06.000Z</time>
      </trkpt>
      <trkpt lat="42.631494" lon="0.656482">
        <ele>3366.2</ele>
        <time>1970-01-01T05:30:07.000Z</time>
      </trkpt>
      <trkpt lat="42.631494" lon="0.656482">
        <ele>3366.2</ele>
        <time>1970-01-01T05:30:08.000Z</time>
      </trkpt>
      <trkpt lat="42.631494" lon="0.656482">
        <ele>3366.2</ele>
        <time>1970-01-01T05:30:09.000Z</time>
      </trkpt>
      <trkpt lat="42.631494" lon="0.656482">
        <ele>3366.2</ele>
        <time>1970-01-01T05:30:10.000Z</time>
      </trkpt>
      <trkpt lat="42.631494" lon="0.656482">
        <ele>3366.2</ele>
        <time>1970-01-01T05:30:11.000Z</time>
      </trkpt>
      <trkpt lat="42.631494" lon="0.656482">
        <ele>3366.2</ele>
        <time>1970-01-01T05:30:12.000Z</time>
      </trkpt>
      <trkpt lat="42.631494" lon="0.656482">
        <ele>3366.2</ele>
        <time>1970-01-01T05:30:13.000Z</time>
      </trkpt>
      <trkpt lat="42.631494" lon="0.656482">
        <ele>3366.2</ele>
        <time>1970-01-01T05:30:14.000Z</time>
      </trkpt>
      <trkpt lat="42.631494" lon="0.656482">
        <ele>3366.2</ele>
        <time>1970-01-01T05:30:15.000Z</time>
      </trkpt>
      <trkpt lat="42.631494" lon="0.656482">
        <ele>3366.2</ele>
        <time>1970-01-01T05:30:16.000Z</time>
      </trkpt>
      <trkpt lat="42.631494" lon="0.656482">
        <ele>3366.2</ele>
        <time>1970-01-01T05:30:17.000Z</time>
      </trkpt>
      <trkpt lat="42.631494" lon="0.656482">
        <ele>3366.2</ele>
        <time>1970-01-01T05:30:18.000Z</time>
      </trkpt>
      <trkpt lat="42.631498" lon="0.65648">
        <ele>3366.1</ele>
        <time>1970-01-01T05:30:19.000Z</time>
      </trkpt>
      <trkpt lat="42.631499" lon="0.65648">
        <ele>3366.1</ele>
        <time>1970-01-01T05:30:20.000Z</time>
      </trkpt>
      <trkpt lat="42.6315" lon="0.656479">
        <ele>3366.1</ele>
        <time>1970-01-01T05:30:21.000Z</time>
      </trkpt>
      <trkpt lat="42.631501" lon="0.656479">
        <ele>3366.1</ele>
        <time>1970-01-01T05:30:22.000Z</time>
      </trkpt>
      <trkpt lat="42.631501" lon="0.65648">
        <ele>3366.1</ele>
        <time>1970-01-01T05:30:23.000Z</time>
      </trkpt>
      <trkpt lat="42.6315" lon="0.65648">
        <ele>3366.1</ele>
        <time>1970-01-01T05:30:24.000Z</time>
      </trkpt>
      <trkpt lat="42.6315" lon="0.65648">
        <ele>3366.1</ele>
        <time>1970-01-01T05:30:25.000Z</time>
      </trkpt>
      <trkpt lat="42.631501" lon="0.65648">
        <ele>3366.1</ele>
        <time>1970-01-01T05:30:26.000Z</time>
      </trkpt>
      <trkpt lat="42.631501" lon="0.656479">
        <ele>3366.1</ele>
        <time>1970-01-01T05:30:27.000Z</time>
      </trkpt>
      <trkpt lat="42.631501" lon="0.656479">
        <ele>3366.1</ele>
        <time>1970-01-01T05:30:28.000Z</time>
      </trkpt>
      <trkpt lat="42.631502" lon="0.656479">
        <ele>3366</ele>
        <time>1970-01-01T05:30:29.000Z</time>
      </trkpt>
      <trkpt lat="42.631502" lon="0.656478">
        <ele>3366</ele>
        <time>1970-01-01T05:30:31.000Z</time>
      </trkpt>
      <trkpt lat="42.631503" lon="0.656476">
        <ele>3366</ele>
        <time>1970-01-01T05:30:32.000Z</time>
      </trkpt>
      <trkpt lat="42.631503" lon="0.656475">
        <ele>3366</ele>
        <time>1970-01-01T05:30:33.000Z</time>
      </trkpt>
      <trkpt lat="42.631502" lon="0.656473">
        <ele>3366</ele>
        <time>1970-01-01T05:30:34.000Z</time>
      </trkpt>
      <trkpt lat="42.631501" lon="0.656471">
        <ele>3366</ele>
        <time>1970-01-01T05:30:35.000Z</time>
      </trkpt>
      <trkpt lat="42.631501" lon="0.656468">
        <ele>3365.9</ele>
        <time>1970-01-01T05:30:36.000Z</time>
      </trkpt>
      <trkpt lat="42.631501" lon="0.656466">
        <ele>3365.9</ele>
        <time>1970-01-01T05:30:37.000Z</time>
      </trkpt>
      <trkpt lat="42.631499" lon="0.656461">
        <ele>3365.9</ele>
        <time>1970-01-01T05:30:39.000Z</time>
      </trkpt>
      <trkpt lat="42.631497" lon="0.656459">
        <ele>3365.9</ele>
        <time>1970-01-01T05:30:40.000Z</time>
      </trkpt>
      <trkpt lat="42.631496" lon="0.656457">
        <ele>3365.8</ele>
        <time>1970-01-01T05:30:41.000Z</time>
      </trkpt>
      <trkpt lat="42.631496" lon="0.656456">
        <ele>3365.8</ele>
        <time>1970-01-01T05:30:42.000Z</time>
      </trkpt>
      <trkpt lat="42.631495" lon="0.656454">
        <ele>3365.8</ele>
        <time>1970-01-01T05:30:44.000Z</time>
      </trkpt>
      <trkpt lat="42.631494" lon="0.656454">
        <ele>3365.8</ele>
        <time>1970-01-01T05:30:45.000Z</time>
      </trkpt>
      <trkpt lat="42.631493" lon="0.656452">
        <ele>3365.8</ele>
        <time>1970-01-01T05:30:47.000Z</time>
      </trkpt>
      <trkpt lat="42.631493" lon="0.65645">
        <ele>3365.8</ele>
        <time>1970-01-01T05:30:48.000Z</time>
      </trkpt>
      <trkpt lat="42.631492" lon="0.656448">
        <ele>3365.8</ele>
        <time>1970-01-01T05:30:49.000Z</time>
      </trkpt>
      <trkpt lat="42.631491" lon="0.656446">
        <ele>3365.7</ele>
        <time>1970-01-01T05:30:50.000Z</time>
      </trkpt>
      <trkpt lat="42.631492" lon="0.656444">
        <ele>3365.7</ele>
        <time>1970-01-01T05:30:51.000Z</time>
      </trkpt>
      <trkpt lat="42.631492" lon="0.656443">
        <ele>3365.7</ele>
        <time>1970-01-01T05:30:53.000Z</time>
      </trkpt>
      <trkpt lat="42.631492" lon="0.656443">
        <ele>3365.7</ele>
        <time>1970-01-01T05:30:54.000Z</time>
      </trkpt>
      <trkpt lat="42.631492" lon="0.656442">
        <ele>3365.7</ele>
        <time>1970-01-01T05:30:55.000Z</time>
      </trkpt>
      <trkpt lat="42.631492" lon="0.656442">
        <ele>3365.7</ele>
        <time>1970-01-01T05:30:56.000Z</time>
      </trkpt>
      <trkpt lat="42.631491" lon="0.656442">
        <ele>3365.7</ele>
        <time>1970-01-01T05:30:57.000Z</time>
      </trkpt>
      <trkpt lat="42.631491" lon="0.656442">
        <ele>3365.7</ele>
        <time>1970-01-01T05:30:58.000Z</time>
      </trkpt>
      <trkpt lat="42.631491" lon="0.656441">
        <ele>3365.7</ele>
        <time>1970-01-01T05:30:59.000Z</time>
      </trkpt>
      <trkpt lat="42.631491" lon="0.656441">
        <ele>3365.7</ele>
        <time>1970-01-01T05:31:00.000Z</time>
      </trkpt>
      <trkpt lat="42.631492" lon="0.65644">
        <ele>3365.7</ele>
        <time>1970-01-01T05:31:01.000Z</time>
      </trkpt>
      <trkpt lat="42.631493" lon="0.65644">
        <ele>3365.7</ele>
        <time>1970-01-01T05:31:02.000Z</time>
      </trkpt>
      <trkpt lat="42.631493" lon="0.656439">
        <ele>3365.7</ele>
        <time>1970-01-01T05:31:03.000Z</time>
      </trkpt>
      <trkpt lat="42.631493" lon="0.656439">
        <ele>3365.7</ele>
        <time>1970-01-01T05:31:04.000Z</time>
      </trkpt>
      <trkpt lat="42.631493" lon="0.656437">
        <ele>3365.6</ele>
        <time>1970-01-01T05:31:05.000Z</time>
      </trkpt>
      <trkpt lat="42.631494" lon="0.656437">
        <ele>3365.6</ele>
        <time>1970-01-01T05:31:06.000Z</time>
      </trkpt>
      <trkpt lat="42.631494" lon="0.656436">
        <ele>3365.6</ele>
        <time>1970-01-01T05:31:08.000Z</time>
      </trkpt>
      <trkpt lat="42.631493" lon="0.656435">
        <ele>3365.6</ele>
        <time>1970-01-01T05:31:09.000Z</time>
      </trkpt>
      <trkpt lat="42.631493" lon="0.656434">
        <ele>3365.6</ele>
        <time>1970-01-01T05:31:10.000Z</time>
      </trkpt>
      <trkpt lat="42.631494" lon="0.656433">
        <ele>3365.6</ele>
        <time>1970-01-01T05:31:11.000Z</time>
      </trkpt>
      <trkpt lat="42.631495" lon="0.656433">
        <ele>3365.6</ele>
        <time>1970-01-01T05:31:12.000Z</time>
      </trkpt>
      <trkpt lat="42.631495" lon="0.656433">
        <ele>3365.6</ele>
        <time>1970-01-01T05:31:13.000Z</time>
      </trkpt>
      <trkpt lat="42.631496" lon="0.656433">
        <ele>3365.6</ele>
        <time>1970-01-01T05:31:14.000Z</time>
      </trkpt>
      <trkpt lat="42.631496" lon="0.656432">
        <ele>3365.6</ele>
        <time>1970-01-01T05:31:15.000Z</time>
      </trkpt>
      <trkpt lat="42.631496" lon="0.656432">
        <ele>3365.6</ele>
        <time>1970-01-01T05:31:16.000Z</time>
      </trkpt>
      <trkpt lat="42.631498" lon="0.656432">
        <ele>3365.5</ele>
        <time>1970-01-01T05:31:17.000Z</time>
      </trkpt>
      <trkpt lat="42.631498" lon="0.656432">
        <ele>3365.5</ele>
        <time>1970-01-01T05:31:18.000Z</time>
      </trkpt>
      <trkpt lat="42.6315" lon="0.656431">
        <ele>3365.5</ele>
        <time>1970-01-01T05:31:19.000Z</time>
      </trkpt>
      <trkpt lat="42.631501" lon="0.656431">
        <ele>3365.5</ele>
        <time>1970-01-01T05:31:20.000Z</time>
      </trkpt>
      <trkpt lat="42.631502" lon="0.656431">
        <ele>3365.5</ele>
        <time>1970-01-01T05:31:21.000Z</time>
      </trkpt>
      <trkpt lat="42.631504" lon="0.656431">
        <ele>3365.5</ele>
        <time>1970-01-01T05:31:22.000Z</time>
      </trkpt>
      <trkpt lat="42.631505" lon="0.656432">
        <ele>3365.5</ele>
        <time>1970-01-01T05:31:23.000Z</time>
      </trkpt>
      <trkpt lat="42.631505" lon="0.656434">
        <ele>3365.5</ele>
        <time>1970-01-01T05:31:24.000Z</time>
      </trkpt>
      <trkpt lat="42.631505" lon="0.656436">
        <ele>3365.4</ele>
        <time>1970-01-01T05:31:25.000Z</time>
      </trkpt>
      <trkpt lat="42.631506" lon="0.656437">
        <ele>3365.4</ele>
        <time>1970-01-01T05:31:26.000Z</time>
      </trkpt>
      <trkpt lat="42.631506" lon="0.656439">
        <ele>3365.4</ele>
        <time>1970-01-01T05:31:27.000Z</time>
      </trkpt>
      <trkpt lat="42.631506" lon="0.65644">
        <ele>3365.4</ele>
        <time>1970-01-01T05:31:28.000Z</time>
      </trkpt>
      <trkpt lat="42.631508" lon="0.656441">
        <ele>3365.4</ele>
        <time>1970-01-01T05:31:29.000Z</time>
      </trkpt>
      <trkpt lat="42.631509" lon="0.656441">
        <ele>3365.4</ele>
        <time>1970-01-01T05:31:30.000Z</time>
      </trkpt>
      <trkpt lat="42.631511" lon="0.656442">
        <ele>3365.4</ele>
        <time>1970-01-01T05:31:31.000Z</time>
      </trkpt>
      <trkpt lat="42.631511" lon="0.656442">
        <ele>3365.4</ele>
        <time>1970-01-01T05:31:32.000Z</time>
      </trkpt>
      <trkpt lat="42.631512" lon="0.656443">
        <ele>3365.3</ele>
        <time>1970-01-01T05:31:33.000Z</time>
      </trkpt>
      <trkpt lat="42.631512" lon="0.656444">
        <ele>3365.3</ele>
        <time>1970-01-01T05:31:34.000Z</time>
      </trkpt>
      <trkpt lat="42.631513" lon="0.656444">
        <ele>3365.3</ele>
        <time>1970-01-01T05:31:35.000Z</time>
      </trkpt>
      <trkpt lat="42.631514" lon="0.656446">
        <ele>3365.3</ele>
        <time>1970-01-01T05:31:36.000Z</time>
      </trkpt>
      <trkpt lat="42.631515" lon="0.656446">
        <ele>3365.3</ele>
        <time>1970-01-01T05:31:37.000Z</time>
      </trkpt>
      <trkpt lat="42.631515" lon="0.656446">
        <ele>3365.3</ele>
        <time>1970-01-01T05:31:38.000Z</time>
      </trkpt>
      <trkpt lat="42.631517" lon="0.656445">
        <ele>3365.3</ele>
        <time>1970-01-01T05:31:39.000Z</time>
      </trkpt>
      <trkpt lat="42.631518" lon="0.656447">
        <ele>3365.3</ele>
        <time>1970-01-01T05:31:41.000Z</time>
      </trkpt>
      <trkpt lat="42.631518" lon="0.656447">
        <ele>3365.3</ele>
        <time>1970-01-01T05:31:42.000Z</time>
      </trkpt>
      <trkpt lat="42.631519" lon="0.656447">
        <ele>3365.3</ele>
        <time>1970-01-01T05:31:44.000Z</time>
      </trkpt>
      <trkpt lat="42.631519" lon="0.656447">
        <ele>3365.3</ele>
        <time>1970-01-01T05:31:45.000Z</time>
      </trkpt>
      <trkpt lat="42.631519" lon="0.656447">
        <ele>3365.3</ele>
        <time>1970-01-01T05:31:46.000Z</time>
      </trkpt>
      <trkpt lat="42.631519" lon="0.656447">
        <ele>3365.3</ele>
        <time>1970-01-01T05:31:47.000Z</time>
      </trkpt>
      <trkpt lat="42.63152" lon="0.656447">
        <ele>3365.2</ele>
        <time>1970-01-01T05:31:48.000Z</time>
      </trkpt>
      <trkpt lat="42.631521" lon="0.656447">
        <ele>3365.2</ele>
        <time>1970-01-01T05:31:49.000Z</time>
      </trkpt>
      <trkpt lat="42.631521" lon="0.656446">
        <ele>3365.2</ele>
        <time>1970-01-01T05:31:50.000Z</time>
      </trkpt>
      <trkpt lat="42.631521" lon="0.656446">
        <ele>3365.2</ele>
        <time>1970-01-01T05:31:51.000Z</time>
      </trkpt>
      <trkpt lat="42.631521" lon="0.656446">
        <ele>3365.2</ele>
        <time>1970-01-01T05:31:52.000Z</time>
      </trkpt>
      <trkpt lat="42.631521" lon="0.656446">
        <ele>3365.2</ele>
        <time>1970-01-01T05:31:53.000Z</time>
      </trkpt>
      <trkpt lat="42.631521" lon="0.656446">
        <ele>3365.2</ele>
        <time>1970-01-01T05:31:54.000Z</time>
      </trkpt>
      <trkpt lat="42.631522" lon="0.656446">
        <ele>3365.2</ele>
        <time>1970-01-01T05:31:55.000Z</time>
      </trkpt>
      <trkpt lat="42.631522" lon="0.656446">
        <ele>3365.2</ele>
        <time>1970-01-01T05:31:56.000Z</time>
      </trkpt>
      <trkpt lat="42.631522" lon="0.656446">
        <ele>3365.2</ele>
        <time>1970-01-01T05:31:57.000Z</time>
      </trkpt>
      <trkpt lat="42.631522" lon="0.656446">
        <ele>3365.2</ele>
        <time>1970-01-01T05:31:58.000Z</time>
      </trkpt>
      <trkpt lat="42.631522" lon="0.656447">
        <ele>3365.2</ele>
        <time>1970-01-01T05:31:59.000Z</time>
      </trkpt>
      <trkpt lat="42.631521" lon="0.656447">
        <ele>3365.2</ele>
        <time>1970-01-01T05:32:00.000Z</time>
      </trkpt>
      <trkpt lat="42.631521" lon="0.656443">
        <ele>3365.2</ele>
        <time>1970-01-01T05:32:01.000Z</time>
      </trkpt>
      <trkpt lat="42.631521" lon="0.65644">
        <ele>3365.2</ele>
        <time>1970-01-01T05:32:02.000Z</time>
      </trkpt>
      <trkpt lat="42.631521" lon="0.656442">
        <ele>3365.1</ele>
        <time>1970-01-01T05:32:03.000Z</time>
      </trkpt>
      <trkpt lat="42.631522" lon="0.656444">
        <ele>3365.1</ele>
        <time>1970-01-01T05:32:04.000Z</time>
      </trkpt>
      <trkpt lat="42.631521" lon="0.656442">
        <ele>3365.1</ele>
        <time>1970-01-01T05:32:05.000Z</time>
      </trkpt>
      <trkpt lat="42.631521" lon="0.65644">
        <ele>3365.1</ele>
        <time>1970-01-01T05:32:06.000Z</time>
      </trkpt>
      <trkpt lat="42.631521" lon="0.656439">
        <ele>3365.1</ele>
        <time>1970-01-01T05:32:07.000Z</time>
      </trkpt>
      <trkpt lat="42.63152" lon="0.656439">
        <ele>3365.1</ele>
        <time>1970-01-01T05:32:08.000Z</time>
      </trkpt>
      <trkpt lat="42.63152" lon="0.656439">
        <ele>3365.1</ele>
        <time>1970-01-01T05:32:09.000Z</time>
      </trkpt>
      <trkpt lat="42.63152" lon="0.656438">
        <ele>3365.1</ele>
        <time>1970-01-01T05:32:10.000Z</time>
      </trkpt>
      <trkpt lat="42.63152" lon="0.656439">
        <ele>3365.1</ele>
        <time>1970-01-01T05:32:11.000Z</time>
      </trkpt>
      <trkpt lat="42.63152" lon="0.656439">
        <ele>3365.1</ele>
        <time>1970-01-01T05:32:12.000Z</time>
      </trkpt>
      <trkpt lat="42.63152" lon="0.656439">
        <ele>3365.1</ele>
        <time>1970-01-01T05:32:13.000Z</time>
      </trkpt>
      <trkpt lat="42.63152" lon="0.656439">
        <ele>3365.1</ele>
        <time>1970-01-01T05:32:14.000Z</time>
      </trkpt>
      <trkpt lat="42.63152" lon="0.656439">
        <ele>3365.1</ele>
        <time>1970-01-01T05:32:15.000Z</time>
      </trkpt>
      <trkpt lat="42.63152" lon="0.656439">
        <ele>3365.1</ele>
        <time>1970-01-01T05:32:16.000Z</time>
      </trkpt>
      <trkpt lat="42.63152" lon="0.656439">
        <ele>3365.1</ele>
        <time>1970-01-01T05:32:17.000Z</time>
      </trkpt>
      <trkpt lat="42.63152" lon="0.656439">
        <ele>3365.1</ele>
        <time>1970-01-01T05:32:18.000Z</time>
      </trkpt>
      <trkpt lat="42.63152" lon="0.656439">
        <ele>3365.1</ele>
        <time>1970-01-01T05:32:19.000Z</time>
      </trkpt>
      <trkpt lat="42.63152" lon="0.656439">
        <ele>3365.1</ele>
        <time>1970-01-01T05:32:20.000Z</time>
      </trkpt>
      <trkpt lat="42.63152" lon="0.656439">
        <ele>3365.1</ele>
        <time>1970-01-01T05:32:21.000Z</time>
      </trkpt>
      <trkpt lat="42.63152" lon="0.656439">
        <ele>3365.1</ele>
        <time>1970-01-01T05:32:22.000Z</time>
      </trkpt>
      <trkpt lat="42.63152" lon="0.656439">
        <ele>3365.1</ele>
        <time>1970-01-01T05:32:23.000Z</time>
      </trkpt>
      <trkpt lat="42.63152" lon="0.656439">
        <ele>3365.1</ele>
        <time>1970-01-01T05:32:24.000Z</time>
      </trkpt>
      <trkpt lat="42.63152" lon="0.656439">
        <ele>3365.1</ele>
        <time>1970-01-01T05:32:25.000Z</time>
      </trkpt>
      <trkpt lat="42.63152" lon="0.656439">
        <ele>3365.1</ele>
        <time>1970-01-01T05:32:26.000Z</time>
      </trkpt>
      <trkpt lat="42.631521" lon="0.656439">
        <ele>3365.1</ele>
        <time>1970-01-01T05:32:27.000Z</time>
      </trkpt>
      <trkpt lat="42.631521" lon="0.656439">
        <ele>3365.1</ele>
        <time>1970-01-01T05:32:28.000Z</time>
      </trkpt>
      <trkpt lat="42.631521" lon="0.656439">
        <ele>3365.1</ele>
        <time>1970-01-01T05:32:29.000Z</time>
      </trkpt>
      <trkpt lat="42.631521" lon="0.656439">
        <ele>3365.1</ele>
        <time>1970-01-01T05:32:30.000Z</time>
      </trkpt>
      <trkpt lat="42.631521" lon="0.656441">
        <ele>3365</ele>
        <time>1970-01-01T05:32:31.000Z</time>
      </trkpt>
      <trkpt lat="42.631522" lon="0.656443">
        <ele>3365</ele>
        <time>1970-01-01T05:32:32.000Z</time>
      </trkpt>
      <trkpt lat="42.631523" lon="0.656445">
        <ele>3365</ele>
        <time>1970-01-01T05:32:33.000Z</time>
      </trkpt>
      <trkpt lat="42.631523" lon="0.656445">
        <ele>3365</ele>
        <time>1970-01-01T05:32:34.000Z</time>
      </trkpt>
      <trkpt lat="42.631525" lon="0.656444">
        <ele>3365</ele>
        <time>1970-01-01T05:32:35.000Z</time>
      </trkpt>
      <trkpt lat="42.631527" lon="0.656444">
        <ele>3365</ele>
        <time>1970-01-01T05:32:36.000Z</time>
      </trkpt>
      <trkpt lat="42.631528" lon="0.656443">
        <ele>3365</ele>
        <time>1970-01-01T05:32:38.000Z</time>
      </trkpt>
      <trkpt lat="42.631528" lon="0.656442">
        <ele>3365</ele>
        <time>1970-01-01T05:32:39.000Z</time>
      </trkpt>
      <trkpt lat="42.631529" lon="0.656443">
        <ele>3364.9</ele>
        <time>1970-01-01T05:32:41.000Z</time>
      </trkpt>
      <trkpt lat="42.631531" lon="0.656444">
        <ele>3364.9</ele>
        <time>1970-01-01T05:32:42.000Z</time>
      </trkpt>
      <trkpt lat="42.631532" lon="0.656444">
        <ele>3364.9</ele>
        <time>1970-01-01T05:32:43.000Z</time>
      </trkpt>
      <trkpt lat="42.631535" lon="0.656445">
        <ele>3364.9</ele>
        <time>1970-01-01T05:32:44.000Z</time>
      </trkpt>
      <trkpt lat="42.631536" lon="0.656446">
        <ele>3364.9</ele>
        <time>1970-01-01T05:32:45.000Z</time>
      </trkpt>
      <trkpt lat="42.631537" lon="0.656446">
        <ele>3364.9</ele>
        <time>1970-01-01T05:32:46.000Z</time>
      </trkpt>
      <trkpt lat="42.631538" lon="0.656446">
        <ele>3364.9</ele>
        <time>1970-01-01T05:32:47.000Z</time>
      </trkpt>
      <trkpt lat="42.631539" lon="0.656445">
        <ele>3364.9</ele>
        <time>1970-01-01T05:32:48.000Z</time>
      </trkpt>
      <trkpt lat="42.631539" lon="0.656445">
        <ele>3364.9</ele>
        <time>1970-01-01T05:32:49.000Z</time>
      </trkpt>
      <trkpt lat="42.631539" lon="0.656445">
        <ele>3364.9</ele>
        <time>1970-01-01T05:32:50.000Z</time>
      </trkpt>
      <trkpt lat="42.63154" lon="0.656445">
        <ele>3364.8</ele>
        <time>1970-01-01T05:32:52.000Z</time>
      </trkpt>
      <trkpt lat="42.63154" lon="0.656446">
        <ele>3364.8</ele>
        <time>1970-01-01T05:32:53.000Z</time>
      </trkpt>
      <trkpt lat="42.63154" lon="0.656446">
        <ele>3364.8</ele>
        <time>1970-01-01T05:32:54.000Z</time>
      </trkpt>
      <trkpt lat="42.63154" lon="0.656447">
        <ele>3364.8</ele>
        <time>1970-01-01T05:32:55.000Z</time>
      </trkpt>
      <trkpt lat="42.631539" lon="0.656447">
        <ele>3364.8</ele>
        <time>1970-01-01T05:32:56.000Z</time>
      </trkpt>
      <trkpt lat="42.631539" lon="0.656447">
        <ele>3364.8</ele>
        <time>1970-01-01T05:32:57.000Z</time>
      </trkpt>
      <trkpt lat="42.631538" lon="0.656448">
        <ele>3364.8</ele>
        <time>1970-01-01T05:32:58.000Z</time>
      </trkpt>
      <trkpt lat="42.631538" lon="0.656448">
        <ele>3364.8</ele>
        <time>1970-01-01T05:32:59.000Z</time>
      </trkpt>
      <trkpt lat="42.631537" lon="0.656448">
        <ele>3364.8</ele>
        <time>1970-01-01T05:33:00.000Z</time>
      </trkpt>
      <trkpt lat="42.631537" lon="0.656449">
        <ele>3364.8</ele>
        <time>1970-01-01T05:33:01.000Z</time>
      </trkpt>
      <trkpt lat="42.631537" lon="0.656449">
        <ele>3364.8</ele>
        <time>1970-01-01T05:33:02.000Z</time>
      </trkpt>
      <trkpt lat="42.631536" lon="0.65645">
        <ele>3364.8</ele>
        <time>1970-01-01T05:33:03.000Z</time>
      </trkpt>
      <trkpt lat="42.631536" lon="0.65645">
        <ele>3364.8</ele>
        <time>1970-01-01T05:33:04.000Z</time>
      </trkpt>
      <trkpt lat="42.631536" lon="0.656451">
        <ele>3364.8</ele>
        <time>1970-01-01T05:33:05.000Z</time>
      </trkpt>
      <trkpt lat="42.631536" lon="0.656452">
        <ele>3364.8</ele>
        <time>1970-01-01T05:33:06.000Z</time>
      </trkpt>
      <trkpt lat="42.631536" lon="0.656453">
        <ele>3364.8</ele>
        <time>1970-01-01T05:33:07.000Z</time>
      </trkpt>
      <trkpt lat="42.631536" lon="0.656453">
        <ele>3364.8</ele>
        <time>1970-01-01T05:33:08.000Z</time>
      </trkpt>
      <trkpt lat="42.631537" lon="0.656453">
        <ele>3364.8</ele>
        <time>1970-01-01T05:33:09.000Z</time>
      </trkpt>
      <trkpt lat="42.631538" lon="0.656453">
        <ele>3364.8</ele>
        <time>1970-01-01T05:33:10.000Z</time>
      </trkpt>
      <trkpt lat="42.631539" lon="0.656453">
        <ele>3364.8</ele>
        <time>1970-01-01T05:33:11.000Z</time>
      </trkpt>
      <trkpt lat="42.631539" lon="0.656452">
        <ele>3364.7</ele>
        <time>1970-01-01T05:33:12.000Z</time>
      </trkpt>
      <trkpt lat="42.631536" lon="0.656448">
        <ele>3364.7</ele>
        <time>1970-01-01T05:33:13.000Z</time>
      </trkpt>
      <trkpt lat="42.631534" lon="0.656446">
        <ele>3364.7</ele>
        <time>1970-01-01T05:33:14.000Z</time>
      </trkpt>
      <trkpt lat="42.631533" lon="0.656445">
        <ele>3364.7</ele>
        <time>1970-01-01T05:33:15.000Z</time>
      </trkpt>
      <trkpt lat="42.631533" lon="0.656444">
        <ele>3364.7</ele>
        <time>1970-01-01T05:33:16.000Z</time>
      </trkpt>
      <trkpt lat="42.631533" lon="0.656444">
        <ele>3364.7</ele>
        <time>1970-01-01T05:33:17.000Z</time>
      </trkpt>
      <trkpt lat="42.631533" lon="0.656444">
        <ele>3364.7</ele>
        <time>1970-01-01T05:33:18.000Z</time>
      </trkpt>
      <trkpt lat="42.631535" lon="0.656445">
        <ele>3364.7</ele>
        <time>1970-01-01T05:33:19.000Z</time>
      </trkpt>
      <trkpt lat="42.631537" lon="0.656447">
        <ele>3364.6</ele>
        <time>1970-01-01T05:33:20.000Z</time>
      </trkpt>
      <trkpt lat="42.631539" lon="0.656448">
        <ele>3364.6</ele>
        <time>1970-01-01T05:33:21.000Z</time>
      </trkpt>
      <trkpt lat="42.631541" lon="0.65645">
        <ele>3364.6</ele>
        <time>1970-01-01T05:33:22.000Z</time>
      </trkpt>
      <trkpt lat="42.631543" lon="0.65645">
        <ele>3364.6</ele>
        <time>1970-01-01T05:33:23.000Z</time>
      </trkpt>
      <trkpt lat="42.631544" lon="0.65645">
        <ele>3364.6</ele>
        <time>1970-01-01T05:33:24.000Z</time>
      </trkpt>
      <trkpt lat="42.631545" lon="0.656451">
        <ele>3364.6</ele>
        <time>1970-01-01T05:33:25.000Z</time>
      </trkpt>
      <trkpt lat="42.631545" lon="0.656451">
        <ele>3364.6</ele>
        <time>1970-01-01T05:33:26.000Z</time>
      </trkpt>
      <trkpt lat="42.631545" lon="0.656451">
        <ele>3364.6</ele>
        <time>1970-01-01T05:33:27.000Z</time>
      </trkpt>
      <trkpt lat="42.631545" lon="0.656451">
        <ele>3364.6</ele>
        <time>1970-01-01T05:33:28.000Z</time>
      </trkpt>
      <trkpt lat="42.631545" lon="0.656451">
        <ele>3364.6</ele>
        <time>1970-01-01T05:33:29.000Z</time>
      </trkpt>
      <trkpt lat="42.631545" lon="0.656451">
        <ele>3364.6</ele>
        <time>1970-01-01T05:33:30.000Z</time>
      </trkpt>
      <trkpt lat="42.631545" lon="0.656451">
        <ele>3364.6</ele>
        <time>1970-01-01T05:33:31.000Z</time>
      </trkpt>
      <trkpt lat="42.631546" lon="0.656452">
        <ele>3364.6</ele>
        <time>1970-01-01T05:33:32.000Z</time>
      </trkpt>
      <trkpt lat="42.631546" lon="0.656456">
        <ele>3364.5</ele>
        <time>1970-01-01T05:33:33.000Z</time>
      </trkpt>
      <trkpt lat="42.631547" lon="0.656457">
        <ele>3364.5</ele>
        <time>1970-01-01T05:33:34.000Z</time>
      </trkpt>
      <trkpt lat="42.631549" lon="0.656458">
        <ele>3364.5</ele>
        <time>1970-01-01T05:33:35.000Z</time>
      </trkpt>
      <trkpt lat="42.631553" lon="0.656461">
        <ele>3364.5</ele>
        <time>1970-01-01T05:33:37.000Z</time>
      </trkpt>
      <trkpt lat="42.631555" lon="0.656462">
        <ele>3364.5</ele>
        <time>1970-01-01T05:33:38.000Z</time>
      </trkpt>
      <trkpt lat="42.631556" lon="0.656463">
        <ele>3364.4</ele>
        <time>1970-01-01T05:33:39.000Z</time>
      </trkpt>
      <trkpt lat="42.631557" lon="0.656463">
        <ele>3364.4</ele>
        <time>1970-01-01T05:33:40.000Z</time>
      </trkpt>
      <trkpt lat="42.631558" lon="0.656464">
        <ele>3364.4</ele>
        <time>1970-01-01T05:33:41.000Z</time>
      </trkpt>
      <trkpt lat="42.631558" lon="0.656464">
        <ele>3364.4</ele>
        <time>1970-01-01T05:33:42.000Z</time>
      </trkpt>
      <trkpt lat="42.631559" lon="0.656464">
        <ele>3364.4</ele>
        <time>1970-01-01T05:33:43.000Z</time>
      </trkpt>
      <trkpt lat="42.631559" lon="0.656464">
        <ele>3364.4</ele>
        <time>1970-01-01T05:33:44.000Z</time>
      </trkpt>
      <trkpt lat="42.631559" lon="0.656463">
        <ele>3364.4</ele>
        <time>1970-01-01T05:33:45.000Z</time>
      </trkpt>
      <trkpt lat="42.631561" lon="0.656464">
        <ele>3364.4</ele>
        <time>1970-01-01T05:33:46.000Z</time>
      </trkpt>
      <trkpt lat="42.631563" lon="0.656464">
        <ele>3364.4</ele>
        <time>1970-01-01T05:33:47.000Z</time>
      </trkpt>
      <trkpt lat="42.631565" lon="0.656464">
        <ele>3364.4</ele>
        <time>1970-01-01T05:33:48.000Z</time>
      </trkpt>
      <trkpt lat="42.631567" lon="0.656464">
        <ele>3364.4</ele>
        <time>1970-01-01T05:33:50.000Z</time>
      </trkpt>
      <trkpt lat="42.631567" lon="0.656463">
        <ele>3364.3</ele>
        <time>1970-01-01T05:33:51.000Z</time>
      </trkpt>
      <trkpt lat="42.631568" lon="0.656463">
        <ele>3364.3</ele>
        <time>1970-01-01T05:33:52.000Z</time>
      </trkpt>
      <trkpt lat="42.631568" lon="0.656463">
        <ele>3364.3</ele>
        <time>1970-01-01T05:33:53.000Z</time>
      </trkpt>
      <trkpt lat="42.631572" lon="0.656462">
        <ele>3364.3</ele>
        <time>1970-01-01T05:33:54.000Z</time>
      </trkpt>
      <trkpt lat="42.631576" lon="0.65646">
        <ele>3364.3</ele>
        <time>1970-01-01T05:33:56.000Z</time>
      </trkpt>
      <trkpt lat="42.63158" lon="0.656458">
        <ele>3364.2</ele>
        <time>1970-01-01T05:33:57.000Z</time>
      </trkpt>
      <trkpt lat="42.631584" lon="0.656458">
        <ele>3364.2</ele>
        <time>1970-01-01T05:33:58.000Z</time>
      </trkpt>
      <trkpt lat="42.631586" lon="0.656459">
        <ele>3364.2</ele>
        <time>1970-01-01T05:33:59.000Z</time>
      </trkpt>
      <trkpt lat="42.631587" lon="0.656458">
        <ele>3364.2</ele>
        <time>1970-01-01T05:34:00.000Z</time>
      </trkpt>
      <trkpt lat="42.631589" lon="0.656457">
        <ele>3364.2</ele>
        <time>1970-01-01T05:34:01.000Z</time>
      </trkpt>
      <trkpt lat="42.631589" lon="0.656455">
        <ele>3364.2</ele>
        <time>1970-01-01T05:34:02.000Z</time>
      </trkpt>
      <trkpt lat="42.631589" lon="0.656455">
        <ele>3364.2</ele>
        <time>1970-01-01T05:34:03.000Z</time>
      </trkpt>
      <trkpt lat="42.63159" lon="0.656454">
        <ele>3364.2</ele>
        <time>1970-01-01T05:34:04.000Z</time>
      </trkpt>
      <trkpt lat="42.631592" lon="0.656454">
        <ele>3364.1</ele>
        <time>1970-01-01T05:34:05.000Z</time>
      </trkpt>
      <trkpt lat="42.631596" lon="0.656452">
        <ele>3364.1</ele>
        <time>1970-01-01T05:34:06.000Z</time>
      </trkpt>
      <trkpt lat="42.631599" lon="0.656449">
        <ele>3364.1</ele>
        <time>1970-01-01T05:34:08.000Z</time>
      </trkpt>
      <trkpt lat="42.631605" lon="0.656447">
        <ele>3364</ele>
        <time>1970-01-01T05:34:09.000Z</time>
      </trkpt>
      <trkpt lat="42.631612" lon="0.656449">
        <ele>3364</ele>
        <time>1970-01-01T05:34:10.000Z</time>
      </trkpt>
      <trkpt lat="42.631616" lon="0.656451">
        <ele>3364</ele>
        <time>1970-01-01T05:34:11.000Z</time>
      </trkpt>
      <trkpt lat="42.631622" lon="0.656456">
        <ele>3363.9</ele>
        <time>1970-01-01T05:34:13.000Z</time>
      </trkpt>
      <trkpt lat="42.63163" lon="0.656453">
        <ele>3363.9</ele>
        <time>1970-01-01T05:34:14.000Z</time>
      </trkpt>
      <trkpt lat="42.631636" lon="0.65645">
        <ele>3363.8</ele>
        <time>1970-01-01T05:34:16.000Z</time>
      </trkpt>
      <trkpt lat="42.631638" lon="0.656451">
        <ele>3363.8</ele>
        <time>1970-01-01T05:34:17.000Z</time>
      </trkpt>
      <trkpt lat="42.631642" lon="0.656451">
        <ele>3363.8</ele>
        <time>1970-01-01T05:34:18.000Z</time>
      </trkpt>
      <trkpt lat="42.631645" lon="0.65645">
        <ele>3363.8</ele>
        <time>1970-01-01T05:34:19.000Z</time>
      </trkpt>
      <trkpt lat="42.631648" lon="0.65645">
        <ele>3363.7</ele>
        <time>1970-01-01T05:34:20.000Z</time>
      </trkpt>
      <trkpt lat="42.631653" lon="0.656449">
        <ele>3363.7</ele>
        <time>1970-01-01T05:34:21.000Z</time>
      </trkpt>
      <trkpt lat="42.631658" lon="0.656449">
        <ele>3363.7</ele>
        <time>1970-01-01T05:34:22.000Z</time>
      </trkpt>
      <trkpt lat="42.631663" lon="0.65645">
        <ele>3363.3</ele>
        <time>1970-01-01T05:34:23.000Z</time>
      </trkpt>
      <trkpt lat="42.631668" lon="0.656453">
        <ele>3363.3</ele>
        <time>1970-01-01T05:34:24.000Z</time>
      </trkpt>
      <trkpt lat="42.631669" lon="0.65645">
        <ele>3363.2</ele>
        <time>1970-01-01T05:34:26.000Z</time>
      </trkpt>
      <trkpt lat="42.631667" lon="0.656453">
        <ele>3363.2</ele>
        <time>1970-01-01T05:34:27.000Z</time>
      </trkpt>
      <trkpt lat="42.631666" lon="0.656455">
        <ele>3363.2</ele>
        <time>1970-01-01T05:34:28.000Z</time>
      </trkpt>
      <trkpt lat="42.631666" lon="0.656457">
        <ele>3363.2</ele>
        <time>1970-01-01T05:34:30.000Z</time>
      </trkpt>
      <trkpt lat="42.631666" lon="0.656457">
        <ele>3363.2</ele>
        <time>1970-01-01T05:34:31.000Z</time>
      </trkpt>
      <trkpt lat="42.631665" lon="0.656458">
        <ele>3363.2</ele>
        <time>1970-01-01T05:34:32.000Z</time>
      </trkpt>
      <trkpt lat="42.631665" lon="0.656458">
        <ele>3363.2</ele>
        <time>1970-01-01T05:34:33.000Z</time>
      </trkpt>
      <trkpt lat="42.631665" lon="0.656457">
        <ele>3363.2</ele>
        <time>1970-01-01T05:34:34.000Z</time>
      </trkpt>
      <trkpt lat="42.631664" lon="0.656457">
        <ele>3363.2</ele>
        <time>1970-01-01T05:34:35.000Z</time>
      </trkpt>
      <trkpt lat="42.631664" lon="0.656457">
        <ele>3363.2</ele>
        <time>1970-01-01T05:34:36.000Z</time>
      </trkpt>
      <trkpt lat="42.631663" lon="0.656457">
        <ele>3363.2</ele>
        <time>1970-01-01T05:34:37.000Z</time>
      </trkpt>
      <trkpt lat="42.631663" lon="0.656457">
        <ele>3363.2</ele>
        <time>1970-01-01T05:34:38.000Z</time>
      </trkpt>
      <trkpt lat="42.631661" lon="0.656457">
        <ele>3363.2</ele>
        <time>1970-01-01T05:34:40.000Z</time>
      </trkpt>
      <trkpt lat="42.631661" lon="0.656461">
        <ele>3363.1</ele>
        <time>1970-01-01T05:34:41.000Z</time>
      </trkpt>
      <trkpt lat="42.631661" lon="0.656463">
        <ele>3363.1</ele>
        <time>1970-01-01T05:34:42.000Z</time>
      </trkpt>
      <trkpt lat="42.631661" lon="0.656465">
        <ele>3363.1</ele>
        <time>1970-01-01T05:34:43.000Z</time>
      </trkpt>
      <trkpt lat="42.631661" lon="0.656467">
        <ele>3363.1</ele>
        <time>1970-01-01T05:34:44.000Z</time>
      </trkpt>
      <trkpt lat="42.631661" lon="0.656468">
        <ele>3363.1</ele>
        <time>1970-01-01T05:34:45.000Z</time>
      </trkpt>
      <trkpt lat="42.631661" lon="0.656468">
        <ele>3363.1</ele>
        <time>1970-01-01T05:34:46.000Z</time>
      </trkpt>
      <trkpt lat="42.631661" lon="0.65647">
        <ele>3363.1</ele>
        <time>1970-01-01T05:34:47.000Z</time>
      </trkpt>
      <trkpt lat="42.631662" lon="0.656472">
        <ele>3363.1</ele>
        <time>1970-01-01T05:34:48.000Z</time>
      </trkpt>
      <trkpt lat="42.631662" lon="0.656474">
        <ele>3363.1</ele>
        <time>1970-01-01T05:34:49.000Z</time>
      </trkpt>
      <trkpt lat="42.631662" lon="0.656474">
        <ele>3363.1</ele>
        <time>1970-01-01T05:34:50.000Z</time>
      </trkpt>
      <trkpt lat="42.631661" lon="0.656474">
        <ele>3363.1</ele>
        <time>1970-01-01T05:34:51.000Z</time>
      </trkpt>
      <trkpt lat="42.631661" lon="0.656475">
        <ele>3363.1</ele>
        <time>1970-01-01T05:34:52.000Z</time>
      </trkpt>
      <trkpt lat="42.63166" lon="0.656475">
        <ele>3363</ele>
        <time>1970-01-01T05:34:53.000Z</time>
      </trkpt>
      <trkpt lat="42.631661" lon="0.656474">
        <ele>3363</ele>
        <time>1970-01-01T05:34:54.000Z</time>
      </trkpt>
      <trkpt lat="42.631661" lon="0.656473">
        <ele>3363</ele>
        <time>1970-01-01T05:34:56.000Z</time>
      </trkpt>
      <trkpt lat="42.631661" lon="0.656473">
        <ele>3363</ele>
        <time>1970-01-01T05:34:57.000Z</time>
      </trkpt>
      <trkpt lat="42.631662" lon="0.656473">
        <ele>3363</ele>
        <time>1970-01-01T05:34:58.000Z</time>
      </trkpt>
      <trkpt lat="42.631662" lon="0.656473">
        <ele>3363</ele>
        <time>1970-01-01T05:34:59.000Z</time>
      </trkpt>
      <trkpt lat="42.631661" lon="0.656474">
        <ele>3363</ele>
        <time>1970-01-01T05:35:00.000Z</time>
      </trkpt>
      <trkpt lat="42.631661" lon="0.656474">
        <ele>3363</ele>
        <time>1970-01-01T05:35:01.000Z</time>
      </trkpt>
      <trkpt lat="42.631661" lon="0.656474">
        <ele>3363</ele>
        <time>1970-01-01T05:35:02.000Z</time>
      </trkpt>
      <trkpt lat="42.63166" lon="0.656473">
        <ele>3363</ele>
        <time>1970-01-01T05:35:03.000Z</time>
      </trkpt>
      <trkpt lat="42.63166" lon="0.656473">
        <ele>3363</ele>
        <time>1970-01-01T05:35:04.000Z</time>
      </trkpt>
      <trkpt lat="42.63166" lon="0.656473">
        <ele>3363</ele>
        <time>1970-01-01T05:35:05.000Z</time>
      </trkpt>
      <trkpt lat="42.63166" lon="0.656473">
        <ele>3363</ele>
        <time>1970-01-01T05:35:06.000Z</time>
      </trkpt>
      <trkpt lat="42.63166" lon="0.656473">
        <ele>3363</ele>
        <time>1970-01-01T05:35:07.000Z</time>
      </trkpt>
      <trkpt lat="42.631659" lon="0.656473">
        <ele>3363</ele>
        <time>1970-01-01T05:35:08.000Z</time>
      </trkpt>
      <trkpt lat="42.631659" lon="0.656473">
        <ele>3363</ele>
        <time>1970-01-01T05:35:09.000Z</time>
      </trkpt>
      <trkpt lat="42.631659" lon="0.656472">
        <ele>3363</ele>
        <time>1970-01-01T05:35:10.000Z</time>
      </trkpt>
      <trkpt lat="42.631659" lon="0.656472">
        <ele>3363</ele>
        <time>1970-01-01T05:35:11.000Z</time>
      </trkpt>
      <trkpt lat="42.631659" lon="0.656471">
        <ele>3363</ele>
        <time>1970-01-01T05:35:12.000Z</time>
      </trkpt>
      <trkpt lat="42.631659" lon="0.656471">
        <ele>3363</ele>
        <time>1970-01-01T05:35:13.000Z</time>
      </trkpt>
      <trkpt lat="42.631659" lon="0.656471">
        <ele>3363</ele>
        <time>1970-01-01T05:35:14.000Z</time>
      </trkpt>
      <trkpt lat="42.63166" lon="0.65647">
        <ele>3363</ele>
        <time>1970-01-01T05:35:15.000Z</time>
      </trkpt>
      <trkpt lat="42.63166" lon="0.65647">
        <ele>3363</ele>
        <time>1970-01-01T05:35:16.000Z</time>
      </trkpt>
      <trkpt lat="42.631661" lon="0.65647">
        <ele>3363</ele>
        <time>1970-01-01T05:35:18.000Z</time>
      </trkpt>
      <trkpt lat="42.631661" lon="0.656471">
        <ele>3363</ele>
        <time>1970-01-01T05:35:19.000Z</time>
      </trkpt>
      <trkpt lat="42.631661" lon="0.656471">
        <ele>3363</ele>
        <time>1970-01-01T05:35:20.000Z</time>
      </trkpt>
      <trkpt lat="42.631662" lon="0.656471">
        <ele>3363</ele>
        <time>1970-01-01T05:35:21.000Z</time>
      </trkpt>
      <trkpt lat="42.631661" lon="0.65647">
        <ele>3363</ele>
        <time>1970-01-01T05:35:22.000Z</time>
      </trkpt>
      <trkpt lat="42.63166" lon="0.65647">
        <ele>3362.9</ele>
        <time>1970-01-01T05:35:23.000Z</time>
      </trkpt>
      <trkpt lat="42.63166" lon="0.656471">
        <ele>3362.9</ele>
        <time>1970-01-01T05:35:24.000Z</time>
      </trkpt>
      <trkpt lat="42.63166" lon="0.656472">
        <ele>3362.9</ele>
        <time>1970-01-01T05:35:25.000Z</time>
      </trkpt>
      <trkpt lat="42.63166" lon="0.656471">
        <ele>3362.9</ele>
        <time>1970-01-01T05:35:26.000Z</time>
      </trkpt>
      <trkpt lat="42.631661" lon="0.65647">
        <ele>3362.9</ele>
        <time>1970-01-01T05:35:27.000Z</time>
      </trkpt>
      <trkpt lat="42.63166" lon="0.65647">
        <ele>3362.9</ele>
        <time>1970-01-01T05:35:28.000Z</time>
      </trkpt>
      <trkpt lat="42.631659" lon="0.656469">
        <ele>3362.9</ele>
        <time>1970-01-01T05:35:29.000Z</time>
      </trkpt>
      <trkpt lat="42.631658" lon="0.656469">
        <ele>3362.9</ele>
        <time>1970-01-01T05:35:30.000Z</time>
      </trkpt>
      <trkpt lat="42.631658" lon="0.65647">
        <ele>3362.9</ele>
        <time>1970-01-01T05:35:31.000Z</time>
      </trkpt>
      <trkpt lat="42.631657" lon="0.656469">
        <ele>3362.9</ele>
        <time>1970-01-01T05:35:32.000Z</time>
      </trkpt>
      <trkpt lat="42.631656" lon="0.656468">
        <ele>3362.9</ele>
        <time>1970-01-01T05:35:33.000Z</time>
      </trkpt>
      <trkpt lat="42.631655" lon="0.656467">
        <ele>3362.9</ele>
        <time>1970-01-01T05:35:34.000Z</time>
      </trkpt>
      <trkpt lat="42.631654" lon="0.656466">
        <ele>3362.9</ele>
        <time>1970-01-01T05:35:35.000Z</time>
      </trkpt>
      <trkpt lat="42.631653" lon="0.656466">
        <ele>3362.9</ele>
        <time>1970-01-01T05:35:36.000Z</time>
      </trkpt>
      <trkpt lat="42.631653" lon="0.656466">
        <ele>3362.9</ele>
        <time>1970-01-01T05:35:37.000Z</time>
      </trkpt>
      <trkpt lat="42.631653" lon="0.656466">
        <ele>3362.9</ele>
        <time>1970-01-01T05:35:38.000Z</time>
      </trkpt>
      <trkpt lat="42.631653" lon="0.656466">
        <ele>3362.9</ele>
        <time>1970-01-01T05:35:39.000Z</time>
      </trkpt>
      <trkpt lat="42.631654" lon="0.656466">
        <ele>3362.8</ele>
        <time>1970-01-01T05:35:40.000Z</time>
      </trkpt>
      <trkpt lat="42.631654" lon="0.656467">
        <ele>3362.8</ele>
        <time>1970-01-01T05:35:41.000Z</time>
      </trkpt>
      <trkpt lat="42.631655" lon="0.656468">
        <ele>3362.8</ele>
        <time>1970-01-01T05:35:42.000Z</time>
      </trkpt>
      <trkpt lat="42.631655" lon="0.656469">
        <ele>3362.8</ele>
        <time>1970-01-01T05:35:43.000Z</time>
      </trkpt>
      <trkpt lat="42.631653" lon="0.65647">
        <ele>3362.8</ele>
        <time>1970-01-01T05:35:44.000Z</time>
      </trkpt>
      <trkpt lat="42.631652" lon="0.65647">
        <ele>3362.8</ele>
        <time>1970-01-01T05:35:45.000Z</time>
      </trkpt>
      <trkpt lat="42.631651" lon="0.65647">
        <ele>3362.8</ele>
        <time>1970-01-01T05:35:46.000Z</time>
      </trkpt>
      <trkpt lat="42.631651" lon="0.656469">
        <ele>3362.8</ele>
        <time>1970-01-01T05:35:47.000Z</time>
      </trkpt>
      <trkpt lat="42.631651" lon="0.656469">
        <ele>3362.8</ele>
        <time>1970-01-01T05:35:48.000Z</time>
      </trkpt>
      <trkpt lat="42.631651" lon="0.656468">
        <ele>3362.8</ele>
        <time>1970-01-01T05:35:49.000Z</time>
      </trkpt>
      <trkpt lat="42.631651" lon="0.656468">
        <ele>3362.8</ele>
        <time>1970-01-01T05:35:50.000Z</time>
      </trkpt>
      <trkpt lat="42.631651" lon="0.656468">
        <ele>3362.8</ele>
        <time>1970-01-01T05:35:51.000Z</time>
      </trkpt>
      <trkpt lat="42.631651" lon="0.656468">
        <ele>3362.8</ele>
        <time>1970-01-01T05:35:52.000Z</time>
      </trkpt>
      <trkpt lat="42.631651" lon="0.656468">
        <ele>3362.8</ele>
        <time>1970-01-01T05:35:53.000Z</time>
      </trkpt>
      <trkpt lat="42.631651" lon="0.656467">
        <ele>3362.8</ele>
        <time>1970-01-01T05:35:54.000Z</time>
      </trkpt>
      <trkpt lat="42.631651" lon="0.656467">
        <ele>3362.8</ele>
        <time>1970-01-01T05:35:55.000Z</time>
      </trkpt>
      <trkpt lat="42.631651" lon="0.656467">
        <ele>3362.8</ele>
        <time>1970-01-01T05:35:56.000Z</time>
      </trkpt>
      <trkpt lat="42.631651" lon="0.656467">
        <ele>3362.8</ele>
        <time>1970-01-01T05:35:57.000Z</time>
      </trkpt>
      <trkpt lat="42.631651" lon="0.656467">
        <ele>3362.8</ele>
        <time>1970-01-01T05:35:58.000Z</time>
      </trkpt>
      <trkpt lat="42.631651" lon="0.656467">
        <ele>3362.8</ele>
        <time>1970-01-01T05:35:59.000Z</time>
      </trkpt>
      <trkpt lat="42.631651" lon="0.656467">
        <ele>3362.8</ele>
        <time>1970-01-01T05:36:00.000Z</time>
      </trkpt>
      <trkpt lat="42.631651" lon="0.656467">
        <ele>3362.8</ele>
        <time>1970-01-01T05:36:01.000Z</time>
      </trkpt>
      <trkpt lat="42.631651" lon="0.656467">
        <ele>3362.8</ele>
        <time>1970-01-01T05:36:02.000Z</time>
      </trkpt>
      <trkpt lat="42.631645" lon="0.656461">
        <ele>3362.7</ele>
        <time>1970-01-01T05:36:03.000Z</time>
      </trkpt>
      <trkpt lat="42.63164" lon="0.656458">
        <ele>3362.7</ele>
        <time>1970-01-01T05:36:04.000Z</time>
      </trkpt>
      <trkpt lat="42.631642" lon="0.656458">
        <ele>3362.7</ele>
        <time>1970-01-01T05:36:05.000Z</time>
      </trkpt>
      <trkpt lat="42.631643" lon="0.656461">
        <ele>3362.7</ele>
        <time>1970-01-01T05:36:07.000Z</time>
      </trkpt>
      <trkpt lat="42.631641" lon="0.656458">
        <ele>3362.6</ele>
        <time>1970-01-01T05:36:08.000Z</time>
      </trkpt>
      <trkpt lat="42.63164" lon="0.65645">
        <ele>3362.6</ele>
        <time>1970-01-01T05:36:09.000Z</time>
      </trkpt>
      <trkpt lat="42.631643" lon="0.656446">
        <ele>3362.6</ele>
        <time>1970-01-01T05:36:11.000Z</time>
      </trkpt>
      <trkpt lat="42.631646" lon="0.656445">
        <ele>3362.5</ele>
        <time>1970-01-01T05:36:12.000Z</time>
      </trkpt>
      <trkpt lat="42.631649" lon="0.656444">
        <ele>3362.5</ele>
        <time>1970-01-01T05:36:13.000Z</time>
      </trkpt>
      <trkpt lat="42.631652" lon="0.656443">
        <ele>3362.5</ele>
        <time>1970-01-01T05:36:14.000Z</time>
      </trkpt>
      <trkpt lat="42.631655" lon="0.656444">
        <ele>3362.5</ele>
        <time>1970-01-01T05:36:15.000Z</time>
      </trkpt>
      <trkpt lat="42.631658" lon="0.656447">
        <ele>3362.4</ele>
        <time>1970-01-01T05:36:16.000Z</time>
      </trkpt>
      <trkpt lat="42.631661" lon="0.656451">
        <ele>3362.4</ele>
        <time>1970-01-01T05:36:17.000Z</time>
      </trkpt>
      <trkpt lat="42.631667" lon="0.656469">
        <ele>3362.3</ele>
        <time>1970-01-01T05:36:19.000Z</time>
      </trkpt>
      <trkpt lat="42.631669" lon="0.656483">
        <ele>3362.2</ele>
        <time>1970-01-01T05:36:20.000Z</time>
      </trkpt>
      <trkpt lat="42.631669" lon="0.65649">
        <ele>3362.2</ele>
        <time>1970-01-01T05:36:21.000Z</time>
      </trkpt>
      <trkpt lat="42.631668" lon="0.656493">
        <ele>3362.2</ele>
        <time>1970-01-01T05:36:22.000Z</time>
      </trkpt>
      <trkpt lat="42.631668" lon="0.656495">
        <ele>3362.2</ele>
        <time>1970-01-01T05:36:23.000Z</time>
      </trkpt>
      <trkpt lat="42.63167" lon="0.656496">
        <ele>3362.2</ele>
        <time>1970-01-01T05:36:24.000Z</time>
      </trkpt>
      <trkpt lat="42.63167" lon="0.656497">
        <ele>3362.2</ele>
        <time>1970-01-01T05:36:25.000Z</time>
      </trkpt>
      <trkpt lat="42.631671" lon="0.656498">
        <ele>3362.1</ele>
        <time>1970-01-01T05:36:26.000Z</time>
      </trkpt>
      <trkpt lat="42.631672" lon="0.6565">
        <ele>3362.1</ele>
        <time>1970-01-01T05:36:27.000Z</time>
      </trkpt>
      <trkpt lat="42.631672" lon="0.656502">
        <ele>3362.1</ele>
        <time>1970-01-01T05:36:28.000Z</time>
      </trkpt>
      <trkpt lat="42.631672" lon="0.656503">
        <ele>3362.1</ele>
        <time>1970-01-01T05:36:29.000Z</time>
      </trkpt>
      <trkpt lat="42.631672" lon="0.656504">
        <ele>3362.1</ele>
        <time>1970-01-01T05:36:31.000Z</time>
      </trkpt>
      <trkpt lat="42.631672" lon="0.656505">
        <ele>3362.1</ele>
        <time>1970-01-01T05:36:32.000Z</time>
      </trkpt>
      <trkpt lat="42.631672" lon="0.656504">
        <ele>3362.1</ele>
        <time>1970-01-01T05:36:33.000Z</time>
      </trkpt>
      <trkpt lat="42.631672" lon="0.656503">
        <ele>3362.1</ele>
        <time>1970-01-01T05:36:34.000Z</time>
      </trkpt>
      <trkpt lat="42.631672" lon="0.656501">
        <ele>3362.1</ele>
        <time>1970-01-01T05:36:35.000Z</time>
      </trkpt>
      <trkpt lat="42.631672" lon="0.6565">
        <ele>3362.1</ele>
        <time>1970-01-01T05:36:36.000Z</time>
      </trkpt>
      <trkpt lat="42.631672" lon="0.656498">
        <ele>3362.1</ele>
        <time>1970-01-01T05:36:37.000Z</time>
      </trkpt>
      <trkpt lat="42.631672" lon="0.656495">
        <ele>3362.1</ele>
        <time>1970-01-01T05:36:38.000Z</time>
      </trkpt>
      <trkpt lat="42.631673" lon="0.656492">
        <ele>3362</ele>
        <time>1970-01-01T05:36:40.000Z</time>
      </trkpt>
      <trkpt lat="42.631686" lon="0.656479">
        <ele>3361.9</ele>
        <time>1970-01-01T05:36:42.000Z</time>
      </trkpt>
      <trkpt lat="42.631695" lon="0.656478">
        <ele>3361.9</ele>
        <time>1970-01-01T05:36:43.000Z</time>
      </trkpt>
      <trkpt lat="42.631705" lon="0.656473">
        <ele>3361.8</ele>
        <time>1970-01-01T05:36:44.000Z</time>
      </trkpt>
      <trkpt lat="42.631719" lon="0.656472">
        <ele>3361.7</ele>
        <time>1970-01-01T05:36:45.000Z</time>
      </trkpt>
      <trkpt lat="42.63173" lon="0.656476">
        <ele>3361.6</ele>
        <time>1970-01-01T05:36:46.000Z</time>
      </trkpt>
      <trkpt lat="42.63174" lon="0.656479">
        <ele>3361.5</ele>
        <time>1970-01-01T05:36:48.000Z</time>
      </trkpt>
      <trkpt lat="42.631746" lon="0.656481">
        <ele>3361.5</ele>
        <time>1970-01-01T05:36:49.000Z</time>
      </trkpt>
      <trkpt lat="42.631746" lon="0.656479">
        <ele>3361.5</ele>
        <time>1970-01-01T05:36:50.000Z</time>
      </trkpt>
      <trkpt lat="42.631745" lon="0.656477">
        <ele>3361.5</ele>
        <time>1970-01-01T05:36:51.000Z</time>
      </trkpt>
      <trkpt lat="42.631743" lon="0.656476">
        <ele>3361.4</ele>
        <time>1970-01-01T05:36:52.000Z</time>
      </trkpt>
      <trkpt lat="42.631742" lon="0.656476">
        <ele>3361.4</ele>
        <time>1970-01-01T05:36:53.000Z</time>
      </trkpt>
      <trkpt lat="42.631741" lon="0.656477">
        <ele>3361.4</ele>
        <time>1970-01-01T05:36:54.000Z</time>
      </trkpt>
      <trkpt lat="42.631742" lon="0.656479">
        <ele>3361.4</ele>
        <time>1970-01-01T05:36:55.000Z</time>
      </trkpt>
      <trkpt lat="42.631746" lon="0.656481">
        <ele>3361.4</ele>
        <time>1970-01-01T05:36:56.000Z</time>
      </trkpt>
      <trkpt lat="42.631752" lon="0.656483">
        <ele>3361.3</ele>
        <time>1970-01-01T05:36:57.000Z</time>
      </trkpt>
      <trkpt lat="42.63176" lon="0.656485">
        <ele>3361.3</ele>
        <time>1970-01-01T05:36:58.000Z</time>
      </trkpt>
      <trkpt lat="42.63177" lon="0.656487">
        <ele>3361.2</ele>
        <time>1970-01-01T05:36:59.000Z</time>
      </trkpt>
      <trkpt lat="42.631781" lon="0.656487">
        <ele>3361.1</ele>
        <time>1970-01-01T05:37:00.000Z</time>
      </trkpt>
      <trkpt lat="42.63179" lon="0.656489">
        <ele>3361.1</ele>
        <time>1970-01-01T05:37:01.000Z</time>
      </trkpt>
      <trkpt lat="42.631792" lon="0.656467">
        <ele>3361</ele>
        <time>1970-01-01T05:37:03.000Z</time>
      </trkpt>
      <trkpt lat="42.63179" lon="0.656455">
        <ele>3360.9</ele>
        <time>1970-01-01T05:37:04.000Z</time>
      </trkpt>
      <trkpt lat="42.631788" lon="0.656443">
        <ele>3360.8</ele>
        <time>1970-01-01T05:37:05.000Z</time>
      </trkpt>
      <trkpt lat="42.631787" lon="0.656432">
        <ele>3360.8</ele>
        <time>1970-01-01T05:37:06.000Z</time>
      </trkpt>
      <trkpt lat="42.631802" lon="0.656427">
        <ele>3360.7</ele>
        <time>1970-01-01T05:37:07.000Z</time>
      </trkpt>
      <trkpt lat="42.631814" lon="0.656428">
        <ele>3360.6</ele>
        <time>1970-01-01T05:37:08.000Z</time>
      </trkpt>
      <trkpt lat="42.631825" lon="0.656428">
        <ele>3360.5</ele>
        <time>1970-01-01T05:37:09.000Z</time>
      </trkpt>
      <trkpt lat="42.631838" lon="0.656428">
        <ele>3360.4</ele>
        <time>1970-01-01T05:37:11.000Z</time>
      </trkpt>
      <trkpt lat="42.631844" lon="0.656433">
        <ele>3360.3</ele>
        <time>1970-01-01T05:37:12.000Z</time>
      </trkpt>
      <trkpt lat="42.631859" lon="0.656441">
        <ele>3360.2</ele>
        <time>1970-01-01T05:37:13.000Z</time>
      </trkpt>
      <trkpt lat="42.631874" lon="0.656436">
        <ele>3360.1</ele>
        <time>1970-01-01T05:37:15.000Z</time>
      </trkpt>
      <trkpt lat="42.631882" lon="0.656413">
        <ele>3360</ele>
        <time>1970-01-01T05:37:17.000Z</time>
      </trkpt>
      <trkpt lat="42.631881" lon="0.65639">
        <ele>3359.9</ele>
        <time>1970-01-01T05:37:18.000Z</time>
      </trkpt>
      <trkpt lat="42.631873" lon="0.656375">
        <ele>3359.8</ele>
        <time>1970-01-01T05:37:19.000Z</time>
      </trkpt>
      <trkpt lat="42.631866" lon="0.656368">
        <ele>3359.7</ele>
        <time>1970-01-01T05:37:20.000Z</time>
      </trkpt>
      <trkpt lat="42.631865" lon="0.656373">
        <ele>3359.7</ele>
        <time>1970-01-01T05:37:21.000Z</time>
      </trkpt>
      <trkpt lat="42.631865" lon="0.656377">
        <ele>3359.7</ele>
        <time>1970-01-01T05:37:22.000Z</time>
      </trkpt>
      <trkpt lat="42.631864" lon="0.656382">
        <ele>3359.6</ele>
        <time>1970-01-01T05:37:23.000Z</time>
      </trkpt>
      <trkpt lat="42.631864" lon="0.656386">
        <ele>3359.6</ele>
        <time>1970-01-01T05:37:25.000Z</time>
      </trkpt>
      <trkpt lat="42.631863" lon="0.65639">
        <ele>3359.6</ele>
        <time>1970-01-01T05:37:26.000Z</time>
      </trkpt>
      <trkpt lat="42.631863" lon="0.656395">
        <ele>3359.6</ele>
        <time>1970-01-01T05:37:27.000Z</time>
      </trkpt>
      <trkpt lat="42.631862" lon="0.656399">
        <ele>3359.5</ele>
        <time>1970-01-01T05:37:28.000Z</time>
      </trkpt>
      <trkpt lat="42.631861" lon="0.656403">
        <ele>3359.5</ele>
        <time>1970-01-01T05:37:29.000Z</time>
      </trkpt>
      <trkpt lat="42.631861" lon="0.656408">
        <ele>3359.5</ele>
        <time>1970-01-01T05:37:31.000Z</time>
      </trkpt>
      <trkpt lat="42.63186" lon="0.656412">
        <ele>3359.5</ele>
        <time>1970-01-01T05:37:32.000Z</time>
      </trkpt>
      <trkpt lat="42.63186" lon="0.656416">
        <ele>3359.5</ele>
        <time>1970-01-01T05:37:34.000Z</time>
      </trkpt>
      <trkpt lat="42.631859" lon="0.656421">
        <ele>3359.4</ele>
        <time>1970-01-01T05:37:35.000Z</time>
      </trkpt>
      <trkpt lat="42.631854" lon="0.656426">
        <ele>3359.4</ele>
        <time>1970-01-01T05:37:36.000Z</time>
      </trkpt>
      <trkpt lat="42.63185" lon="0.656432">
        <ele>3359.3</ele>
        <time>1970-01-01T05:37:37.000Z</time>
      </trkpt>
      <trkpt lat="42.631847" lon="0.656441">
        <ele>3359.3</ele>
        <time>1970-01-01T05:37:38.000Z</time>
      </trkpt>
      <trkpt lat="42.631848" lon="0.656448">
        <ele>3359.2</ele>
        <time>1970-01-01T05:37:39.000Z</time>
      </trkpt>
      <trkpt lat="42.631852" lon="0.656448">
        <ele>3359.2</ele>
        <time>1970-01-01T05:37:40.000Z</time>
      </trkpt>
      <trkpt lat="42.631857" lon="0.656446">
        <ele>3359.2</ele>
        <time>1970-01-01T05:37:41.000Z</time>
      </trkpt>
      <trkpt lat="42.63186" lon="0.656443">
        <ele>3359.2</ele>
        <time>1970-01-01T05:37:42.000Z</time>
      </trkpt>
      <trkpt lat="42.631862" lon="0.656441">
        <ele>3359.1</ele>
        <time>1970-01-01T05:37:43.000Z</time>
      </trkpt>
      <trkpt lat="42.631862" lon="0.656439">
        <ele>3359.1</ele>
        <time>1970-01-01T05:37:44.000Z</time>
      </trkpt>
      <trkpt lat="42.631861" lon="0.656439">
        <ele>3359.1</ele>
        <time>1970-01-01T05:37:45.000Z</time>
      </trkpt>
      <trkpt lat="42.63186" lon="0.656439">
        <ele>3359.1</ele>
        <time>1970-01-01T05:37:46.000Z</time>
      </trkpt>
      <trkpt lat="42.63186" lon="0.656439">
        <ele>3359.1</ele>
        <time>1970-01-01T05:37:47.000Z</time>
      </trkpt>
      <trkpt lat="42.63186" lon="0.656438">
        <ele>3359.1</ele>
        <time>1970-01-01T05:37:48.000Z</time>
      </trkpt>
      <trkpt lat="42.631859" lon="0.656437">
        <ele>3359.1</ele>
        <time>1970-01-01T05:37:49.000Z</time>
      </trkpt>
      <trkpt lat="42.631859" lon="0.656437">
        <ele>3359.1</ele>
        <time>1970-01-01T05:37:50.000Z</time>
      </trkpt>
      <trkpt lat="42.631859" lon="0.656439">
        <ele>3359.1</ele>
        <time>1970-01-01T05:37:52.000Z</time>
      </trkpt>
      <trkpt lat="42.631861" lon="0.656438">
        <ele>3359.1</ele>
        <time>1970-01-01T05:37:53.000Z</time>
      </trkpt>
      <trkpt lat="42.631865" lon="0.656435">
        <ele>3359</ele>
        <time>1970-01-01T05:37:55.000Z</time>
      </trkpt>
      <trkpt lat="42.631865" lon="0.656432">
        <ele>3359</ele>
        <time>1970-01-01T05:37:56.000Z</time>
      </trkpt>
      <trkpt lat="42.631864" lon="0.656429">
        <ele>3359</ele>
        <time>1970-01-01T05:37:57.000Z</time>
      </trkpt>
      <trkpt lat="42.631862" lon="0.656427">
        <ele>3359</ele>
        <time>1970-01-01T05:37:58.000Z</time>
      </trkpt>
      <trkpt lat="42.631861" lon="0.656424">
        <ele>3359</ele>
        <time>1970-01-01T05:37:59.000Z</time>
      </trkpt>
      <trkpt lat="42.631859" lon="0.656422">
        <ele>3359</ele>
        <time>1970-01-01T05:38:00.000Z</time>
      </trkpt>
      <trkpt lat="42.631858" lon="0.65642">
        <ele>3358.9</ele>
        <time>1970-01-01T05:38:01.000Z</time>
      </trkpt>
      <trkpt lat="42.631856" lon="0.656418">
        <ele>3358.9</ele>
        <time>1970-01-01T05:38:03.000Z</time>
      </trkpt>
      <trkpt lat="42.631856" lon="0.656416">
        <ele>3358.9</ele>
        <time>1970-01-01T05:38:04.000Z</time>
      </trkpt>
      <trkpt lat="42.631856" lon="0.656415">
        <ele>3358.9</ele>
        <time>1970-01-01T05:38:05.000Z</time>
      </trkpt>
      <trkpt lat="42.631855" lon="0.656414">
        <ele>3358.9</ele>
        <time>1970-01-01T05:38:06.000Z</time>
      </trkpt>
      <trkpt lat="42.631854" lon="0.656413">
        <ele>3358.9</ele>
        <time>1970-01-01T05:38:07.000Z</time>
      </trkpt>
      <trkpt lat="42.631854" lon="0.656413">
        <ele>3358.9</ele>
        <time>1970-01-01T05:38:08.000Z</time>
      </trkpt>
      <trkpt lat="42.631853" lon="0.656412">
        <ele>3358.9</ele>
        <time>1970-01-01T05:38:09.000Z</time>
      </trkpt>
      <trkpt lat="42.631853" lon="0.656411">
        <ele>3358.9</ele>
        <time>1970-01-01T05:38:10.000Z</time>
      </trkpt>
      <trkpt lat="42.631853" lon="0.656411">
        <ele>3358.9</ele>
        <time>1970-01-01T05:38:11.000Z</time>
      </trkpt>
      <trkpt lat="42.631852" lon="0.656411">
        <ele>3358.9</ele>
        <time>1970-01-01T05:38:12.000Z</time>
      </trkpt>
      <trkpt lat="42.631852" lon="0.65641">
        <ele>3358.9</ele>
        <time>1970-01-01T05:38:13.000Z</time>
      </trkpt>
      <trkpt lat="42.631852" lon="0.65641">
        <ele>3358.9</ele>
        <time>1970-01-01T05:38:14.000Z</time>
      </trkpt>
      <trkpt lat="42.63185" lon="0.656411">
        <ele>3358.8</ele>
        <time>1970-01-01T05:38:15.000Z</time>
      </trkpt>
      <trkpt lat="42.631849" lon="0.656412">
        <ele>3358.8</ele>
        <time>1970-01-01T05:38:16.000Z</time>
      </trkpt>
      <trkpt lat="42.631848" lon="0.656412">
        <ele>3358.8</ele>
        <time>1970-01-01T05:38:17.000Z</time>
      </trkpt>
      <trkpt lat="42.631848" lon="0.656412">
        <ele>3358.8</ele>
        <time>1970-01-01T05:38:18.000Z</time>
      </trkpt>
      <trkpt lat="42.631848" lon="0.656412">
        <ele>3358.8</ele>
        <time>1970-01-01T05:38:19.000Z</time>
      </trkpt>
      <trkpt lat="42.631848" lon="0.656412">
        <ele>3358.8</ele>
        <time>1970-01-01T05:38:20.000Z</time>
      </trkpt>
      <trkpt lat="42.631848" lon="0.656412">
        <ele>3358.8</ele>
        <time>1970-01-01T05:38:21.000Z</time>
      </trkpt>
      <trkpt lat="42.631848" lon="0.656412">
        <ele>3358.8</ele>
        <time>1970-01-01T05:38:22.000Z</time>
      </trkpt>
      <trkpt lat="42.631848" lon="0.656412">
        <ele>3358.8</ele>
        <time>1970-01-01T05:38:23.000Z</time>
      </trkpt>
      <trkpt lat="42.631848" lon="0.656412">
        <ele>3358.8</ele>
        <time>1970-01-01T05:38:24.000Z</time>
      </trkpt>
      <trkpt lat="42.631848" lon="0.656412">
        <ele>3358.8</ele>
        <time>1970-01-01T05:38:25.000Z</time>
      </trkpt>
      <trkpt lat="42.631848" lon="0.656412">
        <ele>3358.8</ele>
        <time>1970-01-01T05:38:26.000Z</time>
      </trkpt>
      <trkpt lat="42.631848" lon="0.656412">
        <ele>3358.8</ele>
        <time>1970-01-01T05:38:27.000Z</time>
      </trkpt>
      <trkpt lat="42.631848" lon="0.656412">
        <ele>3358.8</ele>
        <time>1970-01-01T05:38:28.000Z</time>
      </trkpt>
      <trkpt lat="42.631848" lon="0.656412">
        <ele>3358.8</ele>
        <time>1970-01-01T05:38:29.000Z</time>
      </trkpt>
      <trkpt lat="42.631848" lon="0.656412">
        <ele>3358.8</ele>
        <time>1970-01-01T05:38:30.000Z</time>
      </trkpt>
      <trkpt lat="42.631848" lon="0.656412">
        <ele>3358.8</ele>
        <time>1970-01-01T05:38:31.000Z</time>
      </trkpt>
      <trkpt lat="42.631848" lon="0.656412">
        <ele>3358.8</ele>
        <time>1970-01-01T05:38:32.000Z</time>
      </trkpt>
      <trkpt lat="42.631848" lon="0.656412">
        <ele>3358.8</ele>
        <time>1970-01-01T05:38:33.000Z</time>
      </trkpt>
      <trkpt lat="42.631848" lon="0.656412">
        <ele>3358.8</ele>
        <time>1970-01-01T05:38:34.000Z</time>
      </trkpt>
      <trkpt lat="42.631848" lon="0.656412">
        <ele>3358.8</ele>
        <time>1970-01-01T05:38:35.000Z</time>
      </trkpt>
      <trkpt lat="42.631848" lon="0.656412">
        <ele>3358.8</ele>
        <time>1970-01-01T05:38:36.000Z</time>
      </trkpt>
      <trkpt lat="42.631848" lon="0.656412">
        <ele>3358.8</ele>
        <time>1970-01-01T05:38:37.000Z</time>
      </trkpt>
      <trkpt lat="42.631848" lon="0.656412">
        <ele>3358.8</ele>
        <time>1970-01-01T05:38:38.000Z</time>
      </trkpt>
      <trkpt lat="42.631848" lon="0.656412">
        <ele>3358.8</ele>
        <time>1970-01-01T05:38:39.000Z</time>
      </trkpt>
      <trkpt lat="42.631848" lon="0.656412">
        <ele>3358.8</ele>
        <time>1970-01-01T05:38:40.000Z</time>
      </trkpt>
      <trkpt lat="42.631848" lon="0.656413">
        <ele>3358.8</ele>
        <time>1970-01-01T05:38:41.000Z</time>
      </trkpt>
      <trkpt lat="42.631848" lon="0.656413">
        <ele>3358.7</ele>
        <time>1970-01-01T05:38:42.000Z</time>
      </trkpt>
      <trkpt lat="42.631848" lon="0.656413">
        <ele>3358.6</ele>
        <time>1970-01-01T05:38:43.000Z</time>
      </trkpt>
      <trkpt lat="42.631848" lon="0.656413">
        <ele>3358.5</ele>
        <time>1970-01-01T05:38:44.000Z</time>
      </trkpt>
      <trkpt lat="42.631848" lon="0.656413">
        <ele>3358.4</ele>
        <time>1970-01-01T05:38:45.000Z</time>
      </trkpt>
      <trkpt lat="42.631848" lon="0.656413">
        <ele>3358.3</ele>
        <time>1970-01-01T05:38:46.000Z</time>
      </trkpt>
      <trkpt lat="42.631848" lon="0.656413">
        <ele>3358.2</ele>
        <time>1970-01-01T05:38:47.000Z</time>
      </trkpt>
      <trkpt lat="42.631848" lon="0.656413">
        <ele>3358.1</ele>
        <time>1970-01-01T05:38:48.000Z</time>
      </trkpt>
      <trkpt lat="42.631848" lon="0.656413">
        <ele>3358</ele>
        <time>1970-01-01T05:38:49.000Z</time>
      </trkpt>
      <trkpt lat="42.631848" lon="0.656413">
        <ele>3357.9</ele>
        <time>1970-01-01T05:38:50.000Z</time>
      </trkpt>
      <trkpt lat="42.631848" lon="0.656413">
        <ele>3357.8</ele>
        <time>1970-01-01T05:38:51.000Z</time>
      </trkpt>
      <trkpt lat="42.631848" lon="0.656413">
        <ele>3357.7</ele>
        <time>1970-01-01T05:38:52.000Z</time>
      </trkpt>
      <trkpt lat="42.631848" lon="0.656413">
        <ele>3357.6</ele>
        <time>1970-01-01T05:38:53.000Z</time>
      </trkpt>
      <trkpt lat="42.631848" lon="0.656413">
        <ele>3357.5</ele>
        <time>1970-01-01T05:38:54.000Z</time>
      </trkpt>
      <trkpt lat="42.631848" lon="0.656413">
        <ele>3357.4</ele>
        <time>1970-01-01T05:38:55.000Z</time>
      </trkpt>
      <trkpt lat="42.631848" lon="0.656413">
        <ele>3357.3</ele>
        <time>1970-01-01T05:38:56.000Z</time>
      </trkpt>
      <trkpt lat="42.631848" lon="0.656413">
        <ele>3357.2</ele>
        <time>1970-01-01T05:38:57.000Z</time>
      </trkpt>
      <trkpt lat="42.631848" lon="0.656413">
        <ele>3357.1</ele>
        <time>1970-01-01T05:38:58.000Z</time>
      </trkpt>
      <trkpt lat="42.631848" lon="0.656413">
        <ele>3357</ele>
        <time>1970-01-01T05:38:59.000Z</time>
      </trkpt>
      <trkpt lat="42.631847" lon="0.656413">
        <ele>3356.9</ele>
        <time>1970-01-01T05:39:00.000Z</time>
      </trkpt>
      <trkpt lat="42.631847" lon="0.656413">
        <ele>3356.8</ele>
        <time>1970-01-01T05:39:01.000Z</time>
      </trkpt>
      <trkpt lat="42.631847" lon="0.656413">
        <ele>3356.7</ele>
        <time>1970-01-01T05:39:02.000Z</time>
      </trkpt>
      <trkpt lat="42.631847" lon="0.656413">
        <ele>3356.6</ele>
        <time>1970-01-01T05:39:03.000Z</time>
      </trkpt>
      <trkpt lat="42.631847" lon="0.656413">
        <ele>3356.5</ele>
        <time>1970-01-01T05:39:04.000Z</time>
      </trkpt>
      <trkpt lat="42.631847" lon="0.656413">
        <ele>3356.4</ele>
        <time>1970-01-01T05:39:05.000Z</time>
      </trkpt>
      <trkpt lat="42.631847" lon="0.656413">
        <ele>3356.3</ele>
        <time>1970-01-01T05:39:06.000Z</time>
      </trkpt>
      <trkpt lat="42.631847" lon="0.656413">
        <ele>3356.2</ele>
        <time>1970-01-01T05:39:07.000Z</time>
      </trkpt>
      <trkpt lat="42.631847" lon="0.656413">
        <ele>3356.1</ele>
        <time>1970-01-01T05:39:08.000Z</time>
      </trkpt>
      <trkpt lat="42.631847" lon="0.656413">
        <ele>3356</ele>
        <time>1970-01-01T05:39:09.000Z</time>
      </trkpt>
      <trkpt lat="42.631847" lon="0.656413">
        <ele>3355.9</ele>
        <time>1970-01-01T05:39:10.000Z</time>
      </trkpt>
      <trkpt lat="42.631847" lon="0.656413">
        <ele>3355.8</ele>
        <time>1970-01-01T05:39:11.000Z</time>
      </trkpt>
      <trkpt lat="42.631847" lon="0.656413">
        <ele>3355.7</ele>
        <time>1970-01-01T05:39:12.000Z</time>
      </trkpt>
      <trkpt lat="42.631847" lon="0.656413">
        <ele>3355.6</ele>
        <time>1970-01-01T05:39:13.000Z</time>
      </trkpt>
      <trkpt lat="42.631847" lon="0.656413">
        <ele>3355.5</ele>
        <time>1970-01-01T05:39:14.000Z</time>
      </trkpt>
      <trkpt lat="42.631847" lon="0.656413">
        <ele>3355.4</ele>
        <time>1970-01-01T05:39:15.000Z</time>
      </trkpt>
      <trkpt lat="42.631847" lon="0.656413">
        <ele>3355.3</ele>
        <time>1970-01-01T05:39:16.000Z</time>
      </trkpt>
      <trkpt lat="42.631847" lon="0.656413">
        <ele>3355.2</ele>
        <time>1970-01-01T05:39:17.000Z</time>
      </trkpt>
      <trkpt lat="42.631847" lon="0.656413">
        <ele>3355.1</ele>
        <time>1970-01-01T05:39:18.000Z</time>
      </trkpt>
      <trkpt lat="42.631847" lon="0.656413">
        <ele>3355</ele>
        <time>1970-01-01T05:39:19.000Z</time>
      </trkpt>
      <trkpt lat="42.631847" lon="0.656413">
        <ele>3354.9</ele>
        <time>1970-01-01T05:39:20.000Z</time>
      </trkpt>
      <trkpt lat="42.631848" lon="0.656413">
        <ele>3354.8</ele>
        <time>1970-01-01T05:39:21.000Z</time>
      </trkpt>
      <trkpt lat="42.631848" lon="0.656413">
        <ele>3354.7</ele>
        <time>1970-01-01T05:39:22.000Z</time>
      </trkpt>
      <trkpt lat="42.631848" lon="0.656413">
        <ele>3354.6</ele>
        <time>1970-01-01T05:39:23.000Z</time>
      </trkpt>
      <trkpt lat="42.631848" lon="0.656413">
        <ele>3354.5</ele>
        <time>1970-01-01T05:39:24.000Z</time>
      </trkpt>
      <trkpt lat="42.631848" lon="0.656413">
        <ele>3354.4</ele>
        <time>1970-01-01T05:39:25.000Z</time>
      </trkpt>
      <trkpt lat="42.631848" lon="0.656413">
        <ele>3354.3</ele>
        <time>1970-01-01T05:39:26.000Z</time>
      </trkpt>
      <trkpt lat="42.631848" lon="0.656413">
        <ele>3354.2</ele>
        <time>1970-01-01T05:39:27.000Z</time>
      </trkpt>
      <trkpt lat="42.631848" lon="0.656413">
        <ele>3354.1</ele>
        <time>1970-01-01T05:39:28.000Z</time>
      </trkpt>
      <trkpt lat="42.631847" lon="0.656412">
        <ele>3354</ele>
        <time>1970-01-01T05:39:29.000Z</time>
      </trkpt>
      <trkpt lat="42.631847" lon="0.656412">
        <ele>3353.9</ele>
        <time>1970-01-01T05:39:30.000Z</time>
      </trkpt>
      <trkpt lat="42.631847" lon="0.656411">
        <ele>3353.9</ele>
        <time>1970-01-01T05:39:31.000Z</time>
      </trkpt>
      <trkpt lat="42.631849" lon="0.656408">
        <ele>3353.7</ele>
        <time>1970-01-01T05:39:32.000Z</time>
      </trkpt>
      <trkpt lat="42.63185" lon="0.656406">
        <ele>3353.5</ele>
        <time>1970-01-01T05:39:33.000Z</time>
      </trkpt>
      <trkpt lat="42.631848" lon="0.656405">
        <ele>3353.4</ele>
        <time>1970-01-01T05:39:34.000Z</time>
      </trkpt>
      <trkpt lat="42.631845" lon="0.656409">
        <ele>3353.2</ele>
        <time>1970-01-01T05:39:35.000Z</time>
      </trkpt>
      <trkpt lat="42.631843" lon="0.656413">
        <ele>3353.1</ele>
        <time>1970-01-01T05:39:36.000Z</time>
      </trkpt>
      <trkpt lat="42.631841" lon="0.656416">
        <ele>3352.9</ele>
        <time>1970-01-01T05:39:37.000Z</time>
      </trkpt>
      <trkpt lat="42.631839" lon="0.65642">
        <ele>3352.7</ele>
        <time>1970-01-01T05:39:38.000Z</time>
      </trkpt>
      <trkpt lat="42.631836" lon="0.656427">
        <ele>3352.6</ele>
        <time>1970-01-01T05:39:39.000Z</time>
      </trkpt>
      <trkpt lat="42.631835" lon="0.656432">
        <ele>3352.4</ele>
        <time>1970-01-01T05:39:40.000Z</time>
      </trkpt>
      <trkpt lat="42.631834" lon="0.656433">
        <ele>3352.3</ele>
        <time>1970-01-01T05:39:41.000Z</time>
      </trkpt>
      <trkpt lat="42.631833" lon="0.656431">
        <ele>3352.1</ele>
        <time>1970-01-01T05:39:42.000Z</time>
      </trkpt>
      <trkpt lat="42.631833" lon="0.65643">
        <ele>3352</ele>
        <time>1970-01-01T05:39:43.000Z</time>
      </trkpt>
      <trkpt lat="42.631834" lon="0.656428">
        <ele>3351.8</ele>
        <time>1970-01-01T05:39:44.000Z</time>
      </trkpt>
      <trkpt lat="42.631834" lon="0.656427">
        <ele>3351.7</ele>
        <time>1970-01-01T05:39:45.000Z</time>
      </trkpt>
      <trkpt lat="42.631835" lon="0.656427">
        <ele>3351.6</ele>
        <time>1970-01-01T05:39:46.000Z</time>
      </trkpt>
      <trkpt lat="42.631835" lon="0.656426">
        <ele>3351.5</ele>
        <time>1970-01-01T05:39:47.000Z</time>
      </trkpt>
      <trkpt lat="42.631835" lon="0.656426">
        <ele>3351.4</ele>
        <time>1970-01-01T05:39:48.000Z</time>
      </trkpt>
      <trkpt lat="42.631835" lon="0.656426">
        <ele>3351.3</ele>
        <time>1970-01-01T05:39:49.000Z</time>
      </trkpt>
      <trkpt lat="42.631835" lon="0.656426">
        <ele>3351.2</ele>
        <time>1970-01-01T05:39:50.000Z</time>
      </trkpt>
      <trkpt lat="42.631835" lon="0.656426">
        <ele>3351.1</ele>
        <time>1970-01-01T05:39:51.000Z</time>
      </trkpt>
      <trkpt lat="42.631836" lon="0.656426">
        <ele>3351</ele>
        <time>1970-01-01T05:39:52.000Z</time>
      </trkpt>
      <trkpt lat="42.631835" lon="0.656426">
        <ele>3350.8</ele>
        <time>1970-01-01T05:39:53.000Z</time>
      </trkpt>
      <trkpt lat="42.631835" lon="0.656426">
        <ele>3350.7</ele>
        <time>1970-01-01T05:39:54.000Z</time>
      </trkpt>
      <trkpt lat="42.631835" lon="0.656426">
        <ele>3350.6</ele>
        <time>1970-01-01T05:39:55.000Z</time>
      </trkpt>
      <trkpt lat="42.631835" lon="0.656426">
        <ele>3350.5</ele>
        <time>1970-01-01T05:39:56.000Z</time>
      </trkpt>
      <trkpt lat="42.631836" lon="0.656426">
        <ele>3350.4</ele>
        <time>1970-01-01T05:39:57.000Z</time>
      </trkpt>
      <trkpt lat="42.631835" lon="0.656426">
        <ele>3350.3</ele>
        <time>1970-01-01T05:39:58.000Z</time>
      </trkpt>
      <trkpt lat="42.631835" lon="0.656426">
        <ele>3350.2</ele>
        <time>1970-01-01T05:39:59.000Z</time>
      </trkpt>
      <trkpt lat="42.631835" lon="0.656426">
        <ele>3350</ele>
        <time>1970-01-01T05:40:00.000Z</time>
      </trkpt>
      <trkpt lat="42.631835" lon="0.656426">
        <ele>3349.9</ele>
        <time>1970-01-01T05:40:01.000Z</time>
      </trkpt>
      <trkpt lat="42.631835" lon="0.656426">
        <ele>3349.8</ele>
        <time>1970-01-01T05:40:02.000Z</time>
      </trkpt>
      <trkpt lat="42.631835" lon="0.656426">
        <ele>3349.7</ele>
        <time>1970-01-01T05:40:03.000Z</time>
      </trkpt>
      <trkpt lat="42.631836" lon="0.656426">
        <ele>3349.6</ele>
        <time>1970-01-01T05:40:04.000Z</time>
      </trkpt>
      <trkpt lat="42.631836" lon="0.656426">
        <ele>3349.5</ele>
        <time>1970-01-01T05:40:05.000Z</time>
      </trkpt>
      <trkpt lat="42.631835" lon="0.656426">
        <ele>3349.3</ele>
        <time>1970-01-01T05:40:06.000Z</time>
      </trkpt>
      <trkpt lat="42.631835" lon="0.656426">
        <ele>3349.2</ele>
        <time>1970-01-01T05:40:07.000Z</time>
      </trkpt>
      <trkpt lat="42.631835" lon="0.656426">
        <ele>3349.1</ele>
        <time>1970-01-01T05:40:08.000Z</time>
      </trkpt>
      <trkpt lat="42.631835" lon="0.656426">
        <ele>3349</ele>
        <time>1970-01-01T05:40:09.000Z</time>
      </trkpt>
      <trkpt lat="42.631835" lon="0.656426">
        <ele>3348.9</ele>
        <time>1970-01-01T05:40:10.000Z</time>
      </trkpt>
      <trkpt lat="42.631835" lon="0.656426">
        <ele>3348.8</ele>
        <time>1970-01-01T05:40:11.000Z</time>
      </trkpt>
      <trkpt lat="42.631835" lon="0.656426">
        <ele>3348.7</ele>
        <time>1970-01-01T05:40:12.000Z</time>
      </trkpt>
      <trkpt lat="42.631836" lon="0.656425">
        <ele>3348.6</ele>
        <time>1970-01-01T05:40:13.000Z</time>
      </trkpt>
      <trkpt lat="42.631836" lon="0.656427">
        <ele>3348.5</ele>
        <time>1970-01-01T05:40:14.000Z</time>
      </trkpt>
      <trkpt lat="42.631837" lon="0.656428">
        <ele>3348.3</ele>
        <time>1970-01-01T05:40:15.000Z</time>
      </trkpt>
      <trkpt lat="42.631837" lon="0.656429">
        <ele>3348.1</ele>
        <time>1970-01-01T05:40:16.000Z</time>
      </trkpt>
      <trkpt lat="42.631837" lon="0.656429">
        <ele>3348</ele>
        <time>1970-01-01T05:40:17.000Z</time>
      </trkpt>
      <trkpt lat="42.631837" lon="0.65643">
        <ele>3347.9</ele>
        <time>1970-01-01T05:40:18.000Z</time>
      </trkpt>
      <trkpt lat="42.631837" lon="0.65643">
        <ele>3347.8</ele>
        <time>1970-01-01T05:40:19.000Z</time>
      </trkpt>
      <trkpt lat="42.631837" lon="0.656429">
        <ele>3347.7</ele>
        <time>1970-01-01T05:40:20.000Z</time>
      </trkpt>
      <trkpt lat="42.631837" lon="0.656429">
        <ele>3347.6</ele>
        <time>1970-01-01T05:40:21.000Z</time>
      </trkpt>
      <trkpt lat="42.631837" lon="0.656429">
        <ele>3347.6</ele>
        <time>1970-01-01T05:40:22.000Z</time>
      </trkpt>
      <trkpt lat="42.631837" lon="0.656429">
        <ele>3347.6</ele>
        <time>1970-01-01T05:40:23.000Z</time>
      </trkpt>
      <trkpt lat="42.631837" lon="0.656429">
        <ele>3347.6</ele>
        <time>1970-01-01T05:40:24.000Z</time>
      </trkpt>
      <trkpt lat="42.631837" lon="0.656429">
        <ele>3347.6</ele>
        <time>1970-01-01T05:40:25.000Z</time>
      </trkpt>
      <trkpt lat="42.631837" lon="0.656429">
        <ele>3347.6</ele>
        <time>1970-01-01T05:40:26.000Z</time>
      </trkpt>
      <trkpt lat="42.631837" lon="0.656429">
        <ele>3347.6</ele>
        <time>1970-01-01T05:40:27.000Z</time>
      </trkpt>
      <trkpt lat="42.631837" lon="0.656429">
        <ele>3347.6</ele>
        <time>1970-01-01T05:40:28.000Z</time>
      </trkpt>
      <trkpt lat="42.631837" lon="0.656429">
        <ele>3347.6</ele>
        <time>1970-01-01T05:40:29.000Z</time>
      </trkpt>
      <trkpt lat="42.631837" lon="0.656429">
        <ele>3347.6</ele>
        <time>1970-01-01T05:40:30.000Z</time>
      </trkpt>
      <trkpt lat="42.631837" lon="0.656429">
        <ele>3347.6</ele>
        <time>1970-01-01T05:40:31.000Z</time>
      </trkpt>
      <trkpt lat="42.631837" lon="0.656429">
        <ele>3347.6</ele>
        <time>1970-01-01T05:40:32.000Z</time>
      </trkpt>
      <trkpt lat="42.631837" lon="0.656429">
        <ele>3347.6</ele>
        <time>1970-01-01T05:40:33.000Z</time>
      </trkpt>
      <trkpt lat="42.631837" lon="0.656429">
        <ele>3347.6</ele>
        <time>1970-01-01T05:40:34.000Z</time>
      </trkpt>
      <trkpt lat="42.631837" lon="0.656429">
        <ele>3347.6</ele>
        <time>1970-01-01T05:40:35.000Z</time>
      </trkpt>
      <trkpt lat="42.631837" lon="0.656429">
        <ele>3347.6</ele>
        <time>1970-01-01T05:40:36.000Z</time>
      </trkpt>
      <trkpt lat="42.631837" lon="0.656429">
        <ele>3347.6</ele>
        <time>1970-01-01T05:40:37.000Z</time>
      </trkpt>
      <trkpt lat="42.631837" lon="0.656429">
        <ele>3347.6</ele>
        <time>1970-01-01T05:40:38.000Z</time>
      </trkpt>
      <trkpt lat="42.631837" lon="0.656429">
        <ele>3347.6</ele>
        <time>1970-01-01T05:40:39.000Z</time>
      </trkpt>
      <trkpt lat="42.631837" lon="0.656429">
        <ele>3347.6</ele>
        <time>1970-01-01T05:40:40.000Z</time>
      </trkpt>
      <trkpt lat="42.631837" lon="0.656429">
        <ele>3347.6</ele>
        <time>1970-01-01T05:40:41.000Z</time>
      </trkpt>
      <trkpt lat="42.631837" lon="0.656429">
        <ele>3347.6</ele>
        <time>1970-01-01T05:40:42.000Z</time>
      </trkpt>
      <trkpt lat="42.631837" lon="0.656429">
        <ele>3347.6</ele>
        <time>1970-01-01T05:40:43.000Z</time>
      </trkpt>
      <trkpt lat="42.631837" lon="0.656429">
        <ele>3347.6</ele>
        <time>1970-01-01T05:40:44.000Z</time>
      </trkpt>
      <trkpt lat="42.631837" lon="0.656429">
        <ele>3347.6</ele>
        <time>1970-01-01T05:40:45.000Z</time>
      </trkpt>
      <trkpt lat="42.631837" lon="0.656429">
        <ele>3347.6</ele>
        <time>1970-01-01T05:40:46.000Z</time>
      </trkpt>
      <trkpt lat="42.631837" lon="0.656429">
        <ele>3347.6</ele>
        <time>1970-01-01T05:40:47.000Z</time>
      </trkpt>
      <trkpt lat="42.631837" lon="0.656429">
        <ele>3347.6</ele>
        <time>1970-01-01T05:40:48.000Z</time>
      </trkpt>
      <trkpt lat="42.631837" lon="0.656429">
        <ele>3347.6</ele>
        <time>1970-01-01T05:40:49.000Z</time>
      </trkpt>
      <trkpt lat="42.631837" lon="0.656429">
        <ele>3347.6</ele>
        <time>1970-01-01T05:40:50.000Z</time>
      </trkpt>
      <trkpt lat="42.631837" lon="0.656429">
        <ele>3347.6</ele>
        <time>1970-01-01T05:40:51.000Z</time>
      </trkpt>
      <trkpt lat="42.631837" lon="0.656429">
        <ele>3347.6</ele>
        <time>1970-01-01T05:40:52.000Z</time>
      </trkpt>
      <trkpt lat="42.631837" lon="0.65643">
        <ele>3347.6</ele>
        <time>1970-01-01T05:40:53.000Z</time>
      </trkpt>
      <trkpt lat="42.631837" lon="0.65643">
        <ele>3347.6</ele>
        <time>1970-01-01T05:40:54.000Z</time>
      </trkpt>
      <trkpt lat="42.631837" lon="0.656431">
        <ele>3347.5</ele>
        <time>1970-01-01T05:40:55.000Z</time>
      </trkpt>
      <trkpt lat="42.631838" lon="0.656431">
        <ele>3347.5</ele>
        <time>1970-01-01T05:40:56.000Z</time>
      </trkpt>
      <trkpt lat="42.631838" lon="0.656432">
        <ele>3347.5</ele>
        <time>1970-01-01T05:40:57.000Z</time>
      </trkpt>
      <trkpt lat="42.631835" lon="0.656429">
        <ele>3347.4</ele>
        <time>1970-01-01T05:40:58.000Z</time>
      </trkpt>
      <trkpt lat="42.631831" lon="0.656428">
        <ele>3347.3</ele>
        <time>1970-01-01T05:40:59.000Z</time>
      </trkpt>
      <trkpt lat="42.631829" lon="0.656429">
        <ele>3347.2</ele>
        <time>1970-01-01T05:41:00.000Z</time>
      </trkpt>
      <trkpt lat="42.631829" lon="0.656429">
        <ele>3347.2</ele>
        <time>1970-01-01T05:41:01.000Z</time>
      </trkpt>
      <trkpt lat="42.63183" lon="0.656428">
        <ele>3347.2</ele>
        <time>1970-01-01T05:41:02.000Z</time>
      </trkpt>
      <trkpt lat="42.63183" lon="0.656429">
        <ele>3347.2</ele>
        <time>1970-01-01T05:41:03.000Z</time>
      </trkpt>
      <trkpt lat="42.631831" lon="0.656429">
        <ele>3347.2</ele>
        <time>1970-01-01T05:41:04.000Z</time>
      </trkpt>
      <trkpt lat="42.631831" lon="0.65643">
        <ele>3347.2</ele>
        <time>1970-01-01T05:41:05.000Z</time>
      </trkpt>
      <trkpt lat="42.631831" lon="0.656431">
        <ele>3347.1</ele>
        <time>1970-01-01T05:41:06.000Z</time>
      </trkpt>
      <trkpt lat="42.631831" lon="0.656433">
        <ele>3347.1</ele>
        <time>1970-01-01T05:41:07.000Z</time>
      </trkpt>
      <trkpt lat="42.631831" lon="0.656434">
        <ele>3347.1</ele>
        <time>1970-01-01T05:41:08.000Z</time>
      </trkpt>
      <trkpt lat="42.63183" lon="0.656435">
        <ele>3347.1</ele>
        <time>1970-01-01T05:41:09.000Z</time>
      </trkpt>
      <trkpt lat="42.631829" lon="0.656435">
        <ele>3347</ele>
        <time>1970-01-01T05:41:10.000Z</time>
      </trkpt>
      <trkpt lat="42.631828" lon="0.656437">
        <ele>3347</ele>
        <time>1970-01-01T05:41:11.000Z</time>
      </trkpt>
      <trkpt lat="42.631827" lon="0.656439">
        <ele>3346.9</ele>
        <time>1970-01-01T05:41:12.000Z</time>
      </trkpt>
      <trkpt lat="42.631826" lon="0.656442">
        <ele>3346.9</ele>
        <time>1970-01-01T05:41:14.000Z</time>
      </trkpt>
      <trkpt lat="42.631825" lon="0.656443">
        <ele>3346.8</ele>
        <time>1970-01-01T05:41:15.000Z</time>
      </trkpt>
      <trkpt lat="42.631825" lon="0.656443">
        <ele>3346.8</ele>
        <time>1970-01-01T05:41:16.000Z</time>
      </trkpt>
      <trkpt lat="42.631825" lon="0.656444">
        <ele>3346.8</ele>
        <time>1970-01-01T05:41:17.000Z</time>
      </trkpt>
      <trkpt lat="42.631825" lon="0.656445">
        <ele>3346.8</ele>
        <time>1970-01-01T05:41:18.000Z</time>
      </trkpt>
      <trkpt lat="42.631825" lon="0.656445">
        <ele>3346.8</ele>
        <time>1970-01-01T05:41:19.000Z</time>
      </trkpt>
      <trkpt lat="42.631825" lon="0.656446">
        <ele>3346.8</ele>
        <time>1970-01-01T05:41:20.000Z</time>
      </trkpt>
      <trkpt lat="42.631825" lon="0.656447">
        <ele>3346.8</ele>
        <time>1970-01-01T05:41:21.000Z</time>
      </trkpt>
      <trkpt lat="42.631825" lon="0.656447">
        <ele>3346.8</ele>
        <time>1970-01-01T05:41:22.000Z</time>
      </trkpt>
      <trkpt lat="42.631824" lon="0.656448">
        <ele>3346.7</ele>
        <time>1970-01-01T05:41:23.000Z</time>
      </trkpt>
      <trkpt lat="42.631824" lon="0.656449">
        <ele>3346.7</ele>
        <time>1970-01-01T05:41:24.000Z</time>
      </trkpt>
      <trkpt lat="42.631824" lon="0.656449">
        <ele>3346.7</ele>
        <time>1970-01-01T05:41:25.000Z</time>
      </trkpt>
      <trkpt lat="42.631825" lon="0.656451">
        <ele>3346.7</ele>
        <time>1970-01-01T05:41:26.000Z</time>
      </trkpt>
      <trkpt lat="42.631825" lon="0.656451">
        <ele>3346.7</ele>
        <time>1970-01-01T05:41:27.000Z</time>
      </trkpt>
      <trkpt lat="42.631825" lon="0.656451">
        <ele>3346.7</ele>
        <time>1970-01-01T05:41:28.000Z</time>
      </trkpt>
      <trkpt lat="42.631825" lon="0.656452">
        <ele>3346.7</ele>
        <time>1970-01-01T05:41:29.000Z</time>
      </trkpt>
      <trkpt lat="42.631825" lon="0.656452">
        <ele>3346.7</ele>
        <time>1970-01-01T05:41:30.000Z</time>
      </trkpt>
      <trkpt lat="42.631824" lon="0.656452">
        <ele>3346.6</ele>
        <time>1970-01-01T05:41:31.000Z</time>
      </trkpt>
      <trkpt lat="42.631824" lon="0.656449">
        <ele>3346.6</ele>
        <time>1970-01-01T05:41:32.000Z</time>
      </trkpt>
      <trkpt lat="42.631825" lon="0.656447">
        <ele>3346.5</ele>
        <time>1970-01-01T05:41:33.000Z</time>
      </trkpt>
      <trkpt lat="42.631825" lon="0.656446">
        <ele>3346.5</ele>
        <time>1970-01-01T05:41:34.000Z</time>
      </trkpt>
      <trkpt lat="42.631825" lon="0.656446">
        <ele>3346.5</ele>
        <time>1970-01-01T05:41:35.000Z</time>
      </trkpt>
      <trkpt lat="42.631825" lon="0.656446">
        <ele>3346.5</ele>
        <time>1970-01-01T05:41:36.000Z</time>
      </trkpt>
      <trkpt lat="42.631825" lon="0.656446">
        <ele>3346.5</ele>
        <time>1970-01-01T05:41:37.000Z</time>
      </trkpt>
      <trkpt lat="42.631825" lon="0.656446">
        <ele>3346.5</ele>
        <time>1970-01-01T05:41:38.000Z</time>
      </trkpt>
      <trkpt lat="42.631825" lon="0.656446">
        <ele>3346.5</ele>
        <time>1970-01-01T05:41:39.000Z</time>
      </trkpt>
      <trkpt lat="42.631825" lon="0.656446">
        <ele>3346.5</ele>
        <time>1970-01-01T05:41:40.000Z</time>
      </trkpt>
      <trkpt lat="42.631825" lon="0.656446">
        <ele>3346.5</ele>
        <time>1970-01-01T05:41:41.000Z</time>
      </trkpt>
      <trkpt lat="42.631825" lon="0.656446">
        <ele>3346.5</ele>
        <time>1970-01-01T05:41:42.000Z</time>
      </trkpt>
      <trkpt lat="42.631824" lon="0.656455">
        <ele>3346.4</ele>
        <time>1970-01-01T05:41:43.000Z</time>
      </trkpt>
      <trkpt lat="42.631825" lon="0.656463">
        <ele>3346.2</ele>
        <time>1970-01-01T05:41:44.000Z</time>
      </trkpt>
      <trkpt lat="42.631826" lon="0.656472">
        <ele>3346</ele>
        <time>1970-01-01T05:41:46.000Z</time>
      </trkpt>
      <trkpt lat="42.631825" lon="0.656476">
        <ele>3346</ele>
        <time>1970-01-01T05:41:47.000Z</time>
      </trkpt>
      <trkpt lat="42.631824" lon="0.656477">
        <ele>3345.9</ele>
        <time>1970-01-01T05:41:48.000Z</time>
      </trkpt>
      <trkpt lat="42.631822" lon="0.656477">
        <ele>3345.9</ele>
        <time>1970-01-01T05:41:49.000Z</time>
      </trkpt>
      <trkpt lat="42.631821" lon="0.656478">
        <ele>3345.8</ele>
        <time>1970-01-01T05:41:50.000Z</time>
      </trkpt>
      <trkpt lat="42.63182" lon="0.656478">
        <ele>3345.8</ele>
        <time>1970-01-01T05:41:51.000Z</time>
      </trkpt>
      <trkpt lat="42.63182" lon="0.656478">
        <ele>3345.8</ele>
        <time>1970-01-01T05:41:52.000Z</time>
      </trkpt>
      <trkpt lat="42.631819" lon="0.656478">
        <ele>3345.8</ele>
        <time>1970-01-01T05:41:53.000Z</time>
      </trkpt>
      <trkpt lat="42.631819" lon="0.656479">
        <ele>3345.8</ele>
        <time>1970-01-01T05:41:54.000Z</time>
      </trkpt>
      <trkpt lat="42.631819" lon="0.65648">
        <ele>3345.8</ele>
        <time>1970-01-01T05:41:55.000Z</time>
      </trkpt>
      <trkpt lat="42.631819" lon="0.65648">
        <ele>3345.8</ele>
        <time>1970-01-01T05:41:56.000Z</time>
      </trkpt>
      <trkpt lat="42.631819" lon="0.656481">
        <ele>3345.7</ele>
        <time>1970-01-01T05:41:57.000Z</time>
      </trkpt>
      <trkpt lat="42.631819" lon="0.656481">
        <ele>3345.7</ele>
        <time>1970-01-01T05:41:58.000Z</time>
      </trkpt>
      <trkpt lat="42.631819" lon="0.656481">
        <ele>3345.7</ele>
        <time>1970-01-01T05:41:59.000Z</time>
      </trkpt>
      <trkpt lat="42.631819" lon="0.656481">
        <ele>3345.7</ele>
        <time>1970-01-01T05:42:00.000Z</time>
      </trkpt>
      <trkpt lat="42.631819" lon="0.656482">
        <ele>3345.7</ele>
        <time>1970-01-01T05:42:01.000Z</time>
      </trkpt>
      <trkpt lat="42.631819" lon="0.656482">
        <ele>3345.7</ele>
        <time>1970-01-01T05:42:02.000Z</time>
      </trkpt>
      <trkpt lat="42.631819" lon="0.656483">
        <ele>3345.7</ele>
        <time>1970-01-01T05:42:03.000Z</time>
      </trkpt>
      <trkpt lat="42.631819" lon="0.65648">
        <ele>3345.6</ele>
        <time>1970-01-01T05:42:04.000Z</time>
      </trkpt>
      <trkpt lat="42.631819" lon="0.656479">
        <ele>3345.6</ele>
        <time>1970-01-01T05:42:05.000Z</time>
      </trkpt>
      <trkpt lat="42.631819" lon="0.656478">
        <ele>3345.6</ele>
        <time>1970-01-01T05:42:06.000Z</time>
      </trkpt>
      <trkpt lat="42.631819" lon="0.656477">
        <ele>3345.6</ele>
        <time>1970-01-01T05:42:07.000Z</time>
      </trkpt>
      <trkpt lat="42.631819" lon="0.656477">
        <ele>3345.6</ele>
        <time>1970-01-01T05:42:08.000Z</time>
      </trkpt>
      <trkpt lat="42.631819" lon="0.656477">
        <ele>3345.6</ele>
        <time>1970-01-01T05:42:09.000Z</time>
      </trkpt>
      <trkpt lat="42.631819" lon="0.656477">
        <ele>3345.6</ele>
        <time>1970-01-01T05:42:10.000Z</time>
      </trkpt>
      <trkpt lat="42.631819" lon="0.656477">
        <ele>3345.6</ele>
        <time>1970-01-01T05:42:11.000Z</time>
      </trkpt>
      <trkpt lat="42.631819" lon="0.656477">
        <ele>3345.6</ele>
        <time>1970-01-01T05:42:12.000Z</time>
      </trkpt>
      <trkpt lat="42.631819" lon="0.656477">
        <ele>3345.6</ele>
        <time>1970-01-01T05:42:13.000Z</time>
      </trkpt>
      <trkpt lat="42.631819" lon="0.656477">
        <ele>3345.6</ele>
        <time>1970-01-01T05:42:14.000Z</time>
      </trkpt>
      <trkpt lat="42.631819" lon="0.656477">
        <ele>3345.6</ele>
        <time>1970-01-01T05:42:15.000Z</time>
      </trkpt>
      <trkpt lat="42.631819" lon="0.656477">
        <ele>3345.6</ele>
        <time>1970-01-01T05:42:16.000Z</time>
      </trkpt>
      <trkpt lat="42.63182" lon="0.656477">
        <ele>3345.6</ele>
        <time>1970-01-01T05:42:17.000Z</time>
      </trkpt>
      <trkpt lat="42.631822" lon="0.656477">
        <ele>3345.5</ele>
        <time>1970-01-01T05:42:18.000Z</time>
      </trkpt>
      <trkpt lat="42.631822" lon="0.656477">
        <ele>3345.5</ele>
        <time>1970-01-01T05:42:19.000Z</time>
      </trkpt>
      <trkpt lat="42.631822" lon="0.656475">
        <ele>3345.5</ele>
        <time>1970-01-01T05:42:20.000Z</time>
      </trkpt>
      <trkpt lat="42.631821" lon="0.656474">
        <ele>3345.4</ele>
        <time>1970-01-01T05:42:21.000Z</time>
      </trkpt>
      <trkpt lat="42.631821" lon="0.656473">
        <ele>3345.4</ele>
        <time>1970-01-01T05:42:22.000Z</time>
      </trkpt>
      <trkpt lat="42.631821" lon="0.656472">
        <ele>3345.4</ele>
        <time>1970-01-01T05:42:23.000Z</time>
      </trkpt>
      <trkpt lat="42.631821" lon="0.656472">
        <ele>3345.4</ele>
        <time>1970-01-01T05:42:24.000Z</time>
      </trkpt>
      <trkpt lat="42.631821" lon="0.656472">
        <ele>3345.4</ele>
        <time>1970-01-01T05:42:25.000Z</time>
      </trkpt>
      <trkpt lat="42.631821" lon="0.656472">
        <ele>3345.4</ele>
        <time>1970-01-01T05:42:26.000Z</time>
      </trkpt>
      <trkpt lat="42.631821" lon="0.656474">
        <ele>3345.4</ele>
        <time>1970-01-01T05:42:27.000Z</time>
      </trkpt>
      <trkpt lat="42.63182" lon="0.656475">
        <ele>3345.3</ele>
        <time>1970-01-01T05:42:28.000Z</time>
      </trkpt>
      <trkpt lat="42.63182" lon="0.656476">
        <ele>3345.3</ele>
        <time>1970-01-01T05:42:29.000Z</time>
      </trkpt>
      <trkpt lat="42.63182" lon="0.656476">
        <ele>3345.3</ele>
        <time>1970-01-01T05:42:30.000Z</time>
      </trkpt>
      <trkpt lat="42.63182" lon="0.656476">
        <ele>3345.3</ele>
        <time>1970-01-01T05:42:31.000Z</time>
      </trkpt>
      <trkpt lat="42.63182" lon="0.656476">
        <ele>3345.3</ele>
        <time>1970-01-01T05:42:32.000Z</time>
      </trkpt>
      <trkpt lat="42.63182" lon="0.656476">
        <ele>3345.3</ele>
        <time>1970-01-01T05:42:33.000Z</time>
      </trkpt>
      <trkpt lat="42.63182" lon="0.656476">
        <ele>3345.3</ele>
        <time>1970-01-01T05:42:34.000Z</time>
      </trkpt>
      <trkpt lat="42.63182" lon="0.656476">
        <ele>3345.3</ele>
        <time>1970-01-01T05:42:35.000Z</time>
      </trkpt>
      <trkpt lat="42.63182" lon="0.656476">
        <ele>3345.3</ele>
        <time>1970-01-01T05:42:36.000Z</time>
      </trkpt>
      <trkpt lat="42.63182" lon="0.656476">
        <ele>3345.3</ele>
        <time>1970-01-01T05:42:37.000Z</time>
      </trkpt>
      <trkpt lat="42.63182" lon="0.656476">
        <ele>3345.3</ele>
        <time>1970-01-01T05:42:38.000Z</time>
      </trkpt>
      <trkpt lat="42.63182" lon="0.656476">
        <ele>3345.3</ele>
        <time>1970-01-01T05:42:39.000Z</time>
      </trkpt>
      <trkpt lat="42.63182" lon="0.656476">
        <ele>3345.3</ele>
        <time>1970-01-01T05:42:40.000Z</time>
      </trkpt>
      <trkpt lat="42.63182" lon="0.656476">
        <ele>3345.3</ele>
        <time>1970-01-01T05:42:41.000Z</time>
      </trkpt>
      <trkpt lat="42.63182" lon="0.656476">
        <ele>3345.3</ele>
        <time>1970-01-01T05:42:42.000Z</time>
      </trkpt>
      <trkpt lat="42.63182" lon="0.656476">
        <ele>3345.3</ele>
        <time>1970-01-01T05:42:43.000Z</time>
      </trkpt>
      <trkpt lat="42.63182" lon="0.656476">
        <ele>3345.3</ele>
        <time>1970-01-01T05:42:44.000Z</time>
      </trkpt>
      <trkpt lat="42.63182" lon="0.656476">
        <ele>3345.3</ele>
        <time>1970-01-01T05:42:45.000Z</time>
      </trkpt>
      <trkpt lat="42.63182" lon="0.656476">
        <ele>3345.3</ele>
        <time>1970-01-01T05:42:46.000Z</time>
      </trkpt>
      <trkpt lat="42.63182" lon="0.656476">
        <ele>3345.3</ele>
        <time>1970-01-01T05:42:47.000Z</time>
      </trkpt>
      <trkpt lat="42.63182" lon="0.656476">
        <ele>3345.3</ele>
        <time>1970-01-01T05:42:48.000Z</time>
      </trkpt>
      <trkpt lat="42.63182" lon="0.656476">
        <ele>3345.3</ele>
        <time>1970-01-01T05:42:49.000Z</time>
      </trkpt>
      <trkpt lat="42.63182" lon="0.656476">
        <ele>3345.3</ele>
        <time>1970-01-01T05:42:50.000Z</time>
      </trkpt>
      <trkpt lat="42.63182" lon="0.656476">
        <ele>3345.3</ele>
        <time>1970-01-01T05:42:51.000Z</time>
      </trkpt>
      <trkpt lat="42.63182" lon="0.656476">
        <ele>3345.3</ele>
        <time>1970-01-01T05:42:52.000Z</time>
      </trkpt>
      <trkpt lat="42.63182" lon="0.656476">
        <ele>3345.3</ele>
        <time>1970-01-01T05:42:53.000Z</time>
      </trkpt>
      <trkpt lat="42.63182" lon="0.656476">
        <ele>3345.3</ele>
        <time>1970-01-01T05:42:54.000Z</time>
      </trkpt>
      <trkpt lat="42.63182" lon="0.656476">
        <ele>3345.3</ele>
        <time>1970-01-01T05:42:55.000Z</time>
      </trkpt>
      <trkpt lat="42.63182" lon="0.656476">
        <ele>3345.3</ele>
        <time>1970-01-01T05:42:56.000Z</time>
      </trkpt>
      <trkpt lat="42.63182" lon="0.656476">
        <ele>3345.3</ele>
        <time>1970-01-01T05:42:57.000Z</time>
      </trkpt>
      <trkpt lat="42.63182" lon="0.656476">
        <ele>3345.3</ele>
        <time>1970-01-01T05:42:58.000Z</time>
      </trkpt>
      <trkpt lat="42.63182" lon="0.656476">
        <ele>3345.3</ele>
        <time>1970-01-01T05:42:59.000Z</time>
      </trkpt>
      <trkpt lat="42.63182" lon="0.656476">
        <ele>3345.3</ele>
        <time>1970-01-01T05:43:00.000Z</time>
      </trkpt>
      <trkpt lat="42.63182" lon="0.656476">
        <ele>3345.3</ele>
        <time>1970-01-01T05:43:01.000Z</time>
      </trkpt>
      <trkpt lat="42.63182" lon="0.656476">
        <ele>3345.3</ele>
        <time>1970-01-01T05:43:02.000Z</time>
      </trkpt>
      <trkpt lat="42.63182" lon="0.656475">
        <ele>3345.3</ele>
        <time>1970-01-01T05:43:03.000Z</time>
      </trkpt>
      <trkpt lat="42.63182" lon="0.656475">
        <ele>3345.3</ele>
        <time>1970-01-01T05:43:04.000Z</time>
      </trkpt>
      <trkpt lat="42.63182" lon="0.656475">
        <ele>3345.3</ele>
        <time>1970-01-01T05:43:05.000Z</time>
      </trkpt>
      <trkpt lat="42.63182" lon="0.656475">
        <ele>3345.3</ele>
        <time>1970-01-01T05:43:06.000Z</time>
      </trkpt>
      <trkpt lat="42.63182" lon="0.656475">
        <ele>3345.3</ele>
        <time>1970-01-01T05:43:07.000Z</time>
      </trkpt>
      <trkpt lat="42.63182" lon="0.656475">
        <ele>3345.3</ele>
        <time>1970-01-01T05:43:08.000Z</time>
      </trkpt>
      <trkpt lat="42.63182" lon="0.656475">
        <ele>3345.3</ele>
        <time>1970-01-01T05:43:09.000Z</time>
      </trkpt>
      <trkpt lat="42.63182" lon="0.656475">
        <ele>3345.3</ele>
        <time>1970-01-01T05:43:10.000Z</time>
      </trkpt>
      <trkpt lat="42.631824" lon="0.65648">
        <ele>3345.2</ele>
        <time>1970-01-01T05:43:11.000Z</time>
      </trkpt>
      <trkpt lat="42.631826" lon="0.656482">
        <ele>3345.1</ele>
        <time>1970-01-01T05:43:12.000Z</time>
      </trkpt>
      <trkpt lat="42.631827" lon="0.656482">
        <ele>3345.1</ele>
        <time>1970-01-01T05:43:13.000Z</time>
      </trkpt>
      <trkpt lat="42.631827" lon="0.656482">
        <ele>3345.1</ele>
        <time>1970-01-01T05:43:14.000Z</time>
      </trkpt>
      <trkpt lat="42.631826" lon="0.656482">
        <ele>3345.1</ele>
        <time>1970-01-01T05:43:15.000Z</time>
      </trkpt>
      <trkpt lat="42.631826" lon="0.656481">
        <ele>3345</ele>
        <time>1970-01-01T05:43:16.000Z</time>
      </trkpt>
      <trkpt lat="42.631825" lon="0.656481">
        <ele>3345</ele>
        <time>1970-01-01T05:43:17.000Z</time>
      </trkpt>
      <trkpt lat="42.631825" lon="0.65648">
        <ele>3345</ele>
        <time>1970-01-01T05:43:18.000Z</time>
      </trkpt>
      <trkpt lat="42.631825" lon="0.65648">
        <ele>3345</ele>
        <time>1970-01-01T05:43:19.000Z</time>
      </trkpt>
      <trkpt lat="42.631825" lon="0.65648">
        <ele>3345</ele>
        <time>1970-01-01T05:43:20.000Z</time>
      </trkpt>
      <trkpt lat="42.631824" lon="0.65648">
        <ele>3345</ele>
        <time>1970-01-01T05:43:21.000Z</time>
      </trkpt>
      <trkpt lat="42.631824" lon="0.65648">
        <ele>3345</ele>
        <time>1970-01-01T05:43:22.000Z</time>
      </trkpt>
      <trkpt lat="42.631824" lon="0.656479">
        <ele>3345</ele>
        <time>1970-01-01T05:43:23.000Z</time>
      </trkpt>
      <trkpt lat="42.631824" lon="0.656479">
        <ele>3345</ele>
        <time>1970-01-01T05:43:24.000Z</time>
      </trkpt>
      <trkpt lat="42.631824" lon="0.656479">
        <ele>3345</ele>
        <time>1970-01-01T05:43:25.000Z</time>
      </trkpt>
      <trkpt lat="42.631824" lon="0.656479">
        <ele>3345</ele>
        <time>1970-01-01T05:43:26.000Z</time>
      </trkpt>
      <trkpt lat="42.631824" lon="0.656479">
        <ele>3345</ele>
        <time>1970-01-01T05:43:27.000Z</time>
      </trkpt>
      <trkpt lat="42.631824" lon="0.656479">
        <ele>3345</ele>
        <time>1970-01-01T05:43:28.000Z</time>
      </trkpt>
      <trkpt lat="42.631824" lon="0.656479">
        <ele>3345</ele>
        <time>1970-01-01T05:43:29.000Z</time>
      </trkpt>
      <trkpt lat="42.631824" lon="0.656479">
        <ele>3345</ele>
        <time>1970-01-01T05:43:30.000Z</time>
      </trkpt>
      <trkpt lat="42.631824" lon="0.656479">
        <ele>3345</ele>
        <time>1970-01-01T05:43:31.000Z</time>
      </trkpt>
      <trkpt lat="42.631824" lon="0.656479">
        <ele>3345</ele>
        <time>1970-01-01T05:43:32.000Z</time>
      </trkpt>
      <trkpt lat="42.631824" lon="0.656479">
        <ele>3345</ele>
        <time>1970-01-01T05:43:33.000Z</time>
      </trkpt>
      <trkpt lat="42.631824" lon="0.656479">
        <ele>3345</ele>
        <time>1970-01-01T05:43:34.000Z</time>
      </trkpt>
      <trkpt lat="42.631824" lon="0.656479">
        <ele>3345</ele>
        <time>1970-01-01T05:43:35.000Z</time>
      </trkpt>
      <trkpt lat="42.631824" lon="0.656479">
        <ele>3345</ele>
        <time>1970-01-01T05:43:36.000Z</time>
      </trkpt>
      <trkpt lat="42.631824" lon="0.656479">
        <ele>3345</ele>
        <time>1970-01-01T05:43:37.000Z</time>
      </trkpt>
      <trkpt lat="42.631824" lon="0.656479">
        <ele>3345</ele>
        <time>1970-01-01T05:43:38.000Z</time>
      </trkpt>
      <trkpt lat="42.631824" lon="0.656479">
        <ele>3345</ele>
        <time>1970-01-01T05:43:39.000Z</time>
      </trkpt>
      <trkpt lat="42.631824" lon="0.656479">
        <ele>3345</ele>
        <time>1970-01-01T05:43:40.000Z</time>
      </trkpt>
      <trkpt lat="42.631824" lon="0.656479">
        <ele>3345</ele>
        <time>1970-01-01T05:43:41.000Z</time>
      </trkpt>
      <trkpt lat="42.631824" lon="0.656479">
        <ele>3345</ele>
        <time>1970-01-01T05:43:42.000Z</time>
      </trkpt>
      <trkpt lat="42.631824" lon="0.656479">
        <ele>3345</ele>
        <time>1970-01-01T05:43:43.000Z</time>
      </trkpt>
      <trkpt lat="42.631824" lon="0.656479">
        <ele>3345</ele>
        <time>1970-01-01T05:43:44.000Z</time>
      </trkpt>
      <trkpt lat="42.631824" lon="0.656479">
        <ele>3345</ele>
        <time>1970-01-01T05:43:45.000Z</time>
      </trkpt>
      <trkpt lat="42.631824" lon="0.656479">
        <ele>3345</ele>
        <time>1970-01-01T05:43:46.000Z</time>
      </trkpt>
      <trkpt lat="42.631824" lon="0.656479">
        <ele>3345</ele>
        <time>1970-01-01T05:43:47.000Z</time>
      </trkpt>
      <trkpt lat="42.631824" lon="0.656479">
        <ele>3345</ele>
        <time>1970-01-01T05:43:48.000Z</time>
      </trkpt>
      <trkpt lat="42.631824" lon="0.656479">
        <ele>3345</ele>
        <time>1970-01-01T05:43:49.000Z</time>
      </trkpt>
      <trkpt lat="42.631824" lon="0.656479">
        <ele>3345</ele>
        <time>1970-01-01T05:43:50.000Z</time>
      </trkpt>
      <trkpt lat="42.631824" lon="0.656479">
        <ele>3345</ele>
        <time>1970-01-01T05:43:51.000Z</time>
      </trkpt>
      <trkpt lat="42.631824" lon="0.656479">
        <ele>3345</ele>
        <time>1970-01-01T05:43:52.000Z</time>
      </trkpt>
      <trkpt lat="42.631824" lon="0.656479">
        <ele>3345</ele>
        <time>1970-01-01T05:43:53.000Z</time>
      </trkpt>
      <trkpt lat="42.631824" lon="0.656479">
        <ele>3345</ele>
        <time>1970-01-01T05:43:54.000Z</time>
      </trkpt>
      <trkpt lat="42.631824" lon="0.656479">
        <ele>3345</ele>
        <time>1970-01-01T05:43:55.000Z</time>
      </trkpt>
      <trkpt lat="42.631824" lon="0.656479">
        <ele>3345</ele>
        <time>1970-01-01T05:43:56.000Z</time>
      </trkpt>
      <trkpt lat="42.631824" lon="0.656479">
        <ele>3345</ele>
        <time>1970-01-01T05:43:57.000Z</time>
      </trkpt>
      <trkpt lat="42.631824" lon="0.656479">
        <ele>3345</ele>
        <time>1970-01-01T05:43:58.000Z</time>
      </trkpt>
      <trkpt lat="42.631824" lon="0.656479">
        <ele>3345</ele>
        <time>1970-01-01T05:43:59.000Z</time>
      </trkpt>
      <trkpt lat="42.631824" lon="0.656479">
        <ele>3345</ele>
        <time>1970-01-01T05:44:00.000Z</time>
      </trkpt>
      <trkpt lat="42.631824" lon="0.656479">
        <ele>3345</ele>
        <time>1970-01-01T05:44:01.000Z</time>
      </trkpt>
      <trkpt lat="42.631824" lon="0.656479">
        <ele>3345</ele>
        <time>1970-01-01T05:44:02.000Z</time>
      </trkpt>
      <trkpt lat="42.631824" lon="0.656479">
        <ele>3345</ele>
        <time>1970-01-01T05:44:03.000Z</time>
      </trkpt>
      <trkpt lat="42.631824" lon="0.656479">
        <ele>3345</ele>
        <time>1970-01-01T05:44:04.000Z</time>
      </trkpt>
      <trkpt lat="42.631824" lon="0.656479">
        <ele>3345</ele>
        <time>1970-01-01T05:44:05.000Z</time>
      </trkpt>
      <trkpt lat="42.631824" lon="0.656479">
        <ele>3345</ele>
        <time>1970-01-01T05:44:06.000Z</time>
      </trkpt>
      <trkpt lat="42.631824" lon="0.656479">
        <ele>3345</ele>
        <time>1970-01-01T05:44:07.000Z</time>
      </trkpt>
      <trkpt lat="42.631824" lon="0.656479">
        <ele>3345</ele>
        <time>1970-01-01T05:44:08.000Z</time>
      </trkpt>
      <trkpt lat="42.631824" lon="0.656479">
        <ele>3345</ele>
        <time>1970-01-01T05:44:09.000Z</time>
      </trkpt>
      <trkpt lat="42.631824" lon="0.656479">
        <ele>3345</ele>
        <time>1970-01-01T05:44:10.000Z</time>
      </trkpt>
      <trkpt lat="42.631824" lon="0.656479">
        <ele>3345</ele>
        <time>1970-01-01T05:44:11.000Z</time>
      </trkpt>
      <trkpt lat="42.631824" lon="0.656479">
        <ele>3345</ele>
        <time>1970-01-01T05:44:12.000Z</time>
      </trkpt>
      <trkpt lat="42.631824" lon="0.656479">
        <ele>3345</ele>
        <time>1970-01-01T05:44:13.000Z</time>
      </trkpt>
      <trkpt lat="42.631824" lon="0.656479">
        <ele>3345</ele>
        <time>1970-01-01T05:44:14.000Z</time>
      </trkpt>
      <trkpt lat="42.631824" lon="0.656479">
        <ele>3345</ele>
        <time>1970-01-01T05:44:15.000Z</time>
      </trkpt>
      <trkpt lat="42.631824" lon="0.656479">
        <ele>3345</ele>
        <time>1970-01-01T05:44:16.000Z</time>
      </trkpt>
      <trkpt lat="42.631824" lon="0.656479">
        <ele>3345</ele>
        <time>1970-01-01T05:44:17.000Z</time>
      </trkpt>
      <trkpt lat="42.631824" lon="0.656479">
        <ele>3345</ele>
        <time>1970-01-01T05:44:18.000Z</time>
      </trkpt>
      <trkpt lat="42.631824" lon="0.656478">
        <ele>3344.9</ele>
        <time>1970-01-01T05:44:19.000Z</time>
      </trkpt>
      <trkpt lat="42.631824" lon="0.656478">
        <ele>3344.9</ele>
        <time>1970-01-01T05:44:20.000Z</time>
      </trkpt>
      <trkpt lat="42.631824" lon="0.656478">
        <ele>3344.9</ele>
        <time>1970-01-01T05:44:21.000Z</time>
      </trkpt>
      <trkpt lat="42.631824" lon="0.656478">
        <ele>3344.9</ele>
        <time>1970-01-01T05:44:22.000Z</time>
      </trkpt>
      <trkpt lat="42.631824" lon="0.656478">
        <ele>3344.9</ele>
        <time>1970-01-01T05:44:23.000Z</time>
      </trkpt>
      <trkpt lat="42.631824" lon="0.656478">
        <ele>3344.9</ele>
        <time>1970-01-01T05:44:24.000Z</time>
      </trkpt>
      <trkpt lat="42.631825" lon="0.656481">
        <ele>3344.9</ele>
        <time>1970-01-01T05:44:25.000Z</time>
      </trkpt>
      <trkpt lat="42.631825" lon="0.656481">
        <ele>3344.9</ele>
        <time>1970-01-01T05:44:26.000Z</time>
      </trkpt>
      <trkpt lat="42.631826" lon="0.656481">
        <ele>3344.9</ele>
        <time>1970-01-01T05:44:27.000Z</time>
      </trkpt>
      <trkpt lat="42.631826" lon="0.656481">
        <ele>3344.9</ele>
        <time>1970-01-01T05:44:28.000Z</time>
      </trkpt>
      <trkpt lat="42.631826" lon="0.656481">
        <ele>3344.9</ele>
        <time>1970-01-01T05:44:29.000Z</time>
      </trkpt>
      <trkpt lat="42.631826" lon="0.65648">
        <ele>3344.8</ele>
        <time>1970-01-01T05:44:30.000Z</time>
      </trkpt>
      <trkpt lat="42.631826" lon="0.65648">
        <ele>3344.8</ele>
        <time>1970-01-01T05:44:31.000Z</time>
      </trkpt>
      <trkpt lat="42.631826" lon="0.656479">
        <ele>3344.8</ele>
        <time>1970-01-01T05:44:32.000Z</time>
      </trkpt>
      <trkpt lat="42.631826" lon="0.656478">
        <ele>3344.8</ele>
        <time>1970-01-01T05:44:33.000Z</time>
      </trkpt>
      <trkpt lat="42.631827" lon="0.656477">
        <ele>3344.8</ele>
        <time>1970-01-01T05:44:34.000Z</time>
      </trkpt>
      <trkpt lat="42.631827" lon="0.656477">
        <ele>3344.8</ele>
        <time>1970-01-01T05:44:35.000Z</time>
      </trkpt>
      <trkpt lat="42.631827" lon="0.656477">
        <ele>3344.8</ele>
        <time>1970-01-01T05:44:36.000Z</time>
      </trkpt>
      <trkpt lat="42.631828" lon="0.656477">
        <ele>3344.7</ele>
        <time>1970-01-01T05:44:37.000Z</time>
      </trkpt>
      <trkpt lat="42.631828" lon="0.656477">
        <ele>3344.7</ele>
        <time>1970-01-01T05:44:38.000Z</time>
      </trkpt>
      <trkpt lat="42.631826" lon="0.656476">
        <ele>3344.7</ele>
        <time>1970-01-01T05:44:39.000Z</time>
      </trkpt>
      <trkpt lat="42.631825" lon="0.656475">
        <ele>3344.7</ele>
        <time>1970-01-01T05:44:40.000Z</time>
      </trkpt>
      <trkpt lat="42.631824" lon="0.656474">
        <ele>3344.6</ele>
        <time>1970-01-01T05:44:41.000Z</time>
      </trkpt>
      <trkpt lat="42.631823" lon="0.656474">
        <ele>3344.6</ele>
        <time>1970-01-01T05:44:42.000Z</time>
      </trkpt>
      <trkpt lat="42.631823" lon="0.656474">
        <ele>3344.6</ele>
        <time>1970-01-01T05:44:43.000Z</time>
      </trkpt>
      <trkpt lat="42.631823" lon="0.656474">
        <ele>3344.6</ele>
        <time>1970-01-01T05:44:44.000Z</time>
      </trkpt>
      <trkpt lat="42.631822" lon="0.656475">
        <ele>3344.6</ele>
        <time>1970-01-01T05:44:45.000Z</time>
      </trkpt>
      <trkpt lat="42.631822" lon="0.656475">
        <ele>3344.6</ele>
        <time>1970-01-01T05:44:46.000Z</time>
      </trkpt>
      <trkpt lat="42.631822" lon="0.656475">
        <ele>3344.6</ele>
        <time>1970-01-01T05:44:47.000Z</time>
      </trkpt>
      <trkpt lat="42.631822" lon="0.656475">
        <ele>3344.6</ele>
        <time>1970-01-01T05:44:48.000Z</time>
      </trkpt>
      <trkpt lat="42.631823" lon="0.656475">
        <ele>3344.5</ele>
        <time>1970-01-01T05:44:49.000Z</time>
      </trkpt>
      <trkpt lat="42.631823" lon="0.656475">
        <ele>3344.5</ele>
        <time>1970-01-01T05:44:50.000Z</time>
      </trkpt>
      <trkpt lat="42.631823" lon="0.656475">
        <ele>3344.5</ele>
        <time>1970-01-01T05:44:51.000Z</time>
      </trkpt>
      <trkpt lat="42.631823" lon="0.656475">
        <ele>3344.5</ele>
        <time>1970-01-01T05:44:52.000Z</time>
      </trkpt>
      <trkpt lat="42.631823" lon="0.656475">
        <ele>3344.5</ele>
        <time>1970-01-01T05:44:53.000Z</time>
      </trkpt>
      <trkpt lat="42.631823" lon="0.656475">
        <ele>3344.5</ele>
        <time>1970-01-01T05:44:54.000Z</time>
      </trkpt>
      <trkpt lat="42.631823" lon="0.656475">
        <ele>3344.5</ele>
        <time>1970-01-01T05:44:55.000Z</time>
      </trkpt>
      <trkpt lat="42.631823" lon="0.656475">
        <ele>3344.5</ele>
        <time>1970-01-01T05:44:56.000Z</time>
      </trkpt>
      <trkpt lat="42.631823" lon="0.656475">
        <ele>3344.5</ele>
        <time>1970-01-01T05:44:57.000Z</time>
      </trkpt>
      <trkpt lat="42.631823" lon="0.656475">
        <ele>3344.5</ele>
        <time>1970-01-01T05:44:58.000Z</time>
      </trkpt>
      <trkpt lat="42.631823" lon="0.656475">
        <ele>3344.5</ele>
        <time>1970-01-01T05:44:59.000Z</time>
      </trkpt>
      <trkpt lat="42.631822" lon="0.656475">
        <ele>3344.5</ele>
        <time>1970-01-01T05:45:00.000Z</time>
      </trkpt>
      <trkpt lat="42.631822" lon="0.656475">
        <ele>3344.5</ele>
        <time>1970-01-01T05:45:01.000Z</time>
      </trkpt>
      <trkpt lat="42.631822" lon="0.656475">
        <ele>3344.5</ele>
        <time>1970-01-01T05:45:02.000Z</time>
      </trkpt>
      <trkpt lat="42.631822" lon="0.656475">
        <ele>3344.5</ele>
        <time>1970-01-01T05:45:03.000Z</time>
      </trkpt>
      <trkpt lat="42.631822" lon="0.656475">
        <ele>3344.5</ele>
        <time>1970-01-01T05:45:04.000Z</time>
      </trkpt>
      <trkpt lat="42.631822" lon="0.656475">
        <ele>3344.5</ele>
        <time>1970-01-01T05:45:05.000Z</time>
      </trkpt>
      <trkpt lat="42.631822" lon="0.656475">
        <ele>3344.5</ele>
        <time>1970-01-01T05:45:06.000Z</time>
      </trkpt>
      <trkpt lat="42.631822" lon="0.656475">
        <ele>3344.5</ele>
        <time>1970-01-01T05:45:07.000Z</time>
      </trkpt>
      <trkpt lat="42.631822" lon="0.656475">
        <ele>3344.5</ele>
        <time>1970-01-01T05:45:08.000Z</time>
      </trkpt>
      <trkpt lat="42.631822" lon="0.656475">
        <ele>3344.5</ele>
        <time>1970-01-01T05:45:09.000Z</time>
      </trkpt>
      <trkpt lat="42.631822" lon="0.656475">
        <ele>3344.5</ele>
        <time>1970-01-01T05:45:10.000Z</time>
      </trkpt>
      <trkpt lat="42.631822" lon="0.656474">
        <ele>3344.5</ele>
        <time>1970-01-01T05:45:11.000Z</time>
      </trkpt>
      <trkpt lat="42.631822" lon="0.656473">
        <ele>3344.5</ele>
        <time>1970-01-01T05:45:12.000Z</time>
      </trkpt>
      <trkpt lat="42.631822" lon="0.656472">
        <ele>3344.5</ele>
        <time>1970-01-01T05:45:13.000Z</time>
      </trkpt>
      <trkpt lat="42.631821" lon="0.656472">
        <ele>3344.4</ele>
        <time>1970-01-01T05:45:14.000Z</time>
      </trkpt>
      <trkpt lat="42.631821" lon="0.656472">
        <ele>3344.4</ele>
        <time>1970-01-01T05:45:15.000Z</time>
      </trkpt>
      <trkpt lat="42.631821" lon="0.656472">
        <ele>3344.4</ele>
        <time>1970-01-01T05:45:16.000Z</time>
      </trkpt>
      <trkpt lat="42.631821" lon="0.656472">
        <ele>3344.4</ele>
        <time>1970-01-01T05:45:17.000Z</time>
      </trkpt>
      <trkpt lat="42.631821" lon="0.656472">
        <ele>3344.4</ele>
        <time>1970-01-01T05:45:18.000Z</time>
      </trkpt>
      <trkpt lat="42.631821" lon="0.656472">
        <ele>3344.4</ele>
        <time>1970-01-01T05:45:19.000Z</time>
      </trkpt>
      <trkpt lat="42.631821" lon="0.656472">
        <ele>3344.4</ele>
        <time>1970-01-01T05:45:20.000Z</time>
      </trkpt>
      <trkpt lat="42.631822" lon="0.656472">
        <ele>3344.4</ele>
        <time>1970-01-01T05:45:21.000Z</time>
      </trkpt>
      <trkpt lat="42.631822" lon="0.656472">
        <ele>3344.4</ele>
        <time>1970-01-01T05:45:22.000Z</time>
      </trkpt>
      <trkpt lat="42.631822" lon="0.656472">
        <ele>3344.4</ele>
        <time>1970-01-01T05:45:23.000Z</time>
      </trkpt>
      <trkpt lat="42.631822" lon="0.656472">
        <ele>3344.4</ele>
        <time>1970-01-01T05:45:24.000Z</time>
      </trkpt>
      <trkpt lat="42.631822" lon="0.656472">
        <ele>3344.4</ele>
        <time>1970-01-01T05:45:25.000Z</time>
      </trkpt>
      <trkpt lat="42.631822" lon="0.656472">
        <ele>3344.4</ele>
        <time>1970-01-01T05:45:26.000Z</time>
      </trkpt>
      <trkpt lat="42.631822" lon="0.656472">
        <ele>3344.4</ele>
        <time>1970-01-01T05:45:27.000Z</time>
      </trkpt>
      <trkpt lat="42.631822" lon="0.656472">
        <ele>3344.4</ele>
        <time>1970-01-01T05:45:28.000Z</time>
      </trkpt>
      <trkpt lat="42.631822" lon="0.656472">
        <ele>3344.4</ele>
        <time>1970-01-01T05:45:29.000Z</time>
      </trkpt>
      <trkpt lat="42.631822" lon="0.656472">
        <ele>3344.4</ele>
        <time>1970-01-01T05:45:30.000Z</time>
      </trkpt>
      <trkpt lat="42.631822" lon="0.656472">
        <ele>3344.4</ele>
        <time>1970-01-01T05:45:31.000Z</time>
      </trkpt>
      <trkpt lat="42.631822" lon="0.656471">
        <ele>3344.4</ele>
        <time>1970-01-01T05:45:32.000Z</time>
      </trkpt>
      <trkpt lat="42.631822" lon="0.656471">
        <ele>3344.4</ele>
        <time>1970-01-01T05:45:33.000Z</time>
      </trkpt>
      <trkpt lat="42.631822" lon="0.656471">
        <ele>3344.4</ele>
        <time>1970-01-01T05:45:34.000Z</time>
      </trkpt>
      <trkpt lat="42.63182" lon="0.656469">
        <ele>3344.3</ele>
        <time>1970-01-01T05:45:35.000Z</time>
      </trkpt>
      <trkpt lat="42.63182" lon="0.656472">
        <ele>3344.3</ele>
        <time>1970-01-01T05:45:36.000Z</time>
      </trkpt>
      <trkpt lat="42.631823" lon="0.656477">
        <ele>3344.2</ele>
        <time>1970-01-01T05:45:37.000Z</time>
      </trkpt>
      <trkpt lat="42.631822" lon="0.656469">
        <ele>3344</ele>
        <time>1970-01-01T05:45:38.000Z</time>
      </trkpt>
      <trkpt lat="42.631822" lon="0.656467">
        <ele>3344</ele>
        <time>1970-01-01T05:45:40.000Z</time>
      </trkpt>
      <trkpt lat="42.631822" lon="0.656464">
        <ele>3343.9</ele>
        <time>1970-01-01T05:45:41.000Z</time>
      </trkpt>
      <trkpt lat="42.631821" lon="0.656461">
        <ele>3343.9</ele>
        <time>1970-01-01T05:45:42.000Z</time>
      </trkpt>
      <trkpt lat="42.631824" lon="0.656456">
        <ele>3343.7</ele>
        <time>1970-01-01T05:45:44.000Z</time>
      </trkpt>
      <trkpt lat="42.631826" lon="0.65645">
        <ele>3343.6</ele>
        <time>1970-01-01T05:45:45.000Z</time>
      </trkpt>
      <trkpt lat="42.631826" lon="0.656447">
        <ele>3343.6</ele>
        <time>1970-01-01T05:45:46.000Z</time>
      </trkpt>
      <trkpt lat="42.631828" lon="0.656444">
        <ele>3343.5</ele>
        <time>1970-01-01T05:45:47.000Z</time>
      </trkpt>
      <trkpt lat="42.631838" lon="0.656445">
        <ele>3343.2</ele>
        <time>1970-01-01T05:45:49.000Z</time>
      </trkpt>
      <trkpt lat="42.63184" lon="0.656444">
        <ele>3343.2</ele>
        <time>1970-01-01T05:45:50.000Z</time>
      </trkpt>
      <trkpt lat="42.631841" lon="0.656444">
        <ele>3343.2</ele>
        <time>1970-01-01T05:45:51.000Z</time>
      </trkpt>
      <trkpt lat="42.63184" lon="0.656443">
        <ele>3343.1</ele>
        <time>1970-01-01T05:45:52.000Z</time>
      </trkpt>
      <trkpt lat="42.631839" lon="0.656444">
        <ele>3343.1</ele>
        <time>1970-01-01T05:45:53.000Z</time>
      </trkpt>
      <trkpt lat="42.631839" lon="0.656445">
        <ele>3343.1</ele>
        <time>1970-01-01T05:45:54.000Z</time>
      </trkpt>
      <trkpt lat="42.631838" lon="0.656446">
        <ele>3343</ele>
        <time>1970-01-01T05:45:55.000Z</time>
      </trkpt>
      <trkpt lat="42.631838" lon="0.656447">
        <ele>3343</ele>
        <time>1970-01-01T05:45:56.000Z</time>
      </trkpt>
      <trkpt lat="42.631838" lon="0.656448">
        <ele>3343</ele>
        <time>1970-01-01T05:45:57.000Z</time>
      </trkpt>
      <trkpt lat="42.631838" lon="0.656449">
        <ele>3343</ele>
        <time>1970-01-01T05:45:58.000Z</time>
      </trkpt>
      <trkpt lat="42.631838" lon="0.65645">
        <ele>3343</ele>
        <time>1970-01-01T05:45:59.000Z</time>
      </trkpt>
      <trkpt lat="42.631838" lon="0.65645">
        <ele>3343</ele>
        <time>1970-01-01T05:46:00.000Z</time>
      </trkpt>
      <trkpt lat="42.631838" lon="0.65645">
        <ele>3343</ele>
        <time>1970-01-01T05:46:01.000Z</time>
      </trkpt>
      <trkpt lat="42.631838" lon="0.65645">
        <ele>3343</ele>
        <time>1970-01-01T05:46:02.000Z</time>
      </trkpt>
      <trkpt lat="42.631838" lon="0.65645">
        <ele>3343</ele>
        <time>1970-01-01T05:46:03.000Z</time>
      </trkpt>
      <trkpt lat="42.631837" lon="0.65645">
        <ele>3342.9</ele>
        <time>1970-01-01T05:46:04.000Z</time>
      </trkpt>
      <trkpt lat="42.631837" lon="0.65645">
        <ele>3342.9</ele>
        <time>1970-01-01T05:46:05.000Z</time>
      </trkpt>
      <trkpt lat="42.631837" lon="0.656451">
        <ele>3342.9</ele>
        <time>1970-01-01T05:46:06.000Z</time>
      </trkpt>
      <trkpt lat="42.631837" lon="0.656452">
        <ele>3342.9</ele>
        <time>1970-01-01T05:46:07.000Z</time>
      </trkpt>
      <trkpt lat="42.631837" lon="0.656452">
        <ele>3342.9</ele>
        <time>1970-01-01T05:46:08.000Z</time>
      </trkpt>
      <trkpt lat="42.631837" lon="0.656452">
        <ele>3342.9</ele>
        <time>1970-01-01T05:46:09.000Z</time>
      </trkpt>
      <trkpt lat="42.631836" lon="0.656452">
        <ele>3342.9</ele>
        <time>1970-01-01T05:46:10.000Z</time>
      </trkpt>
      <trkpt lat="42.631836" lon="0.656452">
        <ele>3342.9</ele>
        <time>1970-01-01T05:46:11.000Z</time>
      </trkpt>
      <trkpt lat="42.631836" lon="0.656453">
        <ele>3342.9</ele>
        <time>1970-01-01T05:46:12.000Z</time>
      </trkpt>
      <trkpt lat="42.631835" lon="0.656453">
        <ele>3342.8</ele>
        <time>1970-01-01T05:46:13.000Z</time>
      </trkpt>
      <trkpt lat="42.631836" lon="0.656451">
        <ele>3342.8</ele>
        <time>1970-01-01T05:46:14.000Z</time>
      </trkpt>
      <trkpt lat="42.631836" lon="0.65645">
        <ele>3342.8</ele>
        <time>1970-01-01T05:46:15.000Z</time>
      </trkpt>
      <trkpt lat="42.631836" lon="0.656449">
        <ele>3342.8</ele>
        <time>1970-01-01T05:46:16.000Z</time>
      </trkpt>
      <trkpt lat="42.631836" lon="0.656449">
        <ele>3342.8</ele>
        <time>1970-01-01T05:46:17.000Z</time>
      </trkpt>
      <trkpt lat="42.631836" lon="0.656449">
        <ele>3342.8</ele>
        <time>1970-01-01T05:46:18.000Z</time>
      </trkpt>
      <trkpt lat="42.631836" lon="0.656449">
        <ele>3342.8</ele>
        <time>1970-01-01T05:46:19.000Z</time>
      </trkpt>
      <trkpt lat="42.631836" lon="0.656449">
        <ele>3342.8</ele>
        <time>1970-01-01T05:46:20.000Z</time>
      </trkpt>
      <trkpt lat="42.631836" lon="0.656449">
        <ele>3342.8</ele>
        <time>1970-01-01T05:46:21.000Z</time>
      </trkpt>
      <trkpt lat="42.631836" lon="0.656449">
        <ele>3342.8</ele>
        <time>1970-01-01T05:46:22.000Z</time>
      </trkpt>
      <trkpt lat="42.631836" lon="0.656449">
        <ele>3342.8</ele>
        <time>1970-01-01T05:46:23.000Z</time>
      </trkpt>
      <trkpt lat="42.631836" lon="0.656449">
        <ele>3342.8</ele>
        <time>1970-01-01T05:46:24.000Z</time>
      </trkpt>
      <trkpt lat="42.631836" lon="0.656449">
        <ele>3342.8</ele>
        <time>1970-01-01T05:46:25.000Z</time>
      </trkpt>
      <trkpt lat="42.631836" lon="0.656449">
        <ele>3342.8</ele>
        <time>1970-01-01T05:46:26.000Z</time>
      </trkpt>
      <trkpt lat="42.631836" lon="0.656449">
        <ele>3342.8</ele>
        <time>1970-01-01T05:46:27.000Z</time>
      </trkpt>
      <trkpt lat="42.631836" lon="0.656449">
        <ele>3342.8</ele>
        <time>1970-01-01T05:46:28.000Z</time>
      </trkpt>
      <trkpt lat="42.631836" lon="0.656449">
        <ele>3342.8</ele>
        <time>1970-01-01T05:46:29.000Z</time>
      </trkpt>
      <trkpt lat="42.631836" lon="0.656449">
        <ele>3342.8</ele>
        <time>1970-01-01T05:46:30.000Z</time>
      </trkpt>
      <trkpt lat="42.631836" lon="0.656449">
        <ele>3342.8</ele>
        <time>1970-01-01T05:46:31.000Z</time>
      </trkpt>
      <trkpt lat="42.631836" lon="0.656449">
        <ele>3342.8</ele>
        <time>1970-01-01T05:46:32.000Z</time>
      </trkpt>
      <trkpt lat="42.631836" lon="0.656449">
        <ele>3342.8</ele>
        <time>1970-01-01T05:46:33.000Z</time>
      </trkpt>
      <trkpt lat="42.631836" lon="0.656449">
        <ele>3342.8</ele>
        <time>1970-01-01T05:46:34.000Z</time>
      </trkpt>
      <trkpt lat="42.631836" lon="0.656449">
        <ele>3342.8</ele>
        <time>1970-01-01T05:46:35.000Z</time>
      </trkpt>
      <trkpt lat="42.631836" lon="0.656449">
        <ele>3342.8</ele>
        <time>1970-01-01T05:46:36.000Z</time>
      </trkpt>
      <trkpt lat="42.631836" lon="0.656449">
        <ele>3342.8</ele>
        <time>1970-01-01T05:46:37.000Z</time>
      </trkpt>
      <trkpt lat="42.631836" lon="0.656449">
        <ele>3342.8</ele>
        <time>1970-01-01T05:46:38.000Z</time>
      </trkpt>
      <trkpt lat="42.631836" lon="0.656449">
        <ele>3342.8</ele>
        <time>1970-01-01T05:46:39.000Z</time>
      </trkpt>
      <trkpt lat="42.631836" lon="0.656449">
        <ele>3342.8</ele>
        <time>1970-01-01T05:46:40.000Z</time>
      </trkpt>
      <trkpt lat="42.631836" lon="0.656449">
        <ele>3342.8</ele>
        <time>1970-01-01T05:46:41.000Z</time>
      </trkpt>
      <trkpt lat="42.631836" lon="0.656449">
        <ele>3342.8</ele>
        <time>1970-01-01T05:46:42.000Z</time>
      </trkpt>
      <trkpt lat="42.631836" lon="0.656449">
        <ele>3342.8</ele>
        <time>1970-01-01T05:46:43.000Z</time>
      </trkpt>
      <trkpt lat="42.631836" lon="0.656449">
        <ele>3342.8</ele>
        <time>1970-01-01T05:46:44.000Z</time>
      </trkpt>
      <trkpt lat="42.631836" lon="0.656449">
        <ele>3342.8</ele>
        <time>1970-01-01T05:46:45.000Z</time>
      </trkpt>
      <trkpt lat="42.631836" lon="0.656449">
        <ele>3342.8</ele>
        <time>1970-01-01T05:46:46.000Z</time>
      </trkpt>
      <trkpt lat="42.631836" lon="0.656449">
        <ele>3342.8</ele>
        <time>1970-01-01T05:46:47.000Z</time>
      </trkpt>
      <trkpt lat="42.631836" lon="0.656449">
        <ele>3342.8</ele>
        <time>1970-01-01T05:46:48.000Z</time>
      </trkpt>
      <trkpt lat="42.631836" lon="0.656449">
        <ele>3342.8</ele>
        <time>1970-01-01T05:46:49.000Z</time>
      </trkpt>
      <trkpt lat="42.631836" lon="0.656449">
        <ele>3342.8</ele>
        <time>1970-01-01T05:46:50.000Z</time>
      </trkpt>
      <trkpt lat="42.631836" lon="0.656449">
        <ele>3342.8</ele>
        <time>1970-01-01T05:46:51.000Z</time>
      </trkpt>
      <trkpt lat="42.631836" lon="0.656449">
        <ele>3342.8</ele>
        <time>1970-01-01T05:46:52.000Z</time>
      </trkpt>
      <trkpt lat="42.631836" lon="0.656449">
        <ele>3342.8</ele>
        <time>1970-01-01T05:46:53.000Z</time>
      </trkpt>
      <trkpt lat="42.631836" lon="0.656449">
        <ele>3342.8</ele>
        <time>1970-01-01T05:46:54.000Z</time>
      </trkpt>
      <trkpt lat="42.631836" lon="0.656449">
        <ele>3342.8</ele>
        <time>1970-01-01T05:46:55.000Z</time>
      </trkpt>
      <trkpt lat="42.631836" lon="0.656449">
        <ele>3342.8</ele>
        <time>1970-01-01T05:46:56.000Z</time>
      </trkpt>
      <trkpt lat="42.631836" lon="0.656449">
        <ele>3342.8</ele>
        <time>1970-01-01T05:46:57.000Z</time>
      </trkpt>
      <trkpt lat="42.631836" lon="0.656449">
        <ele>3342.8</ele>
        <time>1970-01-01T05:46:58.000Z</time>
      </trkpt>
      <trkpt lat="42.631836" lon="0.656449">
        <ele>3342.8</ele>
        <time>1970-01-01T05:46:59.000Z</time>
      </trkpt>
      <trkpt lat="42.631836" lon="0.656449">
        <ele>3342.8</ele>
        <time>1970-01-01T05:47:00.000Z</time>
      </trkpt>
      <trkpt lat="42.631836" lon="0.656449">
        <ele>3342.8</ele>
        <time>1970-01-01T05:47:01.000Z</time>
      </trkpt>
      <trkpt lat="42.631836" lon="0.656449">
        <ele>3342.8</ele>
        <time>1970-01-01T05:47:02.000Z</time>
      </trkpt>
      <trkpt lat="42.631836" lon="0.656449">
        <ele>3342.8</ele>
        <time>1970-01-01T05:47:03.000Z</time>
      </trkpt>
      <trkpt lat="42.631836" lon="0.656449">
        <ele>3342.8</ele>
        <time>1970-01-01T05:47:04.000Z</time>
      </trkpt>
      <trkpt lat="42.631836" lon="0.656449">
        <ele>3342.8</ele>
        <time>1970-01-01T05:47:05.000Z</time>
      </trkpt>
      <trkpt lat="42.631836" lon="0.656449">
        <ele>3342.8</ele>
        <time>1970-01-01T05:47:06.000Z</time>
      </trkpt>
      <trkpt lat="42.631836" lon="0.656449">
        <ele>3342.8</ele>
        <time>1970-01-01T05:47:07.000Z</time>
      </trkpt>
      <trkpt lat="42.631836" lon="0.656449">
        <ele>3342.8</ele>
        <time>1970-01-01T05:47:08.000Z</time>
      </trkpt>
      <trkpt lat="42.631836" lon="0.656449">
        <ele>3342.8</ele>
        <time>1970-01-01T05:47:09.000Z</time>
      </trkpt>
      <trkpt lat="42.631836" lon="0.656449">
        <ele>3342.8</ele>
        <time>1970-01-01T05:47:10.000Z</time>
      </trkpt>
      <trkpt lat="42.631836" lon="0.656449">
        <ele>3342.8</ele>
        <time>1970-01-01T05:47:11.000Z</time>
      </trkpt>
      <trkpt lat="42.631836" lon="0.656449">
        <ele>3342.8</ele>
        <time>1970-01-01T05:47:12.000Z</time>
      </trkpt>
      <trkpt lat="42.631836" lon="0.656449">
        <ele>3342.8</ele>
        <time>1970-01-01T05:47:13.000Z</time>
      </trkpt>
      <trkpt lat="42.631836" lon="0.656449">
        <ele>3342.8</ele>
        <time>1970-01-01T05:47:14.000Z</time>
      </trkpt>
      <trkpt lat="42.631836" lon="0.656449">
        <ele>3342.8</ele>
        <time>1970-01-01T05:47:15.000Z</time>
      </trkpt>
      <trkpt lat="42.631836" lon="0.656449">
        <ele>3342.8</ele>
        <time>1970-01-01T05:47:16.000Z</time>
      </trkpt>
      <trkpt lat="42.631836" lon="0.656449">
        <ele>3342.8</ele>
        <time>1970-01-01T05:47:17.000Z</time>
      </trkpt>
      <trkpt lat="42.631836" lon="0.656449">
        <ele>3342.8</ele>
        <time>1970-01-01T05:47:18.000Z</time>
      </trkpt>
      <trkpt lat="42.631836" lon="0.65645">
        <ele>3342.7</ele>
        <time>1970-01-01T05:47:19.000Z</time>
      </trkpt>
      <trkpt lat="42.631836" lon="0.65645">
        <ele>3342.7</ele>
        <time>1970-01-01T05:47:20.000Z</time>
      </trkpt>
      <trkpt lat="42.631836" lon="0.65645">
        <ele>3342.7</ele>
        <time>1970-01-01T05:47:21.000Z</time>
      </trkpt>
      <trkpt lat="42.631836" lon="0.65645">
        <ele>3342.7</ele>
        <time>1970-01-01T05:47:22.000Z</time>
      </trkpt>
      <trkpt lat="42.631836" lon="0.65645">
        <ele>3342.7</ele>
        <time>1970-01-01T05:47:23.000Z</time>
      </trkpt>
      <trkpt lat="42.631836" lon="0.65645">
        <ele>3342.7</ele>
        <time>1970-01-01T05:47:24.000Z</time>
      </trkpt>
      <trkpt lat="42.631836" lon="0.65645">
        <ele>3342.7</ele>
        <time>1970-01-01T05:47:25.000Z</time>
      </trkpt>
      <trkpt lat="42.631836" lon="0.65645">
        <ele>3342.7</ele>
        <time>1970-01-01T05:47:26.000Z</time>
      </trkpt>
      <trkpt lat="42.631836" lon="0.65645">
        <ele>3342.7</ele>
        <time>1970-01-01T05:47:27.000Z</time>
      </trkpt>
      <trkpt lat="42.631836" lon="0.65645">
        <ele>3342.7</ele>
        <time>1970-01-01T05:47:28.000Z</time>
      </trkpt>
      <trkpt lat="42.631836" lon="0.65645">
        <ele>3342.7</ele>
        <time>1970-01-01T05:47:29.000Z</time>
      </trkpt>
      <trkpt lat="42.631836" lon="0.65645">
        <ele>3342.7</ele>
        <time>1970-01-01T05:47:30.000Z</time>
      </trkpt>
      <trkpt lat="42.631836" lon="0.65645">
        <ele>3342.7</ele>
        <time>1970-01-01T05:47:31.000Z</time>
      </trkpt>
      <trkpt lat="42.631836" lon="0.65645">
        <ele>3342.7</ele>
        <time>1970-01-01T05:47:32.000Z</time>
      </trkpt>
      <trkpt lat="42.631836" lon="0.65645">
        <ele>3342.7</ele>
        <time>1970-01-01T05:47:33.000Z</time>
      </trkpt>
      <trkpt lat="42.631835" lon="0.65645">
        <ele>3342.7</ele>
        <time>1970-01-01T05:47:34.000Z</time>
      </trkpt>
      <trkpt lat="42.631835" lon="0.65645">
        <ele>3342.7</ele>
        <time>1970-01-01T05:47:35.000Z</time>
      </trkpt>
      <trkpt lat="42.631835" lon="0.65645">
        <ele>3342.7</ele>
        <time>1970-01-01T05:47:36.000Z</time>
      </trkpt>
      <trkpt lat="42.631835" lon="0.65645">
        <ele>3342.7</ele>
        <time>1970-01-01T05:47:37.000Z</time>
      </trkpt>
      <trkpt lat="42.631835" lon="0.65645">
        <ele>3342.7</ele>
        <time>1970-01-01T05:47:38.000Z</time>
      </trkpt>
      <trkpt lat="42.631835" lon="0.65645">
        <ele>3342.7</ele>
        <time>1970-01-01T05:47:39.000Z</time>
      </trkpt>
      <trkpt lat="42.631835" lon="0.65645">
        <ele>3342.7</ele>
        <time>1970-01-01T05:47:40.000Z</time>
      </trkpt>
      <trkpt lat="42.631835" lon="0.65645">
        <ele>3342.7</ele>
        <time>1970-01-01T05:47:41.000Z</time>
      </trkpt>
      <trkpt lat="42.631835" lon="0.65645">
        <ele>3342.7</ele>
        <time>1970-01-01T05:47:42.000Z</time>
      </trkpt>
      <trkpt lat="42.631835" lon="0.65645">
        <ele>3342.7</ele>
        <time>1970-01-01T05:47:43.000Z</time>
      </trkpt>
      <trkpt lat="42.631835" lon="0.65645">
        <ele>3342.7</ele>
        <time>1970-01-01T05:47:44.000Z</time>
      </trkpt>
      <trkpt lat="42.631835" lon="0.65645">
        <ele>3342.7</ele>
        <time>1970-01-01T05:47:45.000Z</time>
      </trkpt>
      <trkpt lat="42.631835" lon="0.65645">
        <ele>3342.7</ele>
        <time>1970-01-01T05:47:46.000Z</time>
      </trkpt>
      <trkpt lat="42.631835" lon="0.65645">
        <ele>3342.7</ele>
        <time>1970-01-01T05:47:47.000Z</time>
      </trkpt>
      <trkpt lat="42.631835" lon="0.65645">
        <ele>3342.7</ele>
        <time>1970-01-01T05:47:48.000Z</time>
      </trkpt>
      <trkpt lat="42.631835" lon="0.65645">
        <ele>3342.7</ele>
        <time>1970-01-01T05:47:49.000Z</time>
      </trkpt>
      <trkpt lat="42.631835" lon="0.65645">
        <ele>3342.7</ele>
        <time>1970-01-01T05:47:50.000Z</time>
      </trkpt>
      <trkpt lat="42.631835" lon="0.65645">
        <ele>3342.7</ele>
        <time>1970-01-01T05:47:51.000Z</time>
      </trkpt>
      <trkpt lat="42.631835" lon="0.65645">
        <ele>3342.7</ele>
        <time>1970-01-01T05:47:52.000Z</time>
      </trkpt>
      <trkpt lat="42.631835" lon="0.65645">
        <ele>3342.7</ele>
        <time>1970-01-01T05:47:53.000Z</time>
      </trkpt>
      <trkpt lat="42.631835" lon="0.65645">
        <ele>3342.7</ele>
        <time>1970-01-01T05:47:54.000Z</time>
      </trkpt>
      <trkpt lat="42.631835" lon="0.65645">
        <ele>3342.7</ele>
        <time>1970-01-01T05:47:55.000Z</time>
      </trkpt>
      <trkpt lat="42.631835" lon="0.65645">
        <ele>3342.7</ele>
        <time>1970-01-01T05:47:56.000Z</time>
      </trkpt>
      <trkpt lat="42.631835" lon="0.65645">
        <ele>3342.7</ele>
        <time>1970-01-01T05:47:57.000Z</time>
      </trkpt>
      <trkpt lat="42.631835" lon="0.65645">
        <ele>3342.7</ele>
        <time>1970-01-01T05:47:58.000Z</time>
      </trkpt>
      <trkpt lat="42.631835" lon="0.65645">
        <ele>3342.7</ele>
        <time>1970-01-01T05:47:59.000Z</time>
      </trkpt>
      <trkpt lat="42.631835" lon="0.65645">
        <ele>3342.7</ele>
        <time>1970-01-01T05:48:00.000Z</time>
      </trkpt>
      <trkpt lat="42.631835" lon="0.65645">
        <ele>3342.7</ele>
        <time>1970-01-01T05:48:01.000Z</time>
      </trkpt>
      <trkpt lat="42.631835" lon="0.65645">
        <ele>3342.7</ele>
        <time>1970-01-01T05:48:02.000Z</time>
      </trkpt>
      <trkpt lat="42.631835" lon="0.65645">
        <ele>3342.7</ele>
        <time>1970-01-01T05:48:03.000Z</time>
      </trkpt>
      <trkpt lat="42.631835" lon="0.65645">
        <ele>3342.7</ele>
        <time>1970-01-01T05:48:04.000Z</time>
      </trkpt>
      <trkpt lat="42.631835" lon="0.65645">
        <ele>3342.7</ele>
        <time>1970-01-01T05:48:05.000Z</time>
      </trkpt>
      <trkpt lat="42.631835" lon="0.65645">
        <ele>3342.7</ele>
        <time>1970-01-01T05:48:06.000Z</time>
      </trkpt>
      <trkpt lat="42.631835" lon="0.65645">
        <ele>3342.7</ele>
        <time>1970-01-01T05:48:07.000Z</time>
      </trkpt>
      <trkpt lat="42.631835" lon="0.65645">
        <ele>3342.7</ele>
        <time>1970-01-01T05:48:08.000Z</time>
      </trkpt>
      <trkpt lat="42.631835" lon="0.65645">
        <ele>3342.7</ele>
        <time>1970-01-01T05:48:09.000Z</time>
      </trkpt>
      <trkpt lat="42.631835" lon="0.65645">
        <ele>3342.7</ele>
        <time>1970-01-01T05:48:10.000Z</time>
      </trkpt>
      <trkpt lat="42.631835" lon="0.65645">
        <ele>3342.7</ele>
        <time>1970-01-01T05:48:11.000Z</time>
      </trkpt>
      <trkpt lat="42.631835" lon="0.65645">
        <ele>3342.7</ele>
        <time>1970-01-01T05:48:12.000Z</time>
      </trkpt>
      <trkpt lat="42.631835" lon="0.65645">
        <ele>3342.7</ele>
        <time>1970-01-01T05:48:13.000Z</time>
      </trkpt>
      <trkpt lat="42.631835" lon="0.65645">
        <ele>3342.7</ele>
        <time>1970-01-01T05:48:14.000Z</time>
      </trkpt>
      <trkpt lat="42.631835" lon="0.65645">
        <ele>3342.7</ele>
        <time>1970-01-01T05:48:15.000Z</time>
      </trkpt>
      <trkpt lat="42.631835" lon="0.65645">
        <ele>3342.7</ele>
        <time>1970-01-01T05:48:16.000Z</time>
      </trkpt>
      <trkpt lat="42.631835" lon="0.65645">
        <ele>3342.7</ele>
        <time>1970-01-01T05:48:17.000Z</time>
      </trkpt>
      <trkpt lat="42.631835" lon="0.65645">
        <ele>3342.7</ele>
        <time>1970-01-01T05:48:18.000Z</time>
      </trkpt>
      <trkpt lat="42.631835" lon="0.65645">
        <ele>3342.7</ele>
        <time>1970-01-01T05:48:19.000Z</time>
      </trkpt>
      <trkpt lat="42.631835" lon="0.65645">
        <ele>3342.7</ele>
        <time>1970-01-01T05:48:20.000Z</time>
      </trkpt>
      <trkpt lat="42.631835" lon="0.65645">
        <ele>3342.7</ele>
        <time>1970-01-01T05:48:21.000Z</time>
      </trkpt>
      <trkpt lat="42.631835" lon="0.65645">
        <ele>3342.7</ele>
        <time>1970-01-01T05:48:22.000Z</time>
      </trkpt>
      <trkpt lat="42.631835" lon="0.65645">
        <ele>3342.7</ele>
        <time>1970-01-01T05:48:23.000Z</time>
      </trkpt>
      <trkpt lat="42.631835" lon="0.65645">
        <ele>3342.7</ele>
        <time>1970-01-01T05:48:24.000Z</time>
      </trkpt>
      <trkpt lat="42.631835" lon="0.65645">
        <ele>3342.7</ele>
        <time>1970-01-01T05:48:25.000Z</time>
      </trkpt>
      <trkpt lat="42.631835" lon="0.65645">
        <ele>3342.7</ele>
        <time>1970-01-01T05:48:26.000Z</time>
      </trkpt>
      <trkpt lat="42.631835" lon="0.65645">
        <ele>3342.7</ele>
        <time>1970-01-01T05:48:27.000Z</time>
      </trkpt>
      <trkpt lat="42.631835" lon="0.65645">
        <ele>3342.7</ele>
        <time>1970-01-01T05:48:28.000Z</time>
      </trkpt>
      <trkpt lat="42.631835" lon="0.65645">
        <ele>3342.7</ele>
        <time>1970-01-01T05:48:29.000Z</time>
      </trkpt>
      <trkpt lat="42.631835" lon="0.65645">
        <ele>3342.7</ele>
        <time>1970-01-01T05:48:30.000Z</time>
      </trkpt>
      <trkpt lat="42.631835" lon="0.65645">
        <ele>3342.7</ele>
        <time>1970-01-01T05:48:31.000Z</time>
      </trkpt>
      <trkpt lat="42.631835" lon="0.65645">
        <ele>3342.7</ele>
        <time>1970-01-01T05:48:32.000Z</time>
      </trkpt>
      <trkpt lat="42.631835" lon="0.65645">
        <ele>3342.7</ele>
        <time>1970-01-01T05:48:33.000Z</time>
      </trkpt>
      <trkpt lat="42.631835" lon="0.65645">
        <ele>3342.7</ele>
        <time>1970-01-01T05:48:34.000Z</time>
      </trkpt>
      <trkpt lat="42.631835" lon="0.65645">
        <ele>3342.7</ele>
        <time>1970-01-01T05:48:35.000Z</time>
      </trkpt>
      <trkpt lat="42.631835" lon="0.65645">
        <ele>3342.7</ele>
        <time>1970-01-01T05:48:36.000Z</time>
      </trkpt>
      <trkpt lat="42.631835" lon="0.65645">
        <ele>3342.7</ele>
        <time>1970-01-01T05:48:37.000Z</time>
      </trkpt>
      <trkpt lat="42.631835" lon="0.65645">
        <ele>3342.7</ele>
        <time>1970-01-01T05:48:38.000Z</time>
      </trkpt>
      <trkpt lat="42.631835" lon="0.65645">
        <ele>3342.7</ele>
        <time>1970-01-01T05:48:39.000Z</time>
      </trkpt>
      <trkpt lat="42.631835" lon="0.65645">
        <ele>3342.7</ele>
        <time>1970-01-01T05:48:40.000Z</time>
      </trkpt>
      <trkpt lat="42.631835" lon="0.65645">
        <ele>3342.7</ele>
        <time>1970-01-01T05:48:41.000Z</time>
      </trkpt>
      <trkpt lat="42.631835" lon="0.65645">
        <ele>3342.7</ele>
        <time>1970-01-01T05:48:42.000Z</time>
      </trkpt>
      <trkpt lat="42.631835" lon="0.65645">
        <ele>3342.7</ele>
        <time>1970-01-01T05:48:43.000Z</time>
      </trkpt>
      <trkpt lat="42.631835" lon="0.65645">
        <ele>3342.7</ele>
        <time>1970-01-01T05:48:44.000Z</time>
      </trkpt>
      <trkpt lat="42.631835" lon="0.65645">
        <ele>3342.7</ele>
        <time>1970-01-01T05:48:45.000Z</time>
      </trkpt>
      <trkpt lat="42.631835" lon="0.65645">
        <ele>3342.7</ele>
        <time>1970-01-01T05:48:46.000Z</time>
      </trkpt>
      <trkpt lat="42.631835" lon="0.65645">
        <ele>3342.7</ele>
        <time>1970-01-01T05:48:47.000Z</time>
      </trkpt>
      <trkpt lat="42.631835" lon="0.65645">
        <ele>3342.7</ele>
        <time>1970-01-01T05:48:48.000Z</time>
      </trkpt>
      <trkpt lat="42.631835" lon="0.65645">
        <ele>3342.7</ele>
        <time>1970-01-01T05:48:49.000Z</time>
      </trkpt>
      <trkpt lat="42.631835" lon="0.65645">
        <ele>3342.7</ele>
        <time>1970-01-01T05:48:50.000Z</time>
      </trkpt>
      <trkpt lat="42.631835" lon="0.65645">
        <ele>3342.7</ele>
        <time>1970-01-01T05:48:51.000Z</time>
      </trkpt>
      <trkpt lat="42.631835" lon="0.65645">
        <ele>3342.7</ele>
        <time>1970-01-01T05:48:52.000Z</time>
      </trkpt>
      <trkpt lat="42.631835" lon="0.65645">
        <ele>3342.7</ele>
        <time>1970-01-01T05:48:53.000Z</time>
      </trkpt>
      <trkpt lat="42.631835" lon="0.656451">
        <ele>3342.7</ele>
        <time>1970-01-01T05:48:54.000Z</time>
      </trkpt>
      <trkpt lat="42.631835" lon="0.656451">
        <ele>3342.7</ele>
        <time>1970-01-01T05:48:55.000Z</time>
      </trkpt>
      <trkpt lat="42.631835" lon="0.656451">
        <ele>3342.7</ele>
        <time>1970-01-01T05:48:56.000Z</time>
      </trkpt>
      <trkpt lat="42.631835" lon="0.656451">
        <ele>3342.7</ele>
        <time>1970-01-01T05:48:57.000Z</time>
      </trkpt>
      <trkpt lat="42.631835" lon="0.656451">
        <ele>3342.7</ele>
        <time>1970-01-01T05:48:58.000Z</time>
      </trkpt>
      <trkpt lat="42.631835" lon="0.656451">
        <ele>3342.7</ele>
        <time>1970-01-01T05:48:59.000Z</time>
      </trkpt>
      <trkpt lat="42.631835" lon="0.656451">
        <ele>3342.7</ele>
        <time>1970-01-01T05:49:00.000Z</time>
      </trkpt>
      <trkpt lat="42.631835" lon="0.656451">
        <ele>3342.7</ele>
        <time>1970-01-01T05:49:01.000Z</time>
      </trkpt>
      <trkpt lat="42.631835" lon="0.656451">
        <ele>3342.7</ele>
        <time>1970-01-01T05:49:02.000Z</time>
      </trkpt>
      <trkpt lat="42.631835" lon="0.656451">
        <ele>3342.7</ele>
        <time>1970-01-01T05:49:03.000Z</time>
      </trkpt>
      <trkpt lat="42.631835" lon="0.656451">
        <ele>3342.7</ele>
        <time>1970-01-01T05:49:04.000Z</time>
      </trkpt>
      <trkpt lat="42.631835" lon="0.656451">
        <ele>3342.7</ele>
        <time>1970-01-01T05:49:05.000Z</time>
      </trkpt>
      <trkpt lat="42.631835" lon="0.656451">
        <ele>3342.7</ele>
        <time>1970-01-01T05:49:06.000Z</time>
      </trkpt>
      <trkpt lat="42.631835" lon="0.656451">
        <ele>3342.7</ele>
        <time>1970-01-01T05:49:07.000Z</time>
      </trkpt>
      <trkpt lat="42.631835" lon="0.656451">
        <ele>3342.7</ele>
        <time>1970-01-01T05:49:08.000Z</time>
      </trkpt>
      <trkpt lat="42.631835" lon="0.656451">
        <ele>3342.7</ele>
        <time>1970-01-01T05:49:09.000Z</time>
      </trkpt>
      <trkpt lat="42.631835" lon="0.656451">
        <ele>3342.7</ele>
        <time>1970-01-01T05:49:10.000Z</time>
      </trkpt>
      <trkpt lat="42.631835" lon="0.656451">
        <ele>3342.7</ele>
        <time>1970-01-01T05:49:11.000Z</time>
      </trkpt>
      <trkpt lat="42.631835" lon="0.656451">
        <ele>3342.7</ele>
        <time>1970-01-01T05:49:12.000Z</time>
      </trkpt>
      <trkpt lat="42.631835" lon="0.656451">
        <ele>3342.7</ele>
        <time>1970-01-01T05:49:13.000Z</time>
      </trkpt>
      <trkpt lat="42.631833" lon="0.656453">
        <ele>3342.6</ele>
        <time>1970-01-01T05:49:14.000Z</time>
      </trkpt>
      <trkpt lat="42.631832" lon="0.656453">
        <ele>3342.6</ele>
        <time>1970-01-01T05:49:15.000Z</time>
      </trkpt>
      <trkpt lat="42.631833" lon="0.656451">
        <ele>3342.6</ele>
        <time>1970-01-01T05:49:16.000Z</time>
      </trkpt>
      <trkpt lat="42.631832" lon="0.656452">
        <ele>3342.5</ele>
        <time>1970-01-01T05:49:17.000Z</time>
      </trkpt>
      <trkpt lat="42.631829" lon="0.656455">
        <ele>3342.4</ele>
        <time>1970-01-01T05:49:18.000Z</time>
      </trkpt>
      <trkpt lat="42.631827" lon="0.656458">
        <ele>3342.4</ele>
        <time>1970-01-01T05:49:19.000Z</time>
      </trkpt>
      <trkpt lat="42.631826" lon="0.65646">
        <ele>3342.3</ele>
        <time>1970-01-01T05:49:20.000Z</time>
      </trkpt>
      <trkpt lat="42.631826" lon="0.656461">
        <ele>3342.3</ele>
        <time>1970-01-01T05:49:21.000Z</time>
      </trkpt>
      <trkpt lat="42.631827" lon="0.65646">
        <ele>3342.3</ele>
        <time>1970-01-01T05:49:22.000Z</time>
      </trkpt>
      <trkpt lat="42.631828" lon="0.656459">
        <ele>3342.2</ele>
        <time>1970-01-01T05:49:23.000Z</time>
      </trkpt>
      <trkpt lat="42.631828" lon="0.656458">
        <ele>3342.2</ele>
        <time>1970-01-01T05:49:24.000Z</time>
      </trkpt>
      <trkpt lat="42.631828" lon="0.656457">
        <ele>3342.2</ele>
        <time>1970-01-01T05:49:26.000Z</time>
      </trkpt>
      <trkpt lat="42.631827" lon="0.656456">
        <ele>3342.2</ele>
        <time>1970-01-01T05:49:28.000Z</time>
      </trkpt>
      <trkpt lat="42.631827" lon="0.656455">
        <ele>3342.2</ele>
        <time>1970-01-01T05:49:29.000Z</time>
      </trkpt>
      <trkpt lat="42.631827" lon="0.656454">
        <ele>3342.1</ele>
        <time>1970-01-01T05:49:30.000Z</time>
      </trkpt>
      <trkpt lat="42.631826" lon="0.656453">
        <ele>3342.1</ele>
        <time>1970-01-01T05:49:32.000Z</time>
      </trkpt>
      <trkpt lat="42.631826" lon="0.656452">
        <ele>3342.1</ele>
        <time>1970-01-01T05:49:33.000Z</time>
      </trkpt>
      <trkpt lat="42.631825" lon="0.656451">
        <ele>3342.1</ele>
        <time>1970-01-01T05:49:34.000Z</time>
      </trkpt>
      <trkpt lat="42.631824" lon="0.65645">
        <ele>3342</ele>
        <time>1970-01-01T05:49:35.000Z</time>
      </trkpt>
      <trkpt lat="42.631824" lon="0.656449">
        <ele>3342</ele>
        <time>1970-01-01T05:49:36.000Z</time>
      </trkpt>
      <trkpt lat="42.631824" lon="0.656449">
        <ele>3342</ele>
        <time>1970-01-01T05:49:37.000Z</time>
      </trkpt>
      <trkpt lat="42.631823" lon="0.656448">
        <ele>3342</ele>
        <time>1970-01-01T05:49:38.000Z</time>
      </trkpt>
      <trkpt lat="42.631823" lon="0.656448">
        <ele>3342</ele>
        <time>1970-01-01T05:49:39.000Z</time>
      </trkpt>
      <trkpt lat="42.631822" lon="0.656449">
        <ele>3341.9</ele>
        <time>1970-01-01T05:49:40.000Z</time>
      </trkpt>
      <trkpt lat="42.631822" lon="0.656449">
        <ele>3341.9</ele>
        <time>1970-01-01T05:49:41.000Z</time>
      </trkpt>
      <trkpt lat="42.631822" lon="0.656448">
        <ele>3341.9</ele>
        <time>1970-01-01T05:49:42.000Z</time>
      </trkpt>
      <trkpt lat="42.631822" lon="0.656446">
        <ele>3341.9</ele>
        <time>1970-01-01T05:49:44.000Z</time>
      </trkpt>
      <trkpt lat="42.631822" lon="0.656445">
        <ele>3341.9</ele>
        <time>1970-01-01T05:49:45.000Z</time>
      </trkpt>
      <trkpt lat="42.631822" lon="0.656445">
        <ele>3341.9</ele>
        <time>1970-01-01T05:49:46.000Z</time>
      </trkpt>
      <trkpt lat="42.631821" lon="0.656445">
        <ele>3341.9</ele>
        <time>1970-01-01T05:49:47.000Z</time>
      </trkpt>
      <trkpt lat="42.631821" lon="0.656447">
        <ele>3341.8</ele>
        <time>1970-01-01T05:49:49.000Z</time>
      </trkpt>
      <trkpt lat="42.631821" lon="0.65645">
        <ele>3341.8</ele>
        <time>1970-01-01T05:49:50.000Z</time>
      </trkpt>
      <trkpt lat="42.631821" lon="0.656452">
        <ele>3341.7</ele>
        <time>1970-01-01T05:49:51.000Z</time>
      </trkpt>
      <trkpt lat="42.631821" lon="0.656453">
        <ele>3341.7</ele>
        <time>1970-01-01T05:49:52.000Z</time>
      </trkpt>
      <trkpt lat="42.631821" lon="0.656453">
        <ele>3341.7</ele>
        <time>1970-01-01T05:49:53.000Z</time>
      </trkpt>
      <trkpt lat="42.631821" lon="0.656453">
        <ele>3341.7</ele>
        <time>1970-01-01T05:49:54.000Z</time>
      </trkpt>
      <trkpt lat="42.631821" lon="0.656451">
        <ele>3341.7</ele>
        <time>1970-01-01T05:49:55.000Z</time>
      </trkpt>
      <trkpt lat="42.631823" lon="0.656447">
        <ele>3341.6</ele>
        <time>1970-01-01T05:49:57.000Z</time>
      </trkpt>
      <trkpt lat="42.631824" lon="0.656445">
        <ele>3341.5</ele>
        <time>1970-01-01T05:49:58.000Z</time>
      </trkpt>
      <trkpt lat="42.631824" lon="0.656443">
        <ele>3341.5</ele>
        <time>1970-01-01T05:49:59.000Z</time>
      </trkpt>
      <trkpt lat="42.631825" lon="0.656442">
        <ele>3341.5</ele>
        <time>1970-01-01T05:50:00.000Z</time>
      </trkpt>
      <trkpt lat="42.631825" lon="0.656441">
        <ele>3341.4</ele>
        <time>1970-01-01T05:50:01.000Z</time>
      </trkpt>
      <trkpt lat="42.631826" lon="0.65644">
        <ele>3341.4</ele>
        <time>1970-01-01T05:50:02.000Z</time>
      </trkpt>
      <trkpt lat="42.631826" lon="0.65644">
        <ele>3341.4</ele>
        <time>1970-01-01T05:50:03.000Z</time>
      </trkpt>
      <trkpt lat="42.631827" lon="0.656439">
        <ele>3341.4</ele>
        <time>1970-01-01T05:50:04.000Z</time>
      </trkpt>
      <trkpt lat="42.631828" lon="0.656438">
        <ele>3341.4</ele>
        <time>1970-01-01T05:50:05.000Z</time>
      </trkpt>
      <trkpt lat="42.63183" lon="0.656436">
        <ele>3341.3</ele>
        <time>1970-01-01T05:50:06.000Z</time>
      </trkpt>
      <trkpt lat="42.631831" lon="0.656434">
        <ele>3341.2</ele>
        <time>1970-01-01T05:50:07.000Z</time>
      </trkpt>
      <trkpt lat="42.631831" lon="0.656432">
        <ele>3341.2</ele>
        <time>1970-01-01T05:50:08.000Z</time>
      </trkpt>
      <trkpt lat="42.631832" lon="0.656431">
        <ele>3341.2</ele>
        <time>1970-01-01T05:50:09.000Z</time>
      </trkpt>
      <trkpt lat="42.631832" lon="0.656431">
        <ele>3341.2</ele>
        <time>1970-01-01T05:50:10.000Z</time>
      </trkpt>
      <trkpt lat="42.631832" lon="0.65643">
        <ele>3341.2</ele>
        <time>1970-01-01T05:50:11.000Z</time>
      </trkpt>
      <trkpt lat="42.631832" lon="0.65643">
        <ele>3341.2</ele>
        <time>1970-01-01T05:50:12.000Z</time>
      </trkpt>
      <trkpt lat="42.631832" lon="0.65643">
        <ele>3341.2</ele>
        <time>1970-01-01T05:50:13.000Z</time>
      </trkpt>
      <trkpt lat="42.631832" lon="0.65643">
        <ele>3341.2</ele>
        <time>1970-01-01T05:50:14.000Z</time>
      </trkpt>
      <trkpt lat="42.631832" lon="0.65643">
        <ele>3341.2</ele>
        <time>1970-01-01T05:50:15.000Z</time>
      </trkpt>
      <trkpt lat="42.631832" lon="0.65643">
        <ele>3341.2</ele>
        <time>1970-01-01T05:50:16.000Z</time>
      </trkpt>
      <trkpt lat="42.631832" lon="0.65643">
        <ele>3341.2</ele>
        <time>1970-01-01T05:50:17.000Z</time>
      </trkpt>
      <trkpt lat="42.631832" lon="0.65643">
        <ele>3341.2</ele>
        <time>1970-01-01T05:50:18.000Z</time>
      </trkpt>
      <trkpt lat="42.631832" lon="0.65643">
        <ele>3341.2</ele>
        <time>1970-01-01T05:50:19.000Z</time>
      </trkpt>
      <trkpt lat="42.631831" lon="0.656431">
        <ele>3341.1</ele>
        <time>1970-01-01T05:50:20.000Z</time>
      </trkpt>
      <trkpt lat="42.63183" lon="0.656432">
        <ele>3341.1</ele>
        <time>1970-01-01T05:50:21.000Z</time>
      </trkpt>
      <trkpt lat="42.63183" lon="0.656433">
        <ele>3341.1</ele>
        <time>1970-01-01T05:50:22.000Z</time>
      </trkpt>
      <trkpt lat="42.631829" lon="0.656434">
        <ele>3341</ele>
        <time>1970-01-01T05:50:23.000Z</time>
      </trkpt>
      <trkpt lat="42.631829" lon="0.656435">
        <ele>3341</ele>
        <time>1970-01-01T05:50:24.000Z</time>
      </trkpt>
      <trkpt lat="42.631831" lon="0.656434">
        <ele>3341</ele>
        <time>1970-01-01T05:50:25.000Z</time>
      </trkpt>
      <trkpt lat="42.631831" lon="0.656432">
        <ele>3340.9</ele>
        <time>1970-01-01T05:50:26.000Z</time>
      </trkpt>
      <trkpt lat="42.631832" lon="0.65643">
        <ele>3340.9</ele>
        <time>1970-01-01T05:50:27.000Z</time>
      </trkpt>
      <trkpt lat="42.631833" lon="0.656428">
        <ele>3340.9</ele>
        <time>1970-01-01T05:50:28.000Z</time>
      </trkpt>
      <trkpt lat="42.631833" lon="0.656426">
        <ele>3340.8</ele>
        <time>1970-01-01T05:50:29.000Z</time>
      </trkpt>
      <trkpt lat="42.631837" lon="0.656432">
        <ele>3340.7</ele>
        <time>1970-01-01T05:50:30.000Z</time>
      </trkpt>
      <trkpt lat="42.63184" lon="0.656433">
        <ele>3340.6</ele>
        <time>1970-01-01T05:50:31.000Z</time>
      </trkpt>
      <trkpt lat="42.631841" lon="0.656432">
        <ele>3340.6</ele>
        <time>1970-01-01T05:50:32.000Z</time>
      </trkpt>
      <trkpt lat="42.631839" lon="0.656425">
        <ele>3340.4</ele>
        <time>1970-01-01T05:50:33.000Z</time>
      </trkpt>
      <trkpt lat="42.631839" lon="0.656419">
        <ele>3340.3</ele>
        <time>1970-01-01T05:50:34.000Z</time>
      </trkpt>
      <trkpt lat="42.631842" lon="0.656424">
        <ele>3340.2</ele>
        <time>1970-01-01T05:50:35.000Z</time>
      </trkpt>
      <trkpt lat="42.631843" lon="0.656424">
        <ele>3340.2</ele>
        <time>1970-01-01T05:50:36.000Z</time>
      </trkpt>
      <trkpt lat="42.631843" lon="0.656423">
        <ele>3340.1</ele>
        <time>1970-01-01T05:50:37.000Z</time>
      </trkpt>
      <trkpt lat="42.631843" lon="0.656423">
        <ele>3340.1</ele>
        <time>1970-01-01T05:50:38.000Z</time>
      </trkpt>
      <trkpt lat="42.631843" lon="0.656423">
        <ele>3340.1</ele>
        <time>1970-01-01T05:50:39.000Z</time>
      </trkpt>
      <trkpt lat="42.631843" lon="0.656424">
        <ele>3340.1</ele>
        <time>1970-01-01T05:50:40.000Z</time>
      </trkpt>
      <trkpt lat="42.631843" lon="0.656426">
        <ele>3340.1</ele>
        <time>1970-01-01T05:50:41.000Z</time>
      </trkpt>
      <trkpt lat="42.631844" lon="0.656429">
        <ele>3340</ele>
        <time>1970-01-01T05:50:43.000Z</time>
      </trkpt>
      <trkpt lat="42.631845" lon="0.65643">
        <ele>3340</ele>
        <time>1970-01-01T05:50:44.000Z</time>
      </trkpt>
      <trkpt lat="42.631847" lon="0.656433">
        <ele>3339.9</ele>
        <time>1970-01-01T05:50:45.000Z</time>
      </trkpt>
      <trkpt lat="42.631849" lon="0.656437">
        <ele>3339.8</ele>
        <time>1970-01-01T05:50:47.000Z</time>
      </trkpt>
      <trkpt lat="42.631852" lon="0.656443">
        <ele>3339.7</ele>
        <time>1970-01-01T05:50:48.000Z</time>
      </trkpt>
      <trkpt lat="42.631857" lon="0.656449">
        <ele>3339.5</ele>
        <time>1970-01-01T05:50:49.000Z</time>
      </trkpt>
      <trkpt lat="42.631861" lon="0.656454">
        <ele>3339.4</ele>
        <time>1970-01-01T05:50:50.000Z</time>
      </trkpt>
      <trkpt lat="42.631867" lon="0.656461">
        <ele>3339.2</ele>
        <time>1970-01-01T05:50:51.000Z</time>
      </trkpt>
      <trkpt lat="42.631876" lon="0.656463">
        <ele>3339</ele>
        <time>1970-01-01T05:50:52.000Z</time>
      </trkpt>
      <trkpt lat="42.631883" lon="0.656463">
        <ele>3338.8</ele>
        <time>1970-01-01T05:50:54.000Z</time>
      </trkpt>
      <trkpt lat="42.6319" lon="0.656463">
        <ele>3338.4</ele>
        <time>1970-01-01T05:50:56.000Z</time>
      </trkpt>
      <trkpt lat="42.631901" lon="0.656463">
        <ele>3338.4</ele>
        <time>1970-01-01T05:50:57.000Z</time>
      </trkpt>
      <trkpt lat="42.631901" lon="0.656462">
        <ele>3338.3</ele>
        <time>1970-01-01T05:50:58.000Z</time>
      </trkpt>
      <trkpt lat="42.631902" lon="0.656462">
        <ele>3338.3</ele>
        <time>1970-01-01T05:50:59.000Z</time>
      </trkpt>
      <trkpt lat="42.631906" lon="0.65646">
        <ele>3338.2</ele>
        <time>1970-01-01T05:51:01.000Z</time>
      </trkpt>
      <trkpt lat="42.631908" lon="0.656459">
        <ele>3338.1</ele>
        <time>1970-01-01T05:51:02.000Z</time>
      </trkpt>
      <trkpt lat="42.631909" lon="0.656459">
        <ele>3338.1</ele>
        <time>1970-01-01T05:51:03.000Z</time>
      </trkpt>
      <trkpt lat="42.63191" lon="0.65646">
        <ele>3338.1</ele>
        <time>1970-01-01T05:51:04.000Z</time>
      </trkpt>
      <trkpt lat="42.631912" lon="0.65646">
        <ele>3338</ele>
        <time>1970-01-01T05:51:05.000Z</time>
      </trkpt>
      <trkpt lat="42.631914" lon="0.65646">
        <ele>3338</ele>
        <time>1970-01-01T05:51:06.000Z</time>
      </trkpt>
      <trkpt lat="42.631914" lon="0.656461">
        <ele>3338</ele>
        <time>1970-01-01T05:51:07.000Z</time>
      </trkpt>
      <trkpt lat="42.631916" lon="0.65646">
        <ele>3337.9</ele>
        <time>1970-01-01T05:51:08.000Z</time>
      </trkpt>
      <trkpt lat="42.631918" lon="0.65646">
        <ele>3337.9</ele>
        <time>1970-01-01T05:51:09.000Z</time>
      </trkpt>
      <trkpt lat="42.631919" lon="0.65646">
        <ele>3337.8</ele>
        <time>1970-01-01T05:51:10.000Z</time>
      </trkpt>
      <trkpt lat="42.631919" lon="0.65646">
        <ele>3337.8</ele>
        <time>1970-01-01T05:51:11.000Z</time>
      </trkpt>
      <trkpt lat="42.631919" lon="0.65646">
        <ele>3337.8</ele>
        <time>1970-01-01T05:51:12.000Z</time>
      </trkpt>
      <trkpt lat="42.631919" lon="0.65646">
        <ele>3337.8</ele>
        <time>1970-01-01T05:51:13.000Z</time>
      </trkpt>
      <trkpt lat="42.63192" lon="0.656459">
        <ele>3337.8</ele>
        <time>1970-01-01T05:51:15.000Z</time>
      </trkpt>
      <trkpt lat="42.63192" lon="0.656459">
        <ele>3337.8</ele>
        <time>1970-01-01T05:51:16.000Z</time>
      </trkpt>
      <trkpt lat="42.631921" lon="0.656459">
        <ele>3337.8</ele>
        <time>1970-01-01T05:51:17.000Z</time>
      </trkpt>
      <trkpt lat="42.631922" lon="0.656459">
        <ele>3337.8</ele>
        <time>1970-01-01T05:51:18.000Z</time>
      </trkpt>
      <trkpt lat="42.631922" lon="0.656459">
        <ele>3337.8</ele>
        <time>1970-01-01T05:51:19.000Z</time>
      </trkpt>
      <trkpt lat="42.631923" lon="0.656459">
        <ele>3337.7</ele>
        <time>1970-01-01T05:51:20.000Z</time>
      </trkpt>
      <trkpt lat="42.631922" lon="0.65646">
        <ele>3337.7</ele>
        <time>1970-01-01T05:51:21.000Z</time>
      </trkpt>
      <trkpt lat="42.631922" lon="0.65646">
        <ele>3337.7</ele>
        <time>1970-01-01T05:51:22.000Z</time>
      </trkpt>
      <trkpt lat="42.631923" lon="0.65646">
        <ele>3337.7</ele>
        <time>1970-01-01T05:51:23.000Z</time>
      </trkpt>
      <trkpt lat="42.631923" lon="0.65646">
        <ele>3337.7</ele>
        <time>1970-01-01T05:51:24.000Z</time>
      </trkpt>
      <trkpt lat="42.631923" lon="0.65646">
        <ele>3337.7</ele>
        <time>1970-01-01T05:51:25.000Z</time>
      </trkpt>
      <trkpt lat="42.631924" lon="0.65646">
        <ele>3337.7</ele>
        <time>1970-01-01T05:51:26.000Z</time>
      </trkpt>
      <trkpt lat="42.631923" lon="0.65646">
        <ele>3337.6</ele>
        <time>1970-01-01T05:51:27.000Z</time>
      </trkpt>
      <trkpt lat="42.631922" lon="0.65646">
        <ele>3337.6</ele>
        <time>1970-01-01T05:51:28.000Z</time>
      </trkpt>
      <trkpt lat="42.631922" lon="0.65646">
        <ele>3337.6</ele>
        <time>1970-01-01T05:51:29.000Z</time>
      </trkpt>
      <trkpt lat="42.631918" lon="0.656461">
        <ele>3337.5</ele>
        <time>1970-01-01T05:51:31.000Z</time>
      </trkpt>
      <trkpt lat="42.631915" lon="0.656461">
        <ele>3337.4</ele>
        <time>1970-01-01T05:51:32.000Z</time>
      </trkpt>
      <trkpt lat="42.631914" lon="0.656462">
        <ele>3337.4</ele>
        <time>1970-01-01T05:51:33.000Z</time>
      </trkpt>
      <trkpt lat="42.631913" lon="0.656462">
        <ele>3337.4</ele>
        <time>1970-01-01T05:51:34.000Z</time>
      </trkpt>
      <trkpt lat="42.631912" lon="0.656462">
        <ele>3337.4</ele>
        <time>1970-01-01T05:51:35.000Z</time>
      </trkpt>
      <trkpt lat="42.631912" lon="0.656462">
        <ele>3337.4</ele>
        <time>1970-01-01T05:51:36.000Z</time>
      </trkpt>
      <trkpt lat="42.631912" lon="0.656462">
        <ele>3337.4</ele>
        <time>1970-01-01T05:51:37.000Z</time>
      </trkpt>
      <trkpt lat="42.631912" lon="0.656462">
        <ele>3337.4</ele>
        <time>1970-01-01T05:51:38.000Z</time>
      </trkpt>
      <trkpt lat="42.631912" lon="0.656462">
        <ele>3337.4</ele>
        <time>1970-01-01T05:51:39.000Z</time>
      </trkpt>
      <trkpt lat="42.631912" lon="0.656462">
        <ele>3337.4</ele>
        <time>1970-01-01T05:51:40.000Z</time>
      </trkpt>
      <trkpt lat="42.631912" lon="0.656462">
        <ele>3337.4</ele>
        <time>1970-01-01T05:51:41.000Z</time>
      </trkpt>
      <trkpt lat="42.631912" lon="0.656462">
        <ele>3337.4</ele>
        <time>1970-01-01T05:51:42.000Z</time>
      </trkpt>
      <trkpt lat="42.631913" lon="0.656462">
        <ele>3337.3</ele>
        <time>1970-01-01T05:51:43.000Z</time>
      </trkpt>
      <trkpt lat="42.631912" lon="0.656462">
        <ele>3337.3</ele>
        <time>1970-01-01T05:51:44.000Z</time>
      </trkpt>
      <trkpt lat="42.631912" lon="0.656462">
        <ele>3337.3</ele>
        <time>1970-01-01T05:51:45.000Z</time>
      </trkpt>
      <trkpt lat="42.631912" lon="0.656462">
        <ele>3337.3</ele>
        <time>1970-01-01T05:51:46.000Z</time>
      </trkpt>
      <trkpt lat="42.631912" lon="0.656462">
        <ele>3337.3</ele>
        <time>1970-01-01T05:51:47.000Z</time>
      </trkpt>
      <trkpt lat="42.631912" lon="0.656462">
        <ele>3337.3</ele>
        <time>1970-01-01T05:51:48.000Z</time>
      </trkpt>
      <trkpt lat="42.631912" lon="0.656462">
        <ele>3337.3</ele>
        <time>1970-01-01T05:51:49.000Z</time>
      </trkpt>
      <trkpt lat="42.631912" lon="0.656462">
        <ele>3337.3</ele>
        <time>1970-01-01T05:51:50.000Z</time>
      </trkpt>
      <trkpt lat="42.631912" lon="0.656462">
        <ele>3337.3</ele>
        <time>1970-01-01T05:51:51.000Z</time>
      </trkpt>
      <trkpt lat="42.631912" lon="0.656462">
        <ele>3337.3</ele>
        <time>1970-01-01T05:51:52.000Z</time>
      </trkpt>
      <trkpt lat="42.631912" lon="0.656462">
        <ele>3337.3</ele>
        <time>1970-01-01T05:51:53.000Z</time>
      </trkpt>
      <trkpt lat="42.631912" lon="0.656462">
        <ele>3337.3</ele>
        <time>1970-01-01T05:51:54.000Z</time>
      </trkpt>
      <trkpt lat="42.631912" lon="0.656462">
        <ele>3337.3</ele>
        <time>1970-01-01T05:51:55.000Z</time>
      </trkpt>
      <trkpt lat="42.631912" lon="0.656462">
        <ele>3337.3</ele>
        <time>1970-01-01T05:51:56.000Z</time>
      </trkpt>
      <trkpt lat="42.631912" lon="0.656462">
        <ele>3337.3</ele>
        <time>1970-01-01T05:51:57.000Z</time>
      </trkpt>
      <trkpt lat="42.631912" lon="0.656462">
        <ele>3337.3</ele>
        <time>1970-01-01T05:51:58.000Z</time>
      </trkpt>
      <trkpt lat="42.631912" lon="0.656462">
        <ele>3337.3</ele>
        <time>1970-01-01T05:51:59.000Z</time>
      </trkpt>
      <trkpt lat="42.631912" lon="0.656462">
        <ele>3337.3</ele>
        <time>1970-01-01T05:52:00.000Z</time>
      </trkpt>
      <trkpt lat="42.631912" lon="0.656462">
        <ele>3337.3</ele>
        <time>1970-01-01T05:52:01.000Z</time>
      </trkpt>
      <trkpt lat="42.631912" lon="0.656462">
        <ele>3337.3</ele>
        <time>1970-01-01T05:52:02.000Z</time>
      </trkpt>
      <trkpt lat="42.631912" lon="0.656462">
        <ele>3337.3</ele>
        <time>1970-01-01T05:52:03.000Z</time>
      </trkpt>
      <trkpt lat="42.631912" lon="0.656462">
        <ele>3337.3</ele>
        <time>1970-01-01T05:52:04.000Z</time>
      </trkpt>
      <trkpt lat="42.631912" lon="0.656461">
        <ele>3337.3</ele>
        <time>1970-01-01T05:52:05.000Z</time>
      </trkpt>
      <trkpt lat="42.631912" lon="0.656461">
        <ele>3337.3</ele>
        <time>1970-01-01T05:52:06.000Z</time>
      </trkpt>
      <trkpt lat="42.631912" lon="0.656461">
        <ele>3337.3</ele>
        <time>1970-01-01T05:52:07.000Z</time>
      </trkpt>
      <trkpt lat="42.631912" lon="0.656461">
        <ele>3337.3</ele>
        <time>1970-01-01T05:52:08.000Z</time>
      </trkpt>
      <trkpt lat="42.631912" lon="0.656461">
        <ele>3337.3</ele>
        <time>1970-01-01T05:52:09.000Z</time>
      </trkpt>
      <trkpt lat="42.631912" lon="0.656461">
        <ele>3337.3</ele>
        <time>1970-01-01T05:52:10.000Z</time>
      </trkpt>
      <trkpt lat="42.631912" lon="0.656461">
        <ele>3337.3</ele>
        <time>1970-01-01T05:52:11.000Z</time>
      </trkpt>
      <trkpt lat="42.631912" lon="0.656461">
        <ele>3337.3</ele>
        <time>1970-01-01T05:52:12.000Z</time>
      </trkpt>
      <trkpt lat="42.631912" lon="0.656461">
        <ele>3337.3</ele>
        <time>1970-01-01T05:52:13.000Z</time>
      </trkpt>
      <trkpt lat="42.631911" lon="0.656461">
        <ele>3337.3</ele>
        <time>1970-01-01T05:52:14.000Z</time>
      </trkpt>
      <trkpt lat="42.631911" lon="0.65646">
        <ele>3337.2</ele>
        <time>1970-01-01T05:52:15.000Z</time>
      </trkpt>
      <trkpt lat="42.63191" lon="0.656459">
        <ele>3337.2</ele>
        <time>1970-01-01T05:52:16.000Z</time>
      </trkpt>
      <trkpt lat="42.631912" lon="0.656459">
        <ele>3337.2</ele>
        <time>1970-01-01T05:52:17.000Z</time>
      </trkpt>
      <trkpt lat="42.631914" lon="0.656459">
        <ele>3337.1</ele>
        <time>1970-01-01T05:52:18.000Z</time>
      </trkpt>
      <trkpt lat="42.63192" lon="0.656461">
        <ele>3337</ele>
        <time>1970-01-01T05:52:20.000Z</time>
      </trkpt>
      <trkpt lat="42.631923" lon="0.656459">
        <ele>3336.9</ele>
        <time>1970-01-01T05:52:22.000Z</time>
      </trkpt>
      <trkpt lat="42.631924" lon="0.656455">
        <ele>3336.8</ele>
        <time>1970-01-01T05:52:23.000Z</time>
      </trkpt>
      <trkpt lat="42.631923" lon="0.656452">
        <ele>3336.7</ele>
        <time>1970-01-01T05:52:24.000Z</time>
      </trkpt>
      <trkpt lat="42.631922" lon="0.65645">
        <ele>3336.7</ele>
        <time>1970-01-01T05:52:25.000Z</time>
      </trkpt>
      <trkpt lat="42.63192" lon="0.656447">
        <ele>3336.6</ele>
        <time>1970-01-01T05:52:26.000Z</time>
      </trkpt>
      <trkpt lat="42.631919" lon="0.656442">
        <ele>3336.5</ele>
        <time>1970-01-01T05:52:27.000Z</time>
      </trkpt>
      <trkpt lat="42.631918" lon="0.656433">
        <ele>3336.4</ele>
        <time>1970-01-01T05:52:28.000Z</time>
      </trkpt>
      <trkpt lat="42.631918" lon="0.656426">
        <ele>3336.2</ele>
        <time>1970-01-01T05:52:29.000Z</time>
      </trkpt>
      <trkpt lat="42.631918" lon="0.656416">
        <ele>3336</ele>
        <time>1970-01-01T05:52:31.000Z</time>
      </trkpt>
      <trkpt lat="42.631918" lon="0.656407">
        <ele>3335.9</ele>
        <time>1970-01-01T05:52:32.000Z</time>
      </trkpt>
      <trkpt lat="42.631917" lon="0.656398">
        <ele>3335.7</ele>
        <time>1970-01-01T05:52:33.000Z</time>
      </trkpt>
      <trkpt lat="42.631917" lon="0.656391">
        <ele>3335.6</ele>
        <time>1970-01-01T05:52:34.000Z</time>
      </trkpt>
      <trkpt lat="42.631915" lon="0.656384">
        <ele>3335.4</ele>
        <time>1970-01-01T05:52:35.000Z</time>
      </trkpt>
      <trkpt lat="42.631915" lon="0.65638">
        <ele>3335.4</ele>
        <time>1970-01-01T05:52:36.000Z</time>
      </trkpt>
      <trkpt lat="42.631913" lon="0.656373">
        <ele>3335.2</ele>
        <time>1970-01-01T05:52:37.000Z</time>
      </trkpt>
      <trkpt lat="42.631912" lon="0.656367">
        <ele>3335.1</ele>
        <time>1970-01-01T05:52:39.000Z</time>
      </trkpt>
      <trkpt lat="42.631912" lon="0.656361">
        <ele>3335</ele>
        <time>1970-01-01T05:52:40.000Z</time>
      </trkpt>
      <trkpt lat="42.631913" lon="0.656354">
        <ele>3334.9</ele>
        <time>1970-01-01T05:52:42.000Z</time>
      </trkpt>
      <trkpt lat="42.631913" lon="0.656352">
        <ele>3334.8</ele>
        <time>1970-01-01T05:52:43.000Z</time>
      </trkpt>
      <trkpt lat="42.631913" lon="0.656352">
        <ele>3334.8</ele>
        <time>1970-01-01T05:52:44.000Z</time>
      </trkpt>
      <trkpt lat="42.631913" lon="0.65635">
        <ele>3334.8</ele>
        <time>1970-01-01T05:52:45.000Z</time>
      </trkpt>
      <trkpt lat="42.631914" lon="0.656346">
        <ele>3334.7</ele>
        <time>1970-01-01T05:52:47.000Z</time>
      </trkpt>
      <trkpt lat="42.631914" lon="0.656345">
        <ele>3334.7</ele>
        <time>1970-01-01T05:52:48.000Z</time>
      </trkpt>
      <trkpt lat="42.631915" lon="0.656345">
        <ele>3334.7</ele>
        <time>1970-01-01T05:52:49.000Z</time>
      </trkpt>
      <trkpt lat="42.631915" lon="0.656345">
        <ele>3334.7</ele>
        <time>1970-01-01T05:52:50.000Z</time>
      </trkpt>
      <trkpt lat="42.631916" lon="0.656345">
        <ele>3334.7</ele>
        <time>1970-01-01T05:52:51.000Z</time>
      </trkpt>
      <trkpt lat="42.631916" lon="0.656345">
        <ele>3334.7</ele>
        <time>1970-01-01T05:52:52.000Z</time>
      </trkpt>
      <trkpt lat="42.631917" lon="0.656346">
        <ele>3334.6</ele>
        <time>1970-01-01T05:52:53.000Z</time>
      </trkpt>
      <trkpt lat="42.631917" lon="0.656346">
        <ele>3334.6</ele>
        <time>1970-01-01T05:52:54.000Z</time>
      </trkpt>
      <trkpt lat="42.631917" lon="0.656347">
        <ele>3334.6</ele>
        <time>1970-01-01T05:52:55.000Z</time>
      </trkpt>
      <trkpt lat="42.631918" lon="0.656348">
        <ele>3334.6</ele>
        <time>1970-01-01T05:52:56.000Z</time>
      </trkpt>
      <trkpt lat="42.631918" lon="0.656348">
        <ele>3334.6</ele>
        <time>1970-01-01T05:52:57.000Z</time>
      </trkpt>
      <trkpt lat="42.631919" lon="0.656348">
        <ele>3334.5</ele>
        <time>1970-01-01T05:52:58.000Z</time>
      </trkpt>
      <trkpt lat="42.631919" lon="0.656348">
        <ele>3334.5</ele>
        <time>1970-01-01T05:52:59.000Z</time>
      </trkpt>
      <trkpt lat="42.631919" lon="0.656348">
        <ele>3334.5</ele>
        <time>1970-01-01T05:53:00.000Z</time>
      </trkpt>
      <trkpt lat="42.63192" lon="0.656349">
        <ele>3334.5</ele>
        <time>1970-01-01T05:53:01.000Z</time>
      </trkpt>
      <trkpt lat="42.63192" lon="0.656349">
        <ele>3334.5</ele>
        <time>1970-01-01T05:53:02.000Z</time>
      </trkpt>
      <trkpt lat="42.631921" lon="0.656349">
        <ele>3334.5</ele>
        <time>1970-01-01T05:53:03.000Z</time>
      </trkpt>
      <trkpt lat="42.631922" lon="0.656349">
        <ele>3334.5</ele>
        <time>1970-01-01T05:53:04.000Z</time>
      </trkpt>
      <trkpt lat="42.631924" lon="0.656348">
        <ele>3334.4</ele>
        <time>1970-01-01T05:53:06.000Z</time>
      </trkpt>
      <trkpt lat="42.631926" lon="0.656348">
        <ele>3334.4</ele>
        <time>1970-01-01T05:53:07.000Z</time>
      </trkpt>
      <trkpt lat="42.631929" lon="0.656347">
        <ele>3334.3</ele>
        <time>1970-01-01T05:53:08.000Z</time>
      </trkpt>
      <trkpt lat="42.631932" lon="0.656347">
        <ele>3334.2</ele>
        <time>1970-01-01T05:53:09.000Z</time>
      </trkpt>
      <trkpt lat="42.631933" lon="0.656346">
        <ele>3334.2</ele>
        <time>1970-01-01T05:53:10.000Z</time>
      </trkpt>
      <trkpt lat="42.631934" lon="0.656345">
        <ele>3334.1</ele>
        <time>1970-01-01T05:53:11.000Z</time>
      </trkpt>
      <trkpt lat="42.631935" lon="0.656345">
        <ele>3334.1</ele>
        <time>1970-01-01T05:53:12.000Z</time>
      </trkpt>
      <trkpt lat="42.631936" lon="0.656345">
        <ele>3334.1</ele>
        <time>1970-01-01T05:53:13.000Z</time>
      </trkpt>
      <trkpt lat="42.631938" lon="0.656345">
        <ele>3334</ele>
        <time>1970-01-01T05:53:14.000Z</time>
      </trkpt>
      <trkpt lat="42.631939" lon="0.656345">
        <ele>3334</ele>
        <time>1970-01-01T05:53:15.000Z</time>
      </trkpt>
      <trkpt lat="42.63194" lon="0.656345">
        <ele>3334</ele>
        <time>1970-01-01T05:53:17.000Z</time>
      </trkpt>
      <trkpt lat="42.631941" lon="0.656345">
        <ele>3334</ele>
        <time>1970-01-01T05:53:18.000Z</time>
      </trkpt>
      <trkpt lat="42.631943" lon="0.656346">
        <ele>3333.9</ele>
        <time>1970-01-01T05:53:19.000Z</time>
      </trkpt>
      <trkpt lat="42.631948" lon="0.656349">
        <ele>3333.8</ele>
        <time>1970-01-01T05:53:21.000Z</time>
      </trkpt>
      <trkpt lat="42.631952" lon="0.656353">
        <ele>3333.7</ele>
        <time>1970-01-01T05:53:22.000Z</time>
      </trkpt>
      <trkpt lat="42.631955" lon="0.656356">
        <ele>3333.6</ele>
        <time>1970-01-01T05:53:23.000Z</time>
      </trkpt>
      <trkpt lat="42.631958" lon="0.656359">
        <ele>3333.5</ele>
        <time>1970-01-01T05:53:24.000Z</time>
      </trkpt>
      <trkpt lat="42.631964" lon="0.656365">
        <ele>3333.3</ele>
        <time>1970-01-01T05:53:25.000Z</time>
      </trkpt>
      <trkpt lat="42.631969" lon="0.656371">
        <ele>3333.1</ele>
        <time>1970-01-01T05:53:27.000Z</time>
      </trkpt>
      <trkpt lat="42.631973" lon="0.656376">
        <ele>3333</ele>
        <time>1970-01-01T05:53:28.000Z</time>
      </trkpt>
      <trkpt lat="42.631974" lon="0.656378">
        <ele>3332.9</ele>
        <time>1970-01-01T05:53:29.000Z</time>
      </trkpt>
      <trkpt lat="42.631976" lon="0.65638">
        <ele>3332.9</ele>
        <time>1970-01-01T05:53:30.000Z</time>
      </trkpt>
      <trkpt lat="42.631979" lon="0.656383">
        <ele>3332.8</ele>
        <time>1970-01-01T05:53:31.000Z</time>
      </trkpt>
      <trkpt lat="42.631983" lon="0.656387">
        <ele>3332.7</ele>
        <time>1970-01-01T05:53:33.000Z</time>
      </trkpt>
      <trkpt lat="42.631986" lon="0.656389">
        <ele>3332.6</ele>
        <time>1970-01-01T05:53:34.000Z</time>
      </trkpt>
      <trkpt lat="42.631989" lon="0.656392">
        <ele>3332.5</ele>
        <time>1970-01-01T05:53:35.000Z</time>
      </trkpt>
      <trkpt lat="42.63199" lon="0.656394">
        <ele>3332.4</ele>
        <time>1970-01-01T05:53:36.000Z</time>
      </trkpt>
      <trkpt lat="42.631993" lon="0.656396">
        <ele>3332.4</ele>
        <time>1970-01-01T05:53:37.000Z</time>
      </trkpt>
      <trkpt lat="42.631995" lon="0.656398">
        <ele>3332.3</ele>
        <time>1970-01-01T05:53:38.000Z</time>
      </trkpt>
      <trkpt lat="42.631999" lon="0.6564">
        <ele>3332.2</ele>
        <time>1970-01-01T05:53:39.000Z</time>
      </trkpt>
      <trkpt lat="42.632003" lon="0.656402">
        <ele>3332.1</ele>
        <time>1970-01-01T05:53:40.000Z</time>
      </trkpt>
      <trkpt lat="42.63201" lon="0.656401">
        <ele>3331.9</ele>
        <time>1970-01-01T05:53:42.000Z</time>
      </trkpt>
      <trkpt lat="42.632013" lon="0.656401">
        <ele>3331.8</ele>
        <time>1970-01-01T05:53:43.000Z</time>
      </trkpt>
      <trkpt lat="42.632017" lon="0.6564">
        <ele>3331.7</ele>
        <time>1970-01-01T05:53:44.000Z</time>
      </trkpt>
      <trkpt lat="42.632021" lon="0.656397">
        <ele>3331.6</ele>
        <time>1970-01-01T05:53:46.000Z</time>
      </trkpt>
      <trkpt lat="42.632024" lon="0.656397">
        <ele>3331.5</ele>
        <time>1970-01-01T05:53:47.000Z</time>
      </trkpt>
      <trkpt lat="42.632027" lon="0.656399">
        <ele>3331.5</ele>
        <time>1970-01-01T05:53:48.000Z</time>
      </trkpt>
      <trkpt lat="42.632028" lon="0.6564">
        <ele>3331.4</ele>
        <time>1970-01-01T05:53:49.000Z</time>
      </trkpt>
      <trkpt lat="42.632028" lon="0.656401">
        <ele>3331.4</ele>
        <time>1970-01-01T05:53:50.000Z</time>
      </trkpt>
      <trkpt lat="42.632027" lon="0.656402">
        <ele>3331.4</ele>
        <time>1970-01-01T05:53:51.000Z</time>
      </trkpt>
      <trkpt lat="42.632027" lon="0.656402">
        <ele>3331.4</ele>
        <time>1970-01-01T05:53:52.000Z</time>
      </trkpt>
      <trkpt lat="42.632027" lon="0.656402">
        <ele>3331.4</ele>
        <time>1970-01-01T05:53:53.000Z</time>
      </trkpt>
      <trkpt lat="42.632029" lon="0.656402">
        <ele>3331.3</ele>
        <time>1970-01-01T05:53:54.000Z</time>
      </trkpt>
      <trkpt lat="42.63203" lon="0.656403">
        <ele>3331.3</ele>
        <time>1970-01-01T05:53:55.000Z</time>
      </trkpt>
      <trkpt lat="42.632033" lon="0.656405">
        <ele>3331.2</ele>
        <time>1970-01-01T05:53:56.000Z</time>
      </trkpt>
      <trkpt lat="42.632035" lon="0.656407">
        <ele>3331.1</ele>
        <time>1970-01-01T05:53:57.000Z</time>
      </trkpt>
      <trkpt lat="42.63204" lon="0.656409">
        <ele>3331</ele>
        <time>1970-01-01T05:53:58.000Z</time>
      </trkpt>
      <trkpt lat="42.632044" lon="0.656412">
        <ele>3330.9</ele>
        <time>1970-01-01T05:53:59.000Z</time>
      </trkpt>
      <trkpt lat="42.632046" lon="0.656414">
        <ele>3330.8</ele>
        <time>1970-01-01T05:54:01.000Z</time>
      </trkpt>
      <trkpt lat="42.632049" lon="0.656418">
        <ele>3330.7</ele>
        <time>1970-01-01T05:54:02.000Z</time>
      </trkpt>
      <trkpt lat="42.632053" lon="0.656419">
        <ele>3330.6</ele>
        <time>1970-01-01T05:54:04.000Z</time>
      </trkpt>
      <trkpt lat="42.632058" lon="0.656423">
        <ele>3330.5</ele>
        <time>1970-01-01T05:54:05.000Z</time>
      </trkpt>
      <trkpt lat="42.632062" lon="0.656424">
        <ele>3330.4</ele>
        <time>1970-01-01T05:54:06.000Z</time>
      </trkpt>
      <trkpt lat="42.632067" lon="0.656424">
        <ele>3330.3</ele>
        <time>1970-01-01T05:54:08.000Z</time>
      </trkpt>
      <trkpt lat="42.632071" lon="0.656424">
        <ele>3330.2</ele>
        <time>1970-01-01T05:54:09.000Z</time>
      </trkpt>
      <trkpt lat="42.632075" lon="0.656425">
        <ele>3330.1</ele>
        <time>1970-01-01T05:54:10.000Z</time>
      </trkpt>
      <trkpt lat="42.632079" lon="0.656427">
        <ele>3330</ele>
        <time>1970-01-01T05:54:11.000Z</time>
      </trkpt>
      <trkpt lat="42.632083" lon="0.656429">
        <ele>3329.8</ele>
        <time>1970-01-01T05:54:12.000Z</time>
      </trkpt>
      <trkpt lat="42.632088" lon="0.656432">
        <ele>3329.7</ele>
        <time>1970-01-01T05:54:13.000Z</time>
      </trkpt>
      <trkpt lat="42.632094" lon="0.656435">
        <ele>3329.6</ele>
        <time>1970-01-01T05:54:14.000Z</time>
      </trkpt>
      <trkpt lat="42.632101" lon="0.656439">
        <ele>3329.4</ele>
        <time>1970-01-01T05:54:16.000Z</time>
      </trkpt>
      <trkpt lat="42.632106" lon="0.656442">
        <ele>3329.2</ele>
        <time>1970-01-01T05:54:17.000Z</time>
      </trkpt>
      <trkpt lat="42.632111" lon="0.656443">
        <ele>3329.1</ele>
        <time>1970-01-01T05:54:18.000Z</time>
      </trkpt>
      <trkpt lat="42.632115" lon="0.656445">
        <ele>3329</ele>
        <time>1970-01-01T05:54:19.000Z</time>
      </trkpt>
      <trkpt lat="42.632117" lon="0.656447">
        <ele>3328.9</ele>
        <time>1970-01-01T05:54:20.000Z</time>
      </trkpt>
      <trkpt lat="42.632121" lon="0.656453">
        <ele>3328.8</ele>
        <time>1970-01-01T05:54:21.000Z</time>
      </trkpt>
      <trkpt lat="42.632125" lon="0.656458">
        <ele>3328.6</ele>
        <time>1970-01-01T05:54:22.000Z</time>
      </trkpt>
      <trkpt lat="42.63213" lon="0.656465">
        <ele>3328.5</ele>
        <time>1970-01-01T05:54:24.000Z</time>
      </trkpt>
      <trkpt lat="42.632134" lon="0.656469">
        <ele>3328.3</ele>
        <time>1970-01-01T05:54:25.000Z</time>
      </trkpt>
      <trkpt lat="42.632137" lon="0.656473">
        <ele>3328.2</ele>
        <time>1970-01-01T05:54:26.000Z</time>
      </trkpt>
      <trkpt lat="42.632141" lon="0.656477">
        <ele>3328.1</ele>
        <time>1970-01-01T05:54:28.000Z</time>
      </trkpt>
      <trkpt lat="42.632146" lon="0.656482">
        <ele>3328</ele>
        <time>1970-01-01T05:54:29.000Z</time>
      </trkpt>
      <trkpt lat="42.632151" lon="0.656486">
        <ele>3327.8</ele>
        <time>1970-01-01T05:54:30.000Z</time>
      </trkpt>
      <trkpt lat="42.632157" lon="0.656491">
        <ele>3327.6</ele>
        <time>1970-01-01T05:54:31.000Z</time>
      </trkpt>
      <trkpt lat="42.632161" lon="0.656494">
        <ele>3327.5</ele>
        <time>1970-01-01T05:54:32.000Z</time>
      </trkpt>
      <trkpt lat="42.632166" lon="0.656496">
        <ele>3327.4</ele>
        <time>1970-01-01T05:54:34.000Z</time>
      </trkpt>
      <trkpt lat="42.632172" lon="0.656501">
        <ele>3327.2</ele>
        <time>1970-01-01T05:54:35.000Z</time>
      </trkpt>
      <trkpt lat="42.632176" lon="0.656505">
        <ele>3327.1</ele>
        <time>1970-01-01T05:54:36.000Z</time>
      </trkpt>
      <trkpt lat="42.632182" lon="0.65651">
        <ele>3326.9</ele>
        <time>1970-01-01T05:54:38.000Z</time>
      </trkpt>
      <trkpt lat="42.632191" lon="0.656517">
        <ele>3326.7</ele>
        <time>1970-01-01T05:54:40.000Z</time>
      </trkpt>
      <trkpt lat="42.632196" lon="0.656521">
        <ele>3326.5</ele>
        <time>1970-01-01T05:54:41.000Z</time>
      </trkpt>
      <trkpt lat="42.632201" lon="0.656523">
        <ele>3326.4</ele>
        <time>1970-01-01T05:54:42.000Z</time>
      </trkpt>
      <trkpt lat="42.632205" lon="0.656524">
        <ele>3326.3</ele>
        <time>1970-01-01T05:54:43.000Z</time>
      </trkpt>
      <trkpt lat="42.632211" lon="0.656527">
        <ele>3326.1</ele>
        <time>1970-01-01T05:54:44.000Z</time>
      </trkpt>
      <trkpt lat="42.632214" lon="0.656527">
        <ele>3326</ele>
        <time>1970-01-01T05:54:45.000Z</time>
      </trkpt>
      <trkpt lat="42.632217" lon="0.656525">
        <ele>3326</ele>
        <time>1970-01-01T05:54:46.000Z</time>
      </trkpt>
      <trkpt lat="42.63222" lon="0.656523">
        <ele>3325.9</ele>
        <time>1970-01-01T05:54:47.000Z</time>
      </trkpt>
      <trkpt lat="42.63222" lon="0.656518">
        <ele>3325.8</ele>
        <time>1970-01-01T05:54:49.000Z</time>
      </trkpt>
      <trkpt lat="42.632222" lon="0.656516">
        <ele>3325.7</ele>
        <time>1970-01-01T05:54:50.000Z</time>
      </trkpt>
      <trkpt lat="42.632226" lon="0.656514">
        <ele>3325.6</ele>
        <time>1970-01-01T05:54:51.000Z</time>
      </trkpt>
      <trkpt lat="42.632231" lon="0.656511">
        <ele>3325.5</ele>
        <time>1970-01-01T05:54:52.000Z</time>
      </trkpt>
      <trkpt lat="42.632237" lon="0.656508">
        <ele>3325.3</ele>
        <time>1970-01-01T05:54:54.000Z</time>
      </trkpt>
      <trkpt lat="42.632242" lon="0.656506">
        <ele>3325.2</ele>
        <time>1970-01-01T05:54:55.000Z</time>
      </trkpt>
      <trkpt lat="42.632247" lon="0.656505">
        <ele>3325.1</ele>
        <time>1970-01-01T05:54:56.000Z</time>
      </trkpt>
      <trkpt lat="42.632252" lon="0.656504">
        <ele>3324.9</ele>
        <time>1970-01-01T05:54:57.000Z</time>
      </trkpt>
      <trkpt lat="42.632255" lon="0.656502">
        <ele>3324.9</ele>
        <time>1970-01-01T05:54:58.000Z</time>
      </trkpt>
      <trkpt lat="42.632259" lon="0.6565">
        <ele>3324.7</ele>
        <time>1970-01-01T05:54:59.000Z</time>
      </trkpt>
      <trkpt lat="42.632264" lon="0.656498">
        <ele>3324.6</ele>
        <time>1970-01-01T05:55:00.000Z</time>
      </trkpt>
      <trkpt lat="42.632268" lon="0.656496">
        <ele>3324.5</ele>
        <time>1970-01-01T05:55:01.000Z</time>
      </trkpt>
      <trkpt lat="42.632272" lon="0.656494">
        <ele>3324.4</ele>
        <time>1970-01-01T05:55:02.000Z</time>
      </trkpt>
      <trkpt lat="42.632275" lon="0.656493">
        <ele>3324.3</ele>
        <time>1970-01-01T05:55:03.000Z</time>
      </trkpt>
      <trkpt lat="42.632277" lon="0.656492">
        <ele>3324.3</ele>
        <time>1970-01-01T05:55:04.000Z</time>
      </trkpt>
      <trkpt lat="42.632279" lon="0.656491">
        <ele>3324.2</ele>
        <time>1970-01-01T05:55:05.000Z</time>
      </trkpt>
      <trkpt lat="42.632282" lon="0.656489">
        <ele>3324.1</ele>
        <time>1970-01-01T05:55:06.000Z</time>
      </trkpt>
      <trkpt lat="42.632285" lon="0.656487">
        <ele>3324.1</ele>
        <time>1970-01-01T05:55:08.000Z</time>
      </trkpt>
      <trkpt lat="42.63229" lon="0.656483">
        <ele>3323.9</ele>
        <time>1970-01-01T05:55:09.000Z</time>
      </trkpt>
      <trkpt lat="42.632293" lon="0.656481">
        <ele>3323.8</ele>
        <time>1970-01-01T05:55:10.000Z</time>
      </trkpt>
      <trkpt lat="42.632298" lon="0.656478">
        <ele>3323.7</ele>
        <time>1970-01-01T05:55:11.000Z</time>
      </trkpt>
      <trkpt lat="42.632304" lon="0.656474">
        <ele>3323.5</ele>
        <time>1970-01-01T05:55:13.000Z</time>
      </trkpt>
      <trkpt lat="42.632311" lon="0.65647">
        <ele>3323.3</ele>
        <time>1970-01-01T05:55:14.000Z</time>
      </trkpt>
      <trkpt lat="42.632315" lon="0.656468">
        <ele>3323.2</ele>
        <time>1970-01-01T05:55:15.000Z</time>
      </trkpt>
      <trkpt lat="42.632318" lon="0.656466">
        <ele>3323.1</ele>
        <time>1970-01-01T05:55:16.000Z</time>
      </trkpt>
      <trkpt lat="42.632323" lon="0.656464">
        <ele>3323</ele>
        <time>1970-01-01T05:55:17.000Z</time>
      </trkpt>
      <trkpt lat="42.632327" lon="0.656461">
        <ele>3322.9</ele>
        <time>1970-01-01T05:55:18.000Z</time>
      </trkpt>
      <trkpt lat="42.632332" lon="0.656458">
        <ele>3322.8</ele>
        <time>1970-01-01T05:55:19.000Z</time>
      </trkpt>
      <trkpt lat="42.632338" lon="0.656454">
        <ele>3322.6</ele>
        <time>1970-01-01T05:55:20.000Z</time>
      </trkpt>
      <trkpt lat="42.632346" lon="0.656451">
        <ele>3322.4</ele>
        <time>1970-01-01T05:55:21.000Z</time>
      </trkpt>
      <trkpt lat="42.632354" lon="0.656449">
        <ele>3322.2</ele>
        <time>1970-01-01T05:55:22.000Z</time>
      </trkpt>
      <trkpt lat="42.632363" lon="0.656446">
        <ele>3322</ele>
        <time>1970-01-01T05:55:24.000Z</time>
      </trkpt>
      <trkpt lat="42.632371" lon="0.656442">
        <ele>3321.7</ele>
        <time>1970-01-01T05:55:25.000Z</time>
      </trkpt>
      <trkpt lat="42.632384" lon="0.656436">
        <ele>3321.4</ele>
        <time>1970-01-01T05:55:27.000Z</time>
      </trkpt>
      <trkpt lat="42.632388" lon="0.656434">
        <ele>3321.3</ele>
        <time>1970-01-01T05:55:28.000Z</time>
      </trkpt>
      <trkpt lat="42.632395" lon="0.656431">
        <ele>3321.1</ele>
        <time>1970-01-01T05:55:29.000Z</time>
      </trkpt>
      <trkpt lat="42.632402" lon="0.656427">
        <ele>3320.9</ele>
        <time>1970-01-01T05:55:30.000Z</time>
      </trkpt>
      <trkpt lat="42.632409" lon="0.656423">
        <ele>3320.7</ele>
        <time>1970-01-01T05:55:31.000Z</time>
      </trkpt>
      <trkpt lat="42.632414" lon="0.65642">
        <ele>3320.6</ele>
        <time>1970-01-01T05:55:32.000Z</time>
      </trkpt>
      <trkpt lat="42.632424" lon="0.656414">
        <ele>3320.3</ele>
        <time>1970-01-01T05:55:33.000Z</time>
      </trkpt>
      <trkpt lat="42.632433" lon="0.656407">
        <ele>3320.1</ele>
        <time>1970-01-01T05:55:35.000Z</time>
      </trkpt>
      <trkpt lat="42.63244" lon="0.656404">
        <ele>3319.9</ele>
        <time>1970-01-01T05:55:36.000Z</time>
      </trkpt>
      <trkpt lat="42.632446" lon="0.656401">
        <ele>3319.7</ele>
        <time>1970-01-01T05:55:37.000Z</time>
      </trkpt>
      <trkpt lat="42.632453" lon="0.656396">
        <ele>3319.5</ele>
        <time>1970-01-01T05:55:39.000Z</time>
      </trkpt>
      <trkpt lat="42.632458" lon="0.656394">
        <ele>3319.4</ele>
        <time>1970-01-01T05:55:40.000Z</time>
      </trkpt>
      <trkpt lat="42.632465" lon="0.656391">
        <ele>3319.2</ele>
        <time>1970-01-01T05:55:41.000Z</time>
      </trkpt>
      <trkpt lat="42.632472" lon="0.656387">
        <ele>3319</ele>
        <time>1970-01-01T05:55:42.000Z</time>
      </trkpt>
      <trkpt lat="42.63248" lon="0.656379">
        <ele>3318.8</ele>
        <time>1970-01-01T05:55:43.000Z</time>
      </trkpt>
      <trkpt lat="42.632486" lon="0.656372">
        <ele>3318.6</ele>
        <time>1970-01-01T05:55:44.000Z</time>
      </trkpt>
      <trkpt lat="42.632493" lon="0.65636">
        <ele>3318.3</ele>
        <time>1970-01-01T05:55:46.000Z</time>
      </trkpt>
      <trkpt lat="42.632498" lon="0.656351">
        <ele>3318.1</ele>
        <time>1970-01-01T05:55:47.000Z</time>
      </trkpt>
      <trkpt lat="42.632504" lon="0.656343">
        <ele>3317.9</ele>
        <time>1970-01-01T05:55:48.000Z</time>
      </trkpt>
      <trkpt lat="42.632512" lon="0.656334">
        <ele>3317.6</ele>
        <time>1970-01-01T05:55:49.000Z</time>
      </trkpt>
      <trkpt lat="42.632518" lon="0.656324">
        <ele>3317.4</ele>
        <time>1970-01-01T05:55:50.000Z</time>
      </trkpt>
      <trkpt lat="42.632521" lon="0.656317">
        <ele>3317.2</ele>
        <time>1970-01-01T05:55:51.000Z</time>
      </trkpt>
      <trkpt lat="42.632526" lon="0.656307">
        <ele>3317</ele>
        <time>1970-01-01T05:55:52.000Z</time>
      </trkpt>
      <trkpt lat="42.632531" lon="0.656296">
        <ele>3316.8</ele>
        <time>1970-01-01T05:55:53.000Z</time>
      </trkpt>
      <trkpt lat="42.632535" lon="0.656287">
        <ele>3316.6</ele>
        <time>1970-01-01T05:55:54.000Z</time>
      </trkpt>
      <trkpt lat="42.632539" lon="0.656282">
        <ele>3316.4</ele>
        <time>1970-01-01T05:55:55.000Z</time>
      </trkpt>
      <trkpt lat="42.632545" lon="0.656275">
        <ele>3316.2</ele>
        <time>1970-01-01T05:55:56.000Z</time>
      </trkpt>
      <trkpt lat="42.63255" lon="0.656269">
        <ele>3316.1</ele>
        <time>1970-01-01T05:55:57.000Z</time>
      </trkpt>
      <trkpt lat="42.632557" lon="0.656266">
        <ele>3315.9</ele>
        <time>1970-01-01T05:55:58.000Z</time>
      </trkpt>
      <trkpt lat="42.632563" lon="0.656261">
        <ele>3315.7</ele>
        <time>1970-01-01T05:55:59.000Z</time>
      </trkpt>
      <trkpt lat="42.63257" lon="0.656254">
        <ele>3315.5</ele>
        <time>1970-01-01T05:56:00.000Z</time>
      </trkpt>
      <trkpt lat="42.632577" lon="0.656249">
        <ele>3315.3</ele>
        <time>1970-01-01T05:56:01.000Z</time>
      </trkpt>
      <trkpt lat="42.632583" lon="0.656245">
        <ele>3315.1</ele>
        <time>1970-01-01T05:56:03.000Z</time>
      </trkpt>
      <trkpt lat="42.632587" lon="0.656243">
        <ele>3315</ele>
        <time>1970-01-01T05:56:04.000Z</time>
      </trkpt>
      <trkpt lat="42.632594" lon="0.656237">
        <ele>3314.8</ele>
        <time>1970-01-01T05:56:05.000Z</time>
      </trkpt>
      <trkpt lat="42.632602" lon="0.656231">
        <ele>3314.6</ele>
        <time>1970-01-01T05:56:06.000Z</time>
      </trkpt>
      <trkpt lat="42.632609" lon="0.656224">
        <ele>3314.4</ele>
        <time>1970-01-01T05:56:07.000Z</time>
      </trkpt>
      <trkpt lat="42.632617" lon="0.656216">
        <ele>3314.1</ele>
        <time>1970-01-01T05:56:08.000Z</time>
      </trkpt>
      <trkpt lat="42.632624" lon="0.656208">
        <ele>3313.9</ele>
        <time>1970-01-01T05:56:09.000Z</time>
      </trkpt>
      <trkpt lat="42.632637" lon="0.656194">
        <ele>3313.5</ele>
        <time>1970-01-01T05:56:11.000Z</time>
      </trkpt>
      <trkpt lat="42.632643" lon="0.656189">
        <ele>3313.3</ele>
        <time>1970-01-01T05:56:12.000Z</time>
      </trkpt>
      <trkpt lat="42.632648" lon="0.656183">
        <ele>3313.1</ele>
        <time>1970-01-01T05:56:13.000Z</time>
      </trkpt>
      <trkpt lat="42.632653" lon="0.656177">
        <ele>3313</ele>
        <time>1970-01-01T05:56:14.000Z</time>
      </trkpt>
      <trkpt lat="42.632659" lon="0.656169">
        <ele>3312.8</ele>
        <time>1970-01-01T05:56:15.000Z</time>
      </trkpt>
      <trkpt lat="42.632666" lon="0.656159">
        <ele>3312.5</ele>
        <time>1970-01-01T05:56:17.000Z</time>
      </trkpt>
      <trkpt lat="42.632672" lon="0.656149">
        <ele>3312.3</ele>
        <time>1970-01-01T05:56:18.000Z</time>
      </trkpt>
      <trkpt lat="42.632676" lon="0.65614">
        <ele>3312.1</ele>
        <time>1970-01-01T05:56:19.000Z</time>
      </trkpt>
      <trkpt lat="42.63268" lon="0.656131">
        <ele>3311.9</ele>
        <time>1970-01-01T05:56:20.000Z</time>
      </trkpt>
      <trkpt lat="42.632685" lon="0.656123">
        <ele>3311.7</ele>
        <time>1970-01-01T05:56:21.000Z</time>
      </trkpt>
      <trkpt lat="42.632691" lon="0.656115">
        <ele>3311.5</ele>
        <time>1970-01-01T05:56:22.000Z</time>
      </trkpt>
      <trkpt lat="42.632695" lon="0.656105">
        <ele>3311.3</ele>
        <time>1970-01-01T05:56:24.000Z</time>
      </trkpt>
      <trkpt lat="42.632695" lon="0.656095">
        <ele>3311.1</ele>
        <time>1970-01-01T05:56:25.000Z</time>
      </trkpt>
      <trkpt lat="42.632693" lon="0.656085">
        <ele>3310.9</ele>
        <time>1970-01-01T05:56:26.000Z</time>
      </trkpt>
      <trkpt lat="42.632691" lon="0.656075">
        <ele>3310.7</ele>
        <time>1970-01-01T05:56:27.000Z</time>
      </trkpt>
      <trkpt lat="42.632689" lon="0.656066">
        <ele>3310.5</ele>
        <time>1970-01-01T05:56:28.000Z</time>
      </trkpt>
      <trkpt lat="42.632686" lon="0.656058">
        <ele>3310.4</ele>
        <time>1970-01-01T05:56:30.000Z</time>
      </trkpt>
      <trkpt lat="42.632684" lon="0.656051">
        <ele>3310.2</ele>
        <time>1970-01-01T05:56:31.000Z</time>
      </trkpt>
      <trkpt lat="42.632684" lon="0.656048">
        <ele>3310.2</ele>
        <time>1970-01-01T05:56:32.000Z</time>
      </trkpt>
      <trkpt lat="42.632684" lon="0.656047">
        <ele>3310.2</ele>
        <time>1970-01-01T05:56:34.000Z</time>
      </trkpt>
      <trkpt lat="42.632684" lon="0.656045">
        <ele>3310.1</ele>
        <time>1970-01-01T05:56:35.000Z</time>
      </trkpt>
      <trkpt lat="42.632685" lon="0.656043">
        <ele>3310.1</ele>
        <time>1970-01-01T05:56:36.000Z</time>
      </trkpt>
      <trkpt lat="42.632685" lon="0.656043">
        <ele>3310.1</ele>
        <time>1970-01-01T05:56:37.000Z</time>
      </trkpt>
      <trkpt lat="42.632684" lon="0.656044">
        <ele>3310</ele>
        <time>1970-01-01T05:56:38.000Z</time>
      </trkpt>
      <trkpt lat="42.632684" lon="0.656045">
        <ele>3310</ele>
        <time>1970-01-01T05:56:39.000Z</time>
      </trkpt>
      <trkpt lat="42.632685" lon="0.656042">
        <ele>3310</ele>
        <time>1970-01-01T05:56:40.000Z</time>
      </trkpt>
      <trkpt lat="42.632686" lon="0.656038">
        <ele>3309.9</ele>
        <time>1970-01-01T05:56:41.000Z</time>
      </trkpt>
      <trkpt lat="42.632687" lon="0.656031">
        <ele>3309.8</ele>
        <time>1970-01-01T05:56:42.000Z</time>
      </trkpt>
      <trkpt lat="42.632688" lon="0.656022">
        <ele>3309.6</ele>
        <time>1970-01-01T05:56:43.000Z</time>
      </trkpt>
      <trkpt lat="42.63269" lon="0.656011">
        <ele>3309.4</ele>
        <time>1970-01-01T05:56:44.000Z</time>
      </trkpt>
      <trkpt lat="42.632692" lon="0.655997">
        <ele>3309.1</ele>
        <time>1970-01-01T05:56:45.000Z</time>
      </trkpt>
      <trkpt lat="42.632694" lon="0.655985">
        <ele>3308.9</ele>
        <time>1970-01-01T05:56:47.000Z</time>
      </trkpt>
      <trkpt lat="42.632694" lon="0.65597">
        <ele>3308.6</ele>
        <time>1970-01-01T05:56:48.000Z</time>
      </trkpt>
      <trkpt lat="42.632686" lon="0.655957">
        <ele>3308.3</ele>
        <time>1970-01-01T05:56:50.000Z</time>
      </trkpt>
      <trkpt lat="42.632686" lon="0.655949">
        <ele>3308.2</ele>
        <time>1970-01-01T05:56:51.000Z</time>
      </trkpt>
      <trkpt lat="42.632687" lon="0.655939">
        <ele>3308</ele>
        <time>1970-01-01T05:56:52.000Z</time>
      </trkpt>
      <trkpt lat="42.632691" lon="0.655929">
        <ele>3307.8</ele>
        <time>1970-01-01T05:56:53.000Z</time>
      </trkpt>
      <trkpt lat="42.632695" lon="0.655925">
        <ele>3307.6</ele>
        <time>1970-01-01T05:56:54.000Z</time>
      </trkpt>
      <trkpt lat="42.632704" lon="0.655923">
        <ele>3307.4</ele>
        <time>1970-01-01T05:56:55.000Z</time>
      </trkpt>
      <trkpt lat="42.632713" lon="0.655924">
        <ele>3307.2</ele>
        <time>1970-01-01T05:56:56.000Z</time>
      </trkpt>
      <trkpt lat="42.632723" lon="0.655928">
        <ele>3306.9</ele>
        <time>1970-01-01T05:56:57.000Z</time>
      </trkpt>
      <trkpt lat="42.632734" lon="0.655935">
        <ele>3306.6</ele>
        <time>1970-01-01T05:56:59.000Z</time>
      </trkpt>
      <trkpt lat="42.632744" lon="0.655943">
        <ele>3306.3</ele>
        <time>1970-01-01T05:57:00.000Z</time>
      </trkpt>
      <trkpt lat="42.632755" lon="0.65595">
        <ele>3306</ele>
        <time>1970-01-01T05:57:01.000Z</time>
      </trkpt>
      <trkpt lat="42.632764" lon="0.655952">
        <ele>3305.8</ele>
        <time>1970-01-01T05:57:02.000Z</time>
      </trkpt>
      <trkpt lat="42.632775" lon="0.655953">
        <ele>3305.5</ele>
        <time>1970-01-01T05:57:04.000Z</time>
      </trkpt>
      <trkpt lat="42.632783" lon="0.655954">
        <ele>3305.3</ele>
        <time>1970-01-01T05:57:05.000Z</time>
      </trkpt>
      <trkpt lat="42.632793" lon="0.655952">
        <ele>3305.1</ele>
        <time>1970-01-01T05:57:06.000Z</time>
      </trkpt>
      <trkpt lat="42.632803" lon="0.65595">
        <ele>3304.8</ele>
        <time>1970-01-01T05:57:07.000Z</time>
      </trkpt>
      <trkpt lat="42.632811" lon="0.65595">
        <ele>3304.6</ele>
        <time>1970-01-01T05:57:08.000Z</time>
      </trkpt>
      <trkpt lat="42.63282" lon="0.65595">
        <ele>3304.4</ele>
        <time>1970-01-01T05:57:09.000Z</time>
      </trkpt>
      <trkpt lat="42.632837" lon="0.655948">
        <ele>3304</ele>
        <time>1970-01-01T05:57:11.000Z</time>
      </trkpt>
      <trkpt lat="42.632843" lon="0.655945">
        <ele>3303.8</ele>
        <time>1970-01-01T05:57:12.000Z</time>
      </trkpt>
      <trkpt lat="42.632849" lon="0.655943">
        <ele>3303.6</ele>
        <time>1970-01-01T05:57:13.000Z</time>
      </trkpt>
      <trkpt lat="42.632855" lon="0.65594">
        <ele>3303.5</ele>
        <time>1970-01-01T05:57:14.000Z</time>
      </trkpt>
      <trkpt lat="42.632868" lon="0.655925">
        <ele>3303.1</ele>
        <time>1970-01-01T05:57:15.000Z</time>
      </trkpt>
      <trkpt lat="42.632872" lon="0.655918">
        <ele>3302.9</ele>
        <time>1970-01-01T05:57:16.000Z</time>
      </trkpt>
      <trkpt lat="42.632876" lon="0.655911">
        <ele>3302.7</ele>
        <time>1970-01-01T05:57:17.000Z</time>
      </trkpt>
      <trkpt lat="42.632881" lon="0.655903">
        <ele>3302.5</ele>
        <time>1970-01-01T05:57:18.000Z</time>
      </trkpt>
      <trkpt lat="42.632888" lon="0.655886">
        <ele>3302.2</ele>
        <time>1970-01-01T05:57:19.000Z</time>
      </trkpt>
      <trkpt lat="42.632895" lon="0.655876">
        <ele>3301.9</ele>
        <time>1970-01-01T05:57:20.000Z</time>
      </trkpt>
      <trkpt lat="42.632903" lon="0.655868">
        <ele>3301.7</ele>
        <time>1970-01-01T05:57:21.000Z</time>
      </trkpt>
      <trkpt lat="42.632913" lon="0.65586">
        <ele>3301.4</ele>
        <time>1970-01-01T05:57:23.000Z</time>
      </trkpt>
      <trkpt lat="42.632921" lon="0.655856">
        <ele>3301.2</ele>
        <time>1970-01-01T05:57:24.000Z</time>
      </trkpt>
      <trkpt lat="42.632933" lon="0.655848">
        <ele>3300.8</ele>
        <time>1970-01-01T05:57:25.000Z</time>
      </trkpt>
      <trkpt lat="42.632942" lon="0.655842">
        <ele>3300.6</ele>
        <time>1970-01-01T05:57:27.000Z</time>
      </trkpt>
      <trkpt lat="42.632949" lon="0.655837">
        <ele>3300.4</ele>
        <time>1970-01-01T05:57:28.000Z</time>
      </trkpt>
      <trkpt lat="42.632956" lon="0.655832">
        <ele>3300.2</ele>
        <time>1970-01-01T05:57:29.000Z</time>
      </trkpt>
      <trkpt lat="42.632963" lon="0.655827">
        <ele>3300</ele>
        <time>1970-01-01T05:57:30.000Z</time>
      </trkpt>
      <trkpt lat="42.63297" lon="0.655821">
        <ele>3299.8</ele>
        <time>1970-01-01T05:57:31.000Z</time>
      </trkpt>
      <trkpt lat="42.632978" lon="0.655815">
        <ele>3299.6</ele>
        <time>1970-01-01T05:57:32.000Z</time>
      </trkpt>
      <trkpt lat="42.632985" lon="0.655809">
        <ele>3299.4</ele>
        <time>1970-01-01T05:57:34.000Z</time>
      </trkpt>
      <trkpt lat="42.63299" lon="0.655805">
        <ele>3299.2</ele>
        <time>1970-01-01T05:57:35.000Z</time>
      </trkpt>
      <trkpt lat="42.632991" lon="0.655803">
        <ele>3299.2</ele>
        <time>1970-01-01T05:57:36.000Z</time>
      </trkpt>
      <trkpt lat="42.632992" lon="0.655803">
        <ele>3299.1</ele>
        <time>1970-01-01T05:57:37.000Z</time>
      </trkpt>
      <trkpt lat="42.63299" lon="0.655804">
        <ele>3299.1</ele>
        <time>1970-01-01T05:57:38.000Z</time>
      </trkpt>
      <trkpt lat="42.632988" lon="0.655806">
        <ele>3299</ele>
        <time>1970-01-01T05:57:39.000Z</time>
      </trkpt>
      <trkpt lat="42.632987" lon="0.655808">
        <ele>3299</ele>
        <time>1970-01-01T05:57:40.000Z</time>
      </trkpt>
      <trkpt lat="42.632987" lon="0.655809">
        <ele>3299</ele>
        <time>1970-01-01T05:57:41.000Z</time>
      </trkpt>
      <trkpt lat="42.632988" lon="0.65581">
        <ele>3298.9</ele>
        <time>1970-01-01T05:57:42.000Z</time>
      </trkpt>
      <trkpt lat="42.632988" lon="0.655809">
        <ele>3298.9</ele>
        <time>1970-01-01T05:57:43.000Z</time>
      </trkpt>
      <trkpt lat="42.632988" lon="0.655809">
        <ele>3298.9</ele>
        <time>1970-01-01T05:57:44.000Z</time>
      </trkpt>
      <trkpt lat="42.632988" lon="0.655809">
        <ele>3298.9</ele>
        <time>1970-01-01T05:57:45.000Z</time>
      </trkpt>
      <trkpt lat="42.632987" lon="0.655808">
        <ele>3298.9</ele>
        <time>1970-01-01T05:57:46.000Z</time>
      </trkpt>
      <trkpt lat="42.632987" lon="0.655808">
        <ele>3298.9</ele>
        <time>1970-01-01T05:57:47.000Z</time>
      </trkpt>
      <trkpt lat="42.632987" lon="0.655808">
        <ele>3298.9</ele>
        <time>1970-01-01T05:57:48.000Z</time>
      </trkpt>
      <trkpt lat="42.632987" lon="0.655808">
        <ele>3298.9</ele>
        <time>1970-01-01T05:57:49.000Z</time>
      </trkpt>
      <trkpt lat="42.632988" lon="0.655809">
        <ele>3298.9</ele>
        <time>1970-01-01T05:57:50.000Z</time>
      </trkpt>
      <trkpt lat="42.632988" lon="0.655809">
        <ele>3298.9</ele>
        <time>1970-01-01T05:57:51.000Z</time>
      </trkpt>
      <trkpt lat="42.632988" lon="0.65581">
        <ele>3298.8</ele>
        <time>1970-01-01T05:57:52.000Z</time>
      </trkpt>
      <trkpt lat="42.632988" lon="0.65581">
        <ele>3298.8</ele>
        <time>1970-01-01T05:57:53.000Z</time>
      </trkpt>
      <trkpt lat="42.632987" lon="0.65581">
        <ele>3298.8</ele>
        <time>1970-01-01T05:57:54.000Z</time>
      </trkpt>
      <trkpt lat="42.632987" lon="0.65581">
        <ele>3298.8</ele>
        <time>1970-01-01T05:57:55.000Z</time>
      </trkpt>
      <trkpt lat="42.632986" lon="0.655809">
        <ele>3298.8</ele>
        <time>1970-01-01T05:57:56.000Z</time>
      </trkpt>
      <trkpt lat="42.632984" lon="0.655813">
        <ele>3298.7</ele>
        <time>1970-01-01T05:57:57.000Z</time>
      </trkpt>
      <trkpt lat="42.632983" lon="0.655815">
        <ele>3298.6</ele>
        <time>1970-01-01T05:57:58.000Z</time>
      </trkpt>
      <trkpt lat="42.632983" lon="0.655814">
        <ele>3298.6</ele>
        <time>1970-01-01T05:57:59.000Z</time>
      </trkpt>
      <trkpt lat="42.632984" lon="0.655809">
        <ele>3298.5</ele>
        <time>1970-01-01T05:58:00.000Z</time>
      </trkpt>
      <trkpt lat="42.632989" lon="0.655807">
        <ele>3298.4</ele>
        <time>1970-01-01T05:58:01.000Z</time>
      </trkpt>
      <trkpt lat="42.632992" lon="0.655804">
        <ele>3298.3</ele>
        <time>1970-01-01T05:58:02.000Z</time>
      </trkpt>
      <trkpt lat="42.632997" lon="0.655797">
        <ele>3298.1</ele>
        <time>1970-01-01T05:58:03.000Z</time>
      </trkpt>
      <trkpt lat="42.633001" lon="0.655791">
        <ele>3298</ele>
        <time>1970-01-01T05:58:05.000Z</time>
      </trkpt>
      <trkpt lat="42.633005" lon="0.655785">
        <ele>3297.8</ele>
        <time>1970-01-01T05:58:06.000Z</time>
      </trkpt>
      <trkpt lat="42.633009" lon="0.655777">
        <ele>3297.7</ele>
        <time>1970-01-01T05:58:07.000Z</time>
      </trkpt>
      <trkpt lat="42.633012" lon="0.655771">
        <ele>3297.5</ele>
        <time>1970-01-01T05:58:08.000Z</time>
      </trkpt>
      <trkpt lat="42.633012" lon="0.655766">
        <ele>3297.4</ele>
        <time>1970-01-01T05:58:09.000Z</time>
      </trkpt>
      <trkpt lat="42.633013" lon="0.655763">
        <ele>3297.4</ele>
        <time>1970-01-01T05:58:10.000Z</time>
      </trkpt>
      <trkpt lat="42.633012" lon="0.655761">
        <ele>3297.3</ele>
        <time>1970-01-01T05:58:11.000Z</time>
      </trkpt>
      <trkpt lat="42.633012" lon="0.65576">
        <ele>3297.3</ele>
        <time>1970-01-01T05:58:12.000Z</time>
      </trkpt>
      <trkpt lat="42.633012" lon="0.655757">
        <ele>3297.3</ele>
        <time>1970-01-01T05:58:13.000Z</time>
      </trkpt>
      <trkpt lat="42.633012" lon="0.655755">
        <ele>3297.2</ele>
        <time>1970-01-01T05:58:14.000Z</time>
      </trkpt>
      <trkpt lat="42.633012" lon="0.655754">
        <ele>3297.2</ele>
        <time>1970-01-01T05:58:15.000Z</time>
      </trkpt>
      <trkpt lat="42.633011" lon="0.655753">
        <ele>3297.2</ele>
        <time>1970-01-01T05:58:16.000Z</time>
      </trkpt>
      <trkpt lat="42.63301" lon="0.655753">
        <ele>3297.1</ele>
        <time>1970-01-01T05:58:17.000Z</time>
      </trkpt>
      <trkpt lat="42.633009" lon="0.655753">
        <ele>3297.1</ele>
        <time>1970-01-01T05:58:18.000Z</time>
      </trkpt>
      <trkpt lat="42.633009" lon="0.655753">
        <ele>3297.1</ele>
        <time>1970-01-01T05:58:19.000Z</time>
      </trkpt>
      <trkpt lat="42.633009" lon="0.65575">
        <ele>3297.1</ele>
        <time>1970-01-01T05:58:21.000Z</time>
      </trkpt>
      <trkpt lat="42.633009" lon="0.655747">
        <ele>3297</ele>
        <time>1970-01-01T05:58:22.000Z</time>
      </trkpt>
      <trkpt lat="42.633009" lon="0.655746">
        <ele>3297</ele>
        <time>1970-01-01T05:58:23.000Z</time>
      </trkpt>
      <trkpt lat="42.633009" lon="0.655745">
        <ele>3297</ele>
        <time>1970-01-01T05:58:24.000Z</time>
      </trkpt>
      <trkpt lat="42.63301" lon="0.655742">
        <ele>3296.9</ele>
        <time>1970-01-01T05:58:25.000Z</time>
      </trkpt>
      <trkpt lat="42.63301" lon="0.655739">
        <ele>3296.9</ele>
        <time>1970-01-01T05:58:26.000Z</time>
      </trkpt>
      <trkpt lat="42.633012" lon="0.655734">
        <ele>3296.7</ele>
        <time>1970-01-01T05:58:27.000Z</time>
      </trkpt>
      <trkpt lat="42.633014" lon="0.655732">
        <ele>3296.7</ele>
        <time>1970-01-01T05:58:28.000Z</time>
      </trkpt>
      <trkpt lat="42.633016" lon="0.655732">
        <ele>3296.6</ele>
        <time>1970-01-01T05:58:29.000Z</time>
      </trkpt>
      <trkpt lat="42.633018" lon="0.655733">
        <ele>3296.6</ele>
        <time>1970-01-01T05:58:30.000Z</time>
      </trkpt>
      <trkpt lat="42.633022" lon="0.655729">
        <ele>3296.5</ele>
        <time>1970-01-01T05:58:32.000Z</time>
      </trkpt>
      <trkpt lat="42.633024" lon="0.655725">
        <ele>3296.4</ele>
        <time>1970-01-01T05:58:33.000Z</time>
      </trkpt>
      <trkpt lat="42.633025" lon="0.655721">
        <ele>3296.3</ele>
        <time>1970-01-01T05:58:34.000Z</time>
      </trkpt>
      <trkpt lat="42.633026" lon="0.655717">
        <ele>3296.2</ele>
        <time>1970-01-01T05:58:36.000Z</time>
      </trkpt>
      <trkpt lat="42.633026" lon="0.655712">
        <ele>3296.1</ele>
        <time>1970-01-01T05:58:37.000Z</time>
      </trkpt>
      <trkpt lat="42.633024" lon="0.655706">
        <ele>3296</ele>
        <time>1970-01-01T05:58:39.000Z</time>
      </trkpt>
      <trkpt lat="42.633023" lon="0.655702">
        <ele>3295.9</ele>
        <time>1970-01-01T05:58:40.000Z</time>
      </trkpt>
      <trkpt lat="42.633023" lon="0.655701">
        <ele>3295.9</ele>
        <time>1970-01-01T05:58:41.000Z</time>
      </trkpt>
      <trkpt lat="42.633023" lon="0.6557">
        <ele>3295.9</ele>
        <time>1970-01-01T05:58:42.000Z</time>
      </trkpt>
      <trkpt lat="42.633022" lon="0.655698">
        <ele>3295.8</ele>
        <time>1970-01-01T05:58:43.000Z</time>
      </trkpt>
      <trkpt lat="42.633021" lon="0.655696">
        <ele>3295.8</ele>
        <time>1970-01-01T05:58:44.000Z</time>
      </trkpt>
      <trkpt lat="42.633019" lon="0.655695">
        <ele>3295.7</ele>
        <time>1970-01-01T05:58:45.000Z</time>
      </trkpt>
      <trkpt lat="42.633018" lon="0.655692">
        <ele>3295.7</ele>
        <time>1970-01-01T05:58:47.000Z</time>
      </trkpt>
      <trkpt lat="42.633018" lon="0.65569">
        <ele>3295.6</ele>
        <time>1970-01-01T05:58:48.000Z</time>
      </trkpt>
      <trkpt lat="42.633018" lon="0.655685">
        <ele>3295.6</ele>
        <time>1970-01-01T05:58:50.000Z</time>
      </trkpt>
      <trkpt lat="42.633018" lon="0.65568">
        <ele>3295.5</ele>
        <time>1970-01-01T05:58:51.000Z</time>
      </trkpt>
      <trkpt lat="42.633019" lon="0.655678">
        <ele>3295.4</ele>
        <time>1970-01-01T05:58:52.000Z</time>
      </trkpt>
      <trkpt lat="42.63302" lon="0.655677">
        <ele>3295.4</ele>
        <time>1970-01-01T05:58:53.000Z</time>
      </trkpt>
      <trkpt lat="42.633021" lon="0.655676">
        <ele>3295.4</ele>
        <time>1970-01-01T05:58:54.000Z</time>
      </trkpt>
      <trkpt lat="42.633022" lon="0.655675">
        <ele>3295.3</ele>
        <time>1970-01-01T05:58:55.000Z</time>
      </trkpt>
      <trkpt lat="42.633023" lon="0.655674">
        <ele>3295.3</ele>
        <time>1970-01-01T05:58:56.000Z</time>
      </trkpt>
      <trkpt lat="42.633024" lon="0.655673">
        <ele>3295.3</ele>
        <time>1970-01-01T05:58:57.000Z</time>
      </trkpt>
      <trkpt lat="42.633025" lon="0.655671">
        <ele>3295.2</ele>
        <time>1970-01-01T05:58:58.000Z</time>
      </trkpt>
      <trkpt lat="42.633025" lon="0.655669">
        <ele>3295.2</ele>
        <time>1970-01-01T05:58:59.000Z</time>
      </trkpt>
      <trkpt lat="42.633026" lon="0.655668">
        <ele>3295.2</ele>
        <time>1970-01-01T05:59:00.000Z</time>
      </trkpt>
      <trkpt lat="42.633027" lon="0.655668">
        <ele>3295.1</ele>
        <time>1970-01-01T05:59:01.000Z</time>
      </trkpt>
      <trkpt lat="42.633027" lon="0.655667">
        <ele>3295.1</ele>
        <time>1970-01-01T05:59:02.000Z</time>
      </trkpt>
      <trkpt lat="42.633028" lon="0.655667">
        <ele>3295.1</ele>
        <time>1970-01-01T05:59:03.000Z</time>
      </trkpt>
      <trkpt lat="42.633029" lon="0.655666">
        <ele>3295.1</ele>
        <time>1970-01-01T05:59:04.000Z</time>
      </trkpt>
      <trkpt lat="42.63303" lon="0.655666">
        <ele>3295</ele>
        <time>1970-01-01T05:59:05.000Z</time>
      </trkpt>
      <trkpt lat="42.633031" lon="0.655666">
        <ele>3295</ele>
        <time>1970-01-01T05:59:06.000Z</time>
      </trkpt>
      <trkpt lat="42.633037" lon="0.655668">
        <ele>3294.8</ele>
        <time>1970-01-01T05:59:08.000Z</time>
      </trkpt>
      <trkpt lat="42.633039" lon="0.655667">
        <ele>3294.8</ele>
        <time>1970-01-01T05:59:09.000Z</time>
      </trkpt>
      <trkpt lat="42.633043" lon="0.655663">
        <ele>3294.7</ele>
        <time>1970-01-01T05:59:10.000Z</time>
      </trkpt>
      <trkpt lat="42.633054" lon="0.655653">
        <ele>3294.3</ele>
        <time>1970-01-01T05:59:11.000Z</time>
      </trkpt>
      <trkpt lat="42.633067" lon="0.655643">
        <ele>3294</ele>
        <time>1970-01-01T05:59:12.000Z</time>
      </trkpt>
      <trkpt lat="42.633071" lon="0.655638">
        <ele>3293.8</ele>
        <time>1970-01-01T05:59:13.000Z</time>
      </trkpt>
      <trkpt lat="42.633071" lon="0.655636">
        <ele>3293.8</ele>
        <time>1970-01-01T05:59:14.000Z</time>
      </trkpt>
      <trkpt lat="42.633068" lon="0.655634">
        <ele>3293.7</ele>
        <time>1970-01-01T05:59:15.000Z</time>
      </trkpt>
      <trkpt lat="42.633068" lon="0.655633">
        <ele>3293.7</ele>
        <time>1970-01-01T05:59:16.000Z</time>
      </trkpt>
      <trkpt lat="42.633068" lon="0.655631">
        <ele>3293.7</ele>
        <time>1970-01-01T05:59:17.000Z</time>
      </trkpt>
      <trkpt lat="42.633068" lon="0.655629">
        <ele>3293.6</ele>
        <time>1970-01-01T05:59:18.000Z</time>
      </trkpt>
      <trkpt lat="42.633068" lon="0.655626">
        <ele>3293.6</ele>
        <time>1970-01-01T05:59:19.000Z</time>
      </trkpt>
      <trkpt lat="42.633069" lon="0.65562">
        <ele>3293.4</ele>
        <time>1970-01-01T05:59:20.000Z</time>
      </trkpt>
      <trkpt lat="42.633068" lon="0.655616">
        <ele>3293.4</ele>
        <time>1970-01-01T05:59:21.000Z</time>
      </trkpt>
      <trkpt lat="42.633067" lon="0.655612">
        <ele>3293.3</ele>
        <time>1970-01-01T05:59:22.000Z</time>
      </trkpt>
      <trkpt lat="42.633066" lon="0.655604">
        <ele>3293.1</ele>
        <time>1970-01-01T05:59:23.000Z</time>
      </trkpt>
      <trkpt lat="42.633066" lon="0.655593">
        <ele>3292.9</ele>
        <time>1970-01-01T05:59:25.000Z</time>
      </trkpt>
      <trkpt lat="42.633066" lon="0.655584">
        <ele>3292.8</ele>
        <time>1970-01-01T05:59:26.000Z</time>
      </trkpt>
      <trkpt lat="42.633065" lon="0.655576">
        <ele>3292.6</ele>
        <time>1970-01-01T05:59:27.000Z</time>
      </trkpt>
      <trkpt lat="42.633064" lon="0.655568">
        <ele>3292.5</ele>
        <time>1970-01-01T05:59:28.000Z</time>
      </trkpt>
      <trkpt lat="42.633062" lon="0.655559">
        <ele>3292.3</ele>
        <time>1970-01-01T05:59:29.000Z</time>
      </trkpt>
      <trkpt lat="42.63306" lon="0.65555">
        <ele>3292.1</ele>
        <time>1970-01-01T05:59:30.000Z</time>
      </trkpt>
      <trkpt lat="42.633057" lon="0.655539">
        <ele>3291.9</ele>
        <time>1970-01-01T05:59:31.000Z</time>
      </trkpt>
      <trkpt lat="42.633054" lon="0.655529">
        <ele>3291.7</ele>
        <time>1970-01-01T05:59:32.000Z</time>
      </trkpt>
      <trkpt lat="42.633052" lon="0.655519">
        <ele>3291.5</ele>
        <time>1970-01-01T05:59:34.000Z</time>
      </trkpt>
      <trkpt lat="42.633051" lon="0.655509">
        <ele>3291.3</ele>
        <time>1970-01-01T05:59:35.000Z</time>
      </trkpt>
      <trkpt lat="42.633049" lon="0.6555">
        <ele>3291.2</ele>
        <time>1970-01-01T05:59:36.000Z</time>
      </trkpt>
      <trkpt lat="42.633048" lon="0.655491">
        <ele>3291</ele>
        <time>1970-01-01T05:59:38.000Z</time>
      </trkpt>
      <trkpt lat="42.633049" lon="0.655481">
        <ele>3290.8</ele>
        <time>1970-01-01T05:59:39.000Z</time>
      </trkpt>
      <trkpt lat="42.633055" lon="0.655475">
        <ele>3290.6</ele>
        <time>1970-01-01T05:59:40.000Z</time>
      </trkpt>
      <trkpt lat="42.633064" lon="0.655472">
        <ele>3290.4</ele>
        <time>1970-01-01T05:59:42.000Z</time>
      </trkpt>
      <trkpt lat="42.633069" lon="0.655472">
        <ele>3290.3</ele>
        <time>1970-01-01T05:59:43.000Z</time>
      </trkpt>
      <trkpt lat="42.633072" lon="0.655475">
        <ele>3290.2</ele>
        <time>1970-01-01T05:59:44.000Z</time>
      </trkpt>
      <trkpt lat="42.633074" lon="0.655477">
        <ele>3290.1</ele>
        <time>1970-01-01T05:59:45.000Z</time>
      </trkpt>
      <trkpt lat="42.633078" lon="0.655482">
        <ele>3290</ele>
        <time>1970-01-01T05:59:47.000Z</time>
      </trkpt>
      <trkpt lat="42.633079" lon="0.655485">
        <ele>3289.9</ele>
        <time>1970-01-01T05:59:48.000Z</time>
      </trkpt>
      <trkpt lat="42.633081" lon="0.655485">
        <ele>3289.9</ele>
        <time>1970-01-01T05:59:49.000Z</time>
      </trkpt>
      <trkpt lat="42.633085" lon="0.655485">
        <ele>3289.8</ele>
        <time>1970-01-01T05:59:50.000Z</time>
      </trkpt>
      <trkpt lat="42.633093" lon="0.655483">
        <ele>3289.6</ele>
        <time>1970-01-01T05:59:52.000Z</time>
      </trkpt>
      <trkpt lat="42.633097" lon="0.655476">
        <ele>3289.4</ele>
        <time>1970-01-01T05:59:54.000Z</time>
      </trkpt>
      <trkpt lat="42.633099" lon="0.655469">
        <ele>3289.3</ele>
        <time>1970-01-01T05:59:55.000Z</time>
      </trkpt>
      <trkpt lat="42.633101" lon="0.655462">
        <ele>3289.1</ele>
        <time>1970-01-01T05:59:56.000Z</time>
      </trkpt>
      <trkpt lat="42.633103" lon="0.655454">
        <ele>3289</ele>
        <time>1970-01-01T05:59:57.000Z</time>
      </trkpt>
      <trkpt lat="42.633105" lon="0.655448">
        <ele>3288.9</ele>
        <time>1970-01-01T05:59:58.000Z</time>
      </trkpt>
      <trkpt lat="42.633107" lon="0.65544">
        <ele>3288.7</ele>
        <time>1970-01-01T05:59:59.000Z</time>
      </trkpt>
      <trkpt lat="42.63311" lon="0.65543">
        <ele>3288.5</ele>
        <time>1970-01-01T06:00:01.000Z</time>
      </trkpt>
      <trkpt lat="42.633112" lon="0.655426">
        <ele>3288.4</ele>
        <time>1970-01-01T06:00:02.000Z</time>
      </trkpt>
      <trkpt lat="42.633114" lon="0.655421">
        <ele>3288.3</ele>
        <time>1970-01-01T06:00:03.000Z</time>
      </trkpt>
      <trkpt lat="42.633116" lon="0.655417">
        <ele>3288.2</ele>
        <time>1970-01-01T06:00:04.000Z</time>
      </trkpt>
      <trkpt lat="42.633118" lon="0.655411">
        <ele>3288.1</ele>
        <time>1970-01-01T06:00:06.000Z</time>
      </trkpt>
      <trkpt lat="42.633118" lon="0.65541">
        <ele>3288.1</ele>
        <time>1970-01-01T06:00:07.000Z</time>
      </trkpt>
      <trkpt lat="42.633119" lon="0.655409">
        <ele>3288</ele>
        <time>1970-01-01T06:00:08.000Z</time>
      </trkpt>
      <trkpt lat="42.633118" lon="0.655409">
        <ele>3288</ele>
        <time>1970-01-01T06:00:09.000Z</time>
      </trkpt>
      <trkpt lat="42.633119" lon="0.655408">
        <ele>3288</ele>
        <time>1970-01-01T06:00:10.000Z</time>
      </trkpt>
      <trkpt lat="42.633119" lon="0.655408">
        <ele>3288</ele>
        <time>1970-01-01T06:00:11.000Z</time>
      </trkpt>
      <trkpt lat="42.633119" lon="0.655408">
        <ele>3288</ele>
        <time>1970-01-01T06:00:12.000Z</time>
      </trkpt>
      <trkpt lat="42.63312" lon="0.655409">
        <ele>3288</ele>
        <time>1970-01-01T06:00:13.000Z</time>
      </trkpt>
      <trkpt lat="42.63312" lon="0.65541">
        <ele>3287.9</ele>
        <time>1970-01-01T06:00:14.000Z</time>
      </trkpt>
      <trkpt lat="42.633121" lon="0.65541">
        <ele>3287.9</ele>
        <time>1970-01-01T06:00:15.000Z</time>
      </trkpt>
      <trkpt lat="42.633122" lon="0.655411">
        <ele>3287.9</ele>
        <time>1970-01-01T06:00:16.000Z</time>
      </trkpt>
      <trkpt lat="42.633125" lon="0.65541">
        <ele>3287.8</ele>
        <time>1970-01-01T06:00:18.000Z</time>
      </trkpt>
      <trkpt lat="42.633126" lon="0.655406">
        <ele>3287.7</ele>
        <time>1970-01-01T06:00:19.000Z</time>
      </trkpt>
      <trkpt lat="42.633127" lon="0.655402">
        <ele>3287.7</ele>
        <time>1970-01-01T06:00:20.000Z</time>
      </trkpt>
      <trkpt lat="42.63313" lon="0.655397">
        <ele>3287.5</ele>
        <time>1970-01-01T06:00:21.000Z</time>
      </trkpt>
      <trkpt lat="42.633132" lon="0.655394">
        <ele>3287.5</ele>
        <time>1970-01-01T06:00:22.000Z</time>
      </trkpt>
      <trkpt lat="42.633134" lon="0.655392">
        <ele>3287.3</ele>
        <time>1970-01-01T06:00:23.000Z</time>
      </trkpt>
      <trkpt lat="42.633139" lon="0.65539">
        <ele>3287.2</ele>
        <time>1970-01-01T06:00:24.000Z</time>
      </trkpt>
      <trkpt lat="42.633143" lon="0.655388">
        <ele>3287</ele>
        <time>1970-01-01T06:00:25.000Z</time>
      </trkpt>
      <trkpt lat="42.633146" lon="0.655387">
        <ele>3286.9</ele>
        <time>1970-01-01T06:00:26.000Z</time>
      </trkpt>
      <trkpt lat="42.633148" lon="0.655385">
        <ele>3286.8</ele>
        <time>1970-01-01T06:00:27.000Z</time>
      </trkpt>
      <trkpt lat="42.633151" lon="0.655383">
        <ele>3286.6</ele>
        <time>1970-01-01T06:00:28.000Z</time>
      </trkpt>
      <trkpt lat="42.633153" lon="0.655382">
        <ele>3286.6</ele>
        <time>1970-01-01T06:00:29.000Z</time>
      </trkpt>
      <trkpt lat="42.633153" lon="0.655381">
        <ele>3286.6</ele>
        <time>1970-01-01T06:00:30.000Z</time>
      </trkpt>
      <trkpt lat="42.633162" lon="0.655381">
        <ele>3286.3</ele>
        <time>1970-01-01T06:00:31.000Z</time>
      </trkpt>
      <trkpt lat="42.633169" lon="0.655382">
        <ele>3286.1</ele>
        <time>1970-01-01T06:00:32.000Z</time>
      </trkpt>
      <trkpt lat="42.633174" lon="0.655383">
        <ele>3285.9</ele>
        <time>1970-01-01T06:00:33.000Z</time>
      </trkpt>
      <trkpt lat="42.633178" lon="0.655384">
        <ele>3285.7</ele>
        <time>1970-01-01T06:00:34.000Z</time>
      </trkpt>
      <trkpt lat="42.633184" lon="0.655386">
        <ele>3285.6</ele>
        <time>1970-01-01T06:00:35.000Z</time>
      </trkpt>
      <trkpt lat="42.63319" lon="0.655388">
        <ele>3285.4</ele>
        <time>1970-01-01T06:00:36.000Z</time>
      </trkpt>
      <trkpt lat="42.633196" lon="0.655391">
        <ele>3285.3</ele>
        <time>1970-01-01T06:00:37.000Z</time>
      </trkpt>
      <trkpt lat="42.633201" lon="0.655396">
        <ele>3285</ele>
        <time>1970-01-01T06:00:39.000Z</time>
      </trkpt>
      <trkpt lat="42.633202" lon="0.655398">
        <ele>3284.9</ele>
        <time>1970-01-01T06:00:40.000Z</time>
      </trkpt>
      <trkpt lat="42.633202" lon="0.655399">
        <ele>3284.8</ele>
        <time>1970-01-01T06:00:41.000Z</time>
      </trkpt>
      <trkpt lat="42.633202" lon="0.655399">
        <ele>3284.8</ele>
        <time>1970-01-01T06:00:42.000Z</time>
      </trkpt>
      <trkpt lat="42.633201" lon="0.6554">
        <ele>3284.7</ele>
        <time>1970-01-01T06:00:43.000Z</time>
      </trkpt>
      <trkpt lat="42.633202" lon="0.655403">
        <ele>3284.7</ele>
        <time>1970-01-01T06:00:44.000Z</time>
      </trkpt>
      <trkpt lat="42.633203" lon="0.655405">
        <ele>3285.1</ele>
        <time>1970-01-01T06:00:45.000Z</time>
      </trkpt>
      <trkpt lat="42.633203" lon="0.655406">
        <ele>3285.1</ele>
        <time>1970-01-01T06:00:46.000Z</time>
      </trkpt>
      <trkpt lat="42.633204" lon="0.655408">
        <ele>3285.1</ele>
        <time>1970-01-01T06:00:47.000Z</time>
      </trkpt>
      <trkpt lat="42.633205" lon="0.655409">
        <ele>3285</ele>
        <time>1970-01-01T06:00:48.000Z</time>
      </trkpt>
      <trkpt lat="42.633206" lon="0.65541">
        <ele>3284.9</ele>
        <time>1970-01-01T06:00:49.000Z</time>
      </trkpt>
      <trkpt lat="42.633207" lon="0.655412">
        <ele>3284.9</ele>
        <time>1970-01-01T06:00:50.000Z</time>
      </trkpt>
      <trkpt lat="42.633207" lon="0.655415">
        <ele>3284.9</ele>
        <time>1970-01-01T06:00:52.000Z</time>
      </trkpt>
      <trkpt lat="42.63321" lon="0.655419">
        <ele>3284.8</ele>
        <time>1970-01-01T06:00:53.000Z</time>
      </trkpt>
      <trkpt lat="42.633212" lon="0.655421">
        <ele>3284.7</ele>
        <time>1970-01-01T06:00:54.000Z</time>
      </trkpt>
      <trkpt lat="42.633216" lon="0.65542">
        <ele>3284.6</ele>
        <time>1970-01-01T06:00:55.000Z</time>
      </trkpt>
      <trkpt lat="42.633218" lon="0.655417">
        <ele>3284.5</ele>
        <time>1970-01-01T06:00:56.000Z</time>
      </trkpt>
      <trkpt lat="42.63322" lon="0.655405">
        <ele>3284.4</ele>
        <time>1970-01-01T06:00:58.000Z</time>
      </trkpt>
      <trkpt lat="42.633222" lon="0.655397">
        <ele>3283.6</ele>
        <time>1970-01-01T06:00:59.000Z</time>
      </trkpt>
      <trkpt lat="42.633224" lon="0.655388">
        <ele>3283.4</ele>
        <time>1970-01-01T06:01:00.000Z</time>
      </trkpt>
      <trkpt lat="42.633225" lon="0.655382">
        <ele>3283.3</ele>
        <time>1970-01-01T06:01:01.000Z</time>
      </trkpt>
      <trkpt lat="42.633226" lon="0.655376">
        <ele>3283.3</ele>
        <time>1970-01-01T06:01:02.000Z</time>
      </trkpt>
      <trkpt lat="42.633227" lon="0.65537">
        <ele>3283.2</ele>
        <time>1970-01-01T06:01:03.000Z</time>
      </trkpt>
      <trkpt lat="42.633228" lon="0.655365">
        <ele>3283.1</ele>
        <time>1970-01-01T06:01:04.000Z</time>
      </trkpt>
      <trkpt lat="42.63323" lon="0.65536">
        <ele>3282.2</ele>
        <time>1970-01-01T06:01:06.000Z</time>
      </trkpt>
      <trkpt lat="42.63323" lon="0.655358">
        <ele>3282.1</ele>
        <time>1970-01-01T06:01:07.000Z</time>
      </trkpt>
      <trkpt lat="42.633229" lon="0.655357">
        <ele>3282</ele>
        <time>1970-01-01T06:01:08.000Z</time>
      </trkpt>
      <trkpt lat="42.63323" lon="0.655354">
        <ele>3281.9</ele>
        <time>1970-01-01T06:01:09.000Z</time>
      </trkpt>
      <trkpt lat="42.633231" lon="0.655352">
        <ele>3281.9</ele>
        <time>1970-01-01T06:01:10.000Z</time>
      </trkpt>
      <trkpt lat="42.633232" lon="0.65535">
        <ele>3281.8</ele>
        <time>1970-01-01T06:01:11.000Z</time>
      </trkpt>
      <trkpt lat="42.633233" lon="0.655346">
        <ele>3281.5</ele>
        <time>1970-01-01T06:01:12.000Z</time>
      </trkpt>
      <trkpt lat="42.633235" lon="0.655344">
        <ele>3281.4</ele>
        <time>1970-01-01T06:01:13.000Z</time>
      </trkpt>
      <trkpt lat="42.633239" lon="0.655341">
        <ele>3281.3</ele>
        <time>1970-01-01T06:01:15.000Z</time>
      </trkpt>
      <trkpt lat="42.633243" lon="0.655339">
        <ele>3281.2</ele>
        <time>1970-01-01T06:01:16.000Z</time>
      </trkpt>
      <trkpt lat="42.633249" lon="0.655334">
        <ele>3281.1</ele>
        <time>1970-01-01T06:01:17.000Z</time>
      </trkpt>
      <trkpt lat="42.633257" lon="0.655325">
        <ele>3280.9</ele>
        <time>1970-01-01T06:01:19.000Z</time>
      </trkpt>
      <trkpt lat="42.633261" lon="0.655317">
        <ele>3279.6</ele>
        <time>1970-01-01T06:01:20.000Z</time>
      </trkpt>
      <trkpt lat="42.633266" lon="0.655307">
        <ele>3279.1</ele>
        <time>1970-01-01T06:01:22.000Z</time>
      </trkpt>
      <trkpt lat="42.633268" lon="0.655303">
        <ele>3279</ele>
        <time>1970-01-01T06:01:24.000Z</time>
      </trkpt>
      <trkpt lat="42.633268" lon="0.655303">
        <ele>3279</ele>
        <time>1970-01-01T06:01:25.000Z</time>
      </trkpt>
      <trkpt lat="42.633267" lon="0.655303">
        <ele>3278.9</ele>
        <time>1970-01-01T06:01:26.000Z</time>
      </trkpt>
      <trkpt lat="42.633267" lon="0.655301">
        <ele>3278.8</ele>
        <time>1970-01-01T06:01:27.000Z</time>
      </trkpt>
      <trkpt lat="42.633267" lon="0.655297">
        <ele>3278.7</ele>
        <time>1970-01-01T06:01:28.000Z</time>
      </trkpt>
      <trkpt lat="42.633268" lon="0.655294">
        <ele>3278.7</ele>
        <time>1970-01-01T06:01:29.000Z</time>
      </trkpt>
      <trkpt lat="42.633271" lon="0.655289">
        <ele>3278.5</ele>
        <time>1970-01-01T06:01:31.000Z</time>
      </trkpt>
      <trkpt lat="42.633273" lon="0.655285">
        <ele>3278.5</ele>
        <time>1970-01-01T06:01:32.000Z</time>
      </trkpt>
      <trkpt lat="42.633277" lon="0.655279">
        <ele>3278.4</ele>
        <time>1970-01-01T06:01:33.000Z</time>
      </trkpt>
      <trkpt lat="42.633281" lon="0.65527">
        <ele>3276.8</ele>
        <time>1970-01-01T06:01:35.000Z</time>
      </trkpt>
      <trkpt lat="42.633283" lon="0.655266">
        <ele>3276.7</ele>
        <time>1970-01-01T06:01:36.000Z</time>
      </trkpt>
      <trkpt lat="42.633285" lon="0.65526">
        <ele>3276.5</ele>
        <time>1970-01-01T06:01:37.000Z</time>
      </trkpt>
      <trkpt lat="42.633287" lon="0.655254">
        <ele>3276.4</ele>
        <time>1970-01-01T06:01:39.000Z</time>
      </trkpt>
      <trkpt lat="42.633288" lon="0.65525">
        <ele>3276.3</ele>
        <time>1970-01-01T06:01:40.000Z</time>
      </trkpt>
      <trkpt lat="42.63329" lon="0.655246">
        <ele>3276.2</ele>
        <time>1970-01-01T06:01:41.000Z</time>
      </trkpt>
      <trkpt lat="42.633291" lon="0.655243">
        <ele>3276.1</ele>
        <time>1970-01-01T06:01:42.000Z</time>
      </trkpt>
      <trkpt lat="42.633293" lon="0.655241">
        <ele>3276.1</ele>
        <time>1970-01-01T06:01:44.000Z</time>
      </trkpt>
      <trkpt lat="42.633295" lon="0.655237">
        <ele>3276</ele>
        <time>1970-01-01T06:01:45.000Z</time>
      </trkpt>
      <trkpt lat="42.633297" lon="0.655233">
        <ele>3275.4</ele>
        <time>1970-01-01T06:01:46.000Z</time>
      </trkpt>
      <trkpt lat="42.633298" lon="0.655226">
        <ele>3273.6</ele>
        <time>1970-01-01T06:01:47.000Z</time>
      </trkpt>
      <trkpt lat="42.633299" lon="0.655219">
        <ele>3273.5</ele>
        <time>1970-01-01T06:01:49.000Z</time>
      </trkpt>
      <trkpt lat="42.6333" lon="0.655215">
        <ele>3273.4</ele>
        <time>1970-01-01T06:01:50.000Z</time>
      </trkpt>
      <trkpt lat="42.633301" lon="0.655211">
        <ele>3273.3</ele>
        <time>1970-01-01T06:01:51.000Z</time>
      </trkpt>
      <trkpt lat="42.633307" lon="0.655209">
        <ele>3273.2</ele>
        <time>1970-01-01T06:01:53.000Z</time>
      </trkpt>
      <trkpt lat="42.633314" lon="0.65521">
        <ele>3273</ele>
        <time>1970-01-01T06:01:54.000Z</time>
      </trkpt>
      <trkpt lat="42.63332" lon="0.655212">
        <ele>3272.9</ele>
        <time>1970-01-01T06:01:55.000Z</time>
      </trkpt>
      <trkpt lat="42.633331" lon="0.655216">
        <ele>3272.2</ele>
        <time>1970-01-01T06:01:57.000Z</time>
      </trkpt>
      <trkpt lat="42.633342" lon="0.655216">
        <ele>3272.1</ele>
        <time>1970-01-01T06:01:58.000Z</time>
      </trkpt>
      <trkpt lat="42.633349" lon="0.655215">
        <ele>3272</ele>
        <time>1970-01-01T06:01:59.000Z</time>
      </trkpt>
      <trkpt lat="42.633363" lon="0.65522">
        <ele>3271.2</ele>
        <time>1970-01-01T06:02:01.000Z</time>
      </trkpt>
      <trkpt lat="42.633379" lon="0.655223">
        <ele>3271.1</ele>
        <time>1970-01-01T06:02:02.000Z</time>
      </trkpt>
      <trkpt lat="42.633395" lon="0.655222">
        <ele>3270.4</ele>
        <time>1970-01-01T06:02:03.000Z</time>
      </trkpt>
      <trkpt lat="42.633398" lon="0.65522">
        <ele>3270.3</ele>
        <time>1970-01-01T06:02:04.000Z</time>
      </trkpt>
      <trkpt lat="42.633396" lon="0.655218">
        <ele>3270.2</ele>
        <time>1970-01-01T06:02:06.000Z</time>
      </trkpt>
      <trkpt lat="42.633394" lon="0.655218">
        <ele>3270.1</ele>
        <time>1970-01-01T06:02:07.000Z</time>
      </trkpt>
      <trkpt lat="42.633392" lon="0.655218">
        <ele>3270</ele>
        <time>1970-01-01T06:02:08.000Z</time>
      </trkpt>
      <trkpt lat="42.633391" lon="0.655219">
        <ele>3270</ele>
        <time>1970-01-01T06:02:09.000Z</time>
      </trkpt>
      <trkpt lat="42.63339" lon="0.65522">
        <ele>3270.4</ele>
        <time>1970-01-01T06:02:10.000Z</time>
      </trkpt>
      <trkpt lat="42.633388" lon="0.655221">
        <ele>3270.3</ele>
        <time>1970-01-01T06:02:11.000Z</time>
      </trkpt>
      <trkpt lat="42.633387" lon="0.655222">
        <ele>3270.3</ele>
        <time>1970-01-01T06:02:12.000Z</time>
      </trkpt>
      <trkpt lat="42.633386" lon="0.655223">
        <ele>3270.2</ele>
        <time>1970-01-01T06:02:13.000Z</time>
      </trkpt>
      <trkpt lat="42.633386" lon="0.655224">
        <ele>3270.1</ele>
        <time>1970-01-01T06:02:14.000Z</time>
      </trkpt>
      <trkpt lat="42.633385" lon="0.655224">
        <ele>3270</ele>
        <time>1970-01-01T06:02:15.000Z</time>
      </trkpt>
      <trkpt lat="42.633385" lon="0.655225">
        <ele>3270</ele>
        <time>1970-01-01T06:02:16.000Z</time>
      </trkpt>
      <trkpt lat="42.633385" lon="0.655225">
        <ele>3269.9</ele>
        <time>1970-01-01T06:02:17.000Z</time>
      </trkpt>
      <trkpt lat="42.633384" lon="0.655226">
        <ele>3269.8</ele>
        <time>1970-01-01T06:02:18.000Z</time>
      </trkpt>
      <trkpt lat="42.633384" lon="0.655227">
        <ele>3269.8</ele>
        <time>1970-01-01T06:02:19.000Z</time>
      </trkpt>
      <trkpt lat="42.633384" lon="0.655227">
        <ele>3269.8</ele>
        <time>1970-01-01T06:02:20.000Z</time>
      </trkpt>
      <trkpt lat="42.633384" lon="0.655226">
        <ele>3269.8</ele>
        <time>1970-01-01T06:02:21.000Z</time>
      </trkpt>
      <trkpt lat="42.633381" lon="0.655222">
        <ele>3269.8</ele>
        <time>1970-01-01T06:02:22.000Z</time>
      </trkpt>
      <trkpt lat="42.633382" lon="0.655221">
        <ele>3269.8</ele>
        <time>1970-01-01T06:02:23.000Z</time>
      </trkpt>
      <trkpt lat="42.633386" lon="0.655219">
        <ele>3269.8</ele>
        <time>1970-01-01T06:02:24.000Z</time>
      </trkpt>
      <trkpt lat="42.633389" lon="0.655215">
        <ele>3269.8</ele>
        <time>1970-01-01T06:02:25.000Z</time>
      </trkpt>
      <trkpt lat="42.633393" lon="0.655209">
        <ele>3269.2</ele>
        <time>1970-01-01T06:02:27.000Z</time>
      </trkpt>
      <trkpt lat="42.633397" lon="0.655202">
        <ele>3269.2</ele>
        <time>1970-01-01T06:02:28.000Z</time>
      </trkpt>
      <trkpt lat="42.633402" lon="0.655194">
        <ele>3269.2</ele>
        <time>1970-01-01T06:02:30.000Z</time>
      </trkpt>
      <trkpt lat="42.633407" lon="0.655188">
        <ele>3267</ele>
        <time>1970-01-01T06:02:31.000Z</time>
      </trkpt>
      <trkpt lat="42.633412" lon="0.655182">
        <ele>3267</ele>
        <time>1970-01-01T06:02:32.000Z</time>
      </trkpt>
      <trkpt lat="42.633416" lon="0.655176">
        <ele>3267</ele>
        <time>1970-01-01T06:02:33.000Z</time>
      </trkpt>
      <trkpt lat="42.633419" lon="0.655173">
        <ele>3267</ele>
        <time>1970-01-01T06:02:34.000Z</time>
      </trkpt>
      <trkpt lat="42.633425" lon="0.655168">
        <ele>3266.6</ele>
        <time>1970-01-01T06:02:35.000Z</time>
      </trkpt>
      <trkpt lat="42.633433" lon="0.655163">
        <ele>3266.6</ele>
        <time>1970-01-01T06:02:36.000Z</time>
      </trkpt>
      <trkpt lat="42.633444" lon="0.655161">
        <ele>3266.6</ele>
        <time>1970-01-01T06:02:37.000Z</time>
      </trkpt>
      <trkpt lat="42.633452" lon="0.655163">
        <ele>3266.6</ele>
        <time>1970-01-01T06:02:39.000Z</time>
      </trkpt>
      <trkpt lat="42.63346" lon="0.655163">
        <ele>3266.1</ele>
        <time>1970-01-01T06:02:40.000Z</time>
      </trkpt>
      <trkpt lat="42.63347" lon="0.655165">
        <ele>3266.1</ele>
        <time>1970-01-01T06:02:41.000Z</time>
      </trkpt>
      <trkpt lat="42.633477" lon="0.655165">
        <ele>3266.1</ele>
        <time>1970-01-01T06:02:42.000Z</time>
      </trkpt>
      <trkpt lat="42.633483" lon="0.655167">
        <ele>3266.1</ele>
        <time>1970-01-01T06:02:43.000Z</time>
      </trkpt>
      <trkpt lat="42.633492" lon="0.655168">
        <ele>3265.7</ele>
        <time>1970-01-01T06:02:44.000Z</time>
      </trkpt>
      <trkpt lat="42.633499" lon="0.655171">
        <ele>3265.7</ele>
        <time>1970-01-01T06:02:46.000Z</time>
      </trkpt>
      <trkpt lat="42.633502" lon="0.655176">
        <ele>3265.7</ele>
        <time>1970-01-01T06:02:47.000Z</time>
      </trkpt>
      <trkpt lat="42.633505" lon="0.655179">
        <ele>3265.7</ele>
        <time>1970-01-01T06:02:48.000Z</time>
      </trkpt>
      <trkpt lat="42.633508" lon="0.655183">
        <ele>3265.7</ele>
        <time>1970-01-01T06:02:49.000Z</time>
      </trkpt>
      <trkpt lat="42.633512" lon="0.655187">
        <ele>3265.7</ele>
        <time>1970-01-01T06:02:51.000Z</time>
      </trkpt>
      <trkpt lat="42.633515" lon="0.655189">
        <ele>3267.7</ele>
        <time>1970-01-01T06:02:52.000Z</time>
      </trkpt>
      <trkpt lat="42.63352" lon="0.655193">
        <ele>3267.1</ele>
        <time>1970-01-01T06:02:53.000Z</time>
      </trkpt>
      <trkpt lat="42.633524" lon="0.655193">
        <ele>3267.1</ele>
        <time>1970-01-01T06:02:54.000Z</time>
      </trkpt>
      <trkpt lat="42.63353" lon="0.655192">
        <ele>3267.1</ele>
        <time>1970-01-01T06:02:56.000Z</time>
      </trkpt>
      <trkpt lat="42.633537" lon="0.655192">
        <ele>3267.1</ele>
        <time>1970-01-01T06:02:57.000Z</time>
      </trkpt>
      <trkpt lat="42.633542" lon="0.655192">
        <ele>3267.1</ele>
        <time>1970-01-01T06:02:58.000Z</time>
      </trkpt>
      <trkpt lat="42.633546" lon="0.655194">
        <ele>3267.1</ele>
        <time>1970-01-01T06:02:59.000Z</time>
      </trkpt>
      <trkpt lat="42.63355" lon="0.655197">
        <ele>3266.5</ele>
        <time>1970-01-01T06:03:00.000Z</time>
      </trkpt>
      <trkpt lat="42.633554" lon="0.655199">
        <ele>3266.5</ele>
        <time>1970-01-01T06:03:02.000Z</time>
      </trkpt>
      <trkpt lat="42.63356" lon="0.655202">
        <ele>3266.5</ele>
        <time>1970-01-01T06:03:03.000Z</time>
      </trkpt>
      <trkpt lat="42.633565" lon="0.655202">
        <ele>3266.5</ele>
        <time>1970-01-01T06:03:04.000Z</time>
      </trkpt>
      <trkpt lat="42.633571" lon="0.655201">
        <ele>3266.5</ele>
        <time>1970-01-01T06:03:05.000Z</time>
      </trkpt>
      <trkpt lat="42.633577" lon="0.655202">
        <ele>3266.5</ele>
        <time>1970-01-01T06:03:06.000Z</time>
      </trkpt>
      <trkpt lat="42.63358" lon="0.655207">
        <ele>3265.8</ele>
        <time>1970-01-01T06:03:07.000Z</time>
      </trkpt>
      <trkpt lat="42.63358" lon="0.655213">
        <ele>3265.8</ele>
        <time>1970-01-01T06:03:08.000Z</time>
      </trkpt>
      <trkpt lat="42.63358" lon="0.65522">
        <ele>3265.8</ele>
        <time>1970-01-01T06:03:09.000Z</time>
      </trkpt>
      <trkpt lat="42.633581" lon="0.655226">
        <ele>3265.8</ele>
        <time>1970-01-01T06:03:10.000Z</time>
      </trkpt>
      <trkpt lat="42.633582" lon="0.655227">
        <ele>3265.8</ele>
        <time>1970-01-01T06:03:11.000Z</time>
      </trkpt>
      <trkpt lat="42.633581" lon="0.655227">
        <ele>3265.8</ele>
        <time>1970-01-01T06:03:12.000Z</time>
      </trkpt>
      <trkpt lat="42.63358" lon="0.655226">
        <ele>3265.8</ele>
        <time>1970-01-01T06:03:13.000Z</time>
      </trkpt>
      <trkpt lat="42.633579" lon="0.655225">
        <ele>3266.5</ele>
        <time>1970-01-01T06:03:14.000Z</time>
      </trkpt>
      <trkpt lat="42.633579" lon="0.655225">
        <ele>3266.5</ele>
        <time>1970-01-01T06:03:15.000Z</time>
      </trkpt>
      <trkpt lat="42.633578" lon="0.655224">
        <ele>3266.5</ele>
        <time>1970-01-01T06:03:16.000Z</time>
      </trkpt>
      <trkpt lat="42.633578" lon="0.655225">
        <ele>3266.5</ele>
        <time>1970-01-01T06:03:17.000Z</time>
      </trkpt>
      <trkpt lat="42.633578" lon="0.655226">
        <ele>3266.5</ele>
        <time>1970-01-01T06:03:18.000Z</time>
      </trkpt>
      <trkpt lat="42.633578" lon="0.655228">
        <ele>3266.5</ele>
        <time>1970-01-01T06:03:19.000Z</time>
      </trkpt>
      <trkpt lat="42.633578" lon="0.655234">
        <ele>3268.4</ele>
        <time>1970-01-01T06:03:21.000Z</time>
      </trkpt>
      <trkpt lat="42.633579" lon="0.655237">
        <ele>3268.4</ele>
        <time>1970-01-01T06:03:22.000Z</time>
      </trkpt>
      <trkpt lat="42.633578" lon="0.655237">
        <ele>3268.4</ele>
        <time>1970-01-01T06:03:23.000Z</time>
      </trkpt>
      <trkpt lat="42.633578" lon="0.655237">
        <ele>3268.4</ele>
        <time>1970-01-01T06:03:24.000Z</time>
      </trkpt>
      <trkpt lat="42.633577" lon="0.655241">
        <ele>3268.4</ele>
        <time>1970-01-01T06:03:26.000Z</time>
      </trkpt>
      <trkpt lat="42.633575" lon="0.655246">
        <ele>3268.4</ele>
        <time>1970-01-01T06:03:27.000Z</time>
      </trkpt>
      <trkpt lat="42.633574" lon="0.655251">
        <ele>3268.4</ele>
        <time>1970-01-01T06:03:29.000Z</time>
      </trkpt>
      <trkpt lat="42.633573" lon="0.655257">
        <ele>3268.4</ele>
        <time>1970-01-01T06:03:30.000Z</time>
      </trkpt>
      <trkpt lat="42.633572" lon="0.655261">
        <ele>3268.4</ele>
        <time>1970-01-01T06:03:31.000Z</time>
      </trkpt>
      <trkpt lat="42.633572" lon="0.655263">
        <ele>3268.4</ele>
        <time>1970-01-01T06:03:32.000Z</time>
      </trkpt>
      <trkpt lat="42.633571" lon="0.655282">
        <ele>3270.2</ele>
        <time>1970-01-01T06:03:33.000Z</time>
      </trkpt>
      <trkpt lat="42.633571" lon="0.655291">
        <ele>3270.2</ele>
        <time>1970-01-01T06:03:35.000Z</time>
      </trkpt>
      <trkpt lat="42.633571" lon="0.655298">
        <ele>3270.2</ele>
        <time>1970-01-01T06:03:36.000Z</time>
      </trkpt>
      <trkpt lat="42.633572" lon="0.655297">
        <ele>3270.2</ele>
        <time>1970-01-01T06:03:37.000Z</time>
      </trkpt>
      <trkpt lat="42.633573" lon="0.655294">
        <ele>3270.2</ele>
        <time>1970-01-01T06:03:39.000Z</time>
      </trkpt>
      <trkpt lat="42.633574" lon="0.655293">
        <ele>3270.2</ele>
        <time>1970-01-01T06:03:40.000Z</time>
      </trkpt>
      <trkpt lat="42.633574" lon="0.655294">
        <ele>3270.2</ele>
        <time>1970-01-01T06:03:41.000Z</time>
      </trkpt>
      <trkpt lat="42.633574" lon="0.655294">
        <ele>3270.2</ele>
        <time>1970-01-01T06:03:42.000Z</time>
      </trkpt>
      <trkpt lat="42.633575" lon="0.655294">
        <ele>3270.2</ele>
        <time>1970-01-01T06:03:43.000Z</time>
      </trkpt>
      <trkpt lat="42.633576" lon="0.655295">
        <ele>3270.2</ele>
        <time>1970-01-01T06:03:44.000Z</time>
      </trkpt>
      <trkpt lat="42.633577" lon="0.655295">
        <ele>3270.2</ele>
        <time>1970-01-01T06:03:45.000Z</time>
      </trkpt>
      <trkpt lat="42.633579" lon="0.655293">
        <ele>3270.2</ele>
        <time>1970-01-01T06:03:47.000Z</time>
      </trkpt>
      <trkpt lat="42.633581" lon="0.655293">
        <ele>3269.4</ele>
        <time>1970-01-01T06:03:48.000Z</time>
      </trkpt>
      <trkpt lat="42.633582" lon="0.655291">
        <ele>3269.4</ele>
        <time>1970-01-01T06:03:49.000Z</time>
      </trkpt>
      <trkpt lat="42.633582" lon="0.655289">
        <ele>3269.4</ele>
        <time>1970-01-01T06:03:50.000Z</time>
      </trkpt>
      <trkpt lat="42.633583" lon="0.655288">
        <ele>3269.4</ele>
        <time>1970-01-01T06:03:51.000Z</time>
      </trkpt>
      <trkpt lat="42.633583" lon="0.655286">
        <ele>3269.4</ele>
        <time>1970-01-01T06:03:52.000Z</time>
      </trkpt>
      <trkpt lat="42.633583" lon="0.655286">
        <ele>3269.4</ele>
        <time>1970-01-01T06:03:53.000Z</time>
      </trkpt>
      <trkpt lat="42.633583" lon="0.655286">
        <ele>3269.4</ele>
        <time>1970-01-01T06:03:54.000Z</time>
      </trkpt>
      <trkpt lat="42.633583" lon="0.655286">
        <ele>3269.4</ele>
        <time>1970-01-01T06:03:55.000Z</time>
      </trkpt>
      <trkpt lat="42.633583" lon="0.655287">
        <ele>3269.4</ele>
        <time>1970-01-01T06:03:56.000Z</time>
      </trkpt>
      <trkpt lat="42.633584" lon="0.65529">
        <ele>3269.4</ele>
        <time>1970-01-01T06:03:57.000Z</time>
      </trkpt>
      <trkpt lat="42.633585" lon="0.655293">
        <ele>3269.4</ele>
        <time>1970-01-01T06:03:58.000Z</time>
      </trkpt>
      <trkpt lat="42.633586" lon="0.655297">
        <ele>3269.4</ele>
        <time>1970-01-01T06:04:00.000Z</time>
      </trkpt>
      <trkpt lat="42.633587" lon="0.655301">
        <ele>3269.4</ele>
        <time>1970-01-01T06:04:01.000Z</time>
      </trkpt>
      <trkpt lat="42.633588" lon="0.655304">
        <ele>3269.4</ele>
        <time>1970-01-01T06:04:02.000Z</time>
      </trkpt>
      <trkpt lat="42.633589" lon="0.65531">
        <ele>3269.4</ele>
        <time>1970-01-01T06:04:04.000Z</time>
      </trkpt>
      <trkpt lat="42.633588" lon="0.655313">
        <ele>3269.4</ele>
        <time>1970-01-01T06:04:05.000Z</time>
      </trkpt>
      <trkpt lat="42.633588" lon="0.655316">
        <ele>3269.4</ele>
        <time>1970-01-01T06:04:06.000Z</time>
      </trkpt>
      <trkpt lat="42.633586" lon="0.655319">
        <ele>3271</ele>
        <time>1970-01-01T06:04:07.000Z</time>
      </trkpt>
      <trkpt lat="42.633586" lon="0.655321">
        <ele>3271</ele>
        <time>1970-01-01T06:04:08.000Z</time>
      </trkpt>
      <trkpt lat="42.633586" lon="0.655321">
        <ele>3271</ele>
        <time>1970-01-01T06:04:09.000Z</time>
      </trkpt>
      <trkpt lat="42.633585" lon="0.65532">
        <ele>3271</ele>
        <time>1970-01-01T06:04:10.000Z</time>
      </trkpt>
      <trkpt lat="42.633584" lon="0.655319">
        <ele>3271</ele>
        <time>1970-01-01T06:04:11.000Z</time>
      </trkpt>
      <trkpt lat="42.633583" lon="0.655319">
        <ele>3271</ele>
        <time>1970-01-01T06:04:12.000Z</time>
      </trkpt>
      <trkpt lat="42.633582" lon="0.655319">
        <ele>3271</ele>
        <time>1970-01-01T06:04:13.000Z</time>
      </trkpt>
      <trkpt lat="42.633582" lon="0.655319">
        <ele>3271</ele>
        <time>1970-01-01T06:04:14.000Z</time>
      </trkpt>
      <trkpt lat="42.633582" lon="0.655319">
        <ele>3271</ele>
        <time>1970-01-01T06:04:15.000Z</time>
      </trkpt>
      <trkpt lat="42.633582" lon="0.655322">
        <ele>3271</ele>
        <time>1970-01-01T06:04:16.000Z</time>
      </trkpt>
      <trkpt lat="42.633583" lon="0.655326">
        <ele>3271</ele>
        <time>1970-01-01T06:04:17.000Z</time>
      </trkpt>
      <trkpt lat="42.633585" lon="0.655331">
        <ele>3271</ele>
        <time>1970-01-01T06:04:19.000Z</time>
      </trkpt>
      <trkpt lat="42.63359" lon="0.655337">
        <ele>3271</ele>
        <time>1970-01-01T06:04:20.000Z</time>
      </trkpt>
      <trkpt lat="42.633598" lon="0.655343">
        <ele>3271</ele>
        <time>1970-01-01T06:04:22.000Z</time>
      </trkpt>
      <trkpt lat="42.633604" lon="0.655346">
        <ele>3271</ele>
        <time>1970-01-01T06:04:23.000Z</time>
      </trkpt>
      <trkpt lat="42.633611" lon="0.655347">
        <ele>3271</ele>
        <time>1970-01-01T06:04:24.000Z</time>
      </trkpt>
      <trkpt lat="42.633617" lon="0.655348">
        <ele>3270.2</ele>
        <time>1970-01-01T06:04:25.000Z</time>
      </trkpt>
      <trkpt lat="42.633623" lon="0.655349">
        <ele>3270.2</ele>
        <time>1970-01-01T06:04:26.000Z</time>
      </trkpt>
      <trkpt lat="42.633628" lon="0.655351">
        <ele>3270.2</ele>
        <time>1970-01-01T06:04:27.000Z</time>
      </trkpt>
      <trkpt lat="42.633636" lon="0.655355">
        <ele>3270.2</ele>
        <time>1970-01-01T06:04:29.000Z</time>
      </trkpt>
      <trkpt lat="42.633641" lon="0.655359">
        <ele>3270.2</ele>
        <time>1970-01-01T06:04:30.000Z</time>
      </trkpt>
      <trkpt lat="42.633645" lon="0.655363">
        <ele>3270.8</ele>
        <time>1970-01-01T06:04:31.000Z</time>
      </trkpt>
      <trkpt lat="42.633649" lon="0.655367">
        <ele>3270.8</ele>
        <time>1970-01-01T06:04:32.000Z</time>
      </trkpt>
      <trkpt lat="42.633653" lon="0.65537">
        <ele>3270.8</ele>
        <time>1970-01-01T06:04:33.000Z</time>
      </trkpt>
      <trkpt lat="42.633658" lon="0.655374">
        <ele>3270.8</ele>
        <time>1970-01-01T06:04:34.000Z</time>
      </trkpt>
      <trkpt lat="42.633666" lon="0.655379">
        <ele>3270.8</ele>
        <time>1970-01-01T06:04:36.000Z</time>
      </trkpt>
      <trkpt lat="42.633671" lon="0.655383">
        <ele>3270.8</ele>
        <time>1970-01-01T06:04:37.000Z</time>
      </trkpt>
      <trkpt lat="42.633675" lon="0.655387">
        <ele>3269.9</ele>
        <time>1970-01-01T06:04:38.000Z</time>
      </trkpt>
      <trkpt lat="42.633684" lon="0.655391">
        <ele>3269.9</ele>
        <time>1970-01-01T06:04:40.000Z</time>
      </trkpt>
      <trkpt lat="42.63369" lon="0.655394">
        <ele>3269.9</ele>
        <time>1970-01-01T06:04:41.000Z</time>
      </trkpt>
      <trkpt lat="42.633694" lon="0.655396">
        <ele>3269.9</ele>
        <time>1970-01-01T06:04:42.000Z</time>
      </trkpt>
      <trkpt lat="42.633699" lon="0.6554">
        <ele>3269.9</ele>
        <time>1970-01-01T06:04:44.000Z</time>
      </trkpt>
      <trkpt lat="42.633702" lon="0.655404">
        <ele>3271.3</ele>
        <time>1970-01-01T06:04:45.000Z</time>
      </trkpt>
      <trkpt lat="42.633706" lon="0.655407">
        <ele>3271.3</ele>
        <time>1970-01-01T06:04:46.000Z</time>
      </trkpt>
      <trkpt lat="42.633706" lon="0.655407">
        <ele>3271.3</ele>
        <time>1970-01-01T06:04:47.000Z</time>
      </trkpt>
      <trkpt lat="42.633707" lon="0.655406">
        <ele>3270.4</ele>
        <time>1970-01-01T06:04:48.000Z</time>
      </trkpt>
      <trkpt lat="42.633707" lon="0.655406">
        <ele>3270.4</ele>
        <time>1970-01-01T06:04:49.000Z</time>
      </trkpt>
      <trkpt lat="42.633707" lon="0.655405">
        <ele>3270.4</ele>
        <time>1970-01-01T06:04:50.000Z</time>
      </trkpt>
      <trkpt lat="42.633707" lon="0.655404">
        <ele>3270.4</ele>
        <time>1970-01-01T06:04:51.000Z</time>
      </trkpt>
      <trkpt lat="42.633708" lon="0.655404">
        <ele>3270.4</ele>
        <time>1970-01-01T06:04:52.000Z</time>
      </trkpt>
      <trkpt lat="42.63371" lon="0.655404">
        <ele>3270.4</ele>
        <time>1970-01-01T06:04:53.000Z</time>
      </trkpt>
      <trkpt lat="42.633712" lon="0.655405">
        <ele>3270.4</ele>
        <time>1970-01-01T06:04:54.000Z</time>
      </trkpt>
      <trkpt lat="42.633714" lon="0.655405">
        <ele>3270.4</ele>
        <time>1970-01-01T06:04:55.000Z</time>
      </trkpt>
      <trkpt lat="42.63372" lon="0.655406">
        <ele>3270.4</ele>
        <time>1970-01-01T06:04:56.000Z</time>
      </trkpt>
      <trkpt lat="42.633728" lon="0.655408">
        <ele>3270.4</ele>
        <time>1970-01-01T06:04:58.000Z</time>
      </trkpt>
      <trkpt lat="42.633736" lon="0.655409">
        <ele>3270.4</ele>
        <time>1970-01-01T06:04:59.000Z</time>
      </trkpt>
      <trkpt lat="42.633742" lon="0.65541">
        <ele>3269.5</ele>
        <time>1970-01-01T06:05:00.000Z</time>
      </trkpt>
      <trkpt lat="42.633747" lon="0.655412">
        <ele>3269.5</ele>
        <time>1970-01-01T06:05:01.000Z</time>
      </trkpt>
      <trkpt lat="42.633751" lon="0.655413">
        <ele>3269.5</ele>
        <time>1970-01-01T06:05:02.000Z</time>
      </trkpt>
      <trkpt lat="42.633755" lon="0.655414">
        <ele>3269.5</ele>
        <time>1970-01-01T06:05:03.000Z</time>
      </trkpt>
      <trkpt lat="42.63376" lon="0.655416">
        <ele>3269.5</ele>
        <time>1970-01-01T06:05:04.000Z</time>
      </trkpt>
      <trkpt lat="42.633764" lon="0.655417">
        <ele>3269.5</ele>
        <time>1970-01-01T06:05:05.000Z</time>
      </trkpt>
      <trkpt lat="42.633768" lon="0.655419">
        <ele>3269.5</ele>
        <time>1970-01-01T06:05:06.000Z</time>
      </trkpt>
      <trkpt lat="42.633776" lon="0.655421">
        <ele>3268.5</ele>
        <time>1970-01-01T06:05:08.000Z</time>
      </trkpt>
      <trkpt lat="42.633782" lon="0.655425">
        <ele>3268.5</ele>
        <time>1970-01-01T06:05:09.000Z</time>
      </trkpt>
      <trkpt lat="42.633789" lon="0.655428">
        <ele>3268.5</ele>
        <time>1970-01-01T06:05:11.000Z</time>
      </trkpt>
      <trkpt lat="42.633793" lon="0.655427">
        <ele>3268.5</ele>
        <time>1970-01-01T06:05:12.000Z</time>
      </trkpt>
      <trkpt lat="42.633797" lon="0.655427">
        <ele>3268.5</ele>
        <time>1970-01-01T06:05:13.000Z</time>
      </trkpt>
      <trkpt lat="42.633799" lon="0.655427">
        <ele>3268.5</ele>
        <time>1970-01-01T06:05:14.000Z</time>
      </trkpt>
      <trkpt lat="42.633807" lon="0.655427">
        <ele>3267.5</ele>
        <time>1970-01-01T06:05:16.000Z</time>
      </trkpt>
      <trkpt lat="42.633808" lon="0.655428">
        <ele>3267.5</ele>
        <time>1970-01-01T06:05:17.000Z</time>
      </trkpt>
      <trkpt lat="42.633808" lon="0.655428">
        <ele>3267.5</ele>
        <time>1970-01-01T06:05:18.000Z</time>
      </trkpt>
      <trkpt lat="42.633806" lon="0.655428">
        <ele>3267.5</ele>
        <time>1970-01-01T06:05:19.000Z</time>
      </trkpt>
      <trkpt lat="42.633805" lon="0.655428">
        <ele>3267.5</ele>
        <time>1970-01-01T06:05:20.000Z</time>
      </trkpt>
      <trkpt lat="42.633805" lon="0.655428">
        <ele>3267.5</ele>
        <time>1970-01-01T06:05:21.000Z</time>
      </trkpt>
      <trkpt lat="42.633806" lon="0.655429">
        <ele>3267.5</ele>
        <time>1970-01-01T06:05:22.000Z</time>
      </trkpt>
      <trkpt lat="42.633809" lon="0.655428">
        <ele>3267.5</ele>
        <time>1970-01-01T06:05:23.000Z</time>
      </trkpt>
      <trkpt lat="42.633814" lon="0.655429">
        <ele>3267.5</ele>
        <time>1970-01-01T06:05:25.000Z</time>
      </trkpt>
      <trkpt lat="42.633818" lon="0.655431">
        <ele>3267.5</ele>
        <time>1970-01-01T06:05:26.000Z</time>
      </trkpt>
      <trkpt lat="42.633826" lon="0.655433">
        <ele>3267.5</ele>
        <time>1970-01-01T06:05:28.000Z</time>
      </trkpt>
      <trkpt lat="42.63383" lon="0.655433">
        <ele>3267.5</ele>
        <time>1970-01-01T06:05:29.000Z</time>
      </trkpt>
      <trkpt lat="42.633834" lon="0.655434">
        <ele>3266.4</ele>
        <time>1970-01-01T06:05:30.000Z</time>
      </trkpt>
      <trkpt lat="42.633836" lon="0.655434">
        <ele>3266.4</ele>
        <time>1970-01-01T06:05:31.000Z</time>
      </trkpt>
      <trkpt lat="42.633838" lon="0.655434">
        <ele>3266.4</ele>
        <time>1970-01-01T06:05:32.000Z</time>
      </trkpt>
      <trkpt lat="42.63384" lon="0.655434">
        <ele>3266.4</ele>
        <time>1970-01-01T06:05:33.000Z</time>
      </trkpt>
      <trkpt lat="42.633843" lon="0.655434">
        <ele>3266.4</ele>
        <time>1970-01-01T06:05:34.000Z</time>
      </trkpt>
      <trkpt lat="42.633843" lon="0.655434">
        <ele>3266.4</ele>
        <time>1970-01-01T06:05:35.000Z</time>
      </trkpt>
      <trkpt lat="42.633846" lon="0.655437">
        <ele>3266.4</ele>
        <time>1970-01-01T06:05:37.000Z</time>
      </trkpt>
      <trkpt lat="42.63385" lon="0.655438">
        <ele>3266.4</ele>
        <time>1970-01-01T06:05:38.000Z</time>
      </trkpt>
      <trkpt lat="42.633853" lon="0.655441">
        <ele>3266.4</ele>
        <time>1970-01-01T06:05:39.000Z</time>
      </trkpt>
      <trkpt lat="42.633856" lon="0.655443">
        <ele>3266.4</ele>
        <time>1970-01-01T06:05:40.000Z</time>
      </trkpt>
      <trkpt lat="42.633859" lon="0.655445">
        <ele>3266.4</ele>
        <time>1970-01-01T06:05:41.000Z</time>
      </trkpt>
      <trkpt lat="42.633861" lon="0.655447">
        <ele>3267.4</ele>
        <time>1970-01-01T06:05:42.000Z</time>
      </trkpt>
      <trkpt lat="42.633861" lon="0.655449">
        <ele>3267.4</ele>
        <time>1970-01-01T06:05:43.000Z</time>
      </trkpt>
      <trkpt lat="42.633862" lon="0.65545">
        <ele>3267.4</ele>
        <time>1970-01-01T06:05:44.000Z</time>
      </trkpt>
      <trkpt lat="42.633866" lon="0.655451">
        <ele>3266.3</ele>
        <time>1970-01-01T06:05:45.000Z</time>
      </trkpt>
      <trkpt lat="42.633871" lon="0.655452">
        <ele>3266.3</ele>
        <time>1970-01-01T06:05:46.000Z</time>
      </trkpt>
      <trkpt lat="42.633878" lon="0.655455">
        <ele>3266.3</ele>
        <time>1970-01-01T06:05:48.000Z</time>
      </trkpt>
      <trkpt lat="42.633885" lon="0.655458">
        <ele>3266.3</ele>
        <time>1970-01-01T06:05:49.000Z</time>
      </trkpt>
      <trkpt lat="42.633891" lon="0.65546">
        <ele>3266.3</ele>
        <time>1970-01-01T06:05:50.000Z</time>
      </trkpt>
      <trkpt lat="42.633896" lon="0.655462">
        <ele>3265.1</ele>
        <time>1970-01-01T06:05:51.000Z</time>
      </trkpt>
      <trkpt lat="42.633903" lon="0.655465">
        <ele>3265.1</ele>
        <time>1970-01-01T06:05:53.000Z</time>
      </trkpt>
      <trkpt lat="42.633908" lon="0.655469">
        <ele>3265.1</ele>
        <time>1970-01-01T06:05:54.000Z</time>
      </trkpt>
      <trkpt lat="42.633908" lon="0.655471">
        <ele>3265.1</ele>
        <time>1970-01-01T06:05:55.000Z</time>
      </trkpt>
      <trkpt lat="42.633907" lon="0.655472">
        <ele>3265.1</ele>
        <time>1970-01-01T06:05:56.000Z</time>
      </trkpt>
      <trkpt lat="42.633906" lon="0.655473">
        <ele>3265.1</ele>
        <time>1970-01-01T06:05:57.000Z</time>
      </trkpt>
      <trkpt lat="42.633906" lon="0.655474">
        <ele>3265.1</ele>
        <time>1970-01-01T06:05:58.000Z</time>
      </trkpt>
      <trkpt lat="42.633907" lon="0.655477">
        <ele>3265.1</ele>
        <time>1970-01-01T06:05:59.000Z</time>
      </trkpt>
      <trkpt lat="42.633909" lon="0.655479">
        <ele>3265.1</ele>
        <time>1970-01-01T06:06:00.000Z</time>
      </trkpt>
      <trkpt lat="42.633911" lon="0.655482">
        <ele>3265.1</ele>
        <time>1970-01-01T06:06:01.000Z</time>
      </trkpt>
      <trkpt lat="42.633919" lon="0.655487">
        <ele>3265.1</ele>
        <time>1970-01-01T06:06:03.000Z</time>
      </trkpt>
      <trkpt lat="42.633928" lon="0.65549">
        <ele>3264.8</ele>
        <time>1970-01-01T06:06:05.000Z</time>
      </trkpt>
      <trkpt lat="42.633935" lon="0.655492">
        <ele>3264.8</ele>
        <time>1970-01-01T06:06:06.000Z</time>
      </trkpt>
      <trkpt lat="42.63394" lon="0.655493">
        <ele>3264.8</ele>
        <time>1970-01-01T06:06:07.000Z</time>
      </trkpt>
      <trkpt lat="42.633944" lon="0.655495">
        <ele>3264.8</ele>
        <time>1970-01-01T06:06:08.000Z</time>
      </trkpt>
      <trkpt lat="42.633947" lon="0.655496">
        <ele>3264.8</ele>
        <time>1970-01-01T06:06:09.000Z</time>
      </trkpt>
      <trkpt lat="42.633949" lon="0.655496">
        <ele>3264.8</ele>
        <time>1970-01-01T06:06:10.000Z</time>
      </trkpt>
      <trkpt lat="42.63395" lon="0.655497">
        <ele>3264.8</ele>
        <time>1970-01-01T06:06:11.000Z</time>
      </trkpt>
      <trkpt lat="42.633954" lon="0.655499">
        <ele>3264.8</ele>
        <time>1970-01-01T06:06:12.000Z</time>
      </trkpt>
      <trkpt lat="42.633957" lon="0.655499">
        <ele>3264.8</ele>
        <time>1970-01-01T06:06:13.000Z</time>
      </trkpt>
      <trkpt lat="42.633964" lon="0.6555">
        <ele>3263</ele>
        <time>1970-01-01T06:06:15.000Z</time>
      </trkpt>
      <trkpt lat="42.63397" lon="0.655502">
        <ele>3263</ele>
        <time>1970-01-01T06:06:16.000Z</time>
      </trkpt>
      <trkpt lat="42.633981" lon="0.655503">
        <ele>3263</ele>
        <time>1970-01-01T06:06:18.000Z</time>
      </trkpt>
      <trkpt lat="42.633987" lon="0.655504">
        <ele>3263</ele>
        <time>1970-01-01T06:06:19.000Z</time>
      </trkpt>
      <trkpt lat="42.633995" lon="0.655505">
        <ele>3261.9</ele>
        <time>1970-01-01T06:06:20.000Z</time>
      </trkpt>
      <trkpt lat="42.633999" lon="0.655506">
        <ele>3261.9</ele>
        <time>1970-01-01T06:06:21.000Z</time>
      </trkpt>
      <trkpt lat="42.634004" lon="0.655507">
        <ele>3261.9</ele>
        <time>1970-01-01T06:06:22.000Z</time>
      </trkpt>
      <trkpt lat="42.634009" lon="0.655508">
        <ele>3261.9</ele>
        <time>1970-01-01T06:06:23.000Z</time>
      </trkpt>
      <trkpt lat="42.634013" lon="0.655511">
        <ele>3261.9</ele>
        <time>1970-01-01T06:06:24.000Z</time>
      </trkpt>
      <trkpt lat="42.634014" lon="0.655514">
        <ele>3261.9</ele>
        <time>1970-01-01T06:06:26.000Z</time>
      </trkpt>
      <trkpt lat="42.634016" lon="0.655516">
        <ele>3261.9</ele>
        <time>1970-01-01T06:06:27.000Z</time>
      </trkpt>
      <trkpt lat="42.634022" lon="0.655519">
        <ele>3260.8</ele>
        <time>1970-01-01T06:06:28.000Z</time>
      </trkpt>
      <trkpt lat="42.634025" lon="0.655521">
        <ele>3260.8</ele>
        <time>1970-01-01T06:06:29.000Z</time>
      </trkpt>
      <trkpt lat="42.634033" lon="0.655526">
        <ele>3260.8</ele>
        <time>1970-01-01T06:06:31.000Z</time>
      </trkpt>
      <trkpt lat="42.634038" lon="0.655526">
        <ele>3260.8</ele>
        <time>1970-01-01T06:06:32.000Z</time>
      </trkpt>
      <trkpt lat="42.634047" lon="0.655527">
        <ele>3260.8</ele>
        <time>1970-01-01T06:06:34.000Z</time>
      </trkpt>
      <trkpt lat="42.63405" lon="0.655528">
        <ele>3260.8</ele>
        <time>1970-01-01T06:06:35.000Z</time>
      </trkpt>
      <trkpt lat="42.634053" lon="0.655529">
        <ele>3260.8</ele>
        <time>1970-01-01T06:06:36.000Z</time>
      </trkpt>
      <trkpt lat="42.634055" lon="0.65553">
        <ele>3259.7</ele>
        <time>1970-01-01T06:06:37.000Z</time>
      </trkpt>
      <trkpt lat="42.634057" lon="0.655531">
        <ele>3259.7</ele>
        <time>1970-01-01T06:06:38.000Z</time>
      </trkpt>
      <trkpt lat="42.63406" lon="0.655532">
        <ele>3260.3</ele>
        <time>1970-01-01T06:06:39.000Z</time>
      </trkpt>
      <trkpt lat="42.634063" lon="0.655533">
        <ele>3260.3</ele>
        <time>1970-01-01T06:06:40.000Z</time>
      </trkpt>
      <trkpt lat="42.634065" lon="0.655536">
        <ele>3260.3</ele>
        <time>1970-01-01T06:06:41.000Z</time>
      </trkpt>
      <trkpt lat="42.634068" lon="0.655539">
        <ele>3260.3</ele>
        <time>1970-01-01T06:06:42.000Z</time>
      </trkpt>
      <trkpt lat="42.634074" lon="0.655543">
        <ele>3260.3</ele>
        <time>1970-01-01T06:06:44.000Z</time>
      </trkpt>
      <trkpt lat="42.634079" lon="0.655546">
        <ele>3260.3</ele>
        <time>1970-01-01T06:06:45.000Z</time>
      </trkpt>
      <trkpt lat="42.634087" lon="0.655547">
        <ele>3259.1</ele>
        <time>1970-01-01T06:06:47.000Z</time>
      </trkpt>
      <trkpt lat="42.634093" lon="0.655547">
        <ele>3259.1</ele>
        <time>1970-01-01T06:06:48.000Z</time>
      </trkpt>
      <trkpt lat="42.634098" lon="0.655548">
        <ele>3259.1</ele>
        <time>1970-01-01T06:06:49.000Z</time>
      </trkpt>
      <trkpt lat="42.634106" lon="0.655548">
        <ele>3259.1</ele>
        <time>1970-01-01T06:06:51.000Z</time>
      </trkpt>
      <trkpt lat="42.634108" lon="0.655549">
        <ele>3259.1</ele>
        <time>1970-01-01T06:06:52.000Z</time>
      </trkpt>
      <trkpt lat="42.634114" lon="0.655552">
        <ele>3259.1</ele>
        <time>1970-01-01T06:06:54.000Z</time>
      </trkpt>
      <trkpt lat="42.634118" lon="0.655554">
        <ele>3257.9</ele>
        <time>1970-01-01T06:06:55.000Z</time>
      </trkpt>
      <trkpt lat="42.634121" lon="0.655555">
        <ele>3257.9</ele>
        <time>1970-01-01T06:06:56.000Z</time>
      </trkpt>
      <trkpt lat="42.634123" lon="0.655556">
        <ele>3257.9</ele>
        <time>1970-01-01T06:06:57.000Z</time>
      </trkpt>
      <trkpt lat="42.634131" lon="0.655561">
        <ele>3257.9</ele>
        <time>1970-01-01T06:06:59.000Z</time>
      </trkpt>
      <trkpt lat="42.63414" lon="0.655566">
        <ele>3257.9</ele>
        <time>1970-01-01T06:07:00.000Z</time>
      </trkpt>
      <trkpt lat="42.634147" lon="0.655571">
        <ele>3257.9</ele>
        <time>1970-01-01T06:07:01.000Z</time>
      </trkpt>
      <trkpt lat="42.634152" lon="0.655575">
        <ele>3257</ele>
        <time>1970-01-01T06:07:03.000Z</time>
      </trkpt>
      <trkpt lat="42.634152" lon="0.655576">
        <ele>3257</ele>
        <time>1970-01-01T06:07:04.000Z</time>
      </trkpt>
      <trkpt lat="42.634151" lon="0.655577">
        <ele>3257</ele>
        <time>1970-01-01T06:07:05.000Z</time>
      </trkpt>
      <trkpt lat="42.634154" lon="0.655579">
        <ele>3257</ele>
        <time>1970-01-01T06:07:06.000Z</time>
      </trkpt>
      <trkpt lat="42.634157" lon="0.655581">
        <ele>3257</ele>
        <time>1970-01-01T06:07:07.000Z</time>
      </trkpt>
      <trkpt lat="42.634159" lon="0.655582">
        <ele>3257</ele>
        <time>1970-01-01T06:07:08.000Z</time>
      </trkpt>
      <trkpt lat="42.634164" lon="0.655584">
        <ele>3257</ele>
        <time>1970-01-01T06:07:10.000Z</time>
      </trkpt>
      <trkpt lat="42.634166" lon="0.655584">
        <ele>3257</ele>
        <time>1970-01-01T06:07:11.000Z</time>
      </trkpt>
      <trkpt lat="42.634167" lon="0.655583">
        <ele>3257</ele>
        <time>1970-01-01T06:07:12.000Z</time>
      </trkpt>
      <trkpt lat="42.634168" lon="0.655583">
        <ele>3257</ele>
        <time>1970-01-01T06:07:13.000Z</time>
      </trkpt>
      <trkpt lat="42.634168" lon="0.655583">
        <ele>3257</ele>
        <time>1970-01-01T06:07:14.000Z</time>
      </trkpt>
      <trkpt lat="42.634169" lon="0.655583">
        <ele>3257</ele>
        <time>1970-01-01T06:07:15.000Z</time>
      </trkpt>
      <trkpt lat="42.634171" lon="0.655584">
        <ele>3257</ele>
        <time>1970-01-01T06:07:16.000Z</time>
      </trkpt>
      <trkpt lat="42.634173" lon="0.655585">
        <ele>3257</ele>
        <time>1970-01-01T06:07:17.000Z</time>
      </trkpt>
      <trkpt lat="42.634174" lon="0.655587">
        <ele>3257</ele>
        <time>1970-01-01T06:07:18.000Z</time>
      </trkpt>
      <trkpt lat="42.634174" lon="0.655588">
        <ele>3257</ele>
        <time>1970-01-01T06:07:19.000Z</time>
      </trkpt>
      <trkpt lat="42.634174" lon="0.655588">
        <ele>3257</ele>
        <time>1970-01-01T06:07:20.000Z</time>
      </trkpt>
      <trkpt lat="42.634174" lon="0.655589">
        <ele>3257</ele>
        <time>1970-01-01T06:07:21.000Z</time>
      </trkpt>
      <trkpt lat="42.634175" lon="0.65559">
        <ele>3257</ele>
        <time>1970-01-01T06:07:22.000Z</time>
      </trkpt>
      <trkpt lat="42.634175" lon="0.65559">
        <ele>3257</ele>
        <time>1970-01-01T06:07:23.000Z</time>
      </trkpt>
      <trkpt lat="42.634175" lon="0.65559">
        <ele>3257</ele>
        <time>1970-01-01T06:07:24.000Z</time>
      </trkpt>
      <trkpt lat="42.634176" lon="0.655591">
        <ele>3257</ele>
        <time>1970-01-01T06:07:25.000Z</time>
      </trkpt>
      <trkpt lat="42.634176" lon="0.655591">
        <ele>3257</ele>
        <time>1970-01-01T06:07:26.000Z</time>
      </trkpt>
      <trkpt lat="42.634178" lon="0.655591">
        <ele>3257</ele>
        <time>1970-01-01T06:07:27.000Z</time>
      </trkpt>
      <trkpt lat="42.63418" lon="0.655591">
        <ele>3255.6</ele>
        <time>1970-01-01T06:07:29.000Z</time>
      </trkpt>
      <trkpt lat="42.634184" lon="0.655592">
        <ele>3255.6</ele>
        <time>1970-01-01T06:07:30.000Z</time>
      </trkpt>
      <trkpt lat="42.634187" lon="0.655592">
        <ele>3255.6</ele>
        <time>1970-01-01T06:07:31.000Z</time>
      </trkpt>
      <trkpt lat="42.634192" lon="0.655591">
        <ele>3255.6</ele>
        <time>1970-01-01T06:07:32.000Z</time>
      </trkpt>
      <trkpt lat="42.634195" lon="0.655589">
        <ele>3255.6</ele>
        <time>1970-01-01T06:07:33.000Z</time>
      </trkpt>
      <trkpt lat="42.634195" lon="0.655588">
        <ele>3255.6</ele>
        <time>1970-01-01T06:07:34.000Z</time>
      </trkpt>
      <trkpt lat="42.634195" lon="0.655588">
        <ele>3255.6</ele>
        <time>1970-01-01T06:07:35.000Z</time>
      </trkpt>
      <trkpt lat="42.634195" lon="0.655588">
        <ele>3255.6</ele>
        <time>1970-01-01T06:07:36.000Z</time>
      </trkpt>
      <trkpt lat="42.634195" lon="0.655588">
        <ele>3255.6</ele>
        <time>1970-01-01T06:07:37.000Z</time>
      </trkpt>
      <trkpt lat="42.634197" lon="0.655586">
        <ele>3255.6</ele>
        <time>1970-01-01T06:07:38.000Z</time>
      </trkpt>
      <trkpt lat="42.634201" lon="0.655584">
        <ele>3255.6</ele>
        <time>1970-01-01T06:07:40.000Z</time>
      </trkpt>
      <trkpt lat="42.634206" lon="0.655583">
        <ele>3255.6</ele>
        <time>1970-01-01T06:07:41.000Z</time>
      </trkpt>
      <trkpt lat="42.63421" lon="0.655583">
        <ele>3255.6</ele>
        <time>1970-01-01T06:07:42.000Z</time>
      </trkpt>
      <trkpt lat="42.634214" lon="0.655582">
        <ele>3254.1</ele>
        <time>1970-01-01T06:07:43.000Z</time>
      </trkpt>
      <trkpt lat="42.634219" lon="0.655579">
        <ele>3254.1</ele>
        <time>1970-01-01T06:07:44.000Z</time>
      </trkpt>
      <trkpt lat="42.634224" lon="0.655578">
        <ele>3254.1</ele>
        <time>1970-01-01T06:07:45.000Z</time>
      </trkpt>
      <trkpt lat="42.634228" lon="0.655577">
        <ele>3254.1</ele>
        <time>1970-01-01T06:07:46.000Z</time>
      </trkpt>
      <trkpt lat="42.634232" lon="0.655577">
        <ele>3254.1</ele>
        <time>1970-01-01T06:07:47.000Z</time>
      </trkpt>
      <trkpt lat="42.634234" lon="0.655577">
        <ele>3254.1</ele>
        <time>1970-01-01T06:07:48.000Z</time>
      </trkpt>
      <trkpt lat="42.634239" lon="0.655577">
        <ele>3254.1</ele>
        <time>1970-01-01T06:07:49.000Z</time>
      </trkpt>
      <trkpt lat="42.634244" lon="0.655575">
        <ele>3252.7</ele>
        <time>1970-01-01T06:07:50.000Z</time>
      </trkpt>
      <trkpt lat="42.634249" lon="0.655574">
        <ele>3252.6</ele>
        <time>1970-01-01T06:07:52.000Z</time>
      </trkpt>
      <trkpt lat="42.634254" lon="0.655573">
        <ele>3252.6</ele>
        <time>1970-01-01T06:07:53.000Z</time>
      </trkpt>
      <trkpt lat="42.634258" lon="0.655571">
        <ele>3252.6</ele>
        <time>1970-01-01T06:07:54.000Z</time>
      </trkpt>
      <trkpt lat="42.634263" lon="0.65557">
        <ele>3252.6</ele>
        <time>1970-01-01T06:07:55.000Z</time>
      </trkpt>
      <trkpt lat="42.634267" lon="0.655568">
        <ele>3252.6</ele>
        <time>1970-01-01T06:07:56.000Z</time>
      </trkpt>
      <trkpt lat="42.634271" lon="0.655566">
        <ele>3252.6</ele>
        <time>1970-01-01T06:07:57.000Z</time>
      </trkpt>
      <trkpt lat="42.634275" lon="0.655565">
        <ele>3251.3</ele>
        <time>1970-01-01T06:07:58.000Z</time>
      </trkpt>
      <trkpt lat="42.634277" lon="0.655565">
        <ele>3251.3</ele>
        <time>1970-01-01T06:07:59.000Z</time>
      </trkpt>
      <trkpt lat="42.634277" lon="0.655566">
        <ele>3251.3</ele>
        <time>1970-01-01T06:08:00.000Z</time>
      </trkpt>
      <trkpt lat="42.634277" lon="0.655567">
        <ele>3251.3</ele>
        <time>1970-01-01T06:08:01.000Z</time>
      </trkpt>
      <trkpt lat="42.634278" lon="0.655568">
        <ele>3251.3</ele>
        <time>1970-01-01T06:08:02.000Z</time>
      </trkpt>
      <trkpt lat="42.634277" lon="0.655569">
        <ele>3251.3</ele>
        <time>1970-01-01T06:08:03.000Z</time>
      </trkpt>
      <trkpt lat="42.634277" lon="0.655569">
        <ele>3251.3</ele>
        <time>1970-01-01T06:08:04.000Z</time>
      </trkpt>
      <trkpt lat="42.634278" lon="0.65557">
        <ele>3251.3</ele>
        <time>1970-01-01T06:08:05.000Z</time>
      </trkpt>
      <trkpt lat="42.634278" lon="0.655569">
        <ele>3251.3</ele>
        <time>1970-01-01T06:08:06.000Z</time>
      </trkpt>
      <trkpt lat="42.634278" lon="0.655569">
        <ele>3251.3</ele>
        <time>1970-01-01T06:08:07.000Z</time>
      </trkpt>
      <trkpt lat="42.634278" lon="0.655569">
        <ele>3251.3</ele>
        <time>1970-01-01T06:08:08.000Z</time>
      </trkpt>
      <trkpt lat="42.634278" lon="0.655568">
        <ele>3251.3</ele>
        <time>1970-01-01T06:08:09.000Z</time>
      </trkpt>
      <trkpt lat="42.634278" lon="0.655569">
        <ele>3251.3</ele>
        <time>1970-01-01T06:08:10.000Z</time>
      </trkpt>
      <trkpt lat="42.634278" lon="0.655568">
        <ele>3251.3</ele>
        <time>1970-01-01T06:08:11.000Z</time>
      </trkpt>
      <trkpt lat="42.634278" lon="0.655568">
        <ele>3251.3</ele>
        <time>1970-01-01T06:08:12.000Z</time>
      </trkpt>
      <trkpt lat="42.634279" lon="0.655568">
        <ele>3251.3</ele>
        <time>1970-01-01T06:08:13.000Z</time>
      </trkpt>
      <trkpt lat="42.634278" lon="0.655568">
        <ele>3251.3</ele>
        <time>1970-01-01T06:08:14.000Z</time>
      </trkpt>
      <trkpt lat="42.634278" lon="0.655568">
        <ele>3251.3</ele>
        <time>1970-01-01T06:08:15.000Z</time>
      </trkpt>
      <trkpt lat="42.634275" lon="0.655568">
        <ele>3251.3</ele>
        <time>1970-01-01T06:08:16.000Z</time>
      </trkpt>
      <trkpt lat="42.634273" lon="0.655568">
        <ele>3252.6</ele>
        <time>1970-01-01T06:08:17.000Z</time>
      </trkpt>
      <trkpt lat="42.634272" lon="0.655568">
        <ele>3252.6</ele>
        <time>1970-01-01T06:08:18.000Z</time>
      </trkpt>
      <trkpt lat="42.634277" lon="0.655566">
        <ele>3251.3</ele>
        <time>1970-01-01T06:08:19.000Z</time>
      </trkpt>
      <trkpt lat="42.634281" lon="0.655563">
        <ele>3251.3</ele>
        <time>1970-01-01T06:08:20.000Z</time>
      </trkpt>
      <trkpt lat="42.634286" lon="0.655561">
        <ele>3251.3</ele>
        <time>1970-01-01T06:08:21.000Z</time>
      </trkpt>
      <trkpt lat="42.634291" lon="0.655561">
        <ele>3251.3</ele>
        <time>1970-01-01T06:08:22.000Z</time>
      </trkpt>
      <trkpt lat="42.634296" lon="0.655561">
        <ele>3251.3</ele>
        <time>1970-01-01T06:08:23.000Z</time>
      </trkpt>
      <trkpt lat="42.6343" lon="0.655562">
        <ele>3251.3</ele>
        <time>1970-01-01T06:08:24.000Z</time>
      </trkpt>
      <trkpt lat="42.634307" lon="0.655562">
        <ele>3250</ele>
        <time>1970-01-01T06:08:26.000Z</time>
      </trkpt>
      <trkpt lat="42.634313" lon="0.65556">
        <ele>3250</ele>
        <time>1970-01-01T06:08:27.000Z</time>
      </trkpt>
      <trkpt lat="42.63432" lon="0.655558">
        <ele>3250</ele>
        <time>1970-01-01T06:08:28.000Z</time>
      </trkpt>
      <trkpt lat="42.634326" lon="0.655555">
        <ele>3250</ele>
        <time>1970-01-01T06:08:29.000Z</time>
      </trkpt>
      <trkpt lat="42.634333" lon="0.655553">
        <ele>3250</ele>
        <time>1970-01-01T06:08:30.000Z</time>
      </trkpt>
      <trkpt lat="42.634348" lon="0.655551">
        <ele>3248.7</ele>
        <time>1970-01-01T06:08:31.000Z</time>
      </trkpt>
      <trkpt lat="42.634355" lon="0.65555">
        <ele>3248.7</ele>
        <time>1970-01-01T06:08:32.000Z</time>
      </trkpt>
      <trkpt lat="42.634362" lon="0.655549">
        <ele>3248.7</ele>
        <time>1970-01-01T06:08:34.000Z</time>
      </trkpt>
      <trkpt lat="42.63437" lon="0.655548">
        <ele>3247.2</ele>
        <time>1970-01-01T06:08:35.000Z</time>
      </trkpt>
      <trkpt lat="42.634379" lon="0.655547">
        <ele>3247.2</ele>
        <time>1970-01-01T06:08:36.000Z</time>
      </trkpt>
      <trkpt lat="42.634388" lon="0.655546">
        <ele>3247.2</ele>
        <time>1970-01-01T06:08:37.000Z</time>
      </trkpt>
      <trkpt lat="42.634396" lon="0.655544">
        <ele>3247.2</ele>
        <time>1970-01-01T06:08:39.000Z</time>
      </trkpt>
      <trkpt lat="42.634403" lon="0.655541">
        <ele>3245.4</ele>
        <time>1970-01-01T06:08:40.000Z</time>
      </trkpt>
      <trkpt lat="42.634416" lon="0.655535">
        <ele>3245.4</ele>
        <time>1970-01-01T06:08:41.000Z</time>
      </trkpt>
      <trkpt lat="42.634424" lon="0.655532">
        <ele>3245.4</ele>
        <time>1970-01-01T06:08:43.000Z</time>
      </trkpt>
      <trkpt lat="42.634432" lon="0.655532">
        <ele>3245.4</ele>
        <time>1970-01-01T06:08:44.000Z</time>
      </trkpt>
      <trkpt lat="42.634437" lon="0.655534">
        <ele>3243.5</ele>
        <time>1970-01-01T06:08:45.000Z</time>
      </trkpt>
      <trkpt lat="42.634448" lon="0.655536">
        <ele>3243.5</ele>
        <time>1970-01-01T06:08:47.000Z</time>
      </trkpt>
      <trkpt lat="42.634455" lon="0.655535">
        <ele>3243.5</ele>
        <time>1970-01-01T06:08:48.000Z</time>
      </trkpt>
      <trkpt lat="42.634465" lon="0.655535">
        <ele>3241.5</ele>
        <time>1970-01-01T06:08:49.000Z</time>
      </trkpt>
      <trkpt lat="42.634476" lon="0.655534">
        <ele>3241.5</ele>
        <time>1970-01-01T06:08:51.000Z</time>
      </trkpt>
      <trkpt lat="42.634481" lon="0.655533">
        <ele>3241.5</ele>
        <time>1970-01-01T06:08:52.000Z</time>
      </trkpt>
      <trkpt lat="42.634489" lon="0.655532">
        <ele>3241.5</ele>
        <time>1970-01-01T06:08:53.000Z</time>
      </trkpt>
      <trkpt lat="42.634497" lon="0.655528">
        <ele>3239.6</ele>
        <time>1970-01-01T06:08:54.000Z</time>
      </trkpt>
      <trkpt lat="42.634507" lon="0.655525">
        <ele>3239.6</ele>
        <time>1970-01-01T06:08:56.000Z</time>
      </trkpt>
      <trkpt lat="42.634514" lon="0.655527">
        <ele>3239.6</ele>
        <time>1970-01-01T06:08:58.000Z</time>
      </trkpt>
      <trkpt lat="42.634523" lon="0.655528">
        <ele>3239.6</ele>
        <time>1970-01-01T06:08:59.000Z</time>
      </trkpt>
      <trkpt lat="42.634529" lon="0.655527">
        <ele>3237.8</ele>
        <time>1970-01-01T06:09:00.000Z</time>
      </trkpt>
      <trkpt lat="42.634533" lon="0.655524">
        <ele>3237.8</ele>
        <time>1970-01-01T06:09:01.000Z</time>
      </trkpt>
      <trkpt lat="42.634538" lon="0.655522">
        <ele>3237.8</ele>
        <time>1970-01-01T06:09:02.000Z</time>
      </trkpt>
      <trkpt lat="42.634544" lon="0.655521">
        <ele>3237.8</ele>
        <time>1970-01-01T06:09:03.000Z</time>
      </trkpt>
      <trkpt lat="42.63455" lon="0.65552">
        <ele>3237.8</ele>
        <time>1970-01-01T06:09:04.000Z</time>
      </trkpt>
      <trkpt lat="42.634555" lon="0.655519">
        <ele>3237.8</ele>
        <time>1970-01-01T06:09:05.000Z</time>
      </trkpt>
      <trkpt lat="42.634565" lon="0.655519">
        <ele>3236</ele>
        <time>1970-01-01T06:09:06.000Z</time>
      </trkpt>
      <trkpt lat="42.63458" lon="0.655516">
        <ele>3236</ele>
        <time>1970-01-01T06:09:08.000Z</time>
      </trkpt>
      <trkpt lat="42.634588" lon="0.655512">
        <ele>3236</ele>
        <time>1970-01-01T06:09:09.000Z</time>
      </trkpt>
      <trkpt lat="42.634595" lon="0.65551">
        <ele>3234.1</ele>
        <time>1970-01-01T06:09:11.000Z</time>
      </trkpt>
      <trkpt lat="42.634604" lon="0.655509">
        <ele>3234.1</ele>
        <time>1970-01-01T06:09:12.000Z</time>
      </trkpt>
      <trkpt lat="42.634607" lon="0.655508">
        <ele>3234.1</ele>
        <time>1970-01-01T06:09:13.000Z</time>
      </trkpt>
      <trkpt lat="42.634609" lon="0.655505">
        <ele>3234.1</ele>
        <time>1970-01-01T06:09:15.000Z</time>
      </trkpt>
      <trkpt lat="42.634611" lon="0.655502">
        <ele>3234.1</ele>
        <time>1970-01-01T06:09:16.000Z</time>
      </trkpt>
      <trkpt lat="42.634612" lon="0.655501">
        <ele>3234.1</ele>
        <time>1970-01-01T06:09:17.000Z</time>
      </trkpt>
      <trkpt lat="42.63461" lon="0.655501">
        <ele>3234.1</ele>
        <time>1970-01-01T06:09:18.000Z</time>
      </trkpt>
      <trkpt lat="42.634608" lon="0.655502">
        <ele>3234.1</ele>
        <time>1970-01-01T06:09:19.000Z</time>
      </trkpt>
      <trkpt lat="42.634608" lon="0.655501">
        <ele>3234.1</ele>
        <time>1970-01-01T06:09:20.000Z</time>
      </trkpt>
      <trkpt lat="42.63461" lon="0.6555">
        <ele>3234.1</ele>
        <time>1970-01-01T06:09:21.000Z</time>
      </trkpt>
      <trkpt lat="42.634616" lon="0.655497">
        <ele>3234.1</ele>
        <time>1970-01-01T06:09:22.000Z</time>
      </trkpt>
      <trkpt lat="42.634623" lon="0.655493">
        <ele>3232.1</ele>
        <time>1970-01-01T06:09:24.000Z</time>
      </trkpt>
      <trkpt lat="42.634628" lon="0.655488">
        <ele>3232.2</ele>
        <time>1970-01-01T06:09:25.000Z</time>
      </trkpt>
      <trkpt lat="42.634635" lon="0.655483">
        <ele>3232.2</ele>
        <time>1970-01-01T06:09:26.000Z</time>
      </trkpt>
      <trkpt lat="42.634641" lon="0.655479">
        <ele>3232.2</ele>
        <time>1970-01-01T06:09:27.000Z</time>
      </trkpt>
      <trkpt lat="42.634648" lon="0.655475">
        <ele>3232.2</ele>
        <time>1970-01-01T06:09:28.000Z</time>
      </trkpt>
      <trkpt lat="42.634655" lon="0.655473">
        <ele>3230</ele>
        <time>1970-01-01T06:09:29.000Z</time>
      </trkpt>
      <trkpt lat="42.634663" lon="0.655471">
        <ele>3230</ele>
        <time>1970-01-01T06:09:30.000Z</time>
      </trkpt>
      <trkpt lat="42.634671" lon="0.655469">
        <ele>3230</ele>
        <time>1970-01-01T06:09:32.000Z</time>
      </trkpt>
      <trkpt lat="42.634675" lon="0.655469">
        <ele>3230</ele>
        <time>1970-01-01T06:09:33.000Z</time>
      </trkpt>
      <trkpt lat="42.63468" lon="0.655469">
        <ele>3230</ele>
        <time>1970-01-01T06:09:34.000Z</time>
      </trkpt>
      <trkpt lat="42.634689" lon="0.655471">
        <ele>3227.6</ele>
        <time>1970-01-01T06:09:35.000Z</time>
      </trkpt>
      <trkpt lat="42.6347" lon="0.655471">
        <ele>3227.6</ele>
        <time>1970-01-01T06:09:37.000Z</time>
      </trkpt>
      <trkpt lat="42.634706" lon="0.655468">
        <ele>3227.6</ele>
        <time>1970-01-01T06:09:38.000Z</time>
      </trkpt>
      <trkpt lat="42.63471" lon="0.655464">
        <ele>3227.6</ele>
        <time>1970-01-01T06:09:39.000Z</time>
      </trkpt>
      <trkpt lat="42.634716" lon="0.65546">
        <ele>3227.6</ele>
        <time>1970-01-01T06:09:40.000Z</time>
      </trkpt>
      <trkpt lat="42.634726" lon="0.655454">
        <ele>3225.2</ele>
        <time>1970-01-01T06:09:42.000Z</time>
      </trkpt>
      <trkpt lat="42.634732" lon="0.65545">
        <ele>3225.2</ele>
        <time>1970-01-01T06:09:43.000Z</time>
      </trkpt>
      <trkpt lat="42.634739" lon="0.655443">
        <ele>3225.3</ele>
        <time>1970-01-01T06:09:45.000Z</time>
      </trkpt>
      <trkpt lat="42.634747" lon="0.655435">
        <ele>3225.3</ele>
        <time>1970-01-01T06:09:46.000Z</time>
      </trkpt>
      <trkpt lat="42.634752" lon="0.655428">
        <ele>3223</ele>
        <time>1970-01-01T06:09:47.000Z</time>
      </trkpt>
      <trkpt lat="42.634756" lon="0.655422">
        <ele>3223</ele>
        <time>1970-01-01T06:09:48.000Z</time>
      </trkpt>
      <trkpt lat="42.634763" lon="0.655413">
        <ele>3223</ele>
        <time>1970-01-01T06:09:49.000Z</time>
      </trkpt>
      <trkpt lat="42.63477" lon="0.655404">
        <ele>3223</ele>
        <time>1970-01-01T06:09:51.000Z</time>
      </trkpt>
      <trkpt lat="42.634778" lon="0.655395">
        <ele>3223.1</ele>
        <time>1970-01-01T06:09:52.000Z</time>
      </trkpt>
      <trkpt lat="42.634786" lon="0.655384">
        <ele>3220.9</ele>
        <time>1970-01-01T06:09:53.000Z</time>
      </trkpt>
      <trkpt lat="42.634793" lon="0.655377">
        <ele>3220.9</ele>
        <time>1970-01-01T06:09:55.000Z</time>
      </trkpt>
      <trkpt lat="42.634799" lon="0.65537">
        <ele>3220.9</ele>
        <time>1970-01-01T06:09:56.000Z</time>
      </trkpt>
      <trkpt lat="42.634806" lon="0.655361">
        <ele>3220.9</ele>
        <time>1970-01-01T06:09:57.000Z</time>
      </trkpt>
      <trkpt lat="42.634813" lon="0.655352">
        <ele>3219</ele>
        <time>1970-01-01T06:09:59.000Z</time>
      </trkpt>
      <trkpt lat="42.634819" lon="0.655343">
        <ele>3219</ele>
        <time>1970-01-01T06:10:00.000Z</time>
      </trkpt>
      <trkpt lat="42.634823" lon="0.655332">
        <ele>3219</ele>
        <time>1970-01-01T06:10:01.000Z</time>
      </trkpt>
      <trkpt lat="42.634828" lon="0.655325">
        <ele>3219</ele>
        <time>1970-01-01T06:10:02.000Z</time>
      </trkpt>
      <trkpt lat="42.634834" lon="0.655319">
        <ele>3219</ele>
        <time>1970-01-01T06:10:03.000Z</time>
      </trkpt>
      <trkpt lat="42.634841" lon="0.655313">
        <ele>3219.2</ele>
        <time>1970-01-01T06:10:04.000Z</time>
      </trkpt>
      <trkpt lat="42.634849" lon="0.655306">
        <ele>3217.2</ele>
        <time>1970-01-01T06:10:05.000Z</time>
      </trkpt>
      <trkpt lat="42.634853" lon="0.655304">
        <ele>3217.2</ele>
        <time>1970-01-01T06:10:06.000Z</time>
      </trkpt>
      <trkpt lat="42.634857" lon="0.655302">
        <ele>3217.2</ele>
        <time>1970-01-01T06:10:07.000Z</time>
      </trkpt>
      <trkpt lat="42.634861" lon="0.655301">
        <ele>3217.2</ele>
        <time>1970-01-01T06:10:09.000Z</time>
      </trkpt>
      <trkpt lat="42.634864" lon="0.655299">
        <ele>3217.2</ele>
        <time>1970-01-01T06:10:11.000Z</time>
      </trkpt>
      <trkpt lat="42.634868" lon="0.655297">
        <ele>3217.2</ele>
        <time>1970-01-01T06:10:12.000Z</time>
      </trkpt>
      <trkpt lat="42.634872" lon="0.655295">
        <ele>3217.2</ele>
        <time>1970-01-01T06:10:13.000Z</time>
      </trkpt>
      <trkpt lat="42.634876" lon="0.655293">
        <ele>3215.2</ele>
        <time>1970-01-01T06:10:14.000Z</time>
      </trkpt>
      <trkpt lat="42.63488" lon="0.655292">
        <ele>3215.2</ele>
        <time>1970-01-01T06:10:16.000Z</time>
      </trkpt>
      <trkpt lat="42.634883" lon="0.65529">
        <ele>3215.2</ele>
        <time>1970-01-01T06:10:17.000Z</time>
      </trkpt>
      <trkpt lat="42.634887" lon="0.655288">
        <ele>3215.2</ele>
        <time>1970-01-01T06:10:18.000Z</time>
      </trkpt>
      <trkpt lat="42.634891" lon="0.655286">
        <ele>3215.2</ele>
        <time>1970-01-01T06:10:19.000Z</time>
      </trkpt>
      <trkpt lat="42.634895" lon="0.655284">
        <ele>3215.2</ele>
        <time>1970-01-01T06:10:21.000Z</time>
      </trkpt>
      <trkpt lat="42.634898" lon="0.655282">
        <ele>3215.2</ele>
        <time>1970-01-01T06:10:22.000Z</time>
      </trkpt>
      <trkpt lat="42.634904" lon="0.655285">
        <ele>3215.2</ele>
        <time>1970-01-01T06:10:23.000Z</time>
      </trkpt>
      <trkpt lat="42.63491" lon="0.655286">
        <ele>3213</ele>
        <time>1970-01-01T06:10:24.000Z</time>
      </trkpt>
      <trkpt lat="42.634918" lon="0.655289">
        <ele>3213</ele>
        <time>1970-01-01T06:10:25.000Z</time>
      </trkpt>
      <trkpt lat="42.634921" lon="0.655293">
        <ele>3213</ele>
        <time>1970-01-01T06:10:27.000Z</time>
      </trkpt>
      <trkpt lat="42.634919" lon="0.655293">
        <ele>3213</ele>
        <time>1970-01-01T06:10:28.000Z</time>
      </trkpt>
      <trkpt lat="42.634917" lon="0.655293">
        <ele>3213</ele>
        <time>1970-01-01T06:10:29.000Z</time>
      </trkpt>
      <trkpt lat="42.634915" lon="0.655293">
        <ele>3213</ele>
        <time>1970-01-01T06:10:30.000Z</time>
      </trkpt>
      <trkpt lat="42.634914" lon="0.655293">
        <ele>3213</ele>
        <time>1970-01-01T06:10:31.000Z</time>
      </trkpt>
      <trkpt lat="42.634913" lon="0.655293">
        <ele>3213</ele>
        <time>1970-01-01T06:10:32.000Z</time>
      </trkpt>
      <trkpt lat="42.634913" lon="0.655294">
        <ele>3213</ele>
        <time>1970-01-01T06:10:33.000Z</time>
      </trkpt>
      <trkpt lat="42.634913" lon="0.655294">
        <ele>3213</ele>
        <time>1970-01-01T06:10:34.000Z</time>
      </trkpt>
      <trkpt lat="42.634912" lon="0.655295">
        <ele>3213</ele>
        <time>1970-01-01T06:10:35.000Z</time>
      </trkpt>
      <trkpt lat="42.634912" lon="0.655295">
        <ele>3213</ele>
        <time>1970-01-01T06:10:36.000Z</time>
      </trkpt>
      <trkpt lat="42.634911" lon="0.655296">
        <ele>3213</ele>
        <time>1970-01-01T06:10:37.000Z</time>
      </trkpt>
      <trkpt lat="42.634911" lon="0.655296">
        <ele>3213</ele>
        <time>1970-01-01T06:10:38.000Z</time>
      </trkpt>
      <trkpt lat="42.634911" lon="0.655296">
        <ele>3213</ele>
        <time>1970-01-01T06:10:39.000Z</time>
      </trkpt>
      <trkpt lat="42.634911" lon="0.655296">
        <ele>3213</ele>
        <time>1970-01-01T06:10:40.000Z</time>
      </trkpt>
      <trkpt lat="42.634911" lon="0.655296">
        <ele>3213</ele>
        <time>1970-01-01T06:10:41.000Z</time>
      </trkpt>
      <trkpt lat="42.634911" lon="0.655296">
        <ele>3213</ele>
        <time>1970-01-01T06:10:42.000Z</time>
      </trkpt>
      <trkpt lat="42.634911" lon="0.655297">
        <ele>3213</ele>
        <time>1970-01-01T06:10:43.000Z</time>
      </trkpt>
      <trkpt lat="42.634911" lon="0.655296">
        <ele>3213</ele>
        <time>1970-01-01T06:10:44.000Z</time>
      </trkpt>
      <trkpt lat="42.63491" lon="0.655296">
        <ele>3213</ele>
        <time>1970-01-01T06:10:45.000Z</time>
      </trkpt>
      <trkpt lat="42.63491" lon="0.655297">
        <ele>3213</ele>
        <time>1970-01-01T06:10:46.000Z</time>
      </trkpt>
      <trkpt lat="42.63491" lon="0.655297">
        <ele>3213</ele>
        <time>1970-01-01T06:10:47.000Z</time>
      </trkpt>
      <trkpt lat="42.63491" lon="0.655296">
        <ele>3213</ele>
        <time>1970-01-01T06:10:48.000Z</time>
      </trkpt>
      <trkpt lat="42.63491" lon="0.655296">
        <ele>3213</ele>
        <time>1970-01-01T06:10:49.000Z</time>
      </trkpt>
      <trkpt lat="42.634911" lon="0.655296">
        <ele>3213</ele>
        <time>1970-01-01T06:10:50.000Z</time>
      </trkpt>
      <trkpt lat="42.63491" lon="0.655297">
        <ele>3213</ele>
        <time>1970-01-01T06:10:51.000Z</time>
      </trkpt>
      <trkpt lat="42.634909" lon="0.655301">
        <ele>3213</ele>
        <time>1970-01-01T06:10:53.000Z</time>
      </trkpt>
      <trkpt lat="42.634909" lon="0.655306">
        <ele>3213</ele>
        <time>1970-01-01T06:10:54.000Z</time>
      </trkpt>
      <trkpt lat="42.634915" lon="0.655312">
        <ele>3213</ele>
        <time>1970-01-01T06:10:56.000Z</time>
      </trkpt>
      <trkpt lat="42.634928" lon="0.655316">
        <ele>3213</ele>
        <time>1970-01-01T06:10:57.000Z</time>
      </trkpt>
      <trkpt lat="42.634942" lon="0.655322">
        <ele>3210.5</ele>
        <time>1970-01-01T06:10:59.000Z</time>
      </trkpt>
      <trkpt lat="42.634943" lon="0.655323">
        <ele>3210.5</ele>
        <time>1970-01-01T06:11:00.000Z</time>
      </trkpt>
      <trkpt lat="42.634944" lon="0.655325">
        <ele>3210.5</ele>
        <time>1970-01-01T06:11:01.000Z</time>
      </trkpt>
      <trkpt lat="42.634944" lon="0.655326">
        <ele>3210.5</ele>
        <time>1970-01-01T06:11:02.000Z</time>
      </trkpt>
      <trkpt lat="42.634945" lon="0.655327">
        <ele>3210.5</ele>
        <time>1970-01-01T06:11:03.000Z</time>
      </trkpt>
      <trkpt lat="42.634945" lon="0.655328">
        <ele>3210.5</ele>
        <time>1970-01-01T06:11:04.000Z</time>
      </trkpt>
      <trkpt lat="42.634945" lon="0.65533">
        <ele>3210.5</ele>
        <time>1970-01-01T06:11:05.000Z</time>
      </trkpt>
      <trkpt lat="42.634946" lon="0.655331">
        <ele>3210.5</ele>
        <time>1970-01-01T06:11:06.000Z</time>
      </trkpt>
      <trkpt lat="42.634946" lon="0.655331">
        <ele>3210.5</ele>
        <time>1970-01-01T06:11:07.000Z</time>
      </trkpt>
      <trkpt lat="42.634947" lon="0.655332">
        <ele>3210.5</ele>
        <time>1970-01-01T06:11:08.000Z</time>
      </trkpt>
      <trkpt lat="42.634947" lon="0.655333">
        <ele>3210.5</ele>
        <time>1970-01-01T06:11:09.000Z</time>
      </trkpt>
      <trkpt lat="42.634947" lon="0.655334">
        <ele>3210.5</ele>
        <time>1970-01-01T06:11:10.000Z</time>
      </trkpt>
      <trkpt lat="42.634948" lon="0.655335">
        <ele>3210.5</ele>
        <time>1970-01-01T06:11:11.000Z</time>
      </trkpt>
      <trkpt lat="42.634948" lon="0.655334">
        <ele>3210.5</ele>
        <time>1970-01-01T06:11:12.000Z</time>
      </trkpt>
      <trkpt lat="42.634949" lon="0.655334">
        <ele>3210.5</ele>
        <time>1970-01-01T06:11:13.000Z</time>
      </trkpt>
      <trkpt lat="42.634949" lon="0.655334">
        <ele>3210.5</ele>
        <time>1970-01-01T06:11:14.000Z</time>
      </trkpt>
      <trkpt lat="42.634946" lon="0.655328">
        <ele>3210.5</ele>
        <time>1970-01-01T06:11:15.000Z</time>
      </trkpt>
      <trkpt lat="42.634945" lon="0.655324">
        <ele>3210.5</ele>
        <time>1970-01-01T06:11:16.000Z</time>
      </trkpt>
      <trkpt lat="42.634944" lon="0.655322">
        <ele>3210.5</ele>
        <time>1970-01-01T06:11:17.000Z</time>
      </trkpt>
      <trkpt lat="42.634943" lon="0.655321">
        <ele>3210.5</ele>
        <time>1970-01-01T06:11:18.000Z</time>
      </trkpt>
      <trkpt lat="42.634945" lon="0.65532">
        <ele>3210.5</ele>
        <time>1970-01-01T06:11:19.000Z</time>
      </trkpt>
      <trkpt lat="42.634948" lon="0.655319">
        <ele>3210.5</ele>
        <time>1970-01-01T06:11:20.000Z</time>
      </trkpt>
      <trkpt lat="42.634951" lon="0.655319">
        <ele>3210.5</ele>
        <time>1970-01-01T06:11:21.000Z</time>
      </trkpt>
      <trkpt lat="42.634956" lon="0.655318">
        <ele>3210.5</ele>
        <time>1970-01-01T06:11:22.000Z</time>
      </trkpt>
      <trkpt lat="42.634961" lon="0.655321">
        <ele>3210.5</ele>
        <time>1970-01-01T06:11:23.000Z</time>
      </trkpt>
      <trkpt lat="42.634965" lon="0.655321">
        <ele>3210.5</ele>
        <time>1970-01-01T06:11:24.000Z</time>
      </trkpt>
      <trkpt lat="42.634972" lon="0.655318">
        <ele>3208.2</ele>
        <time>1970-01-01T06:11:25.000Z</time>
      </trkpt>
      <trkpt lat="42.634978" lon="0.655313">
        <ele>3208.5</ele>
        <time>1970-01-01T06:11:26.000Z</time>
      </trkpt>
      <trkpt lat="42.634989" lon="0.655303">
        <ele>3208.5</ele>
        <time>1970-01-01T06:11:28.000Z</time>
      </trkpt>
      <trkpt lat="42.634996" lon="0.655297">
        <ele>3208.5</ele>
        <time>1970-01-01T06:11:29.000Z</time>
      </trkpt>
      <trkpt lat="42.635003" lon="0.655292">
        <ele>3206.3</ele>
        <time>1970-01-01T06:11:30.000Z</time>
      </trkpt>
      <trkpt lat="42.635011" lon="0.655286">
        <ele>3206.3</ele>
        <time>1970-01-01T06:11:32.000Z</time>
      </trkpt>
      <trkpt lat="42.635018" lon="0.65528">
        <ele>3206.3</ele>
        <time>1970-01-01T06:11:33.000Z</time>
      </trkpt>
      <trkpt lat="42.635026" lon="0.655274">
        <ele>3206.6</ele>
        <time>1970-01-01T06:11:34.000Z</time>
      </trkpt>
      <trkpt lat="42.635033" lon="0.655268">
        <ele>3204.7</ele>
        <time>1970-01-01T06:11:35.000Z</time>
      </trkpt>
      <trkpt lat="42.635039" lon="0.655261">
        <ele>3204.7</ele>
        <time>1970-01-01T06:11:37.000Z</time>
      </trkpt>
      <trkpt lat="42.635047" lon="0.655258">
        <ele>3204.7</ele>
        <time>1970-01-01T06:11:38.000Z</time>
      </trkpt>
      <trkpt lat="42.635053" lon="0.655257">
        <ele>3204.7</ele>
        <time>1970-01-01T06:11:39.000Z</time>
      </trkpt>
      <trkpt lat="42.635057" lon="0.655256">
        <ele>3204.7</ele>
        <time>1970-01-01T06:11:40.000Z</time>
      </trkpt>
      <trkpt lat="42.635062" lon="0.655255">
        <ele>3204.7</ele>
        <time>1970-01-01T06:11:41.000Z</time>
      </trkpt>
      <trkpt lat="42.635068" lon="0.655254">
        <ele>3202.8</ele>
        <time>1970-01-01T06:11:43.000Z</time>
      </trkpt>
      <trkpt lat="42.635076" lon="0.655253">
        <ele>3202.8</ele>
        <time>1970-01-01T06:11:44.000Z</time>
      </trkpt>
      <trkpt lat="42.635086" lon="0.655253">
        <ele>3202.8</ele>
        <time>1970-01-01T06:11:45.000Z</time>
      </trkpt>
      <trkpt lat="42.635096" lon="0.655251">
        <ele>3201.1</ele>
        <time>1970-01-01T06:11:47.000Z</time>
      </trkpt>
      <trkpt lat="42.635103" lon="0.655251">
        <ele>3201.1</ele>
        <time>1970-01-01T06:11:48.000Z</time>
      </trkpt>
      <trkpt lat="42.635109" lon="0.655251">
        <ele>3201.1</ele>
        <time>1970-01-01T06:11:49.000Z</time>
      </trkpt>
      <trkpt lat="42.635114" lon="0.65525">
        <ele>3201.1</ele>
        <time>1970-01-01T06:11:50.000Z</time>
      </trkpt>
      <trkpt lat="42.635117" lon="0.655244">
        <ele>3201.1</ele>
        <time>1970-01-01T06:11:51.000Z</time>
      </trkpt>
      <trkpt lat="42.635119" lon="0.655238">
        <ele>3201.1</ele>
        <time>1970-01-01T06:11:53.000Z</time>
      </trkpt>
      <trkpt lat="42.635122" lon="0.655233">
        <ele>3201.1</ele>
        <time>1970-01-01T06:11:54.000Z</time>
      </trkpt>
      <trkpt lat="42.635124" lon="0.65523">
        <ele>3201.5</ele>
        <time>1970-01-01T06:11:55.000Z</time>
      </trkpt>
      <trkpt lat="42.635126" lon="0.655226">
        <ele>3201.5</ele>
        <time>1970-01-01T06:11:56.000Z</time>
      </trkpt>
      <trkpt lat="42.635128" lon="0.655221">
        <ele>3199.8</ele>
        <time>1970-01-01T06:11:57.000Z</time>
      </trkpt>
      <trkpt lat="42.63513" lon="0.655215">
        <ele>3199.8</ele>
        <time>1970-01-01T06:11:58.000Z</time>
      </trkpt>
      <trkpt lat="42.635134" lon="0.655205">
        <ele>3199.8</ele>
        <time>1970-01-01T06:11:59.000Z</time>
      </trkpt>
      <trkpt lat="42.635137" lon="0.655194">
        <ele>3199.8</ele>
        <time>1970-01-01T06:12:01.000Z</time>
      </trkpt>
      <trkpt lat="42.635142" lon="0.655183">
        <ele>3200.2</ele>
        <time>1970-01-01T06:12:02.000Z</time>
      </trkpt>
      <trkpt lat="42.635148" lon="0.655175">
        <ele>3200.2</ele>
        <time>1970-01-01T06:12:03.000Z</time>
      </trkpt>
      <trkpt lat="42.635156" lon="0.655166">
        <ele>3200.2</ele>
        <time>1970-01-01T06:12:05.000Z</time>
      </trkpt>
      <trkpt lat="42.635164" lon="0.655162">
        <ele>3198.5</ele>
        <time>1970-01-01T06:12:06.000Z</time>
      </trkpt>
      <trkpt lat="42.635171" lon="0.655162">
        <ele>3198.5</ele>
        <time>1970-01-01T06:12:07.000Z</time>
      </trkpt>
      <trkpt lat="42.63518" lon="0.65516">
        <ele>3198.5</ele>
        <time>1970-01-01T06:12:09.000Z</time>
      </trkpt>
      <trkpt lat="42.635187" lon="0.65516">
        <ele>3198.5</ele>
        <time>1970-01-01T06:12:10.000Z</time>
      </trkpt>
      <trkpt lat="42.635191" lon="0.655159">
        <ele>3196.7</ele>
        <time>1970-01-01T06:12:11.000Z</time>
      </trkpt>
      <trkpt lat="42.635196" lon="0.655159">
        <ele>3196.7</ele>
        <time>1970-01-01T06:12:13.000Z</time>
      </trkpt>
      <trkpt lat="42.635201" lon="0.655161">
        <ele>3196.7</ele>
        <time>1970-01-01T06:12:14.000Z</time>
      </trkpt>
      <trkpt lat="42.635206" lon="0.655162">
        <ele>3196.7</ele>
        <time>1970-01-01T06:12:16.000Z</time>
      </trkpt>
      <trkpt lat="42.635214" lon="0.655162">
        <ele>3196.7</ele>
        <time>1970-01-01T06:12:17.000Z</time>
      </trkpt>
      <trkpt lat="42.635221" lon="0.655161">
        <ele>3196.7</ele>
        <time>1970-01-01T06:12:18.000Z</time>
      </trkpt>
      <trkpt lat="42.63523" lon="0.655157">
        <ele>3194.8</ele>
        <time>1970-01-01T06:12:19.000Z</time>
      </trkpt>
      <trkpt lat="42.635239" lon="0.655152">
        <ele>3194.8</ele>
        <time>1970-01-01T06:12:20.000Z</time>
      </trkpt>
      <trkpt lat="42.635251" lon="0.655147">
        <ele>3194.8</ele>
        <time>1970-01-01T06:12:22.000Z</time>
      </trkpt>
      <trkpt lat="42.635258" lon="0.655142">
        <ele>3193.5</ele>
        <time>1970-01-01T06:12:23.000Z</time>
      </trkpt>
      <trkpt lat="42.635263" lon="0.655137">
        <ele>3193.5</ele>
        <time>1970-01-01T06:12:24.000Z</time>
      </trkpt>
      <trkpt lat="42.635267" lon="0.655134">
        <ele>3193.5</ele>
        <time>1970-01-01T06:12:25.000Z</time>
      </trkpt>
      <trkpt lat="42.635271" lon="0.655132">
        <ele>3193.5</ele>
        <time>1970-01-01T06:12:26.000Z</time>
      </trkpt>
      <trkpt lat="42.635275" lon="0.655131">
        <ele>3193.5</ele>
        <time>1970-01-01T06:12:27.000Z</time>
      </trkpt>
      <trkpt lat="42.635279" lon="0.655131">
        <ele>3193.5</ele>
        <time>1970-01-01T06:12:28.000Z</time>
      </trkpt>
      <trkpt lat="42.635284" lon="0.655133">
        <ele>3193.5</ele>
        <time>1970-01-01T06:12:29.000Z</time>
      </trkpt>
      <trkpt lat="42.635288" lon="0.655134">
        <ele>3191.6</ele>
        <time>1970-01-01T06:12:30.000Z</time>
      </trkpt>
      <trkpt lat="42.635293" lon="0.655135">
        <ele>3191.6</ele>
        <time>1970-01-01T06:12:31.000Z</time>
      </trkpt>
      <trkpt lat="42.635297" lon="0.655135">
        <ele>3191.6</ele>
        <time>1970-01-01T06:12:32.000Z</time>
      </trkpt>
      <trkpt lat="42.635303" lon="0.655133">
        <ele>3191.6</ele>
        <time>1970-01-01T06:12:33.000Z</time>
      </trkpt>
      <trkpt lat="42.63531" lon="0.65513">
        <ele>3191.6</ele>
        <time>1970-01-01T06:12:34.000Z</time>
      </trkpt>
      <trkpt lat="42.635314" lon="0.655129">
        <ele>3191.6</ele>
        <time>1970-01-01T06:12:35.000Z</time>
      </trkpt>
      <trkpt lat="42.635319" lon="0.655128">
        <ele>3189.7</ele>
        <time>1970-01-01T06:12:36.000Z</time>
      </trkpt>
      <trkpt lat="42.635327" lon="0.655123">
        <ele>3189.7</ele>
        <time>1970-01-01T06:12:37.000Z</time>
      </trkpt>
      <trkpt lat="42.635333" lon="0.655115">
        <ele>3189.7</ele>
        <time>1970-01-01T06:12:38.000Z</time>
      </trkpt>
      <trkpt lat="42.635337" lon="0.655109">
        <ele>3189.7</ele>
        <time>1970-01-01T06:12:39.000Z</time>
      </trkpt>
      <trkpt lat="42.635342" lon="0.655097">
        <ele>3190.3</ele>
        <time>1970-01-01T06:12:40.000Z</time>
      </trkpt>
      <trkpt lat="42.635347" lon="0.655086">
        <ele>3190.3</ele>
        <time>1970-01-01T06:12:42.000Z</time>
      </trkpt>
      <trkpt lat="42.635352" lon="0.655078">
        <ele>3188.4</ele>
        <time>1970-01-01T06:12:43.000Z</time>
      </trkpt>
      <trkpt lat="42.635358" lon="0.65507">
        <ele>3188.4</ele>
        <time>1970-01-01T06:12:44.000Z</time>
      </trkpt>
      <trkpt lat="42.635365" lon="0.655064">
        <ele>3188.4</ele>
        <time>1970-01-01T06:12:45.000Z</time>
      </trkpt>
      <trkpt lat="42.635372" lon="0.655059">
        <ele>3188.9</ele>
        <time>1970-01-01T06:12:46.000Z</time>
      </trkpt>
      <trkpt lat="42.635381" lon="0.655052">
        <ele>3187</ele>
        <time>1970-01-01T06:12:47.000Z</time>
      </trkpt>
      <trkpt lat="42.635389" lon="0.655044">
        <ele>3187</ele>
        <time>1970-01-01T06:12:48.000Z</time>
      </trkpt>
      <trkpt lat="42.635395" lon="0.655038">
        <ele>3187</ele>
        <time>1970-01-01T06:12:50.000Z</time>
      </trkpt>
      <trkpt lat="42.635402" lon="0.655036">
        <ele>3187</ele>
        <time>1970-01-01T06:12:51.000Z</time>
      </trkpt>
      <trkpt lat="42.635401" lon="0.655039">
        <ele>3187</ele>
        <time>1970-01-01T06:12:52.000Z</time>
      </trkpt>
      <trkpt lat="42.63541" lon="0.655041">
        <ele>3187</ele>
        <time>1970-01-01T06:12:53.000Z</time>
      </trkpt>
      <trkpt lat="42.635422" lon="0.655039">
        <ele>3185</ele>
        <time>1970-01-01T06:12:54.000Z</time>
      </trkpt>
      <trkpt lat="42.635433" lon="0.655038">
        <ele>3185</ele>
        <time>1970-01-01T06:12:56.000Z</time>
      </trkpt>
      <trkpt lat="42.635443" lon="0.655034">
        <ele>3183</ele>
        <time>1970-01-01T06:12:57.000Z</time>
      </trkpt>
      <trkpt lat="42.635448" lon="0.65503">
        <ele>3183</ele>
        <time>1970-01-01T06:12:58.000Z</time>
      </trkpt>
      <trkpt lat="42.635453" lon="0.655024">
        <ele>3183</ele>
        <time>1970-01-01T06:12:59.000Z</time>
      </trkpt>
      <trkpt lat="42.635456" lon="0.655017">
        <ele>3183</ele>
        <time>1970-01-01T06:13:00.000Z</time>
      </trkpt>
      <trkpt lat="42.635459" lon="0.655006">
        <ele>3183.5</ele>
        <time>1970-01-01T06:13:01.000Z</time>
      </trkpt>
      <trkpt lat="42.635461" lon="0.654996">
        <ele>3183.5</ele>
        <time>1970-01-01T06:13:03.000Z</time>
      </trkpt>
      <trkpt lat="42.635463" lon="0.654985">
        <ele>3183.5</ele>
        <time>1970-01-01T06:13:04.000Z</time>
      </trkpt>
      <trkpt lat="42.635466" lon="0.654973">
        <ele>3183.8</ele>
        <time>1970-01-01T06:13:05.000Z</time>
      </trkpt>
      <trkpt lat="42.635471" lon="0.654966">
        <ele>3183.8</ele>
        <time>1970-01-01T06:13:07.000Z</time>
      </trkpt>
      <trkpt lat="42.635477" lon="0.654957">
        <ele>3181.7</ele>
        <time>1970-01-01T06:13:08.000Z</time>
      </trkpt>
      <trkpt lat="42.635481" lon="0.654949">
        <ele>3181.7</ele>
        <time>1970-01-01T06:13:09.000Z</time>
      </trkpt>
      <trkpt lat="42.635487" lon="0.654942">
        <ele>3181.7</ele>
        <time>1970-01-01T06:13:11.000Z</time>
      </trkpt>
      <trkpt lat="42.635491" lon="0.654938">
        <ele>3181.7</ele>
        <time>1970-01-01T06:13:12.000Z</time>
      </trkpt>
      <trkpt lat="42.635495" lon="0.654936">
        <ele>3181.7</ele>
        <time>1970-01-01T06:13:13.000Z</time>
      </trkpt>
      <trkpt lat="42.635499" lon="0.654934">
        <ele>3181.7</ele>
        <time>1970-01-01T06:13:15.000Z</time>
      </trkpt>
      <trkpt lat="42.635506" lon="0.654931">
        <ele>3179.8</ele>
        <time>1970-01-01T06:13:16.000Z</time>
      </trkpt>
      <trkpt lat="42.635512" lon="0.654929">
        <ele>3179.8</ele>
        <time>1970-01-01T06:13:17.000Z</time>
      </trkpt>
      <trkpt lat="42.635518" lon="0.654926">
        <ele>3179.8</ele>
        <time>1970-01-01T06:13:18.000Z</time>
      </trkpt>
      <trkpt lat="42.635525" lon="0.654924">
        <ele>3179.8</ele>
        <time>1970-01-01T06:13:20.000Z</time>
      </trkpt>
      <trkpt lat="42.635526" lon="0.654925">
        <ele>3179.8</ele>
        <time>1970-01-01T06:13:21.000Z</time>
      </trkpt>
      <trkpt lat="42.635524" lon="0.654928">
        <ele>3179.8</ele>
        <time>1970-01-01T06:13:22.000Z</time>
      </trkpt>
      <trkpt lat="42.635522" lon="0.654931">
        <ele>3179.8</ele>
        <time>1970-01-01T06:13:23.000Z</time>
      </trkpt>
      <trkpt lat="42.635521" lon="0.654933">
        <ele>3179.5</ele>
        <time>1970-01-01T06:13:24.000Z</time>
      </trkpt>
      <trkpt lat="42.63552" lon="0.654935">
        <ele>3179.5</ele>
        <time>1970-01-01T06:13:25.000Z</time>
      </trkpt>
      <trkpt lat="42.635519" lon="0.654937">
        <ele>3179.5</ele>
        <time>1970-01-01T06:13:26.000Z</time>
      </trkpt>
      <trkpt lat="42.635522" lon="0.654935">
        <ele>3179.5</ele>
        <time>1970-01-01T06:13:28.000Z</time>
      </trkpt>
      <trkpt lat="42.635524" lon="0.654931">
        <ele>3179.8</ele>
        <time>1970-01-01T06:13:29.000Z</time>
      </trkpt>
      <trkpt lat="42.635526" lon="0.654929">
        <ele>3179.8</ele>
        <time>1970-01-01T06:13:30.000Z</time>
      </trkpt>
      <trkpt lat="42.635529" lon="0.654924">
        <ele>3179.8</ele>
        <time>1970-01-01T06:13:32.000Z</time>
      </trkpt>
      <trkpt lat="42.635535" lon="0.654915">
        <ele>3179.8</ele>
        <time>1970-01-01T06:13:33.000Z</time>
      </trkpt>
      <trkpt lat="42.63554" lon="0.654907">
        <ele>3177.4</ele>
        <time>1970-01-01T06:13:34.000Z</time>
      </trkpt>
      <trkpt lat="42.635547" lon="0.654899">
        <ele>3177.4</ele>
        <time>1970-01-01T06:13:35.000Z</time>
      </trkpt>
      <trkpt lat="42.635558" lon="0.654891">
        <ele>3177.4</ele>
        <time>1970-01-01T06:13:36.000Z</time>
      </trkpt>
      <trkpt lat="42.63557" lon="0.654884">
        <ele>3175.2</ele>
        <time>1970-01-01T06:13:38.000Z</time>
      </trkpt>
      <trkpt lat="42.635577" lon="0.654881">
        <ele>3175.2</ele>
        <time>1970-01-01T06:13:39.000Z</time>
      </trkpt>
      <trkpt lat="42.635589" lon="0.654871">
        <ele>3175.2</ele>
        <time>1970-01-01T06:13:41.000Z</time>
      </trkpt>
      <trkpt lat="42.635596" lon="0.654861">
        <ele>3175.2</ele>
        <time>1970-01-01T06:13:42.000Z</time>
      </trkpt>
      <trkpt lat="42.635603" lon="0.654853">
        <ele>3172.6</ele>
        <time>1970-01-01T06:13:43.000Z</time>
      </trkpt>
      <trkpt lat="42.635604" lon="0.654849">
        <ele>3172.6</ele>
        <time>1970-01-01T06:13:44.000Z</time>
      </trkpt>
      <trkpt lat="42.635607" lon="0.654841">
        <ele>3172.9</ele>
        <time>1970-01-01T06:13:46.000Z</time>
      </trkpt>
      <trkpt lat="42.635611" lon="0.654831">
        <ele>3172.9</ele>
        <time>1970-01-01T06:13:47.000Z</time>
      </trkpt>
      <trkpt lat="42.635616" lon="0.654821">
        <ele>3172.9</ele>
        <time>1970-01-01T06:13:48.000Z</time>
      </trkpt>
      <trkpt lat="42.635616" lon="0.654821">
        <ele>3172.9</ele>
        <time>1970-01-01T06:13:49.000Z</time>
      </trkpt>
      <trkpt lat="42.635613" lon="0.654824">
        <ele>3172.9</ele>
        <time>1970-01-01T06:13:50.000Z</time>
      </trkpt>
      <trkpt lat="42.635612" lon="0.654826">
        <ele>3172.9</ele>
        <time>1970-01-01T06:13:51.000Z</time>
      </trkpt>
      <trkpt lat="42.63561" lon="0.654826">
        <ele>3172.9</ele>
        <time>1970-01-01T06:13:52.000Z</time>
      </trkpt>
      <trkpt lat="42.635609" lon="0.654827">
        <ele>3172.9</ele>
        <time>1970-01-01T06:13:53.000Z</time>
      </trkpt>
      <trkpt lat="42.635609" lon="0.654827">
        <ele>3172.9</ele>
        <time>1970-01-01T06:13:54.000Z</time>
      </trkpt>
      <trkpt lat="42.635609" lon="0.654827">
        <ele>3172.9</ele>
        <time>1970-01-01T06:13:55.000Z</time>
      </trkpt>
      <trkpt lat="42.635609" lon="0.654826">
        <ele>3172.9</ele>
        <time>1970-01-01T06:13:56.000Z</time>
      </trkpt>
      <trkpt lat="42.635609" lon="0.654826">
        <ele>3172.9</ele>
        <time>1970-01-01T06:13:57.000Z</time>
      </trkpt>
      <trkpt lat="42.635608" lon="0.654825">
        <ele>3172.9</ele>
        <time>1970-01-01T06:13:58.000Z</time>
      </trkpt>
      <trkpt lat="42.635608" lon="0.654824">
        <ele>3172.9</ele>
        <time>1970-01-01T06:13:59.000Z</time>
      </trkpt>
      <trkpt lat="42.635609" lon="0.654821">
        <ele>3172.9</ele>
        <time>1970-01-01T06:14:00.000Z</time>
      </trkpt>
      <trkpt lat="42.635612" lon="0.654816">
        <ele>3172.9</ele>
        <time>1970-01-01T06:14:01.000Z</time>
      </trkpt>
      <trkpt lat="42.635617" lon="0.654808">
        <ele>3172.9</ele>
        <time>1970-01-01T06:14:03.000Z</time>
      </trkpt>
      <trkpt lat="42.635622" lon="0.654802">
        <ele>3173.2</ele>
        <time>1970-01-01T06:14:04.000Z</time>
      </trkpt>
      <trkpt lat="42.635626" lon="0.654797">
        <ele>3173.2</ele>
        <time>1970-01-01T06:14:05.000Z</time>
      </trkpt>
      <trkpt lat="42.635636" lon="0.65479">
        <ele>3170.7</ele>
        <time>1970-01-01T06:14:06.000Z</time>
      </trkpt>
      <trkpt lat="42.635647" lon="0.654784">
        <ele>3170.7</ele>
        <time>1970-01-01T06:14:08.000Z</time>
      </trkpt>
      <trkpt lat="42.635656" lon="0.654778">
        <ele>3170.7</ele>
        <time>1970-01-01T06:14:09.000Z</time>
      </trkpt>
      <trkpt lat="42.635664" lon="0.654771">
        <ele>3168.3</ele>
        <time>1970-01-01T06:14:11.000Z</time>
      </trkpt>
      <trkpt lat="42.635671" lon="0.654763">
        <ele>3168.3</ele>
        <time>1970-01-01T06:14:12.000Z</time>
      </trkpt>
      <trkpt lat="42.635678" lon="0.654757">
        <ele>3167.8</ele>
        <time>1970-01-01T06:14:13.000Z</time>
      </trkpt>
      <trkpt lat="42.635684" lon="0.654752">
        <ele>3167.5</ele>
        <time>1970-01-01T06:14:14.000Z</time>
      </trkpt>
      <trkpt lat="42.635691" lon="0.654747">
        <ele>3167.1</ele>
        <time>1970-01-01T06:14:15.000Z</time>
      </trkpt>
      <trkpt lat="42.635698" lon="0.654744">
        <ele>3166.7</ele>
        <time>1970-01-01T06:14:16.000Z</time>
      </trkpt>
      <trkpt lat="42.635703" lon="0.654744">
        <ele>3166.4</ele>
        <time>1970-01-01T06:14:17.000Z</time>
      </trkpt>
      <trkpt lat="42.635708" lon="0.654745">
        <ele>3166.2</ele>
        <time>1970-01-01T06:14:18.000Z</time>
      </trkpt>
      <trkpt lat="42.635718" lon="0.654744">
        <ele>3165.7</ele>
        <time>1970-01-01T06:14:19.000Z</time>
      </trkpt>
      <trkpt lat="42.635727" lon="0.654742">
        <ele>3165.2</ele>
        <time>1970-01-01T06:14:21.000Z</time>
      </trkpt>
      <trkpt lat="42.635736" lon="0.65474">
        <ele>3164.7</ele>
        <time>1970-01-01T06:14:22.000Z</time>
      </trkpt>
      <trkpt lat="42.635747" lon="0.654738">
        <ele>3164.2</ele>
        <time>1970-01-01T06:14:23.000Z</time>
      </trkpt>
      <trkpt lat="42.63576" lon="0.654734">
        <ele>3163.5</ele>
        <time>1970-01-01T06:14:25.000Z</time>
      </trkpt>
      <trkpt lat="42.63577" lon="0.654732">
        <ele>3163</ele>
        <time>1970-01-01T06:14:26.000Z</time>
      </trkpt>
      <trkpt lat="42.63578" lon="0.654729">
        <ele>3162.5</ele>
        <time>1970-01-01T06:14:28.000Z</time>
      </trkpt>
      <trkpt lat="42.635795" lon="0.654727">
        <ele>3161.7</ele>
        <time>1970-01-01T06:14:29.000Z</time>
      </trkpt>
      <trkpt lat="42.635804" lon="0.654724">
        <ele>3161.2</ele>
        <time>1970-01-01T06:14:30.000Z</time>
      </trkpt>
      <trkpt lat="42.635815" lon="0.654721">
        <ele>3160.7</ele>
        <time>1970-01-01T06:14:31.000Z</time>
      </trkpt>
      <trkpt lat="42.635829" lon="0.654715">
        <ele>3159.9</ele>
        <time>1970-01-01T06:14:33.000Z</time>
      </trkpt>
      <trkpt lat="42.635845" lon="0.654709">
        <ele>3159.1</ele>
        <time>1970-01-01T06:14:34.000Z</time>
      </trkpt>
      <trkpt lat="42.635857" lon="0.654703">
        <ele>3158.4</ele>
        <time>1970-01-01T06:14:35.000Z</time>
      </trkpt>
      <trkpt lat="42.635867" lon="0.654699">
        <ele>3157.9</ele>
        <time>1970-01-01T06:14:36.000Z</time>
      </trkpt>
      <trkpt lat="42.635876" lon="0.654696">
        <ele>3157.4</ele>
        <time>1970-01-01T06:14:37.000Z</time>
      </trkpt>
      <trkpt lat="42.635886" lon="0.654692">
        <ele>3156.9</ele>
        <time>1970-01-01T06:14:39.000Z</time>
      </trkpt>
      <trkpt lat="42.635895" lon="0.654692">
        <ele>3156.4</ele>
        <time>1970-01-01T06:14:40.000Z</time>
      </trkpt>
      <trkpt lat="42.635908" lon="0.654693">
        <ele>3155.8</ele>
        <time>1970-01-01T06:14:41.000Z</time>
      </trkpt>
      <trkpt lat="42.635917" lon="0.654689">
        <ele>3155.3</ele>
        <time>1970-01-01T06:14:42.000Z</time>
      </trkpt>
      <trkpt lat="42.635922" lon="0.654681">
        <ele>3154.9</ele>
        <time>1970-01-01T06:14:43.000Z</time>
      </trkpt>
      <trkpt lat="42.635927" lon="0.654672">
        <ele>3154.5</ele>
        <time>1970-01-01T06:14:44.000Z</time>
      </trkpt>
      <trkpt lat="42.635937" lon="0.654666">
        <ele>3154</ele>
        <time>1970-01-01T06:14:46.000Z</time>
      </trkpt>
      <trkpt lat="42.635946" lon="0.65467">
        <ele>3153.5</ele>
        <time>1970-01-01T06:14:47.000Z</time>
      </trkpt>
      <trkpt lat="42.635952" lon="0.654675">
        <ele>3153.2</ele>
        <time>1970-01-01T06:14:48.000Z</time>
      </trkpt>
      <trkpt lat="42.635961" lon="0.654678">
        <ele>3152.7</ele>
        <time>1970-01-01T06:14:49.000Z</time>
      </trkpt>
      <trkpt lat="42.63597" lon="0.654673">
        <ele>3152.3</ele>
        <time>1970-01-01T06:14:50.000Z</time>
      </trkpt>
      <trkpt lat="42.63598" lon="0.654667">
        <ele>3151.7</ele>
        <time>1970-01-01T06:14:52.000Z</time>
      </trkpt>
      <trkpt lat="42.635994" lon="0.654657">
        <ele>3151</ele>
        <time>1970-01-01T06:14:53.000Z</time>
      </trkpt>
      <trkpt lat="42.636004" lon="0.654654">
        <ele>3150.5</ele>
        <time>1970-01-01T06:14:55.000Z</time>
      </trkpt>
      <trkpt lat="42.636015" lon="0.654651">
        <ele>3149.9</ele>
        <time>1970-01-01T06:14:56.000Z</time>
      </trkpt>
      <trkpt lat="42.636026" lon="0.654648">
        <ele>3149.4</ele>
        <time>1970-01-01T06:14:57.000Z</time>
      </trkpt>
      <trkpt lat="42.636037" lon="0.654647">
        <ele>3148.9</ele>
        <time>1970-01-01T06:14:58.000Z</time>
      </trkpt>
      <trkpt lat="42.636047" lon="0.65465">
        <ele>3148.4</ele>
        <time>1970-01-01T06:14:59.000Z</time>
      </trkpt>
      <trkpt lat="42.636059" lon="0.654654">
        <ele>3147.8</ele>
        <time>1970-01-01T06:15:00.000Z</time>
      </trkpt>
      <trkpt lat="42.63607" lon="0.654656">
        <ele>3147.2</ele>
        <time>1970-01-01T06:15:01.000Z</time>
      </trkpt>
      <trkpt lat="42.636081" lon="0.654657">
        <ele>3146.7</ele>
        <time>1970-01-01T06:15:03.000Z</time>
      </trkpt>
      <trkpt lat="42.636089" lon="0.654656">
        <ele>3146.3</ele>
        <time>1970-01-01T06:15:04.000Z</time>
      </trkpt>
      <trkpt lat="42.636095" lon="0.654655">
        <ele>3146</ele>
        <time>1970-01-01T06:15:05.000Z</time>
      </trkpt>
      <trkpt lat="42.6361" lon="0.654656">
        <ele>3145.8</ele>
        <time>1970-01-01T06:15:06.000Z</time>
      </trkpt>
      <trkpt lat="42.636113" lon="0.65466">
        <ele>3145.1</ele>
        <time>1970-01-01T06:15:08.000Z</time>
      </trkpt>
      <trkpt lat="42.636125" lon="0.654662">
        <ele>3144.5</ele>
        <time>1970-01-01T06:15:09.000Z</time>
      </trkpt>
      <trkpt lat="42.636133" lon="0.654662">
        <ele>3144.2</ele>
        <time>1970-01-01T06:15:10.000Z</time>
      </trkpt>
      <trkpt lat="42.636143" lon="0.65466">
        <ele>3143.7</ele>
        <time>1970-01-01T06:15:11.000Z</time>
      </trkpt>
      <trkpt lat="42.636154" lon="0.654658">
        <ele>3143.1</ele>
        <time>1970-01-01T06:15:12.000Z</time>
      </trkpt>
      <trkpt lat="42.636166" lon="0.654656">
        <ele>3142.6</ele>
        <time>1970-01-01T06:15:13.000Z</time>
      </trkpt>
      <trkpt lat="42.636177" lon="0.654648">
        <ele>3141.9</ele>
        <time>1970-01-01T06:15:14.000Z</time>
      </trkpt>
      <trkpt lat="42.636187" lon="0.654638">
        <ele>3141.4</ele>
        <time>1970-01-01T06:15:15.000Z</time>
      </trkpt>
      <trkpt lat="42.636197" lon="0.654627">
        <ele>3140.8</ele>
        <time>1970-01-01T06:15:17.000Z</time>
      </trkpt>
      <trkpt lat="42.636206" lon="0.654619">
        <ele>3140.3</ele>
        <time>1970-01-01T06:15:18.000Z</time>
      </trkpt>
      <trkpt lat="42.636215" lon="0.654613">
        <ele>3139.8</ele>
        <time>1970-01-01T06:15:19.000Z</time>
      </trkpt>
      <trkpt lat="42.636227" lon="0.654607">
        <ele>3139.3</ele>
        <time>1970-01-01T06:15:20.000Z</time>
      </trkpt>
      <trkpt lat="42.636238" lon="0.654602">
        <ele>3138.8</ele>
        <time>1970-01-01T06:15:21.000Z</time>
      </trkpt>
      <trkpt lat="42.636245" lon="0.654597">
        <ele>3138.4</ele>
        <time>1970-01-01T06:15:22.000Z</time>
      </trkpt>
      <trkpt lat="42.636251" lon="0.654588">
        <ele>3138</ele>
        <time>1970-01-01T06:15:23.000Z</time>
      </trkpt>
      <trkpt lat="42.636259" lon="0.654579">
        <ele>3137.6</ele>
        <time>1970-01-01T06:15:24.000Z</time>
      </trkpt>
      <trkpt lat="42.636268" lon="0.654572">
        <ele>3137.1</ele>
        <time>1970-01-01T06:15:25.000Z</time>
      </trkpt>
      <trkpt lat="42.636279" lon="0.654567">
        <ele>3136.6</ele>
        <time>1970-01-01T06:15:26.000Z</time>
      </trkpt>
      <trkpt lat="42.636298" lon="0.654559">
        <ele>3135.8</ele>
        <time>1970-01-01T06:15:27.000Z</time>
      </trkpt>
      <trkpt lat="42.636306" lon="0.654555">
        <ele>3135.4</ele>
        <time>1970-01-01T06:15:29.000Z</time>
      </trkpt>
      <trkpt lat="42.636315" lon="0.654551">
        <ele>3135</ele>
        <time>1970-01-01T06:15:30.000Z</time>
      </trkpt>
      <trkpt lat="42.636323" lon="0.654543">
        <ele>3134.6</ele>
        <time>1970-01-01T06:15:31.000Z</time>
      </trkpt>
      <trkpt lat="42.636332" lon="0.654538">
        <ele>3134.2</ele>
        <time>1970-01-01T06:15:32.000Z</time>
      </trkpt>
      <trkpt lat="42.636341" lon="0.654535">
        <ele>3133.9</ele>
        <time>1970-01-01T06:15:33.000Z</time>
      </trkpt>
      <trkpt lat="42.636349" lon="0.654534">
        <ele>3133.5</ele>
        <time>1970-01-01T06:15:34.000Z</time>
      </trkpt>
      <trkpt lat="42.636362" lon="0.654533">
        <ele>3133</ele>
        <time>1970-01-01T06:15:35.000Z</time>
      </trkpt>
      <trkpt lat="42.636379" lon="0.65453">
        <ele>3132.3</ele>
        <time>1970-01-01T06:15:37.000Z</time>
      </trkpt>
      <trkpt lat="42.636401" lon="0.654525">
        <ele>3131.4</ele>
        <time>1970-01-01T06:15:38.000Z</time>
      </trkpt>
      <trkpt lat="42.636409" lon="0.654523">
        <ele>3131.1</ele>
        <time>1970-01-01T06:15:39.000Z</time>
      </trkpt>
      <trkpt lat="42.636417" lon="0.654522">
        <ele>3130.8</ele>
        <time>1970-01-01T06:15:40.000Z</time>
      </trkpt>
      <trkpt lat="42.636436" lon="0.654521">
        <ele>3130</ele>
        <time>1970-01-01T06:15:41.000Z</time>
      </trkpt>
      <trkpt lat="42.636444" lon="0.65452">
        <ele>3129.7</ele>
        <time>1970-01-01T06:15:42.000Z</time>
      </trkpt>
      <trkpt lat="42.636452" lon="0.65452">
        <ele>3129.3</ele>
        <time>1970-01-01T06:15:44.000Z</time>
      </trkpt>
      <trkpt lat="42.636459" lon="0.654519">
        <ele>3129.1</ele>
        <time>1970-01-01T06:15:45.000Z</time>
      </trkpt>
      <trkpt lat="42.636467" lon="0.654518">
        <ele>3128.7</ele>
        <time>1970-01-01T06:15:46.000Z</time>
      </trkpt>
      <trkpt lat="42.636475" lon="0.654517">
        <ele>3128.4</ele>
        <time>1970-01-01T06:15:47.000Z</time>
      </trkpt>
      <trkpt lat="42.636483" lon="0.654516">
        <ele>3128.1</ele>
        <time>1970-01-01T06:15:48.000Z</time>
      </trkpt>
      <trkpt lat="42.636494" lon="0.654514">
        <ele>3127.6</ele>
        <time>1970-01-01T06:15:49.000Z</time>
      </trkpt>
      <trkpt lat="42.636504" lon="0.654509">
        <ele>3127.2</ele>
        <time>1970-01-01T06:15:50.000Z</time>
      </trkpt>
      <trkpt lat="42.636514" lon="0.654504">
        <ele>3126.8</ele>
        <time>1970-01-01T06:15:52.000Z</time>
      </trkpt>
      <trkpt lat="42.636523" lon="0.654499">
        <ele>3126.4</ele>
        <time>1970-01-01T06:15:53.000Z</time>
      </trkpt>
      <trkpt lat="42.636533" lon="0.654496">
        <ele>3126</ele>
        <time>1970-01-01T06:15:54.000Z</time>
      </trkpt>
      <trkpt lat="42.636541" lon="0.654496">
        <ele>3125.7</ele>
        <time>1970-01-01T06:15:55.000Z</time>
      </trkpt>
      <trkpt lat="42.636547" lon="0.654495">
        <ele>3125.4</ele>
        <time>1970-01-01T06:15:56.000Z</time>
      </trkpt>
      <trkpt lat="42.636553" lon="0.654492">
        <ele>3125.1</ele>
        <time>1970-01-01T06:15:57.000Z</time>
      </trkpt>
      <trkpt lat="42.636559" lon="0.654487">
        <ele>3124.9</ele>
        <time>1970-01-01T06:15:58.000Z</time>
      </trkpt>
      <trkpt lat="42.636565" lon="0.654482">
        <ele>3124.6</ele>
        <time>1970-01-01T06:15:59.000Z</time>
      </trkpt>
      <trkpt lat="42.636571" lon="0.654477">
        <ele>3124.3</ele>
        <time>1970-01-01T06:16:00.000Z</time>
      </trkpt>
      <trkpt lat="42.636578" lon="0.654474">
        <ele>3124</ele>
        <time>1970-01-01T06:16:01.000Z</time>
      </trkpt>
      <trkpt lat="42.636584" lon="0.654474">
        <ele>3123.7</ele>
        <time>1970-01-01T06:16:02.000Z</time>
      </trkpt>
      <trkpt lat="42.636593" lon="0.654473">
        <ele>3123.4</ele>
        <time>1970-01-01T06:16:03.000Z</time>
      </trkpt>
      <trkpt lat="42.636604" lon="0.65447">
        <ele>3122.9</ele>
        <time>1970-01-01T06:16:04.000Z</time>
      </trkpt>
      <trkpt lat="42.636615" lon="0.654467">
        <ele>3122.4</ele>
        <time>1970-01-01T06:16:05.000Z</time>
      </trkpt>
      <trkpt lat="42.636626" lon="0.654466">
        <ele>3121.9</ele>
        <time>1970-01-01T06:16:07.000Z</time>
      </trkpt>
      <trkpt lat="42.636638" lon="0.654468">
        <ele>3121.4</ele>
        <time>1970-01-01T06:16:08.000Z</time>
      </trkpt>
      <trkpt lat="42.636648" lon="0.65447">
        <ele>3121</ele>
        <time>1970-01-01T06:16:09.000Z</time>
      </trkpt>
      <trkpt lat="42.636658" lon="0.65447">
        <ele>3120.6</ele>
        <time>1970-01-01T06:16:10.000Z</time>
      </trkpt>
      <trkpt lat="42.636668" lon="0.654467">
        <ele>3120.1</ele>
        <time>1970-01-01T06:16:11.000Z</time>
      </trkpt>
      <trkpt lat="42.63668" lon="0.654463">
        <ele>3119.6</ele>
        <time>1970-01-01T06:16:12.000Z</time>
      </trkpt>
      <trkpt lat="42.636692" lon="0.654462">
        <ele>3119.1</ele>
        <time>1970-01-01T06:16:13.000Z</time>
      </trkpt>
      <trkpt lat="42.636703" lon="0.654464">
        <ele>3118.6</ele>
        <time>1970-01-01T06:16:14.000Z</time>
      </trkpt>
      <trkpt lat="42.636718" lon="0.654466">
        <ele>3118</ele>
        <time>1970-01-01T06:16:16.000Z</time>
      </trkpt>
      <trkpt lat="42.63673" lon="0.654465">
        <ele>3117.5</ele>
        <time>1970-01-01T06:16:17.000Z</time>
      </trkpt>
      <trkpt lat="42.63675" lon="0.654463">
        <ele>3116.6</ele>
        <time>1970-01-01T06:16:18.000Z</time>
      </trkpt>
      <trkpt lat="42.63676" lon="0.654464">
        <ele>3116.2</ele>
        <time>1970-01-01T06:16:20.000Z</time>
      </trkpt>
      <trkpt lat="42.636769" lon="0.654464">
        <ele>3115.8</ele>
        <time>1970-01-01T06:16:21.000Z</time>
      </trkpt>
      <trkpt lat="42.636779" lon="0.654463">
        <ele>3115.3</ele>
        <time>1970-01-01T06:16:22.000Z</time>
      </trkpt>
      <trkpt lat="42.63679" lon="0.654461">
        <ele>3114.8</ele>
        <time>1970-01-01T06:16:23.000Z</time>
      </trkpt>
      <trkpt lat="42.636802" lon="0.654459">
        <ele>3114.3</ele>
        <time>1970-01-01T06:16:24.000Z</time>
      </trkpt>
      <trkpt lat="42.636812" lon="0.654457">
        <ele>3113.9</ele>
        <time>1970-01-01T06:16:25.000Z</time>
      </trkpt>
      <trkpt lat="42.636822" lon="0.654453">
        <ele>3113.4</ele>
        <time>1970-01-01T06:16:26.000Z</time>
      </trkpt>
      <trkpt lat="42.636835" lon="0.654449">
        <ele>3112.8</ele>
        <time>1970-01-01T06:16:27.000Z</time>
      </trkpt>
      <trkpt lat="42.636847" lon="0.654446">
        <ele>3112.3</ele>
        <time>1970-01-01T06:16:28.000Z</time>
      </trkpt>
      <trkpt lat="42.636856" lon="0.654443">
        <ele>3111.9</ele>
        <time>1970-01-01T06:16:29.000Z</time>
      </trkpt>
      <trkpt lat="42.636867" lon="0.65444">
        <ele>3111.4</ele>
        <time>1970-01-01T06:16:30.000Z</time>
      </trkpt>
      <trkpt lat="42.636877" lon="0.654435">
        <ele>3110.9</ele>
        <time>1970-01-01T06:16:31.000Z</time>
      </trkpt>
      <trkpt lat="42.636888" lon="0.654431">
        <ele>3110.4</ele>
        <time>1970-01-01T06:16:32.000Z</time>
      </trkpt>
      <trkpt lat="42.6369" lon="0.654427">
        <ele>3109.8</ele>
        <time>1970-01-01T06:16:33.000Z</time>
      </trkpt>
      <trkpt lat="42.636911" lon="0.654422">
        <ele>3109.3</ele>
        <time>1970-01-01T06:16:34.000Z</time>
      </trkpt>
      <trkpt lat="42.636919" lon="0.654413">
        <ele>3108.8</ele>
        <time>1970-01-01T06:16:35.000Z</time>
      </trkpt>
      <trkpt lat="42.636926" lon="0.654406">
        <ele>3108.4</ele>
        <time>1970-01-01T06:16:36.000Z</time>
      </trkpt>
      <trkpt lat="42.636936" lon="0.6544">
        <ele>3107.9</ele>
        <time>1970-01-01T06:16:37.000Z</time>
      </trkpt>
      <trkpt lat="42.636948" lon="0.654394">
        <ele>3107.4</ele>
        <time>1970-01-01T06:16:38.000Z</time>
      </trkpt>
      <trkpt lat="42.636959" lon="0.654384">
        <ele>3106.8</ele>
        <time>1970-01-01T06:16:40.000Z</time>
      </trkpt>
      <trkpt lat="42.636965" lon="0.654373">
        <ele>3106.3</ele>
        <time>1970-01-01T06:16:41.000Z</time>
      </trkpt>
      <trkpt lat="42.636972" lon="0.654362">
        <ele>3105.8</ele>
        <time>1970-01-01T06:16:42.000Z</time>
      </trkpt>
      <trkpt lat="42.636977" lon="0.654353">
        <ele>3105.5</ele>
        <time>1970-01-01T06:16:43.000Z</time>
      </trkpt>
      <trkpt lat="42.636983" lon="0.654345">
        <ele>3105.1</ele>
        <time>1970-01-01T06:16:44.000Z</time>
      </trkpt>
      <trkpt lat="42.636983" lon="0.654344">
        <ele>3105.1</ele>
        <time>1970-01-01T06:16:45.000Z</time>
      </trkpt>
      <trkpt lat="42.636981" lon="0.654346">
        <ele>3104.9</ele>
        <time>1970-01-01T06:16:46.000Z</time>
      </trkpt>
      <trkpt lat="42.636979" lon="0.65435">
        <ele>3104.8</ele>
        <time>1970-01-01T06:16:47.000Z</time>
      </trkpt>
      <trkpt lat="42.636977" lon="0.654353">
        <ele>3104.6</ele>
        <time>1970-01-01T06:16:48.000Z</time>
      </trkpt>
      <trkpt lat="42.636976" lon="0.654354">
        <ele>3104.6</ele>
        <time>1970-01-01T06:16:49.000Z</time>
      </trkpt>
      <trkpt lat="42.636976" lon="0.654355">
        <ele>3104.6</ele>
        <time>1970-01-01T06:16:50.000Z</time>
      </trkpt>
      <trkpt lat="42.636975" lon="0.654355">
        <ele>3104.5</ele>
        <time>1970-01-01T06:16:51.000Z</time>
      </trkpt>
      <trkpt lat="42.636975" lon="0.654355">
        <ele>3104.5</ele>
        <time>1970-01-01T06:16:52.000Z</time>
      </trkpt>
      <trkpt lat="42.636974" lon="0.654356">
        <ele>3104.5</ele>
        <time>1970-01-01T06:16:53.000Z</time>
      </trkpt>
      <trkpt lat="42.636974" lon="0.654356">
        <ele>3104.5</ele>
        <time>1970-01-01T06:16:54.000Z</time>
      </trkpt>
      <trkpt lat="42.636973" lon="0.654355">
        <ele>3104.4</ele>
        <time>1970-01-01T06:16:55.000Z</time>
      </trkpt>
      <trkpt lat="42.636973" lon="0.654355">
        <ele>3104.4</ele>
        <time>1970-01-01T06:16:56.000Z</time>
      </trkpt>
      <trkpt lat="42.636974" lon="0.654356">
        <ele>3104.3</ele>
        <time>1970-01-01T06:16:57.000Z</time>
      </trkpt>
      <trkpt lat="42.636974" lon="0.654355">
        <ele>3104.3</ele>
        <time>1970-01-01T06:16:58.000Z</time>
      </trkpt>
      <trkpt lat="42.636975" lon="0.654355">
        <ele>3104.3</ele>
        <time>1970-01-01T06:16:59.000Z</time>
      </trkpt>
      <trkpt lat="42.636974" lon="0.654355">
        <ele>3104.2</ele>
        <time>1970-01-01T06:17:00.000Z</time>
      </trkpt>
      <trkpt lat="42.636974" lon="0.654355">
        <ele>3104.2</ele>
        <time>1970-01-01T06:17:01.000Z</time>
      </trkpt>
      <trkpt lat="42.636974" lon="0.654354">
        <ele>3104.2</ele>
        <time>1970-01-01T06:17:02.000Z</time>
      </trkpt>
      <trkpt lat="42.636974" lon="0.654354">
        <ele>3104.2</ele>
        <time>1970-01-01T06:17:03.000Z</time>
      </trkpt>
      <trkpt lat="42.636973" lon="0.654353">
        <ele>3104.1</ele>
        <time>1970-01-01T06:17:04.000Z</time>
      </trkpt>
      <trkpt lat="42.636972" lon="0.654359">
        <ele>3103.9</ele>
        <time>1970-01-01T06:17:05.000Z</time>
      </trkpt>
      <trkpt lat="42.636971" lon="0.654362">
        <ele>3103.8</ele>
        <time>1970-01-01T06:17:06.000Z</time>
      </trkpt>
      <trkpt lat="42.63697" lon="0.654364">
        <ele>3103.7</ele>
        <time>1970-01-01T06:17:07.000Z</time>
      </trkpt>
      <trkpt lat="42.63697" lon="0.654365">
        <ele>3103.7</ele>
        <time>1970-01-01T06:17:08.000Z</time>
      </trkpt>
      <trkpt lat="42.636969" lon="0.654365">
        <ele>3103.7</ele>
        <time>1970-01-01T06:17:09.000Z</time>
      </trkpt>
      <trkpt lat="42.636969" lon="0.654365">
        <ele>3103.7</ele>
        <time>1970-01-01T06:17:10.000Z</time>
      </trkpt>
      <trkpt lat="42.636969" lon="0.654365">
        <ele>3103.7</ele>
        <time>1970-01-01T06:17:11.000Z</time>
      </trkpt>
      <trkpt lat="42.636969" lon="0.654365">
        <ele>3103.7</ele>
        <time>1970-01-01T06:17:12.000Z</time>
      </trkpt>
      <trkpt lat="42.636969" lon="0.654365">
        <ele>3103.7</ele>
        <time>1970-01-01T06:17:13.000Z</time>
      </trkpt>
      <trkpt lat="42.636969" lon="0.654365">
        <ele>3103.7</ele>
        <time>1970-01-01T06:17:14.000Z</time>
      </trkpt>
      <trkpt lat="42.636969" lon="0.654365">
        <ele>3103.7</ele>
        <time>1970-01-01T06:17:15.000Z</time>
      </trkpt>
      <trkpt lat="42.636969" lon="0.654365">
        <ele>3103.7</ele>
        <time>1970-01-01T06:17:16.000Z</time>
      </trkpt>
      <trkpt lat="42.636969" lon="0.654365">
        <ele>3103.7</ele>
        <time>1970-01-01T06:17:17.000Z</time>
      </trkpt>
      <trkpt lat="42.636969" lon="0.654365">
        <ele>3103.7</ele>
        <time>1970-01-01T06:17:18.000Z</time>
      </trkpt>
      <trkpt lat="42.636969" lon="0.654365">
        <ele>3103.7</ele>
        <time>1970-01-01T06:17:19.000Z</time>
      </trkpt>
      <trkpt lat="42.636969" lon="0.654365">
        <ele>3103.7</ele>
        <time>1970-01-01T06:17:20.000Z</time>
      </trkpt>
      <trkpt lat="42.636969" lon="0.654365">
        <ele>3103.7</ele>
        <time>1970-01-01T06:17:21.000Z</time>
      </trkpt>
      <trkpt lat="42.636969" lon="0.654365">
        <ele>3103.7</ele>
        <time>1970-01-01T06:17:22.000Z</time>
      </trkpt>
      <trkpt lat="42.636969" lon="0.654365">
        <ele>3103.7</ele>
        <time>1970-01-01T06:17:23.000Z</time>
      </trkpt>
      <trkpt lat="42.636969" lon="0.654365">
        <ele>3103.7</ele>
        <time>1970-01-01T06:17:24.000Z</time>
      </trkpt>
      <trkpt lat="42.636969" lon="0.654365">
        <ele>3103.7</ele>
        <time>1970-01-01T06:17:25.000Z</time>
      </trkpt>
      <trkpt lat="42.636969" lon="0.654365">
        <ele>3103.7</ele>
        <time>1970-01-01T06:17:26.000Z</time>
      </trkpt>
      <trkpt lat="42.636969" lon="0.654365">
        <ele>3103.7</ele>
        <time>1970-01-01T06:17:27.000Z</time>
      </trkpt>
      <trkpt lat="42.636969" lon="0.654365">
        <ele>3103.7</ele>
        <time>1970-01-01T06:17:28.000Z</time>
      </trkpt>
      <trkpt lat="42.636969" lon="0.654365">
        <ele>3103.7</ele>
        <time>1970-01-01T06:17:29.000Z</time>
      </trkpt>
      <trkpt lat="42.636975" lon="0.654363">
        <ele>3103.4</ele>
        <time>1970-01-01T06:17:30.000Z</time>
      </trkpt>
      <trkpt lat="42.636982" lon="0.654361">
        <ele>3103.1</ele>
        <time>1970-01-01T06:17:31.000Z</time>
      </trkpt>
      <trkpt lat="42.636988" lon="0.65436">
        <ele>3102.8</ele>
        <time>1970-01-01T06:17:32.000Z</time>
      </trkpt>
      <trkpt lat="42.636993" lon="0.654362">
        <ele>3102.6</ele>
        <time>1970-01-01T06:17:33.000Z</time>
      </trkpt>
      <trkpt lat="42.637005" lon="0.654364">
        <ele>3102</ele>
        <time>1970-01-01T06:17:34.000Z</time>
      </trkpt>
      <trkpt lat="42.637018" lon="0.654362">
        <ele>3101.4</ele>
        <time>1970-01-01T06:17:35.000Z</time>
      </trkpt>
      <trkpt lat="42.637033" lon="0.654359">
        <ele>3100.8</ele>
        <time>1970-01-01T06:17:37.000Z</time>
      </trkpt>
      <trkpt lat="42.63705" lon="0.654348">
        <ele>3099.9</ele>
        <time>1970-01-01T06:17:38.000Z</time>
      </trkpt>
      <trkpt lat="42.63706" lon="0.654344">
        <ele>3099.5</ele>
        <time>1970-01-01T06:17:40.000Z</time>
      </trkpt>
      <trkpt lat="42.637072" lon="0.654343">
        <ele>3098.9</ele>
        <time>1970-01-01T06:17:41.000Z</time>
      </trkpt>
      <trkpt lat="42.637083" lon="0.654342">
        <ele>3098.5</ele>
        <time>1970-01-01T06:17:42.000Z</time>
      </trkpt>
      <trkpt lat="42.637094" lon="0.65434">
        <ele>3098</ele>
        <time>1970-01-01T06:17:43.000Z</time>
      </trkpt>
      <trkpt lat="42.637104" lon="0.654339">
        <ele>3097.5</ele>
        <time>1970-01-01T06:17:44.000Z</time>
      </trkpt>
      <trkpt lat="42.637116" lon="0.654338">
        <ele>3097</ele>
        <time>1970-01-01T06:17:45.000Z</time>
      </trkpt>
      <trkpt lat="42.637126" lon="0.654338">
        <ele>3096.5</ele>
        <time>1970-01-01T06:17:46.000Z</time>
      </trkpt>
      <trkpt lat="42.637139" lon="0.654337">
        <ele>3096</ele>
        <time>1970-01-01T06:17:47.000Z</time>
      </trkpt>
      <trkpt lat="42.637149" lon="0.654336">
        <ele>3095.5</ele>
        <time>1970-01-01T06:17:48.000Z</time>
      </trkpt>
      <trkpt lat="42.637161" lon="0.654333">
        <ele>3095</ele>
        <time>1970-01-01T06:17:49.000Z</time>
      </trkpt>
      <trkpt lat="42.63718" lon="0.654327">
        <ele>3094.2</ele>
        <time>1970-01-01T06:17:51.000Z</time>
      </trkpt>
      <trkpt lat="42.63719" lon="0.654325">
        <ele>3093.7</ele>
        <time>1970-01-01T06:17:52.000Z</time>
      </trkpt>
      <trkpt lat="42.637202" lon="0.654321">
        <ele>3093.2</ele>
        <time>1970-01-01T06:17:53.000Z</time>
      </trkpt>
      <trkpt lat="42.637218" lon="0.654317">
        <ele>3092.5</ele>
        <time>1970-01-01T06:17:54.000Z</time>
      </trkpt>
      <trkpt lat="42.637229" lon="0.654314">
        <ele>3092</ele>
        <time>1970-01-01T06:17:55.000Z</time>
      </trkpt>
      <trkpt lat="42.637241" lon="0.654315">
        <ele>3091.5</ele>
        <time>1970-01-01T06:17:56.000Z</time>
      </trkpt>
      <trkpt lat="42.637251" lon="0.65432">
        <ele>3091</ele>
        <time>1970-01-01T06:17:57.000Z</time>
      </trkpt>
      <trkpt lat="42.637262" lon="0.654324">
        <ele>3090.5</ele>
        <time>1970-01-01T06:17:58.000Z</time>
      </trkpt>
      <trkpt lat="42.637274" lon="0.654325">
        <ele>3090</ele>
        <time>1970-01-01T06:18:00.000Z</time>
      </trkpt>
      <trkpt lat="42.637285" lon="0.654324">
        <ele>3089.5</ele>
        <time>1970-01-01T06:18:01.000Z</time>
      </trkpt>
      <trkpt lat="42.637295" lon="0.654322">
        <ele>3089.1</ele>
        <time>1970-01-01T06:18:02.000Z</time>
      </trkpt>
      <trkpt lat="42.637306" lon="0.654319">
        <ele>3088.6</ele>
        <time>1970-01-01T06:18:03.000Z</time>
      </trkpt>
      <trkpt lat="42.637317" lon="0.654317">
        <ele>3088.1</ele>
        <time>1970-01-01T06:18:04.000Z</time>
      </trkpt>
      <trkpt lat="42.637328" lon="0.654316">
        <ele>3087.6</ele>
        <time>1970-01-01T06:18:05.000Z</time>
      </trkpt>
      <trkpt lat="42.637339" lon="0.654315">
        <ele>3087.1</ele>
        <time>1970-01-01T06:18:06.000Z</time>
      </trkpt>
      <trkpt lat="42.637351" lon="0.654314">
        <ele>3086.6</ele>
        <time>1970-01-01T06:18:07.000Z</time>
      </trkpt>
      <trkpt lat="42.637366" lon="0.65431">
        <ele>3086</ele>
        <time>1970-01-01T06:18:09.000Z</time>
      </trkpt>
      <trkpt lat="42.637377" lon="0.654307">
        <ele>3085.5</ele>
        <time>1970-01-01T06:18:10.000Z</time>
      </trkpt>
      <trkpt lat="42.637386" lon="0.654304">
        <ele>3085.1</ele>
        <time>1970-01-01T06:18:11.000Z</time>
      </trkpt>
      <trkpt lat="42.637396" lon="0.6543">
        <ele>3084.6</ele>
        <time>1970-01-01T06:18:12.000Z</time>
      </trkpt>
      <trkpt lat="42.637405" lon="0.654291">
        <ele>3084.1</ele>
        <time>1970-01-01T06:18:13.000Z</time>
      </trkpt>
      <trkpt lat="42.637413" lon="0.654282">
        <ele>3083.7</ele>
        <time>1970-01-01T06:18:14.000Z</time>
      </trkpt>
      <trkpt lat="42.637424" lon="0.654276">
        <ele>3083.2</ele>
        <time>1970-01-01T06:18:15.000Z</time>
      </trkpt>
      <trkpt lat="42.637432" lon="0.654271">
        <ele>3082.8</ele>
        <time>1970-01-01T06:18:16.000Z</time>
      </trkpt>
      <trkpt lat="42.637444" lon="0.654265">
        <ele>3082.3</ele>
        <time>1970-01-01T06:18:17.000Z</time>
      </trkpt>
      <trkpt lat="42.637456" lon="0.65426">
        <ele>3081.7</ele>
        <time>1970-01-01T06:18:18.000Z</time>
      </trkpt>
      <trkpt lat="42.637467" lon="0.65426">
        <ele>3081.3</ele>
        <time>1970-01-01T06:18:19.000Z</time>
      </trkpt>
      <trkpt lat="42.637478" lon="0.654263">
        <ele>3080.8</ele>
        <time>1970-01-01T06:18:21.000Z</time>
      </trkpt>
      <trkpt lat="42.637489" lon="0.654265">
        <ele>3080.3</ele>
        <time>1970-01-01T06:18:22.000Z</time>
      </trkpt>
      <trkpt lat="42.6375" lon="0.654264">
        <ele>3079.8</ele>
        <time>1970-01-01T06:18:23.000Z</time>
      </trkpt>
      <trkpt lat="42.637508" lon="0.654262">
        <ele>3079.5</ele>
        <time>1970-01-01T06:18:24.000Z</time>
      </trkpt>
      <trkpt lat="42.637524" lon="0.65426">
        <ele>3078.8</ele>
        <time>1970-01-01T06:18:26.000Z</time>
      </trkpt>
      <trkpt lat="42.637531" lon="0.654257">
        <ele>3078.5</ele>
        <time>1970-01-01T06:18:27.000Z</time>
      </trkpt>
      <trkpt lat="42.63754" lon="0.654252">
        <ele>3078.1</ele>
        <time>1970-01-01T06:18:28.000Z</time>
      </trkpt>
      <trkpt lat="42.637548" lon="0.654247">
        <ele>3077.7</ele>
        <time>1970-01-01T06:18:29.000Z</time>
      </trkpt>
      <trkpt lat="42.637558" lon="0.65424">
        <ele>3077.2</ele>
        <time>1970-01-01T06:18:30.000Z</time>
      </trkpt>
      <trkpt lat="42.637569" lon="0.654231">
        <ele>3076.7</ele>
        <time>1970-01-01T06:18:32.000Z</time>
      </trkpt>
      <trkpt lat="42.637578" lon="0.654224">
        <ele>3076.2</ele>
        <time>1970-01-01T06:18:33.000Z</time>
      </trkpt>
      <trkpt lat="42.637589" lon="0.654217">
        <ele>3075.7</ele>
        <time>1970-01-01T06:18:34.000Z</time>
      </trkpt>
      <trkpt lat="42.637597" lon="0.654213">
        <ele>3075.4</ele>
        <time>1970-01-01T06:18:35.000Z</time>
      </trkpt>
      <trkpt lat="42.637607" lon="0.654208">
        <ele>3075</ele>
        <time>1970-01-01T06:18:36.000Z</time>
      </trkpt>
      <trkpt lat="42.637616" lon="0.654202">
        <ele>3074.6</ele>
        <time>1970-01-01T06:18:37.000Z</time>
      </trkpt>
      <trkpt lat="42.637624" lon="0.654197">
        <ele>3074.2</ele>
        <time>1970-01-01T06:18:38.000Z</time>
      </trkpt>
      <trkpt lat="42.637633" lon="0.654192">
        <ele>3073.8</ele>
        <time>1970-01-01T06:18:39.000Z</time>
      </trkpt>
      <trkpt lat="42.637644" lon="0.654188">
        <ele>3073.4</ele>
        <time>1970-01-01T06:18:41.000Z</time>
      </trkpt>
      <trkpt lat="42.637655" lon="0.654185">
        <ele>3072.9</ele>
        <time>1970-01-01T06:18:42.000Z</time>
      </trkpt>
      <trkpt lat="42.637666" lon="0.654185">
        <ele>3072.5</ele>
        <time>1970-01-01T06:18:43.000Z</time>
      </trkpt>
      <trkpt lat="42.637676" lon="0.654184">
        <ele>3072.1</ele>
        <time>1970-01-01T06:18:44.000Z</time>
      </trkpt>
      <trkpt lat="42.637686" lon="0.654181">
        <ele>3071.7</ele>
        <time>1970-01-01T06:18:45.000Z</time>
      </trkpt>
      <trkpt lat="42.637698" lon="0.654179">
        <ele>3071.3</ele>
        <time>1970-01-01T06:18:46.000Z</time>
      </trkpt>
      <trkpt lat="42.637709" lon="0.654178">
        <ele>3070.9</ele>
        <time>1970-01-01T06:18:47.000Z</time>
      </trkpt>
      <trkpt lat="42.637725" lon="0.654173">
        <ele>3070.3</ele>
        <time>1970-01-01T06:18:49.000Z</time>
      </trkpt>
      <trkpt lat="42.637733" lon="0.654171">
        <ele>3070</ele>
        <time>1970-01-01T06:18:50.000Z</time>
      </trkpt>
      <trkpt lat="42.637742" lon="0.654172">
        <ele>3069.7</ele>
        <time>1970-01-01T06:18:51.000Z</time>
      </trkpt>
      <trkpt lat="42.637754" lon="0.654174">
        <ele>3069.2</ele>
        <time>1970-01-01T06:18:52.000Z</time>
      </trkpt>
      <trkpt lat="42.637775" lon="0.654181">
        <ele>3068.5</ele>
        <time>1970-01-01T06:18:54.000Z</time>
      </trkpt>
      <trkpt lat="42.637782" lon="0.654184">
        <ele>3068.3</ele>
        <time>1970-01-01T06:18:55.000Z</time>
      </trkpt>
      <trkpt lat="42.637788" lon="0.654188">
        <ele>3068</ele>
        <time>1970-01-01T06:18:56.000Z</time>
      </trkpt>
      <trkpt lat="42.637799" lon="0.65419">
        <ele>3067.7</ele>
        <time>1970-01-01T06:18:57.000Z</time>
      </trkpt>
      <trkpt lat="42.637811" lon="0.65419">
        <ele>3067.3</ele>
        <time>1970-01-01T06:18:58.000Z</time>
      </trkpt>
      <trkpt lat="42.637823" lon="0.654188">
        <ele>3066.9</ele>
        <time>1970-01-01T06:18:59.000Z</time>
      </trkpt>
      <trkpt lat="42.637842" lon="0.654177">
        <ele>3066.3</ele>
        <time>1970-01-01T06:19:00.000Z</time>
      </trkpt>
      <trkpt lat="42.637849" lon="0.654169">
        <ele>3066</ele>
        <time>1970-01-01T06:19:01.000Z</time>
      </trkpt>
      <trkpt lat="42.637855" lon="0.654161">
        <ele>3065.7</ele>
        <time>1970-01-01T06:19:02.000Z</time>
      </trkpt>
      <trkpt lat="42.637864" lon="0.654152">
        <ele>3065.4</ele>
        <time>1970-01-01T06:19:03.000Z</time>
      </trkpt>
      <trkpt lat="42.637878" lon="0.654144">
        <ele>3065</ele>
        <time>1970-01-01T06:19:05.000Z</time>
      </trkpt>
      <trkpt lat="42.637886" lon="0.654141">
        <ele>3064.7</ele>
        <time>1970-01-01T06:19:06.000Z</time>
      </trkpt>
      <trkpt lat="42.637895" lon="0.654137">
        <ele>3064.5</ele>
        <time>1970-01-01T06:19:07.000Z</time>
      </trkpt>
      <trkpt lat="42.637906" lon="0.654132">
        <ele>3064.1</ele>
        <time>1970-01-01T06:19:08.000Z</time>
      </trkpt>
      <trkpt lat="42.637919" lon="0.654126">
        <ele>3063.7</ele>
        <time>1970-01-01T06:19:09.000Z</time>
      </trkpt>
      <trkpt lat="42.637931" lon="0.654122">
        <ele>3063.4</ele>
        <time>1970-01-01T06:19:11.000Z</time>
      </trkpt>
      <trkpt lat="42.637941" lon="0.654119">
        <ele>3063.1</ele>
        <time>1970-01-01T06:19:12.000Z</time>
      </trkpt>
      <trkpt lat="42.637951" lon="0.654115">
        <ele>3062.8</ele>
        <time>1970-01-01T06:19:13.000Z</time>
      </trkpt>
      <trkpt lat="42.637961" lon="0.654108">
        <ele>3062.5</ele>
        <time>1970-01-01T06:19:14.000Z</time>
      </trkpt>
      <trkpt lat="42.637968" lon="0.654103">
        <ele>3062.3</ele>
        <time>1970-01-01T06:19:15.000Z</time>
      </trkpt>
      <trkpt lat="42.637976" lon="0.654097">
        <ele>3062</ele>
        <time>1970-01-01T06:19:16.000Z</time>
      </trkpt>
      <trkpt lat="42.637985" lon="0.654092">
        <ele>3061.8</ele>
        <time>1970-01-01T06:19:18.000Z</time>
      </trkpt>
      <trkpt lat="42.637995" lon="0.65409">
        <ele>3061.5</ele>
        <time>1970-01-01T06:19:19.000Z</time>
      </trkpt>
      <trkpt lat="42.638" lon="0.65409">
        <ele>3061.4</ele>
        <time>1970-01-01T06:19:20.000Z</time>
      </trkpt>
      <trkpt lat="42.638006" lon="0.654088">
        <ele>3061.2</ele>
        <time>1970-01-01T06:19:21.000Z</time>
      </trkpt>
      <trkpt lat="42.638013" lon="0.654083">
        <ele>3061</ele>
        <time>1970-01-01T06:19:22.000Z</time>
      </trkpt>
      <trkpt lat="42.638018" lon="0.654079">
        <ele>3060.8</ele>
        <time>1970-01-01T06:19:23.000Z</time>
      </trkpt>
      <trkpt lat="42.638022" lon="0.654076">
        <ele>3060.7</ele>
        <time>1970-01-01T06:19:24.000Z</time>
      </trkpt>
      <trkpt lat="42.638033" lon="0.654074">
        <ele>3060.4</ele>
        <time>1970-01-01T06:19:25.000Z</time>
      </trkpt>
      <trkpt lat="42.638043" lon="0.654074">
        <ele>3060.1</ele>
        <time>1970-01-01T06:19:27.000Z</time>
      </trkpt>
      <trkpt lat="42.638055" lon="0.654076">
        <ele>3059.8</ele>
        <time>1970-01-01T06:19:28.000Z</time>
      </trkpt>
      <trkpt lat="42.638065" lon="0.654078">
        <ele>3059.6</ele>
        <time>1970-01-01T06:19:29.000Z</time>
      </trkpt>
      <trkpt lat="42.638074" lon="0.654083">
        <ele>3059.3</ele>
        <time>1970-01-01T06:19:30.000Z</time>
      </trkpt>
      <trkpt lat="42.638086" lon="0.65409">
        <ele>3059</ele>
        <time>1970-01-01T06:19:31.000Z</time>
      </trkpt>
      <trkpt lat="42.638096" lon="0.654095">
        <ele>3058.7</ele>
        <time>1970-01-01T06:19:32.000Z</time>
      </trkpt>
      <trkpt lat="42.638103" lon="0.654098">
        <ele>3058.5</ele>
        <time>1970-01-01T06:19:33.000Z</time>
      </trkpt>
      <trkpt lat="42.638112" lon="0.654099">
        <ele>3058.3</ele>
        <time>1970-01-01T06:19:34.000Z</time>
      </trkpt>
      <trkpt lat="42.638126" lon="0.654098">
        <ele>3057.9</ele>
        <time>1970-01-01T06:19:35.000Z</time>
      </trkpt>
      <trkpt lat="42.638139" lon="0.654098">
        <ele>3057.5</ele>
        <time>1970-01-01T06:19:36.000Z</time>
      </trkpt>
      <trkpt lat="42.638152" lon="0.654098">
        <ele>3057.2</ele>
        <time>1970-01-01T06:19:38.000Z</time>
      </trkpt>
      <trkpt lat="42.638161" lon="0.654098">
        <ele>3057</ele>
        <time>1970-01-01T06:19:39.000Z</time>
      </trkpt>
      <trkpt lat="42.638173" lon="0.654097">
        <ele>3056.7</ele>
        <time>1970-01-01T06:19:40.000Z</time>
      </trkpt>
      <trkpt lat="42.638185" lon="0.654096">
        <ele>3056.3</ele>
        <time>1970-01-01T06:19:41.000Z</time>
      </trkpt>
      <trkpt lat="42.638204" lon="0.654092">
        <ele>3055.8</ele>
        <time>1970-01-01T06:19:43.000Z</time>
      </trkpt>
      <trkpt lat="42.638223" lon="0.654086">
        <ele>3055.3</ele>
        <time>1970-01-01T06:19:45.000Z</time>
      </trkpt>
      <trkpt lat="42.638232" lon="0.654084">
        <ele>3055.1</ele>
        <time>1970-01-01T06:19:46.000Z</time>
      </trkpt>
      <trkpt lat="42.638243" lon="0.654087">
        <ele>3054.8</ele>
        <time>1970-01-01T06:19:47.000Z</time>
      </trkpt>
      <trkpt lat="42.638253" lon="0.654094">
        <ele>3054.5</ele>
        <time>1970-01-01T06:19:48.000Z</time>
      </trkpt>
      <trkpt lat="42.638265" lon="0.654105">
        <ele>3054.1</ele>
        <time>1970-01-01T06:19:50.000Z</time>
      </trkpt>
      <trkpt lat="42.638278" lon="0.654111">
        <ele>3053.7</ele>
        <time>1970-01-01T06:19:51.000Z</time>
      </trkpt>
      <trkpt lat="42.638289" lon="0.654115">
        <ele>3053.4</ele>
        <time>1970-01-01T06:19:52.000Z</time>
      </trkpt>
      <trkpt lat="42.638299" lon="0.654119">
        <ele>3053.1</ele>
        <time>1970-01-01T06:19:53.000Z</time>
      </trkpt>
      <trkpt lat="42.638309" lon="0.654124">
        <ele>3052.8</ele>
        <time>1970-01-01T06:19:54.000Z</time>
      </trkpt>
      <trkpt lat="42.638319" lon="0.65413">
        <ele>3052.5</ele>
        <time>1970-01-01T06:19:55.000Z</time>
      </trkpt>
      <trkpt lat="42.638329" lon="0.654138">
        <ele>3052.2</ele>
        <time>1970-01-01T06:19:57.000Z</time>
      </trkpt>
      <trkpt lat="42.638335" lon="0.654147">
        <ele>3051.9</ele>
        <time>1970-01-01T06:19:58.000Z</time>
      </trkpt>
      <trkpt lat="42.638343" lon="0.654157">
        <ele>3051.6</ele>
        <time>1970-01-01T06:19:59.000Z</time>
      </trkpt>
      <trkpt lat="42.638356" lon="0.654156">
        <ele>3051.2</ele>
        <time>1970-01-01T06:20:00.000Z</time>
      </trkpt>
      <trkpt lat="42.63837" lon="0.654155">
        <ele>3050.8</ele>
        <time>1970-01-01T06:20:01.000Z</time>
      </trkpt>
      <trkpt lat="42.638383" lon="0.654154">
        <ele>3050.4</ele>
        <time>1970-01-01T06:20:02.000Z</time>
      </trkpt>
      <trkpt lat="42.638404" lon="0.654154">
        <ele>3049.8</ele>
        <time>1970-01-01T06:20:03.000Z</time>
      </trkpt>
      <trkpt lat="42.638412" lon="0.654154">
        <ele>3049.5</ele>
        <time>1970-01-01T06:20:04.000Z</time>
      </trkpt>
      <trkpt lat="42.638419" lon="0.654153">
        <ele>3049.3</ele>
        <time>1970-01-01T06:20:05.000Z</time>
      </trkpt>
      <trkpt lat="42.638431" lon="0.654153">
        <ele>3049</ele>
        <time>1970-01-01T06:20:07.000Z</time>
      </trkpt>
      <trkpt lat="42.638443" lon="0.654153">
        <ele>3048.6</ele>
        <time>1970-01-01T06:20:08.000Z</time>
      </trkpt>
      <trkpt lat="42.638454" lon="0.654152">
        <ele>3048.2</ele>
        <time>1970-01-01T06:20:09.000Z</time>
      </trkpt>
      <trkpt lat="42.638462" lon="0.654152">
        <ele>3048</ele>
        <time>1970-01-01T06:20:10.000Z</time>
      </trkpt>
      <trkpt lat="42.638474" lon="0.65415">
        <ele>3047.6</ele>
        <time>1970-01-01T06:20:11.000Z</time>
      </trkpt>
      <trkpt lat="42.638487" lon="0.654148">
        <ele>3047.1</ele>
        <time>1970-01-01T06:20:12.000Z</time>
      </trkpt>
      <trkpt lat="42.638507" lon="0.654149">
        <ele>3046.5</ele>
        <time>1970-01-01T06:20:13.000Z</time>
      </trkpt>
      <trkpt lat="42.638516" lon="0.654149">
        <ele>3046.1</ele>
        <time>1970-01-01T06:20:14.000Z</time>
      </trkpt>
      <trkpt lat="42.638524" lon="0.654149">
        <ele>3045.9</ele>
        <time>1970-01-01T06:20:15.000Z</time>
      </trkpt>
      <trkpt lat="42.638533" lon="0.654148">
        <ele>3045.6</ele>
        <time>1970-01-01T06:20:16.000Z</time>
      </trkpt>
      <trkpt lat="42.638544" lon="0.654145">
        <ele>3045.2</ele>
        <time>1970-01-01T06:20:17.000Z</time>
      </trkpt>
      <trkpt lat="42.638556" lon="0.654141">
        <ele>3044.8</ele>
        <time>1970-01-01T06:20:18.000Z</time>
      </trkpt>
      <trkpt lat="42.638567" lon="0.654138">
        <ele>3044.4</ele>
        <time>1970-01-01T06:20:19.000Z</time>
      </trkpt>
      <trkpt lat="42.638579" lon="0.654137">
        <ele>3044</ele>
        <time>1970-01-01T06:20:20.000Z</time>
      </trkpt>
      <trkpt lat="42.638591" lon="0.654134">
        <ele>3043.5</ele>
        <time>1970-01-01T06:20:21.000Z</time>
      </trkpt>
      <trkpt lat="42.638602" lon="0.65413">
        <ele>3043.1</ele>
        <time>1970-01-01T06:20:23.000Z</time>
      </trkpt>
      <trkpt lat="42.638614" lon="0.654129">
        <ele>3042.7</ele>
        <time>1970-01-01T06:20:24.000Z</time>
      </trkpt>
      <trkpt lat="42.638624" lon="0.654129">
        <ele>3042.4</ele>
        <time>1970-01-01T06:20:25.000Z</time>
      </trkpt>
      <trkpt lat="42.638634" lon="0.654129">
        <ele>3042</ele>
        <time>1970-01-01T06:20:26.000Z</time>
      </trkpt>
      <trkpt lat="42.638644" lon="0.654126">
        <ele>3041.7</ele>
        <time>1970-01-01T06:20:27.000Z</time>
      </trkpt>
      <trkpt lat="42.638656" lon="0.654122">
        <ele>3041.3</ele>
        <time>1970-01-01T06:20:28.000Z</time>
      </trkpt>
      <trkpt lat="42.638671" lon="0.654118">
        <ele>3040.7</ele>
        <time>1970-01-01T06:20:29.000Z</time>
      </trkpt>
      <trkpt lat="42.638683" lon="0.654115">
        <ele>3040.3</ele>
        <time>1970-01-01T06:20:31.000Z</time>
      </trkpt>
      <trkpt lat="42.638695" lon="0.65411">
        <ele>3039.9</ele>
        <time>1970-01-01T06:20:32.000Z</time>
      </trkpt>
      <trkpt lat="42.63871" lon="0.654099">
        <ele>3039.3</ele>
        <time>1970-01-01T06:20:33.000Z</time>
      </trkpt>
      <trkpt lat="42.638719" lon="0.654091">
        <ele>3039</ele>
        <time>1970-01-01T06:20:35.000Z</time>
      </trkpt>
      <trkpt lat="42.638728" lon="0.654084">
        <ele>3038.6</ele>
        <time>1970-01-01T06:20:36.000Z</time>
      </trkpt>
      <trkpt lat="42.638738" lon="0.654081">
        <ele>3038.3</ele>
        <time>1970-01-01T06:20:37.000Z</time>
      </trkpt>
      <trkpt lat="42.63875" lon="0.654079">
        <ele>3037.9</ele>
        <time>1970-01-01T06:20:38.000Z</time>
      </trkpt>
      <trkpt lat="42.638761" lon="0.654077">
        <ele>3037.5</ele>
        <time>1970-01-01T06:20:39.000Z</time>
      </trkpt>
      <trkpt lat="42.638773" lon="0.654074">
        <ele>3037.1</ele>
        <time>1970-01-01T06:20:40.000Z</time>
      </trkpt>
      <trkpt lat="42.638793" lon="0.654067">
        <ele>3036.4</ele>
        <time>1970-01-01T06:20:41.000Z</time>
      </trkpt>
      <trkpt lat="42.638801" lon="0.654064">
        <ele>3036.1</ele>
        <time>1970-01-01T06:20:42.000Z</time>
      </trkpt>
      <trkpt lat="42.638809" lon="0.654061">
        <ele>3035.8</ele>
        <time>1970-01-01T06:20:43.000Z</time>
      </trkpt>
      <trkpt lat="42.638829" lon="0.654052">
        <ele>3035.1</ele>
        <time>1970-01-01T06:20:44.000Z</time>
      </trkpt>
      <trkpt lat="42.638836" lon="0.654048">
        <ele>3034.9</ele>
        <time>1970-01-01T06:20:46.000Z</time>
      </trkpt>
      <trkpt lat="42.638844" lon="0.654044">
        <ele>3034.6</ele>
        <time>1970-01-01T06:20:47.000Z</time>
      </trkpt>
      <trkpt lat="42.638863" lon="0.654036">
        <ele>3033.9</ele>
        <time>1970-01-01T06:20:48.000Z</time>
      </trkpt>
      <trkpt lat="42.638871" lon="0.654032">
        <ele>3033.7</ele>
        <time>1970-01-01T06:20:49.000Z</time>
      </trkpt>
      <trkpt lat="42.638879" lon="0.654027">
        <ele>3033.4</ele>
        <time>1970-01-01T06:20:50.000Z</time>
      </trkpt>
      <trkpt lat="42.638896" lon="0.654009">
        <ele>3032.7</ele>
        <time>1970-01-01T06:20:51.000Z</time>
      </trkpt>
      <trkpt lat="42.638904" lon="0.654003">
        <ele>3032.4</ele>
        <time>1970-01-01T06:20:53.000Z</time>
      </trkpt>
      <trkpt lat="42.638911" lon="0.653997">
        <ele>3032.1</ele>
        <time>1970-01-01T06:20:54.000Z</time>
      </trkpt>
      <trkpt lat="42.638921" lon="0.653988">
        <ele>3031.8</ele>
        <time>1970-01-01T06:20:55.000Z</time>
      </trkpt>
      <trkpt lat="42.638934" lon="0.653975">
        <ele>3031.3</ele>
        <time>1970-01-01T06:20:56.000Z</time>
      </trkpt>
      <trkpt lat="42.638944" lon="0.653966">
        <ele>3027.1</ele>
        <time>1970-01-01T06:20:57.000Z</time>
      </trkpt>
      <trkpt lat="42.638953" lon="0.653958">
        <ele>3027</ele>
        <time>1970-01-01T06:20:59.000Z</time>
      </trkpt>
      <trkpt lat="42.638963" lon="0.653949">
        <ele>3026.8</ele>
        <time>1970-01-01T06:21:00.000Z</time>
      </trkpt>
      <trkpt lat="42.638981" lon="0.65394">
        <ele>3026.5</ele>
        <time>1970-01-01T06:21:01.000Z</time>
      </trkpt>
      <trkpt lat="42.638989" lon="0.653936">
        <ele>3026.4</ele>
        <time>1970-01-01T06:21:02.000Z</time>
      </trkpt>
      <trkpt lat="42.638997" lon="0.653933">
        <ele>3026.3</ele>
        <time>1970-01-01T06:21:03.000Z</time>
      </trkpt>
      <trkpt lat="42.639009" lon="0.653932">
        <ele>3026.2</ele>
        <time>1970-01-01T06:21:04.000Z</time>
      </trkpt>
      <trkpt lat="42.639016" lon="0.653929">
        <ele>3026.1</ele>
        <time>1970-01-01T06:21:05.000Z</time>
      </trkpt>
      <trkpt lat="42.639035" lon="0.653925">
        <ele>3025.8</ele>
        <time>1970-01-01T06:21:07.000Z</time>
      </trkpt>
      <trkpt lat="42.639047" lon="0.653927">
        <ele>3025.7</ele>
        <time>1970-01-01T06:21:08.000Z</time>
      </trkpt>
      <trkpt lat="42.639058" lon="0.653928">
        <ele>3025.5</ele>
        <time>1970-01-01T06:21:09.000Z</time>
      </trkpt>
      <trkpt lat="42.639072" lon="0.653927">
        <ele>3025.4</ele>
        <time>1970-01-01T06:21:11.000Z</time>
      </trkpt>
      <trkpt lat="42.639093" lon="0.653921">
        <ele>3025.1</ele>
        <time>1970-01-01T06:21:12.000Z</time>
      </trkpt>
      <trkpt lat="42.639101" lon="0.653918">
        <ele>3025</ele>
        <time>1970-01-01T06:21:13.000Z</time>
      </trkpt>
      <trkpt lat="42.639109" lon="0.653914">
        <ele>3024.9</ele>
        <time>1970-01-01T06:21:14.000Z</time>
      </trkpt>
      <trkpt lat="42.639119" lon="0.653909">
        <ele>3024.8</ele>
        <time>1970-01-01T06:21:15.000Z</time>
      </trkpt>
      <trkpt lat="42.639129" lon="0.653902">
        <ele>3024.6</ele>
        <time>1970-01-01T06:21:17.000Z</time>
      </trkpt>
      <trkpt lat="42.63914" lon="0.653894">
        <ele>3024.5</ele>
        <time>1970-01-01T06:21:18.000Z</time>
      </trkpt>
      <trkpt lat="42.639149" lon="0.653886">
        <ele>3024.4</ele>
        <time>1970-01-01T06:21:19.000Z</time>
      </trkpt>
      <trkpt lat="42.639157" lon="0.653878">
        <ele>3024.3</ele>
        <time>1970-01-01T06:21:20.000Z</time>
      </trkpt>
      <trkpt lat="42.639165" lon="0.65387">
        <ele>3024.2</ele>
        <time>1970-01-01T06:21:21.000Z</time>
      </trkpt>
      <trkpt lat="42.639174" lon="0.653864">
        <ele>3024</ele>
        <time>1970-01-01T06:21:23.000Z</time>
      </trkpt>
      <trkpt lat="42.639185" lon="0.653859">
        <ele>3023.9</ele>
        <time>1970-01-01T06:21:24.000Z</time>
      </trkpt>
      <trkpt lat="42.639196" lon="0.653853">
        <ele>3023.8</ele>
        <time>1970-01-01T06:21:25.000Z</time>
      </trkpt>
      <trkpt lat="42.639207" lon="0.653847">
        <ele>3023.6</ele>
        <time>1970-01-01T06:21:26.000Z</time>
      </trkpt>
      <trkpt lat="42.639219" lon="0.653842">
        <ele>3023.5</ele>
        <time>1970-01-01T06:21:27.000Z</time>
      </trkpt>
      <trkpt lat="42.639229" lon="0.653839">
        <ele>3023.4</ele>
        <time>1970-01-01T06:21:28.000Z</time>
      </trkpt>
      <trkpt lat="42.639236" lon="0.653837">
        <ele>3023.3</ele>
        <time>1970-01-01T06:21:29.000Z</time>
      </trkpt>
      <trkpt lat="42.639246" lon="0.653833">
        <ele>3023.2</ele>
        <time>1970-01-01T06:21:30.000Z</time>
      </trkpt>
      <trkpt lat="42.63926" lon="0.653824">
        <ele>3023</ele>
        <time>1970-01-01T06:21:32.000Z</time>
      </trkpt>
      <trkpt lat="42.639275" lon="0.65382">
        <ele>3022.9</ele>
        <time>1970-01-01T06:21:33.000Z</time>
      </trkpt>
      <trkpt lat="42.639284" lon="0.653818">
        <ele>3022.8</ele>
        <time>1970-01-01T06:21:34.000Z</time>
      </trkpt>
      <trkpt lat="42.639294" lon="0.653813">
        <ele>3022.7</ele>
        <time>1970-01-01T06:21:35.000Z</time>
      </trkpt>
      <trkpt lat="42.639302" lon="0.653806">
        <ele>3022.6</ele>
        <time>1970-01-01T06:21:36.000Z</time>
      </trkpt>
      <trkpt lat="42.639308" lon="0.6538">
        <ele>3022.5</ele>
        <time>1970-01-01T06:21:37.000Z</time>
      </trkpt>
      <trkpt lat="42.639318" lon="0.65379">
        <ele>3022.3</ele>
        <time>1970-01-01T06:21:38.000Z</time>
      </trkpt>
      <trkpt lat="42.639338" lon="0.653781">
        <ele>3022.1</ele>
        <time>1970-01-01T06:21:39.000Z</time>
      </trkpt>
      <trkpt lat="42.639346" lon="0.653777">
        <ele>3022</ele>
        <time>1970-01-01T06:21:41.000Z</time>
      </trkpt>
      <trkpt lat="42.639353" lon="0.653773">
        <ele>3021.9</ele>
        <time>1970-01-01T06:21:42.000Z</time>
      </trkpt>
      <trkpt lat="42.639362" lon="0.653768">
        <ele>3021.8</ele>
        <time>1970-01-01T06:21:43.000Z</time>
      </trkpt>
      <trkpt lat="42.639372" lon="0.653763">
        <ele>3021.7</ele>
        <time>1970-01-01T06:21:44.000Z</time>
      </trkpt>
      <trkpt lat="42.639382" lon="0.653759">
        <ele>3021.6</ele>
        <time>1970-01-01T06:21:45.000Z</time>
      </trkpt>
      <trkpt lat="42.639389" lon="0.653757">
        <ele>3021.5</ele>
        <time>1970-01-01T06:21:46.000Z</time>
      </trkpt>
      <trkpt lat="42.639399" lon="0.653756">
        <ele>3021.4</ele>
        <time>1970-01-01T06:21:47.000Z</time>
      </trkpt>
      <trkpt lat="42.639414" lon="0.653753">
        <ele>3021.2</ele>
        <time>1970-01-01T06:21:48.000Z</time>
      </trkpt>
      <trkpt lat="42.639427" lon="0.653752">
        <ele>3021.1</ele>
        <time>1970-01-01T06:21:50.000Z</time>
      </trkpt>
      <trkpt lat="42.639438" lon="0.653752">
        <ele>3021</ele>
        <time>1970-01-01T06:21:51.000Z</time>
      </trkpt>
      <trkpt lat="42.639448" lon="0.653752">
        <ele>3020.9</ele>
        <time>1970-01-01T06:21:52.000Z</time>
      </trkpt>
      <trkpt lat="42.639457" lon="0.653753">
        <ele>3020.8</ele>
        <time>1970-01-01T06:21:53.000Z</time>
      </trkpt>
      <trkpt lat="42.639467" lon="0.653753">
        <ele>3020.7</ele>
        <time>1970-01-01T06:21:54.000Z</time>
      </trkpt>
      <trkpt lat="42.639481" lon="0.653753">
        <ele>3020.5</ele>
        <time>1970-01-01T06:21:56.000Z</time>
      </trkpt>
      <trkpt lat="42.639492" lon="0.653751">
        <ele>3020.4</ele>
        <time>1970-01-01T06:21:57.000Z</time>
      </trkpt>
      <trkpt lat="42.639498" lon="0.653748">
        <ele>3020.3</ele>
        <time>1970-01-01T06:21:58.000Z</time>
      </trkpt>
      <trkpt lat="42.639504" lon="0.653743">
        <ele>3020.2</ele>
        <time>1970-01-01T06:21:59.000Z</time>
      </trkpt>
      <trkpt lat="42.639507" lon="0.653735">
        <ele>3020.2</ele>
        <time>1970-01-01T06:22:00.000Z</time>
      </trkpt>
      <trkpt lat="42.639509" lon="0.653728">
        <ele>3020.1</ele>
        <time>1970-01-01T06:22:01.000Z</time>
      </trkpt>
      <trkpt lat="42.639509" lon="0.653722">
        <ele>3020.1</ele>
        <time>1970-01-01T06:22:02.000Z</time>
      </trkpt>
      <trkpt lat="42.639507" lon="0.65372">
        <ele>3020</ele>
        <time>1970-01-01T06:22:03.000Z</time>
      </trkpt>
      <trkpt lat="42.639506" lon="0.653719">
        <ele>3020</ele>
        <time>1970-01-01T06:22:04.000Z</time>
      </trkpt>
      <trkpt lat="42.639506" lon="0.65372">
        <ele>3020</ele>
        <time>1970-01-01T06:22:05.000Z</time>
      </trkpt>
      <trkpt lat="42.639506" lon="0.653721">
        <ele>3020</ele>
        <time>1970-01-01T06:22:06.000Z</time>
      </trkpt>
      <trkpt lat="42.639505" lon="0.653722">
        <ele>3020</ele>
        <time>1970-01-01T06:22:07.000Z</time>
      </trkpt>
      <trkpt lat="42.639506" lon="0.653722">
        <ele>3020</ele>
        <time>1970-01-01T06:22:08.000Z</time>
      </trkpt>
      <trkpt lat="42.639505" lon="0.653722">
        <ele>3020</ele>
        <time>1970-01-01T06:22:09.000Z</time>
      </trkpt>
      <trkpt lat="42.639505" lon="0.653723">
        <ele>3019.9</ele>
        <time>1970-01-01T06:22:10.000Z</time>
      </trkpt>
      <trkpt lat="42.639505" lon="0.653722">
        <ele>3019.9</ele>
        <time>1970-01-01T06:22:11.000Z</time>
      </trkpt>
      <trkpt lat="42.639505" lon="0.653722">
        <ele>3019.9</ele>
        <time>1970-01-01T06:22:12.000Z</time>
      </trkpt>
      <trkpt lat="42.639505" lon="0.653722">
        <ele>3019.9</ele>
        <time>1970-01-01T06:22:13.000Z</time>
      </trkpt>
      <trkpt lat="42.639505" lon="0.653721">
        <ele>3019.9</ele>
        <time>1970-01-01T06:22:14.000Z</time>
      </trkpt>
      <trkpt lat="42.639505" lon="0.65372">
        <ele>3019.9</ele>
        <time>1970-01-01T06:22:15.000Z</time>
      </trkpt>
      <trkpt lat="42.639505" lon="0.653719">
        <ele>3019.9</ele>
        <time>1970-01-01T06:22:16.000Z</time>
      </trkpt>
      <trkpt lat="42.639505" lon="0.653719">
        <ele>3019.9</ele>
        <time>1970-01-01T06:22:17.000Z</time>
      </trkpt>
      <trkpt lat="42.639504" lon="0.653719">
        <ele>3019.9</ele>
        <time>1970-01-01T06:22:18.000Z</time>
      </trkpt>
      <trkpt lat="42.639504" lon="0.653724">
        <ele>3019.9</ele>
        <time>1970-01-01T06:22:19.000Z</time>
      </trkpt>
      <trkpt lat="42.639504" lon="0.653727">
        <ele>3019.8</ele>
        <time>1970-01-01T06:22:20.000Z</time>
      </trkpt>
      <trkpt lat="42.639504" lon="0.653729">
        <ele>3019.8</ele>
        <time>1970-01-01T06:22:21.000Z</time>
      </trkpt>
      <trkpt lat="42.639505" lon="0.65373">
        <ele>3019.8</ele>
        <time>1970-01-01T06:22:22.000Z</time>
      </trkpt>
      <trkpt lat="42.639508" lon="0.65373">
        <ele>3019.8</ele>
        <time>1970-01-01T06:22:23.000Z</time>
      </trkpt>
      <trkpt lat="42.63951" lon="0.65373">
        <ele>3019.8</ele>
        <time>1970-01-01T06:22:24.000Z</time>
      </trkpt>
      <trkpt lat="42.639514" lon="0.65373">
        <ele>3019.7</ele>
        <time>1970-01-01T06:22:25.000Z</time>
      </trkpt>
      <trkpt lat="42.639519" lon="0.653731">
        <ele>3019.7</ele>
        <time>1970-01-01T06:22:26.000Z</time>
      </trkpt>
      <trkpt lat="42.639526" lon="0.653732">
        <ele>3019.6</ele>
        <time>1970-01-01T06:22:27.000Z</time>
      </trkpt>
      <trkpt lat="42.639529" lon="0.653723">
        <ele>3019.5</ele>
        <time>1970-01-01T06:22:29.000Z</time>
      </trkpt>
      <trkpt lat="42.639528" lon="0.653721">
        <ele>3019.5</ele>
        <time>1970-01-01T06:22:30.000Z</time>
      </trkpt>
      <trkpt lat="42.639526" lon="0.65372">
        <ele>3019.5</ele>
        <time>1970-01-01T06:22:31.000Z</time>
      </trkpt>
      <trkpt lat="42.639525" lon="0.653719">
        <ele>3019.4</ele>
        <time>1970-01-01T06:22:32.000Z</time>
      </trkpt>
      <trkpt lat="42.639525" lon="0.653719">
        <ele>3019.4</ele>
        <time>1970-01-01T06:22:33.000Z</time>
      </trkpt>
      <trkpt lat="42.639525" lon="0.653718">
        <ele>3019.4</ele>
        <time>1970-01-01T06:22:34.000Z</time>
      </trkpt>
      <trkpt lat="42.639526" lon="0.653718">
        <ele>3019.4</ele>
        <time>1970-01-01T06:22:35.000Z</time>
      </trkpt>
      <trkpt lat="42.639526" lon="0.653717">
        <ele>3019.4</ele>
        <time>1970-01-01T06:22:36.000Z</time>
      </trkpt>
      <trkpt lat="42.639526" lon="0.653716">
        <ele>3019.4</ele>
        <time>1970-01-01T06:22:37.000Z</time>
      </trkpt>
      <trkpt lat="42.639527" lon="0.653716">
        <ele>3019.4</ele>
        <time>1970-01-01T06:22:38.000Z</time>
      </trkpt>
      <trkpt lat="42.639527" lon="0.653715">
        <ele>3019.4</ele>
        <time>1970-01-01T06:22:39.000Z</time>
      </trkpt>
      <trkpt lat="42.639528" lon="0.653715">
        <ele>3019.4</ele>
        <time>1970-01-01T06:22:40.000Z</time>
      </trkpt>
      <trkpt lat="42.639527" lon="0.653716">
        <ele>3019.4</ele>
        <time>1970-01-01T06:22:41.000Z</time>
      </trkpt>
      <trkpt lat="42.639527" lon="0.653719">
        <ele>3019.3</ele>
        <time>1970-01-01T06:22:43.000Z</time>
      </trkpt>
      <trkpt lat="42.639528" lon="0.65372">
        <ele>3019.3</ele>
        <time>1970-01-01T06:22:44.000Z</time>
      </trkpt>
      <trkpt lat="42.639528" lon="0.653721">
        <ele>3019.3</ele>
        <time>1970-01-01T06:22:45.000Z</time>
      </trkpt>
      <trkpt lat="42.639528" lon="0.653722">
        <ele>3019.3</ele>
        <time>1970-01-01T06:22:46.000Z</time>
      </trkpt>
      <trkpt lat="42.639529" lon="0.653723">
        <ele>3019.3</ele>
        <time>1970-01-01T06:22:47.000Z</time>
      </trkpt>
      <trkpt lat="42.639529" lon="0.653724">
        <ele>3019.3</ele>
        <time>1970-01-01T06:22:48.000Z</time>
      </trkpt>
      <trkpt lat="42.639529" lon="0.653725">
        <ele>3019.3</ele>
        <time>1970-01-01T06:22:49.000Z</time>
      </trkpt>
      <trkpt lat="42.63953" lon="0.653727">
        <ele>3019.2</ele>
        <time>1970-01-01T06:22:50.000Z</time>
      </trkpt>
      <trkpt lat="42.63953" lon="0.653727">
        <ele>3019.2</ele>
        <time>1970-01-01T06:22:51.000Z</time>
      </trkpt>
      <trkpt lat="42.63953" lon="0.653728">
        <ele>3019.2</ele>
        <time>1970-01-01T06:22:52.000Z</time>
      </trkpt>
      <trkpt lat="42.63953" lon="0.653728">
        <ele>3019.2</ele>
        <time>1970-01-01T06:22:53.000Z</time>
      </trkpt>
      <trkpt lat="42.63953" lon="0.653729">
        <ele>3019.2</ele>
        <time>1970-01-01T06:22:54.000Z</time>
      </trkpt>
      <trkpt lat="42.63953" lon="0.653729">
        <ele>3019.2</ele>
        <time>1970-01-01T06:22:55.000Z</time>
      </trkpt>
      <trkpt lat="42.639531" lon="0.653729">
        <ele>3019.2</ele>
        <time>1970-01-01T06:22:56.000Z</time>
      </trkpt>
      <trkpt lat="42.639531" lon="0.65373">
        <ele>3019.2</ele>
        <time>1970-01-01T06:22:57.000Z</time>
      </trkpt>
      <trkpt lat="42.639531" lon="0.65373">
        <ele>3019.2</ele>
        <time>1970-01-01T06:22:58.000Z</time>
      </trkpt>
      <trkpt lat="42.639531" lon="0.653729">
        <ele>3019.2</ele>
        <time>1970-01-01T06:22:59.000Z</time>
      </trkpt>
      <trkpt lat="42.639531" lon="0.65373">
        <ele>3019.2</ele>
        <time>1970-01-01T06:23:00.000Z</time>
      </trkpt>
      <trkpt lat="42.639531" lon="0.65373">
        <ele>3019.2</ele>
        <time>1970-01-01T06:23:01.000Z</time>
      </trkpt>
      <trkpt lat="42.639531" lon="0.653731">
        <ele>3019.2</ele>
        <time>1970-01-01T06:23:02.000Z</time>
      </trkpt>
      <trkpt lat="42.639532" lon="0.653729">
        <ele>3019.2</ele>
        <time>1970-01-01T06:23:03.000Z</time>
      </trkpt>
      <trkpt lat="42.639532" lon="0.653729">
        <ele>3019.2</ele>
        <time>1970-01-01T06:23:04.000Z</time>
      </trkpt>
      <trkpt lat="42.639532" lon="0.653728">
        <ele>3019.2</ele>
        <time>1970-01-01T06:23:05.000Z</time>
      </trkpt>
      <trkpt lat="42.639532" lon="0.653728">
        <ele>3019.2</ele>
        <time>1970-01-01T06:23:06.000Z</time>
      </trkpt>
      <trkpt lat="42.639532" lon="0.653728">
        <ele>3019.2</ele>
        <time>1970-01-01T06:23:07.000Z</time>
      </trkpt>
      <trkpt lat="42.639532" lon="0.653728">
        <ele>3019.2</ele>
        <time>1970-01-01T06:23:08.000Z</time>
      </trkpt>
      <trkpt lat="42.639532" lon="0.653728">
        <ele>3019.2</ele>
        <time>1970-01-01T06:23:09.000Z</time>
      </trkpt>
      <trkpt lat="42.639532" lon="0.653728">
        <ele>3019.2</ele>
        <time>1970-01-01T06:23:10.000Z</time>
      </trkpt>
      <trkpt lat="42.639532" lon="0.653728">
        <ele>3019.2</ele>
        <time>1970-01-01T06:23:11.000Z</time>
      </trkpt>
      <trkpt lat="42.639532" lon="0.653728">
        <ele>3019.2</ele>
        <time>1970-01-01T06:23:12.000Z</time>
      </trkpt>
      <trkpt lat="42.639532" lon="0.653728">
        <ele>3019.2</ele>
        <time>1970-01-01T06:23:13.000Z</time>
      </trkpt>
      <trkpt lat="42.639532" lon="0.653728">
        <ele>3019.2</ele>
        <time>1970-01-01T06:23:14.000Z</time>
      </trkpt>
      <trkpt lat="42.639532" lon="0.653728">
        <ele>3019.2</ele>
        <time>1970-01-01T06:23:15.000Z</time>
      </trkpt>
      <trkpt lat="42.639532" lon="0.653728">
        <ele>3019.2</ele>
        <time>1970-01-01T06:23:16.000Z</time>
      </trkpt>
      <trkpt lat="42.639532" lon="0.653728">
        <ele>3019.2</ele>
        <time>1970-01-01T06:23:17.000Z</time>
      </trkpt>
      <trkpt lat="42.639532" lon="0.653728">
        <ele>3019.2</ele>
        <time>1970-01-01T06:23:18.000Z</time>
      </trkpt>
      <trkpt lat="42.639532" lon="0.653728">
        <ele>3019.2</ele>
        <time>1970-01-01T06:23:19.000Z</time>
      </trkpt>
      <trkpt lat="42.639532" lon="0.653728">
        <ele>3019.2</ele>
        <time>1970-01-01T06:23:20.000Z</time>
      </trkpt>
      <trkpt lat="42.639532" lon="0.653728">
        <ele>3019.2</ele>
        <time>1970-01-01T06:23:21.000Z</time>
      </trkpt>
      <trkpt lat="42.639532" lon="0.653728">
        <ele>3019.2</ele>
        <time>1970-01-01T06:23:22.000Z</time>
      </trkpt>
      <trkpt lat="42.639532" lon="0.653728">
        <ele>3019.2</ele>
        <time>1970-01-01T06:23:23.000Z</time>
      </trkpt>
      <trkpt lat="42.639532" lon="0.653728">
        <ele>3019.2</ele>
        <time>1970-01-01T06:23:24.000Z</time>
      </trkpt>
      <trkpt lat="42.639532" lon="0.653728">
        <ele>3019.2</ele>
        <time>1970-01-01T06:23:25.000Z</time>
      </trkpt>
      <trkpt lat="42.639532" lon="0.653728">
        <ele>3019.2</ele>
        <time>1970-01-01T06:23:26.000Z</time>
      </trkpt>
      <trkpt lat="42.639532" lon="0.653728">
        <ele>3019.2</ele>
        <time>1970-01-01T06:23:27.000Z</time>
      </trkpt>
      <trkpt lat="42.639532" lon="0.653728">
        <ele>3019.2</ele>
        <time>1970-01-01T06:23:28.000Z</time>
      </trkpt>
      <trkpt lat="42.639533" lon="0.653728">
        <ele>3019.1</ele>
        <time>1970-01-01T06:23:29.000Z</time>
      </trkpt>
      <trkpt lat="42.639533" lon="0.653728">
        <ele>3019.1</ele>
        <time>1970-01-01T06:23:30.000Z</time>
      </trkpt>
      <trkpt lat="42.639533" lon="0.653728">
        <ele>3019.1</ele>
        <time>1970-01-01T06:23:31.000Z</time>
      </trkpt>
      <trkpt lat="42.639533" lon="0.653728">
        <ele>3019.1</ele>
        <time>1970-01-01T06:23:32.000Z</time>
      </trkpt>
      <trkpt lat="42.639533" lon="0.653728">
        <ele>3019.1</ele>
        <time>1970-01-01T06:23:33.000Z</time>
      </trkpt>
      <trkpt lat="42.639533" lon="0.653728">
        <ele>3019.1</ele>
        <time>1970-01-01T06:23:34.000Z</time>
      </trkpt>
      <trkpt lat="42.639533" lon="0.653728">
        <ele>3019.1</ele>
        <time>1970-01-01T06:23:35.000Z</time>
      </trkpt>
      <trkpt lat="42.639533" lon="0.653728">
        <ele>3019.1</ele>
        <time>1970-01-01T06:23:36.000Z</time>
      </trkpt>
      <trkpt lat="42.639533" lon="0.653728">
        <ele>3019.1</ele>
        <time>1970-01-01T06:23:37.000Z</time>
      </trkpt>
      <trkpt lat="42.639533" lon="0.653728">
        <ele>3019.1</ele>
        <time>1970-01-01T06:23:38.000Z</time>
      </trkpt>
      <trkpt lat="42.639533" lon="0.653728">
        <ele>3019</ele>
        <time>1970-01-01T06:23:39.000Z</time>
      </trkpt>
      <trkpt lat="42.639533" lon="0.653728">
        <ele>3019</ele>
        <time>1970-01-01T06:23:40.000Z</time>
      </trkpt>
      <trkpt lat="42.639533" lon="0.653728">
        <ele>3019</ele>
        <time>1970-01-01T06:23:41.000Z</time>
      </trkpt>
      <trkpt lat="42.639533" lon="0.653728">
        <ele>3019</ele>
        <time>1970-01-01T06:23:42.000Z</time>
      </trkpt>
      <trkpt lat="42.639533" lon="0.653728">
        <ele>3019</ele>
        <time>1970-01-01T06:23:43.000Z</time>
      </trkpt>
      <trkpt lat="42.639533" lon="0.653728">
        <ele>3019</ele>
        <time>1970-01-01T06:23:44.000Z</time>
      </trkpt>
      <trkpt lat="42.639531" lon="0.65373">
        <ele>3019</ele>
        <time>1970-01-01T06:23:45.000Z</time>
      </trkpt>
      <trkpt lat="42.639531" lon="0.653731">
        <ele>3018.9</ele>
        <time>1970-01-01T06:23:46.000Z</time>
      </trkpt>
      <trkpt lat="42.639531" lon="0.653731">
        <ele>3018.9</ele>
        <time>1970-01-01T06:23:47.000Z</time>
      </trkpt>
      <trkpt lat="42.639531" lon="0.65373">
        <ele>3018.9</ele>
        <time>1970-01-01T06:23:48.000Z</time>
      </trkpt>
      <trkpt lat="42.639531" lon="0.65373">
        <ele>3018.9</ele>
        <time>1970-01-01T06:23:49.000Z</time>
      </trkpt>
      <trkpt lat="42.639531" lon="0.65373">
        <ele>3018.9</ele>
        <time>1970-01-01T06:23:50.000Z</time>
      </trkpt>
      <trkpt lat="42.639532" lon="0.65373">
        <ele>3018.9</ele>
        <time>1970-01-01T06:23:51.000Z</time>
      </trkpt>
      <trkpt lat="42.639532" lon="0.65373">
        <ele>3018.9</ele>
        <time>1970-01-01T06:23:52.000Z</time>
      </trkpt>
      <trkpt lat="42.639532" lon="0.65373">
        <ele>3018.8</ele>
        <time>1970-01-01T06:23:53.000Z</time>
      </trkpt>
      <trkpt lat="42.639532" lon="0.65373">
        <ele>3018.8</ele>
        <time>1970-01-01T06:23:54.000Z</time>
      </trkpt>
      <trkpt lat="42.639531" lon="0.65373">
        <ele>3018.8</ele>
        <time>1970-01-01T06:23:55.000Z</time>
      </trkpt>
      <trkpt lat="42.639531" lon="0.65373">
        <ele>3018.8</ele>
        <time>1970-01-01T06:23:57.000Z</time>
      </trkpt>
      <trkpt lat="42.639531" lon="0.65373">
        <ele>3018.8</ele>
        <time>1970-01-01T06:23:58.000Z</time>
      </trkpt>
      <trkpt lat="42.639531" lon="0.653729">
        <ele>3018.8</ele>
        <time>1970-01-01T06:23:59.000Z</time>
      </trkpt>
      <trkpt lat="42.639533" lon="0.65373">
        <ele>3018.7</ele>
        <time>1970-01-01T06:24:00.000Z</time>
      </trkpt>
      <trkpt lat="42.639534" lon="0.65373">
        <ele>3018.7</ele>
        <time>1970-01-01T06:24:01.000Z</time>
      </trkpt>
      <trkpt lat="42.639535" lon="0.653731">
        <ele>3018.6</ele>
        <time>1970-01-01T06:24:02.000Z</time>
      </trkpt>
      <trkpt lat="42.639535" lon="0.653732">
        <ele>3018.6</ele>
        <time>1970-01-01T06:24:03.000Z</time>
      </trkpt>
      <trkpt lat="42.639535" lon="0.653732">
        <ele>3018.6</ele>
        <time>1970-01-01T06:24:04.000Z</time>
      </trkpt>
      <trkpt lat="42.639535" lon="0.653732">
        <ele>3018.6</ele>
        <time>1970-01-01T06:24:05.000Z</time>
      </trkpt>
      <trkpt lat="42.639536" lon="0.653732">
        <ele>3018.6</ele>
        <time>1970-01-01T06:24:06.000Z</time>
      </trkpt>
      <trkpt lat="42.639537" lon="0.653731">
        <ele>3018.6</ele>
        <time>1970-01-01T06:24:07.000Z</time>
      </trkpt>
      <trkpt lat="42.639537" lon="0.65373">
        <ele>3018.6</ele>
        <time>1970-01-01T06:24:09.000Z</time>
      </trkpt>
      <trkpt lat="42.639538" lon="0.65373">
        <ele>3018.5</ele>
        <time>1970-01-01T06:24:10.000Z</time>
      </trkpt>
      <trkpt lat="42.639538" lon="0.65373">
        <ele>3018.5</ele>
        <time>1970-01-01T06:24:11.000Z</time>
      </trkpt>
      <trkpt lat="42.639538" lon="0.65373">
        <ele>3018.5</ele>
        <time>1970-01-01T06:24:12.000Z</time>
      </trkpt>
      <trkpt lat="42.639538" lon="0.65373">
        <ele>3018.5</ele>
        <time>1970-01-01T06:24:13.000Z</time>
      </trkpt>
      <trkpt lat="42.639538" lon="0.65373">
        <ele>3018.4</ele>
        <time>1970-01-01T06:24:14.000Z</time>
      </trkpt>
      <trkpt lat="42.639538" lon="0.65373">
        <ele>3018.4</ele>
        <time>1970-01-01T06:24:15.000Z</time>
      </trkpt>
      <trkpt lat="42.639538" lon="0.65373">
        <ele>3018.4</ele>
        <time>1970-01-01T06:24:16.000Z</time>
      </trkpt>
      <trkpt lat="42.639538" lon="0.65373">
        <ele>3018.4</ele>
        <time>1970-01-01T06:24:17.000Z</time>
      </trkpt>
      <trkpt lat="42.639538" lon="0.65373">
        <ele>3018.4</ele>
        <time>1970-01-01T06:24:18.000Z</time>
      </trkpt>
      <trkpt lat="42.639538" lon="0.65373">
        <ele>3018.4</ele>
        <time>1970-01-01T06:24:19.000Z</time>
      </trkpt>
      <trkpt lat="42.639538" lon="0.65373">
        <ele>3018.4</ele>
        <time>1970-01-01T06:24:20.000Z</time>
      </trkpt>
      <trkpt lat="42.639538" lon="0.65373">
        <ele>3018.3</ele>
        <time>1970-01-01T06:24:21.000Z</time>
      </trkpt>
      <trkpt lat="42.639538" lon="0.65373">
        <ele>3018.3</ele>
        <time>1970-01-01T06:24:22.000Z</time>
      </trkpt>
      <trkpt lat="42.639539" lon="0.653731">
        <ele>3018.3</ele>
        <time>1970-01-01T06:24:23.000Z</time>
      </trkpt>
      <trkpt lat="42.639539" lon="0.653731">
        <ele>3018.2</ele>
        <time>1970-01-01T06:24:24.000Z</time>
      </trkpt>
      <trkpt lat="42.639539" lon="0.653731">
        <ele>3018.2</ele>
        <time>1970-01-01T06:24:25.000Z</time>
      </trkpt>
      <trkpt lat="42.639539" lon="0.653731">
        <ele>3018.2</ele>
        <time>1970-01-01T06:24:26.000Z</time>
      </trkpt>
      <trkpt lat="42.639539" lon="0.653731">
        <ele>3018.2</ele>
        <time>1970-01-01T06:24:27.000Z</time>
      </trkpt>
      <trkpt lat="42.639539" lon="0.653731">
        <ele>3018.2</ele>
        <time>1970-01-01T06:24:28.000Z</time>
      </trkpt>
      <trkpt lat="42.639539" lon="0.653731">
        <ele>3018.2</ele>
        <time>1970-01-01T06:24:29.000Z</time>
      </trkpt>
      <trkpt lat="42.639539" lon="0.653731">
        <ele>3018.2</ele>
        <time>1970-01-01T06:24:30.000Z</time>
      </trkpt>
      <trkpt lat="42.639539" lon="0.653731">
        <ele>3018.1</ele>
        <time>1970-01-01T06:24:31.000Z</time>
      </trkpt>
      <trkpt lat="42.639539" lon="0.653731">
        <ele>3018.1</ele>
        <time>1970-01-01T06:24:32.000Z</time>
      </trkpt>
      <trkpt lat="42.639539" lon="0.653728">
        <ele>3018.1</ele>
        <time>1970-01-01T06:24:33.000Z</time>
      </trkpt>
      <trkpt lat="42.63954" lon="0.653727">
        <ele>3018.1</ele>
        <time>1970-01-01T06:24:34.000Z</time>
      </trkpt>
      <trkpt lat="42.63954" lon="0.653727">
        <ele>3018.1</ele>
        <time>1970-01-01T06:24:35.000Z</time>
      </trkpt>
      <trkpt lat="42.63954" lon="0.653728">
        <ele>3018.1</ele>
        <time>1970-01-01T06:24:36.000Z</time>
      </trkpt>
      <trkpt lat="42.639543" lon="0.653729">
        <ele>3018</ele>
        <time>1970-01-01T06:24:37.000Z</time>
      </trkpt>
      <trkpt lat="42.639543" lon="0.653729">
        <ele>3018</ele>
        <time>1970-01-01T06:24:38.000Z</time>
      </trkpt>
      <trkpt lat="42.639543" lon="0.65373">
        <ele>3017.9</ele>
        <time>1970-01-01T06:24:39.000Z</time>
      </trkpt>
      <trkpt lat="42.639545" lon="0.653731">
        <ele>3017.9</ele>
        <time>1970-01-01T06:24:40.000Z</time>
      </trkpt>
      <trkpt lat="42.639546" lon="0.653732">
        <ele>3017.9</ele>
        <time>1970-01-01T06:24:41.000Z</time>
      </trkpt>
      <trkpt lat="42.639547" lon="0.653733">
        <ele>3017.8</ele>
        <time>1970-01-01T06:24:42.000Z</time>
      </trkpt>
      <trkpt lat="42.639548" lon="0.653733">
        <ele>3017.8</ele>
        <time>1970-01-01T06:24:43.000Z</time>
      </trkpt>
      <trkpt lat="42.639548" lon="0.653733">
        <ele>3017.8</ele>
        <time>1970-01-01T06:24:44.000Z</time>
      </trkpt>
      <trkpt lat="42.639549" lon="0.653733">
        <ele>3017.8</ele>
        <time>1970-01-01T06:24:45.000Z</time>
      </trkpt>
      <trkpt lat="42.63955" lon="0.653733">
        <ele>3017.8</ele>
        <time>1970-01-01T06:24:46.000Z</time>
      </trkpt>
      <trkpt lat="42.63955" lon="0.653733">
        <ele>3017.8</ele>
        <time>1970-01-01T06:24:47.000Z</time>
      </trkpt>
      <trkpt lat="42.639551" lon="0.653733">
        <ele>3017.7</ele>
        <time>1970-01-01T06:24:48.000Z</time>
      </trkpt>
      <trkpt lat="42.639551" lon="0.653733">
        <ele>3017.7</ele>
        <time>1970-01-01T06:24:49.000Z</time>
      </trkpt>
      <trkpt lat="42.639551" lon="0.653733">
        <ele>3017.7</ele>
        <time>1970-01-01T06:24:50.000Z</time>
      </trkpt>
      <trkpt lat="42.639552" lon="0.653732">
        <ele>3017.7</ele>
        <time>1970-01-01T06:24:51.000Z</time>
      </trkpt>
      <trkpt lat="42.639552" lon="0.653733">
        <ele>3017.7</ele>
        <time>1970-01-01T06:24:52.000Z</time>
      </trkpt>
      <trkpt lat="42.639552" lon="0.653737">
        <ele>3017.6</ele>
        <time>1970-01-01T06:24:53.000Z</time>
      </trkpt>
      <trkpt lat="42.639552" lon="0.653741">
        <ele>3017.5</ele>
        <time>1970-01-01T06:24:54.000Z</time>
      </trkpt>
      <trkpt lat="42.639551" lon="0.653744">
        <ele>3017.4</ele>
        <time>1970-01-01T06:24:55.000Z</time>
      </trkpt>
      <trkpt lat="42.63955" lon="0.653746">
        <ele>3017.4</ele>
        <time>1970-01-01T06:24:56.000Z</time>
      </trkpt>
      <trkpt lat="42.63955" lon="0.653748">
        <ele>3017.4</ele>
        <time>1970-01-01T06:24:57.000Z</time>
      </trkpt>
      <trkpt lat="42.63955" lon="0.653753">
        <ele>3017.3</ele>
        <time>1970-01-01T06:24:58.000Z</time>
      </trkpt>
      <trkpt lat="42.63955" lon="0.653755">
        <ele>3017.3</ele>
        <time>1970-01-01T06:24:59.000Z</time>
      </trkpt>
      <trkpt lat="42.639549" lon="0.653759">
        <ele>3017.3</ele>
        <time>1970-01-01T06:25:00.000Z</time>
      </trkpt>
      <trkpt lat="42.639548" lon="0.653765">
        <ele>3017.1</ele>
        <time>1970-01-01T06:25:01.000Z</time>
      </trkpt>
      <trkpt lat="42.639545" lon="0.653772">
        <ele>3017</ele>
        <time>1970-01-01T06:25:02.000Z</time>
      </trkpt>
      <trkpt lat="42.639543" lon="0.653777">
        <ele>3017</ele>
        <time>1970-01-01T06:25:03.000Z</time>
      </trkpt>
      <trkpt lat="42.639538" lon="0.653784">
        <ele>3016.9</ele>
        <time>1970-01-01T06:25:04.000Z</time>
      </trkpt>
      <trkpt lat="42.639535" lon="0.653783">
        <ele>3016.8</ele>
        <time>1970-01-01T06:25:05.000Z</time>
      </trkpt>
      <trkpt lat="42.639532" lon="0.653786">
        <ele>3016.8</ele>
        <time>1970-01-01T06:25:06.000Z</time>
      </trkpt>
      <trkpt lat="42.63953" lon="0.653787">
        <ele>3016.7</ele>
        <time>1970-01-01T06:25:07.000Z</time>
      </trkpt>
      <trkpt lat="42.639528" lon="0.653787">
        <ele>3016.6</ele>
        <time>1970-01-01T06:25:08.000Z</time>
      </trkpt>
      <trkpt lat="42.639525" lon="0.653789">
        <ele>3016.6</ele>
        <time>1970-01-01T06:25:10.000Z</time>
      </trkpt>
      <trkpt lat="42.639517" lon="0.653795">
        <ele>3016.4</ele>
        <time>1970-01-01T06:25:11.000Z</time>
      </trkpt>
      <trkpt lat="42.639513" lon="0.653795">
        <ele>3016.4</ele>
        <time>1970-01-01T06:25:12.000Z</time>
      </trkpt>
      <trkpt lat="42.63951" lon="0.653793">
        <ele>3016.3</ele>
        <time>1970-01-01T06:25:13.000Z</time>
      </trkpt>
      <trkpt lat="42.639509" lon="0.65379">
        <ele>3016.3</ele>
        <time>1970-01-01T06:25:14.000Z</time>
      </trkpt>
      <trkpt lat="42.639508" lon="0.653788">
        <ele>3016.2</ele>
        <time>1970-01-01T06:25:15.000Z</time>
      </trkpt>
      <trkpt lat="42.639507" lon="0.653787">
        <ele>3016.1</ele>
        <time>1970-01-01T06:25:16.000Z</time>
      </trkpt>
      <trkpt lat="42.639506" lon="0.653787">
        <ele>3016.1</ele>
        <time>1970-01-01T06:25:17.000Z</time>
      </trkpt>
      <trkpt lat="42.639506" lon="0.653786">
        <ele>3016.1</ele>
        <time>1970-01-01T06:25:18.000Z</time>
      </trkpt>
      <trkpt lat="42.639505" lon="0.653786">
        <ele>3016.1</ele>
        <time>1970-01-01T06:25:19.000Z</time>
      </trkpt>
      <trkpt lat="42.639503" lon="0.653786">
        <ele>3016.1</ele>
        <time>1970-01-01T06:25:20.000Z</time>
      </trkpt>
      <trkpt lat="42.639497" lon="0.653783">
        <ele>3016</ele>
        <time>1970-01-01T06:25:22.000Z</time>
      </trkpt>
      <trkpt lat="42.639496" lon="0.653781">
        <ele>3016</ele>
        <time>1970-01-01T06:25:23.000Z</time>
      </trkpt>
      <trkpt lat="42.639495" lon="0.653779">
        <ele>3015.9</ele>
        <time>1970-01-01T06:25:24.000Z</time>
      </trkpt>
      <trkpt lat="42.639494" lon="0.653777">
        <ele>3015.9</ele>
        <time>1970-01-01T06:25:25.000Z</time>
      </trkpt>
      <trkpt lat="42.639493" lon="0.653776">
        <ele>3015.9</ele>
        <time>1970-01-01T06:25:26.000Z</time>
      </trkpt>
      <trkpt lat="42.639492" lon="0.653776">
        <ele>3015.9</ele>
        <time>1970-01-01T06:25:27.000Z</time>
      </trkpt>
      <trkpt lat="42.639491" lon="0.653776">
        <ele>3015.9</ele>
        <time>1970-01-01T06:25:28.000Z</time>
      </trkpt>
      <trkpt lat="42.63949" lon="0.653776">
        <ele>3015.8</ele>
        <time>1970-01-01T06:25:29.000Z</time>
      </trkpt>
      <trkpt lat="42.63949" lon="0.653776">
        <ele>3015.8</ele>
        <time>1970-01-01T06:25:30.000Z</time>
      </trkpt>
      <trkpt lat="42.639489" lon="0.653777">
        <ele>3015.8</ele>
        <time>1970-01-01T06:25:31.000Z</time>
      </trkpt>
      <trkpt lat="42.639489" lon="0.653778">
        <ele>3015.8</ele>
        <time>1970-01-01T06:25:32.000Z</time>
      </trkpt>
      <trkpt lat="42.63949" lon="0.653776">
        <ele>3015.8</ele>
        <time>1970-01-01T06:25:33.000Z</time>
      </trkpt>
      <trkpt lat="42.639493" lon="0.653774">
        <ele>3015.7</ele>
        <time>1970-01-01T06:25:34.000Z</time>
      </trkpt>
      <trkpt lat="42.63949" lon="0.653776">
        <ele>3015.7</ele>
        <time>1970-01-01T06:25:35.000Z</time>
      </trkpt>
      <trkpt lat="42.639489" lon="0.653777">
        <ele>3015.7</ele>
        <time>1970-01-01T06:25:36.000Z</time>
      </trkpt>
      <trkpt lat="42.639495" lon="0.653776">
        <ele>3015.6</ele>
        <time>1970-01-01T06:25:37.000Z</time>
      </trkpt>
      <trkpt lat="42.639498" lon="0.653775">
        <ele>3015.5</ele>
        <time>1970-01-01T06:25:38.000Z</time>
      </trkpt>
      <trkpt lat="42.639501" lon="0.653774">
        <ele>3015.5</ele>
        <time>1970-01-01T06:25:39.000Z</time>
      </trkpt>
      <trkpt lat="42.639502" lon="0.653774">
        <ele>3015.5</ele>
        <time>1970-01-01T06:25:40.000Z</time>
      </trkpt>
      <trkpt lat="42.639503" lon="0.653773">
        <ele>3015.5</ele>
        <time>1970-01-01T06:25:41.000Z</time>
      </trkpt>
      <trkpt lat="42.639503" lon="0.653773">
        <ele>3015.5</ele>
        <time>1970-01-01T06:25:42.000Z</time>
      </trkpt>
      <trkpt lat="42.639503" lon="0.653773">
        <ele>3015.5</ele>
        <time>1970-01-01T06:25:43.000Z</time>
      </trkpt>
      <trkpt lat="42.639503" lon="0.653772">
        <ele>3015.5</ele>
        <time>1970-01-01T06:25:44.000Z</time>
      </trkpt>
      <trkpt lat="42.639503" lon="0.653772">
        <ele>3015.5</ele>
        <time>1970-01-01T06:25:45.000Z</time>
      </trkpt>
      <trkpt lat="42.639503" lon="0.653772">
        <ele>3015.5</ele>
        <time>1970-01-01T06:25:46.000Z</time>
      </trkpt>
      <trkpt lat="42.639503" lon="0.653772">
        <ele>3015.5</ele>
        <time>1970-01-01T06:25:47.000Z</time>
      </trkpt>
      <trkpt lat="42.639506" lon="0.653773">
        <ele>3015.4</ele>
        <time>1970-01-01T06:25:48.000Z</time>
      </trkpt>
      <trkpt lat="42.639508" lon="0.653772">
        <ele>3015.4</ele>
        <time>1970-01-01T06:25:49.000Z</time>
      </trkpt>
      <trkpt lat="42.63951" lon="0.653768">
        <ele>3015.3</ele>
        <time>1970-01-01T06:25:50.000Z</time>
      </trkpt>
      <trkpt lat="42.63951" lon="0.653769">
        <ele>3015.3</ele>
        <time>1970-01-01T06:25:51.000Z</time>
      </trkpt>
      <trkpt lat="42.639514" lon="0.653768">
        <ele>3015.3</ele>
        <time>1970-01-01T06:25:52.000Z</time>
      </trkpt>
      <trkpt lat="42.639522" lon="0.653764">
        <ele>3015.2</ele>
        <time>1970-01-01T06:25:54.000Z</time>
      </trkpt>
      <trkpt lat="42.639532" lon="0.653758">
        <ele>3015</ele>
        <time>1970-01-01T06:25:55.000Z</time>
      </trkpt>
      <trkpt lat="42.639541" lon="0.653743">
        <ele>3014.8</ele>
        <time>1970-01-01T06:25:56.000Z</time>
      </trkpt>
      <trkpt lat="42.639543" lon="0.653732">
        <ele>3014.7</ele>
        <time>1970-01-01T06:25:58.000Z</time>
      </trkpt>
      <trkpt lat="42.639545" lon="0.653716">
        <ele>3014.5</ele>
        <time>1970-01-01T06:25:59.000Z</time>
      </trkpt>
      <trkpt lat="42.639551" lon="0.653714">
        <ele>3014.4</ele>
        <time>1970-01-01T06:26:00.000Z</time>
      </trkpt>
      <trkpt lat="42.639563" lon="0.653708">
        <ele>3014.2</ele>
        <time>1970-01-01T06:26:02.000Z</time>
      </trkpt>
      <trkpt lat="42.639571" lon="0.65371">
        <ele>3014.1</ele>
        <time>1970-01-01T06:26:03.000Z</time>
      </trkpt>
      <trkpt lat="42.639577" lon="0.653712">
        <ele>3014</ele>
        <time>1970-01-01T06:26:04.000Z</time>
      </trkpt>
      <trkpt lat="42.63958" lon="0.653719">
        <ele>3014</ele>
        <time>1970-01-01T06:26:05.000Z</time>
      </trkpt>
      <trkpt lat="42.639583" lon="0.653724">
        <ele>3013.9</ele>
        <time>1970-01-01T06:26:07.000Z</time>
      </trkpt>
      <trkpt lat="42.639583" lon="0.653726">
        <ele>3013.9</ele>
        <time>1970-01-01T06:26:08.000Z</time>
      </trkpt>
      <trkpt lat="42.639582" lon="0.653729">
        <ele>3013.8</ele>
        <time>1970-01-01T06:26:09.000Z</time>
      </trkpt>
      <trkpt lat="42.639582" lon="0.653731">
        <ele>3013.8</ele>
        <time>1970-01-01T06:26:10.000Z</time>
      </trkpt>
      <trkpt lat="42.639581" lon="0.653733">
        <ele>3013.8</ele>
        <time>1970-01-01T06:26:11.000Z</time>
      </trkpt>
      <trkpt lat="42.639581" lon="0.653734">
        <ele>3013.8</ele>
        <time>1970-01-01T06:26:12.000Z</time>
      </trkpt>
      <trkpt lat="42.639581" lon="0.653734">
        <ele>3013.8</ele>
        <time>1970-01-01T06:26:13.000Z</time>
      </trkpt>
      <trkpt lat="42.63958" lon="0.653734">
        <ele>3013.8</ele>
        <time>1970-01-01T06:26:14.000Z</time>
      </trkpt>
      <trkpt lat="42.63958" lon="0.653733">
        <ele>3013.8</ele>
        <time>1970-01-01T06:26:15.000Z</time>
      </trkpt>
      <trkpt lat="42.639579" lon="0.653733">
        <ele>3013.8</ele>
        <time>1970-01-01T06:26:16.000Z</time>
      </trkpt>
      <trkpt lat="42.639579" lon="0.653734">
        <ele>3013.7</ele>
        <time>1970-01-01T06:26:17.000Z</time>
      </trkpt>
      <trkpt lat="42.639578" lon="0.653733">
        <ele>3013.7</ele>
        <time>1970-01-01T06:26:18.000Z</time>
      </trkpt>
      <trkpt lat="42.639577" lon="0.653733">
        <ele>3013.7</ele>
        <time>1970-01-01T06:26:19.000Z</time>
      </trkpt>
      <trkpt lat="42.639576" lon="0.653732">
        <ele>3013.7</ele>
        <time>1970-01-01T06:26:20.000Z</time>
      </trkpt>
      <trkpt lat="42.639576" lon="0.65373">
        <ele>3013.7</ele>
        <time>1970-01-01T06:26:21.000Z</time>
      </trkpt>
      <trkpt lat="42.639577" lon="0.65373">
        <ele>3013.7</ele>
        <time>1970-01-01T06:26:22.000Z</time>
      </trkpt>
      <trkpt lat="42.639577" lon="0.65373">
        <ele>3013.7</ele>
        <time>1970-01-01T06:26:23.000Z</time>
      </trkpt>
      <trkpt lat="42.639577" lon="0.65373">
        <ele>3013.7</ele>
        <time>1970-01-01T06:26:24.000Z</time>
      </trkpt>
      <trkpt lat="42.639577" lon="0.65373">
        <ele>3013.7</ele>
        <time>1970-01-01T06:26:25.000Z</time>
      </trkpt>
      <trkpt lat="42.639578" lon="0.653731">
        <ele>3013.6</ele>
        <time>1970-01-01T06:26:26.000Z</time>
      </trkpt>
      <trkpt lat="42.639579" lon="0.653731">
        <ele>3013.6</ele>
        <time>1970-01-01T06:26:27.000Z</time>
      </trkpt>
      <trkpt lat="42.63958" lon="0.653733">
        <ele>3013.6</ele>
        <time>1970-01-01T06:26:28.000Z</time>
      </trkpt>
      <trkpt lat="42.639581" lon="0.653737">
        <ele>3013.6</ele>
        <time>1970-01-01T06:26:30.000Z</time>
      </trkpt>
      <trkpt lat="42.639582" lon="0.653741">
        <ele>3013.5</ele>
        <time>1970-01-01T06:26:31.000Z</time>
      </trkpt>
      <trkpt lat="42.639581" lon="0.653745">
        <ele>3013.5</ele>
        <time>1970-01-01T06:26:32.000Z</time>
      </trkpt>
      <trkpt lat="42.639579" lon="0.653746">
        <ele>3013.4</ele>
        <time>1970-01-01T06:26:33.000Z</time>
      </trkpt>
      <trkpt lat="42.639577" lon="0.653748">
        <ele>3013.4</ele>
        <time>1970-01-01T06:26:34.000Z</time>
      </trkpt>
      <trkpt lat="42.639575" lon="0.653748">
        <ele>3013.4</ele>
        <time>1970-01-01T06:26:35.000Z</time>
      </trkpt>
      <trkpt lat="42.639569" lon="0.653754">
        <ele>3013.3</ele>
        <time>1970-01-01T06:26:36.000Z</time>
      </trkpt>
      <trkpt lat="42.63957" lon="0.653754">
        <ele>3013.3</ele>
        <time>1970-01-01T06:26:37.000Z</time>
      </trkpt>
      <trkpt lat="42.639569" lon="0.653756">
        <ele>3013.2</ele>
        <time>1970-01-01T06:26:38.000Z</time>
      </trkpt>
      <trkpt lat="42.639566" lon="0.653757">
        <ele>3013.2</ele>
        <time>1970-01-01T06:26:39.000Z</time>
      </trkpt>
      <trkpt lat="42.639564" lon="0.653757">
        <ele>3013.2</ele>
        <time>1970-01-01T06:26:40.000Z</time>
      </trkpt>
      <trkpt lat="42.639563" lon="0.653758">
        <ele>3013.1</ele>
        <time>1970-01-01T06:26:41.000Z</time>
      </trkpt>
      <trkpt lat="42.639561" lon="0.653757">
        <ele>3013.1</ele>
        <time>1970-01-01T06:26:42.000Z</time>
      </trkpt>
      <trkpt lat="42.63956" lon="0.653758">
        <ele>3013.1</ele>
        <time>1970-01-01T06:26:43.000Z</time>
      </trkpt>
      <trkpt lat="42.639558" lon="0.653758">
        <ele>3013.1</ele>
        <time>1970-01-01T06:26:44.000Z</time>
      </trkpt>
      <trkpt lat="42.639555" lon="0.653759">
        <ele>3013</ele>
        <time>1970-01-01T06:26:45.000Z</time>
      </trkpt>
      <trkpt lat="42.639552" lon="0.65376">
        <ele>3013</ele>
        <time>1970-01-01T06:26:46.000Z</time>
      </trkpt>
      <trkpt lat="42.639551" lon="0.653762">
        <ele>3013</ele>
        <time>1970-01-01T06:26:47.000Z</time>
      </trkpt>
      <trkpt lat="42.63955" lon="0.653763">
        <ele>3012.9</ele>
        <time>1970-01-01T06:26:48.000Z</time>
      </trkpt>
      <trkpt lat="42.63955" lon="0.653765">
        <ele>3012.9</ele>
        <time>1970-01-01T06:26:49.000Z</time>
      </trkpt>
      <trkpt lat="42.639549" lon="0.653766">
        <ele>3012.9</ele>
        <time>1970-01-01T06:26:50.000Z</time>
      </trkpt>
      <trkpt lat="42.639548" lon="0.653766">
        <ele>3012.9</ele>
        <time>1970-01-01T06:26:51.000Z</time>
      </trkpt>
      <trkpt lat="42.639548" lon="0.653767">
        <ele>3012.9</ele>
        <time>1970-01-01T06:26:52.000Z</time>
      </trkpt>
      <trkpt lat="42.639548" lon="0.653768">
        <ele>3012.9</ele>
        <time>1970-01-01T06:26:53.000Z</time>
      </trkpt>
      <trkpt lat="42.639547" lon="0.653768">
        <ele>3012.9</ele>
        <time>1970-01-01T06:26:54.000Z</time>
      </trkpt>
      <trkpt lat="42.639547" lon="0.653769">
        <ele>3012.8</ele>
        <time>1970-01-01T06:26:55.000Z</time>
      </trkpt>
      <trkpt lat="42.639546" lon="0.653771">
        <ele>3012.8</ele>
        <time>1970-01-01T06:26:56.000Z</time>
      </trkpt>
      <trkpt lat="42.639545" lon="0.653773">
        <ele>3012.8</ele>
        <time>1970-01-01T06:26:58.000Z</time>
      </trkpt>
      <trkpt lat="42.639542" lon="0.653774">
        <ele>3012.8</ele>
        <time>1970-01-01T06:26:59.000Z</time>
      </trkpt>
      <trkpt lat="42.639541" lon="0.653772">
        <ele>3012.7</ele>
        <time>1970-01-01T06:27:00.000Z</time>
      </trkpt>
      <trkpt lat="42.639542" lon="0.65377">
        <ele>3012.7</ele>
        <time>1970-01-01T06:27:01.000Z</time>
      </trkpt>
      <trkpt lat="42.639542" lon="0.653768">
        <ele>3012.7</ele>
        <time>1970-01-01T06:27:02.000Z</time>
      </trkpt>
      <trkpt lat="42.639542" lon="0.653767">
        <ele>3012.7</ele>
        <time>1970-01-01T06:27:03.000Z</time>
      </trkpt>
      <trkpt lat="42.639543" lon="0.653766">
        <ele>3012.7</ele>
        <time>1970-01-01T06:27:04.000Z</time>
      </trkpt>
      <trkpt lat="42.639543" lon="0.653765">
        <ele>3012.6</ele>
        <time>1970-01-01T06:27:05.000Z</time>
      </trkpt>
      <trkpt lat="42.639543" lon="0.653765">
        <ele>3012.6</ele>
        <time>1970-01-01T06:27:06.000Z</time>
      </trkpt>
      <trkpt lat="42.639543" lon="0.653764">
        <ele>3012.6</ele>
        <time>1970-01-01T06:27:07.000Z</time>
      </trkpt>
      <trkpt lat="42.639542" lon="0.653763">
        <ele>3012.6</ele>
        <time>1970-01-01T06:27:08.000Z</time>
      </trkpt>
      <trkpt lat="42.639542" lon="0.653763">
        <ele>3012.6</ele>
        <time>1970-01-01T06:27:09.000Z</time>
      </trkpt>
      <trkpt lat="42.639542" lon="0.653763">
        <ele>3012.6</ele>
        <time>1970-01-01T06:27:10.000Z</time>
      </trkpt>
      <trkpt lat="42.639542" lon="0.653763">
        <ele>3012.6</ele>
        <time>1970-01-01T06:27:11.000Z</time>
      </trkpt>
      <trkpt lat="42.639542" lon="0.653762">
        <ele>3012.6</ele>
        <time>1970-01-01T06:27:12.000Z</time>
      </trkpt>
      <trkpt lat="42.639543" lon="0.653762">
        <ele>3012.6</ele>
        <time>1970-01-01T06:27:13.000Z</time>
      </trkpt>
      <trkpt lat="42.639543" lon="0.653761">
        <ele>3012.6</ele>
        <time>1970-01-01T06:27:14.000Z</time>
      </trkpt>
      <trkpt lat="42.639543" lon="0.65376">
        <ele>3012.6</ele>
        <time>1970-01-01T06:27:15.000Z</time>
      </trkpt>
      <trkpt lat="42.639543" lon="0.65376">
        <ele>3012.6</ele>
        <time>1970-01-01T06:27:16.000Z</time>
      </trkpt>
      <trkpt lat="42.639543" lon="0.65376">
        <ele>3012.6</ele>
        <time>1970-01-01T06:27:17.000Z</time>
      </trkpt>
      <trkpt lat="42.639544" lon="0.653761">
        <ele>3012.6</ele>
        <time>1970-01-01T06:27:18.000Z</time>
      </trkpt>
      <trkpt lat="42.639545" lon="0.653762">
        <ele>3012.5</ele>
        <time>1970-01-01T06:27:19.000Z</time>
      </trkpt>
      <trkpt lat="42.639545" lon="0.653762">
        <ele>3012.5</ele>
        <time>1970-01-01T06:27:20.000Z</time>
      </trkpt>
      <trkpt lat="42.639545" lon="0.653762">
        <ele>3012.5</ele>
        <time>1970-01-01T06:27:21.000Z</time>
      </trkpt>
      <trkpt lat="42.639546" lon="0.653762">
        <ele>3012.5</ele>
        <time>1970-01-01T06:27:22.000Z</time>
      </trkpt>
      <trkpt lat="42.639549" lon="0.653762">
        <ele>3012.5</ele>
        <time>1970-01-01T06:27:23.000Z</time>
      </trkpt>
      <trkpt lat="42.639552" lon="0.653761">
        <ele>3012.4</ele>
        <time>1970-01-01T06:27:24.000Z</time>
      </trkpt>
      <trkpt lat="42.639553" lon="0.653761">
        <ele>3012.4</ele>
        <time>1970-01-01T06:27:25.000Z</time>
      </trkpt>
      <trkpt lat="42.639555" lon="0.653761">
        <ele>3012.4</ele>
        <time>1970-01-01T06:27:26.000Z</time>
      </trkpt>
      <trkpt lat="42.639556" lon="0.65376">
        <ele>3012.4</ele>
        <time>1970-01-01T06:27:27.000Z</time>
      </trkpt>
      <trkpt lat="42.639557" lon="0.653758">
        <ele>3012.4</ele>
        <time>1970-01-01T06:27:28.000Z</time>
      </trkpt>
      <trkpt lat="42.639558" lon="0.653756">
        <ele>3012.3</ele>
        <time>1970-01-01T06:27:29.000Z</time>
      </trkpt>
      <trkpt lat="42.639558" lon="0.653754">
        <ele>3012.3</ele>
        <time>1970-01-01T06:27:30.000Z</time>
      </trkpt>
      <trkpt lat="42.639558" lon="0.653753">
        <ele>3012.3</ele>
        <time>1970-01-01T06:27:31.000Z</time>
      </trkpt>
      <trkpt lat="42.639558" lon="0.653752">
        <ele>3012.3</ele>
        <time>1970-01-01T06:27:32.000Z</time>
      </trkpt>
      <trkpt lat="42.639558" lon="0.653752">
        <ele>3012.3</ele>
        <time>1970-01-01T06:27:33.000Z</time>
      </trkpt>
      <trkpt lat="42.639559" lon="0.653747">
        <ele>3012.2</ele>
        <time>1970-01-01T06:27:34.000Z</time>
      </trkpt>
      <trkpt lat="42.639559" lon="0.653744">
        <ele>3012.2</ele>
        <time>1970-01-01T06:27:35.000Z</time>
      </trkpt>
      <trkpt lat="42.639558" lon="0.653742">
        <ele>3012.2</ele>
        <time>1970-01-01T06:27:36.000Z</time>
      </trkpt>
      <trkpt lat="42.639557" lon="0.65374">
        <ele>3012.2</ele>
        <time>1970-01-01T06:27:37.000Z</time>
      </trkpt>
      <trkpt lat="42.639557" lon="0.653741">
        <ele>3012.1</ele>
        <time>1970-01-01T06:27:38.000Z</time>
      </trkpt>
      <trkpt lat="42.639556" lon="0.653741">
        <ele>3012.1</ele>
        <time>1970-01-01T06:27:39.000Z</time>
      </trkpt>
      <trkpt lat="42.639556" lon="0.65374">
        <ele>3012.1</ele>
        <time>1970-01-01T06:27:40.000Z</time>
      </trkpt>
      <trkpt lat="42.639556" lon="0.653739">
        <ele>3012.1</ele>
        <time>1970-01-01T06:27:41.000Z</time>
      </trkpt>
      <trkpt lat="42.639556" lon="0.653738">
        <ele>3012.1</ele>
        <time>1970-01-01T06:27:42.000Z</time>
      </trkpt>
      <trkpt lat="42.639556" lon="0.653737">
        <ele>3012.1</ele>
        <time>1970-01-01T06:27:43.000Z</time>
      </trkpt>
      <trkpt lat="42.639556" lon="0.653737">
        <ele>3012.1</ele>
        <time>1970-01-01T06:27:44.000Z</time>
      </trkpt>
      <trkpt lat="42.639556" lon="0.653739">
        <ele>3012.1</ele>
        <time>1970-01-01T06:27:45.000Z</time>
      </trkpt>
      <trkpt lat="42.639556" lon="0.653737">
        <ele>3012</ele>
        <time>1970-01-01T06:27:46.000Z</time>
      </trkpt>
      <trkpt lat="42.639556" lon="0.653736">
        <ele>3012</ele>
        <time>1970-01-01T06:27:47.000Z</time>
      </trkpt>
      <trkpt lat="42.639556" lon="0.653735">
        <ele>3012</ele>
        <time>1970-01-01T06:27:48.000Z</time>
      </trkpt>
      <trkpt lat="42.639556" lon="0.653735">
        <ele>3012</ele>
        <time>1970-01-01T06:27:49.000Z</time>
      </trkpt>
      <trkpt lat="42.639555" lon="0.653735">
        <ele>3012</ele>
        <time>1970-01-01T06:27:50.000Z</time>
      </trkpt>
      <trkpt lat="42.639555" lon="0.653734">
        <ele>3012</ele>
        <time>1970-01-01T06:27:51.000Z</time>
      </trkpt>
      <trkpt lat="42.639555" lon="0.653734">
        <ele>3012</ele>
        <time>1970-01-01T06:27:52.000Z</time>
      </trkpt>
      <trkpt lat="42.639555" lon="0.653734">
        <ele>3012</ele>
        <time>1970-01-01T06:27:53.000Z</time>
      </trkpt>
      <trkpt lat="42.639555" lon="0.653734">
        <ele>3012</ele>
        <time>1970-01-01T06:27:54.000Z</time>
      </trkpt>
      <trkpt lat="42.639555" lon="0.653736">
        <ele>3012</ele>
        <time>1970-01-01T06:27:55.000Z</time>
      </trkpt>
      <trkpt lat="42.639556" lon="0.653735">
        <ele>3012</ele>
        <time>1970-01-01T06:27:56.000Z</time>
      </trkpt>
      <trkpt lat="42.639555" lon="0.653732">
        <ele>3011.9</ele>
        <time>1970-01-01T06:27:57.000Z</time>
      </trkpt>
      <trkpt lat="42.639557" lon="0.653731">
        <ele>3011.9</ele>
        <time>1970-01-01T06:27:59.000Z</time>
      </trkpt>
      <trkpt lat="42.639558" lon="0.653731">
        <ele>3011.9</ele>
        <time>1970-01-01T06:28:00.000Z</time>
      </trkpt>
      <trkpt lat="42.639559" lon="0.653731">
        <ele>3011.9</ele>
        <time>1970-01-01T06:28:01.000Z</time>
      </trkpt>
      <trkpt lat="42.63956" lon="0.653731">
        <ele>3011.8</ele>
        <time>1970-01-01T06:28:02.000Z</time>
      </trkpt>
      <trkpt lat="42.639561" lon="0.653731">
        <ele>3011.8</ele>
        <time>1970-01-01T06:28:03.000Z</time>
      </trkpt>
      <trkpt lat="42.639562" lon="0.653731">
        <ele>3011.8</ele>
        <time>1970-01-01T06:28:05.000Z</time>
      </trkpt>
      <trkpt lat="42.639563" lon="0.653731">
        <ele>3011.8</ele>
        <time>1970-01-01T06:28:06.000Z</time>
      </trkpt>
      <trkpt lat="42.639562" lon="0.653731">
        <ele>3011.8</ele>
        <time>1970-01-01T06:28:07.000Z</time>
      </trkpt>
      <trkpt lat="42.639563" lon="0.65373">
        <ele>3011.8</ele>
        <time>1970-01-01T06:28:08.000Z</time>
      </trkpt>
      <trkpt lat="42.639563" lon="0.653729">
        <ele>3011.7</ele>
        <time>1970-01-01T06:28:09.000Z</time>
      </trkpt>
      <trkpt lat="42.639562" lon="0.65373">
        <ele>3011.7</ele>
        <time>1970-01-01T06:28:10.000Z</time>
      </trkpt>
      <trkpt lat="42.639563" lon="0.65373">
        <ele>3011.7</ele>
        <time>1970-01-01T06:28:11.000Z</time>
      </trkpt>
      <trkpt lat="42.639563" lon="0.65373">
        <ele>3011.7</ele>
        <time>1970-01-01T06:28:12.000Z</time>
      </trkpt>
      <trkpt lat="42.639564" lon="0.653729">
        <ele>3011.7</ele>
        <time>1970-01-01T06:28:13.000Z</time>
      </trkpt>
      <trkpt lat="42.639564" lon="0.653728">
        <ele>3011.7</ele>
        <time>1970-01-01T06:28:14.000Z</time>
      </trkpt>
      <trkpt lat="42.639564" lon="0.65373">
        <ele>3011.7</ele>
        <time>1970-01-01T06:28:16.000Z</time>
      </trkpt>
      <trkpt lat="42.639564" lon="0.653731">
        <ele>3011.7</ele>
        <time>1970-01-01T06:28:17.000Z</time>
      </trkpt>
      <trkpt lat="42.639564" lon="0.653731">
        <ele>3011.7</ele>
        <time>1970-01-01T06:28:18.000Z</time>
      </trkpt>
      <trkpt lat="42.639564" lon="0.653731">
        <ele>3011.7</ele>
        <time>1970-01-01T06:28:19.000Z</time>
      </trkpt>
      <trkpt lat="42.639563" lon="0.653731">
        <ele>3011.6</ele>
        <time>1970-01-01T06:28:20.000Z</time>
      </trkpt>
      <trkpt lat="42.639564" lon="0.653731">
        <ele>3011.6</ele>
        <time>1970-01-01T06:28:21.000Z</time>
      </trkpt>
      <trkpt lat="42.639563" lon="0.653732">
        <ele>3011.6</ele>
        <time>1970-01-01T06:28:22.000Z</time>
      </trkpt>
      <trkpt lat="42.639563" lon="0.653732">
        <ele>3011.6</ele>
        <time>1970-01-01T06:28:23.000Z</time>
      </trkpt>
      <trkpt lat="42.639563" lon="0.653732">
        <ele>3011.6</ele>
        <time>1970-01-01T06:28:24.000Z</time>
      </trkpt>
      <trkpt lat="42.639563" lon="0.653733">
        <ele>3011.6</ele>
        <time>1970-01-01T06:28:25.000Z</time>
      </trkpt>
      <trkpt lat="42.639564" lon="0.653733">
        <ele>3011.6</ele>
        <time>1970-01-01T06:28:26.000Z</time>
      </trkpt>
      <trkpt lat="42.639564" lon="0.653734">
        <ele>3011.6</ele>
        <time>1970-01-01T06:28:27.000Z</time>
      </trkpt>
      <trkpt lat="42.639564" lon="0.653734">
        <ele>3011.6</ele>
        <time>1970-01-01T06:28:28.000Z</time>
      </trkpt>
      <trkpt lat="42.639564" lon="0.653734">
        <ele>3011.6</ele>
        <time>1970-01-01T06:28:29.000Z</time>
      </trkpt>
      <trkpt lat="42.639564" lon="0.653735">
        <ele>3011.6</ele>
        <time>1970-01-01T06:28:30.000Z</time>
      </trkpt>
      <trkpt lat="42.639564" lon="0.653735">
        <ele>3011.6</ele>
        <time>1970-01-01T06:28:31.000Z</time>
      </trkpt>
      <trkpt lat="42.639564" lon="0.653736">
        <ele>3011.5</ele>
        <time>1970-01-01T06:28:32.000Z</time>
      </trkpt>
      <trkpt lat="42.639563" lon="0.653736">
        <ele>3011.5</ele>
        <time>1970-01-01T06:28:33.000Z</time>
      </trkpt>
      <trkpt lat="42.639563" lon="0.653736">
        <ele>3011.5</ele>
        <time>1970-01-01T06:28:34.000Z</time>
      </trkpt>
      <trkpt lat="42.639562" lon="0.653735">
        <ele>3011.5</ele>
        <time>1970-01-01T06:28:35.000Z</time>
      </trkpt>
      <trkpt lat="42.639561" lon="0.653733">
        <ele>3011.5</ele>
        <time>1970-01-01T06:28:36.000Z</time>
      </trkpt>
      <trkpt lat="42.639561" lon="0.653733">
        <ele>3011.5</ele>
        <time>1970-01-01T06:28:37.000Z</time>
      </trkpt>
      <trkpt lat="42.639561" lon="0.653732">
        <ele>3011.5</ele>
        <time>1970-01-01T06:28:38.000Z</time>
      </trkpt>
      <trkpt lat="42.639561" lon="0.653732">
        <ele>3011.5</ele>
        <time>1970-01-01T06:28:39.000Z</time>
      </trkpt>
      <trkpt lat="42.639561" lon="0.653732">
        <ele>3011.5</ele>
        <time>1970-01-01T06:28:40.000Z</time>
      </trkpt>
      <trkpt lat="42.639561" lon="0.653732">
        <ele>3011.5</ele>
        <time>1970-01-01T06:28:41.000Z</time>
      </trkpt>
      <trkpt lat="42.639561" lon="0.653732">
        <ele>3011.5</ele>
        <time>1970-01-01T06:28:42.000Z</time>
      </trkpt>
      <trkpt lat="42.639561" lon="0.653732">
        <ele>3011.5</ele>
        <time>1970-01-01T06:28:43.000Z</time>
      </trkpt>
      <trkpt lat="42.639561" lon="0.653732">
        <ele>3011.5</ele>
        <time>1970-01-01T06:28:44.000Z</time>
      </trkpt>
      <trkpt lat="42.639561" lon="0.653732">
        <ele>3011.5</ele>
        <time>1970-01-01T06:28:45.000Z</time>
      </trkpt>
      <trkpt lat="42.639561" lon="0.653732">
        <ele>3011.5</ele>
        <time>1970-01-01T06:28:46.000Z</time>
      </trkpt>
      <trkpt lat="42.639561" lon="0.653732">
        <ele>3011.5</ele>
        <time>1970-01-01T06:28:47.000Z</time>
      </trkpt>
      <trkpt lat="42.639561" lon="0.653732">
        <ele>3011.5</ele>
        <time>1970-01-01T06:28:48.000Z</time>
      </trkpt>
      <trkpt lat="42.639561" lon="0.653732">
        <ele>3011.5</ele>
        <time>1970-01-01T06:28:49.000Z</time>
      </trkpt>
      <trkpt lat="42.639561" lon="0.653732">
        <ele>3011.5</ele>
        <time>1970-01-01T06:28:50.000Z</time>
      </trkpt>
      <trkpt lat="42.639561" lon="0.653732">
        <ele>3011.5</ele>
        <time>1970-01-01T06:28:51.000Z</time>
      </trkpt>
      <trkpt lat="42.639561" lon="0.653732">
        <ele>3011.5</ele>
        <time>1970-01-01T06:28:52.000Z</time>
      </trkpt>
      <trkpt lat="42.639561" lon="0.653732">
        <ele>3011.5</ele>
        <time>1970-01-01T06:28:53.000Z</time>
      </trkpt>
      <trkpt lat="42.639561" lon="0.653732">
        <ele>3011.5</ele>
        <time>1970-01-01T06:28:54.000Z</time>
      </trkpt>
      <trkpt lat="42.639561" lon="0.653732">
        <ele>3011.5</ele>
        <time>1970-01-01T06:28:55.000Z</time>
      </trkpt>
      <trkpt lat="42.639561" lon="0.653732">
        <ele>3011.5</ele>
        <time>1970-01-01T06:28:56.000Z</time>
      </trkpt>
      <trkpt lat="42.639561" lon="0.653732">
        <ele>3011.5</ele>
        <time>1970-01-01T06:28:57.000Z</time>
      </trkpt>
      <trkpt lat="42.639561" lon="0.653732">
        <ele>3011.5</ele>
        <time>1970-01-01T06:28:58.000Z</time>
      </trkpt>
      <trkpt lat="42.63956" lon="0.653732">
        <ele>3011.5</ele>
        <time>1970-01-01T06:28:59.000Z</time>
      </trkpt>
      <trkpt lat="42.63956" lon="0.653732">
        <ele>3011.5</ele>
        <time>1970-01-01T06:29:00.000Z</time>
      </trkpt>
      <trkpt lat="42.63956" lon="0.653732">
        <ele>3011.5</ele>
        <time>1970-01-01T06:29:01.000Z</time>
      </trkpt>
      <trkpt lat="42.63956" lon="0.653732">
        <ele>3011.5</ele>
        <time>1970-01-01T06:29:02.000Z</time>
      </trkpt>
      <trkpt lat="42.63956" lon="0.653732">
        <ele>3011.5</ele>
        <time>1970-01-01T06:29:03.000Z</time>
      </trkpt>
      <trkpt lat="42.63956" lon="0.653732">
        <ele>3011.5</ele>
        <time>1970-01-01T06:29:04.000Z</time>
      </trkpt>
      <trkpt lat="42.63956" lon="0.653732">
        <ele>3011.5</ele>
        <time>1970-01-01T06:29:05.000Z</time>
      </trkpt>
      <trkpt lat="42.63956" lon="0.653732">
        <ele>3011.5</ele>
        <time>1970-01-01T06:29:06.000Z</time>
      </trkpt>
      <trkpt lat="42.63956" lon="0.653732">
        <ele>3011.5</ele>
        <time>1970-01-01T06:29:07.000Z</time>
      </trkpt>
      <trkpt lat="42.63956" lon="0.653732">
        <ele>3011.5</ele>
        <time>1970-01-01T06:29:08.000Z</time>
      </trkpt>
      <trkpt lat="42.63956" lon="0.653732">
        <ele>3011.5</ele>
        <time>1970-01-01T06:29:09.000Z</time>
      </trkpt>
      <trkpt lat="42.63956" lon="0.653732">
        <ele>3011.5</ele>
        <time>1970-01-01T06:29:10.000Z</time>
      </trkpt>
      <trkpt lat="42.63956" lon="0.653732">
        <ele>3011.5</ele>
        <time>1970-01-01T06:29:11.000Z</time>
      </trkpt>
      <trkpt lat="42.63956" lon="0.653732">
        <ele>3011.5</ele>
        <time>1970-01-01T06:29:12.000Z</time>
      </trkpt>
      <trkpt lat="42.63956" lon="0.653732">
        <ele>3011.5</ele>
        <time>1970-01-01T06:29:13.000Z</time>
      </trkpt>
      <trkpt lat="42.63956" lon="0.653732">
        <ele>3011.5</ele>
        <time>1970-01-01T06:29:14.000Z</time>
      </trkpt>
      <trkpt lat="42.63956" lon="0.653732">
        <ele>3011.5</ele>
        <time>1970-01-01T06:29:15.000Z</time>
      </trkpt>
      <trkpt lat="42.63956" lon="0.653732">
        <ele>3011.5</ele>
        <time>1970-01-01T06:29:16.000Z</time>
      </trkpt>
      <trkpt lat="42.63956" lon="0.653732">
        <ele>3011.5</ele>
        <time>1970-01-01T06:29:17.000Z</time>
      </trkpt>
      <trkpt lat="42.63956" lon="0.653732">
        <ele>3011.5</ele>
        <time>1970-01-01T06:29:18.000Z</time>
      </trkpt>
      <trkpt lat="42.63956" lon="0.653732">
        <ele>3011.5</ele>
        <time>1970-01-01T06:29:19.000Z</time>
      </trkpt>
      <trkpt lat="42.63956" lon="0.653732">
        <ele>3011.5</ele>
        <time>1970-01-01T06:29:20.000Z</time>
      </trkpt>
      <trkpt lat="42.63956" lon="0.653732">
        <ele>3011.5</ele>
        <time>1970-01-01T06:29:21.000Z</time>
      </trkpt>
      <trkpt lat="42.63956" lon="0.653732">
        <ele>3011.5</ele>
        <time>1970-01-01T06:29:22.000Z</time>
      </trkpt>
      <trkpt lat="42.63956" lon="0.653732">
        <ele>3011.5</ele>
        <time>1970-01-01T06:29:23.000Z</time>
      </trkpt>
      <trkpt lat="42.63956" lon="0.653732">
        <ele>3011.5</ele>
        <time>1970-01-01T06:29:24.000Z</time>
      </trkpt>
      <trkpt lat="42.63956" lon="0.653732">
        <ele>3011.5</ele>
        <time>1970-01-01T06:29:25.000Z</time>
      </trkpt>
      <trkpt lat="42.63956" lon="0.653732">
        <ele>3011.5</ele>
        <time>1970-01-01T06:29:26.000Z</time>
      </trkpt>
      <trkpt lat="42.63956" lon="0.653732">
        <ele>3011.5</ele>
        <time>1970-01-01T06:29:27.000Z</time>
      </trkpt>
      <trkpt lat="42.63956" lon="0.653732">
        <ele>3011.5</ele>
        <time>1970-01-01T06:29:28.000Z</time>
      </trkpt>
      <trkpt lat="42.63956" lon="0.653732">
        <ele>3011.5</ele>
        <time>1970-01-01T06:29:29.000Z</time>
      </trkpt>
      <trkpt lat="42.639559" lon="0.653732">
        <ele>3011.4</ele>
        <time>1970-01-01T06:29:30.000Z</time>
      </trkpt>
      <trkpt lat="42.639562" lon="0.653729">
        <ele>3011.4</ele>
        <time>1970-01-01T06:29:31.000Z</time>
      </trkpt>
      <trkpt lat="42.639563" lon="0.653728">
        <ele>3011.4</ele>
        <time>1970-01-01T06:29:32.000Z</time>
      </trkpt>
      <trkpt lat="42.639564" lon="0.653727">
        <ele>3011.3</ele>
        <time>1970-01-01T06:29:33.000Z</time>
      </trkpt>
      <trkpt lat="42.639565" lon="0.653727">
        <ele>3011.3</ele>
        <time>1970-01-01T06:29:34.000Z</time>
      </trkpt>
      <trkpt lat="42.639565" lon="0.653728">
        <ele>3011.3</ele>
        <time>1970-01-01T06:29:35.000Z</time>
      </trkpt>
      <trkpt lat="42.639565" lon="0.653728">
        <ele>3011.3</ele>
        <time>1970-01-01T06:29:36.000Z</time>
      </trkpt>
      <trkpt lat="42.639564" lon="0.653729">
        <ele>3011.3</ele>
        <time>1970-01-01T06:29:37.000Z</time>
      </trkpt>
      <trkpt lat="42.639564" lon="0.653729">
        <ele>3011.3</ele>
        <time>1970-01-01T06:29:38.000Z</time>
      </trkpt>
      <trkpt lat="42.639564" lon="0.653729">
        <ele>3011.3</ele>
        <time>1970-01-01T06:29:39.000Z</time>
      </trkpt>
      <trkpt lat="42.639563" lon="0.65373">
        <ele>3011.3</ele>
        <time>1970-01-01T06:29:40.000Z</time>
      </trkpt>
      <trkpt lat="42.639563" lon="0.65373">
        <ele>3011.3</ele>
        <time>1970-01-01T06:29:41.000Z</time>
      </trkpt>
      <trkpt lat="42.639563" lon="0.65373">
        <ele>3011.3</ele>
        <time>1970-01-01T06:29:42.000Z</time>
      </trkpt>
      <trkpt lat="42.639563" lon="0.65373">
        <ele>3011.3</ele>
        <time>1970-01-01T06:29:43.000Z</time>
      </trkpt>
      <trkpt lat="42.639563" lon="0.65373">
        <ele>3011.3</ele>
        <time>1970-01-01T06:29:44.000Z</time>
      </trkpt>
      <trkpt lat="42.639563" lon="0.65373">
        <ele>3011.3</ele>
        <time>1970-01-01T06:29:45.000Z</time>
      </trkpt>
      <trkpt lat="42.639563" lon="0.65373">
        <ele>3011.3</ele>
        <time>1970-01-01T06:29:46.000Z</time>
      </trkpt>
      <trkpt lat="42.639563" lon="0.65373">
        <ele>3011.3</ele>
        <time>1970-01-01T06:29:47.000Z</time>
      </trkpt>
      <trkpt lat="42.639563" lon="0.65373">
        <ele>3011.3</ele>
        <time>1970-01-01T06:29:48.000Z</time>
      </trkpt>
      <trkpt lat="42.639563" lon="0.65373">
        <ele>3011.3</ele>
        <time>1970-01-01T06:29:49.000Z</time>
      </trkpt>
      <trkpt lat="42.639563" lon="0.65373">
        <ele>3011.3</ele>
        <time>1970-01-01T06:29:50.000Z</time>
      </trkpt>
      <trkpt lat="42.639563" lon="0.65373">
        <ele>3011.3</ele>
        <time>1970-01-01T06:29:51.000Z</time>
      </trkpt>
      <trkpt lat="42.639563" lon="0.65373">
        <ele>3011.3</ele>
        <time>1970-01-01T06:29:52.000Z</time>
      </trkpt>
      <trkpt lat="42.639563" lon="0.65373">
        <ele>3011.3</ele>
        <time>1970-01-01T06:29:53.000Z</time>
      </trkpt>
      <trkpt lat="42.639563" lon="0.65373">
        <ele>3011.3</ele>
        <time>1970-01-01T06:29:54.000Z</time>
      </trkpt>
      <trkpt lat="42.639563" lon="0.65373">
        <ele>3011.3</ele>
        <time>1970-01-01T06:29:55.000Z</time>
      </trkpt>
      <trkpt lat="42.639563" lon="0.65373">
        <ele>3011.3</ele>
        <time>1970-01-01T06:29:56.000Z</time>
      </trkpt>
      <trkpt lat="42.639563" lon="0.65373">
        <ele>3011.3</ele>
        <time>1970-01-01T06:29:57.000Z</time>
      </trkpt>
      <trkpt lat="42.639563" lon="0.65373">
        <ele>3011.3</ele>
        <time>1970-01-01T06:29:58.000Z</time>
      </trkpt>
      <trkpt lat="42.639563" lon="0.65373">
        <ele>3011.3</ele>
        <time>1970-01-01T06:29:59.000Z</time>
      </trkpt>
      <trkpt lat="42.639563" lon="0.65373">
        <ele>3011.3</ele>
        <time>1970-01-01T06:30:00.000Z</time>
      </trkpt>
      <trkpt lat="42.639563" lon="0.65373">
        <ele>3011.3</ele>
        <time>1970-01-01T06:30:01.000Z</time>
      </trkpt>
      <trkpt lat="42.639563" lon="0.65373">
        <ele>3011.3</ele>
        <time>1970-01-01T06:30:02.000Z</time>
      </trkpt>
      <trkpt lat="42.639563" lon="0.65373">
        <ele>3011.3</ele>
        <time>1970-01-01T06:30:03.000Z</time>
      </trkpt>
      <trkpt lat="42.639563" lon="0.65373">
        <ele>3011.3</ele>
        <time>1970-01-01T06:30:04.000Z</time>
      </trkpt>
      <trkpt lat="42.639563" lon="0.65373">
        <ele>3011.3</ele>
        <time>1970-01-01T06:30:05.000Z</time>
      </trkpt>
      <trkpt lat="42.639563" lon="0.65373">
        <ele>3011.3</ele>
        <time>1970-01-01T06:30:06.000Z</time>
      </trkpt>
      <trkpt lat="42.639563" lon="0.65373">
        <ele>3011.3</ele>
        <time>1970-01-01T06:30:07.000Z</time>
      </trkpt>
      <trkpt lat="42.639563" lon="0.65373">
        <ele>3011.3</ele>
        <time>1970-01-01T06:30:08.000Z</time>
      </trkpt>
      <trkpt lat="42.639563" lon="0.65373">
        <ele>3011.3</ele>
        <time>1970-01-01T06:30:09.000Z</time>
      </trkpt>
      <trkpt lat="42.639563" lon="0.65373">
        <ele>3011.3</ele>
        <time>1970-01-01T06:30:10.000Z</time>
      </trkpt>
      <trkpt lat="42.639563" lon="0.65373">
        <ele>3011.3</ele>
        <time>1970-01-01T06:30:11.000Z</time>
      </trkpt>
      <trkpt lat="42.639563" lon="0.65373">
        <ele>3011.3</ele>
        <time>1970-01-01T06:30:12.000Z</time>
      </trkpt>
      <trkpt lat="42.639563" lon="0.65373">
        <ele>3011.3</ele>
        <time>1970-01-01T06:30:13.000Z</time>
      </trkpt>
      <trkpt lat="42.639563" lon="0.65373">
        <ele>3011.3</ele>
        <time>1970-01-01T06:30:14.000Z</time>
      </trkpt>
      <trkpt lat="42.639563" lon="0.65373">
        <ele>3011.3</ele>
        <time>1970-01-01T06:30:15.000Z</time>
      </trkpt>
      <trkpt lat="42.639563" lon="0.65373">
        <ele>3011.3</ele>
        <time>1970-01-01T06:30:16.000Z</time>
      </trkpt>
      <trkpt lat="42.639563" lon="0.65373">
        <ele>3011.3</ele>
        <time>1970-01-01T06:30:17.000Z</time>
      </trkpt>
      <trkpt lat="42.639563" lon="0.65373">
        <ele>3011.3</ele>
        <time>1970-01-01T06:30:18.000Z</time>
      </trkpt>
      <trkpt lat="42.639563" lon="0.65373">
        <ele>3011.3</ele>
        <time>1970-01-01T06:30:19.000Z</time>
      </trkpt>
      <trkpt lat="42.639563" lon="0.65373">
        <ele>3011.3</ele>
        <time>1970-01-01T06:30:20.000Z</time>
      </trkpt>
      <trkpt lat="42.639563" lon="0.65373">
        <ele>3011.3</ele>
        <time>1970-01-01T06:30:21.000Z</time>
      </trkpt>
      <trkpt lat="42.639563" lon="0.65373">
        <ele>3011.3</ele>
        <time>1970-01-01T06:30:22.000Z</time>
      </trkpt>
      <trkpt lat="42.639563" lon="0.65373">
        <ele>3011.3</ele>
        <time>1970-01-01T06:30:23.000Z</time>
      </trkpt>
      <trkpt lat="42.639563" lon="0.653729">
        <ele>3011.3</ele>
        <time>1970-01-01T06:30:24.000Z</time>
      </trkpt>
      <trkpt lat="42.639563" lon="0.653729">
        <ele>3011.3</ele>
        <time>1970-01-01T06:30:25.000Z</time>
      </trkpt>
      <trkpt lat="42.639563" lon="0.653729">
        <ele>3011.3</ele>
        <time>1970-01-01T06:30:26.000Z</time>
      </trkpt>
      <trkpt lat="42.639563" lon="0.653729">
        <ele>3011.3</ele>
        <time>1970-01-01T06:30:27.000Z</time>
      </trkpt>
      <trkpt lat="42.639563" lon="0.653729">
        <ele>3011.3</ele>
        <time>1970-01-01T06:30:28.000Z</time>
      </trkpt>
      <trkpt lat="42.639563" lon="0.653729">
        <ele>3011.3</ele>
        <time>1970-01-01T06:30:29.000Z</time>
      </trkpt>
      <trkpt lat="42.639563" lon="0.653729">
        <ele>3011.3</ele>
        <time>1970-01-01T06:30:30.000Z</time>
      </trkpt>
      <trkpt lat="42.639563" lon="0.653729">
        <ele>3011.3</ele>
        <time>1970-01-01T06:30:31.000Z</time>
      </trkpt>
      <trkpt lat="42.639563" lon="0.653729">
        <ele>3011.3</ele>
        <time>1970-01-01T06:30:32.000Z</time>
      </trkpt>
      <trkpt lat="42.639563" lon="0.653729">
        <ele>3011.3</ele>
        <time>1970-01-01T06:30:33.000Z</time>
      </trkpt>
      <trkpt lat="42.639563" lon="0.653729">
        <ele>3011.3</ele>
        <time>1970-01-01T06:30:34.000Z</time>
      </trkpt>
      <trkpt lat="42.639563" lon="0.653729">
        <ele>3011.3</ele>
        <time>1970-01-01T06:30:35.000Z</time>
      </trkpt>
      <trkpt lat="42.639563" lon="0.65373">
        <ele>3011.3</ele>
        <time>1970-01-01T06:30:36.000Z</time>
      </trkpt>
      <trkpt lat="42.639563" lon="0.65373">
        <ele>3011.3</ele>
        <time>1970-01-01T06:30:37.000Z</time>
      </trkpt>
      <trkpt lat="42.639563" lon="0.65373">
        <ele>3011.3</ele>
        <time>1970-01-01T06:30:38.000Z</time>
      </trkpt>
      <trkpt lat="42.639563" lon="0.65373">
        <ele>3011.3</ele>
        <time>1970-01-01T06:30:39.000Z</time>
      </trkpt>
      <trkpt lat="42.639563" lon="0.65373">
        <ele>3011.3</ele>
        <time>1970-01-01T06:30:40.000Z</time>
      </trkpt>
      <trkpt lat="42.639563" lon="0.65373">
        <ele>3011.3</ele>
        <time>1970-01-01T06:30:41.000Z</time>
      </trkpt>
      <trkpt lat="42.639563" lon="0.65373">
        <ele>3011.3</ele>
        <time>1970-01-01T06:30:42.000Z</time>
      </trkpt>
      <trkpt lat="42.639563" lon="0.65373">
        <ele>3011.3</ele>
        <time>1970-01-01T06:30:43.000Z</time>
      </trkpt>
      <trkpt lat="42.639563" lon="0.65373">
        <ele>3011.3</ele>
        <time>1970-01-01T06:30:44.000Z</time>
      </trkpt>
      <trkpt lat="42.639563" lon="0.65373">
        <ele>3011.3</ele>
        <time>1970-01-01T06:30:45.000Z</time>
      </trkpt>
      <trkpt lat="42.639563" lon="0.65373">
        <ele>3011.3</ele>
        <time>1970-01-01T06:30:46.000Z</time>
      </trkpt>
      <trkpt lat="42.639563" lon="0.65373">
        <ele>3011.3</ele>
        <time>1970-01-01T06:30:47.000Z</time>
      </trkpt>
      <trkpt lat="42.639563" lon="0.65373">
        <ele>3011.3</ele>
        <time>1970-01-01T06:30:48.000Z</time>
      </trkpt>
      <trkpt lat="42.639563" lon="0.65373">
        <ele>3011.3</ele>
        <time>1970-01-01T06:30:49.000Z</time>
      </trkpt>
      <trkpt lat="42.639563" lon="0.65373">
        <ele>3011.3</ele>
        <time>1970-01-01T06:30:50.000Z</time>
      </trkpt>
      <trkpt lat="42.639563" lon="0.65373">
        <ele>3011.3</ele>
        <time>1970-01-01T06:30:51.000Z</time>
      </trkpt>
      <trkpt lat="42.639563" lon="0.65373">
        <ele>3011.3</ele>
        <time>1970-01-01T06:30:52.000Z</time>
      </trkpt>
      <trkpt lat="42.639563" lon="0.65373">
        <ele>3011.3</ele>
        <time>1970-01-01T06:30:53.000Z</time>
      </trkpt>
      <trkpt lat="42.639563" lon="0.65373">
        <ele>3011.3</ele>
        <time>1970-01-01T06:30:54.000Z</time>
      </trkpt>
      <trkpt lat="42.639563" lon="0.65373">
        <ele>3011.3</ele>
        <time>1970-01-01T06:30:55.000Z</time>
      </trkpt>
      <trkpt lat="42.639563" lon="0.65373">
        <ele>3011.3</ele>
        <time>1970-01-01T06:30:56.000Z</time>
      </trkpt>
      <trkpt lat="42.639563" lon="0.65373">
        <ele>3011.3</ele>
        <time>1970-01-01T06:30:57.000Z</time>
      </trkpt>
      <trkpt lat="42.639563" lon="0.65373">
        <ele>3011.3</ele>
        <time>1970-01-01T06:30:58.000Z</time>
      </trkpt>
      <trkpt lat="42.639563" lon="0.65373">
        <ele>3011.3</ele>
        <time>1970-01-01T06:30:59.000Z</time>
      </trkpt>
      <trkpt lat="42.639563" lon="0.65373">
        <ele>3011.3</ele>
        <time>1970-01-01T06:31:00.000Z</time>
      </trkpt>
      <trkpt lat="42.639563" lon="0.65373">
        <ele>3011.3</ele>
        <time>1970-01-01T06:31:01.000Z</time>
      </trkpt>
      <trkpt lat="42.639563" lon="0.65373">
        <ele>3011.3</ele>
        <time>1970-01-01T06:31:02.000Z</time>
      </trkpt>
      <trkpt lat="42.639564" lon="0.653729">
        <ele>3011.2</ele>
        <time>1970-01-01T06:31:03.000Z</time>
      </trkpt>
      <trkpt lat="42.639564" lon="0.653728">
        <ele>3011.2</ele>
        <time>1970-01-01T06:31:04.000Z</time>
      </trkpt>
      <trkpt lat="42.639563" lon="0.653728">
        <ele>3011.2</ele>
        <time>1970-01-01T06:31:05.000Z</time>
      </trkpt>
      <trkpt lat="42.639563" lon="0.653728">
        <ele>3011.2</ele>
        <time>1970-01-01T06:31:06.000Z</time>
      </trkpt>
      <trkpt lat="42.639563" lon="0.653728">
        <ele>3011.2</ele>
        <time>1970-01-01T06:31:07.000Z</time>
      </trkpt>
      <trkpt lat="42.639562" lon="0.653728">
        <ele>3011.2</ele>
        <time>1970-01-01T06:31:08.000Z</time>
      </trkpt>
      <trkpt lat="42.639562" lon="0.653728">
        <ele>3011.2</ele>
        <time>1970-01-01T06:31:09.000Z</time>
      </trkpt>
      <trkpt lat="42.639562" lon="0.653728">
        <ele>3011.2</ele>
        <time>1970-01-01T06:31:10.000Z</time>
      </trkpt>
      <trkpt lat="42.639562" lon="0.653729">
        <ele>3011.2</ele>
        <time>1970-01-01T06:31:11.000Z</time>
      </trkpt>
      <trkpt lat="42.639562" lon="0.653729">
        <ele>3011.2</ele>
        <time>1970-01-01T06:31:12.000Z</time>
      </trkpt>
      <trkpt lat="42.639562" lon="0.653729">
        <ele>3011.2</ele>
        <time>1970-01-01T06:31:13.000Z</time>
      </trkpt>
      <trkpt lat="42.639562" lon="0.653729">
        <ele>3011.2</ele>
        <time>1970-01-01T06:31:14.000Z</time>
      </trkpt>
      <trkpt lat="42.639562" lon="0.653729">
        <ele>3011.2</ele>
        <time>1970-01-01T06:31:15.000Z</time>
      </trkpt>
      <trkpt lat="42.639562" lon="0.653729">
        <ele>3011.2</ele>
        <time>1970-01-01T06:31:16.000Z</time>
      </trkpt>
      <trkpt lat="42.639562" lon="0.653729">
        <ele>3011.2</ele>
        <time>1970-01-01T06:31:17.000Z</time>
      </trkpt>
      <trkpt lat="42.639562" lon="0.653729">
        <ele>3011.2</ele>
        <time>1970-01-01T06:31:18.000Z</time>
      </trkpt>
      <trkpt lat="42.639562" lon="0.653729">
        <ele>3011.2</ele>
        <time>1970-01-01T06:31:19.000Z</time>
      </trkpt>
      <trkpt lat="42.639562" lon="0.653729">
        <ele>3011.2</ele>
        <time>1970-01-01T06:31:20.000Z</time>
      </trkpt>
      <trkpt lat="42.639562" lon="0.653729">
        <ele>3011.2</ele>
        <time>1970-01-01T06:31:21.000Z</time>
      </trkpt>
      <trkpt lat="42.639562" lon="0.653729">
        <ele>3011.2</ele>
        <time>1970-01-01T06:31:22.000Z</time>
      </trkpt>
      <trkpt lat="42.639562" lon="0.653729">
        <ele>3011.2</ele>
        <time>1970-01-01T06:31:23.000Z</time>
      </trkpt>
      <trkpt lat="42.639562" lon="0.653729">
        <ele>3011.2</ele>
        <time>1970-01-01T06:31:24.000Z</time>
      </trkpt>
      <trkpt lat="42.639562" lon="0.653729">
        <ele>3011.2</ele>
        <time>1970-01-01T06:31:25.000Z</time>
      </trkpt>
      <trkpt lat="42.639562" lon="0.653729">
        <ele>3011.2</ele>
        <time>1970-01-01T06:31:26.000Z</time>
      </trkpt>
      <trkpt lat="42.639562" lon="0.653729">
        <ele>3011.2</ele>
        <time>1970-01-01T06:31:27.000Z</time>
      </trkpt>
      <trkpt lat="42.639562" lon="0.653729">
        <ele>3011.2</ele>
        <time>1970-01-01T06:31:28.000Z</time>
      </trkpt>
      <trkpt lat="42.639562" lon="0.653729">
        <ele>3011.2</ele>
        <time>1970-01-01T06:31:29.000Z</time>
      </trkpt>
      <trkpt lat="42.639562" lon="0.653729">
        <ele>3011.2</ele>
        <time>1970-01-01T06:31:30.000Z</time>
      </trkpt>
      <trkpt lat="42.639562" lon="0.653729">
        <ele>3011.2</ele>
        <time>1970-01-01T06:31:31.000Z</time>
      </trkpt>
      <trkpt lat="42.639562" lon="0.653729">
        <ele>3011.2</ele>
        <time>1970-01-01T06:31:32.000Z</time>
      </trkpt>
      <trkpt lat="42.639562" lon="0.653729">
        <ele>3011.2</ele>
        <time>1970-01-01T06:31:33.000Z</time>
      </trkpt>
      <trkpt lat="42.639562" lon="0.653729">
        <ele>3011.2</ele>
        <time>1970-01-01T06:31:34.000Z</time>
      </trkpt>
      <trkpt lat="42.639562" lon="0.653729">
        <ele>3011.2</ele>
        <time>1970-01-01T06:31:35.000Z</time>
      </trkpt>
      <trkpt lat="42.639562" lon="0.653729">
        <ele>3011.2</ele>
        <time>1970-01-01T06:31:36.000Z</time>
      </trkpt>
      <trkpt lat="42.639562" lon="0.653729">
        <ele>3011.2</ele>
        <time>1970-01-01T06:31:37.000Z</time>
      </trkpt>
      <trkpt lat="42.639562" lon="0.653729">
        <ele>3011.2</ele>
        <time>1970-01-01T06:31:38.000Z</time>
      </trkpt>
      <trkpt lat="42.639562" lon="0.653728">
        <ele>3011.2</ele>
        <time>1970-01-01T06:31:39.000Z</time>
      </trkpt>
      <trkpt lat="42.639562" lon="0.653728">
        <ele>3011.2</ele>
        <time>1970-01-01T06:31:40.000Z</time>
      </trkpt>
      <trkpt lat="42.639562" lon="0.653728">
        <ele>3011.2</ele>
        <time>1970-01-01T06:31:41.000Z</time>
      </trkpt>
      <trkpt lat="42.639562" lon="0.653728">
        <ele>3011.2</ele>
        <time>1970-01-01T06:31:42.000Z</time>
      </trkpt>
      <trkpt lat="42.639562" lon="0.653728">
        <ele>3011.2</ele>
        <time>1970-01-01T06:31:43.000Z</time>
      </trkpt>
      <trkpt lat="42.639562" lon="0.653728">
        <ele>3011.2</ele>
        <time>1970-01-01T06:31:44.000Z</time>
      </trkpt>
      <trkpt lat="42.639562" lon="0.653728">
        <ele>3011.2</ele>
        <time>1970-01-01T06:31:45.000Z</time>
      </trkpt>
      <trkpt lat="42.639562" lon="0.653728">
        <ele>3011.2</ele>
        <time>1970-01-01T06:31:46.000Z</time>
      </trkpt>
      <trkpt lat="42.639562" lon="0.653728">
        <ele>3011.2</ele>
        <time>1970-01-01T06:31:47.000Z</time>
      </trkpt>
      <trkpt lat="42.639562" lon="0.653728">
        <ele>3011.2</ele>
        <time>1970-01-01T06:31:48.000Z</time>
      </trkpt>
      <trkpt lat="42.639562" lon="0.653728">
        <ele>3011.2</ele>
        <time>1970-01-01T06:31:49.000Z</time>
      </trkpt>
      <trkpt lat="42.639562" lon="0.653729">
        <ele>3011.2</ele>
        <time>1970-01-01T06:31:50.000Z</time>
      </trkpt>
      <trkpt lat="42.639562" lon="0.653729">
        <ele>3011.2</ele>
        <time>1970-01-01T06:31:51.000Z</time>
      </trkpt>
      <trkpt lat="42.639562" lon="0.653729">
        <ele>3011.2</ele>
        <time>1970-01-01T06:31:52.000Z</time>
      </trkpt>
      <trkpt lat="42.639562" lon="0.653729">
        <ele>3011.2</ele>
        <time>1970-01-01T06:31:53.000Z</time>
      </trkpt>
      <trkpt lat="42.639562" lon="0.653729">
        <ele>3011.2</ele>
        <time>1970-01-01T06:31:54.000Z</time>
      </trkpt>
      <trkpt lat="42.639562" lon="0.653729">
        <ele>3011.2</ele>
        <time>1970-01-01T06:31:55.000Z</time>
      </trkpt>
      <trkpt lat="42.639562" lon="0.653729">
        <ele>3011.2</ele>
        <time>1970-01-01T06:31:56.000Z</time>
      </trkpt>
      <trkpt lat="42.639562" lon="0.653729">
        <ele>3011.2</ele>
        <time>1970-01-01T06:31:57.000Z</time>
      </trkpt>
      <trkpt lat="42.639562" lon="0.653729">
        <ele>3011.2</ele>
        <time>1970-01-01T06:31:58.000Z</time>
      </trkpt>
      <trkpt lat="42.639562" lon="0.653729">
        <ele>3011.2</ele>
        <time>1970-01-01T06:31:59.000Z</time>
      </trkpt>
      <trkpt lat="42.639562" lon="0.653729">
        <ele>3011.2</ele>
        <time>1970-01-01T06:32:00.000Z</time>
      </trkpt>
      <trkpt lat="42.639562" lon="0.653729">
        <ele>3011.2</ele>
        <time>1970-01-01T06:32:01.000Z</time>
      </trkpt>
      <trkpt lat="42.639562" lon="0.653729">
        <ele>3011.2</ele>
        <time>1970-01-01T06:32:02.000Z</time>
      </trkpt>
      <trkpt lat="42.639562" lon="0.653729">
        <ele>3011.2</ele>
        <time>1970-01-01T06:32:03.000Z</time>
      </trkpt>
      <trkpt lat="42.639562" lon="0.653729">
        <ele>3011.2</ele>
        <time>1970-01-01T06:32:04.000Z</time>
      </trkpt>
      <trkpt lat="42.639562" lon="0.653729">
        <ele>3011.2</ele>
        <time>1970-01-01T06:32:05.000Z</time>
      </trkpt>
      <trkpt lat="42.639562" lon="0.653729">
        <ele>3011.2</ele>
        <time>1970-01-01T06:32:06.000Z</time>
      </trkpt>
      <trkpt lat="42.639562" lon="0.653729">
        <ele>3011.2</ele>
        <time>1970-01-01T06:32:07.000Z</time>
      </trkpt>
      <trkpt lat="42.639562" lon="0.653729">
        <ele>3011.2</ele>
        <time>1970-01-01T06:32:08.000Z</time>
      </trkpt>
      <trkpt lat="42.639562" lon="0.653729">
        <ele>3011.2</ele>
        <time>1970-01-01T06:32:09.000Z</time>
      </trkpt>
      <trkpt lat="42.639562" lon="0.653729">
        <ele>3011.2</ele>
        <time>1970-01-01T06:32:10.000Z</time>
      </trkpt>
      <trkpt lat="42.639562" lon="0.653729">
        <ele>3011.2</ele>
        <time>1970-01-01T06:32:11.000Z</time>
      </trkpt>
      <trkpt lat="42.639562" lon="0.653729">
        <ele>3011.2</ele>
        <time>1970-01-01T06:32:12.000Z</time>
      </trkpt>
      <trkpt lat="42.639562" lon="0.653729">
        <ele>3011.2</ele>
        <time>1970-01-01T06:32:13.000Z</time>
      </trkpt>
      <trkpt lat="42.639562" lon="0.653729">
        <ele>3011.2</ele>
        <time>1970-01-01T06:32:14.000Z</time>
      </trkpt>
      <trkpt lat="42.639562" lon="0.653729">
        <ele>3011.2</ele>
        <time>1970-01-01T06:32:15.000Z</time>
      </trkpt>
      <trkpt lat="42.639562" lon="0.653729">
        <ele>3011.2</ele>
        <time>1970-01-01T06:32:16.000Z</time>
      </trkpt>
      <trkpt lat="42.639562" lon="0.653729">
        <ele>3011.2</ele>
        <time>1970-01-01T06:32:17.000Z</time>
      </trkpt>
      <trkpt lat="42.639562" lon="0.653729">
        <ele>3011.2</ele>
        <time>1970-01-01T06:32:18.000Z</time>
      </trkpt>
      <trkpt lat="42.639562" lon="0.653729">
        <ele>3011.2</ele>
        <time>1970-01-01T06:32:19.000Z</time>
      </trkpt>
      <trkpt lat="42.639562" lon="0.653729">
        <ele>3011.2</ele>
        <time>1970-01-01T06:32:20.000Z</time>
      </trkpt>
      <trkpt lat="42.639562" lon="0.653729">
        <ele>3011.2</ele>
        <time>1970-01-01T06:32:21.000Z</time>
      </trkpt>
      <trkpt lat="42.639562" lon="0.653729">
        <ele>3011.2</ele>
        <time>1970-01-01T06:32:22.000Z</time>
      </trkpt>
      <trkpt lat="42.639562" lon="0.653729">
        <ele>3011.2</ele>
        <time>1970-01-01T06:32:23.000Z</time>
      </trkpt>
      <trkpt lat="42.639562" lon="0.653729">
        <ele>3011.2</ele>
        <time>1970-01-01T06:32:24.000Z</time>
      </trkpt>
      <trkpt lat="42.639562" lon="0.653729">
        <ele>3011.2</ele>
        <time>1970-01-01T06:32:25.000Z</time>
      </trkpt>
      <trkpt lat="42.639562" lon="0.653729">
        <ele>3011.2</ele>
        <time>1970-01-01T06:32:26.000Z</time>
      </trkpt>
      <trkpt lat="42.639562" lon="0.653729">
        <ele>3011.2</ele>
        <time>1970-01-01T06:32:27.000Z</time>
      </trkpt>
      <trkpt lat="42.639562" lon="0.653729">
        <ele>3011.2</ele>
        <time>1970-01-01T06:32:28.000Z</time>
      </trkpt>
      <trkpt lat="42.639562" lon="0.653729">
        <ele>3011.2</ele>
        <time>1970-01-01T06:32:29.000Z</time>
      </trkpt>
      <trkpt lat="42.639562" lon="0.653729">
        <ele>3011.2</ele>
        <time>1970-01-01T06:32:30.000Z</time>
      </trkpt>
      <trkpt lat="42.639562" lon="0.653729">
        <ele>3011.2</ele>
        <time>1970-01-01T06:32:31.000Z</time>
      </trkpt>
      <trkpt lat="42.639562" lon="0.653729">
        <ele>3011.2</ele>
        <time>1970-01-01T06:32:32.000Z</time>
      </trkpt>
      <trkpt lat="42.639562" lon="0.653729">
        <ele>3011.2</ele>
        <time>1970-01-01T06:32:33.000Z</time>
      </trkpt>
      <trkpt lat="42.639562" lon="0.653729">
        <ele>3011.2</ele>
        <time>1970-01-01T06:32:34.000Z</time>
      </trkpt>
      <trkpt lat="42.639562" lon="0.653729">
        <ele>3011.2</ele>
        <time>1970-01-01T06:32:35.000Z</time>
      </trkpt>
      <trkpt lat="42.639562" lon="0.653729">
        <ele>3011.2</ele>
        <time>1970-01-01T06:32:36.000Z</time>
      </trkpt>
      <trkpt lat="42.639561" lon="0.653729">
        <ele>3011.1</ele>
        <time>1970-01-01T06:32:37.000Z</time>
      </trkpt>
      <trkpt lat="42.639561" lon="0.653729">
        <ele>3011.1</ele>
        <time>1970-01-01T06:32:38.000Z</time>
      </trkpt>
      <trkpt lat="42.639561" lon="0.653729">
        <ele>3011.1</ele>
        <time>1970-01-01T06:32:39.000Z</time>
      </trkpt>
      <trkpt lat="42.639561" lon="0.653729">
        <ele>3011.1</ele>
        <time>1970-01-01T06:32:40.000Z</time>
      </trkpt>
      <trkpt lat="42.639561" lon="0.653729">
        <ele>3011.1</ele>
        <time>1970-01-01T06:32:41.000Z</time>
      </trkpt>
      <trkpt lat="42.639562" lon="0.653729">
        <ele>3011.1</ele>
        <time>1970-01-01T06:32:42.000Z</time>
      </trkpt>
      <trkpt lat="42.639562" lon="0.653729">
        <ele>3011.1</ele>
        <time>1970-01-01T06:32:43.000Z</time>
      </trkpt>
      <trkpt lat="42.639562" lon="0.653729">
        <ele>3011.1</ele>
        <time>1970-01-01T06:32:44.000Z</time>
      </trkpt>
      <trkpt lat="42.639562" lon="0.653729">
        <ele>3011.1</ele>
        <time>1970-01-01T06:32:45.000Z</time>
      </trkpt>
      <trkpt lat="42.639562" lon="0.653729">
        <ele>3011.1</ele>
        <time>1970-01-01T06:32:46.000Z</time>
      </trkpt>
      <trkpt lat="42.639562" lon="0.653729">
        <ele>3011.1</ele>
        <time>1970-01-01T06:32:47.000Z</time>
      </trkpt>
      <trkpt lat="42.639562" lon="0.653729">
        <ele>3011.1</ele>
        <time>1970-01-01T06:32:48.000Z</time>
      </trkpt>
      <trkpt lat="42.639562" lon="0.653729">
        <ele>3011.1</ele>
        <time>1970-01-01T06:32:49.000Z</time>
      </trkpt>
      <trkpt lat="42.639562" lon="0.653729">
        <ele>3011.1</ele>
        <time>1970-01-01T06:32:50.000Z</time>
      </trkpt>
      <trkpt lat="42.639562" lon="0.653729">
        <ele>3011.1</ele>
        <time>1970-01-01T06:32:51.000Z</time>
      </trkpt>
      <trkpt lat="42.639562" lon="0.653729">
        <ele>3011.1</ele>
        <time>1970-01-01T06:32:52.000Z</time>
      </trkpt>
      <trkpt lat="42.639562" lon="0.653729">
        <ele>3011.1</ele>
        <time>1970-01-01T06:32:53.000Z</time>
      </trkpt>
      <trkpt lat="42.639562" lon="0.653729">
        <ele>3011.1</ele>
        <time>1970-01-01T06:32:54.000Z</time>
      </trkpt>
      <trkpt lat="42.639562" lon="0.653729">
        <ele>3011.1</ele>
        <time>1970-01-01T06:32:55.000Z</time>
      </trkpt>
      <trkpt lat="42.639562" lon="0.653729">
        <ele>3011.1</ele>
        <time>1970-01-01T06:32:56.000Z</time>
      </trkpt>
      <trkpt lat="42.639562" lon="0.653729">
        <ele>3011.1</ele>
        <time>1970-01-01T06:32:57.000Z</time>
      </trkpt>
      <trkpt lat="42.639562" lon="0.653729">
        <ele>3011.1</ele>
        <time>1970-01-01T06:32:58.000Z</time>
      </trkpt>
      <trkpt lat="42.639562" lon="0.653729">
        <ele>3011.1</ele>
        <time>1970-01-01T06:32:59.000Z</time>
      </trkpt>
      <trkpt lat="42.639562" lon="0.653729">
        <ele>3011.1</ele>
        <time>1970-01-01T06:33:00.000Z</time>
      </trkpt>
      <trkpt lat="42.639562" lon="0.653729">
        <ele>3011.1</ele>
        <time>1970-01-01T06:33:01.000Z</time>
      </trkpt>
      <trkpt lat="42.639562" lon="0.653729">
        <ele>3011.1</ele>
        <time>1970-01-01T06:33:02.000Z</time>
      </trkpt>
      <trkpt lat="42.639562" lon="0.653729">
        <ele>3011.1</ele>
        <time>1970-01-01T06:33:03.000Z</time>
      </trkpt>
      <trkpt lat="42.639562" lon="0.653729">
        <ele>3011.1</ele>
        <time>1970-01-01T06:33:04.000Z</time>
      </trkpt>
      <trkpt lat="42.639562" lon="0.653729">
        <ele>3011.1</ele>
        <time>1970-01-01T06:33:05.000Z</time>
      </trkpt>
      <trkpt lat="42.639562" lon="0.653729">
        <ele>3011.1</ele>
        <time>1970-01-01T06:33:06.000Z</time>
      </trkpt>
      <trkpt lat="42.639562" lon="0.653729">
        <ele>3011.1</ele>
        <time>1970-01-01T06:33:07.000Z</time>
      </trkpt>
      <trkpt lat="42.639562" lon="0.653729">
        <ele>3011.1</ele>
        <time>1970-01-01T06:33:08.000Z</time>
      </trkpt>
      <trkpt lat="42.639562" lon="0.653729">
        <ele>3011.1</ele>
        <time>1970-01-01T06:33:09.000Z</time>
      </trkpt>
      <trkpt lat="42.639562" lon="0.653729">
        <ele>3011.1</ele>
        <time>1970-01-01T06:33:10.000Z</time>
      </trkpt>
      <trkpt lat="42.639562" lon="0.653729">
        <ele>3011.1</ele>
        <time>1970-01-01T06:33:11.000Z</time>
      </trkpt>
      <trkpt lat="42.639562" lon="0.653729">
        <ele>3011.1</ele>
        <time>1970-01-01T06:33:12.000Z</time>
      </trkpt>
      <trkpt lat="42.639562" lon="0.653729">
        <ele>3011.1</ele>
        <time>1970-01-01T06:33:13.000Z</time>
      </trkpt>
      <trkpt lat="42.639562" lon="0.653729">
        <ele>3011.1</ele>
        <time>1970-01-01T06:33:14.000Z</time>
      </trkpt>
      <trkpt lat="42.639562" lon="0.653729">
        <ele>3011.1</ele>
        <time>1970-01-01T06:33:15.000Z</time>
      </trkpt>
      <trkpt lat="42.639561" lon="0.653729">
        <ele>3011.1</ele>
        <time>1970-01-01T06:33:16.000Z</time>
      </trkpt>
      <trkpt lat="42.639561" lon="0.653729">
        <ele>3011.1</ele>
        <time>1970-01-01T06:33:17.000Z</time>
      </trkpt>
      <trkpt lat="42.639561" lon="0.653729">
        <ele>3011.1</ele>
        <time>1970-01-01T06:33:18.000Z</time>
      </trkpt>
      <trkpt lat="42.639561" lon="0.653729">
        <ele>3011.1</ele>
        <time>1970-01-01T06:33:19.000Z</time>
      </trkpt>
      <trkpt lat="42.639561" lon="0.653729">
        <ele>3011.1</ele>
        <time>1970-01-01T06:33:20.000Z</time>
      </trkpt>
      <trkpt lat="42.639562" lon="0.653729">
        <ele>3011.1</ele>
        <time>1970-01-01T06:33:21.000Z</time>
      </trkpt>
      <trkpt lat="42.639562" lon="0.653729">
        <ele>3011.1</ele>
        <time>1970-01-01T06:33:22.000Z</time>
      </trkpt>
      <trkpt lat="42.639562" lon="0.653729">
        <ele>3011.1</ele>
        <time>1970-01-01T06:33:23.000Z</time>
      </trkpt>
      <trkpt lat="42.639562" lon="0.653729">
        <ele>3011.1</ele>
        <time>1970-01-01T06:33:24.000Z</time>
      </trkpt>
      <trkpt lat="42.639562" lon="0.653729">
        <ele>3011.1</ele>
        <time>1970-01-01T06:33:25.000Z</time>
      </trkpt>
      <trkpt lat="42.639562" lon="0.653729">
        <ele>3011.1</ele>
        <time>1970-01-01T06:33:26.000Z</time>
      </trkpt>
      <trkpt lat="42.639562" lon="0.653729">
        <ele>3011.1</ele>
        <time>1970-01-01T06:33:27.000Z</time>
      </trkpt>
      <trkpt lat="42.639562" lon="0.653729">
        <ele>3011.1</ele>
        <time>1970-01-01T06:33:28.000Z</time>
      </trkpt>
      <trkpt lat="42.639562" lon="0.653729">
        <ele>3011.1</ele>
        <time>1970-01-01T06:33:29.000Z</time>
      </trkpt>
      <trkpt lat="42.639562" lon="0.653729">
        <ele>3011.1</ele>
        <time>1970-01-01T06:33:30.000Z</time>
      </trkpt>
      <trkpt lat="42.639562" lon="0.653729">
        <ele>3011.1</ele>
        <time>1970-01-01T06:33:31.000Z</time>
      </trkpt>
      <trkpt lat="42.639561" lon="0.653729">
        <ele>3011.1</ele>
        <time>1970-01-01T06:33:32.000Z</time>
      </trkpt>
      <trkpt lat="42.639561" lon="0.653729">
        <ele>3011.1</ele>
        <time>1970-01-01T06:33:33.000Z</time>
      </trkpt>
      <trkpt lat="42.639561" lon="0.653729">
        <ele>3011.1</ele>
        <time>1970-01-01T06:33:34.000Z</time>
      </trkpt>
      <trkpt lat="42.639561" lon="0.653729">
        <ele>3011.1</ele>
        <time>1970-01-01T06:33:35.000Z</time>
      </trkpt>
      <trkpt lat="42.639561" lon="0.653729">
        <ele>3011.1</ele>
        <time>1970-01-01T06:33:36.000Z</time>
      </trkpt>
      <trkpt lat="42.639561" lon="0.653729">
        <ele>3011.1</ele>
        <time>1970-01-01T06:33:37.000Z</time>
      </trkpt>
      <trkpt lat="42.639561" lon="0.653729">
        <ele>3011.1</ele>
        <time>1970-01-01T06:33:38.000Z</time>
      </trkpt>
      <trkpt lat="42.639561" lon="0.653729">
        <ele>3011.1</ele>
        <time>1970-01-01T06:33:39.000Z</time>
      </trkpt>
      <trkpt lat="42.639561" lon="0.653729">
        <ele>3011.1</ele>
        <time>1970-01-01T06:33:40.000Z</time>
      </trkpt>
      <trkpt lat="42.639561" lon="0.653729">
        <ele>3011.1</ele>
        <time>1970-01-01T06:33:41.000Z</time>
      </trkpt>
      <trkpt lat="42.639561" lon="0.653729">
        <ele>3011.1</ele>
        <time>1970-01-01T06:33:42.000Z</time>
      </trkpt>
      <trkpt lat="42.639561" lon="0.653729">
        <ele>3011.1</ele>
        <time>1970-01-01T06:33:43.000Z</time>
      </trkpt>
      <trkpt lat="42.639561" lon="0.653729">
        <ele>3011.1</ele>
        <time>1970-01-01T06:33:44.000Z</time>
      </trkpt>
      <trkpt lat="42.639561" lon="0.653729">
        <ele>3011.1</ele>
        <time>1970-01-01T06:33:45.000Z</time>
      </trkpt>
      <trkpt lat="42.639561" lon="0.653729">
        <ele>3011.1</ele>
        <time>1970-01-01T06:33:46.000Z</time>
      </trkpt>
      <trkpt lat="42.639561" lon="0.653729">
        <ele>3011.1</ele>
        <time>1970-01-01T06:33:47.000Z</time>
      </trkpt>
      <trkpt lat="42.639561" lon="0.653729">
        <ele>3011.1</ele>
        <time>1970-01-01T06:33:48.000Z</time>
      </trkpt>
      <trkpt lat="42.639561" lon="0.653729">
        <ele>3011.1</ele>
        <time>1970-01-01T06:33:49.000Z</time>
      </trkpt>
      <trkpt lat="42.639561" lon="0.653729">
        <ele>3011.1</ele>
        <time>1970-01-01T06:33:50.000Z</time>
      </trkpt>
      <trkpt lat="42.639561" lon="0.653729">
        <ele>3011.1</ele>
        <time>1970-01-01T06:33:51.000Z</time>
      </trkpt>
      <trkpt lat="42.639561" lon="0.653729">
        <ele>3011.1</ele>
        <time>1970-01-01T06:33:52.000Z</time>
      </trkpt>
      <trkpt lat="42.639561" lon="0.653729">
        <ele>3011.1</ele>
        <time>1970-01-01T06:33:53.000Z</time>
      </trkpt>
      <trkpt lat="42.639561" lon="0.653729">
        <ele>3011.1</ele>
        <time>1970-01-01T06:33:54.000Z</time>
      </trkpt>
      <trkpt lat="42.639561" lon="0.653729">
        <ele>3011.1</ele>
        <time>1970-01-01T06:33:55.000Z</time>
      </trkpt>
      <trkpt lat="42.639561" lon="0.653729">
        <ele>3011.1</ele>
        <time>1970-01-01T06:33:56.000Z</time>
      </trkpt>
      <trkpt lat="42.639561" lon="0.653729">
        <ele>3011.1</ele>
        <time>1970-01-01T06:33:57.000Z</time>
      </trkpt>
      <trkpt lat="42.639561" lon="0.653729">
        <ele>3011.1</ele>
        <time>1970-01-01T06:33:58.000Z</time>
      </trkpt>
      <trkpt lat="42.639561" lon="0.653729">
        <ele>3011.1</ele>
        <time>1970-01-01T06:33:59.000Z</time>
      </trkpt>
      <trkpt lat="42.639561" lon="0.653729">
        <ele>3011.1</ele>
        <time>1970-01-01T06:34:00.000Z</time>
      </trkpt>
      <trkpt lat="42.639561" lon="0.653729">
        <ele>3011.1</ele>
        <time>1970-01-01T06:34:01.000Z</time>
      </trkpt>
      <trkpt lat="42.639561" lon="0.653729">
        <ele>3011.1</ele>
        <time>1970-01-01T06:34:02.000Z</time>
      </trkpt>
      <trkpt lat="42.639561" lon="0.653729">
        <ele>3011.1</ele>
        <time>1970-01-01T06:34:03.000Z</time>
      </trkpt>
      <trkpt lat="42.639561" lon="0.653729">
        <ele>3011.1</ele>
        <time>1970-01-01T06:34:04.000Z</time>
      </trkpt>
      <trkpt lat="42.639561" lon="0.653729">
        <ele>3011.1</ele>
        <time>1970-01-01T06:34:05.000Z</time>
      </trkpt>
      <trkpt lat="42.639561" lon="0.653729">
        <ele>3011.1</ele>
        <time>1970-01-01T06:34:06.000Z</time>
      </trkpt>
      <trkpt lat="42.639561" lon="0.653729">
        <ele>3011.1</ele>
        <time>1970-01-01T06:34:07.000Z</time>
      </trkpt>
      <trkpt lat="42.639561" lon="0.653729">
        <ele>3011.1</ele>
        <time>1970-01-01T06:34:08.000Z</time>
      </trkpt>
      <trkpt lat="42.639561" lon="0.653729">
        <ele>3011.1</ele>
        <time>1970-01-01T06:34:09.000Z</time>
      </trkpt>
      <trkpt lat="42.639561" lon="0.653729">
        <ele>3011.1</ele>
        <time>1970-01-01T06:34:10.000Z</time>
      </trkpt>
      <trkpt lat="42.639561" lon="0.653729">
        <ele>3011.1</ele>
        <time>1970-01-01T06:34:11.000Z</time>
      </trkpt>
      <trkpt lat="42.639561" lon="0.653729">
        <ele>3011.1</ele>
        <time>1970-01-01T06:34:12.000Z</time>
      </trkpt>
      <trkpt lat="42.639561" lon="0.653729">
        <ele>3011.1</ele>
        <time>1970-01-01T06:34:13.000Z</time>
      </trkpt>
      <trkpt lat="42.639561" lon="0.653729">
        <ele>3011.1</ele>
        <time>1970-01-01T06:34:14.000Z</time>
      </trkpt>
      <trkpt lat="42.639561" lon="0.653729">
        <ele>3011.1</ele>
        <time>1970-01-01T06:34:15.000Z</time>
      </trkpt>
      <trkpt lat="42.639561" lon="0.653729">
        <ele>3011.1</ele>
        <time>1970-01-01T06:34:16.000Z</time>
      </trkpt>
      <trkpt lat="42.639561" lon="0.653729">
        <ele>3011.1</ele>
        <time>1970-01-01T06:34:17.000Z</time>
      </trkpt>
      <trkpt lat="42.639561" lon="0.653729">
        <ele>3011.1</ele>
        <time>1970-01-01T06:34:18.000Z</time>
      </trkpt>
      <trkpt lat="42.639561" lon="0.653729">
        <ele>3011.1</ele>
        <time>1970-01-01T06:34:19.000Z</time>
      </trkpt>
      <trkpt lat="42.639561" lon="0.653729">
        <ele>3011.1</ele>
        <time>1970-01-01T06:34:20.000Z</time>
      </trkpt>
      <trkpt lat="42.639561" lon="0.653729">
        <ele>3011.1</ele>
        <time>1970-01-01T06:34:21.000Z</time>
      </trkpt>
      <trkpt lat="42.639561" lon="0.65373">
        <ele>3011.1</ele>
        <time>1970-01-01T06:34:22.000Z</time>
      </trkpt>
      <trkpt lat="42.639561" lon="0.65373">
        <ele>3011.1</ele>
        <time>1970-01-01T06:34:23.000Z</time>
      </trkpt>
      <trkpt lat="42.639561" lon="0.65373">
        <ele>3011.1</ele>
        <time>1970-01-01T06:34:24.000Z</time>
      </trkpt>
      <trkpt lat="42.639561" lon="0.65373">
        <ele>3011.1</ele>
        <time>1970-01-01T06:34:25.000Z</time>
      </trkpt>
      <trkpt lat="42.639561" lon="0.653729">
        <ele>3011.1</ele>
        <time>1970-01-01T06:34:26.000Z</time>
      </trkpt>
      <trkpt lat="42.639561" lon="0.653729">
        <ele>3011.1</ele>
        <time>1970-01-01T06:34:27.000Z</time>
      </trkpt>
      <trkpt lat="42.639561" lon="0.653729">
        <ele>3011.1</ele>
        <time>1970-01-01T06:34:28.000Z</time>
      </trkpt>
      <trkpt lat="42.639561" lon="0.653729">
        <ele>3011.1</ele>
        <time>1970-01-01T06:34:29.000Z</time>
      </trkpt>
      <trkpt lat="42.639561" lon="0.653729">
        <ele>3011.1</ele>
        <time>1970-01-01T06:34:30.000Z</time>
      </trkpt>
      <trkpt lat="42.639561" lon="0.653729">
        <ele>3011.1</ele>
        <time>1970-01-01T06:34:31.000Z</time>
      </trkpt>
      <trkpt lat="42.639561" lon="0.653729">
        <ele>3011.1</ele>
        <time>1970-01-01T06:34:32.000Z</time>
      </trkpt>
      <trkpt lat="42.639561" lon="0.653729">
        <ele>3011.1</ele>
        <time>1970-01-01T06:34:33.000Z</time>
      </trkpt>
      <trkpt lat="42.639561" lon="0.653729">
        <ele>3011.1</ele>
        <time>1970-01-01T06:34:34.000Z</time>
      </trkpt>
      <trkpt lat="42.639561" lon="0.653729">
        <ele>3011.1</ele>
        <time>1970-01-01T06:34:35.000Z</time>
      </trkpt>
      <trkpt lat="42.639561" lon="0.653729">
        <ele>3011.1</ele>
        <time>1970-01-01T06:34:36.000Z</time>
      </trkpt>
      <trkpt lat="42.639561" lon="0.653729">
        <ele>3011.1</ele>
        <time>1970-01-01T06:34:37.000Z</time>
      </trkpt>
      <trkpt lat="42.639561" lon="0.65373">
        <ele>3011</ele>
        <time>1970-01-01T06:34:38.000Z</time>
      </trkpt>
      <trkpt lat="42.639561" lon="0.65373">
        <ele>3011</ele>
        <time>1970-01-01T06:34:39.000Z</time>
      </trkpt>
      <trkpt lat="42.639561" lon="0.653729">
        <ele>3011</ele>
        <time>1970-01-01T06:34:40.000Z</time>
      </trkpt>
      <trkpt lat="42.639561" lon="0.653729">
        <ele>3011</ele>
        <time>1970-01-01T06:34:41.000Z</time>
      </trkpt>
      <trkpt lat="42.639561" lon="0.653729">
        <ele>3011</ele>
        <time>1970-01-01T06:34:42.000Z</time>
      </trkpt>
      <trkpt lat="42.639561" lon="0.65373">
        <ele>3011</ele>
        <time>1970-01-01T06:34:43.000Z</time>
      </trkpt>
      <trkpt lat="42.639561" lon="0.65373">
        <ele>3011</ele>
        <time>1970-01-01T06:34:44.000Z</time>
      </trkpt>
      <trkpt lat="42.639561" lon="0.65373">
        <ele>3011</ele>
        <time>1970-01-01T06:34:45.000Z</time>
      </trkpt>
      <trkpt lat="42.639561" lon="0.65373">
        <ele>3011</ele>
        <time>1970-01-01T06:34:46.000Z</time>
      </trkpt>
      <trkpt lat="42.639561" lon="0.653729">
        <ele>3011</ele>
        <time>1970-01-01T06:34:47.000Z</time>
      </trkpt>
      <trkpt lat="42.639561" lon="0.653729">
        <ele>3011</ele>
        <time>1970-01-01T06:34:48.000Z</time>
      </trkpt>
      <trkpt lat="42.639561" lon="0.653729">
        <ele>3011</ele>
        <time>1970-01-01T06:34:49.000Z</time>
      </trkpt>
      <trkpt lat="42.639561" lon="0.653729">
        <ele>3011</ele>
        <time>1970-01-01T06:34:50.000Z</time>
      </trkpt>
      <trkpt lat="42.639561" lon="0.653729">
        <ele>3011</ele>
        <time>1970-01-01T06:34:51.000Z</time>
      </trkpt>
      <trkpt lat="42.639561" lon="0.653729">
        <ele>3011</ele>
        <time>1970-01-01T06:34:52.000Z</time>
      </trkpt>
      <trkpt lat="42.639561" lon="0.653729">
        <ele>3011</ele>
        <time>1970-01-01T06:34:53.000Z</time>
      </trkpt>
      <trkpt lat="42.639561" lon="0.653729">
        <ele>3011</ele>
        <time>1970-01-01T06:34:54.000Z</time>
      </trkpt>
      <trkpt lat="42.639561" lon="0.653729">
        <ele>3011</ele>
        <time>1970-01-01T06:34:55.000Z</time>
      </trkpt>
      <trkpt lat="42.639562" lon="0.653729">
        <ele>3011</ele>
        <time>1970-01-01T06:34:56.000Z</time>
      </trkpt>
      <trkpt lat="42.639563" lon="0.65373">
        <ele>3011</ele>
        <time>1970-01-01T06:34:57.000Z</time>
      </trkpt>
      <trkpt lat="42.639564" lon="0.65373">
        <ele>3011</ele>
        <time>1970-01-01T06:34:58.000Z</time>
      </trkpt>
      <trkpt lat="42.639564" lon="0.653731">
        <ele>3010.9</ele>
        <time>1970-01-01T06:34:59.000Z</time>
      </trkpt>
      <trkpt lat="42.639564" lon="0.653731">
        <ele>3010.9</ele>
        <time>1970-01-01T06:35:00.000Z</time>
      </trkpt>
      <trkpt lat="42.639564" lon="0.653731">
        <ele>3010.9</ele>
        <time>1970-01-01T06:35:01.000Z</time>
      </trkpt>
      <trkpt lat="42.639564" lon="0.653732">
        <ele>3010.9</ele>
        <time>1970-01-01T06:35:02.000Z</time>
      </trkpt>
      <trkpt lat="42.639564" lon="0.653732">
        <ele>3010.9</ele>
        <time>1970-01-01T06:35:03.000Z</time>
      </trkpt>
      <trkpt lat="42.639564" lon="0.653732">
        <ele>3010.9</ele>
        <time>1970-01-01T06:35:04.000Z</time>
      </trkpt>
      <trkpt lat="42.639564" lon="0.653732">
        <ele>3010.9</ele>
        <time>1970-01-01T06:35:05.000Z</time>
      </trkpt>
      <trkpt lat="42.639565" lon="0.653731">
        <ele>3010.9</ele>
        <time>1970-01-01T06:35:06.000Z</time>
      </trkpt>
      <trkpt lat="42.639566" lon="0.65373">
        <ele>3010.9</ele>
        <time>1970-01-01T06:35:07.000Z</time>
      </trkpt>
      <trkpt lat="42.639566" lon="0.653728">
        <ele>3010.9</ele>
        <time>1970-01-01T06:35:08.000Z</time>
      </trkpt>
      <trkpt lat="42.639567" lon="0.653727">
        <ele>3010.9</ele>
        <time>1970-01-01T06:35:09.000Z</time>
      </trkpt>
      <trkpt lat="42.639567" lon="0.653726">
        <ele>3010.8</ele>
        <time>1970-01-01T06:35:11.000Z</time>
      </trkpt>
      <trkpt lat="42.639567" lon="0.653726">
        <ele>3010.8</ele>
        <time>1970-01-01T06:35:12.000Z</time>
      </trkpt>
      <trkpt lat="42.639568" lon="0.653727">
        <ele>3010.8</ele>
        <time>1970-01-01T06:35:13.000Z</time>
      </trkpt>
      <trkpt lat="42.639569" lon="0.653728">
        <ele>3010.8</ele>
        <time>1970-01-01T06:35:14.000Z</time>
      </trkpt>
      <trkpt lat="42.63957" lon="0.653728">
        <ele>3010.8</ele>
        <time>1970-01-01T06:35:15.000Z</time>
      </trkpt>
      <trkpt lat="42.63957" lon="0.653728">
        <ele>3010.8</ele>
        <time>1970-01-01T06:35:16.000Z</time>
      </trkpt>
      <trkpt lat="42.639571" lon="0.653729">
        <ele>3010.8</ele>
        <time>1970-01-01T06:35:17.000Z</time>
      </trkpt>
      <trkpt lat="42.639572" lon="0.653729">
        <ele>3010.7</ele>
        <time>1970-01-01T06:35:18.000Z</time>
      </trkpt>
      <trkpt lat="42.639572" lon="0.653729">
        <ele>3010.7</ele>
        <time>1970-01-01T06:35:19.000Z</time>
      </trkpt>
      <trkpt lat="42.639573" lon="0.65373">
        <ele>3010.7</ele>
        <time>1970-01-01T06:35:20.000Z</time>
      </trkpt>
      <trkpt lat="42.639573" lon="0.65373">
        <ele>3010.7</ele>
        <time>1970-01-01T06:35:21.000Z</time>
      </trkpt>
      <trkpt lat="42.639574" lon="0.65373">
        <ele>3010.7</ele>
        <time>1970-01-01T06:35:22.000Z</time>
      </trkpt>
      <trkpt lat="42.639575" lon="0.653731">
        <ele>3010.7</ele>
        <time>1970-01-01T06:35:24.000Z</time>
      </trkpt>
      <trkpt lat="42.639575" lon="0.653731">
        <ele>3010.7</ele>
        <time>1970-01-01T06:35:25.000Z</time>
      </trkpt>
      <trkpt lat="42.639576" lon="0.653731">
        <ele>3010.7</ele>
        <time>1970-01-01T06:35:26.000Z</time>
      </trkpt>
      <trkpt lat="42.639576" lon="0.653732">
        <ele>3010.7</ele>
        <time>1970-01-01T06:35:27.000Z</time>
      </trkpt>
      <trkpt lat="42.639577" lon="0.653732">
        <ele>3010.6</ele>
        <time>1970-01-01T06:35:28.000Z</time>
      </trkpt>
      <trkpt lat="42.639577" lon="0.653732">
        <ele>3010.6</ele>
        <time>1970-01-01T06:35:29.000Z</time>
      </trkpt>
      <trkpt lat="42.639578" lon="0.653732">
        <ele>3010.6</ele>
        <time>1970-01-01T06:35:30.000Z</time>
      </trkpt>
      <trkpt lat="42.639579" lon="0.653732">
        <ele>3010.6</ele>
        <time>1970-01-01T06:35:31.000Z</time>
      </trkpt>
      <trkpt lat="42.639579" lon="0.653732">
        <ele>3010.6</ele>
        <time>1970-01-01T06:35:32.000Z</time>
      </trkpt>
      <trkpt lat="42.63958" lon="0.653732">
        <ele>3010.6</ele>
        <time>1970-01-01T06:35:33.000Z</time>
      </trkpt>
      <trkpt lat="42.639581" lon="0.653732">
        <ele>3010.6</ele>
        <time>1970-01-01T06:35:34.000Z</time>
      </trkpt>
      <trkpt lat="42.639581" lon="0.653732">
        <ele>3010.6</ele>
        <time>1970-01-01T06:35:35.000Z</time>
      </trkpt>
      <trkpt lat="42.639582" lon="0.653732">
        <ele>3010.6</ele>
        <time>1970-01-01T06:35:36.000Z</time>
      </trkpt>
      <trkpt lat="42.639581" lon="0.653732">
        <ele>3010.5</ele>
        <time>1970-01-01T06:35:37.000Z</time>
      </trkpt>
      <trkpt lat="42.639581" lon="0.653732">
        <ele>3010.5</ele>
        <time>1970-01-01T06:35:38.000Z</time>
      </trkpt>
      <trkpt lat="42.639581" lon="0.653732">
        <ele>3010.5</ele>
        <time>1970-01-01T06:35:39.000Z</time>
      </trkpt>
      <trkpt lat="42.639581" lon="0.653732">
        <ele>3010.5</ele>
        <time>1970-01-01T06:35:40.000Z</time>
      </trkpt>
      <trkpt lat="42.639581" lon="0.653732">
        <ele>3010.5</ele>
        <time>1970-01-01T06:35:41.000Z</time>
      </trkpt>
      <trkpt lat="42.639581" lon="0.653732">
        <ele>3010.5</ele>
        <time>1970-01-01T06:35:42.000Z</time>
      </trkpt>
      <trkpt lat="42.639581" lon="0.653732">
        <ele>3010.5</ele>
        <time>1970-01-01T06:35:43.000Z</time>
      </trkpt>
      <trkpt lat="42.639581" lon="0.653731">
        <ele>3010.5</ele>
        <time>1970-01-01T06:35:44.000Z</time>
      </trkpt>
      <trkpt lat="42.639582" lon="0.653731">
        <ele>3010.5</ele>
        <time>1970-01-01T06:35:45.000Z</time>
      </trkpt>
      <trkpt lat="42.639582" lon="0.653731">
        <ele>3010.5</ele>
        <time>1970-01-01T06:35:46.000Z</time>
      </trkpt>
      <trkpt lat="42.63958" lon="0.653731">
        <ele>3010.5</ele>
        <time>1970-01-01T06:35:47.000Z</time>
      </trkpt>
      <trkpt lat="42.639578" lon="0.653732">
        <ele>3010.5</ele>
        <time>1970-01-01T06:35:48.000Z</time>
      </trkpt>
      <trkpt lat="42.639577" lon="0.653732">
        <ele>3010.4</ele>
        <time>1970-01-01T06:35:49.000Z</time>
      </trkpt>
      <trkpt lat="42.639577" lon="0.653732">
        <ele>3010.4</ele>
        <time>1970-01-01T06:35:50.000Z</time>
      </trkpt>
      <trkpt lat="42.639577" lon="0.653732">
        <ele>3010.4</ele>
        <time>1970-01-01T06:35:51.000Z</time>
      </trkpt>
      <trkpt lat="42.639577" lon="0.653732">
        <ele>3010.4</ele>
        <time>1970-01-01T06:35:52.000Z</time>
      </trkpt>
      <trkpt lat="42.639577" lon="0.653732">
        <ele>3010.4</ele>
        <time>1970-01-01T06:35:53.000Z</time>
      </trkpt>
      <trkpt lat="42.639577" lon="0.653732">
        <ele>3010.4</ele>
        <time>1970-01-01T06:35:54.000Z</time>
      </trkpt>
      <trkpt lat="42.639577" lon="0.653732">
        <ele>3010.4</ele>
        <time>1970-01-01T06:35:55.000Z</time>
      </trkpt>
      <trkpt lat="42.639577" lon="0.653732">
        <ele>3010.4</ele>
        <time>1970-01-01T06:35:56.000Z</time>
      </trkpt>
      <trkpt lat="42.639577" lon="0.653732">
        <ele>3010.4</ele>
        <time>1970-01-01T06:35:57.000Z</time>
      </trkpt>
      <trkpt lat="42.639577" lon="0.653732">
        <ele>3010.4</ele>
        <time>1970-01-01T06:35:58.000Z</time>
      </trkpt>
      <trkpt lat="42.639577" lon="0.653732">
        <ele>3010.4</ele>
        <time>1970-01-01T06:35:59.000Z</time>
      </trkpt>
      <trkpt lat="42.639579" lon="0.65373">
        <ele>3010.4</ele>
        <time>1970-01-01T06:36:00.000Z</time>
      </trkpt>
      <trkpt lat="42.639582" lon="0.653728">
        <ele>3010.3</ele>
        <time>1970-01-01T06:36:01.000Z</time>
      </trkpt>
      <trkpt lat="42.639584" lon="0.653724">
        <ele>3010.3</ele>
        <time>1970-01-01T06:36:02.000Z</time>
      </trkpt>
      <trkpt lat="42.639585" lon="0.653723">
        <ele>3010.3</ele>
        <time>1970-01-01T06:36:03.000Z</time>
      </trkpt>
      <trkpt lat="42.639585" lon="0.653722">
        <ele>3010.3</ele>
        <time>1970-01-01T06:36:04.000Z</time>
      </trkpt>
      <trkpt lat="42.639585" lon="0.653722">
        <ele>3010.3</ele>
        <time>1970-01-01T06:36:05.000Z</time>
      </trkpt>
      <trkpt lat="42.639585" lon="0.653723">
        <ele>3010.2</ele>
        <time>1970-01-01T06:36:06.000Z</time>
      </trkpt>
      <trkpt lat="42.639581" lon="0.653718">
        <ele>3010.2</ele>
        <time>1970-01-01T06:36:07.000Z</time>
      </trkpt>
      <trkpt lat="42.639578" lon="0.653717">
        <ele>3010.1</ele>
        <time>1970-01-01T06:36:08.000Z</time>
      </trkpt>
      <trkpt lat="42.639576" lon="0.653716">
        <ele>3010.1</ele>
        <time>1970-01-01T06:36:09.000Z</time>
      </trkpt>
      <trkpt lat="42.639571" lon="0.653719">
        <ele>3010</ele>
        <time>1970-01-01T06:36:11.000Z</time>
      </trkpt>
      <trkpt lat="42.639568" lon="0.653719">
        <ele>3009.9</ele>
        <time>1970-01-01T06:36:12.000Z</time>
      </trkpt>
      <trkpt lat="42.639566" lon="0.65372">
        <ele>3009.9</ele>
        <time>1970-01-01T06:36:13.000Z</time>
      </trkpt>
      <trkpt lat="42.639565" lon="0.653719">
        <ele>3009.9</ele>
        <time>1970-01-01T06:36:14.000Z</time>
      </trkpt>
      <trkpt lat="42.639564" lon="0.653719">
        <ele>3009.9</ele>
        <time>1970-01-01T06:36:15.000Z</time>
      </trkpt>
      <trkpt lat="42.639563" lon="0.653719">
        <ele>3009.8</ele>
        <time>1970-01-01T06:36:16.000Z</time>
      </trkpt>
      <trkpt lat="42.639562" lon="0.653719">
        <ele>3009.8</ele>
        <time>1970-01-01T06:36:17.000Z</time>
      </trkpt>
      <trkpt lat="42.639561" lon="0.653719">
        <ele>3009.8</ele>
        <time>1970-01-01T06:36:18.000Z</time>
      </trkpt>
      <trkpt lat="42.63956" lon="0.653719">
        <ele>3009.8</ele>
        <time>1970-01-01T06:36:19.000Z</time>
      </trkpt>
      <trkpt lat="42.63956" lon="0.653719">
        <ele>3009.8</ele>
        <time>1970-01-01T06:36:20.000Z</time>
      </trkpt>
      <trkpt lat="42.63956" lon="0.653719">
        <ele>3009.8</ele>
        <time>1970-01-01T06:36:21.000Z</time>
      </trkpt>
      <trkpt lat="42.63956" lon="0.653719">
        <ele>3009.8</ele>
        <time>1970-01-01T06:36:22.000Z</time>
      </trkpt>
      <trkpt lat="42.639559" lon="0.653718">
        <ele>3009.8</ele>
        <time>1970-01-01T06:36:23.000Z</time>
      </trkpt>
      <trkpt lat="42.639559" lon="0.653718">
        <ele>3009.8</ele>
        <time>1970-01-01T06:36:24.000Z</time>
      </trkpt>
      <trkpt lat="42.639559" lon="0.653718">
        <ele>3009.8</ele>
        <time>1970-01-01T06:36:25.000Z</time>
      </trkpt>
      <trkpt lat="42.639559" lon="0.653718">
        <ele>3009.8</ele>
        <time>1970-01-01T06:36:26.000Z</time>
      </trkpt>
      <trkpt lat="42.639555" lon="0.653718">
        <ele>3009.7</ele>
        <time>1970-01-01T06:36:27.000Z</time>
      </trkpt>
      <trkpt lat="42.639553" lon="0.653717">
        <ele>3009.7</ele>
        <time>1970-01-01T06:36:28.000Z</time>
      </trkpt>
      <trkpt lat="42.639552" lon="0.653716">
        <ele>3009.6</ele>
        <time>1970-01-01T06:36:29.000Z</time>
      </trkpt>
      <trkpt lat="42.639552" lon="0.653716">
        <ele>3009.6</ele>
        <time>1970-01-01T06:36:30.000Z</time>
      </trkpt>
      <trkpt lat="42.639552" lon="0.653715">
        <ele>3009.6</ele>
        <time>1970-01-01T06:36:31.000Z</time>
      </trkpt>
      <trkpt lat="42.639552" lon="0.653715">
        <ele>3009.6</ele>
        <time>1970-01-01T06:36:32.000Z</time>
      </trkpt>
      <trkpt lat="42.639552" lon="0.653715">
        <ele>3009.6</ele>
        <time>1970-01-01T06:36:33.000Z</time>
      </trkpt>
      <trkpt lat="42.639553" lon="0.653715">
        <ele>3009.6</ele>
        <time>1970-01-01T06:36:34.000Z</time>
      </trkpt>
      <trkpt lat="42.639554" lon="0.653715">
        <ele>3009.6</ele>
        <time>1970-01-01T06:36:35.000Z</time>
      </trkpt>
      <trkpt lat="42.639556" lon="0.653715">
        <ele>3009.6</ele>
        <time>1970-01-01T06:36:36.000Z</time>
      </trkpt>
      <trkpt lat="42.639557" lon="0.653716">
        <ele>3009.5</ele>
        <time>1970-01-01T06:36:37.000Z</time>
      </trkpt>
      <trkpt lat="42.639555" lon="0.653719">
        <ele>3009.5</ele>
        <time>1970-01-01T06:36:38.000Z</time>
      </trkpt>
      <trkpt lat="42.639556" lon="0.653721">
        <ele>3009.5</ele>
        <time>1970-01-01T06:36:39.000Z</time>
      </trkpt>
      <trkpt lat="42.639555" lon="0.653714">
        <ele>3009.4</ele>
        <time>1970-01-01T06:36:40.000Z</time>
      </trkpt>
      <trkpt lat="42.639559" lon="0.653708">
        <ele>3009.3</ele>
        <time>1970-01-01T06:36:41.000Z</time>
      </trkpt>
      <trkpt lat="42.639565" lon="0.653705">
        <ele>3009.2</ele>
        <time>1970-01-01T06:36:42.000Z</time>
      </trkpt>
      <trkpt lat="42.639573" lon="0.653707">
        <ele>3009</ele>
        <time>1970-01-01T06:36:44.000Z</time>
      </trkpt>
      <trkpt lat="42.639579" lon="0.653711">
        <ele>3008.9</ele>
        <time>1970-01-01T06:36:45.000Z</time>
      </trkpt>
      <trkpt lat="42.639581" lon="0.653713">
        <ele>3008.9</ele>
        <time>1970-01-01T06:36:46.000Z</time>
      </trkpt>
      <trkpt lat="42.639581" lon="0.653716">
        <ele>3008.8</ele>
        <time>1970-01-01T06:36:47.000Z</time>
      </trkpt>
      <trkpt lat="42.639582" lon="0.653718">
        <ele>3008.8</ele>
        <time>1970-01-01T06:36:48.000Z</time>
      </trkpt>
      <trkpt lat="42.639582" lon="0.653719">
        <ele>3008.8</ele>
        <time>1970-01-01T06:36:49.000Z</time>
      </trkpt>
      <trkpt lat="42.639582" lon="0.65372">
        <ele>3008.8</ele>
        <time>1970-01-01T06:36:50.000Z</time>
      </trkpt>
      <trkpt lat="42.639583" lon="0.65372">
        <ele>3008.8</ele>
        <time>1970-01-01T06:36:51.000Z</time>
      </trkpt>
      <trkpt lat="42.639583" lon="0.653721">
        <ele>3008.7</ele>
        <time>1970-01-01T06:36:52.000Z</time>
      </trkpt>
      <trkpt lat="42.639584" lon="0.653721">
        <ele>3008.7</ele>
        <time>1970-01-01T06:36:53.000Z</time>
      </trkpt>
      <trkpt lat="42.639585" lon="0.653721">
        <ele>3008.7</ele>
        <time>1970-01-01T06:36:54.000Z</time>
      </trkpt>
      <trkpt lat="42.639586" lon="0.65372">
        <ele>3008.7</ele>
        <time>1970-01-01T06:36:55.000Z</time>
      </trkpt>
      <trkpt lat="42.639587" lon="0.653719">
        <ele>3008.7</ele>
        <time>1970-01-01T06:36:56.000Z</time>
      </trkpt>
      <trkpt lat="42.639587" lon="0.653719">
        <ele>3008.7</ele>
        <time>1970-01-01T06:36:57.000Z</time>
      </trkpt>
      <trkpt lat="42.639587" lon="0.653718">
        <ele>3008.7</ele>
        <time>1970-01-01T06:36:58.000Z</time>
      </trkpt>
      <trkpt lat="42.639588" lon="0.653717">
        <ele>3008.6</ele>
        <time>1970-01-01T06:37:00.000Z</time>
      </trkpt>
      <trkpt lat="42.639588" lon="0.653716">
        <ele>3008.6</ele>
        <time>1970-01-01T06:37:01.000Z</time>
      </trkpt>
      <trkpt lat="42.639588" lon="0.653715">
        <ele>3008.6</ele>
        <time>1970-01-01T06:37:02.000Z</time>
      </trkpt>
      <trkpt lat="42.639588" lon="0.653714">
        <ele>3008.6</ele>
        <time>1970-01-01T06:37:03.000Z</time>
      </trkpt>
      <trkpt lat="42.639587" lon="0.653712">
        <ele>3008.6</ele>
        <time>1970-01-01T06:37:04.000Z</time>
      </trkpt>
      <trkpt lat="42.639586" lon="0.653711">
        <ele>3008.6</ele>
        <time>1970-01-01T06:37:05.000Z</time>
      </trkpt>
      <trkpt lat="42.639585" lon="0.653711">
        <ele>3008.5</ele>
        <time>1970-01-01T06:37:06.000Z</time>
      </trkpt>
      <trkpt lat="42.639583" lon="0.65371">
        <ele>3008.5</ele>
        <time>1970-01-01T06:37:07.000Z</time>
      </trkpt>
      <trkpt lat="42.639582" lon="0.65371">
        <ele>3008.5</ele>
        <time>1970-01-01T06:37:08.000Z</time>
      </trkpt>
      <trkpt lat="42.639581" lon="0.653711">
        <ele>3008.5</ele>
        <time>1970-01-01T06:37:09.000Z</time>
      </trkpt>
      <trkpt lat="42.639581" lon="0.653712">
        <ele>3008.5</ele>
        <time>1970-01-01T06:37:10.000Z</time>
      </trkpt>
      <trkpt lat="42.639581" lon="0.653714">
        <ele>3008.4</ele>
        <time>1970-01-01T06:37:11.000Z</time>
      </trkpt>
      <trkpt lat="42.639581" lon="0.653715">
        <ele>3008.4</ele>
        <time>1970-01-01T06:37:12.000Z</time>
      </trkpt>
      <trkpt lat="42.639581" lon="0.653716">
        <ele>3008.4</ele>
        <time>1970-01-01T06:37:13.000Z</time>
      </trkpt>
      <trkpt lat="42.63958" lon="0.653716">
        <ele>3008.4</ele>
        <time>1970-01-01T06:37:14.000Z</time>
      </trkpt>
      <trkpt lat="42.639581" lon="0.653717">
        <ele>3008.4</ele>
        <time>1970-01-01T06:37:15.000Z</time>
      </trkpt>
      <trkpt lat="42.639581" lon="0.653717">
        <ele>3008.4</ele>
        <time>1970-01-01T06:37:16.000Z</time>
      </trkpt>
      <trkpt lat="42.63958" lon="0.653718">
        <ele>3008.3</ele>
        <time>1970-01-01T06:37:17.000Z</time>
      </trkpt>
      <trkpt lat="42.63958" lon="0.653719">
        <ele>3008.3</ele>
        <time>1970-01-01T06:37:18.000Z</time>
      </trkpt>
      <trkpt lat="42.63958" lon="0.65372">
        <ele>3008.3</ele>
        <time>1970-01-01T06:37:19.000Z</time>
      </trkpt>
      <trkpt lat="42.63958" lon="0.653721">
        <ele>3008.3</ele>
        <time>1970-01-01T06:37:20.000Z</time>
      </trkpt>
      <trkpt lat="42.639582" lon="0.653721">
        <ele>3008.3</ele>
        <time>1970-01-01T06:37:21.000Z</time>
      </trkpt>
      <trkpt lat="42.639583" lon="0.653721">
        <ele>3008.3</ele>
        <time>1970-01-01T06:37:22.000Z</time>
      </trkpt>
      <trkpt lat="42.639583" lon="0.653721">
        <ele>3008.3</ele>
        <time>1970-01-01T06:37:23.000Z</time>
      </trkpt>
      <trkpt lat="42.639584" lon="0.653721">
        <ele>3008.2</ele>
        <time>1970-01-01T06:37:24.000Z</time>
      </trkpt>
      <trkpt lat="42.639584" lon="0.653721">
        <ele>3008.2</ele>
        <time>1970-01-01T06:37:25.000Z</time>
      </trkpt>
      <trkpt lat="42.639584" lon="0.653721">
        <ele>3008.2</ele>
        <time>1970-01-01T06:37:26.000Z</time>
      </trkpt>
      <trkpt lat="42.639584" lon="0.653721">
        <ele>3008.2</ele>
        <time>1970-01-01T06:37:27.000Z</time>
      </trkpt>
      <trkpt lat="42.639584" lon="0.653721">
        <ele>3008.2</ele>
        <time>1970-01-01T06:37:28.000Z</time>
      </trkpt>
      <trkpt lat="42.639584" lon="0.653721">
        <ele>3008.2</ele>
        <time>1970-01-01T06:37:29.000Z</time>
      </trkpt>
      <trkpt lat="42.639584" lon="0.653721">
        <ele>3008.2</ele>
        <time>1970-01-01T06:37:30.000Z</time>
      </trkpt>
      <trkpt lat="42.639584" lon="0.653721">
        <ele>3008.2</ele>
        <time>1970-01-01T06:37:31.000Z</time>
      </trkpt>
      <trkpt lat="42.639584" lon="0.653721">
        <ele>3008.2</ele>
        <time>1970-01-01T06:37:32.000Z</time>
      </trkpt>
      <trkpt lat="42.639583" lon="0.653721">
        <ele>3008.2</ele>
        <time>1970-01-01T06:37:33.000Z</time>
      </trkpt>
      <trkpt lat="42.639583" lon="0.653721">
        <ele>3008.2</ele>
        <time>1970-01-01T06:37:34.000Z</time>
      </trkpt>
      <trkpt lat="42.639583" lon="0.653721">
        <ele>3008.2</ele>
        <time>1970-01-01T06:37:35.000Z</time>
      </trkpt>
      <trkpt lat="42.639583" lon="0.653721">
        <ele>3008.2</ele>
        <time>1970-01-01T06:37:36.000Z</time>
      </trkpt>
      <trkpt lat="42.639583" lon="0.653721">
        <ele>3008.2</ele>
        <time>1970-01-01T06:37:37.000Z</time>
      </trkpt>
      <trkpt lat="42.639583" lon="0.653721">
        <ele>3008.2</ele>
        <time>1970-01-01T06:37:38.000Z</time>
      </trkpt>
      <trkpt lat="42.639583" lon="0.653721">
        <ele>3008.2</ele>
        <time>1970-01-01T06:37:39.000Z</time>
      </trkpt>
      <trkpt lat="42.639583" lon="0.653721">
        <ele>3008.2</ele>
        <time>1970-01-01T06:37:40.000Z</time>
      </trkpt>
      <trkpt lat="42.639583" lon="0.653721">
        <ele>3008.2</ele>
        <time>1970-01-01T06:37:41.000Z</time>
      </trkpt>
      <trkpt lat="42.639583" lon="0.653721">
        <ele>3008.2</ele>
        <time>1970-01-01T06:37:42.000Z</time>
      </trkpt>
      <trkpt lat="42.639583" lon="0.653721">
        <ele>3008.2</ele>
        <time>1970-01-01T06:37:43.000Z</time>
      </trkpt>
      <trkpt lat="42.639583" lon="0.653721">
        <ele>3008.2</ele>
        <time>1970-01-01T06:37:44.000Z</time>
      </trkpt>
      <trkpt lat="42.639583" lon="0.653721">
        <ele>3008.2</ele>
        <time>1970-01-01T06:37:45.000Z</time>
      </trkpt>
      <trkpt lat="42.639583" lon="0.653721">
        <ele>3008.2</ele>
        <time>1970-01-01T06:37:46.000Z</time>
      </trkpt>
      <trkpt lat="42.639583" lon="0.653721">
        <ele>3008.2</ele>
        <time>1970-01-01T06:37:47.000Z</time>
      </trkpt>
      <trkpt lat="42.639583" lon="0.653721">
        <ele>3008.2</ele>
        <time>1970-01-01T06:37:48.000Z</time>
      </trkpt>
      <trkpt lat="42.639583" lon="0.653721">
        <ele>3008.2</ele>
        <time>1970-01-01T06:37:49.000Z</time>
      </trkpt>
      <trkpt lat="42.639583" lon="0.653721">
        <ele>3008.2</ele>
        <time>1970-01-01T06:37:50.000Z</time>
      </trkpt>
      <trkpt lat="42.639583" lon="0.653721">
        <ele>3008.2</ele>
        <time>1970-01-01T06:37:51.000Z</time>
      </trkpt>
      <trkpt lat="42.639584" lon="0.653721">
        <ele>3008.2</ele>
        <time>1970-01-01T06:37:52.000Z</time>
      </trkpt>
      <trkpt lat="42.639584" lon="0.65372">
        <ele>3008.2</ele>
        <time>1970-01-01T06:37:53.000Z</time>
      </trkpt>
      <trkpt lat="42.639591" lon="0.653725">
        <ele>3008.1</ele>
        <time>1970-01-01T06:37:54.000Z</time>
      </trkpt>
      <trkpt lat="42.639583" lon="0.653719">
        <ele>3007.9</ele>
        <time>1970-01-01T06:37:55.000Z</time>
      </trkpt>
      <trkpt lat="42.639586" lon="0.653719">
        <ele>3007.9</ele>
        <time>1970-01-01T06:37:57.000Z</time>
      </trkpt>
      <trkpt lat="42.639588" lon="0.65372">
        <ele>3007.8</ele>
        <time>1970-01-01T06:37:58.000Z</time>
      </trkpt>
      <trkpt lat="42.639591" lon="0.653722">
        <ele>3007.8</ele>
        <time>1970-01-01T06:37:59.000Z</time>
      </trkpt>
      <trkpt lat="42.639592" lon="0.653723">
        <ele>3007.7</ele>
        <time>1970-01-01T06:38:00.000Z</time>
      </trkpt>
      <trkpt lat="42.639593" lon="0.653723">
        <ele>3007.7</ele>
        <time>1970-01-01T06:38:01.000Z</time>
      </trkpt>
      <trkpt lat="42.639595" lon="0.653724">
        <ele>3007.7</ele>
        <time>1970-01-01T06:38:02.000Z</time>
      </trkpt>
      <trkpt lat="42.639596" lon="0.653724">
        <ele>3007.7</ele>
        <time>1970-01-01T06:38:03.000Z</time>
      </trkpt>
      <trkpt lat="42.639597" lon="0.653725">
        <ele>3007.7</ele>
        <time>1970-01-01T06:38:04.000Z</time>
      </trkpt>
      <trkpt lat="42.639598" lon="0.653726">
        <ele>3007.6</ele>
        <time>1970-01-01T06:38:05.000Z</time>
      </trkpt>
      <trkpt lat="42.639599" lon="0.653726">
        <ele>3007.6</ele>
        <time>1970-01-01T06:38:06.000Z</time>
      </trkpt>
      <trkpt lat="42.6396" lon="0.653726">
        <ele>3007.6</ele>
        <time>1970-01-01T06:38:07.000Z</time>
      </trkpt>
      <trkpt lat="42.6396" lon="0.653727">
        <ele>3007.6</ele>
        <time>1970-01-01T06:38:08.000Z</time>
      </trkpt>
      <trkpt lat="42.6396" lon="0.653727">
        <ele>3007.6</ele>
        <time>1970-01-01T06:38:09.000Z</time>
      </trkpt>
      <trkpt lat="42.6396" lon="0.653727">
        <ele>3007.6</ele>
        <time>1970-01-01T06:38:10.000Z</time>
      </trkpt>
      <trkpt lat="42.6396" lon="0.653726">
        <ele>3007.6</ele>
        <time>1970-01-01T06:38:11.000Z</time>
      </trkpt>
      <trkpt lat="42.6396" lon="0.653726">
        <ele>3007.6</ele>
        <time>1970-01-01T06:38:12.000Z</time>
      </trkpt>
      <trkpt lat="42.639601" lon="0.653726">
        <ele>3007.6</ele>
        <time>1970-01-01T06:38:13.000Z</time>
      </trkpt>
      <trkpt lat="42.639601" lon="0.653726">
        <ele>3007.6</ele>
        <time>1970-01-01T06:38:14.000Z</time>
      </trkpt>
      <trkpt lat="42.639601" lon="0.653726">
        <ele>3007.6</ele>
        <time>1970-01-01T06:38:15.000Z</time>
      </trkpt>
      <trkpt lat="42.639602" lon="0.653726">
        <ele>3007.5</ele>
        <time>1970-01-01T06:38:16.000Z</time>
      </trkpt>
      <trkpt lat="42.639602" lon="0.653726">
        <ele>3007.5</ele>
        <time>1970-01-01T06:38:17.000Z</time>
      </trkpt>
      <trkpt lat="42.639602" lon="0.653727">
        <ele>3007.5</ele>
        <time>1970-01-01T06:38:18.000Z</time>
      </trkpt>
      <trkpt lat="42.639602" lon="0.653727">
        <ele>3007.5</ele>
        <time>1970-01-01T06:38:19.000Z</time>
      </trkpt>
      <trkpt lat="42.639602" lon="0.653729">
        <ele>3007.5</ele>
        <time>1970-01-01T06:38:20.000Z</time>
      </trkpt>
      <trkpt lat="42.639602" lon="0.65373">
        <ele>3007.5</ele>
        <time>1970-01-01T06:38:21.000Z</time>
      </trkpt>
      <trkpt lat="42.639602" lon="0.65373">
        <ele>3007.5</ele>
        <time>1970-01-01T06:38:22.000Z</time>
      </trkpt>
      <trkpt lat="42.639602" lon="0.65373">
        <ele>3007.5</ele>
        <time>1970-01-01T06:38:23.000Z</time>
      </trkpt>
      <trkpt lat="42.639602" lon="0.653731">
        <ele>3007.5</ele>
        <time>1970-01-01T06:38:24.000Z</time>
      </trkpt>
      <trkpt lat="42.639602" lon="0.653731">
        <ele>3007.5</ele>
        <time>1970-01-01T06:38:25.000Z</time>
      </trkpt>
      <trkpt lat="42.639602" lon="0.653731">
        <ele>3007.5</ele>
        <time>1970-01-01T06:38:26.000Z</time>
      </trkpt>
      <trkpt lat="42.639602" lon="0.653732">
        <ele>3007.5</ele>
        <time>1970-01-01T06:38:28.000Z</time>
      </trkpt>
      <trkpt lat="42.639602" lon="0.653732">
        <ele>3007.5</ele>
        <time>1970-01-01T06:38:29.000Z</time>
      </trkpt>
      <trkpt lat="42.639601" lon="0.653732">
        <ele>3007.4</ele>
        <time>1970-01-01T06:38:30.000Z</time>
      </trkpt>
      <trkpt lat="42.639601" lon="0.653733">
        <ele>3007.4</ele>
        <time>1970-01-01T06:38:31.000Z</time>
      </trkpt>
      <trkpt lat="42.639601" lon="0.653732">
        <ele>3007.4</ele>
        <time>1970-01-01T06:38:33.000Z</time>
      </trkpt>
      <trkpt lat="42.639602" lon="0.653732">
        <ele>3007.4</ele>
        <time>1970-01-01T06:38:34.000Z</time>
      </trkpt>
      <trkpt lat="42.639602" lon="0.653732">
        <ele>3007.4</ele>
        <time>1970-01-01T06:38:35.000Z</time>
      </trkpt>
      <trkpt lat="42.639602" lon="0.653732">
        <ele>3007.4</ele>
        <time>1970-01-01T06:38:36.000Z</time>
      </trkpt>
      <trkpt lat="42.639602" lon="0.653732">
        <ele>3007.4</ele>
        <time>1970-01-01T06:38:37.000Z</time>
      </trkpt>
      <trkpt lat="42.639602" lon="0.653731">
        <ele>3007.4</ele>
        <time>1970-01-01T06:38:38.000Z</time>
      </trkpt>
      <trkpt lat="42.639602" lon="0.653731">
        <ele>3007.4</ele>
        <time>1970-01-01T06:38:39.000Z</time>
      </trkpt>
      <trkpt lat="42.639602" lon="0.653731">
        <ele>3007.4</ele>
        <time>1970-01-01T06:38:40.000Z</time>
      </trkpt>
      <trkpt lat="42.639601" lon="0.65373">
        <ele>3007.4</ele>
        <time>1970-01-01T06:38:41.000Z</time>
      </trkpt>
      <trkpt lat="42.639601" lon="0.65373">
        <ele>3007.4</ele>
        <time>1970-01-01T06:38:42.000Z</time>
      </trkpt>
      <trkpt lat="42.639601" lon="0.653729">
        <ele>3007.4</ele>
        <time>1970-01-01T06:38:43.000Z</time>
      </trkpt>
      <trkpt lat="42.639602" lon="0.653728">
        <ele>3007.3</ele>
        <time>1970-01-01T06:38:44.000Z</time>
      </trkpt>
      <trkpt lat="42.639601" lon="0.653728">
        <ele>3007.3</ele>
        <time>1970-01-01T06:38:45.000Z</time>
      </trkpt>
      <trkpt lat="42.6396" lon="0.653728">
        <ele>3007.3</ele>
        <time>1970-01-01T06:38:46.000Z</time>
      </trkpt>
      <trkpt lat="42.6396" lon="0.653731">
        <ele>3007.3</ele>
        <time>1970-01-01T06:38:48.000Z</time>
      </trkpt>
      <trkpt lat="42.6396" lon="0.653733">
        <ele>3007.2</ele>
        <time>1970-01-01T06:38:49.000Z</time>
      </trkpt>
      <trkpt lat="42.6396" lon="0.653734">
        <ele>3007.2</ele>
        <time>1970-01-01T06:38:50.000Z</time>
      </trkpt>
      <trkpt lat="42.639601" lon="0.653734">
        <ele>3007.2</ele>
        <time>1970-01-01T06:38:51.000Z</time>
      </trkpt>
      <trkpt lat="42.639604" lon="0.653735">
        <ele>3007.2</ele>
        <time>1970-01-01T06:38:52.000Z</time>
      </trkpt>
      <trkpt lat="42.639609" lon="0.653734">
        <ele>3007.1</ele>
        <time>1970-01-01T06:38:53.000Z</time>
      </trkpt>
      <trkpt lat="42.639612" lon="0.65373">
        <ele>3007</ele>
        <time>1970-01-01T06:38:54.000Z</time>
      </trkpt>
      <trkpt lat="42.639616" lon="0.653724">
        <ele>3006.9</ele>
        <time>1970-01-01T06:38:55.000Z</time>
      </trkpt>
      <trkpt lat="42.639621" lon="0.653718">
        <ele>3006.8</ele>
        <time>1970-01-01T06:38:57.000Z</time>
      </trkpt>
      <trkpt lat="42.639624" lon="0.653712">
        <ele>3006.7</ele>
        <time>1970-01-01T06:38:58.000Z</time>
      </trkpt>
      <trkpt lat="42.639629" lon="0.653702">
        <ele>3006.6</ele>
        <time>1970-01-01T06:38:59.000Z</time>
      </trkpt>
      <trkpt lat="42.639635" lon="0.653695">
        <ele>3006.4</ele>
        <time>1970-01-01T06:39:00.000Z</time>
      </trkpt>
      <trkpt lat="42.639641" lon="0.653689">
        <ele>3006.3</ele>
        <time>1970-01-01T06:39:01.000Z</time>
      </trkpt>
      <trkpt lat="42.639646" lon="0.653682">
        <ele>3006.2</ele>
        <time>1970-01-01T06:39:03.000Z</time>
      </trkpt>
      <trkpt lat="42.639652" lon="0.653676">
        <ele>3006.1</ele>
        <time>1970-01-01T06:39:04.000Z</time>
      </trkpt>
      <trkpt lat="42.639666" lon="0.653662">
        <ele>3005.8</ele>
        <time>1970-01-01T06:39:06.000Z</time>
      </trkpt>
      <trkpt lat="42.639673" lon="0.653654">
        <ele>3005.6</ele>
        <time>1970-01-01T06:39:07.000Z</time>
      </trkpt>
      <trkpt lat="42.639678" lon="0.653643">
        <ele>3005.4</ele>
        <time>1970-01-01T06:39:08.000Z</time>
      </trkpt>
      <trkpt lat="42.639681" lon="0.653633">
        <ele>3005.3</ele>
        <time>1970-01-01T06:39:09.000Z</time>
      </trkpt>
      <trkpt lat="42.639685" lon="0.653613">
        <ele>3005.1</ele>
        <time>1970-01-01T06:39:11.000Z</time>
      </trkpt>
      <trkpt lat="42.639686" lon="0.653602">
        <ele>3004.9</ele>
        <time>1970-01-01T06:39:12.000Z</time>
      </trkpt>
      <trkpt lat="42.639689" lon="0.65359">
        <ele>3004.8</ele>
        <time>1970-01-01T06:39:13.000Z</time>
      </trkpt>
      <trkpt lat="42.639693" lon="0.653581">
        <ele>3004.6</ele>
        <time>1970-01-01T06:39:14.000Z</time>
      </trkpt>
      <trkpt lat="42.639698" lon="0.653568">
        <ele>3004.4</ele>
        <time>1970-01-01T06:39:15.000Z</time>
      </trkpt>
      <trkpt lat="42.639709" lon="0.653545">
        <ele>3004.1</ele>
        <time>1970-01-01T06:39:16.000Z</time>
      </trkpt>
      <trkpt lat="42.639714" lon="0.653537">
        <ele>3003.9</ele>
        <time>1970-01-01T06:39:17.000Z</time>
      </trkpt>
      <trkpt lat="42.63972" lon="0.653529">
        <ele>3003.8</ele>
        <time>1970-01-01T06:39:18.000Z</time>
      </trkpt>
      <trkpt lat="42.639732" lon="0.653521">
        <ele>3003.6</ele>
        <time>1970-01-01T06:39:19.000Z</time>
      </trkpt>
      <trkpt lat="42.639749" lon="0.653515">
        <ele>3003.3</ele>
        <time>1970-01-01T06:39:21.000Z</time>
      </trkpt>
      <trkpt lat="42.639763" lon="0.653514">
        <ele>3003</ele>
        <time>1970-01-01T06:39:22.000Z</time>
      </trkpt>
      <trkpt lat="42.639777" lon="0.653516">
        <ele>3002.8</ele>
        <time>1970-01-01T06:39:23.000Z</time>
      </trkpt>
      <trkpt lat="42.639798" lon="0.653511">
        <ele>3002.4</ele>
        <time>1970-01-01T06:39:24.000Z</time>
      </trkpt>
      <trkpt lat="42.639805" lon="0.653506">
        <ele>3002.2</ele>
        <time>1970-01-01T06:39:25.000Z</time>
      </trkpt>
      <trkpt lat="42.639812" lon="0.653501">
        <ele>3002.1</ele>
        <time>1970-01-01T06:39:26.000Z</time>
      </trkpt>
      <trkpt lat="42.639823" lon="0.653489">
        <ele>3001.8</ele>
        <time>1970-01-01T06:39:27.000Z</time>
      </trkpt>
      <trkpt lat="42.639831" lon="0.65348">
        <ele>3001.6</ele>
        <time>1970-01-01T06:39:29.000Z</time>
      </trkpt>
      <trkpt lat="42.639844" lon="0.653482">
        <ele>3001.4</ele>
        <time>1970-01-01T06:39:30.000Z</time>
      </trkpt>
      <trkpt lat="42.639863" lon="0.653488">
        <ele>3001</ele>
        <time>1970-01-01T06:39:31.000Z</time>
      </trkpt>
      <trkpt lat="42.639872" lon="0.653489">
        <ele>3000.9</ele>
        <time>1970-01-01T06:39:32.000Z</time>
      </trkpt>
      <trkpt lat="42.63988" lon="0.653489">
        <ele>3000.7</ele>
        <time>1970-01-01T06:39:33.000Z</time>
      </trkpt>
      <trkpt lat="42.639902" lon="0.653485">
        <ele>3000.3</ele>
        <time>1970-01-01T06:39:34.000Z</time>
      </trkpt>
      <trkpt lat="42.639911" lon="0.653483">
        <ele>3000.1</ele>
        <time>1970-01-01T06:39:35.000Z</time>
      </trkpt>
      <trkpt lat="42.63992" lon="0.653481">
        <ele>2999.9</ele>
        <time>1970-01-01T06:39:36.000Z</time>
      </trkpt>
      <trkpt lat="42.63994" lon="0.653475">
        <ele>2999.5</ele>
        <time>1970-01-01T06:39:38.000Z</time>
      </trkpt>
      <trkpt lat="42.639951" lon="0.653473">
        <ele>2999.3</ele>
        <time>1970-01-01T06:39:39.000Z</time>
      </trkpt>
      <trkpt lat="42.63997" lon="0.65346">
        <ele>2998.9</ele>
        <time>1970-01-01T06:39:40.000Z</time>
      </trkpt>
      <trkpt lat="42.639976" lon="0.653454">
        <ele>2998.8</ele>
        <time>1970-01-01T06:39:41.000Z</time>
      </trkpt>
      <trkpt lat="42.639983" lon="0.653447">
        <ele>2998.6</ele>
        <time>1970-01-01T06:39:42.000Z</time>
      </trkpt>
      <trkpt lat="42.639993" lon="0.65344">
        <ele>2998.4</ele>
        <time>1970-01-01T06:39:43.000Z</time>
      </trkpt>
      <trkpt lat="42.640004" lon="0.653436">
        <ele>2998.1</ele>
        <time>1970-01-01T06:39:44.000Z</time>
      </trkpt>
      <trkpt lat="42.640014" lon="0.653436">
        <ele>2997.9</ele>
        <time>1970-01-01T06:39:45.000Z</time>
      </trkpt>
      <trkpt lat="42.640024" lon="0.653436">
        <ele>2997.7</ele>
        <time>1970-01-01T06:39:46.000Z</time>
      </trkpt>
      <trkpt lat="42.640036" lon="0.653435">
        <ele>2997.5</ele>
        <time>1970-01-01T06:39:47.000Z</time>
      </trkpt>
      <trkpt lat="42.640048" lon="0.653431">
        <ele>2997.2</ele>
        <time>1970-01-01T06:39:48.000Z</time>
      </trkpt>
      <trkpt lat="42.640069" lon="0.653433">
        <ele>2996.8</ele>
        <time>1970-01-01T06:39:50.000Z</time>
      </trkpt>
      <trkpt lat="42.640077" lon="0.653435">
        <ele>2996.7</ele>
        <time>1970-01-01T06:39:51.000Z</time>
      </trkpt>
      <trkpt lat="42.640086" lon="0.653437">
        <ele>2996.5</ele>
        <time>1970-01-01T06:39:52.000Z</time>
      </trkpt>
      <trkpt lat="42.640097" lon="0.65344">
        <ele>2996.2</ele>
        <time>1970-01-01T06:39:53.000Z</time>
      </trkpt>
      <trkpt lat="42.640107" lon="0.653445">
        <ele>2996</ele>
        <time>1970-01-01T06:39:54.000Z</time>
      </trkpt>
      <trkpt lat="42.640118" lon="0.653452">
        <ele>2995.8</ele>
        <time>1970-01-01T06:39:55.000Z</time>
      </trkpt>
      <trkpt lat="42.640139" lon="0.653464">
        <ele>2995.3</ele>
        <time>1970-01-01T06:39:56.000Z</time>
      </trkpt>
      <trkpt lat="42.640148" lon="0.653466">
        <ele>2995.2</ele>
        <time>1970-01-01T06:39:57.000Z</time>
      </trkpt>
      <trkpt lat="42.640157" lon="0.653469">
        <ele>2995</ele>
        <time>1970-01-01T06:39:58.000Z</time>
      </trkpt>
      <trkpt lat="42.640168" lon="0.653474">
        <ele>2994.7</ele>
        <time>1970-01-01T06:40:00.000Z</time>
      </trkpt>
      <trkpt lat="42.640178" lon="0.653482">
        <ele>2994.5</ele>
        <time>1970-01-01T06:40:01.000Z</time>
      </trkpt>
      <trkpt lat="42.64019" lon="0.653487">
        <ele>2994.3</ele>
        <time>1970-01-01T06:40:02.000Z</time>
      </trkpt>
      <trkpt lat="42.64021" lon="0.653493">
        <ele>2993.8</ele>
        <time>1970-01-01T06:40:03.000Z</time>
      </trkpt>
      <trkpt lat="42.640217" lon="0.653496">
        <ele>2993.7</ele>
        <time>1970-01-01T06:40:04.000Z</time>
      </trkpt>
      <trkpt lat="42.640225" lon="0.6535">
        <ele>2993.5</ele>
        <time>1970-01-01T06:40:05.000Z</time>
      </trkpt>
      <trkpt lat="42.640238" lon="0.653506">
        <ele>2993.3</ele>
        <time>1970-01-01T06:40:06.000Z</time>
      </trkpt>
      <trkpt lat="42.640251" lon="0.65351">
        <ele>2993</ele>
        <time>1970-01-01T06:40:07.000Z</time>
      </trkpt>
      <trkpt lat="42.640268" lon="0.653513">
        <ele>2992.6</ele>
        <time>1970-01-01T06:40:09.000Z</time>
      </trkpt>
      <trkpt lat="42.64029" lon="0.653521">
        <ele>2992.2</ele>
        <time>1970-01-01T06:40:10.000Z</time>
      </trkpt>
      <trkpt lat="42.640299" lon="0.653523">
        <ele>2992</ele>
        <time>1970-01-01T06:40:11.000Z</time>
      </trkpt>
      <trkpt lat="42.640309" lon="0.653526">
        <ele>2991.8</ele>
        <time>1970-01-01T06:40:12.000Z</time>
      </trkpt>
      <trkpt lat="42.640323" lon="0.653525">
        <ele>2991.5</ele>
        <time>1970-01-01T06:40:13.000Z</time>
      </trkpt>
      <trkpt lat="42.640337" lon="0.653525">
        <ele>2991.2</ele>
        <time>1970-01-01T06:40:14.000Z</time>
      </trkpt>
      <trkpt lat="42.640353" lon="0.653529">
        <ele>2990.9</ele>
        <time>1970-01-01T06:40:16.000Z</time>
      </trkpt>
      <trkpt lat="42.640366" lon="0.653531">
        <ele>2990.7</ele>
        <time>1970-01-01T06:40:17.000Z</time>
      </trkpt>
      <trkpt lat="42.640389" lon="0.653534">
        <ele>2990.2</ele>
        <time>1970-01-01T06:40:18.000Z</time>
      </trkpt>
      <trkpt lat="42.640398" lon="0.653536">
        <ele>2990</ele>
        <time>1970-01-01T06:40:19.000Z</time>
      </trkpt>
      <trkpt lat="42.640407" lon="0.653538">
        <ele>2989.9</ele>
        <time>1970-01-01T06:40:20.000Z</time>
      </trkpt>
      <trkpt lat="42.640421" lon="0.653539">
        <ele>2989.6</ele>
        <time>1970-01-01T06:40:21.000Z</time>
      </trkpt>
      <trkpt lat="42.640434" lon="0.65354">
        <ele>2989.4</ele>
        <time>1970-01-01T06:40:22.000Z</time>
      </trkpt>
      <trkpt lat="42.640456" lon="0.653547">
        <ele>2989</ele>
        <time>1970-01-01T06:40:23.000Z</time>
      </trkpt>
      <trkpt lat="42.640464" lon="0.65355">
        <ele>2988.8</ele>
        <time>1970-01-01T06:40:24.000Z</time>
      </trkpt>
      <trkpt lat="42.640471" lon="0.653553">
        <ele>2988.7</ele>
        <time>1970-01-01T06:40:25.000Z</time>
      </trkpt>
      <trkpt lat="42.640486" lon="0.653556">
        <ele>2988.5</ele>
        <time>1970-01-01T06:40:26.000Z</time>
      </trkpt>
      <trkpt lat="42.6405" lon="0.653558">
        <ele>2988.2</ele>
        <time>1970-01-01T06:40:27.000Z</time>
      </trkpt>
      <trkpt lat="42.640516" lon="0.65356">
        <ele>2988</ele>
        <time>1970-01-01T06:40:29.000Z</time>
      </trkpt>
      <trkpt lat="42.640529" lon="0.653561">
        <ele>2987.8</ele>
        <time>1970-01-01T06:40:30.000Z</time>
      </trkpt>
      <trkpt lat="42.64055" lon="0.653563">
        <ele>2987.4</ele>
        <time>1970-01-01T06:40:31.000Z</time>
      </trkpt>
      <trkpt lat="42.640558" lon="0.653564">
        <ele>2987.3</ele>
        <time>1970-01-01T06:40:32.000Z</time>
      </trkpt>
      <trkpt lat="42.640567" lon="0.653565">
        <ele>2987.2</ele>
        <time>1970-01-01T06:40:33.000Z</time>
      </trkpt>
      <trkpt lat="42.640588" lon="0.653565">
        <ele>2986.9</ele>
        <time>1970-01-01T06:40:34.000Z</time>
      </trkpt>
      <trkpt lat="42.640597" lon="0.653566">
        <ele>2986.7</ele>
        <time>1970-01-01T06:40:35.000Z</time>
      </trkpt>
      <trkpt lat="42.640607" lon="0.653566">
        <ele>2986.6</ele>
        <time>1970-01-01T06:40:36.000Z</time>
      </trkpt>
      <trkpt lat="42.640621" lon="0.653567">
        <ele>2986.4</ele>
        <time>1970-01-01T06:40:38.000Z</time>
      </trkpt>
      <trkpt lat="42.640635" lon="0.653567">
        <ele>2986.2</ele>
        <time>1970-01-01T06:40:39.000Z</time>
      </trkpt>
      <trkpt lat="42.640657" lon="0.653565">
        <ele>2985.9</ele>
        <time>1970-01-01T06:40:40.000Z</time>
      </trkpt>
      <trkpt lat="42.640665" lon="0.653564">
        <ele>2985.8</ele>
        <time>1970-01-01T06:40:41.000Z</time>
      </trkpt>
      <trkpt lat="42.640673" lon="0.653563">
        <ele>2985.6</ele>
        <time>1970-01-01T06:40:42.000Z</time>
      </trkpt>
      <trkpt lat="42.640689" lon="0.653563">
        <ele>2985.4</ele>
        <time>1970-01-01T06:40:43.000Z</time>
      </trkpt>
      <trkpt lat="42.640705" lon="0.653565">
        <ele>2985.2</ele>
        <time>1970-01-01T06:40:44.000Z</time>
      </trkpt>
      <trkpt lat="42.640718" lon="0.653566">
        <ele>2985</ele>
        <time>1970-01-01T06:40:45.000Z</time>
      </trkpt>
      <trkpt lat="42.640733" lon="0.653564">
        <ele>2984.8</ele>
        <time>1970-01-01T06:40:46.000Z</time>
      </trkpt>
      <trkpt lat="42.640746" lon="0.653564">
        <ele>2984.5</ele>
        <time>1970-01-01T06:40:47.000Z</time>
      </trkpt>
      <trkpt lat="42.640762" lon="0.653567">
        <ele>2984.2</ele>
        <time>1970-01-01T06:40:48.000Z</time>
      </trkpt>
      <trkpt lat="42.640777" lon="0.653568">
        <ele>2983.9</ele>
        <time>1970-01-01T06:40:50.000Z</time>
      </trkpt>
      <trkpt lat="42.640791" lon="0.653568">
        <ele>2983.6</ele>
        <time>1970-01-01T06:40:51.000Z</time>
      </trkpt>
      <trkpt lat="42.640803" lon="0.653565">
        <ele>2983.4</ele>
        <time>1970-01-01T06:40:52.000Z</time>
      </trkpt>
      <trkpt lat="42.640814" lon="0.653562">
        <ele>2983.2</ele>
        <time>1970-01-01T06:40:53.000Z</time>
      </trkpt>
      <trkpt lat="42.640826" lon="0.653561">
        <ele>2982.9</ele>
        <time>1970-01-01T06:40:54.000Z</time>
      </trkpt>
      <trkpt lat="42.64084" lon="0.653562">
        <ele>2982.7</ele>
        <time>1970-01-01T06:40:55.000Z</time>
      </trkpt>
      <trkpt lat="42.640853" lon="0.653567">
        <ele>2982.4</ele>
        <time>1970-01-01T06:40:56.000Z</time>
      </trkpt>
      <trkpt lat="42.640865" lon="0.653571">
        <ele>2982.1</ele>
        <time>1970-01-01T06:40:57.000Z</time>
      </trkpt>
      <trkpt lat="42.640878" lon="0.653572">
        <ele>2981.9</ele>
        <time>1970-01-01T06:40:58.000Z</time>
      </trkpt>
      <trkpt lat="42.640893" lon="0.653572">
        <ele>2981.6</ele>
        <time>1970-01-01T06:41:00.000Z</time>
      </trkpt>
      <trkpt lat="42.640915" lon="0.653571">
        <ele>2981.1</ele>
        <time>1970-01-01T06:41:01.000Z</time>
      </trkpt>
      <trkpt lat="42.640924" lon="0.65357">
        <ele>2980.9</ele>
        <time>1970-01-01T06:41:02.000Z</time>
      </trkpt>
      <trkpt lat="42.640932" lon="0.653569">
        <ele>2980.8</ele>
        <time>1970-01-01T06:41:03.000Z</time>
      </trkpt>
      <trkpt lat="42.640943" lon="0.653568">
        <ele>2980.5</ele>
        <time>1970-01-01T06:41:04.000Z</time>
      </trkpt>
      <trkpt lat="42.640954" lon="0.653568">
        <ele>2980.3</ele>
        <time>1970-01-01T06:41:05.000Z</time>
      </trkpt>
      <trkpt lat="42.640967" lon="0.653564">
        <ele>2980</ele>
        <time>1970-01-01T06:41:06.000Z</time>
      </trkpt>
      <trkpt lat="42.640979" lon="0.65356">
        <ele>2979.7</ele>
        <time>1970-01-01T06:41:07.000Z</time>
      </trkpt>
      <trkpt lat="42.640993" lon="0.653557">
        <ele>2979.4</ele>
        <time>1970-01-01T06:41:09.000Z</time>
      </trkpt>
      <trkpt lat="42.641008" lon="0.653555">
        <ele>2979.1</ele>
        <time>1970-01-01T06:41:10.000Z</time>
      </trkpt>
      <trkpt lat="42.641021" lon="0.653552">
        <ele>2978.8</ele>
        <time>1970-01-01T06:41:11.000Z</time>
      </trkpt>
      <trkpt lat="42.641034" lon="0.653551">
        <ele>2978.5</ele>
        <time>1970-01-01T06:41:12.000Z</time>
      </trkpt>
      <trkpt lat="42.641045" lon="0.653552">
        <ele>2978.2</ele>
        <time>1970-01-01T06:41:13.000Z</time>
      </trkpt>
      <trkpt lat="42.641053" lon="0.653555">
        <ele>2978.1</ele>
        <time>1970-01-01T06:41:14.000Z</time>
      </trkpt>
      <trkpt lat="42.641063" lon="0.653555">
        <ele>2977.8</ele>
        <time>1970-01-01T06:41:15.000Z</time>
      </trkpt>
      <trkpt lat="42.641074" lon="0.653554">
        <ele>2977.6</ele>
        <time>1970-01-01T06:41:16.000Z</time>
      </trkpt>
      <trkpt lat="42.641084" lon="0.653552">
        <ele>2977.4</ele>
        <time>1970-01-01T06:41:17.000Z</time>
      </trkpt>
      <trkpt lat="42.641097" lon="0.653552">
        <ele>2977.1</ele>
        <time>1970-01-01T06:41:18.000Z</time>
      </trkpt>
      <trkpt lat="42.641109" lon="0.653551">
        <ele>2976.8</ele>
        <time>1970-01-01T06:41:20.000Z</time>
      </trkpt>
      <trkpt lat="42.64112" lon="0.653548">
        <ele>2976.6</ele>
        <time>1970-01-01T06:41:21.000Z</time>
      </trkpt>
      <trkpt lat="42.64114" lon="0.653543">
        <ele>2976.1</ele>
        <time>1970-01-01T06:41:22.000Z</time>
      </trkpt>
      <trkpt lat="42.641149" lon="0.653542">
        <ele>2975.9</ele>
        <time>1970-01-01T06:41:23.000Z</time>
      </trkpt>
      <trkpt lat="42.641158" lon="0.653542">
        <ele>2975.7</ele>
        <time>1970-01-01T06:41:24.000Z</time>
      </trkpt>
      <trkpt lat="42.641171" lon="0.65354">
        <ele>2975.5</ele>
        <time>1970-01-01T06:41:26.000Z</time>
      </trkpt>
      <trkpt lat="42.641185" lon="0.653535">
        <ele>2975.1</ele>
        <time>1970-01-01T06:41:27.000Z</time>
      </trkpt>
      <trkpt lat="42.641206" lon="0.653531">
        <ele>2974.7</ele>
        <time>1970-01-01T06:41:28.000Z</time>
      </trkpt>
      <trkpt lat="42.641214" lon="0.65353">
        <ele>2974.5</ele>
        <time>1970-01-01T06:41:29.000Z</time>
      </trkpt>
      <trkpt lat="42.641223" lon="0.653529">
        <ele>2974.3</ele>
        <time>1970-01-01T06:41:30.000Z</time>
      </trkpt>
      <trkpt lat="42.641245" lon="0.653527">
        <ele>2973.9</ele>
        <time>1970-01-01T06:41:31.000Z</time>
      </trkpt>
      <trkpt lat="42.641253" lon="0.653525">
        <ele>2973.7</ele>
        <time>1970-01-01T06:41:33.000Z</time>
      </trkpt>
      <trkpt lat="42.641261" lon="0.653523">
        <ele>2973.5</ele>
        <time>1970-01-01T06:41:34.000Z</time>
      </trkpt>
      <trkpt lat="42.641281" lon="0.653513">
        <ele>2973.1</ele>
        <time>1970-01-01T06:41:35.000Z</time>
      </trkpt>
      <trkpt lat="42.641289" lon="0.653509">
        <ele>2972.9</ele>
        <time>1970-01-01T06:41:36.000Z</time>
      </trkpt>
      <trkpt lat="42.641297" lon="0.653504">
        <ele>2972.7</ele>
        <time>1970-01-01T06:41:37.000Z</time>
      </trkpt>
      <trkpt lat="42.641306" lon="0.653498">
        <ele>2972.5</ele>
        <time>1970-01-01T06:41:38.000Z</time>
      </trkpt>
      <trkpt lat="42.641318" lon="0.653492">
        <ele>2972.3</ele>
        <time>1970-01-01T06:41:39.000Z</time>
      </trkpt>
      <trkpt lat="42.641336" lon="0.653486">
        <ele>2971.9</ele>
        <time>1970-01-01T06:41:41.000Z</time>
      </trkpt>
      <trkpt lat="42.641357" lon="0.653478">
        <ele>2971.4</ele>
        <time>1970-01-01T06:41:42.000Z</time>
      </trkpt>
      <trkpt lat="42.641365" lon="0.653474">
        <ele>2971.2</ele>
        <time>1970-01-01T06:41:43.000Z</time>
      </trkpt>
      <trkpt lat="42.641374" lon="0.65347">
        <ele>2971</ele>
        <time>1970-01-01T06:41:44.000Z</time>
      </trkpt>
      <trkpt lat="42.641388" lon="0.653466">
        <ele>2970.7</ele>
        <time>1970-01-01T06:41:46.000Z</time>
      </trkpt>
      <trkpt lat="42.641402" lon="0.653463">
        <ele>2970.4</ele>
        <time>1970-01-01T06:41:47.000Z</time>
      </trkpt>
      <trkpt lat="42.641412" lon="0.653463">
        <ele>2970.2</ele>
        <time>1970-01-01T06:41:48.000Z</time>
      </trkpt>
      <trkpt lat="42.641418" lon="0.653465">
        <ele>2970</ele>
        <time>1970-01-01T06:41:49.000Z</time>
      </trkpt>
      <trkpt lat="42.641428" lon="0.653466">
        <ele>2969.8</ele>
        <time>1970-01-01T06:41:51.000Z</time>
      </trkpt>
      <trkpt lat="42.641428" lon="0.653465">
        <ele>2969.8</ele>
        <time>1970-01-01T06:41:52.000Z</time>
      </trkpt>
      <trkpt lat="42.641433" lon="0.653464">
        <ele>2969.7</ele>
        <time>1970-01-01T06:41:53.000Z</time>
      </trkpt>
      <trkpt lat="42.641445" lon="0.653463">
        <ele>2969.4</ele>
        <time>1970-01-01T06:41:55.000Z</time>
      </trkpt>
      <trkpt lat="42.641454" lon="0.653461">
        <ele>2969.2</ele>
        <time>1970-01-01T06:41:56.000Z</time>
      </trkpt>
      <trkpt lat="42.641462" lon="0.653459">
        <ele>2969</ele>
        <time>1970-01-01T06:41:57.000Z</time>
      </trkpt>
      <trkpt lat="42.641468" lon="0.65346">
        <ele>2968.9</ele>
        <time>1970-01-01T06:41:58.000Z</time>
      </trkpt>
      <trkpt lat="42.641471" lon="0.653464">
        <ele>2968.8</ele>
        <time>1970-01-01T06:41:59.000Z</time>
      </trkpt>
      <trkpt lat="42.641472" lon="0.653469">
        <ele>2968.7</ele>
        <time>1970-01-01T06:42:00.000Z</time>
      </trkpt>
      <trkpt lat="42.641478" lon="0.653471">
        <ele>2968.5</ele>
        <time>1970-01-01T06:42:01.000Z</time>
      </trkpt>
      <trkpt lat="42.641484" lon="0.653471">
        <ele>2968.4</ele>
        <time>1970-01-01T06:42:02.000Z</time>
      </trkpt>
      <trkpt lat="42.641493" lon="0.653476">
        <ele>2968.1</ele>
        <time>1970-01-01T06:42:04.000Z</time>
      </trkpt>
      <trkpt lat="42.641495" lon="0.653483">
        <ele>2968</ele>
        <time>1970-01-01T06:42:05.000Z</time>
      </trkpt>
      <trkpt lat="42.641498" lon="0.653497">
        <ele>2967.8</ele>
        <time>1970-01-01T06:42:06.000Z</time>
      </trkpt>
      <trkpt lat="42.641498" lon="0.65351">
        <ele>2967.5</ele>
        <time>1970-01-01T06:42:07.000Z</time>
      </trkpt>
      <trkpt lat="42.641501" lon="0.653525">
        <ele>2967.2</ele>
        <time>1970-01-01T06:42:09.000Z</time>
      </trkpt>
      <trkpt lat="42.641505" lon="0.653528">
        <ele>2967.1</ele>
        <time>1970-01-01T06:42:10.000Z</time>
      </trkpt>
      <trkpt lat="42.641508" lon="0.653527">
        <ele>2967</ele>
        <time>1970-01-01T06:42:11.000Z</time>
      </trkpt>
      <trkpt lat="42.641512" lon="0.653522">
        <ele>2966.9</ele>
        <time>1970-01-01T06:42:12.000Z</time>
      </trkpt>
      <trkpt lat="42.641513" lon="0.653518">
        <ele>2966.8</ele>
        <time>1970-01-01T06:42:13.000Z</time>
      </trkpt>
      <trkpt lat="42.641519" lon="0.653511">
        <ele>2966.6</ele>
        <time>1970-01-01T06:42:14.000Z</time>
      </trkpt>
      <trkpt lat="42.641527" lon="0.653499">
        <ele>2966.3</ele>
        <time>1970-01-01T06:42:15.000Z</time>
      </trkpt>
      <trkpt lat="42.641531" lon="0.653492">
        <ele>2966.1</ele>
        <time>1970-01-01T06:42:16.000Z</time>
      </trkpt>
      <trkpt lat="42.641533" lon="0.653487">
        <ele>2966</ele>
        <time>1970-01-01T06:42:17.000Z</time>
      </trkpt>
      <trkpt lat="42.64154" lon="0.653483">
        <ele>2965.8</ele>
        <time>1970-01-01T06:42:18.000Z</time>
      </trkpt>
      <trkpt lat="42.641545" lon="0.653484">
        <ele>2965.7</ele>
        <time>1970-01-01T06:42:19.000Z</time>
      </trkpt>
      <trkpt lat="42.641548" lon="0.653485">
        <ele>2965.6</ele>
        <time>1970-01-01T06:42:20.000Z</time>
      </trkpt>
      <trkpt lat="42.641551" lon="0.653488">
        <ele>2965.5</ele>
        <time>1970-01-01T06:42:22.000Z</time>
      </trkpt>
      <trkpt lat="42.641553" lon="0.653488">
        <ele>2965.4</ele>
        <time>1970-01-01T06:42:23.000Z</time>
      </trkpt>
      <trkpt lat="42.641556" lon="0.653486">
        <ele>2965.3</ele>
        <time>1970-01-01T06:42:24.000Z</time>
      </trkpt>
      <trkpt lat="42.641561" lon="0.653482">
        <ele>2965.2</ele>
        <time>1970-01-01T06:42:25.000Z</time>
      </trkpt>
      <trkpt lat="42.641564" lon="0.653481">
        <ele>2965.1</ele>
        <time>1970-01-01T06:42:26.000Z</time>
      </trkpt>
      <trkpt lat="42.641569" lon="0.653481">
        <ele>2965</ele>
        <time>1970-01-01T06:42:27.000Z</time>
      </trkpt>
      <trkpt lat="42.641575" lon="0.653478">
        <ele>2964.8</ele>
        <time>1970-01-01T06:42:28.000Z</time>
      </trkpt>
      <trkpt lat="42.641583" lon="0.653475">
        <ele>2964.5</ele>
        <time>1970-01-01T06:42:29.000Z</time>
      </trkpt>
      <trkpt lat="42.641592" lon="0.653474">
        <ele>2964.3</ele>
        <time>1970-01-01T06:42:30.000Z</time>
      </trkpt>
      <trkpt lat="42.6416" lon="0.653479">
        <ele>2964</ele>
        <time>1970-01-01T06:42:32.000Z</time>
      </trkpt>
      <trkpt lat="42.641608" lon="0.653483">
        <ele>2963.7</ele>
        <time>1970-01-01T06:42:33.000Z</time>
      </trkpt>
      <trkpt lat="42.641618" lon="0.65348">
        <ele>2963.4</ele>
        <time>1970-01-01T06:42:34.000Z</time>
      </trkpt>
      <trkpt lat="42.641627" lon="0.653471">
        <ele>2963.1</ele>
        <time>1970-01-01T06:42:36.000Z</time>
      </trkpt>
      <trkpt lat="42.641634" lon="0.653465">
        <ele>2962.8</ele>
        <time>1970-01-01T06:42:37.000Z</time>
      </trkpt>
      <trkpt lat="42.641641" lon="0.653457">
        <ele>2962.5</ele>
        <time>1970-01-01T06:42:38.000Z</time>
      </trkpt>
      <trkpt lat="42.641647" lon="0.653448">
        <ele>2962.3</ele>
        <time>1970-01-01T06:42:39.000Z</time>
      </trkpt>
      <trkpt lat="42.641653" lon="0.653438">
        <ele>2961.9</ele>
        <time>1970-01-01T06:42:41.000Z</time>
      </trkpt>
      <trkpt lat="42.641662" lon="0.653429">
        <ele>2961.6</ele>
        <time>1970-01-01T06:42:42.000Z</time>
      </trkpt>
      <trkpt lat="42.641672" lon="0.653421">
        <ele>2961.2</ele>
        <time>1970-01-01T06:42:43.000Z</time>
      </trkpt>
      <trkpt lat="42.641679" lon="0.653415">
        <ele>2960.9</ele>
        <time>1970-01-01T06:42:44.000Z</time>
      </trkpt>
      <trkpt lat="42.641687" lon="0.653408">
        <ele>2960.5</ele>
        <time>1970-01-01T06:42:45.000Z</time>
      </trkpt>
      <trkpt lat="42.641695" lon="0.653403">
        <ele>2960.2</ele>
        <time>1970-01-01T06:42:46.000Z</time>
      </trkpt>
      <trkpt lat="42.641703" lon="0.653398">
        <ele>2959.9</ele>
        <time>1970-01-01T06:42:47.000Z</time>
      </trkpt>
      <trkpt lat="42.641718" lon="0.653392">
        <ele>2959.3</ele>
        <time>1970-01-01T06:42:49.000Z</time>
      </trkpt>
      <trkpt lat="42.641729" lon="0.653388">
        <ele>2958.9</ele>
        <time>1970-01-01T06:42:50.000Z</time>
      </trkpt>
      <trkpt lat="42.64174" lon="0.653389">
        <ele>2958.5</ele>
        <time>1970-01-01T06:42:51.000Z</time>
      </trkpt>
      <trkpt lat="42.64175" lon="0.653391">
        <ele>2958.1</ele>
        <time>1970-01-01T06:42:52.000Z</time>
      </trkpt>
      <trkpt lat="42.641762" lon="0.653393">
        <ele>2957.6</ele>
        <time>1970-01-01T06:42:54.000Z</time>
      </trkpt>
      <trkpt lat="42.641773" lon="0.653398">
        <ele>2957.1</ele>
        <time>1970-01-01T06:42:55.000Z</time>
      </trkpt>
      <trkpt lat="42.641783" lon="0.653405">
        <ele>2956.6</ele>
        <time>1970-01-01T06:42:56.000Z</time>
      </trkpt>
      <trkpt lat="42.641793" lon="0.65341">
        <ele>2956.2</ele>
        <time>1970-01-01T06:42:57.000Z</time>
      </trkpt>
      <trkpt lat="42.641805" lon="0.653414">
        <ele>2955.6</ele>
        <time>1970-01-01T06:42:58.000Z</time>
      </trkpt>
      <trkpt lat="42.641814" lon="0.653414">
        <ele>2955.2</ele>
        <time>1970-01-01T06:42:59.000Z</time>
      </trkpt>
      <trkpt lat="42.641823" lon="0.653412">
        <ele>2954.8</ele>
        <time>1970-01-01T06:43:00.000Z</time>
      </trkpt>
      <trkpt lat="42.641833" lon="0.653411">
        <ele>2954.4</ele>
        <time>1970-01-01T06:43:01.000Z</time>
      </trkpt>
      <trkpt lat="42.641843" lon="0.653411">
        <ele>2953.9</ele>
        <time>1970-01-01T06:43:02.000Z</time>
      </trkpt>
      <trkpt lat="42.641856" lon="0.653412">
        <ele>2953.2</ele>
        <time>1970-01-01T06:43:04.000Z</time>
      </trkpt>
      <trkpt lat="42.641872" lon="0.653417">
        <ele>2952.4</ele>
        <time>1970-01-01T06:43:05.000Z</time>
      </trkpt>
      <trkpt lat="42.641888" lon="0.653416">
        <ele>2951.7</ele>
        <time>1970-01-01T06:43:06.000Z</time>
      </trkpt>
      <trkpt lat="42.641895" lon="0.653414">
        <ele>2951.3</ele>
        <time>1970-01-01T06:43:07.000Z</time>
      </trkpt>
      <trkpt lat="42.641901" lon="0.653411">
        <ele>2951</ele>
        <time>1970-01-01T06:43:08.000Z</time>
      </trkpt>
      <trkpt lat="42.641908" lon="0.653409">
        <ele>2950.7</ele>
        <time>1970-01-01T06:43:09.000Z</time>
      </trkpt>
      <trkpt lat="42.641922" lon="0.653408">
        <ele>2950</ele>
        <time>1970-01-01T06:43:11.000Z</time>
      </trkpt>
      <trkpt lat="42.641936" lon="0.653411">
        <ele>2949.3</ele>
        <time>1970-01-01T06:43:12.000Z</time>
      </trkpt>
      <trkpt lat="42.641944" lon="0.653415">
        <ele>2948.8</ele>
        <time>1970-01-01T06:43:13.000Z</time>
      </trkpt>
      <trkpt lat="42.641956" lon="0.65342">
        <ele>2948.2</ele>
        <time>1970-01-01T06:43:14.000Z</time>
      </trkpt>
      <trkpt lat="42.641972" lon="0.653424">
        <ele>2947.4</ele>
        <time>1970-01-01T06:43:16.000Z</time>
      </trkpt>
      <trkpt lat="42.641983" lon="0.653427">
        <ele>2946.8</ele>
        <time>1970-01-01T06:43:17.000Z</time>
      </trkpt>
      <trkpt lat="42.641994" lon="0.653432">
        <ele>2946.2</ele>
        <time>1970-01-01T06:43:18.000Z</time>
      </trkpt>
      <trkpt lat="42.642005" lon="0.653439">
        <ele>2945.6</ele>
        <time>1970-01-01T06:43:19.000Z</time>
      </trkpt>
      <trkpt lat="42.642017" lon="0.653451">
        <ele>2944.8</ele>
        <time>1970-01-01T06:43:21.000Z</time>
      </trkpt>
      <trkpt lat="42.642028" lon="0.653462">
        <ele>2944.1</ele>
        <time>1970-01-01T06:43:22.000Z</time>
      </trkpt>
      <trkpt lat="42.642037" lon="0.653471">
        <ele>2943.6</ele>
        <time>1970-01-01T06:43:24.000Z</time>
      </trkpt>
      <trkpt lat="42.642047" lon="0.653486">
        <ele>2942.8</ele>
        <time>1970-01-01T06:43:25.000Z</time>
      </trkpt>
      <trkpt lat="42.642051" lon="0.653499">
        <ele>2942.3</ele>
        <time>1970-01-01T06:43:26.000Z</time>
      </trkpt>
      <trkpt lat="42.642055" lon="0.653513">
        <ele>2941.8</ele>
        <time>1970-01-01T06:43:27.000Z</time>
      </trkpt>
      <trkpt lat="42.642062" lon="0.653525">
        <ele>2941.2</ele>
        <time>1970-01-01T06:43:28.000Z</time>
      </trkpt>
      <trkpt lat="42.64207" lon="0.653533">
        <ele>2940.8</ele>
        <time>1970-01-01T06:43:29.000Z</time>
      </trkpt>
      <trkpt lat="42.642077" lon="0.65354">
        <ele>2940.4</ele>
        <time>1970-01-01T06:43:30.000Z</time>
      </trkpt>
      <trkpt lat="42.642086" lon="0.653545">
        <ele>2939.9</ele>
        <time>1970-01-01T06:43:32.000Z</time>
      </trkpt>
      <trkpt lat="42.642093" lon="0.653547">
        <ele>2939.6</ele>
        <time>1970-01-01T06:43:33.000Z</time>
      </trkpt>
      <trkpt lat="42.642102" lon="0.653549">
        <ele>2939.2</ele>
        <time>1970-01-01T06:43:34.000Z</time>
      </trkpt>
      <trkpt lat="42.642108" lon="0.653549">
        <ele>2938.9</ele>
        <time>1970-01-01T06:43:35.000Z</time>
      </trkpt>
      <trkpt lat="42.642119" lon="0.653545">
        <ele>2938.4</ele>
        <time>1970-01-01T06:43:36.000Z</time>
      </trkpt>
      <trkpt lat="42.64213" lon="0.653536">
        <ele>2937.8</ele>
        <time>1970-01-01T06:43:37.000Z</time>
      </trkpt>
      <trkpt lat="42.642143" lon="0.653529">
        <ele>2937.1</ele>
        <time>1970-01-01T06:43:38.000Z</time>
      </trkpt>
      <trkpt lat="42.642155" lon="0.653527">
        <ele>2936.5</ele>
        <time>1970-01-01T06:43:39.000Z</time>
      </trkpt>
      <trkpt lat="42.642163" lon="0.653526">
        <ele>2936.2</ele>
        <time>1970-01-01T06:43:40.000Z</time>
      </trkpt>
      <trkpt lat="42.642173" lon="0.653528">
        <ele>2935.8</ele>
        <time>1970-01-01T06:43:41.000Z</time>
      </trkpt>
      <trkpt lat="42.642182" lon="0.653528">
        <ele>2935.5</ele>
        <time>1970-01-01T06:43:42.000Z</time>
      </trkpt>
      <trkpt lat="42.642202" lon="0.653517">
        <ele>2934.7</ele>
        <time>1970-01-01T06:43:44.000Z</time>
      </trkpt>
      <trkpt lat="42.642212" lon="0.653512">
        <ele>2934.4</ele>
        <time>1970-01-01T06:43:45.000Z</time>
      </trkpt>
      <trkpt lat="42.642222" lon="0.653511">
        <ele>2934</ele>
        <time>1970-01-01T06:43:46.000Z</time>
      </trkpt>
      <trkpt lat="42.642231" lon="0.653513">
        <ele>2933.7</ele>
        <time>1970-01-01T06:43:48.000Z</time>
      </trkpt>
      <trkpt lat="42.642242" lon="0.653513">
        <ele>2933.3</ele>
        <time>1970-01-01T06:43:49.000Z</time>
      </trkpt>
      <trkpt lat="42.642252" lon="0.653513">
        <ele>2932.9</ele>
        <time>1970-01-01T06:43:50.000Z</time>
      </trkpt>
      <trkpt lat="42.642263" lon="0.65351">
        <ele>2932.5</ele>
        <time>1970-01-01T06:43:51.000Z</time>
      </trkpt>
      <trkpt lat="42.642273" lon="0.653507">
        <ele>2932.1</ele>
        <time>1970-01-01T06:43:52.000Z</time>
      </trkpt>
      <trkpt lat="42.642283" lon="0.653502">
        <ele>2931.7</ele>
        <time>1970-01-01T06:43:54.000Z</time>
      </trkpt>
      <trkpt lat="42.642292" lon="0.6535">
        <ele>2931.4</ele>
        <time>1970-01-01T06:43:55.000Z</time>
      </trkpt>
      <trkpt lat="42.642299" lon="0.653506">
        <ele>2931.1</ele>
        <time>1970-01-01T06:43:56.000Z</time>
      </trkpt>
      <trkpt lat="42.642304" lon="0.653514">
        <ele>2930.8</ele>
        <time>1970-01-01T06:43:57.000Z</time>
      </trkpt>
      <trkpt lat="42.642311" lon="0.653518">
        <ele>2930.5</ele>
        <time>1970-01-01T06:43:58.000Z</time>
      </trkpt>
      <trkpt lat="42.642316" lon="0.653521">
        <ele>2930.3</ele>
        <time>1970-01-01T06:43:59.000Z</time>
      </trkpt>
      <trkpt lat="42.642324" lon="0.653519">
        <ele>2930</ele>
        <time>1970-01-01T06:44:00.000Z</time>
      </trkpt>
      <trkpt lat="42.642331" lon="0.653512">
        <ele>2929.7</ele>
        <time>1970-01-01T06:44:01.000Z</time>
      </trkpt>
      <trkpt lat="42.642337" lon="0.653501">
        <ele>2929.3</ele>
        <time>1970-01-01T06:44:02.000Z</time>
      </trkpt>
      <trkpt lat="42.642346" lon="0.653486">
        <ele>2928.8</ele>
        <time>1970-01-01T06:44:04.000Z</time>
      </trkpt>
      <trkpt lat="42.64236" lon="0.65348">
        <ele>2928.3</ele>
        <time>1970-01-01T06:44:05.000Z</time>
      </trkpt>
      <trkpt lat="42.642367" lon="0.653479">
        <ele>2928</ele>
        <time>1970-01-01T06:44:06.000Z</time>
      </trkpt>
      <trkpt lat="42.642374" lon="0.653479">
        <ele>2927.7</ele>
        <time>1970-01-01T06:44:07.000Z</time>
      </trkpt>
      <trkpt lat="42.642381" lon="0.653478">
        <ele>2927.5</ele>
        <time>1970-01-01T06:44:08.000Z</time>
      </trkpt>
      <trkpt lat="42.64239" lon="0.653481">
        <ele>2927.1</ele>
        <time>1970-01-01T06:44:09.000Z</time>
      </trkpt>
      <trkpt lat="42.642399" lon="0.65348">
        <ele>2926.8</ele>
        <time>1970-01-01T06:44:10.000Z</time>
      </trkpt>
      <trkpt lat="42.642407" lon="0.653478">
        <ele>2926.5</ele>
        <time>1970-01-01T06:44:11.000Z</time>
      </trkpt>
      <trkpt lat="42.642418" lon="0.653477">
        <ele>2926.1</ele>
        <time>1970-01-01T06:44:13.000Z</time>
      </trkpt>
      <trkpt lat="42.642425" lon="0.653483">
        <ele>2925.8</ele>
        <time>1970-01-01T06:44:14.000Z</time>
      </trkpt>
      <trkpt lat="42.642434" lon="0.65349">
        <ele>2925.4</ele>
        <time>1970-01-01T06:44:15.000Z</time>
      </trkpt>
      <trkpt lat="42.642444" lon="0.653493">
        <ele>2925</ele>
        <time>1970-01-01T06:44:16.000Z</time>
      </trkpt>
      <trkpt lat="42.642452" lon="0.653492">
        <ele>2924.7</ele>
        <time>1970-01-01T06:44:17.000Z</time>
      </trkpt>
      <trkpt lat="42.64246" lon="0.653489">
        <ele>2924.4</ele>
        <time>1970-01-01T06:44:18.000Z</time>
      </trkpt>
      <trkpt lat="42.64247" lon="0.653486">
        <ele>2924.1</ele>
        <time>1970-01-01T06:44:19.000Z</time>
      </trkpt>
      <trkpt lat="42.642488" lon="0.653484">
        <ele>2923.4</ele>
        <time>1970-01-01T06:44:21.000Z</time>
      </trkpt>
      <trkpt lat="42.642501" lon="0.653482">
        <ele>2922.9</ele>
        <time>1970-01-01T06:44:22.000Z</time>
      </trkpt>
      <trkpt lat="42.642514" lon="0.653482">
        <ele>2922.5</ele>
        <time>1970-01-01T06:44:23.000Z</time>
      </trkpt>
      <trkpt lat="42.642524" lon="0.653488">
        <ele>2922.1</ele>
        <time>1970-01-01T06:44:24.000Z</time>
      </trkpt>
      <trkpt lat="42.642535" lon="0.653495">
        <ele>2921.6</ele>
        <time>1970-01-01T06:44:25.000Z</time>
      </trkpt>
      <trkpt lat="42.642544" lon="0.6535">
        <ele>2921.3</ele>
        <time>1970-01-01T06:44:26.000Z</time>
      </trkpt>
      <trkpt lat="42.642552" lon="0.653503">
        <ele>2921</ele>
        <time>1970-01-01T06:44:27.000Z</time>
      </trkpt>
      <trkpt lat="42.642565" lon="0.653507">
        <ele>2920.5</ele>
        <time>1970-01-01T06:44:28.000Z</time>
      </trkpt>
      <trkpt lat="42.642578" lon="0.65351">
        <ele>2920.1</ele>
        <time>1970-01-01T06:44:30.000Z</time>
      </trkpt>
      <trkpt lat="42.64259" lon="0.653511">
        <ele>2919.6</ele>
        <time>1970-01-01T06:44:31.000Z</time>
      </trkpt>
      <trkpt lat="42.6426" lon="0.653512">
        <ele>2919.3</ele>
        <time>1970-01-01T06:44:32.000Z</time>
      </trkpt>
      <trkpt lat="42.64262" lon="0.653512">
        <ele>2918.6</ele>
        <time>1970-01-01T06:44:33.000Z</time>
      </trkpt>
      <trkpt lat="42.642628" lon="0.653512">
        <ele>2918.3</ele>
        <time>1970-01-01T06:44:34.000Z</time>
      </trkpt>
      <trkpt lat="42.642637" lon="0.653511">
        <ele>2918</ele>
        <time>1970-01-01T06:44:35.000Z</time>
      </trkpt>
      <trkpt lat="42.642648" lon="0.653514">
        <ele>2917.6</ele>
        <time>1970-01-01T06:44:36.000Z</time>
      </trkpt>
      <trkpt lat="42.642657" lon="0.653517">
        <ele>2917.3</ele>
        <time>1970-01-01T06:44:37.000Z</time>
      </trkpt>
      <trkpt lat="42.642671" lon="0.653522">
        <ele>2916.8</ele>
        <time>1970-01-01T06:44:39.000Z</time>
      </trkpt>
      <trkpt lat="42.642685" lon="0.65353">
        <ele>2916.3</ele>
        <time>1970-01-01T06:44:40.000Z</time>
      </trkpt>
      <trkpt lat="42.642693" lon="0.653535">
        <ele>2916.1</ele>
        <time>1970-01-01T06:44:41.000Z</time>
      </trkpt>
      <trkpt lat="42.642704" lon="0.653539">
        <ele>2915.7</ele>
        <time>1970-01-01T06:44:42.000Z</time>
      </trkpt>
      <trkpt lat="42.642722" lon="0.653547">
        <ele>2915.1</ele>
        <time>1970-01-01T06:44:43.000Z</time>
      </trkpt>
      <trkpt lat="42.642731" lon="0.653553">
        <ele>2914.8</ele>
        <time>1970-01-01T06:44:44.000Z</time>
      </trkpt>
      <trkpt lat="42.642739" lon="0.653559">
        <ele>2914.5</ele>
        <time>1970-01-01T06:44:45.000Z</time>
      </trkpt>
      <trkpt lat="42.642755" lon="0.653565">
        <ele>2913.9</ele>
        <time>1970-01-01T06:44:47.000Z</time>
      </trkpt>
      <trkpt lat="42.642767" lon="0.653564">
        <ele>2913.6</ele>
        <time>1970-01-01T06:44:48.000Z</time>
      </trkpt>
      <trkpt lat="42.642783" lon="0.653563">
        <ele>2913.1</ele>
        <time>1970-01-01T06:44:49.000Z</time>
      </trkpt>
      <trkpt lat="42.642796" lon="0.653562">
        <ele>2912.7</ele>
        <time>1970-01-01T06:44:50.000Z</time>
      </trkpt>
      <trkpt lat="42.642807" lon="0.653561">
        <ele>2912.3</ele>
        <time>1970-01-01T06:44:51.000Z</time>
      </trkpt>
      <trkpt lat="42.642819" lon="0.653563">
        <ele>2912</ele>
        <time>1970-01-01T06:44:52.000Z</time>
      </trkpt>
      <trkpt lat="42.642831" lon="0.653568">
        <ele>2911.6</ele>
        <time>1970-01-01T06:44:53.000Z</time>
      </trkpt>
      <trkpt lat="42.642839" lon="0.653573">
        <ele>2911.3</ele>
        <time>1970-01-01T06:44:54.000Z</time>
      </trkpt>
      <trkpt lat="42.642848" lon="0.653581">
        <ele>2911</ele>
        <time>1970-01-01T06:44:55.000Z</time>
      </trkpt>
      <trkpt lat="42.642852" lon="0.653592">
        <ele>2910.7</ele>
        <time>1970-01-01T06:44:56.000Z</time>
      </trkpt>
      <trkpt lat="42.642857" lon="0.653607">
        <ele>2910.4</ele>
        <time>1970-01-01T06:44:58.000Z</time>
      </trkpt>
      <trkpt lat="42.64286" lon="0.653621">
        <ele>2910.1</ele>
        <time>1970-01-01T06:44:59.000Z</time>
      </trkpt>
      <trkpt lat="42.642863" lon="0.653634">
        <ele>2909.8</ele>
        <time>1970-01-01T06:45:00.000Z</time>
      </trkpt>
      <trkpt lat="42.642863" lon="0.653647">
        <ele>2909.5</ele>
        <time>1970-01-01T06:45:01.000Z</time>
      </trkpt>
      <trkpt lat="42.642862" lon="0.65366">
        <ele>2909.2</ele>
        <time>1970-01-01T06:45:03.000Z</time>
      </trkpt>
      <trkpt lat="42.642855" lon="0.653674">
        <ele>2908.9</ele>
        <time>1970-01-01T06:45:04.000Z</time>
      </trkpt>
      <trkpt lat="42.642848" lon="0.65369">
        <ele>2908.5</ele>
        <time>1970-01-01T06:45:06.000Z</time>
      </trkpt>
      <trkpt lat="42.642845" lon="0.653703">
        <ele>2908.1</ele>
        <time>1970-01-01T06:45:07.000Z</time>
      </trkpt>
      <trkpt lat="42.642844" lon="0.653715">
        <ele>2907.8</ele>
        <time>1970-01-01T06:45:08.000Z</time>
      </trkpt>
      <trkpt lat="42.642844" lon="0.653727">
        <ele>2907.5</ele>
        <time>1970-01-01T06:45:09.000Z</time>
      </trkpt>
      <trkpt lat="42.642847" lon="0.653738">
        <ele>2907.2</ele>
        <time>1970-01-01T06:45:10.000Z</time>
      </trkpt>
      <trkpt lat="42.642854" lon="0.653746">
        <ele>2906.9</ele>
        <time>1970-01-01T06:45:11.000Z</time>
      </trkpt>
      <trkpt lat="42.642865" lon="0.653759">
        <ele>2906.5</ele>
        <time>1970-01-01T06:45:13.000Z</time>
      </trkpt>
      <trkpt lat="42.642869" lon="0.653767">
        <ele>2906.2</ele>
        <time>1970-01-01T06:45:14.000Z</time>
      </trkpt>
      <trkpt lat="42.642871" lon="0.653777">
        <ele>2906</ele>
        <time>1970-01-01T06:45:15.000Z</time>
      </trkpt>
      <trkpt lat="42.642872" lon="0.653789">
        <ele>2905.7</ele>
        <time>1970-01-01T06:45:16.000Z</time>
      </trkpt>
      <trkpt lat="42.642872" lon="0.653798">
        <ele>2905.4</ele>
        <time>1970-01-01T06:45:17.000Z</time>
      </trkpt>
      <trkpt lat="42.642872" lon="0.653816">
        <ele>2905</ele>
        <time>1970-01-01T06:45:19.000Z</time>
      </trkpt>
      <trkpt lat="42.642874" lon="0.653826">
        <ele>2904.7</ele>
        <time>1970-01-01T06:45:20.000Z</time>
      </trkpt>
      <trkpt lat="42.642876" lon="0.653834">
        <ele>2904.5</ele>
        <time>1970-01-01T06:45:21.000Z</time>
      </trkpt>
      <trkpt lat="42.642878" lon="0.653844">
        <ele>2904.2</ele>
        <time>1970-01-01T06:45:22.000Z</time>
      </trkpt>
      <trkpt lat="42.642885" lon="0.65386">
        <ele>2903.7</ele>
        <time>1970-01-01T06:45:23.000Z</time>
      </trkpt>
      <trkpt lat="42.642887" lon="0.653876">
        <ele>2903.4</ele>
        <time>1970-01-01T06:45:24.000Z</time>
      </trkpt>
      <trkpt lat="42.642886" lon="0.653894">
        <ele>2902.9</ele>
        <time>1970-01-01T06:45:26.000Z</time>
      </trkpt>
      <trkpt lat="42.642888" lon="0.653907">
        <ele>2902.6</ele>
        <time>1970-01-01T06:45:27.000Z</time>
      </trkpt>
      <trkpt lat="42.642896" lon="0.653915">
        <ele>2902.2</ele>
        <time>1970-01-01T06:45:28.000Z</time>
      </trkpt>
      <trkpt lat="42.642902" lon="0.653923">
        <ele>2901.9</ele>
        <time>1970-01-01T06:45:29.000Z</time>
      </trkpt>
      <trkpt lat="42.642909" lon="0.653932">
        <ele>2901.5</ele>
        <time>1970-01-01T06:45:30.000Z</time>
      </trkpt>
      <trkpt lat="42.642915" lon="0.653941">
        <ele>2901.2</ele>
        <time>1970-01-01T06:45:31.000Z</time>
      </trkpt>
      <trkpt lat="42.642918" lon="0.653948">
        <ele>2900.9</ele>
        <time>1970-01-01T06:45:32.000Z</time>
      </trkpt>
      <trkpt lat="42.64292" lon="0.653956">
        <ele>2900.7</ele>
        <time>1970-01-01T06:45:33.000Z</time>
      </trkpt>
      <trkpt lat="42.642923" lon="0.653966">
        <ele>2900.4</ele>
        <time>1970-01-01T06:45:34.000Z</time>
      </trkpt>
      <trkpt lat="42.642927" lon="0.653974">
        <ele>2900.1</ele>
        <time>1970-01-01T06:45:35.000Z</time>
      </trkpt>
      <trkpt lat="42.642932" lon="0.653985">
        <ele>2899.7</ele>
        <time>1970-01-01T06:45:36.000Z</time>
      </trkpt>
      <trkpt lat="42.642941" lon="0.654">
        <ele>2899.2</ele>
        <time>1970-01-01T06:45:38.000Z</time>
      </trkpt>
      <trkpt lat="42.642944" lon="0.654009">
        <ele>2898.9</ele>
        <time>1970-01-01T06:45:39.000Z</time>
      </trkpt>
      <trkpt lat="42.642947" lon="0.65402">
        <ele>2898.6</ele>
        <time>1970-01-01T06:45:40.000Z</time>
      </trkpt>
      <trkpt lat="42.642953" lon="0.654037">
        <ele>2898</ele>
        <time>1970-01-01T06:45:42.000Z</time>
      </trkpt>
      <trkpt lat="42.642955" lon="0.654049">
        <ele>2897.6</ele>
        <time>1970-01-01T06:45:43.000Z</time>
      </trkpt>
      <trkpt lat="42.642959" lon="0.654056">
        <ele>2897.4</ele>
        <time>1970-01-01T06:45:44.000Z</time>
      </trkpt>
      <trkpt lat="42.642966" lon="0.654064">
        <ele>2897</ele>
        <time>1970-01-01T06:45:46.000Z</time>
      </trkpt>
      <trkpt lat="42.642975" lon="0.654072">
        <ele>2896.5</ele>
        <time>1970-01-01T06:45:47.000Z</time>
      </trkpt>
      <trkpt lat="42.642983" lon="0.654078">
        <ele>2896.2</ele>
        <time>1970-01-01T06:45:48.000Z</time>
      </trkpt>
      <trkpt lat="42.64299" lon="0.654085">
        <ele>2895.8</ele>
        <time>1970-01-01T06:45:49.000Z</time>
      </trkpt>
      <trkpt lat="42.642994" lon="0.654092">
        <ele>2895.5</ele>
        <time>1970-01-01T06:45:50.000Z</time>
      </trkpt>
      <trkpt lat="42.642994" lon="0.654101">
        <ele>2895.2</ele>
        <time>1970-01-01T06:45:51.000Z</time>
      </trkpt>
      <trkpt lat="42.642995" lon="0.654112">
        <ele>2894.9</ele>
        <time>1970-01-01T06:45:52.000Z</time>
      </trkpt>
      <trkpt lat="42.642999" lon="0.654126">
        <ele>2894.4</ele>
        <time>1970-01-01T06:45:54.000Z</time>
      </trkpt>
      <trkpt lat="42.643004" lon="0.654128">
        <ele>2894.1</ele>
        <time>1970-01-01T06:45:55.000Z</time>
      </trkpt>
      <trkpt lat="42.64301" lon="0.654127">
        <ele>2893.8</ele>
        <time>1970-01-01T06:45:56.000Z</time>
      </trkpt>
      <trkpt lat="42.643018" lon="0.654133">
        <ele>2893.4</ele>
        <time>1970-01-01T06:45:58.000Z</time>
      </trkpt>
      <trkpt lat="42.643023" lon="0.654136">
        <ele>2893.2</ele>
        <time>1970-01-01T06:45:59.000Z</time>
      </trkpt>
      <trkpt lat="42.643028" lon="0.654141">
        <ele>2892.9</ele>
        <time>1970-01-01T06:46:00.000Z</time>
      </trkpt>
      <trkpt lat="42.643033" lon="0.654143">
        <ele>2892.6</ele>
        <time>1970-01-01T06:46:01.000Z</time>
      </trkpt>
      <trkpt lat="42.64304" lon="0.654148">
        <ele>2892.3</ele>
        <time>1970-01-01T06:46:03.000Z</time>
      </trkpt>
      <trkpt lat="42.643046" lon="0.65415">
        <ele>2892</ele>
        <time>1970-01-01T06:46:04.000Z</time>
      </trkpt>
      <trkpt lat="42.643055" lon="0.654154">
        <ele>2891.5</ele>
        <time>1970-01-01T06:46:06.000Z</time>
      </trkpt>
      <trkpt lat="42.64306" lon="0.654156">
        <ele>2891.2</ele>
        <time>1970-01-01T06:46:07.000Z</time>
      </trkpt>
      <trkpt lat="42.643066" lon="0.654159">
        <ele>2890.9</ele>
        <time>1970-01-01T06:46:08.000Z</time>
      </trkpt>
      <trkpt lat="42.643071" lon="0.654162">
        <ele>2890.7</ele>
        <time>1970-01-01T06:46:09.000Z</time>
      </trkpt>
      <trkpt lat="42.643081" lon="0.654165">
        <ele>2890.2</ele>
        <time>1970-01-01T06:46:11.000Z</time>
      </trkpt>
      <trkpt lat="42.643083" lon="0.654162">
        <ele>2890.1</ele>
        <time>1970-01-01T06:46:12.000Z</time>
      </trkpt>
      <trkpt lat="42.643085" lon="0.65416">
        <ele>2889.9</ele>
        <time>1970-01-01T06:46:13.000Z</time>
      </trkpt>
      <trkpt lat="42.643093" lon="0.654161">
        <ele>2889.5</ele>
        <time>1970-01-01T06:46:14.000Z</time>
      </trkpt>
      <trkpt lat="42.643104" lon="0.654163">
        <ele>2889</ele>
        <time>1970-01-01T06:46:15.000Z</time>
      </trkpt>
      <trkpt lat="42.643114" lon="0.654167">
        <ele>2888.5</ele>
        <time>1970-01-01T06:46:16.000Z</time>
      </trkpt>
      <trkpt lat="42.643131" lon="0.654174">
        <ele>2887.8</ele>
        <time>1970-01-01T06:46:17.000Z</time>
      </trkpt>
      <trkpt lat="42.643145" lon="0.654179">
        <ele>2887.1</ele>
        <time>1970-01-01T06:46:19.000Z</time>
      </trkpt>
      <trkpt lat="42.643153" lon="0.654183">
        <ele>2886.7</ele>
        <time>1970-01-01T06:46:20.000Z</time>
      </trkpt>
      <trkpt lat="42.643164" lon="0.654189">
        <ele>2886.2</ele>
        <time>1970-01-01T06:46:21.000Z</time>
      </trkpt>
      <trkpt lat="42.643172" lon="0.654196">
        <ele>2885.7</ele>
        <time>1970-01-01T06:46:22.000Z</time>
      </trkpt>
      <trkpt lat="42.643179" lon="0.654204">
        <ele>2885.3</ele>
        <time>1970-01-01T06:46:23.000Z</time>
      </trkpt>
      <trkpt lat="42.643187" lon="0.654214">
        <ele>2884.7</ele>
        <time>1970-01-01T06:46:24.000Z</time>
      </trkpt>
      <trkpt lat="42.643198" lon="0.654224">
        <ele>2884.1</ele>
        <time>1970-01-01T06:46:26.000Z</time>
      </trkpt>
      <trkpt lat="42.643204" lon="0.65423">
        <ele>2883.8</ele>
        <time>1970-01-01T06:46:27.000Z</time>
      </trkpt>
      <trkpt lat="42.643208" lon="0.654236">
        <ele>2883.5</ele>
        <time>1970-01-01T06:46:28.000Z</time>
      </trkpt>
      <trkpt lat="42.643211" lon="0.654243">
        <ele>2883</ele>
        <time>1970-01-01T06:46:29.000Z</time>
      </trkpt>
      <trkpt lat="42.643214" lon="0.654251">
        <ele>2882.3</ele>
        <time>1970-01-01T06:46:30.000Z</time>
      </trkpt>
      <trkpt lat="42.643219" lon="0.654259">
        <ele>2882</ele>
        <time>1970-01-01T06:46:31.000Z</time>
      </trkpt>
      <trkpt lat="42.643223" lon="0.654266">
        <ele>2881.7</ele>
        <time>1970-01-01T06:46:32.000Z</time>
      </trkpt>
      <trkpt lat="42.643226" lon="0.654273">
        <ele>2881.5</ele>
        <time>1970-01-01T06:46:33.000Z</time>
      </trkpt>
      <trkpt lat="42.643229" lon="0.65428">
        <ele>2881.2</ele>
        <time>1970-01-01T06:46:34.000Z</time>
      </trkpt>
      <trkpt lat="42.643233" lon="0.654286">
        <ele>2880.9</ele>
        <time>1970-01-01T06:46:35.000Z</time>
      </trkpt>
      <trkpt lat="42.643236" lon="0.654294">
        <ele>2880.2</ele>
        <time>1970-01-01T06:46:36.000Z</time>
      </trkpt>
      <trkpt lat="42.643238" lon="0.6543">
        <ele>2880</ele>
        <time>1970-01-01T06:46:37.000Z</time>
      </trkpt>
      <trkpt lat="42.643242" lon="0.654309">
        <ele>2879.6</ele>
        <time>1970-01-01T06:46:38.000Z</time>
      </trkpt>
      <trkpt lat="42.643245" lon="0.654318">
        <ele>2879.2</ele>
        <time>1970-01-01T06:46:39.000Z</time>
      </trkpt>
      <trkpt lat="42.643249" lon="0.654329">
        <ele>2878.8</ele>
        <time>1970-01-01T06:46:40.000Z</time>
      </trkpt>
      <trkpt lat="42.643251" lon="0.654339">
        <ele>2878.2</ele>
        <time>1970-01-01T06:46:41.000Z</time>
      </trkpt>
      <trkpt lat="42.643254" lon="0.654349">
        <ele>2877.9</ele>
        <time>1970-01-01T06:46:42.000Z</time>
      </trkpt>
      <trkpt lat="42.64326" lon="0.654365">
        <ele>2877.4</ele>
        <time>1970-01-01T06:46:44.000Z</time>
      </trkpt>
      <trkpt lat="42.643263" lon="0.654375">
        <ele>2876.7</ele>
        <time>1970-01-01T06:46:45.000Z</time>
      </trkpt>
      <trkpt lat="42.643262" lon="0.654385">
        <ele>2876.4</ele>
        <time>1970-01-01T06:46:46.000Z</time>
      </trkpt>
      <trkpt lat="42.643259" lon="0.654395">
        <ele>2876.1</ele>
        <time>1970-01-01T06:46:47.000Z</time>
      </trkpt>
      <trkpt lat="42.643253" lon="0.654401">
        <ele>2875.7</ele>
        <time>1970-01-01T06:46:48.000Z</time>
      </trkpt>
      <trkpt lat="42.643244" lon="0.654416">
        <ele>2875.1</ele>
        <time>1970-01-01T06:46:50.000Z</time>
      </trkpt>
      <trkpt lat="42.643239" lon="0.654424">
        <ele>2874.8</ele>
        <time>1970-01-01T06:46:51.000Z</time>
      </trkpt>
      <trkpt lat="42.643233" lon="0.654436">
        <ele>2874.3</ele>
        <time>1970-01-01T06:46:52.000Z</time>
      </trkpt>
      <trkpt lat="42.643229" lon="0.654445">
        <ele>2873.9</ele>
        <time>1970-01-01T06:46:53.000Z</time>
      </trkpt>
      <trkpt lat="42.643225" lon="0.654451">
        <ele>2873.7</ele>
        <time>1970-01-01T06:46:54.000Z</time>
      </trkpt>
      <trkpt lat="42.643224" lon="0.65446">
        <ele>2873.2</ele>
        <time>1970-01-01T06:46:55.000Z</time>
      </trkpt>
      <trkpt lat="42.643225" lon="0.654469">
        <ele>2872.9</ele>
        <time>1970-01-01T06:46:56.000Z</time>
      </trkpt>
      <trkpt lat="42.643229" lon="0.654478">
        <ele>2872.6</ele>
        <time>1970-01-01T06:46:57.000Z</time>
      </trkpt>
      <trkpt lat="42.643233" lon="0.654485">
        <ele>2872.2</ele>
        <time>1970-01-01T06:46:58.000Z</time>
      </trkpt>
      <trkpt lat="42.643244" lon="0.6545">
        <ele>2871.6</ele>
        <time>1970-01-01T06:47:00.000Z</time>
      </trkpt>
      <trkpt lat="42.643249" lon="0.654509">
        <ele>2871.2</ele>
        <time>1970-01-01T06:47:01.000Z</time>
      </trkpt>
      <trkpt lat="42.643253" lon="0.654518">
        <ele>2870.8</ele>
        <time>1970-01-01T06:47:02.000Z</time>
      </trkpt>
      <trkpt lat="42.643259" lon="0.654527">
        <ele>2870.5</ele>
        <time>1970-01-01T06:47:03.000Z</time>
      </trkpt>
      <trkpt lat="42.643264" lon="0.654535">
        <ele>2870.2</ele>
        <time>1970-01-01T06:47:04.000Z</time>
      </trkpt>
      <trkpt lat="42.64327" lon="0.654544">
        <ele>2869.8</ele>
        <time>1970-01-01T06:47:05.000Z</time>
      </trkpt>
      <trkpt lat="42.64328" lon="0.654554">
        <ele>2869.3</ele>
        <time>1970-01-01T06:47:06.000Z</time>
      </trkpt>
      <trkpt lat="42.643294" lon="0.654565">
        <ele>2868.7</ele>
        <time>1970-01-01T06:47:08.000Z</time>
      </trkpt>
      <trkpt lat="42.643304" lon="0.654572">
        <ele>2868.2</ele>
        <time>1970-01-01T06:47:09.000Z</time>
      </trkpt>
      <trkpt lat="42.643314" lon="0.654581">
        <ele>2867.7</ele>
        <time>1970-01-01T06:47:10.000Z</time>
      </trkpt>
      <trkpt lat="42.643324" lon="0.654591">
        <ele>2867.2</ele>
        <time>1970-01-01T06:47:11.000Z</time>
      </trkpt>
      <trkpt lat="42.643333" lon="0.654601">
        <ele>2866.8</ele>
        <time>1970-01-01T06:47:12.000Z</time>
      </trkpt>
      <trkpt lat="42.643342" lon="0.654611">
        <ele>2866.3</ele>
        <time>1970-01-01T06:47:13.000Z</time>
      </trkpt>
      <trkpt lat="42.643351" lon="0.65462">
        <ele>2865.9</ele>
        <time>1970-01-01T06:47:15.000Z</time>
      </trkpt>
      <trkpt lat="42.643358" lon="0.65463">
        <ele>2865.5</ele>
        <time>1970-01-01T06:47:16.000Z</time>
      </trkpt>
      <trkpt lat="42.643365" lon="0.654642">
        <ele>2865.1</ele>
        <time>1970-01-01T06:47:17.000Z</time>
      </trkpt>
      <trkpt lat="42.643373" lon="0.654651">
        <ele>2864.7</ele>
        <time>1970-01-01T06:47:18.000Z</time>
      </trkpt>
      <trkpt lat="42.643383" lon="0.654654">
        <ele>2864.3</ele>
        <time>1970-01-01T06:47:19.000Z</time>
      </trkpt>
      <trkpt lat="42.643393" lon="0.654655">
        <ele>2863.9</ele>
        <time>1970-01-01T06:47:20.000Z</time>
      </trkpt>
      <trkpt lat="42.643402" lon="0.654657">
        <ele>2863.5</ele>
        <time>1970-01-01T06:47:21.000Z</time>
      </trkpt>
      <trkpt lat="42.643418" lon="0.65466">
        <ele>2862.9</ele>
        <time>1970-01-01T06:47:22.000Z</time>
      </trkpt>
      <trkpt lat="42.643434" lon="0.654662">
        <ele>2862.4</ele>
        <time>1970-01-01T06:47:24.000Z</time>
      </trkpt>
      <trkpt lat="42.643449" lon="0.654665">
        <ele>2861.8</ele>
        <time>1970-01-01T06:47:25.000Z</time>
      </trkpt>
      <trkpt lat="42.643461" lon="0.65467">
        <ele>2861.4</ele>
        <time>1970-01-01T06:47:26.000Z</time>
      </trkpt>
      <trkpt lat="42.643473" lon="0.654676">
        <ele>2860.9</ele>
        <time>1970-01-01T06:47:28.000Z</time>
      </trkpt>
      <trkpt lat="42.643484" lon="0.654681">
        <ele>2860.5</ele>
        <time>1970-01-01T06:47:29.000Z</time>
      </trkpt>
      <trkpt lat="42.643493" lon="0.654686">
        <ele>2860.1</ele>
        <time>1970-01-01T06:47:30.000Z</time>
      </trkpt>
      <trkpt lat="42.643503" lon="0.654691">
        <ele>2859.8</ele>
        <time>1970-01-01T06:47:31.000Z</time>
      </trkpt>
      <trkpt lat="42.643515" lon="0.654696">
        <ele>2859.3</ele>
        <time>1970-01-01T06:47:32.000Z</time>
      </trkpt>
      <trkpt lat="42.643522" lon="0.654704">
        <ele>2859</ele>
        <time>1970-01-01T06:47:34.000Z</time>
      </trkpt>
      <trkpt lat="42.643528" lon="0.654711">
        <ele>2858.7</ele>
        <time>1970-01-01T06:47:35.000Z</time>
      </trkpt>
      <trkpt lat="42.643531" lon="0.654715">
        <ele>2858.5</ele>
        <time>1970-01-01T06:47:36.000Z</time>
      </trkpt>
      <trkpt lat="42.643534" lon="0.654722">
        <ele>2858.3</ele>
        <time>1970-01-01T06:47:37.000Z</time>
      </trkpt>
      <trkpt lat="42.643533" lon="0.654731">
        <ele>2858.1</ele>
        <time>1970-01-01T06:47:38.000Z</time>
      </trkpt>
      <trkpt lat="42.643533" lon="0.654739">
        <ele>2857.9</ele>
        <time>1970-01-01T06:47:39.000Z</time>
      </trkpt>
      <trkpt lat="42.643534" lon="0.654748">
        <ele>2857.6</ele>
        <time>1970-01-01T06:47:40.000Z</time>
      </trkpt>
      <trkpt lat="42.643534" lon="0.654755">
        <ele>2857.5</ele>
        <time>1970-01-01T06:47:41.000Z</time>
      </trkpt>
      <trkpt lat="42.643535" lon="0.654759">
        <ele>2857.3</ele>
        <time>1970-01-01T06:47:42.000Z</time>
      </trkpt>
      <trkpt lat="42.643536" lon="0.654762">
        <ele>2857.3</ele>
        <time>1970-01-01T06:47:43.000Z</time>
      </trkpt>
      <trkpt lat="42.643539" lon="0.654764">
        <ele>2857.1</ele>
        <time>1970-01-01T06:47:44.000Z</time>
      </trkpt>
      <trkpt lat="42.643543" lon="0.654762">
        <ele>2857</ele>
        <time>1970-01-01T06:47:45.000Z</time>
      </trkpt>
      <trkpt lat="42.643548" lon="0.654758">
        <ele>2856.8</ele>
        <time>1970-01-01T06:47:46.000Z</time>
      </trkpt>
      <trkpt lat="42.643552" lon="0.654755">
        <ele>2856.6</ele>
        <time>1970-01-01T06:47:47.000Z</time>
      </trkpt>
      <trkpt lat="42.643554" lon="0.654753">
        <ele>2856.5</ele>
        <time>1970-01-01T06:47:48.000Z</time>
      </trkpt>
      <trkpt lat="42.643554" lon="0.654753">
        <ele>2856.5</ele>
        <time>1970-01-01T06:47:49.000Z</time>
      </trkpt>
      <trkpt lat="42.643557" lon="0.654755">
        <ele>2856.4</ele>
        <time>1970-01-01T06:47:50.000Z</time>
      </trkpt>
      <trkpt lat="42.64356" lon="0.654756">
        <ele>2856.3</ele>
        <time>1970-01-01T06:47:51.000Z</time>
      </trkpt>
      <trkpt lat="42.643563" lon="0.654756">
        <ele>2856.2</ele>
        <time>1970-01-01T06:47:52.000Z</time>
      </trkpt>
      <trkpt lat="42.643566" lon="0.654755">
        <ele>2856.1</ele>
        <time>1970-01-01T06:47:53.000Z</time>
      </trkpt>
      <trkpt lat="42.64357" lon="0.654754">
        <ele>2855.9</ele>
        <time>1970-01-01T06:47:54.000Z</time>
      </trkpt>
      <trkpt lat="42.643574" lon="0.654752">
        <ele>2855.8</ele>
        <time>1970-01-01T06:47:55.000Z</time>
      </trkpt>
      <trkpt lat="42.64358" lon="0.654753">
        <ele>2855.6</ele>
        <time>1970-01-01T06:47:57.000Z</time>
      </trkpt>
      <trkpt lat="42.643585" lon="0.654754">
        <ele>2855.4</ele>
        <time>1970-01-01T06:47:58.000Z</time>
      </trkpt>
      <trkpt lat="42.643587" lon="0.654755">
        <ele>2855.3</ele>
        <time>1970-01-01T06:47:59.000Z</time>
      </trkpt>
      <trkpt lat="42.643589" lon="0.654756">
        <ele>2855.2</ele>
        <time>1970-01-01T06:48:00.000Z</time>
      </trkpt>
      <trkpt lat="42.643591" lon="0.654757">
        <ele>2855.2</ele>
        <time>1970-01-01T06:48:01.000Z</time>
      </trkpt>
      <trkpt lat="42.643594" lon="0.654756">
        <ele>2855.1</ele>
        <time>1970-01-01T06:48:02.000Z</time>
      </trkpt>
      <trkpt lat="42.643598" lon="0.654753">
        <ele>2854.9</ele>
        <time>1970-01-01T06:48:03.000Z</time>
      </trkpt>
      <trkpt lat="42.643602" lon="0.65475">
        <ele>2854.7</ele>
        <time>1970-01-01T06:48:04.000Z</time>
      </trkpt>
      <trkpt lat="42.643606" lon="0.654747">
        <ele>2854.6</ele>
        <time>1970-01-01T06:48:05.000Z</time>
      </trkpt>
      <trkpt lat="42.643615" lon="0.654743">
        <ele>2854.2</ele>
        <time>1970-01-01T06:48:06.000Z</time>
      </trkpt>
      <trkpt lat="42.643625" lon="0.65474">
        <ele>2853.9</ele>
        <time>1970-01-01T06:48:08.000Z</time>
      </trkpt>
      <trkpt lat="42.643633" lon="0.65474">
        <ele>2853.6</ele>
        <time>1970-01-01T06:48:09.000Z</time>
      </trkpt>
      <trkpt lat="42.64364" lon="0.65474">
        <ele>2853.3</ele>
        <time>1970-01-01T06:48:10.000Z</time>
      </trkpt>
      <trkpt lat="42.643647" lon="0.654741">
        <ele>2853.1</ele>
        <time>1970-01-01T06:48:11.000Z</time>
      </trkpt>
      <trkpt lat="42.643656" lon="0.654744">
        <ele>2852.7</ele>
        <time>1970-01-01T06:48:12.000Z</time>
      </trkpt>
      <trkpt lat="42.643664" lon="0.654747">
        <ele>2852.4</ele>
        <time>1970-01-01T06:48:13.000Z</time>
      </trkpt>
      <trkpt lat="42.643669" lon="0.654752">
        <ele>2852.2</ele>
        <time>1970-01-01T06:48:15.000Z</time>
      </trkpt>
      <trkpt lat="42.643675" lon="0.654762">
        <ele>2851.9</ele>
        <time>1970-01-01T06:48:16.000Z</time>
      </trkpt>
      <trkpt lat="42.643688" lon="0.65478">
        <ele>2851.2</ele>
        <time>1970-01-01T06:48:18.000Z</time>
      </trkpt>
      <trkpt lat="42.643695" lon="0.654792">
        <ele>2850.8</ele>
        <time>1970-01-01T06:48:19.000Z</time>
      </trkpt>
      <trkpt lat="42.643697" lon="0.654811">
        <ele>2850.3</ele>
        <time>1970-01-01T06:48:20.000Z</time>
      </trkpt>
      <trkpt lat="42.643695" lon="0.654822">
        <ele>2850</ele>
        <time>1970-01-01T06:48:21.000Z</time>
      </trkpt>
      <trkpt lat="42.643693" lon="0.654833">
        <ele>2849.7</ele>
        <time>1970-01-01T06:48:23.000Z</time>
      </trkpt>
      <trkpt lat="42.643691" lon="0.654844">
        <ele>2849.4</ele>
        <time>1970-01-01T06:48:24.000Z</time>
      </trkpt>
      <trkpt lat="42.643688" lon="0.654855">
        <ele>2849.1</ele>
        <time>1970-01-01T06:48:25.000Z</time>
      </trkpt>
      <trkpt lat="42.643686" lon="0.654866">
        <ele>2848.8</ele>
        <time>1970-01-01T06:48:26.000Z</time>
      </trkpt>
      <trkpt lat="42.643684" lon="0.654877">
        <ele>2848.5</ele>
        <time>1970-01-01T06:48:27.000Z</time>
      </trkpt>
      <trkpt lat="42.643689" lon="0.654891">
        <ele>2848.1</ele>
        <time>1970-01-01T06:48:29.000Z</time>
      </trkpt>
      <trkpt lat="42.643697" lon="0.6549">
        <ele>2847.7</ele>
        <time>1970-01-01T06:48:30.000Z</time>
      </trkpt>
      <trkpt lat="42.643702" lon="0.654904">
        <ele>2847.5</ele>
        <time>1970-01-01T06:48:31.000Z</time>
      </trkpt>
      <trkpt lat="42.64371" lon="0.654908">
        <ele>2847.2</ele>
        <time>1970-01-01T06:48:32.000Z</time>
      </trkpt>
      <trkpt lat="42.643725" lon="0.654915">
        <ele>2846.7</ele>
        <time>1970-01-01T06:48:33.000Z</time>
      </trkpt>
      <trkpt lat="42.643731" lon="0.654918">
        <ele>2846.5</ele>
        <time>1970-01-01T06:48:34.000Z</time>
      </trkpt>
      <trkpt lat="42.643738" lon="0.654922">
        <ele>2846.2</ele>
        <time>1970-01-01T06:48:35.000Z</time>
      </trkpt>
      <trkpt lat="42.643744" lon="0.654925">
        <ele>2846</ele>
        <time>1970-01-01T06:48:36.000Z</time>
      </trkpt>
      <trkpt lat="42.643754" lon="0.654929">
        <ele>2845.6</ele>
        <time>1970-01-01T06:48:37.000Z</time>
      </trkpt>
      <trkpt lat="42.643765" lon="0.654934">
        <ele>2845.2</ele>
        <time>1970-01-01T06:48:38.000Z</time>
      </trkpt>
      <trkpt lat="42.643776" lon="0.65494">
        <ele>2844.8</ele>
        <time>1970-01-01T06:48:39.000Z</time>
      </trkpt>
      <trkpt lat="42.643796" lon="0.654951">
        <ele>2844.1</ele>
        <time>1970-01-01T06:48:40.000Z</time>
      </trkpt>
      <trkpt lat="42.643803" lon="0.654955">
        <ele>2843.9</ele>
        <time>1970-01-01T06:48:42.000Z</time>
      </trkpt>
      <trkpt lat="42.64381" lon="0.65496">
        <ele>2843.7</ele>
        <time>1970-01-01T06:48:43.000Z</time>
      </trkpt>
      <trkpt lat="42.643821" lon="0.654965">
        <ele>2843.3</ele>
        <time>1970-01-01T06:48:44.000Z</time>
      </trkpt>
      <trkpt lat="42.643831" lon="0.654971">
        <ele>2842.9</ele>
        <time>1970-01-01T06:48:45.000Z</time>
      </trkpt>
      <trkpt lat="42.643841" lon="0.654976">
        <ele>2842.6</ele>
        <time>1970-01-01T06:48:46.000Z</time>
      </trkpt>
      <trkpt lat="42.643853" lon="0.654981">
        <ele>2842.2</ele>
        <time>1970-01-01T06:48:47.000Z</time>
      </trkpt>
      <trkpt lat="42.643864" lon="0.654986">
        <ele>2841.8</ele>
        <time>1970-01-01T06:48:48.000Z</time>
      </trkpt>
      <trkpt lat="42.643875" lon="0.654991">
        <ele>2841.5</ele>
        <time>1970-01-01T06:48:49.000Z</time>
      </trkpt>
      <trkpt lat="42.643886" lon="0.654997">
        <ele>2841.1</ele>
        <time>1970-01-01T06:48:51.000Z</time>
      </trkpt>
      <trkpt lat="42.643898" lon="0.655">
        <ele>2840.7</ele>
        <time>1970-01-01T06:48:52.000Z</time>
      </trkpt>
      <trkpt lat="42.643909" lon="0.655003">
        <ele>2840.3</ele>
        <time>1970-01-01T06:48:53.000Z</time>
      </trkpt>
      <trkpt lat="42.643919" lon="0.655005">
        <ele>2840</ele>
        <time>1970-01-01T06:48:54.000Z</time>
      </trkpt>
      <trkpt lat="42.643931" lon="0.655008">
        <ele>2839.6</ele>
        <time>1970-01-01T06:48:55.000Z</time>
      </trkpt>
      <trkpt lat="42.64394" lon="0.65501">
        <ele>2839.4</ele>
        <time>1970-01-01T06:48:56.000Z</time>
      </trkpt>
      <trkpt lat="42.64395" lon="0.655012">
        <ele>2839.1</ele>
        <time>1970-01-01T06:48:57.000Z</time>
      </trkpt>
      <trkpt lat="42.643961" lon="0.655018">
        <ele>2838.7</ele>
        <time>1970-01-01T06:48:58.000Z</time>
      </trkpt>
      <trkpt lat="42.643972" lon="0.655025">
        <ele>2838.3</ele>
        <time>1970-01-01T06:48:59.000Z</time>
      </trkpt>
      <trkpt lat="42.643984" lon="0.655032">
        <ele>2837.9</ele>
        <time>1970-01-01T06:49:00.000Z</time>
      </trkpt>
      <trkpt lat="42.643994" lon="0.655037">
        <ele>2837.6</ele>
        <time>1970-01-01T06:49:02.000Z</time>
      </trkpt>
      <trkpt lat="42.644004" lon="0.655038">
        <ele>2837.3</ele>
        <time>1970-01-01T06:49:03.000Z</time>
      </trkpt>
      <trkpt lat="42.644012" lon="0.655037">
        <ele>2837</ele>
        <time>1970-01-01T06:49:04.000Z</time>
      </trkpt>
      <trkpt lat="42.644017" lon="0.655035">
        <ele>2836.9</ele>
        <time>1970-01-01T06:49:05.000Z</time>
      </trkpt>
      <trkpt lat="42.644028" lon="0.655037">
        <ele>2836.6</ele>
        <time>1970-01-01T06:49:06.000Z</time>
      </trkpt>
      <trkpt lat="42.644034" lon="0.655048">
        <ele>2836.3</ele>
        <time>1970-01-01T06:49:07.000Z</time>
      </trkpt>
      <trkpt lat="42.64404" lon="0.65506">
        <ele>2836</ele>
        <time>1970-01-01T06:49:08.000Z</time>
      </trkpt>
      <trkpt lat="42.644047" lon="0.655076">
        <ele>2835.6</ele>
        <time>1970-01-01T06:49:09.000Z</time>
      </trkpt>
      <trkpt lat="42.644055" lon="0.65509">
        <ele>2835.2</ele>
        <time>1970-01-01T06:49:11.000Z</time>
      </trkpt>
      <trkpt lat="42.64406" lon="0.655098">
        <ele>2835</ele>
        <time>1970-01-01T06:49:12.000Z</time>
      </trkpt>
      <trkpt lat="42.64407" lon="0.655105">
        <ele>2834.7</ele>
        <time>1970-01-01T06:49:13.000Z</time>
      </trkpt>
      <trkpt lat="42.644076" lon="0.65511">
        <ele>2834.5</ele>
        <time>1970-01-01T06:49:14.000Z</time>
      </trkpt>
      <trkpt lat="42.644087" lon="0.655116">
        <ele>2834.1</ele>
        <time>1970-01-01T06:49:16.000Z</time>
      </trkpt>
      <trkpt lat="42.644097" lon="0.655119">
        <ele>2833.9</ele>
        <time>1970-01-01T06:49:17.000Z</time>
      </trkpt>
      <trkpt lat="42.644106" lon="0.655125">
        <ele>2833.6</ele>
        <time>1970-01-01T06:49:18.000Z</time>
      </trkpt>
      <trkpt lat="42.644115" lon="0.65513">
        <ele>2833.3</ele>
        <time>1970-01-01T06:49:19.000Z</time>
      </trkpt>
      <trkpt lat="42.644124" lon="0.655133">
        <ele>2833.1</ele>
        <time>1970-01-01T06:49:20.000Z</time>
      </trkpt>
      <trkpt lat="42.644133" lon="0.655137">
        <ele>2832.8</ele>
        <time>1970-01-01T06:49:21.000Z</time>
      </trkpt>
      <trkpt lat="42.644143" lon="0.65514">
        <ele>2832.5</ele>
        <time>1970-01-01T06:49:22.000Z</time>
      </trkpt>
      <trkpt lat="42.644154" lon="0.655143">
        <ele>2832.2</ele>
        <time>1970-01-01T06:49:23.000Z</time>
      </trkpt>
      <trkpt lat="42.644166" lon="0.655145">
        <ele>2831.9</ele>
        <time>1970-01-01T06:49:24.000Z</time>
      </trkpt>
      <trkpt lat="42.644177" lon="0.655147">
        <ele>2831.6</ele>
        <time>1970-01-01T06:49:25.000Z</time>
      </trkpt>
      <trkpt lat="42.644188" lon="0.655148">
        <ele>2831.3</ele>
        <time>1970-01-01T06:49:26.000Z</time>
      </trkpt>
      <trkpt lat="42.644201" lon="0.655149">
        <ele>2831</ele>
        <time>1970-01-01T06:49:27.000Z</time>
      </trkpt>
      <trkpt lat="42.644214" lon="0.655151">
        <ele>2830.7</ele>
        <time>1970-01-01T06:49:29.000Z</time>
      </trkpt>
      <trkpt lat="42.644225" lon="0.655152">
        <ele>2830.4</ele>
        <time>1970-01-01T06:49:30.000Z</time>
      </trkpt>
      <trkpt lat="42.644236" lon="0.655153">
        <ele>2830.1</ele>
        <time>1970-01-01T06:49:31.000Z</time>
      </trkpt>
      <trkpt lat="42.644245" lon="0.655155">
        <ele>2829.9</ele>
        <time>1970-01-01T06:49:32.000Z</time>
      </trkpt>
      <trkpt lat="42.644255" lon="0.655157">
        <ele>2829.7</ele>
        <time>1970-01-01T06:49:33.000Z</time>
      </trkpt>
      <trkpt lat="42.644265" lon="0.655158">
        <ele>2829.4</ele>
        <time>1970-01-01T06:49:34.000Z</time>
      </trkpt>
      <trkpt lat="42.644274" lon="0.65516">
        <ele>2829.2</ele>
        <time>1970-01-01T06:49:35.000Z</time>
      </trkpt>
      <trkpt lat="42.644285" lon="0.655162">
        <ele>2828.9</ele>
        <time>1970-01-01T06:49:36.000Z</time>
      </trkpt>
      <trkpt lat="42.644297" lon="0.655166">
        <ele>2828.6</ele>
        <time>1970-01-01T06:49:37.000Z</time>
      </trkpt>
      <trkpt lat="42.644307" lon="0.655172">
        <ele>2828.3</ele>
        <time>1970-01-01T06:49:38.000Z</time>
      </trkpt>
      <trkpt lat="42.644315" lon="0.655176">
        <ele>2828.1</ele>
        <time>1970-01-01T06:49:39.000Z</time>
      </trkpt>
      <trkpt lat="42.644326" lon="0.65518">
        <ele>2827.9</ele>
        <time>1970-01-01T06:49:40.000Z</time>
      </trkpt>
      <trkpt lat="42.644338" lon="0.655183">
        <ele>2827.6</ele>
        <time>1970-01-01T06:49:41.000Z</time>
      </trkpt>
      <trkpt lat="42.644357" lon="0.655187">
        <ele>2827.1</ele>
        <time>1970-01-01T06:49:42.000Z</time>
      </trkpt>
      <trkpt lat="42.644365" lon="0.655189">
        <ele>2826.9</ele>
        <time>1970-01-01T06:49:43.000Z</time>
      </trkpt>
      <trkpt lat="42.644374" lon="0.655192">
        <ele>2826.7</ele>
        <time>1970-01-01T06:49:44.000Z</time>
      </trkpt>
      <trkpt lat="42.644385" lon="0.655196">
        <ele>2826.4</ele>
        <time>1970-01-01T06:49:45.000Z</time>
      </trkpt>
      <trkpt lat="42.644399" lon="0.655201">
        <ele>2826</ele>
        <time>1970-01-01T06:49:46.000Z</time>
      </trkpt>
      <trkpt lat="42.644413" lon="0.655205">
        <ele>2825.7</ele>
        <time>1970-01-01T06:49:48.000Z</time>
      </trkpt>
      <trkpt lat="42.644425" lon="0.655207">
        <ele>2825.4</ele>
        <time>1970-01-01T06:49:49.000Z</time>
      </trkpt>
      <trkpt lat="42.644437" lon="0.655208">
        <ele>2825.1</ele>
        <time>1970-01-01T06:49:50.000Z</time>
      </trkpt>
      <trkpt lat="42.644448" lon="0.65521">
        <ele>2824.8</ele>
        <time>1970-01-01T06:49:51.000Z</time>
      </trkpt>
      <trkpt lat="42.644468" lon="0.655213">
        <ele>2824.4</ele>
        <time>1970-01-01T06:49:52.000Z</time>
      </trkpt>
      <trkpt lat="42.644476" lon="0.655212">
        <ele>2824.2</ele>
        <time>1970-01-01T06:49:53.000Z</time>
      </trkpt>
      <trkpt lat="42.644484" lon="0.655212">
        <ele>2824</ele>
        <time>1970-01-01T06:49:54.000Z</time>
      </trkpt>
      <trkpt lat="42.644497" lon="0.65521">
        <ele>2823.7</ele>
        <time>1970-01-01T06:49:55.000Z</time>
      </trkpt>
      <trkpt lat="42.644511" lon="0.655209">
        <ele>2823.4</ele>
        <time>1970-01-01T06:49:56.000Z</time>
      </trkpt>
      <trkpt lat="42.644523" lon="0.655206">
        <ele>2823.1</ele>
        <time>1970-01-01T06:49:58.000Z</time>
      </trkpt>
      <trkpt lat="42.644544" lon="0.655203">
        <ele>2822.7</ele>
        <time>1970-01-01T06:49:59.000Z</time>
      </trkpt>
      <trkpt lat="42.644552" lon="0.655202">
        <ele>2822.5</ele>
        <time>1970-01-01T06:50:00.000Z</time>
      </trkpt>
      <trkpt lat="42.644561" lon="0.655202">
        <ele>2822.3</ele>
        <time>1970-01-01T06:50:01.000Z</time>
      </trkpt>
      <trkpt lat="42.644582" lon="0.655206">
        <ele>2821.8</ele>
        <time>1970-01-01T06:50:02.000Z</time>
      </trkpt>
      <trkpt lat="42.644593" lon="0.655207">
        <ele>2821.6</ele>
        <time>1970-01-01T06:50:04.000Z</time>
      </trkpt>
      <trkpt lat="42.644603" lon="0.655209">
        <ele>2821.1</ele>
        <time>1970-01-01T06:50:05.000Z</time>
      </trkpt>
      <trkpt lat="42.644624" lon="0.655202">
        <ele>2820.6</ele>
        <time>1970-01-01T06:50:06.000Z</time>
      </trkpt>
      <trkpt lat="42.644632" lon="0.655197">
        <ele>2820.4</ele>
        <time>1970-01-01T06:50:07.000Z</time>
      </trkpt>
      <trkpt lat="42.644639" lon="0.655191">
        <ele>2820.2</ele>
        <time>1970-01-01T06:50:08.000Z</time>
      </trkpt>
      <trkpt lat="42.644652" lon="0.655186">
        <ele>2819.9</ele>
        <time>1970-01-01T06:50:10.000Z</time>
      </trkpt>
      <trkpt lat="42.644666" lon="0.655187">
        <ele>2819.6</ele>
        <time>1970-01-01T06:50:11.000Z</time>
      </trkpt>
      <trkpt lat="42.644687" lon="0.655192">
        <ele>2819.1</ele>
        <time>1970-01-01T06:50:12.000Z</time>
      </trkpt>
      <trkpt lat="42.644696" lon="0.655193">
        <ele>2818.9</ele>
        <time>1970-01-01T06:50:13.000Z</time>
      </trkpt>
      <trkpt lat="42.644705" lon="0.655194">
        <ele>2818.7</ele>
        <time>1970-01-01T06:50:14.000Z</time>
      </trkpt>
      <trkpt lat="42.644726" lon="0.655195">
        <ele>2818.3</ele>
        <time>1970-01-01T06:50:15.000Z</time>
      </trkpt>
      <trkpt lat="42.644735" lon="0.655196">
        <ele>2818.1</ele>
        <time>1970-01-01T06:50:16.000Z</time>
      </trkpt>
      <trkpt lat="42.644744" lon="0.655197">
        <ele>2818</ele>
        <time>1970-01-01T06:50:17.000Z</time>
      </trkpt>
      <trkpt lat="42.644759" lon="0.6552">
        <ele>2817.7</ele>
        <time>1970-01-01T06:50:18.000Z</time>
      </trkpt>
      <trkpt lat="42.644773" lon="0.655206">
        <ele>2817.5</ele>
        <time>1970-01-01T06:50:19.000Z</time>
      </trkpt>
      <trkpt lat="42.644787" lon="0.655215">
        <ele>2817.3</ele>
        <time>1970-01-01T06:50:21.000Z</time>
      </trkpt>
      <trkpt lat="42.644797" lon="0.655225">
        <ele>2817.1</ele>
        <time>1970-01-01T06:50:22.000Z</time>
      </trkpt>
      <trkpt lat="42.644807" lon="0.655234">
        <ele>2816.9</ele>
        <time>1970-01-01T06:50:23.000Z</time>
      </trkpt>
      <trkpt lat="42.644814" lon="0.655244">
        <ele>2816.8</ele>
        <time>1970-01-01T06:50:24.000Z</time>
      </trkpt>
      <trkpt lat="42.644818" lon="0.655252">
        <ele>2816.7</ele>
        <time>1970-01-01T06:50:25.000Z</time>
      </trkpt>
      <trkpt lat="42.644823" lon="0.655259">
        <ele>2816.7</ele>
        <time>1970-01-01T06:50:26.000Z</time>
      </trkpt>
      <trkpt lat="42.644831" lon="0.655263">
        <ele>2816.6</ele>
        <time>1970-01-01T06:50:27.000Z</time>
      </trkpt>
      <trkpt lat="42.644834" lon="0.655263">
        <ele>2816.6</ele>
        <time>1970-01-01T06:50:28.000Z</time>
      </trkpt>
      <trkpt lat="42.644834" lon="0.655261">
        <ele>2816.6</ele>
        <time>1970-01-01T06:50:29.000Z</time>
      </trkpt>
      <trkpt lat="42.644832" lon="0.655259">
        <ele>2816.5</ele>
        <time>1970-01-01T06:50:30.000Z</time>
      </trkpt>
      <trkpt lat="42.64483" lon="0.655258">
        <ele>2816.5</ele>
        <time>1970-01-01T06:50:31.000Z</time>
      </trkpt>
      <trkpt lat="42.644828" lon="0.655256">
        <ele>2816.5</ele>
        <time>1970-01-01T06:50:32.000Z</time>
      </trkpt>
      <trkpt lat="42.644827" lon="0.655255">
        <ele>2816.5</ele>
        <time>1970-01-01T06:50:33.000Z</time>
      </trkpt>
      <trkpt lat="42.644825" lon="0.655254">
        <ele>2816.5</ele>
        <time>1970-01-01T06:50:34.000Z</time>
      </trkpt>
      <trkpt lat="42.644824" lon="0.655254">
        <ele>2816.5</ele>
        <time>1970-01-01T06:50:35.000Z</time>
      </trkpt>
      <trkpt lat="42.644823" lon="0.655253">
        <ele>2816.5</ele>
        <time>1970-01-01T06:50:36.000Z</time>
      </trkpt>
      <trkpt lat="42.644823" lon="0.655253">
        <ele>2816.5</ele>
        <time>1970-01-01T06:50:37.000Z</time>
      </trkpt>
      <trkpt lat="42.644823" lon="0.655253">
        <ele>2816.5</ele>
        <time>1970-01-01T06:50:38.000Z</time>
      </trkpt>
      <trkpt lat="42.644826" lon="0.655256">
        <ele>2816.4</ele>
        <time>1970-01-01T06:50:39.000Z</time>
      </trkpt>
      <trkpt lat="42.644832" lon="0.655263">
        <ele>2816.4</ele>
        <time>1970-01-01T06:50:41.000Z</time>
      </trkpt>
      <trkpt lat="42.644836" lon="0.655271">
        <ele>2816.3</ele>
        <time>1970-01-01T06:50:42.000Z</time>
      </trkpt>
      <trkpt lat="42.644842" lon="0.655281">
        <ele>2816.2</ele>
        <time>1970-01-01T06:50:43.000Z</time>
      </trkpt>
      <trkpt lat="42.64485" lon="0.655297">
        <ele>2816.1</ele>
        <time>1970-01-01T06:50:45.000Z</time>
      </trkpt>
      <trkpt lat="42.644857" lon="0.655312">
        <ele>2816</ele>
        <time>1970-01-01T06:50:46.000Z</time>
      </trkpt>
      <trkpt lat="42.644868" lon="0.655326">
        <ele>2815.9</ele>
        <time>1970-01-01T06:50:47.000Z</time>
      </trkpt>
      <trkpt lat="42.644878" lon="0.655339">
        <ele>2815.8</ele>
        <time>1970-01-01T06:50:49.000Z</time>
      </trkpt>
      <trkpt lat="42.644888" lon="0.655348">
        <ele>2815.7</ele>
        <time>1970-01-01T06:50:50.000Z</time>
      </trkpt>
      <trkpt lat="42.644898" lon="0.655353">
        <ele>2815.7</ele>
        <time>1970-01-01T06:50:51.000Z</time>
      </trkpt>
      <trkpt lat="42.644904" lon="0.655357">
        <ele>2815.6</ele>
        <time>1970-01-01T06:50:52.000Z</time>
      </trkpt>
      <trkpt lat="42.644914" lon="0.655363">
        <ele>2813.9</ele>
        <time>1970-01-01T06:50:53.000Z</time>
      </trkpt>
      <trkpt lat="42.644929" lon="0.655372">
        <ele>2813.8</ele>
        <time>1970-01-01T06:50:54.000Z</time>
      </trkpt>
      <trkpt lat="42.644956" lon="0.655387">
        <ele>2813.1</ele>
        <time>1970-01-01T06:50:56.000Z</time>
      </trkpt>
      <trkpt lat="42.644967" lon="0.655391">
        <ele>2813</ele>
        <time>1970-01-01T06:50:58.000Z</time>
      </trkpt>
      <trkpt lat="42.644979" lon="0.655395">
        <ele>2812.3</ele>
        <time>1970-01-01T06:50:59.000Z</time>
      </trkpt>
      <trkpt lat="42.64499" lon="0.655399">
        <ele>2812.2</ele>
        <time>1970-01-01T06:51:00.000Z</time>
      </trkpt>
      <trkpt lat="42.645002" lon="0.655403">
        <ele>2812.2</ele>
        <time>1970-01-01T06:51:01.000Z</time>
      </trkpt>
      <trkpt lat="42.645016" lon="0.655405">
        <ele>2810.4</ele>
        <time>1970-01-01T06:51:02.000Z</time>
      </trkpt>
      <trkpt lat="42.64503" lon="0.655405">
        <ele>2810.3</ele>
        <time>1970-01-01T06:51:03.000Z</time>
      </trkpt>
      <trkpt lat="42.645044" lon="0.655405">
        <ele>2809.6</ele>
        <time>1970-01-01T06:51:04.000Z</time>
      </trkpt>
      <trkpt lat="42.645058" lon="0.655406">
        <ele>2809.5</ele>
        <time>1970-01-01T06:51:05.000Z</time>
      </trkpt>
      <trkpt lat="42.645088" lon="0.655403">
        <ele>2809.8</ele>
        <time>1970-01-01T06:51:07.000Z</time>
      </trkpt>
      <trkpt lat="42.645096" lon="0.655403">
        <ele>2809.8</ele>
        <time>1970-01-01T06:51:08.000Z</time>
      </trkpt>
      <trkpt lat="42.645117" lon="0.655402">
        <ele>2809.1</ele>
        <time>1970-01-01T06:51:09.000Z</time>
      </trkpt>
      <trkpt lat="42.645126" lon="0.655401">
        <ele>2809</ele>
        <time>1970-01-01T06:51:10.000Z</time>
      </trkpt>
      <trkpt lat="42.645135" lon="0.655401">
        <ele>2808.4</ele>
        <time>1970-01-01T06:51:11.000Z</time>
      </trkpt>
      <trkpt lat="42.645148" lon="0.655403">
        <ele>2808.3</ele>
        <time>1970-01-01T06:51:12.000Z</time>
      </trkpt>
      <trkpt lat="42.645164" lon="0.655408">
        <ele>2807.2</ele>
        <time>1970-01-01T06:51:13.000Z</time>
      </trkpt>
      <trkpt lat="42.645179" lon="0.655412">
        <ele>2806.6</ele>
        <time>1970-01-01T06:51:15.000Z</time>
      </trkpt>
      <trkpt lat="42.645196" lon="0.65542">
        <ele>2806.5</ele>
        <time>1970-01-01T06:51:16.000Z</time>
      </trkpt>
      <trkpt lat="42.645209" lon="0.655427">
        <ele>2805.9</ele>
        <time>1970-01-01T06:51:17.000Z</time>
      </trkpt>
      <trkpt lat="42.645221" lon="0.655434">
        <ele>2805.8</ele>
        <time>1970-01-01T06:51:18.000Z</time>
      </trkpt>
      <trkpt lat="42.645234" lon="0.655441">
        <ele>2805.2</ele>
        <time>1970-01-01T06:51:20.000Z</time>
      </trkpt>
      <trkpt lat="42.645256" lon="0.655444">
        <ele>2805.1</ele>
        <time>1970-01-01T06:51:21.000Z</time>
      </trkpt>
      <trkpt lat="42.645263" lon="0.655445">
        <ele>2804.4</ele>
        <time>1970-01-01T06:51:22.000Z</time>
      </trkpt>
      <trkpt lat="42.645271" lon="0.655446">
        <ele>2804.4</ele>
        <time>1970-01-01T06:51:23.000Z</time>
      </trkpt>
      <trkpt lat="42.645284" lon="0.655446">
        <ele>2804.3</ele>
        <time>1970-01-01T06:51:24.000Z</time>
      </trkpt>
      <trkpt lat="42.645298" lon="0.655449">
        <ele>2802.5</ele>
        <time>1970-01-01T06:51:25.000Z</time>
      </trkpt>
      <trkpt lat="42.645313" lon="0.65545">
        <ele>2802.5</ele>
        <time>1970-01-01T06:51:27.000Z</time>
      </trkpt>
      <trkpt lat="42.645327" lon="0.655454">
        <ele>2801.8</ele>
        <time>1970-01-01T06:51:28.000Z</time>
      </trkpt>
      <trkpt lat="42.645349" lon="0.655461">
        <ele>2801.7</ele>
        <time>1970-01-01T06:51:29.000Z</time>
      </trkpt>
      <trkpt lat="42.645357" lon="0.655462">
        <ele>2801</ele>
        <time>1970-01-01T06:51:30.000Z</time>
      </trkpt>
      <trkpt lat="42.645366" lon="0.655463">
        <ele>2801</ele>
        <time>1970-01-01T06:51:31.000Z</time>
      </trkpt>
      <trkpt lat="42.645388" lon="0.655463">
        <ele>2800.3</ele>
        <time>1970-01-01T06:51:33.000Z</time>
      </trkpt>
      <trkpt lat="42.645396" lon="0.655463">
        <ele>2800.2</ele>
        <time>1970-01-01T06:51:34.000Z</time>
      </trkpt>
      <trkpt lat="42.645404" lon="0.655462">
        <ele>2800.2</ele>
        <time>1970-01-01T06:51:35.000Z</time>
      </trkpt>
      <trkpt lat="42.645415" lon="0.655462">
        <ele>2800.1</ele>
        <time>1970-01-01T06:51:36.000Z</time>
      </trkpt>
      <trkpt lat="42.645428" lon="0.655462">
        <ele>2799.5</ele>
        <time>1970-01-01T06:51:37.000Z</time>
      </trkpt>
      <trkpt lat="42.64544" lon="0.655462">
        <ele>2799.4</ele>
        <time>1970-01-01T06:51:38.000Z</time>
      </trkpt>
      <trkpt lat="42.645457" lon="0.655459">
        <ele>2798.7</ele>
        <time>1970-01-01T06:51:39.000Z</time>
      </trkpt>
      <trkpt lat="42.645472" lon="0.655456">
        <ele>2798.7</ele>
        <time>1970-01-01T06:51:41.000Z</time>
      </trkpt>
      <trkpt lat="42.64549" lon="0.655452">
        <ele>2798</ele>
        <time>1970-01-01T06:51:42.000Z</time>
      </trkpt>
      <trkpt lat="42.645505" lon="0.655447">
        <ele>2797.9</ele>
        <time>1970-01-01T06:51:44.000Z</time>
      </trkpt>
      <trkpt lat="42.64552" lon="0.655443">
        <ele>2798.3</ele>
        <time>1970-01-01T06:51:45.000Z</time>
      </trkpt>
      <trkpt lat="42.64553" lon="0.655441">
        <ele>2798.3</ele>
        <time>1970-01-01T06:51:46.000Z</time>
      </trkpt>
      <trkpt lat="42.645536" lon="0.655441">
        <ele>2798.2</ele>
        <time>1970-01-01T06:51:47.000Z</time>
      </trkpt>
      <trkpt lat="42.64554" lon="0.655441">
        <ele>2798.2</ele>
        <time>1970-01-01T06:51:48.000Z</time>
      </trkpt>
      <trkpt lat="42.645549" lon="0.655434">
        <ele>2797.3</ele>
        <time>1970-01-01T06:51:50.000Z</time>
      </trkpt>
      <trkpt lat="42.645563" lon="0.65543">
        <ele>2797.3</ele>
        <time>1970-01-01T06:51:51.000Z</time>
      </trkpt>
      <trkpt lat="42.645572" lon="0.655423">
        <ele>2797.2</ele>
        <time>1970-01-01T06:51:52.000Z</time>
      </trkpt>
      <trkpt lat="42.645579" lon="0.655414">
        <ele>2796.4</ele>
        <time>1970-01-01T06:51:53.000Z</time>
      </trkpt>
      <trkpt lat="42.645591" lon="0.655401">
        <ele>2797.5</ele>
        <time>1970-01-01T06:51:54.000Z</time>
      </trkpt>
      <trkpt lat="42.645604" lon="0.655394">
        <ele>2797.4</ele>
        <time>1970-01-01T06:51:56.000Z</time>
      </trkpt>
      <trkpt lat="42.645619" lon="0.655391">
        <ele>2796.6</ele>
        <time>1970-01-01T06:51:57.000Z</time>
      </trkpt>
      <trkpt lat="42.645631" lon="0.65539">
        <ele>2796.6</ele>
        <time>1970-01-01T06:51:58.000Z</time>
      </trkpt>
      <trkpt lat="42.645643" lon="0.655391">
        <ele>2795.9</ele>
        <time>1970-01-01T06:51:59.000Z</time>
      </trkpt>
      <trkpt lat="42.645662" lon="0.655397">
        <ele>2795.8</ele>
        <time>1970-01-01T06:52:01.000Z</time>
      </trkpt>
      <trkpt lat="42.645675" lon="0.655402">
        <ele>2795.2</ele>
        <time>1970-01-01T06:52:02.000Z</time>
      </trkpt>
      <trkpt lat="42.645686" lon="0.655404">
        <ele>2794</ele>
        <time>1970-01-01T06:52:03.000Z</time>
      </trkpt>
      <trkpt lat="42.645697" lon="0.655406">
        <ele>2793.9</ele>
        <time>1970-01-01T06:52:04.000Z</time>
      </trkpt>
      <trkpt lat="42.645714" lon="0.655401">
        <ele>2794.4</ele>
        <time>1970-01-01T06:52:05.000Z</time>
      </trkpt>
      <trkpt lat="42.64572" lon="0.655398">
        <ele>2794.4</ele>
        <time>1970-01-01T06:52:06.000Z</time>
      </trkpt>
      <trkpt lat="42.645726" lon="0.655394">
        <ele>2794.3</ele>
        <time>1970-01-01T06:52:07.000Z</time>
      </trkpt>
      <trkpt lat="42.645733" lon="0.65539">
        <ele>2794.2</ele>
        <time>1970-01-01T06:52:08.000Z</time>
      </trkpt>
      <trkpt lat="42.645741" lon="0.655384">
        <ele>2793.6</ele>
        <time>1970-01-01T06:52:09.000Z</time>
      </trkpt>
      <trkpt lat="42.645748" lon="0.655383">
        <ele>2793.6</ele>
        <time>1970-01-01T06:52:10.000Z</time>
      </trkpt>
      <trkpt lat="42.645761" lon="0.655389">
        <ele>2793.5</ele>
        <time>1970-01-01T06:52:12.000Z</time>
      </trkpt>
      <trkpt lat="42.645769" lon="0.655399">
        <ele>2792.8</ele>
        <time>1970-01-01T06:52:13.000Z</time>
      </trkpt>
      <trkpt lat="42.645777" lon="0.655408">
        <ele>2791.6</ele>
        <time>1970-01-01T06:52:14.000Z</time>
      </trkpt>
      <trkpt lat="42.645785" lon="0.655416">
        <ele>2791.6</ele>
        <time>1970-01-01T06:52:15.000Z</time>
      </trkpt>
      <trkpt lat="42.645793" lon="0.655424">
        <ele>2791.5</ele>
        <time>1970-01-01T06:52:16.000Z</time>
      </trkpt>
      <trkpt lat="42.645801" lon="0.655432">
        <ele>2790.8</ele>
        <time>1970-01-01T06:52:17.000Z</time>
      </trkpt>
      <trkpt lat="42.645816" lon="0.65544">
        <ele>2790.7</ele>
        <time>1970-01-01T06:52:18.000Z</time>
      </trkpt>
      <trkpt lat="42.64583" lon="0.655446">
        <ele>2790</ele>
        <time>1970-01-01T06:52:20.000Z</time>
      </trkpt>
      <trkpt lat="42.645839" lon="0.655452">
        <ele>2788.8</ele>
        <time>1970-01-01T06:52:21.000Z</time>
      </trkpt>
      <trkpt lat="42.645849" lon="0.655458">
        <ele>2788.7</ele>
        <time>1970-01-01T06:52:22.000Z</time>
      </trkpt>
      <trkpt lat="42.645859" lon="0.655466">
        <ele>2788.7</ele>
        <time>1970-01-01T06:52:23.000Z</time>
      </trkpt>
      <trkpt lat="42.645868" lon="0.655473">
        <ele>2788</ele>
        <time>1970-01-01T06:52:24.000Z</time>
      </trkpt>
      <trkpt lat="42.645877" lon="0.65548">
        <ele>2788</ele>
        <time>1970-01-01T06:52:25.000Z</time>
      </trkpt>
      <trkpt lat="42.645891" lon="0.655494">
        <ele>2786.7</ele>
        <time>1970-01-01T06:52:27.000Z</time>
      </trkpt>
      <trkpt lat="42.6459" lon="0.655505">
        <ele>2786.1</ele>
        <time>1970-01-01T06:52:28.000Z</time>
      </trkpt>
      <trkpt lat="42.645909" lon="0.655518">
        <ele>2786</ele>
        <time>1970-01-01T06:52:29.000Z</time>
      </trkpt>
      <trkpt lat="42.645912" lon="0.655532">
        <ele>2784.6</ele>
        <time>1970-01-01T06:52:30.000Z</time>
      </trkpt>
      <trkpt lat="42.645913" lon="0.655548">
        <ele>2784.6</ele>
        <time>1970-01-01T06:52:31.000Z</time>
      </trkpt>
      <trkpt lat="42.645922" lon="0.655576">
        <ele>2783.2</ele>
        <time>1970-01-01T06:52:32.000Z</time>
      </trkpt>
      <trkpt lat="42.645926" lon="0.655587">
        <ele>2782.7</ele>
        <time>1970-01-01T06:52:33.000Z</time>
      </trkpt>
      <trkpt lat="42.64593" lon="0.655597">
        <ele>2782.6</ele>
        <time>1970-01-01T06:52:34.000Z</time>
      </trkpt>
      <trkpt lat="42.645944" lon="0.655617">
        <ele>2782.5</ele>
        <time>1970-01-01T06:52:36.000Z</time>
      </trkpt>
      <trkpt lat="42.64595" lon="0.655625">
        <ele>2781.2</ele>
        <time>1970-01-01T06:52:37.000Z</time>
      </trkpt>
      <trkpt lat="42.645955" lon="0.655633">
        <ele>2781.1</ele>
        <time>1970-01-01T06:52:38.000Z</time>
      </trkpt>
      <trkpt lat="42.645961" lon="0.655646">
        <ele>2780.6</ele>
        <time>1970-01-01T06:52:39.000Z</time>
      </trkpt>
      <trkpt lat="42.645968" lon="0.655658">
        <ele>2780.5</ele>
        <time>1970-01-01T06:52:40.000Z</time>
      </trkpt>
      <trkpt lat="42.645974" lon="0.65567">
        <ele>2779.2</ele>
        <time>1970-01-01T06:52:41.000Z</time>
      </trkpt>
      <trkpt lat="42.645988" lon="0.655694">
        <ele>2778.6</ele>
        <time>1970-01-01T06:52:42.000Z</time>
      </trkpt>
      <trkpt lat="42.645995" lon="0.655704">
        <ele>2777.3</ele>
        <time>1970-01-01T06:52:44.000Z</time>
      </trkpt>
      <trkpt lat="42.646001" lon="0.655714">
        <ele>2777.3</ele>
        <time>1970-01-01T06:52:45.000Z</time>
      </trkpt>
      <trkpt lat="42.646006" lon="0.655727">
        <ele>2777.2</ele>
        <time>1970-01-01T06:52:46.000Z</time>
      </trkpt>
      <trkpt lat="42.64601" lon="0.65574">
        <ele>2777.2</ele>
        <time>1970-01-01T06:52:47.000Z</time>
      </trkpt>
      <trkpt lat="42.646017" lon="0.655753">
        <ele>2775.9</ele>
        <time>1970-01-01T06:52:48.000Z</time>
      </trkpt>
      <trkpt lat="42.646025" lon="0.655764">
        <ele>2775.3</ele>
        <time>1970-01-01T06:52:49.000Z</time>
      </trkpt>
      <trkpt lat="42.646034" lon="0.655776">
        <ele>2775.2</ele>
        <time>1970-01-01T06:52:50.000Z</time>
      </trkpt>
      <trkpt lat="42.646042" lon="0.655786">
        <ele>2775.2</ele>
        <time>1970-01-01T06:52:51.000Z</time>
      </trkpt>
      <trkpt lat="42.646054" lon="0.655795">
        <ele>2773.3</ele>
        <time>1970-01-01T06:52:52.000Z</time>
      </trkpt>
      <trkpt lat="42.646068" lon="0.6558">
        <ele>2773.2</ele>
        <time>1970-01-01T06:52:54.000Z</time>
      </trkpt>
      <trkpt lat="42.64608" lon="0.655805">
        <ele>2773.2</ele>
        <time>1970-01-01T06:52:55.000Z</time>
      </trkpt>
      <trkpt lat="42.64609" lon="0.655815">
        <ele>2772.5</ele>
        <time>1970-01-01T06:52:56.000Z</time>
      </trkpt>
      <trkpt lat="42.646095" lon="0.655829">
        <ele>2772.5</ele>
        <time>1970-01-01T06:52:57.000Z</time>
      </trkpt>
      <trkpt lat="42.6461" lon="0.655846">
        <ele>2771.2</ele>
        <time>1970-01-01T06:52:58.000Z</time>
      </trkpt>
      <trkpt lat="42.646105" lon="0.655865">
        <ele>2771.1</ele>
        <time>1970-01-01T06:52:59.000Z</time>
      </trkpt>
      <trkpt lat="42.646112" lon="0.655893">
        <ele>2769.8</ele>
        <time>1970-01-01T06:53:00.000Z</time>
      </trkpt>
      <trkpt lat="42.646115" lon="0.655903">
        <ele>2769.1</ele>
        <time>1970-01-01T06:53:01.000Z</time>
      </trkpt>
      <trkpt lat="42.646118" lon="0.655914">
        <ele>2769.1</ele>
        <time>1970-01-01T06:53:02.000Z</time>
      </trkpt>
      <trkpt lat="42.646124" lon="0.655928">
        <ele>2767.8</ele>
        <time>1970-01-01T06:53:03.000Z</time>
      </trkpt>
      <trkpt lat="42.646129" lon="0.655942">
        <ele>2767.7</ele>
        <time>1970-01-01T06:53:04.000Z</time>
      </trkpt>
      <trkpt lat="42.646135" lon="0.655956">
        <ele>2767.7</ele>
        <time>1970-01-01T06:53:05.000Z</time>
      </trkpt>
      <trkpt lat="42.646136" lon="0.655971">
        <ele>2766.3</ele>
        <time>1970-01-01T06:53:07.000Z</time>
      </trkpt>
      <trkpt lat="42.646131" lon="0.655986">
        <ele>2766.3</ele>
        <time>1970-01-01T06:53:08.000Z</time>
      </trkpt>
      <trkpt lat="42.646126" lon="0.656">
        <ele>2766.2</ele>
        <time>1970-01-01T06:53:09.000Z</time>
      </trkpt>
      <trkpt lat="42.646122" lon="0.656016">
        <ele>2764.8</ele>
        <time>1970-01-01T06:53:10.000Z</time>
      </trkpt>
      <trkpt lat="42.646118" lon="0.656032">
        <ele>2764.8</ele>
        <time>1970-01-01T06:53:11.000Z</time>
      </trkpt>
      <trkpt lat="42.646115" lon="0.656045">
        <ele>2764.7</ele>
        <time>1970-01-01T06:53:12.000Z</time>
      </trkpt>
      <trkpt lat="42.646113" lon="0.656064">
        <ele>2764</ele>
        <time>1970-01-01T06:53:13.000Z</time>
      </trkpt>
      <trkpt lat="42.646113" lon="0.656074">
        <ele>2763.9</ele>
        <time>1970-01-01T06:53:14.000Z</time>
      </trkpt>
      <trkpt lat="42.646113" lon="0.656084">
        <ele>2763.9</ele>
        <time>1970-01-01T06:53:15.000Z</time>
      </trkpt>
      <trkpt lat="42.646113" lon="0.656094">
        <ele>2762.5</ele>
        <time>1970-01-01T06:53:16.000Z</time>
      </trkpt>
      <trkpt lat="42.646115" lon="0.656107">
        <ele>2761.8</ele>
        <time>1970-01-01T06:53:17.000Z</time>
      </trkpt>
      <trkpt lat="42.646116" lon="0.656125">
        <ele>2761.7</ele>
        <time>1970-01-01T06:53:19.000Z</time>
      </trkpt>
      <trkpt lat="42.646116" lon="0.656139">
        <ele>2760.4</ele>
        <time>1970-01-01T06:53:20.000Z</time>
      </trkpt>
      <trkpt lat="42.646117" lon="0.656154">
        <ele>2760.3</ele>
        <time>1970-01-01T06:53:21.000Z</time>
      </trkpt>
      <trkpt lat="42.646122" lon="0.656175">
        <ele>2760.2</ele>
        <time>1970-01-01T06:53:22.000Z</time>
      </trkpt>
      <trkpt lat="42.646125" lon="0.656188">
        <ele>2759</ele>
        <time>1970-01-01T06:53:23.000Z</time>
      </trkpt>
      <trkpt lat="42.646126" lon="0.656206">
        <ele>2758.9</ele>
        <time>1970-01-01T06:53:24.000Z</time>
      </trkpt>
      <trkpt lat="42.646125" lon="0.656228">
        <ele>2757.7</ele>
        <time>1970-01-01T06:53:26.000Z</time>
      </trkpt>
      <trkpt lat="42.646122" lon="0.656258">
        <ele>2757.6</ele>
        <time>1970-01-01T06:53:27.000Z</time>
      </trkpt>
      <trkpt lat="42.646122" lon="0.656269">
        <ele>2756.4</ele>
        <time>1970-01-01T06:53:28.000Z</time>
      </trkpt>
      <trkpt lat="42.646121" lon="0.65628">
        <ele>2756.4</ele>
        <time>1970-01-01T06:53:29.000Z</time>
      </trkpt>
      <trkpt lat="42.64612" lon="0.656293">
        <ele>2756.3</ele>
        <time>1970-01-01T06:53:30.000Z</time>
      </trkpt>
      <trkpt lat="42.646121" lon="0.656308">
        <ele>2755.1</ele>
        <time>1970-01-01T06:53:31.000Z</time>
      </trkpt>
      <trkpt lat="42.64612" lon="0.656322">
        <ele>2755.1</ele>
        <time>1970-01-01T06:53:32.000Z</time>
      </trkpt>
      <trkpt lat="42.646118" lon="0.656336">
        <ele>2755</ele>
        <time>1970-01-01T06:53:33.000Z</time>
      </trkpt>
      <trkpt lat="42.646116" lon="0.656352">
        <ele>2753.8</ele>
        <time>1970-01-01T06:53:34.000Z</time>
      </trkpt>
      <trkpt lat="42.64611" lon="0.656385">
        <ele>2754.4</ele>
        <time>1970-01-01T06:53:36.000Z</time>
      </trkpt>
      <trkpt lat="42.646106" lon="0.656401">
        <ele>2753.1</ele>
        <time>1970-01-01T06:53:38.000Z</time>
      </trkpt>
      <trkpt lat="42.646103" lon="0.656415">
        <ele>2753</ele>
        <time>1970-01-01T06:53:39.000Z</time>
      </trkpt>
      <trkpt lat="42.646107" lon="0.656443">
        <ele>2751.7</ele>
        <time>1970-01-01T06:53:40.000Z</time>
      </trkpt>
      <trkpt lat="42.646109" lon="0.656454">
        <ele>2751.7</ele>
        <time>1970-01-01T06:53:41.000Z</time>
      </trkpt>
      <trkpt lat="42.64611" lon="0.656465">
        <ele>2751.6</ele>
        <time>1970-01-01T06:53:42.000Z</time>
      </trkpt>
      <trkpt lat="42.646106" lon="0.656491">
        <ele>2750.3</ele>
        <time>1970-01-01T06:53:44.000Z</time>
      </trkpt>
      <trkpt lat="42.6461" lon="0.656507">
        <ele>2750.2</ele>
        <time>1970-01-01T06:53:45.000Z</time>
      </trkpt>
      <trkpt lat="42.646095" lon="0.656524">
        <ele>2749</ele>
        <time>1970-01-01T06:53:46.000Z</time>
      </trkpt>
      <trkpt lat="42.646093" lon="0.656536">
        <ele>2748.9</ele>
        <time>1970-01-01T06:53:47.000Z</time>
      </trkpt>
      <trkpt lat="42.646089" lon="0.65655">
        <ele>2748.8</ele>
        <time>1970-01-01T06:53:48.000Z</time>
      </trkpt>
      <trkpt lat="42.646085" lon="0.656564">
        <ele>2747.6</ele>
        <time>1970-01-01T06:53:49.000Z</time>
      </trkpt>
      <trkpt lat="42.646081" lon="0.656578">
        <ele>2748.1</ele>
        <time>1970-01-01T06:53:50.000Z</time>
      </trkpt>
      <trkpt lat="42.646079" lon="0.656593">
        <ele>2748</ele>
        <time>1970-01-01T06:53:51.000Z</time>
      </trkpt>
      <trkpt lat="42.646078" lon="0.656608">
        <ele>2746.8</ele>
        <time>1970-01-01T06:53:52.000Z</time>
      </trkpt>
      <trkpt lat="42.646076" lon="0.656643">
        <ele>2746.7</ele>
        <time>1970-01-01T06:53:54.000Z</time>
      </trkpt>
      <trkpt lat="42.64608" lon="0.65666">
        <ele>2745.6</ele>
        <time>1970-01-01T06:53:55.000Z</time>
      </trkpt>
      <trkpt lat="42.646083" lon="0.656682">
        <ele>2745</ele>
        <time>1970-01-01T06:53:57.000Z</time>
      </trkpt>
      <trkpt lat="42.646085" lon="0.656699">
        <ele>2743.9</ele>
        <time>1970-01-01T06:53:58.000Z</time>
      </trkpt>
      <trkpt lat="42.646088" lon="0.656718">
        <ele>2743.4</ele>
        <time>1970-01-01T06:53:59.000Z</time>
      </trkpt>
      <trkpt lat="42.646095" lon="0.656747">
        <ele>2742.7</ele>
        <time>1970-01-01T06:54:00.000Z</time>
      </trkpt>
      <trkpt lat="42.6461" lon="0.656758">
        <ele>2742.4</ele>
        <time>1970-01-01T06:54:01.000Z</time>
      </trkpt>
      <trkpt lat="42.646104" lon="0.656769">
        <ele>2742.2</ele>
        <time>1970-01-01T06:54:02.000Z</time>
      </trkpt>
      <trkpt lat="42.646113" lon="0.656778">
        <ele>2741.8</ele>
        <time>1970-01-01T06:54:03.000Z</time>
      </trkpt>
      <trkpt lat="42.646123" lon="0.656786">
        <ele>2741.4</ele>
        <time>1970-01-01T06:54:04.000Z</time>
      </trkpt>
      <trkpt lat="42.646137" lon="0.656787">
        <ele>2741</ele>
        <time>1970-01-01T06:54:06.000Z</time>
      </trkpt>
      <trkpt lat="42.646156" lon="0.65679">
        <ele>2740.4</ele>
        <time>1970-01-01T06:54:07.000Z</time>
      </trkpt>
      <trkpt lat="42.646169" lon="0.656795">
        <ele>2740</ele>
        <time>1970-01-01T06:54:08.000Z</time>
      </trkpt>
      <trkpt lat="42.646182" lon="0.6568">
        <ele>2739.5</ele>
        <time>1970-01-01T06:54:09.000Z</time>
      </trkpt>
      <trkpt lat="42.646197" lon="0.656803">
        <ele>2739.1</ele>
        <time>1970-01-01T06:54:10.000Z</time>
      </trkpt>
      <trkpt lat="42.646215" lon="0.656798">
        <ele>2738.5</ele>
        <time>1970-01-01T06:54:11.000Z</time>
      </trkpt>
      <trkpt lat="42.64623" lon="0.656795">
        <ele>2738.1</ele>
        <time>1970-01-01T06:54:12.000Z</time>
      </trkpt>
      <trkpt lat="42.646251" lon="0.656803">
        <ele>2737.5</ele>
        <time>1970-01-01T06:54:14.000Z</time>
      </trkpt>
      <trkpt lat="42.646257" lon="0.65681">
        <ele>2737.3</ele>
        <time>1970-01-01T06:54:15.000Z</time>
      </trkpt>
      <trkpt lat="42.646263" lon="0.656817">
        <ele>2737.1</ele>
        <time>1970-01-01T06:54:16.000Z</time>
      </trkpt>
      <trkpt lat="42.646272" lon="0.656827">
        <ele>2736.8</ele>
        <time>1970-01-01T06:54:17.000Z</time>
      </trkpt>
      <trkpt lat="42.646282" lon="0.656832">
        <ele>2736.5</ele>
        <time>1970-01-01T06:54:18.000Z</time>
      </trkpt>
      <trkpt lat="42.646291" lon="0.656829">
        <ele>2736.3</ele>
        <time>1970-01-01T06:54:19.000Z</time>
      </trkpt>
      <trkpt lat="42.646303" lon="0.656815">
        <ele>2735.8</ele>
        <time>1970-01-01T06:54:21.000Z</time>
      </trkpt>
      <trkpt lat="42.646304" lon="0.656808">
        <ele>2735.7</ele>
        <time>1970-01-01T06:54:22.000Z</time>
      </trkpt>
      <trkpt lat="42.646302" lon="0.656805">
        <ele>2735.6</ele>
        <time>1970-01-01T06:54:23.000Z</time>
      </trkpt>
      <trkpt lat="42.646298" lon="0.656806">
        <ele>2735.5</ele>
        <time>1970-01-01T06:54:24.000Z</time>
      </trkpt>
      <trkpt lat="42.646296" lon="0.656806">
        <ele>2735.5</ele>
        <time>1970-01-01T06:54:25.000Z</time>
      </trkpt>
      <trkpt lat="42.646295" lon="0.656806">
        <ele>2735.4</ele>
        <time>1970-01-01T06:54:27.000Z</time>
      </trkpt>
      <trkpt lat="42.646295" lon="0.656807">
        <ele>2735.4</ele>
        <time>1970-01-01T06:54:28.000Z</time>
      </trkpt>
      <trkpt lat="42.646296" lon="0.6568">
        <ele>2735.3</ele>
        <time>1970-01-01T06:54:29.000Z</time>
      </trkpt>
      <trkpt lat="42.646295" lon="0.65679">
        <ele>2735.1</ele>
        <time>1970-01-01T06:54:30.000Z</time>
      </trkpt>
      <trkpt lat="42.646294" lon="0.656788">
        <ele>2735</ele>
        <time>1970-01-01T06:54:32.000Z</time>
      </trkpt>
      <trkpt lat="42.646295" lon="0.656789">
        <ele>2735</ele>
        <time>1970-01-01T06:54:33.000Z</time>
      </trkpt>
      <trkpt lat="42.646294" lon="0.65679">
        <ele>2735</ele>
        <time>1970-01-01T06:54:35.000Z</time>
      </trkpt>
      <trkpt lat="42.646293" lon="0.656791">
        <ele>2734.9</ele>
        <time>1970-01-01T06:54:36.000Z</time>
      </trkpt>
      <trkpt lat="42.646293" lon="0.656791">
        <ele>2734.9</ele>
        <time>1970-01-01T06:54:37.000Z</time>
      </trkpt>
      <trkpt lat="42.646293" lon="0.656792">
        <ele>2734.9</ele>
        <time>1970-01-01T06:54:38.000Z</time>
      </trkpt>
      <trkpt lat="42.646292" lon="0.656794">
        <ele>2734.9</ele>
        <time>1970-01-01T06:54:39.000Z</time>
      </trkpt>
      <trkpt lat="42.64629" lon="0.656796">
        <ele>2734.8</ele>
        <time>1970-01-01T06:54:40.000Z</time>
      </trkpt>
      <trkpt lat="42.646288" lon="0.656795">
        <ele>2734.7</ele>
        <time>1970-01-01T06:54:41.000Z</time>
      </trkpt>
      <trkpt lat="42.646288" lon="0.656795">
        <ele>2734.7</ele>
        <time>1970-01-01T06:54:42.000Z</time>
      </trkpt>
      <trkpt lat="42.646288" lon="0.656794">
        <ele>2734.7</ele>
        <time>1970-01-01T06:54:43.000Z</time>
      </trkpt>
      <trkpt lat="42.646288" lon="0.656795">
        <ele>2734.7</ele>
        <time>1970-01-01T06:54:44.000Z</time>
      </trkpt>
      <trkpt lat="42.646287" lon="0.656795">
        <ele>2734.7</ele>
        <time>1970-01-01T06:54:45.000Z</time>
      </trkpt>
      <trkpt lat="42.646286" lon="0.656795">
        <ele>2734.7</ele>
        <time>1970-01-01T06:54:46.000Z</time>
      </trkpt>
      <trkpt lat="42.646285" lon="0.656794">
        <ele>2734.6</ele>
        <time>1970-01-01T06:54:47.000Z</time>
      </trkpt>
      <trkpt lat="42.646286" lon="0.656792">
        <ele>2734.6</ele>
        <time>1970-01-01T06:54:48.000Z</time>
      </trkpt>
      <trkpt lat="42.646287" lon="0.65679">
        <ele>2734.5</ele>
        <time>1970-01-01T06:54:49.000Z</time>
      </trkpt>
      <trkpt lat="42.646286" lon="0.656791">
        <ele>2734.5</ele>
        <time>1970-01-01T06:54:50.000Z</time>
      </trkpt>
      <trkpt lat="42.646286" lon="0.656792">
        <ele>2734.5</ele>
        <time>1970-01-01T06:54:52.000Z</time>
      </trkpt>
      <trkpt lat="42.646284" lon="0.656795">
        <ele>2734.4</ele>
        <time>1970-01-01T06:54:53.000Z</time>
      </trkpt>
      <trkpt lat="42.646283" lon="0.6568">
        <ele>2734.3</ele>
        <time>1970-01-01T06:54:54.000Z</time>
      </trkpt>
      <trkpt lat="42.646282" lon="0.656802">
        <ele>2734.2</ele>
        <time>1970-01-01T06:54:55.000Z</time>
      </trkpt>
      <trkpt lat="42.646281" lon="0.656805">
        <ele>2734.2</ele>
        <time>1970-01-01T06:54:56.000Z</time>
      </trkpt>
      <trkpt lat="42.64628" lon="0.656807">
        <ele>2734.1</ele>
        <time>1970-01-01T06:54:57.000Z</time>
      </trkpt>
      <trkpt lat="42.646278" lon="0.656811">
        <ele>2734</ele>
        <time>1970-01-01T06:54:58.000Z</time>
      </trkpt>
      <trkpt lat="42.646277" lon="0.656812">
        <ele>2734</ele>
        <time>1970-01-01T06:54:59.000Z</time>
      </trkpt>
      <trkpt lat="42.646277" lon="0.656813">
        <ele>2734</ele>
        <time>1970-01-01T06:55:00.000Z</time>
      </trkpt>
      <trkpt lat="42.646276" lon="0.656814">
        <ele>2734</ele>
        <time>1970-01-01T06:55:01.000Z</time>
      </trkpt>
      <trkpt lat="42.646276" lon="0.656814">
        <ele>2734</ele>
        <time>1970-01-01T06:55:02.000Z</time>
      </trkpt>
      <trkpt lat="42.646276" lon="0.656814">
        <ele>2734</ele>
        <time>1970-01-01T06:55:03.000Z</time>
      </trkpt>
      <trkpt lat="42.646276" lon="0.656815">
        <ele>2733.9</ele>
        <time>1970-01-01T06:55:05.000Z</time>
      </trkpt>
      <trkpt lat="42.646276" lon="0.656816">
        <ele>2733.9</ele>
        <time>1970-01-01T06:55:06.000Z</time>
      </trkpt>
      <trkpt lat="42.646276" lon="0.656818">
        <ele>2733.9</ele>
        <time>1970-01-01T06:55:07.000Z</time>
      </trkpt>
      <trkpt lat="42.646277" lon="0.656821">
        <ele>2733.8</ele>
        <time>1970-01-01T06:55:08.000Z</time>
      </trkpt>
      <trkpt lat="42.646277" lon="0.656823">
        <ele>2733.8</ele>
        <time>1970-01-01T06:55:09.000Z</time>
      </trkpt>
      <trkpt lat="42.646278" lon="0.656824">
        <ele>2733.7</ele>
        <time>1970-01-01T06:55:10.000Z</time>
      </trkpt>
      <trkpt lat="42.646278" lon="0.656826">
        <ele>2733.7</ele>
        <time>1970-01-01T06:55:11.000Z</time>
      </trkpt>
      <trkpt lat="42.646279" lon="0.65683">
        <ele>2733.6</ele>
        <time>1970-01-01T06:55:12.000Z</time>
      </trkpt>
      <trkpt lat="42.646281" lon="0.656833">
        <ele>2733.5</ele>
        <time>1970-01-01T06:55:13.000Z</time>
      </trkpt>
      <trkpt lat="42.646282" lon="0.656836">
        <ele>2733.5</ele>
        <time>1970-01-01T06:55:14.000Z</time>
      </trkpt>
      <trkpt lat="42.646283" lon="0.656841">
        <ele>2733.3</ele>
        <time>1970-01-01T06:55:15.000Z</time>
      </trkpt>
      <trkpt lat="42.646283" lon="0.656847">
        <ele>2733.2</ele>
        <time>1970-01-01T06:55:16.000Z</time>
      </trkpt>
      <trkpt lat="42.646283" lon="0.656852">
        <ele>2733.1</ele>
        <time>1970-01-01T06:55:17.000Z</time>
      </trkpt>
      <trkpt lat="42.646283" lon="0.656856">
        <ele>2733</ele>
        <time>1970-01-01T06:55:18.000Z</time>
      </trkpt>
      <trkpt lat="42.646283" lon="0.656859">
        <ele>2733</ele>
        <time>1970-01-01T06:55:19.000Z</time>
      </trkpt>
      <trkpt lat="42.646283" lon="0.656862">
        <ele>2732.9</ele>
        <time>1970-01-01T06:55:20.000Z</time>
      </trkpt>
      <trkpt lat="42.646283" lon="0.656865">
        <ele>2732.9</ele>
        <time>1970-01-01T06:55:21.000Z</time>
      </trkpt>
      <trkpt lat="42.646283" lon="0.656866">
        <ele>2732.8</ele>
        <time>1970-01-01T06:55:22.000Z</time>
      </trkpt>
      <trkpt lat="42.646282" lon="0.656866">
        <ele>2732.8</ele>
        <time>1970-01-01T06:55:23.000Z</time>
      </trkpt>
      <trkpt lat="42.646281" lon="0.656865">
        <ele>2732.8</ele>
        <time>1970-01-01T06:55:24.000Z</time>
      </trkpt>
      <trkpt lat="42.64628" lon="0.656865">
        <ele>2732.7</ele>
        <time>1970-01-01T06:55:25.000Z</time>
      </trkpt>
      <trkpt lat="42.64628" lon="0.656865">
        <ele>2732.7</ele>
        <time>1970-01-01T06:55:26.000Z</time>
      </trkpt>
      <trkpt lat="42.64628" lon="0.656865">
        <ele>2732.7</ele>
        <time>1970-01-01T06:55:27.000Z</time>
      </trkpt>
      <trkpt lat="42.646279" lon="0.656866">
        <ele>2732.7</ele>
        <time>1970-01-01T06:55:28.000Z</time>
      </trkpt>
      <trkpt lat="42.646279" lon="0.656868">
        <ele>2732.7</ele>
        <time>1970-01-01T06:55:29.000Z</time>
      </trkpt>
      <trkpt lat="42.646279" lon="0.656867">
        <ele>2732.6</ele>
        <time>1970-01-01T06:55:31.000Z</time>
      </trkpt>
      <trkpt lat="42.646278" lon="0.656868">
        <ele>2732.6</ele>
        <time>1970-01-01T06:55:32.000Z</time>
      </trkpt>
      <trkpt lat="42.646276" lon="0.656866">
        <ele>2732.5</ele>
        <time>1970-01-01T06:55:33.000Z</time>
      </trkpt>
      <trkpt lat="42.646275" lon="0.65686">
        <ele>2732.4</ele>
        <time>1970-01-01T06:55:34.000Z</time>
      </trkpt>
      <trkpt lat="42.646275" lon="0.656856">
        <ele>2732.3</ele>
        <time>1970-01-01T06:55:35.000Z</time>
      </trkpt>
      <trkpt lat="42.646275" lon="0.656852">
        <ele>2732.2</ele>
        <time>1970-01-01T06:55:36.000Z</time>
      </trkpt>
      <trkpt lat="42.646275" lon="0.656848">
        <ele>2732.2</ele>
        <time>1970-01-01T06:55:37.000Z</time>
      </trkpt>
      <trkpt lat="42.646275" lon="0.656845">
        <ele>2732.1</ele>
        <time>1970-01-01T06:55:38.000Z</time>
      </trkpt>
      <trkpt lat="42.646275" lon="0.656842">
        <ele>2732</ele>
        <time>1970-01-01T06:55:39.000Z</time>
      </trkpt>
      <trkpt lat="42.646274" lon="0.656839">
        <ele>2732</ele>
        <time>1970-01-01T06:55:40.000Z</time>
      </trkpt>
      <trkpt lat="42.646274" lon="0.656838">
        <ele>2732</ele>
        <time>1970-01-01T06:55:41.000Z</time>
      </trkpt>
      <trkpt lat="42.646273" lon="0.656837">
        <ele>2731.9</ele>
        <time>1970-01-01T06:55:42.000Z</time>
      </trkpt>
      <trkpt lat="42.646272" lon="0.656836">
        <ele>2731.9</ele>
        <time>1970-01-01T06:55:43.000Z</time>
      </trkpt>
      <trkpt lat="42.646272" lon="0.656834">
        <ele>2731.8</ele>
        <time>1970-01-01T06:55:45.000Z</time>
      </trkpt>
      <trkpt lat="42.646272" lon="0.656833">
        <ele>2731.8</ele>
        <time>1970-01-01T06:55:46.000Z</time>
      </trkpt>
      <trkpt lat="42.646272" lon="0.656831">
        <ele>2731.8</ele>
        <time>1970-01-01T06:55:47.000Z</time>
      </trkpt>
      <trkpt lat="42.646272" lon="0.656831">
        <ele>2731.8</ele>
        <time>1970-01-01T06:55:48.000Z</time>
      </trkpt>
      <trkpt lat="42.646273" lon="0.65683">
        <ele>2731.7</ele>
        <time>1970-01-01T06:55:49.000Z</time>
      </trkpt>
      <trkpt lat="42.646273" lon="0.656829">
        <ele>2731.7</ele>
        <time>1970-01-01T06:55:50.000Z</time>
      </trkpt>
      <trkpt lat="42.646274" lon="0.656829">
        <ele>2731.7</ele>
        <time>1970-01-01T06:55:51.000Z</time>
      </trkpt>
      <trkpt lat="42.646276" lon="0.656829">
        <ele>2731.6</ele>
        <time>1970-01-01T06:55:52.000Z</time>
      </trkpt>
      <trkpt lat="42.646277" lon="0.65683">
        <ele>2731.6</ele>
        <time>1970-01-01T06:55:53.000Z</time>
      </trkpt>
      <trkpt lat="42.646278" lon="0.656831">
        <ele>2731.6</ele>
        <time>1970-01-01T06:55:55.000Z</time>
      </trkpt>
      <trkpt lat="42.646278" lon="0.656832">
        <ele>2731.5</ele>
        <time>1970-01-01T06:55:56.000Z</time>
      </trkpt>
      <trkpt lat="42.646279" lon="0.656833">
        <ele>2731.5</ele>
        <time>1970-01-01T06:55:57.000Z</time>
      </trkpt>
      <trkpt lat="42.646279" lon="0.656833">
        <ele>2731.5</ele>
        <time>1970-01-01T06:55:58.000Z</time>
      </trkpt>
      <trkpt lat="42.646279" lon="0.656834">
        <ele>2731.5</ele>
        <time>1970-01-01T06:55:59.000Z</time>
      </trkpt>
      <trkpt lat="42.64628" lon="0.656834">
        <ele>2731.5</ele>
        <time>1970-01-01T06:56:00.000Z</time>
      </trkpt>
      <trkpt lat="42.64628" lon="0.656835">
        <ele>2731.4</ele>
        <time>1970-01-01T06:56:01.000Z</time>
      </trkpt>
      <trkpt lat="42.64628" lon="0.656835">
        <ele>2731.4</ele>
        <time>1970-01-01T06:56:02.000Z</time>
      </trkpt>
      <trkpt lat="42.64628" lon="0.656835">
        <ele>2731.4</ele>
        <time>1970-01-01T06:56:03.000Z</time>
      </trkpt>
      <trkpt lat="42.64628" lon="0.656836">
        <ele>2731.4</ele>
        <time>1970-01-01T06:56:04.000Z</time>
      </trkpt>
      <trkpt lat="42.646281" lon="0.656836">
        <ele>2731.4</ele>
        <time>1970-01-01T06:56:05.000Z</time>
      </trkpt>
      <trkpt lat="42.646281" lon="0.656836">
        <ele>2731.4</ele>
        <time>1970-01-01T06:56:06.000Z</time>
      </trkpt>
      <trkpt lat="42.646281" lon="0.656836">
        <ele>2731.4</ele>
        <time>1970-01-01T06:56:07.000Z</time>
      </trkpt>
      <trkpt lat="42.646282" lon="0.656836">
        <ele>2731.4</ele>
        <time>1970-01-01T06:56:08.000Z</time>
      </trkpt>
      <trkpt lat="42.646282" lon="0.656836">
        <ele>2731.4</ele>
        <time>1970-01-01T06:56:09.000Z</time>
      </trkpt>
      <trkpt lat="42.646282" lon="0.656835">
        <ele>2731.3</ele>
        <time>1970-01-01T06:56:10.000Z</time>
      </trkpt>
      <trkpt lat="42.64628" lon="0.656837">
        <ele>2731.3</ele>
        <time>1970-01-01T06:56:11.000Z</time>
      </trkpt>
      <trkpt lat="42.646279" lon="0.656838">
        <ele>2731.2</ele>
        <time>1970-01-01T06:56:12.000Z</time>
      </trkpt>
      <trkpt lat="42.646279" lon="0.656838">
        <ele>2731.2</ele>
        <time>1970-01-01T06:56:13.000Z</time>
      </trkpt>
      <trkpt lat="42.646278" lon="0.656839">
        <ele>2731.2</ele>
        <time>1970-01-01T06:56:14.000Z</time>
      </trkpt>
      <trkpt lat="42.646278" lon="0.656839">
        <ele>2731.2</ele>
        <time>1970-01-01T06:56:15.000Z</time>
      </trkpt>
      <trkpt lat="42.646278" lon="0.656839">
        <ele>2731.2</ele>
        <time>1970-01-01T06:56:16.000Z</time>
      </trkpt>
      <trkpt lat="42.646278" lon="0.656839">
        <ele>2731.2</ele>
        <time>1970-01-01T06:56:17.000Z</time>
      </trkpt>
      <trkpt lat="42.646278" lon="0.65684">
        <ele>2731.2</ele>
        <time>1970-01-01T06:56:18.000Z</time>
      </trkpt>
      <trkpt lat="42.646278" lon="0.656841">
        <ele>2731.2</ele>
        <time>1970-01-01T06:56:19.000Z</time>
      </trkpt>
      <trkpt lat="42.646278" lon="0.656842">
        <ele>2731.1</ele>
        <time>1970-01-01T06:56:20.000Z</time>
      </trkpt>
      <trkpt lat="42.646278" lon="0.656842">
        <ele>2731.1</ele>
        <time>1970-01-01T06:56:21.000Z</time>
      </trkpt>
      <trkpt lat="42.646279" lon="0.656841">
        <ele>2731.1</ele>
        <time>1970-01-01T06:56:22.000Z</time>
      </trkpt>
      <trkpt lat="42.646279" lon="0.656841">
        <ele>2731.1</ele>
        <time>1970-01-01T06:56:23.000Z</time>
      </trkpt>
      <trkpt lat="42.646279" lon="0.656841">
        <ele>2731.1</ele>
        <time>1970-01-01T06:56:24.000Z</time>
      </trkpt>
      <trkpt lat="42.646279" lon="0.65684">
        <ele>2731.1</ele>
        <time>1970-01-01T06:56:25.000Z</time>
      </trkpt>
      <trkpt lat="42.646279" lon="0.65684">
        <ele>2731.1</ele>
        <time>1970-01-01T06:56:26.000Z</time>
      </trkpt>
      <trkpt lat="42.646279" lon="0.65684">
        <ele>2731.1</ele>
        <time>1970-01-01T06:56:27.000Z</time>
      </trkpt>
      <trkpt lat="42.646279" lon="0.65684">
        <ele>2731.1</ele>
        <time>1970-01-01T06:56:28.000Z</time>
      </trkpt>
      <trkpt lat="42.646279" lon="0.65684">
        <ele>2731.1</ele>
        <time>1970-01-01T06:56:29.000Z</time>
      </trkpt>
      <trkpt lat="42.646279" lon="0.65684">
        <ele>2731.1</ele>
        <time>1970-01-01T06:56:30.000Z</time>
      </trkpt>
      <trkpt lat="42.646279" lon="0.65684">
        <ele>2731.1</ele>
        <time>1970-01-01T06:56:31.000Z</time>
      </trkpt>
      <trkpt lat="42.646279" lon="0.65684">
        <ele>2731.1</ele>
        <time>1970-01-01T06:56:32.000Z</time>
      </trkpt>
      <trkpt lat="42.646279" lon="0.65684">
        <ele>2731.1</ele>
        <time>1970-01-01T06:56:33.000Z</time>
      </trkpt>
      <trkpt lat="42.646279" lon="0.65684">
        <ele>2731.1</ele>
        <time>1970-01-01T06:56:34.000Z</time>
      </trkpt>
      <trkpt lat="42.646279" lon="0.65684">
        <ele>2731.1</ele>
        <time>1970-01-01T06:56:35.000Z</time>
      </trkpt>
      <trkpt lat="42.646279" lon="0.65684">
        <ele>2731.1</ele>
        <time>1970-01-01T06:56:36.000Z</time>
      </trkpt>
      <trkpt lat="42.646279" lon="0.65684">
        <ele>2731.1</ele>
        <time>1970-01-01T06:56:37.000Z</time>
      </trkpt>
      <trkpt lat="42.646279" lon="0.65684">
        <ele>2731.1</ele>
        <time>1970-01-01T06:56:38.000Z</time>
      </trkpt>
      <trkpt lat="42.646279" lon="0.65684">
        <ele>2731.1</ele>
        <time>1970-01-01T06:56:39.000Z</time>
      </trkpt>
      <trkpt lat="42.646279" lon="0.65684">
        <ele>2731.1</ele>
        <time>1970-01-01T06:56:40.000Z</time>
      </trkpt>
      <trkpt lat="42.646279" lon="0.65684">
        <ele>2731.1</ele>
        <time>1970-01-01T06:56:41.000Z</time>
      </trkpt>
      <trkpt lat="42.646279" lon="0.65684">
        <ele>2731.1</ele>
        <time>1970-01-01T06:56:42.000Z</time>
      </trkpt>
      <trkpt lat="42.646279" lon="0.65684">
        <ele>2731.1</ele>
        <time>1970-01-01T06:56:43.000Z</time>
      </trkpt>
      <trkpt lat="42.646279" lon="0.65684">
        <ele>2731.1</ele>
        <time>1970-01-01T06:56:44.000Z</time>
      </trkpt>
      <trkpt lat="42.646279" lon="0.65684">
        <ele>2731.1</ele>
        <time>1970-01-01T06:56:45.000Z</time>
      </trkpt>
      <trkpt lat="42.646279" lon="0.65684">
        <ele>2731.1</ele>
        <time>1970-01-01T06:56:46.000Z</time>
      </trkpt>
      <trkpt lat="42.646279" lon="0.65684">
        <ele>2731.1</ele>
        <time>1970-01-01T06:56:47.000Z</time>
      </trkpt>
      <trkpt lat="42.646279" lon="0.65684">
        <ele>2731.1</ele>
        <time>1970-01-01T06:56:48.000Z</time>
      </trkpt>
      <trkpt lat="42.646279" lon="0.65684">
        <ele>2731.1</ele>
        <time>1970-01-01T06:56:49.000Z</time>
      </trkpt>
      <trkpt lat="42.646279" lon="0.65684">
        <ele>2731.1</ele>
        <time>1970-01-01T06:56:50.000Z</time>
      </trkpt>
      <trkpt lat="42.646279" lon="0.65684">
        <ele>2731.1</ele>
        <time>1970-01-01T06:56:51.000Z</time>
      </trkpt>
      <trkpt lat="42.646279" lon="0.65684">
        <ele>2731.1</ele>
        <time>1970-01-01T06:56:52.000Z</time>
      </trkpt>
      <trkpt lat="42.646279" lon="0.65684">
        <ele>2731.1</ele>
        <time>1970-01-01T06:56:53.000Z</time>
      </trkpt>
      <trkpt lat="42.646279" lon="0.65684">
        <ele>2731.1</ele>
        <time>1970-01-01T06:56:54.000Z</time>
      </trkpt>
      <trkpt lat="42.646279" lon="0.65684">
        <ele>2731.1</ele>
        <time>1970-01-01T06:56:55.000Z</time>
      </trkpt>
      <trkpt lat="42.646279" lon="0.65684">
        <ele>2731.1</ele>
        <time>1970-01-01T06:56:56.000Z</time>
      </trkpt>
      <trkpt lat="42.646279" lon="0.65684">
        <ele>2731.1</ele>
        <time>1970-01-01T06:56:57.000Z</time>
      </trkpt>
      <trkpt lat="42.646279" lon="0.65684">
        <ele>2731.1</ele>
        <time>1970-01-01T06:56:58.000Z</time>
      </trkpt>
      <trkpt lat="42.646279" lon="0.65684">
        <ele>2731.1</ele>
        <time>1970-01-01T06:56:59.000Z</time>
      </trkpt>
      <trkpt lat="42.646279" lon="0.65684">
        <ele>2731.1</ele>
        <time>1970-01-01T06:57:00.000Z</time>
      </trkpt>
      <trkpt lat="42.646279" lon="0.65684">
        <ele>2731.1</ele>
        <time>1970-01-01T06:57:01.000Z</time>
      </trkpt>
      <trkpt lat="42.646279" lon="0.65684">
        <ele>2731.1</ele>
        <time>1970-01-01T06:57:02.000Z</time>
      </trkpt>
      <trkpt lat="42.646279" lon="0.65684">
        <ele>2731.1</ele>
        <time>1970-01-01T06:57:03.000Z</time>
      </trkpt>
      <trkpt lat="42.646279" lon="0.65684">
        <ele>2731.1</ele>
        <time>1970-01-01T06:57:04.000Z</time>
      </trkpt>
      <trkpt lat="42.646279" lon="0.65684">
        <ele>2731.1</ele>
        <time>1970-01-01T06:57:05.000Z</time>
      </trkpt>
      <trkpt lat="42.646279" lon="0.656841">
        <ele>2731.1</ele>
        <time>1970-01-01T06:57:06.000Z</time>
      </trkpt>
      <trkpt lat="42.646279" lon="0.656841">
        <ele>2731.1</ele>
        <time>1970-01-01T06:57:07.000Z</time>
      </trkpt>
      <trkpt lat="42.646279" lon="0.656841">
        <ele>2731.1</ele>
        <time>1970-01-01T06:57:08.000Z</time>
      </trkpt>
      <trkpt lat="42.646279" lon="0.656841">
        <ele>2731.1</ele>
        <time>1970-01-01T06:57:09.000Z</time>
      </trkpt>
      <trkpt lat="42.646279" lon="0.656841">
        <ele>2731.1</ele>
        <time>1970-01-01T06:57:10.000Z</time>
      </trkpt>
      <trkpt lat="42.646279" lon="0.656841">
        <ele>2731.1</ele>
        <time>1970-01-01T06:57:11.000Z</time>
      </trkpt>
      <trkpt lat="42.646279" lon="0.656841">
        <ele>2731.1</ele>
        <time>1970-01-01T06:57:12.000Z</time>
      </trkpt>
      <trkpt lat="42.646279" lon="0.656841">
        <ele>2731.1</ele>
        <time>1970-01-01T06:57:13.000Z</time>
      </trkpt>
      <trkpt lat="42.646279" lon="0.656841">
        <ele>2731.1</ele>
        <time>1970-01-01T06:57:14.000Z</time>
      </trkpt>
      <trkpt lat="42.646279" lon="0.656841">
        <ele>2731.1</ele>
        <time>1970-01-01T06:57:15.000Z</time>
      </trkpt>
      <trkpt lat="42.646279" lon="0.656841">
        <ele>2731.1</ele>
        <time>1970-01-01T06:57:16.000Z</time>
      </trkpt>
      <trkpt lat="42.646279" lon="0.656841">
        <ele>2731.1</ele>
        <time>1970-01-01T06:57:17.000Z</time>
      </trkpt>
      <trkpt lat="42.646279" lon="0.656841">
        <ele>2731.1</ele>
        <time>1970-01-01T06:57:18.000Z</time>
      </trkpt>
      <trkpt lat="42.646279" lon="0.656841">
        <ele>2731.1</ele>
        <time>1970-01-01T06:57:19.000Z</time>
      </trkpt>
      <trkpt lat="42.646279" lon="0.656841">
        <ele>2731.1</ele>
        <time>1970-01-01T06:57:20.000Z</time>
      </trkpt>
      <trkpt lat="42.646279" lon="0.656841">
        <ele>2731.1</ele>
        <time>1970-01-01T06:57:21.000Z</time>
      </trkpt>
      <trkpt lat="42.646279" lon="0.656841">
        <ele>2731.1</ele>
        <time>1970-01-01T06:57:22.000Z</time>
      </trkpt>
      <trkpt lat="42.646279" lon="0.656841">
        <ele>2731.1</ele>
        <time>1970-01-01T06:57:23.000Z</time>
      </trkpt>
      <trkpt lat="42.646279" lon="0.656841">
        <ele>2731.1</ele>
        <time>1970-01-01T06:57:24.000Z</time>
      </trkpt>
      <trkpt lat="42.646279" lon="0.656841">
        <ele>2731.1</ele>
        <time>1970-01-01T06:57:25.000Z</time>
      </trkpt>
      <trkpt lat="42.646279" lon="0.656841">
        <ele>2731.1</ele>
        <time>1970-01-01T06:57:26.000Z</time>
      </trkpt>
      <trkpt lat="42.646279" lon="0.656841">
        <ele>2731.1</ele>
        <time>1970-01-01T06:57:27.000Z</time>
      </trkpt>
      <trkpt lat="42.646279" lon="0.656841">
        <ele>2731.1</ele>
        <time>1970-01-01T06:57:28.000Z</time>
      </trkpt>
      <trkpt lat="42.646279" lon="0.656841">
        <ele>2731.1</ele>
        <time>1970-01-01T06:57:29.000Z</time>
      </trkpt>
      <trkpt lat="42.646279" lon="0.656841">
        <ele>2731.1</ele>
        <time>1970-01-01T06:57:30.000Z</time>
      </trkpt>
      <trkpt lat="42.646279" lon="0.656841">
        <ele>2731.1</ele>
        <time>1970-01-01T06:57:31.000Z</time>
      </trkpt>
      <trkpt lat="42.646279" lon="0.656841">
        <ele>2731.1</ele>
        <time>1970-01-01T06:57:32.000Z</time>
      </trkpt>
      <trkpt lat="42.646279" lon="0.656841">
        <ele>2731.1</ele>
        <time>1970-01-01T06:57:33.000Z</time>
      </trkpt>
      <trkpt lat="42.646279" lon="0.656841">
        <ele>2731.1</ele>
        <time>1970-01-01T06:57:34.000Z</time>
      </trkpt>
      <trkpt lat="42.646279" lon="0.656841">
        <ele>2731.1</ele>
        <time>1970-01-01T06:57:35.000Z</time>
      </trkpt>
      <trkpt lat="42.646279" lon="0.656841">
        <ele>2731.1</ele>
        <time>1970-01-01T06:57:36.000Z</time>
      </trkpt>
      <trkpt lat="42.646279" lon="0.656841">
        <ele>2731.1</ele>
        <time>1970-01-01T06:57:37.000Z</time>
      </trkpt>
      <trkpt lat="42.646279" lon="0.656841">
        <ele>2731.1</ele>
        <time>1970-01-01T06:57:38.000Z</time>
      </trkpt>
      <trkpt lat="42.646279" lon="0.656841">
        <ele>2731.1</ele>
        <time>1970-01-01T06:57:39.000Z</time>
      </trkpt>
      <trkpt lat="42.646279" lon="0.656841">
        <ele>2731.1</ele>
        <time>1970-01-01T06:57:40.000Z</time>
      </trkpt>
      <trkpt lat="42.646279" lon="0.656841">
        <ele>2731.1</ele>
        <time>1970-01-01T06:57:41.000Z</time>
      </trkpt>
      <trkpt lat="42.646279" lon="0.656841">
        <ele>2731.1</ele>
        <time>1970-01-01T06:57:42.000Z</time>
      </trkpt>
      <trkpt lat="42.646279" lon="0.656841">
        <ele>2731.1</ele>
        <time>1970-01-01T06:57:43.000Z</time>
      </trkpt>
      <trkpt lat="42.646279" lon="0.656841">
        <ele>2731.1</ele>
        <time>1970-01-01T06:57:44.000Z</time>
      </trkpt>
      <trkpt lat="42.646279" lon="0.656841">
        <ele>2731.1</ele>
        <time>1970-01-01T06:57:45.000Z</time>
      </trkpt>
      <trkpt lat="42.646279" lon="0.656841">
        <ele>2731.1</ele>
        <time>1970-01-01T06:57:46.000Z</time>
      </trkpt>
      <trkpt lat="42.646279" lon="0.656841">
        <ele>2731.1</ele>
        <time>1970-01-01T06:57:47.000Z</time>
      </trkpt>
      <trkpt lat="42.646279" lon="0.656841">
        <ele>2731.1</ele>
        <time>1970-01-01T06:57:48.000Z</time>
      </trkpt>
      <trkpt lat="42.646279" lon="0.656841">
        <ele>2731.1</ele>
        <time>1970-01-01T06:57:49.000Z</time>
      </trkpt>
      <trkpt lat="42.646279" lon="0.656841">
        <ele>2731.1</ele>
        <time>1970-01-01T06:57:50.000Z</time>
      </trkpt>
      <trkpt lat="42.646279" lon="0.656841">
        <ele>2731.1</ele>
        <time>1970-01-01T06:57:51.000Z</time>
      </trkpt>
      <trkpt lat="42.646279" lon="0.656841">
        <ele>2731.1</ele>
        <time>1970-01-01T06:57:52.000Z</time>
      </trkpt>
      <trkpt lat="42.646279" lon="0.656841">
        <ele>2731.1</ele>
        <time>1970-01-01T06:57:53.000Z</time>
      </trkpt>
      <trkpt lat="42.646279" lon="0.656841">
        <ele>2731.1</ele>
        <time>1970-01-01T06:57:54.000Z</time>
      </trkpt>
      <trkpt lat="42.646279" lon="0.656841">
        <ele>2731.1</ele>
        <time>1970-01-01T06:57:55.000Z</time>
      </trkpt>
      <trkpt lat="42.646279" lon="0.656841">
        <ele>2731.1</ele>
        <time>1970-01-01T06:57:56.000Z</time>
      </trkpt>
      <trkpt lat="42.646279" lon="0.656841">
        <ele>2731.1</ele>
        <time>1970-01-01T06:57:57.000Z</time>
      </trkpt>
      <trkpt lat="42.646279" lon="0.656841">
        <ele>2731.1</ele>
        <time>1970-01-01T06:57:58.000Z</time>
      </trkpt>
      <trkpt lat="42.646279" lon="0.656841">
        <ele>2731.1</ele>
        <time>1970-01-01T06:57:59.000Z</time>
      </trkpt>
      <trkpt lat="42.646279" lon="0.656841">
        <ele>2731.1</ele>
        <time>1970-01-01T06:58:00.000Z</time>
      </trkpt>
      <trkpt lat="42.646279" lon="0.656841">
        <ele>2731.1</ele>
        <time>1970-01-01T06:58:01.000Z</time>
      </trkpt>
      <trkpt lat="42.646279" lon="0.656841">
        <ele>2731.1</ele>
        <time>1970-01-01T06:58:02.000Z</time>
      </trkpt>
      <trkpt lat="42.646279" lon="0.656842">
        <ele>2731.1</ele>
        <time>1970-01-01T06:58:03.000Z</time>
      </trkpt>
      <trkpt lat="42.646279" lon="0.656842">
        <ele>2731.1</ele>
        <time>1970-01-01T06:58:04.000Z</time>
      </trkpt>
      <trkpt lat="42.646279" lon="0.656842">
        <ele>2731.1</ele>
        <time>1970-01-01T06:58:05.000Z</time>
      </trkpt>
      <trkpt lat="42.646279" lon="0.656842">
        <ele>2731.1</ele>
        <time>1970-01-01T06:58:06.000Z</time>
      </trkpt>
      <trkpt lat="42.646279" lon="0.656842">
        <ele>2731.1</ele>
        <time>1970-01-01T06:58:07.000Z</time>
      </trkpt>
      <trkpt lat="42.646279" lon="0.656842">
        <ele>2731.1</ele>
        <time>1970-01-01T06:58:08.000Z</time>
      </trkpt>
      <trkpt lat="42.646279" lon="0.656842">
        <ele>2731.1</ele>
        <time>1970-01-01T06:58:09.000Z</time>
      </trkpt>
      <trkpt lat="42.646279" lon="0.656842">
        <ele>2731.1</ele>
        <time>1970-01-01T06:58:10.000Z</time>
      </trkpt>
      <trkpt lat="42.646279" lon="0.656842">
        <ele>2731.1</ele>
        <time>1970-01-01T06:58:11.000Z</time>
      </trkpt>
      <trkpt lat="42.646279" lon="0.656842">
        <ele>2731.1</ele>
        <time>1970-01-01T06:58:12.000Z</time>
      </trkpt>
      <trkpt lat="42.646279" lon="0.656843">
        <ele>2731</ele>
        <time>1970-01-01T06:58:13.000Z</time>
      </trkpt>
      <trkpt lat="42.646279" lon="0.656843">
        <ele>2731</ele>
        <time>1970-01-01T06:58:14.000Z</time>
      </trkpt>
      <trkpt lat="42.64628" lon="0.656843">
        <ele>2731</ele>
        <time>1970-01-01T06:58:15.000Z</time>
      </trkpt>
      <trkpt lat="42.64628" lon="0.656843">
        <ele>2731</ele>
        <time>1970-01-01T06:58:16.000Z</time>
      </trkpt>
      <trkpt lat="42.64628" lon="0.656843">
        <ele>2731</ele>
        <time>1970-01-01T06:58:17.000Z</time>
      </trkpt>
      <trkpt lat="42.64628" lon="0.656843">
        <ele>2731</ele>
        <time>1970-01-01T06:58:18.000Z</time>
      </trkpt>
      <trkpt lat="42.64628" lon="0.656843">
        <ele>2731</ele>
        <time>1970-01-01T06:58:19.000Z</time>
      </trkpt>
      <trkpt lat="42.64628" lon="0.656843">
        <ele>2731</ele>
        <time>1970-01-01T06:58:20.000Z</time>
      </trkpt>
      <trkpt lat="42.64628" lon="0.656842">
        <ele>2731</ele>
        <time>1970-01-01T06:58:21.000Z</time>
      </trkpt>
      <trkpt lat="42.646281" lon="0.656842">
        <ele>2731</ele>
        <time>1970-01-01T06:58:22.000Z</time>
      </trkpt>
      <trkpt lat="42.646281" lon="0.656842">
        <ele>2731</ele>
        <time>1970-01-01T06:58:23.000Z</time>
      </trkpt>
      <trkpt lat="42.646281" lon="0.656841">
        <ele>2730.9</ele>
        <time>1970-01-01T06:58:24.000Z</time>
      </trkpt>
      <trkpt lat="42.646281" lon="0.656841">
        <ele>2730.9</ele>
        <time>1970-01-01T06:58:25.000Z</time>
      </trkpt>
      <trkpt lat="42.646281" lon="0.656841">
        <ele>2730.9</ele>
        <time>1970-01-01T06:58:26.000Z</time>
      </trkpt>
      <trkpt lat="42.646281" lon="0.656841">
        <ele>2730.9</ele>
        <time>1970-01-01T06:58:27.000Z</time>
      </trkpt>
      <trkpt lat="42.646281" lon="0.656841">
        <ele>2730.9</ele>
        <time>1970-01-01T06:58:28.000Z</time>
      </trkpt>
      <trkpt lat="42.646281" lon="0.656841">
        <ele>2730.9</ele>
        <time>1970-01-01T06:58:29.000Z</time>
      </trkpt>
      <trkpt lat="42.646281" lon="0.656841">
        <ele>2730.9</ele>
        <time>1970-01-01T06:58:30.000Z</time>
      </trkpt>
      <trkpt lat="42.646281" lon="0.656841">
        <ele>2730.9</ele>
        <time>1970-01-01T06:58:31.000Z</time>
      </trkpt>
      <trkpt lat="42.646281" lon="0.656842">
        <ele>2730.9</ele>
        <time>1970-01-01T06:58:32.000Z</time>
      </trkpt>
      <trkpt lat="42.646281" lon="0.656842">
        <ele>2730.9</ele>
        <time>1970-01-01T06:58:33.000Z</time>
      </trkpt>
      <trkpt lat="42.646281" lon="0.656842">
        <ele>2730.9</ele>
        <time>1970-01-01T06:58:34.000Z</time>
      </trkpt>
      <trkpt lat="42.646281" lon="0.656842">
        <ele>2730.9</ele>
        <time>1970-01-01T06:58:35.000Z</time>
      </trkpt>
      <trkpt lat="42.646281" lon="0.656842">
        <ele>2730.9</ele>
        <time>1970-01-01T06:58:36.000Z</time>
      </trkpt>
      <trkpt lat="42.646281" lon="0.656842">
        <ele>2730.9</ele>
        <time>1970-01-01T06:58:37.000Z</time>
      </trkpt>
      <trkpt lat="42.646281" lon="0.656842">
        <ele>2730.9</ele>
        <time>1970-01-01T06:58:38.000Z</time>
      </trkpt>
      <trkpt lat="42.646281" lon="0.656842">
        <ele>2730.9</ele>
        <time>1970-01-01T06:58:39.000Z</time>
      </trkpt>
      <trkpt lat="42.646281" lon="0.656842">
        <ele>2730.9</ele>
        <time>1970-01-01T06:58:40.000Z</time>
      </trkpt>
      <trkpt lat="42.646281" lon="0.656842">
        <ele>2730.9</ele>
        <time>1970-01-01T06:58:41.000Z</time>
      </trkpt>
      <trkpt lat="42.646281" lon="0.656842">
        <ele>2730.9</ele>
        <time>1970-01-01T06:58:42.000Z</time>
      </trkpt>
      <trkpt lat="42.646281" lon="0.656842">
        <ele>2730.9</ele>
        <time>1970-01-01T06:58:43.000Z</time>
      </trkpt>
      <trkpt lat="42.646281" lon="0.656841">
        <ele>2730.9</ele>
        <time>1970-01-01T06:58:44.000Z</time>
      </trkpt>
      <trkpt lat="42.646281" lon="0.65684">
        <ele>2730.9</ele>
        <time>1970-01-01T06:58:45.000Z</time>
      </trkpt>
      <trkpt lat="42.646281" lon="0.65684">
        <ele>2730.9</ele>
        <time>1970-01-01T06:58:46.000Z</time>
      </trkpt>
      <trkpt lat="42.646281" lon="0.65684">
        <ele>2730.9</ele>
        <time>1970-01-01T06:58:47.000Z</time>
      </trkpt>
      <trkpt lat="42.646281" lon="0.656839">
        <ele>2730.8</ele>
        <time>1970-01-01T06:58:48.000Z</time>
      </trkpt>
      <trkpt lat="42.646281" lon="0.656839">
        <ele>2730.8</ele>
        <time>1970-01-01T06:58:49.000Z</time>
      </trkpt>
      <trkpt lat="42.646281" lon="0.656839">
        <ele>2730.8</ele>
        <time>1970-01-01T06:58:50.000Z</time>
      </trkpt>
      <trkpt lat="42.646281" lon="0.656839">
        <ele>2730.8</ele>
        <time>1970-01-01T06:58:51.000Z</time>
      </trkpt>
      <trkpt lat="42.646281" lon="0.656839">
        <ele>2730.8</ele>
        <time>1970-01-01T06:58:52.000Z</time>
      </trkpt>
      <trkpt lat="42.646281" lon="0.656839">
        <ele>2730.8</ele>
        <time>1970-01-01T06:58:53.000Z</time>
      </trkpt>
      <trkpt lat="42.646281" lon="0.656839">
        <ele>2730.8</ele>
        <time>1970-01-01T06:58:54.000Z</time>
      </trkpt>
      <trkpt lat="42.646281" lon="0.656839">
        <ele>2730.8</ele>
        <time>1970-01-01T06:58:55.000Z</time>
      </trkpt>
      <trkpt lat="42.646281" lon="0.656839">
        <ele>2730.8</ele>
        <time>1970-01-01T06:58:56.000Z</time>
      </trkpt>
      <trkpt lat="42.646281" lon="0.656839">
        <ele>2730.8</ele>
        <time>1970-01-01T06:58:57.000Z</time>
      </trkpt>
      <trkpt lat="42.646281" lon="0.65684">
        <ele>2730.8</ele>
        <time>1970-01-01T06:58:58.000Z</time>
      </trkpt>
      <trkpt lat="42.646281" lon="0.65684">
        <ele>2730.8</ele>
        <time>1970-01-01T06:58:59.000Z</time>
      </trkpt>
      <trkpt lat="42.646281" lon="0.65684">
        <ele>2730.8</ele>
        <time>1970-01-01T06:59:00.000Z</time>
      </trkpt>
      <trkpt lat="42.646281" lon="0.65684">
        <ele>2730.8</ele>
        <time>1970-01-01T06:59:01.000Z</time>
      </trkpt>
      <trkpt lat="42.646281" lon="0.65684">
        <ele>2730.8</ele>
        <time>1970-01-01T06:59:02.000Z</time>
      </trkpt>
      <trkpt lat="42.646281" lon="0.65684">
        <ele>2730.8</ele>
        <time>1970-01-01T06:59:03.000Z</time>
      </trkpt>
      <trkpt lat="42.646281" lon="0.65684">
        <ele>2730.8</ele>
        <time>1970-01-01T06:59:04.000Z</time>
      </trkpt>
      <trkpt lat="42.646281" lon="0.65684">
        <ele>2730.8</ele>
        <time>1970-01-01T06:59:05.000Z</time>
      </trkpt>
      <trkpt lat="42.646281" lon="0.65684">
        <ele>2730.8</ele>
        <time>1970-01-01T06:59:06.000Z</time>
      </trkpt>
      <trkpt lat="42.646281" lon="0.65684">
        <ele>2730.8</ele>
        <time>1970-01-01T06:59:07.000Z</time>
      </trkpt>
      <trkpt lat="42.646281" lon="0.65684">
        <ele>2730.8</ele>
        <time>1970-01-01T06:59:08.000Z</time>
      </trkpt>
      <trkpt lat="42.646281" lon="0.65684">
        <ele>2730.8</ele>
        <time>1970-01-01T06:59:09.000Z</time>
      </trkpt>
      <trkpt lat="42.646281" lon="0.65684">
        <ele>2730.8</ele>
        <time>1970-01-01T06:59:10.000Z</time>
      </trkpt>
      <trkpt lat="42.646281" lon="0.65684">
        <ele>2730.8</ele>
        <time>1970-01-01T06:59:11.000Z</time>
      </trkpt>
      <trkpt lat="42.64628" lon="0.65684">
        <ele>2730.8</ele>
        <time>1970-01-01T06:59:12.000Z</time>
      </trkpt>
      <trkpt lat="42.64628" lon="0.65684">
        <ele>2730.8</ele>
        <time>1970-01-01T06:59:13.000Z</time>
      </trkpt>
      <trkpt lat="42.646281" lon="0.65684">
        <ele>2730.8</ele>
        <time>1970-01-01T06:59:14.000Z</time>
      </trkpt>
      <trkpt lat="42.646281" lon="0.65684">
        <ele>2730.8</ele>
        <time>1970-01-01T06:59:15.000Z</time>
      </trkpt>
      <trkpt lat="42.646281" lon="0.65684">
        <ele>2730.8</ele>
        <time>1970-01-01T06:59:16.000Z</time>
      </trkpt>
      <trkpt lat="42.646281" lon="0.65684">
        <ele>2730.8</ele>
        <time>1970-01-01T06:59:17.000Z</time>
      </trkpt>
      <trkpt lat="42.646281" lon="0.65684">
        <ele>2730.8</ele>
        <time>1970-01-01T06:59:18.000Z</time>
      </trkpt>
      <trkpt lat="42.646281" lon="0.65684">
        <ele>2730.8</ele>
        <time>1970-01-01T06:59:19.000Z</time>
      </trkpt>
      <trkpt lat="42.646281" lon="0.65684">
        <ele>2730.8</ele>
        <time>1970-01-01T06:59:20.000Z</time>
      </trkpt>
      <trkpt lat="42.646281" lon="0.65684">
        <ele>2730.8</ele>
        <time>1970-01-01T06:59:21.000Z</time>
      </trkpt>
      <trkpt lat="42.646281" lon="0.65684">
        <ele>2730.8</ele>
        <time>1970-01-01T06:59:22.000Z</time>
      </trkpt>
      <trkpt lat="42.646281" lon="0.65684">
        <ele>2730.8</ele>
        <time>1970-01-01T06:59:23.000Z</time>
      </trkpt>
      <trkpt lat="42.64628" lon="0.65684">
        <ele>2730.7</ele>
        <time>1970-01-01T06:59:24.000Z</time>
      </trkpt>
      <trkpt lat="42.64628" lon="0.65684">
        <ele>2730.7</ele>
        <time>1970-01-01T06:59:25.000Z</time>
      </trkpt>
      <trkpt lat="42.64628" lon="0.65684">
        <ele>2730.7</ele>
        <time>1970-01-01T06:59:26.000Z</time>
      </trkpt>
      <trkpt lat="42.64628" lon="0.65684">
        <ele>2730.7</ele>
        <time>1970-01-01T06:59:27.000Z</time>
      </trkpt>
      <trkpt lat="42.64628" lon="0.65684">
        <ele>2730.7</ele>
        <time>1970-01-01T06:59:28.000Z</time>
      </trkpt>
      <trkpt lat="42.64628" lon="0.65684">
        <ele>2730.7</ele>
        <time>1970-01-01T06:59:29.000Z</time>
      </trkpt>
      <trkpt lat="42.64628" lon="0.65684">
        <ele>2730.7</ele>
        <time>1970-01-01T06:59:30.000Z</time>
      </trkpt>
      <trkpt lat="42.64628" lon="0.65684">
        <ele>2730.7</ele>
        <time>1970-01-01T06:59:31.000Z</time>
      </trkpt>
      <trkpt lat="42.64628" lon="0.65684">
        <ele>2730.7</ele>
        <time>1970-01-01T06:59:32.000Z</time>
      </trkpt>
      <trkpt lat="42.64628" lon="0.65684">
        <ele>2730.7</ele>
        <time>1970-01-01T06:59:33.000Z</time>
      </trkpt>
      <trkpt lat="42.64628" lon="0.65684">
        <ele>2730.7</ele>
        <time>1970-01-01T06:59:34.000Z</time>
      </trkpt>
      <trkpt lat="42.64628" lon="0.65684">
        <ele>2730.7</ele>
        <time>1970-01-01T06:59:35.000Z</time>
      </trkpt>
      <trkpt lat="42.64628" lon="0.65684">
        <ele>2730.7</ele>
        <time>1970-01-01T06:59:36.000Z</time>
      </trkpt>
      <trkpt lat="42.64628" lon="0.65684">
        <ele>2730.7</ele>
        <time>1970-01-01T06:59:37.000Z</time>
      </trkpt>
      <trkpt lat="42.64628" lon="0.65684">
        <ele>2730.7</ele>
        <time>1970-01-01T06:59:38.000Z</time>
      </trkpt>
      <trkpt lat="42.64628" lon="0.65684">
        <ele>2730.7</ele>
        <time>1970-01-01T06:59:39.000Z</time>
      </trkpt>
      <trkpt lat="42.64628" lon="0.65684">
        <ele>2730.7</ele>
        <time>1970-01-01T06:59:40.000Z</time>
      </trkpt>
      <trkpt lat="42.64628" lon="0.65684">
        <ele>2730.7</ele>
        <time>1970-01-01T06:59:41.000Z</time>
      </trkpt>
      <trkpt lat="42.64628" lon="0.65684">
        <ele>2730.7</ele>
        <time>1970-01-01T06:59:42.000Z</time>
      </trkpt>
      <trkpt lat="42.64628" lon="0.65684">
        <ele>2730.7</ele>
        <time>1970-01-01T06:59:43.000Z</time>
      </trkpt>
      <trkpt lat="42.64628" lon="0.65684">
        <ele>2730.7</ele>
        <time>1970-01-01T06:59:44.000Z</time>
      </trkpt>
      <trkpt lat="42.64628" lon="0.65684">
        <ele>2730.7</ele>
        <time>1970-01-01T06:59:45.000Z</time>
      </trkpt>
      <trkpt lat="42.64628" lon="0.65684">
        <ele>2730.7</ele>
        <time>1970-01-01T06:59:46.000Z</time>
      </trkpt>
      <trkpt lat="42.64628" lon="0.65684">
        <ele>2730.7</ele>
        <time>1970-01-01T06:59:47.000Z</time>
      </trkpt>
      <trkpt lat="42.64628" lon="0.65684">
        <ele>2730.7</ele>
        <time>1970-01-01T06:59:48.000Z</time>
      </trkpt>
      <trkpt lat="42.64628" lon="0.65684">
        <ele>2730.7</ele>
        <time>1970-01-01T06:59:49.000Z</time>
      </trkpt>
      <trkpt lat="42.64628" lon="0.65684">
        <ele>2730.7</ele>
        <time>1970-01-01T06:59:50.000Z</time>
      </trkpt>
      <trkpt lat="42.64628" lon="0.65684">
        <ele>2730.7</ele>
        <time>1970-01-01T06:59:51.000Z</time>
      </trkpt>
      <trkpt lat="42.64628" lon="0.65684">
        <ele>2730.7</ele>
        <time>1970-01-01T06:59:52.000Z</time>
      </trkpt>
      <trkpt lat="42.64628" lon="0.65684">
        <ele>2730.7</ele>
        <time>1970-01-01T06:59:53.000Z</time>
      </trkpt>
      <trkpt lat="42.64628" lon="0.65684">
        <ele>2730.7</ele>
        <time>1970-01-01T06:59:54.000Z</time>
      </trkpt>
      <trkpt lat="42.64628" lon="0.65684">
        <ele>2730.7</ele>
        <time>1970-01-01T06:59:55.000Z</time>
      </trkpt>
      <trkpt lat="42.64628" lon="0.65684">
        <ele>2730.7</ele>
        <time>1970-01-01T06:59:56.000Z</time>
      </trkpt>
      <trkpt lat="42.64628" lon="0.65684">
        <ele>2730.7</ele>
        <time>1970-01-01T06:59:57.000Z</time>
      </trkpt>
      <trkpt lat="42.64628" lon="0.65684">
        <ele>2730.7</ele>
        <time>1970-01-01T06:59:58.000Z</time>
      </trkpt>
      <trkpt lat="42.64628" lon="0.65684">
        <ele>2730.7</ele>
        <time>1970-01-01T06:59:59.000Z</time>
      </trkpt>
      <trkpt lat="42.64628" lon="0.65684">
        <ele>2730.7</ele>
        <time>1970-01-01T07:00:00.000Z</time>
      </trkpt>
      <trkpt lat="42.64628" lon="0.65684">
        <ele>2730.7</ele>
        <time>1970-01-01T07:00:01.000Z</time>
      </trkpt>
      <trkpt lat="42.64628" lon="0.65684">
        <ele>2730.7</ele>
        <time>1970-01-01T07:00:02.000Z</time>
      </trkpt>
      <trkpt lat="42.64628" lon="0.65684">
        <ele>2730.7</ele>
        <time>1970-01-01T07:00:03.000Z</time>
      </trkpt>
      <trkpt lat="42.64628" lon="0.65684">
        <ele>2730.7</ele>
        <time>1970-01-01T07:00:04.000Z</time>
      </trkpt>
      <trkpt lat="42.64628" lon="0.65684">
        <ele>2730.7</ele>
        <time>1970-01-01T07:00:05.000Z</time>
      </trkpt>
      <trkpt lat="42.64628" lon="0.65684">
        <ele>2730.7</ele>
        <time>1970-01-01T07:00:06.000Z</time>
      </trkpt>
      <trkpt lat="42.64628" lon="0.65684">
        <ele>2730.7</ele>
        <time>1970-01-01T07:00:07.000Z</time>
      </trkpt>
      <trkpt lat="42.64628" lon="0.65684">
        <ele>2730.7</ele>
        <time>1970-01-01T07:00:08.000Z</time>
      </trkpt>
      <trkpt lat="42.64628" lon="0.65684">
        <ele>2730.7</ele>
        <time>1970-01-01T07:00:09.000Z</time>
      </trkpt>
      <trkpt lat="42.64628" lon="0.65684">
        <ele>2730.7</ele>
        <time>1970-01-01T07:00:10.000Z</time>
      </trkpt>
      <trkpt lat="42.64628" lon="0.65684">
        <ele>2730.7</ele>
        <time>1970-01-01T07:00:11.000Z</time>
      </trkpt>
      <trkpt lat="42.64628" lon="0.65684">
        <ele>2730.7</ele>
        <time>1970-01-01T07:00:12.000Z</time>
      </trkpt>
      <trkpt lat="42.64628" lon="0.65684">
        <ele>2730.7</ele>
        <time>1970-01-01T07:00:13.000Z</time>
      </trkpt>
      <trkpt lat="42.64628" lon="0.65684">
        <ele>2730.7</ele>
        <time>1970-01-01T07:00:14.000Z</time>
      </trkpt>
      <trkpt lat="42.64628" lon="0.65684">
        <ele>2730.7</ele>
        <time>1970-01-01T07:00:15.000Z</time>
      </trkpt>
      <trkpt lat="42.64628" lon="0.65684">
        <ele>2730.7</ele>
        <time>1970-01-01T07:00:16.000Z</time>
      </trkpt>
      <trkpt lat="42.64628" lon="0.65684">
        <ele>2730.7</ele>
        <time>1970-01-01T07:00:17.000Z</time>
      </trkpt>
      <trkpt lat="42.64628" lon="0.65684">
        <ele>2730.7</ele>
        <time>1970-01-01T07:00:18.000Z</time>
      </trkpt>
      <trkpt lat="42.64628" lon="0.65684">
        <ele>2730.7</ele>
        <time>1970-01-01T07:00:19.000Z</time>
      </trkpt>
      <trkpt lat="42.64628" lon="0.65684">
        <ele>2730.7</ele>
        <time>1970-01-01T07:00:20.000Z</time>
      </trkpt>
      <trkpt lat="42.64628" lon="0.65684">
        <ele>2730.7</ele>
        <time>1970-01-01T07:00:21.000Z</time>
      </trkpt>
      <trkpt lat="42.64628" lon="0.65684">
        <ele>2730.7</ele>
        <time>1970-01-01T07:00:22.000Z</time>
      </trkpt>
      <trkpt lat="42.64628" lon="0.65684">
        <ele>2730.7</ele>
        <time>1970-01-01T07:00:23.000Z</time>
      </trkpt>
      <trkpt lat="42.64628" lon="0.65684">
        <ele>2730.7</ele>
        <time>1970-01-01T07:00:24.000Z</time>
      </trkpt>
      <trkpt lat="42.64628" lon="0.65684">
        <ele>2730.7</ele>
        <time>1970-01-01T07:00:25.000Z</time>
      </trkpt>
      <trkpt lat="42.64628" lon="0.65684">
        <ele>2730.7</ele>
        <time>1970-01-01T07:00:26.000Z</time>
      </trkpt>
      <trkpt lat="42.64628" lon="0.65684">
        <ele>2730.7</ele>
        <time>1970-01-01T07:00:27.000Z</time>
      </trkpt>
      <trkpt lat="42.64628" lon="0.65684">
        <ele>2730.7</ele>
        <time>1970-01-01T07:00:28.000Z</time>
      </trkpt>
      <trkpt lat="42.64628" lon="0.65684">
        <ele>2730.7</ele>
        <time>1970-01-01T07:00:29.000Z</time>
      </trkpt>
      <trkpt lat="42.64628" lon="0.65684">
        <ele>2730.7</ele>
        <time>1970-01-01T07:00:30.000Z</time>
      </trkpt>
      <trkpt lat="42.64628" lon="0.65684">
        <ele>2730.7</ele>
        <time>1970-01-01T07:00:31.000Z</time>
      </trkpt>
      <trkpt lat="42.64628" lon="0.65684">
        <ele>2730.7</ele>
        <time>1970-01-01T07:00:32.000Z</time>
      </trkpt>
      <trkpt lat="42.64628" lon="0.65684">
        <ele>2730.7</ele>
        <time>1970-01-01T07:00:33.000Z</time>
      </trkpt>
      <trkpt lat="42.64628" lon="0.65684">
        <ele>2730.7</ele>
        <time>1970-01-01T07:00:34.000Z</time>
      </trkpt>
      <trkpt lat="42.64628" lon="0.65684">
        <ele>2730.7</ele>
        <time>1970-01-01T07:00:35.000Z</time>
      </trkpt>
      <trkpt lat="42.64628" lon="0.65684">
        <ele>2730.7</ele>
        <time>1970-01-01T07:00:36.000Z</time>
      </trkpt>
      <trkpt lat="42.64628" lon="0.65684">
        <ele>2730.7</ele>
        <time>1970-01-01T07:00:37.000Z</time>
      </trkpt>
      <trkpt lat="42.64628" lon="0.65684">
        <ele>2730.7</ele>
        <time>1970-01-01T07:00:38.000Z</time>
      </trkpt>
      <trkpt lat="42.646279" lon="0.656841">
        <ele>2730.7</ele>
        <time>1970-01-01T07:00:39.000Z</time>
      </trkpt>
      <trkpt lat="42.646278" lon="0.656842">
        <ele>2730.7</ele>
        <time>1970-01-01T07:00:40.000Z</time>
      </trkpt>
      <trkpt lat="42.646278" lon="0.656843">
        <ele>2730.7</ele>
        <time>1970-01-01T07:00:41.000Z</time>
      </trkpt>
      <trkpt lat="42.646278" lon="0.656843">
        <ele>2730.7</ele>
        <time>1970-01-01T07:00:42.000Z</time>
      </trkpt>
      <trkpt lat="42.646278" lon="0.656843">
        <ele>2730.7</ele>
        <time>1970-01-01T07:00:43.000Z</time>
      </trkpt>
      <trkpt lat="42.646278" lon="0.656843">
        <ele>2730.7</ele>
        <time>1970-01-01T07:00:44.000Z</time>
      </trkpt>
      <trkpt lat="42.646278" lon="0.656843">
        <ele>2730.7</ele>
        <time>1970-01-01T07:00:45.000Z</time>
      </trkpt>
      <trkpt lat="42.646278" lon="0.656843">
        <ele>2730.7</ele>
        <time>1970-01-01T07:00:46.000Z</time>
      </trkpt>
      <trkpt lat="42.646278" lon="0.656843">
        <ele>2730.7</ele>
        <time>1970-01-01T07:00:47.000Z</time>
      </trkpt>
      <trkpt lat="42.646278" lon="0.656843">
        <ele>2730.7</ele>
        <time>1970-01-01T07:00:48.000Z</time>
      </trkpt>
      <trkpt lat="42.646278" lon="0.656843">
        <ele>2730.7</ele>
        <time>1970-01-01T07:00:49.000Z</time>
      </trkpt>
      <trkpt lat="42.646278" lon="0.656843">
        <ele>2730.7</ele>
        <time>1970-01-01T07:00:50.000Z</time>
      </trkpt>
      <trkpt lat="42.646278" lon="0.656843">
        <ele>2730.7</ele>
        <time>1970-01-01T07:00:51.000Z</time>
      </trkpt>
      <trkpt lat="42.646278" lon="0.656843">
        <ele>2730.7</ele>
        <time>1970-01-01T07:00:52.000Z</time>
      </trkpt>
      <trkpt lat="42.646278" lon="0.656843">
        <ele>2730.7</ele>
        <time>1970-01-01T07:00:53.000Z</time>
      </trkpt>
      <trkpt lat="42.646278" lon="0.656843">
        <ele>2730.7</ele>
        <time>1970-01-01T07:00:54.000Z</time>
      </trkpt>
      <trkpt lat="42.646278" lon="0.656843">
        <ele>2730.7</ele>
        <time>1970-01-01T07:00:55.000Z</time>
      </trkpt>
      <trkpt lat="42.646278" lon="0.656843">
        <ele>2730.7</ele>
        <time>1970-01-01T07:00:56.000Z</time>
      </trkpt>
      <trkpt lat="42.646278" lon="0.656843">
        <ele>2730.7</ele>
        <time>1970-01-01T07:00:57.000Z</time>
      </trkpt>
      <trkpt lat="42.646278" lon="0.656843">
        <ele>2730.7</ele>
        <time>1970-01-01T07:00:58.000Z</time>
      </trkpt>
      <trkpt lat="42.646278" lon="0.656843">
        <ele>2730.7</ele>
        <time>1970-01-01T07:00:59.000Z</time>
      </trkpt>
      <trkpt lat="42.646278" lon="0.656843">
        <ele>2730.7</ele>
        <time>1970-01-01T07:01:00.000Z</time>
      </trkpt>
      <trkpt lat="42.646278" lon="0.656843">
        <ele>2730.7</ele>
        <time>1970-01-01T07:01:01.000Z</time>
      </trkpt>
      <trkpt lat="42.646278" lon="0.656843">
        <ele>2730.7</ele>
        <time>1970-01-01T07:01:02.000Z</time>
      </trkpt>
      <trkpt lat="42.646278" lon="0.656843">
        <ele>2730.7</ele>
        <time>1970-01-01T07:01:03.000Z</time>
      </trkpt>
      <trkpt lat="42.646278" lon="0.656843">
        <ele>2730.7</ele>
        <time>1970-01-01T07:01:04.000Z</time>
      </trkpt>
      <trkpt lat="42.646278" lon="0.656843">
        <ele>2730.7</ele>
        <time>1970-01-01T07:01:05.000Z</time>
      </trkpt>
      <trkpt lat="42.646278" lon="0.656843">
        <ele>2730.7</ele>
        <time>1970-01-01T07:01:06.000Z</time>
      </trkpt>
      <trkpt lat="42.646278" lon="0.656843">
        <ele>2730.7</ele>
        <time>1970-01-01T07:01:07.000Z</time>
      </trkpt>
      <trkpt lat="42.646278" lon="0.656843">
        <ele>2730.7</ele>
        <time>1970-01-01T07:01:08.000Z</time>
      </trkpt>
      <trkpt lat="42.646278" lon="0.656843">
        <ele>2730.7</ele>
        <time>1970-01-01T07:01:09.000Z</time>
      </trkpt>
      <trkpt lat="42.646278" lon="0.656843">
        <ele>2730.7</ele>
        <time>1970-01-01T07:01:10.000Z</time>
      </trkpt>
      <trkpt lat="42.646278" lon="0.656843">
        <ele>2730.7</ele>
        <time>1970-01-01T07:01:11.000Z</time>
      </trkpt>
      <trkpt lat="42.646278" lon="0.656843">
        <ele>2730.7</ele>
        <time>1970-01-01T07:01:12.000Z</time>
      </trkpt>
      <trkpt lat="42.646278" lon="0.656843">
        <ele>2730.7</ele>
        <time>1970-01-01T07:01:13.000Z</time>
      </trkpt>
      <trkpt lat="42.646278" lon="0.656843">
        <ele>2730.7</ele>
        <time>1970-01-01T07:01:14.000Z</time>
      </trkpt>
      <trkpt lat="42.646278" lon="0.656843">
        <ele>2730.7</ele>
        <time>1970-01-01T07:01:15.000Z</time>
      </trkpt>
      <trkpt lat="42.646278" lon="0.656843">
        <ele>2730.7</ele>
        <time>1970-01-01T07:01:16.000Z</time>
      </trkpt>
      <trkpt lat="42.646278" lon="0.656843">
        <ele>2730.7</ele>
        <time>1970-01-01T07:01:17.000Z</time>
      </trkpt>
      <trkpt lat="42.646278" lon="0.656843">
        <ele>2730.7</ele>
        <time>1970-01-01T07:01:18.000Z</time>
      </trkpt>
      <trkpt lat="42.646278" lon="0.656843">
        <ele>2730.7</ele>
        <time>1970-01-01T07:01:19.000Z</time>
      </trkpt>
      <trkpt lat="42.646278" lon="0.656843">
        <ele>2730.7</ele>
        <time>1970-01-01T07:01:20.000Z</time>
      </trkpt>
      <trkpt lat="42.646278" lon="0.656843">
        <ele>2730.7</ele>
        <time>1970-01-01T07:01:21.000Z</time>
      </trkpt>
      <trkpt lat="42.646278" lon="0.656843">
        <ele>2730.7</ele>
        <time>1970-01-01T07:01:22.000Z</time>
      </trkpt>
      <trkpt lat="42.646278" lon="0.656843">
        <ele>2730.7</ele>
        <time>1970-01-01T07:01:23.000Z</time>
      </trkpt>
      <trkpt lat="42.646278" lon="0.656843">
        <ele>2730.7</ele>
        <time>1970-01-01T07:01:24.000Z</time>
      </trkpt>
      <trkpt lat="42.646278" lon="0.656843">
        <ele>2730.7</ele>
        <time>1970-01-01T07:01:25.000Z</time>
      </trkpt>
      <trkpt lat="42.646278" lon="0.656844">
        <ele>2730.6</ele>
        <time>1970-01-01T07:01:26.000Z</time>
      </trkpt>
      <trkpt lat="42.646279" lon="0.656843">
        <ele>2730.6</ele>
        <time>1970-01-01T07:01:27.000Z</time>
      </trkpt>
      <trkpt lat="42.64628" lon="0.656842">
        <ele>2730.6</ele>
        <time>1970-01-01T07:01:28.000Z</time>
      </trkpt>
      <trkpt lat="42.64628" lon="0.656842">
        <ele>2730.6</ele>
        <time>1970-01-01T07:01:29.000Z</time>
      </trkpt>
      <trkpt lat="42.64628" lon="0.656841">
        <ele>2730.5</ele>
        <time>1970-01-01T07:01:30.000Z</time>
      </trkpt>
      <trkpt lat="42.64628" lon="0.656841">
        <ele>2730.5</ele>
        <time>1970-01-01T07:01:31.000Z</time>
      </trkpt>
      <trkpt lat="42.64628" lon="0.656841">
        <ele>2730.5</ele>
        <time>1970-01-01T07:01:32.000Z</time>
      </trkpt>
      <trkpt lat="42.64628" lon="0.656841">
        <ele>2730.5</ele>
        <time>1970-01-01T07:01:33.000Z</time>
      </trkpt>
      <trkpt lat="42.64628" lon="0.656841">
        <ele>2730.5</ele>
        <time>1970-01-01T07:01:34.000Z</time>
      </trkpt>
      <trkpt lat="42.64628" lon="0.656842">
        <ele>2730.5</ele>
        <time>1970-01-01T07:01:35.000Z</time>
      </trkpt>
      <trkpt lat="42.64628" lon="0.656843">
        <ele>2730.5</ele>
        <time>1970-01-01T07:01:36.000Z</time>
      </trkpt>
      <trkpt lat="42.64628" lon="0.656844">
        <ele>2730.5</ele>
        <time>1970-01-01T07:01:37.000Z</time>
      </trkpt>
      <trkpt lat="42.646279" lon="0.656845">
        <ele>2730.4</ele>
        <time>1970-01-01T07:01:38.000Z</time>
      </trkpt>
      <trkpt lat="42.646279" lon="0.656845">
        <ele>2730.4</ele>
        <time>1970-01-01T07:01:39.000Z</time>
      </trkpt>
      <trkpt lat="42.646279" lon="0.656845">
        <ele>2730.4</ele>
        <time>1970-01-01T07:01:40.000Z</time>
      </trkpt>
      <trkpt lat="42.646279" lon="0.656845">
        <ele>2730.4</ele>
        <time>1970-01-01T07:01:41.000Z</time>
      </trkpt>
      <trkpt lat="42.646279" lon="0.656845">
        <ele>2730.4</ele>
        <time>1970-01-01T07:01:42.000Z</time>
      </trkpt>
      <trkpt lat="42.646279" lon="0.656845">
        <ele>2730.4</ele>
        <time>1970-01-01T07:01:43.000Z</time>
      </trkpt>
      <trkpt lat="42.646279" lon="0.656845">
        <ele>2730.4</ele>
        <time>1970-01-01T07:01:44.000Z</time>
      </trkpt>
      <trkpt lat="42.646279" lon="0.656845">
        <ele>2730.4</ele>
        <time>1970-01-01T07:01:45.000Z</time>
      </trkpt>
      <trkpt lat="42.646279" lon="0.656845">
        <ele>2730.4</ele>
        <time>1970-01-01T07:01:46.000Z</time>
      </trkpt>
      <trkpt lat="42.646279" lon="0.656845">
        <ele>2730.4</ele>
        <time>1970-01-01T07:01:47.000Z</time>
      </trkpt>
      <trkpt lat="42.646279" lon="0.656845">
        <ele>2730.4</ele>
        <time>1970-01-01T07:01:48.000Z</time>
      </trkpt>
      <trkpt lat="42.646279" lon="0.656845">
        <ele>2730.4</ele>
        <time>1970-01-01T07:01:49.000Z</time>
      </trkpt>
      <trkpt lat="42.646279" lon="0.656845">
        <ele>2730.4</ele>
        <time>1970-01-01T07:01:50.000Z</time>
      </trkpt>
      <trkpt lat="42.646279" lon="0.656845">
        <ele>2730.4</ele>
        <time>1970-01-01T07:01:51.000Z</time>
      </trkpt>
      <trkpt lat="42.646279" lon="0.656845">
        <ele>2730.4</ele>
        <time>1970-01-01T07:01:52.000Z</time>
      </trkpt>
      <trkpt lat="42.646279" lon="0.656845">
        <ele>2730.4</ele>
        <time>1970-01-01T07:01:53.000Z</time>
      </trkpt>
      <trkpt lat="42.646279" lon="0.656845">
        <ele>2730.4</ele>
        <time>1970-01-01T07:01:54.000Z</time>
      </trkpt>
      <trkpt lat="42.646279" lon="0.656845">
        <ele>2730.4</ele>
        <time>1970-01-01T07:01:55.000Z</time>
      </trkpt>
      <trkpt lat="42.646279" lon="0.656845">
        <ele>2730.4</ele>
        <time>1970-01-01T07:01:56.000Z</time>
      </trkpt>
      <trkpt lat="42.646279" lon="0.656845">
        <ele>2730.4</ele>
        <time>1970-01-01T07:01:57.000Z</time>
      </trkpt>
      <trkpt lat="42.646279" lon="0.656845">
        <ele>2730.4</ele>
        <time>1970-01-01T07:01:58.000Z</time>
      </trkpt>
      <trkpt lat="42.646279" lon="0.656845">
        <ele>2730.4</ele>
        <time>1970-01-01T07:01:59.000Z</time>
      </trkpt>
      <trkpt lat="42.646279" lon="0.656845">
        <ele>2730.4</ele>
        <time>1970-01-01T07:02:00.000Z</time>
      </trkpt>
      <trkpt lat="42.646279" lon="0.656845">
        <ele>2730.4</ele>
        <time>1970-01-01T07:02:01.000Z</time>
      </trkpt>
      <trkpt lat="42.646279" lon="0.656845">
        <ele>2730.4</ele>
        <time>1970-01-01T07:02:02.000Z</time>
      </trkpt>
      <trkpt lat="42.646279" lon="0.656845">
        <ele>2730.4</ele>
        <time>1970-01-01T07:02:03.000Z</time>
      </trkpt>
      <trkpt lat="42.646279" lon="0.656845">
        <ele>2730.4</ele>
        <time>1970-01-01T07:02:04.000Z</time>
      </trkpt>
      <trkpt lat="42.646279" lon="0.656845">
        <ele>2730.4</ele>
        <time>1970-01-01T07:02:05.000Z</time>
      </trkpt>
      <trkpt lat="42.646279" lon="0.656845">
        <ele>2730.4</ele>
        <time>1970-01-01T07:02:06.000Z</time>
      </trkpt>
      <trkpt lat="42.646279" lon="0.656845">
        <ele>2730.4</ele>
        <time>1970-01-01T07:02:07.000Z</time>
      </trkpt>
      <trkpt lat="42.646279" lon="0.656845">
        <ele>2730.4</ele>
        <time>1970-01-01T07:02:08.000Z</time>
      </trkpt>
      <trkpt lat="42.646279" lon="0.656845">
        <ele>2730.4</ele>
        <time>1970-01-01T07:02:09.000Z</time>
      </trkpt>
      <trkpt lat="42.646279" lon="0.656845">
        <ele>2730.4</ele>
        <time>1970-01-01T07:02:10.000Z</time>
      </trkpt>
      <trkpt lat="42.64628" lon="0.656843">
        <ele>2730.4</ele>
        <time>1970-01-01T07:02:11.000Z</time>
      </trkpt>
      <trkpt lat="42.646281" lon="0.656842">
        <ele>2730.4</ele>
        <time>1970-01-01T07:02:12.000Z</time>
      </trkpt>
      <trkpt lat="42.646281" lon="0.656841">
        <ele>2730.3</ele>
        <time>1970-01-01T07:02:13.000Z</time>
      </trkpt>
      <trkpt lat="42.646281" lon="0.656841">
        <ele>2730.3</ele>
        <time>1970-01-01T07:02:14.000Z</time>
      </trkpt>
      <trkpt lat="42.64628" lon="0.656841">
        <ele>2730.3</ele>
        <time>1970-01-01T07:02:15.000Z</time>
      </trkpt>
      <trkpt lat="42.64628" lon="0.656842">
        <ele>2730.3</ele>
        <time>1970-01-01T07:02:16.000Z</time>
      </trkpt>
      <trkpt lat="42.646279" lon="0.656842">
        <ele>2730.3</ele>
        <time>1970-01-01T07:02:17.000Z</time>
      </trkpt>
      <trkpt lat="42.646279" lon="0.656842">
        <ele>2730.3</ele>
        <time>1970-01-01T07:02:18.000Z</time>
      </trkpt>
      <trkpt lat="42.646279" lon="0.656842">
        <ele>2730.3</ele>
        <time>1970-01-01T07:02:19.000Z</time>
      </trkpt>
      <trkpt lat="42.646279" lon="0.656842">
        <ele>2730.3</ele>
        <time>1970-01-01T07:02:20.000Z</time>
      </trkpt>
      <trkpt lat="42.646279" lon="0.656842">
        <ele>2730.3</ele>
        <time>1970-01-01T07:02:21.000Z</time>
      </trkpt>
      <trkpt lat="42.646279" lon="0.656842">
        <ele>2730.3</ele>
        <time>1970-01-01T07:02:22.000Z</time>
      </trkpt>
      <trkpt lat="42.646279" lon="0.656842">
        <ele>2730.3</ele>
        <time>1970-01-01T07:02:23.000Z</time>
      </trkpt>
      <trkpt lat="42.646279" lon="0.656843">
        <ele>2730.2</ele>
        <time>1970-01-01T07:02:24.000Z</time>
      </trkpt>
      <trkpt lat="42.646279" lon="0.656843">
        <ele>2730.2</ele>
        <time>1970-01-01T07:02:25.000Z</time>
      </trkpt>
      <trkpt lat="42.646279" lon="0.656843">
        <ele>2730.2</ele>
        <time>1970-01-01T07:02:26.000Z</time>
      </trkpt>
      <trkpt lat="42.646279" lon="0.656843">
        <ele>2730.2</ele>
        <time>1970-01-01T07:02:27.000Z</time>
      </trkpt>
      <trkpt lat="42.646279" lon="0.656843">
        <ele>2730.2</ele>
        <time>1970-01-01T07:02:28.000Z</time>
      </trkpt>
      <trkpt lat="42.646279" lon="0.656843">
        <ele>2730.2</ele>
        <time>1970-01-01T07:02:29.000Z</time>
      </trkpt>
      <trkpt lat="42.646279" lon="0.656843">
        <ele>2730.2</ele>
        <time>1970-01-01T07:02:30.000Z</time>
      </trkpt>
      <trkpt lat="42.646279" lon="0.656843">
        <ele>2730.2</ele>
        <time>1970-01-01T07:02:31.000Z</time>
      </trkpt>
      <trkpt lat="42.646279" lon="0.656843">
        <ele>2730.2</ele>
        <time>1970-01-01T07:02:32.000Z</time>
      </trkpt>
      <trkpt lat="42.646279" lon="0.656843">
        <ele>2730.2</ele>
        <time>1970-01-01T07:02:33.000Z</time>
      </trkpt>
      <trkpt lat="42.646279" lon="0.656842">
        <ele>2730.2</ele>
        <time>1970-01-01T07:02:34.000Z</time>
      </trkpt>
      <trkpt lat="42.646279" lon="0.656842">
        <ele>2730.2</ele>
        <time>1970-01-01T07:02:35.000Z</time>
      </trkpt>
      <trkpt lat="42.646278" lon="0.656842">
        <ele>2730.2</ele>
        <time>1970-01-01T07:02:36.000Z</time>
      </trkpt>
      <trkpt lat="42.646277" lon="0.656842">
        <ele>2730.2</ele>
        <time>1970-01-01T07:02:37.000Z</time>
      </trkpt>
      <trkpt lat="42.646277" lon="0.656843">
        <ele>2730.1</ele>
        <time>1970-01-01T07:02:38.000Z</time>
      </trkpt>
      <trkpt lat="42.646277" lon="0.656843">
        <ele>2730.1</ele>
        <time>1970-01-01T07:02:39.000Z</time>
      </trkpt>
      <trkpt lat="42.646277" lon="0.656843">
        <ele>2730.1</ele>
        <time>1970-01-01T07:02:40.000Z</time>
      </trkpt>
      <trkpt lat="42.646278" lon="0.656843">
        <ele>2730.1</ele>
        <time>1970-01-01T07:02:41.000Z</time>
      </trkpt>
      <trkpt lat="42.646278" lon="0.656843">
        <ele>2730.1</ele>
        <time>1970-01-01T07:02:42.000Z</time>
      </trkpt>
      <trkpt lat="42.646278" lon="0.656843">
        <ele>2730.1</ele>
        <time>1970-01-01T07:02:43.000Z</time>
      </trkpt>
      <trkpt lat="42.646278" lon="0.656843">
        <ele>2730.1</ele>
        <time>1970-01-01T07:02:44.000Z</time>
      </trkpt>
      <trkpt lat="42.646278" lon="0.656843">
        <ele>2730.1</ele>
        <time>1970-01-01T07:02:45.000Z</time>
      </trkpt>
      <trkpt lat="42.646276" lon="0.656843">
        <ele>2730.1</ele>
        <time>1970-01-01T07:02:46.000Z</time>
      </trkpt>
      <trkpt lat="42.646275" lon="0.656843">
        <ele>2730</ele>
        <time>1970-01-01T07:02:47.000Z</time>
      </trkpt>
      <trkpt lat="42.646274" lon="0.656843">
        <ele>2730</ele>
        <time>1970-01-01T07:02:48.000Z</time>
      </trkpt>
      <trkpt lat="42.646275" lon="0.656845">
        <ele>2730</ele>
        <time>1970-01-01T07:02:49.000Z</time>
      </trkpt>
      <trkpt lat="42.646275" lon="0.656845">
        <ele>2730</ele>
        <time>1970-01-01T07:02:50.000Z</time>
      </trkpt>
      <trkpt lat="42.646275" lon="0.656846">
        <ele>2729.9</ele>
        <time>1970-01-01T07:02:51.000Z</time>
      </trkpt>
      <trkpt lat="42.646276" lon="0.656845">
        <ele>2729.9</ele>
        <time>1970-01-01T07:02:52.000Z</time>
      </trkpt>
      <trkpt lat="42.646276" lon="0.656845">
        <ele>2729.9</ele>
        <time>1970-01-01T07:02:53.000Z</time>
      </trkpt>
      <trkpt lat="42.646276" lon="0.656845">
        <ele>2729.9</ele>
        <time>1970-01-01T07:02:54.000Z</time>
      </trkpt>
      <trkpt lat="42.646276" lon="0.656845">
        <ele>2729.9</ele>
        <time>1970-01-01T07:02:55.000Z</time>
      </trkpt>
      <trkpt lat="42.646276" lon="0.656845">
        <ele>2729.9</ele>
        <time>1970-01-01T07:02:56.000Z</time>
      </trkpt>
      <trkpt lat="42.646276" lon="0.656845">
        <ele>2729.9</ele>
        <time>1970-01-01T07:02:57.000Z</time>
      </trkpt>
      <trkpt lat="42.646276" lon="0.656845">
        <ele>2729.9</ele>
        <time>1970-01-01T07:02:58.000Z</time>
      </trkpt>
      <trkpt lat="42.646276" lon="0.656845">
        <ele>2729.9</ele>
        <time>1970-01-01T07:02:59.000Z</time>
      </trkpt>
      <trkpt lat="42.646276" lon="0.656845">
        <ele>2729.9</ele>
        <time>1970-01-01T07:03:00.000Z</time>
      </trkpt>
      <trkpt lat="42.646276" lon="0.656845">
        <ele>2729.9</ele>
        <time>1970-01-01T07:03:01.000Z</time>
      </trkpt>
      <trkpt lat="42.646275" lon="0.656845">
        <ele>2729.9</ele>
        <time>1970-01-01T07:03:02.000Z</time>
      </trkpt>
      <trkpt lat="42.646274" lon="0.656846">
        <ele>2729.8</ele>
        <time>1970-01-01T07:03:03.000Z</time>
      </trkpt>
      <trkpt lat="42.646273" lon="0.656846">
        <ele>2729.8</ele>
        <time>1970-01-01T07:03:04.000Z</time>
      </trkpt>
      <trkpt lat="42.646273" lon="0.656846">
        <ele>2729.8</ele>
        <time>1970-01-01T07:03:05.000Z</time>
      </trkpt>
      <trkpt lat="42.646273" lon="0.656846">
        <ele>2729.8</ele>
        <time>1970-01-01T07:03:06.000Z</time>
      </trkpt>
      <trkpt lat="42.646273" lon="0.656846">
        <ele>2729.8</ele>
        <time>1970-01-01T07:03:07.000Z</time>
      </trkpt>
      <trkpt lat="42.646273" lon="0.656846">
        <ele>2729.8</ele>
        <time>1970-01-01T07:03:08.000Z</time>
      </trkpt>
      <trkpt lat="42.646273" lon="0.656846">
        <ele>2729.8</ele>
        <time>1970-01-01T07:03:09.000Z</time>
      </trkpt>
      <trkpt lat="42.646273" lon="0.656846">
        <ele>2729.8</ele>
        <time>1970-01-01T07:03:10.000Z</time>
      </trkpt>
      <trkpt lat="42.646274" lon="0.656846">
        <ele>2729.8</ele>
        <time>1970-01-01T07:03:11.000Z</time>
      </trkpt>
      <trkpt lat="42.646274" lon="0.656846">
        <ele>2729.8</ele>
        <time>1970-01-01T07:03:12.000Z</time>
      </trkpt>
      <trkpt lat="42.646274" lon="0.656846">
        <ele>2729.8</ele>
        <time>1970-01-01T07:03:13.000Z</time>
      </trkpt>
      <trkpt lat="42.646274" lon="0.656846">
        <ele>2729.8</ele>
        <time>1970-01-01T07:03:14.000Z</time>
      </trkpt>
      <trkpt lat="42.646274" lon="0.656846">
        <ele>2729.8</ele>
        <time>1970-01-01T07:03:15.000Z</time>
      </trkpt>
      <trkpt lat="42.646273" lon="0.656846">
        <ele>2729.8</ele>
        <time>1970-01-01T07:03:16.000Z</time>
      </trkpt>
      <trkpt lat="42.646273" lon="0.656846">
        <ele>2729.8</ele>
        <time>1970-01-01T07:03:17.000Z</time>
      </trkpt>
      <trkpt lat="42.646273" lon="0.656846">
        <ele>2729.8</ele>
        <time>1970-01-01T07:03:18.000Z</time>
      </trkpt>
      <trkpt lat="42.646273" lon="0.656847">
        <ele>2729.7</ele>
        <time>1970-01-01T07:03:19.000Z</time>
      </trkpt>
      <trkpt lat="42.646273" lon="0.656847">
        <ele>2729.7</ele>
        <time>1970-01-01T07:03:20.000Z</time>
      </trkpt>
      <trkpt lat="42.646273" lon="0.656847">
        <ele>2729.7</ele>
        <time>1970-01-01T07:03:21.000Z</time>
      </trkpt>
      <trkpt lat="42.646273" lon="0.656847">
        <ele>2729.7</ele>
        <time>1970-01-01T07:03:22.000Z</time>
      </trkpt>
      <trkpt lat="42.646273" lon="0.656847">
        <ele>2729.7</ele>
        <time>1970-01-01T07:03:23.000Z</time>
      </trkpt>
      <trkpt lat="42.646273" lon="0.656847">
        <ele>2729.7</ele>
        <time>1970-01-01T07:03:24.000Z</time>
      </trkpt>
      <trkpt lat="42.646273" lon="0.656847">
        <ele>2729.7</ele>
        <time>1970-01-01T07:03:25.000Z</time>
      </trkpt>
      <trkpt lat="42.646273" lon="0.656847">
        <ele>2729.7</ele>
        <time>1970-01-01T07:03:26.000Z</time>
      </trkpt>
      <trkpt lat="42.646273" lon="0.656847">
        <ele>2729.7</ele>
        <time>1970-01-01T07:03:27.000Z</time>
      </trkpt>
      <trkpt lat="42.646273" lon="0.656847">
        <ele>2729.7</ele>
        <time>1970-01-01T07:03:28.000Z</time>
      </trkpt>
      <trkpt lat="42.646273" lon="0.656847">
        <ele>2729.7</ele>
        <time>1970-01-01T07:03:29.000Z</time>
      </trkpt>
      <trkpt lat="42.646273" lon="0.656847">
        <ele>2729.7</ele>
        <time>1970-01-01T07:03:30.000Z</time>
      </trkpt>
      <trkpt lat="42.646273" lon="0.656847">
        <ele>2729.7</ele>
        <time>1970-01-01T07:03:31.000Z</time>
      </trkpt>
      <trkpt lat="42.646273" lon="0.656847">
        <ele>2729.7</ele>
        <time>1970-01-01T07:03:32.000Z</time>
      </trkpt>
      <trkpt lat="42.646273" lon="0.656847">
        <ele>2729.7</ele>
        <time>1970-01-01T07:03:33.000Z</time>
      </trkpt>
      <trkpt lat="42.646273" lon="0.656847">
        <ele>2729.7</ele>
        <time>1970-01-01T07:03:34.000Z</time>
      </trkpt>
      <trkpt lat="42.646273" lon="0.656847">
        <ele>2729.7</ele>
        <time>1970-01-01T07:03:35.000Z</time>
      </trkpt>
      <trkpt lat="42.646273" lon="0.656847">
        <ele>2729.7</ele>
        <time>1970-01-01T07:03:36.000Z</time>
      </trkpt>
      <trkpt lat="42.646273" lon="0.656847">
        <ele>2729.7</ele>
        <time>1970-01-01T07:03:37.000Z</time>
      </trkpt>
      <trkpt lat="42.646273" lon="0.656847">
        <ele>2729.7</ele>
        <time>1970-01-01T07:03:38.000Z</time>
      </trkpt>
      <trkpt lat="42.646273" lon="0.656847">
        <ele>2729.7</ele>
        <time>1970-01-01T07:03:39.000Z</time>
      </trkpt>
      <trkpt lat="42.646273" lon="0.656847">
        <ele>2729.7</ele>
        <time>1970-01-01T07:03:40.000Z</time>
      </trkpt>
      <trkpt lat="42.646273" lon="0.656847">
        <ele>2729.7</ele>
        <time>1970-01-01T07:03:41.000Z</time>
      </trkpt>
      <trkpt lat="42.646273" lon="0.656847">
        <ele>2729.7</ele>
        <time>1970-01-01T07:03:42.000Z</time>
      </trkpt>
      <trkpt lat="42.646273" lon="0.656847">
        <ele>2729.7</ele>
        <time>1970-01-01T07:03:43.000Z</time>
      </trkpt>
      <trkpt lat="42.646273" lon="0.656847">
        <ele>2729.7</ele>
        <time>1970-01-01T07:03:44.000Z</time>
      </trkpt>
      <trkpt lat="42.646273" lon="0.656847">
        <ele>2729.7</ele>
        <time>1970-01-01T07:03:45.000Z</time>
      </trkpt>
      <trkpt lat="42.646273" lon="0.656847">
        <ele>2729.7</ele>
        <time>1970-01-01T07:03:46.000Z</time>
      </trkpt>
      <trkpt lat="42.646273" lon="0.656847">
        <ele>2729.7</ele>
        <time>1970-01-01T07:03:47.000Z</time>
      </trkpt>
      <trkpt lat="42.646273" lon="0.656847">
        <ele>2729.7</ele>
        <time>1970-01-01T07:03:48.000Z</time>
      </trkpt>
      <trkpt lat="42.646273" lon="0.656847">
        <ele>2729.7</ele>
        <time>1970-01-01T07:03:49.000Z</time>
      </trkpt>
      <trkpt lat="42.646273" lon="0.656847">
        <ele>2729.7</ele>
        <time>1970-01-01T07:03:50.000Z</time>
      </trkpt>
      <trkpt lat="42.646273" lon="0.656847">
        <ele>2729.7</ele>
        <time>1970-01-01T07:03:51.000Z</time>
      </trkpt>
      <trkpt lat="42.646273" lon="0.656847">
        <ele>2729.7</ele>
        <time>1970-01-01T07:03:52.000Z</time>
      </trkpt>
      <trkpt lat="42.646273" lon="0.656847">
        <ele>2729.7</ele>
        <time>1970-01-01T07:03:53.000Z</time>
      </trkpt>
      <trkpt lat="42.646273" lon="0.656847">
        <ele>2729.7</ele>
        <time>1970-01-01T07:03:54.000Z</time>
      </trkpt>
      <trkpt lat="42.646273" lon="0.656847">
        <ele>2729.7</ele>
        <time>1970-01-01T07:03:55.000Z</time>
      </trkpt>
      <trkpt lat="42.646273" lon="0.656847">
        <ele>2729.7</ele>
        <time>1970-01-01T07:03:56.000Z</time>
      </trkpt>
      <trkpt lat="42.646273" lon="0.656848">
        <ele>2729.7</ele>
        <time>1970-01-01T07:03:57.000Z</time>
      </trkpt>
      <trkpt lat="42.646273" lon="0.656851">
        <ele>2729.7</ele>
        <time>1970-01-01T07:03:58.000Z</time>
      </trkpt>
      <trkpt lat="42.646272" lon="0.656853">
        <ele>2729.6</ele>
        <time>1970-01-01T07:03:59.000Z</time>
      </trkpt>
      <trkpt lat="42.646272" lon="0.656855">
        <ele>2729.6</ele>
        <time>1970-01-01T07:04:00.000Z</time>
      </trkpt>
      <trkpt lat="42.646272" lon="0.656855">
        <ele>2729.6</ele>
        <time>1970-01-01T07:04:01.000Z</time>
      </trkpt>
      <trkpt lat="42.646272" lon="0.656855">
        <ele>2729.6</ele>
        <time>1970-01-01T07:04:02.000Z</time>
      </trkpt>
      <trkpt lat="42.646271" lon="0.656855">
        <ele>2729.5</ele>
        <time>1970-01-01T07:04:03.000Z</time>
      </trkpt>
      <trkpt lat="42.646271" lon="0.656854">
        <ele>2729.5</ele>
        <time>1970-01-01T07:04:04.000Z</time>
      </trkpt>
      <trkpt lat="42.646271" lon="0.656854">
        <ele>2729.5</ele>
        <time>1970-01-01T07:04:05.000Z</time>
      </trkpt>
      <trkpt lat="42.646271" lon="0.656854">
        <ele>2729.5</ele>
        <time>1970-01-01T07:04:06.000Z</time>
      </trkpt>
      <trkpt lat="42.646271" lon="0.656854">
        <ele>2729.5</ele>
        <time>1970-01-01T07:04:07.000Z</time>
      </trkpt>
      <trkpt lat="42.646271" lon="0.656854">
        <ele>2729.5</ele>
        <time>1970-01-01T07:04:08.000Z</time>
      </trkpt>
      <trkpt lat="42.646271" lon="0.656854">
        <ele>2729.5</ele>
        <time>1970-01-01T07:04:09.000Z</time>
      </trkpt>
      <trkpt lat="42.646271" lon="0.656854">
        <ele>2729.5</ele>
        <time>1970-01-01T07:04:10.000Z</time>
      </trkpt>
      <trkpt lat="42.646271" lon="0.656854">
        <ele>2729.5</ele>
        <time>1970-01-01T07:04:11.000Z</time>
      </trkpt>
      <trkpt lat="42.646271" lon="0.656854">
        <ele>2729.5</ele>
        <time>1970-01-01T07:04:12.000Z</time>
      </trkpt>
      <trkpt lat="42.646271" lon="0.656854">
        <ele>2729.5</ele>
        <time>1970-01-01T07:04:13.000Z</time>
      </trkpt>
      <trkpt lat="42.646271" lon="0.656854">
        <ele>2729.5</ele>
        <time>1970-01-01T07:04:14.000Z</time>
      </trkpt>
      <trkpt lat="42.646271" lon="0.656854">
        <ele>2729.5</ele>
        <time>1970-01-01T07:04:15.000Z</time>
      </trkpt>
      <trkpt lat="42.646271" lon="0.656854">
        <ele>2729.5</ele>
        <time>1970-01-01T07:04:16.000Z</time>
      </trkpt>
      <trkpt lat="42.646271" lon="0.656854">
        <ele>2729.5</ele>
        <time>1970-01-01T07:04:17.000Z</time>
      </trkpt>
      <trkpt lat="42.646271" lon="0.656854">
        <ele>2729.5</ele>
        <time>1970-01-01T07:04:18.000Z</time>
      </trkpt>
      <trkpt lat="42.646271" lon="0.656854">
        <ele>2729.5</ele>
        <time>1970-01-01T07:04:19.000Z</time>
      </trkpt>
      <trkpt lat="42.646271" lon="0.656854">
        <ele>2729.5</ele>
        <time>1970-01-01T07:04:20.000Z</time>
      </trkpt>
      <trkpt lat="42.646271" lon="0.656854">
        <ele>2729.5</ele>
        <time>1970-01-01T07:04:21.000Z</time>
      </trkpt>
      <trkpt lat="42.646271" lon="0.656854">
        <ele>2729.5</ele>
        <time>1970-01-01T07:04:22.000Z</time>
      </trkpt>
      <trkpt lat="42.646271" lon="0.656854">
        <ele>2729.5</ele>
        <time>1970-01-01T07:04:23.000Z</time>
      </trkpt>
      <trkpt lat="42.646271" lon="0.656854">
        <ele>2729.5</ele>
        <time>1970-01-01T07:04:24.000Z</time>
      </trkpt>
      <trkpt lat="42.646271" lon="0.656854">
        <ele>2729.5</ele>
        <time>1970-01-01T07:04:25.000Z</time>
      </trkpt>
      <trkpt lat="42.646271" lon="0.656854">
        <ele>2729.5</ele>
        <time>1970-01-01T07:04:26.000Z</time>
      </trkpt>
      <trkpt lat="42.646271" lon="0.656854">
        <ele>2729.5</ele>
        <time>1970-01-01T07:04:27.000Z</time>
      </trkpt>
      <trkpt lat="42.646271" lon="0.656854">
        <ele>2729.5</ele>
        <time>1970-01-01T07:04:28.000Z</time>
      </trkpt>
      <trkpt lat="42.646271" lon="0.656854">
        <ele>2729.5</ele>
        <time>1970-01-01T07:04:29.000Z</time>
      </trkpt>
      <trkpt lat="42.646271" lon="0.656854">
        <ele>2729.5</ele>
        <time>1970-01-01T07:04:30.000Z</time>
      </trkpt>
      <trkpt lat="42.646271" lon="0.656854">
        <ele>2729.5</ele>
        <time>1970-01-01T07:04:31.000Z</time>
      </trkpt>
      <trkpt lat="42.646271" lon="0.656854">
        <ele>2729.5</ele>
        <time>1970-01-01T07:04:32.000Z</time>
      </trkpt>
      <trkpt lat="42.646271" lon="0.656854">
        <ele>2729.5</ele>
        <time>1970-01-01T07:04:33.000Z</time>
      </trkpt>
      <trkpt lat="42.646271" lon="0.656854">
        <ele>2729.5</ele>
        <time>1970-01-01T07:04:34.000Z</time>
      </trkpt>
      <trkpt lat="42.646271" lon="0.656854">
        <ele>2729.5</ele>
        <time>1970-01-01T07:04:35.000Z</time>
      </trkpt>
      <trkpt lat="42.646271" lon="0.656854">
        <ele>2729.5</ele>
        <time>1970-01-01T07:04:36.000Z</time>
      </trkpt>
      <trkpt lat="42.646271" lon="0.656855">
        <ele>2729.5</ele>
        <time>1970-01-01T07:04:37.000Z</time>
      </trkpt>
      <trkpt lat="42.646271" lon="0.656855">
        <ele>2729.5</ele>
        <time>1970-01-01T07:04:38.000Z</time>
      </trkpt>
      <trkpt lat="42.646271" lon="0.656855">
        <ele>2729.5</ele>
        <time>1970-01-01T07:04:39.000Z</time>
      </trkpt>
      <trkpt lat="42.646271" lon="0.656855">
        <ele>2729.5</ele>
        <time>1970-01-01T07:04:40.000Z</time>
      </trkpt>
      <trkpt lat="42.646271" lon="0.656854">
        <ele>2729.5</ele>
        <time>1970-01-01T07:04:41.000Z</time>
      </trkpt>
      <trkpt lat="42.646273" lon="0.656851">
        <ele>2729.4</ele>
        <time>1970-01-01T07:04:42.000Z</time>
      </trkpt>
      <trkpt lat="42.646274" lon="0.656849">
        <ele>2729.3</ele>
        <time>1970-01-01T07:04:43.000Z</time>
      </trkpt>
      <trkpt lat="42.646274" lon="0.656848">
        <ele>2729.3</ele>
        <time>1970-01-01T07:04:44.000Z</time>
      </trkpt>
      <trkpt lat="42.646275" lon="0.656848">
        <ele>2729.3</ele>
        <time>1970-01-01T07:04:45.000Z</time>
      </trkpt>
      <trkpt lat="42.646276" lon="0.656849">
        <ele>2729.3</ele>
        <time>1970-01-01T07:04:46.000Z</time>
      </trkpt>
      <trkpt lat="42.646276" lon="0.65685">
        <ele>2729.3</ele>
        <time>1970-01-01T07:04:47.000Z</time>
      </trkpt>
      <trkpt lat="42.646276" lon="0.65685">
        <ele>2729.3</ele>
        <time>1970-01-01T07:04:48.000Z</time>
      </trkpt>
      <trkpt lat="42.646276" lon="0.656851">
        <ele>2729.2</ele>
        <time>1970-01-01T07:04:49.000Z</time>
      </trkpt>
      <trkpt lat="42.646276" lon="0.656851">
        <ele>2729.2</ele>
        <time>1970-01-01T07:04:50.000Z</time>
      </trkpt>
      <trkpt lat="42.646276" lon="0.656852">
        <ele>2729.2</ele>
        <time>1970-01-01T07:04:51.000Z</time>
      </trkpt>
      <trkpt lat="42.646277" lon="0.656851">
        <ele>2729.2</ele>
        <time>1970-01-01T07:04:52.000Z</time>
      </trkpt>
      <trkpt lat="42.646278" lon="0.656852">
        <ele>2729.1</ele>
        <time>1970-01-01T07:04:53.000Z</time>
      </trkpt>
      <trkpt lat="42.646278" lon="0.656852">
        <ele>2729.1</ele>
        <time>1970-01-01T07:04:54.000Z</time>
      </trkpt>
      <trkpt lat="42.646278" lon="0.656852">
        <ele>2729.1</ele>
        <time>1970-01-01T07:04:55.000Z</time>
      </trkpt>
      <trkpt lat="42.646278" lon="0.656853">
        <ele>2729.1</ele>
        <time>1970-01-01T07:04:56.000Z</time>
      </trkpt>
      <trkpt lat="42.646278" lon="0.656853">
        <ele>2729.1</ele>
        <time>1970-01-01T07:04:57.000Z</time>
      </trkpt>
      <trkpt lat="42.646278" lon="0.656853">
        <ele>2729.1</ele>
        <time>1970-01-01T07:04:58.000Z</time>
      </trkpt>
      <trkpt lat="42.646278" lon="0.656853">
        <ele>2729.1</ele>
        <time>1970-01-01T07:04:59.000Z</time>
      </trkpt>
      <trkpt lat="42.646278" lon="0.656854">
        <ele>2729.1</ele>
        <time>1970-01-01T07:05:00.000Z</time>
      </trkpt>
      <trkpt lat="42.646279" lon="0.656851">
        <ele>2729</ele>
        <time>1970-01-01T07:05:01.000Z</time>
      </trkpt>
      <trkpt lat="42.64628" lon="0.656849">
        <ele>2729</ele>
        <time>1970-01-01T07:05:02.000Z</time>
      </trkpt>
      <trkpt lat="42.64628" lon="0.656849">
        <ele>2729</ele>
        <time>1970-01-01T07:05:03.000Z</time>
      </trkpt>
      <trkpt lat="42.64628" lon="0.656849">
        <ele>2729</ele>
        <time>1970-01-01T07:05:04.000Z</time>
      </trkpt>
      <trkpt lat="42.64628" lon="0.656848">
        <ele>2729</ele>
        <time>1970-01-01T07:05:05.000Z</time>
      </trkpt>
      <trkpt lat="42.64628" lon="0.656847">
        <ele>2729</ele>
        <time>1970-01-01T07:05:06.000Z</time>
      </trkpt>
      <trkpt lat="42.64628" lon="0.656847">
        <ele>2729</ele>
        <time>1970-01-01T07:05:07.000Z</time>
      </trkpt>
      <trkpt lat="42.64628" lon="0.656844">
        <ele>2728.9</ele>
        <time>1970-01-01T07:05:08.000Z</time>
      </trkpt>
      <trkpt lat="42.646281" lon="0.656841">
        <ele>2728.8</ele>
        <time>1970-01-01T07:05:09.000Z</time>
      </trkpt>
      <trkpt lat="42.646282" lon="0.656841">
        <ele>2728.8</ele>
        <time>1970-01-01T07:05:10.000Z</time>
      </trkpt>
      <trkpt lat="42.646286" lon="0.65684">
        <ele>2728.7</ele>
        <time>1970-01-01T07:05:11.000Z</time>
      </trkpt>
      <trkpt lat="42.646293" lon="0.656833">
        <ele>2728.5</ele>
        <time>1970-01-01T07:05:13.000Z</time>
      </trkpt>
      <trkpt lat="42.646301" lon="0.65683">
        <ele>2728.3</ele>
        <time>1970-01-01T07:05:14.000Z</time>
      </trkpt>
      <trkpt lat="42.646307" lon="0.656831">
        <ele>2728.1</ele>
        <time>1970-01-01T07:05:15.000Z</time>
      </trkpt>
      <trkpt lat="42.646313" lon="0.656832">
        <ele>2728</ele>
        <time>1970-01-01T07:05:16.000Z</time>
      </trkpt>
      <trkpt lat="42.646319" lon="0.656836">
        <ele>2727.8</ele>
        <time>1970-01-01T07:05:17.000Z</time>
      </trkpt>
      <trkpt lat="42.646325" lon="0.656841">
        <ele>2727.6</ele>
        <time>1970-01-01T07:05:19.000Z</time>
      </trkpt>
      <trkpt lat="42.646329" lon="0.656846">
        <ele>2727.5</ele>
        <time>1970-01-01T07:05:20.000Z</time>
      </trkpt>
      <trkpt lat="42.646334" lon="0.656851">
        <ele>2727.3</ele>
        <time>1970-01-01T07:05:21.000Z</time>
      </trkpt>
      <trkpt lat="42.646341" lon="0.656856">
        <ele>2727.2</ele>
        <time>1970-01-01T07:05:23.000Z</time>
      </trkpt>
      <trkpt lat="42.646349" lon="0.656864">
        <ele>2726.9</ele>
        <time>1970-01-01T07:05:24.000Z</time>
      </trkpt>
      <trkpt lat="42.646357" lon="0.656873">
        <ele>2726.7</ele>
        <time>1970-01-01T07:05:26.000Z</time>
      </trkpt>
      <trkpt lat="42.646367" lon="0.656883">
        <ele>2726.4</ele>
        <time>1970-01-01T07:05:27.000Z</time>
      </trkpt>
      <trkpt lat="42.646375" lon="0.656887">
        <ele>2726.2</ele>
        <time>1970-01-01T07:05:28.000Z</time>
      </trkpt>
      <trkpt lat="42.646383" lon="0.656889">
        <ele>2726</ele>
        <time>1970-01-01T07:05:29.000Z</time>
      </trkpt>
      <trkpt lat="42.646392" lon="0.656891">
        <ele>2725.8</ele>
        <time>1970-01-01T07:05:31.000Z</time>
      </trkpt>
      <trkpt lat="42.646399" lon="0.656894">
        <ele>2725.7</ele>
        <time>1970-01-01T07:05:32.000Z</time>
      </trkpt>
      <trkpt lat="42.646409" lon="0.656898">
        <ele>2725.5</ele>
        <time>1970-01-01T07:05:33.000Z</time>
      </trkpt>
      <trkpt lat="42.646415" lon="0.6569">
        <ele>2725.3</ele>
        <time>1970-01-01T07:05:34.000Z</time>
      </trkpt>
      <trkpt lat="42.646422" lon="0.656901">
        <ele>2725.2</ele>
        <time>1970-01-01T07:05:35.000Z</time>
      </trkpt>
      <trkpt lat="42.646429" lon="0.656902">
        <ele>2725</ele>
        <time>1970-01-01T07:05:36.000Z</time>
      </trkpt>
      <trkpt lat="42.646435" lon="0.656901">
        <ele>2724.9</ele>
        <time>1970-01-01T07:05:37.000Z</time>
      </trkpt>
      <trkpt lat="42.646444" lon="0.6569">
        <ele>2724.7</ele>
        <time>1970-01-01T07:05:38.000Z</time>
      </trkpt>
      <trkpt lat="42.646455" lon="0.656903">
        <ele>2724.5</ele>
        <time>1970-01-01T07:05:40.000Z</time>
      </trkpt>
      <trkpt lat="42.646463" lon="0.656908">
        <ele>2724.3</ele>
        <time>1970-01-01T07:05:41.000Z</time>
      </trkpt>
      <trkpt lat="42.646469" lon="0.656912">
        <ele>2724.2</ele>
        <time>1970-01-01T07:05:42.000Z</time>
      </trkpt>
      <trkpt lat="42.646483" lon="0.656921">
        <ele>2723.9</ele>
        <time>1970-01-01T07:05:44.000Z</time>
      </trkpt>
      <trkpt lat="42.646491" lon="0.656927">
        <ele>2723.7</ele>
        <time>1970-01-01T07:05:45.000Z</time>
      </trkpt>
      <trkpt lat="42.6465" lon="0.656934">
        <ele>2723.6</ele>
        <time>1970-01-01T07:05:46.000Z</time>
      </trkpt>
      <trkpt lat="42.646508" lon="0.656939">
        <ele>2723.4</ele>
        <time>1970-01-01T07:05:47.000Z</time>
      </trkpt>
      <trkpt lat="42.646517" lon="0.656945">
        <ele>2723.2</ele>
        <time>1970-01-01T07:05:48.000Z</time>
      </trkpt>
      <trkpt lat="42.646528" lon="0.656953">
        <ele>2723</ele>
        <time>1970-01-01T07:05:50.000Z</time>
      </trkpt>
      <trkpt lat="42.646536" lon="0.65696">
        <ele>2722.8</ele>
        <time>1970-01-01T07:05:51.000Z</time>
      </trkpt>
      <trkpt lat="42.646546" lon="0.656967">
        <ele>2722.6</ele>
        <time>1970-01-01T07:05:52.000Z</time>
      </trkpt>
      <trkpt lat="42.646555" lon="0.656973">
        <ele>2722.5</ele>
        <time>1970-01-01T07:05:53.000Z</time>
      </trkpt>
      <trkpt lat="42.646565" lon="0.656981">
        <ele>2722.3</ele>
        <time>1970-01-01T07:05:54.000Z</time>
      </trkpt>
      <trkpt lat="42.646576" lon="0.65699">
        <ele>2722</ele>
        <time>1970-01-01T07:05:55.000Z</time>
      </trkpt>
      <trkpt lat="42.646586" lon="0.656997">
        <ele>2721.8</ele>
        <time>1970-01-01T07:05:56.000Z</time>
      </trkpt>
      <trkpt lat="42.646594" lon="0.657002">
        <ele>2721.7</ele>
        <time>1970-01-01T07:05:57.000Z</time>
      </trkpt>
      <trkpt lat="42.646606" lon="0.657009">
        <ele>2721.5</ele>
        <time>1970-01-01T07:05:58.000Z</time>
      </trkpt>
      <trkpt lat="42.646617" lon="0.657016">
        <ele>2721.3</ele>
        <time>1970-01-01T07:05:59.000Z</time>
      </trkpt>
      <trkpt lat="42.646625" lon="0.657024">
        <ele>2721.1</ele>
        <time>1970-01-01T07:06:00.000Z</time>
      </trkpt>
      <trkpt lat="42.646636" lon="0.657032">
        <ele>2720.9</ele>
        <time>1970-01-01T07:06:02.000Z</time>
      </trkpt>
      <trkpt lat="42.646647" lon="0.657038">
        <ele>2720.7</ele>
        <time>1970-01-01T07:06:03.000Z</time>
      </trkpt>
      <trkpt lat="42.646655" lon="0.657044">
        <ele>2720.5</ele>
        <time>1970-01-01T07:06:04.000Z</time>
      </trkpt>
      <trkpt lat="42.646665" lon="0.657052">
        <ele>2720.3</ele>
        <time>1970-01-01T07:06:05.000Z</time>
      </trkpt>
      <trkpt lat="42.646673" lon="0.65706">
        <ele>2720.1</ele>
        <time>1970-01-01T07:06:06.000Z</time>
      </trkpt>
      <trkpt lat="42.646682" lon="0.657067">
        <ele>2719.9</ele>
        <time>1970-01-01T07:06:07.000Z</time>
      </trkpt>
      <trkpt lat="42.646693" lon="0.657076">
        <ele>2719.7</ele>
        <time>1970-01-01T07:06:09.000Z</time>
      </trkpt>
      <trkpt lat="42.646704" lon="0.657085">
        <ele>2719.4</ele>
        <time>1970-01-01T07:06:10.000Z</time>
      </trkpt>
      <trkpt lat="42.646712" lon="0.657093">
        <ele>2719.3</ele>
        <time>1970-01-01T07:06:11.000Z</time>
      </trkpt>
      <trkpt lat="42.64672" lon="0.657099">
        <ele>2719.1</ele>
        <time>1970-01-01T07:06:12.000Z</time>
      </trkpt>
      <trkpt lat="42.646733" lon="0.657109">
        <ele>2718.8</ele>
        <time>1970-01-01T07:06:14.000Z</time>
      </trkpt>
      <trkpt lat="42.646741" lon="0.657115">
        <ele>2718.6</ele>
        <time>1970-01-01T07:06:15.000Z</time>
      </trkpt>
      <trkpt lat="42.64675" lon="0.657121">
        <ele>2718.4</ele>
        <time>1970-01-01T07:06:17.000Z</time>
      </trkpt>
      <trkpt lat="42.646757" lon="0.657127">
        <ele>2718.3</ele>
        <time>1970-01-01T07:06:18.000Z</time>
      </trkpt>
      <trkpt lat="42.646774" lon="0.657134">
        <ele>2718</ele>
        <time>1970-01-01T07:06:20.000Z</time>
      </trkpt>
      <trkpt lat="42.646784" lon="0.657136">
        <ele>2717.8</ele>
        <time>1970-01-01T07:06:21.000Z</time>
      </trkpt>
      <trkpt lat="42.646793" lon="0.657134">
        <ele>2717.6</ele>
        <time>1970-01-01T07:06:22.000Z</time>
      </trkpt>
      <trkpt lat="42.646809" lon="0.657132">
        <ele>2717.3</ele>
        <time>1970-01-01T07:06:23.000Z</time>
      </trkpt>
      <trkpt lat="42.646824" lon="0.657132">
        <ele>2717.1</ele>
        <time>1970-01-01T07:06:25.000Z</time>
      </trkpt>
      <trkpt lat="42.646833" lon="0.657131">
        <ele>2716.9</ele>
        <time>1970-01-01T07:06:26.000Z</time>
      </trkpt>
      <trkpt lat="42.646843" lon="0.657133">
        <ele>2716.7</ele>
        <time>1970-01-01T07:06:27.000Z</time>
      </trkpt>
      <trkpt lat="42.64685" lon="0.657134">
        <ele>2716.6</ele>
        <time>1970-01-01T07:06:28.000Z</time>
      </trkpt>
      <trkpt lat="42.64687" lon="0.657136">
        <ele>2716.3</ele>
        <time>1970-01-01T07:06:30.000Z</time>
      </trkpt>
      <trkpt lat="42.646879" lon="0.657138">
        <ele>2716.1</ele>
        <time>1970-01-01T07:06:31.000Z</time>
      </trkpt>
      <trkpt lat="42.646891" lon="0.657142">
        <ele>2715.9</ele>
        <time>1970-01-01T07:06:32.000Z</time>
      </trkpt>
      <trkpt lat="42.646903" lon="0.657144">
        <ele>2715.7</ele>
        <time>1970-01-01T07:06:34.000Z</time>
      </trkpt>
      <trkpt lat="42.646914" lon="0.657145">
        <ele>2715.5</ele>
        <time>1970-01-01T07:06:35.000Z</time>
      </trkpt>
      <trkpt lat="42.646925" lon="0.657144">
        <ele>2715.3</ele>
        <time>1970-01-01T07:06:36.000Z</time>
      </trkpt>
      <trkpt lat="42.646933" lon="0.657144">
        <ele>2715.1</ele>
        <time>1970-01-01T07:06:37.000Z</time>
      </trkpt>
      <trkpt lat="42.646941" lon="0.657145">
        <ele>2715</ele>
        <time>1970-01-01T07:06:38.000Z</time>
      </trkpt>
      <trkpt lat="42.64695" lon="0.657146">
        <ele>2714.8</ele>
        <time>1970-01-01T07:06:39.000Z</time>
      </trkpt>
      <trkpt lat="42.646963" lon="0.657147">
        <ele>2714.6</ele>
        <time>1970-01-01T07:06:41.000Z</time>
      </trkpt>
      <trkpt lat="42.646972" lon="0.657144">
        <ele>2714.4</ele>
        <time>1970-01-01T07:06:42.000Z</time>
      </trkpt>
      <trkpt lat="42.646979" lon="0.657142">
        <ele>2714.3</ele>
        <time>1970-01-01T07:06:43.000Z</time>
      </trkpt>
      <trkpt lat="42.646988" lon="0.65714">
        <ele>2714.1</ele>
        <time>1970-01-01T07:06:44.000Z</time>
      </trkpt>
      <trkpt lat="42.646995" lon="0.657139">
        <ele>2714</ele>
        <time>1970-01-01T07:06:45.000Z</time>
      </trkpt>
      <trkpt lat="42.647012" lon="0.657134">
        <ele>2713.7</ele>
        <time>1970-01-01T07:06:47.000Z</time>
      </trkpt>
      <trkpt lat="42.647024" lon="0.657134">
        <ele>2713.5</ele>
        <time>1970-01-01T07:06:48.000Z</time>
      </trkpt>
      <trkpt lat="42.647039" lon="0.657137">
        <ele>2713.2</ele>
        <time>1970-01-01T07:06:49.000Z</time>
      </trkpt>
      <trkpt lat="42.647052" lon="0.657138">
        <ele>2713</ele>
        <time>1970-01-01T07:06:51.000Z</time>
      </trkpt>
      <trkpt lat="42.647062" lon="0.65714">
        <ele>2712.8</ele>
        <time>1970-01-01T07:06:52.000Z</time>
      </trkpt>
      <trkpt lat="42.647072" lon="0.657141">
        <ele>2712.6</ele>
        <time>1970-01-01T07:06:53.000Z</time>
      </trkpt>
      <trkpt lat="42.647082" lon="0.657142">
        <ele>2712.4</ele>
        <time>1970-01-01T07:06:54.000Z</time>
      </trkpt>
      <trkpt lat="42.647099" lon="0.657144">
        <ele>2712.1</ele>
        <time>1970-01-01T07:06:55.000Z</time>
      </trkpt>
      <trkpt lat="42.647106" lon="0.657145">
        <ele>2712</ele>
        <time>1970-01-01T07:06:56.000Z</time>
      </trkpt>
      <trkpt lat="42.647113" lon="0.657146">
        <ele>2711.8</ele>
        <time>1970-01-01T07:06:57.000Z</time>
      </trkpt>
      <trkpt lat="42.647121" lon="0.657147">
        <ele>2711.7</ele>
        <time>1970-01-01T07:06:58.000Z</time>
      </trkpt>
      <trkpt lat="42.647142" lon="0.657149">
        <ele>2711.3</ele>
        <time>1970-01-01T07:06:59.000Z</time>
      </trkpt>
      <trkpt lat="42.647151" lon="0.65715">
        <ele>2711.1</ele>
        <time>1970-01-01T07:07:01.000Z</time>
      </trkpt>
      <trkpt lat="42.64716" lon="0.657152">
        <ele>2710.9</ele>
        <time>1970-01-01T07:07:02.000Z</time>
      </trkpt>
      <trkpt lat="42.647169" lon="0.657155">
        <ele>2710.8</ele>
        <time>1970-01-01T07:07:03.000Z</time>
      </trkpt>
      <trkpt lat="42.647181" lon="0.657161">
        <ele>2710.6</ele>
        <time>1970-01-01T07:07:04.000Z</time>
      </trkpt>
      <trkpt lat="42.647193" lon="0.657169">
        <ele>2710.4</ele>
        <time>1970-01-01T07:07:06.000Z</time>
      </trkpt>
      <trkpt lat="42.647199" lon="0.657173">
        <ele>2710.3</ele>
        <time>1970-01-01T07:07:07.000Z</time>
      </trkpt>
      <trkpt lat="42.647205" lon="0.657176">
        <ele>2710.3</ele>
        <time>1970-01-01T07:07:08.000Z</time>
      </trkpt>
      <trkpt lat="42.647214" lon="0.65718">
        <ele>2710.1</ele>
        <time>1970-01-01T07:07:09.000Z</time>
      </trkpt>
      <trkpt lat="42.647223" lon="0.657184">
        <ele>2710</ele>
        <time>1970-01-01T07:07:10.000Z</time>
      </trkpt>
      <trkpt lat="42.64724" lon="0.657196">
        <ele>2709.6</ele>
        <time>1970-01-01T07:07:11.000Z</time>
      </trkpt>
      <trkpt lat="42.647247" lon="0.657202">
        <ele>2709.6</ele>
        <time>1970-01-01T07:07:13.000Z</time>
      </trkpt>
      <trkpt lat="42.647255" lon="0.657208">
        <ele>2709.5</ele>
        <time>1970-01-01T07:07:14.000Z</time>
      </trkpt>
      <trkpt lat="42.647261" lon="0.657214">
        <ele>2709.4</ele>
        <time>1970-01-01T07:07:15.000Z</time>
      </trkpt>
      <trkpt lat="42.647267" lon="0.657219">
        <ele>2709.3</ele>
        <time>1970-01-01T07:07:16.000Z</time>
      </trkpt>
      <trkpt lat="42.647281" lon="0.657232">
        <ele>2709</ele>
        <time>1970-01-01T07:07:18.000Z</time>
      </trkpt>
      <trkpt lat="42.647287" lon="0.657239">
        <ele>2708.9</ele>
        <time>1970-01-01T07:07:19.000Z</time>
      </trkpt>
      <trkpt lat="42.647293" lon="0.657245">
        <ele>2708.8</ele>
        <time>1970-01-01T07:07:20.000Z</time>
      </trkpt>
      <trkpt lat="42.647302" lon="0.657247">
        <ele>2708.7</ele>
        <time>1970-01-01T07:07:21.000Z</time>
      </trkpt>
      <trkpt lat="42.647311" lon="0.657247">
        <ele>2708.6</ele>
        <time>1970-01-01T07:07:22.000Z</time>
      </trkpt>
      <trkpt lat="42.647322" lon="0.657248">
        <ele>2708.4</ele>
        <time>1970-01-01T07:07:23.000Z</time>
      </trkpt>
      <trkpt lat="42.64733" lon="0.657249">
        <ele>2708.3</ele>
        <time>1970-01-01T07:07:24.000Z</time>
      </trkpt>
      <trkpt lat="42.647344" lon="0.657254">
        <ele>2708.1</ele>
        <time>1970-01-01T07:07:25.000Z</time>
      </trkpt>
      <trkpt lat="42.647356" lon="0.657258">
        <ele>2707.8</ele>
        <time>1970-01-01T07:07:27.000Z</time>
      </trkpt>
      <trkpt lat="42.647366" lon="0.657263">
        <ele>2707.7</ele>
        <time>1970-01-01T07:07:28.000Z</time>
      </trkpt>
      <trkpt lat="42.647375" lon="0.657268">
        <ele>2707.5</ele>
        <time>1970-01-01T07:07:29.000Z</time>
      </trkpt>
      <trkpt lat="42.647386" lon="0.65727">
        <ele>2707.3</ele>
        <time>1970-01-01T07:07:30.000Z</time>
      </trkpt>
      <trkpt lat="42.647396" lon="0.65727">
        <ele>2707.1</ele>
        <time>1970-01-01T07:07:31.000Z</time>
      </trkpt>
      <trkpt lat="42.647404" lon="0.65727">
        <ele>2707</ele>
        <time>1970-01-01T07:07:32.000Z</time>
      </trkpt>
      <trkpt lat="42.647413" lon="0.657268">
        <ele>2706.9</ele>
        <time>1970-01-01T07:07:33.000Z</time>
      </trkpt>
      <trkpt lat="42.647421" lon="0.657266">
        <ele>2706.7</ele>
        <time>1970-01-01T07:07:34.000Z</time>
      </trkpt>
      <trkpt lat="42.64743" lon="0.657265">
        <ele>2706.6</ele>
        <time>1970-01-01T07:07:35.000Z</time>
      </trkpt>
      <trkpt lat="42.647438" lon="0.657267">
        <ele>2706.4</ele>
        <time>1970-01-01T07:07:36.000Z</time>
      </trkpt>
      <trkpt lat="42.647446" lon="0.657268">
        <ele>2706.2</ele>
        <time>1970-01-01T07:07:37.000Z</time>
      </trkpt>
      <trkpt lat="42.647461" lon="0.65727">
        <ele>2705.9</ele>
        <time>1970-01-01T07:07:38.000Z</time>
      </trkpt>
      <trkpt lat="42.647472" lon="0.65727">
        <ele>2705.7</ele>
        <time>1970-01-01T07:07:40.000Z</time>
      </trkpt>
      <trkpt lat="42.64748" lon="0.657275">
        <ele>2705.6</ele>
        <time>1970-01-01T07:07:41.000Z</time>
      </trkpt>
      <trkpt lat="42.647486" lon="0.657282">
        <ele>2705.5</ele>
        <time>1970-01-01T07:07:42.000Z</time>
      </trkpt>
      <trkpt lat="42.64749" lon="0.657288">
        <ele>2705.4</ele>
        <time>1970-01-01T07:07:43.000Z</time>
      </trkpt>
      <trkpt lat="42.647496" lon="0.657293">
        <ele>2705.3</ele>
        <time>1970-01-01T07:07:44.000Z</time>
      </trkpt>
      <trkpt lat="42.647503" lon="0.657297">
        <ele>2705.2</ele>
        <time>1970-01-01T07:07:45.000Z</time>
      </trkpt>
      <trkpt lat="42.647508" lon="0.657301">
        <ele>2705.1</ele>
        <time>1970-01-01T07:07:46.000Z</time>
      </trkpt>
      <trkpt lat="42.647516" lon="0.657308">
        <ele>2704.9</ele>
        <time>1970-01-01T07:07:47.000Z</time>
      </trkpt>
      <trkpt lat="42.647523" lon="0.657316">
        <ele>2704.8</ele>
        <time>1970-01-01T07:07:48.000Z</time>
      </trkpt>
      <trkpt lat="42.647529" lon="0.657322">
        <ele>2704.7</ele>
        <time>1970-01-01T07:07:50.000Z</time>
      </trkpt>
      <trkpt lat="42.64753" lon="0.657323">
        <ele>2704.7</ele>
        <time>1970-01-01T07:07:51.000Z</time>
      </trkpt>
      <trkpt lat="42.647529" lon="0.657323">
        <ele>2704.8</ele>
        <time>1970-01-01T07:07:52.000Z</time>
      </trkpt>
      <trkpt lat="42.647529" lon="0.657323">
        <ele>2704.9</ele>
        <time>1970-01-01T07:07:53.000Z</time>
      </trkpt>
      <trkpt lat="42.647532" lon="0.657325">
        <ele>2704.9</ele>
        <time>1970-01-01T07:07:54.000Z</time>
      </trkpt>
      <trkpt lat="42.647538" lon="0.657328">
        <ele>2704.8</ele>
        <time>1970-01-01T07:07:55.000Z</time>
      </trkpt>
      <trkpt lat="42.647545" lon="0.657332">
        <ele>2704.6</ele>
        <time>1970-01-01T07:07:56.000Z</time>
      </trkpt>
      <trkpt lat="42.647554" lon="0.657339">
        <ele>2704.5</ele>
        <time>1970-01-01T07:07:57.000Z</time>
      </trkpt>
      <trkpt lat="42.647564" lon="0.657346">
        <ele>2704.3</ele>
        <time>1970-01-01T07:07:59.000Z</time>
      </trkpt>
      <trkpt lat="42.647572" lon="0.657352">
        <ele>2704.1</ele>
        <time>1970-01-01T07:08:00.000Z</time>
      </trkpt>
      <trkpt lat="42.647582" lon="0.657357">
        <ele>2704</ele>
        <time>1970-01-01T07:08:01.000Z</time>
      </trkpt>
      <trkpt lat="42.647592" lon="0.657362">
        <ele>2703.8</ele>
        <time>1970-01-01T07:08:02.000Z</time>
      </trkpt>
      <trkpt lat="42.6476" lon="0.657367">
        <ele>2703.7</ele>
        <time>1970-01-01T07:08:03.000Z</time>
      </trkpt>
      <trkpt lat="42.647609" lon="0.657373">
        <ele>2703.5</ele>
        <time>1970-01-01T07:08:04.000Z</time>
      </trkpt>
      <trkpt lat="42.647626" lon="0.657376">
        <ele>2703.2</ele>
        <time>1970-01-01T07:08:06.000Z</time>
      </trkpt>
      <trkpt lat="42.647637" lon="0.657376">
        <ele>2703</ele>
        <time>1970-01-01T07:08:07.000Z</time>
      </trkpt>
      <trkpt lat="42.647651" lon="0.657385">
        <ele>2702.7</ele>
        <time>1970-01-01T07:08:08.000Z</time>
      </trkpt>
      <trkpt lat="42.647656" lon="0.657391">
        <ele>2702.6</ele>
        <time>1970-01-01T07:08:09.000Z</time>
      </trkpt>
      <trkpt lat="42.647662" lon="0.657398">
        <ele>2702.5</ele>
        <time>1970-01-01T07:08:10.000Z</time>
      </trkpt>
      <trkpt lat="42.647668" lon="0.657404">
        <ele>2702.4</ele>
        <time>1970-01-01T07:08:11.000Z</time>
      </trkpt>
      <trkpt lat="42.647677" lon="0.657425">
        <ele>2702</ele>
        <time>1970-01-01T07:08:12.000Z</time>
      </trkpt>
      <trkpt lat="42.647683" lon="0.657443">
        <ele>2701.7</ele>
        <time>1970-01-01T07:08:13.000Z</time>
      </trkpt>
      <trkpt lat="42.647694" lon="0.657465">
        <ele>2701.2</ele>
        <time>1970-01-01T07:08:15.000Z</time>
      </trkpt>
      <trkpt lat="42.647702" lon="0.657469">
        <ele>2701.1</ele>
        <time>1970-01-01T07:08:16.000Z</time>
      </trkpt>
      <trkpt lat="42.64771" lon="0.657474">
        <ele>2701</ele>
        <time>1970-01-01T07:08:17.000Z</time>
      </trkpt>
      <trkpt lat="42.647719" lon="0.657484">
        <ele>2700.8</ele>
        <time>1970-01-01T07:08:19.000Z</time>
      </trkpt>
      <trkpt lat="42.647727" lon="0.657491">
        <ele>2700.6</ele>
        <time>1970-01-01T07:08:20.000Z</time>
      </trkpt>
      <trkpt lat="42.647734" lon="0.657495">
        <ele>2700.4</ele>
        <time>1970-01-01T07:08:21.000Z</time>
      </trkpt>
      <trkpt lat="42.647743" lon="0.657501">
        <ele>2700.2</ele>
        <time>1970-01-01T07:08:22.000Z</time>
      </trkpt>
      <trkpt lat="42.647754" lon="0.657506">
        <ele>2700</ele>
        <time>1970-01-01T07:08:23.000Z</time>
      </trkpt>
      <trkpt lat="42.647763" lon="0.657507">
        <ele>2699.9</ele>
        <time>1970-01-01T07:08:24.000Z</time>
      </trkpt>
      <trkpt lat="42.647772" lon="0.657506">
        <ele>2699.7</ele>
        <time>1970-01-01T07:08:25.000Z</time>
      </trkpt>
      <trkpt lat="42.647782" lon="0.657503">
        <ele>2699.5</ele>
        <time>1970-01-01T07:08:26.000Z</time>
      </trkpt>
      <trkpt lat="42.647792" lon="0.657504">
        <ele>2699.4</ele>
        <time>1970-01-01T07:08:27.000Z</time>
      </trkpt>
      <trkpt lat="42.647804" lon="0.657506">
        <ele>2699.1</ele>
        <time>1970-01-01T07:08:29.000Z</time>
      </trkpt>
      <trkpt lat="42.647812" lon="0.657509">
        <ele>2699</ele>
        <time>1970-01-01T07:08:30.000Z</time>
      </trkpt>
      <trkpt lat="42.64782" lon="0.657511">
        <ele>2698.8</ele>
        <time>1970-01-01T07:08:31.000Z</time>
      </trkpt>
      <trkpt lat="42.647828" lon="0.657513">
        <ele>2698.7</ele>
        <time>1970-01-01T07:08:32.000Z</time>
      </trkpt>
      <trkpt lat="42.647835" lon="0.657516">
        <ele>2698.6</ele>
        <time>1970-01-01T07:08:33.000Z</time>
      </trkpt>
      <trkpt lat="42.647841" lon="0.65752">
        <ele>2698.5</ele>
        <time>1970-01-01T07:08:34.000Z</time>
      </trkpt>
      <trkpt lat="42.64785" lon="0.657528">
        <ele>2698.3</ele>
        <time>1970-01-01T07:08:35.000Z</time>
      </trkpt>
      <trkpt lat="42.647857" lon="0.657535">
        <ele>2698.2</ele>
        <time>1970-01-01T07:08:36.000Z</time>
      </trkpt>
      <trkpt lat="42.647864" lon="0.657541">
        <ele>2698</ele>
        <time>1970-01-01T07:08:37.000Z</time>
      </trkpt>
      <trkpt lat="42.647869" lon="0.657546">
        <ele>2698</ele>
        <time>1970-01-01T07:08:38.000Z</time>
      </trkpt>
      <trkpt lat="42.647878" lon="0.657555">
        <ele>2697.7</ele>
        <time>1970-01-01T07:08:39.000Z</time>
      </trkpt>
      <trkpt lat="42.647886" lon="0.657565">
        <ele>2697.5</ele>
        <time>1970-01-01T07:08:40.000Z</time>
      </trkpt>
      <trkpt lat="42.647896" lon="0.657575">
        <ele>2697.2</ele>
        <time>1970-01-01T07:08:42.000Z</time>
      </trkpt>
      <trkpt lat="42.647904" lon="0.657582">
        <ele>2697.1</ele>
        <time>1970-01-01T07:08:43.000Z</time>
      </trkpt>
      <trkpt lat="42.647914" lon="0.65759">
        <ele>2696.8</ele>
        <time>1970-01-01T07:08:44.000Z</time>
      </trkpt>
      <trkpt lat="42.647922" lon="0.657595">
        <ele>2696.7</ele>
        <time>1970-01-01T07:08:45.000Z</time>
      </trkpt>
      <trkpt lat="42.64793" lon="0.657602">
        <ele>2696.5</ele>
        <time>1970-01-01T07:08:46.000Z</time>
      </trkpt>
      <trkpt lat="42.647939" lon="0.657613">
        <ele>2696.3</ele>
        <time>1970-01-01T07:08:47.000Z</time>
      </trkpt>
      <trkpt lat="42.647959" lon="0.657624">
        <ele>2695.8</ele>
        <time>1970-01-01T07:08:49.000Z</time>
      </trkpt>
      <trkpt lat="42.647966" lon="0.657628">
        <ele>2695.6</ele>
        <time>1970-01-01T07:08:50.000Z</time>
      </trkpt>
      <trkpt lat="42.647974" lon="0.657631">
        <ele>2695.5</ele>
        <time>1970-01-01T07:08:51.000Z</time>
      </trkpt>
      <trkpt lat="42.647983" lon="0.657632">
        <ele>2695.3</ele>
        <time>1970-01-01T07:08:52.000Z</time>
      </trkpt>
      <trkpt lat="42.647995" lon="0.65763">
        <ele>2695.1</ele>
        <time>1970-01-01T07:08:53.000Z</time>
      </trkpt>
      <trkpt lat="42.648008" lon="0.657626">
        <ele>2694.8</ele>
        <time>1970-01-01T07:08:54.000Z</time>
      </trkpt>
      <trkpt lat="42.648019" lon="0.657622">
        <ele>2694.6</ele>
        <time>1970-01-01T07:08:55.000Z</time>
      </trkpt>
      <trkpt lat="42.64803" lon="0.657619">
        <ele>2694.3</ele>
        <time>1970-01-01T07:08:56.000Z</time>
      </trkpt>
      <trkpt lat="42.648042" lon="0.657613">
        <ele>2693.9</ele>
        <time>1970-01-01T07:08:57.000Z</time>
      </trkpt>
      <trkpt lat="42.648054" lon="0.657607">
        <ele>2693.6</ele>
        <time>1970-01-01T07:08:58.000Z</time>
      </trkpt>
      <trkpt lat="42.648063" lon="0.657604">
        <ele>2693.3</ele>
        <time>1970-01-01T07:08:59.000Z</time>
      </trkpt>
      <trkpt lat="42.648072" lon="0.657604">
        <ele>2693.1</ele>
        <time>1970-01-01T07:09:00.000Z</time>
      </trkpt>
      <trkpt lat="42.648084" lon="0.657605">
        <ele>2692.8</ele>
        <time>1970-01-01T07:09:01.000Z</time>
      </trkpt>
      <trkpt lat="42.648094" lon="0.657607">
        <ele>2692.5</ele>
        <time>1970-01-01T07:09:02.000Z</time>
      </trkpt>
      <trkpt lat="42.648104" lon="0.657604">
        <ele>2692.2</ele>
        <time>1970-01-01T07:09:03.000Z</time>
      </trkpt>
      <trkpt lat="42.648114" lon="0.657602">
        <ele>2692</ele>
        <time>1970-01-01T07:09:05.000Z</time>
      </trkpt>
      <trkpt lat="42.648124" lon="0.657603">
        <ele>2691.7</ele>
        <time>1970-01-01T07:09:06.000Z</time>
      </trkpt>
      <trkpt lat="42.648132" lon="0.657604">
        <ele>2691.5</ele>
        <time>1970-01-01T07:09:07.000Z</time>
      </trkpt>
      <trkpt lat="42.648141" lon="0.657606">
        <ele>2691.3</ele>
        <time>1970-01-01T07:09:09.000Z</time>
      </trkpt>
      <trkpt lat="42.648151" lon="0.657609">
        <ele>2691</ele>
        <time>1970-01-01T07:09:10.000Z</time>
      </trkpt>
      <trkpt lat="42.64816" lon="0.657614">
        <ele>2690.8</ele>
        <time>1970-01-01T07:09:11.000Z</time>
      </trkpt>
      <trkpt lat="42.64817" lon="0.657612">
        <ele>2690.5</ele>
        <time>1970-01-01T07:09:13.000Z</time>
      </trkpt>
      <trkpt lat="42.648178" lon="0.657611">
        <ele>2690.3</ele>
        <time>1970-01-01T07:09:14.000Z</time>
      </trkpt>
      <trkpt lat="42.648188" lon="0.657608">
        <ele>2690</ele>
        <time>1970-01-01T07:09:15.000Z</time>
      </trkpt>
      <trkpt lat="42.648197" lon="0.657603">
        <ele>2689.8</ele>
        <time>1970-01-01T07:09:16.000Z</time>
      </trkpt>
      <trkpt lat="42.648206" lon="0.657599">
        <ele>2689.6</ele>
        <time>1970-01-01T07:09:17.000Z</time>
      </trkpt>
      <trkpt lat="42.648215" lon="0.657595">
        <ele>2689.3</ele>
        <time>1970-01-01T07:09:18.000Z</time>
      </trkpt>
      <trkpt lat="42.648227" lon="0.657593">
        <ele>2689</ele>
        <time>1970-01-01T07:09:19.000Z</time>
      </trkpt>
      <trkpt lat="42.648237" lon="0.657592">
        <ele>2688.7</ele>
        <time>1970-01-01T07:09:20.000Z</time>
      </trkpt>
      <trkpt lat="42.648248" lon="0.657596">
        <ele>2688.4</ele>
        <time>1970-01-01T07:09:21.000Z</time>
      </trkpt>
      <trkpt lat="42.64826" lon="0.657599">
        <ele>2688.1</ele>
        <time>1970-01-01T07:09:22.000Z</time>
      </trkpt>
      <trkpt lat="42.64827" lon="0.657602">
        <ele>2687.8</ele>
        <time>1970-01-01T07:09:24.000Z</time>
      </trkpt>
      <trkpt lat="42.648279" lon="0.657606">
        <ele>2687.5</ele>
        <time>1970-01-01T07:09:25.000Z</time>
      </trkpt>
      <trkpt lat="42.648289" lon="0.657608">
        <ele>2687.2</ele>
        <time>1970-01-01T07:09:26.000Z</time>
      </trkpt>
      <trkpt lat="42.648295" lon="0.657608">
        <ele>2687.1</ele>
        <time>1970-01-01T07:09:27.000Z</time>
      </trkpt>
      <trkpt lat="42.648303" lon="0.657613">
        <ele>2686.8</ele>
        <time>1970-01-01T07:09:28.000Z</time>
      </trkpt>
      <trkpt lat="42.648309" lon="0.657618">
        <ele>2686.6</ele>
        <time>1970-01-01T07:09:29.000Z</time>
      </trkpt>
      <trkpt lat="42.648314" lon="0.65763">
        <ele>2686.3</ele>
        <time>1970-01-01T07:09:30.000Z</time>
      </trkpt>
      <trkpt lat="42.648312" lon="0.657654">
        <ele>2685.8</ele>
        <time>1970-01-01T07:09:32.000Z</time>
      </trkpt>
      <trkpt lat="42.648305" lon="0.657666">
        <ele>2685.5</ele>
        <time>1970-01-01T07:09:33.000Z</time>
      </trkpt>
      <trkpt lat="42.64829" lon="0.65768">
        <ele>2685</ele>
        <time>1970-01-01T07:09:35.000Z</time>
      </trkpt>
      <trkpt lat="42.648279" lon="0.657691">
        <ele>2684.6</ele>
        <time>1970-01-01T07:09:36.000Z</time>
      </trkpt>
      <trkpt lat="42.648275" lon="0.657692">
        <ele>2684.5</ele>
        <time>1970-01-01T07:09:37.000Z</time>
      </trkpt>
      <trkpt lat="42.648274" lon="0.657691">
        <ele>2684.5</ele>
        <time>1970-01-01T07:09:38.000Z</time>
      </trkpt>
      <trkpt lat="42.648273" lon="0.65769">
        <ele>2684.4</ele>
        <time>1970-01-01T07:09:39.000Z</time>
      </trkpt>
      <trkpt lat="42.648273" lon="0.657689">
        <ele>2684.4</ele>
        <time>1970-01-01T07:09:40.000Z</time>
      </trkpt>
      <trkpt lat="42.648274" lon="0.657687">
        <ele>2684.4</ele>
        <time>1970-01-01T07:09:41.000Z</time>
      </trkpt>
      <trkpt lat="42.648273" lon="0.657685">
        <ele>2684.3</ele>
        <time>1970-01-01T07:09:42.000Z</time>
      </trkpt>
      <trkpt lat="42.648274" lon="0.657684">
        <ele>2684.3</ele>
        <time>1970-01-01T07:09:43.000Z</time>
      </trkpt>
      <trkpt lat="42.648275" lon="0.657684">
        <ele>2684.3</ele>
        <time>1970-01-01T07:09:44.000Z</time>
      </trkpt>
      <trkpt lat="42.648275" lon="0.657683">
        <ele>2684.2</ele>
        <time>1970-01-01T07:09:45.000Z</time>
      </trkpt>
      <trkpt lat="42.648275" lon="0.657683">
        <ele>2684.2</ele>
        <time>1970-01-01T07:09:46.000Z</time>
      </trkpt>
      <trkpt lat="42.648275" lon="0.657684">
        <ele>2684.2</ele>
        <time>1970-01-01T07:09:47.000Z</time>
      </trkpt>
      <trkpt lat="42.648275" lon="0.657683">
        <ele>2684.2</ele>
        <time>1970-01-01T07:09:48.000Z</time>
      </trkpt>
      <trkpt lat="42.648275" lon="0.657683">
        <ele>2684.2</ele>
        <time>1970-01-01T07:09:49.000Z</time>
      </trkpt>
      <trkpt lat="42.648275" lon="0.657684">
        <ele>2684.2</ele>
        <time>1970-01-01T07:09:50.000Z</time>
      </trkpt>
      <trkpt lat="42.648274" lon="0.657684">
        <ele>2684.1</ele>
        <time>1970-01-01T07:09:51.000Z</time>
      </trkpt>
      <trkpt lat="42.648275" lon="0.657685">
        <ele>2684.1</ele>
        <time>1970-01-01T07:09:52.000Z</time>
      </trkpt>
      <trkpt lat="42.648277" lon="0.657684">
        <ele>2684</ele>
        <time>1970-01-01T07:09:53.000Z</time>
      </trkpt>
      <trkpt lat="42.648279" lon="0.657682">
        <ele>2684</ele>
        <time>1970-01-01T07:09:54.000Z</time>
      </trkpt>
      <trkpt lat="42.64829" lon="0.657686">
        <ele>2683.7</ele>
        <time>1970-01-01T07:09:55.000Z</time>
      </trkpt>
      <trkpt lat="42.648294" lon="0.657692">
        <ele>2683.5</ele>
        <time>1970-01-01T07:09:56.000Z</time>
      </trkpt>
      <trkpt lat="42.648291" lon="0.657696">
        <ele>2683.4</ele>
        <time>1970-01-01T07:09:57.000Z</time>
      </trkpt>
      <trkpt lat="42.648288" lon="0.657701">
        <ele>2683.2</ele>
        <time>1970-01-01T07:09:58.000Z</time>
      </trkpt>
      <trkpt lat="42.648286" lon="0.657706">
        <ele>2683.1</ele>
        <time>1970-01-01T07:09:59.000Z</time>
      </trkpt>
      <trkpt lat="42.648285" lon="0.657709">
        <ele>2683.1</ele>
        <time>1970-01-01T07:10:00.000Z</time>
      </trkpt>
      <trkpt lat="42.648284" lon="0.657712">
        <ele>2683</ele>
        <time>1970-01-01T07:10:01.000Z</time>
      </trkpt>
      <trkpt lat="42.648283" lon="0.657714">
        <ele>2682.9</ele>
        <time>1970-01-01T07:10:02.000Z</time>
      </trkpt>
      <trkpt lat="42.648283" lon="0.657717">
        <ele>2682.9</ele>
        <time>1970-01-01T07:10:03.000Z</time>
      </trkpt>
      <trkpt lat="42.648283" lon="0.65772">
        <ele>2682.8</ele>
        <time>1970-01-01T07:10:04.000Z</time>
      </trkpt>
      <trkpt lat="42.648283" lon="0.657722">
        <ele>2682.8</ele>
        <time>1970-01-01T07:10:05.000Z</time>
      </trkpt>
      <trkpt lat="42.648282" lon="0.657723">
        <ele>2682.7</ele>
        <time>1970-01-01T07:10:06.000Z</time>
      </trkpt>
      <trkpt lat="42.648282" lon="0.657725">
        <ele>2682.7</ele>
        <time>1970-01-01T07:10:07.000Z</time>
      </trkpt>
      <trkpt lat="42.648281" lon="0.657726">
        <ele>2682.7</ele>
        <time>1970-01-01T07:10:08.000Z</time>
      </trkpt>
      <trkpt lat="42.64828" lon="0.657727">
        <ele>2682.6</ele>
        <time>1970-01-01T07:10:09.000Z</time>
      </trkpt>
      <trkpt lat="42.64828" lon="0.657728">
        <ele>2682.6</ele>
        <time>1970-01-01T07:10:10.000Z</time>
      </trkpt>
      <trkpt lat="42.64828" lon="0.657729">
        <ele>2682.6</ele>
        <time>1970-01-01T07:10:11.000Z</time>
      </trkpt>
      <trkpt lat="42.648279" lon="0.657731">
        <ele>2682.5</ele>
        <time>1970-01-01T07:10:12.000Z</time>
      </trkpt>
      <trkpt lat="42.648278" lon="0.657729">
        <ele>2682.5</ele>
        <time>1970-01-01T07:10:13.000Z</time>
      </trkpt>
      <trkpt lat="42.648277" lon="0.657728">
        <ele>2682.5</ele>
        <time>1970-01-01T07:10:14.000Z</time>
      </trkpt>
      <trkpt lat="42.648276" lon="0.657727">
        <ele>2682.4</ele>
        <time>1970-01-01T07:10:15.000Z</time>
      </trkpt>
      <trkpt lat="42.648276" lon="0.657727">
        <ele>2682.4</ele>
        <time>1970-01-01T07:10:16.000Z</time>
      </trkpt>
      <trkpt lat="42.648276" lon="0.657727">
        <ele>2682.4</ele>
        <time>1970-01-01T07:10:17.000Z</time>
      </trkpt>
      <trkpt lat="42.648276" lon="0.657727">
        <ele>2682.4</ele>
        <time>1970-01-01T07:10:18.000Z</time>
      </trkpt>
      <trkpt lat="42.648275" lon="0.657728">
        <ele>2682.4</ele>
        <time>1970-01-01T07:10:19.000Z</time>
      </trkpt>
      <trkpt lat="42.648275" lon="0.657728">
        <ele>2682.4</ele>
        <time>1970-01-01T07:10:20.000Z</time>
      </trkpt>
      <trkpt lat="42.648275" lon="0.657728">
        <ele>2682.4</ele>
        <time>1970-01-01T07:10:21.000Z</time>
      </trkpt>
      <trkpt lat="42.648275" lon="0.657728">
        <ele>2682.4</ele>
        <time>1970-01-01T07:10:22.000Z</time>
      </trkpt>
      <trkpt lat="42.648275" lon="0.657728">
        <ele>2682.4</ele>
        <time>1970-01-01T07:10:23.000Z</time>
      </trkpt>
      <trkpt lat="42.648275" lon="0.657728">
        <ele>2682.4</ele>
        <time>1970-01-01T07:10:24.000Z</time>
      </trkpt>
      <trkpt lat="42.648275" lon="0.657728">
        <ele>2682.4</ele>
        <time>1970-01-01T07:10:25.000Z</time>
      </trkpt>
      <trkpt lat="42.648275" lon="0.657728">
        <ele>2682.4</ele>
        <time>1970-01-01T07:10:26.000Z</time>
      </trkpt>
      <trkpt lat="42.648275" lon="0.657728">
        <ele>2682.4</ele>
        <time>1970-01-01T07:10:27.000Z</time>
      </trkpt>
      <trkpt lat="42.648275" lon="0.657729">
        <ele>2682.4</ele>
        <time>1970-01-01T07:10:28.000Z</time>
      </trkpt>
      <trkpt lat="42.648275" lon="0.657729">
        <ele>2682.4</ele>
        <time>1970-01-01T07:10:29.000Z</time>
      </trkpt>
      <trkpt lat="42.648274" lon="0.657729">
        <ele>2682.4</ele>
        <time>1970-01-01T07:10:30.000Z</time>
      </trkpt>
      <trkpt lat="42.648274" lon="0.657729">
        <ele>2682.4</ele>
        <time>1970-01-01T07:10:31.000Z</time>
      </trkpt>
      <trkpt lat="42.648274" lon="0.657729">
        <ele>2682.4</ele>
        <time>1970-01-01T07:10:32.000Z</time>
      </trkpt>
      <trkpt lat="42.648274" lon="0.657729">
        <ele>2682.4</ele>
        <time>1970-01-01T07:10:33.000Z</time>
      </trkpt>
      <trkpt lat="42.648274" lon="0.657729">
        <ele>2682.4</ele>
        <time>1970-01-01T07:10:34.000Z</time>
      </trkpt>
      <trkpt lat="42.648274" lon="0.657729">
        <ele>2682.4</ele>
        <time>1970-01-01T07:10:35.000Z</time>
      </trkpt>
      <trkpt lat="42.648274" lon="0.657729">
        <ele>2682.4</ele>
        <time>1970-01-01T07:10:36.000Z</time>
      </trkpt>
      <trkpt lat="42.648274" lon="0.657729">
        <ele>2682.4</ele>
        <time>1970-01-01T07:10:37.000Z</time>
      </trkpt>
      <trkpt lat="42.648274" lon="0.657729">
        <ele>2682.4</ele>
        <time>1970-01-01T07:10:38.000Z</time>
      </trkpt>
      <trkpt lat="42.648274" lon="0.657729">
        <ele>2682.4</ele>
        <time>1970-01-01T07:10:39.000Z</time>
      </trkpt>
      <trkpt lat="42.648274" lon="0.657729">
        <ele>2682.4</ele>
        <time>1970-01-01T07:10:40.000Z</time>
      </trkpt>
      <trkpt lat="42.648274" lon="0.657729">
        <ele>2682.4</ele>
        <time>1970-01-01T07:10:41.000Z</time>
      </trkpt>
      <trkpt lat="42.648274" lon="0.657729">
        <ele>2682.4</ele>
        <time>1970-01-01T07:10:42.000Z</time>
      </trkpt>
      <trkpt lat="42.648274" lon="0.657729">
        <ele>2682.4</ele>
        <time>1970-01-01T07:10:43.000Z</time>
      </trkpt>
      <trkpt lat="42.648274" lon="0.657729">
        <ele>2682.4</ele>
        <time>1970-01-01T07:10:44.000Z</time>
      </trkpt>
      <trkpt lat="42.648273" lon="0.657729">
        <ele>2682.3</ele>
        <time>1970-01-01T07:10:45.000Z</time>
      </trkpt>
      <trkpt lat="42.648273" lon="0.657729">
        <ele>2682.3</ele>
        <time>1970-01-01T07:10:46.000Z</time>
      </trkpt>
      <trkpt lat="42.648273" lon="0.65773">
        <ele>2682.3</ele>
        <time>1970-01-01T07:10:47.000Z</time>
      </trkpt>
      <trkpt lat="42.648273" lon="0.65773">
        <ele>2682.3</ele>
        <time>1970-01-01T07:10:48.000Z</time>
      </trkpt>
      <trkpt lat="42.648273" lon="0.65773">
        <ele>2682.3</ele>
        <time>1970-01-01T07:10:49.000Z</time>
      </trkpt>
      <trkpt lat="42.648273" lon="0.65773">
        <ele>2682.3</ele>
        <time>1970-01-01T07:10:50.000Z</time>
      </trkpt>
      <trkpt lat="42.648273" lon="0.65773">
        <ele>2682.3</ele>
        <time>1970-01-01T07:10:51.000Z</time>
      </trkpt>
      <trkpt lat="42.648273" lon="0.65773">
        <ele>2682.3</ele>
        <time>1970-01-01T07:10:52.000Z</time>
      </trkpt>
      <trkpt lat="42.648273" lon="0.65773">
        <ele>2682.3</ele>
        <time>1970-01-01T07:10:53.000Z</time>
      </trkpt>
      <trkpt lat="42.648273" lon="0.65773">
        <ele>2682.3</ele>
        <time>1970-01-01T07:10:54.000Z</time>
      </trkpt>
      <trkpt lat="42.648273" lon="0.65773">
        <ele>2682.3</ele>
        <time>1970-01-01T07:10:55.000Z</time>
      </trkpt>
      <trkpt lat="42.648273" lon="0.65773">
        <ele>2682.3</ele>
        <time>1970-01-01T07:10:56.000Z</time>
      </trkpt>
      <trkpt lat="42.648273" lon="0.65773">
        <ele>2682.3</ele>
        <time>1970-01-01T07:10:57.000Z</time>
      </trkpt>
      <trkpt lat="42.648273" lon="0.65773">
        <ele>2682.3</ele>
        <time>1970-01-01T07:10:58.000Z</time>
      </trkpt>
      <trkpt lat="42.648273" lon="0.65773">
        <ele>2682.3</ele>
        <time>1970-01-01T07:10:59.000Z</time>
      </trkpt>
      <trkpt lat="42.648273" lon="0.65773">
        <ele>2682.3</ele>
        <time>1970-01-01T07:11:00.000Z</time>
      </trkpt>
      <trkpt lat="42.648273" lon="0.65773">
        <ele>2682.3</ele>
        <time>1970-01-01T07:11:01.000Z</time>
      </trkpt>
      <trkpt lat="42.648273" lon="0.65773">
        <ele>2682.3</ele>
        <time>1970-01-01T07:11:02.000Z</time>
      </trkpt>
      <trkpt lat="42.648273" lon="0.65773">
        <ele>2682.3</ele>
        <time>1970-01-01T07:11:03.000Z</time>
      </trkpt>
      <trkpt lat="42.648273" lon="0.65773">
        <ele>2682.3</ele>
        <time>1970-01-01T07:11:04.000Z</time>
      </trkpt>
      <trkpt lat="42.648272" lon="0.65773">
        <ele>2682.3</ele>
        <time>1970-01-01T07:11:05.000Z</time>
      </trkpt>
      <trkpt lat="42.648272" lon="0.65773">
        <ele>2682.3</ele>
        <time>1970-01-01T07:11:06.000Z</time>
      </trkpt>
      <trkpt lat="42.648272" lon="0.65773">
        <ele>2682.3</ele>
        <time>1970-01-01T07:11:07.000Z</time>
      </trkpt>
      <trkpt lat="42.648272" lon="0.65773">
        <ele>2682.3</ele>
        <time>1970-01-01T07:11:08.000Z</time>
      </trkpt>
      <trkpt lat="42.648272" lon="0.65773">
        <ele>2682.3</ele>
        <time>1970-01-01T07:11:09.000Z</time>
      </trkpt>
      <trkpt lat="42.648272" lon="0.65773">
        <ele>2682.3</ele>
        <time>1970-01-01T07:11:10.000Z</time>
      </trkpt>
      <trkpt lat="42.648272" lon="0.65773">
        <ele>2682.3</ele>
        <time>1970-01-01T07:11:11.000Z</time>
      </trkpt>
      <trkpt lat="42.648272" lon="0.65773">
        <ele>2682.3</ele>
        <time>1970-01-01T07:11:12.000Z</time>
      </trkpt>
      <trkpt lat="42.648272" lon="0.65773">
        <ele>2682.3</ele>
        <time>1970-01-01T07:11:13.000Z</time>
      </trkpt>
      <trkpt lat="42.648272" lon="0.65773">
        <ele>2682.3</ele>
        <time>1970-01-01T07:11:14.000Z</time>
      </trkpt>
      <trkpt lat="42.648272" lon="0.65773">
        <ele>2682.3</ele>
        <time>1970-01-01T07:11:15.000Z</time>
      </trkpt>
      <trkpt lat="42.648272" lon="0.65773">
        <ele>2682.3</ele>
        <time>1970-01-01T07:11:16.000Z</time>
      </trkpt>
      <trkpt lat="42.648272" lon="0.65773">
        <ele>2682.3</ele>
        <time>1970-01-01T07:11:17.000Z</time>
      </trkpt>
      <trkpt lat="42.648272" lon="0.65773">
        <ele>2682.3</ele>
        <time>1970-01-01T07:11:18.000Z</time>
      </trkpt>
      <trkpt lat="42.648272" lon="0.65773">
        <ele>2682.3</ele>
        <time>1970-01-01T07:11:19.000Z</time>
      </trkpt>
      <trkpt lat="42.648272" lon="0.65773">
        <ele>2682.3</ele>
        <time>1970-01-01T07:11:20.000Z</time>
      </trkpt>
      <trkpt lat="42.648272" lon="0.65773">
        <ele>2682.3</ele>
        <time>1970-01-01T07:11:21.000Z</time>
      </trkpt>
      <trkpt lat="42.648272" lon="0.65773">
        <ele>2682.3</ele>
        <time>1970-01-01T07:11:22.000Z</time>
      </trkpt>
      <trkpt lat="42.648272" lon="0.65773">
        <ele>2682.3</ele>
        <time>1970-01-01T07:11:23.000Z</time>
      </trkpt>
      <trkpt lat="42.648272" lon="0.65773">
        <ele>2682.3</ele>
        <time>1970-01-01T07:11:24.000Z</time>
      </trkpt>
      <trkpt lat="42.648272" lon="0.65773">
        <ele>2682.3</ele>
        <time>1970-01-01T07:11:25.000Z</time>
      </trkpt>
      <trkpt lat="42.648272" lon="0.65773">
        <ele>2682.3</ele>
        <time>1970-01-01T07:11:26.000Z</time>
      </trkpt>
      <trkpt lat="42.648272" lon="0.65773">
        <ele>2682.3</ele>
        <time>1970-01-01T07:11:27.000Z</time>
      </trkpt>
      <trkpt lat="42.648272" lon="0.65773">
        <ele>2682.3</ele>
        <time>1970-01-01T07:11:28.000Z</time>
      </trkpt>
      <trkpt lat="42.648272" lon="0.65773">
        <ele>2682.3</ele>
        <time>1970-01-01T07:11:29.000Z</time>
      </trkpt>
      <trkpt lat="42.648272" lon="0.65773">
        <ele>2682.3</ele>
        <time>1970-01-01T07:11:30.000Z</time>
      </trkpt>
      <trkpt lat="42.648271" lon="0.65773">
        <ele>2682.2</ele>
        <time>1970-01-01T07:11:31.000Z</time>
      </trkpt>
      <trkpt lat="42.648271" lon="0.65773">
        <ele>2682.2</ele>
        <time>1970-01-01T07:11:32.000Z</time>
      </trkpt>
      <trkpt lat="42.648271" lon="0.65773">
        <ele>2682.2</ele>
        <time>1970-01-01T07:11:33.000Z</time>
      </trkpt>
      <trkpt lat="42.648271" lon="0.65773">
        <ele>2682.2</ele>
        <time>1970-01-01T07:11:34.000Z</time>
      </trkpt>
      <trkpt lat="42.648271" lon="0.65773">
        <ele>2682.2</ele>
        <time>1970-01-01T07:11:35.000Z</time>
      </trkpt>
      <trkpt lat="42.648271" lon="0.65773">
        <ele>2682.2</ele>
        <time>1970-01-01T07:11:36.000Z</time>
      </trkpt>
      <trkpt lat="42.648271" lon="0.65773">
        <ele>2682.2</ele>
        <time>1970-01-01T07:11:37.000Z</time>
      </trkpt>
      <trkpt lat="42.648271" lon="0.65773">
        <ele>2682.2</ele>
        <time>1970-01-01T07:11:38.000Z</time>
      </trkpt>
      <trkpt lat="42.648271" lon="0.65773">
        <ele>2682.2</ele>
        <time>1970-01-01T07:11:39.000Z</time>
      </trkpt>
      <trkpt lat="42.648271" lon="0.65773">
        <ele>2682.2</ele>
        <time>1970-01-01T07:11:40.000Z</time>
      </trkpt>
      <trkpt lat="42.648271" lon="0.65773">
        <ele>2682.2</ele>
        <time>1970-01-01T07:11:41.000Z</time>
      </trkpt>
      <trkpt lat="42.648271" lon="0.65773">
        <ele>2682.2</ele>
        <time>1970-01-01T07:11:42.000Z</time>
      </trkpt>
      <trkpt lat="42.648271" lon="0.65773">
        <ele>2682.2</ele>
        <time>1970-01-01T07:11:43.000Z</time>
      </trkpt>
      <trkpt lat="42.648271" lon="0.65773">
        <ele>2682.2</ele>
        <time>1970-01-01T07:11:44.000Z</time>
      </trkpt>
      <trkpt lat="42.648271" lon="0.65773">
        <ele>2682.2</ele>
        <time>1970-01-01T07:11:45.000Z</time>
      </trkpt>
      <trkpt lat="42.648271" lon="0.65773">
        <ele>2682.2</ele>
        <time>1970-01-01T07:11:46.000Z</time>
      </trkpt>
      <trkpt lat="42.648271" lon="0.65773">
        <ele>2682.2</ele>
        <time>1970-01-01T07:11:47.000Z</time>
      </trkpt>
      <trkpt lat="42.648271" lon="0.65773">
        <ele>2682.2</ele>
        <time>1970-01-01T07:11:48.000Z</time>
      </trkpt>
      <trkpt lat="42.648271" lon="0.65773">
        <ele>2682.2</ele>
        <time>1970-01-01T07:11:49.000Z</time>
      </trkpt>
      <trkpt lat="42.648271" lon="0.65773">
        <ele>2682.2</ele>
        <time>1970-01-01T07:11:50.000Z</time>
      </trkpt>
      <trkpt lat="42.648271" lon="0.65773">
        <ele>2682.2</ele>
        <time>1970-01-01T07:11:51.000Z</time>
      </trkpt>
      <trkpt lat="42.648271" lon="0.65773">
        <ele>2682.2</ele>
        <time>1970-01-01T07:11:52.000Z</time>
      </trkpt>
      <trkpt lat="42.648271" lon="0.65773">
        <ele>2682.2</ele>
        <time>1970-01-01T07:11:53.000Z</time>
      </trkpt>
      <trkpt lat="42.648271" lon="0.65773">
        <ele>2682.2</ele>
        <time>1970-01-01T07:11:54.000Z</time>
      </trkpt>
      <trkpt lat="42.648271" lon="0.65773">
        <ele>2682.2</ele>
        <time>1970-01-01T07:11:55.000Z</time>
      </trkpt>
      <trkpt lat="42.648271" lon="0.65773">
        <ele>2682.2</ele>
        <time>1970-01-01T07:11:56.000Z</time>
      </trkpt>
      <trkpt lat="42.648271" lon="0.65773">
        <ele>2682.2</ele>
        <time>1970-01-01T07:11:57.000Z</time>
      </trkpt>
      <trkpt lat="42.648271" lon="0.65773">
        <ele>2682.2</ele>
        <time>1970-01-01T07:11:58.000Z</time>
      </trkpt>
      <trkpt lat="42.648271" lon="0.65773">
        <ele>2682.2</ele>
        <time>1970-01-01T07:11:59.000Z</time>
      </trkpt>
      <trkpt lat="42.648271" lon="0.65773">
        <ele>2682.2</ele>
        <time>1970-01-01T07:12:00.000Z</time>
      </trkpt>
      <trkpt lat="42.648271" lon="0.65773">
        <ele>2682.2</ele>
        <time>1970-01-01T07:12:01.000Z</time>
      </trkpt>
      <trkpt lat="42.648271" lon="0.65773">
        <ele>2682.2</ele>
        <time>1970-01-01T07:12:02.000Z</time>
      </trkpt>
      <trkpt lat="42.64827" lon="0.657729">
        <ele>2682.2</ele>
        <time>1970-01-01T07:12:03.000Z</time>
      </trkpt>
      <trkpt lat="42.64827" lon="0.657729">
        <ele>2682.2</ele>
        <time>1970-01-01T07:12:04.000Z</time>
      </trkpt>
      <trkpt lat="42.64827" lon="0.657729">
        <ele>2682.2</ele>
        <time>1970-01-01T07:12:05.000Z</time>
      </trkpt>
      <trkpt lat="42.64827" lon="0.657729">
        <ele>2682.2</ele>
        <time>1970-01-01T07:12:06.000Z</time>
      </trkpt>
      <trkpt lat="42.64827" lon="0.657729">
        <ele>2682.2</ele>
        <time>1970-01-01T07:12:07.000Z</time>
      </trkpt>
      <trkpt lat="42.64827" lon="0.657729">
        <ele>2682.2</ele>
        <time>1970-01-01T07:12:08.000Z</time>
      </trkpt>
      <trkpt lat="42.64827" lon="0.657729">
        <ele>2682.2</ele>
        <time>1970-01-01T07:12:09.000Z</time>
      </trkpt>
      <trkpt lat="42.64827" lon="0.657729">
        <ele>2682.2</ele>
        <time>1970-01-01T07:12:10.000Z</time>
      </trkpt>
      <trkpt lat="42.64827" lon="0.657729">
        <ele>2682.2</ele>
        <time>1970-01-01T07:12:11.000Z</time>
      </trkpt>
      <trkpt lat="42.64827" lon="0.657729">
        <ele>2682.2</ele>
        <time>1970-01-01T07:12:12.000Z</time>
      </trkpt>
      <trkpt lat="42.64827" lon="0.657729">
        <ele>2682.2</ele>
        <time>1970-01-01T07:12:13.000Z</time>
      </trkpt>
      <trkpt lat="42.64827" lon="0.657729">
        <ele>2682.2</ele>
        <time>1970-01-01T07:12:14.000Z</time>
      </trkpt>
      <trkpt lat="42.64827" lon="0.657729">
        <ele>2682.2</ele>
        <time>1970-01-01T07:12:15.000Z</time>
      </trkpt>
      <trkpt lat="42.64827" lon="0.657729">
        <ele>2682.2</ele>
        <time>1970-01-01T07:12:16.000Z</time>
      </trkpt>
      <trkpt lat="42.64827" lon="0.657729">
        <ele>2682.2</ele>
        <time>1970-01-01T07:12:17.000Z</time>
      </trkpt>
      <trkpt lat="42.64827" lon="0.657729">
        <ele>2682.2</ele>
        <time>1970-01-01T07:12:18.000Z</time>
      </trkpt>
      <trkpt lat="42.64827" lon="0.657729">
        <ele>2682.2</ele>
        <time>1970-01-01T07:12:19.000Z</time>
      </trkpt>
      <trkpt lat="42.64827" lon="0.657729">
        <ele>2682.2</ele>
        <time>1970-01-01T07:12:20.000Z</time>
      </trkpt>
      <trkpt lat="42.64827" lon="0.657729">
        <ele>2682.2</ele>
        <time>1970-01-01T07:12:21.000Z</time>
      </trkpt>
      <trkpt lat="42.64827" lon="0.657729">
        <ele>2682.2</ele>
        <time>1970-01-01T07:12:22.000Z</time>
      </trkpt>
      <trkpt lat="42.64827" lon="0.657729">
        <ele>2682.2</ele>
        <time>1970-01-01T07:12:23.000Z</time>
      </trkpt>
      <trkpt lat="42.64827" lon="0.657729">
        <ele>2682.2</ele>
        <time>1970-01-01T07:12:24.000Z</time>
      </trkpt>
      <trkpt lat="42.64827" lon="0.657729">
        <ele>2682.2</ele>
        <time>1970-01-01T07:12:25.000Z</time>
      </trkpt>
      <trkpt lat="42.64827" lon="0.657729">
        <ele>2682.2</ele>
        <time>1970-01-01T07:12:26.000Z</time>
      </trkpt>
      <trkpt lat="42.64827" lon="0.657729">
        <ele>2682.2</ele>
        <time>1970-01-01T07:12:27.000Z</time>
      </trkpt>
      <trkpt lat="42.64827" lon="0.657729">
        <ele>2682.2</ele>
        <time>1970-01-01T07:12:28.000Z</time>
      </trkpt>
      <trkpt lat="42.64827" lon="0.657729">
        <ele>2682.2</ele>
        <time>1970-01-01T07:12:29.000Z</time>
      </trkpt>
      <trkpt lat="42.64827" lon="0.657729">
        <ele>2682.2</ele>
        <time>1970-01-01T07:12:30.000Z</time>
      </trkpt>
      <trkpt lat="42.64827" lon="0.657729">
        <ele>2682.2</ele>
        <time>1970-01-01T07:12:31.000Z</time>
      </trkpt>
      <trkpt lat="42.64827" lon="0.657729">
        <ele>2682.2</ele>
        <time>1970-01-01T07:12:32.000Z</time>
      </trkpt>
      <trkpt lat="42.64827" lon="0.657729">
        <ele>2682.2</ele>
        <time>1970-01-01T07:12:33.000Z</time>
      </trkpt>
      <trkpt lat="42.64827" lon="0.657729">
        <ele>2682.2</ele>
        <time>1970-01-01T07:12:34.000Z</time>
      </trkpt>
      <trkpt lat="42.64827" lon="0.657729">
        <ele>2682.2</ele>
        <time>1970-01-01T07:12:35.000Z</time>
      </trkpt>
      <trkpt lat="42.64827" lon="0.657729">
        <ele>2682.2</ele>
        <time>1970-01-01T07:12:36.000Z</time>
      </trkpt>
      <trkpt lat="42.64827" lon="0.657729">
        <ele>2682.2</ele>
        <time>1970-01-01T07:12:37.000Z</time>
      </trkpt>
      <trkpt lat="42.64827" lon="0.657729">
        <ele>2682.2</ele>
        <time>1970-01-01T07:12:38.000Z</time>
      </trkpt>
      <trkpt lat="42.64827" lon="0.657729">
        <ele>2682.2</ele>
        <time>1970-01-01T07:12:39.000Z</time>
      </trkpt>
      <trkpt lat="42.64827" lon="0.657729">
        <ele>2682.2</ele>
        <time>1970-01-01T07:12:40.000Z</time>
      </trkpt>
      <trkpt lat="42.64827" lon="0.657729">
        <ele>2682.2</ele>
        <time>1970-01-01T07:12:41.000Z</time>
      </trkpt>
      <trkpt lat="42.64827" lon="0.657729">
        <ele>2682.2</ele>
        <time>1970-01-01T07:12:42.000Z</time>
      </trkpt>
      <trkpt lat="42.64827" lon="0.657729">
        <ele>2682.2</ele>
        <time>1970-01-01T07:12:43.000Z</time>
      </trkpt>
      <trkpt lat="42.648269" lon="0.657729">
        <ele>2682.2</ele>
        <time>1970-01-01T07:12:44.000Z</time>
      </trkpt>
      <trkpt lat="42.648269" lon="0.657729">
        <ele>2682.2</ele>
        <time>1970-01-01T07:12:45.000Z</time>
      </trkpt>
      <trkpt lat="42.648269" lon="0.657729">
        <ele>2682.2</ele>
        <time>1970-01-01T07:12:46.000Z</time>
      </trkpt>
      <trkpt lat="42.648269" lon="0.657729">
        <ele>2682.2</ele>
        <time>1970-01-01T07:12:47.000Z</time>
      </trkpt>
      <trkpt lat="42.648269" lon="0.657729">
        <ele>2682.2</ele>
        <time>1970-01-01T07:12:48.000Z</time>
      </trkpt>
      <trkpt lat="42.648269" lon="0.657729">
        <ele>2682.2</ele>
        <time>1970-01-01T07:12:49.000Z</time>
      </trkpt>
      <trkpt lat="42.648269" lon="0.657729">
        <ele>2682.2</ele>
        <time>1970-01-01T07:12:50.000Z</time>
      </trkpt>
      <trkpt lat="42.648269" lon="0.657729">
        <ele>2682.2</ele>
        <time>1970-01-01T07:12:51.000Z</time>
      </trkpt>
      <trkpt lat="42.648269" lon="0.657729">
        <ele>2682.2</ele>
        <time>1970-01-01T07:12:52.000Z</time>
      </trkpt>
      <trkpt lat="42.648269" lon="0.657729">
        <ele>2682.2</ele>
        <time>1970-01-01T07:12:53.000Z</time>
      </trkpt>
      <trkpt lat="42.648269" lon="0.657729">
        <ele>2682.2</ele>
        <time>1970-01-01T07:12:54.000Z</time>
      </trkpt>
      <trkpt lat="42.648269" lon="0.657729">
        <ele>2682.2</ele>
        <time>1970-01-01T07:12:55.000Z</time>
      </trkpt>
      <trkpt lat="42.648269" lon="0.657729">
        <ele>2682.2</ele>
        <time>1970-01-01T07:12:56.000Z</time>
      </trkpt>
      <trkpt lat="42.648269" lon="0.657729">
        <ele>2682.2</ele>
        <time>1970-01-01T07:12:57.000Z</time>
      </trkpt>
      <trkpt lat="42.648269" lon="0.657728">
        <ele>2682.2</ele>
        <time>1970-01-01T07:12:58.000Z</time>
      </trkpt>
      <trkpt lat="42.648269" lon="0.657728">
        <ele>2682.2</ele>
        <time>1970-01-01T07:12:59.000Z</time>
      </trkpt>
      <trkpt lat="42.648269" lon="0.657728">
        <ele>2682.2</ele>
        <time>1970-01-01T07:13:00.000Z</time>
      </trkpt>
      <trkpt lat="42.648269" lon="0.657728">
        <ele>2682.2</ele>
        <time>1970-01-01T07:13:01.000Z</time>
      </trkpt>
      <trkpt lat="42.648269" lon="0.657728">
        <ele>2682.2</ele>
        <time>1970-01-01T07:13:02.000Z</time>
      </trkpt>
      <trkpt lat="42.648269" lon="0.657728">
        <ele>2682.2</ele>
        <time>1970-01-01T07:13:03.000Z</time>
      </trkpt>
      <trkpt lat="42.648269" lon="0.657728">
        <ele>2682.2</ele>
        <time>1970-01-01T07:13:04.000Z</time>
      </trkpt>
      <trkpt lat="42.648269" lon="0.657728">
        <ele>2682.2</ele>
        <time>1970-01-01T07:13:05.000Z</time>
      </trkpt>
      <trkpt lat="42.648269" lon="0.657728">
        <ele>2682.2</ele>
        <time>1970-01-01T07:13:06.000Z</time>
      </trkpt>
      <trkpt lat="42.648269" lon="0.657728">
        <ele>2682.2</ele>
        <time>1970-01-01T07:13:07.000Z</time>
      </trkpt>
      <trkpt lat="42.648269" lon="0.657728">
        <ele>2682.2</ele>
        <time>1970-01-01T07:13:08.000Z</time>
      </trkpt>
      <trkpt lat="42.648269" lon="0.657728">
        <ele>2682.2</ele>
        <time>1970-01-01T07:13:09.000Z</time>
      </trkpt>
      <trkpt lat="42.648269" lon="0.657728">
        <ele>2682.2</ele>
        <time>1970-01-01T07:13:10.000Z</time>
      </trkpt>
      <trkpt lat="42.648269" lon="0.657728">
        <ele>2682.2</ele>
        <time>1970-01-01T07:13:11.000Z</time>
      </trkpt>
      <trkpt lat="42.648269" lon="0.657728">
        <ele>2682.2</ele>
        <time>1970-01-01T07:13:12.000Z</time>
      </trkpt>
      <trkpt lat="42.648269" lon="0.657728">
        <ele>2682.2</ele>
        <time>1970-01-01T07:13:13.000Z</time>
      </trkpt>
      <trkpt lat="42.648269" lon="0.657728">
        <ele>2682.2</ele>
        <time>1970-01-01T07:13:14.000Z</time>
      </trkpt>
      <trkpt lat="42.648269" lon="0.657728">
        <ele>2682.2</ele>
        <time>1970-01-01T07:13:15.000Z</time>
      </trkpt>
      <trkpt lat="42.648269" lon="0.657728">
        <ele>2682.2</ele>
        <time>1970-01-01T07:13:16.000Z</time>
      </trkpt>
      <trkpt lat="42.648269" lon="0.657728">
        <ele>2682.2</ele>
        <time>1970-01-01T07:13:17.000Z</time>
      </trkpt>
      <trkpt lat="42.648269" lon="0.657728">
        <ele>2682.2</ele>
        <time>1970-01-01T07:13:18.000Z</time>
      </trkpt>
      <trkpt lat="42.648269" lon="0.657728">
        <ele>2682.2</ele>
        <time>1970-01-01T07:13:19.000Z</time>
      </trkpt>
      <trkpt lat="42.648269" lon="0.657728">
        <ele>2682.2</ele>
        <time>1970-01-01T07:13:20.000Z</time>
      </trkpt>
      <trkpt lat="42.648269" lon="0.657728">
        <ele>2682.2</ele>
        <time>1970-01-01T07:13:21.000Z</time>
      </trkpt>
      <trkpt lat="42.648269" lon="0.657728">
        <ele>2682.2</ele>
        <time>1970-01-01T07:13:22.000Z</time>
      </trkpt>
      <trkpt lat="42.648269" lon="0.657728">
        <ele>2682.2</ele>
        <time>1970-01-01T07:13:23.000Z</time>
      </trkpt>
      <trkpt lat="42.648269" lon="0.657728">
        <ele>2682.2</ele>
        <time>1970-01-01T07:13:24.000Z</time>
      </trkpt>
      <trkpt lat="42.648269" lon="0.657728">
        <ele>2682.2</ele>
        <time>1970-01-01T07:13:25.000Z</time>
      </trkpt>
      <trkpt lat="42.648269" lon="0.657728">
        <ele>2682.2</ele>
        <time>1970-01-01T07:13:26.000Z</time>
      </trkpt>
      <trkpt lat="42.648269" lon="0.657728">
        <ele>2682.2</ele>
        <time>1970-01-01T07:13:27.000Z</time>
      </trkpt>
      <trkpt lat="42.648269" lon="0.657728">
        <ele>2682.2</ele>
        <time>1970-01-01T07:13:28.000Z</time>
      </trkpt>
      <trkpt lat="42.648269" lon="0.657728">
        <ele>2682.2</ele>
        <time>1970-01-01T07:13:29.000Z</time>
      </trkpt>
      <trkpt lat="42.648269" lon="0.657728">
        <ele>2682.2</ele>
        <time>1970-01-01T07:13:30.000Z</time>
      </trkpt>
      <trkpt lat="42.648269" lon="0.657728">
        <ele>2682.2</ele>
        <time>1970-01-01T07:13:31.000Z</time>
      </trkpt>
      <trkpt lat="42.648269" lon="0.657728">
        <ele>2682.2</ele>
        <time>1970-01-01T07:13:32.000Z</time>
      </trkpt>
      <trkpt lat="42.648269" lon="0.657728">
        <ele>2682.2</ele>
        <time>1970-01-01T07:13:33.000Z</time>
      </trkpt>
      <trkpt lat="42.648269" lon="0.657728">
        <ele>2682.2</ele>
        <time>1970-01-01T07:13:34.000Z</time>
      </trkpt>
      <trkpt lat="42.648268" lon="0.657728">
        <ele>2682.1</ele>
        <time>1970-01-01T07:13:35.000Z</time>
      </trkpt>
      <trkpt lat="42.648268" lon="0.657728">
        <ele>2682.1</ele>
        <time>1970-01-01T07:13:36.000Z</time>
      </trkpt>
      <trkpt lat="42.648268" lon="0.657728">
        <ele>2682.1</ele>
        <time>1970-01-01T07:13:37.000Z</time>
      </trkpt>
      <trkpt lat="42.648268" lon="0.657728">
        <ele>2682.1</ele>
        <time>1970-01-01T07:13:38.000Z</time>
      </trkpt>
      <trkpt lat="42.648268" lon="0.657728">
        <ele>2682.1</ele>
        <time>1970-01-01T07:13:39.000Z</time>
      </trkpt>
      <trkpt lat="42.648268" lon="0.657728">
        <ele>2682.1</ele>
        <time>1970-01-01T07:13:40.000Z</time>
      </trkpt>
      <trkpt lat="42.648268" lon="0.657728">
        <ele>2682.1</ele>
        <time>1970-01-01T07:13:41.000Z</time>
      </trkpt>
      <trkpt lat="42.648268" lon="0.657728">
        <ele>2682.1</ele>
        <time>1970-01-01T07:13:42.000Z</time>
      </trkpt>
      <trkpt lat="42.648268" lon="0.657728">
        <ele>2682.1</ele>
        <time>1970-01-01T07:13:43.000Z</time>
      </trkpt>
      <trkpt lat="42.648268" lon="0.657728">
        <ele>2682.1</ele>
        <time>1970-01-01T07:13:44.000Z</time>
      </trkpt>
      <trkpt lat="42.648268" lon="0.657728">
        <ele>2682.1</ele>
        <time>1970-01-01T07:13:45.000Z</time>
      </trkpt>
      <trkpt lat="42.648268" lon="0.657728">
        <ele>2682.1</ele>
        <time>1970-01-01T07:13:46.000Z</time>
      </trkpt>
      <trkpt lat="42.648268" lon="0.657728">
        <ele>2682.1</ele>
        <time>1970-01-01T07:13:47.000Z</time>
      </trkpt>
      <trkpt lat="42.648268" lon="0.657728">
        <ele>2682.1</ele>
        <time>1970-01-01T07:13:48.000Z</time>
      </trkpt>
      <trkpt lat="42.648268" lon="0.657728">
        <ele>2682.1</ele>
        <time>1970-01-01T07:13:49.000Z</time>
      </trkpt>
      <trkpt lat="42.648268" lon="0.657728">
        <ele>2682.1</ele>
        <time>1970-01-01T07:13:50.000Z</time>
      </trkpt>
      <trkpt lat="42.648268" lon="0.657727">
        <ele>2682.1</ele>
        <time>1970-01-01T07:13:51.000Z</time>
      </trkpt>
      <trkpt lat="42.648268" lon="0.657727">
        <ele>2682.1</ele>
        <time>1970-01-01T07:13:52.000Z</time>
      </trkpt>
      <trkpt lat="42.648268" lon="0.657727">
        <ele>2682.1</ele>
        <time>1970-01-01T07:13:53.000Z</time>
      </trkpt>
      <trkpt lat="42.648268" lon="0.657727">
        <ele>2682.1</ele>
        <time>1970-01-01T07:13:54.000Z</time>
      </trkpt>
      <trkpt lat="42.648268" lon="0.657727">
        <ele>2682.1</ele>
        <time>1970-01-01T07:13:55.000Z</time>
      </trkpt>
      <trkpt lat="42.648268" lon="0.657727">
        <ele>2682.1</ele>
        <time>1970-01-01T07:13:56.000Z</time>
      </trkpt>
      <trkpt lat="42.648268" lon="0.657727">
        <ele>2682.1</ele>
        <time>1970-01-01T07:13:57.000Z</time>
      </trkpt>
      <trkpt lat="42.648268" lon="0.657727">
        <ele>2682.1</ele>
        <time>1970-01-01T07:13:58.000Z</time>
      </trkpt>
      <trkpt lat="42.648268" lon="0.657727">
        <ele>2682.1</ele>
        <time>1970-01-01T07:13:59.000Z</time>
      </trkpt>
      <trkpt lat="42.648268" lon="0.657727">
        <ele>2682.1</ele>
        <time>1970-01-01T07:14:00.000Z</time>
      </trkpt>
      <trkpt lat="42.648268" lon="0.657727">
        <ele>2682.1</ele>
        <time>1970-01-01T07:14:01.000Z</time>
      </trkpt>
      <trkpt lat="42.648268" lon="0.657727">
        <ele>2682.1</ele>
        <time>1970-01-01T07:14:02.000Z</time>
      </trkpt>
      <trkpt lat="42.648268" lon="0.657727">
        <ele>2682.1</ele>
        <time>1970-01-01T07:14:03.000Z</time>
      </trkpt>
      <trkpt lat="42.648268" lon="0.657727">
        <ele>2682.1</ele>
        <time>1970-01-01T07:14:04.000Z</time>
      </trkpt>
      <trkpt lat="42.648268" lon="0.657727">
        <ele>2682.1</ele>
        <time>1970-01-01T07:14:05.000Z</time>
      </trkpt>
      <trkpt lat="42.648268" lon="0.657727">
        <ele>2682.1</ele>
        <time>1970-01-01T07:14:06.000Z</time>
      </trkpt>
      <trkpt lat="42.648268" lon="0.657727">
        <ele>2682.1</ele>
        <time>1970-01-01T07:14:07.000Z</time>
      </trkpt>
      <trkpt lat="42.648268" lon="0.657727">
        <ele>2682.1</ele>
        <time>1970-01-01T07:14:08.000Z</time>
      </trkpt>
      <trkpt lat="42.648268" lon="0.657727">
        <ele>2682.1</ele>
        <time>1970-01-01T07:14:09.000Z</time>
      </trkpt>
      <trkpt lat="42.648268" lon="0.657727">
        <ele>2682.1</ele>
        <time>1970-01-01T07:14:10.000Z</time>
      </trkpt>
      <trkpt lat="42.648268" lon="0.657727">
        <ele>2682.1</ele>
        <time>1970-01-01T07:14:11.000Z</time>
      </trkpt>
      <trkpt lat="42.648268" lon="0.657727">
        <ele>2682.1</ele>
        <time>1970-01-01T07:14:12.000Z</time>
      </trkpt>
      <trkpt lat="42.648268" lon="0.657727">
        <ele>2682.1</ele>
        <time>1970-01-01T07:14:13.000Z</time>
      </trkpt>
      <trkpt lat="42.648268" lon="0.657727">
        <ele>2682.1</ele>
        <time>1970-01-01T07:14:14.000Z</time>
      </trkpt>
      <trkpt lat="42.648268" lon="0.657727">
        <ele>2682.1</ele>
        <time>1970-01-01T07:14:15.000Z</time>
      </trkpt>
      <trkpt lat="42.648268" lon="0.657727">
        <ele>2682.1</ele>
        <time>1970-01-01T07:14:16.000Z</time>
      </trkpt>
      <trkpt lat="42.648268" lon="0.657727">
        <ele>2682.1</ele>
        <time>1970-01-01T07:14:17.000Z</time>
      </trkpt>
      <trkpt lat="42.648268" lon="0.657727">
        <ele>2682.1</ele>
        <time>1970-01-01T07:14:18.000Z</time>
      </trkpt>
      <trkpt lat="42.648268" lon="0.657727">
        <ele>2682.1</ele>
        <time>1970-01-01T07:14:19.000Z</time>
      </trkpt>
      <trkpt lat="42.648268" lon="0.657727">
        <ele>2682.1</ele>
        <time>1970-01-01T07:14:20.000Z</time>
      </trkpt>
      <trkpt lat="42.648268" lon="0.657727">
        <ele>2682.1</ele>
        <time>1970-01-01T07:14:21.000Z</time>
      </trkpt>
      <trkpt lat="42.648268" lon="0.657727">
        <ele>2682.1</ele>
        <time>1970-01-01T07:14:22.000Z</time>
      </trkpt>
      <trkpt lat="42.648268" lon="0.657727">
        <ele>2682.1</ele>
        <time>1970-01-01T07:14:23.000Z</time>
      </trkpt>
      <trkpt lat="42.648268" lon="0.657727">
        <ele>2682.1</ele>
        <time>1970-01-01T07:14:24.000Z</time>
      </trkpt>
      <trkpt lat="42.648268" lon="0.657727">
        <ele>2682.1</ele>
        <time>1970-01-01T07:14:25.000Z</time>
      </trkpt>
      <trkpt lat="42.648268" lon="0.657727">
        <ele>2682.1</ele>
        <time>1970-01-01T07:14:26.000Z</time>
      </trkpt>
      <trkpt lat="42.648268" lon="0.657727">
        <ele>2682.1</ele>
        <time>1970-01-01T07:14:27.000Z</time>
      </trkpt>
      <trkpt lat="42.648268" lon="0.657727">
        <ele>2682.1</ele>
        <time>1970-01-01T07:14:28.000Z</time>
      </trkpt>
      <trkpt lat="42.648268" lon="0.657727">
        <ele>2682.1</ele>
        <time>1970-01-01T07:14:29.000Z</time>
      </trkpt>
      <trkpt lat="42.648268" lon="0.657727">
        <ele>2682.1</ele>
        <time>1970-01-01T07:14:30.000Z</time>
      </trkpt>
      <trkpt lat="42.648268" lon="0.657727">
        <ele>2682.1</ele>
        <time>1970-01-01T07:14:31.000Z</time>
      </trkpt>
      <trkpt lat="42.648268" lon="0.657726">
        <ele>2682.1</ele>
        <time>1970-01-01T07:14:32.000Z</time>
      </trkpt>
      <trkpt lat="42.648268" lon="0.657726">
        <ele>2682.1</ele>
        <time>1970-01-01T07:14:33.000Z</time>
      </trkpt>
      <trkpt lat="42.648268" lon="0.657726">
        <ele>2682.1</ele>
        <time>1970-01-01T07:14:34.000Z</time>
      </trkpt>
      <trkpt lat="42.648268" lon="0.657727">
        <ele>2682.1</ele>
        <time>1970-01-01T07:14:35.000Z</time>
      </trkpt>
      <trkpt lat="42.648268" lon="0.657727">
        <ele>2682.1</ele>
        <time>1970-01-01T07:14:36.000Z</time>
      </trkpt>
      <trkpt lat="42.648268" lon="0.657726">
        <ele>2682.1</ele>
        <time>1970-01-01T07:14:37.000Z</time>
      </trkpt>
      <trkpt lat="42.648268" lon="0.657726">
        <ele>2682.1</ele>
        <time>1970-01-01T07:14:38.000Z</time>
      </trkpt>
      <trkpt lat="42.648268" lon="0.657726">
        <ele>2682.1</ele>
        <time>1970-01-01T07:14:39.000Z</time>
      </trkpt>
      <trkpt lat="42.648268" lon="0.657726">
        <ele>2682.1</ele>
        <time>1970-01-01T07:14:40.000Z</time>
      </trkpt>
      <trkpt lat="42.648268" lon="0.657726">
        <ele>2682.1</ele>
        <time>1970-01-01T07:14:41.000Z</time>
      </trkpt>
      <trkpt lat="42.648268" lon="0.657726">
        <ele>2682.1</ele>
        <time>1970-01-01T07:14:42.000Z</time>
      </trkpt>
      <trkpt lat="42.648268" lon="0.657726">
        <ele>2682.1</ele>
        <time>1970-01-01T07:14:43.000Z</time>
      </trkpt>
      <trkpt lat="42.648268" lon="0.657726">
        <ele>2682.1</ele>
        <time>1970-01-01T07:14:44.000Z</time>
      </trkpt>
      <trkpt lat="42.648268" lon="0.657726">
        <ele>2682.1</ele>
        <time>1970-01-01T07:14:45.000Z</time>
      </trkpt>
      <trkpt lat="42.648267" lon="0.657726">
        <ele>2682</ele>
        <time>1970-01-01T07:14:46.000Z</time>
      </trkpt>
      <trkpt lat="42.648267" lon="0.657726">
        <ele>2682</ele>
        <time>1970-01-01T07:14:47.000Z</time>
      </trkpt>
      <trkpt lat="42.648267" lon="0.657726">
        <ele>2682</ele>
        <time>1970-01-01T07:14:48.000Z</time>
      </trkpt>
      <trkpt lat="42.648267" lon="0.657726">
        <ele>2682</ele>
        <time>1970-01-01T07:14:49.000Z</time>
      </trkpt>
      <trkpt lat="42.648267" lon="0.657726">
        <ele>2682</ele>
        <time>1970-01-01T07:14:50.000Z</time>
      </trkpt>
      <trkpt lat="42.648267" lon="0.657726">
        <ele>2682</ele>
        <time>1970-01-01T07:14:51.000Z</time>
      </trkpt>
      <trkpt lat="42.648267" lon="0.657726">
        <ele>2682</ele>
        <time>1970-01-01T07:14:52.000Z</time>
      </trkpt>
      <trkpt lat="42.648267" lon="0.657726">
        <ele>2682</ele>
        <time>1970-01-01T07:14:53.000Z</time>
      </trkpt>
      <trkpt lat="42.648267" lon="0.657726">
        <ele>2682</ele>
        <time>1970-01-01T07:14:54.000Z</time>
      </trkpt>
      <trkpt lat="42.648267" lon="0.657726">
        <ele>2682</ele>
        <time>1970-01-01T07:14:55.000Z</time>
      </trkpt>
      <trkpt lat="42.648267" lon="0.657726">
        <ele>2682</ele>
        <time>1970-01-01T07:14:56.000Z</time>
      </trkpt>
      <trkpt lat="42.648267" lon="0.657726">
        <ele>2682</ele>
        <time>1970-01-01T07:14:57.000Z</time>
      </trkpt>
      <trkpt lat="42.648267" lon="0.657726">
        <ele>2682</ele>
        <time>1970-01-01T07:14:58.000Z</time>
      </trkpt>
      <trkpt lat="42.648267" lon="0.657726">
        <ele>2682</ele>
        <time>1970-01-01T07:14:59.000Z</time>
      </trkpt>
      <trkpt lat="42.648267" lon="0.657726">
        <ele>2682</ele>
        <time>1970-01-01T07:15:00.000Z</time>
      </trkpt>
      <trkpt lat="42.648267" lon="0.657726">
        <ele>2682</ele>
        <time>1970-01-01T07:15:01.000Z</time>
      </trkpt>
      <trkpt lat="42.648267" lon="0.657726">
        <ele>2682</ele>
        <time>1970-01-01T07:15:02.000Z</time>
      </trkpt>
      <trkpt lat="42.648267" lon="0.657726">
        <ele>2682</ele>
        <time>1970-01-01T07:15:03.000Z</time>
      </trkpt>
      <trkpt lat="42.648267" lon="0.657726">
        <ele>2682</ele>
        <time>1970-01-01T07:15:04.000Z</time>
      </trkpt>
      <trkpt lat="42.648267" lon="0.657726">
        <ele>2682</ele>
        <time>1970-01-01T07:15:05.000Z</time>
      </trkpt>
      <trkpt lat="42.648267" lon="0.657726">
        <ele>2682</ele>
        <time>1970-01-01T07:15:06.000Z</time>
      </trkpt>
      <trkpt lat="42.648267" lon="0.657726">
        <ele>2682</ele>
        <time>1970-01-01T07:15:07.000Z</time>
      </trkpt>
      <trkpt lat="42.648267" lon="0.657726">
        <ele>2682</ele>
        <time>1970-01-01T07:15:08.000Z</time>
      </trkpt>
      <trkpt lat="42.648267" lon="0.657726">
        <ele>2682</ele>
        <time>1970-01-01T07:15:09.000Z</time>
      </trkpt>
      <trkpt lat="42.648267" lon="0.657726">
        <ele>2682</ele>
        <time>1970-01-01T07:15:10.000Z</time>
      </trkpt>
      <trkpt lat="42.648267" lon="0.657726">
        <ele>2682</ele>
        <time>1970-01-01T07:15:11.000Z</time>
      </trkpt>
      <trkpt lat="42.648267" lon="0.657726">
        <ele>2682</ele>
        <time>1970-01-01T07:15:12.000Z</time>
      </trkpt>
      <trkpt lat="42.648267" lon="0.657726">
        <ele>2682</ele>
        <time>1970-01-01T07:15:13.000Z</time>
      </trkpt>
      <trkpt lat="42.648267" lon="0.657726">
        <ele>2682</ele>
        <time>1970-01-01T07:15:14.000Z</time>
      </trkpt>
      <trkpt lat="42.648267" lon="0.657726">
        <ele>2682</ele>
        <time>1970-01-01T07:15:15.000Z</time>
      </trkpt>
      <trkpt lat="42.648267" lon="0.657726">
        <ele>2682</ele>
        <time>1970-01-01T07:15:16.000Z</time>
      </trkpt>
      <trkpt lat="42.648267" lon="0.657726">
        <ele>2682</ele>
        <time>1970-01-01T07:15:17.000Z</time>
      </trkpt>
      <trkpt lat="42.648267" lon="0.657726">
        <ele>2682</ele>
        <time>1970-01-01T07:15:18.000Z</time>
      </trkpt>
      <trkpt lat="42.648267" lon="0.657726">
        <ele>2682</ele>
        <time>1970-01-01T07:15:19.000Z</time>
      </trkpt>
      <trkpt lat="42.648267" lon="0.657726">
        <ele>2682</ele>
        <time>1970-01-01T07:15:20.000Z</time>
      </trkpt>
      <trkpt lat="42.648267" lon="0.657725">
        <ele>2682</ele>
        <time>1970-01-01T07:15:21.000Z</time>
      </trkpt>
      <trkpt lat="42.648267" lon="0.657725">
        <ele>2682</ele>
        <time>1970-01-01T07:15:22.000Z</time>
      </trkpt>
      <trkpt lat="42.648267" lon="0.657725">
        <ele>2682</ele>
        <time>1970-01-01T07:15:23.000Z</time>
      </trkpt>
      <trkpt lat="42.648267" lon="0.657725">
        <ele>2682</ele>
        <time>1970-01-01T07:15:24.000Z</time>
      </trkpt>
      <trkpt lat="42.648267" lon="0.657725">
        <ele>2682</ele>
        <time>1970-01-01T07:15:25.000Z</time>
      </trkpt>
      <trkpt lat="42.648267" lon="0.657725">
        <ele>2682</ele>
        <time>1970-01-01T07:15:26.000Z</time>
      </trkpt>
      <trkpt lat="42.648267" lon="0.657725">
        <ele>2682</ele>
        <time>1970-01-01T07:15:27.000Z</time>
      </trkpt>
      <trkpt lat="42.648267" lon="0.657725">
        <ele>2682</ele>
        <time>1970-01-01T07:15:28.000Z</time>
      </trkpt>
      <trkpt lat="42.648267" lon="0.657725">
        <ele>2682</ele>
        <time>1970-01-01T07:15:29.000Z</time>
      </trkpt>
      <trkpt lat="42.648267" lon="0.657725">
        <ele>2682</ele>
        <time>1970-01-01T07:15:30.000Z</time>
      </trkpt>
      <trkpt lat="42.648267" lon="0.657725">
        <ele>2682</ele>
        <time>1970-01-01T07:15:31.000Z</time>
      </trkpt>
      <trkpt lat="42.648267" lon="0.657725">
        <ele>2682</ele>
        <time>1970-01-01T07:15:32.000Z</time>
      </trkpt>
      <trkpt lat="42.648267" lon="0.657725">
        <ele>2682</ele>
        <time>1970-01-01T07:15:33.000Z</time>
      </trkpt>
      <trkpt lat="42.648267" lon="0.657725">
        <ele>2682</ele>
        <time>1970-01-01T07:15:34.000Z</time>
      </trkpt>
      <trkpt lat="42.648267" lon="0.657725">
        <ele>2682</ele>
        <time>1970-01-01T07:15:35.000Z</time>
      </trkpt>
      <trkpt lat="42.648267" lon="0.657725">
        <ele>2682</ele>
        <time>1970-01-01T07:15:36.000Z</time>
      </trkpt>
      <trkpt lat="42.648267" lon="0.657725">
        <ele>2682</ele>
        <time>1970-01-01T07:15:37.000Z</time>
      </trkpt>
      <trkpt lat="42.648267" lon="0.657725">
        <ele>2682</ele>
        <time>1970-01-01T07:15:38.000Z</time>
      </trkpt>
      <trkpt lat="42.648267" lon="0.657725">
        <ele>2682</ele>
        <time>1970-01-01T07:15:39.000Z</time>
      </trkpt>
      <trkpt lat="42.648267" lon="0.657725">
        <ele>2682</ele>
        <time>1970-01-01T07:15:40.000Z</time>
      </trkpt>
      <trkpt lat="42.648267" lon="0.657725">
        <ele>2682</ele>
        <time>1970-01-01T07:15:41.000Z</time>
      </trkpt>
      <trkpt lat="42.648267" lon="0.657725">
        <ele>2682</ele>
        <time>1970-01-01T07:15:42.000Z</time>
      </trkpt>
      <trkpt lat="42.648267" lon="0.657725">
        <ele>2682</ele>
        <time>1970-01-01T07:15:43.000Z</time>
      </trkpt>
      <trkpt lat="42.648267" lon="0.657725">
        <ele>2682</ele>
        <time>1970-01-01T07:15:44.000Z</time>
      </trkpt>
      <trkpt lat="42.648267" lon="0.657725">
        <ele>2682</ele>
        <time>1970-01-01T07:15:45.000Z</time>
      </trkpt>
      <trkpt lat="42.648267" lon="0.657725">
        <ele>2682</ele>
        <time>1970-01-01T07:15:46.000Z</time>
      </trkpt>
      <trkpt lat="42.648267" lon="0.657725">
        <ele>2682</ele>
        <time>1970-01-01T07:15:47.000Z</time>
      </trkpt>
      <trkpt lat="42.648266" lon="0.657725">
        <ele>2682</ele>
        <time>1970-01-01T07:15:48.000Z</time>
      </trkpt>
      <trkpt lat="42.648266" lon="0.657725">
        <ele>2682</ele>
        <time>1970-01-01T07:15:49.000Z</time>
      </trkpt>
      <trkpt lat="42.648266" lon="0.657725">
        <ele>2682</ele>
        <time>1970-01-01T07:15:50.000Z</time>
      </trkpt>
      <trkpt lat="42.648266" lon="0.657725">
        <ele>2682</ele>
        <time>1970-01-01T07:15:51.000Z</time>
      </trkpt>
      <trkpt lat="42.648266" lon="0.657725">
        <ele>2682</ele>
        <time>1970-01-01T07:15:52.000Z</time>
      </trkpt>
      <trkpt lat="42.648266" lon="0.657725">
        <ele>2682</ele>
        <time>1970-01-01T07:15:53.000Z</time>
      </trkpt>
      <trkpt lat="42.648266" lon="0.657725">
        <ele>2682</ele>
        <time>1970-01-01T07:15:54.000Z</time>
      </trkpt>
      <trkpt lat="42.648266" lon="0.657725">
        <ele>2682</ele>
        <time>1970-01-01T07:15:55.000Z</time>
      </trkpt>
      <trkpt lat="42.648266" lon="0.657725">
        <ele>2682</ele>
        <time>1970-01-01T07:15:56.000Z</time>
      </trkpt>
      <trkpt lat="42.648266" lon="0.657725">
        <ele>2682</ele>
        <time>1970-01-01T07:15:57.000Z</time>
      </trkpt>
      <trkpt lat="42.648266" lon="0.657725">
        <ele>2682</ele>
        <time>1970-01-01T07:15:58.000Z</time>
      </trkpt>
      <trkpt lat="42.648266" lon="0.657725">
        <ele>2682</ele>
        <time>1970-01-01T07:15:59.000Z</time>
      </trkpt>
      <trkpt lat="42.648266" lon="0.657725">
        <ele>2682</ele>
        <time>1970-01-01T07:16:00.000Z</time>
      </trkpt>
      <trkpt lat="42.648266" lon="0.657725">
        <ele>2682</ele>
        <time>1970-01-01T07:16:01.000Z</time>
      </trkpt>
      <trkpt lat="42.648266" lon="0.657725">
        <ele>2682</ele>
        <time>1970-01-01T07:16:02.000Z</time>
      </trkpt>
      <trkpt lat="42.648266" lon="0.657725">
        <ele>2682</ele>
        <time>1970-01-01T07:16:03.000Z</time>
      </trkpt>
      <trkpt lat="42.648266" lon="0.657725">
        <ele>2682</ele>
        <time>1970-01-01T07:16:04.000Z</time>
      </trkpt>
      <trkpt lat="42.648266" lon="0.657725">
        <ele>2682</ele>
        <time>1970-01-01T07:16:05.000Z</time>
      </trkpt>
      <trkpt lat="42.648266" lon="0.657725">
        <ele>2682</ele>
        <time>1970-01-01T07:16:06.000Z</time>
      </trkpt>
      <trkpt lat="42.648266" lon="0.657725">
        <ele>2682</ele>
        <time>1970-01-01T07:16:07.000Z</time>
      </trkpt>
      <trkpt lat="42.648266" lon="0.657725">
        <ele>2682</ele>
        <time>1970-01-01T07:16:08.000Z</time>
      </trkpt>
      <trkpt lat="42.648266" lon="0.657725">
        <ele>2682</ele>
        <time>1970-01-01T07:16:09.000Z</time>
      </trkpt>
      <trkpt lat="42.648266" lon="0.657725">
        <ele>2682</ele>
        <time>1970-01-01T07:16:10.000Z</time>
      </trkpt>
      <trkpt lat="42.648266" lon="0.657725">
        <ele>2682</ele>
        <time>1970-01-01T07:16:11.000Z</time>
      </trkpt>
      <trkpt lat="42.648266" lon="0.657725">
        <ele>2682</ele>
        <time>1970-01-01T07:16:12.000Z</time>
      </trkpt>
      <trkpt lat="42.648266" lon="0.657725">
        <ele>2682</ele>
        <time>1970-01-01T07:16:13.000Z</time>
      </trkpt>
      <trkpt lat="42.648266" lon="0.657725">
        <ele>2682</ele>
        <time>1970-01-01T07:16:14.000Z</time>
      </trkpt>
      <trkpt lat="42.648266" lon="0.657725">
        <ele>2682</ele>
        <time>1970-01-01T07:16:15.000Z</time>
      </trkpt>
      <trkpt lat="42.648266" lon="0.657725">
        <ele>2682</ele>
        <time>1970-01-01T07:16:16.000Z</time>
      </trkpt>
      <trkpt lat="42.648266" lon="0.657725">
        <ele>2682</ele>
        <time>1970-01-01T07:16:17.000Z</time>
      </trkpt>
      <trkpt lat="42.648266" lon="0.657725">
        <ele>2682</ele>
        <time>1970-01-01T07:16:18.000Z</time>
      </trkpt>
      <trkpt lat="42.648266" lon="0.657725">
        <ele>2682</ele>
        <time>1970-01-01T07:16:19.000Z</time>
      </trkpt>
      <trkpt lat="42.648266" lon="0.657725">
        <ele>2682</ele>
        <time>1970-01-01T07:16:20.000Z</time>
      </trkpt>
      <trkpt lat="42.648266" lon="0.657725">
        <ele>2682</ele>
        <time>1970-01-01T07:16:21.000Z</time>
      </trkpt>
      <trkpt lat="42.648266" lon="0.657725">
        <ele>2682</ele>
        <time>1970-01-01T07:16:22.000Z</time>
      </trkpt>
      <trkpt lat="42.648266" lon="0.657725">
        <ele>2682</ele>
        <time>1970-01-01T07:16:23.000Z</time>
      </trkpt>
      <trkpt lat="42.648266" lon="0.657725">
        <ele>2682</ele>
        <time>1970-01-01T07:16:24.000Z</time>
      </trkpt>
      <trkpt lat="42.648266" lon="0.657725">
        <ele>2682</ele>
        <time>1970-01-01T07:16:25.000Z</time>
      </trkpt>
      <trkpt lat="42.648266" lon="0.657724">
        <ele>2682</ele>
        <time>1970-01-01T07:16:26.000Z</time>
      </trkpt>
      <trkpt lat="42.648266" lon="0.657724">
        <ele>2682</ele>
        <time>1970-01-01T07:16:27.000Z</time>
      </trkpt>
      <trkpt lat="42.648266" lon="0.657724">
        <ele>2682</ele>
        <time>1970-01-01T07:16:28.000Z</time>
      </trkpt>
      <trkpt lat="42.648266" lon="0.657725">
        <ele>2681.9</ele>
        <time>1970-01-01T07:16:29.000Z</time>
      </trkpt>
      <trkpt lat="42.648266" lon="0.657725">
        <ele>2681.9</ele>
        <time>1970-01-01T07:16:30.000Z</time>
      </trkpt>
      <trkpt lat="42.648266" lon="0.657725">
        <ele>2681.9</ele>
        <time>1970-01-01T07:16:31.000Z</time>
      </trkpt>
      <trkpt lat="42.648266" lon="0.657724">
        <ele>2681.9</ele>
        <time>1970-01-01T07:16:32.000Z</time>
      </trkpt>
      <trkpt lat="42.648266" lon="0.657724">
        <ele>2681.9</ele>
        <time>1970-01-01T07:16:33.000Z</time>
      </trkpt>
      <trkpt lat="42.648266" lon="0.657724">
        <ele>2681.9</ele>
        <time>1970-01-01T07:16:34.000Z</time>
      </trkpt>
      <trkpt lat="42.648266" lon="0.657724">
        <ele>2681.9</ele>
        <time>1970-01-01T07:16:35.000Z</time>
      </trkpt>
      <trkpt lat="42.648266" lon="0.657724">
        <ele>2681.9</ele>
        <time>1970-01-01T07:16:36.000Z</time>
      </trkpt>
      <trkpt lat="42.648266" lon="0.657724">
        <ele>2681.9</ele>
        <time>1970-01-01T07:16:37.000Z</time>
      </trkpt>
      <trkpt lat="42.648266" lon="0.657724">
        <ele>2681.9</ele>
        <time>1970-01-01T07:16:38.000Z</time>
      </trkpt>
      <trkpt lat="42.648266" lon="0.657724">
        <ele>2681.9</ele>
        <time>1970-01-01T07:16:39.000Z</time>
      </trkpt>
      <trkpt lat="42.648266" lon="0.657724">
        <ele>2681.9</ele>
        <time>1970-01-01T07:16:40.000Z</time>
      </trkpt>
      <trkpt lat="42.648266" lon="0.657724">
        <ele>2681.9</ele>
        <time>1970-01-01T07:16:41.000Z</time>
      </trkpt>
      <trkpt lat="42.648266" lon="0.657724">
        <ele>2681.9</ele>
        <time>1970-01-01T07:16:42.000Z</time>
      </trkpt>
      <trkpt lat="42.648266" lon="0.657724">
        <ele>2681.9</ele>
        <time>1970-01-01T07:16:43.000Z</time>
      </trkpt>
      <trkpt lat="42.648266" lon="0.657724">
        <ele>2681.9</ele>
        <time>1970-01-01T07:16:44.000Z</time>
      </trkpt>
      <trkpt lat="42.648266" lon="0.657724">
        <ele>2681.9</ele>
        <time>1970-01-01T07:16:45.000Z</time>
      </trkpt>
      <trkpt lat="42.648266" lon="0.657724">
        <ele>2681.9</ele>
        <time>1970-01-01T07:16:46.000Z</time>
      </trkpt>
      <trkpt lat="42.648266" lon="0.657724">
        <ele>2681.9</ele>
        <time>1970-01-01T07:16:47.000Z</time>
      </trkpt>
      <trkpt lat="42.648266" lon="0.657724">
        <ele>2681.9</ele>
        <time>1970-01-01T07:16:48.000Z</time>
      </trkpt>
      <trkpt lat="42.648266" lon="0.657724">
        <ele>2681.9</ele>
        <time>1970-01-01T07:16:49.000Z</time>
      </trkpt>
      <trkpt lat="42.648266" lon="0.657724">
        <ele>2681.9</ele>
        <time>1970-01-01T07:16:50.000Z</time>
      </trkpt>
      <trkpt lat="42.648266" lon="0.657724">
        <ele>2681.9</ele>
        <time>1970-01-01T07:16:51.000Z</time>
      </trkpt>
      <trkpt lat="42.648266" lon="0.657724">
        <ele>2681.9</ele>
        <time>1970-01-01T07:16:52.000Z</time>
      </trkpt>
      <trkpt lat="42.648265" lon="0.657724">
        <ele>2681.9</ele>
        <time>1970-01-01T07:16:53.000Z</time>
      </trkpt>
      <trkpt lat="42.648265" lon="0.657724">
        <ele>2681.9</ele>
        <time>1970-01-01T07:16:54.000Z</time>
      </trkpt>
      <trkpt lat="42.648265" lon="0.657724">
        <ele>2681.9</ele>
        <time>1970-01-01T07:16:55.000Z</time>
      </trkpt>
      <trkpt lat="42.648265" lon="0.657724">
        <ele>2681.9</ele>
        <time>1970-01-01T07:16:56.000Z</time>
      </trkpt>
      <trkpt lat="42.648265" lon="0.657724">
        <ele>2681.9</ele>
        <time>1970-01-01T07:16:57.000Z</time>
      </trkpt>
      <trkpt lat="42.648265" lon="0.657724">
        <ele>2681.9</ele>
        <time>1970-01-01T07:16:58.000Z</time>
      </trkpt>
      <trkpt lat="42.648265" lon="0.657724">
        <ele>2681.9</ele>
        <time>1970-01-01T07:16:59.000Z</time>
      </trkpt>
      <trkpt lat="42.648265" lon="0.657724">
        <ele>2681.9</ele>
        <time>1970-01-01T07:17:00.000Z</time>
      </trkpt>
      <trkpt lat="42.648265" lon="0.657724">
        <ele>2681.9</ele>
        <time>1970-01-01T07:17:01.000Z</time>
      </trkpt>
      <trkpt lat="42.648265" lon="0.657724">
        <ele>2681.9</ele>
        <time>1970-01-01T07:17:02.000Z</time>
      </trkpt>
      <trkpt lat="42.648265" lon="0.657724">
        <ele>2681.9</ele>
        <time>1970-01-01T07:17:03.000Z</time>
      </trkpt>
      <trkpt lat="42.648265" lon="0.657724">
        <ele>2681.9</ele>
        <time>1970-01-01T07:17:04.000Z</time>
      </trkpt>
      <trkpt lat="42.648265" lon="0.657724">
        <ele>2681.9</ele>
        <time>1970-01-01T07:17:05.000Z</time>
      </trkpt>
      <trkpt lat="42.648265" lon="0.657724">
        <ele>2681.9</ele>
        <time>1970-01-01T07:17:06.000Z</time>
      </trkpt>
      <trkpt lat="42.648265" lon="0.657724">
        <ele>2681.9</ele>
        <time>1970-01-01T07:17:07.000Z</time>
      </trkpt>
      <trkpt lat="42.648265" lon="0.657724">
        <ele>2681.9</ele>
        <time>1970-01-01T07:17:08.000Z</time>
      </trkpt>
      <trkpt lat="42.648265" lon="0.657724">
        <ele>2681.9</ele>
        <time>1970-01-01T07:17:09.000Z</time>
      </trkpt>
      <trkpt lat="42.648265" lon="0.657724">
        <ele>2681.9</ele>
        <time>1970-01-01T07:17:10.000Z</time>
      </trkpt>
      <trkpt lat="42.648265" lon="0.657724">
        <ele>2681.9</ele>
        <time>1970-01-01T07:17:11.000Z</time>
      </trkpt>
      <trkpt lat="42.648265" lon="0.657724">
        <ele>2681.9</ele>
        <time>1970-01-01T07:17:12.000Z</time>
      </trkpt>
      <trkpt lat="42.648265" lon="0.657724">
        <ele>2681.9</ele>
        <time>1970-01-01T07:17:13.000Z</time>
      </trkpt>
      <trkpt lat="42.648265" lon="0.657724">
        <ele>2681.9</ele>
        <time>1970-01-01T07:17:14.000Z</time>
      </trkpt>
      <trkpt lat="42.648265" lon="0.657724">
        <ele>2681.9</ele>
        <time>1970-01-01T07:17:15.000Z</time>
      </trkpt>
      <trkpt lat="42.648265" lon="0.657724">
        <ele>2681.9</ele>
        <time>1970-01-01T07:17:16.000Z</time>
      </trkpt>
      <trkpt lat="42.648265" lon="0.657724">
        <ele>2681.9</ele>
        <time>1970-01-01T07:17:17.000Z</time>
      </trkpt>
      <trkpt lat="42.648265" lon="0.657724">
        <ele>2681.9</ele>
        <time>1970-01-01T07:17:18.000Z</time>
      </trkpt>
      <trkpt lat="42.648265" lon="0.657724">
        <ele>2681.9</ele>
        <time>1970-01-01T07:17:19.000Z</time>
      </trkpt>
      <trkpt lat="42.648265" lon="0.657724">
        <ele>2681.9</ele>
        <time>1970-01-01T07:17:20.000Z</time>
      </trkpt>
      <trkpt lat="42.648265" lon="0.657724">
        <ele>2681.9</ele>
        <time>1970-01-01T07:17:21.000Z</time>
      </trkpt>
      <trkpt lat="42.648265" lon="0.657724">
        <ele>2681.9</ele>
        <time>1970-01-01T07:17:22.000Z</time>
      </trkpt>
      <trkpt lat="42.648265" lon="0.657724">
        <ele>2681.9</ele>
        <time>1970-01-01T07:17:23.000Z</time>
      </trkpt>
      <trkpt lat="42.648265" lon="0.657724">
        <ele>2681.9</ele>
        <time>1970-01-01T07:17:24.000Z</time>
      </trkpt>
      <trkpt lat="42.648265" lon="0.657724">
        <ele>2681.9</ele>
        <time>1970-01-01T07:17:25.000Z</time>
      </trkpt>
      <trkpt lat="42.648265" lon="0.657724">
        <ele>2681.9</ele>
        <time>1970-01-01T07:17:26.000Z</time>
      </trkpt>
      <trkpt lat="42.648265" lon="0.657724">
        <ele>2681.9</ele>
        <time>1970-01-01T07:17:27.000Z</time>
      </trkpt>
      <trkpt lat="42.648265" lon="0.657724">
        <ele>2681.9</ele>
        <time>1970-01-01T07:17:28.000Z</time>
      </trkpt>
      <trkpt lat="42.648265" lon="0.657724">
        <ele>2681.9</ele>
        <time>1970-01-01T07:17:29.000Z</time>
      </trkpt>
      <trkpt lat="42.648265" lon="0.657724">
        <ele>2681.9</ele>
        <time>1970-01-01T07:17:30.000Z</time>
      </trkpt>
      <trkpt lat="42.648265" lon="0.657724">
        <ele>2681.9</ele>
        <time>1970-01-01T07:17:31.000Z</time>
      </trkpt>
      <trkpt lat="42.648265" lon="0.657724">
        <ele>2681.9</ele>
        <time>1970-01-01T07:17:32.000Z</time>
      </trkpt>
      <trkpt lat="42.648265" lon="0.657724">
        <ele>2681.9</ele>
        <time>1970-01-01T07:17:33.000Z</time>
      </trkpt>
      <trkpt lat="42.648265" lon="0.657724">
        <ele>2681.9</ele>
        <time>1970-01-01T07:17:34.000Z</time>
      </trkpt>
      <trkpt lat="42.648265" lon="0.657724">
        <ele>2681.9</ele>
        <time>1970-01-01T07:17:35.000Z</time>
      </trkpt>
      <trkpt lat="42.648265" lon="0.657724">
        <ele>2681.9</ele>
        <time>1970-01-01T07:17:36.000Z</time>
      </trkpt>
      <trkpt lat="42.648265" lon="0.657724">
        <ele>2681.9</ele>
        <time>1970-01-01T07:17:37.000Z</time>
      </trkpt>
      <trkpt lat="42.648265" lon="0.657724">
        <ele>2681.9</ele>
        <time>1970-01-01T07:17:38.000Z</time>
      </trkpt>
      <trkpt lat="42.648265" lon="0.657724">
        <ele>2681.9</ele>
        <time>1970-01-01T07:17:39.000Z</time>
      </trkpt>
      <trkpt lat="42.648265" lon="0.657724">
        <ele>2681.9</ele>
        <time>1970-01-01T07:17:40.000Z</time>
      </trkpt>
      <trkpt lat="42.648265" lon="0.657724">
        <ele>2681.9</ele>
        <time>1970-01-01T07:17:41.000Z</time>
      </trkpt>
      <trkpt lat="42.648265" lon="0.657724">
        <ele>2681.9</ele>
        <time>1970-01-01T07:17:42.000Z</time>
      </trkpt>
      <trkpt lat="42.648265" lon="0.657724">
        <ele>2681.9</ele>
        <time>1970-01-01T07:17:43.000Z</time>
      </trkpt>
      <trkpt lat="42.648265" lon="0.657724">
        <ele>2681.9</ele>
        <time>1970-01-01T07:17:44.000Z</time>
      </trkpt>
      <trkpt lat="42.648265" lon="0.657724">
        <ele>2681.9</ele>
        <time>1970-01-01T07:17:45.000Z</time>
      </trkpt>
      <trkpt lat="42.648265" lon="0.657724">
        <ele>2681.9</ele>
        <time>1970-01-01T07:17:46.000Z</time>
      </trkpt>
      <trkpt lat="42.648265" lon="0.657724">
        <ele>2681.9</ele>
        <time>1970-01-01T07:17:47.000Z</time>
      </trkpt>
      <trkpt lat="42.648265" lon="0.657724">
        <ele>2681.9</ele>
        <time>1970-01-01T07:17:48.000Z</time>
      </trkpt>
      <trkpt lat="42.648265" lon="0.657724">
        <ele>2681.9</ele>
        <time>1970-01-01T07:17:49.000Z</time>
      </trkpt>
      <trkpt lat="42.648265" lon="0.657724">
        <ele>2681.9</ele>
        <time>1970-01-01T07:17:50.000Z</time>
      </trkpt>
      <trkpt lat="42.648265" lon="0.657724">
        <ele>2681.9</ele>
        <time>1970-01-01T07:17:51.000Z</time>
      </trkpt>
      <trkpt lat="42.648265" lon="0.657724">
        <ele>2681.9</ele>
        <time>1970-01-01T07:17:52.000Z</time>
      </trkpt>
      <trkpt lat="42.648265" lon="0.657724">
        <ele>2681.9</ele>
        <time>1970-01-01T07:17:53.000Z</time>
      </trkpt>
      <trkpt lat="42.648265" lon="0.657724">
        <ele>2681.9</ele>
        <time>1970-01-01T07:17:54.000Z</time>
      </trkpt>
      <trkpt lat="42.648265" lon="0.657724">
        <ele>2681.9</ele>
        <time>1970-01-01T07:17:55.000Z</time>
      </trkpt>
      <trkpt lat="42.648265" lon="0.657724">
        <ele>2681.9</ele>
        <time>1970-01-01T07:17:56.000Z</time>
      </trkpt>
      <trkpt lat="42.648265" lon="0.657724">
        <ele>2681.9</ele>
        <time>1970-01-01T07:17:57.000Z</time>
      </trkpt>
      <trkpt lat="42.648265" lon="0.657724">
        <ele>2681.9</ele>
        <time>1970-01-01T07:17:58.000Z</time>
      </trkpt>
      <trkpt lat="42.648265" lon="0.657724">
        <ele>2681.9</ele>
        <time>1970-01-01T07:17:59.000Z</time>
      </trkpt>
      <trkpt lat="42.648265" lon="0.657724">
        <ele>2681.9</ele>
        <time>1970-01-01T07:18:00.000Z</time>
      </trkpt>
      <trkpt lat="42.648265" lon="0.657724">
        <ele>2681.9</ele>
        <time>1970-01-01T07:18:01.000Z</time>
      </trkpt>
      <trkpt lat="42.648265" lon="0.657724">
        <ele>2681.9</ele>
        <time>1970-01-01T07:18:02.000Z</time>
      </trkpt>
      <trkpt lat="42.648265" lon="0.657724">
        <ele>2681.9</ele>
        <time>1970-01-01T07:18:03.000Z</time>
      </trkpt>
      <trkpt lat="42.648265" lon="0.657724">
        <ele>2681.9</ele>
        <time>1970-01-01T07:18:04.000Z</time>
      </trkpt>
      <trkpt lat="42.648265" lon="0.657724">
        <ele>2681.9</ele>
        <time>1970-01-01T07:18:05.000Z</time>
      </trkpt>
      <trkpt lat="42.648265" lon="0.657724">
        <ele>2681.9</ele>
        <time>1970-01-01T07:18:06.000Z</time>
      </trkpt>
      <trkpt lat="42.648265" lon="0.657724">
        <ele>2681.9</ele>
        <time>1970-01-01T07:18:07.000Z</time>
      </trkpt>
      <trkpt lat="42.648265" lon="0.657724">
        <ele>2681.9</ele>
        <time>1970-01-01T07:18:08.000Z</time>
      </trkpt>
      <trkpt lat="42.648265" lon="0.657724">
        <ele>2681.9</ele>
        <time>1970-01-01T07:18:09.000Z</time>
      </trkpt>
      <trkpt lat="42.648265" lon="0.657724">
        <ele>2681.9</ele>
        <time>1970-01-01T07:18:10.000Z</time>
      </trkpt>
      <trkpt lat="42.648265" lon="0.657724">
        <ele>2681.9</ele>
        <time>1970-01-01T07:18:11.000Z</time>
      </trkpt>
      <trkpt lat="42.648265" lon="0.657724">
        <ele>2681.9</ele>
        <time>1970-01-01T07:18:12.000Z</time>
      </trkpt>
      <trkpt lat="42.648265" lon="0.657724">
        <ele>2681.9</ele>
        <time>1970-01-01T07:18:13.000Z</time>
      </trkpt>
      <trkpt lat="42.648265" lon="0.657724">
        <ele>2681.9</ele>
        <time>1970-01-01T07:18:14.000Z</time>
      </trkpt>
      <trkpt lat="42.648265" lon="0.657723">
        <ele>2681.9</ele>
        <time>1970-01-01T07:18:15.000Z</time>
      </trkpt>
      <trkpt lat="42.648265" lon="0.657723">
        <ele>2681.9</ele>
        <time>1970-01-01T07:18:16.000Z</time>
      </trkpt>
      <trkpt lat="42.648265" lon="0.657723">
        <ele>2681.9</ele>
        <time>1970-01-01T07:18:17.000Z</time>
      </trkpt>
      <trkpt lat="42.648265" lon="0.657723">
        <ele>2681.9</ele>
        <time>1970-01-01T07:18:18.000Z</time>
      </trkpt>
      <trkpt lat="42.648265" lon="0.657723">
        <ele>2681.9</ele>
        <time>1970-01-01T07:18:19.000Z</time>
      </trkpt>
      <trkpt lat="42.648265" lon="0.657723">
        <ele>2681.9</ele>
        <time>1970-01-01T07:18:20.000Z</time>
      </trkpt>
      <trkpt lat="42.648265" lon="0.657723">
        <ele>2681.9</ele>
        <time>1970-01-01T07:18:21.000Z</time>
      </trkpt>
      <trkpt lat="42.648265" lon="0.657723">
        <ele>2681.9</ele>
        <time>1970-01-01T07:18:22.000Z</time>
      </trkpt>
      <trkpt lat="42.648265" lon="0.657723">
        <ele>2681.9</ele>
        <time>1970-01-01T07:18:23.000Z</time>
      </trkpt>
      <trkpt lat="42.648265" lon="0.657723">
        <ele>2681.9</ele>
        <time>1970-01-01T07:18:24.000Z</time>
      </trkpt>
      <trkpt lat="42.648265" lon="0.657723">
        <ele>2681.9</ele>
        <time>1970-01-01T07:18:25.000Z</time>
      </trkpt>
      <trkpt lat="42.648265" lon="0.657723">
        <ele>2681.9</ele>
        <time>1970-01-01T07:18:26.000Z</time>
      </trkpt>
      <trkpt lat="42.648265" lon="0.657723">
        <ele>2681.9</ele>
        <time>1970-01-01T07:18:27.000Z</time>
      </trkpt>
      <trkpt lat="42.648265" lon="0.657723">
        <ele>2681.9</ele>
        <time>1970-01-01T07:18:28.000Z</time>
      </trkpt>
      <trkpt lat="42.648265" lon="0.657723">
        <ele>2681.9</ele>
        <time>1970-01-01T07:18:29.000Z</time>
      </trkpt>
      <trkpt lat="42.648265" lon="0.657723">
        <ele>2681.9</ele>
        <time>1970-01-01T07:18:30.000Z</time>
      </trkpt>
      <trkpt lat="42.648265" lon="0.657723">
        <ele>2681.9</ele>
        <time>1970-01-01T07:18:31.000Z</time>
      </trkpt>
      <trkpt lat="42.648265" lon="0.657723">
        <ele>2681.9</ele>
        <time>1970-01-01T07:18:32.000Z</time>
      </trkpt>
      <trkpt lat="42.648265" lon="0.657723">
        <ele>2681.9</ele>
        <time>1970-01-01T07:18:33.000Z</time>
      </trkpt>
      <trkpt lat="42.648265" lon="0.657723">
        <ele>2681.9</ele>
        <time>1970-01-01T07:18:34.000Z</time>
      </trkpt>
      <trkpt lat="42.648265" lon="0.657723">
        <ele>2681.9</ele>
        <time>1970-01-01T07:18:35.000Z</time>
      </trkpt>
      <trkpt lat="42.648265" lon="0.657723">
        <ele>2681.9</ele>
        <time>1970-01-01T07:18:36.000Z</time>
      </trkpt>
      <trkpt lat="42.648265" lon="0.657723">
        <ele>2681.9</ele>
        <time>1970-01-01T07:18:37.000Z</time>
      </trkpt>
      <trkpt lat="42.648265" lon="0.657723">
        <ele>2681.9</ele>
        <time>1970-01-01T07:18:38.000Z</time>
      </trkpt>
      <trkpt lat="42.648265" lon="0.657723">
        <ele>2681.9</ele>
        <time>1970-01-01T07:18:39.000Z</time>
      </trkpt>
      <trkpt lat="42.648265" lon="0.657723">
        <ele>2681.9</ele>
        <time>1970-01-01T07:18:40.000Z</time>
      </trkpt>
      <trkpt lat="42.648265" lon="0.657723">
        <ele>2681.9</ele>
        <time>1970-01-01T07:18:41.000Z</time>
      </trkpt>
      <trkpt lat="42.648265" lon="0.657723">
        <ele>2681.9</ele>
        <time>1970-01-01T07:18:42.000Z</time>
      </trkpt>
      <trkpt lat="42.648265" lon="0.657723">
        <ele>2681.9</ele>
        <time>1970-01-01T07:18:43.000Z</time>
      </trkpt>
      <trkpt lat="42.648265" lon="0.657723">
        <ele>2681.9</ele>
        <time>1970-01-01T07:18:44.000Z</time>
      </trkpt>
      <trkpt lat="42.648265" lon="0.657723">
        <ele>2681.9</ele>
        <time>1970-01-01T07:18:45.000Z</time>
      </trkpt>
      <trkpt lat="42.648265" lon="0.657723">
        <ele>2681.9</ele>
        <time>1970-01-01T07:18:46.000Z</time>
      </trkpt>
      <trkpt lat="42.648265" lon="0.657723">
        <ele>2681.9</ele>
        <time>1970-01-01T07:18:47.000Z</time>
      </trkpt>
      <trkpt lat="42.648265" lon="0.657723">
        <ele>2681.9</ele>
        <time>1970-01-01T07:18:48.000Z</time>
      </trkpt>
      <trkpt lat="42.648265" lon="0.657723">
        <ele>2681.9</ele>
        <time>1970-01-01T07:18:49.000Z</time>
      </trkpt>
      <trkpt lat="42.648264" lon="0.657723">
        <ele>2681.9</ele>
        <time>1970-01-01T07:18:50.000Z</time>
      </trkpt>
      <trkpt lat="42.648264" lon="0.657723">
        <ele>2681.9</ele>
        <time>1970-01-01T07:18:51.000Z</time>
      </trkpt>
      <trkpt lat="42.648264" lon="0.657723">
        <ele>2681.9</ele>
        <time>1970-01-01T07:18:52.000Z</time>
      </trkpt>
      <trkpt lat="42.648264" lon="0.657723">
        <ele>2681.9</ele>
        <time>1970-01-01T07:18:53.000Z</time>
      </trkpt>
      <trkpt lat="42.648264" lon="0.657723">
        <ele>2681.9</ele>
        <time>1970-01-01T07:18:54.000Z</time>
      </trkpt>
      <trkpt lat="42.648264" lon="0.657723">
        <ele>2681.9</ele>
        <time>1970-01-01T07:18:55.000Z</time>
      </trkpt>
      <trkpt lat="42.648264" lon="0.657723">
        <ele>2681.9</ele>
        <time>1970-01-01T07:18:56.000Z</time>
      </trkpt>
      <trkpt lat="42.648264" lon="0.657723">
        <ele>2681.9</ele>
        <time>1970-01-01T07:18:57.000Z</time>
      </trkpt>
      <trkpt lat="42.648264" lon="0.657723">
        <ele>2681.9</ele>
        <time>1970-01-01T07:18:58.000Z</time>
      </trkpt>
      <trkpt lat="42.648264" lon="0.657723">
        <ele>2681.9</ele>
        <time>1970-01-01T07:18:59.000Z</time>
      </trkpt>
      <trkpt lat="42.648264" lon="0.657723">
        <ele>2681.9</ele>
        <time>1970-01-01T07:19:00.000Z</time>
      </trkpt>
      <trkpt lat="42.648264" lon="0.657723">
        <ele>2681.9</ele>
        <time>1970-01-01T07:19:01.000Z</time>
      </trkpt>
      <trkpt lat="42.648264" lon="0.657723">
        <ele>2681.9</ele>
        <time>1970-01-01T07:19:02.000Z</time>
      </trkpt>
      <trkpt lat="42.648264" lon="0.657723">
        <ele>2681.9</ele>
        <time>1970-01-01T07:19:03.000Z</time>
      </trkpt>
      <trkpt lat="42.648264" lon="0.657722">
        <ele>2681.8</ele>
        <time>1970-01-01T07:19:04.000Z</time>
      </trkpt>
      <trkpt lat="42.648264" lon="0.657722">
        <ele>2681.8</ele>
        <time>1970-01-01T07:19:05.000Z</time>
      </trkpt>
      <trkpt lat="42.648264" lon="0.657722">
        <ele>2681.8</ele>
        <time>1970-01-01T07:19:06.000Z</time>
      </trkpt>
      <trkpt lat="42.648264" lon="0.657722">
        <ele>2681.8</ele>
        <time>1970-01-01T07:19:07.000Z</time>
      </trkpt>
      <trkpt lat="42.648264" lon="0.657722">
        <ele>2681.8</ele>
        <time>1970-01-01T07:19:08.000Z</time>
      </trkpt>
      <trkpt lat="42.648264" lon="0.657722">
        <ele>2681.8</ele>
        <time>1970-01-01T07:19:09.000Z</time>
      </trkpt>
      <trkpt lat="42.648264" lon="0.657722">
        <ele>2681.8</ele>
        <time>1970-01-01T07:19:10.000Z</time>
      </trkpt>
      <trkpt lat="42.648264" lon="0.657722">
        <ele>2681.8</ele>
        <time>1970-01-01T07:19:11.000Z</time>
      </trkpt>
      <trkpt lat="42.648264" lon="0.657722">
        <ele>2681.8</ele>
        <time>1970-01-01T07:19:12.000Z</time>
      </trkpt>
      <trkpt lat="42.648264" lon="0.657722">
        <ele>2681.8</ele>
        <time>1970-01-01T07:19:13.000Z</time>
      </trkpt>
      <trkpt lat="42.648264" lon="0.657722">
        <ele>2681.8</ele>
        <time>1970-01-01T07:19:14.000Z</time>
      </trkpt>
      <trkpt lat="42.648264" lon="0.657722">
        <ele>2681.8</ele>
        <time>1970-01-01T07:19:15.000Z</time>
      </trkpt>
      <trkpt lat="42.648264" lon="0.657722">
        <ele>2681.8</ele>
        <time>1970-01-01T07:19:16.000Z</time>
      </trkpt>
      <trkpt lat="42.648264" lon="0.657722">
        <ele>2681.8</ele>
        <time>1970-01-01T07:19:17.000Z</time>
      </trkpt>
      <trkpt lat="42.648264" lon="0.657722">
        <ele>2681.8</ele>
        <time>1970-01-01T07:19:18.000Z</time>
      </trkpt>
      <trkpt lat="42.648264" lon="0.657722">
        <ele>2681.8</ele>
        <time>1970-01-01T07:19:19.000Z</time>
      </trkpt>
      <trkpt lat="42.648264" lon="0.657722">
        <ele>2681.8</ele>
        <time>1970-01-01T07:19:20.000Z</time>
      </trkpt>
      <trkpt lat="42.648264" lon="0.657722">
        <ele>2681.8</ele>
        <time>1970-01-01T07:19:21.000Z</time>
      </trkpt>
      <trkpt lat="42.648264" lon="0.657722">
        <ele>2681.8</ele>
        <time>1970-01-01T07:19:22.000Z</time>
      </trkpt>
      <trkpt lat="42.648264" lon="0.657722">
        <ele>2681.8</ele>
        <time>1970-01-01T07:19:23.000Z</time>
      </trkpt>
      <trkpt lat="42.648264" lon="0.657722">
        <ele>2681.8</ele>
        <time>1970-01-01T07:19:24.000Z</time>
      </trkpt>
      <trkpt lat="42.648264" lon="0.657722">
        <ele>2681.8</ele>
        <time>1970-01-01T07:19:25.000Z</time>
      </trkpt>
      <trkpt lat="42.648264" lon="0.657722">
        <ele>2681.8</ele>
        <time>1970-01-01T07:19:26.000Z</time>
      </trkpt>
      <trkpt lat="42.648264" lon="0.657722">
        <ele>2681.8</ele>
        <time>1970-01-01T07:19:27.000Z</time>
      </trkpt>
      <trkpt lat="42.648264" lon="0.657722">
        <ele>2681.8</ele>
        <time>1970-01-01T07:19:28.000Z</time>
      </trkpt>
      <trkpt lat="42.648264" lon="0.657722">
        <ele>2681.8</ele>
        <time>1970-01-01T07:19:29.000Z</time>
      </trkpt>
      <trkpt lat="42.648264" lon="0.657722">
        <ele>2681.8</ele>
        <time>1970-01-01T07:19:30.000Z</time>
      </trkpt>
      <trkpt lat="42.648264" lon="0.657722">
        <ele>2681.8</ele>
        <time>1970-01-01T07:19:31.000Z</time>
      </trkpt>
      <trkpt lat="42.648264" lon="0.657722">
        <ele>2681.8</ele>
        <time>1970-01-01T07:19:32.000Z</time>
      </trkpt>
      <trkpt lat="42.648264" lon="0.657722">
        <ele>2681.8</ele>
        <time>1970-01-01T07:19:33.000Z</time>
      </trkpt>
      <trkpt lat="42.648264" lon="0.657722">
        <ele>2681.8</ele>
        <time>1970-01-01T07:19:34.000Z</time>
      </trkpt>
      <trkpt lat="42.648264" lon="0.657722">
        <ele>2681.8</ele>
        <time>1970-01-01T07:19:35.000Z</time>
      </trkpt>
      <trkpt lat="42.648264" lon="0.657722">
        <ele>2681.8</ele>
        <time>1970-01-01T07:19:36.000Z</time>
      </trkpt>
      <trkpt lat="42.648264" lon="0.657722">
        <ele>2681.8</ele>
        <time>1970-01-01T07:19:37.000Z</time>
      </trkpt>
      <trkpt lat="42.648264" lon="0.657722">
        <ele>2681.8</ele>
        <time>1970-01-01T07:19:38.000Z</time>
      </trkpt>
      <trkpt lat="42.648264" lon="0.657722">
        <ele>2681.8</ele>
        <time>1970-01-01T07:19:39.000Z</time>
      </trkpt>
      <trkpt lat="42.648264" lon="0.657722">
        <ele>2681.8</ele>
        <time>1970-01-01T07:19:40.000Z</time>
      </trkpt>
      <trkpt lat="42.648264" lon="0.657722">
        <ele>2681.8</ele>
        <time>1970-01-01T07:19:41.000Z</time>
      </trkpt>
      <trkpt lat="42.648264" lon="0.657722">
        <ele>2681.8</ele>
        <time>1970-01-01T07:19:42.000Z</time>
      </trkpt>
      <trkpt lat="42.648264" lon="0.657722">
        <ele>2681.8</ele>
        <time>1970-01-01T07:19:43.000Z</time>
      </trkpt>
      <trkpt lat="42.648264" lon="0.657722">
        <ele>2681.8</ele>
        <time>1970-01-01T07:19:44.000Z</time>
      </trkpt>
      <trkpt lat="42.648264" lon="0.657722">
        <ele>2681.8</ele>
        <time>1970-01-01T07:19:45.000Z</time>
      </trkpt>
      <trkpt lat="42.648264" lon="0.657722">
        <ele>2681.8</ele>
        <time>1970-01-01T07:19:46.000Z</time>
      </trkpt>
      <trkpt lat="42.648264" lon="0.657722">
        <ele>2681.8</ele>
        <time>1970-01-01T07:19:47.000Z</time>
      </trkpt>
      <trkpt lat="42.648264" lon="0.657722">
        <ele>2681.8</ele>
        <time>1970-01-01T07:19:48.000Z</time>
      </trkpt>
      <trkpt lat="42.648264" lon="0.657722">
        <ele>2681.8</ele>
        <time>1970-01-01T07:19:49.000Z</time>
      </trkpt>
      <trkpt lat="42.648264" lon="0.657722">
        <ele>2681.8</ele>
        <time>1970-01-01T07:19:50.000Z</time>
      </trkpt>
      <trkpt lat="42.648264" lon="0.657721">
        <ele>2681.8</ele>
        <time>1970-01-01T07:19:51.000Z</time>
      </trkpt>
      <trkpt lat="42.648264" lon="0.657721">
        <ele>2681.8</ele>
        <time>1970-01-01T07:19:52.000Z</time>
      </trkpt>
      <trkpt lat="42.648264" lon="0.657721">
        <ele>2681.8</ele>
        <time>1970-01-01T07:19:53.000Z</time>
      </trkpt>
      <trkpt lat="42.648264" lon="0.657721">
        <ele>2681.8</ele>
        <time>1970-01-01T07:19:54.000Z</time>
      </trkpt>
      <trkpt lat="42.648264" lon="0.657721">
        <ele>2681.8</ele>
        <time>1970-01-01T07:19:55.000Z</time>
      </trkpt>
      <trkpt lat="42.648264" lon="0.657721">
        <ele>2681.8</ele>
        <time>1970-01-01T07:19:56.000Z</time>
      </trkpt>
      <trkpt lat="42.648264" lon="0.657721">
        <ele>2681.8</ele>
        <time>1970-01-01T07:19:57.000Z</time>
      </trkpt>
      <trkpt lat="42.648264" lon="0.657721">
        <ele>2681.8</ele>
        <time>1970-01-01T07:19:58.000Z</time>
      </trkpt>
      <trkpt lat="42.648264" lon="0.657721">
        <ele>2681.8</ele>
        <time>1970-01-01T07:19:59.000Z</time>
      </trkpt>
      <trkpt lat="42.648264" lon="0.657721">
        <ele>2681.8</ele>
        <time>1970-01-01T07:20:00.000Z</time>
      </trkpt>
      <trkpt lat="42.648264" lon="0.657721">
        <ele>2681.8</ele>
        <time>1970-01-01T07:20:01.000Z</time>
      </trkpt>
      <trkpt lat="42.648264" lon="0.657721">
        <ele>2681.8</ele>
        <time>1970-01-01T07:20:02.000Z</time>
      </trkpt>
      <trkpt lat="42.648264" lon="0.65772">
        <ele>2681.8</ele>
        <time>1970-01-01T07:20:03.000Z</time>
      </trkpt>
      <trkpt lat="42.648265" lon="0.657718">
        <ele>2681.7</ele>
        <time>1970-01-01T07:20:04.000Z</time>
      </trkpt>
      <trkpt lat="42.648265" lon="0.657718">
        <ele>2681.7</ele>
        <time>1970-01-01T07:20:05.000Z</time>
      </trkpt>
      <trkpt lat="42.648265" lon="0.657717">
        <ele>2681.7</ele>
        <time>1970-01-01T07:20:06.000Z</time>
      </trkpt>
      <trkpt lat="42.648265" lon="0.657717">
        <ele>2681.7</ele>
        <time>1970-01-01T07:20:07.000Z</time>
      </trkpt>
      <trkpt lat="42.648265" lon="0.657717">
        <ele>2681.7</ele>
        <time>1970-01-01T07:20:08.000Z</time>
      </trkpt>
      <trkpt lat="42.648267" lon="0.657715">
        <ele>2681.7</ele>
        <time>1970-01-01T07:20:09.000Z</time>
      </trkpt>
      <trkpt lat="42.648268" lon="0.657714">
        <ele>2681.6</ele>
        <time>1970-01-01T07:20:10.000Z</time>
      </trkpt>
      <trkpt lat="42.648269" lon="0.657713">
        <ele>2681.6</ele>
        <time>1970-01-01T07:20:11.000Z</time>
      </trkpt>
      <trkpt lat="42.64827" lon="0.657712">
        <ele>2681.6</ele>
        <time>1970-01-01T07:20:12.000Z</time>
      </trkpt>
      <trkpt lat="42.64827" lon="0.657713">
        <ele>2681.5</ele>
        <time>1970-01-01T07:20:13.000Z</time>
      </trkpt>
      <trkpt lat="42.648268" lon="0.657711">
        <ele>2681.5</ele>
        <time>1970-01-01T07:20:14.000Z</time>
      </trkpt>
      <trkpt lat="42.648268" lon="0.65771">
        <ele>2681.4</ele>
        <time>1970-01-01T07:20:15.000Z</time>
      </trkpt>
      <trkpt lat="42.648267" lon="0.65771">
        <ele>2681.4</ele>
        <time>1970-01-01T07:20:16.000Z</time>
      </trkpt>
      <trkpt lat="42.648267" lon="0.65771">
        <ele>2681.4</ele>
        <time>1970-01-01T07:20:17.000Z</time>
      </trkpt>
      <trkpt lat="42.648266" lon="0.65771">
        <ele>2681.4</ele>
        <time>1970-01-01T07:20:18.000Z</time>
      </trkpt>
      <trkpt lat="42.648266" lon="0.65771">
        <ele>2681.4</ele>
        <time>1970-01-01T07:20:19.000Z</time>
      </trkpt>
      <trkpt lat="42.648266" lon="0.65771">
        <ele>2681.4</ele>
        <time>1970-01-01T07:20:20.000Z</time>
      </trkpt>
      <trkpt lat="42.648266" lon="0.65771">
        <ele>2681.4</ele>
        <time>1970-01-01T07:20:21.000Z</time>
      </trkpt>
      <trkpt lat="42.648266" lon="0.657711">
        <ele>2681.4</ele>
        <time>1970-01-01T07:20:22.000Z</time>
      </trkpt>
      <trkpt lat="42.648266" lon="0.65771">
        <ele>2681.4</ele>
        <time>1970-01-01T07:20:23.000Z</time>
      </trkpt>
      <trkpt lat="42.648266" lon="0.657711">
        <ele>2681.3</ele>
        <time>1970-01-01T07:20:24.000Z</time>
      </trkpt>
      <trkpt lat="42.648266" lon="0.65771">
        <ele>2681.3</ele>
        <time>1970-01-01T07:20:25.000Z</time>
      </trkpt>
      <trkpt lat="42.648266" lon="0.65771">
        <ele>2681.3</ele>
        <time>1970-01-01T07:20:26.000Z</time>
      </trkpt>
      <trkpt lat="42.648266" lon="0.65771">
        <ele>2681.3</ele>
        <time>1970-01-01T07:20:27.000Z</time>
      </trkpt>
      <trkpt lat="42.648266" lon="0.65771">
        <ele>2681.3</ele>
        <time>1970-01-01T07:20:28.000Z</time>
      </trkpt>
      <trkpt lat="42.648266" lon="0.65771">
        <ele>2681.3</ele>
        <time>1970-01-01T07:20:29.000Z</time>
      </trkpt>
      <trkpt lat="42.648266" lon="0.65771">
        <ele>2681.3</ele>
        <time>1970-01-01T07:20:30.000Z</time>
      </trkpt>
      <trkpt lat="42.648266" lon="0.65771">
        <ele>2681.3</ele>
        <time>1970-01-01T07:20:31.000Z</time>
      </trkpt>
      <trkpt lat="42.648266" lon="0.65771">
        <ele>2681.3</ele>
        <time>1970-01-01T07:20:32.000Z</time>
      </trkpt>
      <trkpt lat="42.648267" lon="0.65771">
        <ele>2681.3</ele>
        <time>1970-01-01T07:20:33.000Z</time>
      </trkpt>
      <trkpt lat="42.648266" lon="0.65771">
        <ele>2681.3</ele>
        <time>1970-01-01T07:20:35.000Z</time>
      </trkpt>
      <trkpt lat="42.648266" lon="0.65771">
        <ele>2681.3</ele>
        <time>1970-01-01T07:20:36.000Z</time>
      </trkpt>
      <trkpt lat="42.648266" lon="0.65771">
        <ele>2681.3</ele>
        <time>1970-01-01T07:20:37.000Z</time>
      </trkpt>
      <trkpt lat="42.648267" lon="0.65771">
        <ele>2681.2</ele>
        <time>1970-01-01T07:20:38.000Z</time>
      </trkpt>
      <trkpt lat="42.648267" lon="0.65771">
        <ele>2681.2</ele>
        <time>1970-01-01T07:20:39.000Z</time>
      </trkpt>
      <trkpt lat="42.648267" lon="0.65771">
        <ele>2681.2</ele>
        <time>1970-01-01T07:20:40.000Z</time>
      </trkpt>
      <trkpt lat="42.648267" lon="0.65771">
        <ele>2681.2</ele>
        <time>1970-01-01T07:20:41.000Z</time>
      </trkpt>
      <trkpt lat="42.648266" lon="0.65771">
        <ele>2681.2</ele>
        <time>1970-01-01T07:20:42.000Z</time>
      </trkpt>
      <trkpt lat="42.648266" lon="0.65771">
        <ele>2681.2</ele>
        <time>1970-01-01T07:20:43.000Z</time>
      </trkpt>
      <trkpt lat="42.648266" lon="0.65771">
        <ele>2681.2</ele>
        <time>1970-01-01T07:20:44.000Z</time>
      </trkpt>
      <trkpt lat="42.648266" lon="0.65771">
        <ele>2681.2</ele>
        <time>1970-01-01T07:20:45.000Z</time>
      </trkpt>
      <trkpt lat="42.648266" lon="0.65771">
        <ele>2681.2</ele>
        <time>1970-01-01T07:20:46.000Z</time>
      </trkpt>
      <trkpt lat="42.648266" lon="0.65771">
        <ele>2681.2</ele>
        <time>1970-01-01T07:20:47.000Z</time>
      </trkpt>
      <trkpt lat="42.648266" lon="0.65771">
        <ele>2681.2</ele>
        <time>1970-01-01T07:20:48.000Z</time>
      </trkpt>
      <trkpt lat="42.648266" lon="0.65771">
        <ele>2681.2</ele>
        <time>1970-01-01T07:20:49.000Z</time>
      </trkpt>
      <trkpt lat="42.648266" lon="0.65771">
        <ele>2681.2</ele>
        <time>1970-01-01T07:20:50.000Z</time>
      </trkpt>
      <trkpt lat="42.648266" lon="0.65771">
        <ele>2681.2</ele>
        <time>1970-01-01T07:20:51.000Z</time>
      </trkpt>
      <trkpt lat="42.648266" lon="0.65771">
        <ele>2681.2</ele>
        <time>1970-01-01T07:20:52.000Z</time>
      </trkpt>
      <trkpt lat="42.648266" lon="0.65771">
        <ele>2681.2</ele>
        <time>1970-01-01T07:20:53.000Z</time>
      </trkpt>
      <trkpt lat="42.648266" lon="0.65771">
        <ele>2681.2</ele>
        <time>1970-01-01T07:20:54.000Z</time>
      </trkpt>
      <trkpt lat="42.648266" lon="0.65771">
        <ele>2681.2</ele>
        <time>1970-01-01T07:20:55.000Z</time>
      </trkpt>
      <trkpt lat="42.648266" lon="0.65771">
        <ele>2681.2</ele>
        <time>1970-01-01T07:20:56.000Z</time>
      </trkpt>
      <trkpt lat="42.648266" lon="0.65771">
        <ele>2681.2</ele>
        <time>1970-01-01T07:20:57.000Z</time>
      </trkpt>
      <trkpt lat="42.648266" lon="0.65771">
        <ele>2681.2</ele>
        <time>1970-01-01T07:20:58.000Z</time>
      </trkpt>
      <trkpt lat="42.648266" lon="0.657709">
        <ele>2681.2</ele>
        <time>1970-01-01T07:20:59.000Z</time>
      </trkpt>
      <trkpt lat="42.648266" lon="0.657709">
        <ele>2681.2</ele>
        <time>1970-01-01T07:21:00.000Z</time>
      </trkpt>
      <trkpt lat="42.648266" lon="0.657709">
        <ele>2681.2</ele>
        <time>1970-01-01T07:21:01.000Z</time>
      </trkpt>
      <trkpt lat="42.648266" lon="0.657709">
        <ele>2681.2</ele>
        <time>1970-01-01T07:21:02.000Z</time>
      </trkpt>
      <trkpt lat="42.648266" lon="0.657709">
        <ele>2681.2</ele>
        <time>1970-01-01T07:21:03.000Z</time>
      </trkpt>
      <trkpt lat="42.648266" lon="0.657709">
        <ele>2681.2</ele>
        <time>1970-01-01T07:21:04.000Z</time>
      </trkpt>
      <trkpt lat="42.648266" lon="0.657709">
        <ele>2681.2</ele>
        <time>1970-01-01T07:21:05.000Z</time>
      </trkpt>
      <trkpt lat="42.648266" lon="0.657709">
        <ele>2681.2</ele>
        <time>1970-01-01T07:21:06.000Z</time>
      </trkpt>
      <trkpt lat="42.648266" lon="0.657709">
        <ele>2681.2</ele>
        <time>1970-01-01T07:21:07.000Z</time>
      </trkpt>
      <trkpt lat="42.648266" lon="0.657709">
        <ele>2681.2</ele>
        <time>1970-01-01T07:21:08.000Z</time>
      </trkpt>
      <trkpt lat="42.648266" lon="0.657709">
        <ele>2681.2</ele>
        <time>1970-01-01T07:21:09.000Z</time>
      </trkpt>
      <trkpt lat="42.648266" lon="0.657709">
        <ele>2681.2</ele>
        <time>1970-01-01T07:21:10.000Z</time>
      </trkpt>
      <trkpt lat="42.648266" lon="0.657709">
        <ele>2681.2</ele>
        <time>1970-01-01T07:21:11.000Z</time>
      </trkpt>
      <trkpt lat="42.648266" lon="0.657709">
        <ele>2681.2</ele>
        <time>1970-01-01T07:21:12.000Z</time>
      </trkpt>
      <trkpt lat="42.648266" lon="0.657709">
        <ele>2681.2</ele>
        <time>1970-01-01T07:21:13.000Z</time>
      </trkpt>
      <trkpt lat="42.648266" lon="0.657709">
        <ele>2681.2</ele>
        <time>1970-01-01T07:21:14.000Z</time>
      </trkpt>
      <trkpt lat="42.648266" lon="0.657709">
        <ele>2681.2</ele>
        <time>1970-01-01T07:21:15.000Z</time>
      </trkpt>
      <trkpt lat="42.648266" lon="0.657709">
        <ele>2681.2</ele>
        <time>1970-01-01T07:21:16.000Z</time>
      </trkpt>
      <trkpt lat="42.648266" lon="0.657709">
        <ele>2681.2</ele>
        <time>1970-01-01T07:21:17.000Z</time>
      </trkpt>
      <trkpt lat="42.648266" lon="0.657709">
        <ele>2681.2</ele>
        <time>1970-01-01T07:21:18.000Z</time>
      </trkpt>
      <trkpt lat="42.648266" lon="0.657709">
        <ele>2681.2</ele>
        <time>1970-01-01T07:21:19.000Z</time>
      </trkpt>
      <trkpt lat="42.648266" lon="0.657706">
        <ele>2681.1</ele>
        <time>1970-01-01T07:21:20.000Z</time>
      </trkpt>
      <trkpt lat="42.648266" lon="0.657707">
        <ele>2681.1</ele>
        <time>1970-01-01T07:21:21.000Z</time>
      </trkpt>
      <trkpt lat="42.648266" lon="0.657708">
        <ele>2681.1</ele>
        <time>1970-01-01T07:21:22.000Z</time>
      </trkpt>
      <trkpt lat="42.648265" lon="0.657705">
        <ele>2681</ele>
        <time>1970-01-01T07:21:23.000Z</time>
      </trkpt>
      <trkpt lat="42.648265" lon="0.657701">
        <ele>2680.9</ele>
        <time>1970-01-01T07:21:24.000Z</time>
      </trkpt>
      <trkpt lat="42.648264" lon="0.6577">
        <ele>2680.9</ele>
        <time>1970-01-01T07:21:25.000Z</time>
      </trkpt>
      <trkpt lat="42.648264" lon="0.657699">
        <ele>2680.9</ele>
        <time>1970-01-01T07:21:26.000Z</time>
      </trkpt>
      <trkpt lat="42.648264" lon="0.657699">
        <ele>2680.9</ele>
        <time>1970-01-01T07:21:27.000Z</time>
      </trkpt>
      <trkpt lat="42.648264" lon="0.657699">
        <ele>2680.9</ele>
        <time>1970-01-01T07:21:28.000Z</time>
      </trkpt>
      <trkpt lat="42.648264" lon="0.657698">
        <ele>2680.9</ele>
        <time>1970-01-01T07:21:29.000Z</time>
      </trkpt>
      <trkpt lat="42.648262" lon="0.657699">
        <ele>2680.8</ele>
        <time>1970-01-01T07:21:30.000Z</time>
      </trkpt>
      <trkpt lat="42.648262" lon="0.657699">
        <ele>2680.8</ele>
        <time>1970-01-01T07:21:31.000Z</time>
      </trkpt>
      <trkpt lat="42.648263" lon="0.657699">
        <ele>2680.8</ele>
        <time>1970-01-01T07:21:32.000Z</time>
      </trkpt>
      <trkpt lat="42.648263" lon="0.657699">
        <ele>2680.8</ele>
        <time>1970-01-01T07:21:33.000Z</time>
      </trkpt>
      <trkpt lat="42.648264" lon="0.657698">
        <ele>2680.7</ele>
        <time>1970-01-01T07:21:34.000Z</time>
      </trkpt>
      <trkpt lat="42.648265" lon="0.657697">
        <ele>2680.7</ele>
        <time>1970-01-01T07:21:35.000Z</time>
      </trkpt>
      <trkpt lat="42.648265" lon="0.657697">
        <ele>2680.7</ele>
        <time>1970-01-01T07:21:36.000Z</time>
      </trkpt>
      <trkpt lat="42.648266" lon="0.657696">
        <ele>2680.7</ele>
        <time>1970-01-01T07:21:37.000Z</time>
      </trkpt>
      <trkpt lat="42.648266" lon="0.657696">
        <ele>2680.7</ele>
        <time>1970-01-01T07:21:38.000Z</time>
      </trkpt>
      <trkpt lat="42.648266" lon="0.657696">
        <ele>2680.7</ele>
        <time>1970-01-01T07:21:39.000Z</time>
      </trkpt>
      <trkpt lat="42.648266" lon="0.657696">
        <ele>2680.7</ele>
        <time>1970-01-01T07:21:40.000Z</time>
      </trkpt>
      <trkpt lat="42.648266" lon="0.657697">
        <ele>2680.7</ele>
        <time>1970-01-01T07:21:41.000Z</time>
      </trkpt>
      <trkpt lat="42.648265" lon="0.657697">
        <ele>2680.6</ele>
        <time>1970-01-01T07:21:42.000Z</time>
      </trkpt>
      <trkpt lat="42.648264" lon="0.657697">
        <ele>2680.6</ele>
        <time>1970-01-01T07:21:43.000Z</time>
      </trkpt>
      <trkpt lat="42.648264" lon="0.657698">
        <ele>2680.6</ele>
        <time>1970-01-01T07:21:44.000Z</time>
      </trkpt>
      <trkpt lat="42.648263" lon="0.657698">
        <ele>2680.6</ele>
        <time>1970-01-01T07:21:45.000Z</time>
      </trkpt>
      <trkpt lat="42.648263" lon="0.657697">
        <ele>2680.5</ele>
        <time>1970-01-01T07:21:46.000Z</time>
      </trkpt>
      <trkpt lat="42.648264" lon="0.657698">
        <ele>2680.5</ele>
        <time>1970-01-01T07:21:47.000Z</time>
      </trkpt>
      <trkpt lat="42.648264" lon="0.657698">
        <ele>2680.5</ele>
        <time>1970-01-01T07:21:48.000Z</time>
      </trkpt>
      <trkpt lat="42.648264" lon="0.657698">
        <ele>2680.5</ele>
        <time>1970-01-01T07:21:49.000Z</time>
      </trkpt>
      <trkpt lat="42.648264" lon="0.657698">
        <ele>2680.5</ele>
        <time>1970-01-01T07:21:50.000Z</time>
      </trkpt>
      <trkpt lat="42.648264" lon="0.657698">
        <ele>2680.5</ele>
        <time>1970-01-01T07:21:51.000Z</time>
      </trkpt>
      <trkpt lat="42.648264" lon="0.657698">
        <ele>2680.5</ele>
        <time>1970-01-01T07:21:52.000Z</time>
      </trkpt>
      <trkpt lat="42.648264" lon="0.657698">
        <ele>2680.5</ele>
        <time>1970-01-01T07:21:53.000Z</time>
      </trkpt>
      <trkpt lat="42.648264" lon="0.657698">
        <ele>2680.5</ele>
        <time>1970-01-01T07:21:54.000Z</time>
      </trkpt>
      <trkpt lat="42.648264" lon="0.657698">
        <ele>2680.5</ele>
        <time>1970-01-01T07:21:55.000Z</time>
      </trkpt>
      <trkpt lat="42.648264" lon="0.657698">
        <ele>2680.5</ele>
        <time>1970-01-01T07:21:56.000Z</time>
      </trkpt>
      <trkpt lat="42.648264" lon="0.657698">
        <ele>2680.5</ele>
        <time>1970-01-01T07:21:57.000Z</time>
      </trkpt>
      <trkpt lat="42.648264" lon="0.657698">
        <ele>2680.5</ele>
        <time>1970-01-01T07:21:58.000Z</time>
      </trkpt>
      <trkpt lat="42.648264" lon="0.657698">
        <ele>2680.5</ele>
        <time>1970-01-01T07:21:59.000Z</time>
      </trkpt>
      <trkpt lat="42.648264" lon="0.657698">
        <ele>2680.5</ele>
        <time>1970-01-01T07:22:00.000Z</time>
      </trkpt>
      <trkpt lat="42.648264" lon="0.657698">
        <ele>2680.5</ele>
        <time>1970-01-01T07:22:01.000Z</time>
      </trkpt>
      <trkpt lat="42.648264" lon="0.657698">
        <ele>2680.5</ele>
        <time>1970-01-01T07:22:02.000Z</time>
      </trkpt>
      <trkpt lat="42.648264" lon="0.657698">
        <ele>2680.5</ele>
        <time>1970-01-01T07:22:03.000Z</time>
      </trkpt>
      <trkpt lat="42.648264" lon="0.657698">
        <ele>2680.5</ele>
        <time>1970-01-01T07:22:04.000Z</time>
      </trkpt>
      <trkpt lat="42.648264" lon="0.657698">
        <ele>2680.5</ele>
        <time>1970-01-01T07:22:05.000Z</time>
      </trkpt>
      <trkpt lat="42.648264" lon="0.657698">
        <ele>2680.5</ele>
        <time>1970-01-01T07:22:06.000Z</time>
      </trkpt>
      <trkpt lat="42.648264" lon="0.657698">
        <ele>2680.5</ele>
        <time>1970-01-01T07:22:07.000Z</time>
      </trkpt>
      <trkpt lat="42.648264" lon="0.657698">
        <ele>2680.5</ele>
        <time>1970-01-01T07:22:08.000Z</time>
      </trkpt>
      <trkpt lat="42.648264" lon="0.657697">
        <ele>2680.5</ele>
        <time>1970-01-01T07:22:09.000Z</time>
      </trkpt>
      <trkpt lat="42.648264" lon="0.657697">
        <ele>2680.5</ele>
        <time>1970-01-01T07:22:10.000Z</time>
      </trkpt>
      <trkpt lat="42.648264" lon="0.657697">
        <ele>2680.5</ele>
        <time>1970-01-01T07:22:11.000Z</time>
      </trkpt>
      <trkpt lat="42.648264" lon="0.657697">
        <ele>2680.5</ele>
        <time>1970-01-01T07:22:12.000Z</time>
      </trkpt>
      <trkpt lat="42.648264" lon="0.657697">
        <ele>2680.5</ele>
        <time>1970-01-01T07:22:13.000Z</time>
      </trkpt>
      <trkpt lat="42.648264" lon="0.657697">
        <ele>2680.5</ele>
        <time>1970-01-01T07:22:14.000Z</time>
      </trkpt>
      <trkpt lat="42.648264" lon="0.657697">
        <ele>2680.5</ele>
        <time>1970-01-01T07:22:15.000Z</time>
      </trkpt>
      <trkpt lat="42.648264" lon="0.657697">
        <ele>2680.5</ele>
        <time>1970-01-01T07:22:16.000Z</time>
      </trkpt>
      <trkpt lat="42.648264" lon="0.657697">
        <ele>2680.5</ele>
        <time>1970-01-01T07:22:17.000Z</time>
      </trkpt>
      <trkpt lat="42.648264" lon="0.657697">
        <ele>2680.5</ele>
        <time>1970-01-01T07:22:18.000Z</time>
      </trkpt>
      <trkpt lat="42.648264" lon="0.657697">
        <ele>2680.5</ele>
        <time>1970-01-01T07:22:19.000Z</time>
      </trkpt>
      <trkpt lat="42.648264" lon="0.657697">
        <ele>2680.5</ele>
        <time>1970-01-01T07:22:20.000Z</time>
      </trkpt>
      <trkpt lat="42.648264" lon="0.657697">
        <ele>2680.5</ele>
        <time>1970-01-01T07:22:21.000Z</time>
      </trkpt>
      <trkpt lat="42.648264" lon="0.657697">
        <ele>2680.5</ele>
        <time>1970-01-01T07:22:22.000Z</time>
      </trkpt>
      <trkpt lat="42.648264" lon="0.657697">
        <ele>2680.5</ele>
        <time>1970-01-01T07:22:23.000Z</time>
      </trkpt>
      <trkpt lat="42.648264" lon="0.657697">
        <ele>2680.5</ele>
        <time>1970-01-01T07:22:24.000Z</time>
      </trkpt>
      <trkpt lat="42.648264" lon="0.657697">
        <ele>2680.5</ele>
        <time>1970-01-01T07:22:25.000Z</time>
      </trkpt>
      <trkpt lat="42.648264" lon="0.657697">
        <ele>2680.5</ele>
        <time>1970-01-01T07:22:26.000Z</time>
      </trkpt>
      <trkpt lat="42.648264" lon="0.657697">
        <ele>2680.5</ele>
        <time>1970-01-01T07:22:27.000Z</time>
      </trkpt>
      <trkpt lat="42.648264" lon="0.657697">
        <ele>2680.5</ele>
        <time>1970-01-01T07:22:28.000Z</time>
      </trkpt>
      <trkpt lat="42.648264" lon="0.657697">
        <ele>2680.5</ele>
        <time>1970-01-01T07:22:29.000Z</time>
      </trkpt>
      <trkpt lat="42.648264" lon="0.657697">
        <ele>2680.5</ele>
        <time>1970-01-01T07:22:30.000Z</time>
      </trkpt>
      <trkpt lat="42.648264" lon="0.657697">
        <ele>2680.5</ele>
        <time>1970-01-01T07:22:31.000Z</time>
      </trkpt>
      <trkpt lat="42.648264" lon="0.657697">
        <ele>2680.5</ele>
        <time>1970-01-01T07:22:32.000Z</time>
      </trkpt>
      <trkpt lat="42.648264" lon="0.657697">
        <ele>2680.5</ele>
        <time>1970-01-01T07:22:33.000Z</time>
      </trkpt>
      <trkpt lat="42.648264" lon="0.657697">
        <ele>2680.5</ele>
        <time>1970-01-01T07:22:34.000Z</time>
      </trkpt>
      <trkpt lat="42.648264" lon="0.657697">
        <ele>2680.5</ele>
        <time>1970-01-01T07:22:35.000Z</time>
      </trkpt>
      <trkpt lat="42.648264" lon="0.657697">
        <ele>2680.5</ele>
        <time>1970-01-01T07:22:36.000Z</time>
      </trkpt>
      <trkpt lat="42.648264" lon="0.657697">
        <ele>2680.5</ele>
        <time>1970-01-01T07:22:37.000Z</time>
      </trkpt>
      <trkpt lat="42.648264" lon="0.657697">
        <ele>2680.5</ele>
        <time>1970-01-01T07:22:38.000Z</time>
      </trkpt>
      <trkpt lat="42.648264" lon="0.657697">
        <ele>2680.5</ele>
        <time>1970-01-01T07:22:39.000Z</time>
      </trkpt>
      <trkpt lat="42.648264" lon="0.657697">
        <ele>2680.5</ele>
        <time>1970-01-01T07:22:40.000Z</time>
      </trkpt>
      <trkpt lat="42.648264" lon="0.657697">
        <ele>2680.5</ele>
        <time>1970-01-01T07:22:41.000Z</time>
      </trkpt>
      <trkpt lat="42.648264" lon="0.657697">
        <ele>2680.5</ele>
        <time>1970-01-01T07:22:42.000Z</time>
      </trkpt>
      <trkpt lat="42.648264" lon="0.657697">
        <ele>2680.5</ele>
        <time>1970-01-01T07:22:43.000Z</time>
      </trkpt>
      <trkpt lat="42.648264" lon="0.657697">
        <ele>2680.5</ele>
        <time>1970-01-01T07:22:44.000Z</time>
      </trkpt>
      <trkpt lat="42.648264" lon="0.657697">
        <ele>2680.5</ele>
        <time>1970-01-01T07:22:45.000Z</time>
      </trkpt>
      <trkpt lat="42.648264" lon="0.657697">
        <ele>2680.5</ele>
        <time>1970-01-01T07:22:46.000Z</time>
      </trkpt>
      <trkpt lat="42.648264" lon="0.657697">
        <ele>2680.5</ele>
        <time>1970-01-01T07:22:47.000Z</time>
      </trkpt>
      <trkpt lat="42.648264" lon="0.657697">
        <ele>2680.5</ele>
        <time>1970-01-01T07:22:48.000Z</time>
      </trkpt>
      <trkpt lat="42.648264" lon="0.657697">
        <ele>2680.5</ele>
        <time>1970-01-01T07:22:49.000Z</time>
      </trkpt>
      <trkpt lat="42.648264" lon="0.657697">
        <ele>2680.5</ele>
        <time>1970-01-01T07:22:50.000Z</time>
      </trkpt>
      <trkpt lat="42.648264" lon="0.657697">
        <ele>2680.5</ele>
        <time>1970-01-01T07:22:51.000Z</time>
      </trkpt>
      <trkpt lat="42.648264" lon="0.657697">
        <ele>2680.5</ele>
        <time>1970-01-01T07:22:52.000Z</time>
      </trkpt>
      <trkpt lat="42.648264" lon="0.657697">
        <ele>2680.5</ele>
        <time>1970-01-01T07:22:53.000Z</time>
      </trkpt>
      <trkpt lat="42.648264" lon="0.657697">
        <ele>2680.5</ele>
        <time>1970-01-01T07:22:54.000Z</time>
      </trkpt>
      <trkpt lat="42.648264" lon="0.657696">
        <ele>2680.5</ele>
        <time>1970-01-01T07:22:55.000Z</time>
      </trkpt>
      <trkpt lat="42.648264" lon="0.657696">
        <ele>2680.5</ele>
        <time>1970-01-01T07:22:56.000Z</time>
      </trkpt>
      <trkpt lat="42.648264" lon="0.657696">
        <ele>2680.5</ele>
        <time>1970-01-01T07:22:57.000Z</time>
      </trkpt>
      <trkpt lat="42.648264" lon="0.657696">
        <ele>2680.5</ele>
        <time>1970-01-01T07:22:58.000Z</time>
      </trkpt>
      <trkpt lat="42.648264" lon="0.657696">
        <ele>2680.5</ele>
        <time>1970-01-01T07:22:59.000Z</time>
      </trkpt>
      <trkpt lat="42.648264" lon="0.657696">
        <ele>2680.5</ele>
        <time>1970-01-01T07:23:00.000Z</time>
      </trkpt>
      <trkpt lat="42.648264" lon="0.657696">
        <ele>2680.5</ele>
        <time>1970-01-01T07:23:01.000Z</time>
      </trkpt>
      <trkpt lat="42.648264" lon="0.657696">
        <ele>2680.5</ele>
        <time>1970-01-01T07:23:02.000Z</time>
      </trkpt>
      <trkpt lat="42.648264" lon="0.657696">
        <ele>2680.5</ele>
        <time>1970-01-01T07:23:03.000Z</time>
      </trkpt>
      <trkpt lat="42.648264" lon="0.657696">
        <ele>2680.5</ele>
        <time>1970-01-01T07:23:04.000Z</time>
      </trkpt>
      <trkpt lat="42.648264" lon="0.657696">
        <ele>2680.5</ele>
        <time>1970-01-01T07:23:05.000Z</time>
      </trkpt>
      <trkpt lat="42.648264" lon="0.657696">
        <ele>2680.5</ele>
        <time>1970-01-01T07:23:06.000Z</time>
      </trkpt>
      <trkpt lat="42.648264" lon="0.657696">
        <ele>2680.5</ele>
        <time>1970-01-01T07:23:07.000Z</time>
      </trkpt>
      <trkpt lat="42.648264" lon="0.657696">
        <ele>2680.5</ele>
        <time>1970-01-01T07:23:08.000Z</time>
      </trkpt>
      <trkpt lat="42.648264" lon="0.657696">
        <ele>2680.5</ele>
        <time>1970-01-01T07:23:09.000Z</time>
      </trkpt>
      <trkpt lat="42.648264" lon="0.657696">
        <ele>2680.5</ele>
        <time>1970-01-01T07:23:10.000Z</time>
      </trkpt>
      <trkpt lat="42.648264" lon="0.657696">
        <ele>2680.5</ele>
        <time>1970-01-01T07:23:11.000Z</time>
      </trkpt>
      <trkpt lat="42.648264" lon="0.657696">
        <ele>2680.5</ele>
        <time>1970-01-01T07:23:12.000Z</time>
      </trkpt>
      <trkpt lat="42.648264" lon="0.657696">
        <ele>2680.5</ele>
        <time>1970-01-01T07:23:13.000Z</time>
      </trkpt>
      <trkpt lat="42.648264" lon="0.657696">
        <ele>2680.5</ele>
        <time>1970-01-01T07:23:14.000Z</time>
      </trkpt>
      <trkpt lat="42.648264" lon="0.657696">
        <ele>2680.5</ele>
        <time>1970-01-01T07:23:15.000Z</time>
      </trkpt>
      <trkpt lat="42.648264" lon="0.657696">
        <ele>2680.5</ele>
        <time>1970-01-01T07:23:16.000Z</time>
      </trkpt>
      <trkpt lat="42.648264" lon="0.657696">
        <ele>2680.5</ele>
        <time>1970-01-01T07:23:17.000Z</time>
      </trkpt>
      <trkpt lat="42.648264" lon="0.657696">
        <ele>2680.5</ele>
        <time>1970-01-01T07:23:18.000Z</time>
      </trkpt>
      <trkpt lat="42.648264" lon="0.657696">
        <ele>2680.5</ele>
        <time>1970-01-01T07:23:19.000Z</time>
      </trkpt>
      <trkpt lat="42.648264" lon="0.657696">
        <ele>2680.5</ele>
        <time>1970-01-01T07:23:20.000Z</time>
      </trkpt>
      <trkpt lat="42.648264" lon="0.657696">
        <ele>2680.5</ele>
        <time>1970-01-01T07:23:21.000Z</time>
      </trkpt>
      <trkpt lat="42.648264" lon="0.657696">
        <ele>2680.5</ele>
        <time>1970-01-01T07:23:22.000Z</time>
      </trkpt>
      <trkpt lat="42.648264" lon="0.657696">
        <ele>2680.5</ele>
        <time>1970-01-01T07:23:23.000Z</time>
      </trkpt>
      <trkpt lat="42.648264" lon="0.657696">
        <ele>2680.5</ele>
        <time>1970-01-01T07:23:24.000Z</time>
      </trkpt>
      <trkpt lat="42.648264" lon="0.657696">
        <ele>2680.5</ele>
        <time>1970-01-01T07:23:25.000Z</time>
      </trkpt>
      <trkpt lat="42.648264" lon="0.657696">
        <ele>2680.5</ele>
        <time>1970-01-01T07:23:26.000Z</time>
      </trkpt>
      <trkpt lat="42.648264" lon="0.657696">
        <ele>2680.5</ele>
        <time>1970-01-01T07:23:27.000Z</time>
      </trkpt>
      <trkpt lat="42.648264" lon="0.657696">
        <ele>2680.5</ele>
        <time>1970-01-01T07:23:28.000Z</time>
      </trkpt>
      <trkpt lat="42.648264" lon="0.657696">
        <ele>2680.5</ele>
        <time>1970-01-01T07:23:29.000Z</time>
      </trkpt>
      <trkpt lat="42.648264" lon="0.657696">
        <ele>2680.5</ele>
        <time>1970-01-01T07:23:30.000Z</time>
      </trkpt>
      <trkpt lat="42.648264" lon="0.657696">
        <ele>2680.5</ele>
        <time>1970-01-01T07:23:31.000Z</time>
      </trkpt>
      <trkpt lat="42.648264" lon="0.657696">
        <ele>2680.5</ele>
        <time>1970-01-01T07:23:32.000Z</time>
      </trkpt>
      <trkpt lat="42.648264" lon="0.657696">
        <ele>2680.5</ele>
        <time>1970-01-01T07:23:33.000Z</time>
      </trkpt>
      <trkpt lat="42.648264" lon="0.657696">
        <ele>2680.5</ele>
        <time>1970-01-01T07:23:34.000Z</time>
      </trkpt>
      <trkpt lat="42.648264" lon="0.657696">
        <ele>2680.5</ele>
        <time>1970-01-01T07:23:35.000Z</time>
      </trkpt>
      <trkpt lat="42.648264" lon="0.657696">
        <ele>2680.5</ele>
        <time>1970-01-01T07:23:36.000Z</time>
      </trkpt>
      <trkpt lat="42.648264" lon="0.657696">
        <ele>2680.5</ele>
        <time>1970-01-01T07:23:37.000Z</time>
      </trkpt>
      <trkpt lat="42.648264" lon="0.657696">
        <ele>2680.5</ele>
        <time>1970-01-01T07:23:38.000Z</time>
      </trkpt>
      <trkpt lat="42.648264" lon="0.657696">
        <ele>2680.5</ele>
        <time>1970-01-01T07:23:39.000Z</time>
      </trkpt>
      <trkpt lat="42.648264" lon="0.657696">
        <ele>2680.5</ele>
        <time>1970-01-01T07:23:40.000Z</time>
      </trkpt>
      <trkpt lat="42.648264" lon="0.657696">
        <ele>2680.5</ele>
        <time>1970-01-01T07:23:41.000Z</time>
      </trkpt>
      <trkpt lat="42.648264" lon="0.657695">
        <ele>2680.4</ele>
        <time>1970-01-01T07:23:42.000Z</time>
      </trkpt>
      <trkpt lat="42.648264" lon="0.657695">
        <ele>2680.4</ele>
        <time>1970-01-01T07:23:43.000Z</time>
      </trkpt>
      <trkpt lat="42.648264" lon="0.657695">
        <ele>2680.4</ele>
        <time>1970-01-01T07:23:44.000Z</time>
      </trkpt>
      <trkpt lat="42.648264" lon="0.657695">
        <ele>2680.4</ele>
        <time>1970-01-01T07:23:45.000Z</time>
      </trkpt>
      <trkpt lat="42.648264" lon="0.657695">
        <ele>2680.4</ele>
        <time>1970-01-01T07:23:46.000Z</time>
      </trkpt>
      <trkpt lat="42.648264" lon="0.657695">
        <ele>2680.4</ele>
        <time>1970-01-01T07:23:47.000Z</time>
      </trkpt>
      <trkpt lat="42.648264" lon="0.657695">
        <ele>2680.4</ele>
        <time>1970-01-01T07:23:48.000Z</time>
      </trkpt>
      <trkpt lat="42.648264" lon="0.657695">
        <ele>2680.4</ele>
        <time>1970-01-01T07:23:49.000Z</time>
      </trkpt>
      <trkpt lat="42.648264" lon="0.657695">
        <ele>2680.4</ele>
        <time>1970-01-01T07:23:50.000Z</time>
      </trkpt>
      <trkpt lat="42.648264" lon="0.657695">
        <ele>2680.4</ele>
        <time>1970-01-01T07:23:51.000Z</time>
      </trkpt>
      <trkpt lat="42.648264" lon="0.657695">
        <ele>2680.4</ele>
        <time>1970-01-01T07:23:52.000Z</time>
      </trkpt>
      <trkpt lat="42.648264" lon="0.657695">
        <ele>2680.4</ele>
        <time>1970-01-01T07:23:53.000Z</time>
      </trkpt>
      <trkpt lat="42.648264" lon="0.657695">
        <ele>2680.4</ele>
        <time>1970-01-01T07:23:54.000Z</time>
      </trkpt>
      <trkpt lat="42.648264" lon="0.657695">
        <ele>2680.4</ele>
        <time>1970-01-01T07:23:55.000Z</time>
      </trkpt>
      <trkpt lat="42.648264" lon="0.657695">
        <ele>2680.4</ele>
        <time>1970-01-01T07:23:56.000Z</time>
      </trkpt>
      <trkpt lat="42.648264" lon="0.657695">
        <ele>2680.4</ele>
        <time>1970-01-01T07:23:57.000Z</time>
      </trkpt>
      <trkpt lat="42.648264" lon="0.657695">
        <ele>2680.4</ele>
        <time>1970-01-01T07:23:58.000Z</time>
      </trkpt>
      <trkpt lat="42.648264" lon="0.657695">
        <ele>2680.4</ele>
        <time>1970-01-01T07:23:59.000Z</time>
      </trkpt>
      <trkpt lat="42.648264" lon="0.657695">
        <ele>2680.4</ele>
        <time>1970-01-01T07:24:00.000Z</time>
      </trkpt>
      <trkpt lat="42.648264" lon="0.657695">
        <ele>2680.4</ele>
        <time>1970-01-01T07:24:01.000Z</time>
      </trkpt>
      <trkpt lat="42.648264" lon="0.657695">
        <ele>2680.4</ele>
        <time>1970-01-01T07:24:02.000Z</time>
      </trkpt>
      <trkpt lat="42.648264" lon="0.657695">
        <ele>2680.4</ele>
        <time>1970-01-01T07:24:03.000Z</time>
      </trkpt>
      <trkpt lat="42.648264" lon="0.657695">
        <ele>2680.4</ele>
        <time>1970-01-01T07:24:04.000Z</time>
      </trkpt>
      <trkpt lat="42.648264" lon="0.657695">
        <ele>2680.4</ele>
        <time>1970-01-01T07:24:05.000Z</time>
      </trkpt>
      <trkpt lat="42.648264" lon="0.657695">
        <ele>2680.4</ele>
        <time>1970-01-01T07:24:06.000Z</time>
      </trkpt>
      <trkpt lat="42.648264" lon="0.657695">
        <ele>2680.4</ele>
        <time>1970-01-01T07:24:07.000Z</time>
      </trkpt>
      <trkpt lat="42.648264" lon="0.657695">
        <ele>2680.4</ele>
        <time>1970-01-01T07:24:08.000Z</time>
      </trkpt>
      <trkpt lat="42.648264" lon="0.657695">
        <ele>2680.4</ele>
        <time>1970-01-01T07:24:09.000Z</time>
      </trkpt>
      <trkpt lat="42.648264" lon="0.657695">
        <ele>2680.4</ele>
        <time>1970-01-01T07:24:10.000Z</time>
      </trkpt>
      <trkpt lat="42.648264" lon="0.657695">
        <ele>2680.4</ele>
        <time>1970-01-01T07:24:11.000Z</time>
      </trkpt>
      <trkpt lat="42.648264" lon="0.657695">
        <ele>2680.4</ele>
        <time>1970-01-01T07:24:12.000Z</time>
      </trkpt>
      <trkpt lat="42.648264" lon="0.657695">
        <ele>2680.4</ele>
        <time>1970-01-01T07:24:13.000Z</time>
      </trkpt>
      <trkpt lat="42.648264" lon="0.657695">
        <ele>2680.4</ele>
        <time>1970-01-01T07:24:14.000Z</time>
      </trkpt>
      <trkpt lat="42.648264" lon="0.657695">
        <ele>2680.4</ele>
        <time>1970-01-01T07:24:15.000Z</time>
      </trkpt>
      <trkpt lat="42.648264" lon="0.657695">
        <ele>2680.4</ele>
        <time>1970-01-01T07:24:16.000Z</time>
      </trkpt>
      <trkpt lat="42.648264" lon="0.657695">
        <ele>2680.4</ele>
        <time>1970-01-01T07:24:17.000Z</time>
      </trkpt>
      <trkpt lat="42.648264" lon="0.657695">
        <ele>2680.4</ele>
        <time>1970-01-01T07:24:18.000Z</time>
      </trkpt>
      <trkpt lat="42.648264" lon="0.657695">
        <ele>2680.4</ele>
        <time>1970-01-01T07:24:19.000Z</time>
      </trkpt>
      <trkpt lat="42.648264" lon="0.657695">
        <ele>2680.4</ele>
        <time>1970-01-01T07:24:20.000Z</time>
      </trkpt>
      <trkpt lat="42.648264" lon="0.657695">
        <ele>2680.4</ele>
        <time>1970-01-01T07:24:21.000Z</time>
      </trkpt>
      <trkpt lat="42.648264" lon="0.657695">
        <ele>2680.4</ele>
        <time>1970-01-01T07:24:22.000Z</time>
      </trkpt>
      <trkpt lat="42.648264" lon="0.657695">
        <ele>2680.4</ele>
        <time>1970-01-01T07:24:23.000Z</time>
      </trkpt>
      <trkpt lat="42.648264" lon="0.657695">
        <ele>2680.4</ele>
        <time>1970-01-01T07:24:24.000Z</time>
      </trkpt>
      <trkpt lat="42.648264" lon="0.657695">
        <ele>2680.4</ele>
        <time>1970-01-01T07:24:25.000Z</time>
      </trkpt>
      <trkpt lat="42.648264" lon="0.657695">
        <ele>2680.4</ele>
        <time>1970-01-01T07:24:26.000Z</time>
      </trkpt>
      <trkpt lat="42.648264" lon="0.657695">
        <ele>2680.4</ele>
        <time>1970-01-01T07:24:27.000Z</time>
      </trkpt>
      <trkpt lat="42.648264" lon="0.657695">
        <ele>2680.4</ele>
        <time>1970-01-01T07:24:28.000Z</time>
      </trkpt>
      <trkpt lat="42.648264" lon="0.657695">
        <ele>2680.4</ele>
        <time>1970-01-01T07:24:29.000Z</time>
      </trkpt>
      <trkpt lat="42.648264" lon="0.657695">
        <ele>2680.4</ele>
        <time>1970-01-01T07:24:30.000Z</time>
      </trkpt>
      <trkpt lat="42.648264" lon="0.657695">
        <ele>2680.4</ele>
        <time>1970-01-01T07:24:31.000Z</time>
      </trkpt>
      <trkpt lat="42.648264" lon="0.657695">
        <ele>2680.4</ele>
        <time>1970-01-01T07:24:32.000Z</time>
      </trkpt>
      <trkpt lat="42.648264" lon="0.657695">
        <ele>2680.4</ele>
        <time>1970-01-01T07:24:33.000Z</time>
      </trkpt>
      <trkpt lat="42.648264" lon="0.657695">
        <ele>2680.4</ele>
        <time>1970-01-01T07:24:34.000Z</time>
      </trkpt>
      <trkpt lat="42.648264" lon="0.657695">
        <ele>2680.4</ele>
        <time>1970-01-01T07:24:35.000Z</time>
      </trkpt>
      <trkpt lat="42.648264" lon="0.657695">
        <ele>2680.4</ele>
        <time>1970-01-01T07:24:36.000Z</time>
      </trkpt>
      <trkpt lat="42.648264" lon="0.657694">
        <ele>2680.4</ele>
        <time>1970-01-01T07:24:37.000Z</time>
      </trkpt>
      <trkpt lat="42.648264" lon="0.657694">
        <ele>2680.4</ele>
        <time>1970-01-01T07:24:38.000Z</time>
      </trkpt>
      <trkpt lat="42.648264" lon="0.657694">
        <ele>2680.4</ele>
        <time>1970-01-01T07:24:39.000Z</time>
      </trkpt>
      <trkpt lat="42.648264" lon="0.657694">
        <ele>2680.4</ele>
        <time>1970-01-01T07:24:40.000Z</time>
      </trkpt>
      <trkpt lat="42.648264" lon="0.657694">
        <ele>2680.4</ele>
        <time>1970-01-01T07:24:41.000Z</time>
      </trkpt>
      <trkpt lat="42.648265" lon="0.657694">
        <ele>2680.4</ele>
        <time>1970-01-01T07:24:42.000Z</time>
      </trkpt>
      <trkpt lat="42.648267" lon="0.657692">
        <ele>2680.3</ele>
        <time>1970-01-01T07:24:43.000Z</time>
      </trkpt>
      <trkpt lat="42.648265" lon="0.657685">
        <ele>2680.2</ele>
        <time>1970-01-01T07:24:44.000Z</time>
      </trkpt>
      <trkpt lat="42.648265" lon="0.657679">
        <ele>2680.1</ele>
        <time>1970-01-01T07:24:45.000Z</time>
      </trkpt>
      <trkpt lat="42.648265" lon="0.657677">
        <ele>2680</ele>
        <time>1970-01-01T07:24:46.000Z</time>
      </trkpt>
      <trkpt lat="42.648265" lon="0.657674">
        <ele>2680</ele>
        <time>1970-01-01T07:24:48.000Z</time>
      </trkpt>
      <trkpt lat="42.648265" lon="0.657674">
        <ele>2680</ele>
        <time>1970-01-01T07:24:49.000Z</time>
      </trkpt>
      <trkpt lat="42.648266" lon="0.657675">
        <ele>2679.9</ele>
        <time>1970-01-01T07:24:50.000Z</time>
      </trkpt>
      <trkpt lat="42.648266" lon="0.657675">
        <ele>2679.9</ele>
        <time>1970-01-01T07:24:51.000Z</time>
      </trkpt>
      <trkpt lat="42.648266" lon="0.657675">
        <ele>2679.9</ele>
        <time>1970-01-01T07:24:53.000Z</time>
      </trkpt>
      <trkpt lat="42.648266" lon="0.657673">
        <ele>2679.9</ele>
        <time>1970-01-01T07:24:54.000Z</time>
      </trkpt>
      <trkpt lat="42.648267" lon="0.657672">
        <ele>2679.9</ele>
        <time>1970-01-01T07:24:55.000Z</time>
      </trkpt>
      <trkpt lat="42.648267" lon="0.657672">
        <ele>2679.9</ele>
        <time>1970-01-01T07:24:56.000Z</time>
      </trkpt>
      <trkpt lat="42.648268" lon="0.657672">
        <ele>2679.8</ele>
        <time>1970-01-01T07:24:57.000Z</time>
      </trkpt>
      <trkpt lat="42.648268" lon="0.657673">
        <ele>2679.8</ele>
        <time>1970-01-01T07:24:58.000Z</time>
      </trkpt>
      <trkpt lat="42.648268" lon="0.657673">
        <ele>2679.8</ele>
        <time>1970-01-01T07:24:59.000Z</time>
      </trkpt>
      <trkpt lat="42.648268" lon="0.657672">
        <ele>2679.8</ele>
        <time>1970-01-01T07:25:00.000Z</time>
      </trkpt>
      <trkpt lat="42.648267" lon="0.657672">
        <ele>2679.8</ele>
        <time>1970-01-01T07:25:01.000Z</time>
      </trkpt>
      <trkpt lat="42.648266" lon="0.657672">
        <ele>2679.7</ele>
        <time>1970-01-01T07:25:02.000Z</time>
      </trkpt>
      <trkpt lat="42.648265" lon="0.657673">
        <ele>2679.7</ele>
        <time>1970-01-01T07:25:03.000Z</time>
      </trkpt>
      <trkpt lat="42.648264" lon="0.657674">
        <ele>2679.7</ele>
        <time>1970-01-01T07:25:04.000Z</time>
      </trkpt>
      <trkpt lat="42.648263" lon="0.657675">
        <ele>2679.7</ele>
        <time>1970-01-01T07:25:05.000Z</time>
      </trkpt>
      <trkpt lat="42.648263" lon="0.657676">
        <ele>2679.6</ele>
        <time>1970-01-01T07:25:06.000Z</time>
      </trkpt>
      <trkpt lat="42.648262" lon="0.657677">
        <ele>2679.6</ele>
        <time>1970-01-01T07:25:07.000Z</time>
      </trkpt>
      <trkpt lat="42.648262" lon="0.657678">
        <ele>2679.6</ele>
        <time>1970-01-01T07:25:08.000Z</time>
      </trkpt>
      <trkpt lat="42.648263" lon="0.657679">
        <ele>2679.5</ele>
        <time>1970-01-01T07:25:09.000Z</time>
      </trkpt>
      <trkpt lat="42.648263" lon="0.657679">
        <ele>2679.5</ele>
        <time>1970-01-01T07:25:10.000Z</time>
      </trkpt>
      <trkpt lat="42.648263" lon="0.657679">
        <ele>2679.5</ele>
        <time>1970-01-01T07:25:11.000Z</time>
      </trkpt>
      <trkpt lat="42.648263" lon="0.657679">
        <ele>2679.5</ele>
        <time>1970-01-01T07:25:12.000Z</time>
      </trkpt>
      <trkpt lat="42.648263" lon="0.657679">
        <ele>2679.5</ele>
        <time>1970-01-01T07:25:13.000Z</time>
      </trkpt>
      <trkpt lat="42.648263" lon="0.657679">
        <ele>2679.5</ele>
        <time>1970-01-01T07:25:14.000Z</time>
      </trkpt>
      <trkpt lat="42.648263" lon="0.657679">
        <ele>2679.5</ele>
        <time>1970-01-01T07:25:15.000Z</time>
      </trkpt>
      <trkpt lat="42.648263" lon="0.657679">
        <ele>2679.5</ele>
        <time>1970-01-01T07:25:16.000Z</time>
      </trkpt>
      <trkpt lat="42.648263" lon="0.657679">
        <ele>2679.5</ele>
        <time>1970-01-01T07:25:17.000Z</time>
      </trkpt>
      <trkpt lat="42.648263" lon="0.657679">
        <ele>2679.5</ele>
        <time>1970-01-01T07:25:18.000Z</time>
      </trkpt>
      <trkpt lat="42.648263" lon="0.657679">
        <ele>2679.5</ele>
        <time>1970-01-01T07:25:19.000Z</time>
      </trkpt>
      <trkpt lat="42.648263" lon="0.657679">
        <ele>2679.5</ele>
        <time>1970-01-01T07:25:20.000Z</time>
      </trkpt>
      <trkpt lat="42.648263" lon="0.657679">
        <ele>2679.5</ele>
        <time>1970-01-01T07:25:21.000Z</time>
      </trkpt>
      <trkpt lat="42.648263" lon="0.657679">
        <ele>2679.5</ele>
        <time>1970-01-01T07:25:22.000Z</time>
      </trkpt>
      <trkpt lat="42.648263" lon="0.657679">
        <ele>2679.5</ele>
        <time>1970-01-01T07:25:23.000Z</time>
      </trkpt>
      <trkpt lat="42.648263" lon="0.657679">
        <ele>2679.5</ele>
        <time>1970-01-01T07:25:24.000Z</time>
      </trkpt>
      <trkpt lat="42.648263" lon="0.657679">
        <ele>2679.5</ele>
        <time>1970-01-01T07:25:25.000Z</time>
      </trkpt>
      <trkpt lat="42.648263" lon="0.657679">
        <ele>2679.5</ele>
        <time>1970-01-01T07:25:26.000Z</time>
      </trkpt>
      <trkpt lat="42.648263" lon="0.657679">
        <ele>2679.5</ele>
        <time>1970-01-01T07:25:27.000Z</time>
      </trkpt>
      <trkpt lat="42.648263" lon="0.657679">
        <ele>2679.5</ele>
        <time>1970-01-01T07:25:28.000Z</time>
      </trkpt>
      <trkpt lat="42.648263" lon="0.657679">
        <ele>2679.5</ele>
        <time>1970-01-01T07:25:29.000Z</time>
      </trkpt>
      <trkpt lat="42.648263" lon="0.657679">
        <ele>2679.5</ele>
        <time>1970-01-01T07:25:30.000Z</time>
      </trkpt>
      <trkpt lat="42.648263" lon="0.657679">
        <ele>2679.5</ele>
        <time>1970-01-01T07:25:31.000Z</time>
      </trkpt>
      <trkpt lat="42.648263" lon="0.657679">
        <ele>2679.5</ele>
        <time>1970-01-01T07:25:32.000Z</time>
      </trkpt>
      <trkpt lat="42.648263" lon="0.657679">
        <ele>2679.5</ele>
        <time>1970-01-01T07:25:33.000Z</time>
      </trkpt>
      <trkpt lat="42.648263" lon="0.657679">
        <ele>2679.5</ele>
        <time>1970-01-01T07:25:34.000Z</time>
      </trkpt>
      <trkpt lat="42.648263" lon="0.657679">
        <ele>2679.5</ele>
        <time>1970-01-01T07:25:35.000Z</time>
      </trkpt>
      <trkpt lat="42.648263" lon="0.657679">
        <ele>2679.5</ele>
        <time>1970-01-01T07:25:36.000Z</time>
      </trkpt>
      <trkpt lat="42.648263" lon="0.657679">
        <ele>2679.5</ele>
        <time>1970-01-01T07:25:37.000Z</time>
      </trkpt>
      <trkpt lat="42.648263" lon="0.657679">
        <ele>2679.5</ele>
        <time>1970-01-01T07:25:38.000Z</time>
      </trkpt>
      <trkpt lat="42.648266" lon="0.657679">
        <ele>2679.5</ele>
        <time>1970-01-01T07:25:39.000Z</time>
      </trkpt>
      <trkpt lat="42.64827" lon="0.657675">
        <ele>2679.3</ele>
        <time>1970-01-01T07:25:40.000Z</time>
      </trkpt>
      <trkpt lat="42.648272" lon="0.657669">
        <ele>2679.2</ele>
        <time>1970-01-01T07:25:41.000Z</time>
      </trkpt>
      <trkpt lat="42.64827" lon="0.657665">
        <ele>2679.1</ele>
        <time>1970-01-01T07:25:42.000Z</time>
      </trkpt>
      <trkpt lat="42.648268" lon="0.657664">
        <ele>2679.1</ele>
        <time>1970-01-01T07:25:43.000Z</time>
      </trkpt>
      <trkpt lat="42.648267" lon="0.657663">
        <ele>2679</ele>
        <time>1970-01-01T07:25:44.000Z</time>
      </trkpt>
      <trkpt lat="42.648267" lon="0.657673">
        <ele>2678.9</ele>
        <time>1970-01-01T07:25:45.000Z</time>
      </trkpt>
      <trkpt lat="42.648267" lon="0.657673">
        <ele>2678.9</ele>
        <time>1970-01-01T07:25:46.000Z</time>
      </trkpt>
      <trkpt lat="42.648266" lon="0.657673">
        <ele>2678.8</ele>
        <time>1970-01-01T07:25:47.000Z</time>
      </trkpt>
      <trkpt lat="42.648267" lon="0.657673">
        <ele>2678.8</ele>
        <time>1970-01-01T07:25:48.000Z</time>
      </trkpt>
      <trkpt lat="42.648267" lon="0.657673">
        <ele>2678.8</ele>
        <time>1970-01-01T07:25:49.000Z</time>
      </trkpt>
      <trkpt lat="42.648267" lon="0.657671">
        <ele>2678.8</ele>
        <time>1970-01-01T07:25:50.000Z</time>
      </trkpt>
      <trkpt lat="42.648267" lon="0.65767">
        <ele>2678.7</ele>
        <time>1970-01-01T07:25:51.000Z</time>
      </trkpt>
      <trkpt lat="42.648267" lon="0.65767">
        <ele>2678.7</ele>
        <time>1970-01-01T07:25:52.000Z</time>
      </trkpt>
      <trkpt lat="42.648268" lon="0.65767">
        <ele>2678.7</ele>
        <time>1970-01-01T07:25:53.000Z</time>
      </trkpt>
      <trkpt lat="42.648268" lon="0.657669">
        <ele>2678.7</ele>
        <time>1970-01-01T07:25:54.000Z</time>
      </trkpt>
      <trkpt lat="42.648267" lon="0.657669">
        <ele>2678.7</ele>
        <time>1970-01-01T07:25:55.000Z</time>
      </trkpt>
      <trkpt lat="42.648266" lon="0.657668">
        <ele>2678.6</ele>
        <time>1970-01-01T07:25:57.000Z</time>
      </trkpt>
      <trkpt lat="42.648267" lon="0.657667">
        <ele>2678.6</ele>
        <time>1970-01-01T07:25:58.000Z</time>
      </trkpt>
      <trkpt lat="42.648267" lon="0.657666">
        <ele>2678.6</ele>
        <time>1970-01-01T07:25:59.000Z</time>
      </trkpt>
      <trkpt lat="42.648268" lon="0.657665">
        <ele>2678.6</ele>
        <time>1970-01-01T07:26:00.000Z</time>
      </trkpt>
      <trkpt lat="42.648267" lon="0.657664">
        <ele>2678.5</ele>
        <time>1970-01-01T07:26:01.000Z</time>
      </trkpt>
      <trkpt lat="42.648268" lon="0.657663">
        <ele>2678.5</ele>
        <time>1970-01-01T07:26:02.000Z</time>
      </trkpt>
      <trkpt lat="42.648268" lon="0.657663">
        <ele>2678.5</ele>
        <time>1970-01-01T07:26:03.000Z</time>
      </trkpt>
      <trkpt lat="42.648268" lon="0.657663">
        <ele>2678.5</ele>
        <time>1970-01-01T07:26:04.000Z</time>
      </trkpt>
      <trkpt lat="42.648267" lon="0.657663">
        <ele>2678.5</ele>
        <time>1970-01-01T07:26:05.000Z</time>
      </trkpt>
      <trkpt lat="42.648268" lon="0.657662">
        <ele>2678.4</ele>
        <time>1970-01-01T07:26:06.000Z</time>
      </trkpt>
      <trkpt lat="42.648268" lon="0.657659">
        <ele>2678.4</ele>
        <time>1970-01-01T07:26:07.000Z</time>
      </trkpt>
      <trkpt lat="42.648268" lon="0.657658">
        <ele>2678.4</ele>
        <time>1970-01-01T07:26:08.000Z</time>
      </trkpt>
      <trkpt lat="42.648268" lon="0.657657">
        <ele>2678.4</ele>
        <time>1970-01-01T07:26:09.000Z</time>
      </trkpt>
      <trkpt lat="42.648266" lon="0.657657">
        <ele>2678.3</ele>
        <time>1970-01-01T07:26:10.000Z</time>
      </trkpt>
      <trkpt lat="42.648266" lon="0.657658">
        <ele>2678.3</ele>
        <time>1970-01-01T07:26:11.000Z</time>
      </trkpt>
      <trkpt lat="42.648269" lon="0.65766">
        <ele>2678.2</ele>
        <time>1970-01-01T07:26:12.000Z</time>
      </trkpt>
      <trkpt lat="42.648271" lon="0.657659">
        <ele>2678.2</ele>
        <time>1970-01-01T07:26:13.000Z</time>
      </trkpt>
      <trkpt lat="42.648269" lon="0.657659">
        <ele>2678.1</ele>
        <time>1970-01-01T07:26:14.000Z</time>
      </trkpt>
      <trkpt lat="42.64827" lon="0.657657">
        <ele>2678.1</ele>
        <time>1970-01-01T07:26:15.000Z</time>
      </trkpt>
      <trkpt lat="42.648278" lon="0.657657">
        <ele>2677.9</ele>
        <time>1970-01-01T07:26:16.000Z</time>
      </trkpt>
      <trkpt lat="42.648286" lon="0.657657">
        <ele>2677.7</ele>
        <time>1970-01-01T07:26:18.000Z</time>
      </trkpt>
      <trkpt lat="42.648299" lon="0.657659">
        <ele>2677.4</ele>
        <time>1970-01-01T07:26:19.000Z</time>
      </trkpt>
      <trkpt lat="42.648313" lon="0.657662">
        <ele>2677</ele>
        <time>1970-01-01T07:26:20.000Z</time>
      </trkpt>
      <trkpt lat="42.64832" lon="0.65766">
        <ele>2676.9</ele>
        <time>1970-01-01T07:26:21.000Z</time>
      </trkpt>
      <trkpt lat="42.648329" lon="0.657654">
        <ele>2676.6</ele>
        <time>1970-01-01T07:26:22.000Z</time>
      </trkpt>
      <trkpt lat="42.64834" lon="0.657653">
        <ele>2676.4</ele>
        <time>1970-01-01T07:26:24.000Z</time>
      </trkpt>
      <trkpt lat="42.648343" lon="0.657656">
        <ele>2676.3</ele>
        <time>1970-01-01T07:26:25.000Z</time>
      </trkpt>
      <trkpt lat="42.648347" lon="0.65766">
        <ele>2676.2</ele>
        <time>1970-01-01T07:26:26.000Z</time>
      </trkpt>
      <trkpt lat="42.64835" lon="0.657663">
        <ele>2676.1</ele>
        <time>1970-01-01T07:26:27.000Z</time>
      </trkpt>
      <trkpt lat="42.648354" lon="0.657666">
        <ele>2676</ele>
        <time>1970-01-01T07:26:28.000Z</time>
      </trkpt>
      <trkpt lat="42.648357" lon="0.65767">
        <ele>2675.9</ele>
        <time>1970-01-01T07:26:29.000Z</time>
      </trkpt>
      <trkpt lat="42.648361" lon="0.657673">
        <ele>2675.8</ele>
        <time>1970-01-01T07:26:30.000Z</time>
      </trkpt>
      <trkpt lat="42.648364" lon="0.657677">
        <ele>2675.7</ele>
        <time>1970-01-01T07:26:32.000Z</time>
      </trkpt>
      <trkpt lat="42.648367" lon="0.65768">
        <ele>2675.6</ele>
        <time>1970-01-01T07:26:33.000Z</time>
      </trkpt>
      <trkpt lat="42.648371" lon="0.657683">
        <ele>2675.5</ele>
        <time>1970-01-01T07:26:34.000Z</time>
      </trkpt>
      <trkpt lat="42.648374" lon="0.657687">
        <ele>2675.4</ele>
        <time>1970-01-01T07:26:35.000Z</time>
      </trkpt>
      <trkpt lat="42.648378" lon="0.65769">
        <ele>2675.3</ele>
        <time>1970-01-01T07:26:36.000Z</time>
      </trkpt>
      <trkpt lat="42.648381" lon="0.657693">
        <ele>2675.2</ele>
        <time>1970-01-01T07:26:37.000Z</time>
      </trkpt>
      <trkpt lat="42.648385" lon="0.657697">
        <ele>2675.1</ele>
        <time>1970-01-01T07:26:38.000Z</time>
      </trkpt>
      <trkpt lat="42.648388" lon="0.6577">
        <ele>2675</ele>
        <time>1970-01-01T07:26:39.000Z</time>
      </trkpt>
      <trkpt lat="42.648391" lon="0.657704">
        <ele>2674.9</ele>
        <time>1970-01-01T07:26:41.000Z</time>
      </trkpt>
      <trkpt lat="42.648395" lon="0.657707">
        <ele>2674.8</ele>
        <time>1970-01-01T07:26:42.000Z</time>
      </trkpt>
      <trkpt lat="42.648398" lon="0.65771">
        <ele>2674.8</ele>
        <time>1970-01-01T07:26:43.000Z</time>
      </trkpt>
      <trkpt lat="42.648402" lon="0.657714">
        <ele>2674.6</ele>
        <time>1970-01-01T07:26:44.000Z</time>
      </trkpt>
      <trkpt lat="42.648405" lon="0.657717">
        <ele>2674.6</ele>
        <time>1970-01-01T07:26:45.000Z</time>
      </trkpt>
      <trkpt lat="42.648413" lon="0.657719">
        <ele>2674.4</ele>
        <time>1970-01-01T07:26:47.000Z</time>
      </trkpt>
      <trkpt lat="42.648418" lon="0.657723">
        <ele>2674.2</ele>
        <time>1970-01-01T07:26:48.000Z</time>
      </trkpt>
      <trkpt lat="42.648425" lon="0.657729">
        <ele>2674.1</ele>
        <time>1970-01-01T07:26:49.000Z</time>
      </trkpt>
      <trkpt lat="42.64843" lon="0.657741">
        <ele>2673.8</ele>
        <time>1970-01-01T07:26:50.000Z</time>
      </trkpt>
      <trkpt lat="42.648435" lon="0.657752">
        <ele>2673.6</ele>
        <time>1970-01-01T07:26:51.000Z</time>
      </trkpt>
      <trkpt lat="42.648443" lon="0.657755">
        <ele>2673.4</ele>
        <time>1970-01-01T07:26:52.000Z</time>
      </trkpt>
      <trkpt lat="42.648452" lon="0.657758">
        <ele>2673.2</ele>
        <time>1970-01-01T07:26:53.000Z</time>
      </trkpt>
      <trkpt lat="42.648466" lon="0.657767">
        <ele>2672.8</ele>
        <time>1970-01-01T07:26:55.000Z</time>
      </trkpt>
      <trkpt lat="42.648471" lon="0.657777">
        <ele>2672.6</ele>
        <time>1970-01-01T07:26:56.000Z</time>
      </trkpt>
      <trkpt lat="42.648476" lon="0.657785">
        <ele>2672.5</ele>
        <time>1970-01-01T07:26:57.000Z</time>
      </trkpt>
      <trkpt lat="42.648489" lon="0.657796">
        <ele>2672.1</ele>
        <time>1970-01-01T07:26:58.000Z</time>
      </trkpt>
      <trkpt lat="42.648498" lon="0.657803">
        <ele>2671.8</ele>
        <time>1970-01-01T07:27:00.000Z</time>
      </trkpt>
      <trkpt lat="42.648501" lon="0.657808">
        <ele>2671.7</ele>
        <time>1970-01-01T07:27:01.000Z</time>
      </trkpt>
      <trkpt lat="42.648502" lon="0.65782">
        <ele>2671.5</ele>
        <time>1970-01-01T07:27:02.000Z</time>
      </trkpt>
      <trkpt lat="42.648498" lon="0.657823">
        <ele>2671.4</ele>
        <time>1970-01-01T07:27:03.000Z</time>
      </trkpt>
      <trkpt lat="42.648497" lon="0.657833">
        <ele>2671.2</ele>
        <time>1970-01-01T07:27:04.000Z</time>
      </trkpt>
      <trkpt lat="42.648495" lon="0.65784">
        <ele>2671.1</ele>
        <time>1970-01-01T07:27:05.000Z</time>
      </trkpt>
      <trkpt lat="42.648489" lon="0.657851">
        <ele>2670.8</ele>
        <time>1970-01-01T07:27:07.000Z</time>
      </trkpt>
      <trkpt lat="42.648485" lon="0.657861">
        <ele>2670.6</ele>
        <time>1970-01-01T07:27:08.000Z</time>
      </trkpt>
      <trkpt lat="42.648482" lon="0.657867">
        <ele>2670.5</ele>
        <time>1970-01-01T07:27:09.000Z</time>
      </trkpt>
      <trkpt lat="42.648481" lon="0.657877">
        <ele>2670.3</ele>
        <time>1970-01-01T07:27:10.000Z</time>
      </trkpt>
      <trkpt lat="42.648484" lon="0.657888">
        <ele>2670.1</ele>
        <time>1970-01-01T07:27:12.000Z</time>
      </trkpt>
      <trkpt lat="42.648488" lon="0.657893">
        <ele>2669.9</ele>
        <time>1970-01-01T07:27:13.000Z</time>
      </trkpt>
      <trkpt lat="42.648492" lon="0.657896">
        <ele>2669.8</ele>
        <time>1970-01-01T07:27:14.000Z</time>
      </trkpt>
      <trkpt lat="42.648496" lon="0.6579">
        <ele>2669.7</ele>
        <time>1970-01-01T07:27:15.000Z</time>
      </trkpt>
      <trkpt lat="42.648502" lon="0.657904">
        <ele>2669.5</ele>
        <time>1970-01-01T07:27:16.000Z</time>
      </trkpt>
      <trkpt lat="42.648511" lon="0.657909">
        <ele>2669.2</ele>
        <time>1970-01-01T07:27:18.000Z</time>
      </trkpt>
      <trkpt lat="42.648518" lon="0.657907">
        <ele>2669</ele>
        <time>1970-01-01T07:27:19.000Z</time>
      </trkpt>
      <trkpt lat="42.648526" lon="0.657911">
        <ele>2668.8</ele>
        <time>1970-01-01T07:27:21.000Z</time>
      </trkpt>
      <trkpt lat="42.648531" lon="0.657918">
        <ele>2668.6</ele>
        <time>1970-01-01T07:27:22.000Z</time>
      </trkpt>
      <trkpt lat="42.648535" lon="0.657925">
        <ele>2668.4</ele>
        <time>1970-01-01T07:27:23.000Z</time>
      </trkpt>
      <trkpt lat="42.648546" lon="0.657927">
        <ele>2668.1</ele>
        <time>1970-01-01T07:27:25.000Z</time>
      </trkpt>
      <trkpt lat="42.648554" lon="0.657927">
        <ele>2667.9</ele>
        <time>1970-01-01T07:27:26.000Z</time>
      </trkpt>
      <trkpt lat="42.64857" lon="0.657919">
        <ele>2667.4</ele>
        <time>1970-01-01T07:27:27.000Z</time>
      </trkpt>
      <trkpt lat="42.648576" lon="0.657915">
        <ele>2667.2</ele>
        <time>1970-01-01T07:27:28.000Z</time>
      </trkpt>
      <trkpt lat="42.648581" lon="0.657912">
        <ele>2667.1</ele>
        <time>1970-01-01T07:27:29.000Z</time>
      </trkpt>
      <trkpt lat="42.648587" lon="0.657908">
        <ele>2666.9</ele>
        <time>1970-01-01T07:27:30.000Z</time>
      </trkpt>
      <trkpt lat="42.648599" lon="0.657903">
        <ele>2666.5</ele>
        <time>1970-01-01T07:27:31.000Z</time>
      </trkpt>
      <trkpt lat="42.64861" lon="0.657901">
        <ele>2666.2</ele>
        <time>1970-01-01T07:27:32.000Z</time>
      </trkpt>
      <trkpt lat="42.648619" lon="0.657905">
        <ele>2665.9</ele>
        <time>1970-01-01T07:27:33.000Z</time>
      </trkpt>
      <trkpt lat="42.648628" lon="0.657914">
        <ele>2665.6</ele>
        <time>1970-01-01T07:27:34.000Z</time>
      </trkpt>
      <trkpt lat="42.648636" lon="0.65792">
        <ele>2665.3</ele>
        <time>1970-01-01T07:27:36.000Z</time>
      </trkpt>
      <trkpt lat="42.648643" lon="0.657924">
        <ele>2665.1</ele>
        <time>1970-01-01T07:27:37.000Z</time>
      </trkpt>
      <trkpt lat="42.648651" lon="0.657925">
        <ele>2664.9</ele>
        <time>1970-01-01T07:27:38.000Z</time>
      </trkpt>
      <trkpt lat="42.648658" lon="0.657929">
        <ele>2664.7</ele>
        <time>1970-01-01T07:27:39.000Z</time>
      </trkpt>
      <trkpt lat="42.648664" lon="0.657934">
        <ele>2664.4</ele>
        <time>1970-01-01T07:27:40.000Z</time>
      </trkpt>
      <trkpt lat="42.648673" lon="0.657941">
        <ele>2664.1</ele>
        <time>1970-01-01T07:27:41.000Z</time>
      </trkpt>
      <trkpt lat="42.648675" lon="0.657949">
        <ele>2663.9</ele>
        <time>1970-01-01T07:27:43.000Z</time>
      </trkpt>
      <trkpt lat="42.648673" lon="0.657962">
        <ele>2663.7</ele>
        <time>1970-01-01T07:27:44.000Z</time>
      </trkpt>
      <trkpt lat="42.648672" lon="0.657976">
        <ele>2663.3</ele>
        <time>1970-01-01T07:27:45.000Z</time>
      </trkpt>
      <trkpt lat="42.648671" lon="0.65799">
        <ele>2663</ele>
        <time>1970-01-01T07:27:46.000Z</time>
      </trkpt>
      <trkpt lat="42.648671" lon="0.658004">
        <ele>2662.7</ele>
        <time>1970-01-01T07:27:47.000Z</time>
      </trkpt>
      <trkpt lat="42.648674" lon="0.658014">
        <ele>2662.5</ele>
        <time>1970-01-01T07:27:48.000Z</time>
      </trkpt>
      <trkpt lat="42.648682" lon="0.658018">
        <ele>2662.2</ele>
        <time>1970-01-01T07:27:49.000Z</time>
      </trkpt>
      <trkpt lat="42.648692" lon="0.658014">
        <ele>2661.9</ele>
        <time>1970-01-01T07:27:50.000Z</time>
      </trkpt>
      <trkpt lat="42.648702" lon="0.658007">
        <ele>2661.6</ele>
        <time>1970-01-01T07:27:51.000Z</time>
      </trkpt>
      <trkpt lat="42.648713" lon="0.658008">
        <ele>2661.2</ele>
        <time>1970-01-01T07:27:52.000Z</time>
      </trkpt>
      <trkpt lat="42.64872" lon="0.658016">
        <ele>2661</ele>
        <time>1970-01-01T07:27:54.000Z</time>
      </trkpt>
      <trkpt lat="42.648723" lon="0.658025">
        <ele>2660.7</ele>
        <time>1970-01-01T07:27:55.000Z</time>
      </trkpt>
      <trkpt lat="42.648733" lon="0.658032">
        <ele>2660.4</ele>
        <time>1970-01-01T07:27:56.000Z</time>
      </trkpt>
      <trkpt lat="42.648743" lon="0.658035">
        <ele>2660.1</ele>
        <time>1970-01-01T07:27:58.000Z</time>
      </trkpt>
      <trkpt lat="42.648753" lon="0.658036">
        <ele>2659.8</ele>
        <time>1970-01-01T07:27:59.000Z</time>
      </trkpt>
      <trkpt lat="42.648761" lon="0.65804">
        <ele>2659.5</ele>
        <time>1970-01-01T07:28:00.000Z</time>
      </trkpt>
      <trkpt lat="42.648758" lon="0.658054">
        <ele>2659.2</ele>
        <time>1970-01-01T07:28:02.000Z</time>
      </trkpt>
      <trkpt lat="42.648755" lon="0.658066">
        <ele>2658.8</ele>
        <time>1970-01-01T07:28:03.000Z</time>
      </trkpt>
      <trkpt lat="42.648756" lon="0.658078">
        <ele>2658.6</ele>
        <time>1970-01-01T07:28:04.000Z</time>
      </trkpt>
      <trkpt lat="42.648759" lon="0.658086">
        <ele>2658.4</ele>
        <time>1970-01-01T07:28:05.000Z</time>
      </trkpt>
      <trkpt lat="42.648764" lon="0.658093">
        <ele>2658.2</ele>
        <time>1970-01-01T07:28:06.000Z</time>
      </trkpt>
      <trkpt lat="42.648768" lon="0.658102">
        <ele>2657.8</ele>
        <time>1970-01-01T07:28:07.000Z</time>
      </trkpt>
      <trkpt lat="42.648772" lon="0.658111">
        <ele>2657.6</ele>
        <time>1970-01-01T07:28:08.000Z</time>
      </trkpt>
      <trkpt lat="42.648789" lon="0.658124">
        <ele>2657</ele>
        <time>1970-01-01T07:28:10.000Z</time>
      </trkpt>
      <trkpt lat="42.648798" lon="0.658127">
        <ele>2656.8</ele>
        <time>1970-01-01T07:28:11.000Z</time>
      </trkpt>
      <trkpt lat="42.648806" lon="0.658129">
        <ele>2656.5</ele>
        <time>1970-01-01T07:28:12.000Z</time>
      </trkpt>
      <trkpt lat="42.648823" lon="0.658115">
        <ele>2655.9</ele>
        <time>1970-01-01T07:28:13.000Z</time>
      </trkpt>
      <trkpt lat="42.648833" lon="0.658117">
        <ele>2655.6</ele>
        <time>1970-01-01T07:28:14.000Z</time>
      </trkpt>
      <trkpt lat="42.648839" lon="0.658129">
        <ele>2655.2</ele>
        <time>1970-01-01T07:28:15.000Z</time>
      </trkpt>
      <trkpt lat="42.648842" lon="0.658146">
        <ele>2654.9</ele>
        <time>1970-01-01T07:28:17.000Z</time>
      </trkpt>
      <trkpt lat="42.648846" lon="0.658161">
        <ele>2654.5</ele>
        <time>1970-01-01T07:28:18.000Z</time>
      </trkpt>
      <trkpt lat="42.648855" lon="0.658167">
        <ele>2654.2</ele>
        <time>1970-01-01T07:28:19.000Z</time>
      </trkpt>
      <trkpt lat="42.648864" lon="0.658166">
        <ele>2653.9</ele>
        <time>1970-01-01T07:28:20.000Z</time>
      </trkpt>
      <trkpt lat="42.648871" lon="0.658167">
        <ele>2653.7</ele>
        <time>1970-01-01T07:28:21.000Z</time>
      </trkpt>
      <trkpt lat="42.648877" lon="0.658171">
        <ele>2653.5</ele>
        <time>1970-01-01T07:28:22.000Z</time>
      </trkpt>
      <trkpt lat="42.648896" lon="0.658182">
        <ele>2652.9</ele>
        <time>1970-01-01T07:28:23.000Z</time>
      </trkpt>
      <trkpt lat="42.648904" lon="0.658184">
        <ele>2652.6</ele>
        <time>1970-01-01T07:28:24.000Z</time>
      </trkpt>
      <trkpt lat="42.648912" lon="0.658186">
        <ele>2652.4</ele>
        <time>1970-01-01T07:28:25.000Z</time>
      </trkpt>
      <trkpt lat="42.648923" lon="0.658188">
        <ele>2652.1</ele>
        <time>1970-01-01T07:28:26.000Z</time>
      </trkpt>
      <trkpt lat="42.648935" lon="0.658183">
        <ele>2651.7</ele>
        <time>1970-01-01T07:28:28.000Z</time>
      </trkpt>
      <trkpt lat="42.648943" lon="0.658163">
        <ele>2651.2</ele>
        <time>1970-01-01T07:28:29.000Z</time>
      </trkpt>
      <trkpt lat="42.64895" lon="0.65815">
        <ele>2650.9</ele>
        <time>1970-01-01T07:28:30.000Z</time>
      </trkpt>
      <trkpt lat="42.648963" lon="0.658142">
        <ele>2650.5</ele>
        <time>1970-01-01T07:28:32.000Z</time>
      </trkpt>
      <trkpt lat="42.648975" lon="0.658142">
        <ele>2650.1</ele>
        <time>1970-01-01T07:28:33.000Z</time>
      </trkpt>
      <trkpt lat="42.648987" lon="0.658136">
        <ele>2649.8</ele>
        <time>1970-01-01T07:28:34.000Z</time>
      </trkpt>
      <trkpt lat="42.648998" lon="0.658132">
        <ele>2649.4</ele>
        <time>1970-01-01T07:28:35.000Z</time>
      </trkpt>
      <trkpt lat="42.649008" lon="0.658132">
        <ele>2649.2</ele>
        <time>1970-01-01T07:28:36.000Z</time>
      </trkpt>
      <trkpt lat="42.64902" lon="0.658137">
        <ele>2648.8</ele>
        <time>1970-01-01T07:28:37.000Z</time>
      </trkpt>
      <trkpt lat="42.649028" lon="0.65814">
        <ele>2648.6</ele>
        <time>1970-01-01T07:28:38.000Z</time>
      </trkpt>
      <trkpt lat="42.649035" lon="0.658136">
        <ele>2648.4</ele>
        <time>1970-01-01T07:28:39.000Z</time>
      </trkpt>
      <trkpt lat="42.649044" lon="0.658131">
        <ele>2648.1</ele>
        <time>1970-01-01T07:28:41.000Z</time>
      </trkpt>
      <trkpt lat="42.649055" lon="0.65813">
        <ele>2647.8</ele>
        <time>1970-01-01T07:28:42.000Z</time>
      </trkpt>
      <trkpt lat="42.649067" lon="0.65813">
        <ele>2647.4</ele>
        <time>1970-01-01T07:28:43.000Z</time>
      </trkpt>
      <trkpt lat="42.649078" lon="0.658132">
        <ele>2647.1</ele>
        <time>1970-01-01T07:28:44.000Z</time>
      </trkpt>
      <trkpt lat="42.649091" lon="0.658135">
        <ele>2646.8</ele>
        <time>1970-01-01T07:28:45.000Z</time>
      </trkpt>
      <trkpt lat="42.649102" lon="0.658139">
        <ele>2646.5</ele>
        <time>1970-01-01T07:28:46.000Z</time>
      </trkpt>
      <trkpt lat="42.64911" lon="0.658141">
        <ele>2646.3</ele>
        <time>1970-01-01T07:28:47.000Z</time>
      </trkpt>
      <trkpt lat="42.649119" lon="0.658138">
        <ele>2646.1</ele>
        <time>1970-01-01T07:28:48.000Z</time>
      </trkpt>
      <trkpt lat="42.649128" lon="0.658137">
        <ele>2645.8</ele>
        <time>1970-01-01T07:28:49.000Z</time>
      </trkpt>
      <trkpt lat="42.649137" lon="0.658137">
        <ele>2645.6</ele>
        <time>1970-01-01T07:28:50.000Z</time>
      </trkpt>
      <trkpt lat="42.649143" lon="0.658137">
        <ele>2645.5</ele>
        <time>1970-01-01T07:28:51.000Z</time>
      </trkpt>
      <trkpt lat="42.649152" lon="0.658137">
        <ele>2645.3</ele>
        <time>1970-01-01T07:28:52.000Z</time>
      </trkpt>
      <trkpt lat="42.649167" lon="0.658144">
        <ele>2644.9</ele>
        <time>1970-01-01T07:28:54.000Z</time>
      </trkpt>
      <trkpt lat="42.649174" lon="0.658146">
        <ele>2644.7</ele>
        <time>1970-01-01T07:28:55.000Z</time>
      </trkpt>
      <trkpt lat="42.649182" lon="0.658148">
        <ele>2644.6</ele>
        <time>1970-01-01T07:28:56.000Z</time>
      </trkpt>
      <trkpt lat="42.649191" lon="0.65815">
        <ele>2644.4</ele>
        <time>1970-01-01T07:28:57.000Z</time>
      </trkpt>
      <trkpt lat="42.6492" lon="0.658148">
        <ele>2644.1</ele>
        <time>1970-01-01T07:28:59.000Z</time>
      </trkpt>
      <trkpt lat="42.649206" lon="0.658149">
        <ele>2644</ele>
        <time>1970-01-01T07:29:00.000Z</time>
      </trkpt>
      <trkpt lat="42.649217" lon="0.658158">
        <ele>2643.7</ele>
        <time>1970-01-01T07:29:02.000Z</time>
      </trkpt>
      <trkpt lat="42.649226" lon="0.658156">
        <ele>2643.5</ele>
        <time>1970-01-01T07:29:03.000Z</time>
      </trkpt>
      <trkpt lat="42.649233" lon="0.658148">
        <ele>2643.3</ele>
        <time>1970-01-01T07:29:04.000Z</time>
      </trkpt>
      <trkpt lat="42.649238" lon="0.65814">
        <ele>2643.1</ele>
        <time>1970-01-01T07:29:05.000Z</time>
      </trkpt>
      <trkpt lat="42.649243" lon="0.658134">
        <ele>2642.9</ele>
        <time>1970-01-01T07:29:06.000Z</time>
      </trkpt>
      <trkpt lat="42.649249" lon="0.658133">
        <ele>2642.8</ele>
        <time>1970-01-01T07:29:07.000Z</time>
      </trkpt>
      <trkpt lat="42.649261" lon="0.658145">
        <ele>2642.5</ele>
        <time>1970-01-01T07:29:08.000Z</time>
      </trkpt>
      <trkpt lat="42.649269" lon="0.658166">
        <ele>2642</ele>
        <time>1970-01-01T07:29:09.000Z</time>
      </trkpt>
      <trkpt lat="42.64927" lon="0.658176">
        <ele>2641.9</ele>
        <time>1970-01-01T07:29:10.000Z</time>
      </trkpt>
      <trkpt lat="42.649273" lon="0.658181">
        <ele>2641.8</ele>
        <time>1970-01-01T07:29:12.000Z</time>
      </trkpt>
      <trkpt lat="42.649273" lon="0.658181">
        <ele>2641.8</ele>
        <time>1970-01-01T07:29:13.000Z</time>
      </trkpt>
      <trkpt lat="42.649278" lon="0.658183">
        <ele>2641.7</ele>
        <time>1970-01-01T07:29:14.000Z</time>
      </trkpt>
      <trkpt lat="42.649283" lon="0.658181">
        <ele>2641.6</ele>
        <time>1970-01-01T07:29:16.000Z</time>
      </trkpt>
      <trkpt lat="42.649289" lon="0.658175">
        <ele>2641.4</ele>
        <time>1970-01-01T07:29:17.000Z</time>
      </trkpt>
      <trkpt lat="42.649297" lon="0.658171">
        <ele>2641.2</ele>
        <time>1970-01-01T07:29:19.000Z</time>
      </trkpt>
      <trkpt lat="42.649303" lon="0.658166">
        <ele>2641</ele>
        <time>1970-01-01T07:29:20.000Z</time>
      </trkpt>
      <trkpt lat="42.649316" lon="0.658154">
        <ele>2640.7</ele>
        <time>1970-01-01T07:29:21.000Z</time>
      </trkpt>
      <trkpt lat="42.649327" lon="0.658149">
        <ele>2640.3</ele>
        <time>1970-01-01T07:29:22.000Z</time>
      </trkpt>
      <trkpt lat="42.649336" lon="0.658147">
        <ele>2640.1</ele>
        <time>1970-01-01T07:29:23.000Z</time>
      </trkpt>
      <trkpt lat="42.649342" lon="0.658145">
        <ele>2639.9</ele>
        <time>1970-01-01T07:29:24.000Z</time>
      </trkpt>
      <trkpt lat="42.649349" lon="0.658139">
        <ele>2639.7</ele>
        <time>1970-01-01T07:29:25.000Z</time>
      </trkpt>
      <trkpt lat="42.649354" lon="0.658131">
        <ele>2639.5</ele>
        <time>1970-01-01T07:29:26.000Z</time>
      </trkpt>
      <trkpt lat="42.64936" lon="0.658123">
        <ele>2639.3</ele>
        <time>1970-01-01T07:29:27.000Z</time>
      </trkpt>
      <trkpt lat="42.649363" lon="0.658122">
        <ele>2639.2</ele>
        <time>1970-01-01T07:29:28.000Z</time>
      </trkpt>
      <trkpt lat="42.649369" lon="0.65813">
        <ele>2639</ele>
        <time>1970-01-01T07:29:30.000Z</time>
      </trkpt>
      <trkpt lat="42.649374" lon="0.658135">
        <ele>2638.8</ele>
        <time>1970-01-01T07:29:31.000Z</time>
      </trkpt>
      <trkpt lat="42.649379" lon="0.658142">
        <ele>2638.6</ele>
        <time>1970-01-01T07:29:32.000Z</time>
      </trkpt>
      <trkpt lat="42.649383" lon="0.658147">
        <ele>2638.5</ele>
        <time>1970-01-01T07:29:33.000Z</time>
      </trkpt>
      <trkpt lat="42.649387" lon="0.658152">
        <ele>2638.4</ele>
        <time>1970-01-01T07:29:34.000Z</time>
      </trkpt>
      <trkpt lat="42.649391" lon="0.658157">
        <ele>2638.2</ele>
        <time>1970-01-01T07:29:35.000Z</time>
      </trkpt>
      <trkpt lat="42.649393" lon="0.658161">
        <ele>2638.1</ele>
        <time>1970-01-01T07:29:36.000Z</time>
      </trkpt>
      <trkpt lat="42.649397" lon="0.658163">
        <ele>2638</ele>
        <time>1970-01-01T07:29:37.000Z</time>
      </trkpt>
      <trkpt lat="42.649401" lon="0.658157">
        <ele>2637.8</ele>
        <time>1970-01-01T07:29:38.000Z</time>
      </trkpt>
      <trkpt lat="42.649401" lon="0.658149">
        <ele>2637.7</ele>
        <time>1970-01-01T07:29:39.000Z</time>
      </trkpt>
      <trkpt lat="42.6494" lon="0.658141">
        <ele>2637.6</ele>
        <time>1970-01-01T07:29:40.000Z</time>
      </trkpt>
      <trkpt lat="42.6494" lon="0.658136">
        <ele>2637.5</ele>
        <time>1970-01-01T07:29:41.000Z</time>
      </trkpt>
      <trkpt lat="42.649399" lon="0.658137">
        <ele>2637.4</ele>
        <time>1970-01-01T07:29:42.000Z</time>
      </trkpt>
      <trkpt lat="42.649398" lon="0.658133">
        <ele>2637.3</ele>
        <time>1970-01-01T07:29:43.000Z</time>
      </trkpt>
      <trkpt lat="42.649398" lon="0.658125">
        <ele>2637.2</ele>
        <time>1970-01-01T07:29:45.000Z</time>
      </trkpt>
      <trkpt lat="42.649398" lon="0.658119">
        <ele>2637</ele>
        <time>1970-01-01T07:29:46.000Z</time>
      </trkpt>
      <trkpt lat="42.649402" lon="0.65811">
        <ele>2636.9</ele>
        <time>1970-01-01T07:29:47.000Z</time>
      </trkpt>
      <trkpt lat="42.649408" lon="0.658108">
        <ele>2636.7</ele>
        <time>1970-01-01T07:29:49.000Z</time>
      </trkpt>
      <trkpt lat="42.649407" lon="0.658111">
        <ele>2636.7</ele>
        <time>1970-01-01T07:29:50.000Z</time>
      </trkpt>
      <trkpt lat="42.649411" lon="0.658114">
        <ele>2636.5</ele>
        <time>1970-01-01T07:29:51.000Z</time>
      </trkpt>
      <trkpt lat="42.649413" lon="0.658116">
        <ele>2636.4</ele>
        <time>1970-01-01T07:29:52.000Z</time>
      </trkpt>
      <trkpt lat="42.649413" lon="0.658117">
        <ele>2636.5</ele>
        <time>1970-01-01T07:29:53.000Z</time>
      </trkpt>
      <trkpt lat="42.649413" lon="0.658118">
        <ele>2636.5</ele>
        <time>1970-01-01T07:29:54.000Z</time>
      </trkpt>
      <trkpt lat="42.649413" lon="0.658117">
        <ele>2636.5</ele>
        <time>1970-01-01T07:29:55.000Z</time>
      </trkpt>
      <trkpt lat="42.649413" lon="0.658117">
        <ele>2636.5</ele>
        <time>1970-01-01T07:29:56.000Z</time>
      </trkpt>
      <trkpt lat="42.649413" lon="0.658117">
        <ele>2636.5</ele>
        <time>1970-01-01T07:29:57.000Z</time>
      </trkpt>
      <trkpt lat="42.649413" lon="0.658118">
        <ele>2636.5</ele>
        <time>1970-01-01T07:29:58.000Z</time>
      </trkpt>
      <trkpt lat="42.649412" lon="0.658119">
        <ele>2636.4</ele>
        <time>1970-01-01T07:29:59.000Z</time>
      </trkpt>
      <trkpt lat="42.649412" lon="0.65812">
        <ele>2636.4</ele>
        <time>1970-01-01T07:30:00.000Z</time>
      </trkpt>
      <trkpt lat="42.649413" lon="0.65812">
        <ele>2636.4</ele>
        <time>1970-01-01T07:30:01.000Z</time>
      </trkpt>
      <trkpt lat="42.649413" lon="0.65812">
        <ele>2636.4</ele>
        <time>1970-01-01T07:30:02.000Z</time>
      </trkpt>
      <trkpt lat="42.649413" lon="0.65812">
        <ele>2636.4</ele>
        <time>1970-01-01T07:30:03.000Z</time>
      </trkpt>
      <trkpt lat="42.649414" lon="0.65812">
        <ele>2636.3</ele>
        <time>1970-01-01T07:30:04.000Z</time>
      </trkpt>
      <trkpt lat="42.649414" lon="0.65812">
        <ele>2636.3</ele>
        <time>1970-01-01T07:30:05.000Z</time>
      </trkpt>
      <trkpt lat="42.649414" lon="0.658121">
        <ele>2636.3</ele>
        <time>1970-01-01T07:30:06.000Z</time>
      </trkpt>
      <trkpt lat="42.649415" lon="0.658121">
        <ele>2636.3</ele>
        <time>1970-01-01T07:30:07.000Z</time>
      </trkpt>
      <trkpt lat="42.649415" lon="0.658121">
        <ele>2636.3</ele>
        <time>1970-01-01T07:30:08.000Z</time>
      </trkpt>
      <trkpt lat="42.64941" lon="0.658121">
        <ele>2636.1</ele>
        <time>1970-01-01T07:30:09.000Z</time>
      </trkpt>
      <trkpt lat="42.64941" lon="0.658124">
        <ele>2636.1</ele>
        <time>1970-01-01T07:30:10.000Z</time>
      </trkpt>
      <trkpt lat="42.649411" lon="0.658126">
        <ele>2636</ele>
        <time>1970-01-01T07:30:11.000Z</time>
      </trkpt>
      <trkpt lat="42.649412" lon="0.658127">
        <ele>2636</ele>
        <time>1970-01-01T07:30:12.000Z</time>
      </trkpt>
      <trkpt lat="42.649411" lon="0.658126">
        <ele>2636</ele>
        <time>1970-01-01T07:30:13.000Z</time>
      </trkpt>
      <trkpt lat="42.649411" lon="0.658126">
        <ele>2636</ele>
        <time>1970-01-01T07:30:14.000Z</time>
      </trkpt>
      <trkpt lat="42.649411" lon="0.658126">
        <ele>2636</ele>
        <time>1970-01-01T07:30:15.000Z</time>
      </trkpt>
      <trkpt lat="42.649412" lon="0.658133">
        <ele>2635.8</ele>
        <time>1970-01-01T07:30:16.000Z</time>
      </trkpt>
      <trkpt lat="42.649413" lon="0.658137">
        <ele>2635.7</ele>
        <time>1970-01-01T07:30:17.000Z</time>
      </trkpt>
      <trkpt lat="42.649413" lon="0.658139">
        <ele>2635.7</ele>
        <time>1970-01-01T07:30:18.000Z</time>
      </trkpt>
      <trkpt lat="42.649417" lon="0.658138">
        <ele>2635.6</ele>
        <time>1970-01-01T07:30:19.000Z</time>
      </trkpt>
      <trkpt lat="42.649418" lon="0.658139">
        <ele>2635.5</ele>
        <time>1970-01-01T07:30:20.000Z</time>
      </trkpt>
      <trkpt lat="42.649418" lon="0.65814">
        <ele>2635.5</ele>
        <time>1970-01-01T07:30:21.000Z</time>
      </trkpt>
      <trkpt lat="42.64942" lon="0.658142">
        <ele>2635.4</ele>
        <time>1970-01-01T07:30:22.000Z</time>
      </trkpt>
      <trkpt lat="42.64942" lon="0.658143">
        <ele>2635.4</ele>
        <time>1970-01-01T07:30:23.000Z</time>
      </trkpt>
      <trkpt lat="42.649421" lon="0.658145">
        <ele>2635.4</ele>
        <time>1970-01-01T07:30:24.000Z</time>
      </trkpt>
      <trkpt lat="42.649421" lon="0.658147">
        <ele>2635.3</ele>
        <time>1970-01-01T07:30:25.000Z</time>
      </trkpt>
      <trkpt lat="42.649422" lon="0.658148">
        <ele>2635.3</ele>
        <time>1970-01-01T07:30:26.000Z</time>
      </trkpt>
      <trkpt lat="42.649423" lon="0.658149">
        <ele>2635.2</ele>
        <time>1970-01-01T07:30:27.000Z</time>
      </trkpt>
      <trkpt lat="42.649423" lon="0.65815">
        <ele>2635.2</ele>
        <time>1970-01-01T07:30:28.000Z</time>
      </trkpt>
      <trkpt lat="42.649423" lon="0.658151">
        <ele>2635.2</ele>
        <time>1970-01-01T07:30:29.000Z</time>
      </trkpt>
      <trkpt lat="42.649423" lon="0.658151">
        <ele>2635.2</ele>
        <time>1970-01-01T07:30:30.000Z</time>
      </trkpt>
      <trkpt lat="42.649424" lon="0.658152">
        <ele>2635.2</ele>
        <time>1970-01-01T07:30:31.000Z</time>
      </trkpt>
      <trkpt lat="42.649424" lon="0.658153">
        <ele>2635.1</ele>
        <time>1970-01-01T07:30:32.000Z</time>
      </trkpt>
      <trkpt lat="42.649424" lon="0.658152">
        <ele>2635.1</ele>
        <time>1970-01-01T07:30:33.000Z</time>
      </trkpt>
      <trkpt lat="42.649425" lon="0.658153">
        <ele>2635.1</ele>
        <time>1970-01-01T07:30:34.000Z</time>
      </trkpt>
      <trkpt lat="42.649425" lon="0.658153">
        <ele>2635.1</ele>
        <time>1970-01-01T07:30:35.000Z</time>
      </trkpt>
      <trkpt lat="42.649425" lon="0.658154">
        <ele>2635.1</ele>
        <time>1970-01-01T07:30:36.000Z</time>
      </trkpt>
      <trkpt lat="42.649425" lon="0.658154">
        <ele>2635.1</ele>
        <time>1970-01-01T07:30:37.000Z</time>
      </trkpt>
      <trkpt lat="42.649426" lon="0.658155">
        <ele>2635</ele>
        <time>1970-01-01T07:30:38.000Z</time>
      </trkpt>
      <trkpt lat="42.649421" lon="0.658155">
        <ele>2634.9</ele>
        <time>1970-01-01T07:30:39.000Z</time>
      </trkpt>
      <trkpt lat="42.649419" lon="0.658155">
        <ele>2634.8</ele>
        <time>1970-01-01T07:30:40.000Z</time>
      </trkpt>
      <trkpt lat="42.649418" lon="0.658155">
        <ele>2634.8</ele>
        <time>1970-01-01T07:30:41.000Z</time>
      </trkpt>
      <trkpt lat="42.649418" lon="0.658155">
        <ele>2634.8</ele>
        <time>1970-01-01T07:30:42.000Z</time>
      </trkpt>
      <trkpt lat="42.649418" lon="0.658155">
        <ele>2634.8</ele>
        <time>1970-01-01T07:30:43.000Z</time>
      </trkpt>
      <trkpt lat="42.649418" lon="0.658155">
        <ele>2634.8</ele>
        <time>1970-01-01T07:30:44.000Z</time>
      </trkpt>
      <trkpt lat="42.649418" lon="0.658155">
        <ele>2634.8</ele>
        <time>1970-01-01T07:30:45.000Z</time>
      </trkpt>
      <trkpt lat="42.649418" lon="0.658155">
        <ele>2634.8</ele>
        <time>1970-01-01T07:30:46.000Z</time>
      </trkpt>
      <trkpt lat="42.649418" lon="0.658155">
        <ele>2634.8</ele>
        <time>1970-01-01T07:30:47.000Z</time>
      </trkpt>
      <trkpt lat="42.649418" lon="0.658155">
        <ele>2634.8</ele>
        <time>1970-01-01T07:30:48.000Z</time>
      </trkpt>
      <trkpt lat="42.649419" lon="0.658155">
        <ele>2634.8</ele>
        <time>1970-01-01T07:30:49.000Z</time>
      </trkpt>
      <trkpt lat="42.649419" lon="0.658155">
        <ele>2634.8</ele>
        <time>1970-01-01T07:30:50.000Z</time>
      </trkpt>
      <trkpt lat="42.649419" lon="0.658155">
        <ele>2634.8</ele>
        <time>1970-01-01T07:30:51.000Z</time>
      </trkpt>
      <trkpt lat="42.649419" lon="0.658155">
        <ele>2634.8</ele>
        <time>1970-01-01T07:30:52.000Z</time>
      </trkpt>
      <trkpt lat="42.649419" lon="0.658155">
        <ele>2634.8</ele>
        <time>1970-01-01T07:30:53.000Z</time>
      </trkpt>
      <trkpt lat="42.649419" lon="0.658155">
        <ele>2634.8</ele>
        <time>1970-01-01T07:30:54.000Z</time>
      </trkpt>
      <trkpt lat="42.649419" lon="0.658155">
        <ele>2634.8</ele>
        <time>1970-01-01T07:30:55.000Z</time>
      </trkpt>
      <trkpt lat="42.649419" lon="0.658155">
        <ele>2634.8</ele>
        <time>1970-01-01T07:30:56.000Z</time>
      </trkpt>
      <trkpt lat="42.649419" lon="0.658155">
        <ele>2634.8</ele>
        <time>1970-01-01T07:30:57.000Z</time>
      </trkpt>
      <trkpt lat="42.649419" lon="0.658155">
        <ele>2634.8</ele>
        <time>1970-01-01T07:30:58.000Z</time>
      </trkpt>
      <trkpt lat="42.649419" lon="0.658155">
        <ele>2634.8</ele>
        <time>1970-01-01T07:30:59.000Z</time>
      </trkpt>
      <trkpt lat="42.649419" lon="0.658155">
        <ele>2634.8</ele>
        <time>1970-01-01T07:31:00.000Z</time>
      </trkpt>
      <trkpt lat="42.649419" lon="0.658155">
        <ele>2634.8</ele>
        <time>1970-01-01T07:31:01.000Z</time>
      </trkpt>
      <trkpt lat="42.649419" lon="0.658155">
        <ele>2634.8</ele>
        <time>1970-01-01T07:31:02.000Z</time>
      </trkpt>
      <trkpt lat="42.649419" lon="0.658155">
        <ele>2634.8</ele>
        <time>1970-01-01T07:31:03.000Z</time>
      </trkpt>
      <trkpt lat="42.649419" lon="0.658155">
        <ele>2634.8</ele>
        <time>1970-01-01T07:31:04.000Z</time>
      </trkpt>
      <trkpt lat="42.649419" lon="0.658155">
        <ele>2634.8</ele>
        <time>1970-01-01T07:31:05.000Z</time>
      </trkpt>
      <trkpt lat="42.649419" lon="0.658155">
        <ele>2634.8</ele>
        <time>1970-01-01T07:31:06.000Z</time>
      </trkpt>
      <trkpt lat="42.649419" lon="0.658155">
        <ele>2634.8</ele>
        <time>1970-01-01T07:31:07.000Z</time>
      </trkpt>
      <trkpt lat="42.649419" lon="0.658155">
        <ele>2634.8</ele>
        <time>1970-01-01T07:31:08.000Z</time>
      </trkpt>
      <trkpt lat="42.649419" lon="0.658155">
        <ele>2634.8</ele>
        <time>1970-01-01T07:31:09.000Z</time>
      </trkpt>
      <trkpt lat="42.649419" lon="0.658155">
        <ele>2634.8</ele>
        <time>1970-01-01T07:31:10.000Z</time>
      </trkpt>
      <trkpt lat="42.649419" lon="0.658155">
        <ele>2634.8</ele>
        <time>1970-01-01T07:31:11.000Z</time>
      </trkpt>
      <trkpt lat="42.649419" lon="0.658155">
        <ele>2634.8</ele>
        <time>1970-01-01T07:31:12.000Z</time>
      </trkpt>
      <trkpt lat="42.649419" lon="0.658155">
        <ele>2634.8</ele>
        <time>1970-01-01T07:31:13.000Z</time>
      </trkpt>
      <trkpt lat="42.649419" lon="0.658155">
        <ele>2634.8</ele>
        <time>1970-01-01T07:31:14.000Z</time>
      </trkpt>
      <trkpt lat="42.64942" lon="0.658155">
        <ele>2634.7</ele>
        <time>1970-01-01T07:31:15.000Z</time>
      </trkpt>
      <trkpt lat="42.649422" lon="0.658155">
        <ele>2634.7</ele>
        <time>1970-01-01T07:31:16.000Z</time>
      </trkpt>
      <trkpt lat="42.649424" lon="0.658156">
        <ele>2634.6</ele>
        <time>1970-01-01T07:31:17.000Z</time>
      </trkpt>
      <trkpt lat="42.649427" lon="0.658157">
        <ele>2634.5</ele>
        <time>1970-01-01T07:31:18.000Z</time>
      </trkpt>
      <trkpt lat="42.649428" lon="0.658156">
        <ele>2634.5</ele>
        <time>1970-01-01T07:31:19.000Z</time>
      </trkpt>
      <trkpt lat="42.649431" lon="0.658156">
        <ele>2634.4</ele>
        <time>1970-01-01T07:31:20.000Z</time>
      </trkpt>
      <trkpt lat="42.649431" lon="0.658156">
        <ele>2634.4</ele>
        <time>1970-01-01T07:31:21.000Z</time>
      </trkpt>
      <trkpt lat="42.649431" lon="0.658156">
        <ele>2634.4</ele>
        <time>1970-01-01T07:31:22.000Z</time>
      </trkpt>
      <trkpt lat="42.649434" lon="0.658159">
        <ele>2634.3</ele>
        <time>1970-01-01T07:31:23.000Z</time>
      </trkpt>
      <trkpt lat="42.649437" lon="0.658162">
        <ele>2634.2</ele>
        <time>1970-01-01T07:31:24.000Z</time>
      </trkpt>
      <trkpt lat="42.649437" lon="0.658164">
        <ele>2634.2</ele>
        <time>1970-01-01T07:31:25.000Z</time>
      </trkpt>
      <trkpt lat="42.649439" lon="0.658165">
        <ele>2634.1</ele>
        <time>1970-01-01T07:31:26.000Z</time>
      </trkpt>
      <trkpt lat="42.649441" lon="0.658166">
        <ele>2634.1</ele>
        <time>1970-01-01T07:31:27.000Z</time>
      </trkpt>
      <trkpt lat="42.649444" lon="0.658165">
        <ele>2634</ele>
        <time>1970-01-01T07:31:28.000Z</time>
      </trkpt>
      <trkpt lat="42.649445" lon="0.658167">
        <ele>2633.9</ele>
        <time>1970-01-01T07:31:29.000Z</time>
      </trkpt>
      <trkpt lat="42.649446" lon="0.658168">
        <ele>2633.9</ele>
        <time>1970-01-01T07:31:30.000Z</time>
      </trkpt>
      <trkpt lat="42.649448" lon="0.658169">
        <ele>2633.8</ele>
        <time>1970-01-01T07:31:31.000Z</time>
      </trkpt>
      <trkpt lat="42.649456" lon="0.658172">
        <ele>2633.6</ele>
        <time>1970-01-01T07:31:32.000Z</time>
      </trkpt>
      <trkpt lat="42.649462" lon="0.658171">
        <ele>2633.5</ele>
        <time>1970-01-01T07:31:34.000Z</time>
      </trkpt>
      <trkpt lat="42.649467" lon="0.658166">
        <ele>2633.3</ele>
        <time>1970-01-01T07:31:35.000Z</time>
      </trkpt>
      <trkpt lat="42.649472" lon="0.658162">
        <ele>2633.1</ele>
        <time>1970-01-01T07:31:36.000Z</time>
      </trkpt>
      <trkpt lat="42.649476" lon="0.65816">
        <ele>2633</ele>
        <time>1970-01-01T07:31:37.000Z</time>
      </trkpt>
      <trkpt lat="42.649479" lon="0.658161">
        <ele>2633</ele>
        <time>1970-01-01T07:31:38.000Z</time>
      </trkpt>
      <trkpt lat="42.649482" lon="0.658162">
        <ele>2632.9</ele>
        <time>1970-01-01T07:31:39.000Z</time>
      </trkpt>
      <trkpt lat="42.649486" lon="0.658167">
        <ele>2632.7</ele>
        <time>1970-01-01T07:31:41.000Z</time>
      </trkpt>
      <trkpt lat="42.649488" lon="0.65817">
        <ele>2632.7</ele>
        <time>1970-01-01T07:31:42.000Z</time>
      </trkpt>
      <trkpt lat="42.649488" lon="0.658171">
        <ele>2632.6</ele>
        <time>1970-01-01T07:31:43.000Z</time>
      </trkpt>
      <trkpt lat="42.649489" lon="0.658173">
        <ele>2632.6</ele>
        <time>1970-01-01T07:31:44.000Z</time>
      </trkpt>
      <trkpt lat="42.649492" lon="0.658171">
        <ele>2632.5</ele>
        <time>1970-01-01T07:31:46.000Z</time>
      </trkpt>
      <trkpt lat="42.649497" lon="0.658168">
        <ele>2632.4</ele>
        <time>1970-01-01T07:31:47.000Z</time>
      </trkpt>
      <trkpt lat="42.649499" lon="0.658168">
        <ele>2632.4</ele>
        <time>1970-01-01T07:31:48.000Z</time>
      </trkpt>
      <trkpt lat="42.6495" lon="0.658167">
        <ele>2632.3</ele>
        <time>1970-01-01T07:31:49.000Z</time>
      </trkpt>
      <trkpt lat="42.649503" lon="0.658164">
        <ele>2632.2</ele>
        <time>1970-01-01T07:31:50.000Z</time>
      </trkpt>
      <trkpt lat="42.649507" lon="0.658162">
        <ele>2632.1</ele>
        <time>1970-01-01T07:31:51.000Z</time>
      </trkpt>
      <trkpt lat="42.649511" lon="0.658163">
        <ele>2632</ele>
        <time>1970-01-01T07:31:52.000Z</time>
      </trkpt>
      <trkpt lat="42.649515" lon="0.65816">
        <ele>2631.9</ele>
        <time>1970-01-01T07:31:53.000Z</time>
      </trkpt>
      <trkpt lat="42.649516" lon="0.658159">
        <ele>2631.9</ele>
        <time>1970-01-01T07:31:54.000Z</time>
      </trkpt>
      <trkpt lat="42.649517" lon="0.65816">
        <ele>2631.9</ele>
        <time>1970-01-01T07:31:55.000Z</time>
      </trkpt>
      <trkpt lat="42.649519" lon="0.658162">
        <ele>2631.8</ele>
        <time>1970-01-01T07:31:56.000Z</time>
      </trkpt>
      <trkpt lat="42.649521" lon="0.658162">
        <ele>2631.8</ele>
        <time>1970-01-01T07:31:57.000Z</time>
      </trkpt>
      <trkpt lat="42.649525" lon="0.658161">
        <ele>2631.7</ele>
        <time>1970-01-01T07:31:58.000Z</time>
      </trkpt>
      <trkpt lat="42.649529" lon="0.658161">
        <ele>2631.6</ele>
        <time>1970-01-01T07:32:00.000Z</time>
      </trkpt>
      <trkpt lat="42.649532" lon="0.658162">
        <ele>2631.5</ele>
        <time>1970-01-01T07:32:01.000Z</time>
      </trkpt>
      <trkpt lat="42.649538" lon="0.65816">
        <ele>2631.4</ele>
        <time>1970-01-01T07:32:02.000Z</time>
      </trkpt>
      <trkpt lat="42.649544" lon="0.658157">
        <ele>2631.2</ele>
        <time>1970-01-01T07:32:04.000Z</time>
      </trkpt>
      <trkpt lat="42.649545" lon="0.658157">
        <ele>2631.2</ele>
        <time>1970-01-01T07:32:05.000Z</time>
      </trkpt>
      <trkpt lat="42.649546" lon="0.658156">
        <ele>2631.2</ele>
        <time>1970-01-01T07:32:06.000Z</time>
      </trkpt>
      <trkpt lat="42.649546" lon="0.658157">
        <ele>2631.1</ele>
        <time>1970-01-01T07:32:07.000Z</time>
      </trkpt>
      <trkpt lat="42.649548" lon="0.658156">
        <ele>2631.1</ele>
        <time>1970-01-01T07:32:08.000Z</time>
      </trkpt>
      <trkpt lat="42.649549" lon="0.658156">
        <ele>2631.1</ele>
        <time>1970-01-01T07:32:09.000Z</time>
      </trkpt>
      <trkpt lat="42.649549" lon="0.658156">
        <ele>2631.1</ele>
        <time>1970-01-01T07:32:10.000Z</time>
      </trkpt>
      <trkpt lat="42.64955" lon="0.658156">
        <ele>2631.1</ele>
        <time>1970-01-01T07:32:11.000Z</time>
      </trkpt>
      <trkpt lat="42.649551" lon="0.658157">
        <ele>2631</ele>
        <time>1970-01-01T07:32:12.000Z</time>
      </trkpt>
      <trkpt lat="42.649552" lon="0.658156">
        <ele>2631</ele>
        <time>1970-01-01T07:32:13.000Z</time>
      </trkpt>
      <trkpt lat="42.649553" lon="0.658156">
        <ele>2631</ele>
        <time>1970-01-01T07:32:14.000Z</time>
      </trkpt>
      <trkpt lat="42.649552" lon="0.658156">
        <ele>2630.9</ele>
        <time>1970-01-01T07:32:15.000Z</time>
      </trkpt>
      <trkpt lat="42.649553" lon="0.658156">
        <ele>2630.9</ele>
        <time>1970-01-01T07:32:16.000Z</time>
      </trkpt>
      <trkpt lat="42.649552" lon="0.658155">
        <ele>2630.9</ele>
        <time>1970-01-01T07:32:17.000Z</time>
      </trkpt>
      <trkpt lat="42.649552" lon="0.658154">
        <ele>2630.9</ele>
        <time>1970-01-01T07:32:18.000Z</time>
      </trkpt>
      <trkpt lat="42.649552" lon="0.658153">
        <ele>2630.9</ele>
        <time>1970-01-01T07:32:19.000Z</time>
      </trkpt>
      <trkpt lat="42.649553" lon="0.658153">
        <ele>2630.8</ele>
        <time>1970-01-01T07:32:20.000Z</time>
      </trkpt>
      <trkpt lat="42.649553" lon="0.658152">
        <ele>2630.8</ele>
        <time>1970-01-01T07:32:21.000Z</time>
      </trkpt>
      <trkpt lat="42.64955" lon="0.658155">
        <ele>2630.7</ele>
        <time>1970-01-01T07:32:22.000Z</time>
      </trkpt>
      <trkpt lat="42.649549" lon="0.658156">
        <ele>2630.7</ele>
        <time>1970-01-01T07:32:23.000Z</time>
      </trkpt>
      <trkpt lat="42.649549" lon="0.658156">
        <ele>2630.7</ele>
        <time>1970-01-01T07:32:24.000Z</time>
      </trkpt>
      <trkpt lat="42.649549" lon="0.658157">
        <ele>2630.7</ele>
        <time>1970-01-01T07:32:25.000Z</time>
      </trkpt>
      <trkpt lat="42.649549" lon="0.658156">
        <ele>2630.7</ele>
        <time>1970-01-01T07:32:26.000Z</time>
      </trkpt>
      <trkpt lat="42.649549" lon="0.658157">
        <ele>2630.7</ele>
        <time>1970-01-01T07:32:27.000Z</time>
      </trkpt>
      <trkpt lat="42.649549" lon="0.658157">
        <ele>2630.7</ele>
        <time>1970-01-01T07:32:28.000Z</time>
      </trkpt>
      <trkpt lat="42.649549" lon="0.658157">
        <ele>2630.7</ele>
        <time>1970-01-01T07:32:29.000Z</time>
      </trkpt>
      <trkpt lat="42.649549" lon="0.658157">
        <ele>2630.7</ele>
        <time>1970-01-01T07:32:30.000Z</time>
      </trkpt>
      <trkpt lat="42.649549" lon="0.658157">
        <ele>2630.7</ele>
        <time>1970-01-01T07:32:31.000Z</time>
      </trkpt>
      <trkpt lat="42.649549" lon="0.658156">
        <ele>2630.6</ele>
        <time>1970-01-01T07:32:32.000Z</time>
      </trkpt>
      <trkpt lat="42.649549" lon="0.658156">
        <ele>2630.6</ele>
        <time>1970-01-01T07:32:33.000Z</time>
      </trkpt>
      <trkpt lat="42.649549" lon="0.658156">
        <ele>2630.6</ele>
        <time>1970-01-01T07:32:34.000Z</time>
      </trkpt>
      <trkpt lat="42.649549" lon="0.658157">
        <ele>2630.6</ele>
        <time>1970-01-01T07:32:35.000Z</time>
      </trkpt>
      <trkpt lat="42.649548" lon="0.658157">
        <ele>2630.6</ele>
        <time>1970-01-01T07:32:36.000Z</time>
      </trkpt>
      <trkpt lat="42.649548" lon="0.658159">
        <ele>2630.6</ele>
        <time>1970-01-01T07:32:37.000Z</time>
      </trkpt>
      <trkpt lat="42.649548" lon="0.65816">
        <ele>2630.6</ele>
        <time>1970-01-01T07:32:38.000Z</time>
      </trkpt>
      <trkpt lat="42.64955" lon="0.658162">
        <ele>2630.5</ele>
        <time>1970-01-01T07:32:39.000Z</time>
      </trkpt>
      <trkpt lat="42.649552" lon="0.658164">
        <ele>2630.4</ele>
        <time>1970-01-01T07:32:40.000Z</time>
      </trkpt>
      <trkpt lat="42.649558" lon="0.658173">
        <ele>2630.2</ele>
        <time>1970-01-01T07:32:41.000Z</time>
      </trkpt>
      <trkpt lat="42.649562" lon="0.658177">
        <ele>2630.1</ele>
        <time>1970-01-01T07:32:42.000Z</time>
      </trkpt>
      <trkpt lat="42.649563" lon="0.658176">
        <ele>2630.1</ele>
        <time>1970-01-01T07:32:43.000Z</time>
      </trkpt>
      <trkpt lat="42.649562" lon="0.658174">
        <ele>2630.1</ele>
        <time>1970-01-01T07:32:44.000Z</time>
      </trkpt>
      <trkpt lat="42.649561" lon="0.658173">
        <ele>2630</ele>
        <time>1970-01-01T07:32:45.000Z</time>
      </trkpt>
      <trkpt lat="42.649562" lon="0.658175">
        <ele>2630</ele>
        <time>1970-01-01T07:32:46.000Z</time>
      </trkpt>
      <trkpt lat="42.649562" lon="0.658176">
        <ele>2630</ele>
        <time>1970-01-01T07:32:47.000Z</time>
      </trkpt>
      <trkpt lat="42.649562" lon="0.658176">
        <ele>2630</ele>
        <time>1970-01-01T07:32:48.000Z</time>
      </trkpt>
      <trkpt lat="42.649562" lon="0.658175">
        <ele>2630</ele>
        <time>1970-01-01T07:32:49.000Z</time>
      </trkpt>
      <trkpt lat="42.649562" lon="0.658175">
        <ele>2630</ele>
        <time>1970-01-01T07:32:50.000Z</time>
      </trkpt>
      <trkpt lat="42.649563" lon="0.658176">
        <ele>2629.9</ele>
        <time>1970-01-01T07:32:51.000Z</time>
      </trkpt>
      <trkpt lat="42.649563" lon="0.658177">
        <ele>2629.9</ele>
        <time>1970-01-01T07:32:52.000Z</time>
      </trkpt>
      <trkpt lat="42.649562" lon="0.658179">
        <ele>2629.9</ele>
        <time>1970-01-01T07:32:53.000Z</time>
      </trkpt>
      <trkpt lat="42.649563" lon="0.658177">
        <ele>2629.8</ele>
        <time>1970-01-01T07:32:55.000Z</time>
      </trkpt>
      <trkpt lat="42.649563" lon="0.658177">
        <ele>2629.8</ele>
        <time>1970-01-01T07:32:56.000Z</time>
      </trkpt>
      <trkpt lat="42.649563" lon="0.658177">
        <ele>2629.8</ele>
        <time>1970-01-01T07:32:57.000Z</time>
      </trkpt>
      <trkpt lat="42.649563" lon="0.658177">
        <ele>2629.8</ele>
        <time>1970-01-01T07:32:58.000Z</time>
      </trkpt>
      <trkpt lat="42.649562" lon="0.658177">
        <ele>2629.8</ele>
        <time>1970-01-01T07:32:59.000Z</time>
      </trkpt>
      <trkpt lat="42.649562" lon="0.658177">
        <ele>2629.8</ele>
        <time>1970-01-01T07:33:00.000Z</time>
      </trkpt>
      <trkpt lat="42.649561" lon="0.658176">
        <ele>2629.8</ele>
        <time>1970-01-01T07:33:01.000Z</time>
      </trkpt>
      <trkpt lat="42.649561" lon="0.658177">
        <ele>2629.8</ele>
        <time>1970-01-01T07:33:02.000Z</time>
      </trkpt>
      <trkpt lat="42.649561" lon="0.658177">
        <ele>2629.8</ele>
        <time>1970-01-01T07:33:03.000Z</time>
      </trkpt>
      <trkpt lat="42.649561" lon="0.658177">
        <ele>2629.8</ele>
        <time>1970-01-01T07:33:04.000Z</time>
      </trkpt>
      <trkpt lat="42.649561" lon="0.658177">
        <ele>2629.8</ele>
        <time>1970-01-01T07:33:05.000Z</time>
      </trkpt>
      <trkpt lat="42.649562" lon="0.658177">
        <ele>2629.7</ele>
        <time>1970-01-01T07:33:06.000Z</time>
      </trkpt>
      <trkpt lat="42.649562" lon="0.658176">
        <ele>2629.7</ele>
        <time>1970-01-01T07:33:07.000Z</time>
      </trkpt>
      <trkpt lat="42.649562" lon="0.658175">
        <ele>2629.7</ele>
        <time>1970-01-01T07:33:08.000Z</time>
      </trkpt>
      <trkpt lat="42.649562" lon="0.658175">
        <ele>2629.7</ele>
        <time>1970-01-01T07:33:09.000Z</time>
      </trkpt>
      <trkpt lat="42.649562" lon="0.658174">
        <ele>2629.7</ele>
        <time>1970-01-01T07:33:10.000Z</time>
      </trkpt>
      <trkpt lat="42.649562" lon="0.658173">
        <ele>2629.7</ele>
        <time>1970-01-01T07:33:11.000Z</time>
      </trkpt>
      <trkpt lat="42.649563" lon="0.658171">
        <ele>2629.6</ele>
        <time>1970-01-01T07:33:12.000Z</time>
      </trkpt>
      <trkpt lat="42.649564" lon="0.65817">
        <ele>2629.6</ele>
        <time>1970-01-01T07:33:13.000Z</time>
      </trkpt>
      <trkpt lat="42.649564" lon="0.658169">
        <ele>2629.6</ele>
        <time>1970-01-01T07:33:14.000Z</time>
      </trkpt>
      <trkpt lat="42.649564" lon="0.658169">
        <ele>2629.6</ele>
        <time>1970-01-01T07:33:15.000Z</time>
      </trkpt>
      <trkpt lat="42.649564" lon="0.658168">
        <ele>2629.6</ele>
        <time>1970-01-01T07:33:16.000Z</time>
      </trkpt>
      <trkpt lat="42.649564" lon="0.658168">
        <ele>2629.6</ele>
        <time>1970-01-01T07:33:17.000Z</time>
      </trkpt>
      <trkpt lat="42.649564" lon="0.658168">
        <ele>2629.6</ele>
        <time>1970-01-01T07:33:18.000Z</time>
      </trkpt>
      <trkpt lat="42.649564" lon="0.658167">
        <ele>2629.6</ele>
        <time>1970-01-01T07:33:19.000Z</time>
      </trkpt>
      <trkpt lat="42.649563" lon="0.658166">
        <ele>2629.5</ele>
        <time>1970-01-01T07:33:20.000Z</time>
      </trkpt>
      <trkpt lat="42.649563" lon="0.658167">
        <ele>2629.5</ele>
        <time>1970-01-01T07:33:21.000Z</time>
      </trkpt>
      <trkpt lat="42.649562" lon="0.658168">
        <ele>2629.5</ele>
        <time>1970-01-01T07:33:22.000Z</time>
      </trkpt>
      <trkpt lat="42.649563" lon="0.658168">
        <ele>2629.5</ele>
        <time>1970-01-01T07:33:23.000Z</time>
      </trkpt>
      <trkpt lat="42.649562" lon="0.658169">
        <ele>2629.4</ele>
        <time>1970-01-01T07:33:24.000Z</time>
      </trkpt>
      <trkpt lat="42.649563" lon="0.65817">
        <ele>2629.4</ele>
        <time>1970-01-01T07:33:25.000Z</time>
      </trkpt>
      <trkpt lat="42.649565" lon="0.65817">
        <ele>2629.4</ele>
        <time>1970-01-01T07:33:26.000Z</time>
      </trkpt>
      <trkpt lat="42.649566" lon="0.658169">
        <ele>2629.3</ele>
        <time>1970-01-01T07:33:27.000Z</time>
      </trkpt>
      <trkpt lat="42.649567" lon="0.658167">
        <ele>2629.3</ele>
        <time>1970-01-01T07:33:28.000Z</time>
      </trkpt>
      <trkpt lat="42.649567" lon="0.658165">
        <ele>2629.3</ele>
        <time>1970-01-01T07:33:29.000Z</time>
      </trkpt>
      <trkpt lat="42.649567" lon="0.658163">
        <ele>2629.2</ele>
        <time>1970-01-01T07:33:30.000Z</time>
      </trkpt>
      <trkpt lat="42.649567" lon="0.65816">
        <ele>2629.2</ele>
        <time>1970-01-01T07:33:31.000Z</time>
      </trkpt>
      <trkpt lat="42.649567" lon="0.658159">
        <ele>2629.2</ele>
        <time>1970-01-01T07:33:32.000Z</time>
      </trkpt>
      <trkpt lat="42.649566" lon="0.65816">
        <ele>2629.1</ele>
        <time>1970-01-01T07:33:33.000Z</time>
      </trkpt>
      <trkpt lat="42.649566" lon="0.65816">
        <ele>2629.1</ele>
        <time>1970-01-01T07:33:34.000Z</time>
      </trkpt>
      <trkpt lat="42.649566" lon="0.65816">
        <ele>2629.1</ele>
        <time>1970-01-01T07:33:35.000Z</time>
      </trkpt>
      <trkpt lat="42.649565" lon="0.65816">
        <ele>2629.1</ele>
        <time>1970-01-01T07:33:36.000Z</time>
      </trkpt>
      <trkpt lat="42.649565" lon="0.65816">
        <ele>2629.1</ele>
        <time>1970-01-01T07:33:37.000Z</time>
      </trkpt>
      <trkpt lat="42.649565" lon="0.65816">
        <ele>2629.1</ele>
        <time>1970-01-01T07:33:38.000Z</time>
      </trkpt>
      <trkpt lat="42.649565" lon="0.65816">
        <ele>2629.1</ele>
        <time>1970-01-01T07:33:39.000Z</time>
      </trkpt>
      <trkpt lat="42.649565" lon="0.65816">
        <ele>2629.1</ele>
        <time>1970-01-01T07:33:40.000Z</time>
      </trkpt>
      <trkpt lat="42.649563" lon="0.65816">
        <ele>2629.1</ele>
        <time>1970-01-01T07:33:41.000Z</time>
      </trkpt>
      <trkpt lat="42.649563" lon="0.65816">
        <ele>2629.1</ele>
        <time>1970-01-01T07:33:42.000Z</time>
      </trkpt>
      <trkpt lat="42.649562" lon="0.65816">
        <ele>2629</ele>
        <time>1970-01-01T07:33:43.000Z</time>
      </trkpt>
      <trkpt lat="42.649563" lon="0.658161">
        <ele>2629</ele>
        <time>1970-01-01T07:33:44.000Z</time>
      </trkpt>
      <trkpt lat="42.649565" lon="0.65816">
        <ele>2629</ele>
        <time>1970-01-01T07:33:45.000Z</time>
      </trkpt>
      <trkpt lat="42.649567" lon="0.658158">
        <ele>2628.9</ele>
        <time>1970-01-01T07:33:46.000Z</time>
      </trkpt>
      <trkpt lat="42.649571" lon="0.658157">
        <ele>2628.8</ele>
        <time>1970-01-01T07:33:47.000Z</time>
      </trkpt>
      <trkpt lat="42.649574" lon="0.658159">
        <ele>2628.7</ele>
        <time>1970-01-01T07:33:48.000Z</time>
      </trkpt>
      <trkpt lat="42.649575" lon="0.658163">
        <ele>2628.7</ele>
        <time>1970-01-01T07:33:50.000Z</time>
      </trkpt>
      <trkpt lat="42.649579" lon="0.658164">
        <ele>2628.6</ele>
        <time>1970-01-01T07:33:51.000Z</time>
      </trkpt>
      <trkpt lat="42.649597" lon="0.658154">
        <ele>2628.1</ele>
        <time>1970-01-01T07:33:52.000Z</time>
      </trkpt>
      <trkpt lat="42.649607" lon="0.658148">
        <ele>2627.9</ele>
        <time>1970-01-01T07:33:53.000Z</time>
      </trkpt>
      <trkpt lat="42.649617" lon="0.658141">
        <ele>2627.6</ele>
        <time>1970-01-01T07:33:54.000Z</time>
      </trkpt>
      <trkpt lat="42.649629" lon="0.658135">
        <ele>2627.3</ele>
        <time>1970-01-01T07:33:55.000Z</time>
      </trkpt>
      <trkpt lat="42.649631" lon="0.658125">
        <ele>2627.1</ele>
        <time>1970-01-01T07:33:56.000Z</time>
      </trkpt>
      <trkpt lat="42.649628" lon="0.65812">
        <ele>2626.9</ele>
        <time>1970-01-01T07:33:57.000Z</time>
      </trkpt>
      <trkpt lat="42.649625" lon="0.658118">
        <ele>2626.9</ele>
        <time>1970-01-01T07:33:58.000Z</time>
      </trkpt>
      <trkpt lat="42.649623" lon="0.658116">
        <ele>2626.8</ele>
        <time>1970-01-01T07:33:59.000Z</time>
      </trkpt>
      <trkpt lat="42.649623" lon="0.658115">
        <ele>2626.8</ele>
        <time>1970-01-01T07:34:00.000Z</time>
      </trkpt>
      <trkpt lat="42.649622" lon="0.658115">
        <ele>2626.8</ele>
        <time>1970-01-01T07:34:01.000Z</time>
      </trkpt>
      <trkpt lat="42.649623" lon="0.658114">
        <ele>2626.7</ele>
        <time>1970-01-01T07:34:02.000Z</time>
      </trkpt>
      <trkpt lat="42.649623" lon="0.658116">
        <ele>2626.7</ele>
        <time>1970-01-01T07:34:03.000Z</time>
      </trkpt>
      <trkpt lat="42.649622" lon="0.65812">
        <ele>2626.6</ele>
        <time>1970-01-01T07:34:04.000Z</time>
      </trkpt>
      <trkpt lat="42.649623" lon="0.658128">
        <ele>2626.5</ele>
        <time>1970-01-01T07:34:06.000Z</time>
      </trkpt>
      <trkpt lat="42.649629" lon="0.658132">
        <ele>2626.3</ele>
        <time>1970-01-01T07:34:07.000Z</time>
      </trkpt>
      <trkpt lat="42.649641" lon="0.658125">
        <ele>2625.9</ele>
        <time>1970-01-01T07:34:08.000Z</time>
      </trkpt>
      <trkpt lat="42.649649" lon="0.658115">
        <ele>2625.6</ele>
        <time>1970-01-01T07:34:09.000Z</time>
      </trkpt>
      <trkpt lat="42.649653" lon="0.658115">
        <ele>2625.5</ele>
        <time>1970-01-01T07:34:10.000Z</time>
      </trkpt>
      <trkpt lat="42.64966" lon="0.658117">
        <ele>2625.3</ele>
        <time>1970-01-01T07:34:11.000Z</time>
      </trkpt>
      <trkpt lat="42.649671" lon="0.658113">
        <ele>2625</ele>
        <time>1970-01-01T07:34:13.000Z</time>
      </trkpt>
      <trkpt lat="42.649675" lon="0.658096">
        <ele>2624.7</ele>
        <time>1970-01-01T07:34:14.000Z</time>
      </trkpt>
      <trkpt lat="42.649676" lon="0.658085">
        <ele>2624.5</ele>
        <time>1970-01-01T07:34:15.000Z</time>
      </trkpt>
      <trkpt lat="42.649678" lon="0.658076">
        <ele>2624.3</ele>
        <time>1970-01-01T07:34:16.000Z</time>
      </trkpt>
      <trkpt lat="42.649681" lon="0.658076">
        <ele>2624.2</ele>
        <time>1970-01-01T07:34:18.000Z</time>
      </trkpt>
      <trkpt lat="42.649684" lon="0.658081">
        <ele>2624.1</ele>
        <time>1970-01-01T07:34:19.000Z</time>
      </trkpt>
      <trkpt lat="42.649691" lon="0.658081">
        <ele>2623.9</ele>
        <time>1970-01-01T07:34:20.000Z</time>
      </trkpt>
      <trkpt lat="42.649695" lon="0.658075">
        <ele>2623.7</ele>
        <time>1970-01-01T07:34:21.000Z</time>
      </trkpt>
      <trkpt lat="42.649699" lon="0.658068">
        <ele>2623.5</ele>
        <time>1970-01-01T07:34:22.000Z</time>
      </trkpt>
      <trkpt lat="42.649704" lon="0.658071">
        <ele>2623.4</ele>
        <time>1970-01-01T07:34:23.000Z</time>
      </trkpt>
      <trkpt lat="42.649705" lon="0.658079">
        <ele>2623.2</ele>
        <time>1970-01-01T07:34:25.000Z</time>
      </trkpt>
      <trkpt lat="42.64971" lon="0.658085">
        <ele>2623.1</ele>
        <time>1970-01-01T07:34:26.000Z</time>
      </trkpt>
      <trkpt lat="42.649712" lon="0.658089">
        <ele>2623</ele>
        <time>1970-01-01T07:34:27.000Z</time>
      </trkpt>
      <trkpt lat="42.649718" lon="0.658092">
        <ele>2622.8</ele>
        <time>1970-01-01T07:34:28.000Z</time>
      </trkpt>
      <trkpt lat="42.64973" lon="0.658092">
        <ele>2622.5</ele>
        <time>1970-01-01T07:34:30.000Z</time>
      </trkpt>
      <trkpt lat="42.649736" lon="0.658079">
        <ele>2622.2</ele>
        <time>1970-01-01T07:34:31.000Z</time>
      </trkpt>
      <trkpt lat="42.649738" lon="0.65807">
        <ele>2622</ele>
        <time>1970-01-01T07:34:32.000Z</time>
      </trkpt>
      <trkpt lat="42.64974" lon="0.658067">
        <ele>2621.9</ele>
        <time>1970-01-01T07:34:33.000Z</time>
      </trkpt>
      <trkpt lat="42.649743" lon="0.658066">
        <ele>2621.8</ele>
        <time>1970-01-01T07:34:34.000Z</time>
      </trkpt>
      <trkpt lat="42.649745" lon="0.65807">
        <ele>2621.7</ele>
        <time>1970-01-01T07:34:36.000Z</time>
      </trkpt>
      <trkpt lat="42.649746" lon="0.658081">
        <ele>2621.5</ele>
        <time>1970-01-01T07:34:38.000Z</time>
      </trkpt>
      <trkpt lat="42.649753" lon="0.658091">
        <ele>2621.2</ele>
        <time>1970-01-01T07:34:39.000Z</time>
      </trkpt>
      <trkpt lat="42.649761" lon="0.658097">
        <ele>2621</ele>
        <time>1970-01-01T07:34:40.000Z</time>
      </trkpt>
      <trkpt lat="42.649766" lon="0.658093">
        <ele>2620.8</ele>
        <time>1970-01-01T07:34:41.000Z</time>
      </trkpt>
      <trkpt lat="42.649769" lon="0.658089">
        <ele>2620.7</ele>
        <time>1970-01-01T07:34:42.000Z</time>
      </trkpt>
      <trkpt lat="42.649774" lon="0.658088">
        <ele>2620.6</ele>
        <time>1970-01-01T07:34:44.000Z</time>
      </trkpt>
      <trkpt lat="42.649776" lon="0.658088">
        <ele>2620.6</ele>
        <time>1970-01-01T07:34:45.000Z</time>
      </trkpt>
      <trkpt lat="42.649777" lon="0.658086">
        <ele>2620.5</ele>
        <time>1970-01-01T07:34:47.000Z</time>
      </trkpt>
      <trkpt lat="42.649782" lon="0.658083">
        <ele>2620.4</ele>
        <time>1970-01-01T07:34:48.000Z</time>
      </trkpt>
      <trkpt lat="42.649783" lon="0.658081">
        <ele>2620.3</ele>
        <time>1970-01-01T07:34:49.000Z</time>
      </trkpt>
      <trkpt lat="42.64979" lon="0.658076">
        <ele>2620.1</ele>
        <time>1970-01-01T07:34:50.000Z</time>
      </trkpt>
      <trkpt lat="42.649795" lon="0.658067">
        <ele>2619.9</ele>
        <time>1970-01-01T07:34:51.000Z</time>
      </trkpt>
      <trkpt lat="42.649798" lon="0.658053">
        <ele>2619.6</ele>
        <time>1970-01-01T07:34:53.000Z</time>
      </trkpt>
      <trkpt lat="42.649795" lon="0.658049">
        <ele>2619.5</ele>
        <time>1970-01-01T07:34:54.000Z</time>
      </trkpt>
      <trkpt lat="42.649792" lon="0.658043">
        <ele>2619.4</ele>
        <time>1970-01-01T07:34:55.000Z</time>
      </trkpt>
      <trkpt lat="42.649791" lon="0.658037">
        <ele>2619.3</ele>
        <time>1970-01-01T07:34:56.000Z</time>
      </trkpt>
      <trkpt lat="42.649792" lon="0.658028">
        <ele>2619.1</ele>
        <time>1970-01-01T07:34:58.000Z</time>
      </trkpt>
      <trkpt lat="42.649795" lon="0.658022">
        <ele>2618.9</ele>
        <time>1970-01-01T07:34:59.000Z</time>
      </trkpt>
      <trkpt lat="42.649798" lon="0.658025">
        <ele>2618.8</ele>
        <time>1970-01-01T07:35:00.000Z</time>
      </trkpt>
      <trkpt lat="42.649799" lon="0.65803">
        <ele>2618.7</ele>
        <time>1970-01-01T07:35:01.000Z</time>
      </trkpt>
      <trkpt lat="42.649802" lon="0.658035">
        <ele>2618.6</ele>
        <time>1970-01-01T07:35:02.000Z</time>
      </trkpt>
      <trkpt lat="42.649804" lon="0.658039">
        <ele>2618.5</ele>
        <time>1970-01-01T07:35:03.000Z</time>
      </trkpt>
      <trkpt lat="42.649805" lon="0.65804">
        <ele>2618.5</ele>
        <time>1970-01-01T07:35:04.000Z</time>
      </trkpt>
      <trkpt lat="42.649806" lon="0.658041">
        <ele>2618.5</ele>
        <time>1970-01-01T07:35:05.000Z</time>
      </trkpt>
      <trkpt lat="42.649809" lon="0.658044">
        <ele>2618.4</ele>
        <time>1970-01-01T07:35:06.000Z</time>
      </trkpt>
      <trkpt lat="42.649815" lon="0.658049">
        <ele>2618.2</ele>
        <time>1970-01-01T07:35:07.000Z</time>
      </trkpt>
      <trkpt lat="42.649818" lon="0.658053">
        <ele>2618.1</ele>
        <time>1970-01-01T07:35:08.000Z</time>
      </trkpt>
      <trkpt lat="42.64982" lon="0.658057">
        <ele>2618</ele>
        <time>1970-01-01T07:35:09.000Z</time>
      </trkpt>
      <trkpt lat="42.649822" lon="0.658059">
        <ele>2617.9</ele>
        <time>1970-01-01T07:35:10.000Z</time>
      </trkpt>
      <trkpt lat="42.649824" lon="0.658062">
        <ele>2617.8</ele>
        <time>1970-01-01T07:35:11.000Z</time>
      </trkpt>
      <trkpt lat="42.649824" lon="0.658065">
        <ele>2617.8</ele>
        <time>1970-01-01T07:35:12.000Z</time>
      </trkpt>
      <trkpt lat="42.649828" lon="0.658068">
        <ele>2617.7</ele>
        <time>1970-01-01T07:35:13.000Z</time>
      </trkpt>
      <trkpt lat="42.649831" lon="0.658071">
        <ele>2617.6</ele>
        <time>1970-01-01T07:35:14.000Z</time>
      </trkpt>
      <trkpt lat="42.649834" lon="0.658074">
        <ele>2617.5</ele>
        <time>1970-01-01T07:35:15.000Z</time>
      </trkpt>
      <trkpt lat="42.649833" lon="0.658074">
        <ele>2617.5</ele>
        <time>1970-01-01T07:35:16.000Z</time>
      </trkpt>
      <trkpt lat="42.649835" lon="0.658077">
        <ele>2617.4</ele>
        <time>1970-01-01T07:35:17.000Z</time>
      </trkpt>
      <trkpt lat="42.649837" lon="0.65808">
        <ele>2617.3</ele>
        <time>1970-01-01T07:35:18.000Z</time>
      </trkpt>
      <trkpt lat="42.649838" lon="0.658083">
        <ele>2617.3</ele>
        <time>1970-01-01T07:35:19.000Z</time>
      </trkpt>
      <trkpt lat="42.64984" lon="0.658087">
        <ele>2617.2</ele>
        <time>1970-01-01T07:35:21.000Z</time>
      </trkpt>
      <trkpt lat="42.649843" lon="0.658091">
        <ele>2617.1</ele>
        <time>1970-01-01T07:35:22.000Z</time>
      </trkpt>
      <trkpt lat="42.649845" lon="0.658094">
        <ele>2617</ele>
        <time>1970-01-01T07:35:23.000Z</time>
      </trkpt>
      <trkpt lat="42.649848" lon="0.658097">
        <ele>2616.9</ele>
        <time>1970-01-01T07:35:24.000Z</time>
      </trkpt>
      <trkpt lat="42.649852" lon="0.6581">
        <ele>2616.8</ele>
        <time>1970-01-01T07:35:25.000Z</time>
      </trkpt>
      <trkpt lat="42.649856" lon="0.658106">
        <ele>2616.6</ele>
        <time>1970-01-01T07:35:27.000Z</time>
      </trkpt>
      <trkpt lat="42.649861" lon="0.65811">
        <ele>2616.5</ele>
        <time>1970-01-01T07:35:28.000Z</time>
      </trkpt>
      <trkpt lat="42.649868" lon="0.658111">
        <ele>2616.3</ele>
        <time>1970-01-01T07:35:29.000Z</time>
      </trkpt>
      <trkpt lat="42.649873" lon="0.658113">
        <ele>2616.2</ele>
        <time>1970-01-01T07:35:30.000Z</time>
      </trkpt>
      <trkpt lat="42.64988" lon="0.658113">
        <ele>2616</ele>
        <time>1970-01-01T07:35:31.000Z</time>
      </trkpt>
      <trkpt lat="42.649885" lon="0.658113">
        <ele>2615.9</ele>
        <time>1970-01-01T07:35:32.000Z</time>
      </trkpt>
      <trkpt lat="42.649892" lon="0.658113">
        <ele>2615.7</ele>
        <time>1970-01-01T07:35:33.000Z</time>
      </trkpt>
      <trkpt lat="42.649899" lon="0.658111">
        <ele>2615.5</ele>
        <time>1970-01-01T07:35:34.000Z</time>
      </trkpt>
      <trkpt lat="42.649903" lon="0.65811">
        <ele>2615.4</ele>
        <time>1970-01-01T07:35:35.000Z</time>
      </trkpt>
      <trkpt lat="42.649907" lon="0.65811">
        <ele>2615.4</ele>
        <time>1970-01-01T07:35:36.000Z</time>
      </trkpt>
      <trkpt lat="42.649911" lon="0.658109">
        <ele>2615.3</ele>
        <time>1970-01-01T07:35:37.000Z</time>
      </trkpt>
      <trkpt lat="42.649917" lon="0.658108">
        <ele>2615.1</ele>
        <time>1970-01-01T07:35:38.000Z</time>
      </trkpt>
      <trkpt lat="42.649921" lon="0.658109">
        <ele>2615</ele>
        <time>1970-01-01T07:35:39.000Z</time>
      </trkpt>
      <trkpt lat="42.649929" lon="0.658113">
        <ele>2614.8</ele>
        <time>1970-01-01T07:35:40.000Z</time>
      </trkpt>
      <trkpt lat="42.649937" lon="0.658112">
        <ele>2614.6</ele>
        <time>1970-01-01T07:35:42.000Z</time>
      </trkpt>
      <trkpt lat="42.649943" lon="0.658109">
        <ele>2614.5</ele>
        <time>1970-01-01T07:35:43.000Z</time>
      </trkpt>
      <trkpt lat="42.64995" lon="0.65811">
        <ele>2614.3</ele>
        <time>1970-01-01T07:35:44.000Z</time>
      </trkpt>
      <trkpt lat="42.649958" lon="0.658109">
        <ele>2614.1</ele>
        <time>1970-01-01T07:35:45.000Z</time>
      </trkpt>
      <trkpt lat="42.649964" lon="0.658109">
        <ele>2613.9</ele>
        <time>1970-01-01T07:35:46.000Z</time>
      </trkpt>
      <trkpt lat="42.649973" lon="0.658104">
        <ele>2613.7</ele>
        <time>1970-01-01T07:35:47.000Z</time>
      </trkpt>
      <trkpt lat="42.649984" lon="0.658094">
        <ele>2613.4</ele>
        <time>1970-01-01T07:35:48.000Z</time>
      </trkpt>
      <trkpt lat="42.649989" lon="0.658088">
        <ele>2613.2</ele>
        <time>1970-01-01T07:35:49.000Z</time>
      </trkpt>
      <trkpt lat="42.649998" lon="0.65809">
        <ele>2613</ele>
        <time>1970-01-01T07:35:51.000Z</time>
      </trkpt>
      <trkpt lat="42.650011" lon="0.658096">
        <ele>2612.7</ele>
        <time>1970-01-01T07:35:52.000Z</time>
      </trkpt>
      <trkpt lat="42.650018" lon="0.658107">
        <ele>2612.4</ele>
        <time>1970-01-01T07:35:53.000Z</time>
      </trkpt>
      <trkpt lat="42.65002" lon="0.658122">
        <ele>2612.2</ele>
        <time>1970-01-01T07:35:54.000Z</time>
      </trkpt>
      <trkpt lat="42.650015" lon="0.658139">
        <ele>2611.8</ele>
        <time>1970-01-01T07:35:55.000Z</time>
      </trkpt>
      <trkpt lat="42.650022" lon="0.658154">
        <ele>2611.5</ele>
        <time>1970-01-01T07:35:56.000Z</time>
      </trkpt>
      <trkpt lat="42.650027" lon="0.658158">
        <ele>2611.4</ele>
        <time>1970-01-01T07:35:57.000Z</time>
      </trkpt>
      <trkpt lat="42.650032" lon="0.658163">
        <ele>2611.2</ele>
        <time>1970-01-01T07:35:58.000Z</time>
      </trkpt>
      <trkpt lat="42.650037" lon="0.658168">
        <ele>2611.1</ele>
        <time>1970-01-01T07:35:59.000Z</time>
      </trkpt>
      <trkpt lat="42.650042" lon="0.658172">
        <ele>2610.9</ele>
        <time>1970-01-01T07:36:00.000Z</time>
      </trkpt>
      <trkpt lat="42.650047" lon="0.658181">
        <ele>2610.7</ele>
        <time>1970-01-01T07:36:02.000Z</time>
      </trkpt>
      <trkpt lat="42.65005" lon="0.65819">
        <ele>2610.5</ele>
        <time>1970-01-01T07:36:03.000Z</time>
      </trkpt>
      <trkpt lat="42.650055" lon="0.658193">
        <ele>2610.4</ele>
        <time>1970-01-01T07:36:04.000Z</time>
      </trkpt>
      <trkpt lat="42.65006" lon="0.658194">
        <ele>2610.3</ele>
        <time>1970-01-01T07:36:05.000Z</time>
      </trkpt>
      <trkpt lat="42.650062" lon="0.658194">
        <ele>2610.2</ele>
        <time>1970-01-01T07:36:06.000Z</time>
      </trkpt>
      <trkpt lat="42.650062" lon="0.658193">
        <ele>2610.2</ele>
        <time>1970-01-01T07:36:07.000Z</time>
      </trkpt>
      <trkpt lat="42.650061" lon="0.658191">
        <ele>2610.1</ele>
        <time>1970-01-01T07:36:08.000Z</time>
      </trkpt>
      <trkpt lat="42.65006" lon="0.658191">
        <ele>2610.1</ele>
        <time>1970-01-01T07:36:09.000Z</time>
      </trkpt>
      <trkpt lat="42.650059" lon="0.65819">
        <ele>2610.1</ele>
        <time>1970-01-01T07:36:10.000Z</time>
      </trkpt>
      <trkpt lat="42.65006" lon="0.658189">
        <ele>2610.1</ele>
        <time>1970-01-01T07:36:12.000Z</time>
      </trkpt>
      <trkpt lat="42.650063" lon="0.658191">
        <ele>2610</ele>
        <time>1970-01-01T07:36:13.000Z</time>
      </trkpt>
      <trkpt lat="42.650065" lon="0.658195">
        <ele>2609.9</ele>
        <time>1970-01-01T07:36:14.000Z</time>
      </trkpt>
      <trkpt lat="42.650067" lon="0.658197">
        <ele>2609.8</ele>
        <time>1970-01-01T07:36:15.000Z</time>
      </trkpt>
      <trkpt lat="42.650069" lon="0.658201">
        <ele>2609.7</ele>
        <time>1970-01-01T07:36:16.000Z</time>
      </trkpt>
      <trkpt lat="42.65007" lon="0.658207">
        <ele>2609.6</ele>
        <time>1970-01-01T07:36:17.000Z</time>
      </trkpt>
      <trkpt lat="42.650073" lon="0.658214">
        <ele>2609.5</ele>
        <time>1970-01-01T07:36:19.000Z</time>
      </trkpt>
      <trkpt lat="42.65008" lon="0.658221">
        <ele>2609.2</ele>
        <time>1970-01-01T07:36:20.000Z</time>
      </trkpt>
      <trkpt lat="42.650084" lon="0.658227">
        <ele>2609.1</ele>
        <time>1970-01-01T07:36:21.000Z</time>
      </trkpt>
      <trkpt lat="42.650083" lon="0.658233">
        <ele>2609</ele>
        <time>1970-01-01T07:36:22.000Z</time>
      </trkpt>
      <trkpt lat="42.650081" lon="0.658242">
        <ele>2608.8</ele>
        <time>1970-01-01T07:36:23.000Z</time>
      </trkpt>
      <trkpt lat="42.650082" lon="0.658262">
        <ele>2608.4</ele>
        <time>1970-01-01T07:36:25.000Z</time>
      </trkpt>
      <trkpt lat="42.650091" lon="0.658269">
        <ele>2608.2</ele>
        <time>1970-01-01T07:36:26.000Z</time>
      </trkpt>
      <trkpt lat="42.650102" lon="0.658266">
        <ele>2607.9</ele>
        <time>1970-01-01T07:36:28.000Z</time>
      </trkpt>
      <trkpt lat="42.650107" lon="0.658266">
        <ele>2607.8</ele>
        <time>1970-01-01T07:36:29.000Z</time>
      </trkpt>
      <trkpt lat="42.650112" lon="0.658271">
        <ele>2607.6</ele>
        <time>1970-01-01T07:36:30.000Z</time>
      </trkpt>
      <trkpt lat="42.650118" lon="0.658274">
        <ele>2607.4</ele>
        <time>1970-01-01T07:36:31.000Z</time>
      </trkpt>
      <trkpt lat="42.650124" lon="0.65827">
        <ele>2607.3</ele>
        <time>1970-01-01T07:36:32.000Z</time>
      </trkpt>
      <trkpt lat="42.65013" lon="0.658265">
        <ele>2607.1</ele>
        <time>1970-01-01T07:36:34.000Z</time>
      </trkpt>
      <trkpt lat="42.650136" lon="0.658261">
        <ele>2606.9</ele>
        <time>1970-01-01T07:36:35.000Z</time>
      </trkpt>
      <trkpt lat="42.650142" lon="0.658259">
        <ele>2606.8</ele>
        <time>1970-01-01T07:36:36.000Z</time>
      </trkpt>
      <trkpt lat="42.650147" lon="0.658258">
        <ele>2606.6</ele>
        <time>1970-01-01T07:36:38.000Z</time>
      </trkpt>
      <trkpt lat="42.650152" lon="0.658258">
        <ele>2606.5</ele>
        <time>1970-01-01T07:36:39.000Z</time>
      </trkpt>
      <trkpt lat="42.65016" lon="0.658259">
        <ele>2606.3</ele>
        <time>1970-01-01T07:36:40.000Z</time>
      </trkpt>
      <trkpt lat="42.650168" lon="0.658258">
        <ele>2606.1</ele>
        <time>1970-01-01T07:36:41.000Z</time>
      </trkpt>
      <trkpt lat="42.650177" lon="0.65826">
        <ele>2605.9</ele>
        <time>1970-01-01T07:36:43.000Z</time>
      </trkpt>
      <trkpt lat="42.650181" lon="0.658257">
        <ele>2605.7</ele>
        <time>1970-01-01T07:36:44.000Z</time>
      </trkpt>
      <trkpt lat="42.650186" lon="0.658252">
        <ele>2605.6</ele>
        <time>1970-01-01T07:36:45.000Z</time>
      </trkpt>
      <trkpt lat="42.650195" lon="0.658243">
        <ele>2605.3</ele>
        <time>1970-01-01T07:36:46.000Z</time>
      </trkpt>
      <trkpt lat="42.650204" lon="0.658235">
        <ele>2605</ele>
        <time>1970-01-01T07:36:47.000Z</time>
      </trkpt>
      <trkpt lat="42.650212" lon="0.658231">
        <ele>2604.8</ele>
        <time>1970-01-01T07:36:49.000Z</time>
      </trkpt>
      <trkpt lat="42.650219" lon="0.65823">
        <ele>2604.6</ele>
        <time>1970-01-01T07:36:50.000Z</time>
      </trkpt>
      <trkpt lat="42.650222" lon="0.658236">
        <ele>2604.5</ele>
        <time>1970-01-01T07:36:51.000Z</time>
      </trkpt>
      <trkpt lat="42.650224" lon="0.658244">
        <ele>2604.3</ele>
        <time>1970-01-01T07:36:52.000Z</time>
      </trkpt>
      <trkpt lat="42.650226" lon="0.658252">
        <ele>2604.2</ele>
        <time>1970-01-01T07:36:53.000Z</time>
      </trkpt>
      <trkpt lat="42.650228" lon="0.65826">
        <ele>2604</ele>
        <time>1970-01-01T07:36:54.000Z</time>
      </trkpt>
      <trkpt lat="42.65023" lon="0.65827">
        <ele>2603.8</ele>
        <time>1970-01-01T07:36:55.000Z</time>
      </trkpt>
      <trkpt lat="42.65023" lon="0.658275">
        <ele>2603.7</ele>
        <time>1970-01-01T07:36:56.000Z</time>
      </trkpt>
      <trkpt lat="42.650231" lon="0.658283">
        <ele>2603.6</ele>
        <time>1970-01-01T07:36:57.000Z</time>
      </trkpt>
      <trkpt lat="42.65023" lon="0.658291">
        <ele>2603.5</ele>
        <time>1970-01-01T07:36:58.000Z</time>
      </trkpt>
      <trkpt lat="42.65023" lon="0.658301">
        <ele>2603.3</ele>
        <time>1970-01-01T07:36:59.000Z</time>
      </trkpt>
      <trkpt lat="42.650231" lon="0.658309">
        <ele>2603.1</ele>
        <time>1970-01-01T07:37:00.000Z</time>
      </trkpt>
      <trkpt lat="42.650236" lon="0.658314">
        <ele>2603</ele>
        <time>1970-01-01T07:37:01.000Z</time>
      </trkpt>
      <trkpt lat="42.650244" lon="0.658314">
        <ele>2602.8</ele>
        <time>1970-01-01T07:37:03.000Z</time>
      </trkpt>
      <trkpt lat="42.650253" lon="0.658311">
        <ele>2602.5</ele>
        <time>1970-01-01T07:37:04.000Z</time>
      </trkpt>
      <trkpt lat="42.650261" lon="0.658309">
        <ele>2602.3</ele>
        <time>1970-01-01T07:37:05.000Z</time>
      </trkpt>
      <trkpt lat="42.650269" lon="0.65831">
        <ele>2602.1</ele>
        <time>1970-01-01T07:37:06.000Z</time>
      </trkpt>
      <trkpt lat="42.650276" lon="0.658311">
        <ele>2602</ele>
        <time>1970-01-01T07:37:07.000Z</time>
      </trkpt>
      <trkpt lat="42.650283" lon="0.658311">
        <ele>2601.8</ele>
        <time>1970-01-01T07:37:08.000Z</time>
      </trkpt>
      <trkpt lat="42.650299" lon="0.658311">
        <ele>2601.4</ele>
        <time>1970-01-01T07:37:10.000Z</time>
      </trkpt>
      <trkpt lat="42.650306" lon="0.658314">
        <ele>2601.2</ele>
        <time>1970-01-01T07:37:11.000Z</time>
      </trkpt>
      <trkpt lat="42.650311" lon="0.658315">
        <ele>2601.1</ele>
        <time>1970-01-01T07:37:12.000Z</time>
      </trkpt>
      <trkpt lat="42.650314" lon="0.658314">
        <ele>2601</ele>
        <time>1970-01-01T07:37:13.000Z</time>
      </trkpt>
      <trkpt lat="42.650317" lon="0.658315">
        <ele>2600.9</ele>
        <time>1970-01-01T07:37:14.000Z</time>
      </trkpt>
      <trkpt lat="42.650319" lon="0.658317">
        <ele>2600.9</ele>
        <time>1970-01-01T07:37:15.000Z</time>
      </trkpt>
      <trkpt lat="42.65032" lon="0.65832">
        <ele>2600.8</ele>
        <time>1970-01-01T07:37:16.000Z</time>
      </trkpt>
      <trkpt lat="42.650321" lon="0.65832">
        <ele>2600.8</ele>
        <time>1970-01-01T07:37:17.000Z</time>
      </trkpt>
      <trkpt lat="42.650321" lon="0.65832">
        <ele>2600.8</ele>
        <time>1970-01-01T07:37:18.000Z</time>
      </trkpt>
      <trkpt lat="42.650323" lon="0.658322">
        <ele>2600.7</ele>
        <time>1970-01-01T07:37:19.000Z</time>
      </trkpt>
      <trkpt lat="42.650327" lon="0.658324">
        <ele>2600.6</ele>
        <time>1970-01-01T07:37:20.000Z</time>
      </trkpt>
      <trkpt lat="42.65033" lon="0.658323">
        <ele>2600.5</ele>
        <time>1970-01-01T07:37:21.000Z</time>
      </trkpt>
      <trkpt lat="42.650334" lon="0.658322">
        <ele>2600.4</ele>
        <time>1970-01-01T07:37:22.000Z</time>
      </trkpt>
      <trkpt lat="42.650345" lon="0.658328">
        <ele>2600.1</ele>
        <time>1970-01-01T07:37:24.000Z</time>
      </trkpt>
      <trkpt lat="42.650346" lon="0.65833">
        <ele>2600.1</ele>
        <time>1970-01-01T07:37:25.000Z</time>
      </trkpt>
      <trkpt lat="42.65035" lon="0.658331">
        <ele>2600</ele>
        <time>1970-01-01T07:37:26.000Z</time>
      </trkpt>
      <trkpt lat="42.650356" lon="0.658332">
        <ele>2599.8</ele>
        <time>1970-01-01T07:37:27.000Z</time>
      </trkpt>
      <trkpt lat="42.650365" lon="0.658335">
        <ele>2599.6</ele>
        <time>1970-01-01T07:37:29.000Z</time>
      </trkpt>
      <trkpt lat="42.650373" lon="0.658335">
        <ele>2599.4</ele>
        <time>1970-01-01T07:37:30.000Z</time>
      </trkpt>
      <trkpt lat="42.65038" lon="0.658334">
        <ele>2599.2</ele>
        <time>1970-01-01T07:37:31.000Z</time>
      </trkpt>
      <trkpt lat="42.650388" lon="0.65833">
        <ele>2599</ele>
        <time>1970-01-01T07:37:32.000Z</time>
      </trkpt>
      <trkpt lat="42.650395" lon="0.658324">
        <ele>2598.8</ele>
        <time>1970-01-01T07:37:33.000Z</time>
      </trkpt>
      <trkpt lat="42.650403" lon="0.658322">
        <ele>2598.6</ele>
        <time>1970-01-01T07:37:35.000Z</time>
      </trkpt>
      <trkpt lat="42.650411" lon="0.658324">
        <ele>2598.4</ele>
        <time>1970-01-01T07:37:36.000Z</time>
      </trkpt>
      <trkpt lat="42.650417" lon="0.658329">
        <ele>2598.3</ele>
        <time>1970-01-01T07:37:37.000Z</time>
      </trkpt>
      <trkpt lat="42.650422" lon="0.658333">
        <ele>2598.1</ele>
        <time>1970-01-01T07:37:38.000Z</time>
      </trkpt>
      <trkpt lat="42.650428" lon="0.658334">
        <ele>2598</ele>
        <time>1970-01-01T07:37:39.000Z</time>
      </trkpt>
      <trkpt lat="42.650434" lon="0.658335">
        <ele>2597.8</ele>
        <time>1970-01-01T07:37:40.000Z</time>
      </trkpt>
      <trkpt lat="42.650445" lon="0.658336">
        <ele>2597.6</ele>
        <time>1970-01-01T07:37:41.000Z</time>
      </trkpt>
      <trkpt lat="42.650458" lon="0.658333">
        <ele>2597.2</ele>
        <time>1970-01-01T07:37:43.000Z</time>
      </trkpt>
      <trkpt lat="42.650463" lon="0.658331">
        <ele>2597.1</ele>
        <time>1970-01-01T07:37:44.000Z</time>
      </trkpt>
      <trkpt lat="42.650466" lon="0.65833">
        <ele>2597</ele>
        <time>1970-01-01T07:37:45.000Z</time>
      </trkpt>
      <trkpt lat="42.650469" lon="0.658329">
        <ele>2597</ele>
        <time>1970-01-01T07:37:46.000Z</time>
      </trkpt>
      <trkpt lat="42.650474" lon="0.658329">
        <ele>2596.8</ele>
        <time>1970-01-01T07:37:47.000Z</time>
      </trkpt>
      <trkpt lat="42.650479" lon="0.65833">
        <ele>2596.7</ele>
        <time>1970-01-01T07:37:48.000Z</time>
      </trkpt>
      <trkpt lat="42.650485" lon="0.65833">
        <ele>2596.6</ele>
        <time>1970-01-01T07:37:49.000Z</time>
      </trkpt>
      <trkpt lat="42.650492" lon="0.658327">
        <ele>2596.4</ele>
        <time>1970-01-01T07:37:50.000Z</time>
      </trkpt>
      <trkpt lat="42.650498" lon="0.658331">
        <ele>2596.2</ele>
        <time>1970-01-01T07:37:52.000Z</time>
      </trkpt>
      <trkpt lat="42.650506" lon="0.658333">
        <ele>2596.1</ele>
        <time>1970-01-01T07:37:53.000Z</time>
      </trkpt>
      <trkpt lat="42.650511" lon="0.658331">
        <ele>2595.9</ele>
        <time>1970-01-01T07:37:54.000Z</time>
      </trkpt>
      <trkpt lat="42.650519" lon="0.658331">
        <ele>2595.7</ele>
        <time>1970-01-01T07:37:55.000Z</time>
      </trkpt>
      <trkpt lat="42.650526" lon="0.658328">
        <ele>2595.6</ele>
        <time>1970-01-01T07:37:57.000Z</time>
      </trkpt>
      <trkpt lat="42.650529" lon="0.65832">
        <ele>2595.4</ele>
        <time>1970-01-01T07:37:58.000Z</time>
      </trkpt>
      <trkpt lat="42.650527" lon="0.658314">
        <ele>2595.3</ele>
        <time>1970-01-01T07:37:59.000Z</time>
      </trkpt>
      <trkpt lat="42.650525" lon="0.65831">
        <ele>2595.2</ele>
        <time>1970-01-01T07:38:00.000Z</time>
      </trkpt>
      <trkpt lat="42.650524" lon="0.658308">
        <ele>2595.2</ele>
        <time>1970-01-01T07:38:01.000Z</time>
      </trkpt>
      <trkpt lat="42.650526" lon="0.658304">
        <ele>2595.1</ele>
        <time>1970-01-01T07:38:02.000Z</time>
      </trkpt>
      <trkpt lat="42.650531" lon="0.658303">
        <ele>2595</ele>
        <time>1970-01-01T07:38:04.000Z</time>
      </trkpt>
      <trkpt lat="42.650534" lon="0.658303">
        <ele>2594.9</ele>
        <time>1970-01-01T07:38:05.000Z</time>
      </trkpt>
      <trkpt lat="42.65054" lon="0.658302">
        <ele>2594.8</ele>
        <time>1970-01-01T07:38:06.000Z</time>
      </trkpt>
      <trkpt lat="42.650549" lon="0.658299">
        <ele>2594.6</ele>
        <time>1970-01-01T07:38:07.000Z</time>
      </trkpt>
      <trkpt lat="42.650557" lon="0.658295">
        <ele>2594.4</ele>
        <time>1970-01-01T07:38:09.000Z</time>
      </trkpt>
      <trkpt lat="42.650565" lon="0.658291">
        <ele>2594.2</ele>
        <time>1970-01-01T07:38:10.000Z</time>
      </trkpt>
      <trkpt lat="42.65057" lon="0.658294">
        <ele>2594.1</ele>
        <time>1970-01-01T07:38:12.000Z</time>
      </trkpt>
      <trkpt lat="42.650575" lon="0.658301">
        <ele>2593.9</ele>
        <time>1970-01-01T07:38:13.000Z</time>
      </trkpt>
      <trkpt lat="42.65058" lon="0.658301">
        <ele>2593.8</ele>
        <time>1970-01-01T07:38:14.000Z</time>
      </trkpt>
      <trkpt lat="42.650585" lon="0.658297">
        <ele>2593.7</ele>
        <time>1970-01-01T07:38:15.000Z</time>
      </trkpt>
      <trkpt lat="42.650589" lon="0.65829">
        <ele>2593.5</ele>
        <time>1970-01-01T07:38:16.000Z</time>
      </trkpt>
      <trkpt lat="42.650596" lon="0.65829">
        <ele>2593.3</ele>
        <time>1970-01-01T07:38:17.000Z</time>
      </trkpt>
      <trkpt lat="42.650602" lon="0.658295">
        <ele>2593.2</ele>
        <time>1970-01-01T07:38:18.000Z</time>
      </trkpt>
      <trkpt lat="42.650607" lon="0.658307">
        <ele>2593</ele>
        <time>1970-01-01T07:38:19.000Z</time>
      </trkpt>
      <trkpt lat="42.650612" lon="0.658319">
        <ele>2592.7</ele>
        <time>1970-01-01T07:38:20.000Z</time>
      </trkpt>
      <trkpt lat="42.650618" lon="0.658332">
        <ele>2592.5</ele>
        <time>1970-01-01T07:38:21.000Z</time>
      </trkpt>
      <trkpt lat="42.650628" lon="0.658338">
        <ele>2592.2</ele>
        <time>1970-01-01T07:38:22.000Z</time>
      </trkpt>
      <trkpt lat="42.650639" lon="0.658336">
        <ele>2592</ele>
        <time>1970-01-01T07:38:24.000Z</time>
      </trkpt>
      <trkpt lat="42.650646" lon="0.658337">
        <ele>2591.8</ele>
        <time>1970-01-01T07:38:25.000Z</time>
      </trkpt>
      <trkpt lat="42.650651" lon="0.658343">
        <ele>2591.6</ele>
        <time>1970-01-01T07:38:26.000Z</time>
      </trkpt>
      <trkpt lat="42.650655" lon="0.658348">
        <ele>2591.5</ele>
        <time>1970-01-01T07:38:27.000Z</time>
      </trkpt>
      <trkpt lat="42.650661" lon="0.658358">
        <ele>2591.3</ele>
        <time>1970-01-01T07:38:28.000Z</time>
      </trkpt>
      <trkpt lat="42.650667" lon="0.658367">
        <ele>2591.1</ele>
        <time>1970-01-01T07:38:30.000Z</time>
      </trkpt>
      <trkpt lat="42.650675" lon="0.658371">
        <ele>2590.9</ele>
        <time>1970-01-01T07:38:31.000Z</time>
      </trkpt>
      <trkpt lat="42.650677" lon="0.658372">
        <ele>2590.9</ele>
        <time>1970-01-01T07:38:32.000Z</time>
      </trkpt>
      <trkpt lat="42.650679" lon="0.658374">
        <ele>2590.8</ele>
        <time>1970-01-01T07:38:33.000Z</time>
      </trkpt>
      <trkpt lat="42.650683" lon="0.658374">
        <ele>2590.7</ele>
        <time>1970-01-01T07:38:34.000Z</time>
      </trkpt>
      <trkpt lat="42.650687" lon="0.658369">
        <ele>2590.6</ele>
        <time>1970-01-01T07:38:35.000Z</time>
      </trkpt>
      <trkpt lat="42.650691" lon="0.658363">
        <ele>2590.4</ele>
        <time>1970-01-01T07:38:37.000Z</time>
      </trkpt>
      <trkpt lat="42.650692" lon="0.65836">
        <ele>2590.4</ele>
        <time>1970-01-01T07:38:38.000Z</time>
      </trkpt>
      <trkpt lat="42.650699" lon="0.658357">
        <ele>2590.2</ele>
        <time>1970-01-01T07:38:39.000Z</time>
      </trkpt>
      <trkpt lat="42.650702" lon="0.658358">
        <ele>2590.2</ele>
        <time>1970-01-01T07:38:40.000Z</time>
      </trkpt>
      <trkpt lat="42.650704" lon="0.65836">
        <ele>2590.1</ele>
        <time>1970-01-01T07:38:41.000Z</time>
      </trkpt>
      <trkpt lat="42.650708" lon="0.658363">
        <ele>2590</ele>
        <time>1970-01-01T07:38:42.000Z</time>
      </trkpt>
      <trkpt lat="42.650713" lon="0.658368">
        <ele>2589.9</ele>
        <time>1970-01-01T07:38:43.000Z</time>
      </trkpt>
      <trkpt lat="42.650716" lon="0.658375">
        <ele>2589.7</ele>
        <time>1970-01-01T07:38:44.000Z</time>
      </trkpt>
      <trkpt lat="42.650717" lon="0.65838">
        <ele>2589.6</ele>
        <time>1970-01-01T07:38:45.000Z</time>
      </trkpt>
      <trkpt lat="42.650722" lon="0.658387">
        <ele>2589.5</ele>
        <time>1970-01-01T07:38:46.000Z</time>
      </trkpt>
      <trkpt lat="42.650728" lon="0.658391">
        <ele>2589.3</ele>
        <time>1970-01-01T07:38:47.000Z</time>
      </trkpt>
      <trkpt lat="42.650733" lon="0.65839">
        <ele>2589.2</ele>
        <time>1970-01-01T07:38:48.000Z</time>
      </trkpt>
      <trkpt lat="42.650736" lon="0.658388">
        <ele>2589.2</ele>
        <time>1970-01-01T07:38:49.000Z</time>
      </trkpt>
      <trkpt lat="42.650739" lon="0.658388">
        <ele>2589.1</ele>
        <time>1970-01-01T07:38:50.000Z</time>
      </trkpt>
      <trkpt lat="42.650742" lon="0.658389">
        <ele>2589</ele>
        <time>1970-01-01T07:38:51.000Z</time>
      </trkpt>
      <trkpt lat="42.650746" lon="0.658389">
        <ele>2588.9</ele>
        <time>1970-01-01T07:38:52.000Z</time>
      </trkpt>
      <trkpt lat="42.650751" lon="0.658386">
        <ele>2588.8</ele>
        <time>1970-01-01T07:38:53.000Z</time>
      </trkpt>
      <trkpt lat="42.650753" lon="0.658385">
        <ele>2588.8</ele>
        <time>1970-01-01T07:38:54.000Z</time>
      </trkpt>
      <trkpt lat="42.650756" lon="0.658385">
        <ele>2588.7</ele>
        <time>1970-01-01T07:38:55.000Z</time>
      </trkpt>
      <trkpt lat="42.650761" lon="0.658387">
        <ele>2588.6</ele>
        <time>1970-01-01T07:38:56.000Z</time>
      </trkpt>
      <trkpt lat="42.650765" lon="0.658386">
        <ele>2588.5</ele>
        <time>1970-01-01T07:38:57.000Z</time>
      </trkpt>
      <trkpt lat="42.650767" lon="0.658383">
        <ele>2588.4</ele>
        <time>1970-01-01T07:38:58.000Z</time>
      </trkpt>
      <trkpt lat="42.65077" lon="0.658377">
        <ele>2588.3</ele>
        <time>1970-01-01T07:38:59.000Z</time>
      </trkpt>
      <trkpt lat="42.65077" lon="0.65837">
        <ele>2588.2</ele>
        <time>1970-01-01T07:39:00.000Z</time>
      </trkpt>
      <trkpt lat="42.650768" lon="0.658364">
        <ele>2588.1</ele>
        <time>1970-01-01T07:39:01.000Z</time>
      </trkpt>
      <trkpt lat="42.650768" lon="0.658359">
        <ele>2588</ele>
        <time>1970-01-01T07:39:03.000Z</time>
      </trkpt>
      <trkpt lat="42.650772" lon="0.658355">
        <ele>2587.9</ele>
        <time>1970-01-01T07:39:04.000Z</time>
      </trkpt>
      <trkpt lat="42.650776" lon="0.658356">
        <ele>2587.8</ele>
        <time>1970-01-01T07:39:05.000Z</time>
      </trkpt>
      <trkpt lat="42.650781" lon="0.658359">
        <ele>2587.7</ele>
        <time>1970-01-01T07:39:06.000Z</time>
      </trkpt>
      <trkpt lat="42.650787" lon="0.658359">
        <ele>2587.6</ele>
        <time>1970-01-01T07:39:07.000Z</time>
      </trkpt>
      <trkpt lat="42.650797" lon="0.658353">
        <ele>2587.3</ele>
        <time>1970-01-01T07:39:08.000Z</time>
      </trkpt>
      <trkpt lat="42.650814" lon="0.658343">
        <ele>2586.9</ele>
        <time>1970-01-01T07:39:10.000Z</time>
      </trkpt>
      <trkpt lat="42.650821" lon="0.658338">
        <ele>2586.8</ele>
        <time>1970-01-01T07:39:11.000Z</time>
      </trkpt>
      <trkpt lat="42.650827" lon="0.658334">
        <ele>2586.6</ele>
        <time>1970-01-01T07:39:12.000Z</time>
      </trkpt>
      <trkpt lat="42.650832" lon="0.658329">
        <ele>2586.5</ele>
        <time>1970-01-01T07:39:13.000Z</time>
      </trkpt>
      <trkpt lat="42.650837" lon="0.65832">
        <ele>2586.3</ele>
        <time>1970-01-01T07:39:14.000Z</time>
      </trkpt>
      <trkpt lat="42.65084" lon="0.658311">
        <ele>2586.2</ele>
        <time>1970-01-01T07:39:15.000Z</time>
      </trkpt>
      <trkpt lat="42.650842" lon="0.658306">
        <ele>2586.1</ele>
        <time>1970-01-01T07:39:16.000Z</time>
      </trkpt>
      <trkpt lat="42.650847" lon="0.658294">
        <ele>2585.8</ele>
        <time>1970-01-01T07:39:18.000Z</time>
      </trkpt>
      <trkpt lat="42.650853" lon="0.658294">
        <ele>2585.7</ele>
        <time>1970-01-01T07:39:19.000Z</time>
      </trkpt>
      <trkpt lat="42.650863" lon="0.658302">
        <ele>2585.4</ele>
        <time>1970-01-01T07:39:20.000Z</time>
      </trkpt>
      <trkpt lat="42.65087" lon="0.658307">
        <ele>2585.3</ele>
        <time>1970-01-01T07:39:21.000Z</time>
      </trkpt>
      <trkpt lat="42.650876" lon="0.658305">
        <ele>2585.1</ele>
        <time>1970-01-01T07:39:22.000Z</time>
      </trkpt>
      <trkpt lat="42.650881" lon="0.6583">
        <ele>2585</ele>
        <time>1970-01-01T07:39:23.000Z</time>
      </trkpt>
      <trkpt lat="42.650884" lon="0.658302">
        <ele>2584.9</ele>
        <time>1970-01-01T07:39:25.000Z</time>
      </trkpt>
      <trkpt lat="42.650886" lon="0.658306">
        <ele>2584.8</ele>
        <time>1970-01-01T07:39:26.000Z</time>
      </trkpt>
      <trkpt lat="42.650889" lon="0.658309">
        <ele>2584.7</ele>
        <time>1970-01-01T07:39:27.000Z</time>
      </trkpt>
      <trkpt lat="42.650891" lon="0.658313">
        <ele>2584.6</ele>
        <time>1970-01-01T07:39:28.000Z</time>
      </trkpt>
      <trkpt lat="42.650893" lon="0.658315">
        <ele>2584.6</ele>
        <time>1970-01-01T07:39:29.000Z</time>
      </trkpt>
      <trkpt lat="42.650895" lon="0.658318">
        <ele>2584.5</ele>
        <time>1970-01-01T07:39:30.000Z</time>
      </trkpt>
      <trkpt lat="42.650896" lon="0.65832">
        <ele>2584.5</ele>
        <time>1970-01-01T07:39:31.000Z</time>
      </trkpt>
      <trkpt lat="42.6509" lon="0.658327">
        <ele>2584.3</ele>
        <time>1970-01-01T07:39:32.000Z</time>
      </trkpt>
      <trkpt lat="42.650905" lon="0.658335">
        <ele>2584.2</ele>
        <time>1970-01-01T07:39:33.000Z</time>
      </trkpt>
      <trkpt lat="42.650912" lon="0.658347">
        <ele>2583.9</ele>
        <time>1970-01-01T07:39:34.000Z</time>
      </trkpt>
      <trkpt lat="42.650917" lon="0.658354">
        <ele>2583.7</ele>
        <time>1970-01-01T07:39:35.000Z</time>
      </trkpt>
      <trkpt lat="42.650934" lon="0.658368">
        <ele>2583.2</ele>
        <time>1970-01-01T07:39:36.000Z</time>
      </trkpt>
      <trkpt lat="42.650941" lon="0.658372">
        <ele>2583</ele>
        <time>1970-01-01T07:39:37.000Z</time>
      </trkpt>
      <trkpt lat="42.650944" lon="0.658376">
        <ele>2582.9</ele>
        <time>1970-01-01T07:39:38.000Z</time>
      </trkpt>
      <trkpt lat="42.650947" lon="0.658378">
        <ele>2582.9</ele>
        <time>1970-01-01T07:39:39.000Z</time>
      </trkpt>
      <trkpt lat="42.650953" lon="0.658378">
        <ele>2582.7</ele>
        <time>1970-01-01T07:39:41.000Z</time>
      </trkpt>
      <trkpt lat="42.650957" lon="0.65837">
        <ele>2582.5</ele>
        <time>1970-01-01T07:39:42.000Z</time>
      </trkpt>
      <trkpt lat="42.650956" lon="0.658363">
        <ele>2582.4</ele>
        <time>1970-01-01T07:39:43.000Z</time>
      </trkpt>
      <trkpt lat="42.650957" lon="0.658361">
        <ele>2582.4</ele>
        <time>1970-01-01T07:39:45.000Z</time>
      </trkpt>
      <trkpt lat="42.650957" lon="0.65836">
        <ele>2582.3</ele>
        <time>1970-01-01T07:39:46.000Z</time>
      </trkpt>
      <trkpt lat="42.65096" lon="0.658359">
        <ele>2582.3</ele>
        <time>1970-01-01T07:39:47.000Z</time>
      </trkpt>
      <trkpt lat="42.650963" lon="0.658357">
        <ele>2582.2</ele>
        <time>1970-01-01T07:39:48.000Z</time>
      </trkpt>
      <trkpt lat="42.650966" lon="0.658349">
        <ele>2582</ele>
        <time>1970-01-01T07:39:50.000Z</time>
      </trkpt>
      <trkpt lat="42.650968" lon="0.658343">
        <ele>2581.9</ele>
        <time>1970-01-01T07:39:51.000Z</time>
      </trkpt>
      <trkpt lat="42.650969" lon="0.658341">
        <ele>2581.8</ele>
        <time>1970-01-01T07:39:52.000Z</time>
      </trkpt>
      <trkpt lat="42.65097" lon="0.65834">
        <ele>2581.8</ele>
        <time>1970-01-01T07:39:53.000Z</time>
      </trkpt>
      <trkpt lat="42.650971" lon="0.658339">
        <ele>2581.8</ele>
        <time>1970-01-01T07:39:54.000Z</time>
      </trkpt>
      <trkpt lat="42.650972" lon="0.658339">
        <ele>2581.7</ele>
        <time>1970-01-01T07:39:55.000Z</time>
      </trkpt>
      <trkpt lat="42.650975" lon="0.658339">
        <ele>2581.7</ele>
        <time>1970-01-01T07:39:56.000Z</time>
      </trkpt>
      <trkpt lat="42.650979" lon="0.658341">
        <ele>2581.6</ele>
        <time>1970-01-01T07:39:58.000Z</time>
      </trkpt>
      <trkpt lat="42.65098" lon="0.658343">
        <ele>2581.5</ele>
        <time>1970-01-01T07:39:59.000Z</time>
      </trkpt>
      <trkpt lat="42.650982" lon="0.658343">
        <ele>2581.5</ele>
        <time>1970-01-01T07:40:00.000Z</time>
      </trkpt>
      <trkpt lat="42.650985" lon="0.658343">
        <ele>2581.4</ele>
        <time>1970-01-01T07:40:01.000Z</time>
      </trkpt>
      <trkpt lat="42.65099" lon="0.658343">
        <ele>2581.2</ele>
        <time>1970-01-01T07:40:03.000Z</time>
      </trkpt>
      <trkpt lat="42.650991" lon="0.658344">
        <ele>2581.2</ele>
        <time>1970-01-01T07:40:04.000Z</time>
      </trkpt>
      <trkpt lat="42.650991" lon="0.658345">
        <ele>2581.2</ele>
        <time>1970-01-01T07:40:05.000Z</time>
      </trkpt>
      <trkpt lat="42.650993" lon="0.658347">
        <ele>2581.1</ele>
        <time>1970-01-01T07:40:06.000Z</time>
      </trkpt>
      <trkpt lat="42.650999" lon="0.658351">
        <ele>2581</ele>
        <time>1970-01-01T07:40:08.000Z</time>
      </trkpt>
      <trkpt lat="42.651002" lon="0.658353">
        <ele>2580.9</ele>
        <time>1970-01-01T07:40:09.000Z</time>
      </trkpt>
      <trkpt lat="42.651004" lon="0.658354">
        <ele>2580.8</ele>
        <time>1970-01-01T07:40:10.000Z</time>
      </trkpt>
      <trkpt lat="42.651009" lon="0.658355">
        <ele>2580.7</ele>
        <time>1970-01-01T07:40:12.000Z</time>
      </trkpt>
      <trkpt lat="42.651013" lon="0.658357">
        <ele>2580.6</ele>
        <time>1970-01-01T07:40:13.000Z</time>
      </trkpt>
      <trkpt lat="42.651017" lon="0.658357">
        <ele>2580.5</ele>
        <time>1970-01-01T07:40:14.000Z</time>
      </trkpt>
      <trkpt lat="42.65102" lon="0.658357">
        <ele>2580.4</ele>
        <time>1970-01-01T07:40:15.000Z</time>
      </trkpt>
      <trkpt lat="42.651026" lon="0.658355">
        <ele>2580.2</ele>
        <time>1970-01-01T07:40:17.000Z</time>
      </trkpt>
      <trkpt lat="42.651029" lon="0.658354">
        <ele>2580.2</ele>
        <time>1970-01-01T07:40:18.000Z</time>
      </trkpt>
      <trkpt lat="42.65103" lon="0.658355">
        <ele>2580.1</ele>
        <time>1970-01-01T07:40:19.000Z</time>
      </trkpt>
      <trkpt lat="42.651033" lon="0.658358">
        <ele>2580</ele>
        <time>1970-01-01T07:40:20.000Z</time>
      </trkpt>
      <trkpt lat="42.651045" lon="0.658367">
        <ele>2579.7</ele>
        <time>1970-01-01T07:40:22.000Z</time>
      </trkpt>
      <trkpt lat="42.651054" lon="0.658364">
        <ele>2579.4</ele>
        <time>1970-01-01T07:40:23.000Z</time>
      </trkpt>
      <trkpt lat="42.651058" lon="0.65836">
        <ele>2579.3</ele>
        <time>1970-01-01T07:40:24.000Z</time>
      </trkpt>
      <trkpt lat="42.651063" lon="0.658357">
        <ele>2579.2</ele>
        <time>1970-01-01T07:40:25.000Z</time>
      </trkpt>
      <trkpt lat="42.651065" lon="0.658358">
        <ele>2579.1</ele>
        <time>1970-01-01T07:40:26.000Z</time>
      </trkpt>
      <trkpt lat="42.651068" lon="0.65836">
        <ele>2579</ele>
        <time>1970-01-01T07:40:27.000Z</time>
      </trkpt>
      <trkpt lat="42.651077" lon="0.658362">
        <ele>2578.8</ele>
        <time>1970-01-01T07:40:28.000Z</time>
      </trkpt>
      <trkpt lat="42.651085" lon="0.658361">
        <ele>2578.6</ele>
        <time>1970-01-01T07:40:30.000Z</time>
      </trkpt>
      <trkpt lat="42.651095" lon="0.658354">
        <ele>2578.3</ele>
        <time>1970-01-01T07:40:31.000Z</time>
      </trkpt>
      <trkpt lat="42.651101" lon="0.658347">
        <ele>2578.1</ele>
        <time>1970-01-01T07:40:32.000Z</time>
      </trkpt>
      <trkpt lat="42.651104" lon="0.658342">
        <ele>2578</ele>
        <time>1970-01-01T07:40:33.000Z</time>
      </trkpt>
      <trkpt lat="42.651109" lon="0.65834">
        <ele>2577.9</ele>
        <time>1970-01-01T07:40:34.000Z</time>
      </trkpt>
      <trkpt lat="42.651116" lon="0.658339">
        <ele>2577.7</ele>
        <time>1970-01-01T07:40:35.000Z</time>
      </trkpt>
      <trkpt lat="42.651123" lon="0.658339">
        <ele>2577.5</ele>
        <time>1970-01-01T07:40:37.000Z</time>
      </trkpt>
      <trkpt lat="42.651126" lon="0.658338">
        <ele>2577.4</ele>
        <time>1970-01-01T07:40:38.000Z</time>
      </trkpt>
      <trkpt lat="42.651126" lon="0.658339">
        <ele>2577.4</ele>
        <time>1970-01-01T07:40:39.000Z</time>
      </trkpt>
      <trkpt lat="42.651127" lon="0.658338">
        <ele>2577.4</ele>
        <time>1970-01-01T07:40:40.000Z</time>
      </trkpt>
      <trkpt lat="42.651131" lon="0.658337">
        <ele>2577.3</ele>
        <time>1970-01-01T07:40:41.000Z</time>
      </trkpt>
      <trkpt lat="42.651134" lon="0.658336">
        <ele>2577.2</ele>
        <time>1970-01-01T07:40:42.000Z</time>
      </trkpt>
      <trkpt lat="42.651141" lon="0.658334">
        <ele>2577</ele>
        <time>1970-01-01T07:40:43.000Z</time>
      </trkpt>
      <trkpt lat="42.65115" lon="0.65833">
        <ele>2576.8</ele>
        <time>1970-01-01T07:40:44.000Z</time>
      </trkpt>
      <trkpt lat="42.65116" lon="0.658327">
        <ele>2576.5</ele>
        <time>1970-01-01T07:40:46.000Z</time>
      </trkpt>
      <trkpt lat="42.651171" lon="0.658325">
        <ele>2576.2</ele>
        <time>1970-01-01T07:40:48.000Z</time>
      </trkpt>
      <trkpt lat="42.651177" lon="0.658326">
        <ele>2576.1</ele>
        <time>1970-01-01T07:40:49.000Z</time>
      </trkpt>
      <trkpt lat="42.651186" lon="0.65833">
        <ele>2575.8</ele>
        <time>1970-01-01T07:40:51.000Z</time>
      </trkpt>
      <trkpt lat="42.651194" lon="0.658334">
        <ele>2575.6</ele>
        <time>1970-01-01T07:40:52.000Z</time>
      </trkpt>
      <trkpt lat="42.651198" lon="0.658336">
        <ele>2575.5</ele>
        <time>1970-01-01T07:40:53.000Z</time>
      </trkpt>
      <trkpt lat="42.651199" lon="0.65834">
        <ele>2575.4</ele>
        <time>1970-01-01T07:40:54.000Z</time>
      </trkpt>
      <trkpt lat="42.651203" lon="0.658346">
        <ele>2575.3</ele>
        <time>1970-01-01T07:40:55.000Z</time>
      </trkpt>
      <trkpt lat="42.651209" lon="0.658347">
        <ele>2575.1</ele>
        <time>1970-01-01T07:40:57.000Z</time>
      </trkpt>
      <trkpt lat="42.651212" lon="0.658339">
        <ele>2575</ele>
        <time>1970-01-01T07:40:58.000Z</time>
      </trkpt>
      <trkpt lat="42.651212" lon="0.658333">
        <ele>2574.9</ele>
        <time>1970-01-01T07:40:59.000Z</time>
      </trkpt>
      <trkpt lat="42.651214" lon="0.65833">
        <ele>2574.8</ele>
        <time>1970-01-01T07:41:00.000Z</time>
      </trkpt>
      <trkpt lat="42.651217" lon="0.658328">
        <ele>2574.7</ele>
        <time>1970-01-01T07:41:01.000Z</time>
      </trkpt>
      <trkpt lat="42.651223" lon="0.658327">
        <ele>2574.6</ele>
        <time>1970-01-01T07:41:02.000Z</time>
      </trkpt>
      <trkpt lat="42.651226" lon="0.658332">
        <ele>2574.4</ele>
        <time>1970-01-01T07:41:03.000Z</time>
      </trkpt>
      <trkpt lat="42.651227" lon="0.658336">
        <ele>2574.4</ele>
        <time>1970-01-01T07:41:04.000Z</time>
      </trkpt>
      <trkpt lat="42.651229" lon="0.65834">
        <ele>2574.3</ele>
        <time>1970-01-01T07:41:05.000Z</time>
      </trkpt>
      <trkpt lat="42.651232" lon="0.658346">
        <ele>2574.1</ele>
        <time>1970-01-01T07:41:07.000Z</time>
      </trkpt>
      <trkpt lat="42.651235" lon="0.65835">
        <ele>2574</ele>
        <time>1970-01-01T07:41:08.000Z</time>
      </trkpt>
      <trkpt lat="42.651237" lon="0.658352">
        <ele>2574</ele>
        <time>1970-01-01T07:41:09.000Z</time>
      </trkpt>
      <trkpt lat="42.651242" lon="0.658354">
        <ele>2573.8</ele>
        <time>1970-01-01T07:41:10.000Z</time>
      </trkpt>
      <trkpt lat="42.651248" lon="0.65835">
        <ele>2573.7</ele>
        <time>1970-01-01T07:41:11.000Z</time>
      </trkpt>
      <trkpt lat="42.651251" lon="0.658344">
        <ele>2573.5</ele>
        <time>1970-01-01T07:41:12.000Z</time>
      </trkpt>
      <trkpt lat="42.651253" lon="0.65834">
        <ele>2573.4</ele>
        <time>1970-01-01T07:41:13.000Z</time>
      </trkpt>
      <trkpt lat="42.651255" lon="0.658337">
        <ele>2573.4</ele>
        <time>1970-01-01T07:41:14.000Z</time>
      </trkpt>
      <trkpt lat="42.651259" lon="0.658334">
        <ele>2573.3</ele>
        <time>1970-01-01T07:41:15.000Z</time>
      </trkpt>
      <trkpt lat="42.651261" lon="0.658331">
        <ele>2573.2</ele>
        <time>1970-01-01T07:41:16.000Z</time>
      </trkpt>
      <trkpt lat="42.651262" lon="0.65833">
        <ele>2573.1</ele>
        <time>1970-01-01T07:41:17.000Z</time>
      </trkpt>
      <trkpt lat="42.651262" lon="0.658333">
        <ele>2573.1</ele>
        <time>1970-01-01T07:41:19.000Z</time>
      </trkpt>
      <trkpt lat="42.651264" lon="0.658336">
        <ele>2573</ele>
        <time>1970-01-01T07:41:20.000Z</time>
      </trkpt>
      <trkpt lat="42.651267" lon="0.658339">
        <ele>2572.9</ele>
        <time>1970-01-01T07:41:21.000Z</time>
      </trkpt>
      <trkpt lat="42.651275" lon="0.658347">
        <ele>2572.7</ele>
        <time>1970-01-01T07:41:22.000Z</time>
      </trkpt>
      <trkpt lat="42.651278" lon="0.658354">
        <ele>2572.5</ele>
        <time>1970-01-01T07:41:23.000Z</time>
      </trkpt>
      <trkpt lat="42.651281" lon="0.65836">
        <ele>2572.4</ele>
        <time>1970-01-01T07:41:25.000Z</time>
      </trkpt>
      <trkpt lat="42.651285" lon="0.658366">
        <ele>2572.2</ele>
        <time>1970-01-01T07:41:26.000Z</time>
      </trkpt>
      <trkpt lat="42.651288" lon="0.658373">
        <ele>2572.1</ele>
        <time>1970-01-01T07:41:27.000Z</time>
      </trkpt>
      <trkpt lat="42.651292" lon="0.658379">
        <ele>2571.9</ele>
        <time>1970-01-01T07:41:28.000Z</time>
      </trkpt>
      <trkpt lat="42.651293" lon="0.658387">
        <ele>2571.7</ele>
        <time>1970-01-01T07:41:29.000Z</time>
      </trkpt>
      <trkpt lat="42.651296" lon="0.658385">
        <ele>2571.7</ele>
        <time>1970-01-01T07:41:31.000Z</time>
      </trkpt>
      <trkpt lat="42.651305" lon="0.658388">
        <ele>2571.4</ele>
        <time>1970-01-01T07:41:32.000Z</time>
      </trkpt>
      <trkpt lat="42.65131" lon="0.658387">
        <ele>2571.3</ele>
        <time>1970-01-01T07:41:33.000Z</time>
      </trkpt>
      <trkpt lat="42.651316" lon="0.658385">
        <ele>2571.1</ele>
        <time>1970-01-01T07:41:34.000Z</time>
      </trkpt>
      <trkpt lat="42.651323" lon="0.658384">
        <ele>2570.9</ele>
        <time>1970-01-01T07:41:35.000Z</time>
      </trkpt>
      <trkpt lat="42.651331" lon="0.65838">
        <ele>2570.7</ele>
        <time>1970-01-01T07:41:37.000Z</time>
      </trkpt>
      <trkpt lat="42.651333" lon="0.658376">
        <ele>2570.6</ele>
        <time>1970-01-01T07:41:38.000Z</time>
      </trkpt>
      <trkpt lat="42.651332" lon="0.658373">
        <ele>2570.5</ele>
        <time>1970-01-01T07:41:39.000Z</time>
      </trkpt>
      <trkpt lat="42.651331" lon="0.658371">
        <ele>2570.5</ele>
        <time>1970-01-01T07:41:40.000Z</time>
      </trkpt>
      <trkpt lat="42.651331" lon="0.658368">
        <ele>2570.4</ele>
        <time>1970-01-01T07:41:41.000Z</time>
      </trkpt>
      <trkpt lat="42.651333" lon="0.658367">
        <ele>2570.3</ele>
        <time>1970-01-01T07:41:42.000Z</time>
      </trkpt>
      <trkpt lat="42.651334" lon="0.658366">
        <ele>2570.3</ele>
        <time>1970-01-01T07:41:43.000Z</time>
      </trkpt>
      <trkpt lat="42.651337" lon="0.658365">
        <ele>2570.2</ele>
        <time>1970-01-01T07:41:44.000Z</time>
      </trkpt>
      <trkpt lat="42.651342" lon="0.658365">
        <ele>2570.1</ele>
        <time>1970-01-01T07:41:45.000Z</time>
      </trkpt>
      <trkpt lat="42.651349" lon="0.658362">
        <ele>2569.9</ele>
        <time>1970-01-01T07:41:46.000Z</time>
      </trkpt>
      <trkpt lat="42.651353" lon="0.658361">
        <ele>2569.7</ele>
        <time>1970-01-01T07:41:48.000Z</time>
      </trkpt>
      <trkpt lat="42.651355" lon="0.658361">
        <ele>2569.7</ele>
        <time>1970-01-01T07:41:49.000Z</time>
      </trkpt>
      <trkpt lat="42.651357" lon="0.658362">
        <ele>2569.6</ele>
        <time>1970-01-01T07:41:51.000Z</time>
      </trkpt>
      <trkpt lat="42.651361" lon="0.658361">
        <ele>2569.5</ele>
        <time>1970-01-01T07:41:52.000Z</time>
      </trkpt>
      <trkpt lat="42.651365" lon="0.658361">
        <ele>2569.4</ele>
        <time>1970-01-01T07:41:53.000Z</time>
      </trkpt>
      <trkpt lat="42.651369" lon="0.658361">
        <ele>2569.3</ele>
        <time>1970-01-01T07:41:54.000Z</time>
      </trkpt>
      <trkpt lat="42.651372" lon="0.658365">
        <ele>2569.2</ele>
        <time>1970-01-01T07:41:56.000Z</time>
      </trkpt>
      <trkpt lat="42.651376" lon="0.65837">
        <ele>2569</ele>
        <time>1970-01-01T07:41:57.000Z</time>
      </trkpt>
      <trkpt lat="42.651384" lon="0.658374">
        <ele>2568.8</ele>
        <time>1970-01-01T07:41:58.000Z</time>
      </trkpt>
      <trkpt lat="42.651391" lon="0.658373">
        <ele>2568.6</ele>
        <time>1970-01-01T07:41:59.000Z</time>
      </trkpt>
      <trkpt lat="42.651395" lon="0.658372">
        <ele>2568.4</ele>
        <time>1970-01-01T07:42:00.000Z</time>
      </trkpt>
      <trkpt lat="42.651398" lon="0.65837">
        <ele>2568.3</ele>
        <time>1970-01-01T07:42:01.000Z</time>
      </trkpt>
      <trkpt lat="42.6514" lon="0.658369">
        <ele>2568.3</ele>
        <time>1970-01-01T07:42:02.000Z</time>
      </trkpt>
      <trkpt lat="42.651399" lon="0.658368">
        <ele>2568.2</ele>
        <time>1970-01-01T07:42:03.000Z</time>
      </trkpt>
      <trkpt lat="42.651404" lon="0.65837">
        <ele>2568.1</ele>
        <time>1970-01-01T07:42:05.000Z</time>
      </trkpt>
      <trkpt lat="42.651409" lon="0.658365">
        <ele>2567.9</ele>
        <time>1970-01-01T07:42:06.000Z</time>
      </trkpt>
      <trkpt lat="42.651411" lon="0.658358">
        <ele>2567.7</ele>
        <time>1970-01-01T07:42:07.000Z</time>
      </trkpt>
      <trkpt lat="42.651413" lon="0.658356">
        <ele>2567.6</ele>
        <time>1970-01-01T07:42:08.000Z</time>
      </trkpt>
      <trkpt lat="42.651413" lon="0.658356">
        <ele>2567.6</ele>
        <time>1970-01-01T07:42:09.000Z</time>
      </trkpt>
      <trkpt lat="42.651408" lon="0.658361">
        <ele>2567.5</ele>
        <time>1970-01-01T07:42:11.000Z</time>
      </trkpt>
      <trkpt lat="42.651404" lon="0.658362">
        <ele>2567.3</ele>
        <time>1970-01-01T07:42:12.000Z</time>
      </trkpt>
      <trkpt lat="42.651404" lon="0.658385">
        <ele>2566.8</ele>
        <time>1970-01-01T07:42:13.000Z</time>
      </trkpt>
      <trkpt lat="42.651409" lon="0.658392">
        <ele>2566.6</ele>
        <time>1970-01-01T07:42:14.000Z</time>
      </trkpt>
      <trkpt lat="42.65142" lon="0.658403">
        <ele>2566.2</ele>
        <time>1970-01-01T07:42:16.000Z</time>
      </trkpt>
      <trkpt lat="42.651423" lon="0.658403">
        <ele>2566.1</ele>
        <time>1970-01-01T07:42:17.000Z</time>
      </trkpt>
      <trkpt lat="42.651427" lon="0.658404">
        <ele>2566</ele>
        <time>1970-01-01T07:42:18.000Z</time>
      </trkpt>
      <trkpt lat="42.651432" lon="0.658402">
        <ele>2565.8</ele>
        <time>1970-01-01T07:42:19.000Z</time>
      </trkpt>
      <trkpt lat="42.651434" lon="0.658395">
        <ele>2565.6</ele>
        <time>1970-01-01T07:42:20.000Z</time>
      </trkpt>
      <trkpt lat="42.651436" lon="0.658393">
        <ele>2565.5</ele>
        <time>1970-01-01T07:42:21.000Z</time>
      </trkpt>
      <trkpt lat="42.651439" lon="0.658392">
        <ele>2565.5</ele>
        <time>1970-01-01T07:42:22.000Z</time>
      </trkpt>
      <trkpt lat="42.651443" lon="0.658392">
        <ele>2565.3</ele>
        <time>1970-01-01T07:42:23.000Z</time>
      </trkpt>
      <trkpt lat="42.651444" lon="0.658393">
        <ele>2565.3</ele>
        <time>1970-01-01T07:42:24.000Z</time>
      </trkpt>
      <trkpt lat="42.651445" lon="0.658394">
        <ele>2565.2</ele>
        <time>1970-01-01T07:42:25.000Z</time>
      </trkpt>
      <trkpt lat="42.651446" lon="0.658401">
        <ele>2565.1</ele>
        <time>1970-01-01T07:42:26.000Z</time>
      </trkpt>
      <trkpt lat="42.651442" lon="0.658408">
        <ele>2564.9</ele>
        <time>1970-01-01T07:42:27.000Z</time>
      </trkpt>
      <trkpt lat="42.651443" lon="0.658417">
        <ele>2564.7</ele>
        <time>1970-01-01T07:42:28.000Z</time>
      </trkpt>
      <trkpt lat="42.651446" lon="0.65842">
        <ele>2564.5</ele>
        <time>1970-01-01T07:42:29.000Z</time>
      </trkpt>
      <trkpt lat="42.651453" lon="0.658413">
        <ele>2564.3</ele>
        <time>1970-01-01T07:42:30.000Z</time>
      </trkpt>
      <trkpt lat="42.651458" lon="0.658402">
        <ele>2564</ele>
        <time>1970-01-01T07:42:32.000Z</time>
      </trkpt>
      <trkpt lat="42.651463" lon="0.658398">
        <ele>2563.8</ele>
        <time>1970-01-01T07:42:33.000Z</time>
      </trkpt>
      <trkpt lat="42.65147" lon="0.658394">
        <ele>2563.6</ele>
        <time>1970-01-01T07:42:34.000Z</time>
      </trkpt>
      <trkpt lat="42.651481" lon="0.658393">
        <ele>2563.2</ele>
        <time>1970-01-01T07:42:35.000Z</time>
      </trkpt>
      <trkpt lat="42.651487" lon="0.658391">
        <ele>2563</ele>
        <time>1970-01-01T07:42:36.000Z</time>
      </trkpt>
      <trkpt lat="42.651493" lon="0.65839">
        <ele>2562.8</ele>
        <time>1970-01-01T07:42:37.000Z</time>
      </trkpt>
      <trkpt lat="42.651499" lon="0.658388">
        <ele>2562.6</ele>
        <time>1970-01-01T07:42:38.000Z</time>
      </trkpt>
      <trkpt lat="42.651506" lon="0.658386">
        <ele>2562.4</ele>
        <time>1970-01-01T07:42:39.000Z</time>
      </trkpt>
      <trkpt lat="42.65151" lon="0.658382">
        <ele>2562.2</ele>
        <time>1970-01-01T07:42:40.000Z</time>
      </trkpt>
      <trkpt lat="42.651519" lon="0.658383">
        <ele>2562</ele>
        <time>1970-01-01T07:42:42.000Z</time>
      </trkpt>
      <trkpt lat="42.651527" lon="0.658392">
        <ele>2561.6</ele>
        <time>1970-01-01T07:42:43.000Z</time>
      </trkpt>
      <trkpt lat="42.651531" lon="0.6584">
        <ele>2561.4</ele>
        <time>1970-01-01T07:42:44.000Z</time>
      </trkpt>
      <trkpt lat="42.651534" lon="0.65841">
        <ele>2561.2</ele>
        <time>1970-01-01T07:42:45.000Z</time>
      </trkpt>
      <trkpt lat="42.651536" lon="0.658419">
        <ele>2560.9</ele>
        <time>1970-01-01T07:42:46.000Z</time>
      </trkpt>
      <trkpt lat="42.651539" lon="0.658418">
        <ele>2560.8</ele>
        <time>1970-01-01T07:42:47.000Z</time>
      </trkpt>
      <trkpt lat="42.65154" lon="0.658413">
        <ele>2560.7</ele>
        <time>1970-01-01T07:42:48.000Z</time>
      </trkpt>
      <trkpt lat="42.651542" lon="0.65841">
        <ele>2560.6</ele>
        <time>1970-01-01T07:42:49.000Z</time>
      </trkpt>
      <trkpt lat="42.651544" lon="0.658408">
        <ele>2560.6</ele>
        <time>1970-01-01T07:42:50.000Z</time>
      </trkpt>
      <trkpt lat="42.651545" lon="0.658405">
        <ele>2560.5</ele>
        <time>1970-01-01T07:42:51.000Z</time>
      </trkpt>
      <trkpt lat="42.65155" lon="0.658392">
        <ele>2560.1</ele>
        <time>1970-01-01T07:42:52.000Z</time>
      </trkpt>
      <trkpt lat="42.651554" lon="0.658386">
        <ele>2560</ele>
        <time>1970-01-01T07:42:54.000Z</time>
      </trkpt>
      <trkpt lat="42.651558" lon="0.658382">
        <ele>2559.8</ele>
        <time>1970-01-01T07:42:55.000Z</time>
      </trkpt>
      <trkpt lat="42.65156" lon="0.658378">
        <ele>2559.7</ele>
        <time>1970-01-01T07:42:56.000Z</time>
      </trkpt>
      <trkpt lat="42.651567" lon="0.658365">
        <ele>2559.3</ele>
        <time>1970-01-01T07:42:57.000Z</time>
      </trkpt>
      <trkpt lat="42.651568" lon="0.658361">
        <ele>2559.2</ele>
        <time>1970-01-01T07:42:58.000Z</time>
      </trkpt>
      <trkpt lat="42.651568" lon="0.658361">
        <ele>2559.2</ele>
        <time>1970-01-01T07:42:59.000Z</time>
      </trkpt>
      <trkpt lat="42.651569" lon="0.658369">
        <ele>2559</ele>
        <time>1970-01-01T07:43:00.000Z</time>
      </trkpt>
      <trkpt lat="42.651572" lon="0.658384">
        <ele>2558.7</ele>
        <time>1970-01-01T07:43:02.000Z</time>
      </trkpt>
      <trkpt lat="42.651574" lon="0.658393">
        <ele>2558.4</ele>
        <time>1970-01-01T07:43:03.000Z</time>
      </trkpt>
      <trkpt lat="42.651573" lon="0.6584">
        <ele>2558.3</ele>
        <time>1970-01-01T07:43:04.000Z</time>
      </trkpt>
      <trkpt lat="42.651572" lon="0.658411">
        <ele>2558</ele>
        <time>1970-01-01T07:43:05.000Z</time>
      </trkpt>
      <trkpt lat="42.651576" lon="0.658436">
        <ele>2557.4</ele>
        <time>1970-01-01T07:43:07.000Z</time>
      </trkpt>
      <trkpt lat="42.651591" lon="0.658463">
        <ele>2556.6</ele>
        <time>1970-01-01T07:43:08.000Z</time>
      </trkpt>
      <trkpt lat="42.651601" lon="0.65847">
        <ele>2556.3</ele>
        <time>1970-01-01T07:43:09.000Z</time>
      </trkpt>
      <trkpt lat="42.651628" lon="0.658488">
        <ele>2555.3</ele>
        <time>1970-01-01T07:43:11.000Z</time>
      </trkpt>
      <trkpt lat="42.651617" lon="0.658484">
        <ele>2555</ele>
        <time>1970-01-01T07:43:12.000Z</time>
      </trkpt>
      <trkpt lat="42.651613" lon="0.658481">
        <ele>2554.8</ele>
        <time>1970-01-01T07:43:13.000Z</time>
      </trkpt>
      <trkpt lat="42.651637" lon="0.658507">
        <ele>2553.8</ele>
        <time>1970-01-01T07:43:15.000Z</time>
      </trkpt>
      <trkpt lat="42.651634" lon="0.658498">
        <ele>2553.6</ele>
        <time>1970-01-01T07:43:16.000Z</time>
      </trkpt>
      <trkpt lat="42.651631" lon="0.658493">
        <ele>2553.4</ele>
        <time>1970-01-01T07:43:17.000Z</time>
      </trkpt>
      <trkpt lat="42.651632" lon="0.658496">
        <ele>2553.4</ele>
        <time>1970-01-01T07:43:19.000Z</time>
      </trkpt>
      <trkpt lat="42.651632" lon="0.658499">
        <ele>2553.3</ele>
        <time>1970-01-01T07:43:20.000Z</time>
      </trkpt>
      <trkpt lat="42.65163" lon="0.6585">
        <ele>2553.2</ele>
        <time>1970-01-01T07:43:21.000Z</time>
      </trkpt>
      <trkpt lat="42.651628" lon="0.658502">
        <ele>2553.1</ele>
        <time>1970-01-01T07:43:22.000Z</time>
      </trkpt>
      <trkpt lat="42.651625" lon="0.658504">
        <ele>2553</ele>
        <time>1970-01-01T07:43:23.000Z</time>
      </trkpt>
      <trkpt lat="42.651622" lon="0.658506">
        <ele>2552.9</ele>
        <time>1970-01-01T07:43:24.000Z</time>
      </trkpt>
      <trkpt lat="42.65162" lon="0.658511">
        <ele>2552.8</ele>
        <time>1970-01-01T07:43:25.000Z</time>
      </trkpt>
      <trkpt lat="42.651619" lon="0.658515">
        <ele>2552.7</ele>
        <time>1970-01-01T07:43:26.000Z</time>
      </trkpt>
      <trkpt lat="42.651625" lon="0.658556">
        <ele>2551.7</ele>
        <time>1970-01-01T07:43:28.000Z</time>
      </trkpt>
      <trkpt lat="42.651627" lon="0.658556">
        <ele>2551.6</ele>
        <time>1970-01-01T07:43:29.000Z</time>
      </trkpt>
      <trkpt lat="42.651627" lon="0.658564">
        <ele>2551.4</ele>
        <time>1970-01-01T07:43:30.000Z</time>
      </trkpt>
      <trkpt lat="42.651627" lon="0.658572">
        <ele>2551.3</ele>
        <time>1970-01-01T07:43:31.000Z</time>
      </trkpt>
      <trkpt lat="42.651626" lon="0.658581">
        <ele>2551</ele>
        <time>1970-01-01T07:43:32.000Z</time>
      </trkpt>
      <trkpt lat="42.651626" lon="0.658589">
        <ele>2550.8</ele>
        <time>1970-01-01T07:43:33.000Z</time>
      </trkpt>
      <trkpt lat="42.651625" lon="0.658597">
        <ele>2550.6</ele>
        <time>1970-01-01T07:43:34.000Z</time>
      </trkpt>
      <trkpt lat="42.651625" lon="0.658605">
        <ele>2550.4</ele>
        <time>1970-01-01T07:43:35.000Z</time>
      </trkpt>
      <trkpt lat="42.651628" lon="0.658619">
        <ele>2550.1</ele>
        <time>1970-01-01T07:43:36.000Z</time>
      </trkpt>
      <trkpt lat="42.65163" lon="0.658626">
        <ele>2549.9</ele>
        <time>1970-01-01T07:43:37.000Z</time>
      </trkpt>
      <trkpt lat="42.651632" lon="0.658633">
        <ele>2549.7</ele>
        <time>1970-01-01T07:43:38.000Z</time>
      </trkpt>
      <trkpt lat="42.651634" lon="0.658641">
        <ele>2549.5</ele>
        <time>1970-01-01T07:43:39.000Z</time>
      </trkpt>
      <trkpt lat="42.651636" lon="0.658648">
        <ele>2549.3</ele>
        <time>1970-01-01T07:43:40.000Z</time>
      </trkpt>
      <trkpt lat="42.651639" lon="0.658655">
        <ele>2549.1</ele>
        <time>1970-01-01T07:43:41.000Z</time>
      </trkpt>
      <trkpt lat="42.651631" lon="0.658673">
        <ele>2548.6</ele>
        <time>1970-01-01T07:43:42.000Z</time>
      </trkpt>
      <trkpt lat="42.651623" lon="0.658676">
        <ele>2548.3</ele>
        <time>1970-01-01T07:43:43.000Z</time>
      </trkpt>
      <trkpt lat="42.651618" lon="0.658679">
        <ele>2548.2</ele>
        <time>1970-01-01T07:43:44.000Z</time>
      </trkpt>
      <trkpt lat="42.651612" lon="0.658685">
        <ele>2547.9</ele>
        <time>1970-01-01T07:43:45.000Z</time>
      </trkpt>
      <trkpt lat="42.651606" lon="0.658691">
        <ele>2547.7</ele>
        <time>1970-01-01T07:43:46.000Z</time>
      </trkpt>
      <trkpt lat="42.651602" lon="0.658696">
        <ele>2547.5</ele>
        <time>1970-01-01T07:43:47.000Z</time>
      </trkpt>
      <trkpt lat="42.651595" lon="0.658718">
        <ele>2546.9</ele>
        <time>1970-01-01T07:43:49.000Z</time>
      </trkpt>
      <trkpt lat="42.651596" lon="0.658738">
        <ele>2546.4</ele>
        <time>1970-01-01T07:43:50.000Z</time>
      </trkpt>
      <trkpt lat="42.651601" lon="0.658753">
        <ele>2546</ele>
        <time>1970-01-01T07:43:51.000Z</time>
      </trkpt>
      <trkpt lat="42.651606" lon="0.658748">
        <ele>2545.8</ele>
        <time>1970-01-01T07:43:52.000Z</time>
      </trkpt>
      <trkpt lat="42.651609" lon="0.658747">
        <ele>2545.7</ele>
        <time>1970-01-01T07:43:53.000Z</time>
      </trkpt>
      <trkpt lat="42.651612" lon="0.658747">
        <ele>2545.6</ele>
        <time>1970-01-01T07:43:54.000Z</time>
      </trkpt>
      <trkpt lat="42.651613" lon="0.658744">
        <ele>2545.5</ele>
        <time>1970-01-01T07:43:55.000Z</time>
      </trkpt>
      <trkpt lat="42.651615" lon="0.65874">
        <ele>2545.4</ele>
        <time>1970-01-01T07:43:56.000Z</time>
      </trkpt>
      <trkpt lat="42.651614" lon="0.658733">
        <ele>2545.2</ele>
        <time>1970-01-01T07:43:57.000Z</time>
      </trkpt>
      <trkpt lat="42.651615" lon="0.658732">
        <ele>2545.2</ele>
        <time>1970-01-01T07:43:58.000Z</time>
      </trkpt>
      <trkpt lat="42.651611" lon="0.658734">
        <ele>2545</ele>
        <time>1970-01-01T07:44:00.000Z</time>
      </trkpt>
      <trkpt lat="42.651605" lon="0.658735">
        <ele>2544.9</ele>
        <time>1970-01-01T07:44:01.000Z</time>
      </trkpt>
      <trkpt lat="42.651601" lon="0.658733">
        <ele>2544.7</ele>
        <time>1970-01-01T07:44:02.000Z</time>
      </trkpt>
      <trkpt lat="42.651597" lon="0.658745">
        <ele>2544.4</ele>
        <time>1970-01-01T07:44:03.000Z</time>
      </trkpt>
      <trkpt lat="42.651591" lon="0.65875">
        <ele>2544.2</ele>
        <time>1970-01-01T07:44:04.000Z</time>
      </trkpt>
      <trkpt lat="42.651592" lon="0.658744">
        <ele>2544</ele>
        <time>1970-01-01T07:44:05.000Z</time>
      </trkpt>
      <trkpt lat="42.651591" lon="0.658741">
        <ele>2544</ele>
        <time>1970-01-01T07:44:06.000Z</time>
      </trkpt>
      <trkpt lat="42.651588" lon="0.658743">
        <ele>2543.8</ele>
        <time>1970-01-01T07:44:07.000Z</time>
      </trkpt>
      <trkpt lat="42.651585" lon="0.658743">
        <ele>2543.7</ele>
        <time>1970-01-01T07:44:08.000Z</time>
      </trkpt>
      <trkpt lat="42.651585" lon="0.658745">
        <ele>2543.7</ele>
        <time>1970-01-01T07:44:09.000Z</time>
      </trkpt>
      <trkpt lat="42.651584" lon="0.658746">
        <ele>2543.7</ele>
        <time>1970-01-01T07:44:10.000Z</time>
      </trkpt>
      <trkpt lat="42.651583" lon="0.658746">
        <ele>2543.6</ele>
        <time>1970-01-01T07:44:12.000Z</time>
      </trkpt>
      <trkpt lat="42.651584" lon="0.658743">
        <ele>2543.6</ele>
        <time>1970-01-01T07:44:13.000Z</time>
      </trkpt>
      <trkpt lat="42.651597" lon="0.658741">
        <ele>2543.1</ele>
        <time>1970-01-01T07:44:14.000Z</time>
      </trkpt>
      <trkpt lat="42.6516" lon="0.658727">
        <ele>2542.8</ele>
        <time>1970-01-01T07:44:15.000Z</time>
      </trkpt>
      <trkpt lat="42.651608" lon="0.658725">
        <ele>2542.5</ele>
        <time>1970-01-01T07:44:17.000Z</time>
      </trkpt>
      <trkpt lat="42.651608" lon="0.658725">
        <ele>2542.5</ele>
        <time>1970-01-01T07:44:18.000Z</time>
      </trkpt>
      <trkpt lat="42.651612" lon="0.658732">
        <ele>2542.3</ele>
        <time>1970-01-01T07:44:19.000Z</time>
      </trkpt>
      <trkpt lat="42.651629" lon="0.658727">
        <ele>2541.8</ele>
        <time>1970-01-01T07:44:20.000Z</time>
      </trkpt>
      <trkpt lat="42.651634" lon="0.658701">
        <ele>2541.1</ele>
        <time>1970-01-01T07:44:21.000Z</time>
      </trkpt>
      <trkpt lat="42.651635" lon="0.65869">
        <ele>2540.9</ele>
        <time>1970-01-01T07:44:22.000Z</time>
      </trkpt>
      <trkpt lat="42.651649" lon="0.658694">
        <ele>2540.4</ele>
        <time>1970-01-01T07:44:23.000Z</time>
      </trkpt>
      <trkpt lat="42.651652" lon="0.658701">
        <ele>2540.2</ele>
        <time>1970-01-01T07:44:24.000Z</time>
      </trkpt>
      <trkpt lat="42.651645" lon="0.658689">
        <ele>2539.8</ele>
        <time>1970-01-01T07:44:25.000Z</time>
      </trkpt>
      <trkpt lat="42.651644" lon="0.65869">
        <ele>2539.8</ele>
        <time>1970-01-01T07:44:27.000Z</time>
      </trkpt>
      <trkpt lat="42.651642" lon="0.658693">
        <ele>2539.7</ele>
        <time>1970-01-01T07:44:28.000Z</time>
      </trkpt>
      <trkpt lat="42.651639" lon="0.658693">
        <ele>2539.6</ele>
        <time>1970-01-01T07:44:29.000Z</time>
      </trkpt>
      <trkpt lat="42.651636" lon="0.658698">
        <ele>2539.5</ele>
        <time>1970-01-01T07:44:30.000Z</time>
      </trkpt>
      <trkpt lat="42.651628" lon="0.658706">
        <ele>2539.1</ele>
        <time>1970-01-01T07:44:31.000Z</time>
      </trkpt>
      <trkpt lat="42.651626" lon="0.658709">
        <ele>2539</ele>
        <time>1970-01-01T07:44:32.000Z</time>
      </trkpt>
      <trkpt lat="42.651623" lon="0.658712">
        <ele>2538.9</ele>
        <time>1970-01-01T07:44:33.000Z</time>
      </trkpt>
      <trkpt lat="42.65162" lon="0.658717">
        <ele>2538.8</ele>
        <time>1970-01-01T07:44:34.000Z</time>
      </trkpt>
      <trkpt lat="42.651616" lon="0.658717">
        <ele>2538.6</ele>
        <time>1970-01-01T07:44:35.000Z</time>
      </trkpt>
      <trkpt lat="42.651613" lon="0.658717">
        <ele>2538.5</ele>
        <time>1970-01-01T07:44:36.000Z</time>
      </trkpt>
      <trkpt lat="42.651628" lon="0.658709">
        <ele>2538</ele>
        <time>1970-01-01T07:44:37.000Z</time>
      </trkpt>
      <trkpt lat="42.651629" lon="0.658708">
        <ele>2538</ele>
        <time>1970-01-01T07:44:39.000Z</time>
      </trkpt>
      <trkpt lat="42.65163" lon="0.658702">
        <ele>2537.8</ele>
        <time>1970-01-01T07:44:40.000Z</time>
      </trkpt>
      <trkpt lat="42.651629" lon="0.658692">
        <ele>2537.6</ele>
        <time>1970-01-01T07:44:41.000Z</time>
      </trkpt>
      <trkpt lat="42.651633" lon="0.658681">
        <ele>2537.3</ele>
        <time>1970-01-01T07:44:42.000Z</time>
      </trkpt>
      <trkpt lat="42.651644" lon="0.658664">
        <ele>2536.7</ele>
        <time>1970-01-01T07:44:43.000Z</time>
      </trkpt>
      <trkpt lat="42.651648" lon="0.658657">
        <ele>2536.5</ele>
        <time>1970-01-01T07:44:45.000Z</time>
      </trkpt>
      <trkpt lat="42.651653" lon="0.65865">
        <ele>2536.2</ele>
        <time>1970-01-01T07:44:46.000Z</time>
      </trkpt>
      <trkpt lat="42.651657" lon="0.658644">
        <ele>2536</ele>
        <time>1970-01-01T07:44:47.000Z</time>
      </trkpt>
      <trkpt lat="42.651661" lon="0.658637">
        <ele>2535.8</ele>
        <time>1970-01-01T07:44:48.000Z</time>
      </trkpt>
      <trkpt lat="42.651664" lon="0.658623">
        <ele>2535.5</ele>
        <time>1970-01-01T07:44:49.000Z</time>
      </trkpt>
      <trkpt lat="42.651667" lon="0.658606">
        <ele>2535</ele>
        <time>1970-01-01T07:44:50.000Z</time>
      </trkpt>
      <trkpt lat="42.651669" lon="0.658606">
        <ele>2535</ele>
        <time>1970-01-01T07:44:52.000Z</time>
      </trkpt>
      <trkpt lat="42.651679" lon="0.658596">
        <ele>2534.5</ele>
        <time>1970-01-01T07:44:53.000Z</time>
      </trkpt>
      <trkpt lat="42.651682" lon="0.658604">
        <ele>2534.3</ele>
        <time>1970-01-01T07:44:55.000Z</time>
      </trkpt>
      <trkpt lat="42.651678" lon="0.658621">
        <ele>2533.9</ele>
        <time>1970-01-01T07:44:57.000Z</time>
      </trkpt>
      <trkpt lat="42.651678" lon="0.658625">
        <ele>2533.8</ele>
        <time>1970-01-01T07:44:58.000Z</time>
      </trkpt>
      <trkpt lat="42.651678" lon="0.65863">
        <ele>2533.7</ele>
        <time>1970-01-01T07:44:59.000Z</time>
      </trkpt>
      <trkpt lat="42.651679" lon="0.658636">
        <ele>2533.5</ele>
        <time>1970-01-01T07:45:00.000Z</time>
      </trkpt>
      <trkpt lat="42.651679" lon="0.658646">
        <ele>2533.3</ele>
        <time>1970-01-01T07:45:01.000Z</time>
      </trkpt>
      <trkpt lat="42.65168" lon="0.658651">
        <ele>2533.1</ele>
        <time>1970-01-01T07:45:02.000Z</time>
      </trkpt>
      <trkpt lat="42.651683" lon="0.658658">
        <ele>2532.9</ele>
        <time>1970-01-01T07:45:03.000Z</time>
      </trkpt>
      <trkpt lat="42.651684" lon="0.658664">
        <ele>2532.8</ele>
        <time>1970-01-01T07:45:04.000Z</time>
      </trkpt>
      <trkpt lat="42.651683" lon="0.658669">
        <ele>2532.7</ele>
        <time>1970-01-01T07:45:05.000Z</time>
      </trkpt>
      <trkpt lat="42.651682" lon="0.658674">
        <ele>2532.5</ele>
        <time>1970-01-01T07:45:06.000Z</time>
      </trkpt>
      <trkpt lat="42.651681" lon="0.658681">
        <ele>2532.4</ele>
        <time>1970-01-01T07:45:07.000Z</time>
      </trkpt>
      <trkpt lat="42.651682" lon="0.658684">
        <ele>2532.3</ele>
        <time>1970-01-01T07:45:08.000Z</time>
      </trkpt>
      <trkpt lat="42.65168" lon="0.658692">
        <ele>2532.1</ele>
        <time>1970-01-01T07:45:09.000Z</time>
      </trkpt>
      <trkpt lat="42.651679" lon="0.658699">
        <ele>2531.9</ele>
        <time>1970-01-01T07:45:11.000Z</time>
      </trkpt>
      <trkpt lat="42.651679" lon="0.658703">
        <ele>2531.8</ele>
        <time>1970-01-01T07:45:12.000Z</time>
      </trkpt>
      <trkpt lat="42.651679" lon="0.658708">
        <ele>2531.7</ele>
        <time>1970-01-01T07:45:13.000Z</time>
      </trkpt>
      <trkpt lat="42.651677" lon="0.658711">
        <ele>2531.6</ele>
        <time>1970-01-01T07:45:14.000Z</time>
      </trkpt>
      <trkpt lat="42.651676" lon="0.658712">
        <ele>2531.5</ele>
        <time>1970-01-01T07:45:15.000Z</time>
      </trkpt>
      <trkpt lat="42.651673" lon="0.658717">
        <ele>2531.4</ele>
        <time>1970-01-01T07:45:16.000Z</time>
      </trkpt>
      <trkpt lat="42.65167" lon="0.658721">
        <ele>2531.3</ele>
        <time>1970-01-01T07:45:18.000Z</time>
      </trkpt>
      <trkpt lat="42.651667" lon="0.658727">
        <ele>2531.1</ele>
        <time>1970-01-01T07:45:19.000Z</time>
      </trkpt>
      <trkpt lat="42.65166" lon="0.658749">
        <ele>2530.5</ele>
        <time>1970-01-01T07:45:20.000Z</time>
      </trkpt>
      <trkpt lat="42.65166" lon="0.658764">
        <ele>2530.2</ele>
        <time>1970-01-01T07:45:21.000Z</time>
      </trkpt>
      <trkpt lat="42.651665" lon="0.658797">
        <ele>2529.4</ele>
        <time>1970-01-01T07:45:22.000Z</time>
      </trkpt>
      <trkpt lat="42.651674" lon="0.658816">
        <ele>2528.8</ele>
        <time>1970-01-01T07:45:23.000Z</time>
      </trkpt>
      <trkpt lat="42.651684" lon="0.658844">
        <ele>2528.1</ele>
        <time>1970-01-01T07:45:25.000Z</time>
      </trkpt>
      <trkpt lat="42.651684" lon="0.658843">
        <ele>2528.1</ele>
        <time>1970-01-01T07:45:26.000Z</time>
      </trkpt>
      <trkpt lat="42.651686" lon="0.658844">
        <ele>2528</ele>
        <time>1970-01-01T07:45:27.000Z</time>
      </trkpt>
      <trkpt lat="42.651687" lon="0.658843">
        <ele>2528</ele>
        <time>1970-01-01T07:45:28.000Z</time>
      </trkpt>
      <trkpt lat="42.651687" lon="0.658841">
        <ele>2528</ele>
        <time>1970-01-01T07:45:29.000Z</time>
      </trkpt>
      <trkpt lat="42.651686" lon="0.658839">
        <ele>2527.9</ele>
        <time>1970-01-01T07:45:30.000Z</time>
      </trkpt>
      <trkpt lat="42.651685" lon="0.658838">
        <ele>2527.9</ele>
        <time>1970-01-01T07:45:31.000Z</time>
      </trkpt>
      <trkpt lat="42.651684" lon="0.658838">
        <ele>2527.8</ele>
        <time>1970-01-01T07:45:32.000Z</time>
      </trkpt>
      <trkpt lat="42.651685" lon="0.658839">
        <ele>2527.8</ele>
        <time>1970-01-01T07:45:33.000Z</time>
      </trkpt>
      <trkpt lat="42.651686" lon="0.658843">
        <ele>2527.7</ele>
        <time>1970-01-01T07:45:34.000Z</time>
      </trkpt>
      <trkpt lat="42.651687" lon="0.658847">
        <ele>2527.6</ele>
        <time>1970-01-01T07:45:35.000Z</time>
      </trkpt>
      <trkpt lat="42.651689" lon="0.658857">
        <ele>2527.4</ele>
        <time>1970-01-01T07:45:36.000Z</time>
      </trkpt>
      <trkpt lat="42.651695" lon="0.658872">
        <ele>2527</ele>
        <time>1970-01-01T07:45:37.000Z</time>
      </trkpt>
      <trkpt lat="42.651704" lon="0.658892">
        <ele>2526.4</ele>
        <time>1970-01-01T07:45:39.000Z</time>
      </trkpt>
      <trkpt lat="42.651715" lon="0.658908">
        <ele>2525.9</ele>
        <time>1970-01-01T07:45:40.000Z</time>
      </trkpt>
      <trkpt lat="42.651727" lon="0.658914">
        <ele>2525.5</ele>
        <time>1970-01-01T07:45:41.000Z</time>
      </trkpt>
      <trkpt lat="42.65174" lon="0.658907">
        <ele>2525.1</ele>
        <time>1970-01-01T07:45:42.000Z</time>
      </trkpt>
      <trkpt lat="42.65175" lon="0.658891">
        <ele>2524.6</ele>
        <time>1970-01-01T07:45:43.000Z</time>
      </trkpt>
      <trkpt lat="42.65175" lon="0.658894">
        <ele>2524.5</ele>
        <time>1970-01-01T07:45:44.000Z</time>
      </trkpt>
      <trkpt lat="42.651753" lon="0.658902">
        <ele>2524.3</ele>
        <time>1970-01-01T07:45:45.000Z</time>
      </trkpt>
      <trkpt lat="42.651758" lon="0.658907">
        <ele>2524.1</ele>
        <time>1970-01-01T07:45:46.000Z</time>
      </trkpt>
      <trkpt lat="42.651772" lon="0.658912">
        <ele>2523.7</ele>
        <time>1970-01-01T07:45:48.000Z</time>
      </trkpt>
      <trkpt lat="42.651781" lon="0.658909">
        <ele>2523.4</ele>
        <time>1970-01-01T07:45:49.000Z</time>
      </trkpt>
      <trkpt lat="42.651782" lon="0.658913">
        <ele>2523.3</ele>
        <time>1970-01-01T07:45:50.000Z</time>
      </trkpt>
      <trkpt lat="42.651782" lon="0.658922">
        <ele>2523.1</ele>
        <time>1970-01-01T07:45:51.000Z</time>
      </trkpt>
      <trkpt lat="42.651777" lon="0.658941">
        <ele>2522.7</ele>
        <time>1970-01-01T07:45:52.000Z</time>
      </trkpt>
      <trkpt lat="42.651776" lon="0.658965">
        <ele>2522.1</ele>
        <time>1970-01-01T07:45:54.000Z</time>
      </trkpt>
      <trkpt lat="42.651769" lon="0.658984">
        <ele>2521.7</ele>
        <time>1970-01-01T07:45:55.000Z</time>
      </trkpt>
      <trkpt lat="42.651764" lon="0.658998">
        <ele>2521.3</ele>
        <time>1970-01-01T07:45:56.000Z</time>
      </trkpt>
      <trkpt lat="42.651766" lon="0.659009">
        <ele>2521.1</ele>
        <time>1970-01-01T07:45:57.000Z</time>
      </trkpt>
      <trkpt lat="42.651771" lon="0.659021">
        <ele>2520.8</ele>
        <time>1970-01-01T07:45:59.000Z</time>
      </trkpt>
      <trkpt lat="42.651774" lon="0.659034">
        <ele>2520.6</ele>
        <time>1970-01-01T07:46:00.000Z</time>
      </trkpt>
      <trkpt lat="42.651772" lon="0.659046">
        <ele>2520.3</ele>
        <time>1970-01-01T07:46:01.000Z</time>
      </trkpt>
      <trkpt lat="42.65177" lon="0.659059">
        <ele>2520.1</ele>
        <time>1970-01-01T07:46:02.000Z</time>
      </trkpt>
      <trkpt lat="42.651763" lon="0.659073">
        <ele>2519.7</ele>
        <time>1970-01-01T07:46:04.000Z</time>
      </trkpt>
      <trkpt lat="42.651757" lon="0.659085">
        <ele>2519.5</ele>
        <time>1970-01-01T07:46:05.000Z</time>
      </trkpt>
      <trkpt lat="42.651754" lon="0.659091">
        <ele>2519.3</ele>
        <time>1970-01-01T07:46:06.000Z</time>
      </trkpt>
      <trkpt lat="42.65175" lon="0.659108">
        <ele>2519</ele>
        <time>1970-01-01T07:46:08.000Z</time>
      </trkpt>
      <trkpt lat="42.65175" lon="0.659123">
        <ele>2518.7</ele>
        <time>1970-01-01T07:46:09.000Z</time>
      </trkpt>
      <trkpt lat="42.651759" lon="0.659135">
        <ele>2518.4</ele>
        <time>1970-01-01T07:46:10.000Z</time>
      </trkpt>
      <trkpt lat="42.651766" lon="0.659146">
        <ele>2518.2</ele>
        <time>1970-01-01T07:46:12.000Z</time>
      </trkpt>
      <trkpt lat="42.651775" lon="0.659155">
        <ele>2517.9</ele>
        <time>1970-01-01T07:46:13.000Z</time>
      </trkpt>
      <trkpt lat="42.651793" lon="0.65917">
        <ele>2517.5</ele>
        <time>1970-01-01T07:46:15.000Z</time>
      </trkpt>
      <trkpt lat="42.651803" lon="0.659176">
        <ele>2517.2</ele>
        <time>1970-01-01T07:46:16.000Z</time>
      </trkpt>
      <trkpt lat="42.651815" lon="0.659177">
        <ele>2517</ele>
        <time>1970-01-01T07:46:17.000Z</time>
      </trkpt>
      <trkpt lat="42.651824" lon="0.659174">
        <ele>2516.8</ele>
        <time>1970-01-01T07:46:18.000Z</time>
      </trkpt>
      <trkpt lat="42.65183" lon="0.659172">
        <ele>2516.6</ele>
        <time>1970-01-01T07:46:19.000Z</time>
      </trkpt>
      <trkpt lat="42.651839" lon="0.659169">
        <ele>2516.4</ele>
        <time>1970-01-01T07:46:20.000Z</time>
      </trkpt>
      <trkpt lat="42.651849" lon="0.659169">
        <ele>2510.6</ele>
        <time>1970-01-01T07:46:21.000Z</time>
      </trkpt>
      <trkpt lat="42.651858" lon="0.659169">
        <ele>2510.5</ele>
        <time>1970-01-01T07:46:22.000Z</time>
      </trkpt>
      <trkpt lat="42.651868" lon="0.659169">
        <ele>2510.3</ele>
        <time>1970-01-01T07:46:23.000Z</time>
      </trkpt>
      <trkpt lat="42.651877" lon="0.659168">
        <ele>2510.1</ele>
        <time>1970-01-01T07:46:24.000Z</time>
      </trkpt>
      <trkpt lat="42.651888" lon="0.659165">
        <ele>2509.9</ele>
        <time>1970-01-01T07:46:25.000Z</time>
      </trkpt>
      <trkpt lat="42.651898" lon="0.659158">
        <ele>2509.6</ele>
        <time>1970-01-01T07:46:27.000Z</time>
      </trkpt>
      <trkpt lat="42.651909" lon="0.659144">
        <ele>2509.3</ele>
        <time>1970-01-01T07:46:28.000Z</time>
      </trkpt>
      <trkpt lat="42.651913" lon="0.659136">
        <ele>2509.2</ele>
        <time>1970-01-01T07:46:29.000Z</time>
      </trkpt>
      <trkpt lat="42.651921" lon="0.659132">
        <ele>2509</ele>
        <time>1970-01-01T07:46:30.000Z</time>
      </trkpt>
      <trkpt lat="42.651926" lon="0.65913">
        <ele>2508.9</ele>
        <time>1970-01-01T07:46:31.000Z</time>
      </trkpt>
      <trkpt lat="42.651934" lon="0.659131">
        <ele>2508.8</ele>
        <time>1970-01-01T07:46:33.000Z</time>
      </trkpt>
      <trkpt lat="42.651942" lon="0.659135">
        <ele>2508.6</ele>
        <time>1970-01-01T07:46:34.000Z</time>
      </trkpt>
      <trkpt lat="42.651949" lon="0.659136">
        <ele>2508.5</ele>
        <time>1970-01-01T07:46:35.000Z</time>
      </trkpt>
      <trkpt lat="42.651958" lon="0.659134">
        <ele>2508.3</ele>
        <time>1970-01-01T07:46:36.000Z</time>
      </trkpt>
      <trkpt lat="42.651965" lon="0.659125">
        <ele>2508.1</ele>
        <time>1970-01-01T07:46:37.000Z</time>
      </trkpt>
      <trkpt lat="42.651973" lon="0.65912">
        <ele>2507.9</ele>
        <time>1970-01-01T07:46:38.000Z</time>
      </trkpt>
      <trkpt lat="42.651979" lon="0.659118">
        <ele>2507.8</ele>
        <time>1970-01-01T07:46:39.000Z</time>
      </trkpt>
      <trkpt lat="42.651988" lon="0.659115">
        <ele>2507.6</ele>
        <time>1970-01-01T07:46:40.000Z</time>
      </trkpt>
      <trkpt lat="42.651997" lon="0.659111">
        <ele>2507.4</ele>
        <time>1970-01-01T07:46:41.000Z</time>
      </trkpt>
      <trkpt lat="42.652004" lon="0.659111">
        <ele>2507.3</ele>
        <time>1970-01-01T07:46:42.000Z</time>
      </trkpt>
      <trkpt lat="42.652014" lon="0.659112">
        <ele>2507.1</ele>
        <time>1970-01-01T07:46:43.000Z</time>
      </trkpt>
      <trkpt lat="42.652024" lon="0.659118">
        <ele>2506.9</ele>
        <time>1970-01-01T07:46:44.000Z</time>
      </trkpt>
      <trkpt lat="42.652033" lon="0.659123">
        <ele>2506.7</ele>
        <time>1970-01-01T07:46:46.000Z</time>
      </trkpt>
      <trkpt lat="42.652041" lon="0.659123">
        <ele>2506.5</ele>
        <time>1970-01-01T07:46:47.000Z</time>
      </trkpt>
      <trkpt lat="42.652049" lon="0.659118">
        <ele>2506.3</ele>
        <time>1970-01-01T07:46:48.000Z</time>
      </trkpt>
      <trkpt lat="42.652056" lon="0.659114">
        <ele>2506.2</ele>
        <time>1970-01-01T07:46:49.000Z</time>
      </trkpt>
      <trkpt lat="42.65206" lon="0.659112">
        <ele>2506.1</ele>
        <time>1970-01-01T07:46:50.000Z</time>
      </trkpt>
      <trkpt lat="42.652065" lon="0.659114">
        <ele>2506</ele>
        <time>1970-01-01T07:46:51.000Z</time>
      </trkpt>
      <trkpt lat="42.652078" lon="0.659113">
        <ele>2505.7</ele>
        <time>1970-01-01T07:46:53.000Z</time>
      </trkpt>
      <trkpt lat="42.65209" lon="0.659106">
        <ele>2505.5</ele>
        <time>1970-01-01T07:46:54.000Z</time>
      </trkpt>
      <trkpt lat="42.652099" lon="0.659102">
        <ele>2505.3</ele>
        <time>1970-01-01T07:46:55.000Z</time>
      </trkpt>
      <trkpt lat="42.652108" lon="0.659098">
        <ele>2505.1</ele>
        <time>1970-01-01T07:46:56.000Z</time>
      </trkpt>
      <trkpt lat="42.652114" lon="0.659096">
        <ele>2505</ele>
        <time>1970-01-01T07:46:57.000Z</time>
      </trkpt>
      <trkpt lat="42.652124" lon="0.659103">
        <ele>2504.7</ele>
        <time>1970-01-01T07:46:58.000Z</time>
      </trkpt>
      <trkpt lat="42.652132" lon="0.659101">
        <ele>2504.6</ele>
        <time>1970-01-01T07:47:00.000Z</time>
      </trkpt>
      <trkpt lat="42.652139" lon="0.659102">
        <ele>2504.4</ele>
        <time>1970-01-01T07:47:01.000Z</time>
      </trkpt>
      <trkpt lat="42.652145" lon="0.659122">
        <ele>2504.1</ele>
        <time>1970-01-01T07:47:03.000Z</time>
      </trkpt>
      <trkpt lat="42.652148" lon="0.659133">
        <ele>2503.9</ele>
        <time>1970-01-01T07:47:04.000Z</time>
      </trkpt>
      <trkpt lat="42.652153" lon="0.659144">
        <ele>2503.7</ele>
        <time>1970-01-01T07:47:05.000Z</time>
      </trkpt>
      <trkpt lat="42.65216" lon="0.659147">
        <ele>2503.6</ele>
        <time>1970-01-01T07:47:06.000Z</time>
      </trkpt>
      <trkpt lat="42.652167" lon="0.659146">
        <ele>2503.5</ele>
        <time>1970-01-01T07:47:07.000Z</time>
      </trkpt>
      <trkpt lat="42.652176" lon="0.659145">
        <ele>2503.3</ele>
        <time>1970-01-01T07:47:08.000Z</time>
      </trkpt>
      <trkpt lat="42.652187" lon="0.659141">
        <ele>2503</ele>
        <time>1970-01-01T07:47:10.000Z</time>
      </trkpt>
      <trkpt lat="42.652195" lon="0.659135">
        <ele>2502.8</ele>
        <time>1970-01-01T07:47:11.000Z</time>
      </trkpt>
      <trkpt lat="42.652201" lon="0.65913">
        <ele>2502.7</ele>
        <time>1970-01-01T07:47:12.000Z</time>
      </trkpt>
      <trkpt lat="42.65221" lon="0.659127">
        <ele>2502.5</ele>
        <time>1970-01-01T07:47:13.000Z</time>
      </trkpt>
      <trkpt lat="42.652222" lon="0.659127">
        <ele>2502.3</ele>
        <time>1970-01-01T07:47:15.000Z</time>
      </trkpt>
      <trkpt lat="42.652228" lon="0.659128">
        <ele>2502.1</ele>
        <time>1970-01-01T07:47:16.000Z</time>
      </trkpt>
      <trkpt lat="42.65223" lon="0.659129">
        <ele>2502.1</ele>
        <time>1970-01-01T07:47:17.000Z</time>
      </trkpt>
      <trkpt lat="42.652236" lon="0.659138">
        <ele>2501.9</ele>
        <time>1970-01-01T07:47:18.000Z</time>
      </trkpt>
      <trkpt lat="42.652241" lon="0.659145">
        <ele>2501.8</ele>
        <time>1970-01-01T07:47:19.000Z</time>
      </trkpt>
      <trkpt lat="42.65225" lon="0.65915">
        <ele>2501.6</ele>
        <time>1970-01-01T07:47:20.000Z</time>
      </trkpt>
      <trkpt lat="42.652259" lon="0.659155">
        <ele>2501.4</ele>
        <time>1970-01-01T07:47:21.000Z</time>
      </trkpt>
      <trkpt lat="42.652267" lon="0.659161">
        <ele>2501.2</ele>
        <time>1970-01-01T07:47:23.000Z</time>
      </trkpt>
      <trkpt lat="42.652273" lon="0.659165">
        <ele>2501.1</ele>
        <time>1970-01-01T07:47:24.000Z</time>
      </trkpt>
      <trkpt lat="42.652277" lon="0.659169">
        <ele>2501</ele>
        <time>1970-01-01T07:47:25.000Z</time>
      </trkpt>
      <trkpt lat="42.652282" lon="0.659175">
        <ele>2500.8</ele>
        <time>1970-01-01T07:47:26.000Z</time>
      </trkpt>
      <trkpt lat="42.652286" lon="0.65918">
        <ele>2500.7</ele>
        <time>1970-01-01T07:47:27.000Z</time>
      </trkpt>
      <trkpt lat="42.652292" lon="0.659181">
        <ele>2500.6</ele>
        <time>1970-01-01T07:47:28.000Z</time>
      </trkpt>
      <trkpt lat="42.652298" lon="0.659178">
        <ele>2500.5</ele>
        <time>1970-01-01T07:47:29.000Z</time>
      </trkpt>
      <trkpt lat="42.652303" lon="0.659171">
        <ele>2500.3</ele>
        <time>1970-01-01T07:47:31.000Z</time>
      </trkpt>
      <trkpt lat="42.652305" lon="0.659166">
        <ele>2500.2</ele>
        <time>1970-01-01T07:47:32.000Z</time>
      </trkpt>
      <trkpt lat="42.652319" lon="0.659156">
        <ele>2499.9</ele>
        <time>1970-01-01T07:47:33.000Z</time>
      </trkpt>
      <trkpt lat="42.652327" lon="0.659154">
        <ele>2499.7</ele>
        <time>1970-01-01T07:47:35.000Z</time>
      </trkpt>
      <trkpt lat="42.652334" lon="0.659153">
        <ele>2499.6</ele>
        <time>1970-01-01T07:47:36.000Z</time>
      </trkpt>
      <trkpt lat="42.652341" lon="0.659152">
        <ele>2499.4</ele>
        <time>1970-01-01T07:47:37.000Z</time>
      </trkpt>
      <trkpt lat="42.652354" lon="0.659151">
        <ele>2499.2</ele>
        <time>1970-01-01T07:47:39.000Z</time>
      </trkpt>
      <trkpt lat="42.652366" lon="0.659153">
        <ele>2498.9</ele>
        <time>1970-01-01T07:47:40.000Z</time>
      </trkpt>
      <trkpt lat="42.652375" lon="0.659157">
        <ele>2498.7</ele>
        <time>1970-01-01T07:47:41.000Z</time>
      </trkpt>
      <trkpt lat="42.652384" lon="0.659163">
        <ele>2498.5</ele>
        <time>1970-01-01T07:47:42.000Z</time>
      </trkpt>
      <trkpt lat="42.652394" lon="0.659171">
        <ele>2498.3</ele>
        <time>1970-01-01T07:47:43.000Z</time>
      </trkpt>
      <trkpt lat="42.652403" lon="0.659177">
        <ele>2498.1</ele>
        <time>1970-01-01T07:47:44.000Z</time>
      </trkpt>
      <trkpt lat="42.652409" lon="0.659181">
        <ele>2498</ele>
        <time>1970-01-01T07:47:45.000Z</time>
      </trkpt>
      <trkpt lat="42.652417" lon="0.659188">
        <ele>2497.8</ele>
        <time>1970-01-01T07:47:46.000Z</time>
      </trkpt>
      <trkpt lat="42.652426" lon="0.659193">
        <ele>2497.6</ele>
        <time>1970-01-01T07:47:48.000Z</time>
      </trkpt>
      <trkpt lat="42.652437" lon="0.659193">
        <ele>2497.3</ele>
        <time>1970-01-01T07:47:49.000Z</time>
      </trkpt>
      <trkpt lat="42.652447" lon="0.659189">
        <ele>2497.1</ele>
        <time>1970-01-01T07:47:50.000Z</time>
      </trkpt>
      <trkpt lat="42.652457" lon="0.659186">
        <ele>2496.9</ele>
        <time>1970-01-01T07:47:51.000Z</time>
      </trkpt>
      <trkpt lat="42.652467" lon="0.659184">
        <ele>2496.7</ele>
        <time>1970-01-01T07:47:52.000Z</time>
      </trkpt>
      <trkpt lat="42.652476" lon="0.65918">
        <ele>2496.5</ele>
        <time>1970-01-01T07:47:53.000Z</time>
      </trkpt>
      <trkpt lat="42.652483" lon="0.659175">
        <ele>2496.3</ele>
        <time>1970-01-01T07:47:54.000Z</time>
      </trkpt>
      <trkpt lat="42.652492" lon="0.659164">
        <ele>2496.1</ele>
        <time>1970-01-01T07:47:55.000Z</time>
      </trkpt>
      <trkpt lat="42.652501" lon="0.659152">
        <ele>2495.8</ele>
        <time>1970-01-01T07:47:56.000Z</time>
      </trkpt>
      <trkpt lat="42.652507" lon="0.659142">
        <ele>2495.6</ele>
        <time>1970-01-01T07:47:57.000Z</time>
      </trkpt>
      <trkpt lat="42.652512" lon="0.659137">
        <ele>2495.5</ele>
        <time>1970-01-01T07:47:58.000Z</time>
      </trkpt>
      <trkpt lat="42.652518" lon="0.659134">
        <ele>2495.3</ele>
        <time>1970-01-01T07:47:59.000Z</time>
      </trkpt>
      <trkpt lat="42.652531" lon="0.659132">
        <ele>2495</ele>
        <time>1970-01-01T07:48:01.000Z</time>
      </trkpt>
      <trkpt lat="42.652538" lon="0.659136">
        <ele>2494.9</ele>
        <time>1970-01-01T07:48:02.000Z</time>
      </trkpt>
      <trkpt lat="42.652542" lon="0.659139">
        <ele>2494.8</ele>
        <time>1970-01-01T07:48:03.000Z</time>
      </trkpt>
      <trkpt lat="42.652549" lon="0.659139">
        <ele>2494.6</ele>
        <time>1970-01-01T07:48:04.000Z</time>
      </trkpt>
      <trkpt lat="42.652554" lon="0.659137">
        <ele>2494.5</ele>
        <time>1970-01-01T07:48:05.000Z</time>
      </trkpt>
      <trkpt lat="42.652556" lon="0.659133">
        <ele>2494.4</ele>
        <time>1970-01-01T07:48:06.000Z</time>
      </trkpt>
      <trkpt lat="42.652557" lon="0.659123">
        <ele>2494.3</ele>
        <time>1970-01-01T07:48:07.000Z</time>
      </trkpt>
      <trkpt lat="42.652559" lon="0.659108">
        <ele>2494</ele>
        <time>1970-01-01T07:48:09.000Z</time>
      </trkpt>
      <trkpt lat="42.652562" lon="0.659097">
        <ele>2493.8</ele>
        <time>1970-01-01T07:48:10.000Z</time>
      </trkpt>
      <trkpt lat="42.652565" lon="0.659088">
        <ele>2493.7</ele>
        <time>1970-01-01T07:48:11.000Z</time>
      </trkpt>
      <trkpt lat="42.652568" lon="0.659081">
        <ele>2493.5</ele>
        <time>1970-01-01T07:48:12.000Z</time>
      </trkpt>
      <trkpt lat="42.65257" lon="0.659073">
        <ele>2493.4</ele>
        <time>1970-01-01T07:48:14.000Z</time>
      </trkpt>
      <trkpt lat="42.652572" lon="0.659055">
        <ele>2493.1</ele>
        <time>1970-01-01T07:48:15.000Z</time>
      </trkpt>
      <trkpt lat="42.652576" lon="0.659041">
        <ele>2492.8</ele>
        <time>1970-01-01T07:48:16.000Z</time>
      </trkpt>
      <trkpt lat="42.652579" lon="0.659036">
        <ele>2492.7</ele>
        <time>1970-01-01T07:48:17.000Z</time>
      </trkpt>
      <trkpt lat="42.652589" lon="0.659037">
        <ele>2492.5</ele>
        <time>1970-01-01T07:48:18.000Z</time>
      </trkpt>
      <trkpt lat="42.652598" lon="0.65904">
        <ele>2492.3</ele>
        <time>1970-01-01T07:48:20.000Z</time>
      </trkpt>
      <trkpt lat="42.652608" lon="0.659043">
        <ele>2492</ele>
        <time>1970-01-01T07:48:21.000Z</time>
      </trkpt>
      <trkpt lat="42.652614" lon="0.659043">
        <ele>2491.9</ele>
        <time>1970-01-01T07:48:22.000Z</time>
      </trkpt>
      <trkpt lat="42.652621" lon="0.659042">
        <ele>2491.7</ele>
        <time>1970-01-01T07:48:23.000Z</time>
      </trkpt>
      <trkpt lat="42.652628" lon="0.65904">
        <ele>2491.6</ele>
        <time>1970-01-01T07:48:24.000Z</time>
      </trkpt>
      <trkpt lat="42.652633" lon="0.659042">
        <ele>2491.5</ele>
        <time>1970-01-01T07:48:25.000Z</time>
      </trkpt>
      <trkpt lat="42.652643" lon="0.659044">
        <ele>2491.2</ele>
        <time>1970-01-01T07:48:27.000Z</time>
      </trkpt>
      <trkpt lat="42.652648" lon="0.659047">
        <ele>2491.1</ele>
        <time>1970-01-01T07:48:28.000Z</time>
      </trkpt>
      <trkpt lat="42.652656" lon="0.659047">
        <ele>2490.9</ele>
        <time>1970-01-01T07:48:29.000Z</time>
      </trkpt>
      <trkpt lat="42.652669" lon="0.659048">
        <ele>2490.6</ele>
        <time>1970-01-01T07:48:31.000Z</time>
      </trkpt>
      <trkpt lat="42.652678" lon="0.659052">
        <ele>2490.4</ele>
        <time>1970-01-01T07:48:32.000Z</time>
      </trkpt>
      <trkpt lat="42.652683" lon="0.659057">
        <ele>2490.3</ele>
        <time>1970-01-01T07:48:33.000Z</time>
      </trkpt>
      <trkpt lat="42.652688" lon="0.659063">
        <ele>2490.1</ele>
        <time>1970-01-01T07:48:34.000Z</time>
      </trkpt>
      <trkpt lat="42.652697" lon="0.659066">
        <ele>2489.9</ele>
        <time>1970-01-01T07:48:35.000Z</time>
      </trkpt>
      <trkpt lat="42.652704" lon="0.659065">
        <ele>2489.8</ele>
        <time>1970-01-01T07:48:36.000Z</time>
      </trkpt>
      <trkpt lat="42.652712" lon="0.659063">
        <ele>2489.6</ele>
        <time>1970-01-01T07:48:38.000Z</time>
      </trkpt>
      <trkpt lat="42.652717" lon="0.659062">
        <ele>2489.5</ele>
        <time>1970-01-01T07:48:39.000Z</time>
      </trkpt>
      <trkpt lat="42.652721" lon="0.659062">
        <ele>2489.4</ele>
        <time>1970-01-01T07:48:40.000Z</time>
      </trkpt>
      <trkpt lat="42.652725" lon="0.659061">
        <ele>2489.3</ele>
        <time>1970-01-01T07:48:42.000Z</time>
      </trkpt>
      <trkpt lat="42.652729" lon="0.659061">
        <ele>2489.2</ele>
        <time>1970-01-01T07:48:43.000Z</time>
      </trkpt>
      <trkpt lat="42.652733" lon="0.65906">
        <ele>2489.1</ele>
        <time>1970-01-01T07:48:44.000Z</time>
      </trkpt>
      <trkpt lat="42.652738" lon="0.65906">
        <ele>2489</ele>
        <time>1970-01-01T07:48:45.000Z</time>
      </trkpt>
      <trkpt lat="42.652742" lon="0.659059">
        <ele>2488.9</ele>
        <time>1970-01-01T07:48:46.000Z</time>
      </trkpt>
      <trkpt lat="42.652755" lon="0.659063">
        <ele>2488.6</ele>
        <time>1970-01-01T07:48:47.000Z</time>
      </trkpt>
      <trkpt lat="42.652769" lon="0.659069">
        <ele>2488.3</ele>
        <time>1970-01-01T07:48:48.000Z</time>
      </trkpt>
      <trkpt lat="42.652783" lon="0.659069">
        <ele>2488</ele>
        <time>1970-01-01T07:48:49.000Z</time>
      </trkpt>
      <trkpt lat="42.652795" lon="0.659064">
        <ele>2487.7</ele>
        <time>1970-01-01T07:48:50.000Z</time>
      </trkpt>
      <trkpt lat="42.652805" lon="0.659059">
        <ele>2487.5</ele>
        <time>1970-01-01T07:48:52.000Z</time>
      </trkpt>
      <trkpt lat="42.652812" lon="0.659062">
        <ele>2487.3</ele>
        <time>1970-01-01T07:48:53.000Z</time>
      </trkpt>
      <trkpt lat="42.652817" lon="0.659068">
        <ele>2487.2</ele>
        <time>1970-01-01T07:48:54.000Z</time>
      </trkpt>
      <trkpt lat="42.652826" lon="0.659082">
        <ele>2486.9</ele>
        <time>1970-01-01T07:48:56.000Z</time>
      </trkpt>
      <trkpt lat="42.652833" lon="0.659089">
        <ele>2486.7</ele>
        <time>1970-01-01T07:48:57.000Z</time>
      </trkpt>
      <trkpt lat="42.652839" lon="0.659096">
        <ele>2486.6</ele>
        <time>1970-01-01T07:48:58.000Z</time>
      </trkpt>
      <trkpt lat="42.652846" lon="0.659105">
        <ele>2486.4</ele>
        <time>1970-01-01T07:48:59.000Z</time>
      </trkpt>
      <trkpt lat="42.652854" lon="0.65912">
        <ele>2486.1</ele>
        <time>1970-01-01T07:49:00.000Z</time>
      </trkpt>
      <trkpt lat="42.652861" lon="0.65913">
        <ele>2485.9</ele>
        <time>1970-01-01T07:49:01.000Z</time>
      </trkpt>
      <trkpt lat="42.65287" lon="0.659138">
        <ele>2485.7</ele>
        <time>1970-01-01T07:49:02.000Z</time>
      </trkpt>
      <trkpt lat="42.65288" lon="0.659148">
        <ele>2485.5</ele>
        <time>1970-01-01T07:49:04.000Z</time>
      </trkpt>
      <trkpt lat="42.652885" lon="0.659151">
        <ele>2485.4</ele>
        <time>1970-01-01T07:49:05.000Z</time>
      </trkpt>
      <trkpt lat="42.65289" lon="0.659152">
        <ele>2485.3</ele>
        <time>1970-01-01T07:49:06.000Z</time>
      </trkpt>
      <trkpt lat="42.652897" lon="0.659147">
        <ele>2485.1</ele>
        <time>1970-01-01T07:49:07.000Z</time>
      </trkpt>
      <trkpt lat="42.652904" lon="0.659137">
        <ele>2484.9</ele>
        <time>1970-01-01T07:49:08.000Z</time>
      </trkpt>
      <trkpt lat="42.652913" lon="0.659128">
        <ele>2484.7</ele>
        <time>1970-01-01T07:49:09.000Z</time>
      </trkpt>
      <trkpt lat="42.652919" lon="0.659128">
        <ele>2484.6</ele>
        <time>1970-01-01T07:49:11.000Z</time>
      </trkpt>
      <trkpt lat="42.652925" lon="0.65913">
        <ele>2484.5</ele>
        <time>1970-01-01T07:49:13.000Z</time>
      </trkpt>
      <trkpt lat="42.652933" lon="0.659129">
        <ele>2484.3</ele>
        <time>1970-01-01T07:49:14.000Z</time>
      </trkpt>
      <trkpt lat="42.652936" lon="0.659125">
        <ele>2484.3</ele>
        <time>1970-01-01T07:49:15.000Z</time>
      </trkpt>
      <trkpt lat="42.652935" lon="0.659124">
        <ele>2484.2</ele>
        <time>1970-01-01T07:49:16.000Z</time>
      </trkpt>
      <trkpt lat="42.652933" lon="0.659124">
        <ele>2484.2</ele>
        <time>1970-01-01T07:49:17.000Z</time>
      </trkpt>
      <trkpt lat="42.652937" lon="0.65912">
        <ele>2484.1</ele>
        <time>1970-01-01T07:49:19.000Z</time>
      </trkpt>
      <trkpt lat="42.65294" lon="0.659116">
        <ele>2484</ele>
        <time>1970-01-01T07:49:20.000Z</time>
      </trkpt>
      <trkpt lat="42.652942" lon="0.659114">
        <ele>2484</ele>
        <time>1970-01-01T07:49:21.000Z</time>
      </trkpt>
      <trkpt lat="42.65296" lon="0.659108">
        <ele>2483.6</ele>
        <time>1970-01-01T07:49:22.000Z</time>
      </trkpt>
      <trkpt lat="42.652968" lon="0.659111">
        <ele>2483.5</ele>
        <time>1970-01-01T07:49:23.000Z</time>
      </trkpt>
      <trkpt lat="42.652976" lon="0.659117">
        <ele>2483.3</ele>
        <time>1970-01-01T07:49:24.000Z</time>
      </trkpt>
      <trkpt lat="42.652982" lon="0.659126">
        <ele>2483.1</ele>
        <time>1970-01-01T07:49:25.000Z</time>
      </trkpt>
      <trkpt lat="42.652983" lon="0.65913">
        <ele>2483</ele>
        <time>1970-01-01T07:49:26.000Z</time>
      </trkpt>
      <trkpt lat="42.652986" lon="0.659129">
        <ele>2483</ele>
        <time>1970-01-01T07:49:27.000Z</time>
      </trkpt>
      <trkpt lat="42.652982" lon="0.659123">
        <ele>2482.8</ele>
        <time>1970-01-01T07:49:28.000Z</time>
      </trkpt>
      <trkpt lat="42.652981" lon="0.659121">
        <ele>2482.8</ele>
        <time>1970-01-01T07:49:29.000Z</time>
      </trkpt>
      <trkpt lat="42.652994" lon="0.659101">
        <ele>2482.4</ele>
        <time>1970-01-01T07:49:30.000Z</time>
      </trkpt>
      <trkpt lat="42.652992" lon="0.659091">
        <ele>2482.2</ele>
        <time>1970-01-01T07:49:32.000Z</time>
      </trkpt>
      <trkpt lat="42.652988" lon="0.659091">
        <ele>2482.1</ele>
        <time>1970-01-01T07:49:33.000Z</time>
      </trkpt>
      <trkpt lat="42.652985" lon="0.65909">
        <ele>2482</ele>
        <time>1970-01-01T07:49:34.000Z</time>
      </trkpt>
      <trkpt lat="42.652983" lon="0.659088">
        <ele>2482</ele>
        <time>1970-01-01T07:49:35.000Z</time>
      </trkpt>
      <trkpt lat="42.652983" lon="0.659086">
        <ele>2481.9</ele>
        <time>1970-01-01T07:49:36.000Z</time>
      </trkpt>
      <trkpt lat="42.652983" lon="0.659084">
        <ele>2481.9</ele>
        <time>1970-01-01T07:49:37.000Z</time>
      </trkpt>
      <trkpt lat="42.652982" lon="0.659084">
        <ele>2481.9</ele>
        <time>1970-01-01T07:49:38.000Z</time>
      </trkpt>
      <trkpt lat="42.652984" lon="0.659083">
        <ele>2481.8</ele>
        <time>1970-01-01T07:49:40.000Z</time>
      </trkpt>
      <trkpt lat="42.652984" lon="0.659084">
        <ele>2481.8</ele>
        <time>1970-01-01T07:49:41.000Z</time>
      </trkpt>
      <trkpt lat="42.652984" lon="0.659086">
        <ele>2481.8</ele>
        <time>1970-01-01T07:49:42.000Z</time>
      </trkpt>
      <trkpt lat="42.652985" lon="0.659084">
        <ele>2481.8</ele>
        <time>1970-01-01T07:49:43.000Z</time>
      </trkpt>
      <trkpt lat="42.652986" lon="0.659084">
        <ele>2481.7</ele>
        <time>1970-01-01T07:49:44.000Z</time>
      </trkpt>
      <trkpt lat="42.652987" lon="0.659089">
        <ele>2481.6</ele>
        <time>1970-01-01T07:49:45.000Z</time>
      </trkpt>
      <trkpt lat="42.652988" lon="0.65909">
        <ele>2481.6</ele>
        <time>1970-01-01T07:49:46.000Z</time>
      </trkpt>
      <trkpt lat="42.652991" lon="0.659091">
        <ele>2481.5</ele>
        <time>1970-01-01T07:49:47.000Z</time>
      </trkpt>
      <trkpt lat="42.652991" lon="0.659092">
        <ele>2481.5</ele>
        <time>1970-01-01T07:49:48.000Z</time>
      </trkpt>
      <trkpt lat="42.652991" lon="0.659093">
        <ele>2481.5</ele>
        <time>1970-01-01T07:49:49.000Z</time>
      </trkpt>
      <trkpt lat="42.652992" lon="0.659094">
        <ele>2481.5</ele>
        <time>1970-01-01T07:49:50.000Z</time>
      </trkpt>
      <trkpt lat="42.652993" lon="0.659094">
        <ele>2481.5</ele>
        <time>1970-01-01T07:49:51.000Z</time>
      </trkpt>
      <trkpt lat="42.652995" lon="0.659095">
        <ele>2481.4</ele>
        <time>1970-01-01T07:49:52.000Z</time>
      </trkpt>
      <trkpt lat="42.652997" lon="0.659096">
        <ele>2481.4</ele>
        <time>1970-01-01T07:49:53.000Z</time>
      </trkpt>
      <trkpt lat="42.653004" lon="0.659098">
        <ele>2481.2</ele>
        <time>1970-01-01T07:49:54.000Z</time>
      </trkpt>
      <trkpt lat="42.653011" lon="0.659098">
        <ele>2481</ele>
        <time>1970-01-01T07:49:55.000Z</time>
      </trkpt>
      <trkpt lat="42.653011" lon="0.659099">
        <ele>2481</ele>
        <time>1970-01-01T07:49:56.000Z</time>
      </trkpt>
      <trkpt lat="42.653011" lon="0.659103">
        <ele>2480.9</ele>
        <time>1970-01-01T07:49:57.000Z</time>
      </trkpt>
      <trkpt lat="42.653012" lon="0.659106">
        <ele>2480.9</ele>
        <time>1970-01-01T07:49:58.000Z</time>
      </trkpt>
      <trkpt lat="42.653013" lon="0.659108">
        <ele>2480.8</ele>
        <time>1970-01-01T07:49:59.000Z</time>
      </trkpt>
      <trkpt lat="42.653015" lon="0.659109">
        <ele>2480.8</ele>
        <time>1970-01-01T07:50:00.000Z</time>
      </trkpt>
      <trkpt lat="42.65302" lon="0.659111">
        <ele>2480.7</ele>
        <time>1970-01-01T07:50:02.000Z</time>
      </trkpt>
      <trkpt lat="42.653026" lon="0.659111">
        <ele>2480.5</ele>
        <time>1970-01-01T07:50:03.000Z</time>
      </trkpt>
      <trkpt lat="42.653034" lon="0.659109">
        <ele>2480.3</ele>
        <time>1970-01-01T07:50:04.000Z</time>
      </trkpt>
      <trkpt lat="42.653046" lon="0.659108">
        <ele>2480</ele>
        <time>1970-01-01T07:50:05.000Z</time>
      </trkpt>
      <trkpt lat="42.653057" lon="0.659108">
        <ele>2479.8</ele>
        <time>1970-01-01T07:50:07.000Z</time>
      </trkpt>
      <trkpt lat="42.653067" lon="0.659107">
        <ele>2479.5</ele>
        <time>1970-01-01T07:50:08.000Z</time>
      </trkpt>
      <trkpt lat="42.653075" lon="0.659108">
        <ele>2479.3</ele>
        <time>1970-01-01T07:50:09.000Z</time>
      </trkpt>
      <trkpt lat="42.653083" lon="0.659106">
        <ele>2479.1</ele>
        <time>1970-01-01T07:50:10.000Z</time>
      </trkpt>
      <trkpt lat="42.653091" lon="0.659104">
        <ele>2479</ele>
        <time>1970-01-01T07:50:11.000Z</time>
      </trkpt>
      <trkpt lat="42.653101" lon="0.659102">
        <ele>2478.7</ele>
        <time>1970-01-01T07:50:13.000Z</time>
      </trkpt>
      <trkpt lat="42.653111" lon="0.659099">
        <ele>2478.5</ele>
        <time>1970-01-01T07:50:14.000Z</time>
      </trkpt>
      <trkpt lat="42.65312" lon="0.659098">
        <ele>2478.2</ele>
        <time>1970-01-01T07:50:15.000Z</time>
      </trkpt>
      <trkpt lat="42.65313" lon="0.659098">
        <ele>2478</ele>
        <time>1970-01-01T07:50:16.000Z</time>
      </trkpt>
      <trkpt lat="42.653137" lon="0.6591">
        <ele>2477.8</ele>
        <time>1970-01-01T07:50:18.000Z</time>
      </trkpt>
      <trkpt lat="42.653143" lon="0.659101">
        <ele>2477.7</ele>
        <time>1970-01-01T07:50:19.000Z</time>
      </trkpt>
      <trkpt lat="42.653148" lon="0.659105">
        <ele>2477.6</ele>
        <time>1970-01-01T07:50:20.000Z</time>
      </trkpt>
      <trkpt lat="42.653152" lon="0.659111">
        <ele>2477.4</ele>
        <time>1970-01-01T07:50:21.000Z</time>
      </trkpt>
      <trkpt lat="42.653156" lon="0.659119">
        <ele>2477.2</ele>
        <time>1970-01-01T07:50:22.000Z</time>
      </trkpt>
      <trkpt lat="42.653163" lon="0.659129">
        <ele>2477</ele>
        <time>1970-01-01T07:50:24.000Z</time>
      </trkpt>
      <trkpt lat="42.653172" lon="0.659131">
        <ele>2476.8</ele>
        <time>1970-01-01T07:50:25.000Z</time>
      </trkpt>
      <trkpt lat="42.653177" lon="0.659128">
        <ele>2476.7</ele>
        <time>1970-01-01T07:50:26.000Z</time>
      </trkpt>
      <trkpt lat="42.653187" lon="0.659125">
        <ele>2476.5</ele>
        <time>1970-01-01T07:50:27.000Z</time>
      </trkpt>
      <trkpt lat="42.653195" lon="0.659127">
        <ele>2476.3</ele>
        <time>1970-01-01T07:50:29.000Z</time>
      </trkpt>
      <trkpt lat="42.653202" lon="0.659127">
        <ele>2476.1</ele>
        <time>1970-01-01T07:50:30.000Z</time>
      </trkpt>
      <trkpt lat="42.653209" lon="0.659121">
        <ele>2475.9</ele>
        <time>1970-01-01T07:50:31.000Z</time>
      </trkpt>
      <trkpt lat="42.653215" lon="0.659114">
        <ele>2475.8</ele>
        <time>1970-01-01T07:50:32.000Z</time>
      </trkpt>
      <trkpt lat="42.653222" lon="0.65911">
        <ele>2475.6</ele>
        <time>1970-01-01T07:50:33.000Z</time>
      </trkpt>
      <trkpt lat="42.653227" lon="0.659109">
        <ele>2475.5</ele>
        <time>1970-01-01T07:50:34.000Z</time>
      </trkpt>
      <trkpt lat="42.653237" lon="0.659112">
        <ele>2475.3</ele>
        <time>1970-01-01T07:50:35.000Z</time>
      </trkpt>
      <trkpt lat="42.653246" lon="0.659118">
        <ele>2475</ele>
        <time>1970-01-01T07:50:36.000Z</time>
      </trkpt>
      <trkpt lat="42.653256" lon="0.659126">
        <ele>2474.8</ele>
        <time>1970-01-01T07:50:38.000Z</time>
      </trkpt>
      <trkpt lat="42.653265" lon="0.659125">
        <ele>2474.6</ele>
        <time>1970-01-01T07:50:39.000Z</time>
      </trkpt>
      <trkpt lat="42.653272" lon="0.659121">
        <ele>2474.4</ele>
        <time>1970-01-01T07:50:40.000Z</time>
      </trkpt>
      <trkpt lat="42.65328" lon="0.659116">
        <ele>2474.2</ele>
        <time>1970-01-01T07:50:41.000Z</time>
      </trkpt>
      <trkpt lat="42.653288" lon="0.659114">
        <ele>2474</ele>
        <time>1970-01-01T07:50:42.000Z</time>
      </trkpt>
      <trkpt lat="42.653296" lon="0.65912">
        <ele>2473.8</ele>
        <time>1970-01-01T07:50:43.000Z</time>
      </trkpt>
      <trkpt lat="42.653304" lon="0.65913">
        <ele>2473.6</ele>
        <time>1970-01-01T07:50:44.000Z</time>
      </trkpt>
      <trkpt lat="42.653313" lon="0.659139">
        <ele>2473.4</ele>
        <time>1970-01-01T07:50:45.000Z</time>
      </trkpt>
      <trkpt lat="42.653323" lon="0.659146">
        <ele>2473.1</ele>
        <time>1970-01-01T07:50:47.000Z</time>
      </trkpt>
      <trkpt lat="42.653329" lon="0.65915">
        <ele>2473</ele>
        <time>1970-01-01T07:50:48.000Z</time>
      </trkpt>
      <trkpt lat="42.653338" lon="0.659147">
        <ele>2472.8</ele>
        <time>1970-01-01T07:50:49.000Z</time>
      </trkpt>
      <trkpt lat="42.653347" lon="0.659144">
        <ele>2472.6</ele>
        <time>1970-01-01T07:50:50.000Z</time>
      </trkpt>
      <trkpt lat="42.653352" lon="0.659147">
        <ele>2472.5</ele>
        <time>1970-01-01T07:50:51.000Z</time>
      </trkpt>
      <trkpt lat="42.653357" lon="0.659149">
        <ele>2472.4</ele>
        <time>1970-01-01T07:50:52.000Z</time>
      </trkpt>
      <trkpt lat="42.653364" lon="0.659157">
        <ele>2472.2</ele>
        <time>1970-01-01T07:50:53.000Z</time>
      </trkpt>
      <trkpt lat="42.65337" lon="0.659166">
        <ele>2472</ele>
        <time>1970-01-01T07:50:54.000Z</time>
      </trkpt>
      <trkpt lat="42.653377" lon="0.659167">
        <ele>2471.9</ele>
        <time>1970-01-01T07:50:55.000Z</time>
      </trkpt>
      <trkpt lat="42.653386" lon="0.65916">
        <ele>2471.6</ele>
        <time>1970-01-01T07:50:56.000Z</time>
      </trkpt>
      <trkpt lat="42.653395" lon="0.659156">
        <ele>2471.4</ele>
        <time>1970-01-01T07:50:57.000Z</time>
      </trkpt>
      <trkpt lat="42.653407" lon="0.659152">
        <ele>2471.2</ele>
        <time>1970-01-01T07:50:59.000Z</time>
      </trkpt>
      <trkpt lat="42.653418" lon="0.659149">
        <ele>2470.9</ele>
        <time>1970-01-01T07:51:00.000Z</time>
      </trkpt>
      <trkpt lat="42.653428" lon="0.659147">
        <ele>2470.7</ele>
        <time>1970-01-01T07:51:01.000Z</time>
      </trkpt>
      <trkpt lat="42.653439" lon="0.659141">
        <ele>2470.5</ele>
        <time>1970-01-01T07:51:02.000Z</time>
      </trkpt>
      <trkpt lat="42.65346" lon="0.659121">
        <ele>2470</ele>
        <time>1970-01-01T07:51:03.000Z</time>
      </trkpt>
      <trkpt lat="42.653469" lon="0.659116">
        <ele>2469.8</ele>
        <time>1970-01-01T07:51:05.000Z</time>
      </trkpt>
      <trkpt lat="42.653477" lon="0.659111">
        <ele>2469.7</ele>
        <time>1970-01-01T07:51:06.000Z</time>
      </trkpt>
      <trkpt lat="42.653486" lon="0.659105">
        <ele>2469.5</ele>
        <time>1970-01-01T07:51:07.000Z</time>
      </trkpt>
      <trkpt lat="42.653495" lon="0.6591">
        <ele>2469.3</ele>
        <time>1970-01-01T07:51:08.000Z</time>
      </trkpt>
      <trkpt lat="42.653512" lon="0.659103">
        <ele>2469</ele>
        <time>1970-01-01T07:51:09.000Z</time>
      </trkpt>
      <trkpt lat="42.653521" lon="0.659106">
        <ele>2468.9</ele>
        <time>1970-01-01T07:51:10.000Z</time>
      </trkpt>
      <trkpt lat="42.65353" lon="0.659109">
        <ele>2468.7</ele>
        <time>1970-01-01T07:51:11.000Z</time>
      </trkpt>
      <trkpt lat="42.653544" lon="0.65911">
        <ele>2468.5</ele>
        <time>1970-01-01T07:51:12.000Z</time>
      </trkpt>
      <trkpt lat="42.653557" lon="0.659115">
        <ele>2468.3</ele>
        <time>1970-01-01T07:51:13.000Z</time>
      </trkpt>
      <trkpt lat="42.653567" lon="0.65912">
        <ele>2468.1</ele>
        <time>1970-01-01T07:51:14.000Z</time>
      </trkpt>
      <trkpt lat="42.653578" lon="0.659123">
        <ele>2468</ele>
        <time>1970-01-01T07:51:15.000Z</time>
      </trkpt>
      <trkpt lat="42.653589" lon="0.659125">
        <ele>2467.8</ele>
        <time>1970-01-01T07:51:16.000Z</time>
      </trkpt>
      <trkpt lat="42.6536" lon="0.659125">
        <ele>2467.7</ele>
        <time>1970-01-01T07:51:17.000Z</time>
      </trkpt>
      <trkpt lat="42.653613" lon="0.659123">
        <ele>2466.5</ele>
        <time>1970-01-01T07:51:18.000Z</time>
      </trkpt>
      <trkpt lat="42.653626" lon="0.659113">
        <ele>2466.5</ele>
        <time>1970-01-01T07:51:20.000Z</time>
      </trkpt>
      <trkpt lat="42.653639" lon="0.6591">
        <ele>2466.4</ele>
        <time>1970-01-01T07:51:21.000Z</time>
      </trkpt>
      <trkpt lat="42.653645" lon="0.659096">
        <ele>2466.4</ele>
        <time>1970-01-01T07:51:22.000Z</time>
      </trkpt>
      <trkpt lat="42.653652" lon="0.659093">
        <ele>2466.4</ele>
        <time>1970-01-01T07:51:24.000Z</time>
      </trkpt>
      <trkpt lat="42.653659" lon="0.659089">
        <ele>2466.4</ele>
        <time>1970-01-01T07:51:25.000Z</time>
      </trkpt>
      <trkpt lat="42.653677" lon="0.659074">
        <ele>2466.4</ele>
        <time>1970-01-01T07:51:26.000Z</time>
      </trkpt>
      <trkpt lat="42.653688" lon="0.65907">
        <ele>2466.3</ele>
        <time>1970-01-01T07:51:28.000Z</time>
      </trkpt>
      <trkpt lat="42.653699" lon="0.659066">
        <ele>2466.3</ele>
        <time>1970-01-01T07:51:29.000Z</time>
      </trkpt>
      <trkpt lat="42.653709" lon="0.659062">
        <ele>2466.3</ele>
        <time>1970-01-01T07:51:30.000Z</time>
      </trkpt>
      <trkpt lat="42.65372" lon="0.659057">
        <ele>2466.3</ele>
        <time>1970-01-01T07:51:31.000Z</time>
      </trkpt>
      <trkpt lat="42.65373" lon="0.659053">
        <ele>2466.3</ele>
        <time>1970-01-01T07:51:32.000Z</time>
      </trkpt>
      <trkpt lat="42.653738" lon="0.659048">
        <ele>2466.2</ele>
        <time>1970-01-01T07:51:33.000Z</time>
      </trkpt>
      <trkpt lat="42.653747" lon="0.659043">
        <ele>2466.2</ele>
        <time>1970-01-01T07:51:34.000Z</time>
      </trkpt>
      <trkpt lat="42.653755" lon="0.659041">
        <ele>2466.2</ele>
        <time>1970-01-01T07:51:35.000Z</time>
      </trkpt>
      <trkpt lat="42.653764" lon="0.659037">
        <ele>2466.2</ele>
        <time>1970-01-01T07:51:36.000Z</time>
      </trkpt>
      <trkpt lat="42.653771" lon="0.659034">
        <ele>2466.2</ele>
        <time>1970-01-01T07:51:37.000Z</time>
      </trkpt>
      <trkpt lat="42.65377" lon="0.659024">
        <ele>2466.2</ele>
        <time>1970-01-01T07:51:38.000Z</time>
      </trkpt>
      <trkpt lat="42.653764" lon="0.659026">
        <ele>2466.2</ele>
        <time>1970-01-01T07:51:39.000Z</time>
      </trkpt>
      <trkpt lat="42.653762" lon="0.659031">
        <ele>2466.1</ele>
        <time>1970-01-01T07:51:40.000Z</time>
      </trkpt>
      <trkpt lat="42.65376" lon="0.659032">
        <ele>2466.1</ele>
        <time>1970-01-01T07:51:41.000Z</time>
      </trkpt>
      <trkpt lat="42.653759" lon="0.659034">
        <ele>2466.1</ele>
        <time>1970-01-01T07:51:42.000Z</time>
      </trkpt>
      <trkpt lat="42.653759" lon="0.659034">
        <ele>2466.1</ele>
        <time>1970-01-01T07:51:43.000Z</time>
      </trkpt>
      <trkpt lat="42.65376" lon="0.659034">
        <ele>2466.1</ele>
        <time>1970-01-01T07:51:44.000Z</time>
      </trkpt>
      <trkpt lat="42.653761" lon="0.659034">
        <ele>2466.1</ele>
        <time>1970-01-01T07:51:45.000Z</time>
      </trkpt>
      <trkpt lat="42.653762" lon="0.659036">
        <ele>2466.1</ele>
        <time>1970-01-01T07:51:46.000Z</time>
      </trkpt>
      <trkpt lat="42.653766" lon="0.659036">
        <ele>2466.1</ele>
        <time>1970-01-01T07:51:47.000Z</time>
      </trkpt>
      <trkpt lat="42.653782" lon="0.659033">
        <ele>2466.1</ele>
        <time>1970-01-01T07:51:48.000Z</time>
      </trkpt>
      <trkpt lat="42.653797" lon="0.659024">
        <ele>2466.1</ele>
        <time>1970-01-01T07:51:50.000Z</time>
      </trkpt>
      <trkpt lat="42.653809" lon="0.659005">
        <ele>2466</ele>
        <time>1970-01-01T07:51:51.000Z</time>
      </trkpt>
      <trkpt lat="42.653816" lon="0.658987">
        <ele>2466.1</ele>
        <time>1970-01-01T07:51:52.000Z</time>
      </trkpt>
      <trkpt lat="42.653819" lon="0.658965">
        <ele>2466</ele>
        <time>1970-01-01T07:51:53.000Z</time>
      </trkpt>
      <trkpt lat="42.653819" lon="0.65895">
        <ele>2466</ele>
        <time>1970-01-01T07:51:54.000Z</time>
      </trkpt>
      <trkpt lat="42.653826" lon="0.65894">
        <ele>2466</ele>
        <time>1970-01-01T07:51:55.000Z</time>
      </trkpt>
      <trkpt lat="42.653839" lon="0.658931">
        <ele>2465.9</ele>
        <time>1970-01-01T07:51:56.000Z</time>
      </trkpt>
      <trkpt lat="42.653859" lon="0.65895">
        <ele>2465.9</ele>
        <time>1970-01-01T07:51:57.000Z</time>
      </trkpt>
      <trkpt lat="42.653864" lon="0.658969">
        <ele>2465.9</ele>
        <time>1970-01-01T07:51:59.000Z</time>
      </trkpt>
      <trkpt lat="42.653869" lon="0.658988">
        <ele>2465.8</ele>
        <time>1970-01-01T07:52:00.000Z</time>
      </trkpt>
      <trkpt lat="42.653874" lon="0.659007">
        <ele>2465.8</ele>
        <time>1970-01-01T07:52:01.000Z</time>
      </trkpt>
      <trkpt lat="42.653877" lon="0.659027">
        <ele>2465.7</ele>
        <time>1970-01-01T07:52:02.000Z</time>
      </trkpt>
      <trkpt lat="42.653883" lon="0.659044">
        <ele>2465.7</ele>
        <time>1970-01-01T07:52:03.000Z</time>
      </trkpt>
      <trkpt lat="42.65389" lon="0.659052">
        <ele>2465.7</ele>
        <time>1970-01-01T07:52:04.000Z</time>
      </trkpt>
      <trkpt lat="42.653912" lon="0.659054">
        <ele>2465.6</ele>
        <time>1970-01-01T07:52:05.000Z</time>
      </trkpt>
      <trkpt lat="42.653928" lon="0.659055">
        <ele>2465.6</ele>
        <time>1970-01-01T07:52:06.000Z</time>
      </trkpt>
      <trkpt lat="42.653943" lon="0.659055">
        <ele>2465.5</ele>
        <time>1970-01-01T07:52:08.000Z</time>
      </trkpt>
      <trkpt lat="42.65396" lon="0.659053">
        <ele>2465.5</ele>
        <time>1970-01-01T07:52:09.000Z</time>
      </trkpt>
      <trkpt lat="42.653967" lon="0.659055">
        <ele>2465.5</ele>
        <time>1970-01-01T07:52:10.000Z</time>
      </trkpt>
      <trkpt lat="42.653973" lon="0.659068">
        <ele>2465.4</ele>
        <time>1970-01-01T07:52:12.000Z</time>
      </trkpt>
      <trkpt lat="42.653983" lon="0.659077">
        <ele>2465.4</ele>
        <time>1970-01-01T07:52:13.000Z</time>
      </trkpt>
      <trkpt lat="42.653992" lon="0.65908">
        <ele>2465.4</ele>
        <time>1970-01-01T07:52:14.000Z</time>
      </trkpt>
      <trkpt lat="42.654001" lon="0.659082">
        <ele>2465.4</ele>
        <time>1970-01-01T07:52:15.000Z</time>
      </trkpt>
      <trkpt lat="42.65401" lon="0.659084">
        <ele>2465.4</ele>
        <time>1970-01-01T07:52:16.000Z</time>
      </trkpt>
      <trkpt lat="42.654017" lon="0.659084">
        <ele>2465.3</ele>
        <time>1970-01-01T07:52:17.000Z</time>
      </trkpt>
      <trkpt lat="42.654021" lon="0.659086">
        <ele>2465.3</ele>
        <time>1970-01-01T07:52:18.000Z</time>
      </trkpt>
      <trkpt lat="42.654029" lon="0.659092">
        <ele>2465.3</ele>
        <time>1970-01-01T07:52:20.000Z</time>
      </trkpt>
      <trkpt lat="42.654035" lon="0.659096">
        <ele>2465.3</ele>
        <time>1970-01-01T07:52:21.000Z</time>
      </trkpt>
      <trkpt lat="42.654041" lon="0.659096">
        <ele>2465.3</ele>
        <time>1970-01-01T07:52:22.000Z</time>
      </trkpt>
      <trkpt lat="42.654049" lon="0.659094">
        <ele>2465.3</ele>
        <time>1970-01-01T07:52:23.000Z</time>
      </trkpt>
      <trkpt lat="42.65406" lon="0.659091">
        <ele>2465.3</ele>
        <time>1970-01-01T07:52:24.000Z</time>
      </trkpt>
      <trkpt lat="42.65407" lon="0.659085">
        <ele>2465.2</ele>
        <time>1970-01-01T07:52:25.000Z</time>
      </trkpt>
      <trkpt lat="42.654077" lon="0.659078">
        <ele>2465.2</ele>
        <time>1970-01-01T07:52:26.000Z</time>
      </trkpt>
      <trkpt lat="42.654086" lon="0.659076">
        <ele>2465.2</ele>
        <time>1970-01-01T07:52:27.000Z</time>
      </trkpt>
      <trkpt lat="42.654092" lon="0.659076">
        <ele>2465.2</ele>
        <time>1970-01-01T07:52:28.000Z</time>
      </trkpt>
      <trkpt lat="42.654106" lon="0.659078">
        <ele>2465.2</ele>
        <time>1970-01-01T07:52:29.000Z</time>
      </trkpt>
      <trkpt lat="42.654117" lon="0.659077">
        <ele>2465.1</ele>
        <time>1970-01-01T07:52:30.000Z</time>
      </trkpt>
      <trkpt lat="42.654127" lon="0.659071">
        <ele>2465.1</ele>
        <time>1970-01-01T07:52:32.000Z</time>
      </trkpt>
      <trkpt lat="42.654134" lon="0.659058">
        <ele>2465.1</ele>
        <time>1970-01-01T07:52:33.000Z</time>
      </trkpt>
      <trkpt lat="42.654137" lon="0.659047">
        <ele>2465.1</ele>
        <time>1970-01-01T07:52:34.000Z</time>
      </trkpt>
      <trkpt lat="42.654141" lon="0.659037">
        <ele>2465.1</ele>
        <time>1970-01-01T07:52:35.000Z</time>
      </trkpt>
      <trkpt lat="42.654147" lon="0.659027">
        <ele>2465</ele>
        <time>1970-01-01T07:52:36.000Z</time>
      </trkpt>
      <trkpt lat="42.654152" lon="0.659026">
        <ele>2465</ele>
        <time>1970-01-01T07:52:37.000Z</time>
      </trkpt>
      <trkpt lat="42.654158" lon="0.659029">
        <ele>2465</ele>
        <time>1970-01-01T07:52:38.000Z</time>
      </trkpt>
      <trkpt lat="42.654166" lon="0.659034">
        <ele>2465</ele>
        <time>1970-01-01T07:52:40.000Z</time>
      </trkpt>
      <trkpt lat="42.65417" lon="0.659036">
        <ele>2465</ele>
        <time>1970-01-01T07:52:41.000Z</time>
      </trkpt>
      <trkpt lat="42.654174" lon="0.659039">
        <ele>2465</ele>
        <time>1970-01-01T07:52:42.000Z</time>
      </trkpt>
      <trkpt lat="42.654184" lon="0.659037">
        <ele>2465</ele>
        <time>1970-01-01T07:52:43.000Z</time>
      </trkpt>
      <trkpt lat="42.654194" lon="0.659032">
        <ele>2465</ele>
        <time>1970-01-01T07:52:44.000Z</time>
      </trkpt>
      <trkpt lat="42.654202" lon="0.659032">
        <ele>2464.9</ele>
        <time>1970-01-01T07:52:45.000Z</time>
      </trkpt>
      <trkpt lat="42.654211" lon="0.659033">
        <ele>2464.9</ele>
        <time>1970-01-01T07:52:46.000Z</time>
      </trkpt>
      <trkpt lat="42.654219" lon="0.659033">
        <ele>2464.9</ele>
        <time>1970-01-01T07:52:47.000Z</time>
      </trkpt>
      <trkpt lat="42.654226" lon="0.659032">
        <ele>2464.9</ele>
        <time>1970-01-01T07:52:48.000Z</time>
      </trkpt>
      <trkpt lat="42.654232" lon="0.659031">
        <ele>2464.9</ele>
        <time>1970-01-01T07:52:49.000Z</time>
      </trkpt>
      <trkpt lat="42.654239" lon="0.659027">
        <ele>2464.9</ele>
        <time>1970-01-01T07:52:50.000Z</time>
      </trkpt>
      <trkpt lat="42.654248" lon="0.659017">
        <ele>2464.9</ele>
        <time>1970-01-01T07:52:52.000Z</time>
      </trkpt>
      <trkpt lat="42.654253" lon="0.659008">
        <ele>2464.9</ele>
        <time>1970-01-01T07:52:53.000Z</time>
      </trkpt>
      <trkpt lat="42.654265" lon="0.659004">
        <ele>2464.8</ele>
        <time>1970-01-01T07:52:54.000Z</time>
      </trkpt>
      <trkpt lat="42.654277" lon="0.659002">
        <ele>2464.8</ele>
        <time>1970-01-01T07:52:56.000Z</time>
      </trkpt>
      <trkpt lat="42.654289" lon="0.659003">
        <ele>2464.8</ele>
        <time>1970-01-01T07:52:57.000Z</time>
      </trkpt>
      <trkpt lat="42.654299" lon="0.659004">
        <ele>2464.8</ele>
        <time>1970-01-01T07:52:58.000Z</time>
      </trkpt>
      <trkpt lat="42.65431" lon="0.659004">
        <ele>2464.8</ele>
        <time>1970-01-01T07:52:59.000Z</time>
      </trkpt>
      <trkpt lat="42.65432" lon="0.659004">
        <ele>2464.8</ele>
        <time>1970-01-01T07:53:00.000Z</time>
      </trkpt>
      <trkpt lat="42.65433" lon="0.659002">
        <ele>2464.8</ele>
        <time>1970-01-01T07:53:01.000Z</time>
      </trkpt>
      <trkpt lat="42.654341" lon="0.659001">
        <ele>2464.8</ele>
        <time>1970-01-01T07:53:03.000Z</time>
      </trkpt>
      <trkpt lat="42.654351" lon="0.659003">
        <ele>2464.8</ele>
        <time>1970-01-01T07:53:04.000Z</time>
      </trkpt>
      <trkpt lat="42.65436" lon="0.658997">
        <ele>2464.8</ele>
        <time>1970-01-01T07:53:05.000Z</time>
      </trkpt>
      <trkpt lat="42.654366" lon="0.658987">
        <ele>2464.8</ele>
        <time>1970-01-01T07:53:06.000Z</time>
      </trkpt>
      <trkpt lat="42.654376" lon="0.658982">
        <ele>2464.7</ele>
        <time>1970-01-01T07:53:07.000Z</time>
      </trkpt>
      <trkpt lat="42.654386" lon="0.658982">
        <ele>2464.7</ele>
        <time>1970-01-01T07:53:08.000Z</time>
      </trkpt>
      <trkpt lat="42.654397" lon="0.658989">
        <ele>2464.7</ele>
        <time>1970-01-01T07:53:09.000Z</time>
      </trkpt>
      <trkpt lat="42.654408" lon="0.658995">
        <ele>2464.7</ele>
        <time>1970-01-01T07:53:10.000Z</time>
      </trkpt>
      <trkpt lat="42.654416" lon="0.659">
        <ele>2464.7</ele>
        <time>1970-01-01T07:53:11.000Z</time>
      </trkpt>
      <trkpt lat="42.654426" lon="0.659004">
        <ele>2464.7</ele>
        <time>1970-01-01T07:53:12.000Z</time>
      </trkpt>
      <trkpt lat="42.654438" lon="0.659001">
        <ele>2464.7</ele>
        <time>1970-01-01T07:53:13.000Z</time>
      </trkpt>
      <trkpt lat="42.65445" lon="0.658993">
        <ele>2464.7</ele>
        <time>1970-01-01T07:53:14.000Z</time>
      </trkpt>
      <trkpt lat="42.654462" lon="0.658983">
        <ele>2464.7</ele>
        <time>1970-01-01T07:53:16.000Z</time>
      </trkpt>
      <trkpt lat="42.654469" lon="0.658979">
        <ele>2464.7</ele>
        <time>1970-01-01T07:53:17.000Z</time>
      </trkpt>
      <trkpt lat="42.654475" lon="0.65898">
        <ele>2464.7</ele>
        <time>1970-01-01T07:53:18.000Z</time>
      </trkpt>
      <trkpt lat="42.654489" lon="0.65899">
        <ele>2464.7</ele>
        <time>1970-01-01T07:53:19.000Z</time>
      </trkpt>
      <trkpt lat="42.654491" lon="0.658993">
        <ele>2464.7</ele>
        <time>1970-01-01T07:53:20.000Z</time>
      </trkpt>
      <trkpt lat="42.6545" lon="0.658992">
        <ele>2464.7</ele>
        <time>1970-01-01T07:53:21.000Z</time>
      </trkpt>
      <trkpt lat="42.65451" lon="0.658977">
        <ele>2464.7</ele>
        <time>1970-01-01T07:53:22.000Z</time>
      </trkpt>
      <trkpt lat="42.654513" lon="0.658971">
        <ele>2464.7</ele>
        <time>1970-01-01T07:53:24.000Z</time>
      </trkpt>
      <trkpt lat="42.654509" lon="0.658975">
        <ele>2464.6</ele>
        <time>1970-01-01T07:53:25.000Z</time>
      </trkpt>
      <trkpt lat="42.654507" lon="0.658977">
        <ele>2464.6</ele>
        <time>1970-01-01T07:53:26.000Z</time>
      </trkpt>
      <trkpt lat="42.654508" lon="0.658978">
        <ele>2464.6</ele>
        <time>1970-01-01T07:53:27.000Z</time>
      </trkpt>
      <trkpt lat="42.654509" lon="0.658978">
        <ele>2464.6</ele>
        <time>1970-01-01T07:53:28.000Z</time>
      </trkpt>
      <trkpt lat="42.654509" lon="0.658979">
        <ele>2464.6</ele>
        <time>1970-01-01T07:53:29.000Z</time>
      </trkpt>
      <trkpt lat="42.654512" lon="0.658978">
        <ele>2464.6</ele>
        <time>1970-01-01T07:53:30.000Z</time>
      </trkpt>
      <trkpt lat="42.654514" lon="0.658979">
        <ele>2464.6</ele>
        <time>1970-01-01T07:53:31.000Z</time>
      </trkpt>
      <trkpt lat="42.654518" lon="0.658976">
        <ele>2464.6</ele>
        <time>1970-01-01T07:53:32.000Z</time>
      </trkpt>
      <trkpt lat="42.654519" lon="0.658973">
        <ele>2464.6</ele>
        <time>1970-01-01T07:53:33.000Z</time>
      </trkpt>
      <trkpt lat="42.654533" lon="0.658967">
        <ele>2464.6</ele>
        <time>1970-01-01T07:53:35.000Z</time>
      </trkpt>
      <trkpt lat="42.654539" lon="0.65897">
        <ele>2464.6</ele>
        <time>1970-01-01T07:53:37.000Z</time>
      </trkpt>
      <trkpt lat="42.654538" lon="0.658972">
        <ele>2464.6</ele>
        <time>1970-01-01T07:53:38.000Z</time>
      </trkpt>
      <trkpt lat="42.654536" lon="0.658971">
        <ele>2464.6</ele>
        <time>1970-01-01T07:53:39.000Z</time>
      </trkpt>
      <trkpt lat="42.654534" lon="0.658968">
        <ele>2464.6</ele>
        <time>1970-01-01T07:53:40.000Z</time>
      </trkpt>
      <trkpt lat="42.654532" lon="0.658965">
        <ele>2464.6</ele>
        <time>1970-01-01T07:53:41.000Z</time>
      </trkpt>
      <trkpt lat="42.654534" lon="0.658961">
        <ele>2464.6</ele>
        <time>1970-01-01T07:53:43.000Z</time>
      </trkpt>
      <trkpt lat="42.654537" lon="0.658961">
        <ele>2464.6</ele>
        <time>1970-01-01T07:53:44.000Z</time>
      </trkpt>
      <trkpt lat="42.654545" lon="0.658945">
        <ele>2464.6</ele>
        <time>1970-01-01T07:53:46.000Z</time>
      </trkpt>
      <trkpt lat="42.654547" lon="0.658927">
        <ele>2464.6</ele>
        <time>1970-01-01T07:53:47.000Z</time>
      </trkpt>
      <trkpt lat="42.654549" lon="0.658911">
        <ele>2464.6</ele>
        <time>1970-01-01T07:53:49.000Z</time>
      </trkpt>
      <trkpt lat="42.654549" lon="0.658906">
        <ele>2464.6</ele>
        <time>1970-01-01T07:53:50.000Z</time>
      </trkpt>
      <trkpt lat="42.654549" lon="0.658893">
        <ele>2464.6</ele>
        <time>1970-01-01T07:53:51.000Z</time>
      </trkpt>
      <trkpt lat="42.654546" lon="0.658884">
        <ele>2464.6</ele>
        <time>1970-01-01T07:53:52.000Z</time>
      </trkpt>
      <trkpt lat="42.654548" lon="0.658884">
        <ele>2464.6</ele>
        <time>1970-01-01T07:53:53.000Z</time>
      </trkpt>
      <trkpt lat="42.654547" lon="0.658885">
        <ele>2464.6</ele>
        <time>1970-01-01T07:53:54.000Z</time>
      </trkpt>
      <trkpt lat="42.65455" lon="0.65889">
        <ele>2464.6</ele>
        <time>1970-01-01T07:53:55.000Z</time>
      </trkpt>
      <trkpt lat="42.654551" lon="0.658883">
        <ele>2464.6</ele>
        <time>1970-01-01T07:53:57.000Z</time>
      </trkpt>
      <trkpt lat="42.654551" lon="0.658881">
        <ele>2464.6</ele>
        <time>1970-01-01T07:53:58.000Z</time>
      </trkpt>
      <trkpt lat="42.654552" lon="0.658881">
        <ele>2464.6</ele>
        <time>1970-01-01T07:53:59.000Z</time>
      </trkpt>
      <trkpt lat="42.654553" lon="0.658879">
        <ele>2464.6</ele>
        <time>1970-01-01T07:54:00.000Z</time>
      </trkpt>
      <trkpt lat="42.654553" lon="0.658878">
        <ele>2464.6</ele>
        <time>1970-01-01T07:54:02.000Z</time>
      </trkpt>
      <trkpt lat="42.654553" lon="0.658878">
        <ele>2464.6</ele>
        <time>1970-01-01T07:54:03.000Z</time>
      </trkpt>
      <trkpt lat="42.654553" lon="0.658878">
        <ele>2464.6</ele>
        <time>1970-01-01T07:54:04.000Z</time>
      </trkpt>
      <trkpt lat="42.654554" lon="0.658877">
        <ele>2464.6</ele>
        <time>1970-01-01T07:54:05.000Z</time>
      </trkpt>
      <trkpt lat="42.654553" lon="0.658878">
        <ele>2464.6</ele>
        <time>1970-01-01T07:54:06.000Z</time>
      </trkpt>
      <trkpt lat="42.654553" lon="0.658878">
        <ele>2464.6</ele>
        <time>1970-01-01T07:54:07.000Z</time>
      </trkpt>
      <trkpt lat="42.654553" lon="0.658877">
        <ele>2464.6</ele>
        <time>1970-01-01T07:54:08.000Z</time>
      </trkpt>
      <trkpt lat="42.654553" lon="0.658877">
        <ele>2464.6</ele>
        <time>1970-01-01T07:54:09.000Z</time>
      </trkpt>
      <trkpt lat="42.654553" lon="0.658877">
        <ele>2464.6</ele>
        <time>1970-01-01T07:54:10.000Z</time>
      </trkpt>
      <trkpt lat="42.654553" lon="0.658877">
        <ele>2464.6</ele>
        <time>1970-01-01T07:54:11.000Z</time>
      </trkpt>
      <trkpt lat="42.654552" lon="0.658878">
        <ele>2464.6</ele>
        <time>1970-01-01T07:54:12.000Z</time>
      </trkpt>
      <trkpt lat="42.65455" lon="0.65888">
        <ele>2464.6</ele>
        <time>1970-01-01T07:54:14.000Z</time>
      </trkpt>
      <trkpt lat="42.654548" lon="0.658879">
        <ele>2464.6</ele>
        <time>1970-01-01T07:54:15.000Z</time>
      </trkpt>
      <trkpt lat="42.654547" lon="0.658878">
        <ele>2464.6</ele>
        <time>1970-01-01T07:54:16.000Z</time>
      </trkpt>
      <trkpt lat="42.654545" lon="0.658876">
        <ele>2464.6</ele>
        <time>1970-01-01T07:54:17.000Z</time>
      </trkpt>
      <trkpt lat="42.654544" lon="0.658874">
        <ele>2464.6</ele>
        <time>1970-01-01T07:54:18.000Z</time>
      </trkpt>
      <trkpt lat="42.654541" lon="0.65887">
        <ele>2464.5</ele>
        <time>1970-01-01T07:54:20.000Z</time>
      </trkpt>
      <trkpt lat="42.654542" lon="0.658863">
        <ele>2464.5</ele>
        <time>1970-01-01T07:54:21.000Z</time>
      </trkpt>
      <trkpt lat="42.654542" lon="0.658858">
        <ele>2464.5</ele>
        <time>1970-01-01T07:54:22.000Z</time>
      </trkpt>
      <trkpt lat="42.654543" lon="0.658852">
        <ele>2464.5</ele>
        <time>1970-01-01T07:54:23.000Z</time>
      </trkpt>
      <trkpt lat="42.654545" lon="0.658843">
        <ele>2464.5</ele>
        <time>1970-01-01T07:54:24.000Z</time>
      </trkpt>
      <trkpt lat="42.654546" lon="0.658826">
        <ele>2464.5</ele>
        <time>1970-01-01T07:54:25.000Z</time>
      </trkpt>
      <trkpt lat="42.654543" lon="0.658808">
        <ele>2464.5</ele>
        <time>1970-01-01T07:54:26.000Z</time>
      </trkpt>
      <trkpt lat="42.654542" lon="0.658799">
        <ele>2464.5</ele>
        <time>1970-01-01T07:54:28.000Z</time>
      </trkpt>
      <trkpt lat="42.654548" lon="0.658791">
        <ele>2464.5</ele>
        <time>1970-01-01T07:54:29.000Z</time>
      </trkpt>
      <trkpt lat="42.654551" lon="0.658793">
        <ele>2464.5</ele>
        <time>1970-01-01T07:54:30.000Z</time>
      </trkpt>
      <trkpt lat="42.654553" lon="0.658794">
        <ele>2464.5</ele>
        <time>1970-01-01T07:54:31.000Z</time>
      </trkpt>
      <trkpt lat="42.654554" lon="0.658794">
        <ele>2464.5</ele>
        <time>1970-01-01T07:54:32.000Z</time>
      </trkpt>
      <trkpt lat="42.654555" lon="0.658794">
        <ele>2464.5</ele>
        <time>1970-01-01T07:54:34.000Z</time>
      </trkpt>
      <trkpt lat="42.654556" lon="0.658794">
        <ele>2464.5</ele>
        <time>1970-01-01T07:54:35.000Z</time>
      </trkpt>
      <trkpt lat="42.654556" lon="0.658794">
        <ele>2464.5</ele>
        <time>1970-01-01T07:54:36.000Z</time>
      </trkpt>
      <trkpt lat="42.654556" lon="0.658793">
        <ele>2464.5</ele>
        <time>1970-01-01T07:54:37.000Z</time>
      </trkpt>
      <trkpt lat="42.654557" lon="0.658792">
        <ele>2464.5</ele>
        <time>1970-01-01T07:54:38.000Z</time>
      </trkpt>
      <trkpt lat="42.654557" lon="0.658792">
        <ele>2464.5</ele>
        <time>1970-01-01T07:54:39.000Z</time>
      </trkpt>
      <trkpt lat="42.654558" lon="0.658792">
        <ele>2464.5</ele>
        <time>1970-01-01T07:54:40.000Z</time>
      </trkpt>
      <trkpt lat="42.654558" lon="0.658791">
        <ele>2464.5</ele>
        <time>1970-01-01T07:54:41.000Z</time>
      </trkpt>
      <trkpt lat="42.654557" lon="0.658791">
        <ele>2464.5</ele>
        <time>1970-01-01T07:54:42.000Z</time>
      </trkpt>
      <trkpt lat="42.654556" lon="0.658791">
        <ele>2464.5</ele>
        <time>1970-01-01T07:54:43.000Z</time>
      </trkpt>
      <trkpt lat="42.654555" lon="0.658792">
        <ele>2464.5</ele>
        <time>1970-01-01T07:54:44.000Z</time>
      </trkpt>
      <trkpt lat="42.654554" lon="0.658793">
        <ele>2464.5</ele>
        <time>1970-01-01T07:54:45.000Z</time>
      </trkpt>
      <trkpt lat="42.654554" lon="0.658794">
        <ele>2464.5</ele>
        <time>1970-01-01T07:54:46.000Z</time>
      </trkpt>
      <trkpt lat="42.654555" lon="0.658795">
        <ele>2464.5</ele>
        <time>1970-01-01T07:54:47.000Z</time>
      </trkpt>
      <trkpt lat="42.654552" lon="0.658798">
        <ele>2464.5</ele>
        <time>1970-01-01T07:54:48.000Z</time>
      </trkpt>
      <trkpt lat="42.654552" lon="0.658802">
        <ele>2464.5</ele>
        <time>1970-01-01T07:54:49.000Z</time>
      </trkpt>
      <trkpt lat="42.654553" lon="0.658806">
        <ele>2464.5</ele>
        <time>1970-01-01T07:54:50.000Z</time>
      </trkpt>
      <trkpt lat="42.654555" lon="0.658808">
        <ele>2464.5</ele>
        <time>1970-01-01T07:54:51.000Z</time>
      </trkpt>
      <trkpt lat="42.654556" lon="0.658807">
        <ele>2464.5</ele>
        <time>1970-01-01T07:54:52.000Z</time>
      </trkpt>
      <trkpt lat="42.654556" lon="0.658804">
        <ele>2464.5</ele>
        <time>1970-01-01T07:54:53.000Z</time>
      </trkpt>
      <trkpt lat="42.654554" lon="0.658802">
        <ele>2464.5</ele>
        <time>1970-01-01T07:54:54.000Z</time>
      </trkpt>
      <trkpt lat="42.654553" lon="0.658802">
        <ele>2464.5</ele>
        <time>1970-01-01T07:54:55.000Z</time>
      </trkpt>
      <trkpt lat="42.654554" lon="0.658802">
        <ele>2464.5</ele>
        <time>1970-01-01T07:54:56.000Z</time>
      </trkpt>
      <trkpt lat="42.654553" lon="0.658802">
        <ele>2464.5</ele>
        <time>1970-01-01T07:54:57.000Z</time>
      </trkpt>
      <trkpt lat="42.654553" lon="0.658802">
        <ele>2464.5</ele>
        <time>1970-01-01T07:54:58.000Z</time>
      </trkpt>
      <trkpt lat="42.654556" lon="0.658803">
        <ele>2464.5</ele>
        <time>1970-01-01T07:54:59.000Z</time>
      </trkpt>
      <trkpt lat="42.654557" lon="0.658803">
        <ele>2464.5</ele>
        <time>1970-01-01T07:55:00.000Z</time>
      </trkpt>
      <trkpt lat="42.654557" lon="0.658803">
        <ele>2464.5</ele>
        <time>1970-01-01T07:55:01.000Z</time>
      </trkpt>
      <trkpt lat="42.654557" lon="0.658803">
        <ele>2464.5</ele>
        <time>1970-01-01T07:55:02.000Z</time>
      </trkpt>
      <trkpt lat="42.654557" lon="0.658803">
        <ele>2464.5</ele>
        <time>1970-01-01T07:55:03.000Z</time>
      </trkpt>
      <trkpt lat="42.654557" lon="0.658803">
        <ele>2464.5</ele>
        <time>1970-01-01T07:55:04.000Z</time>
      </trkpt>
      <trkpt lat="42.654557" lon="0.658803">
        <ele>2464.5</ele>
        <time>1970-01-01T07:55:05.000Z</time>
      </trkpt>
      <trkpt lat="42.654557" lon="0.658803">
        <ele>2464.5</ele>
        <time>1970-01-01T07:55:06.000Z</time>
      </trkpt>
      <trkpt lat="42.654557" lon="0.658803">
        <ele>2464.5</ele>
        <time>1970-01-01T07:55:07.000Z</time>
      </trkpt>
      <trkpt lat="42.654557" lon="0.658803">
        <ele>2464.5</ele>
        <time>1970-01-01T07:55:08.000Z</time>
      </trkpt>
      <trkpt lat="42.654557" lon="0.658803">
        <ele>2464.5</ele>
        <time>1970-01-01T07:55:09.000Z</time>
      </trkpt>
      <trkpt lat="42.654557" lon="0.658803">
        <ele>2464.5</ele>
        <time>1970-01-01T07:55:10.000Z</time>
      </trkpt>
      <trkpt lat="42.654557" lon="0.658803">
        <ele>2464.5</ele>
        <time>1970-01-01T07:55:11.000Z</time>
      </trkpt>
      <trkpt lat="42.654557" lon="0.658803">
        <ele>2464.5</ele>
        <time>1970-01-01T07:55:12.000Z</time>
      </trkpt>
      <trkpt lat="42.654557" lon="0.658803">
        <ele>2464.5</ele>
        <time>1970-01-01T07:55:13.000Z</time>
      </trkpt>
      <trkpt lat="42.654557" lon="0.658803">
        <ele>2464.5</ele>
        <time>1970-01-01T07:55:14.000Z</time>
      </trkpt>
      <trkpt lat="42.654557" lon="0.658803">
        <ele>2464.5</ele>
        <time>1970-01-01T07:55:15.000Z</time>
      </trkpt>
      <trkpt lat="42.654557" lon="0.658803">
        <ele>2464.5</ele>
        <time>1970-01-01T07:55:16.000Z</time>
      </trkpt>
      <trkpt lat="42.654557" lon="0.658803">
        <ele>2464.5</ele>
        <time>1970-01-01T07:55:17.000Z</time>
      </trkpt>
      <trkpt lat="42.654557" lon="0.658803">
        <ele>2464.5</ele>
        <time>1970-01-01T07:55:18.000Z</time>
      </trkpt>
      <trkpt lat="42.654557" lon="0.658803">
        <ele>2464.5</ele>
        <time>1970-01-01T07:55:19.000Z</time>
      </trkpt>
      <trkpt lat="42.654557" lon="0.658803">
        <ele>2464.5</ele>
        <time>1970-01-01T07:55:20.000Z</time>
      </trkpt>
      <trkpt lat="42.654557" lon="0.658803">
        <ele>2464.5</ele>
        <time>1970-01-01T07:55:21.000Z</time>
      </trkpt>
      <trkpt lat="42.654557" lon="0.658803">
        <ele>2464.5</ele>
        <time>1970-01-01T07:55:22.000Z</time>
      </trkpt>
      <trkpt lat="42.654557" lon="0.658803">
        <ele>2464.5</ele>
        <time>1970-01-01T07:55:23.000Z</time>
      </trkpt>
      <trkpt lat="42.654557" lon="0.658803">
        <ele>2464.5</ele>
        <time>1970-01-01T07:55:24.000Z</time>
      </trkpt>
      <trkpt lat="42.654557" lon="0.658803">
        <ele>2464.5</ele>
        <time>1970-01-01T07:55:25.000Z</time>
      </trkpt>
      <trkpt lat="42.654557" lon="0.658803">
        <ele>2464.5</ele>
        <time>1970-01-01T07:55:26.000Z</time>
      </trkpt>
      <trkpt lat="42.654557" lon="0.658803">
        <ele>2464.5</ele>
        <time>1970-01-01T07:55:27.000Z</time>
      </trkpt>
      <trkpt lat="42.654557" lon="0.658803">
        <ele>2464.5</ele>
        <time>1970-01-01T07:55:28.000Z</time>
      </trkpt>
      <trkpt lat="42.654557" lon="0.658803">
        <ele>2464.5</ele>
        <time>1970-01-01T07:55:29.000Z</time>
      </trkpt>
      <trkpt lat="42.654557" lon="0.658803">
        <ele>2464.5</ele>
        <time>1970-01-01T07:55:30.000Z</time>
      </trkpt>
      <trkpt lat="42.654557" lon="0.658803">
        <ele>2464.5</ele>
        <time>1970-01-01T07:55:31.000Z</time>
      </trkpt>
      <trkpt lat="42.654557" lon="0.658803">
        <ele>2464.5</ele>
        <time>1970-01-01T07:55:32.000Z</time>
      </trkpt>
      <trkpt lat="42.654557" lon="0.658803">
        <ele>2464.5</ele>
        <time>1970-01-01T07:55:33.000Z</time>
      </trkpt>
      <trkpt lat="42.654557" lon="0.658803">
        <ele>2464.5</ele>
        <time>1970-01-01T07:55:34.000Z</time>
      </trkpt>
      <trkpt lat="42.654557" lon="0.658803">
        <ele>2464.5</ele>
        <time>1970-01-01T07:55:35.000Z</time>
      </trkpt>
      <trkpt lat="42.654557" lon="0.658803">
        <ele>2464.5</ele>
        <time>1970-01-01T07:55:36.000Z</time>
      </trkpt>
      <trkpt lat="42.654557" lon="0.658803">
        <ele>2464.5</ele>
        <time>1970-01-01T07:55:37.000Z</time>
      </trkpt>
      <trkpt lat="42.654557" lon="0.658803">
        <ele>2464.5</ele>
        <time>1970-01-01T07:55:38.000Z</time>
      </trkpt>
      <trkpt lat="42.654557" lon="0.658803">
        <ele>2464.5</ele>
        <time>1970-01-01T07:55:39.000Z</time>
      </trkpt>
      <trkpt lat="42.654557" lon="0.658803">
        <ele>2464.5</ele>
        <time>1970-01-01T07:55:40.000Z</time>
      </trkpt>
      <trkpt lat="42.654557" lon="0.658803">
        <ele>2464.5</ele>
        <time>1970-01-01T07:55:41.000Z</time>
      </trkpt>
      <trkpt lat="42.654557" lon="0.658803">
        <ele>2464.5</ele>
        <time>1970-01-01T07:55:42.000Z</time>
      </trkpt>
      <trkpt lat="42.654557" lon="0.658803">
        <ele>2464.5</ele>
        <time>1970-01-01T07:55:43.000Z</time>
      </trkpt>
      <trkpt lat="42.654557" lon="0.658803">
        <ele>2464.5</ele>
        <time>1970-01-01T07:55:44.000Z</time>
      </trkpt>
      <trkpt lat="42.654557" lon="0.658803">
        <ele>2464.5</ele>
        <time>1970-01-01T07:55:45.000Z</time>
      </trkpt>
      <trkpt lat="42.654557" lon="0.658803">
        <ele>2464.5</ele>
        <time>1970-01-01T07:55:46.000Z</time>
      </trkpt>
      <trkpt lat="42.654557" lon="0.658803">
        <ele>2464.5</ele>
        <time>1970-01-01T07:55:47.000Z</time>
      </trkpt>
      <trkpt lat="42.654557" lon="0.658803">
        <ele>2464.5</ele>
        <time>1970-01-01T07:55:48.000Z</time>
      </trkpt>
      <trkpt lat="42.654557" lon="0.658803">
        <ele>2464.5</ele>
        <time>1970-01-01T07:55:49.000Z</time>
      </trkpt>
      <trkpt lat="42.654557" lon="0.658803">
        <ele>2464.5</ele>
        <time>1970-01-01T07:55:50.000Z</time>
      </trkpt>
      <trkpt lat="42.654557" lon="0.658803">
        <ele>2464.5</ele>
        <time>1970-01-01T07:55:51.000Z</time>
      </trkpt>
      <trkpt lat="42.654557" lon="0.658803">
        <ele>2464.5</ele>
        <time>1970-01-01T07:55:52.000Z</time>
      </trkpt>
      <trkpt lat="42.654557" lon="0.658803">
        <ele>2464.5</ele>
        <time>1970-01-01T07:55:53.000Z</time>
      </trkpt>
      <trkpt lat="42.654557" lon="0.658803">
        <ele>2464.5</ele>
        <time>1970-01-01T07:55:54.000Z</time>
      </trkpt>
      <trkpt lat="42.654557" lon="0.658803">
        <ele>2464.5</ele>
        <time>1970-01-01T07:55:55.000Z</time>
      </trkpt>
      <trkpt lat="42.654557" lon="0.658803">
        <ele>2464.5</ele>
        <time>1970-01-01T07:55:56.000Z</time>
      </trkpt>
      <trkpt lat="42.654557" lon="0.658803">
        <ele>2464.5</ele>
        <time>1970-01-01T07:55:57.000Z</time>
      </trkpt>
      <trkpt lat="42.654557" lon="0.658803">
        <ele>2464.5</ele>
        <time>1970-01-01T07:55:58.000Z</time>
      </trkpt>
      <trkpt lat="42.654557" lon="0.658803">
        <ele>2464.5</ele>
        <time>1970-01-01T07:55:59.000Z</time>
      </trkpt>
      <trkpt lat="42.654557" lon="0.658803">
        <ele>2464.5</ele>
        <time>1970-01-01T07:56:00.000Z</time>
      </trkpt>
      <trkpt lat="42.654557" lon="0.658803">
        <ele>2464.5</ele>
        <time>1970-01-01T07:56:01.000Z</time>
      </trkpt>
      <trkpt lat="42.654557" lon="0.658803">
        <ele>2464.5</ele>
        <time>1970-01-01T07:56:02.000Z</time>
      </trkpt>
      <trkpt lat="42.654557" lon="0.658803">
        <ele>2464.5</ele>
        <time>1970-01-01T07:56:03.000Z</time>
      </trkpt>
      <trkpt lat="42.654557" lon="0.658803">
        <ele>2464.5</ele>
        <time>1970-01-01T07:56:04.000Z</time>
      </trkpt>
      <trkpt lat="42.654557" lon="0.658803">
        <ele>2464.5</ele>
        <time>1970-01-01T07:56:05.000Z</time>
      </trkpt>
      <trkpt lat="42.654557" lon="0.658803">
        <ele>2464.5</ele>
        <time>1970-01-01T07:56:06.000Z</time>
      </trkpt>
      <trkpt lat="42.654557" lon="0.658803">
        <ele>2464.5</ele>
        <time>1970-01-01T07:56:07.000Z</time>
      </trkpt>
      <trkpt lat="42.654557" lon="0.658803">
        <ele>2464.5</ele>
        <time>1970-01-01T07:56:08.000Z</time>
      </trkpt>
      <trkpt lat="42.654557" lon="0.658803">
        <ele>2464.5</ele>
        <time>1970-01-01T07:56:09.000Z</time>
      </trkpt>
      <trkpt lat="42.654557" lon="0.658803">
        <ele>2464.5</ele>
        <time>1970-01-01T07:56:10.000Z</time>
      </trkpt>
      <trkpt lat="42.654557" lon="0.658803">
        <ele>2464.5</ele>
        <time>1970-01-01T07:56:11.000Z</time>
      </trkpt>
      <trkpt lat="42.654557" lon="0.658803">
        <ele>2464.5</ele>
        <time>1970-01-01T07:56:12.000Z</time>
      </trkpt>
      <trkpt lat="42.654557" lon="0.658803">
        <ele>2464.5</ele>
        <time>1970-01-01T07:56:13.000Z</time>
      </trkpt>
      <trkpt lat="42.654557" lon="0.658803">
        <ele>2464.5</ele>
        <time>1970-01-01T07:56:14.000Z</time>
      </trkpt>
      <trkpt lat="42.654557" lon="0.658803">
        <ele>2464.5</ele>
        <time>1970-01-01T07:56:15.000Z</time>
      </trkpt>
      <trkpt lat="42.654557" lon="0.658803">
        <ele>2464.5</ele>
        <time>1970-01-01T07:56:16.000Z</time>
      </trkpt>
      <trkpt lat="42.654557" lon="0.658803">
        <ele>2464.5</ele>
        <time>1970-01-01T07:56:17.000Z</time>
      </trkpt>
      <trkpt lat="42.654557" lon="0.658803">
        <ele>2464.5</ele>
        <time>1970-01-01T07:56:18.000Z</time>
      </trkpt>
      <trkpt lat="42.654557" lon="0.658803">
        <ele>2464.5</ele>
        <time>1970-01-01T07:56:19.000Z</time>
      </trkpt>
      <trkpt lat="42.654557" lon="0.658803">
        <ele>2464.5</ele>
        <time>1970-01-01T07:56:20.000Z</time>
      </trkpt>
      <trkpt lat="42.654557" lon="0.658803">
        <ele>2464.5</ele>
        <time>1970-01-01T07:56:21.000Z</time>
      </trkpt>
      <trkpt lat="42.654557" lon="0.658803">
        <ele>2464.5</ele>
        <time>1970-01-01T07:56:22.000Z</time>
      </trkpt>
      <trkpt lat="42.654557" lon="0.658803">
        <ele>2464.5</ele>
        <time>1970-01-01T07:56:23.000Z</time>
      </trkpt>
      <trkpt lat="42.654557" lon="0.658803">
        <ele>2464.5</ele>
        <time>1970-01-01T07:56:24.000Z</time>
      </trkpt>
      <trkpt lat="42.654557" lon="0.658803">
        <ele>2464.5</ele>
        <time>1970-01-01T07:56:25.000Z</time>
      </trkpt>
      <trkpt lat="42.654557" lon="0.658803">
        <ele>2464.5</ele>
        <time>1970-01-01T07:56:26.000Z</time>
      </trkpt>
      <trkpt lat="42.654557" lon="0.658803">
        <ele>2464.5</ele>
        <time>1970-01-01T07:56:27.000Z</time>
      </trkpt>
      <trkpt lat="42.654557" lon="0.658803">
        <ele>2464.5</ele>
        <time>1970-01-01T07:56:28.000Z</time>
      </trkpt>
      <trkpt lat="42.654557" lon="0.658803">
        <ele>2464.5</ele>
        <time>1970-01-01T07:56:29.000Z</time>
      </trkpt>
      <trkpt lat="42.654557" lon="0.658803">
        <ele>2464.5</ele>
        <time>1970-01-01T07:56:30.000Z</time>
      </trkpt>
      <trkpt lat="42.654557" lon="0.658803">
        <ele>2464.5</ele>
        <time>1970-01-01T07:56:31.000Z</time>
      </trkpt>
      <trkpt lat="42.654557" lon="0.658803">
        <ele>2464.5</ele>
        <time>1970-01-01T07:56:32.000Z</time>
      </trkpt>
      <trkpt lat="42.654557" lon="0.658803">
        <ele>2464.5</ele>
        <time>1970-01-01T07:56:33.000Z</time>
      </trkpt>
      <trkpt lat="42.654557" lon="0.658803">
        <ele>2464.5</ele>
        <time>1970-01-01T07:56:34.000Z</time>
      </trkpt>
      <trkpt lat="42.654557" lon="0.658803">
        <ele>2464.5</ele>
        <time>1970-01-01T07:56:35.000Z</time>
      </trkpt>
      <trkpt lat="42.654557" lon="0.658803">
        <ele>2464.5</ele>
        <time>1970-01-01T07:56:36.000Z</time>
      </trkpt>
      <trkpt lat="42.654557" lon="0.658803">
        <ele>2464.5</ele>
        <time>1970-01-01T07:56:37.000Z</time>
      </trkpt>
      <trkpt lat="42.654557" lon="0.658803">
        <ele>2464.5</ele>
        <time>1970-01-01T07:56:38.000Z</time>
      </trkpt>
      <trkpt lat="42.654557" lon="0.658803">
        <ele>2464.5</ele>
        <time>1970-01-01T07:56:39.000Z</time>
      </trkpt>
      <trkpt lat="42.654557" lon="0.658803">
        <ele>2464.5</ele>
        <time>1970-01-01T07:56:40.000Z</time>
      </trkpt>
      <trkpt lat="42.654557" lon="0.658803">
        <ele>2464.5</ele>
        <time>1970-01-01T07:56:41.000Z</time>
      </trkpt>
      <trkpt lat="42.654557" lon="0.658803">
        <ele>2464.5</ele>
        <time>1970-01-01T07:56:42.000Z</time>
      </trkpt>
      <trkpt lat="42.654557" lon="0.658803">
        <ele>2464.5</ele>
        <time>1970-01-01T07:56:43.000Z</time>
      </trkpt>
      <trkpt lat="42.654557" lon="0.658803">
        <ele>2464.5</ele>
        <time>1970-01-01T07:56:44.000Z</time>
      </trkpt>
      <trkpt lat="42.654557" lon="0.658803">
        <ele>2464.5</ele>
        <time>1970-01-01T07:56:45.000Z</time>
      </trkpt>
      <trkpt lat="42.654557" lon="0.658803">
        <ele>2464.5</ele>
        <time>1970-01-01T07:56:46.000Z</time>
      </trkpt>
      <trkpt lat="42.654557" lon="0.658803">
        <ele>2464.5</ele>
        <time>1970-01-01T07:56:47.000Z</time>
      </trkpt>
      <trkpt lat="42.654557" lon="0.658803">
        <ele>2464.5</ele>
        <time>1970-01-01T07:56:48.000Z</time>
      </trkpt>
      <trkpt lat="42.654557" lon="0.658803">
        <ele>2464.5</ele>
        <time>1970-01-01T07:56:49.000Z</time>
      </trkpt>
      <trkpt lat="42.654557" lon="0.658803">
        <ele>2464.5</ele>
        <time>1970-01-01T07:56:50.000Z</time>
      </trkpt>
      <trkpt lat="42.654557" lon="0.658803">
        <ele>2464.5</ele>
        <time>1970-01-01T07:56:51.000Z</time>
      </trkpt>
      <trkpt lat="42.654557" lon="0.658803">
        <ele>2464.5</ele>
        <time>1970-01-01T07:56:52.000Z</time>
      </trkpt>
      <trkpt lat="42.654557" lon="0.658803">
        <ele>2464.5</ele>
        <time>1970-01-01T07:56:53.000Z</time>
      </trkpt>
      <trkpt lat="42.654557" lon="0.658803">
        <ele>2464.5</ele>
        <time>1970-01-01T07:56:54.000Z</time>
      </trkpt>
      <trkpt lat="42.654557" lon="0.658803">
        <ele>2464.5</ele>
        <time>1970-01-01T07:56:55.000Z</time>
      </trkpt>
      <trkpt lat="42.654557" lon="0.658803">
        <ele>2464.5</ele>
        <time>1970-01-01T07:56:56.000Z</time>
      </trkpt>
      <trkpt lat="42.654557" lon="0.658803">
        <ele>2464.5</ele>
        <time>1970-01-01T07:56:57.000Z</time>
      </trkpt>
      <trkpt lat="42.654557" lon="0.658803">
        <ele>2464.5</ele>
        <time>1970-01-01T07:56:58.000Z</time>
      </trkpt>
      <trkpt lat="42.654557" lon="0.658803">
        <ele>2464.5</ele>
        <time>1970-01-01T07:56:59.000Z</time>
      </trkpt>
      <trkpt lat="42.654557" lon="0.658803">
        <ele>2464.5</ele>
        <time>1970-01-01T07:57:00.000Z</time>
      </trkpt>
      <trkpt lat="42.654557" lon="0.658803">
        <ele>2464.5</ele>
        <time>1970-01-01T07:57:01.000Z</time>
      </trkpt>
      <trkpt lat="42.654557" lon="0.658803">
        <ele>2464.5</ele>
        <time>1970-01-01T07:57:02.000Z</time>
      </trkpt>
      <trkpt lat="42.654557" lon="0.658803">
        <ele>2464.5</ele>
        <time>1970-01-01T07:57:03.000Z</time>
      </trkpt>
      <trkpt lat="42.654557" lon="0.658803">
        <ele>2464.5</ele>
        <time>1970-01-01T07:57:04.000Z</time>
      </trkpt>
      <trkpt lat="42.654557" lon="0.658803">
        <ele>2464.5</ele>
        <time>1970-01-01T07:57:05.000Z</time>
      </trkpt>
      <trkpt lat="42.654557" lon="0.658803">
        <ele>2464.5</ele>
        <time>1970-01-01T07:57:06.000Z</time>
      </trkpt>
      <trkpt lat="42.654557" lon="0.658803">
        <ele>2464.5</ele>
        <time>1970-01-01T07:57:07.000Z</time>
      </trkpt>
      <trkpt lat="42.654557" lon="0.658803">
        <ele>2464.5</ele>
        <time>1970-01-01T07:57:08.000Z</time>
      </trkpt>
      <trkpt lat="42.654557" lon="0.658803">
        <ele>2464.5</ele>
        <time>1970-01-01T07:57:09.000Z</time>
      </trkpt>
      <trkpt lat="42.654557" lon="0.658803">
        <ele>2464.5</ele>
        <time>1970-01-01T07:57:10.000Z</time>
      </trkpt>
      <trkpt lat="42.654557" lon="0.658803">
        <ele>2464.5</ele>
        <time>1970-01-01T07:57:11.000Z</time>
      </trkpt>
      <trkpt lat="42.654557" lon="0.658803">
        <ele>2464.5</ele>
        <time>1970-01-01T07:57:12.000Z</time>
      </trkpt>
      <trkpt lat="42.654557" lon="0.658803">
        <ele>2464.5</ele>
        <time>1970-01-01T07:57:13.000Z</time>
      </trkpt>
      <trkpt lat="42.654557" lon="0.658803">
        <ele>2464.5</ele>
        <time>1970-01-01T07:57:14.000Z</time>
      </trkpt>
      <trkpt lat="42.654557" lon="0.658803">
        <ele>2464.5</ele>
        <time>1970-01-01T07:57:15.000Z</time>
      </trkpt>
      <trkpt lat="42.654557" lon="0.658803">
        <ele>2464.5</ele>
        <time>1970-01-01T07:57:16.000Z</time>
      </trkpt>
      <trkpt lat="42.654557" lon="0.658803">
        <ele>2464.5</ele>
        <time>1970-01-01T07:57:17.000Z</time>
      </trkpt>
      <trkpt lat="42.654557" lon="0.658803">
        <ele>2464.5</ele>
        <time>1970-01-01T07:57:18.000Z</time>
      </trkpt>
      <trkpt lat="42.654557" lon="0.658803">
        <ele>2464.5</ele>
        <time>1970-01-01T07:57:19.000Z</time>
      </trkpt>
      <trkpt lat="42.654557" lon="0.658803">
        <ele>2464.5</ele>
        <time>1970-01-01T07:57:20.000Z</time>
      </trkpt>
      <trkpt lat="42.654557" lon="0.658803">
        <ele>2464.5</ele>
        <time>1970-01-01T07:57:21.000Z</time>
      </trkpt>
      <trkpt lat="42.654557" lon="0.658803">
        <ele>2464.5</ele>
        <time>1970-01-01T07:57:22.000Z</time>
      </trkpt>
      <trkpt lat="42.654557" lon="0.658803">
        <ele>2464.5</ele>
        <time>1970-01-01T07:57:23.000Z</time>
      </trkpt>
      <trkpt lat="42.654557" lon="0.658803">
        <ele>2464.5</ele>
        <time>1970-01-01T07:57:24.000Z</time>
      </trkpt>
      <trkpt lat="42.654557" lon="0.658803">
        <ele>2464.5</ele>
        <time>1970-01-01T07:57:25.000Z</time>
      </trkpt>
      <trkpt lat="42.654557" lon="0.658803">
        <ele>2464.5</ele>
        <time>1970-01-01T07:57:26.000Z</time>
      </trkpt>
      <trkpt lat="42.654557" lon="0.658804">
        <ele>2464.5</ele>
        <time>1970-01-01T07:57:27.000Z</time>
      </trkpt>
      <trkpt lat="42.654557" lon="0.658803">
        <ele>2464.5</ele>
        <time>1970-01-01T07:57:28.000Z</time>
      </trkpt>
      <trkpt lat="42.654557" lon="0.658803">
        <ele>2464.5</ele>
        <time>1970-01-01T07:57:29.000Z</time>
      </trkpt>
      <trkpt lat="42.654557" lon="0.658803">
        <ele>2464.5</ele>
        <time>1970-01-01T07:57:30.000Z</time>
      </trkpt>
      <trkpt lat="42.654557" lon="0.658803">
        <ele>2464.5</ele>
        <time>1970-01-01T07:57:31.000Z</time>
      </trkpt>
      <trkpt lat="42.654557" lon="0.658803">
        <ele>2464.5</ele>
        <time>1970-01-01T07:57:32.000Z</time>
      </trkpt>
      <trkpt lat="42.654557" lon="0.658803">
        <ele>2464.5</ele>
        <time>1970-01-01T07:57:33.000Z</time>
      </trkpt>
      <trkpt lat="42.654557" lon="0.658803">
        <ele>2464.5</ele>
        <time>1970-01-01T07:57:34.000Z</time>
      </trkpt>
      <trkpt lat="42.654557" lon="0.658803">
        <ele>2464.5</ele>
        <time>1970-01-01T07:57:35.000Z</time>
      </trkpt>
      <trkpt lat="42.654557" lon="0.658803">
        <ele>2464.5</ele>
        <time>1970-01-01T07:57:36.000Z</time>
      </trkpt>
      <trkpt lat="42.654557" lon="0.658803">
        <ele>2464.5</ele>
        <time>1970-01-01T07:57:37.000Z</time>
      </trkpt>
      <trkpt lat="42.654557" lon="0.658803">
        <ele>2464.5</ele>
        <time>1970-01-01T07:57:38.000Z</time>
      </trkpt>
      <trkpt lat="42.654557" lon="0.658803">
        <ele>2464.5</ele>
        <time>1970-01-01T07:57:39.000Z</time>
      </trkpt>
      <trkpt lat="42.654557" lon="0.658803">
        <ele>2464.5</ele>
        <time>1970-01-01T07:57:40.000Z</time>
      </trkpt>
      <trkpt lat="42.654557" lon="0.658803">
        <ele>2464.5</ele>
        <time>1970-01-01T07:57:41.000Z</time>
      </trkpt>
      <trkpt lat="42.654557" lon="0.658803">
        <ele>2464.5</ele>
        <time>1970-01-01T07:57:42.000Z</time>
      </trkpt>
      <trkpt lat="42.654557" lon="0.658803">
        <ele>2464.5</ele>
        <time>1970-01-01T07:57:43.000Z</time>
      </trkpt>
      <trkpt lat="42.654557" lon="0.658803">
        <ele>2464.5</ele>
        <time>1970-01-01T07:57:44.000Z</time>
      </trkpt>
      <trkpt lat="42.654557" lon="0.658803">
        <ele>2464.5</ele>
        <time>1970-01-01T07:57:45.000Z</time>
      </trkpt>
      <trkpt lat="42.654557" lon="0.658803">
        <ele>2464.5</ele>
        <time>1970-01-01T07:57:46.000Z</time>
      </trkpt>
      <trkpt lat="42.654557" lon="0.658803">
        <ele>2464.5</ele>
        <time>1970-01-01T07:57:47.000Z</time>
      </trkpt>
      <trkpt lat="42.654557" lon="0.658803">
        <ele>2464.5</ele>
        <time>1970-01-01T07:57:48.000Z</time>
      </trkpt>
      <trkpt lat="42.654557" lon="0.658803">
        <ele>2464.5</ele>
        <time>1970-01-01T07:57:49.000Z</time>
      </trkpt>
      <trkpt lat="42.654557" lon="0.658803">
        <ele>2464.5</ele>
        <time>1970-01-01T07:57:50.000Z</time>
      </trkpt>
      <trkpt lat="42.654557" lon="0.658803">
        <ele>2464.5</ele>
        <time>1970-01-01T07:57:51.000Z</time>
      </trkpt>
      <trkpt lat="42.654557" lon="0.658803">
        <ele>2464.5</ele>
        <time>1970-01-01T07:57:52.000Z</time>
      </trkpt>
      <trkpt lat="42.654557" lon="0.658803">
        <ele>2464.5</ele>
        <time>1970-01-01T07:57:53.000Z</time>
      </trkpt>
      <trkpt lat="42.654557" lon="0.658804">
        <ele>2464.5</ele>
        <time>1970-01-01T07:57:54.000Z</time>
      </trkpt>
      <trkpt lat="42.654557" lon="0.658804">
        <ele>2464.5</ele>
        <time>1970-01-01T07:57:55.000Z</time>
      </trkpt>
      <trkpt lat="42.654557" lon="0.658804">
        <ele>2464.5</ele>
        <time>1970-01-01T07:57:56.000Z</time>
      </trkpt>
      <trkpt lat="42.654557" lon="0.658804">
        <ele>2464.5</ele>
        <time>1970-01-01T07:57:57.000Z</time>
      </trkpt>
      <trkpt lat="42.654557" lon="0.658803">
        <ele>2464.5</ele>
        <time>1970-01-01T07:57:58.000Z</time>
      </trkpt>
      <trkpt lat="42.654557" lon="0.658804">
        <ele>2464.5</ele>
        <time>1970-01-01T07:57:59.000Z</time>
      </trkpt>
      <trkpt lat="42.654557" lon="0.658804">
        <ele>2464.5</ele>
        <time>1970-01-01T07:58:00.000Z</time>
      </trkpt>
      <trkpt lat="42.654557" lon="0.658804">
        <ele>2464.5</ele>
        <time>1970-01-01T07:58:01.000Z</time>
      </trkpt>
      <trkpt lat="42.654557" lon="0.658804">
        <ele>2464.5</ele>
        <time>1970-01-01T07:58:02.000Z</time>
      </trkpt>
      <trkpt lat="42.654557" lon="0.658804">
        <ele>2464.5</ele>
        <time>1970-01-01T07:58:03.000Z</time>
      </trkpt>
      <trkpt lat="42.654557" lon="0.658804">
        <ele>2464.5</ele>
        <time>1970-01-01T07:58:04.000Z</time>
      </trkpt>
      <trkpt lat="42.654557" lon="0.658804">
        <ele>2464.5</ele>
        <time>1970-01-01T07:58:05.000Z</time>
      </trkpt>
      <trkpt lat="42.654557" lon="0.658804">
        <ele>2464.5</ele>
        <time>1970-01-01T07:58:06.000Z</time>
      </trkpt>
      <trkpt lat="42.654557" lon="0.658804">
        <ele>2464.5</ele>
        <time>1970-01-01T07:58:07.000Z</time>
      </trkpt>
      <trkpt lat="42.654557" lon="0.658804">
        <ele>2464.5</ele>
        <time>1970-01-01T07:58:08.000Z</time>
      </trkpt>
      <trkpt lat="42.654557" lon="0.658804">
        <ele>2464.5</ele>
        <time>1970-01-01T07:58:09.000Z</time>
      </trkpt>
      <trkpt lat="42.654557" lon="0.658804">
        <ele>2464.5</ele>
        <time>1970-01-01T07:58:10.000Z</time>
      </trkpt>
      <trkpt lat="42.654557" lon="0.658804">
        <ele>2464.5</ele>
        <time>1970-01-01T07:58:11.000Z</time>
      </trkpt>
      <trkpt lat="42.654557" lon="0.658804">
        <ele>2464.5</ele>
        <time>1970-01-01T07:58:12.000Z</time>
      </trkpt>
      <trkpt lat="42.654557" lon="0.658804">
        <ele>2464.5</ele>
        <time>1970-01-01T07:58:13.000Z</time>
      </trkpt>
      <trkpt lat="42.654557" lon="0.658804">
        <ele>2464.5</ele>
        <time>1970-01-01T07:58:14.000Z</time>
      </trkpt>
      <trkpt lat="42.654557" lon="0.658804">
        <ele>2464.5</ele>
        <time>1970-01-01T07:58:15.000Z</time>
      </trkpt>
      <trkpt lat="42.654557" lon="0.658804">
        <ele>2464.5</ele>
        <time>1970-01-01T07:58:16.000Z</time>
      </trkpt>
      <trkpt lat="42.654557" lon="0.658804">
        <ele>2464.5</ele>
        <time>1970-01-01T07:58:17.000Z</time>
      </trkpt>
      <trkpt lat="42.654557" lon="0.658804">
        <ele>2464.5</ele>
        <time>1970-01-01T07:58:18.000Z</time>
      </trkpt>
      <trkpt lat="42.654557" lon="0.658804">
        <ele>2464.5</ele>
        <time>1970-01-01T07:58:19.000Z</time>
      </trkpt>
      <trkpt lat="42.654557" lon="0.658804">
        <ele>2464.5</ele>
        <time>1970-01-01T07:58:20.000Z</time>
      </trkpt>
      <trkpt lat="42.654557" lon="0.658804">
        <ele>2464.5</ele>
        <time>1970-01-01T07:58:21.000Z</time>
      </trkpt>
      <trkpt lat="42.654557" lon="0.658804">
        <ele>2464.5</ele>
        <time>1970-01-01T07:58:22.000Z</time>
      </trkpt>
      <trkpt lat="42.654557" lon="0.658804">
        <ele>2464.5</ele>
        <time>1970-01-01T07:58:23.000Z</time>
      </trkpt>
      <trkpt lat="42.654557" lon="0.658804">
        <ele>2464.5</ele>
        <time>1970-01-01T07:58:24.000Z</time>
      </trkpt>
      <trkpt lat="42.654557" lon="0.658804">
        <ele>2464.5</ele>
        <time>1970-01-01T07:58:25.000Z</time>
      </trkpt>
      <trkpt lat="42.654557" lon="0.658804">
        <ele>2464.5</ele>
        <time>1970-01-01T07:58:26.000Z</time>
      </trkpt>
      <trkpt lat="42.654557" lon="0.658804">
        <ele>2464.5</ele>
        <time>1970-01-01T07:58:27.000Z</time>
      </trkpt>
      <trkpt lat="42.654557" lon="0.658804">
        <ele>2464.5</ele>
        <time>1970-01-01T07:58:28.000Z</time>
      </trkpt>
      <trkpt lat="42.654557" lon="0.658804">
        <ele>2464.5</ele>
        <time>1970-01-01T07:58:29.000Z</time>
      </trkpt>
      <trkpt lat="42.654557" lon="0.658804">
        <ele>2464.5</ele>
        <time>1970-01-01T07:58:30.000Z</time>
      </trkpt>
      <trkpt lat="42.654557" lon="0.658804">
        <ele>2464.5</ele>
        <time>1970-01-01T07:58:31.000Z</time>
      </trkpt>
      <trkpt lat="42.654557" lon="0.658804">
        <ele>2464.5</ele>
        <time>1970-01-01T07:58:32.000Z</time>
      </trkpt>
      <trkpt lat="42.654557" lon="0.658804">
        <ele>2464.5</ele>
        <time>1970-01-01T07:58:33.000Z</time>
      </trkpt>
      <trkpt lat="42.654557" lon="0.658804">
        <ele>2464.5</ele>
        <time>1970-01-01T07:58:34.000Z</time>
      </trkpt>
      <trkpt lat="42.654557" lon="0.658804">
        <ele>2464.5</ele>
        <time>1970-01-01T07:58:35.000Z</time>
      </trkpt>
      <trkpt lat="42.654557" lon="0.658804">
        <ele>2464.5</ele>
        <time>1970-01-01T07:58:36.000Z</time>
      </trkpt>
      <trkpt lat="42.654557" lon="0.658804">
        <ele>2464.5</ele>
        <time>1970-01-01T07:58:37.000Z</time>
      </trkpt>
      <trkpt lat="42.654557" lon="0.658804">
        <ele>2464.5</ele>
        <time>1970-01-01T07:58:38.000Z</time>
      </trkpt>
      <trkpt lat="42.654557" lon="0.658804">
        <ele>2464.5</ele>
        <time>1970-01-01T07:58:39.000Z</time>
      </trkpt>
      <trkpt lat="42.654557" lon="0.658804">
        <ele>2464.5</ele>
        <time>1970-01-01T07:58:40.000Z</time>
      </trkpt>
      <trkpt lat="42.654557" lon="0.658804">
        <ele>2464.5</ele>
        <time>1970-01-01T07:58:41.000Z</time>
      </trkpt>
      <trkpt lat="42.654557" lon="0.658804">
        <ele>2464.5</ele>
        <time>1970-01-01T07:58:42.000Z</time>
      </trkpt>
      <trkpt lat="42.654557" lon="0.658804">
        <ele>2464.5</ele>
        <time>1970-01-01T07:58:43.000Z</time>
      </trkpt>
      <trkpt lat="42.654557" lon="0.658804">
        <ele>2464.5</ele>
        <time>1970-01-01T07:58:44.000Z</time>
      </trkpt>
      <trkpt lat="42.654557" lon="0.658804">
        <ele>2464.5</ele>
        <time>1970-01-01T07:58:45.000Z</time>
      </trkpt>
      <trkpt lat="42.654557" lon="0.658804">
        <ele>2464.5</ele>
        <time>1970-01-01T07:58:46.000Z</time>
      </trkpt>
      <trkpt lat="42.654557" lon="0.658804">
        <ele>2464.5</ele>
        <time>1970-01-01T07:58:47.000Z</time>
      </trkpt>
      <trkpt lat="42.654557" lon="0.658804">
        <ele>2464.5</ele>
        <time>1970-01-01T07:58:48.000Z</time>
      </trkpt>
      <trkpt lat="42.654557" lon="0.658804">
        <ele>2464.5</ele>
        <time>1970-01-01T07:58:49.000Z</time>
      </trkpt>
      <trkpt lat="42.654557" lon="0.658804">
        <ele>2464.5</ele>
        <time>1970-01-01T07:58:50.000Z</time>
      </trkpt>
      <trkpt lat="42.654557" lon="0.658804">
        <ele>2464.5</ele>
        <time>1970-01-01T07:58:51.000Z</time>
      </trkpt>
      <trkpt lat="42.654557" lon="0.658804">
        <ele>2464.5</ele>
        <time>1970-01-01T07:58:52.000Z</time>
      </trkpt>
      <trkpt lat="42.654557" lon="0.658804">
        <ele>2464.5</ele>
        <time>1970-01-01T07:58:53.000Z</time>
      </trkpt>
      <trkpt lat="42.654557" lon="0.658804">
        <ele>2464.5</ele>
        <time>1970-01-01T07:58:54.000Z</time>
      </trkpt>
      <trkpt lat="42.654557" lon="0.658804">
        <ele>2464.5</ele>
        <time>1970-01-01T07:58:55.000Z</time>
      </trkpt>
      <trkpt lat="42.654557" lon="0.658804">
        <ele>2464.5</ele>
        <time>1970-01-01T07:58:56.000Z</time>
      </trkpt>
      <trkpt lat="42.654557" lon="0.658804">
        <ele>2464.5</ele>
        <time>1970-01-01T07:58:57.000Z</time>
      </trkpt>
      <trkpt lat="42.654557" lon="0.658804">
        <ele>2464.5</ele>
        <time>1970-01-01T07:58:58.000Z</time>
      </trkpt>
      <trkpt lat="42.654557" lon="0.658804">
        <ele>2464.5</ele>
        <time>1970-01-01T07:58:59.000Z</time>
      </trkpt>
      <trkpt lat="42.654557" lon="0.658804">
        <ele>2464.5</ele>
        <time>1970-01-01T07:59:00.000Z</time>
      </trkpt>
      <trkpt lat="42.654557" lon="0.658804">
        <ele>2464.5</ele>
        <time>1970-01-01T07:59:01.000Z</time>
      </trkpt>
      <trkpt lat="42.654557" lon="0.658804">
        <ele>2464.5</ele>
        <time>1970-01-01T07:59:02.000Z</time>
      </trkpt>
      <trkpt lat="42.654557" lon="0.658804">
        <ele>2464.5</ele>
        <time>1970-01-01T07:59:03.000Z</time>
      </trkpt>
      <trkpt lat="42.654557" lon="0.658804">
        <ele>2464.5</ele>
        <time>1970-01-01T07:59:04.000Z</time>
      </trkpt>
      <trkpt lat="42.654557" lon="0.658804">
        <ele>2464.5</ele>
        <time>1970-01-01T07:59:05.000Z</time>
      </trkpt>
      <trkpt lat="42.654557" lon="0.658804">
        <ele>2464.5</ele>
        <time>1970-01-01T07:59:06.000Z</time>
      </trkpt>
      <trkpt lat="42.654557" lon="0.658804">
        <ele>2464.5</ele>
        <time>1970-01-01T07:59:07.000Z</time>
      </trkpt>
      <trkpt lat="42.654556" lon="0.658804">
        <ele>2464.5</ele>
        <time>1970-01-01T07:59:08.000Z</time>
      </trkpt>
      <trkpt lat="42.654556" lon="0.658804">
        <ele>2464.5</ele>
        <time>1970-01-01T07:59:09.000Z</time>
      </trkpt>
      <trkpt lat="42.654556" lon="0.658804">
        <ele>2464.5</ele>
        <time>1970-01-01T07:59:10.000Z</time>
      </trkpt>
      <trkpt lat="42.654556" lon="0.658804">
        <ele>2464.5</ele>
        <time>1970-01-01T07:59:11.000Z</time>
      </trkpt>
      <trkpt lat="42.654556" lon="0.658804">
        <ele>2464.5</ele>
        <time>1970-01-01T07:59:12.000Z</time>
      </trkpt>
      <trkpt lat="42.654556" lon="0.658804">
        <ele>2464.5</ele>
        <time>1970-01-01T07:59:13.000Z</time>
      </trkpt>
      <trkpt lat="42.654557" lon="0.658804">
        <ele>2464.5</ele>
        <time>1970-01-01T07:59:14.000Z</time>
      </trkpt>
      <trkpt lat="42.654556" lon="0.658804">
        <ele>2464.5</ele>
        <time>1970-01-01T07:59:15.000Z</time>
      </trkpt>
      <trkpt lat="42.654556" lon="0.658804">
        <ele>2464.5</ele>
        <time>1970-01-01T07:59:16.000Z</time>
      </trkpt>
      <trkpt lat="42.654556" lon="0.658804">
        <ele>2464.5</ele>
        <time>1970-01-01T07:59:17.000Z</time>
      </trkpt>
      <trkpt lat="42.654556" lon="0.658804">
        <ele>2464.5</ele>
        <time>1970-01-01T07:59:18.000Z</time>
      </trkpt>
      <trkpt lat="42.654556" lon="0.658804">
        <ele>2464.5</ele>
        <time>1970-01-01T07:59:19.000Z</time>
      </trkpt>
      <trkpt lat="42.654556" lon="0.658804">
        <ele>2464.5</ele>
        <time>1970-01-01T07:59:20.000Z</time>
      </trkpt>
      <trkpt lat="42.654556" lon="0.658804">
        <ele>2464.5</ele>
        <time>1970-01-01T07:59:21.000Z</time>
      </trkpt>
      <trkpt lat="42.654556" lon="0.658804">
        <ele>2464.5</ele>
        <time>1970-01-01T07:59:22.000Z</time>
      </trkpt>
      <trkpt lat="42.654556" lon="0.658804">
        <ele>2464.5</ele>
        <time>1970-01-01T07:59:23.000Z</time>
      </trkpt>
      <trkpt lat="42.654556" lon="0.658804">
        <ele>2464.5</ele>
        <time>1970-01-01T07:59:24.000Z</time>
      </trkpt>
      <trkpt lat="42.654556" lon="0.658804">
        <ele>2464.5</ele>
        <time>1970-01-01T07:59:25.000Z</time>
      </trkpt>
      <trkpt lat="42.654556" lon="0.658804">
        <ele>2464.5</ele>
        <time>1970-01-01T07:59:26.000Z</time>
      </trkpt>
      <trkpt lat="42.654556" lon="0.658804">
        <ele>2464.5</ele>
        <time>1970-01-01T07:59:27.000Z</time>
      </trkpt>
      <trkpt lat="42.654556" lon="0.658804">
        <ele>2464.5</ele>
        <time>1970-01-01T07:59:28.000Z</time>
      </trkpt>
      <trkpt lat="42.654556" lon="0.658804">
        <ele>2464.5</ele>
        <time>1970-01-01T07:59:29.000Z</time>
      </trkpt>
      <trkpt lat="42.654556" lon="0.658804">
        <ele>2464.5</ele>
        <time>1970-01-01T07:59:30.000Z</time>
      </trkpt>
      <trkpt lat="42.654556" lon="0.658804">
        <ele>2464.5</ele>
        <time>1970-01-01T07:59:31.000Z</time>
      </trkpt>
      <trkpt lat="42.654556" lon="0.658804">
        <ele>2464.5</ele>
        <time>1970-01-01T07:59:32.000Z</time>
      </trkpt>
      <trkpt lat="42.654556" lon="0.658804">
        <ele>2464.5</ele>
        <time>1970-01-01T07:59:33.000Z</time>
      </trkpt>
      <trkpt lat="42.654556" lon="0.658804">
        <ele>2464.5</ele>
        <time>1970-01-01T07:59:34.000Z</time>
      </trkpt>
      <trkpt lat="42.654556" lon="0.658804">
        <ele>2464.5</ele>
        <time>1970-01-01T07:59:35.000Z</time>
      </trkpt>
      <trkpt lat="42.654556" lon="0.658804">
        <ele>2464.5</ele>
        <time>1970-01-01T07:59:36.000Z</time>
      </trkpt>
      <trkpt lat="42.654556" lon="0.658804">
        <ele>2464.5</ele>
        <time>1970-01-01T07:59:37.000Z</time>
      </trkpt>
      <trkpt lat="42.654556" lon="0.658804">
        <ele>2464.5</ele>
        <time>1970-01-01T07:59:38.000Z</time>
      </trkpt>
      <trkpt lat="42.654556" lon="0.658804">
        <ele>2464.5</ele>
        <time>1970-01-01T07:59:39.000Z</time>
      </trkpt>
      <trkpt lat="42.654556" lon="0.658804">
        <ele>2464.5</ele>
        <time>1970-01-01T07:59:40.000Z</time>
      </trkpt>
      <trkpt lat="42.654556" lon="0.658804">
        <ele>2464.5</ele>
        <time>1970-01-01T07:59:41.000Z</time>
      </trkpt>
      <trkpt lat="42.654556" lon="0.658804">
        <ele>2464.5</ele>
        <time>1970-01-01T07:59:42.000Z</time>
      </trkpt>
      <trkpt lat="42.654556" lon="0.658804">
        <ele>2464.5</ele>
        <time>1970-01-01T07:59:43.000Z</time>
      </trkpt>
      <trkpt lat="42.654556" lon="0.658804">
        <ele>2464.5</ele>
        <time>1970-01-01T07:59:44.000Z</time>
      </trkpt>
      <trkpt lat="42.654556" lon="0.658804">
        <ele>2464.5</ele>
        <time>1970-01-01T07:59:45.000Z</time>
      </trkpt>
      <trkpt lat="42.654556" lon="0.658804">
        <ele>2464.5</ele>
        <time>1970-01-01T07:59:46.000Z</time>
      </trkpt>
      <trkpt lat="42.654556" lon="0.658804">
        <ele>2464.5</ele>
        <time>1970-01-01T07:59:47.000Z</time>
      </trkpt>
      <trkpt lat="42.654556" lon="0.658804">
        <ele>2464.5</ele>
        <time>1970-01-01T07:59:48.000Z</time>
      </trkpt>
      <trkpt lat="42.654556" lon="0.658804">
        <ele>2464.5</ele>
        <time>1970-01-01T07:59:49.000Z</time>
      </trkpt>
      <trkpt lat="42.654556" lon="0.658804">
        <ele>2464.5</ele>
        <time>1970-01-01T07:59:50.000Z</time>
      </trkpt>
      <trkpt lat="42.654556" lon="0.658804">
        <ele>2464.5</ele>
        <time>1970-01-01T07:59:51.000Z</time>
      </trkpt>
      <trkpt lat="42.654556" lon="0.658804">
        <ele>2464.5</ele>
        <time>1970-01-01T07:59:52.000Z</time>
      </trkpt>
      <trkpt lat="42.654556" lon="0.658804">
        <ele>2464.5</ele>
        <time>1970-01-01T07:59:53.000Z</time>
      </trkpt>
      <trkpt lat="42.654556" lon="0.658804">
        <ele>2464.5</ele>
        <time>1970-01-01T07:59:54.000Z</time>
      </trkpt>
      <trkpt lat="42.654556" lon="0.658804">
        <ele>2464.5</ele>
        <time>1970-01-01T07:59:55.000Z</time>
      </trkpt>
      <trkpt lat="42.654556" lon="0.658804">
        <ele>2464.5</ele>
        <time>1970-01-01T07:59:56.000Z</time>
      </trkpt>
      <trkpt lat="42.654556" lon="0.658804">
        <ele>2464.5</ele>
        <time>1970-01-01T07:59:57.000Z</time>
      </trkpt>
      <trkpt lat="42.654556" lon="0.658804">
        <ele>2464.5</ele>
        <time>1970-01-01T07:59:58.000Z</time>
      </trkpt>
      <trkpt lat="42.654556" lon="0.658804">
        <ele>2464.5</ele>
        <time>1970-01-01T07:59:59.000Z</time>
      </trkpt>
      <trkpt lat="42.654556" lon="0.658804">
        <ele>2464.5</ele>
        <time>1970-01-01T08:00:00.000Z</time>
      </trkpt>
      <trkpt lat="42.654556" lon="0.658804">
        <ele>2464.5</ele>
        <time>1970-01-01T08:00:01.000Z</time>
      </trkpt>
      <trkpt lat="42.654556" lon="0.658804">
        <ele>2464.5</ele>
        <time>1970-01-01T08:00:02.000Z</time>
      </trkpt>
      <trkpt lat="42.654556" lon="0.658804">
        <ele>2464.5</ele>
        <time>1970-01-01T08:00:03.000Z</time>
      </trkpt>
      <trkpt lat="42.654556" lon="0.658804">
        <ele>2464.5</ele>
        <time>1970-01-01T08:00:04.000Z</time>
      </trkpt>
      <trkpt lat="42.654556" lon="0.658804">
        <ele>2464.5</ele>
        <time>1970-01-01T08:00:05.000Z</time>
      </trkpt>
      <trkpt lat="42.654556" lon="0.658804">
        <ele>2464.5</ele>
        <time>1970-01-01T08:00:06.000Z</time>
      </trkpt>
      <trkpt lat="42.654556" lon="0.658804">
        <ele>2464.5</ele>
        <time>1970-01-01T08:00:07.000Z</time>
      </trkpt>
      <trkpt lat="42.654556" lon="0.658804">
        <ele>2464.5</ele>
        <time>1970-01-01T08:00:08.000Z</time>
      </trkpt>
      <trkpt lat="42.654556" lon="0.658804">
        <ele>2464.5</ele>
        <time>1970-01-01T08:00:09.000Z</time>
      </trkpt>
      <trkpt lat="42.654556" lon="0.658804">
        <ele>2464.5</ele>
        <time>1970-01-01T08:00:10.000Z</time>
      </trkpt>
      <trkpt lat="42.654556" lon="0.658805">
        <ele>2464.5</ele>
        <time>1970-01-01T08:00:11.000Z</time>
      </trkpt>
      <trkpt lat="42.654556" lon="0.658806">
        <ele>2464.5</ele>
        <time>1970-01-01T08:00:12.000Z</time>
      </trkpt>
      <trkpt lat="42.654557" lon="0.658805">
        <ele>2464.5</ele>
        <time>1970-01-01T08:00:13.000Z</time>
      </trkpt>
      <trkpt lat="42.654557" lon="0.658804">
        <ele>2464.5</ele>
        <time>1970-01-01T08:00:14.000Z</time>
      </trkpt>
      <trkpt lat="42.654557" lon="0.658804">
        <ele>2464.5</ele>
        <time>1970-01-01T08:00:15.000Z</time>
      </trkpt>
      <trkpt lat="42.654557" lon="0.658804">
        <ele>2464.5</ele>
        <time>1970-01-01T08:00:16.000Z</time>
      </trkpt>
      <trkpt lat="42.654557" lon="0.658804">
        <ele>2464.5</ele>
        <time>1970-01-01T08:00:17.000Z</time>
      </trkpt>
      <trkpt lat="42.654557" lon="0.658804">
        <ele>2464.5</ele>
        <time>1970-01-01T08:00:18.000Z</time>
      </trkpt>
      <trkpt lat="42.654557" lon="0.658804">
        <ele>2464.5</ele>
        <time>1970-01-01T08:00:19.000Z</time>
      </trkpt>
      <trkpt lat="42.654557" lon="0.658804">
        <ele>2464.5</ele>
        <time>1970-01-01T08:00:20.000Z</time>
      </trkpt>
      <trkpt lat="42.654557" lon="0.658804">
        <ele>2464.5</ele>
        <time>1970-01-01T08:00:21.000Z</time>
      </trkpt>
      <trkpt lat="42.654557" lon="0.658804">
        <ele>2464.5</ele>
        <time>1970-01-01T08:00:22.000Z</time>
      </trkpt>
      <trkpt lat="42.654557" lon="0.658804">
        <ele>2464.5</ele>
        <time>1970-01-01T08:00:23.000Z</time>
      </trkpt>
      <trkpt lat="42.654557" lon="0.658804">
        <ele>2464.5</ele>
        <time>1970-01-01T08:00:24.000Z</time>
      </trkpt>
      <trkpt lat="42.654557" lon="0.658804">
        <ele>2464.5</ele>
        <time>1970-01-01T08:00:25.000Z</time>
      </trkpt>
      <trkpt lat="42.654557" lon="0.658804">
        <ele>2464.5</ele>
        <time>1970-01-01T08:00:26.000Z</time>
      </trkpt>
      <trkpt lat="42.654557" lon="0.658804">
        <ele>2464.5</ele>
        <time>1970-01-01T08:00:27.000Z</time>
      </trkpt>
      <trkpt lat="42.654557" lon="0.658804">
        <ele>2464.5</ele>
        <time>1970-01-01T08:00:28.000Z</time>
      </trkpt>
      <trkpt lat="42.654557" lon="0.658804">
        <ele>2464.5</ele>
        <time>1970-01-01T08:00:29.000Z</time>
      </trkpt>
      <trkpt lat="42.654557" lon="0.658804">
        <ele>2464.5</ele>
        <time>1970-01-01T08:00:30.000Z</time>
      </trkpt>
      <trkpt lat="42.654557" lon="0.658804">
        <ele>2464.5</ele>
        <time>1970-01-01T08:00:31.000Z</time>
      </trkpt>
      <trkpt lat="42.654557" lon="0.658804">
        <ele>2464.5</ele>
        <time>1970-01-01T08:00:32.000Z</time>
      </trkpt>
      <trkpt lat="42.654557" lon="0.658804">
        <ele>2464.5</ele>
        <time>1970-01-01T08:00:33.000Z</time>
      </trkpt>
      <trkpt lat="42.654557" lon="0.658804">
        <ele>2464.5</ele>
        <time>1970-01-01T08:00:34.000Z</time>
      </trkpt>
      <trkpt lat="42.654557" lon="0.658804">
        <ele>2464.5</ele>
        <time>1970-01-01T08:00:35.000Z</time>
      </trkpt>
      <trkpt lat="42.654557" lon="0.658804">
        <ele>2464.5</ele>
        <time>1970-01-01T08:00:36.000Z</time>
      </trkpt>
      <trkpt lat="42.654557" lon="0.658804">
        <ele>2464.5</ele>
        <time>1970-01-01T08:00:37.000Z</time>
      </trkpt>
      <trkpt lat="42.654557" lon="0.658804">
        <ele>2464.5</ele>
        <time>1970-01-01T08:00:38.000Z</time>
      </trkpt>
      <trkpt lat="42.654557" lon="0.658804">
        <ele>2464.5</ele>
        <time>1970-01-01T08:00:39.000Z</time>
      </trkpt>
      <trkpt lat="42.654557" lon="0.658804">
        <ele>2464.5</ele>
        <time>1970-01-01T08:00:40.000Z</time>
      </trkpt>
      <trkpt lat="42.654557" lon="0.658804">
        <ele>2464.5</ele>
        <time>1970-01-01T08:00:41.000Z</time>
      </trkpt>
      <trkpt lat="42.654557" lon="0.658804">
        <ele>2464.5</ele>
        <time>1970-01-01T08:00:42.000Z</time>
      </trkpt>
      <trkpt lat="42.654557" lon="0.658804">
        <ele>2464.5</ele>
        <time>1970-01-01T08:00:43.000Z</time>
      </trkpt>
      <trkpt lat="42.654557" lon="0.658804">
        <ele>2464.5</ele>
        <time>1970-01-01T08:00:44.000Z</time>
      </trkpt>
      <trkpt lat="42.654557" lon="0.658804">
        <ele>2464.5</ele>
        <time>1970-01-01T08:00:45.000Z</time>
      </trkpt>
      <trkpt lat="42.654557" lon="0.658804">
        <ele>2464.5</ele>
        <time>1970-01-01T08:00:46.000Z</time>
      </trkpt>
      <trkpt lat="42.654557" lon="0.658804">
        <ele>2464.5</ele>
        <time>1970-01-01T08:00:47.000Z</time>
      </trkpt>
      <trkpt lat="42.654557" lon="0.658804">
        <ele>2464.5</ele>
        <time>1970-01-01T08:00:48.000Z</time>
      </trkpt>
      <trkpt lat="42.654557" lon="0.658804">
        <ele>2464.5</ele>
        <time>1970-01-01T08:00:49.000Z</time>
      </trkpt>
      <trkpt lat="42.654557" lon="0.658804">
        <ele>2464.5</ele>
        <time>1970-01-01T08:00:50.000Z</time>
      </trkpt>
      <trkpt lat="42.654557" lon="0.658804">
        <ele>2464.5</ele>
        <time>1970-01-01T08:00:51.000Z</time>
      </trkpt>
      <trkpt lat="42.654557" lon="0.658804">
        <ele>2464.5</ele>
        <time>1970-01-01T08:00:52.000Z</time>
      </trkpt>
      <trkpt lat="42.654557" lon="0.658804">
        <ele>2464.5</ele>
        <time>1970-01-01T08:00:53.000Z</time>
      </trkpt>
      <trkpt lat="42.654557" lon="0.658804">
        <ele>2464.5</ele>
        <time>1970-01-01T08:00:54.000Z</time>
      </trkpt>
      <trkpt lat="42.654557" lon="0.658804">
        <ele>2464.5</ele>
        <time>1970-01-01T08:00:55.000Z</time>
      </trkpt>
      <trkpt lat="42.654557" lon="0.658804">
        <ele>2464.5</ele>
        <time>1970-01-01T08:00:56.000Z</time>
      </trkpt>
      <trkpt lat="42.654557" lon="0.658804">
        <ele>2464.5</ele>
        <time>1970-01-01T08:00:57.000Z</time>
      </trkpt>
      <trkpt lat="42.654557" lon="0.658804">
        <ele>2464.5</ele>
        <time>1970-01-01T08:00:58.000Z</time>
      </trkpt>
      <trkpt lat="42.654557" lon="0.658804">
        <ele>2464.5</ele>
        <time>1970-01-01T08:00:59.000Z</time>
      </trkpt>
      <trkpt lat="42.654557" lon="0.658804">
        <ele>2464.5</ele>
        <time>1970-01-01T08:01:00.000Z</time>
      </trkpt>
      <trkpt lat="42.654557" lon="0.658805">
        <ele>2464.5</ele>
        <time>1970-01-01T08:01:01.000Z</time>
      </trkpt>
      <trkpt lat="42.654557" lon="0.658805">
        <ele>2464.5</ele>
        <time>1970-01-01T08:01:02.000Z</time>
      </trkpt>
      <trkpt lat="42.654557" lon="0.658805">
        <ele>2464.5</ele>
        <time>1970-01-01T08:01:03.000Z</time>
      </trkpt>
      <trkpt lat="42.654557" lon="0.658805">
        <ele>2464.5</ele>
        <time>1970-01-01T08:01:04.000Z</time>
      </trkpt>
      <trkpt lat="42.654557" lon="0.658805">
        <ele>2464.5</ele>
        <time>1970-01-01T08:01:05.000Z</time>
      </trkpt>
      <trkpt lat="42.654557" lon="0.658805">
        <ele>2464.5</ele>
        <time>1970-01-01T08:01:06.000Z</time>
      </trkpt>
      <trkpt lat="42.654557" lon="0.658805">
        <ele>2464.5</ele>
        <time>1970-01-01T08:01:07.000Z</time>
      </trkpt>
      <trkpt lat="42.654557" lon="0.658805">
        <ele>2464.5</ele>
        <time>1970-01-01T08:01:08.000Z</time>
      </trkpt>
      <trkpt lat="42.654557" lon="0.658805">
        <ele>2464.5</ele>
        <time>1970-01-01T08:01:09.000Z</time>
      </trkpt>
      <trkpt lat="42.654557" lon="0.658805">
        <ele>2464.5</ele>
        <time>1970-01-01T08:01:10.000Z</time>
      </trkpt>
      <trkpt lat="42.654557" lon="0.658805">
        <ele>2464.5</ele>
        <time>1970-01-01T08:01:11.000Z</time>
      </trkpt>
      <trkpt lat="42.654557" lon="0.658805">
        <ele>2464.5</ele>
        <time>1970-01-01T08:01:12.000Z</time>
      </trkpt>
      <trkpt lat="42.654557" lon="0.658805">
        <ele>2464.5</ele>
        <time>1970-01-01T08:01:13.000Z</time>
      </trkpt>
      <trkpt lat="42.654557" lon="0.658805">
        <ele>2464.5</ele>
        <time>1970-01-01T08:01:14.000Z</time>
      </trkpt>
      <trkpt lat="42.654557" lon="0.658805">
        <ele>2464.5</ele>
        <time>1970-01-01T08:01:15.000Z</time>
      </trkpt>
      <trkpt lat="42.654557" lon="0.658805">
        <ele>2464.5</ele>
        <time>1970-01-01T08:01:16.000Z</time>
      </trkpt>
      <trkpt lat="42.654557" lon="0.658805">
        <ele>2464.5</ele>
        <time>1970-01-01T08:01:17.000Z</time>
      </trkpt>
      <trkpt lat="42.654557" lon="0.658805">
        <ele>2464.5</ele>
        <time>1970-01-01T08:01:18.000Z</time>
      </trkpt>
      <trkpt lat="42.654557" lon="0.658805">
        <ele>2464.5</ele>
        <time>1970-01-01T08:01:19.000Z</time>
      </trkpt>
      <trkpt lat="42.654557" lon="0.658805">
        <ele>2464.5</ele>
        <time>1970-01-01T08:01:20.000Z</time>
      </trkpt>
      <trkpt lat="42.654557" lon="0.658805">
        <ele>2464.5</ele>
        <time>1970-01-01T08:01:21.000Z</time>
      </trkpt>
      <trkpt lat="42.654557" lon="0.658805">
        <ele>2464.5</ele>
        <time>1970-01-01T08:01:22.000Z</time>
      </trkpt>
      <trkpt lat="42.654557" lon="0.658805">
        <ele>2464.5</ele>
        <time>1970-01-01T08:01:23.000Z</time>
      </trkpt>
      <trkpt lat="42.654557" lon="0.658805">
        <ele>2464.5</ele>
        <time>1970-01-01T08:01:24.000Z</time>
      </trkpt>
      <trkpt lat="42.654557" lon="0.658805">
        <ele>2464.5</ele>
        <time>1970-01-01T08:01:25.000Z</time>
      </trkpt>
      <trkpt lat="42.654556" lon="0.658805">
        <ele>2464.5</ele>
        <time>1970-01-01T08:01:26.000Z</time>
      </trkpt>
      <trkpt lat="42.654556" lon="0.658805">
        <ele>2464.5</ele>
        <time>1970-01-01T08:01:27.000Z</time>
      </trkpt>
      <trkpt lat="42.654556" lon="0.658805">
        <ele>2464.5</ele>
        <time>1970-01-01T08:01:28.000Z</time>
      </trkpt>
      <trkpt lat="42.654556" lon="0.658805">
        <ele>2464.5</ele>
        <time>1970-01-01T08:01:29.000Z</time>
      </trkpt>
      <trkpt lat="42.654556" lon="0.658805">
        <ele>2464.5</ele>
        <time>1970-01-01T08:01:30.000Z</time>
      </trkpt>
      <trkpt lat="42.654556" lon="0.658805">
        <ele>2464.5</ele>
        <time>1970-01-01T08:01:31.000Z</time>
      </trkpt>
      <trkpt lat="42.654556" lon="0.658805">
        <ele>2464.5</ele>
        <time>1970-01-01T08:01:32.000Z</time>
      </trkpt>
      <trkpt lat="42.654556" lon="0.658805">
        <ele>2464.5</ele>
        <time>1970-01-01T08:01:33.000Z</time>
      </trkpt>
      <trkpt lat="42.654556" lon="0.658805">
        <ele>2464.5</ele>
        <time>1970-01-01T08:01:34.000Z</time>
      </trkpt>
      <trkpt lat="42.654556" lon="0.658805">
        <ele>2464.5</ele>
        <time>1970-01-01T08:01:35.000Z</time>
      </trkpt>
      <trkpt lat="42.654556" lon="0.658805">
        <ele>2464.5</ele>
        <time>1970-01-01T08:01:36.000Z</time>
      </trkpt>
      <trkpt lat="42.654556" lon="0.658805">
        <ele>2464.5</ele>
        <time>1970-01-01T08:01:37.000Z</time>
      </trkpt>
      <trkpt lat="42.654556" lon="0.658805">
        <ele>2464.5</ele>
        <time>1970-01-01T08:01:38.000Z</time>
      </trkpt>
      <trkpt lat="42.654556" lon="0.658805">
        <ele>2464.5</ele>
        <time>1970-01-01T08:01:39.000Z</time>
      </trkpt>
      <trkpt lat="42.654556" lon="0.658805">
        <ele>2464.5</ele>
        <time>1970-01-01T08:01:40.000Z</time>
      </trkpt>
      <trkpt lat="42.654556" lon="0.658805">
        <ele>2464.5</ele>
        <time>1970-01-01T08:01:41.000Z</time>
      </trkpt>
      <trkpt lat="42.654556" lon="0.658805">
        <ele>2464.5</ele>
        <time>1970-01-01T08:01:42.000Z</time>
      </trkpt>
      <trkpt lat="42.654556" lon="0.658805">
        <ele>2464.5</ele>
        <time>1970-01-01T08:01:43.000Z</time>
      </trkpt>
      <trkpt lat="42.654556" lon="0.658805">
        <ele>2464.5</ele>
        <time>1970-01-01T08:01:44.000Z</time>
      </trkpt>
      <trkpt lat="42.654556" lon="0.658805">
        <ele>2464.5</ele>
        <time>1970-01-01T08:01:45.000Z</time>
      </trkpt>
      <trkpt lat="42.654556" lon="0.658805">
        <ele>2464.5</ele>
        <time>1970-01-01T08:01:46.000Z</time>
      </trkpt>
      <trkpt lat="42.654556" lon="0.658805">
        <ele>2464.5</ele>
        <time>1970-01-01T08:01:47.000Z</time>
      </trkpt>
      <trkpt lat="42.654556" lon="0.658805">
        <ele>2464.5</ele>
        <time>1970-01-01T08:01:48.000Z</time>
      </trkpt>
      <trkpt lat="42.654556" lon="0.658805">
        <ele>2464.5</ele>
        <time>1970-01-01T08:01:49.000Z</time>
      </trkpt>
      <trkpt lat="42.654556" lon="0.658805">
        <ele>2464.5</ele>
        <time>1970-01-01T08:01:50.000Z</time>
      </trkpt>
      <trkpt lat="42.654556" lon="0.658805">
        <ele>2464.5</ele>
        <time>1970-01-01T08:01:51.000Z</time>
      </trkpt>
      <trkpt lat="42.654556" lon="0.658805">
        <ele>2464.5</ele>
        <time>1970-01-01T08:01:52.000Z</time>
      </trkpt>
      <trkpt lat="42.654556" lon="0.658805">
        <ele>2464.5</ele>
        <time>1970-01-01T08:01:53.000Z</time>
      </trkpt>
      <trkpt lat="42.654556" lon="0.658805">
        <ele>2464.5</ele>
        <time>1970-01-01T08:01:54.000Z</time>
      </trkpt>
      <trkpt lat="42.654556" lon="0.658805">
        <ele>2464.5</ele>
        <time>1970-01-01T08:01:55.000Z</time>
      </trkpt>
      <trkpt lat="42.654556" lon="0.658805">
        <ele>2464.5</ele>
        <time>1970-01-01T08:01:56.000Z</time>
      </trkpt>
      <trkpt lat="42.654556" lon="0.658805">
        <ele>2464.5</ele>
        <time>1970-01-01T08:01:57.000Z</time>
      </trkpt>
      <trkpt lat="42.654556" lon="0.658805">
        <ele>2464.5</ele>
        <time>1970-01-01T08:01:58.000Z</time>
      </trkpt>
      <trkpt lat="42.654556" lon="0.658805">
        <ele>2464.5</ele>
        <time>1970-01-01T08:01:59.000Z</time>
      </trkpt>
      <trkpt lat="42.654556" lon="0.658805">
        <ele>2464.5</ele>
        <time>1970-01-01T08:02:00.000Z</time>
      </trkpt>
      <trkpt lat="42.654556" lon="0.658805">
        <ele>2464.5</ele>
        <time>1970-01-01T08:02:01.000Z</time>
      </trkpt>
      <trkpt lat="42.654556" lon="0.658805">
        <ele>2464.5</ele>
        <time>1970-01-01T08:02:02.000Z</time>
      </trkpt>
      <trkpt lat="42.654556" lon="0.658805">
        <ele>2464.5</ele>
        <time>1970-01-01T08:02:03.000Z</time>
      </trkpt>
      <trkpt lat="42.654556" lon="0.658805">
        <ele>2464.5</ele>
        <time>1970-01-01T08:02:04.000Z</time>
      </trkpt>
      <trkpt lat="42.654556" lon="0.658805">
        <ele>2464.5</ele>
        <time>1970-01-01T08:02:05.000Z</time>
      </trkpt>
      <trkpt lat="42.654556" lon="0.658806">
        <ele>2464.5</ele>
        <time>1970-01-01T08:02:06.000Z</time>
      </trkpt>
      <trkpt lat="42.654556" lon="0.658806">
        <ele>2464.5</ele>
        <time>1970-01-01T08:02:07.000Z</time>
      </trkpt>
      <trkpt lat="42.654556" lon="0.658806">
        <ele>2464.5</ele>
        <time>1970-01-01T08:02:08.000Z</time>
      </trkpt>
      <trkpt lat="42.654556" lon="0.658806">
        <ele>2464.5</ele>
        <time>1970-01-01T08:02:09.000Z</time>
      </trkpt>
      <trkpt lat="42.654556" lon="0.658806">
        <ele>2464.5</ele>
        <time>1970-01-01T08:02:10.000Z</time>
      </trkpt>
      <trkpt lat="42.654556" lon="0.658806">
        <ele>2464.5</ele>
        <time>1970-01-01T08:02:11.000Z</time>
      </trkpt>
      <trkpt lat="42.654556" lon="0.658806">
        <ele>2464.5</ele>
        <time>1970-01-01T08:02:12.000Z</time>
      </trkpt>
      <trkpt lat="42.654556" lon="0.658806">
        <ele>2464.5</ele>
        <time>1970-01-01T08:02:13.000Z</time>
      </trkpt>
      <trkpt lat="42.654556" lon="0.658806">
        <ele>2464.5</ele>
        <time>1970-01-01T08:02:14.000Z</time>
      </trkpt>
      <trkpt lat="42.654556" lon="0.658806">
        <ele>2464.5</ele>
        <time>1970-01-01T08:02:15.000Z</time>
      </trkpt>
      <trkpt lat="42.654556" lon="0.658806">
        <ele>2464.5</ele>
        <time>1970-01-01T08:02:16.000Z</time>
      </trkpt>
      <trkpt lat="42.654556" lon="0.658806">
        <ele>2464.5</ele>
        <time>1970-01-01T08:02:17.000Z</time>
      </trkpt>
      <trkpt lat="42.654556" lon="0.658806">
        <ele>2464.5</ele>
        <time>1970-01-01T08:02:18.000Z</time>
      </trkpt>
      <trkpt lat="42.654556" lon="0.658806">
        <ele>2464.5</ele>
        <time>1970-01-01T08:02:19.000Z</time>
      </trkpt>
      <trkpt lat="42.654556" lon="0.658806">
        <ele>2464.5</ele>
        <time>1970-01-01T08:02:20.000Z</time>
      </trkpt>
      <trkpt lat="42.654556" lon="0.658806">
        <ele>2464.5</ele>
        <time>1970-01-01T08:02:21.000Z</time>
      </trkpt>
      <trkpt lat="42.654556" lon="0.658806">
        <ele>2464.5</ele>
        <time>1970-01-01T08:02:22.000Z</time>
      </trkpt>
      <trkpt lat="42.654556" lon="0.658806">
        <ele>2464.5</ele>
        <time>1970-01-01T08:02:23.000Z</time>
      </trkpt>
      <trkpt lat="42.654556" lon="0.658806">
        <ele>2464.5</ele>
        <time>1970-01-01T08:02:24.000Z</time>
      </trkpt>
      <trkpt lat="42.654556" lon="0.658806">
        <ele>2464.5</ele>
        <time>1970-01-01T08:02:25.000Z</time>
      </trkpt>
      <trkpt lat="42.654556" lon="0.658806">
        <ele>2464.5</ele>
        <time>1970-01-01T08:02:26.000Z</time>
      </trkpt>
      <trkpt lat="42.654556" lon="0.658806">
        <ele>2464.5</ele>
        <time>1970-01-01T08:02:27.000Z</time>
      </trkpt>
      <trkpt lat="42.654556" lon="0.658806">
        <ele>2464.5</ele>
        <time>1970-01-01T08:02:28.000Z</time>
      </trkpt>
      <trkpt lat="42.654556" lon="0.658806">
        <ele>2464.5</ele>
        <time>1970-01-01T08:02:29.000Z</time>
      </trkpt>
      <trkpt lat="42.654556" lon="0.658806">
        <ele>2464.5</ele>
        <time>1970-01-01T08:02:30.000Z</time>
      </trkpt>
      <trkpt lat="42.654556" lon="0.658806">
        <ele>2464.5</ele>
        <time>1970-01-01T08:02:31.000Z</time>
      </trkpt>
      <trkpt lat="42.654556" lon="0.658806">
        <ele>2464.5</ele>
        <time>1970-01-01T08:02:32.000Z</time>
      </trkpt>
      <trkpt lat="42.654556" lon="0.658806">
        <ele>2464.5</ele>
        <time>1970-01-01T08:02:33.000Z</time>
      </trkpt>
      <trkpt lat="42.654556" lon="0.658806">
        <ele>2464.5</ele>
        <time>1970-01-01T08:02:34.000Z</time>
      </trkpt>
      <trkpt lat="42.654556" lon="0.658806">
        <ele>2464.5</ele>
        <time>1970-01-01T08:02:35.000Z</time>
      </trkpt>
      <trkpt lat="42.654556" lon="0.658806">
        <ele>2464.5</ele>
        <time>1970-01-01T08:02:36.000Z</time>
      </trkpt>
      <trkpt lat="42.654556" lon="0.658806">
        <ele>2464.5</ele>
        <time>1970-01-01T08:02:37.000Z</time>
      </trkpt>
      <trkpt lat="42.654556" lon="0.658806">
        <ele>2464.5</ele>
        <time>1970-01-01T08:02:38.000Z</time>
      </trkpt>
      <trkpt lat="42.654556" lon="0.658806">
        <ele>2464.5</ele>
        <time>1970-01-01T08:02:39.000Z</time>
      </trkpt>
      <trkpt lat="42.654556" lon="0.658806">
        <ele>2464.5</ele>
        <time>1970-01-01T08:02:40.000Z</time>
      </trkpt>
      <trkpt lat="42.654556" lon="0.658806">
        <ele>2464.5</ele>
        <time>1970-01-01T08:02:41.000Z</time>
      </trkpt>
      <trkpt lat="42.654556" lon="0.658806">
        <ele>2464.5</ele>
        <time>1970-01-01T08:02:42.000Z</time>
      </trkpt>
      <trkpt lat="42.654556" lon="0.658806">
        <ele>2464.5</ele>
        <time>1970-01-01T08:02:43.000Z</time>
      </trkpt>
      <trkpt lat="42.654556" lon="0.658806">
        <ele>2464.5</ele>
        <time>1970-01-01T08:02:44.000Z</time>
      </trkpt>
      <trkpt lat="42.654556" lon="0.658806">
        <ele>2464.5</ele>
        <time>1970-01-01T08:02:45.000Z</time>
      </trkpt>
      <trkpt lat="42.654556" lon="0.658806">
        <ele>2464.5</ele>
        <time>1970-01-01T08:02:46.000Z</time>
      </trkpt>
      <trkpt lat="42.654556" lon="0.658806">
        <ele>2464.5</ele>
        <time>1970-01-01T08:02:47.000Z</time>
      </trkpt>
      <trkpt lat="42.654556" lon="0.658806">
        <ele>2464.5</ele>
        <time>1970-01-01T08:02:48.000Z</time>
      </trkpt>
      <trkpt lat="42.654556" lon="0.658806">
        <ele>2464.5</ele>
        <time>1970-01-01T08:02:49.000Z</time>
      </trkpt>
      <trkpt lat="42.654556" lon="0.658806">
        <ele>2464.5</ele>
        <time>1970-01-01T08:02:50.000Z</time>
      </trkpt>
      <trkpt lat="42.654556" lon="0.658806">
        <ele>2464.5</ele>
        <time>1970-01-01T08:02:51.000Z</time>
      </trkpt>
      <trkpt lat="42.654556" lon="0.658806">
        <ele>2464.5</ele>
        <time>1970-01-01T08:02:52.000Z</time>
      </trkpt>
      <trkpt lat="42.654556" lon="0.658806">
        <ele>2464.5</ele>
        <time>1970-01-01T08:02:53.000Z</time>
      </trkpt>
      <trkpt lat="42.654556" lon="0.658806">
        <ele>2464.5</ele>
        <time>1970-01-01T08:02:54.000Z</time>
      </trkpt>
      <trkpt lat="42.654556" lon="0.658806">
        <ele>2464.5</ele>
        <time>1970-01-01T08:02:55.000Z</time>
      </trkpt>
      <trkpt lat="42.654556" lon="0.658806">
        <ele>2464.5</ele>
        <time>1970-01-01T08:02:56.000Z</time>
      </trkpt>
      <trkpt lat="42.654556" lon="0.658806">
        <ele>2464.5</ele>
        <time>1970-01-01T08:02:57.000Z</time>
      </trkpt>
      <trkpt lat="42.654556" lon="0.658806">
        <ele>2464.5</ele>
        <time>1970-01-01T08:02:58.000Z</time>
      </trkpt>
      <trkpt lat="42.654556" lon="0.658806">
        <ele>2464.5</ele>
        <time>1970-01-01T08:02:59.000Z</time>
      </trkpt>
      <trkpt lat="42.654556" lon="0.658806">
        <ele>2464.5</ele>
        <time>1970-01-01T08:03:00.000Z</time>
      </trkpt>
      <trkpt lat="42.654556" lon="0.658806">
        <ele>2464.5</ele>
        <time>1970-01-01T08:03:01.000Z</time>
      </trkpt>
      <trkpt lat="42.654556" lon="0.658806">
        <ele>2464.5</ele>
        <time>1970-01-01T08:03:02.000Z</time>
      </trkpt>
      <trkpt lat="42.654556" lon="0.658806">
        <ele>2464.5</ele>
        <time>1970-01-01T08:03:03.000Z</time>
      </trkpt>
      <trkpt lat="42.654556" lon="0.658806">
        <ele>2464.5</ele>
        <time>1970-01-01T08:03:04.000Z</time>
      </trkpt>
      <trkpt lat="42.654556" lon="0.658806">
        <ele>2464.5</ele>
        <time>1970-01-01T08:03:05.000Z</time>
      </trkpt>
      <trkpt lat="42.654556" lon="0.658806">
        <ele>2464.5</ele>
        <time>1970-01-01T08:03:06.000Z</time>
      </trkpt>
      <trkpt lat="42.654556" lon="0.658806">
        <ele>2464.5</ele>
        <time>1970-01-01T08:03:07.000Z</time>
      </trkpt>
      <trkpt lat="42.654556" lon="0.658806">
        <ele>2464.5</ele>
        <time>1970-01-01T08:03:08.000Z</time>
      </trkpt>
      <trkpt lat="42.654556" lon="0.658806">
        <ele>2464.5</ele>
        <time>1970-01-01T08:03:09.000Z</time>
      </trkpt>
      <trkpt lat="42.654556" lon="0.658806">
        <ele>2464.5</ele>
        <time>1970-01-01T08:03:10.000Z</time>
      </trkpt>
      <trkpt lat="42.654556" lon="0.658806">
        <ele>2464.5</ele>
        <time>1970-01-01T08:03:11.000Z</time>
      </trkpt>
      <trkpt lat="42.654556" lon="0.658806">
        <ele>2464.5</ele>
        <time>1970-01-01T08:03:12.000Z</time>
      </trkpt>
      <trkpt lat="42.654556" lon="0.658806">
        <ele>2464.5</ele>
        <time>1970-01-01T08:03:13.000Z</time>
      </trkpt>
      <trkpt lat="42.654556" lon="0.658806">
        <ele>2464.5</ele>
        <time>1970-01-01T08:03:14.000Z</time>
      </trkpt>
      <trkpt lat="42.654556" lon="0.658806">
        <ele>2464.5</ele>
        <time>1970-01-01T08:03:15.000Z</time>
      </trkpt>
      <trkpt lat="42.654556" lon="0.658806">
        <ele>2464.5</ele>
        <time>1970-01-01T08:03:16.000Z</time>
      </trkpt>
      <trkpt lat="42.654556" lon="0.658806">
        <ele>2464.5</ele>
        <time>1970-01-01T08:03:17.000Z</time>
      </trkpt>
      <trkpt lat="42.654556" lon="0.658806">
        <ele>2464.5</ele>
        <time>1970-01-01T08:03:18.000Z</time>
      </trkpt>
      <trkpt lat="42.654556" lon="0.658806">
        <ele>2464.5</ele>
        <time>1970-01-01T08:03:19.000Z</time>
      </trkpt>
      <trkpt lat="42.654556" lon="0.658806">
        <ele>2464.5</ele>
        <time>1970-01-01T08:03:20.000Z</time>
      </trkpt>
      <trkpt lat="42.654556" lon="0.658806">
        <ele>2464.5</ele>
        <time>1970-01-01T08:03:21.000Z</time>
      </trkpt>
      <trkpt lat="42.654556" lon="0.658806">
        <ele>2464.5</ele>
        <time>1970-01-01T08:03:22.000Z</time>
      </trkpt>
      <trkpt lat="42.654556" lon="0.658806">
        <ele>2464.5</ele>
        <time>1970-01-01T08:03:23.000Z</time>
      </trkpt>
      <trkpt lat="42.654556" lon="0.658806">
        <ele>2464.5</ele>
        <time>1970-01-01T08:03:24.000Z</time>
      </trkpt>
      <trkpt lat="42.654556" lon="0.658806">
        <ele>2464.5</ele>
        <time>1970-01-01T08:03:25.000Z</time>
      </trkpt>
      <trkpt lat="42.654556" lon="0.658806">
        <ele>2464.5</ele>
        <time>1970-01-01T08:03:26.000Z</time>
      </trkpt>
      <trkpt lat="42.654556" lon="0.658806">
        <ele>2464.5</ele>
        <time>1970-01-01T08:03:27.000Z</time>
      </trkpt>
      <trkpt lat="42.654556" lon="0.658806">
        <ele>2464.5</ele>
        <time>1970-01-01T08:03:28.000Z</time>
      </trkpt>
      <trkpt lat="42.654556" lon="0.658806">
        <ele>2464.5</ele>
        <time>1970-01-01T08:03:29.000Z</time>
      </trkpt>
      <trkpt lat="42.654556" lon="0.658806">
        <ele>2464.5</ele>
        <time>1970-01-01T08:03:30.000Z</time>
      </trkpt>
      <trkpt lat="42.654556" lon="0.658806">
        <ele>2464.5</ele>
        <time>1970-01-01T08:03:31.000Z</time>
      </trkpt>
      <trkpt lat="42.654556" lon="0.658806">
        <ele>2464.5</ele>
        <time>1970-01-01T08:03:32.000Z</time>
      </trkpt>
      <trkpt lat="42.654556" lon="0.658806">
        <ele>2464.5</ele>
        <time>1970-01-01T08:03:33.000Z</time>
      </trkpt>
      <trkpt lat="42.654556" lon="0.658806">
        <ele>2464.5</ele>
        <time>1970-01-01T08:03:34.000Z</time>
      </trkpt>
      <trkpt lat="42.654556" lon="0.658806">
        <ele>2464.5</ele>
        <time>1970-01-01T08:03:35.000Z</time>
      </trkpt>
      <trkpt lat="42.654556" lon="0.658806">
        <ele>2464.5</ele>
        <time>1970-01-01T08:03:36.000Z</time>
      </trkpt>
      <trkpt lat="42.654556" lon="0.658806">
        <ele>2464.5</ele>
        <time>1970-01-01T08:03:37.000Z</time>
      </trkpt>
      <trkpt lat="42.654556" lon="0.658806">
        <ele>2464.5</ele>
        <time>1970-01-01T08:03:38.000Z</time>
      </trkpt>
      <trkpt lat="42.654556" lon="0.658806">
        <ele>2464.5</ele>
        <time>1970-01-01T08:03:39.000Z</time>
      </trkpt>
      <trkpt lat="42.654556" lon="0.658806">
        <ele>2464.5</ele>
        <time>1970-01-01T08:03:40.000Z</time>
      </trkpt>
      <trkpt lat="42.654556" lon="0.658806">
        <ele>2464.5</ele>
        <time>1970-01-01T08:03:41.000Z</time>
      </trkpt>
      <trkpt lat="42.654556" lon="0.658806">
        <ele>2464.5</ele>
        <time>1970-01-01T08:03:42.000Z</time>
      </trkpt>
      <trkpt lat="42.654556" lon="0.658806">
        <ele>2464.5</ele>
        <time>1970-01-01T08:03:43.000Z</time>
      </trkpt>
      <trkpt lat="42.654556" lon="0.658806">
        <ele>2464.5</ele>
        <time>1970-01-01T08:03:44.000Z</time>
      </trkpt>
      <trkpt lat="42.654556" lon="0.658806">
        <ele>2464.5</ele>
        <time>1970-01-01T08:03:45.000Z</time>
      </trkpt>
      <trkpt lat="42.654556" lon="0.658806">
        <ele>2464.5</ele>
        <time>1970-01-01T08:03:46.000Z</time>
      </trkpt>
      <trkpt lat="42.654556" lon="0.658806">
        <ele>2464.5</ele>
        <time>1970-01-01T08:03:47.000Z</time>
      </trkpt>
      <trkpt lat="42.654556" lon="0.658806">
        <ele>2464.5</ele>
        <time>1970-01-01T08:03:48.000Z</time>
      </trkpt>
      <trkpt lat="42.654556" lon="0.658806">
        <ele>2464.5</ele>
        <time>1970-01-01T08:03:49.000Z</time>
      </trkpt>
      <trkpt lat="42.654556" lon="0.658806">
        <ele>2464.5</ele>
        <time>1970-01-01T08:03:50.000Z</time>
      </trkpt>
      <trkpt lat="42.654556" lon="0.658806">
        <ele>2464.5</ele>
        <time>1970-01-01T08:03:51.000Z</time>
      </trkpt>
      <trkpt lat="42.654556" lon="0.658806">
        <ele>2464.5</ele>
        <time>1970-01-01T08:03:52.000Z</time>
      </trkpt>
      <trkpt lat="42.654556" lon="0.658806">
        <ele>2464.5</ele>
        <time>1970-01-01T08:03:53.000Z</time>
      </trkpt>
      <trkpt lat="42.654556" lon="0.658806">
        <ele>2464.5</ele>
        <time>1970-01-01T08:03:54.000Z</time>
      </trkpt>
      <trkpt lat="42.654556" lon="0.658806">
        <ele>2464.5</ele>
        <time>1970-01-01T08:03:55.000Z</time>
      </trkpt>
      <trkpt lat="42.654556" lon="0.658806">
        <ele>2464.5</ele>
        <time>1970-01-01T08:03:56.000Z</time>
      </trkpt>
      <trkpt lat="42.654556" lon="0.658806">
        <ele>2464.5</ele>
        <time>1970-01-01T08:03:57.000Z</time>
      </trkpt>
      <trkpt lat="42.654556" lon="0.658806">
        <ele>2464.5</ele>
        <time>1970-01-01T08:03:58.000Z</time>
      </trkpt>
      <trkpt lat="42.654556" lon="0.658806">
        <ele>2464.5</ele>
        <time>1970-01-01T08:03:59.000Z</time>
      </trkpt>
      <trkpt lat="42.654556" lon="0.658806">
        <ele>2464.5</ele>
        <time>1970-01-01T08:04:00.000Z</time>
      </trkpt>
      <trkpt lat="42.654556" lon="0.658806">
        <ele>2464.5</ele>
        <time>1970-01-01T08:04:01.000Z</time>
      </trkpt>
      <trkpt lat="42.654556" lon="0.658806">
        <ele>2464.5</ele>
        <time>1970-01-01T08:04:02.000Z</time>
      </trkpt>
      <trkpt lat="42.654556" lon="0.658806">
        <ele>2464.5</ele>
        <time>1970-01-01T08:04:03.000Z</time>
      </trkpt>
      <trkpt lat="42.654556" lon="0.658806">
        <ele>2464.5</ele>
        <time>1970-01-01T08:04:04.000Z</time>
      </trkpt>
      <trkpt lat="42.654556" lon="0.658806">
        <ele>2464.5</ele>
        <time>1970-01-01T08:04:05.000Z</time>
      </trkpt>
      <trkpt lat="42.654556" lon="0.658806">
        <ele>2464.5</ele>
        <time>1970-01-01T08:04:06.000Z</time>
      </trkpt>
      <trkpt lat="42.654556" lon="0.658806">
        <ele>2464.5</ele>
        <time>1970-01-01T08:04:07.000Z</time>
      </trkpt>
      <trkpt lat="42.654556" lon="0.658806">
        <ele>2464.5</ele>
        <time>1970-01-01T08:04:08.000Z</time>
      </trkpt>
      <trkpt lat="42.654556" lon="0.658806">
        <ele>2464.5</ele>
        <time>1970-01-01T08:04:09.000Z</time>
      </trkpt>
      <trkpt lat="42.654556" lon="0.658806">
        <ele>2464.5</ele>
        <time>1970-01-01T08:04:10.000Z</time>
      </trkpt>
      <trkpt lat="42.654556" lon="0.658806">
        <ele>2464.5</ele>
        <time>1970-01-01T08:04:11.000Z</time>
      </trkpt>
      <trkpt lat="42.654556" lon="0.658806">
        <ele>2464.5</ele>
        <time>1970-01-01T08:04:12.000Z</time>
      </trkpt>
      <trkpt lat="42.654556" lon="0.658806">
        <ele>2464.5</ele>
        <time>1970-01-01T08:04:13.000Z</time>
      </trkpt>
      <trkpt lat="42.654556" lon="0.658806">
        <ele>2464.5</ele>
        <time>1970-01-01T08:04:14.000Z</time>
      </trkpt>
      <trkpt lat="42.654556" lon="0.658806">
        <ele>2464.5</ele>
        <time>1970-01-01T08:04:15.000Z</time>
      </trkpt>
      <trkpt lat="42.654556" lon="0.658806">
        <ele>2464.5</ele>
        <time>1970-01-01T08:04:16.000Z</time>
      </trkpt>
      <trkpt lat="42.654556" lon="0.658806">
        <ele>2464.5</ele>
        <time>1970-01-01T08:04:17.000Z</time>
      </trkpt>
      <trkpt lat="42.654556" lon="0.658806">
        <ele>2464.5</ele>
        <time>1970-01-01T08:04:18.000Z</time>
      </trkpt>
      <trkpt lat="42.654556" lon="0.658806">
        <ele>2464.5</ele>
        <time>1970-01-01T08:04:19.000Z</time>
      </trkpt>
      <trkpt lat="42.654556" lon="0.658806">
        <ele>2464.5</ele>
        <time>1970-01-01T08:04:20.000Z</time>
      </trkpt>
      <trkpt lat="42.654556" lon="0.658806">
        <ele>2464.5</ele>
        <time>1970-01-01T08:04:21.000Z</time>
      </trkpt>
      <trkpt lat="42.654556" lon="0.658806">
        <ele>2464.5</ele>
        <time>1970-01-01T08:04:22.000Z</time>
      </trkpt>
      <trkpt lat="42.654556" lon="0.658807">
        <ele>2464.5</ele>
        <time>1970-01-01T08:04:23.000Z</time>
      </trkpt>
      <trkpt lat="42.654556" lon="0.658807">
        <ele>2464.5</ele>
        <time>1970-01-01T08:04:24.000Z</time>
      </trkpt>
      <trkpt lat="42.654556" lon="0.658807">
        <ele>2464.5</ele>
        <time>1970-01-01T08:04:25.000Z</time>
      </trkpt>
      <trkpt lat="42.654556" lon="0.658807">
        <ele>2464.5</ele>
        <time>1970-01-01T08:04:26.000Z</time>
      </trkpt>
      <trkpt lat="42.654556" lon="0.658807">
        <ele>2464.5</ele>
        <time>1970-01-01T08:04:27.000Z</time>
      </trkpt>
      <trkpt lat="42.654556" lon="0.658807">
        <ele>2464.5</ele>
        <time>1970-01-01T08:04:28.000Z</time>
      </trkpt>
      <trkpt lat="42.654556" lon="0.658807">
        <ele>2464.5</ele>
        <time>1970-01-01T08:04:29.000Z</time>
      </trkpt>
      <trkpt lat="42.654556" lon="0.658807">
        <ele>2464.5</ele>
        <time>1970-01-01T08:04:30.000Z</time>
      </trkpt>
      <trkpt lat="42.654556" lon="0.658807">
        <ele>2464.5</ele>
        <time>1970-01-01T08:04:31.000Z</time>
      </trkpt>
      <trkpt lat="42.654556" lon="0.658807">
        <ele>2464.5</ele>
        <time>1970-01-01T08:04:32.000Z</time>
      </trkpt>
      <trkpt lat="42.654556" lon="0.658807">
        <ele>2464.5</ele>
        <time>1970-01-01T08:04:33.000Z</time>
      </trkpt>
      <trkpt lat="42.654556" lon="0.658807">
        <ele>2464.5</ele>
        <time>1970-01-01T08:04:34.000Z</time>
      </trkpt>
      <trkpt lat="42.654556" lon="0.658807">
        <ele>2464.5</ele>
        <time>1970-01-01T08:04:35.000Z</time>
      </trkpt>
      <trkpt lat="42.654556" lon="0.658807">
        <ele>2464.5</ele>
        <time>1970-01-01T08:04:36.000Z</time>
      </trkpt>
      <trkpt lat="42.654556" lon="0.658807">
        <ele>2464.5</ele>
        <time>1970-01-01T08:04:37.000Z</time>
      </trkpt>
      <trkpt lat="42.654556" lon="0.658807">
        <ele>2464.5</ele>
        <time>1970-01-01T08:04:38.000Z</time>
      </trkpt>
      <trkpt lat="42.654556" lon="0.658807">
        <ele>2464.5</ele>
        <time>1970-01-01T08:04:39.000Z</time>
      </trkpt>
      <trkpt lat="42.654556" lon="0.658807">
        <ele>2464.5</ele>
        <time>1970-01-01T08:04:40.000Z</time>
      </trkpt>
      <trkpt lat="42.654556" lon="0.658807">
        <ele>2464.5</ele>
        <time>1970-01-01T08:04:41.000Z</time>
      </trkpt>
      <trkpt lat="42.654556" lon="0.658807">
        <ele>2464.5</ele>
        <time>1970-01-01T08:04:42.000Z</time>
      </trkpt>
      <trkpt lat="42.654556" lon="0.658807">
        <ele>2464.5</ele>
        <time>1970-01-01T08:04:43.000Z</time>
      </trkpt>
      <trkpt lat="42.654556" lon="0.658807">
        <ele>2464.5</ele>
        <time>1970-01-01T08:04:44.000Z</time>
      </trkpt>
      <trkpt lat="42.654556" lon="0.658807">
        <ele>2464.5</ele>
        <time>1970-01-01T08:04:45.000Z</time>
      </trkpt>
      <trkpt lat="42.654556" lon="0.658807">
        <ele>2464.5</ele>
        <time>1970-01-01T08:04:46.000Z</time>
      </trkpt>
      <trkpt lat="42.654556" lon="0.658807">
        <ele>2464.5</ele>
        <time>1970-01-01T08:04:47.000Z</time>
      </trkpt>
      <trkpt lat="42.654556" lon="0.658807">
        <ele>2464.5</ele>
        <time>1970-01-01T08:04:48.000Z</time>
      </trkpt>
      <trkpt lat="42.654556" lon="0.658807">
        <ele>2464.5</ele>
        <time>1970-01-01T08:04:49.000Z</time>
      </trkpt>
      <trkpt lat="42.654556" lon="0.658807">
        <ele>2464.5</ele>
        <time>1970-01-01T08:04:50.000Z</time>
      </trkpt>
      <trkpt lat="42.654556" lon="0.658807">
        <ele>2464.5</ele>
        <time>1970-01-01T08:04:51.000Z</time>
      </trkpt>
      <trkpt lat="42.654556" lon="0.658807">
        <ele>2464.5</ele>
        <time>1970-01-01T08:04:52.000Z</time>
      </trkpt>
      <trkpt lat="42.654556" lon="0.658807">
        <ele>2464.5</ele>
        <time>1970-01-01T08:04:53.000Z</time>
      </trkpt>
      <trkpt lat="42.654556" lon="0.658807">
        <ele>2464.5</ele>
        <time>1970-01-01T08:04:54.000Z</time>
      </trkpt>
      <trkpt lat="42.654556" lon="0.658807">
        <ele>2464.5</ele>
        <time>1970-01-01T08:04:55.000Z</time>
      </trkpt>
      <trkpt lat="42.654556" lon="0.658807">
        <ele>2464.5</ele>
        <time>1970-01-01T08:04:56.000Z</time>
      </trkpt>
      <trkpt lat="42.654556" lon="0.658807">
        <ele>2464.5</ele>
        <time>1970-01-01T08:04:57.000Z</time>
      </trkpt>
      <trkpt lat="42.654556" lon="0.658807">
        <ele>2464.5</ele>
        <time>1970-01-01T08:04:58.000Z</time>
      </trkpt>
      <trkpt lat="42.654556" lon="0.658807">
        <ele>2464.5</ele>
        <time>1970-01-01T08:04:59.000Z</time>
      </trkpt>
      <trkpt lat="42.654556" lon="0.658807">
        <ele>2464.5</ele>
        <time>1970-01-01T08:05:00.000Z</time>
      </trkpt>
      <trkpt lat="42.654556" lon="0.658807">
        <ele>2464.5</ele>
        <time>1970-01-01T08:05:01.000Z</time>
      </trkpt>
      <trkpt lat="42.654556" lon="0.658807">
        <ele>2464.5</ele>
        <time>1970-01-01T08:05:02.000Z</time>
      </trkpt>
      <trkpt lat="42.654556" lon="0.658807">
        <ele>2464.5</ele>
        <time>1970-01-01T08:05:03.000Z</time>
      </trkpt>
      <trkpt lat="42.654556" lon="0.658807">
        <ele>2464.5</ele>
        <time>1970-01-01T08:05:04.000Z</time>
      </trkpt>
      <trkpt lat="42.654556" lon="0.658807">
        <ele>2464.5</ele>
        <time>1970-01-01T08:05:05.000Z</time>
      </trkpt>
      <trkpt lat="42.654556" lon="0.658807">
        <ele>2464.5</ele>
        <time>1970-01-01T08:05:06.000Z</time>
      </trkpt>
      <trkpt lat="42.654556" lon="0.658807">
        <ele>2464.5</ele>
        <time>1970-01-01T08:05:07.000Z</time>
      </trkpt>
      <trkpt lat="42.654556" lon="0.658807">
        <ele>2464.5</ele>
        <time>1970-01-01T08:05:08.000Z</time>
      </trkpt>
      <trkpt lat="42.654556" lon="0.658807">
        <ele>2464.5</ele>
        <time>1970-01-01T08:05:09.000Z</time>
      </trkpt>
      <trkpt lat="42.654556" lon="0.658807">
        <ele>2464.5</ele>
        <time>1970-01-01T08:05:10.000Z</time>
      </trkpt>
      <trkpt lat="42.654556" lon="0.658807">
        <ele>2464.5</ele>
        <time>1970-01-01T08:05:11.000Z</time>
      </trkpt>
      <trkpt lat="42.654556" lon="0.658807">
        <ele>2464.5</ele>
        <time>1970-01-01T08:05:12.000Z</time>
      </trkpt>
      <trkpt lat="42.654556" lon="0.658807">
        <ele>2464.5</ele>
        <time>1970-01-01T08:05:13.000Z</time>
      </trkpt>
      <trkpt lat="42.654556" lon="0.658807">
        <ele>2464.5</ele>
        <time>1970-01-01T08:05:14.000Z</time>
      </trkpt>
      <trkpt lat="42.654556" lon="0.658807">
        <ele>2464.5</ele>
        <time>1970-01-01T08:05:15.000Z</time>
      </trkpt>
      <trkpt lat="42.654556" lon="0.658807">
        <ele>2464.5</ele>
        <time>1970-01-01T08:05:16.000Z</time>
      </trkpt>
      <trkpt lat="42.654556" lon="0.658807">
        <ele>2464.5</ele>
        <time>1970-01-01T08:05:17.000Z</time>
      </trkpt>
      <trkpt lat="42.654556" lon="0.658807">
        <ele>2464.5</ele>
        <time>1970-01-01T08:05:18.000Z</time>
      </trkpt>
      <trkpt lat="42.654556" lon="0.658807">
        <ele>2464.5</ele>
        <time>1970-01-01T08:05:19.000Z</time>
      </trkpt>
      <trkpt lat="42.654556" lon="0.658807">
        <ele>2464.5</ele>
        <time>1970-01-01T08:05:20.000Z</time>
      </trkpt>
      <trkpt lat="42.654555" lon="0.658807">
        <ele>2464.5</ele>
        <time>1970-01-01T08:05:21.000Z</time>
      </trkpt>
      <trkpt lat="42.654555" lon="0.658807">
        <ele>2464.5</ele>
        <time>1970-01-01T08:05:22.000Z</time>
      </trkpt>
      <trkpt lat="42.654555" lon="0.658807">
        <ele>2464.5</ele>
        <time>1970-01-01T08:05:23.000Z</time>
      </trkpt>
      <trkpt lat="42.654556" lon="0.658807">
        <ele>2464.5</ele>
        <time>1970-01-01T08:05:24.000Z</time>
      </trkpt>
      <trkpt lat="42.654556" lon="0.658807">
        <ele>2464.5</ele>
        <time>1970-01-01T08:05:25.000Z</time>
      </trkpt>
      <trkpt lat="42.654556" lon="0.658807">
        <ele>2464.5</ele>
        <time>1970-01-01T08:05:26.000Z</time>
      </trkpt>
      <trkpt lat="42.654556" lon="0.658807">
        <ele>2464.5</ele>
        <time>1970-01-01T08:05:27.000Z</time>
      </trkpt>
      <trkpt lat="42.654556" lon="0.658807">
        <ele>2464.5</ele>
        <time>1970-01-01T08:05:28.000Z</time>
      </trkpt>
      <trkpt lat="42.654556" lon="0.658807">
        <ele>2464.5</ele>
        <time>1970-01-01T08:05:29.000Z</time>
      </trkpt>
      <trkpt lat="42.654556" lon="0.658807">
        <ele>2464.5</ele>
        <time>1970-01-01T08:05:30.000Z</time>
      </trkpt>
      <trkpt lat="42.654555" lon="0.658807">
        <ele>2464.5</ele>
        <time>1970-01-01T08:05:31.000Z</time>
      </trkpt>
      <trkpt lat="42.654555" lon="0.658807">
        <ele>2464.5</ele>
        <time>1970-01-01T08:05:32.000Z</time>
      </trkpt>
      <trkpt lat="42.654555" lon="0.658807">
        <ele>2464.5</ele>
        <time>1970-01-01T08:05:33.000Z</time>
      </trkpt>
      <trkpt lat="42.654555" lon="0.658807">
        <ele>2464.5</ele>
        <time>1970-01-01T08:05:34.000Z</time>
      </trkpt>
      <trkpt lat="42.654555" lon="0.658807">
        <ele>2464.5</ele>
        <time>1970-01-01T08:05:35.000Z</time>
      </trkpt>
      <trkpt lat="42.654555" lon="0.658807">
        <ele>2464.5</ele>
        <time>1970-01-01T08:05:36.000Z</time>
      </trkpt>
      <trkpt lat="42.654555" lon="0.658807">
        <ele>2464.5</ele>
        <time>1970-01-01T08:05:37.000Z</time>
      </trkpt>
      <trkpt lat="42.654555" lon="0.658807">
        <ele>2464.5</ele>
        <time>1970-01-01T08:05:38.000Z</time>
      </trkpt>
      <trkpt lat="42.654555" lon="0.658807">
        <ele>2464.5</ele>
        <time>1970-01-01T08:05:39.000Z</time>
      </trkpt>
      <trkpt lat="42.654555" lon="0.658807">
        <ele>2464.5</ele>
        <time>1970-01-01T08:05:40.000Z</time>
      </trkpt>
      <trkpt lat="42.654555" lon="0.658807">
        <ele>2464.5</ele>
        <time>1970-01-01T08:05:41.000Z</time>
      </trkpt>
      <trkpt lat="42.654555" lon="0.658807">
        <ele>2464.5</ele>
        <time>1970-01-01T08:05:42.000Z</time>
      </trkpt>
      <trkpt lat="42.654555" lon="0.658807">
        <ele>2464.5</ele>
        <time>1970-01-01T08:05:43.000Z</time>
      </trkpt>
      <trkpt lat="42.654555" lon="0.658807">
        <ele>2464.5</ele>
        <time>1970-01-01T08:05:44.000Z</time>
      </trkpt>
      <trkpt lat="42.654555" lon="0.658807">
        <ele>2464.5</ele>
        <time>1970-01-01T08:05:45.000Z</time>
      </trkpt>
      <trkpt lat="42.654555" lon="0.658807">
        <ele>2464.5</ele>
        <time>1970-01-01T08:05:46.000Z</time>
      </trkpt>
      <trkpt lat="42.654555" lon="0.658807">
        <ele>2464.5</ele>
        <time>1970-01-01T08:05:47.000Z</time>
      </trkpt>
      <trkpt lat="42.654555" lon="0.658807">
        <ele>2464.5</ele>
        <time>1970-01-01T08:05:48.000Z</time>
      </trkpt>
      <trkpt lat="42.654555" lon="0.658807">
        <ele>2464.5</ele>
        <time>1970-01-01T08:05:49.000Z</time>
      </trkpt>
      <trkpt lat="42.654555" lon="0.658807">
        <ele>2464.5</ele>
        <time>1970-01-01T08:05:50.000Z</time>
      </trkpt>
      <trkpt lat="42.654555" lon="0.658807">
        <ele>2464.5</ele>
        <time>1970-01-01T08:05:51.000Z</time>
      </trkpt>
      <trkpt lat="42.654555" lon="0.658807">
        <ele>2464.5</ele>
        <time>1970-01-01T08:05:52.000Z</time>
      </trkpt>
      <trkpt lat="42.654555" lon="0.658807">
        <ele>2464.5</ele>
        <time>1970-01-01T08:05:53.000Z</time>
      </trkpt>
      <trkpt lat="42.654555" lon="0.658807">
        <ele>2464.5</ele>
        <time>1970-01-01T08:05:54.000Z</time>
      </trkpt>
      <trkpt lat="42.654555" lon="0.658807">
        <ele>2464.5</ele>
        <time>1970-01-01T08:05:55.000Z</time>
      </trkpt>
      <trkpt lat="42.654555" lon="0.658807">
        <ele>2464.5</ele>
        <time>1970-01-01T08:05:56.000Z</time>
      </trkpt>
      <trkpt lat="42.654555" lon="0.658807">
        <ele>2464.5</ele>
        <time>1970-01-01T08:05:57.000Z</time>
      </trkpt>
      <trkpt lat="42.654555" lon="0.658807">
        <ele>2464.5</ele>
        <time>1970-01-01T08:05:58.000Z</time>
      </trkpt>
      <trkpt lat="42.654555" lon="0.658807">
        <ele>2464.5</ele>
        <time>1970-01-01T08:05:59.000Z</time>
      </trkpt>
      <trkpt lat="42.654555" lon="0.658807">
        <ele>2464.5</ele>
        <time>1970-01-01T08:06:00.000Z</time>
      </trkpt>
      <trkpt lat="42.654555" lon="0.658807">
        <ele>2464.5</ele>
        <time>1970-01-01T08:06:01.000Z</time>
      </trkpt>
      <trkpt lat="42.654555" lon="0.658807">
        <ele>2464.5</ele>
        <time>1970-01-01T08:06:02.000Z</time>
      </trkpt>
      <trkpt lat="42.654555" lon="0.658807">
        <ele>2464.5</ele>
        <time>1970-01-01T08:06:03.000Z</time>
      </trkpt>
      <trkpt lat="42.654555" lon="0.658807">
        <ele>2464.5</ele>
        <time>1970-01-01T08:06:04.000Z</time>
      </trkpt>
      <trkpt lat="42.654555" lon="0.658807">
        <ele>2464.5</ele>
        <time>1970-01-01T08:06:05.000Z</time>
      </trkpt>
      <trkpt lat="42.654555" lon="0.658807">
        <ele>2464.5</ele>
        <time>1970-01-01T08:06:06.000Z</time>
      </trkpt>
      <trkpt lat="42.654555" lon="0.658807">
        <ele>2464.5</ele>
        <time>1970-01-01T08:06:07.000Z</time>
      </trkpt>
      <trkpt lat="42.654555" lon="0.658807">
        <ele>2464.5</ele>
        <time>1970-01-01T08:06:08.000Z</time>
      </trkpt>
      <trkpt lat="42.654555" lon="0.658807">
        <ele>2464.5</ele>
        <time>1970-01-01T08:06:09.000Z</time>
      </trkpt>
      <trkpt lat="42.654555" lon="0.658807">
        <ele>2464.5</ele>
        <time>1970-01-01T08:06:10.000Z</time>
      </trkpt>
      <trkpt lat="42.654555" lon="0.658807">
        <ele>2464.5</ele>
        <time>1970-01-01T08:06:11.000Z</time>
      </trkpt>
      <trkpt lat="42.654555" lon="0.658807">
        <ele>2464.5</ele>
        <time>1970-01-01T08:06:12.000Z</time>
      </trkpt>
      <trkpt lat="42.654555" lon="0.658807">
        <ele>2464.5</ele>
        <time>1970-01-01T08:06:13.000Z</time>
      </trkpt>
      <trkpt lat="42.654555" lon="0.658807">
        <ele>2464.5</ele>
        <time>1970-01-01T08:06:14.000Z</time>
      </trkpt>
      <trkpt lat="42.654555" lon="0.658807">
        <ele>2464.5</ele>
        <time>1970-01-01T08:06:15.000Z</time>
      </trkpt>
      <trkpt lat="42.654555" lon="0.658807">
        <ele>2464.5</ele>
        <time>1970-01-01T08:06:16.000Z</time>
      </trkpt>
      <trkpt lat="42.654555" lon="0.658807">
        <ele>2464.5</ele>
        <time>1970-01-01T08:06:17.000Z</time>
      </trkpt>
      <trkpt lat="42.654555" lon="0.658807">
        <ele>2464.5</ele>
        <time>1970-01-01T08:06:18.000Z</time>
      </trkpt>
      <trkpt lat="42.654555" lon="0.658807">
        <ele>2464.5</ele>
        <time>1970-01-01T08:06:19.000Z</time>
      </trkpt>
      <trkpt lat="42.654555" lon="0.658807">
        <ele>2464.5</ele>
        <time>1970-01-01T08:06:20.000Z</time>
      </trkpt>
      <trkpt lat="42.654555" lon="0.658807">
        <ele>2464.5</ele>
        <time>1970-01-01T08:06:21.000Z</time>
      </trkpt>
      <trkpt lat="42.654555" lon="0.658807">
        <ele>2464.5</ele>
        <time>1970-01-01T08:06:22.000Z</time>
      </trkpt>
      <trkpt lat="42.654555" lon="0.658807">
        <ele>2464.5</ele>
        <time>1970-01-01T08:06:23.000Z</time>
      </trkpt>
      <trkpt lat="42.654555" lon="0.658807">
        <ele>2464.5</ele>
        <time>1970-01-01T08:06:24.000Z</time>
      </trkpt>
      <trkpt lat="42.654555" lon="0.658807">
        <ele>2464.5</ele>
        <time>1970-01-01T08:06:25.000Z</time>
      </trkpt>
      <trkpt lat="42.654555" lon="0.658807">
        <ele>2464.5</ele>
        <time>1970-01-01T08:06:26.000Z</time>
      </trkpt>
      <trkpt lat="42.654555" lon="0.658807">
        <ele>2464.5</ele>
        <time>1970-01-01T08:06:27.000Z</time>
      </trkpt>
      <trkpt lat="42.654555" lon="0.658807">
        <ele>2464.5</ele>
        <time>1970-01-01T08:06:28.000Z</time>
      </trkpt>
      <trkpt lat="42.654555" lon="0.658807">
        <ele>2464.5</ele>
        <time>1970-01-01T08:06:29.000Z</time>
      </trkpt>
      <trkpt lat="42.654555" lon="0.658807">
        <ele>2464.5</ele>
        <time>1970-01-01T08:06:30.000Z</time>
      </trkpt>
      <trkpt lat="42.654555" lon="0.658807">
        <ele>2464.5</ele>
        <time>1970-01-01T08:06:31.000Z</time>
      </trkpt>
      <trkpt lat="42.654555" lon="0.658807">
        <ele>2464.5</ele>
        <time>1970-01-01T08:06:32.000Z</time>
      </trkpt>
      <trkpt lat="42.654555" lon="0.658807">
        <ele>2464.5</ele>
        <time>1970-01-01T08:06:33.000Z</time>
      </trkpt>
      <trkpt lat="42.654555" lon="0.658807">
        <ele>2464.5</ele>
        <time>1970-01-01T08:06:34.000Z</time>
      </trkpt>
      <trkpt lat="42.654555" lon="0.658807">
        <ele>2464.5</ele>
        <time>1970-01-01T08:06:35.000Z</time>
      </trkpt>
      <trkpt lat="42.654555" lon="0.658807">
        <ele>2464.5</ele>
        <time>1970-01-01T08:06:36.000Z</time>
      </trkpt>
      <trkpt lat="42.654555" lon="0.658807">
        <ele>2464.5</ele>
        <time>1970-01-01T08:06:37.000Z</time>
      </trkpt>
      <trkpt lat="42.654555" lon="0.658807">
        <ele>2464.5</ele>
        <time>1970-01-01T08:06:38.000Z</time>
      </trkpt>
      <trkpt lat="42.654555" lon="0.658807">
        <ele>2464.5</ele>
        <time>1970-01-01T08:06:39.000Z</time>
      </trkpt>
      <trkpt lat="42.654555" lon="0.658807">
        <ele>2464.5</ele>
        <time>1970-01-01T08:06:40.000Z</time>
      </trkpt>
      <trkpt lat="42.654555" lon="0.658807">
        <ele>2464.5</ele>
        <time>1970-01-01T08:06:41.000Z</time>
      </trkpt>
      <trkpt lat="42.654555" lon="0.658807">
        <ele>2464.5</ele>
        <time>1970-01-01T08:06:42.000Z</time>
      </trkpt>
      <trkpt lat="42.654555" lon="0.658807">
        <ele>2464.5</ele>
        <time>1970-01-01T08:06:43.000Z</time>
      </trkpt>
      <trkpt lat="42.654555" lon="0.658807">
        <ele>2464.5</ele>
        <time>1970-01-01T08:06:44.000Z</time>
      </trkpt>
      <trkpt lat="42.654555" lon="0.658807">
        <ele>2464.5</ele>
        <time>1970-01-01T08:06:45.000Z</time>
      </trkpt>
      <trkpt lat="42.654555" lon="0.658807">
        <ele>2464.5</ele>
        <time>1970-01-01T08:06:46.000Z</time>
      </trkpt>
      <trkpt lat="42.654555" lon="0.658807">
        <ele>2464.5</ele>
        <time>1970-01-01T08:06:47.000Z</time>
      </trkpt>
      <trkpt lat="42.654555" lon="0.658807">
        <ele>2464.5</ele>
        <time>1970-01-01T08:06:48.000Z</time>
      </trkpt>
      <trkpt lat="42.654555" lon="0.658807">
        <ele>2464.5</ele>
        <time>1970-01-01T08:06:49.000Z</time>
      </trkpt>
      <trkpt lat="42.654555" lon="0.658807">
        <ele>2464.5</ele>
        <time>1970-01-01T08:06:50.000Z</time>
      </trkpt>
      <trkpt lat="42.654555" lon="0.658807">
        <ele>2464.5</ele>
        <time>1970-01-01T08:06:51.000Z</time>
      </trkpt>
      <trkpt lat="42.654556" lon="0.658806">
        <ele>2464.5</ele>
        <time>1970-01-01T08:06:52.000Z</time>
      </trkpt>
      <trkpt lat="42.654557" lon="0.658802">
        <ele>2464.4</ele>
        <time>1970-01-01T08:06:53.000Z</time>
      </trkpt>
      <trkpt lat="42.654557" lon="0.658801">
        <ele>2464.4</ele>
        <time>1970-01-01T08:06:54.000Z</time>
      </trkpt>
      <trkpt lat="42.654559" lon="0.6588">
        <ele>2464.4</ele>
        <time>1970-01-01T08:06:55.000Z</time>
      </trkpt>
      <trkpt lat="42.65456" lon="0.6588">
        <ele>2464.4</ele>
        <time>1970-01-01T08:06:56.000Z</time>
      </trkpt>
      <trkpt lat="42.654561" lon="0.6588">
        <ele>2464.4</ele>
        <time>1970-01-01T08:06:57.000Z</time>
      </trkpt>
      <trkpt lat="42.654561" lon="0.658799">
        <ele>2464.4</ele>
        <time>1970-01-01T08:06:58.000Z</time>
      </trkpt>
      <trkpt lat="42.654559" lon="0.658801">
        <ele>2464.4</ele>
        <time>1970-01-01T08:06:59.000Z</time>
      </trkpt>
      <trkpt lat="42.654559" lon="0.6588">
        <ele>2464.4</ele>
        <time>1970-01-01T08:07:00.000Z</time>
      </trkpt>
      <trkpt lat="42.654559" lon="0.6588">
        <ele>2464.4</ele>
        <time>1970-01-01T08:07:01.000Z</time>
      </trkpt>
      <trkpt lat="42.654559" lon="0.658801">
        <ele>2464.4</ele>
        <time>1970-01-01T08:07:02.000Z</time>
      </trkpt>
      <trkpt lat="42.654558" lon="0.658801">
        <ele>2464.4</ele>
        <time>1970-01-01T08:07:03.000Z</time>
      </trkpt>
      <trkpt lat="42.654558" lon="0.658801">
        <ele>2464.4</ele>
        <time>1970-01-01T08:07:04.000Z</time>
      </trkpt>
      <trkpt lat="42.654557" lon="0.658802">
        <ele>2464.4</ele>
        <time>1970-01-01T08:07:05.000Z</time>
      </trkpt>
      <trkpt lat="42.654557" lon="0.658803">
        <ele>2464.4</ele>
        <time>1970-01-01T08:07:06.000Z</time>
      </trkpt>
      <trkpt lat="42.654557" lon="0.658803">
        <ele>2464.4</ele>
        <time>1970-01-01T08:07:07.000Z</time>
      </trkpt>
      <trkpt lat="42.654557" lon="0.658803">
        <ele>2464.4</ele>
        <time>1970-01-01T08:07:08.000Z</time>
      </trkpt>
      <trkpt lat="42.654556" lon="0.658803">
        <ele>2464.4</ele>
        <time>1970-01-01T08:07:09.000Z</time>
      </trkpt>
      <trkpt lat="42.654556" lon="0.658803">
        <ele>2464.4</ele>
        <time>1970-01-01T08:07:10.000Z</time>
      </trkpt>
      <trkpt lat="42.654556" lon="0.658804">
        <ele>2464.4</ele>
        <time>1970-01-01T08:07:11.000Z</time>
      </trkpt>
      <trkpt lat="42.654557" lon="0.658804">
        <ele>2464.4</ele>
        <time>1970-01-01T08:07:12.000Z</time>
      </trkpt>
      <trkpt lat="42.654557" lon="0.658804">
        <ele>2464.4</ele>
        <time>1970-01-01T08:07:13.000Z</time>
      </trkpt>
      <trkpt lat="42.654557" lon="0.658804">
        <ele>2464.4</ele>
        <time>1970-01-01T08:07:14.000Z</time>
      </trkpt>
      <trkpt lat="42.654557" lon="0.658805">
        <ele>2464.4</ele>
        <time>1970-01-01T08:07:15.000Z</time>
      </trkpt>
      <trkpt lat="42.654557" lon="0.658806">
        <ele>2464.4</ele>
        <time>1970-01-01T08:07:16.000Z</time>
      </trkpt>
      <trkpt lat="42.654558" lon="0.658807">
        <ele>2464.4</ele>
        <time>1970-01-01T08:07:17.000Z</time>
      </trkpt>
      <trkpt lat="42.654558" lon="0.658808">
        <ele>2464.4</ele>
        <time>1970-01-01T08:07:18.000Z</time>
      </trkpt>
      <trkpt lat="42.654557" lon="0.658809">
        <ele>2464.4</ele>
        <time>1970-01-01T08:07:19.000Z</time>
      </trkpt>
      <trkpt lat="42.654557" lon="0.658808">
        <ele>2464.4</ele>
        <time>1970-01-01T08:07:20.000Z</time>
      </trkpt>
      <trkpt lat="42.654555" lon="0.658805">
        <ele>2464.4</ele>
        <time>1970-01-01T08:07:21.000Z</time>
      </trkpt>
      <trkpt lat="42.654555" lon="0.658797">
        <ele>2464.4</ele>
        <time>1970-01-01T08:07:22.000Z</time>
      </trkpt>
      <trkpt lat="42.654556" lon="0.658788">
        <ele>2464.4</ele>
        <time>1970-01-01T08:07:23.000Z</time>
      </trkpt>
      <trkpt lat="42.654557" lon="0.658785">
        <ele>2464.4</ele>
        <time>1970-01-01T08:07:24.000Z</time>
      </trkpt>
      <trkpt lat="42.654557" lon="0.658785">
        <ele>2464.4</ele>
        <time>1970-01-01T08:07:25.000Z</time>
      </trkpt>
      <trkpt lat="42.654557" lon="0.658785">
        <ele>2464.4</ele>
        <time>1970-01-01T08:07:26.000Z</time>
      </trkpt>
      <trkpt lat="42.654557" lon="0.658785">
        <ele>2464.4</ele>
        <time>1970-01-01T08:07:27.000Z</time>
      </trkpt>
      <trkpt lat="42.654557" lon="0.658785">
        <ele>2464.4</ele>
        <time>1970-01-01T08:07:28.000Z</time>
      </trkpt>
      <trkpt lat="42.654557" lon="0.658785">
        <ele>2464.4</ele>
        <time>1970-01-01T08:07:29.000Z</time>
      </trkpt>
      <trkpt lat="42.654557" lon="0.658785">
        <ele>2464.4</ele>
        <time>1970-01-01T08:07:30.000Z</time>
      </trkpt>
      <trkpt lat="42.654557" lon="0.658785">
        <ele>2464.4</ele>
        <time>1970-01-01T08:07:31.000Z</time>
      </trkpt>
      <trkpt lat="42.654557" lon="0.658785">
        <ele>2464.4</ele>
        <time>1970-01-01T08:07:32.000Z</time>
      </trkpt>
      <trkpt lat="42.654557" lon="0.658785">
        <ele>2464.4</ele>
        <time>1970-01-01T08:07:33.000Z</time>
      </trkpt>
      <trkpt lat="42.654557" lon="0.658785">
        <ele>2464.4</ele>
        <time>1970-01-01T08:07:34.000Z</time>
      </trkpt>
      <trkpt lat="42.654557" lon="0.658785">
        <ele>2464.4</ele>
        <time>1970-01-01T08:07:35.000Z</time>
      </trkpt>
      <trkpt lat="42.654557" lon="0.658785">
        <ele>2464.4</ele>
        <time>1970-01-01T08:07:36.000Z</time>
      </trkpt>
      <trkpt lat="42.654557" lon="0.658785">
        <ele>2464.4</ele>
        <time>1970-01-01T08:07:37.000Z</time>
      </trkpt>
      <trkpt lat="42.654557" lon="0.658785">
        <ele>2464.4</ele>
        <time>1970-01-01T08:07:38.000Z</time>
      </trkpt>
      <trkpt lat="42.654557" lon="0.658785">
        <ele>2464.4</ele>
        <time>1970-01-01T08:07:39.000Z</time>
      </trkpt>
      <trkpt lat="42.654557" lon="0.658785">
        <ele>2464.4</ele>
        <time>1970-01-01T08:07:40.000Z</time>
      </trkpt>
      <trkpt lat="42.654557" lon="0.658785">
        <ele>2464.4</ele>
        <time>1970-01-01T08:07:41.000Z</time>
      </trkpt>
      <trkpt lat="42.654557" lon="0.658785">
        <ele>2464.4</ele>
        <time>1970-01-01T08:07:42.000Z</time>
      </trkpt>
      <trkpt lat="42.654557" lon="0.658785">
        <ele>2464.4</ele>
        <time>1970-01-01T08:07:43.000Z</time>
      </trkpt>
      <trkpt lat="42.654557" lon="0.658786">
        <ele>2464.4</ele>
        <time>1970-01-01T08:07:44.000Z</time>
      </trkpt>
      <trkpt lat="42.654557" lon="0.658786">
        <ele>2464.4</ele>
        <time>1970-01-01T08:07:45.000Z</time>
      </trkpt>
      <trkpt lat="42.654557" lon="0.658786">
        <ele>2464.4</ele>
        <time>1970-01-01T08:07:46.000Z</time>
      </trkpt>
      <trkpt lat="42.654556" lon="0.658786">
        <ele>2464.4</ele>
        <time>1970-01-01T08:07:47.000Z</time>
      </trkpt>
      <trkpt lat="42.654556" lon="0.658786">
        <ele>2464.4</ele>
        <time>1970-01-01T08:07:48.000Z</time>
      </trkpt>
      <trkpt lat="42.654557" lon="0.658786">
        <ele>2464.4</ele>
        <time>1970-01-01T08:07:49.000Z</time>
      </trkpt>
      <trkpt lat="42.654557" lon="0.658786">
        <ele>2464.4</ele>
        <time>1970-01-01T08:07:50.000Z</time>
      </trkpt>
      <trkpt lat="42.654557" lon="0.658786">
        <ele>2464.4</ele>
        <time>1970-01-01T08:07:51.000Z</time>
      </trkpt>
      <trkpt lat="42.654557" lon="0.658786">
        <ele>2464.4</ele>
        <time>1970-01-01T08:07:52.000Z</time>
      </trkpt>
      <trkpt lat="42.654557" lon="0.658786">
        <ele>2464.4</ele>
        <time>1970-01-01T08:07:53.000Z</time>
      </trkpt>
      <trkpt lat="42.654557" lon="0.658786">
        <ele>2464.4</ele>
        <time>1970-01-01T08:07:54.000Z</time>
      </trkpt>
      <trkpt lat="42.654557" lon="0.658786">
        <ele>2464.4</ele>
        <time>1970-01-01T08:07:55.000Z</time>
      </trkpt>
      <trkpt lat="42.654557" lon="0.658786">
        <ele>2464.4</ele>
        <time>1970-01-01T08:07:56.000Z</time>
      </trkpt>
      <trkpt lat="42.654557" lon="0.658786">
        <ele>2464.4</ele>
        <time>1970-01-01T08:07:57.000Z</time>
      </trkpt>
      <trkpt lat="42.654556" lon="0.658786">
        <ele>2464.4</ele>
        <time>1970-01-01T08:07:58.000Z</time>
      </trkpt>
      <trkpt lat="42.654556" lon="0.658786">
        <ele>2464.4</ele>
        <time>1970-01-01T08:07:59.000Z</time>
      </trkpt>
      <trkpt lat="42.654556" lon="0.658786">
        <ele>2464.4</ele>
        <time>1970-01-01T08:08:00.000Z</time>
      </trkpt>
      <trkpt lat="42.654556" lon="0.658786">
        <ele>2464.4</ele>
        <time>1970-01-01T08:08:01.000Z</time>
      </trkpt>
      <trkpt lat="42.654556" lon="0.658786">
        <ele>2464.4</ele>
        <time>1970-01-01T08:08:02.000Z</time>
      </trkpt>
      <trkpt lat="42.654558" lon="0.658786">
        <ele>2464.4</ele>
        <time>1970-01-01T08:08:03.000Z</time>
      </trkpt>
      <trkpt lat="42.654561" lon="0.658788">
        <ele>2464.4</ele>
        <time>1970-01-01T08:08:04.000Z</time>
      </trkpt>
      <trkpt lat="42.654562" lon="0.658793">
        <ele>2464.4</ele>
        <time>1970-01-01T08:08:05.000Z</time>
      </trkpt>
      <trkpt lat="42.654562" lon="0.658795">
        <ele>2464.4</ele>
        <time>1970-01-01T08:08:06.000Z</time>
      </trkpt>
      <trkpt lat="42.654562" lon="0.658795">
        <ele>2464.4</ele>
        <time>1970-01-01T08:08:07.000Z</time>
      </trkpt>
      <trkpt lat="42.654562" lon="0.658795">
        <ele>2464.4</ele>
        <time>1970-01-01T08:08:08.000Z</time>
      </trkpt>
      <trkpt lat="42.654562" lon="0.658795">
        <ele>2464.4</ele>
        <time>1970-01-01T08:08:09.000Z</time>
      </trkpt>
      <trkpt lat="42.654562" lon="0.658795">
        <ele>2464.4</ele>
        <time>1970-01-01T08:08:10.000Z</time>
      </trkpt>
      <trkpt lat="42.654562" lon="0.658795">
        <ele>2464.4</ele>
        <time>1970-01-01T08:08:11.000Z</time>
      </trkpt>
      <trkpt lat="42.654562" lon="0.658795">
        <ele>2464.4</ele>
        <time>1970-01-01T08:08:12.000Z</time>
      </trkpt>
      <trkpt lat="42.654562" lon="0.658795">
        <ele>2464.4</ele>
        <time>1970-01-01T08:08:13.000Z</time>
      </trkpt>
      <trkpt lat="42.654562" lon="0.658795">
        <ele>2464.4</ele>
        <time>1970-01-01T08:08:14.000Z</time>
      </trkpt>
      <trkpt lat="42.654562" lon="0.658795">
        <ele>2464.4</ele>
        <time>1970-01-01T08:08:15.000Z</time>
      </trkpt>
      <trkpt lat="42.654562" lon="0.658795">
        <ele>2464.4</ele>
        <time>1970-01-01T08:08:16.000Z</time>
      </trkpt>
      <trkpt lat="42.654562" lon="0.658795">
        <ele>2464.4</ele>
        <time>1970-01-01T08:08:17.000Z</time>
      </trkpt>
      <trkpt lat="42.654562" lon="0.658796">
        <ele>2464.4</ele>
        <time>1970-01-01T08:08:18.000Z</time>
      </trkpt>
      <trkpt lat="42.654562" lon="0.658796">
        <ele>2464.4</ele>
        <time>1970-01-01T08:08:19.000Z</time>
      </trkpt>
      <trkpt lat="42.654562" lon="0.658796">
        <ele>2464.4</ele>
        <time>1970-01-01T08:08:20.000Z</time>
      </trkpt>
      <trkpt lat="42.654562" lon="0.658795">
        <ele>2464.4</ele>
        <time>1970-01-01T08:08:22.000Z</time>
      </trkpt>
      <trkpt lat="42.654562" lon="0.658795">
        <ele>2464.4</ele>
        <time>1970-01-01T08:08:23.000Z</time>
      </trkpt>
      <trkpt lat="42.654562" lon="0.658794">
        <ele>2464.4</ele>
        <time>1970-01-01T08:08:24.000Z</time>
      </trkpt>
      <trkpt lat="42.654561" lon="0.658792">
        <ele>2464.4</ele>
        <time>1970-01-01T08:08:25.000Z</time>
      </trkpt>
      <trkpt lat="42.654559" lon="0.658792">
        <ele>2464.4</ele>
        <time>1970-01-01T08:08:26.000Z</time>
      </trkpt>
      <trkpt lat="42.654558" lon="0.658793">
        <ele>2464.4</ele>
        <time>1970-01-01T08:08:27.000Z</time>
      </trkpt>
      <trkpt lat="42.654557" lon="0.658794">
        <ele>2464.4</ele>
        <time>1970-01-01T08:08:28.000Z</time>
      </trkpt>
      <trkpt lat="42.654557" lon="0.658794">
        <ele>2464.4</ele>
        <time>1970-01-01T08:08:29.000Z</time>
      </trkpt>
      <trkpt lat="42.654558" lon="0.658794">
        <ele>2464.4</ele>
        <time>1970-01-01T08:08:30.000Z</time>
      </trkpt>
      <trkpt lat="42.654558" lon="0.658795">
        <ele>2464.4</ele>
        <time>1970-01-01T08:08:31.000Z</time>
      </trkpt>
      <trkpt lat="42.654558" lon="0.658795">
        <ele>2464.4</ele>
        <time>1970-01-01T08:08:32.000Z</time>
      </trkpt>
      <trkpt lat="42.654558" lon="0.658795">
        <ele>2464.4</ele>
        <time>1970-01-01T08:08:33.000Z</time>
      </trkpt>
      <trkpt lat="42.654558" lon="0.658795">
        <ele>2464.4</ele>
        <time>1970-01-01T08:08:34.000Z</time>
      </trkpt>
      <trkpt lat="42.654558" lon="0.658795">
        <ele>2464.4</ele>
        <time>1970-01-01T08:08:35.000Z</time>
      </trkpt>
      <trkpt lat="42.654559" lon="0.658796">
        <ele>2464.4</ele>
        <time>1970-01-01T08:08:36.000Z</time>
      </trkpt>
      <trkpt lat="42.654559" lon="0.658796">
        <ele>2464.4</ele>
        <time>1970-01-01T08:08:37.000Z</time>
      </trkpt>
      <trkpt lat="42.654559" lon="0.658796">
        <ele>2464.4</ele>
        <time>1970-01-01T08:08:38.000Z</time>
      </trkpt>
      <trkpt lat="42.654559" lon="0.658796">
        <ele>2464.4</ele>
        <time>1970-01-01T08:08:39.000Z</time>
      </trkpt>
      <trkpt lat="42.65456" lon="0.658796">
        <ele>2464.4</ele>
        <time>1970-01-01T08:08:40.000Z</time>
      </trkpt>
      <trkpt lat="42.65456" lon="0.658797">
        <ele>2464.4</ele>
        <time>1970-01-01T08:08:41.000Z</time>
      </trkpt>
      <trkpt lat="42.65456" lon="0.658798">
        <ele>2464.4</ele>
        <time>1970-01-01T08:08:42.000Z</time>
      </trkpt>
      <trkpt lat="42.654559" lon="0.658798">
        <ele>2464.4</ele>
        <time>1970-01-01T08:08:43.000Z</time>
      </trkpt>
      <trkpt lat="42.654559" lon="0.658799">
        <ele>2464.4</ele>
        <time>1970-01-01T08:08:44.000Z</time>
      </trkpt>
      <trkpt lat="42.654559" lon="0.658799">
        <ele>2464.4</ele>
        <time>1970-01-01T08:08:45.000Z</time>
      </trkpt>
      <trkpt lat="42.654559" lon="0.658799">
        <ele>2464.4</ele>
        <time>1970-01-01T08:08:46.000Z</time>
      </trkpt>
      <trkpt lat="42.654559" lon="0.6588">
        <ele>2464.4</ele>
        <time>1970-01-01T08:08:47.000Z</time>
      </trkpt>
      <trkpt lat="42.654559" lon="0.6588">
        <ele>2464.4</ele>
        <time>1970-01-01T08:08:48.000Z</time>
      </trkpt>
      <trkpt lat="42.65456" lon="0.658801">
        <ele>2464.4</ele>
        <time>1970-01-01T08:08:49.000Z</time>
      </trkpt>
      <trkpt lat="42.65456" lon="0.6588">
        <ele>2464.4</ele>
        <time>1970-01-01T08:08:50.000Z</time>
      </trkpt>
      <trkpt lat="42.654561" lon="0.6588">
        <ele>2464.4</ele>
        <time>1970-01-01T08:08:51.000Z</time>
      </trkpt>
      <trkpt lat="42.65456" lon="0.6588">
        <ele>2464.4</ele>
        <time>1970-01-01T08:08:52.000Z</time>
      </trkpt>
      <trkpt lat="42.654558" lon="0.658799">
        <ele>2464.4</ele>
        <time>1970-01-01T08:08:53.000Z</time>
      </trkpt>
      <trkpt lat="42.654558" lon="0.658798">
        <ele>2464.4</ele>
        <time>1970-01-01T08:08:54.000Z</time>
      </trkpt>
      <trkpt lat="42.654558" lon="0.658797">
        <ele>2464.4</ele>
        <time>1970-01-01T08:08:55.000Z</time>
      </trkpt>
      <trkpt lat="42.654558" lon="0.658797">
        <ele>2464.4</ele>
        <time>1970-01-01T08:08:56.000Z</time>
      </trkpt>
      <trkpt lat="42.654558" lon="0.658797">
        <ele>2464.4</ele>
        <time>1970-01-01T08:08:57.000Z</time>
      </trkpt>
      <trkpt lat="42.654558" lon="0.658797">
        <ele>2464.4</ele>
        <time>1970-01-01T08:08:58.000Z</time>
      </trkpt>
      <trkpt lat="42.654558" lon="0.658797">
        <ele>2464.4</ele>
        <time>1970-01-01T08:08:59.000Z</time>
      </trkpt>
      <trkpt lat="42.654558" lon="0.658797">
        <ele>2464.4</ele>
        <time>1970-01-01T08:09:00.000Z</time>
      </trkpt>
      <trkpt lat="42.654558" lon="0.658797">
        <ele>2464.4</ele>
        <time>1970-01-01T08:09:01.000Z</time>
      </trkpt>
      <trkpt lat="42.654558" lon="0.658797">
        <ele>2464.4</ele>
        <time>1970-01-01T08:09:02.000Z</time>
      </trkpt>
      <trkpt lat="42.654558" lon="0.658798">
        <ele>2464.4</ele>
        <time>1970-01-01T08:09:03.000Z</time>
      </trkpt>
      <trkpt lat="42.654558" lon="0.658797">
        <ele>2464.4</ele>
        <time>1970-01-01T08:09:04.000Z</time>
      </trkpt>
      <trkpt lat="42.654558" lon="0.658797">
        <ele>2464.4</ele>
        <time>1970-01-01T08:09:05.000Z</time>
      </trkpt>
      <trkpt lat="42.654558" lon="0.658797">
        <ele>2464.4</ele>
        <time>1970-01-01T08:09:06.000Z</time>
      </trkpt>
      <trkpt lat="42.654558" lon="0.658797">
        <ele>2464.4</ele>
        <time>1970-01-01T08:09:07.000Z</time>
      </trkpt>
      <trkpt lat="42.654558" lon="0.658797">
        <ele>2464.4</ele>
        <time>1970-01-01T08:09:08.000Z</time>
      </trkpt>
      <trkpt lat="42.654558" lon="0.658797">
        <ele>2464.4</ele>
        <time>1970-01-01T08:09:09.000Z</time>
      </trkpt>
      <trkpt lat="42.654558" lon="0.658797">
        <ele>2464.4</ele>
        <time>1970-01-01T08:09:10.000Z</time>
      </trkpt>
      <trkpt lat="42.654557" lon="0.658797">
        <ele>2464.4</ele>
        <time>1970-01-01T08:09:11.000Z</time>
      </trkpt>
      <trkpt lat="42.654557" lon="0.658797">
        <ele>2464.4</ele>
        <time>1970-01-01T08:09:12.000Z</time>
      </trkpt>
      <trkpt lat="42.654557" lon="0.658797">
        <ele>2464.4</ele>
        <time>1970-01-01T08:09:13.000Z</time>
      </trkpt>
      <trkpt lat="42.654557" lon="0.658797">
        <ele>2464.4</ele>
        <time>1970-01-01T08:09:14.000Z</time>
      </trkpt>
      <trkpt lat="42.654557" lon="0.658797">
        <ele>2464.4</ele>
        <time>1970-01-01T08:09:15.000Z</time>
      </trkpt>
      <trkpt lat="42.654557" lon="0.658798">
        <ele>2464.4</ele>
        <time>1970-01-01T08:09:16.000Z</time>
      </trkpt>
      <trkpt lat="42.654557" lon="0.658798">
        <ele>2464.4</ele>
        <time>1970-01-01T08:09:17.000Z</time>
      </trkpt>
      <trkpt lat="42.654557" lon="0.658798">
        <ele>2464.4</ele>
        <time>1970-01-01T08:09:18.000Z</time>
      </trkpt>
      <trkpt lat="42.654557" lon="0.658798">
        <ele>2464.4</ele>
        <time>1970-01-01T08:09:19.000Z</time>
      </trkpt>
      <trkpt lat="42.654557" lon="0.658798">
        <ele>2464.4</ele>
        <time>1970-01-01T08:09:20.000Z</time>
      </trkpt>
      <trkpt lat="42.654557" lon="0.658798">
        <ele>2464.4</ele>
        <time>1970-01-01T08:09:21.000Z</time>
      </trkpt>
      <trkpt lat="42.654557" lon="0.658798">
        <ele>2464.4</ele>
        <time>1970-01-01T08:09:22.000Z</time>
      </trkpt>
      <trkpt lat="42.654557" lon="0.658798">
        <ele>2464.4</ele>
        <time>1970-01-01T08:09:23.000Z</time>
      </trkpt>
      <trkpt lat="42.654557" lon="0.658798">
        <ele>2464.4</ele>
        <time>1970-01-01T08:09:24.000Z</time>
      </trkpt>
      <trkpt lat="42.654557" lon="0.658798">
        <ele>2464.4</ele>
        <time>1970-01-01T08:09:25.000Z</time>
      </trkpt>
      <trkpt lat="42.654557" lon="0.658798">
        <ele>2464.4</ele>
        <time>1970-01-01T08:09:26.000Z</time>
      </trkpt>
      <trkpt lat="42.654557" lon="0.658798">
        <ele>2464.4</ele>
        <time>1970-01-01T08:09:27.000Z</time>
      </trkpt>
      <trkpt lat="42.654557" lon="0.658798">
        <ele>2464.4</ele>
        <time>1970-01-01T08:09:28.000Z</time>
      </trkpt>
      <trkpt lat="42.654557" lon="0.658798">
        <ele>2464.4</ele>
        <time>1970-01-01T08:09:29.000Z</time>
      </trkpt>
      <trkpt lat="42.654557" lon="0.658798">
        <ele>2464.4</ele>
        <time>1970-01-01T08:09:30.000Z</time>
      </trkpt>
      <trkpt lat="42.654557" lon="0.658798">
        <ele>2464.4</ele>
        <time>1970-01-01T08:09:31.000Z</time>
      </trkpt>
      <trkpt lat="42.654557" lon="0.658798">
        <ele>2464.4</ele>
        <time>1970-01-01T08:09:32.000Z</time>
      </trkpt>
      <trkpt lat="42.654557" lon="0.658798">
        <ele>2464.4</ele>
        <time>1970-01-01T08:09:33.000Z</time>
      </trkpt>
      <trkpt lat="42.654557" lon="0.658798">
        <ele>2464.4</ele>
        <time>1970-01-01T08:09:34.000Z</time>
      </trkpt>
      <trkpt lat="42.654557" lon="0.658798">
        <ele>2464.4</ele>
        <time>1970-01-01T08:09:35.000Z</time>
      </trkpt>
      <trkpt lat="42.654557" lon="0.658798">
        <ele>2464.4</ele>
        <time>1970-01-01T08:09:36.000Z</time>
      </trkpt>
      <trkpt lat="42.654557" lon="0.658798">
        <ele>2464.4</ele>
        <time>1970-01-01T08:09:37.000Z</time>
      </trkpt>
      <trkpt lat="42.654557" lon="0.658798">
        <ele>2464.4</ele>
        <time>1970-01-01T08:09:38.000Z</time>
      </trkpt>
      <trkpt lat="42.654557" lon="0.658798">
        <ele>2464.4</ele>
        <time>1970-01-01T08:09:39.000Z</time>
      </trkpt>
      <trkpt lat="42.654557" lon="0.658798">
        <ele>2464.4</ele>
        <time>1970-01-01T08:09:40.000Z</time>
      </trkpt>
      <trkpt lat="42.654557" lon="0.658798">
        <ele>2464.4</ele>
        <time>1970-01-01T08:09:41.000Z</time>
      </trkpt>
      <trkpt lat="42.654557" lon="0.658798">
        <ele>2464.4</ele>
        <time>1970-01-01T08:09:42.000Z</time>
      </trkpt>
      <trkpt lat="42.654557" lon="0.658798">
        <ele>2464.4</ele>
        <time>1970-01-01T08:09:43.000Z</time>
      </trkpt>
      <trkpt lat="42.654557" lon="0.658798">
        <ele>2464.4</ele>
        <time>1970-01-01T08:09:44.000Z</time>
      </trkpt>
      <trkpt lat="42.654557" lon="0.658798">
        <ele>2464.4</ele>
        <time>1970-01-01T08:09:45.000Z</time>
      </trkpt>
      <trkpt lat="42.654557" lon="0.658798">
        <ele>2464.4</ele>
        <time>1970-01-01T08:09:46.000Z</time>
      </trkpt>
      <trkpt lat="42.654557" lon="0.658798">
        <ele>2464.4</ele>
        <time>1970-01-01T08:09:47.000Z</time>
      </trkpt>
      <trkpt lat="42.654557" lon="0.658798">
        <ele>2464.4</ele>
        <time>1970-01-01T08:09:48.000Z</time>
      </trkpt>
      <trkpt lat="42.654557" lon="0.658798">
        <ele>2464.4</ele>
        <time>1970-01-01T08:09:49.000Z</time>
      </trkpt>
      <trkpt lat="42.654557" lon="0.658798">
        <ele>2464.4</ele>
        <time>1970-01-01T08:09:50.000Z</time>
      </trkpt>
      <trkpt lat="42.654557" lon="0.658798">
        <ele>2464.4</ele>
        <time>1970-01-01T08:09:51.000Z</time>
      </trkpt>
      <trkpt lat="42.654557" lon="0.658798">
        <ele>2464.4</ele>
        <time>1970-01-01T08:09:52.000Z</time>
      </trkpt>
      <trkpt lat="42.654557" lon="0.658798">
        <ele>2464.4</ele>
        <time>1970-01-01T08:09:53.000Z</time>
      </trkpt>
      <trkpt lat="42.654557" lon="0.658798">
        <ele>2464.4</ele>
        <time>1970-01-01T08:09:54.000Z</time>
      </trkpt>
      <trkpt lat="42.654557" lon="0.658798">
        <ele>2464.4</ele>
        <time>1970-01-01T08:09:55.000Z</time>
      </trkpt>
      <trkpt lat="42.654557" lon="0.658798">
        <ele>2464.4</ele>
        <time>1970-01-01T08:09:56.000Z</time>
      </trkpt>
      <trkpt lat="42.654557" lon="0.658798">
        <ele>2464.4</ele>
        <time>1970-01-01T08:09:57.000Z</time>
      </trkpt>
      <trkpt lat="42.654557" lon="0.658798">
        <ele>2464.4</ele>
        <time>1970-01-01T08:09:58.000Z</time>
      </trkpt>
      <trkpt lat="42.654557" lon="0.658798">
        <ele>2464.4</ele>
        <time>1970-01-01T08:09:59.000Z</time>
      </trkpt>
      <trkpt lat="42.654557" lon="0.658798">
        <ele>2464.4</ele>
        <time>1970-01-01T08:10:00.000Z</time>
      </trkpt>
      <trkpt lat="42.654557" lon="0.658798">
        <ele>2464.4</ele>
        <time>1970-01-01T08:10:01.000Z</time>
      </trkpt>
      <trkpt lat="42.654557" lon="0.658798">
        <ele>2464.4</ele>
        <time>1970-01-01T08:10:02.000Z</time>
      </trkpt>
      <trkpt lat="42.654557" lon="0.658798">
        <ele>2464.4</ele>
        <time>1970-01-01T08:10:03.000Z</time>
      </trkpt>
      <trkpt lat="42.654557" lon="0.658798">
        <ele>2464.4</ele>
        <time>1970-01-01T08:10:04.000Z</time>
      </trkpt>
      <trkpt lat="42.654557" lon="0.658798">
        <ele>2464.4</ele>
        <time>1970-01-01T08:10:05.000Z</time>
      </trkpt>
      <trkpt lat="42.654557" lon="0.658798">
        <ele>2464.4</ele>
        <time>1970-01-01T08:10:06.000Z</time>
      </trkpt>
      <trkpt lat="42.654557" lon="0.658798">
        <ele>2464.4</ele>
        <time>1970-01-01T08:10:07.000Z</time>
      </trkpt>
      <trkpt lat="42.654557" lon="0.658799">
        <ele>2464.4</ele>
        <time>1970-01-01T08:10:08.000Z</time>
      </trkpt>
      <trkpt lat="42.654557" lon="0.658799">
        <ele>2464.4</ele>
        <time>1970-01-01T08:10:09.000Z</time>
      </trkpt>
      <trkpt lat="42.654557" lon="0.658799">
        <ele>2464.4</ele>
        <time>1970-01-01T08:10:10.000Z</time>
      </trkpt>
      <trkpt lat="42.654557" lon="0.658799">
        <ele>2464.4</ele>
        <time>1970-01-01T08:10:11.000Z</time>
      </trkpt>
      <trkpt lat="42.654557" lon="0.658799">
        <ele>2464.4</ele>
        <time>1970-01-01T08:10:12.000Z</time>
      </trkpt>
      <trkpt lat="42.654557" lon="0.658799">
        <ele>2464.4</ele>
        <time>1970-01-01T08:10:13.000Z</time>
      </trkpt>
      <trkpt lat="42.654557" lon="0.658799">
        <ele>2464.4</ele>
        <time>1970-01-01T08:10:14.000Z</time>
      </trkpt>
      <trkpt lat="42.654557" lon="0.658799">
        <ele>2464.4</ele>
        <time>1970-01-01T08:10:15.000Z</time>
      </trkpt>
      <trkpt lat="42.654558" lon="0.658797">
        <ele>2464.4</ele>
        <time>1970-01-01T08:10:16.000Z</time>
      </trkpt>
      <trkpt lat="42.654559" lon="0.658796">
        <ele>2464.4</ele>
        <time>1970-01-01T08:10:17.000Z</time>
      </trkpt>
      <trkpt lat="42.654559" lon="0.658796">
        <ele>2464.4</ele>
        <time>1970-01-01T08:10:18.000Z</time>
      </trkpt>
      <trkpt lat="42.654559" lon="0.658796">
        <ele>2464.4</ele>
        <time>1970-01-01T08:10:19.000Z</time>
      </trkpt>
      <trkpt lat="42.654559" lon="0.658796">
        <ele>2464.4</ele>
        <time>1970-01-01T08:10:20.000Z</time>
      </trkpt>
      <trkpt lat="42.654559" lon="0.658796">
        <ele>2464.4</ele>
        <time>1970-01-01T08:10:21.000Z</time>
      </trkpt>
      <trkpt lat="42.654559" lon="0.658796">
        <ele>2464.4</ele>
        <time>1970-01-01T08:10:22.000Z</time>
      </trkpt>
      <trkpt lat="42.654559" lon="0.658796">
        <ele>2464.4</ele>
        <time>1970-01-01T08:10:23.000Z</time>
      </trkpt>
      <trkpt lat="42.654559" lon="0.658796">
        <ele>2464.4</ele>
        <time>1970-01-01T08:10:24.000Z</time>
      </trkpt>
      <trkpt lat="42.654559" lon="0.658796">
        <ele>2464.4</ele>
        <time>1970-01-01T08:10:25.000Z</time>
      </trkpt>
      <trkpt lat="42.654559" lon="0.658796">
        <ele>2464.4</ele>
        <time>1970-01-01T08:10:26.000Z</time>
      </trkpt>
      <trkpt lat="42.654559" lon="0.658796">
        <ele>2464.4</ele>
        <time>1970-01-01T08:10:27.000Z</time>
      </trkpt>
      <trkpt lat="42.654559" lon="0.658796">
        <ele>2464.4</ele>
        <time>1970-01-01T08:10:28.000Z</time>
      </trkpt>
      <trkpt lat="42.654559" lon="0.658796">
        <ele>2464.4</ele>
        <time>1970-01-01T08:10:29.000Z</time>
      </trkpt>
      <trkpt lat="42.654559" lon="0.658796">
        <ele>2464.4</ele>
        <time>1970-01-01T08:10:30.000Z</time>
      </trkpt>
      <trkpt lat="42.654559" lon="0.658796">
        <ele>2464.4</ele>
        <time>1970-01-01T08:10:31.000Z</time>
      </trkpt>
      <trkpt lat="42.654559" lon="0.658796">
        <ele>2464.4</ele>
        <time>1970-01-01T08:10:32.000Z</time>
      </trkpt>
      <trkpt lat="42.654559" lon="0.658796">
        <ele>2464.4</ele>
        <time>1970-01-01T08:10:33.000Z</time>
      </trkpt>
      <trkpt lat="42.654559" lon="0.658796">
        <ele>2464.4</ele>
        <time>1970-01-01T08:10:34.000Z</time>
      </trkpt>
      <trkpt lat="42.654559" lon="0.658796">
        <ele>2464.4</ele>
        <time>1970-01-01T08:10:35.000Z</time>
      </trkpt>
      <trkpt lat="42.654559" lon="0.658796">
        <ele>2464.4</ele>
        <time>1970-01-01T08:10:36.000Z</time>
      </trkpt>
      <trkpt lat="42.654559" lon="0.658796">
        <ele>2464.4</ele>
        <time>1970-01-01T08:10:37.000Z</time>
      </trkpt>
      <trkpt lat="42.654559" lon="0.658796">
        <ele>2464.4</ele>
        <time>1970-01-01T08:10:38.000Z</time>
      </trkpt>
      <trkpt lat="42.654559" lon="0.658796">
        <ele>2464.4</ele>
        <time>1970-01-01T08:10:39.000Z</time>
      </trkpt>
      <trkpt lat="42.654559" lon="0.658796">
        <ele>2464.4</ele>
        <time>1970-01-01T08:10:40.000Z</time>
      </trkpt>
      <trkpt lat="42.654559" lon="0.658796">
        <ele>2464.4</ele>
        <time>1970-01-01T08:10:41.000Z</time>
      </trkpt>
      <trkpt lat="42.654559" lon="0.658796">
        <ele>2464.4</ele>
        <time>1970-01-01T08:10:42.000Z</time>
      </trkpt>
      <trkpt lat="42.654559" lon="0.658796">
        <ele>2464.4</ele>
        <time>1970-01-01T08:10:43.000Z</time>
      </trkpt>
      <trkpt lat="42.654559" lon="0.658796">
        <ele>2464.4</ele>
        <time>1970-01-01T08:10:44.000Z</time>
      </trkpt>
      <trkpt lat="42.654559" lon="0.658796">
        <ele>2464.4</ele>
        <time>1970-01-01T08:10:45.000Z</time>
      </trkpt>
      <trkpt lat="42.654559" lon="0.658796">
        <ele>2464.4</ele>
        <time>1970-01-01T08:10:46.000Z</time>
      </trkpt>
      <trkpt lat="42.654559" lon="0.658796">
        <ele>2464.4</ele>
        <time>1970-01-01T08:10:47.000Z</time>
      </trkpt>
      <trkpt lat="42.654559" lon="0.658796">
        <ele>2464.4</ele>
        <time>1970-01-01T08:10:48.000Z</time>
      </trkpt>
      <trkpt lat="42.654559" lon="0.658796">
        <ele>2464.4</ele>
        <time>1970-01-01T08:10:49.000Z</time>
      </trkpt>
      <trkpt lat="42.654559" lon="0.658796">
        <ele>2464.4</ele>
        <time>1970-01-01T08:10:50.000Z</time>
      </trkpt>
      <trkpt lat="42.654559" lon="0.658796">
        <ele>2464.4</ele>
        <time>1970-01-01T08:10:51.000Z</time>
      </trkpt>
      <trkpt lat="42.654559" lon="0.658796">
        <ele>2464.4</ele>
        <time>1970-01-01T08:10:52.000Z</time>
      </trkpt>
      <trkpt lat="42.654559" lon="0.658796">
        <ele>2464.4</ele>
        <time>1970-01-01T08:10:53.000Z</time>
      </trkpt>
      <trkpt lat="42.654559" lon="0.658796">
        <ele>2464.4</ele>
        <time>1970-01-01T08:10:54.000Z</time>
      </trkpt>
      <trkpt lat="42.654559" lon="0.658796">
        <ele>2464.4</ele>
        <time>1970-01-01T08:10:55.000Z</time>
      </trkpt>
      <trkpt lat="42.654559" lon="0.658796">
        <ele>2464.4</ele>
        <time>1970-01-01T08:10:56.000Z</time>
      </trkpt>
      <trkpt lat="42.654559" lon="0.658796">
        <ele>2464.4</ele>
        <time>1970-01-01T08:10:57.000Z</time>
      </trkpt>
      <trkpt lat="42.654559" lon="0.658795">
        <ele>2464.4</ele>
        <time>1970-01-01T08:10:58.000Z</time>
      </trkpt>
      <trkpt lat="42.654559" lon="0.658795">
        <ele>2464.4</ele>
        <time>1970-01-01T08:10:59.000Z</time>
      </trkpt>
      <trkpt lat="42.654559" lon="0.658795">
        <ele>2464.4</ele>
        <time>1970-01-01T08:11:00.000Z</time>
      </trkpt>
      <trkpt lat="42.654559" lon="0.658795">
        <ele>2464.4</ele>
        <time>1970-01-01T08:11:01.000Z</time>
      </trkpt>
      <trkpt lat="42.654559" lon="0.658795">
        <ele>2464.4</ele>
        <time>1970-01-01T08:11:02.000Z</time>
      </trkpt>
      <trkpt lat="42.654559" lon="0.658795">
        <ele>2464.4</ele>
        <time>1970-01-01T08:11:03.000Z</time>
      </trkpt>
      <trkpt lat="42.654559" lon="0.658795">
        <ele>2464.4</ele>
        <time>1970-01-01T08:11:04.000Z</time>
      </trkpt>
      <trkpt lat="42.654559" lon="0.658795">
        <ele>2464.4</ele>
        <time>1970-01-01T08:11:05.000Z</time>
      </trkpt>
      <trkpt lat="42.654559" lon="0.658795">
        <ele>2464.4</ele>
        <time>1970-01-01T08:11:06.000Z</time>
      </trkpt>
      <trkpt lat="42.654559" lon="0.658795">
        <ele>2464.4</ele>
        <time>1970-01-01T08:11:07.000Z</time>
      </trkpt>
      <trkpt lat="42.654559" lon="0.658795">
        <ele>2464.4</ele>
        <time>1970-01-01T08:11:08.000Z</time>
      </trkpt>
      <trkpt lat="42.654559" lon="0.658795">
        <ele>2464.4</ele>
        <time>1970-01-01T08:11:09.000Z</time>
      </trkpt>
      <trkpt lat="42.654559" lon="0.658795">
        <ele>2464.4</ele>
        <time>1970-01-01T08:11:10.000Z</time>
      </trkpt>
      <trkpt lat="42.654559" lon="0.658795">
        <ele>2464.4</ele>
        <time>1970-01-01T08:11:11.000Z</time>
      </trkpt>
      <trkpt lat="42.654559" lon="0.658795">
        <ele>2464.4</ele>
        <time>1970-01-01T08:11:12.000Z</time>
      </trkpt>
      <trkpt lat="42.654559" lon="0.658795">
        <ele>2464.4</ele>
        <time>1970-01-01T08:11:13.000Z</time>
      </trkpt>
      <trkpt lat="42.654559" lon="0.658795">
        <ele>2464.4</ele>
        <time>1970-01-01T08:11:14.000Z</time>
      </trkpt>
      <trkpt lat="42.654559" lon="0.658795">
        <ele>2464.4</ele>
        <time>1970-01-01T08:11:15.000Z</time>
      </trkpt>
      <trkpt lat="42.654559" lon="0.658795">
        <ele>2464.4</ele>
        <time>1970-01-01T08:11:16.000Z</time>
      </trkpt>
      <trkpt lat="42.654559" lon="0.658795">
        <ele>2464.4</ele>
        <time>1970-01-01T08:11:17.000Z</time>
      </trkpt>
      <trkpt lat="42.654559" lon="0.658795">
        <ele>2464.4</ele>
        <time>1970-01-01T08:11:18.000Z</time>
      </trkpt>
      <trkpt lat="42.654559" lon="0.658795">
        <ele>2464.4</ele>
        <time>1970-01-01T08:11:19.000Z</time>
      </trkpt>
      <trkpt lat="42.654559" lon="0.658795">
        <ele>2464.4</ele>
        <time>1970-01-01T08:11:20.000Z</time>
      </trkpt>
      <trkpt lat="42.654559" lon="0.658795">
        <ele>2464.4</ele>
        <time>1970-01-01T08:11:21.000Z</time>
      </trkpt>
      <trkpt lat="42.654559" lon="0.658795">
        <ele>2464.4</ele>
        <time>1970-01-01T08:11:22.000Z</time>
      </trkpt>
      <trkpt lat="42.654559" lon="0.658795">
        <ele>2464.4</ele>
        <time>1970-01-01T08:11:23.000Z</time>
      </trkpt>
      <trkpt lat="42.654559" lon="0.658795">
        <ele>2464.4</ele>
        <time>1970-01-01T08:11:24.000Z</time>
      </trkpt>
      <trkpt lat="42.654559" lon="0.658795">
        <ele>2464.4</ele>
        <time>1970-01-01T08:11:25.000Z</time>
      </trkpt>
      <trkpt lat="42.654559" lon="0.658795">
        <ele>2464.4</ele>
        <time>1970-01-01T08:11:26.000Z</time>
      </trkpt>
      <trkpt lat="42.654559" lon="0.658795">
        <ele>2464.4</ele>
        <time>1970-01-01T08:11:27.000Z</time>
      </trkpt>
      <trkpt lat="42.654559" lon="0.658795">
        <ele>2464.4</ele>
        <time>1970-01-01T08:11:28.000Z</time>
      </trkpt>
      <trkpt lat="42.654559" lon="0.658795">
        <ele>2464.4</ele>
        <time>1970-01-01T08:11:29.000Z</time>
      </trkpt>
      <trkpt lat="42.654559" lon="0.658795">
        <ele>2464.4</ele>
        <time>1970-01-01T08:11:30.000Z</time>
      </trkpt>
      <trkpt lat="42.654559" lon="0.658795">
        <ele>2464.4</ele>
        <time>1970-01-01T08:11:31.000Z</time>
      </trkpt>
      <trkpt lat="42.654559" lon="0.658795">
        <ele>2464.4</ele>
        <time>1970-01-01T08:11:32.000Z</time>
      </trkpt>
      <trkpt lat="42.654559" lon="0.658795">
        <ele>2464.4</ele>
        <time>1970-01-01T08:11:33.000Z</time>
      </trkpt>
      <trkpt lat="42.654559" lon="0.658795">
        <ele>2464.4</ele>
        <time>1970-01-01T08:11:34.000Z</time>
      </trkpt>
      <trkpt lat="42.654559" lon="0.658795">
        <ele>2464.4</ele>
        <time>1970-01-01T08:11:35.000Z</time>
      </trkpt>
      <trkpt lat="42.654559" lon="0.658795">
        <ele>2464.4</ele>
        <time>1970-01-01T08:11:36.000Z</time>
      </trkpt>
      <trkpt lat="42.654559" lon="0.658795">
        <ele>2464.4</ele>
        <time>1970-01-01T08:11:37.000Z</time>
      </trkpt>
      <trkpt lat="42.654559" lon="0.658795">
        <ele>2464.4</ele>
        <time>1970-01-01T08:11:38.000Z</time>
      </trkpt>
      <trkpt lat="42.654559" lon="0.658795">
        <ele>2464.4</ele>
        <time>1970-01-01T08:11:39.000Z</time>
      </trkpt>
      <trkpt lat="42.654559" lon="0.658795">
        <ele>2464.4</ele>
        <time>1970-01-01T08:11:40.000Z</time>
      </trkpt>
      <trkpt lat="42.654559" lon="0.658794">
        <ele>2464.4</ele>
        <time>1970-01-01T08:11:41.000Z</time>
      </trkpt>
      <trkpt lat="42.654559" lon="0.658794">
        <ele>2464.4</ele>
        <time>1970-01-01T08:11:42.000Z</time>
      </trkpt>
      <trkpt lat="42.654558" lon="0.658794">
        <ele>2464.4</ele>
        <time>1970-01-01T08:11:43.000Z</time>
      </trkpt>
      <trkpt lat="42.654558" lon="0.658794">
        <ele>2464.4</ele>
        <time>1970-01-01T08:11:44.000Z</time>
      </trkpt>
      <trkpt lat="42.654558" lon="0.658794">
        <ele>2464.3</ele>
        <time>1970-01-01T08:11:45.000Z</time>
      </trkpt>
      <trkpt lat="42.654558" lon="0.658794">
        <ele>2464.1</ele>
        <time>1970-01-01T08:11:46.000Z</time>
      </trkpt>
      <trkpt lat="42.654558" lon="0.658794">
        <ele>2464</ele>
        <time>1970-01-01T08:11:47.000Z</time>
      </trkpt>
      <trkpt lat="42.654558" lon="0.658794">
        <ele>2463.9</ele>
        <time>1970-01-01T08:11:48.000Z</time>
      </trkpt>
      <trkpt lat="42.654558" lon="0.658794">
        <ele>2463.8</ele>
        <time>1970-01-01T08:11:49.000Z</time>
      </trkpt>
      <trkpt lat="42.654558" lon="0.658794">
        <ele>2463.6</ele>
        <time>1970-01-01T08:11:50.000Z</time>
      </trkpt>
      <trkpt lat="42.654558" lon="0.658794">
        <ele>2463.5</ele>
        <time>1970-01-01T08:11:51.000Z</time>
      </trkpt>
      <trkpt lat="42.654558" lon="0.658794">
        <ele>2463.4</ele>
        <time>1970-01-01T08:11:52.000Z</time>
      </trkpt>
      <trkpt lat="42.654558" lon="0.658794">
        <ele>2463.3</ele>
        <time>1970-01-01T08:11:53.000Z</time>
      </trkpt>
      <trkpt lat="42.654558" lon="0.658794">
        <ele>2463.1</ele>
        <time>1970-01-01T08:11:54.000Z</time>
      </trkpt>
      <trkpt lat="42.654558" lon="0.658794">
        <ele>2463</ele>
        <time>1970-01-01T08:11:55.000Z</time>
      </trkpt>
      <trkpt lat="42.654558" lon="0.658794">
        <ele>2462.9</ele>
        <time>1970-01-01T08:11:56.000Z</time>
      </trkpt>
      <trkpt lat="42.654558" lon="0.658794">
        <ele>2462.7</ele>
        <time>1970-01-01T08:11:57.000Z</time>
      </trkpt>
      <trkpt lat="42.654558" lon="0.658794">
        <ele>2462.6</ele>
        <time>1970-01-01T08:11:58.000Z</time>
      </trkpt>
      <trkpt lat="42.654558" lon="0.658794">
        <ele>2462.5</ele>
        <time>1970-01-01T08:11:59.000Z</time>
      </trkpt>
      <trkpt lat="42.654558" lon="0.658794">
        <ele>2462.4</ele>
        <time>1970-01-01T08:12:00.000Z</time>
      </trkpt>
      <trkpt lat="42.654558" lon="0.658794">
        <ele>2462.2</ele>
        <time>1970-01-01T08:12:01.000Z</time>
      </trkpt>
      <trkpt lat="42.654558" lon="0.658794">
        <ele>2462.1</ele>
        <time>1970-01-01T08:12:02.000Z</time>
      </trkpt>
      <trkpt lat="42.654558" lon="0.658794">
        <ele>2462</ele>
        <time>1970-01-01T08:12:03.000Z</time>
      </trkpt>
      <trkpt lat="42.654558" lon="0.658794">
        <ele>2461.9</ele>
        <time>1970-01-01T08:12:04.000Z</time>
      </trkpt>
      <trkpt lat="42.654558" lon="0.658794">
        <ele>2461.7</ele>
        <time>1970-01-01T08:12:05.000Z</time>
      </trkpt>
      <trkpt lat="42.654558" lon="0.658794">
        <ele>2461.6</ele>
        <time>1970-01-01T08:12:06.000Z</time>
      </trkpt>
      <trkpt lat="42.654558" lon="0.658794">
        <ele>2461.5</ele>
        <time>1970-01-01T08:12:07.000Z</time>
      </trkpt>
      <trkpt lat="42.654558" lon="0.658794">
        <ele>2461.4</ele>
        <time>1970-01-01T08:12:08.000Z</time>
      </trkpt>
      <trkpt lat="42.654558" lon="0.658794">
        <ele>2461.2</ele>
        <time>1970-01-01T08:12:09.000Z</time>
      </trkpt>
      <trkpt lat="42.654558" lon="0.658794">
        <ele>2461.1</ele>
        <time>1970-01-01T08:12:10.000Z</time>
      </trkpt>
      <trkpt lat="42.654558" lon="0.658794">
        <ele>2461</ele>
        <time>1970-01-01T08:12:11.000Z</time>
      </trkpt>
      <trkpt lat="42.654558" lon="0.658794">
        <ele>2460.8</ele>
        <time>1970-01-01T08:12:12.000Z</time>
      </trkpt>
      <trkpt lat="42.654558" lon="0.658794">
        <ele>2460.7</ele>
        <time>1970-01-01T08:12:13.000Z</time>
      </trkpt>
      <trkpt lat="42.654558" lon="0.658794">
        <ele>2460.6</ele>
        <time>1970-01-01T08:12:14.000Z</time>
      </trkpt>
      <trkpt lat="42.654558" lon="0.658794">
        <ele>2460.5</ele>
        <time>1970-01-01T08:12:15.000Z</time>
      </trkpt>
      <trkpt lat="42.654558" lon="0.658794">
        <ele>2460.3</ele>
        <time>1970-01-01T08:12:16.000Z</time>
      </trkpt>
      <trkpt lat="42.654558" lon="0.658794">
        <ele>2460.2</ele>
        <time>1970-01-01T08:12:17.000Z</time>
      </trkpt>
      <trkpt lat="42.654558" lon="0.658794">
        <ele>2460.1</ele>
        <time>1970-01-01T08:12:18.000Z</time>
      </trkpt>
      <trkpt lat="42.654558" lon="0.658794">
        <ele>2460</ele>
        <time>1970-01-01T08:12:19.000Z</time>
      </trkpt>
      <trkpt lat="42.654558" lon="0.658794">
        <ele>2459.8</ele>
        <time>1970-01-01T08:12:20.000Z</time>
      </trkpt>
      <trkpt lat="42.654558" lon="0.658794">
        <ele>2459.7</ele>
        <time>1970-01-01T08:12:21.000Z</time>
      </trkpt>
      <trkpt lat="42.654558" lon="0.658794">
        <ele>2459.6</ele>
        <time>1970-01-01T08:12:22.000Z</time>
      </trkpt>
      <trkpt lat="42.654558" lon="0.658794">
        <ele>2459.4</ele>
        <time>1970-01-01T08:12:23.000Z</time>
      </trkpt>
      <trkpt lat="42.654558" lon="0.658794">
        <ele>2459.3</ele>
        <time>1970-01-01T08:12:24.000Z</time>
      </trkpt>
      <trkpt lat="42.654558" lon="0.658794">
        <ele>2459.2</ele>
        <time>1970-01-01T08:12:25.000Z</time>
      </trkpt>
      <trkpt lat="42.654558" lon="0.658794">
        <ele>2459.1</ele>
        <time>1970-01-01T08:12:26.000Z</time>
      </trkpt>
      <trkpt lat="42.654558" lon="0.658794">
        <ele>2458.9</ele>
        <time>1970-01-01T08:12:27.000Z</time>
      </trkpt>
      <trkpt lat="42.654558" lon="0.658794">
        <ele>2458.8</ele>
        <time>1970-01-01T08:12:28.000Z</time>
      </trkpt>
      <trkpt lat="42.654558" lon="0.658794">
        <ele>2458.7</ele>
        <time>1970-01-01T08:12:29.000Z</time>
      </trkpt>
      <trkpt lat="42.654558" lon="0.658794">
        <ele>2458.6</ele>
        <time>1970-01-01T08:12:30.000Z</time>
      </trkpt>
      <trkpt lat="42.654558" lon="0.658794">
        <ele>2458.4</ele>
        <time>1970-01-01T08:12:31.000Z</time>
      </trkpt>
      <trkpt lat="42.654558" lon="0.658794">
        <ele>2458.3</ele>
        <time>1970-01-01T08:12:32.000Z</time>
      </trkpt>
      <trkpt lat="42.654558" lon="0.658794">
        <ele>2458.2</ele>
        <time>1970-01-01T08:12:33.000Z</time>
      </trkpt>
      <trkpt lat="42.654558" lon="0.658794">
        <ele>2458.1</ele>
        <time>1970-01-01T08:12:34.000Z</time>
      </trkpt>
      <trkpt lat="42.654558" lon="0.658794">
        <ele>2457.9</ele>
        <time>1970-01-01T08:12:35.000Z</time>
      </trkpt>
      <trkpt lat="42.654558" lon="0.658794">
        <ele>2457.8</ele>
        <time>1970-01-01T08:12:36.000Z</time>
      </trkpt>
      <trkpt lat="42.654558" lon="0.658794">
        <ele>2457.7</ele>
        <time>1970-01-01T08:12:37.000Z</time>
      </trkpt>
      <trkpt lat="42.654558" lon="0.658794">
        <ele>2457.5</ele>
        <time>1970-01-01T08:12:38.000Z</time>
      </trkpt>
      <trkpt lat="42.654558" lon="0.658794">
        <ele>2457.4</ele>
        <time>1970-01-01T08:12:39.000Z</time>
      </trkpt>
      <trkpt lat="42.654558" lon="0.658794">
        <ele>2457.3</ele>
        <time>1970-01-01T08:12:40.000Z</time>
      </trkpt>
      <trkpt lat="42.654558" lon="0.658794">
        <ele>2457.2</ele>
        <time>1970-01-01T08:12:41.000Z</time>
      </trkpt>
      <trkpt lat="42.654558" lon="0.658794">
        <ele>2457</ele>
        <time>1970-01-01T08:12:42.000Z</time>
      </trkpt>
      <trkpt lat="42.654558" lon="0.658794">
        <ele>2456.9</ele>
        <time>1970-01-01T08:12:43.000Z</time>
      </trkpt>
      <trkpt lat="42.654558" lon="0.658794">
        <ele>2456.8</ele>
        <time>1970-01-01T08:12:44.000Z</time>
      </trkpt>
      <trkpt lat="42.654558" lon="0.658794">
        <ele>2456.7</ele>
        <time>1970-01-01T08:12:45.000Z</time>
      </trkpt>
      <trkpt lat="42.654558" lon="0.658794">
        <ele>2456.5</ele>
        <time>1970-01-01T08:12:46.000Z</time>
      </trkpt>
      <trkpt lat="42.654558" lon="0.658794">
        <ele>2456.4</ele>
        <time>1970-01-01T08:12:47.000Z</time>
      </trkpt>
      <trkpt lat="42.654558" lon="0.658794">
        <ele>2456.3</ele>
        <time>1970-01-01T08:12:48.000Z</time>
      </trkpt>
      <trkpt lat="42.654558" lon="0.658794">
        <ele>2456.1</ele>
        <time>1970-01-01T08:12:49.000Z</time>
      </trkpt>
      <trkpt lat="42.654558" lon="0.658794">
        <ele>2456</ele>
        <time>1970-01-01T08:12:50.000Z</time>
      </trkpt>
      <trkpt lat="42.654558" lon="0.658794">
        <ele>2455.9</ele>
        <time>1970-01-01T08:12:51.000Z</time>
      </trkpt>
      <trkpt lat="42.654558" lon="0.658794">
        <ele>2455.8</ele>
        <time>1970-01-01T08:12:52.000Z</time>
      </trkpt>
      <trkpt lat="42.654558" lon="0.658794">
        <ele>2455.6</ele>
        <time>1970-01-01T08:12:53.000Z</time>
      </trkpt>
      <trkpt lat="42.654558" lon="0.658794">
        <ele>2455.5</ele>
        <time>1970-01-01T08:12:54.000Z</time>
      </trkpt>
      <trkpt lat="42.654558" lon="0.658794">
        <ele>2455.4</ele>
        <time>1970-01-01T08:12:55.000Z</time>
      </trkpt>
      <trkpt lat="42.654558" lon="0.658794">
        <ele>2455.3</ele>
        <time>1970-01-01T08:12:56.000Z</time>
      </trkpt>
      <trkpt lat="42.654558" lon="0.658794">
        <ele>2455.1</ele>
        <time>1970-01-01T08:12:57.000Z</time>
      </trkpt>
      <trkpt lat="42.654558" lon="0.658794">
        <ele>2455</ele>
        <time>1970-01-01T08:12:58.000Z</time>
      </trkpt>
      <trkpt lat="42.654558" lon="0.658794">
        <ele>2454.9</ele>
        <time>1970-01-01T08:12:59.000Z</time>
      </trkpt>
      <trkpt lat="42.654558" lon="0.658794">
        <ele>2454.7</ele>
        <time>1970-01-01T08:13:00.000Z</time>
      </trkpt>
      <trkpt lat="42.654558" lon="0.658794">
        <ele>2454.6</ele>
        <time>1970-01-01T08:13:01.000Z</time>
      </trkpt>
      <trkpt lat="42.654558" lon="0.658794">
        <ele>2454.5</ele>
        <time>1970-01-01T08:13:02.000Z</time>
      </trkpt>
      <trkpt lat="42.654558" lon="0.658794">
        <ele>2454.4</ele>
        <time>1970-01-01T08:13:03.000Z</time>
      </trkpt>
      <trkpt lat="42.654558" lon="0.658794">
        <ele>2454.2</ele>
        <time>1970-01-01T08:13:04.000Z</time>
      </trkpt>
      <trkpt lat="42.654558" lon="0.658794">
        <ele>2454.1</ele>
        <time>1970-01-01T08:13:05.000Z</time>
      </trkpt>
      <trkpt lat="42.654558" lon="0.658794">
        <ele>2454</ele>
        <time>1970-01-01T08:13:06.000Z</time>
      </trkpt>
      <trkpt lat="42.654558" lon="0.658794">
        <ele>2453.9</ele>
        <time>1970-01-01T08:13:07.000Z</time>
      </trkpt>
      <trkpt lat="42.654558" lon="0.658794">
        <ele>2453.7</ele>
        <time>1970-01-01T08:13:08.000Z</time>
      </trkpt>
      <trkpt lat="42.654558" lon="0.658794">
        <ele>2453.6</ele>
        <time>1970-01-01T08:13:09.000Z</time>
      </trkpt>
      <trkpt lat="42.654558" lon="0.658794">
        <ele>2453.5</ele>
        <time>1970-01-01T08:13:10.000Z</time>
      </trkpt>
      <trkpt lat="42.654558" lon="0.658794">
        <ele>2453.4</ele>
        <time>1970-01-01T08:13:11.000Z</time>
      </trkpt>
      <trkpt lat="42.654558" lon="0.658794">
        <ele>2453.2</ele>
        <time>1970-01-01T08:13:12.000Z</time>
      </trkpt>
      <trkpt lat="42.654558" lon="0.658794">
        <ele>2453.1</ele>
        <time>1970-01-01T08:13:13.000Z</time>
      </trkpt>
      <trkpt lat="42.654558" lon="0.658792">
        <ele>2453</ele>
        <time>1970-01-01T08:13:14.000Z</time>
      </trkpt>
      <trkpt lat="42.654558" lon="0.658791">
        <ele>2452.8</ele>
        <time>1970-01-01T08:13:15.000Z</time>
      </trkpt>
      <trkpt lat="42.654558" lon="0.658791">
        <ele>2452.7</ele>
        <time>1970-01-01T08:13:16.000Z</time>
      </trkpt>
      <trkpt lat="42.654558" lon="0.658791">
        <ele>2452.6</ele>
        <time>1970-01-01T08:13:17.000Z</time>
      </trkpt>
      <trkpt lat="42.654558" lon="0.658792">
        <ele>2452.5</ele>
        <time>1970-01-01T08:13:18.000Z</time>
      </trkpt>
      <trkpt lat="42.654558" lon="0.658792">
        <ele>2452.3</ele>
        <time>1970-01-01T08:13:19.000Z</time>
      </trkpt>
      <trkpt lat="42.654558" lon="0.658792">
        <ele>2452.2</ele>
        <time>1970-01-01T08:13:20.000Z</time>
      </trkpt>
      <trkpt lat="42.654558" lon="0.658792">
        <ele>2452.1</ele>
        <time>1970-01-01T08:13:21.000Z</time>
      </trkpt>
      <trkpt lat="42.654558" lon="0.658792">
        <ele>2452</ele>
        <time>1970-01-01T08:13:22.000Z</time>
      </trkpt>
      <trkpt lat="42.654558" lon="0.658792">
        <ele>2451.8</ele>
        <time>1970-01-01T08:13:23.000Z</time>
      </trkpt>
      <trkpt lat="42.654558" lon="0.658792">
        <ele>2451.7</ele>
        <time>1970-01-01T08:13:24.000Z</time>
      </trkpt>
      <trkpt lat="42.654558" lon="0.658792">
        <ele>2451.7</ele>
        <time>1970-01-01T08:13:25.000Z</time>
      </trkpt>
      <trkpt lat="42.654558" lon="0.658792">
        <ele>2451.7</ele>
        <time>1970-01-01T08:13:26.000Z</time>
      </trkpt>
      <trkpt lat="42.654558" lon="0.658792">
        <ele>2451.7</ele>
        <time>1970-01-01T08:13:27.000Z</time>
      </trkpt>
      <trkpt lat="42.654558" lon="0.658792">
        <ele>2451.7</ele>
        <time>1970-01-01T08:13:28.000Z</time>
      </trkpt>
      <trkpt lat="42.654558" lon="0.658792">
        <ele>2451.7</ele>
        <time>1970-01-01T08:13:29.000Z</time>
      </trkpt>
      <trkpt lat="42.654558" lon="0.658792">
        <ele>2451.7</ele>
        <time>1970-01-01T08:13:30.000Z</time>
      </trkpt>
      <trkpt lat="42.654558" lon="0.658792">
        <ele>2451.7</ele>
        <time>1970-01-01T08:13:31.000Z</time>
      </trkpt>
      <trkpt lat="42.654558" lon="0.658792">
        <ele>2451.7</ele>
        <time>1970-01-01T08:13:32.000Z</time>
      </trkpt>
      <trkpt lat="42.654558" lon="0.658792">
        <ele>2451.7</ele>
        <time>1970-01-01T08:13:33.000Z</time>
      </trkpt>
      <trkpt lat="42.654558" lon="0.658792">
        <ele>2451.7</ele>
        <time>1970-01-01T08:13:34.000Z</time>
      </trkpt>
      <trkpt lat="42.654558" lon="0.658792">
        <ele>2451.7</ele>
        <time>1970-01-01T08:13:35.000Z</time>
      </trkpt>
      <trkpt lat="42.654558" lon="0.658792">
        <ele>2451.7</ele>
        <time>1970-01-01T08:13:36.000Z</time>
      </trkpt>
      <trkpt lat="42.654558" lon="0.658792">
        <ele>2451.7</ele>
        <time>1970-01-01T08:13:37.000Z</time>
      </trkpt>
      <trkpt lat="42.654558" lon="0.658792">
        <ele>2451.7</ele>
        <time>1970-01-01T08:13:38.000Z</time>
      </trkpt>
      <trkpt lat="42.654558" lon="0.658792">
        <ele>2451.7</ele>
        <time>1970-01-01T08:13:39.000Z</time>
      </trkpt>
      <trkpt lat="42.654558" lon="0.658792">
        <ele>2451.7</ele>
        <time>1970-01-01T08:13:40.000Z</time>
      </trkpt>
      <trkpt lat="42.654558" lon="0.658792">
        <ele>2451.7</ele>
        <time>1970-01-01T08:13:41.000Z</time>
      </trkpt>
      <trkpt lat="42.654558" lon="0.658792">
        <ele>2451.7</ele>
        <time>1970-01-01T08:13:42.000Z</time>
      </trkpt>
      <trkpt lat="42.654558" lon="0.658792">
        <ele>2451.7</ele>
        <time>1970-01-01T08:13:43.000Z</time>
      </trkpt>
      <trkpt lat="42.654558" lon="0.658792">
        <ele>2451.7</ele>
        <time>1970-01-01T08:13:44.000Z</time>
      </trkpt>
      <trkpt lat="42.654558" lon="0.658792">
        <ele>2451.7</ele>
        <time>1970-01-01T08:13:45.000Z</time>
      </trkpt>
      <trkpt lat="42.654558" lon="0.658792">
        <ele>2451.7</ele>
        <time>1970-01-01T08:13:46.000Z</time>
      </trkpt>
      <trkpt lat="42.654558" lon="0.658792">
        <ele>2451.7</ele>
        <time>1970-01-01T08:13:47.000Z</time>
      </trkpt>
      <trkpt lat="42.654558" lon="0.658792">
        <ele>2451.7</ele>
        <time>1970-01-01T08:13:48.000Z</time>
      </trkpt>
      <trkpt lat="42.654558" lon="0.658792">
        <ele>2451.7</ele>
        <time>1970-01-01T08:13:49.000Z</time>
      </trkpt>
      <trkpt lat="42.654558" lon="0.658792">
        <ele>2451.7</ele>
        <time>1970-01-01T08:13:50.000Z</time>
      </trkpt>
      <trkpt lat="42.654558" lon="0.658792">
        <ele>2451.7</ele>
        <time>1970-01-01T08:13:51.000Z</time>
      </trkpt>
      <trkpt lat="42.654558" lon="0.658792">
        <ele>2451.7</ele>
        <time>1970-01-01T08:13:52.000Z</time>
      </trkpt>
      <trkpt lat="42.654558" lon="0.658792">
        <ele>2451.7</ele>
        <time>1970-01-01T08:13:53.000Z</time>
      </trkpt>
      <trkpt lat="42.654558" lon="0.658791">
        <ele>2451.7</ele>
        <time>1970-01-01T08:13:54.000Z</time>
      </trkpt>
      <trkpt lat="42.654557" lon="0.658791">
        <ele>2451.7</ele>
        <time>1970-01-01T08:13:55.000Z</time>
      </trkpt>
      <trkpt lat="42.654557" lon="0.658791">
        <ele>2451.7</ele>
        <time>1970-01-01T08:13:56.000Z</time>
      </trkpt>
      <trkpt lat="42.654556" lon="0.658791">
        <ele>2451.7</ele>
        <time>1970-01-01T08:13:57.000Z</time>
      </trkpt>
      <trkpt lat="42.654557" lon="0.658791">
        <ele>2451.7</ele>
        <time>1970-01-01T08:13:58.000Z</time>
      </trkpt>
      <trkpt lat="42.654557" lon="0.658791">
        <ele>2451.7</ele>
        <time>1970-01-01T08:13:59.000Z</time>
      </trkpt>
      <trkpt lat="42.654557" lon="0.658791">
        <ele>2451.7</ele>
        <time>1970-01-01T08:14:00.000Z</time>
      </trkpt>
      <trkpt lat="42.654557" lon="0.658791">
        <ele>2451.7</ele>
        <time>1970-01-01T08:14:01.000Z</time>
      </trkpt>
      <trkpt lat="42.654557" lon="0.658791">
        <ele>2451.7</ele>
        <time>1970-01-01T08:14:02.000Z</time>
      </trkpt>
      <trkpt lat="42.654557" lon="0.658791">
        <ele>2451.7</ele>
        <time>1970-01-01T08:14:03.000Z</time>
      </trkpt>
      <trkpt lat="42.654557" lon="0.658791">
        <ele>2451.7</ele>
        <time>1970-01-01T08:14:04.000Z</time>
      </trkpt>
      <trkpt lat="42.654557" lon="0.658791">
        <ele>2451.7</ele>
        <time>1970-01-01T08:14:05.000Z</time>
      </trkpt>
      <trkpt lat="42.654557" lon="0.658791">
        <ele>2451.7</ele>
        <time>1970-01-01T08:14:06.000Z</time>
      </trkpt>
      <trkpt lat="42.654557" lon="0.658791">
        <ele>2451.7</ele>
        <time>1970-01-01T08:14:07.000Z</time>
      </trkpt>
      <trkpt lat="42.654556" lon="0.658791">
        <ele>2451.7</ele>
        <time>1970-01-01T08:14:08.000Z</time>
      </trkpt>
      <trkpt lat="42.654556" lon="0.658791">
        <ele>2451.7</ele>
        <time>1970-01-01T08:14:09.000Z</time>
      </trkpt>
      <trkpt lat="42.654556" lon="0.658791">
        <ele>2451.7</ele>
        <time>1970-01-01T08:14:10.000Z</time>
      </trkpt>
      <trkpt lat="42.654556" lon="0.658791">
        <ele>2451.7</ele>
        <time>1970-01-01T08:14:11.000Z</time>
      </trkpt>
      <trkpt lat="42.654556" lon="0.658791">
        <ele>2451.7</ele>
        <time>1970-01-01T08:14:12.000Z</time>
      </trkpt>
      <trkpt lat="42.654556" lon="0.658791">
        <ele>2451.7</ele>
        <time>1970-01-01T08:14:13.000Z</time>
      </trkpt>
      <trkpt lat="42.654556" lon="0.658791">
        <ele>2451.7</ele>
        <time>1970-01-01T08:14:14.000Z</time>
      </trkpt>
      <trkpt lat="42.654556" lon="0.658791">
        <ele>2451.7</ele>
        <time>1970-01-01T08:14:15.000Z</time>
      </trkpt>
      <trkpt lat="42.654556" lon="0.658791">
        <ele>2451.7</ele>
        <time>1970-01-01T08:14:16.000Z</time>
      </trkpt>
      <trkpt lat="42.654556" lon="0.658791">
        <ele>2451.7</ele>
        <time>1970-01-01T08:14:17.000Z</time>
      </trkpt>
      <trkpt lat="42.654556" lon="0.658791">
        <ele>2451.7</ele>
        <time>1970-01-01T08:14:18.000Z</time>
      </trkpt>
      <trkpt lat="42.654556" lon="0.658791">
        <ele>2451.7</ele>
        <time>1970-01-01T08:14:19.000Z</time>
      </trkpt>
      <trkpt lat="42.654556" lon="0.658791">
        <ele>2451.7</ele>
        <time>1970-01-01T08:14:20.000Z</time>
      </trkpt>
      <trkpt lat="42.654556" lon="0.658791">
        <ele>2451.7</ele>
        <time>1970-01-01T08:14:21.000Z</time>
      </trkpt>
      <trkpt lat="42.654556" lon="0.658791">
        <ele>2451.7</ele>
        <time>1970-01-01T08:14:22.000Z</time>
      </trkpt>
      <trkpt lat="42.654556" lon="0.658791">
        <ele>2451.7</ele>
        <time>1970-01-01T08:14:23.000Z</time>
      </trkpt>
      <trkpt lat="42.654556" lon="0.658791">
        <ele>2451.7</ele>
        <time>1970-01-01T08:14:24.000Z</time>
      </trkpt>
      <trkpt lat="42.654556" lon="0.658791">
        <ele>2451.7</ele>
        <time>1970-01-01T08:14:25.000Z</time>
      </trkpt>
      <trkpt lat="42.654556" lon="0.658791">
        <ele>2451.7</ele>
        <time>1970-01-01T08:14:26.000Z</time>
      </trkpt>
      <trkpt lat="42.654556" lon="0.658791">
        <ele>2451.7</ele>
        <time>1970-01-01T08:14:27.000Z</time>
      </trkpt>
      <trkpt lat="42.654556" lon="0.658791">
        <ele>2451.7</ele>
        <time>1970-01-01T08:14:28.000Z</time>
      </trkpt>
      <trkpt lat="42.654556" lon="0.658791">
        <ele>2451.7</ele>
        <time>1970-01-01T08:14:29.000Z</time>
      </trkpt>
      <trkpt lat="42.654556" lon="0.658791">
        <ele>2451.7</ele>
        <time>1970-01-01T08:14:30.000Z</time>
      </trkpt>
      <trkpt lat="42.654556" lon="0.658791">
        <ele>2451.7</ele>
        <time>1970-01-01T08:14:31.000Z</time>
      </trkpt>
      <trkpt lat="42.654556" lon="0.658791">
        <ele>2451.7</ele>
        <time>1970-01-01T08:14:32.000Z</time>
      </trkpt>
      <trkpt lat="42.654556" lon="0.658791">
        <ele>2451.7</ele>
        <time>1970-01-01T08:14:33.000Z</time>
      </trkpt>
      <trkpt lat="42.654556" lon="0.658791">
        <ele>2451.7</ele>
        <time>1970-01-01T08:14:34.000Z</time>
      </trkpt>
      <trkpt lat="42.654556" lon="0.658791">
        <ele>2451.7</ele>
        <time>1970-01-01T08:14:35.000Z</time>
      </trkpt>
      <trkpt lat="42.654556" lon="0.658791">
        <ele>2451.7</ele>
        <time>1970-01-01T08:14:36.000Z</time>
      </trkpt>
      <trkpt lat="42.654556" lon="0.658791">
        <ele>2451.7</ele>
        <time>1970-01-01T08:14:37.000Z</time>
      </trkpt>
      <trkpt lat="42.654556" lon="0.658791">
        <ele>2451.7</ele>
        <time>1970-01-01T08:14:38.000Z</time>
      </trkpt>
      <trkpt lat="42.654556" lon="0.658791">
        <ele>2451.7</ele>
        <time>1970-01-01T08:14:39.000Z</time>
      </trkpt>
      <trkpt lat="42.654556" lon="0.658791">
        <ele>2451.7</ele>
        <time>1970-01-01T08:14:40.000Z</time>
      </trkpt>
      <trkpt lat="42.654556" lon="0.658791">
        <ele>2451.7</ele>
        <time>1970-01-01T08:14:41.000Z</time>
      </trkpt>
      <trkpt lat="42.654556" lon="0.658791">
        <ele>2451.7</ele>
        <time>1970-01-01T08:14:42.000Z</time>
      </trkpt>
      <trkpt lat="42.654556" lon="0.658791">
        <ele>2451.7</ele>
        <time>1970-01-01T08:14:43.000Z</time>
      </trkpt>
      <trkpt lat="42.654556" lon="0.658791">
        <ele>2451.7</ele>
        <time>1970-01-01T08:14:44.000Z</time>
      </trkpt>
      <trkpt lat="42.654556" lon="0.658791">
        <ele>2451.7</ele>
        <time>1970-01-01T08:14:45.000Z</time>
      </trkpt>
      <trkpt lat="42.654556" lon="0.658791">
        <ele>2451.7</ele>
        <time>1970-01-01T08:14:46.000Z</time>
      </trkpt>
      <trkpt lat="42.654556" lon="0.658791">
        <ele>2451.7</ele>
        <time>1970-01-01T08:14:47.000Z</time>
      </trkpt>
      <trkpt lat="42.654556" lon="0.658791">
        <ele>2451.7</ele>
        <time>1970-01-01T08:14:48.000Z</time>
      </trkpt>
      <trkpt lat="42.654556" lon="0.658791">
        <ele>2451.7</ele>
        <time>1970-01-01T08:14:49.000Z</time>
      </trkpt>
      <trkpt lat="42.654556" lon="0.658791">
        <ele>2451.7</ele>
        <time>1970-01-01T08:14:50.000Z</time>
      </trkpt>
      <trkpt lat="42.654556" lon="0.658791">
        <ele>2451.7</ele>
        <time>1970-01-01T08:14:51.000Z</time>
      </trkpt>
      <trkpt lat="42.654556" lon="0.658791">
        <ele>2451.7</ele>
        <time>1970-01-01T08:14:52.000Z</time>
      </trkpt>
      <trkpt lat="42.654556" lon="0.658791">
        <ele>2451.7</ele>
        <time>1970-01-01T08:14:53.000Z</time>
      </trkpt>
      <trkpt lat="42.654556" lon="0.658791">
        <ele>2451.7</ele>
        <time>1970-01-01T08:14:54.000Z</time>
      </trkpt>
      <trkpt lat="42.654556" lon="0.658791">
        <ele>2451.7</ele>
        <time>1970-01-01T08:14:55.000Z</time>
      </trkpt>
      <trkpt lat="42.654556" lon="0.658791">
        <ele>2451.7</ele>
        <time>1970-01-01T08:14:56.000Z</time>
      </trkpt>
      <trkpt lat="42.654556" lon="0.658791">
        <ele>2451.7</ele>
        <time>1970-01-01T08:14:57.000Z</time>
      </trkpt>
      <trkpt lat="42.654556" lon="0.658791">
        <ele>2451.7</ele>
        <time>1970-01-01T08:14:58.000Z</time>
      </trkpt>
      <trkpt lat="42.654556" lon="0.658791">
        <ele>2451.7</ele>
        <time>1970-01-01T08:14:59.000Z</time>
      </trkpt>
      <trkpt lat="42.654556" lon="0.658791">
        <ele>2451.7</ele>
        <time>1970-01-01T08:15:00.000Z</time>
      </trkpt>
      <trkpt lat="42.654556" lon="0.658791">
        <ele>2451.7</ele>
        <time>1970-01-01T08:15:01.000Z</time>
      </trkpt>
      <trkpt lat="42.654556" lon="0.658791">
        <ele>2451.7</ele>
        <time>1970-01-01T08:15:02.000Z</time>
      </trkpt>
      <trkpt lat="42.654556" lon="0.658791">
        <ele>2451.7</ele>
        <time>1970-01-01T08:15:03.000Z</time>
      </trkpt>
      <trkpt lat="42.654556" lon="0.658791">
        <ele>2451.7</ele>
        <time>1970-01-01T08:15:04.000Z</time>
      </trkpt>
      <trkpt lat="42.654556" lon="0.658791">
        <ele>2451.7</ele>
        <time>1970-01-01T08:15:05.000Z</time>
      </trkpt>
      <trkpt lat="42.654556" lon="0.658791">
        <ele>2451.7</ele>
        <time>1970-01-01T08:15:06.000Z</time>
      </trkpt>
      <trkpt lat="42.654556" lon="0.658791">
        <ele>2451.7</ele>
        <time>1970-01-01T08:15:07.000Z</time>
      </trkpt>
      <trkpt lat="42.654556" lon="0.658791">
        <ele>2451.7</ele>
        <time>1970-01-01T08:15:08.000Z</time>
      </trkpt>
      <trkpt lat="42.654556" lon="0.658791">
        <ele>2451.7</ele>
        <time>1970-01-01T08:15:09.000Z</time>
      </trkpt>
      <trkpt lat="42.654556" lon="0.658791">
        <ele>2451.7</ele>
        <time>1970-01-01T08:15:10.000Z</time>
      </trkpt>
      <trkpt lat="42.654556" lon="0.658791">
        <ele>2451.7</ele>
        <time>1970-01-01T08:15:11.000Z</time>
      </trkpt>
      <trkpt lat="42.654556" lon="0.658791">
        <ele>2451.7</ele>
        <time>1970-01-01T08:15:12.000Z</time>
      </trkpt>
      <trkpt lat="42.654556" lon="0.658791">
        <ele>2451.7</ele>
        <time>1970-01-01T08:15:13.000Z</time>
      </trkpt>
      <trkpt lat="42.654556" lon="0.658791">
        <ele>2451.7</ele>
        <time>1970-01-01T08:15:14.000Z</time>
      </trkpt>
      <trkpt lat="42.654556" lon="0.658791">
        <ele>2451.7</ele>
        <time>1970-01-01T08:15:15.000Z</time>
      </trkpt>
      <trkpt lat="42.654556" lon="0.658791">
        <ele>2451.7</ele>
        <time>1970-01-01T08:15:16.000Z</time>
      </trkpt>
      <trkpt lat="42.654556" lon="0.658791">
        <ele>2451.7</ele>
        <time>1970-01-01T08:15:17.000Z</time>
      </trkpt>
      <trkpt lat="42.654556" lon="0.658791">
        <ele>2451.7</ele>
        <time>1970-01-01T08:15:18.000Z</time>
      </trkpt>
      <trkpt lat="42.654556" lon="0.658791">
        <ele>2451.7</ele>
        <time>1970-01-01T08:15:19.000Z</time>
      </trkpt>
      <trkpt lat="42.654556" lon="0.658791">
        <ele>2451.7</ele>
        <time>1970-01-01T08:15:20.000Z</time>
      </trkpt>
      <trkpt lat="42.654556" lon="0.658791">
        <ele>2451.7</ele>
        <time>1970-01-01T08:15:21.000Z</time>
      </trkpt>
      <trkpt lat="42.654556" lon="0.658791">
        <ele>2451.7</ele>
        <time>1970-01-01T08:15:22.000Z</time>
      </trkpt>
      <trkpt lat="42.654556" lon="0.658791">
        <ele>2451.7</ele>
        <time>1970-01-01T08:15:23.000Z</time>
      </trkpt>
      <trkpt lat="42.654556" lon="0.658791">
        <ele>2451.7</ele>
        <time>1970-01-01T08:15:24.000Z</time>
      </trkpt>
      <trkpt lat="42.654556" lon="0.658791">
        <ele>2451.7</ele>
        <time>1970-01-01T08:15:25.000Z</time>
      </trkpt>
      <trkpt lat="42.654556" lon="0.658791">
        <ele>2451.7</ele>
        <time>1970-01-01T08:15:26.000Z</time>
      </trkpt>
      <trkpt lat="42.654556" lon="0.658791">
        <ele>2451.7</ele>
        <time>1970-01-01T08:15:27.000Z</time>
      </trkpt>
      <trkpt lat="42.654556" lon="0.658791">
        <ele>2451.7</ele>
        <time>1970-01-01T08:15:28.000Z</time>
      </trkpt>
      <trkpt lat="42.654556" lon="0.658791">
        <ele>2451.7</ele>
        <time>1970-01-01T08:15:29.000Z</time>
      </trkpt>
      <trkpt lat="42.654556" lon="0.658791">
        <ele>2451.7</ele>
        <time>1970-01-01T08:15:30.000Z</time>
      </trkpt>
      <trkpt lat="42.654556" lon="0.658791">
        <ele>2451.7</ele>
        <time>1970-01-01T08:15:31.000Z</time>
      </trkpt>
      <trkpt lat="42.654556" lon="0.658791">
        <ele>2451.7</ele>
        <time>1970-01-01T08:15:32.000Z</time>
      </trkpt>
      <trkpt lat="42.654556" lon="0.658791">
        <ele>2451.7</ele>
        <time>1970-01-01T08:15:33.000Z</time>
      </trkpt>
      <trkpt lat="42.654556" lon="0.658791">
        <ele>2451.7</ele>
        <time>1970-01-01T08:15:34.000Z</time>
      </trkpt>
      <trkpt lat="42.654556" lon="0.658791">
        <ele>2451.7</ele>
        <time>1970-01-01T08:15:35.000Z</time>
      </trkpt>
      <trkpt lat="42.654556" lon="0.658791">
        <ele>2451.7</ele>
        <time>1970-01-01T08:15:36.000Z</time>
      </trkpt>
      <trkpt lat="42.654556" lon="0.658791">
        <ele>2451.7</ele>
        <time>1970-01-01T08:15:37.000Z</time>
      </trkpt>
      <trkpt lat="42.654556" lon="0.658791">
        <ele>2451.7</ele>
        <time>1970-01-01T08:15:38.000Z</time>
      </trkpt>
      <trkpt lat="42.654556" lon="0.658791">
        <ele>2451.7</ele>
        <time>1970-01-01T08:15:39.000Z</time>
      </trkpt>
      <trkpt lat="42.654556" lon="0.658791">
        <ele>2451.7</ele>
        <time>1970-01-01T08:15:40.000Z</time>
      </trkpt>
      <trkpt lat="42.654556" lon="0.658791">
        <ele>2451.7</ele>
        <time>1970-01-01T08:15:41.000Z</time>
      </trkpt>
      <trkpt lat="42.654556" lon="0.658791">
        <ele>2451.7</ele>
        <time>1970-01-01T08:15:42.000Z</time>
      </trkpt>
      <trkpt lat="42.654556" lon="0.658791">
        <ele>2451.7</ele>
        <time>1970-01-01T08:15:43.000Z</time>
      </trkpt>
      <trkpt lat="42.654556" lon="0.658791">
        <ele>2451.7</ele>
        <time>1970-01-01T08:15:44.000Z</time>
      </trkpt>
      <trkpt lat="42.654556" lon="0.658791">
        <ele>2451.7</ele>
        <time>1970-01-01T08:15:45.000Z</time>
      </trkpt>
      <trkpt lat="42.654556" lon="0.658791">
        <ele>2451.7</ele>
        <time>1970-01-01T08:15:46.000Z</time>
      </trkpt>
      <trkpt lat="42.654556" lon="0.658791">
        <ele>2451.7</ele>
        <time>1970-01-01T08:15:47.000Z</time>
      </trkpt>
      <trkpt lat="42.654556" lon="0.658791">
        <ele>2451.7</ele>
        <time>1970-01-01T08:15:48.000Z</time>
      </trkpt>
      <trkpt lat="42.654556" lon="0.658791">
        <ele>2451.7</ele>
        <time>1970-01-01T08:15:49.000Z</time>
      </trkpt>
      <trkpt lat="42.654556" lon="0.658791">
        <ele>2451.7</ele>
        <time>1970-01-01T08:15:50.000Z</time>
      </trkpt>
      <trkpt lat="42.654556" lon="0.658791">
        <ele>2451.7</ele>
        <time>1970-01-01T08:15:51.000Z</time>
      </trkpt>
      <trkpt lat="42.654556" lon="0.658791">
        <ele>2451.7</ele>
        <time>1970-01-01T08:15:52.000Z</time>
      </trkpt>
      <trkpt lat="42.654556" lon="0.658791">
        <ele>2451.7</ele>
        <time>1970-01-01T08:15:53.000Z</time>
      </trkpt>
      <trkpt lat="42.654556" lon="0.658791">
        <ele>2451.7</ele>
        <time>1970-01-01T08:15:54.000Z</time>
      </trkpt>
      <trkpt lat="42.654556" lon="0.658791">
        <ele>2451.7</ele>
        <time>1970-01-01T08:15:55.000Z</time>
      </trkpt>
      <trkpt lat="42.654556" lon="0.658791">
        <ele>2451.7</ele>
        <time>1970-01-01T08:15:56.000Z</time>
      </trkpt>
      <trkpt lat="42.654556" lon="0.658791">
        <ele>2451.7</ele>
        <time>1970-01-01T08:15:57.000Z</time>
      </trkpt>
      <trkpt lat="42.654556" lon="0.658791">
        <ele>2451.7</ele>
        <time>1970-01-01T08:15:58.000Z</time>
      </trkpt>
      <trkpt lat="42.654556" lon="0.658791">
        <ele>2451.7</ele>
        <time>1970-01-01T08:15:59.000Z</time>
      </trkpt>
      <trkpt lat="42.654556" lon="0.658791">
        <ele>2451.7</ele>
        <time>1970-01-01T08:16:00.000Z</time>
      </trkpt>
      <trkpt lat="42.654556" lon="0.658791">
        <ele>2451.7</ele>
        <time>1970-01-01T08:16:01.000Z</time>
      </trkpt>
      <trkpt lat="42.654556" lon="0.658791">
        <ele>2451.7</ele>
        <time>1970-01-01T08:16:02.000Z</time>
      </trkpt>
      <trkpt lat="42.654556" lon="0.658791">
        <ele>2451.7</ele>
        <time>1970-01-01T08:16:03.000Z</time>
      </trkpt>
      <trkpt lat="42.654556" lon="0.658791">
        <ele>2451.7</ele>
        <time>1970-01-01T08:16:04.000Z</time>
      </trkpt>
      <trkpt lat="42.654556" lon="0.658791">
        <ele>2451.7</ele>
        <time>1970-01-01T08:16:05.000Z</time>
      </trkpt>
      <trkpt lat="42.654556" lon="0.658791">
        <ele>2451.7</ele>
        <time>1970-01-01T08:16:06.000Z</time>
      </trkpt>
      <trkpt lat="42.654556" lon="0.658791">
        <ele>2451.7</ele>
        <time>1970-01-01T08:16:07.000Z</time>
      </trkpt>
      <trkpt lat="42.654556" lon="0.658791">
        <ele>2451.7</ele>
        <time>1970-01-01T08:16:08.000Z</time>
      </trkpt>
      <trkpt lat="42.654556" lon="0.658791">
        <ele>2451.7</ele>
        <time>1970-01-01T08:16:09.000Z</time>
      </trkpt>
      <trkpt lat="42.654556" lon="0.658791">
        <ele>2451.7</ele>
        <time>1970-01-01T08:16:10.000Z</time>
      </trkpt>
      <trkpt lat="42.654556" lon="0.658791">
        <ele>2451.7</ele>
        <time>1970-01-01T08:16:11.000Z</time>
      </trkpt>
      <trkpt lat="42.654556" lon="0.658791">
        <ele>2451.7</ele>
        <time>1970-01-01T08:16:12.000Z</time>
      </trkpt>
      <trkpt lat="42.654556" lon="0.658791">
        <ele>2451.7</ele>
        <time>1970-01-01T08:16:13.000Z</time>
      </trkpt>
      <trkpt lat="42.654556" lon="0.658791">
        <ele>2451.7</ele>
        <time>1970-01-01T08:16:14.000Z</time>
      </trkpt>
      <trkpt lat="42.654556" lon="0.658791">
        <ele>2451.7</ele>
        <time>1970-01-01T08:16:15.000Z</time>
      </trkpt>
      <trkpt lat="42.654556" lon="0.658791">
        <ele>2451.7</ele>
        <time>1970-01-01T08:16:16.000Z</time>
      </trkpt>
      <trkpt lat="42.654556" lon="0.658791">
        <ele>2451.7</ele>
        <time>1970-01-01T08:16:17.000Z</time>
      </trkpt>
      <trkpt lat="42.654556" lon="0.658791">
        <ele>2451.7</ele>
        <time>1970-01-01T08:16:18.000Z</time>
      </trkpt>
      <trkpt lat="42.654556" lon="0.658791">
        <ele>2451.7</ele>
        <time>1970-01-01T08:16:19.000Z</time>
      </trkpt>
      <trkpt lat="42.654556" lon="0.658791">
        <ele>2451.7</ele>
        <time>1970-01-01T08:16:20.000Z</time>
      </trkpt>
      <trkpt lat="42.654556" lon="0.658791">
        <ele>2451.7</ele>
        <time>1970-01-01T08:16:21.000Z</time>
      </trkpt>
      <trkpt lat="42.654556" lon="0.658791">
        <ele>2451.7</ele>
        <time>1970-01-01T08:16:22.000Z</time>
      </trkpt>
      <trkpt lat="42.654556" lon="0.658791">
        <ele>2451.7</ele>
        <time>1970-01-01T08:16:23.000Z</time>
      </trkpt>
      <trkpt lat="42.654556" lon="0.658791">
        <ele>2451.7</ele>
        <time>1970-01-01T08:16:24.000Z</time>
      </trkpt>
      <trkpt lat="42.654556" lon="0.658791">
        <ele>2451.7</ele>
        <time>1970-01-01T08:16:25.000Z</time>
      </trkpt>
      <trkpt lat="42.654556" lon="0.658791">
        <ele>2451.7</ele>
        <time>1970-01-01T08:16:26.000Z</time>
      </trkpt>
      <trkpt lat="42.654556" lon="0.658791">
        <ele>2451.7</ele>
        <time>1970-01-01T08:16:27.000Z</time>
      </trkpt>
      <trkpt lat="42.654556" lon="0.658791">
        <ele>2451.7</ele>
        <time>1970-01-01T08:16:28.000Z</time>
      </trkpt>
      <trkpt lat="42.654556" lon="0.658791">
        <ele>2451.7</ele>
        <time>1970-01-01T08:16:29.000Z</time>
      </trkpt>
      <trkpt lat="42.654556" lon="0.658791">
        <ele>2451.7</ele>
        <time>1970-01-01T08:16:30.000Z</time>
      </trkpt>
      <trkpt lat="42.654556" lon="0.658791">
        <ele>2451.7</ele>
        <time>1970-01-01T08:16:31.000Z</time>
      </trkpt>
      <trkpt lat="42.654556" lon="0.658791">
        <ele>2451.7</ele>
        <time>1970-01-01T08:16:32.000Z</time>
      </trkpt>
      <trkpt lat="42.654556" lon="0.658791">
        <ele>2451.7</ele>
        <time>1970-01-01T08:16:33.000Z</time>
      </trkpt>
      <trkpt lat="42.654556" lon="0.658791">
        <ele>2451.7</ele>
        <time>1970-01-01T08:16:34.000Z</time>
      </trkpt>
      <trkpt lat="42.654556" lon="0.658791">
        <ele>2451.7</ele>
        <time>1970-01-01T08:16:35.000Z</time>
      </trkpt>
      <trkpt lat="42.654556" lon="0.658791">
        <ele>2451.7</ele>
        <time>1970-01-01T08:16:36.000Z</time>
      </trkpt>
      <trkpt lat="42.654556" lon="0.658791">
        <ele>2451.7</ele>
        <time>1970-01-01T08:16:37.000Z</time>
      </trkpt>
      <trkpt lat="42.654556" lon="0.658791">
        <ele>2451.7</ele>
        <time>1970-01-01T08:16:38.000Z</time>
      </trkpt>
      <trkpt lat="42.654556" lon="0.658791">
        <ele>2451.7</ele>
        <time>1970-01-01T08:16:39.000Z</time>
      </trkpt>
      <trkpt lat="42.654556" lon="0.658791">
        <ele>2451.7</ele>
        <time>1970-01-01T08:16:40.000Z</time>
      </trkpt>
      <trkpt lat="42.654556" lon="0.658791">
        <ele>2451.7</ele>
        <time>1970-01-01T08:16:41.000Z</time>
      </trkpt>
      <trkpt lat="42.654556" lon="0.658791">
        <ele>2451.7</ele>
        <time>1970-01-01T08:16:42.000Z</time>
      </trkpt>
      <trkpt lat="42.654556" lon="0.658791">
        <ele>2451.7</ele>
        <time>1970-01-01T08:16:43.000Z</time>
      </trkpt>
      <trkpt lat="42.654556" lon="0.658791">
        <ele>2451.7</ele>
        <time>1970-01-01T08:16:44.000Z</time>
      </trkpt>
      <trkpt lat="42.654556" lon="0.658791">
        <ele>2451.7</ele>
        <time>1970-01-01T08:16:45.000Z</time>
      </trkpt>
      <trkpt lat="42.654556" lon="0.658791">
        <ele>2451.7</ele>
        <time>1970-01-01T08:16:46.000Z</time>
      </trkpt>
      <trkpt lat="42.654556" lon="0.658791">
        <ele>2451.7</ele>
        <time>1970-01-01T08:16:47.000Z</time>
      </trkpt>
      <trkpt lat="42.654556" lon="0.658791">
        <ele>2451.7</ele>
        <time>1970-01-01T08:16:48.000Z</time>
      </trkpt>
      <trkpt lat="42.654556" lon="0.658791">
        <ele>2451.7</ele>
        <time>1970-01-01T08:16:49.000Z</time>
      </trkpt>
      <trkpt lat="42.654556" lon="0.658791">
        <ele>2451.7</ele>
        <time>1970-01-01T08:16:50.000Z</time>
      </trkpt>
      <trkpt lat="42.654556" lon="0.658791">
        <ele>2451.7</ele>
        <time>1970-01-01T08:16:51.000Z</time>
      </trkpt>
      <trkpt lat="42.654556" lon="0.658791">
        <ele>2451.7</ele>
        <time>1970-01-01T08:16:52.000Z</time>
      </trkpt>
      <trkpt lat="42.654556" lon="0.658791">
        <ele>2451.7</ele>
        <time>1970-01-01T08:16:53.000Z</time>
      </trkpt>
      <trkpt lat="42.654556" lon="0.658791">
        <ele>2451.7</ele>
        <time>1970-01-01T08:16:54.000Z</time>
      </trkpt>
      <trkpt lat="42.654556" lon="0.658791">
        <ele>2451.7</ele>
        <time>1970-01-01T08:16:55.000Z</time>
      </trkpt>
      <trkpt lat="42.654556" lon="0.658791">
        <ele>2451.7</ele>
        <time>1970-01-01T08:16:56.000Z</time>
      </trkpt>
      <trkpt lat="42.654556" lon="0.658791">
        <ele>2451.7</ele>
        <time>1970-01-01T08:16:57.000Z</time>
      </trkpt>
      <trkpt lat="42.654556" lon="0.658791">
        <ele>2451.7</ele>
        <time>1970-01-01T08:16:58.000Z</time>
      </trkpt>
      <trkpt lat="42.654556" lon="0.658791">
        <ele>2451.7</ele>
        <time>1970-01-01T08:16:59.000Z</time>
      </trkpt>
      <trkpt lat="42.654556" lon="0.658791">
        <ele>2451.7</ele>
        <time>1970-01-01T08:17:00.000Z</time>
      </trkpt>
      <trkpt lat="42.654556" lon="0.658791">
        <ele>2451.7</ele>
        <time>1970-01-01T08:17:01.000Z</time>
      </trkpt>
      <trkpt lat="42.654556" lon="0.658791">
        <ele>2451.7</ele>
        <time>1970-01-01T08:17:02.000Z</time>
      </trkpt>
      <trkpt lat="42.654556" lon="0.658791">
        <ele>2451.7</ele>
        <time>1970-01-01T08:17:03.000Z</time>
      </trkpt>
      <trkpt lat="42.654556" lon="0.658791">
        <ele>2451.7</ele>
        <time>1970-01-01T08:17:04.000Z</time>
      </trkpt>
      <trkpt lat="42.654556" lon="0.658791">
        <ele>2451.7</ele>
        <time>1970-01-01T08:17:05.000Z</time>
      </trkpt>
      <trkpt lat="42.654556" lon="0.658791">
        <ele>2451.7</ele>
        <time>1970-01-01T08:17:06.000Z</time>
      </trkpt>
      <trkpt lat="42.654556" lon="0.658791">
        <ele>2451.7</ele>
        <time>1970-01-01T08:17:07.000Z</time>
      </trkpt>
      <trkpt lat="42.654556" lon="0.658791">
        <ele>2451.7</ele>
        <time>1970-01-01T08:17:08.000Z</time>
      </trkpt>
      <trkpt lat="42.654556" lon="0.658791">
        <ele>2451.7</ele>
        <time>1970-01-01T08:17:09.000Z</time>
      </trkpt>
      <trkpt lat="42.654556" lon="0.658791">
        <ele>2451.7</ele>
        <time>1970-01-01T08:17:10.000Z</time>
      </trkpt>
      <trkpt lat="42.654556" lon="0.658791">
        <ele>2451.7</ele>
        <time>1970-01-01T08:17:11.000Z</time>
      </trkpt>
      <trkpt lat="42.654556" lon="0.658791">
        <ele>2451.7</ele>
        <time>1970-01-01T08:17:12.000Z</time>
      </trkpt>
      <trkpt lat="42.654556" lon="0.658791">
        <ele>2451.7</ele>
        <time>1970-01-01T08:17:13.000Z</time>
      </trkpt>
      <trkpt lat="42.654556" lon="0.658791">
        <ele>2451.7</ele>
        <time>1970-01-01T08:17:14.000Z</time>
      </trkpt>
      <trkpt lat="42.654556" lon="0.658791">
        <ele>2451.7</ele>
        <time>1970-01-01T08:17:15.000Z</time>
      </trkpt>
      <trkpt lat="42.654556" lon="0.658791">
        <ele>2451.7</ele>
        <time>1970-01-01T08:17:16.000Z</time>
      </trkpt>
      <trkpt lat="42.654556" lon="0.658791">
        <ele>2451.7</ele>
        <time>1970-01-01T08:17:17.000Z</time>
      </trkpt>
      <trkpt lat="42.654556" lon="0.658791">
        <ele>2451.7</ele>
        <time>1970-01-01T08:17:18.000Z</time>
      </trkpt>
      <trkpt lat="42.654556" lon="0.658791">
        <ele>2451.7</ele>
        <time>1970-01-01T08:17:19.000Z</time>
      </trkpt>
      <trkpt lat="42.654556" lon="0.658791">
        <ele>2451.7</ele>
        <time>1970-01-01T08:17:20.000Z</time>
      </trkpt>
      <trkpt lat="42.654556" lon="0.658791">
        <ele>2451.7</ele>
        <time>1970-01-01T08:17:21.000Z</time>
      </trkpt>
      <trkpt lat="42.654555" lon="0.658789">
        <ele>2451.7</ele>
        <time>1970-01-01T08:17:22.000Z</time>
      </trkpt>
      <trkpt lat="42.654554" lon="0.658788">
        <ele>2451.7</ele>
        <time>1970-01-01T08:17:23.000Z</time>
      </trkpt>
      <trkpt lat="42.654554" lon="0.658788">
        <ele>2451.7</ele>
        <time>1970-01-01T08:17:24.000Z</time>
      </trkpt>
      <trkpt lat="42.654555" lon="0.658788">
        <ele>2451.7</ele>
        <time>1970-01-01T08:17:25.000Z</time>
      </trkpt>
      <trkpt lat="42.654555" lon="0.658788">
        <ele>2451.7</ele>
        <time>1970-01-01T08:17:26.000Z</time>
      </trkpt>
      <trkpt lat="42.654555" lon="0.658788">
        <ele>2451.7</ele>
        <time>1970-01-01T08:17:27.000Z</time>
      </trkpt>
      <trkpt lat="42.654555" lon="0.658788">
        <ele>2451.7</ele>
        <time>1970-01-01T08:17:28.000Z</time>
      </trkpt>
      <trkpt lat="42.654555" lon="0.658788">
        <ele>2451.7</ele>
        <time>1970-01-01T08:17:29.000Z</time>
      </trkpt>
      <trkpt lat="42.654555" lon="0.658788">
        <ele>2451.7</ele>
        <time>1970-01-01T08:17:30.000Z</time>
      </trkpt>
      <trkpt lat="42.654555" lon="0.658788">
        <ele>2451.7</ele>
        <time>1970-01-01T08:17:31.000Z</time>
      </trkpt>
      <trkpt lat="42.654555" lon="0.658788">
        <ele>2451.7</ele>
        <time>1970-01-01T08:17:32.000Z</time>
      </trkpt>
      <trkpt lat="42.654555" lon="0.658788">
        <ele>2451.7</ele>
        <time>1970-01-01T08:17:33.000Z</time>
      </trkpt>
      <trkpt lat="42.654555" lon="0.658788">
        <ele>2451.7</ele>
        <time>1970-01-01T08:17:34.000Z</time>
      </trkpt>
      <trkpt lat="42.654555" lon="0.658788">
        <ele>2451.7</ele>
        <time>1970-01-01T08:17:35.000Z</time>
      </trkpt>
      <trkpt lat="42.654555" lon="0.658788">
        <ele>2451.7</ele>
        <time>1970-01-01T08:17:36.000Z</time>
      </trkpt>
      <trkpt lat="42.654555" lon="0.658788">
        <ele>2451.7</ele>
        <time>1970-01-01T08:17:37.000Z</time>
      </trkpt>
      <trkpt lat="42.654555" lon="0.658788">
        <ele>2451.7</ele>
        <time>1970-01-01T08:17:38.000Z</time>
      </trkpt>
      <trkpt lat="42.654555" lon="0.658788">
        <ele>2451.7</ele>
        <time>1970-01-01T08:17:39.000Z</time>
      </trkpt>
      <trkpt lat="42.654555" lon="0.658788">
        <ele>2451.7</ele>
        <time>1970-01-01T08:17:40.000Z</time>
      </trkpt>
      <trkpt lat="42.654555" lon="0.658788">
        <ele>2451.7</ele>
        <time>1970-01-01T08:17:41.000Z</time>
      </trkpt>
      <trkpt lat="42.654555" lon="0.658788">
        <ele>2451.7</ele>
        <time>1970-01-01T08:17:42.000Z</time>
      </trkpt>
      <trkpt lat="42.654555" lon="0.658788">
        <ele>2451.7</ele>
        <time>1970-01-01T08:17:43.000Z</time>
      </trkpt>
      <trkpt lat="42.654555" lon="0.658788">
        <ele>2451.7</ele>
        <time>1970-01-01T08:17:44.000Z</time>
      </trkpt>
      <trkpt lat="42.654555" lon="0.658788">
        <ele>2451.7</ele>
        <time>1970-01-01T08:17:45.000Z</time>
      </trkpt>
      <trkpt lat="42.654555" lon="0.658788">
        <ele>2451.7</ele>
        <time>1970-01-01T08:17:46.000Z</time>
      </trkpt>
      <trkpt lat="42.654555" lon="0.658788">
        <ele>2451.7</ele>
        <time>1970-01-01T08:17:47.000Z</time>
      </trkpt>
      <trkpt lat="42.654555" lon="0.658788">
        <ele>2451.7</ele>
        <time>1970-01-01T08:17:48.000Z</time>
      </trkpt>
      <trkpt lat="42.654555" lon="0.658788">
        <ele>2451.7</ele>
        <time>1970-01-01T08:17:49.000Z</time>
      </trkpt>
      <trkpt lat="42.654555" lon="0.658788">
        <ele>2451.7</ele>
        <time>1970-01-01T08:17:50.000Z</time>
      </trkpt>
      <trkpt lat="42.654555" lon="0.658788">
        <ele>2451.7</ele>
        <time>1970-01-01T08:17:51.000Z</time>
      </trkpt>
      <trkpt lat="42.654555" lon="0.658788">
        <ele>2451.7</ele>
        <time>1970-01-01T08:17:52.000Z</time>
      </trkpt>
      <trkpt lat="42.654555" lon="0.658788">
        <ele>2451.7</ele>
        <time>1970-01-01T08:17:53.000Z</time>
      </trkpt>
      <trkpt lat="42.654555" lon="0.658788">
        <ele>2451.7</ele>
        <time>1970-01-01T08:17:54.000Z</time>
      </trkpt>
      <trkpt lat="42.654555" lon="0.658788">
        <ele>2451.7</ele>
        <time>1970-01-01T08:17:55.000Z</time>
      </trkpt>
      <trkpt lat="42.654555" lon="0.658788">
        <ele>2451.7</ele>
        <time>1970-01-01T08:17:56.000Z</time>
      </trkpt>
      <trkpt lat="42.654555" lon="0.658788">
        <ele>2451.7</ele>
        <time>1970-01-01T08:17:57.000Z</time>
      </trkpt>
      <trkpt lat="42.654555" lon="0.658788">
        <ele>2451.7</ele>
        <time>1970-01-01T08:17:58.000Z</time>
      </trkpt>
      <trkpt lat="42.654555" lon="0.658788">
        <ele>2451.7</ele>
        <time>1970-01-01T08:17:59.000Z</time>
      </trkpt>
      <trkpt lat="42.654555" lon="0.658788">
        <ele>2451.7</ele>
        <time>1970-01-01T08:18:00.000Z</time>
      </trkpt>
      <trkpt lat="42.654555" lon="0.658788">
        <ele>2451.7</ele>
        <time>1970-01-01T08:18:01.000Z</time>
      </trkpt>
      <trkpt lat="42.654555" lon="0.658788">
        <ele>2451.7</ele>
        <time>1970-01-01T08:18:02.000Z</time>
      </trkpt>
      <trkpt lat="42.654555" lon="0.658788">
        <ele>2451.7</ele>
        <time>1970-01-01T08:18:03.000Z</time>
      </trkpt>
      <trkpt lat="42.654555" lon="0.658788">
        <ele>2451.7</ele>
        <time>1970-01-01T08:18:04.000Z</time>
      </trkpt>
      <trkpt lat="42.654555" lon="0.658788">
        <ele>2451.7</ele>
        <time>1970-01-01T08:18:05.000Z</time>
      </trkpt>
      <trkpt lat="42.654555" lon="0.658788">
        <ele>2451.7</ele>
        <time>1970-01-01T08:18:06.000Z</time>
      </trkpt>
      <trkpt lat="42.654555" lon="0.658788">
        <ele>2451.7</ele>
        <time>1970-01-01T08:18:07.000Z</time>
      </trkpt>
      <trkpt lat="42.654555" lon="0.658788">
        <ele>2451.7</ele>
        <time>1970-01-01T08:18:08.000Z</time>
      </trkpt>
      <trkpt lat="42.654555" lon="0.658788">
        <ele>2451.7</ele>
        <time>1970-01-01T08:18:09.000Z</time>
      </trkpt>
      <trkpt lat="42.654555" lon="0.658788">
        <ele>2451.7</ele>
        <time>1970-01-01T08:18:10.000Z</time>
      </trkpt>
      <trkpt lat="42.654555" lon="0.658788">
        <ele>2451.7</ele>
        <time>1970-01-01T08:18:11.000Z</time>
      </trkpt>
      <trkpt lat="42.654555" lon="0.658788">
        <ele>2451.7</ele>
        <time>1970-01-01T08:18:12.000Z</time>
      </trkpt>
      <trkpt lat="42.654555" lon="0.658788">
        <ele>2451.7</ele>
        <time>1970-01-01T08:18:13.000Z</time>
      </trkpt>
      <trkpt lat="42.654555" lon="0.658788">
        <ele>2451.7</ele>
        <time>1970-01-01T08:18:14.000Z</time>
      </trkpt>
      <trkpt lat="42.654555" lon="0.658788">
        <ele>2451.7</ele>
        <time>1970-01-01T08:18:15.000Z</time>
      </trkpt>
      <trkpt lat="42.654555" lon="0.658788">
        <ele>2451.7</ele>
        <time>1970-01-01T08:18:16.000Z</time>
      </trkpt>
      <trkpt lat="42.654555" lon="0.658788">
        <ele>2451.7</ele>
        <time>1970-01-01T08:18:17.000Z</time>
      </trkpt>
      <trkpt lat="42.654555" lon="0.658788">
        <ele>2451.7</ele>
        <time>1970-01-01T08:18:18.000Z</time>
      </trkpt>
      <trkpt lat="42.654555" lon="0.658788">
        <ele>2451.7</ele>
        <time>1970-01-01T08:18:19.000Z</time>
      </trkpt>
      <trkpt lat="42.654555" lon="0.658788">
        <ele>2451.7</ele>
        <time>1970-01-01T08:18:20.000Z</time>
      </trkpt>
      <trkpt lat="42.654555" lon="0.658788">
        <ele>2451.7</ele>
        <time>1970-01-01T08:18:21.000Z</time>
      </trkpt>
      <trkpt lat="42.654555" lon="0.658788">
        <ele>2451.7</ele>
        <time>1970-01-01T08:18:22.000Z</time>
      </trkpt>
      <trkpt lat="42.654555" lon="0.658788">
        <ele>2451.7</ele>
        <time>1970-01-01T08:18:23.000Z</time>
      </trkpt>
      <trkpt lat="42.654555" lon="0.658788">
        <ele>2451.7</ele>
        <time>1970-01-01T08:18:24.000Z</time>
      </trkpt>
      <trkpt lat="42.654555" lon="0.658788">
        <ele>2451.7</ele>
        <time>1970-01-01T08:18:25.000Z</time>
      </trkpt>
      <trkpt lat="42.654555" lon="0.658788">
        <ele>2451.7</ele>
        <time>1970-01-01T08:18:26.000Z</time>
      </trkpt>
      <trkpt lat="42.654555" lon="0.658788">
        <ele>2451.7</ele>
        <time>1970-01-01T08:18:27.000Z</time>
      </trkpt>
      <trkpt lat="42.654555" lon="0.658788">
        <ele>2451.7</ele>
        <time>1970-01-01T08:18:28.000Z</time>
      </trkpt>
      <trkpt lat="42.654555" lon="0.658788">
        <ele>2451.7</ele>
        <time>1970-01-01T08:18:29.000Z</time>
      </trkpt>
      <trkpt lat="42.654555" lon="0.658788">
        <ele>2451.7</ele>
        <time>1970-01-01T08:18:30.000Z</time>
      </trkpt>
      <trkpt lat="42.654555" lon="0.658788">
        <ele>2451.7</ele>
        <time>1970-01-01T08:18:31.000Z</time>
      </trkpt>
      <trkpt lat="42.654555" lon="0.658788">
        <ele>2451.7</ele>
        <time>1970-01-01T08:18:32.000Z</time>
      </trkpt>
      <trkpt lat="42.654555" lon="0.658788">
        <ele>2451.7</ele>
        <time>1970-01-01T08:18:33.000Z</time>
      </trkpt>
      <trkpt lat="42.654555" lon="0.658788">
        <ele>2451.7</ele>
        <time>1970-01-01T08:18:34.000Z</time>
      </trkpt>
      <trkpt lat="42.654555" lon="0.658788">
        <ele>2451.7</ele>
        <time>1970-01-01T08:18:35.000Z</time>
      </trkpt>
      <trkpt lat="42.654555" lon="0.658788">
        <ele>2451.7</ele>
        <time>1970-01-01T08:18:36.000Z</time>
      </trkpt>
      <trkpt lat="42.654555" lon="0.658788">
        <ele>2451.7</ele>
        <time>1970-01-01T08:18:37.000Z</time>
      </trkpt>
      <trkpt lat="42.654555" lon="0.658788">
        <ele>2451.7</ele>
        <time>1970-01-01T08:18:38.000Z</time>
      </trkpt>
      <trkpt lat="42.654555" lon="0.658788">
        <ele>2451.7</ele>
        <time>1970-01-01T08:18:39.000Z</time>
      </trkpt>
      <trkpt lat="42.654555" lon="0.658788">
        <ele>2451.7</ele>
        <time>1970-01-01T08:18:40.000Z</time>
      </trkpt>
      <trkpt lat="42.654555" lon="0.658788">
        <ele>2451.7</ele>
        <time>1970-01-01T08:18:41.000Z</time>
      </trkpt>
      <trkpt lat="42.654555" lon="0.658788">
        <ele>2451.7</ele>
        <time>1970-01-01T08:18:42.000Z</time>
      </trkpt>
      <trkpt lat="42.654555" lon="0.658788">
        <ele>2451.7</ele>
        <time>1970-01-01T08:18:43.000Z</time>
      </trkpt>
      <trkpt lat="42.654555" lon="0.658788">
        <ele>2451.7</ele>
        <time>1970-01-01T08:18:44.000Z</time>
      </trkpt>
      <trkpt lat="42.654555" lon="0.658788">
        <ele>2451.7</ele>
        <time>1970-01-01T08:18:45.000Z</time>
      </trkpt>
      <trkpt lat="42.654555" lon="0.658788">
        <ele>2451.7</ele>
        <time>1970-01-01T08:18:46.000Z</time>
      </trkpt>
      <trkpt lat="42.654555" lon="0.658788">
        <ele>2451.7</ele>
        <time>1970-01-01T08:18:47.000Z</time>
      </trkpt>
      <trkpt lat="42.654555" lon="0.658788">
        <ele>2451.7</ele>
        <time>1970-01-01T08:18:48.000Z</time>
      </trkpt>
      <trkpt lat="42.654555" lon="0.658788">
        <ele>2451.7</ele>
        <time>1970-01-01T08:18:49.000Z</time>
      </trkpt>
      <trkpt lat="42.654555" lon="0.658788">
        <ele>2451.7</ele>
        <time>1970-01-01T08:18:50.000Z</time>
      </trkpt>
      <trkpt lat="42.654555" lon="0.658788">
        <ele>2451.7</ele>
        <time>1970-01-01T08:18:51.000Z</time>
      </trkpt>
      <trkpt lat="42.654555" lon="0.658788">
        <ele>2451.7</ele>
        <time>1970-01-01T08:18:52.000Z</time>
      </trkpt>
      <trkpt lat="42.654555" lon="0.658788">
        <ele>2451.7</ele>
        <time>1970-01-01T08:18:53.000Z</time>
      </trkpt>
      <trkpt lat="42.654555" lon="0.658788">
        <ele>2451.7</ele>
        <time>1970-01-01T08:18:54.000Z</time>
      </trkpt>
      <trkpt lat="42.654555" lon="0.658788">
        <ele>2451.7</ele>
        <time>1970-01-01T08:18:55.000Z</time>
      </trkpt>
      <trkpt lat="42.654555" lon="0.658788">
        <ele>2451.7</ele>
        <time>1970-01-01T08:18:56.000Z</time>
      </trkpt>
      <trkpt lat="42.654555" lon="0.658788">
        <ele>2451.7</ele>
        <time>1970-01-01T08:18:57.000Z</time>
      </trkpt>
      <trkpt lat="42.654555" lon="0.658788">
        <ele>2451.7</ele>
        <time>1970-01-01T08:18:58.000Z</time>
      </trkpt>
      <trkpt lat="42.654555" lon="0.658788">
        <ele>2451.7</ele>
        <time>1970-01-01T08:18:59.000Z</time>
      </trkpt>
      <trkpt lat="42.654555" lon="0.658788">
        <ele>2451.7</ele>
        <time>1970-01-01T08:19:00.000Z</time>
      </trkpt>
      <trkpt lat="42.654555" lon="0.658788">
        <ele>2451.7</ele>
        <time>1970-01-01T08:19:01.000Z</time>
      </trkpt>
      <trkpt lat="42.654555" lon="0.658788">
        <ele>2451.7</ele>
        <time>1970-01-01T08:19:02.000Z</time>
      </trkpt>
      <trkpt lat="42.654555" lon="0.658788">
        <ele>2451.7</ele>
        <time>1970-01-01T08:19:03.000Z</time>
      </trkpt>
      <trkpt lat="42.654555" lon="0.658788">
        <ele>2451.7</ele>
        <time>1970-01-01T08:19:04.000Z</time>
      </trkpt>
      <trkpt lat="42.654555" lon="0.658788">
        <ele>2451.7</ele>
        <time>1970-01-01T08:19:05.000Z</time>
      </trkpt>
      <trkpt lat="42.654555" lon="0.658788">
        <ele>2451.7</ele>
        <time>1970-01-01T08:19:06.000Z</time>
      </trkpt>
      <trkpt lat="42.654555" lon="0.658788">
        <ele>2451.7</ele>
        <time>1970-01-01T08:19:07.000Z</time>
      </trkpt>
      <trkpt lat="42.654555" lon="0.658788">
        <ele>2451.7</ele>
        <time>1970-01-01T08:19:08.000Z</time>
      </trkpt>
      <trkpt lat="42.654555" lon="0.658788">
        <ele>2451.7</ele>
        <time>1970-01-01T08:19:09.000Z</time>
      </trkpt>
      <trkpt lat="42.654555" lon="0.658788">
        <ele>2451.7</ele>
        <time>1970-01-01T08:19:10.000Z</time>
      </trkpt>
      <trkpt lat="42.654555" lon="0.658788">
        <ele>2451.7</ele>
        <time>1970-01-01T08:19:11.000Z</time>
      </trkpt>
      <trkpt lat="42.654555" lon="0.658788">
        <ele>2451.7</ele>
        <time>1970-01-01T08:19:12.000Z</time>
      </trkpt>
      <trkpt lat="42.654555" lon="0.658788">
        <ele>2451.7</ele>
        <time>1970-01-01T08:19:13.000Z</time>
      </trkpt>
      <trkpt lat="42.654555" lon="0.658788">
        <ele>2451.7</ele>
        <time>1970-01-01T08:19:14.000Z</time>
      </trkpt>
      <trkpt lat="42.654555" lon="0.658788">
        <ele>2451.7</ele>
        <time>1970-01-01T08:19:15.000Z</time>
      </trkpt>
      <trkpt lat="42.654555" lon="0.658788">
        <ele>2451.7</ele>
        <time>1970-01-01T08:19:16.000Z</time>
      </trkpt>
      <trkpt lat="42.654555" lon="0.658788">
        <ele>2451.7</ele>
        <time>1970-01-01T08:19:17.000Z</time>
      </trkpt>
      <trkpt lat="42.654555" lon="0.658788">
        <ele>2451.7</ele>
        <time>1970-01-01T08:19:18.000Z</time>
      </trkpt>
      <trkpt lat="42.654555" lon="0.658788">
        <ele>2451.7</ele>
        <time>1970-01-01T08:19:19.000Z</time>
      </trkpt>
      <trkpt lat="42.654555" lon="0.658788">
        <ele>2451.7</ele>
        <time>1970-01-01T08:19:20.000Z</time>
      </trkpt>
      <trkpt lat="42.654555" lon="0.658788">
        <ele>2451.7</ele>
        <time>1970-01-01T08:19:21.000Z</time>
      </trkpt>
      <trkpt lat="42.654555" lon="0.658788">
        <ele>2451.7</ele>
        <time>1970-01-01T08:19:22.000Z</time>
      </trkpt>
      <trkpt lat="42.654555" lon="0.658788">
        <ele>2451.7</ele>
        <time>1970-01-01T08:19:23.000Z</time>
      </trkpt>
      <trkpt lat="42.654555" lon="0.658788">
        <ele>2451.7</ele>
        <time>1970-01-01T08:19:24.000Z</time>
      </trkpt>
      <trkpt lat="42.654555" lon="0.658788">
        <ele>2451.7</ele>
        <time>1970-01-01T08:19:25.000Z</time>
      </trkpt>
      <trkpt lat="42.654555" lon="0.658788">
        <ele>2451.7</ele>
        <time>1970-01-01T08:19:26.000Z</time>
      </trkpt>
      <trkpt lat="42.654555" lon="0.658788">
        <ele>2451.7</ele>
        <time>1970-01-01T08:19:27.000Z</time>
      </trkpt>
      <trkpt lat="42.654555" lon="0.658788">
        <ele>2451.7</ele>
        <time>1970-01-01T08:19:28.000Z</time>
      </trkpt>
      <trkpt lat="42.654555" lon="0.658788">
        <ele>2451.7</ele>
        <time>1970-01-01T08:19:29.000Z</time>
      </trkpt>
      <trkpt lat="42.654555" lon="0.658788">
        <ele>2451.7</ele>
        <time>1970-01-01T08:19:30.000Z</time>
      </trkpt>
      <trkpt lat="42.654555" lon="0.658788">
        <ele>2451.7</ele>
        <time>1970-01-01T08:19:31.000Z</time>
      </trkpt>
      <trkpt lat="42.654555" lon="0.658788">
        <ele>2451.7</ele>
        <time>1970-01-01T08:19:32.000Z</time>
      </trkpt>
      <trkpt lat="42.654555" lon="0.658788">
        <ele>2451.7</ele>
        <time>1970-01-01T08:19:33.000Z</time>
      </trkpt>
      <trkpt lat="42.654555" lon="0.658788">
        <ele>2451.7</ele>
        <time>1970-01-01T08:19:34.000Z</time>
      </trkpt>
      <trkpt lat="42.654555" lon="0.658788">
        <ele>2451.7</ele>
        <time>1970-01-01T08:19:35.000Z</time>
      </trkpt>
      <trkpt lat="42.654555" lon="0.658788">
        <ele>2451.7</ele>
        <time>1970-01-01T08:19:36.000Z</time>
      </trkpt>
      <trkpt lat="42.654555" lon="0.658788">
        <ele>2451.7</ele>
        <time>1970-01-01T08:19:37.000Z</time>
      </trkpt>
      <trkpt lat="42.654555" lon="0.658788">
        <ele>2451.7</ele>
        <time>1970-01-01T08:19:38.000Z</time>
      </trkpt>
      <trkpt lat="42.654555" lon="0.658788">
        <ele>2451.7</ele>
        <time>1970-01-01T08:19:39.000Z</time>
      </trkpt>
      <trkpt lat="42.654555" lon="0.658788">
        <ele>2451.7</ele>
        <time>1970-01-01T08:19:40.000Z</time>
      </trkpt>
      <trkpt lat="42.654555" lon="0.658788">
        <ele>2451.7</ele>
        <time>1970-01-01T08:19:41.000Z</time>
      </trkpt>
      <trkpt lat="42.654555" lon="0.658788">
        <ele>2451.7</ele>
        <time>1970-01-01T08:19:42.000Z</time>
      </trkpt>
      <trkpt lat="42.654555" lon="0.658788">
        <ele>2451.7</ele>
        <time>1970-01-01T08:19:43.000Z</time>
      </trkpt>
      <trkpt lat="42.654555" lon="0.658788">
        <ele>2451.7</ele>
        <time>1970-01-01T08:19:44.000Z</time>
      </trkpt>
      <trkpt lat="42.654555" lon="0.658788">
        <ele>2451.7</ele>
        <time>1970-01-01T08:19:45.000Z</time>
      </trkpt>
      <trkpt lat="42.654555" lon="0.658788">
        <ele>2451.7</ele>
        <time>1970-01-01T08:19:46.000Z</time>
      </trkpt>
      <trkpt lat="42.654555" lon="0.658788">
        <ele>2451.7</ele>
        <time>1970-01-01T08:19:47.000Z</time>
      </trkpt>
      <trkpt lat="42.654555" lon="0.658788">
        <ele>2451.7</ele>
        <time>1970-01-01T08:19:48.000Z</time>
      </trkpt>
      <trkpt lat="42.654555" lon="0.658788">
        <ele>2451.7</ele>
        <time>1970-01-01T08:19:49.000Z</time>
      </trkpt>
      <trkpt lat="42.654555" lon="0.658788">
        <ele>2451.7</ele>
        <time>1970-01-01T08:19:50.000Z</time>
      </trkpt>
      <trkpt lat="42.654555" lon="0.658788">
        <ele>2451.7</ele>
        <time>1970-01-01T08:19:51.000Z</time>
      </trkpt>
      <trkpt lat="42.654555" lon="0.658788">
        <ele>2451.7</ele>
        <time>1970-01-01T08:19:52.000Z</time>
      </trkpt>
      <trkpt lat="42.654555" lon="0.658788">
        <ele>2451.7</ele>
        <time>1970-01-01T08:19:53.000Z</time>
      </trkpt>
      <trkpt lat="42.654555" lon="0.658788">
        <ele>2451.7</ele>
        <time>1970-01-01T08:19:54.000Z</time>
      </trkpt>
      <trkpt lat="42.654555" lon="0.658788">
        <ele>2451.7</ele>
        <time>1970-01-01T08:19:55.000Z</time>
      </trkpt>
      <trkpt lat="42.654555" lon="0.658788">
        <ele>2451.7</ele>
        <time>1970-01-01T08:19:56.000Z</time>
      </trkpt>
      <trkpt lat="42.654555" lon="0.658788">
        <ele>2451.7</ele>
        <time>1970-01-01T08:19:57.000Z</time>
      </trkpt>
      <trkpt lat="42.654555" lon="0.658788">
        <ele>2451.7</ele>
        <time>1970-01-01T08:19:58.000Z</time>
      </trkpt>
      <trkpt lat="42.654555" lon="0.658788">
        <ele>2451.7</ele>
        <time>1970-01-01T08:19:59.000Z</time>
      </trkpt>
      <trkpt lat="42.654555" lon="0.658788">
        <ele>2451.7</ele>
        <time>1970-01-01T08:20:00.000Z</time>
      </trkpt>
      <trkpt lat="42.654555" lon="0.658788">
        <ele>2451.7</ele>
        <time>1970-01-01T08:20:01.000Z</time>
      </trkpt>
      <trkpt lat="42.654555" lon="0.658788">
        <ele>2451.7</ele>
        <time>1970-01-01T08:20:02.000Z</time>
      </trkpt>
      <trkpt lat="42.654555" lon="0.658788">
        <ele>2451.7</ele>
        <time>1970-01-01T08:20:03.000Z</time>
      </trkpt>
      <trkpt lat="42.654555" lon="0.658788">
        <ele>2451.7</ele>
        <time>1970-01-01T08:20:04.000Z</time>
      </trkpt>
      <trkpt lat="42.654555" lon="0.658788">
        <ele>2451.7</ele>
        <time>1970-01-01T08:20:05.000Z</time>
      </trkpt>
      <trkpt lat="42.654555" lon="0.658788">
        <ele>2451.7</ele>
        <time>1970-01-01T08:20:06.000Z</time>
      </trkpt>
      <trkpt lat="42.654555" lon="0.658788">
        <ele>2451.7</ele>
        <time>1970-01-01T08:20:07.000Z</time>
      </trkpt>
      <trkpt lat="42.654555" lon="0.658788">
        <ele>2451.7</ele>
        <time>1970-01-01T08:20:08.000Z</time>
      </trkpt>
      <trkpt lat="42.654555" lon="0.658788">
        <ele>2451.7</ele>
        <time>1970-01-01T08:20:09.000Z</time>
      </trkpt>
      <trkpt lat="42.654555" lon="0.658788">
        <ele>2451.7</ele>
        <time>1970-01-01T08:20:10.000Z</time>
      </trkpt>
      <trkpt lat="42.654555" lon="0.658788">
        <ele>2451.7</ele>
        <time>1970-01-01T08:20:11.000Z</time>
      </trkpt>
      <trkpt lat="42.654555" lon="0.658788">
        <ele>2451.7</ele>
        <time>1970-01-01T08:20:12.000Z</time>
      </trkpt>
      <trkpt lat="42.654555" lon="0.658788">
        <ele>2451.7</ele>
        <time>1970-01-01T08:20:13.000Z</time>
      </trkpt>
      <trkpt lat="42.654555" lon="0.658788">
        <ele>2451.7</ele>
        <time>1970-01-01T08:20:14.000Z</time>
      </trkpt>
      <trkpt lat="42.654555" lon="0.658788">
        <ele>2451.7</ele>
        <time>1970-01-01T08:20:15.000Z</time>
      </trkpt>
      <trkpt lat="42.654555" lon="0.658788">
        <ele>2451.7</ele>
        <time>1970-01-01T08:20:16.000Z</time>
      </trkpt>
      <trkpt lat="42.654555" lon="0.658788">
        <ele>2451.7</ele>
        <time>1970-01-01T08:20:17.000Z</time>
      </trkpt>
      <trkpt lat="42.654555" lon="0.658788">
        <ele>2451.7</ele>
        <time>1970-01-01T08:20:18.000Z</time>
      </trkpt>
      <trkpt lat="42.654555" lon="0.658788">
        <ele>2451.7</ele>
        <time>1970-01-01T08:20:19.000Z</time>
      </trkpt>
      <trkpt lat="42.654555" lon="0.658788">
        <ele>2451.7</ele>
        <time>1970-01-01T08:20:20.000Z</time>
      </trkpt>
      <trkpt lat="42.654555" lon="0.658788">
        <ele>2451.7</ele>
        <time>1970-01-01T08:20:21.000Z</time>
      </trkpt>
      <trkpt lat="42.654555" lon="0.658788">
        <ele>2451.7</ele>
        <time>1970-01-01T08:20:22.000Z</time>
      </trkpt>
      <trkpt lat="42.654555" lon="0.658788">
        <ele>2451.7</ele>
        <time>1970-01-01T08:20:23.000Z</time>
      </trkpt>
      <trkpt lat="42.654555" lon="0.658788">
        <ele>2451.7</ele>
        <time>1970-01-01T08:20:24.000Z</time>
      </trkpt>
      <trkpt lat="42.654555" lon="0.658788">
        <ele>2451.7</ele>
        <time>1970-01-01T08:20:25.000Z</time>
      </trkpt>
      <trkpt lat="42.654555" lon="0.658788">
        <ele>2451.7</ele>
        <time>1970-01-01T08:20:26.000Z</time>
      </trkpt>
      <trkpt lat="42.654555" lon="0.658788">
        <ele>2451.7</ele>
        <time>1970-01-01T08:20:27.000Z</time>
      </trkpt>
      <trkpt lat="42.654555" lon="0.658788">
        <ele>2451.7</ele>
        <time>1970-01-01T08:20:28.000Z</time>
      </trkpt>
      <trkpt lat="42.654555" lon="0.658788">
        <ele>2451.7</ele>
        <time>1970-01-01T08:20:29.000Z</time>
      </trkpt>
      <trkpt lat="42.654555" lon="0.658788">
        <ele>2451.7</ele>
        <time>1970-01-01T08:20:30.000Z</time>
      </trkpt>
      <trkpt lat="42.654555" lon="0.658788">
        <ele>2451.7</ele>
        <time>1970-01-01T08:20:31.000Z</time>
      </trkpt>
      <trkpt lat="42.654555" lon="0.658788">
        <ele>2451.7</ele>
        <time>1970-01-01T08:20:32.000Z</time>
      </trkpt>
      <trkpt lat="42.654555" lon="0.658788">
        <ele>2451.7</ele>
        <time>1970-01-01T08:20:33.000Z</time>
      </trkpt>
      <trkpt lat="42.654555" lon="0.658788">
        <ele>2451.7</ele>
        <time>1970-01-01T08:20:34.000Z</time>
      </trkpt>
      <trkpt lat="42.654555" lon="0.658788">
        <ele>2451.7</ele>
        <time>1970-01-01T08:20:35.000Z</time>
      </trkpt>
      <trkpt lat="42.654555" lon="0.658788">
        <ele>2451.7</ele>
        <time>1970-01-01T08:20:36.000Z</time>
      </trkpt>
      <trkpt lat="42.654555" lon="0.658788">
        <ele>2451.7</ele>
        <time>1970-01-01T08:20:37.000Z</time>
      </trkpt>
      <trkpt lat="42.654555" lon="0.658788">
        <ele>2451.7</ele>
        <time>1970-01-01T08:20:38.000Z</time>
      </trkpt>
      <trkpt lat="42.654555" lon="0.658788">
        <ele>2451.7</ele>
        <time>1970-01-01T08:20:39.000Z</time>
      </trkpt>
      <trkpt lat="42.654555" lon="0.658788">
        <ele>2451.7</ele>
        <time>1970-01-01T08:20:40.000Z</time>
      </trkpt>
      <trkpt lat="42.654555" lon="0.658788">
        <ele>2451.7</ele>
        <time>1970-01-01T08:20:41.000Z</time>
      </trkpt>
      <trkpt lat="42.654555" lon="0.658788">
        <ele>2451.7</ele>
        <time>1970-01-01T08:20:42.000Z</time>
      </trkpt>
      <trkpt lat="42.654555" lon="0.658788">
        <ele>2451.7</ele>
        <time>1970-01-01T08:20:43.000Z</time>
      </trkpt>
      <trkpt lat="42.654555" lon="0.658788">
        <ele>2451.7</ele>
        <time>1970-01-01T08:20:44.000Z</time>
      </trkpt>
      <trkpt lat="42.654555" lon="0.658788">
        <ele>2451.7</ele>
        <time>1970-01-01T08:20:45.000Z</time>
      </trkpt>
      <trkpt lat="42.654555" lon="0.658788">
        <ele>2451.7</ele>
        <time>1970-01-01T08:20:46.000Z</time>
      </trkpt>
      <trkpt lat="42.654555" lon="0.658788">
        <ele>2451.7</ele>
        <time>1970-01-01T08:20:47.000Z</time>
      </trkpt>
      <trkpt lat="42.654555" lon="0.658788">
        <ele>2451.7</ele>
        <time>1970-01-01T08:20:48.000Z</time>
      </trkpt>
      <trkpt lat="42.654555" lon="0.658788">
        <ele>2451.7</ele>
        <time>1970-01-01T08:20:49.000Z</time>
      </trkpt>
      <trkpt lat="42.654555" lon="0.658788">
        <ele>2451.7</ele>
        <time>1970-01-01T08:20:50.000Z</time>
      </trkpt>
      <trkpt lat="42.654555" lon="0.658788">
        <ele>2451.7</ele>
        <time>1970-01-01T08:20:51.000Z</time>
      </trkpt>
      <trkpt lat="42.654555" lon="0.658788">
        <ele>2451.7</ele>
        <time>1970-01-01T08:20:52.000Z</time>
      </trkpt>
      <trkpt lat="42.654555" lon="0.658788">
        <ele>2451.7</ele>
        <time>1970-01-01T08:20:53.000Z</time>
      </trkpt>
      <trkpt lat="42.654555" lon="0.658788">
        <ele>2451.7</ele>
        <time>1970-01-01T08:20:54.000Z</time>
      </trkpt>
      <trkpt lat="42.654555" lon="0.658788">
        <ele>2451.7</ele>
        <time>1970-01-01T08:20:55.000Z</time>
      </trkpt>
      <trkpt lat="42.654555" lon="0.658788">
        <ele>2451.7</ele>
        <time>1970-01-01T08:20:56.000Z</time>
      </trkpt>
      <trkpt lat="42.654555" lon="0.658788">
        <ele>2451.7</ele>
        <time>1970-01-01T08:20:57.000Z</time>
      </trkpt>
      <trkpt lat="42.654555" lon="0.658788">
        <ele>2451.7</ele>
        <time>1970-01-01T08:20:58.000Z</time>
      </trkpt>
      <trkpt lat="42.654555" lon="0.658788">
        <ele>2451.7</ele>
        <time>1970-01-01T08:20:59.000Z</time>
      </trkpt>
      <trkpt lat="42.654555" lon="0.658788">
        <ele>2451.7</ele>
        <time>1970-01-01T08:21:00.000Z</time>
      </trkpt>
      <trkpt lat="42.654555" lon="0.658788">
        <ele>2451.7</ele>
        <time>1970-01-01T08:21:01.000Z</time>
      </trkpt>
      <trkpt lat="42.654555" lon="0.658788">
        <ele>2451.7</ele>
        <time>1970-01-01T08:21:02.000Z</time>
      </trkpt>
      <trkpt lat="42.654555" lon="0.658788">
        <ele>2451.7</ele>
        <time>1970-01-01T08:21:03.000Z</time>
      </trkpt>
      <trkpt lat="42.654555" lon="0.658788">
        <ele>2451.7</ele>
        <time>1970-01-01T08:21:04.000Z</time>
      </trkpt>
      <trkpt lat="42.654555" lon="0.658788">
        <ele>2451.7</ele>
        <time>1970-01-01T08:21:05.000Z</time>
      </trkpt>
      <trkpt lat="42.654555" lon="0.658788">
        <ele>2451.7</ele>
        <time>1970-01-01T08:21:06.000Z</time>
      </trkpt>
      <trkpt lat="42.654555" lon="0.658788">
        <ele>2451.7</ele>
        <time>1970-01-01T08:21:07.000Z</time>
      </trkpt>
      <trkpt lat="42.654555" lon="0.658788">
        <ele>2451.7</ele>
        <time>1970-01-01T08:21:08.000Z</time>
      </trkpt>
      <trkpt lat="42.654555" lon="0.658788">
        <ele>2451.7</ele>
        <time>1970-01-01T08:21:09.000Z</time>
      </trkpt>
      <trkpt lat="42.654555" lon="0.658788">
        <ele>2451.7</ele>
        <time>1970-01-01T08:21:10.000Z</time>
      </trkpt>
      <trkpt lat="42.654555" lon="0.658788">
        <ele>2451.7</ele>
        <time>1970-01-01T08:21:11.000Z</time>
      </trkpt>
      <trkpt lat="42.654554" lon="0.658788">
        <ele>2451.7</ele>
        <time>1970-01-01T08:21:12.000Z</time>
      </trkpt>
      <trkpt lat="42.654554" lon="0.658788">
        <ele>2451.7</ele>
        <time>1970-01-01T08:21:13.000Z</time>
      </trkpt>
      <trkpt lat="42.654555" lon="0.658788">
        <ele>2451.7</ele>
        <time>1970-01-01T08:21:14.000Z</time>
      </trkpt>
      <trkpt lat="42.654555" lon="0.658788">
        <ele>2451.7</ele>
        <time>1970-01-01T08:21:15.000Z</time>
      </trkpt>
      <trkpt lat="42.654555" lon="0.658788">
        <ele>2451.7</ele>
        <time>1970-01-01T08:21:16.000Z</time>
      </trkpt>
      <trkpt lat="42.654555" lon="0.658788">
        <ele>2451.7</ele>
        <time>1970-01-01T08:21:17.000Z</time>
      </trkpt>
      <trkpt lat="42.654555" lon="0.658788">
        <ele>2451.7</ele>
        <time>1970-01-01T08:21:18.000Z</time>
      </trkpt>
      <trkpt lat="42.654555" lon="0.658788">
        <ele>2451.7</ele>
        <time>1970-01-01T08:21:19.000Z</time>
      </trkpt>
      <trkpt lat="42.654554" lon="0.658788">
        <ele>2451.7</ele>
        <time>1970-01-01T08:21:20.000Z</time>
      </trkpt>
      <trkpt lat="42.654554" lon="0.658788">
        <ele>2451.7</ele>
        <time>1970-01-01T08:21:21.000Z</time>
      </trkpt>
      <trkpt lat="42.654554" lon="0.658788">
        <ele>2451.7</ele>
        <time>1970-01-01T08:21:22.000Z</time>
      </trkpt>
      <trkpt lat="42.654554" lon="0.658788">
        <ele>2451.7</ele>
        <time>1970-01-01T08:21:23.000Z</time>
      </trkpt>
      <trkpt lat="42.654554" lon="0.658788">
        <ele>2451.7</ele>
        <time>1970-01-01T08:21:24.000Z</time>
      </trkpt>
      <trkpt lat="42.654555" lon="0.658788">
        <ele>2451.7</ele>
        <time>1970-01-01T08:21:25.000Z</time>
      </trkpt>
      <trkpt lat="42.654555" lon="0.658788">
        <ele>2451.7</ele>
        <time>1970-01-01T08:21:26.000Z</time>
      </trkpt>
      <trkpt lat="42.654555" lon="0.658788">
        <ele>2451.7</ele>
        <time>1970-01-01T08:21:27.000Z</time>
      </trkpt>
      <trkpt lat="42.654555" lon="0.658788">
        <ele>2451.7</ele>
        <time>1970-01-01T08:21:28.000Z</time>
      </trkpt>
      <trkpt lat="42.654554" lon="0.658788">
        <ele>2451.8</ele>
        <time>1970-01-01T08:21:29.000Z</time>
      </trkpt>
      <trkpt lat="42.654554" lon="0.658788">
        <ele>2451.8</ele>
        <time>1970-01-01T08:21:30.000Z</time>
      </trkpt>
      <trkpt lat="42.654554" lon="0.658788">
        <ele>2451.8</ele>
        <time>1970-01-01T08:21:31.000Z</time>
      </trkpt>
      <trkpt lat="42.654554" lon="0.658788">
        <ele>2451.8</ele>
        <time>1970-01-01T08:21:32.000Z</time>
      </trkpt>
      <trkpt lat="42.654554" lon="0.658788">
        <ele>2451.8</ele>
        <time>1970-01-01T08:21:33.000Z</time>
      </trkpt>
      <trkpt lat="42.654554" lon="0.658788">
        <ele>2451.8</ele>
        <time>1970-01-01T08:21:34.000Z</time>
      </trkpt>
      <trkpt lat="42.654554" lon="0.658788">
        <ele>2451.8</ele>
        <time>1970-01-01T08:21:35.000Z</time>
      </trkpt>
      <trkpt lat="42.654554" lon="0.658788">
        <ele>2451.8</ele>
        <time>1970-01-01T08:21:36.000Z</time>
      </trkpt>
      <trkpt lat="42.654554" lon="0.658788">
        <ele>2451.8</ele>
        <time>1970-01-01T08:21:37.000Z</time>
      </trkpt>
      <trkpt lat="42.654554" lon="0.658788">
        <ele>2451.8</ele>
        <time>1970-01-01T08:21:38.000Z</time>
      </trkpt>
      <trkpt lat="42.654554" lon="0.658788">
        <ele>2451.8</ele>
        <time>1970-01-01T08:21:39.000Z</time>
      </trkpt>
      <trkpt lat="42.654554" lon="0.658788">
        <ele>2451.8</ele>
        <time>1970-01-01T08:21:40.000Z</time>
      </trkpt>
      <trkpt lat="42.654554" lon="0.658788">
        <ele>2451.8</ele>
        <time>1970-01-01T08:21:41.000Z</time>
      </trkpt>
      <trkpt lat="42.654554" lon="0.658788">
        <ele>2451.8</ele>
        <time>1970-01-01T08:21:42.000Z</time>
      </trkpt>
      <trkpt lat="42.654554" lon="0.658788">
        <ele>2451.8</ele>
        <time>1970-01-01T08:21:43.000Z</time>
      </trkpt>
      <trkpt lat="42.654554" lon="0.658788">
        <ele>2451.8</ele>
        <time>1970-01-01T08:21:44.000Z</time>
      </trkpt>
      <trkpt lat="42.654554" lon="0.658788">
        <ele>2451.8</ele>
        <time>1970-01-01T08:21:45.000Z</time>
      </trkpt>
      <trkpt lat="42.654554" lon="0.658788">
        <ele>2451.8</ele>
        <time>1970-01-01T08:21:46.000Z</time>
      </trkpt>
      <trkpt lat="42.654554" lon="0.658788">
        <ele>2451.8</ele>
        <time>1970-01-01T08:21:47.000Z</time>
      </trkpt>
      <trkpt lat="42.654554" lon="0.658788">
        <ele>2451.8</ele>
        <time>1970-01-01T08:21:48.000Z</time>
      </trkpt>
      <trkpt lat="42.654554" lon="0.658788">
        <ele>2451.8</ele>
        <time>1970-01-01T08:21:49.000Z</time>
      </trkpt>
      <trkpt lat="42.654554" lon="0.658788">
        <ele>2451.8</ele>
        <time>1970-01-01T08:21:50.000Z</time>
      </trkpt>
      <trkpt lat="42.654554" lon="0.658788">
        <ele>2451.8</ele>
        <time>1970-01-01T08:21:51.000Z</time>
      </trkpt>
      <trkpt lat="42.654554" lon="0.658788">
        <ele>2451.8</ele>
        <time>1970-01-01T08:21:52.000Z</time>
      </trkpt>
      <trkpt lat="42.654554" lon="0.658788">
        <ele>2451.8</ele>
        <time>1970-01-01T08:21:53.000Z</time>
      </trkpt>
      <trkpt lat="42.654554" lon="0.658788">
        <ele>2451.8</ele>
        <time>1970-01-01T08:21:54.000Z</time>
      </trkpt>
      <trkpt lat="42.654554" lon="0.658788">
        <ele>2451.8</ele>
        <time>1970-01-01T08:21:55.000Z</time>
      </trkpt>
      <trkpt lat="42.654554" lon="0.658788">
        <ele>2451.8</ele>
        <time>1970-01-01T08:21:56.000Z</time>
      </trkpt>
      <trkpt lat="42.654554" lon="0.658788">
        <ele>2451.8</ele>
        <time>1970-01-01T08:21:57.000Z</time>
      </trkpt>
      <trkpt lat="42.654554" lon="0.658788">
        <ele>2451.8</ele>
        <time>1970-01-01T08:21:58.000Z</time>
      </trkpt>
      <trkpt lat="42.654554" lon="0.658788">
        <ele>2451.8</ele>
        <time>1970-01-01T08:21:59.000Z</time>
      </trkpt>
      <trkpt lat="42.654554" lon="0.658788">
        <ele>2451.8</ele>
        <time>1970-01-01T08:22:00.000Z</time>
      </trkpt>
      <trkpt lat="42.654554" lon="0.658788">
        <ele>2451.8</ele>
        <time>1970-01-01T08:22:01.000Z</time>
      </trkpt>
      <trkpt lat="42.654554" lon="0.658788">
        <ele>2451.8</ele>
        <time>1970-01-01T08:22:02.000Z</time>
      </trkpt>
      <trkpt lat="42.654554" lon="0.658788">
        <ele>2451.8</ele>
        <time>1970-01-01T08:22:03.000Z</time>
      </trkpt>
      <trkpt lat="42.654554" lon="0.658788">
        <ele>2451.8</ele>
        <time>1970-01-01T08:22:04.000Z</time>
      </trkpt>
      <trkpt lat="42.654554" lon="0.658788">
        <ele>2451.8</ele>
        <time>1970-01-01T08:22:05.000Z</time>
      </trkpt>
      <trkpt lat="42.654554" lon="0.658788">
        <ele>2451.8</ele>
        <time>1970-01-01T08:22:06.000Z</time>
      </trkpt>
      <trkpt lat="42.654554" lon="0.658788">
        <ele>2451.8</ele>
        <time>1970-01-01T08:22:07.000Z</time>
      </trkpt>
      <trkpt lat="42.654554" lon="0.658788">
        <ele>2451.8</ele>
        <time>1970-01-01T08:22:08.000Z</time>
      </trkpt>
      <trkpt lat="42.654554" lon="0.658788">
        <ele>2451.8</ele>
        <time>1970-01-01T08:22:09.000Z</time>
      </trkpt>
      <trkpt lat="42.654554" lon="0.658788">
        <ele>2451.8</ele>
        <time>1970-01-01T08:22:10.000Z</time>
      </trkpt>
      <trkpt lat="42.654554" lon="0.658788">
        <ele>2451.8</ele>
        <time>1970-01-01T08:22:11.000Z</time>
      </trkpt>
      <trkpt lat="42.654554" lon="0.658788">
        <ele>2451.8</ele>
        <time>1970-01-01T08:22:12.000Z</time>
      </trkpt>
      <trkpt lat="42.654554" lon="0.658788">
        <ele>2451.8</ele>
        <time>1970-01-01T08:22:13.000Z</time>
      </trkpt>
      <trkpt lat="42.654554" lon="0.658788">
        <ele>2451.8</ele>
        <time>1970-01-01T08:22:14.000Z</time>
      </trkpt>
      <trkpt lat="42.654554" lon="0.658788">
        <ele>2451.8</ele>
        <time>1970-01-01T08:22:15.000Z</time>
      </trkpt>
      <trkpt lat="42.654554" lon="0.658788">
        <ele>2451.8</ele>
        <time>1970-01-01T08:22:16.000Z</time>
      </trkpt>
      <trkpt lat="42.654554" lon="0.658788">
        <ele>2451.8</ele>
        <time>1970-01-01T08:22:17.000Z</time>
      </trkpt>
      <trkpt lat="42.654554" lon="0.658788">
        <ele>2451.8</ele>
        <time>1970-01-01T08:22:18.000Z</time>
      </trkpt>
      <trkpt lat="42.654554" lon="0.658788">
        <ele>2451.8</ele>
        <time>1970-01-01T08:22:19.000Z</time>
      </trkpt>
      <trkpt lat="42.654554" lon="0.658788">
        <ele>2451.8</ele>
        <time>1970-01-01T08:22:20.000Z</time>
      </trkpt>
      <trkpt lat="42.654554" lon="0.658788">
        <ele>2451.8</ele>
        <time>1970-01-01T08:22:21.000Z</time>
      </trkpt>
      <trkpt lat="42.654554" lon="0.658788">
        <ele>2451.8</ele>
        <time>1970-01-01T08:22:22.000Z</time>
      </trkpt>
      <trkpt lat="42.654554" lon="0.658788">
        <ele>2451.8</ele>
        <time>1970-01-01T08:22:23.000Z</time>
      </trkpt>
      <trkpt lat="42.654554" lon="0.658788">
        <ele>2451.8</ele>
        <time>1970-01-01T08:22:24.000Z</time>
      </trkpt>
      <trkpt lat="42.654554" lon="0.658788">
        <ele>2451.8</ele>
        <time>1970-01-01T08:22:25.000Z</time>
      </trkpt>
      <trkpt lat="42.654554" lon="0.658788">
        <ele>2451.8</ele>
        <time>1970-01-01T08:22:26.000Z</time>
      </trkpt>
      <trkpt lat="42.654554" lon="0.658788">
        <ele>2451.8</ele>
        <time>1970-01-01T08:22:27.000Z</time>
      </trkpt>
      <trkpt lat="42.654554" lon="0.658788">
        <ele>2451.8</ele>
        <time>1970-01-01T08:22:28.000Z</time>
      </trkpt>
      <trkpt lat="42.654554" lon="0.658788">
        <ele>2451.8</ele>
        <time>1970-01-01T08:22:29.000Z</time>
      </trkpt>
      <trkpt lat="42.654554" lon="0.658788">
        <ele>2451.8</ele>
        <time>1970-01-01T08:22:30.000Z</time>
      </trkpt>
      <trkpt lat="42.654554" lon="0.658788">
        <ele>2451.8</ele>
        <time>1970-01-01T08:22:31.000Z</time>
      </trkpt>
      <trkpt lat="42.654554" lon="0.658788">
        <ele>2451.8</ele>
        <time>1970-01-01T08:22:32.000Z</time>
      </trkpt>
      <trkpt lat="42.654554" lon="0.658788">
        <ele>2451.8</ele>
        <time>1970-01-01T08:22:33.000Z</time>
      </trkpt>
      <trkpt lat="42.654554" lon="0.658788">
        <ele>2451.8</ele>
        <time>1970-01-01T08:22:34.000Z</time>
      </trkpt>
      <trkpt lat="42.654554" lon="0.658788">
        <ele>2451.8</ele>
        <time>1970-01-01T08:22:35.000Z</time>
      </trkpt>
      <trkpt lat="42.654554" lon="0.658788">
        <ele>2451.8</ele>
        <time>1970-01-01T08:22:36.000Z</time>
      </trkpt>
      <trkpt lat="42.654554" lon="0.658788">
        <ele>2451.8</ele>
        <time>1970-01-01T08:22:37.000Z</time>
      </trkpt>
      <trkpt lat="42.654554" lon="0.658788">
        <ele>2451.8</ele>
        <time>1970-01-01T08:22:38.000Z</time>
      </trkpt>
      <trkpt lat="42.654554" lon="0.658788">
        <ele>2451.8</ele>
        <time>1970-01-01T08:22:39.000Z</time>
      </trkpt>
      <trkpt lat="42.654554" lon="0.658788">
        <ele>2451.8</ele>
        <time>1970-01-01T08:22:40.000Z</time>
      </trkpt>
      <trkpt lat="42.654554" lon="0.658788">
        <ele>2451.8</ele>
        <time>1970-01-01T08:22:41.000Z</time>
      </trkpt>
      <trkpt lat="42.654554" lon="0.658788">
        <ele>2451.8</ele>
        <time>1970-01-01T08:22:42.000Z</time>
      </trkpt>
      <trkpt lat="42.654554" lon="0.658788">
        <ele>2451.8</ele>
        <time>1970-01-01T08:22:43.000Z</time>
      </trkpt>
      <trkpt lat="42.654554" lon="0.658788">
        <ele>2451.8</ele>
        <time>1970-01-01T08:22:44.000Z</time>
      </trkpt>
      <trkpt lat="42.654554" lon="0.658788">
        <ele>2451.8</ele>
        <time>1970-01-01T08:22:45.000Z</time>
      </trkpt>
      <trkpt lat="42.654554" lon="0.658788">
        <ele>2451.8</ele>
        <time>1970-01-01T08:22:46.000Z</time>
      </trkpt>
      <trkpt lat="42.654554" lon="0.658788">
        <ele>2451.8</ele>
        <time>1970-01-01T08:22:47.000Z</time>
      </trkpt>
      <trkpt lat="42.654554" lon="0.658788">
        <ele>2451.8</ele>
        <time>1970-01-01T08:22:48.000Z</time>
      </trkpt>
      <trkpt lat="42.654554" lon="0.658788">
        <ele>2451.8</ele>
        <time>1970-01-01T08:22:49.000Z</time>
      </trkpt>
      <trkpt lat="42.654554" lon="0.658788">
        <ele>2451.8</ele>
        <time>1970-01-01T08:22:50.000Z</time>
      </trkpt>
      <trkpt lat="42.654554" lon="0.658788">
        <ele>2451.8</ele>
        <time>1970-01-01T08:22:51.000Z</time>
      </trkpt>
      <trkpt lat="42.654554" lon="0.658788">
        <ele>2451.8</ele>
        <time>1970-01-01T08:22:52.000Z</time>
      </trkpt>
      <trkpt lat="42.654554" lon="0.658788">
        <ele>2451.8</ele>
        <time>1970-01-01T08:22:53.000Z</time>
      </trkpt>
      <trkpt lat="42.654554" lon="0.658788">
        <ele>2451.8</ele>
        <time>1970-01-01T08:22:54.000Z</time>
      </trkpt>
      <trkpt lat="42.654554" lon="0.658788">
        <ele>2451.8</ele>
        <time>1970-01-01T08:22:55.000Z</time>
      </trkpt>
      <trkpt lat="42.654554" lon="0.658788">
        <ele>2451.8</ele>
        <time>1970-01-01T08:22:56.000Z</time>
      </trkpt>
      <trkpt lat="42.654554" lon="0.658788">
        <ele>2451.8</ele>
        <time>1970-01-01T08:22:57.000Z</time>
      </trkpt>
      <trkpt lat="42.654554" lon="0.658788">
        <ele>2451.8</ele>
        <time>1970-01-01T08:22:58.000Z</time>
      </trkpt>
      <trkpt lat="42.654554" lon="0.658788">
        <ele>2451.8</ele>
        <time>1970-01-01T08:22:59.000Z</time>
      </trkpt>
      <trkpt lat="42.654554" lon="0.658788">
        <ele>2451.8</ele>
        <time>1970-01-01T08:23:00.000Z</time>
      </trkpt>
      <trkpt lat="42.654554" lon="0.658788">
        <ele>2451.8</ele>
        <time>1970-01-01T08:23:01.000Z</time>
      </trkpt>
      <trkpt lat="42.654554" lon="0.658788">
        <ele>2451.8</ele>
        <time>1970-01-01T08:23:02.000Z</time>
      </trkpt>
      <trkpt lat="42.654554" lon="0.658788">
        <ele>2451.8</ele>
        <time>1970-01-01T08:23:03.000Z</time>
      </trkpt>
      <trkpt lat="42.654554" lon="0.658788">
        <ele>2451.8</ele>
        <time>1970-01-01T08:23:04.000Z</time>
      </trkpt>
      <trkpt lat="42.654554" lon="0.658788">
        <ele>2451.8</ele>
        <time>1970-01-01T08:23:05.000Z</time>
      </trkpt>
      <trkpt lat="42.654554" lon="0.658788">
        <ele>2451.8</ele>
        <time>1970-01-01T08:23:06.000Z</time>
      </trkpt>
      <trkpt lat="42.654554" lon="0.658788">
        <ele>2451.8</ele>
        <time>1970-01-01T08:23:07.000Z</time>
      </trkpt>
      <trkpt lat="42.654554" lon="0.658788">
        <ele>2451.8</ele>
        <time>1970-01-01T08:23:08.000Z</time>
      </trkpt>
      <trkpt lat="42.654554" lon="0.658788">
        <ele>2451.8</ele>
        <time>1970-01-01T08:23:09.000Z</time>
      </trkpt>
      <trkpt lat="42.654554" lon="0.658788">
        <ele>2451.8</ele>
        <time>1970-01-01T08:23:10.000Z</time>
      </trkpt>
      <trkpt lat="42.654554" lon="0.658788">
        <ele>2451.8</ele>
        <time>1970-01-01T08:23:11.000Z</time>
      </trkpt>
      <trkpt lat="42.654554" lon="0.658788">
        <ele>2451.8</ele>
        <time>1970-01-01T08:23:12.000Z</time>
      </trkpt>
      <trkpt lat="42.654554" lon="0.658787">
        <ele>2451.8</ele>
        <time>1970-01-01T08:23:13.000Z</time>
      </trkpt>
      <trkpt lat="42.654554" lon="0.658788">
        <ele>2451.8</ele>
        <time>1970-01-01T08:23:14.000Z</time>
      </trkpt>
      <trkpt lat="42.654554" lon="0.658788">
        <ele>2451.8</ele>
        <time>1970-01-01T08:23:15.000Z</time>
      </trkpt>
      <trkpt lat="42.654554" lon="0.658787">
        <ele>2451.8</ele>
        <time>1970-01-01T08:23:16.000Z</time>
      </trkpt>
      <trkpt lat="42.654554" lon="0.658787">
        <ele>2451.8</ele>
        <time>1970-01-01T08:23:17.000Z</time>
      </trkpt>
      <trkpt lat="42.654554" lon="0.658787">
        <ele>2451.8</ele>
        <time>1970-01-01T08:23:18.000Z</time>
      </trkpt>
      <trkpt lat="42.654554" lon="0.658787">
        <ele>2451.8</ele>
        <time>1970-01-01T08:23:19.000Z</time>
      </trkpt>
      <trkpt lat="42.654554" lon="0.658787">
        <ele>2451.8</ele>
        <time>1970-01-01T08:23:20.000Z</time>
      </trkpt>
      <trkpt lat="42.654554" lon="0.658787">
        <ele>2451.8</ele>
        <time>1970-01-01T08:23:21.000Z</time>
      </trkpt>
      <trkpt lat="42.654554" lon="0.658787">
        <ele>2451.8</ele>
        <time>1970-01-01T08:23:22.000Z</time>
      </trkpt>
      <trkpt lat="42.654554" lon="0.658787">
        <ele>2451.8</ele>
        <time>1970-01-01T08:23:23.000Z</time>
      </trkpt>
      <trkpt lat="42.654554" lon="0.658787">
        <ele>2451.8</ele>
        <time>1970-01-01T08:23:24.000Z</time>
      </trkpt>
      <trkpt lat="42.654554" lon="0.658787">
        <ele>2451.8</ele>
        <time>1970-01-01T08:23:25.000Z</time>
      </trkpt>
      <trkpt lat="42.654554" lon="0.658787">
        <ele>2451.8</ele>
        <time>1970-01-01T08:23:26.000Z</time>
      </trkpt>
      <trkpt lat="42.654554" lon="0.658787">
        <ele>2451.8</ele>
        <time>1970-01-01T08:23:27.000Z</time>
      </trkpt>
      <trkpt lat="42.654554" lon="0.658787">
        <ele>2451.8</ele>
        <time>1970-01-01T08:23:28.000Z</time>
      </trkpt>
      <trkpt lat="42.654554" lon="0.658787">
        <ele>2451.8</ele>
        <time>1970-01-01T08:23:29.000Z</time>
      </trkpt>
      <trkpt lat="42.654554" lon="0.658787">
        <ele>2451.8</ele>
        <time>1970-01-01T08:23:30.000Z</time>
      </trkpt>
      <trkpt lat="42.654554" lon="0.658787">
        <ele>2451.8</ele>
        <time>1970-01-01T08:23:31.000Z</time>
      </trkpt>
      <trkpt lat="42.654554" lon="0.658787">
        <ele>2451.8</ele>
        <time>1970-01-01T08:23:32.000Z</time>
      </trkpt>
      <trkpt lat="42.654554" lon="0.658787">
        <ele>2451.8</ele>
        <time>1970-01-01T08:23:33.000Z</time>
      </trkpt>
      <trkpt lat="42.654554" lon="0.658787">
        <ele>2451.8</ele>
        <time>1970-01-01T08:23:34.000Z</time>
      </trkpt>
      <trkpt lat="42.654554" lon="0.658787">
        <ele>2451.8</ele>
        <time>1970-01-01T08:23:35.000Z</time>
      </trkpt>
      <trkpt lat="42.654554" lon="0.658787">
        <ele>2451.8</ele>
        <time>1970-01-01T08:23:36.000Z</time>
      </trkpt>
      <trkpt lat="42.654554" lon="0.658787">
        <ele>2451.8</ele>
        <time>1970-01-01T08:23:37.000Z</time>
      </trkpt>
      <trkpt lat="42.654554" lon="0.658787">
        <ele>2451.8</ele>
        <time>1970-01-01T08:23:38.000Z</time>
      </trkpt>
      <trkpt lat="42.654554" lon="0.658787">
        <ele>2451.8</ele>
        <time>1970-01-01T08:23:39.000Z</time>
      </trkpt>
      <trkpt lat="42.654554" lon="0.658787">
        <ele>2451.8</ele>
        <time>1970-01-01T08:23:40.000Z</time>
      </trkpt>
      <trkpt lat="42.654554" lon="0.658787">
        <ele>2451.8</ele>
        <time>1970-01-01T08:23:41.000Z</time>
      </trkpt>
      <trkpt lat="42.654554" lon="0.658787">
        <ele>2451.8</ele>
        <time>1970-01-01T08:23:42.000Z</time>
      </trkpt>
      <trkpt lat="42.654554" lon="0.658787">
        <ele>2451.8</ele>
        <time>1970-01-01T08:23:43.000Z</time>
      </trkpt>
      <trkpt lat="42.654554" lon="0.658787">
        <ele>2451.8</ele>
        <time>1970-01-01T08:23:44.000Z</time>
      </trkpt>
      <trkpt lat="42.654554" lon="0.658787">
        <ele>2451.8</ele>
        <time>1970-01-01T08:23:45.000Z</time>
      </trkpt>
      <trkpt lat="42.654554" lon="0.658787">
        <ele>2451.8</ele>
        <time>1970-01-01T08:23:46.000Z</time>
      </trkpt>
      <trkpt lat="42.654554" lon="0.658787">
        <ele>2451.8</ele>
        <time>1970-01-01T08:23:47.000Z</time>
      </trkpt>
      <trkpt lat="42.654554" lon="0.658787">
        <ele>2451.8</ele>
        <time>1970-01-01T08:23:48.000Z</time>
      </trkpt>
      <trkpt lat="42.654554" lon="0.658787">
        <ele>2451.8</ele>
        <time>1970-01-01T08:23:49.000Z</time>
      </trkpt>
      <trkpt lat="42.654554" lon="0.658787">
        <ele>2451.8</ele>
        <time>1970-01-01T08:23:50.000Z</time>
      </trkpt>
      <trkpt lat="42.654554" lon="0.658787">
        <ele>2451.8</ele>
        <time>1970-01-01T08:23:51.000Z</time>
      </trkpt>
      <trkpt lat="42.654554" lon="0.658787">
        <ele>2451.8</ele>
        <time>1970-01-01T08:23:52.000Z</time>
      </trkpt>
      <trkpt lat="42.654554" lon="0.658787">
        <ele>2451.8</ele>
        <time>1970-01-01T08:23:53.000Z</time>
      </trkpt>
      <trkpt lat="42.654554" lon="0.658787">
        <ele>2451.8</ele>
        <time>1970-01-01T08:23:54.000Z</time>
      </trkpt>
      <trkpt lat="42.654554" lon="0.658787">
        <ele>2451.8</ele>
        <time>1970-01-01T08:23:55.000Z</time>
      </trkpt>
      <trkpt lat="42.654554" lon="0.658787">
        <ele>2451.8</ele>
        <time>1970-01-01T08:23:56.000Z</time>
      </trkpt>
      <trkpt lat="42.654554" lon="0.658787">
        <ele>2451.8</ele>
        <time>1970-01-01T08:23:57.000Z</time>
      </trkpt>
      <trkpt lat="42.654554" lon="0.658787">
        <ele>2451.8</ele>
        <time>1970-01-01T08:23:58.000Z</time>
      </trkpt>
      <trkpt lat="42.654554" lon="0.658787">
        <ele>2451.8</ele>
        <time>1970-01-01T08:23:59.000Z</time>
      </trkpt>
      <trkpt lat="42.654554" lon="0.658787">
        <ele>2451.8</ele>
        <time>1970-01-01T08:24:00.000Z</time>
      </trkpt>
      <trkpt lat="42.654554" lon="0.658787">
        <ele>2451.8</ele>
        <time>1970-01-01T08:24:01.000Z</time>
      </trkpt>
      <trkpt lat="42.654554" lon="0.658787">
        <ele>2451.8</ele>
        <time>1970-01-01T08:24:02.000Z</time>
      </trkpt>
      <trkpt lat="42.654554" lon="0.658787">
        <ele>2451.8</ele>
        <time>1970-01-01T08:24:03.000Z</time>
      </trkpt>
      <trkpt lat="42.654554" lon="0.658787">
        <ele>2451.8</ele>
        <time>1970-01-01T08:24:04.000Z</time>
      </trkpt>
      <trkpt lat="42.654554" lon="0.658787">
        <ele>2451.8</ele>
        <time>1970-01-01T08:24:05.000Z</time>
      </trkpt>
      <trkpt lat="42.654554" lon="0.658787">
        <ele>2451.8</ele>
        <time>1970-01-01T08:24:06.000Z</time>
      </trkpt>
      <trkpt lat="42.654554" lon="0.658787">
        <ele>2451.8</ele>
        <time>1970-01-01T08:24:07.000Z</time>
      </trkpt>
      <trkpt lat="42.654554" lon="0.658787">
        <ele>2451.8</ele>
        <time>1970-01-01T08:24:08.000Z</time>
      </trkpt>
      <trkpt lat="42.654554" lon="0.658787">
        <ele>2451.8</ele>
        <time>1970-01-01T08:24:09.000Z</time>
      </trkpt>
      <trkpt lat="42.654554" lon="0.658787">
        <ele>2451.8</ele>
        <time>1970-01-01T08:24:10.000Z</time>
      </trkpt>
      <trkpt lat="42.654554" lon="0.658787">
        <ele>2451.8</ele>
        <time>1970-01-01T08:24:11.000Z</time>
      </trkpt>
      <trkpt lat="42.654554" lon="0.658787">
        <ele>2451.8</ele>
        <time>1970-01-01T08:24:12.000Z</time>
      </trkpt>
      <trkpt lat="42.654554" lon="0.658787">
        <ele>2451.8</ele>
        <time>1970-01-01T08:24:13.000Z</time>
      </trkpt>
      <trkpt lat="42.654554" lon="0.658787">
        <ele>2451.8</ele>
        <time>1970-01-01T08:24:14.000Z</time>
      </trkpt>
      <trkpt lat="42.654554" lon="0.658787">
        <ele>2451.8</ele>
        <time>1970-01-01T08:24:15.000Z</time>
      </trkpt>
      <trkpt lat="42.654554" lon="0.658787">
        <ele>2451.8</ele>
        <time>1970-01-01T08:24:16.000Z</time>
      </trkpt>
      <trkpt lat="42.654554" lon="0.658787">
        <ele>2451.8</ele>
        <time>1970-01-01T08:24:17.000Z</time>
      </trkpt>
      <trkpt lat="42.654554" lon="0.658787">
        <ele>2451.8</ele>
        <time>1970-01-01T08:24:18.000Z</time>
      </trkpt>
      <trkpt lat="42.654554" lon="0.658787">
        <ele>2451.8</ele>
        <time>1970-01-01T08:24:19.000Z</time>
      </trkpt>
      <trkpt lat="42.654554" lon="0.658787">
        <ele>2451.8</ele>
        <time>1970-01-01T08:24:20.000Z</time>
      </trkpt>
      <trkpt lat="42.654554" lon="0.658787">
        <ele>2451.8</ele>
        <time>1970-01-01T08:24:21.000Z</time>
      </trkpt>
      <trkpt lat="42.654554" lon="0.658787">
        <ele>2451.8</ele>
        <time>1970-01-01T08:24:22.000Z</time>
      </trkpt>
      <trkpt lat="42.654554" lon="0.658787">
        <ele>2451.8</ele>
        <time>1970-01-01T08:24:23.000Z</time>
      </trkpt>
      <trkpt lat="42.654554" lon="0.658787">
        <ele>2451.8</ele>
        <time>1970-01-01T08:24:24.000Z</time>
      </trkpt>
      <trkpt lat="42.654554" lon="0.658787">
        <ele>2451.8</ele>
        <time>1970-01-01T08:24:25.000Z</time>
      </trkpt>
      <trkpt lat="42.654554" lon="0.658787">
        <ele>2451.8</ele>
        <time>1970-01-01T08:24:26.000Z</time>
      </trkpt>
      <trkpt lat="42.654554" lon="0.658787">
        <ele>2451.8</ele>
        <time>1970-01-01T08:24:27.000Z</time>
      </trkpt>
      <trkpt lat="42.654554" lon="0.658787">
        <ele>2451.8</ele>
        <time>1970-01-01T08:24:28.000Z</time>
      </trkpt>
      <trkpt lat="42.654554" lon="0.658787">
        <ele>2451.8</ele>
        <time>1970-01-01T08:24:29.000Z</time>
      </trkpt>
      <trkpt lat="42.654554" lon="0.658787">
        <ele>2451.8</ele>
        <time>1970-01-01T08:24:30.000Z</time>
      </trkpt>
      <trkpt lat="42.654554" lon="0.658787">
        <ele>2451.8</ele>
        <time>1970-01-01T08:24:31.000Z</time>
      </trkpt>
      <trkpt lat="42.654554" lon="0.658787">
        <ele>2451.8</ele>
        <time>1970-01-01T08:24:32.000Z</time>
      </trkpt>
      <trkpt lat="42.654554" lon="0.658787">
        <ele>2451.8</ele>
        <time>1970-01-01T08:24:33.000Z</time>
      </trkpt>
      <trkpt lat="42.654554" lon="0.658787">
        <ele>2451.8</ele>
        <time>1970-01-01T08:24:34.000Z</time>
      </trkpt>
      <trkpt lat="42.654554" lon="0.658787">
        <ele>2451.8</ele>
        <time>1970-01-01T08:24:35.000Z</time>
      </trkpt>
      <trkpt lat="42.654554" lon="0.658788">
        <ele>2451.8</ele>
        <time>1970-01-01T08:24:36.000Z</time>
      </trkpt>
      <trkpt lat="42.654554" lon="0.658788">
        <ele>2451.8</ele>
        <time>1970-01-01T08:24:37.000Z</time>
      </trkpt>
      <trkpt lat="42.654554" lon="0.658788">
        <ele>2451.8</ele>
        <time>1970-01-01T08:24:38.000Z</time>
      </trkpt>
      <trkpt lat="42.654554" lon="0.658788">
        <ele>2451.8</ele>
        <time>1970-01-01T08:24:39.000Z</time>
      </trkpt>
      <trkpt lat="42.654554" lon="0.658788">
        <ele>2451.8</ele>
        <time>1970-01-01T08:24:40.000Z</time>
      </trkpt>
      <trkpt lat="42.654554" lon="0.658788">
        <ele>2451.8</ele>
        <time>1970-01-01T08:24:41.000Z</time>
      </trkpt>
      <trkpt lat="42.654554" lon="0.658788">
        <ele>2451.8</ele>
        <time>1970-01-01T08:24:42.000Z</time>
      </trkpt>
      <trkpt lat="42.654554" lon="0.658788">
        <ele>2451.8</ele>
        <time>1970-01-01T08:24:43.000Z</time>
      </trkpt>
      <trkpt lat="42.654554" lon="0.658788">
        <ele>2451.8</ele>
        <time>1970-01-01T08:24:44.000Z</time>
      </trkpt>
      <trkpt lat="42.654554" lon="0.658788">
        <ele>2451.8</ele>
        <time>1970-01-01T08:24:45.000Z</time>
      </trkpt>
      <trkpt lat="42.654554" lon="0.658788">
        <ele>2451.8</ele>
        <time>1970-01-01T08:24:46.000Z</time>
      </trkpt>
      <trkpt lat="42.654554" lon="0.658788">
        <ele>2451.8</ele>
        <time>1970-01-01T08:24:47.000Z</time>
      </trkpt>
      <trkpt lat="42.654554" lon="0.658788">
        <ele>2451.8</ele>
        <time>1970-01-01T08:24:48.000Z</time>
      </trkpt>
      <trkpt lat="42.654554" lon="0.658788">
        <ele>2451.8</ele>
        <time>1970-01-01T08:24:49.000Z</time>
      </trkpt>
      <trkpt lat="42.654554" lon="0.658788">
        <ele>2451.8</ele>
        <time>1970-01-01T08:24:50.000Z</time>
      </trkpt>
      <trkpt lat="42.654554" lon="0.658788">
        <ele>2451.8</ele>
        <time>1970-01-01T08:24:51.000Z</time>
      </trkpt>
      <trkpt lat="42.654554" lon="0.658788">
        <ele>2451.8</ele>
        <time>1970-01-01T08:24:52.000Z</time>
      </trkpt>
      <trkpt lat="42.654554" lon="0.658788">
        <ele>2451.8</ele>
        <time>1970-01-01T08:24:53.000Z</time>
      </trkpt>
      <trkpt lat="42.654554" lon="0.658788">
        <ele>2451.8</ele>
        <time>1970-01-01T08:24:54.000Z</time>
      </trkpt>
      <trkpt lat="42.654554" lon="0.658788">
        <ele>2451.8</ele>
        <time>1970-01-01T08:24:55.000Z</time>
      </trkpt>
      <trkpt lat="42.654554" lon="0.658788">
        <ele>2451.8</ele>
        <time>1970-01-01T08:24:56.000Z</time>
      </trkpt>
      <trkpt lat="42.654554" lon="0.658788">
        <ele>2451.8</ele>
        <time>1970-01-01T08:24:57.000Z</time>
      </trkpt>
      <trkpt lat="42.654554" lon="0.658788">
        <ele>2451.8</ele>
        <time>1970-01-01T08:24:58.000Z</time>
      </trkpt>
      <trkpt lat="42.654554" lon="0.658788">
        <ele>2451.8</ele>
        <time>1970-01-01T08:24:59.000Z</time>
      </trkpt>
      <trkpt lat="42.654554" lon="0.658788">
        <ele>2451.8</ele>
        <time>1970-01-01T08:25:00.000Z</time>
      </trkpt>
      <trkpt lat="42.654554" lon="0.658788">
        <ele>2451.8</ele>
        <time>1970-01-01T08:25:01.000Z</time>
      </trkpt>
      <trkpt lat="42.654554" lon="0.658788">
        <ele>2451.8</ele>
        <time>1970-01-01T08:25:02.000Z</time>
      </trkpt>
      <trkpt lat="42.654554" lon="0.658788">
        <ele>2451.8</ele>
        <time>1970-01-01T08:25:03.000Z</time>
      </trkpt>
      <trkpt lat="42.654554" lon="0.658788">
        <ele>2451.8</ele>
        <time>1970-01-01T08:25:04.000Z</time>
      </trkpt>
      <trkpt lat="42.654554" lon="0.658788">
        <ele>2451.8</ele>
        <time>1970-01-01T08:25:05.000Z</time>
      </trkpt>
      <trkpt lat="42.654554" lon="0.658788">
        <ele>2451.8</ele>
        <time>1970-01-01T08:25:06.000Z</time>
      </trkpt>
      <trkpt lat="42.654554" lon="0.658788">
        <ele>2451.8</ele>
        <time>1970-01-01T08:25:07.000Z</time>
      </trkpt>
      <trkpt lat="42.654554" lon="0.658788">
        <ele>2451.8</ele>
        <time>1970-01-01T08:25:08.000Z</time>
      </trkpt>
      <trkpt lat="42.654554" lon="0.658788">
        <ele>2451.8</ele>
        <time>1970-01-01T08:25:09.000Z</time>
      </trkpt>
      <trkpt lat="42.654554" lon="0.658788">
        <ele>2451.8</ele>
        <time>1970-01-01T08:25:10.000Z</time>
      </trkpt>
      <trkpt lat="42.654554" lon="0.658788">
        <ele>2451.8</ele>
        <time>1970-01-01T08:25:11.000Z</time>
      </trkpt>
      <trkpt lat="42.654554" lon="0.658788">
        <ele>2451.8</ele>
        <time>1970-01-01T08:25:12.000Z</time>
      </trkpt>
      <trkpt lat="42.654554" lon="0.658788">
        <ele>2451.8</ele>
        <time>1970-01-01T08:25:13.000Z</time>
      </trkpt>
      <trkpt lat="42.654554" lon="0.658788">
        <ele>2451.8</ele>
        <time>1970-01-01T08:25:14.000Z</time>
      </trkpt>
      <trkpt lat="42.654554" lon="0.658788">
        <ele>2451.8</ele>
        <time>1970-01-01T08:25:15.000Z</time>
      </trkpt>
      <trkpt lat="42.654554" lon="0.658788">
        <ele>2451.8</ele>
        <time>1970-01-01T08:25:16.000Z</time>
      </trkpt>
      <trkpt lat="42.654554" lon="0.658788">
        <ele>2451.8</ele>
        <time>1970-01-01T08:25:17.000Z</time>
      </trkpt>
      <trkpt lat="42.654554" lon="0.658788">
        <ele>2451.8</ele>
        <time>1970-01-01T08:25:18.000Z</time>
      </trkpt>
      <trkpt lat="42.654554" lon="0.658788">
        <ele>2451.8</ele>
        <time>1970-01-01T08:25:19.000Z</time>
      </trkpt>
      <trkpt lat="42.654554" lon="0.658788">
        <ele>2451.8</ele>
        <time>1970-01-01T08:25:20.000Z</time>
      </trkpt>
      <trkpt lat="42.654554" lon="0.658788">
        <ele>2451.8</ele>
        <time>1970-01-01T08:25:21.000Z</time>
      </trkpt>
      <trkpt lat="42.654554" lon="0.658788">
        <ele>2451.8</ele>
        <time>1970-01-01T08:25:22.000Z</time>
      </trkpt>
      <trkpt lat="42.654554" lon="0.658788">
        <ele>2451.8</ele>
        <time>1970-01-01T08:25:23.000Z</time>
      </trkpt>
      <trkpt lat="42.654554" lon="0.658788">
        <ele>2451.8</ele>
        <time>1970-01-01T08:25:24.000Z</time>
      </trkpt>
      <trkpt lat="42.654554" lon="0.658788">
        <ele>2451.8</ele>
        <time>1970-01-01T08:25:25.000Z</time>
      </trkpt>
      <trkpt lat="42.654554" lon="0.658788">
        <ele>2451.8</ele>
        <time>1970-01-01T08:25:26.000Z</time>
      </trkpt>
      <trkpt lat="42.654554" lon="0.658788">
        <ele>2451.8</ele>
        <time>1970-01-01T08:25:27.000Z</time>
      </trkpt>
      <trkpt lat="42.654554" lon="0.658788">
        <ele>2451.8</ele>
        <time>1970-01-01T08:25:28.000Z</time>
      </trkpt>
      <trkpt lat="42.654554" lon="0.658788">
        <ele>2451.8</ele>
        <time>1970-01-01T08:25:29.000Z</time>
      </trkpt>
      <trkpt lat="42.654554" lon="0.658788">
        <ele>2451.8</ele>
        <time>1970-01-01T08:25:30.000Z</time>
      </trkpt>
      <trkpt lat="42.654554" lon="0.658788">
        <ele>2451.8</ele>
        <time>1970-01-01T08:25:31.000Z</time>
      </trkpt>
      <trkpt lat="42.654554" lon="0.658788">
        <ele>2451.8</ele>
        <time>1970-01-01T08:25:32.000Z</time>
      </trkpt>
      <trkpt lat="42.654554" lon="0.658788">
        <ele>2451.8</ele>
        <time>1970-01-01T08:25:33.000Z</time>
      </trkpt>
      <trkpt lat="42.654554" lon="0.658788">
        <ele>2451.8</ele>
        <time>1970-01-01T08:25:34.000Z</time>
      </trkpt>
      <trkpt lat="42.654554" lon="0.658788">
        <ele>2451.8</ele>
        <time>1970-01-01T08:25:35.000Z</time>
      </trkpt>
      <trkpt lat="42.654554" lon="0.658788">
        <ele>2451.8</ele>
        <time>1970-01-01T08:25:36.000Z</time>
      </trkpt>
      <trkpt lat="42.654554" lon="0.658788">
        <ele>2451.8</ele>
        <time>1970-01-01T08:25:37.000Z</time>
      </trkpt>
      <trkpt lat="42.654555" lon="0.658788">
        <ele>2451.8</ele>
        <time>1970-01-01T08:25:38.000Z</time>
      </trkpt>
      <trkpt lat="42.654555" lon="0.658788">
        <ele>2451.8</ele>
        <time>1970-01-01T08:25:39.000Z</time>
      </trkpt>
      <trkpt lat="42.654555" lon="0.658788">
        <ele>2451.8</ele>
        <time>1970-01-01T08:25:40.000Z</time>
      </trkpt>
      <trkpt lat="42.654555" lon="0.658788">
        <ele>2451.8</ele>
        <time>1970-01-01T08:25:41.000Z</time>
      </trkpt>
      <trkpt lat="42.654555" lon="0.658788">
        <ele>2451.8</ele>
        <time>1970-01-01T08:25:42.000Z</time>
      </trkpt>
      <trkpt lat="42.654555" lon="0.658788">
        <ele>2451.8</ele>
        <time>1970-01-01T08:25:43.000Z</time>
      </trkpt>
      <trkpt lat="42.654555" lon="0.658788">
        <ele>2451.8</ele>
        <time>1970-01-01T08:25:44.000Z</time>
      </trkpt>
      <trkpt lat="42.654555" lon="0.658788">
        <ele>2451.8</ele>
        <time>1970-01-01T08:25:45.000Z</time>
      </trkpt>
      <trkpt lat="42.654555" lon="0.658788">
        <ele>2451.8</ele>
        <time>1970-01-01T08:25:46.000Z</time>
      </trkpt>
      <trkpt lat="42.654555" lon="0.658788">
        <ele>2451.8</ele>
        <time>1970-01-01T08:25:47.000Z</time>
      </trkpt>
      <trkpt lat="42.654555" lon="0.658788">
        <ele>2451.8</ele>
        <time>1970-01-01T08:25:48.000Z</time>
      </trkpt>
      <trkpt lat="42.654555" lon="0.658788">
        <ele>2451.8</ele>
        <time>1970-01-01T08:25:49.000Z</time>
      </trkpt>
      <trkpt lat="42.654555" lon="0.658788">
        <ele>2451.8</ele>
        <time>1970-01-01T08:25:50.000Z</time>
      </trkpt>
      <trkpt lat="42.654555" lon="0.658788">
        <ele>2451.8</ele>
        <time>1970-01-01T08:25:51.000Z</time>
      </trkpt>
      <trkpt lat="42.654555" lon="0.658788">
        <ele>2451.8</ele>
        <time>1970-01-01T08:25:52.000Z</time>
      </trkpt>
      <trkpt lat="42.654555" lon="0.658788">
        <ele>2451.8</ele>
        <time>1970-01-01T08:25:53.000Z</time>
      </trkpt>
      <trkpt lat="42.654555" lon="0.658788">
        <ele>2451.8</ele>
        <time>1970-01-01T08:25:54.000Z</time>
      </trkpt>
      <trkpt lat="42.654555" lon="0.658788">
        <ele>2451.8</ele>
        <time>1970-01-01T08:25:55.000Z</time>
      </trkpt>
      <trkpt lat="42.654555" lon="0.658788">
        <ele>2451.8</ele>
        <time>1970-01-01T08:25:56.000Z</time>
      </trkpt>
      <trkpt lat="42.654555" lon="0.658788">
        <ele>2451.8</ele>
        <time>1970-01-01T08:25:57.000Z</time>
      </trkpt>
      <trkpt lat="42.654555" lon="0.658788">
        <ele>2451.8</ele>
        <time>1970-01-01T08:25:58.000Z</time>
      </trkpt>
      <trkpt lat="42.654555" lon="0.658788">
        <ele>2451.8</ele>
        <time>1970-01-01T08:25:59.000Z</time>
      </trkpt>
      <trkpt lat="42.654555" lon="0.658788">
        <ele>2451.8</ele>
        <time>1970-01-01T08:26:00.000Z</time>
      </trkpt>
      <trkpt lat="42.654555" lon="0.658788">
        <ele>2451.8</ele>
        <time>1970-01-01T08:26:01.000Z</time>
      </trkpt>
      <trkpt lat="42.654555" lon="0.658788">
        <ele>2451.8</ele>
        <time>1970-01-01T08:26:02.000Z</time>
      </trkpt>
      <trkpt lat="42.654555" lon="0.658788">
        <ele>2451.8</ele>
        <time>1970-01-01T08:26:03.000Z</time>
      </trkpt>
      <trkpt lat="42.654555" lon="0.658788">
        <ele>2451.8</ele>
        <time>1970-01-01T08:26:04.000Z</time>
      </trkpt>
      <trkpt lat="42.654555" lon="0.658788">
        <ele>2451.8</ele>
        <time>1970-01-01T08:26:05.000Z</time>
      </trkpt>
      <trkpt lat="42.654555" lon="0.658788">
        <ele>2451.8</ele>
        <time>1970-01-01T08:26:06.000Z</time>
      </trkpt>
      <trkpt lat="42.654555" lon="0.658788">
        <ele>2451.8</ele>
        <time>1970-01-01T08:26:07.000Z</time>
      </trkpt>
      <trkpt lat="42.654555" lon="0.658788">
        <ele>2451.8</ele>
        <time>1970-01-01T08:26:08.000Z</time>
      </trkpt>
      <trkpt lat="42.654555" lon="0.658788">
        <ele>2451.8</ele>
        <time>1970-01-01T08:26:09.000Z</time>
      </trkpt>
      <trkpt lat="42.654555" lon="0.658788">
        <ele>2451.8</ele>
        <time>1970-01-01T08:26:10.000Z</time>
      </trkpt>
      <trkpt lat="42.654555" lon="0.658788">
        <ele>2451.8</ele>
        <time>1970-01-01T08:26:11.000Z</time>
      </trkpt>
      <trkpt lat="42.654555" lon="0.658788">
        <ele>2451.8</ele>
        <time>1970-01-01T08:26:12.000Z</time>
      </trkpt>
      <trkpt lat="42.654555" lon="0.658788">
        <ele>2451.8</ele>
        <time>1970-01-01T08:26:13.000Z</time>
      </trkpt>
      <trkpt lat="42.654555" lon="0.658788">
        <ele>2451.8</ele>
        <time>1970-01-01T08:26:14.000Z</time>
      </trkpt>
      <trkpt lat="42.654555" lon="0.658788">
        <ele>2451.8</ele>
        <time>1970-01-01T08:26:15.000Z</time>
      </trkpt>
      <trkpt lat="42.654555" lon="0.658788">
        <ele>2451.8</ele>
        <time>1970-01-01T08:26:16.000Z</time>
      </trkpt>
      <trkpt lat="42.654555" lon="0.658788">
        <ele>2451.8</ele>
        <time>1970-01-01T08:26:17.000Z</time>
      </trkpt>
      <trkpt lat="42.654555" lon="0.658788">
        <ele>2451.8</ele>
        <time>1970-01-01T08:26:18.000Z</time>
      </trkpt>
      <trkpt lat="42.654555" lon="0.658788">
        <ele>2451.8</ele>
        <time>1970-01-01T08:26:19.000Z</time>
      </trkpt>
      <trkpt lat="42.654555" lon="0.658788">
        <ele>2451.8</ele>
        <time>1970-01-01T08:26:20.000Z</time>
      </trkpt>
      <trkpt lat="42.654555" lon="0.658788">
        <ele>2451.8</ele>
        <time>1970-01-01T08:26:21.000Z</time>
      </trkpt>
      <trkpt lat="42.654555" lon="0.658788">
        <ele>2451.8</ele>
        <time>1970-01-01T08:26:22.000Z</time>
      </trkpt>
      <trkpt lat="42.654555" lon="0.658788">
        <ele>2451.8</ele>
        <time>1970-01-01T08:26:23.000Z</time>
      </trkpt>
      <trkpt lat="42.654555" lon="0.658788">
        <ele>2451.8</ele>
        <time>1970-01-01T08:26:24.000Z</time>
      </trkpt>
      <trkpt lat="42.654555" lon="0.658788">
        <ele>2451.8</ele>
        <time>1970-01-01T08:26:25.000Z</time>
      </trkpt>
      <trkpt lat="42.654555" lon="0.658788">
        <ele>2451.8</ele>
        <time>1970-01-01T08:26:26.000Z</time>
      </trkpt>
      <trkpt lat="42.654555" lon="0.658788">
        <ele>2451.8</ele>
        <time>1970-01-01T08:26:27.000Z</time>
      </trkpt>
      <trkpt lat="42.654555" lon="0.658788">
        <ele>2451.8</ele>
        <time>1970-01-01T08:26:28.000Z</time>
      </trkpt>
      <trkpt lat="42.654555" lon="0.658788">
        <ele>2451.8</ele>
        <time>1970-01-01T08:26:29.000Z</time>
      </trkpt>
      <trkpt lat="42.654555" lon="0.658788">
        <ele>2451.8</ele>
        <time>1970-01-01T08:26:30.000Z</time>
      </trkpt>
      <trkpt lat="42.654555" lon="0.658788">
        <ele>2451.8</ele>
        <time>1970-01-01T08:26:31.000Z</time>
      </trkpt>
      <trkpt lat="42.654555" lon="0.658788">
        <ele>2451.8</ele>
        <time>1970-01-01T08:26:32.000Z</time>
      </trkpt>
      <trkpt lat="42.654555" lon="0.658788">
        <ele>2451.8</ele>
        <time>1970-01-01T08:26:33.000Z</time>
      </trkpt>
      <trkpt lat="42.654555" lon="0.658788">
        <ele>2451.8</ele>
        <time>1970-01-01T08:26:34.000Z</time>
      </trkpt>
      <trkpt lat="42.654555" lon="0.658788">
        <ele>2451.8</ele>
        <time>1970-01-01T08:26:35.000Z</time>
      </trkpt>
      <trkpt lat="42.654555" lon="0.658788">
        <ele>2451.8</ele>
        <time>1970-01-01T08:26:36.000Z</time>
      </trkpt>
      <trkpt lat="42.654555" lon="0.658788">
        <ele>2451.8</ele>
        <time>1970-01-01T08:26:37.000Z</time>
      </trkpt>
      <trkpt lat="42.654555" lon="0.658788">
        <ele>2451.8</ele>
        <time>1970-01-01T08:26:38.000Z</time>
      </trkpt>
      <trkpt lat="42.654555" lon="0.658788">
        <ele>2451.8</ele>
        <time>1970-01-01T08:26:39.000Z</time>
      </trkpt>
      <trkpt lat="42.654555" lon="0.658788">
        <ele>2451.8</ele>
        <time>1970-01-01T08:26:40.000Z</time>
      </trkpt>
      <trkpt lat="42.654555" lon="0.658788">
        <ele>2451.8</ele>
        <time>1970-01-01T08:26:41.000Z</time>
      </trkpt>
      <trkpt lat="42.654555" lon="0.658788">
        <ele>2451.8</ele>
        <time>1970-01-01T08:26:42.000Z</time>
      </trkpt>
      <trkpt lat="42.654555" lon="0.658788">
        <ele>2451.8</ele>
        <time>1970-01-01T08:26:43.000Z</time>
      </trkpt>
      <trkpt lat="42.654555" lon="0.658788">
        <ele>2451.8</ele>
        <time>1970-01-01T08:26:44.000Z</time>
      </trkpt>
      <trkpt lat="42.654555" lon="0.658788">
        <ele>2451.8</ele>
        <time>1970-01-01T08:26:45.000Z</time>
      </trkpt>
      <trkpt lat="42.654555" lon="0.658788">
        <ele>2451.8</ele>
        <time>1970-01-01T08:26:46.000Z</time>
      </trkpt>
      <trkpt lat="42.654555" lon="0.658788">
        <ele>2451.8</ele>
        <time>1970-01-01T08:26:47.000Z</time>
      </trkpt>
      <trkpt lat="42.654555" lon="0.658788">
        <ele>2451.8</ele>
        <time>1970-01-01T08:26:48.000Z</time>
      </trkpt>
      <trkpt lat="42.654555" lon="0.658788">
        <ele>2451.8</ele>
        <time>1970-01-01T08:26:49.000Z</time>
      </trkpt>
      <trkpt lat="42.654555" lon="0.658788">
        <ele>2451.8</ele>
        <time>1970-01-01T08:26:50.000Z</time>
      </trkpt>
      <trkpt lat="42.654555" lon="0.658788">
        <ele>2451.8</ele>
        <time>1970-01-01T08:26:51.000Z</time>
      </trkpt>
      <trkpt lat="42.654555" lon="0.658788">
        <ele>2451.8</ele>
        <time>1970-01-01T08:26:52.000Z</time>
      </trkpt>
      <trkpt lat="42.654555" lon="0.658788">
        <ele>2451.8</ele>
        <time>1970-01-01T08:26:53.000Z</time>
      </trkpt>
      <trkpt lat="42.654555" lon="0.658788">
        <ele>2451.8</ele>
        <time>1970-01-01T08:26:54.000Z</time>
      </trkpt>
      <trkpt lat="42.654555" lon="0.658788">
        <ele>2451.8</ele>
        <time>1970-01-01T08:26:55.000Z</time>
      </trkpt>
      <trkpt lat="42.654555" lon="0.658788">
        <ele>2451.8</ele>
        <time>1970-01-01T08:26:56.000Z</time>
      </trkpt>
      <trkpt lat="42.654555" lon="0.658788">
        <ele>2451.8</ele>
        <time>1970-01-01T08:26:57.000Z</time>
      </trkpt>
      <trkpt lat="42.654555" lon="0.658788">
        <ele>2451.8</ele>
        <time>1970-01-01T08:26:58.000Z</time>
      </trkpt>
      <trkpt lat="42.654555" lon="0.658788">
        <ele>2451.8</ele>
        <time>1970-01-01T08:26:59.000Z</time>
      </trkpt>
      <trkpt lat="42.654555" lon="0.658788">
        <ele>2451.8</ele>
        <time>1970-01-01T08:27:00.000Z</time>
      </trkpt>
      <trkpt lat="42.654555" lon="0.658788">
        <ele>2451.8</ele>
        <time>1970-01-01T08:27:01.000Z</time>
      </trkpt>
      <trkpt lat="42.654555" lon="0.658788">
        <ele>2451.8</ele>
        <time>1970-01-01T08:27:02.000Z</time>
      </trkpt>
      <trkpt lat="42.654555" lon="0.658788">
        <ele>2451.8</ele>
        <time>1970-01-01T08:27:03.000Z</time>
      </trkpt>
      <trkpt lat="42.654555" lon="0.658788">
        <ele>2451.8</ele>
        <time>1970-01-01T08:27:04.000Z</time>
      </trkpt>
      <trkpt lat="42.654555" lon="0.658788">
        <ele>2451.8</ele>
        <time>1970-01-01T08:27:05.000Z</time>
      </trkpt>
      <trkpt lat="42.654555" lon="0.658788">
        <ele>2451.8</ele>
        <time>1970-01-01T08:27:06.000Z</time>
      </trkpt>
      <trkpt lat="42.654555" lon="0.658788">
        <ele>2451.8</ele>
        <time>1970-01-01T08:27:07.000Z</time>
      </trkpt>
      <trkpt lat="42.654555" lon="0.658788">
        <ele>2451.8</ele>
        <time>1970-01-01T08:27:08.000Z</time>
      </trkpt>
      <trkpt lat="42.654555" lon="0.658788">
        <ele>2451.8</ele>
        <time>1970-01-01T08:27:09.000Z</time>
      </trkpt>
      <trkpt lat="42.654555" lon="0.658788">
        <ele>2451.8</ele>
        <time>1970-01-01T08:27:10.000Z</time>
      </trkpt>
      <trkpt lat="42.654555" lon="0.658788">
        <ele>2451.8</ele>
        <time>1970-01-01T08:27:11.000Z</time>
      </trkpt>
      <trkpt lat="42.654555" lon="0.658788">
        <ele>2451.8</ele>
        <time>1970-01-01T08:27:12.000Z</time>
      </trkpt>
      <trkpt lat="42.654555" lon="0.658788">
        <ele>2451.8</ele>
        <time>1970-01-01T08:27:13.000Z</time>
      </trkpt>
      <trkpt lat="42.654555" lon="0.658788">
        <ele>2451.8</ele>
        <time>1970-01-01T08:27:14.000Z</time>
      </trkpt>
      <trkpt lat="42.654555" lon="0.658788">
        <ele>2451.8</ele>
        <time>1970-01-01T08:27:15.000Z</time>
      </trkpt>
      <trkpt lat="42.654555" lon="0.658788">
        <ele>2451.8</ele>
        <time>1970-01-01T08:27:16.000Z</time>
      </trkpt>
      <trkpt lat="42.654555" lon="0.658788">
        <ele>2451.8</ele>
        <time>1970-01-01T08:27:17.000Z</time>
      </trkpt>
      <trkpt lat="42.654554" lon="0.65879">
        <ele>2451.8</ele>
        <time>1970-01-01T08:27:18.000Z</time>
      </trkpt>
      <trkpt lat="42.654554" lon="0.658791">
        <ele>2451.8</ele>
        <time>1970-01-01T08:27:19.000Z</time>
      </trkpt>
      <trkpt lat="42.654555" lon="0.658792">
        <ele>2451.8</ele>
        <time>1970-01-01T08:27:20.000Z</time>
      </trkpt>
      <trkpt lat="42.654555" lon="0.658792">
        <ele>2451.8</ele>
        <time>1970-01-01T08:27:21.000Z</time>
      </trkpt>
      <trkpt lat="42.654556" lon="0.658792">
        <ele>2451.8</ele>
        <time>1970-01-01T08:27:22.000Z</time>
      </trkpt>
      <trkpt lat="42.654556" lon="0.658792">
        <ele>2451.8</ele>
        <time>1970-01-01T08:27:23.000Z</time>
      </trkpt>
      <trkpt lat="42.654556" lon="0.658792">
        <ele>2451.8</ele>
        <time>1970-01-01T08:27:24.000Z</time>
      </trkpt>
      <trkpt lat="42.654556" lon="0.658792">
        <ele>2451.8</ele>
        <time>1970-01-01T08:27:25.000Z</time>
      </trkpt>
      <trkpt lat="42.654556" lon="0.658792">
        <ele>2451.8</ele>
        <time>1970-01-01T08:27:26.000Z</time>
      </trkpt>
      <trkpt lat="42.654556" lon="0.658792">
        <ele>2451.8</ele>
        <time>1970-01-01T08:27:27.000Z</time>
      </trkpt>
      <trkpt lat="42.654556" lon="0.658792">
        <ele>2451.8</ele>
        <time>1970-01-01T08:27:28.000Z</time>
      </trkpt>
      <trkpt lat="42.654556" lon="0.658792">
        <ele>2451.8</ele>
        <time>1970-01-01T08:27:29.000Z</time>
      </trkpt>
      <trkpt lat="42.654556" lon="0.658792">
        <ele>2451.8</ele>
        <time>1970-01-01T08:27:30.000Z</time>
      </trkpt>
      <trkpt lat="42.654555" lon="0.658794">
        <ele>2451.8</ele>
        <time>1970-01-01T08:27:31.000Z</time>
      </trkpt>
      <trkpt lat="42.654555" lon="0.658795">
        <ele>2451.8</ele>
        <time>1970-01-01T08:27:32.000Z</time>
      </trkpt>
      <trkpt lat="42.654555" lon="0.658795">
        <ele>2451.8</ele>
        <time>1970-01-01T08:27:33.000Z</time>
      </trkpt>
      <trkpt lat="42.654556" lon="0.658794">
        <ele>2451.8</ele>
        <time>1970-01-01T08:27:34.000Z</time>
      </trkpt>
      <trkpt lat="42.654556" lon="0.658793">
        <ele>2451.8</ele>
        <time>1970-01-01T08:27:35.000Z</time>
      </trkpt>
      <trkpt lat="42.654556" lon="0.658793">
        <ele>2451.8</ele>
        <time>1970-01-01T08:27:36.000Z</time>
      </trkpt>
      <trkpt lat="42.654556" lon="0.658793">
        <ele>2451.8</ele>
        <time>1970-01-01T08:27:37.000Z</time>
      </trkpt>
      <trkpt lat="42.654556" lon="0.658793">
        <ele>2451.8</ele>
        <time>1970-01-01T08:27:38.000Z</time>
      </trkpt>
      <trkpt lat="42.654556" lon="0.658793">
        <ele>2451.8</ele>
        <time>1970-01-01T08:27:39.000Z</time>
      </trkpt>
      <trkpt lat="42.654556" lon="0.658793">
        <ele>2451.8</ele>
        <time>1970-01-01T08:27:40.000Z</time>
      </trkpt>
      <trkpt lat="42.654556" lon="0.658793">
        <ele>2451.8</ele>
        <time>1970-01-01T08:27:41.000Z</time>
      </trkpt>
      <trkpt lat="42.654556" lon="0.658793">
        <ele>2451.8</ele>
        <time>1970-01-01T08:27:42.000Z</time>
      </trkpt>
      <trkpt lat="42.654556" lon="0.658793">
        <ele>2451.8</ele>
        <time>1970-01-01T08:27:43.000Z</time>
      </trkpt>
      <trkpt lat="42.654556" lon="0.658793">
        <ele>2451.8</ele>
        <time>1970-01-01T08:27:44.000Z</time>
      </trkpt>
      <trkpt lat="42.654556" lon="0.658793">
        <ele>2451.8</ele>
        <time>1970-01-01T08:27:45.000Z</time>
      </trkpt>
      <trkpt lat="42.654556" lon="0.658793">
        <ele>2451.8</ele>
        <time>1970-01-01T08:27:46.000Z</time>
      </trkpt>
      <trkpt lat="42.654556" lon="0.658793">
        <ele>2451.8</ele>
        <time>1970-01-01T08:27:47.000Z</time>
      </trkpt>
      <trkpt lat="42.654556" lon="0.658793">
        <ele>2451.8</ele>
        <time>1970-01-01T08:27:48.000Z</time>
      </trkpt>
      <trkpt lat="42.654556" lon="0.658793">
        <ele>2451.8</ele>
        <time>1970-01-01T08:27:49.000Z</time>
      </trkpt>
      <trkpt lat="42.654556" lon="0.658793">
        <ele>2451.8</ele>
        <time>1970-01-01T08:27:50.000Z</time>
      </trkpt>
      <trkpt lat="42.654556" lon="0.658793">
        <ele>2451.8</ele>
        <time>1970-01-01T08:27:51.000Z</time>
      </trkpt>
      <trkpt lat="42.654556" lon="0.658793">
        <ele>2451.8</ele>
        <time>1970-01-01T08:27:52.000Z</time>
      </trkpt>
      <trkpt lat="42.654556" lon="0.658793">
        <ele>2451.8</ele>
        <time>1970-01-01T08:27:53.000Z</time>
      </trkpt>
      <trkpt lat="42.654556" lon="0.658793">
        <ele>2451.8</ele>
        <time>1970-01-01T08:27:54.000Z</time>
      </trkpt>
      <trkpt lat="42.654556" lon="0.658793">
        <ele>2451.8</ele>
        <time>1970-01-01T08:27:55.000Z</time>
      </trkpt>
      <trkpt lat="42.654556" lon="0.658793">
        <ele>2451.8</ele>
        <time>1970-01-01T08:27:56.000Z</time>
      </trkpt>
      <trkpt lat="42.654556" lon="0.658793">
        <ele>2451.8</ele>
        <time>1970-01-01T08:27:57.000Z</time>
      </trkpt>
      <trkpt lat="42.654556" lon="0.658793">
        <ele>2451.8</ele>
        <time>1970-01-01T08:27:58.000Z</time>
      </trkpt>
      <trkpt lat="42.654556" lon="0.658793">
        <ele>2451.8</ele>
        <time>1970-01-01T08:27:59.000Z</time>
      </trkpt>
      <trkpt lat="42.654556" lon="0.658793">
        <ele>2451.8</ele>
        <time>1970-01-01T08:28:00.000Z</time>
      </trkpt>
      <trkpt lat="42.654556" lon="0.658793">
        <ele>2451.8</ele>
        <time>1970-01-01T08:28:01.000Z</time>
      </trkpt>
      <trkpt lat="42.654556" lon="0.658793">
        <ele>2451.8</ele>
        <time>1970-01-01T08:28:02.000Z</time>
      </trkpt>
      <trkpt lat="42.654556" lon="0.658793">
        <ele>2451.8</ele>
        <time>1970-01-01T08:28:03.000Z</time>
      </trkpt>
      <trkpt lat="42.654556" lon="0.658793">
        <ele>2451.8</ele>
        <time>1970-01-01T08:28:04.000Z</time>
      </trkpt>
      <trkpt lat="42.654556" lon="0.658793">
        <ele>2451.8</ele>
        <time>1970-01-01T08:28:05.000Z</time>
      </trkpt>
      <trkpt lat="42.654556" lon="0.658793">
        <ele>2451.8</ele>
        <time>1970-01-01T08:28:06.000Z</time>
      </trkpt>
      <trkpt lat="42.654556" lon="0.658793">
        <ele>2451.8</ele>
        <time>1970-01-01T08:28:07.000Z</time>
      </trkpt>
      <trkpt lat="42.654556" lon="0.658793">
        <ele>2451.8</ele>
        <time>1970-01-01T08:28:08.000Z</time>
      </trkpt>
      <trkpt lat="42.654556" lon="0.658793">
        <ele>2451.8</ele>
        <time>1970-01-01T08:28:09.000Z</time>
      </trkpt>
      <trkpt lat="42.654556" lon="0.658793">
        <ele>2451.8</ele>
        <time>1970-01-01T08:28:10.000Z</time>
      </trkpt>
      <trkpt lat="42.654556" lon="0.658793">
        <ele>2451.8</ele>
        <time>1970-01-01T08:28:11.000Z</time>
      </trkpt>
      <trkpt lat="42.654556" lon="0.658793">
        <ele>2451.8</ele>
        <time>1970-01-01T08:28:12.000Z</time>
      </trkpt>
      <trkpt lat="42.654556" lon="0.658793">
        <ele>2451.8</ele>
        <time>1970-01-01T08:28:13.000Z</time>
      </trkpt>
      <trkpt lat="42.654556" lon="0.658793">
        <ele>2451.8</ele>
        <time>1970-01-01T08:28:14.000Z</time>
      </trkpt>
      <trkpt lat="42.654556" lon="0.658793">
        <ele>2451.8</ele>
        <time>1970-01-01T08:28:15.000Z</time>
      </trkpt>
      <trkpt lat="42.654556" lon="0.658793">
        <ele>2451.8</ele>
        <time>1970-01-01T08:28:16.000Z</time>
      </trkpt>
      <trkpt lat="42.654556" lon="0.658793">
        <ele>2451.8</ele>
        <time>1970-01-01T08:28:17.000Z</time>
      </trkpt>
      <trkpt lat="42.654556" lon="0.658793">
        <ele>2451.8</ele>
        <time>1970-01-01T08:28:18.000Z</time>
      </trkpt>
      <trkpt lat="42.654556" lon="0.658793">
        <ele>2451.8</ele>
        <time>1970-01-01T08:28:19.000Z</time>
      </trkpt>
      <trkpt lat="42.654556" lon="0.658793">
        <ele>2451.8</ele>
        <time>1970-01-01T08:28:20.000Z</time>
      </trkpt>
      <trkpt lat="42.654556" lon="0.658793">
        <ele>2451.8</ele>
        <time>1970-01-01T08:28:21.000Z</time>
      </trkpt>
      <trkpt lat="42.654556" lon="0.658793">
        <ele>2451.8</ele>
        <time>1970-01-01T08:28:22.000Z</time>
      </trkpt>
      <trkpt lat="42.654556" lon="0.658793">
        <ele>2451.8</ele>
        <time>1970-01-01T08:28:23.000Z</time>
      </trkpt>
      <trkpt lat="42.654556" lon="0.658793">
        <ele>2451.8</ele>
        <time>1970-01-01T08:28:24.000Z</time>
      </trkpt>
      <trkpt lat="42.654556" lon="0.658793">
        <ele>2451.8</ele>
        <time>1970-01-01T08:28:25.000Z</time>
      </trkpt>
      <trkpt lat="42.654556" lon="0.658793">
        <ele>2451.8</ele>
        <time>1970-01-01T08:28:26.000Z</time>
      </trkpt>
      <trkpt lat="42.654556" lon="0.658793">
        <ele>2451.8</ele>
        <time>1970-01-01T08:28:27.000Z</time>
      </trkpt>
      <trkpt lat="42.654556" lon="0.658793">
        <ele>2451.8</ele>
        <time>1970-01-01T08:28:28.000Z</time>
      </trkpt>
      <trkpt lat="42.654556" lon="0.658793">
        <ele>2451.8</ele>
        <time>1970-01-01T08:28:29.000Z</time>
      </trkpt>
      <trkpt lat="42.654556" lon="0.658793">
        <ele>2451.8</ele>
        <time>1970-01-01T08:28:30.000Z</time>
      </trkpt>
      <trkpt lat="42.654556" lon="0.658793">
        <ele>2451.8</ele>
        <time>1970-01-01T08:28:31.000Z</time>
      </trkpt>
      <trkpt lat="42.654556" lon="0.658793">
        <ele>2451.8</ele>
        <time>1970-01-01T08:28:32.000Z</time>
      </trkpt>
      <trkpt lat="42.654556" lon="0.658793">
        <ele>2451.8</ele>
        <time>1970-01-01T08:28:33.000Z</time>
      </trkpt>
      <trkpt lat="42.654556" lon="0.658793">
        <ele>2451.8</ele>
        <time>1970-01-01T08:28:34.000Z</time>
      </trkpt>
      <trkpt lat="42.654556" lon="0.658793">
        <ele>2451.8</ele>
        <time>1970-01-01T08:28:35.000Z</time>
      </trkpt>
      <trkpt lat="42.654556" lon="0.658793">
        <ele>2451.8</ele>
        <time>1970-01-01T08:28:36.000Z</time>
      </trkpt>
      <trkpt lat="42.654556" lon="0.658793">
        <ele>2451.8</ele>
        <time>1970-01-01T08:28:37.000Z</time>
      </trkpt>
      <trkpt lat="42.654556" lon="0.658793">
        <ele>2451.8</ele>
        <time>1970-01-01T08:28:38.000Z</time>
      </trkpt>
      <trkpt lat="42.654556" lon="0.658793">
        <ele>2451.8</ele>
        <time>1970-01-01T08:28:39.000Z</time>
      </trkpt>
      <trkpt lat="42.654556" lon="0.658793">
        <ele>2451.8</ele>
        <time>1970-01-01T08:28:40.000Z</time>
      </trkpt>
      <trkpt lat="42.654556" lon="0.658793">
        <ele>2451.8</ele>
        <time>1970-01-01T08:28:41.000Z</time>
      </trkpt>
      <trkpt lat="42.654556" lon="0.658793">
        <ele>2451.8</ele>
        <time>1970-01-01T08:28:42.000Z</time>
      </trkpt>
      <trkpt lat="42.654556" lon="0.658793">
        <ele>2451.8</ele>
        <time>1970-01-01T08:28:43.000Z</time>
      </trkpt>
      <trkpt lat="42.654556" lon="0.658793">
        <ele>2451.8</ele>
        <time>1970-01-01T08:28:44.000Z</time>
      </trkpt>
      <trkpt lat="42.654556" lon="0.658793">
        <ele>2451.8</ele>
        <time>1970-01-01T08:28:45.000Z</time>
      </trkpt>
      <trkpt lat="42.654556" lon="0.658793">
        <ele>2451.8</ele>
        <time>1970-01-01T08:28:46.000Z</time>
      </trkpt>
      <trkpt lat="42.654556" lon="0.658793">
        <ele>2451.8</ele>
        <time>1970-01-01T08:28:47.000Z</time>
      </trkpt>
      <trkpt lat="42.654556" lon="0.658793">
        <ele>2451.8</ele>
        <time>1970-01-01T08:28:48.000Z</time>
      </trkpt>
      <trkpt lat="42.654556" lon="0.658793">
        <ele>2451.8</ele>
        <time>1970-01-01T08:28:49.000Z</time>
      </trkpt>
      <trkpt lat="42.654556" lon="0.658793">
        <ele>2451.8</ele>
        <time>1970-01-01T08:28:50.000Z</time>
      </trkpt>
      <trkpt lat="42.654556" lon="0.658793">
        <ele>2451.8</ele>
        <time>1970-01-01T08:28:51.000Z</time>
      </trkpt>
      <trkpt lat="42.654556" lon="0.658793">
        <ele>2451.8</ele>
        <time>1970-01-01T08:28:52.000Z</time>
      </trkpt>
      <trkpt lat="42.654556" lon="0.658793">
        <ele>2451.8</ele>
        <time>1970-01-01T08:28:53.000Z</time>
      </trkpt>
      <trkpt lat="42.654556" lon="0.658793">
        <ele>2451.8</ele>
        <time>1970-01-01T08:28:54.000Z</time>
      </trkpt>
      <trkpt lat="42.654556" lon="0.658793">
        <ele>2451.8</ele>
        <time>1970-01-01T08:28:55.000Z</time>
      </trkpt>
      <trkpt lat="42.654556" lon="0.658793">
        <ele>2451.8</ele>
        <time>1970-01-01T08:28:56.000Z</time>
      </trkpt>
      <trkpt lat="42.654556" lon="0.658793">
        <ele>2451.8</ele>
        <time>1970-01-01T08:28:57.000Z</time>
      </trkpt>
      <trkpt lat="42.654556" lon="0.658793">
        <ele>2451.8</ele>
        <time>1970-01-01T08:28:58.000Z</time>
      </trkpt>
      <trkpt lat="42.654556" lon="0.658793">
        <ele>2451.8</ele>
        <time>1970-01-01T08:28:59.000Z</time>
      </trkpt>
      <trkpt lat="42.654556" lon="0.658793">
        <ele>2451.8</ele>
        <time>1970-01-01T08:29:00.000Z</time>
      </trkpt>
      <trkpt lat="42.654556" lon="0.658793">
        <ele>2451.8</ele>
        <time>1970-01-01T08:29:01.000Z</time>
      </trkpt>
      <trkpt lat="42.654556" lon="0.658793">
        <ele>2451.8</ele>
        <time>1970-01-01T08:29:02.000Z</time>
      </trkpt>
      <trkpt lat="42.654556" lon="0.658793">
        <ele>2451.8</ele>
        <time>1970-01-01T08:29:03.000Z</time>
      </trkpt>
      <trkpt lat="42.654556" lon="0.658793">
        <ele>2451.8</ele>
        <time>1970-01-01T08:29:04.000Z</time>
      </trkpt>
      <trkpt lat="42.654556" lon="0.658794">
        <ele>2451.8</ele>
        <time>1970-01-01T08:29:05.000Z</time>
      </trkpt>
      <trkpt lat="42.654556" lon="0.658794">
        <ele>2451.8</ele>
        <time>1970-01-01T08:29:06.000Z</time>
      </trkpt>
      <trkpt lat="42.654556" lon="0.658794">
        <ele>2451.8</ele>
        <time>1970-01-01T08:29:07.000Z</time>
      </trkpt>
      <trkpt lat="42.654556" lon="0.658794">
        <ele>2451.8</ele>
        <time>1970-01-01T08:29:08.000Z</time>
      </trkpt>
      <trkpt lat="42.654556" lon="0.658794">
        <ele>2451.8</ele>
        <time>1970-01-01T08:29:09.000Z</time>
      </trkpt>
      <trkpt lat="42.654556" lon="0.658794">
        <ele>2451.8</ele>
        <time>1970-01-01T08:29:10.000Z</time>
      </trkpt>
      <trkpt lat="42.654556" lon="0.658794">
        <ele>2451.8</ele>
        <time>1970-01-01T08:29:11.000Z</time>
      </trkpt>
      <trkpt lat="42.654556" lon="0.658794">
        <ele>2451.8</ele>
        <time>1970-01-01T08:29:12.000Z</time>
      </trkpt>
      <trkpt lat="42.654556" lon="0.658794">
        <ele>2451.8</ele>
        <time>1970-01-01T08:29:13.000Z</time>
      </trkpt>
      <trkpt lat="42.654556" lon="0.658794">
        <ele>2451.8</ele>
        <time>1970-01-01T08:29:14.000Z</time>
      </trkpt>
      <trkpt lat="42.654556" lon="0.658794">
        <ele>2451.8</ele>
        <time>1970-01-01T08:29:15.000Z</time>
      </trkpt>
      <trkpt lat="42.654556" lon="0.658794">
        <ele>2451.8</ele>
        <time>1970-01-01T08:29:16.000Z</time>
      </trkpt>
      <trkpt lat="42.654556" lon="0.658794">
        <ele>2451.8</ele>
        <time>1970-01-01T08:29:17.000Z</time>
      </trkpt>
      <trkpt lat="42.654556" lon="0.658794">
        <ele>2451.8</ele>
        <time>1970-01-01T08:29:18.000Z</time>
      </trkpt>
      <trkpt lat="42.654556" lon="0.658794">
        <ele>2451.8</ele>
        <time>1970-01-01T08:29:19.000Z</time>
      </trkpt>
      <trkpt lat="42.654556" lon="0.658794">
        <ele>2451.8</ele>
        <time>1970-01-01T08:29:20.000Z</time>
      </trkpt>
      <trkpt lat="42.654556" lon="0.658794">
        <ele>2451.8</ele>
        <time>1970-01-01T08:29:21.000Z</time>
      </trkpt>
      <trkpt lat="42.654556" lon="0.658794">
        <ele>2451.8</ele>
        <time>1970-01-01T08:29:22.000Z</time>
      </trkpt>
      <trkpt lat="42.654556" lon="0.658794">
        <ele>2451.8</ele>
        <time>1970-01-01T08:29:23.000Z</time>
      </trkpt>
      <trkpt lat="42.654556" lon="0.658794">
        <ele>2451.8</ele>
        <time>1970-01-01T08:29:24.000Z</time>
      </trkpt>
      <trkpt lat="42.654556" lon="0.658794">
        <ele>2451.8</ele>
        <time>1970-01-01T08:29:25.000Z</time>
      </trkpt>
      <trkpt lat="42.654556" lon="0.658794">
        <ele>2451.8</ele>
        <time>1970-01-01T08:29:26.000Z</time>
      </trkpt>
      <trkpt lat="42.654556" lon="0.658794">
        <ele>2451.8</ele>
        <time>1970-01-01T08:29:27.000Z</time>
      </trkpt>
      <trkpt lat="42.654556" lon="0.658794">
        <ele>2451.8</ele>
        <time>1970-01-01T08:29:28.000Z</time>
      </trkpt>
      <trkpt lat="42.654556" lon="0.658794">
        <ele>2451.8</ele>
        <time>1970-01-01T08:29:29.000Z</time>
      </trkpt>
      <trkpt lat="42.654556" lon="0.658794">
        <ele>2451.8</ele>
        <time>1970-01-01T08:29:30.000Z</time>
      </trkpt>
      <trkpt lat="42.654556" lon="0.658794">
        <ele>2451.8</ele>
        <time>1970-01-01T08:29:31.000Z</time>
      </trkpt>
      <trkpt lat="42.654556" lon="0.658794">
        <ele>2451.8</ele>
        <time>1970-01-01T08:29:32.000Z</time>
      </trkpt>
      <trkpt lat="42.654556" lon="0.658794">
        <ele>2451.8</ele>
        <time>1970-01-01T08:29:33.000Z</time>
      </trkpt>
      <trkpt lat="42.654556" lon="0.658794">
        <ele>2451.8</ele>
        <time>1970-01-01T08:29:34.000Z</time>
      </trkpt>
      <trkpt lat="42.654556" lon="0.658794">
        <ele>2451.8</ele>
        <time>1970-01-01T08:29:35.000Z</time>
      </trkpt>
      <trkpt lat="42.654556" lon="0.658794">
        <ele>2451.8</ele>
        <time>1970-01-01T08:29:36.000Z</time>
      </trkpt>
      <trkpt lat="42.654556" lon="0.658794">
        <ele>2451.8</ele>
        <time>1970-01-01T08:29:37.000Z</time>
      </trkpt>
      <trkpt lat="42.654556" lon="0.658794">
        <ele>2451.8</ele>
        <time>1970-01-01T08:29:38.000Z</time>
      </trkpt>
      <trkpt lat="42.654556" lon="0.658794">
        <ele>2451.8</ele>
        <time>1970-01-01T08:29:39.000Z</time>
      </trkpt>
      <trkpt lat="42.654556" lon="0.658794">
        <ele>2451.8</ele>
        <time>1970-01-01T08:29:40.000Z</time>
      </trkpt>
      <trkpt lat="42.654556" lon="0.658794">
        <ele>2451.8</ele>
        <time>1970-01-01T08:29:41.000Z</time>
      </trkpt>
      <trkpt lat="42.654556" lon="0.658794">
        <ele>2451.8</ele>
        <time>1970-01-01T08:29:42.000Z</time>
      </trkpt>
      <trkpt lat="42.654556" lon="0.658794">
        <ele>2451.8</ele>
        <time>1970-01-01T08:29:43.000Z</time>
      </trkpt>
      <trkpt lat="42.654556" lon="0.658794">
        <ele>2451.8</ele>
        <time>1970-01-01T08:29:44.000Z</time>
      </trkpt>
      <trkpt lat="42.654556" lon="0.658794">
        <ele>2451.8</ele>
        <time>1970-01-01T08:29:45.000Z</time>
      </trkpt>
      <trkpt lat="42.654556" lon="0.658794">
        <ele>2451.8</ele>
        <time>1970-01-01T08:29:46.000Z</time>
      </trkpt>
      <trkpt lat="42.654556" lon="0.658794">
        <ele>2451.8</ele>
        <time>1970-01-01T08:29:47.000Z</time>
      </trkpt>
      <trkpt lat="42.654556" lon="0.658794">
        <ele>2451.8</ele>
        <time>1970-01-01T08:29:48.000Z</time>
      </trkpt>
      <trkpt lat="42.654556" lon="0.658794">
        <ele>2451.8</ele>
        <time>1970-01-01T08:29:49.000Z</time>
      </trkpt>
      <trkpt lat="42.654556" lon="0.658794">
        <ele>2451.8</ele>
        <time>1970-01-01T08:29:50.000Z</time>
      </trkpt>
      <trkpt lat="42.654556" lon="0.658794">
        <ele>2451.8</ele>
        <time>1970-01-01T08:29:51.000Z</time>
      </trkpt>
      <trkpt lat="42.654556" lon="0.658794">
        <ele>2451.8</ele>
        <time>1970-01-01T08:29:52.000Z</time>
      </trkpt>
      <trkpt lat="42.654556" lon="0.658794">
        <ele>2451.8</ele>
        <time>1970-01-01T08:29:53.000Z</time>
      </trkpt>
      <trkpt lat="42.654556" lon="0.658794">
        <ele>2451.8</ele>
        <time>1970-01-01T08:29:54.000Z</time>
      </trkpt>
      <trkpt lat="42.654556" lon="0.658794">
        <ele>2451.8</ele>
        <time>1970-01-01T08:29:55.000Z</time>
      </trkpt>
      <trkpt lat="42.654556" lon="0.658794">
        <ele>2451.8</ele>
        <time>1970-01-01T08:29:56.000Z</time>
      </trkpt>
      <trkpt lat="42.654556" lon="0.658794">
        <ele>2451.8</ele>
        <time>1970-01-01T08:29:57.000Z</time>
      </trkpt>
      <trkpt lat="42.654556" lon="0.658794">
        <ele>2451.8</ele>
        <time>1970-01-01T08:29:58.000Z</time>
      </trkpt>
      <trkpt lat="42.654556" lon="0.658794">
        <ele>2451.8</ele>
        <time>1970-01-01T08:29:59.000Z</time>
      </trkpt>
      <trkpt lat="42.654556" lon="0.658794">
        <ele>2451.8</ele>
        <time>1970-01-01T08:30:00.000Z</time>
      </trkpt>
      <trkpt lat="42.654556" lon="0.658794">
        <ele>2451.8</ele>
        <time>1970-01-01T08:30:01.000Z</time>
      </trkpt>
      <trkpt lat="42.654556" lon="0.658794">
        <ele>2451.8</ele>
        <time>1970-01-01T08:30:02.000Z</time>
      </trkpt>
      <trkpt lat="42.654556" lon="0.658794">
        <ele>2451.8</ele>
        <time>1970-01-01T08:30:03.000Z</time>
      </trkpt>
      <trkpt lat="42.654556" lon="0.658794">
        <ele>2451.8</ele>
        <time>1970-01-01T08:30:04.000Z</time>
      </trkpt>
      <trkpt lat="42.654556" lon="0.658794">
        <ele>2451.8</ele>
        <time>1970-01-01T08:30:05.000Z</time>
      </trkpt>
      <trkpt lat="42.654556" lon="0.658794">
        <ele>2451.8</ele>
        <time>1970-01-01T08:30:06.000Z</time>
      </trkpt>
      <trkpt lat="42.654556" lon="0.658794">
        <ele>2451.8</ele>
        <time>1970-01-01T08:30:07.000Z</time>
      </trkpt>
      <trkpt lat="42.654556" lon="0.658794">
        <ele>2451.8</ele>
        <time>1970-01-01T08:30:08.000Z</time>
      </trkpt>
      <trkpt lat="42.654556" lon="0.658794">
        <ele>2451.8</ele>
        <time>1970-01-01T08:30:09.000Z</time>
      </trkpt>
      <trkpt lat="42.654556" lon="0.658794">
        <ele>2451.8</ele>
        <time>1970-01-01T08:30:10.000Z</time>
      </trkpt>
      <trkpt lat="42.654556" lon="0.658794">
        <ele>2451.8</ele>
        <time>1970-01-01T08:30:11.000Z</time>
      </trkpt>
      <trkpt lat="42.654556" lon="0.658794">
        <ele>2451.8</ele>
        <time>1970-01-01T08:30:12.000Z</time>
      </trkpt>
      <trkpt lat="42.654556" lon="0.658794">
        <ele>2451.8</ele>
        <time>1970-01-01T08:30:13.000Z</time>
      </trkpt>
      <trkpt lat="42.654556" lon="0.658794">
        <ele>2451.8</ele>
        <time>1970-01-01T08:30:14.000Z</time>
      </trkpt>
      <trkpt lat="42.654556" lon="0.658794">
        <ele>2451.8</ele>
        <time>1970-01-01T08:30:15.000Z</time>
      </trkpt>
      <trkpt lat="42.654556" lon="0.658794">
        <ele>2451.8</ele>
        <time>1970-01-01T08:30:16.000Z</time>
      </trkpt>
      <trkpt lat="42.654556" lon="0.658794">
        <ele>2451.8</ele>
        <time>1970-01-01T08:30:17.000Z</time>
      </trkpt>
      <trkpt lat="42.654556" lon="0.658794">
        <ele>2451.8</ele>
        <time>1970-01-01T08:30:18.000Z</time>
      </trkpt>
      <trkpt lat="42.654556" lon="0.658794">
        <ele>2451.8</ele>
        <time>1970-01-01T08:30:19.000Z</time>
      </trkpt>
      <trkpt lat="42.654556" lon="0.658794">
        <ele>2451.8</ele>
        <time>1970-01-01T08:30:20.000Z</time>
      </trkpt>
      <trkpt lat="42.654556" lon="0.658794">
        <ele>2451.8</ele>
        <time>1970-01-01T08:30:21.000Z</time>
      </trkpt>
      <trkpt lat="42.654556" lon="0.658794">
        <ele>2451.8</ele>
        <time>1970-01-01T08:30:22.000Z</time>
      </trkpt>
      <trkpt lat="42.654556" lon="0.658794">
        <ele>2451.8</ele>
        <time>1970-01-01T08:30:23.000Z</time>
      </trkpt>
      <trkpt lat="42.654556" lon="0.658794">
        <ele>2451.8</ele>
        <time>1970-01-01T08:30:24.000Z</time>
      </trkpt>
      <trkpt lat="42.654556" lon="0.658794">
        <ele>2451.8</ele>
        <time>1970-01-01T08:30:25.000Z</time>
      </trkpt>
      <trkpt lat="42.654556" lon="0.658794">
        <ele>2451.8</ele>
        <time>1970-01-01T08:30:26.000Z</time>
      </trkpt>
      <trkpt lat="42.654556" lon="0.658794">
        <ele>2451.8</ele>
        <time>1970-01-01T08:30:27.000Z</time>
      </trkpt>
      <trkpt lat="42.654556" lon="0.658794">
        <ele>2451.8</ele>
        <time>1970-01-01T08:30:28.000Z</time>
      </trkpt>
      <trkpt lat="42.654556" lon="0.658794">
        <ele>2451.8</ele>
        <time>1970-01-01T08:30:29.000Z</time>
      </trkpt>
      <trkpt lat="42.654556" lon="0.658794">
        <ele>2451.8</ele>
        <time>1970-01-01T08:30:30.000Z</time>
      </trkpt>
      <trkpt lat="42.654556" lon="0.658794">
        <ele>2451.8</ele>
        <time>1970-01-01T08:30:31.000Z</time>
      </trkpt>
      <trkpt lat="42.654556" lon="0.658795">
        <ele>2451.8</ele>
        <time>1970-01-01T08:30:32.000Z</time>
      </trkpt>
      <trkpt lat="42.654556" lon="0.658795">
        <ele>2451.8</ele>
        <time>1970-01-01T08:30:33.000Z</time>
      </trkpt>
      <trkpt lat="42.654556" lon="0.658795">
        <ele>2451.8</ele>
        <time>1970-01-01T08:30:34.000Z</time>
      </trkpt>
      <trkpt lat="42.654556" lon="0.658795">
        <ele>2451.8</ele>
        <time>1970-01-01T08:30:35.000Z</time>
      </trkpt>
      <trkpt lat="42.654556" lon="0.658795">
        <ele>2451.8</ele>
        <time>1970-01-01T08:30:36.000Z</time>
      </trkpt>
      <trkpt lat="42.654556" lon="0.658795">
        <ele>2451.8</ele>
        <time>1970-01-01T08:30:37.000Z</time>
      </trkpt>
      <trkpt lat="42.654556" lon="0.658795">
        <ele>2451.8</ele>
        <time>1970-01-01T08:30:38.000Z</time>
      </trkpt>
      <trkpt lat="42.654556" lon="0.658795">
        <ele>2451.8</ele>
        <time>1970-01-01T08:30:39.000Z</time>
      </trkpt>
      <trkpt lat="42.654556" lon="0.658795">
        <ele>2451.8</ele>
        <time>1970-01-01T08:30:40.000Z</time>
      </trkpt>
      <trkpt lat="42.654556" lon="0.658795">
        <ele>2451.8</ele>
        <time>1970-01-01T08:30:41.000Z</time>
      </trkpt>
      <trkpt lat="42.654556" lon="0.658795">
        <ele>2451.8</ele>
        <time>1970-01-01T08:30:42.000Z</time>
      </trkpt>
      <trkpt lat="42.654555" lon="0.658795">
        <ele>2451.8</ele>
        <time>1970-01-01T08:30:43.000Z</time>
      </trkpt>
      <trkpt lat="42.654555" lon="0.658795">
        <ele>2451.8</ele>
        <time>1970-01-01T08:30:44.000Z</time>
      </trkpt>
      <trkpt lat="42.654555" lon="0.658795">
        <ele>2451.8</ele>
        <time>1970-01-01T08:30:45.000Z</time>
      </trkpt>
      <trkpt lat="42.654555" lon="0.658795">
        <ele>2451.8</ele>
        <time>1970-01-01T08:30:46.000Z</time>
      </trkpt>
      <trkpt lat="42.654555" lon="0.658795">
        <ele>2451.8</ele>
        <time>1970-01-01T08:30:47.000Z</time>
      </trkpt>
      <trkpt lat="42.654555" lon="0.658795">
        <ele>2451.8</ele>
        <time>1970-01-01T08:30:48.000Z</time>
      </trkpt>
      <trkpt lat="42.654555" lon="0.658795">
        <ele>2451.8</ele>
        <time>1970-01-01T08:30:49.000Z</time>
      </trkpt>
      <trkpt lat="42.654555" lon="0.658795">
        <ele>2451.8</ele>
        <time>1970-01-01T08:30:50.000Z</time>
      </trkpt>
      <trkpt lat="42.654555" lon="0.658795">
        <ele>2451.8</ele>
        <time>1970-01-01T08:30:51.000Z</time>
      </trkpt>
      <trkpt lat="42.654555" lon="0.658795">
        <ele>2451.8</ele>
        <time>1970-01-01T08:30:52.000Z</time>
      </trkpt>
      <trkpt lat="42.654555" lon="0.658795">
        <ele>2451.8</ele>
        <time>1970-01-01T08:30:53.000Z</time>
      </trkpt>
      <trkpt lat="42.654555" lon="0.658795">
        <ele>2451.8</ele>
        <time>1970-01-01T08:30:54.000Z</time>
      </trkpt>
      <trkpt lat="42.654555" lon="0.658795">
        <ele>2451.8</ele>
        <time>1970-01-01T08:30:55.000Z</time>
      </trkpt>
      <trkpt lat="42.654555" lon="0.658795">
        <ele>2451.8</ele>
        <time>1970-01-01T08:30:56.000Z</time>
      </trkpt>
      <trkpt lat="42.654555" lon="0.658795">
        <ele>2451.8</ele>
        <time>1970-01-01T08:30:57.000Z</time>
      </trkpt>
      <trkpt lat="42.654555" lon="0.658795">
        <ele>2451.8</ele>
        <time>1970-01-01T08:30:58.000Z</time>
      </trkpt>
      <trkpt lat="42.654555" lon="0.658795">
        <ele>2451.8</ele>
        <time>1970-01-01T08:30:59.000Z</time>
      </trkpt>
      <trkpt lat="42.654555" lon="0.658795">
        <ele>2451.8</ele>
        <time>1970-01-01T08:31:00.000Z</time>
      </trkpt>
      <trkpt lat="42.654555" lon="0.658795">
        <ele>2451.8</ele>
        <time>1970-01-01T08:31:01.000Z</time>
      </trkpt>
      <trkpt lat="42.654555" lon="0.658795">
        <ele>2451.8</ele>
        <time>1970-01-01T08:31:02.000Z</time>
      </trkpt>
      <trkpt lat="42.654555" lon="0.658795">
        <ele>2451.8</ele>
        <time>1970-01-01T08:31:03.000Z</time>
      </trkpt>
      <trkpt lat="42.654555" lon="0.658795">
        <ele>2451.8</ele>
        <time>1970-01-01T08:31:04.000Z</time>
      </trkpt>
      <trkpt lat="42.654555" lon="0.658795">
        <ele>2451.8</ele>
        <time>1970-01-01T08:31:05.000Z</time>
      </trkpt>
      <trkpt lat="42.654555" lon="0.658795">
        <ele>2451.8</ele>
        <time>1970-01-01T08:31:06.000Z</time>
      </trkpt>
      <trkpt lat="42.654555" lon="0.658795">
        <ele>2451.8</ele>
        <time>1970-01-01T08:31:07.000Z</time>
      </trkpt>
      <trkpt lat="42.654555" lon="0.658795">
        <ele>2451.8</ele>
        <time>1970-01-01T08:31:08.000Z</time>
      </trkpt>
      <trkpt lat="42.654555" lon="0.658795">
        <ele>2451.8</ele>
        <time>1970-01-01T08:31:09.000Z</time>
      </trkpt>
      <trkpt lat="42.654555" lon="0.658795">
        <ele>2451.8</ele>
        <time>1970-01-01T08:31:10.000Z</time>
      </trkpt>
      <trkpt lat="42.654555" lon="0.658795">
        <ele>2451.8</ele>
        <time>1970-01-01T08:31:11.000Z</time>
      </trkpt>
      <trkpt lat="42.654556" lon="0.658795">
        <ele>2451.8</ele>
        <time>1970-01-01T08:31:12.000Z</time>
      </trkpt>
      <trkpt lat="42.654556" lon="0.658795">
        <ele>2451.8</ele>
        <time>1970-01-01T08:31:13.000Z</time>
      </trkpt>
      <trkpt lat="42.654556" lon="0.658795">
        <ele>2451.8</ele>
        <time>1970-01-01T08:31:14.000Z</time>
      </trkpt>
      <trkpt lat="42.654556" lon="0.658795">
        <ele>2451.8</ele>
        <time>1970-01-01T08:31:15.000Z</time>
      </trkpt>
      <trkpt lat="42.654556" lon="0.658795">
        <ele>2451.8</ele>
        <time>1970-01-01T08:31:16.000Z</time>
      </trkpt>
      <trkpt lat="42.654556" lon="0.658795">
        <ele>2451.8</ele>
        <time>1970-01-01T08:31:17.000Z</time>
      </trkpt>
      <trkpt lat="42.654556" lon="0.658795">
        <ele>2451.8</ele>
        <time>1970-01-01T08:31:18.000Z</time>
      </trkpt>
      <trkpt lat="42.654556" lon="0.658795">
        <ele>2451.8</ele>
        <time>1970-01-01T08:31:19.000Z</time>
      </trkpt>
      <trkpt lat="42.654555" lon="0.658795">
        <ele>2451.8</ele>
        <time>1970-01-01T08:31:20.000Z</time>
      </trkpt>
      <trkpt lat="42.654555" lon="0.658795">
        <ele>2451.8</ele>
        <time>1970-01-01T08:31:21.000Z</time>
      </trkpt>
      <trkpt lat="42.654555" lon="0.658795">
        <ele>2451.8</ele>
        <time>1970-01-01T08:31:22.000Z</time>
      </trkpt>
      <trkpt lat="42.654555" lon="0.658795">
        <ele>2451.8</ele>
        <time>1970-01-01T08:31:23.000Z</time>
      </trkpt>
      <trkpt lat="42.654555" lon="0.658795">
        <ele>2451.8</ele>
        <time>1970-01-01T08:31:24.000Z</time>
      </trkpt>
      <trkpt lat="42.654555" lon="0.658795">
        <ele>2451.8</ele>
        <time>1970-01-01T08:31:25.000Z</time>
      </trkpt>
      <trkpt lat="42.654555" lon="0.658795">
        <ele>2451.8</ele>
        <time>1970-01-01T08:31:26.000Z</time>
      </trkpt>
      <trkpt lat="42.654555" lon="0.658795">
        <ele>2451.8</ele>
        <time>1970-01-01T08:31:27.000Z</time>
      </trkpt>
      <trkpt lat="42.654555" lon="0.658795">
        <ele>2451.8</ele>
        <time>1970-01-01T08:31:28.000Z</time>
      </trkpt>
      <trkpt lat="42.654555" lon="0.658795">
        <ele>2451.8</ele>
        <time>1970-01-01T08:31:29.000Z</time>
      </trkpt>
      <trkpt lat="42.654555" lon="0.658795">
        <ele>2451.8</ele>
        <time>1970-01-01T08:31:30.000Z</time>
      </trkpt>
      <trkpt lat="42.654555" lon="0.658795">
        <ele>2451.8</ele>
        <time>1970-01-01T08:31:31.000Z</time>
      </trkpt>
      <trkpt lat="42.654555" lon="0.658795">
        <ele>2451.8</ele>
        <time>1970-01-01T08:31:32.000Z</time>
      </trkpt>
      <trkpt lat="42.654555" lon="0.658795">
        <ele>2451.8</ele>
        <time>1970-01-01T08:31:33.000Z</time>
      </trkpt>
      <trkpt lat="42.654555" lon="0.658795">
        <ele>2451.8</ele>
        <time>1970-01-01T08:31:34.000Z</time>
      </trkpt>
      <trkpt lat="42.654555" lon="0.658795">
        <ele>2451.8</ele>
        <time>1970-01-01T08:31:35.000Z</time>
      </trkpt>
      <trkpt lat="42.654555" lon="0.658795">
        <ele>2451.8</ele>
        <time>1970-01-01T08:31:36.000Z</time>
      </trkpt>
      <trkpt lat="42.654555" lon="0.658795">
        <ele>2451.8</ele>
        <time>1970-01-01T08:31:37.000Z</time>
      </trkpt>
      <trkpt lat="42.654555" lon="0.658795">
        <ele>2451.8</ele>
        <time>1970-01-01T08:31:38.000Z</time>
      </trkpt>
      <trkpt lat="42.654555" lon="0.658795">
        <ele>2451.8</ele>
        <time>1970-01-01T08:31:39.000Z</time>
      </trkpt>
      <trkpt lat="42.654555" lon="0.658795">
        <ele>2451.8</ele>
        <time>1970-01-01T08:31:40.000Z</time>
      </trkpt>
      <trkpt lat="42.654555" lon="0.658795">
        <ele>2451.8</ele>
        <time>1970-01-01T08:31:41.000Z</time>
      </trkpt>
      <trkpt lat="42.654555" lon="0.658795">
        <ele>2451.8</ele>
        <time>1970-01-01T08:31:42.000Z</time>
      </trkpt>
      <trkpt lat="42.654555" lon="0.658795">
        <ele>2451.8</ele>
        <time>1970-01-01T08:31:43.000Z</time>
      </trkpt>
      <trkpt lat="42.654555" lon="0.658795">
        <ele>2451.8</ele>
        <time>1970-01-01T08:31:44.000Z</time>
      </trkpt>
      <trkpt lat="42.654555" lon="0.658795">
        <ele>2451.8</ele>
        <time>1970-01-01T08:31:45.000Z</time>
      </trkpt>
      <trkpt lat="42.654555" lon="0.658795">
        <ele>2451.8</ele>
        <time>1970-01-01T08:31:46.000Z</time>
      </trkpt>
      <trkpt lat="42.654555" lon="0.658795">
        <ele>2451.8</ele>
        <time>1970-01-01T08:31:47.000Z</time>
      </trkpt>
      <trkpt lat="42.654555" lon="0.658795">
        <ele>2451.8</ele>
        <time>1970-01-01T08:31:48.000Z</time>
      </trkpt>
      <trkpt lat="42.654555" lon="0.658795">
        <ele>2451.8</ele>
        <time>1970-01-01T08:31:49.000Z</time>
      </trkpt>
      <trkpt lat="42.654555" lon="0.658795">
        <ele>2451.8</ele>
        <time>1970-01-01T08:31:50.000Z</time>
      </trkpt>
      <trkpt lat="42.654555" lon="0.658795">
        <ele>2451.8</ele>
        <time>1970-01-01T08:31:51.000Z</time>
      </trkpt>
      <trkpt lat="42.654555" lon="0.658795">
        <ele>2451.8</ele>
        <time>1970-01-01T08:31:52.000Z</time>
      </trkpt>
      <trkpt lat="42.654555" lon="0.658795">
        <ele>2451.8</ele>
        <time>1970-01-01T08:31:53.000Z</time>
      </trkpt>
      <trkpt lat="42.654555" lon="0.658795">
        <ele>2451.8</ele>
        <time>1970-01-01T08:31:54.000Z</time>
      </trkpt>
      <trkpt lat="42.654555" lon="0.658795">
        <ele>2451.8</ele>
        <time>1970-01-01T08:31:55.000Z</time>
      </trkpt>
      <trkpt lat="42.654555" lon="0.658795">
        <ele>2451.8</ele>
        <time>1970-01-01T08:31:56.000Z</time>
      </trkpt>
      <trkpt lat="42.654555" lon="0.658795">
        <ele>2451.8</ele>
        <time>1970-01-01T08:31:57.000Z</time>
      </trkpt>
      <trkpt lat="42.654555" lon="0.658795">
        <ele>2451.8</ele>
        <time>1970-01-01T08:31:58.000Z</time>
      </trkpt>
      <trkpt lat="42.654555" lon="0.658795">
        <ele>2451.8</ele>
        <time>1970-01-01T08:31:59.000Z</time>
      </trkpt>
      <trkpt lat="42.654555" lon="0.658795">
        <ele>2451.8</ele>
        <time>1970-01-01T08:32:00.000Z</time>
      </trkpt>
      <trkpt lat="42.654555" lon="0.658795">
        <ele>2451.8</ele>
        <time>1970-01-01T08:32:01.000Z</time>
      </trkpt>
      <trkpt lat="42.654555" lon="0.658795">
        <ele>2451.8</ele>
        <time>1970-01-01T08:32:02.000Z</time>
      </trkpt>
      <trkpt lat="42.654555" lon="0.658795">
        <ele>2451.8</ele>
        <time>1970-01-01T08:32:03.000Z</time>
      </trkpt>
      <trkpt lat="42.654555" lon="0.658795">
        <ele>2451.8</ele>
        <time>1970-01-01T08:32:04.000Z</time>
      </trkpt>
      <trkpt lat="42.654555" lon="0.658795">
        <ele>2451.8</ele>
        <time>1970-01-01T08:32:05.000Z</time>
      </trkpt>
      <trkpt lat="42.654555" lon="0.658795">
        <ele>2451.8</ele>
        <time>1970-01-01T08:32:06.000Z</time>
      </trkpt>
      <trkpt lat="42.654555" lon="0.658795">
        <ele>2451.8</ele>
        <time>1970-01-01T08:32:07.000Z</time>
      </trkpt>
      <trkpt lat="42.654555" lon="0.658795">
        <ele>2451.8</ele>
        <time>1970-01-01T08:32:08.000Z</time>
      </trkpt>
      <trkpt lat="42.654555" lon="0.658795">
        <ele>2451.8</ele>
        <time>1970-01-01T08:32:09.000Z</time>
      </trkpt>
      <trkpt lat="42.654555" lon="0.658795">
        <ele>2451.8</ele>
        <time>1970-01-01T08:32:10.000Z</time>
      </trkpt>
      <trkpt lat="42.654555" lon="0.658795">
        <ele>2451.8</ele>
        <time>1970-01-01T08:32:11.000Z</time>
      </trkpt>
      <trkpt lat="42.654555" lon="0.658795">
        <ele>2451.8</ele>
        <time>1970-01-01T08:32:12.000Z</time>
      </trkpt>
      <trkpt lat="42.654555" lon="0.658795">
        <ele>2451.8</ele>
        <time>1970-01-01T08:32:13.000Z</time>
      </trkpt>
      <trkpt lat="42.654555" lon="0.658795">
        <ele>2451.8</ele>
        <time>1970-01-01T08:32:14.000Z</time>
      </trkpt>
      <trkpt lat="42.654555" lon="0.658795">
        <ele>2451.8</ele>
        <time>1970-01-01T08:32:15.000Z</time>
      </trkpt>
      <trkpt lat="42.654555" lon="0.658795">
        <ele>2451.8</ele>
        <time>1970-01-01T08:32:16.000Z</time>
      </trkpt>
      <trkpt lat="42.654555" lon="0.658795">
        <ele>2451.8</ele>
        <time>1970-01-01T08:32:17.000Z</time>
      </trkpt>
      <trkpt lat="42.654555" lon="0.658795">
        <ele>2451.8</ele>
        <time>1970-01-01T08:32:18.000Z</time>
      </trkpt>
      <trkpt lat="42.654555" lon="0.658795">
        <ele>2451.8</ele>
        <time>1970-01-01T08:32:19.000Z</time>
      </trkpt>
      <trkpt lat="42.654555" lon="0.658795">
        <ele>2451.8</ele>
        <time>1970-01-01T08:32:20.000Z</time>
      </trkpt>
      <trkpt lat="42.654555" lon="0.658795">
        <ele>2451.8</ele>
        <time>1970-01-01T08:32:21.000Z</time>
      </trkpt>
      <trkpt lat="42.654555" lon="0.658795">
        <ele>2451.8</ele>
        <time>1970-01-01T08:32:22.000Z</time>
      </trkpt>
      <trkpt lat="42.654555" lon="0.658795">
        <ele>2451.8</ele>
        <time>1970-01-01T08:32:23.000Z</time>
      </trkpt>
      <trkpt lat="42.654555" lon="0.658795">
        <ele>2451.8</ele>
        <time>1970-01-01T08:32:24.000Z</time>
      </trkpt>
      <trkpt lat="42.654555" lon="0.658795">
        <ele>2451.8</ele>
        <time>1970-01-01T08:32:25.000Z</time>
      </trkpt>
      <trkpt lat="42.654555" lon="0.658795">
        <ele>2451.8</ele>
        <time>1970-01-01T08:32:26.000Z</time>
      </trkpt>
      <trkpt lat="42.654555" lon="0.658795">
        <ele>2451.8</ele>
        <time>1970-01-01T08:32:27.000Z</time>
      </trkpt>
      <trkpt lat="42.654555" lon="0.658795">
        <ele>2451.8</ele>
        <time>1970-01-01T08:32:28.000Z</time>
      </trkpt>
      <trkpt lat="42.654555" lon="0.658795">
        <ele>2451.8</ele>
        <time>1970-01-01T08:32:29.000Z</time>
      </trkpt>
      <trkpt lat="42.654555" lon="0.658795">
        <ele>2451.8</ele>
        <time>1970-01-01T08:32:30.000Z</time>
      </trkpt>
      <trkpt lat="42.654555" lon="0.658795">
        <ele>2451.8</ele>
        <time>1970-01-01T08:32:31.000Z</time>
      </trkpt>
      <trkpt lat="42.654555" lon="0.658795">
        <ele>2451.8</ele>
        <time>1970-01-01T08:32:32.000Z</time>
      </trkpt>
      <trkpt lat="42.654555" lon="0.658795">
        <ele>2451.8</ele>
        <time>1970-01-01T08:32:33.000Z</time>
      </trkpt>
      <trkpt lat="42.654555" lon="0.658795">
        <ele>2451.8</ele>
        <time>1970-01-01T08:32:34.000Z</time>
      </trkpt>
      <trkpt lat="42.654555" lon="0.658795">
        <ele>2451.8</ele>
        <time>1970-01-01T08:32:35.000Z</time>
      </trkpt>
      <trkpt lat="42.654555" lon="0.658795">
        <ele>2451.8</ele>
        <time>1970-01-01T08:32:36.000Z</time>
      </trkpt>
      <trkpt lat="42.654555" lon="0.658795">
        <ele>2451.8</ele>
        <time>1970-01-01T08:32:37.000Z</time>
      </trkpt>
      <trkpt lat="42.654555" lon="0.658796">
        <ele>2451.8</ele>
        <time>1970-01-01T08:32:38.000Z</time>
      </trkpt>
      <trkpt lat="42.654555" lon="0.658796">
        <ele>2451.8</ele>
        <time>1970-01-01T08:32:39.000Z</time>
      </trkpt>
      <trkpt lat="42.654555" lon="0.658796">
        <ele>2451.8</ele>
        <time>1970-01-01T08:32:40.000Z</time>
      </trkpt>
      <trkpt lat="42.654555" lon="0.658796">
        <ele>2451.8</ele>
        <time>1970-01-01T08:32:41.000Z</time>
      </trkpt>
      <trkpt lat="42.654555" lon="0.658796">
        <ele>2451.8</ele>
        <time>1970-01-01T08:32:42.000Z</time>
      </trkpt>
      <trkpt lat="42.654555" lon="0.658796">
        <ele>2451.8</ele>
        <time>1970-01-01T08:32:43.000Z</time>
      </trkpt>
      <trkpt lat="42.654555" lon="0.658796">
        <ele>2451.8</ele>
        <time>1970-01-01T08:32:44.000Z</time>
      </trkpt>
      <trkpt lat="42.654555" lon="0.658796">
        <ele>2451.8</ele>
        <time>1970-01-01T08:32:45.000Z</time>
      </trkpt>
      <trkpt lat="42.654555" lon="0.658796">
        <ele>2451.8</ele>
        <time>1970-01-01T08:32:46.000Z</time>
      </trkpt>
      <trkpt lat="42.654555" lon="0.658796">
        <ele>2451.8</ele>
        <time>1970-01-01T08:32:47.000Z</time>
      </trkpt>
      <trkpt lat="42.654555" lon="0.658796">
        <ele>2451.8</ele>
        <time>1970-01-01T08:32:48.000Z</time>
      </trkpt>
      <trkpt lat="42.654555" lon="0.658796">
        <ele>2451.8</ele>
        <time>1970-01-01T08:32:49.000Z</time>
      </trkpt>
      <trkpt lat="42.654555" lon="0.658796">
        <ele>2451.8</ele>
        <time>1970-01-01T08:32:50.000Z</time>
      </trkpt>
      <trkpt lat="42.654555" lon="0.658796">
        <ele>2451.8</ele>
        <time>1970-01-01T08:32:51.000Z</time>
      </trkpt>
      <trkpt lat="42.654555" lon="0.658796">
        <ele>2451.8</ele>
        <time>1970-01-01T08:32:52.000Z</time>
      </trkpt>
      <trkpt lat="42.654555" lon="0.658796">
        <ele>2451.8</ele>
        <time>1970-01-01T08:32:53.000Z</time>
      </trkpt>
      <trkpt lat="42.654555" lon="0.658796">
        <ele>2451.7</ele>
        <time>1970-01-01T08:32:54.000Z</time>
      </trkpt>
      <trkpt lat="42.654555" lon="0.658796">
        <ele>2451.7</ele>
        <time>1970-01-01T08:32:55.000Z</time>
      </trkpt>
      <trkpt lat="42.654555" lon="0.658796">
        <ele>2451.7</ele>
        <time>1970-01-01T08:32:56.000Z</time>
      </trkpt>
      <trkpt lat="42.654555" lon="0.658796">
        <ele>2451.7</ele>
        <time>1970-01-01T08:32:57.000Z</time>
      </trkpt>
      <trkpt lat="42.654555" lon="0.658796">
        <ele>2451.7</ele>
        <time>1970-01-01T08:32:58.000Z</time>
      </trkpt>
      <trkpt lat="42.654555" lon="0.658796">
        <ele>2451.7</ele>
        <time>1970-01-01T08:32:59.000Z</time>
      </trkpt>
      <trkpt lat="42.654555" lon="0.658796">
        <ele>2451.7</ele>
        <time>1970-01-01T08:33:00.000Z</time>
      </trkpt>
      <trkpt lat="42.654555" lon="0.658796">
        <ele>2451.7</ele>
        <time>1970-01-01T08:33:01.000Z</time>
      </trkpt>
      <trkpt lat="42.654555" lon="0.658796">
        <ele>2451.7</ele>
        <time>1970-01-01T08:33:02.000Z</time>
      </trkpt>
      <trkpt lat="42.654555" lon="0.658796">
        <ele>2451.7</ele>
        <time>1970-01-01T08:33:03.000Z</time>
      </trkpt>
      <trkpt lat="42.654555" lon="0.658796">
        <ele>2451.7</ele>
        <time>1970-01-01T08:33:04.000Z</time>
      </trkpt>
      <trkpt lat="42.654555" lon="0.658796">
        <ele>2451.7</ele>
        <time>1970-01-01T08:33:05.000Z</time>
      </trkpt>
      <trkpt lat="42.654555" lon="0.658796">
        <ele>2451.7</ele>
        <time>1970-01-01T08:33:06.000Z</time>
      </trkpt>
      <trkpt lat="42.654555" lon="0.658796">
        <ele>2451.7</ele>
        <time>1970-01-01T08:33:07.000Z</time>
      </trkpt>
      <trkpt lat="42.654555" lon="0.658796">
        <ele>2451.7</ele>
        <time>1970-01-01T08:33:08.000Z</time>
      </trkpt>
      <trkpt lat="42.654555" lon="0.658796">
        <ele>2451.7</ele>
        <time>1970-01-01T08:33:09.000Z</time>
      </trkpt>
      <trkpt lat="42.654555" lon="0.658796">
        <ele>2451.7</ele>
        <time>1970-01-01T08:33:10.000Z</time>
      </trkpt>
      <trkpt lat="42.654555" lon="0.658796">
        <ele>2451.7</ele>
        <time>1970-01-01T08:33:11.000Z</time>
      </trkpt>
      <trkpt lat="42.654555" lon="0.658796">
        <ele>2451.7</ele>
        <time>1970-01-01T08:33:12.000Z</time>
      </trkpt>
      <trkpt lat="42.654555" lon="0.658796">
        <ele>2451.7</ele>
        <time>1970-01-01T08:33:13.000Z</time>
      </trkpt>
      <trkpt lat="42.654555" lon="0.658796">
        <ele>2451.7</ele>
        <time>1970-01-01T08:33:14.000Z</time>
      </trkpt>
      <trkpt lat="42.654555" lon="0.658796">
        <ele>2451.7</ele>
        <time>1970-01-01T08:33:15.000Z</time>
      </trkpt>
      <trkpt lat="42.654555" lon="0.658796">
        <ele>2451.7</ele>
        <time>1970-01-01T08:33:16.000Z</time>
      </trkpt>
      <trkpt lat="42.654555" lon="0.658796">
        <ele>2451.7</ele>
        <time>1970-01-01T08:33:17.000Z</time>
      </trkpt>
      <trkpt lat="42.654555" lon="0.658796">
        <ele>2451.7</ele>
        <time>1970-01-01T08:33:18.000Z</time>
      </trkpt>
      <trkpt lat="42.654555" lon="0.658796">
        <ele>2451.7</ele>
        <time>1970-01-01T08:33:19.000Z</time>
      </trkpt>
      <trkpt lat="42.654555" lon="0.658796">
        <ele>2451.7</ele>
        <time>1970-01-01T08:33:20.000Z</time>
      </trkpt>
      <trkpt lat="42.654555" lon="0.658796">
        <ele>2451.7</ele>
        <time>1970-01-01T08:33:21.000Z</time>
      </trkpt>
      <trkpt lat="42.654555" lon="0.658796">
        <ele>2451.7</ele>
        <time>1970-01-01T08:33:22.000Z</time>
      </trkpt>
      <trkpt lat="42.654555" lon="0.658796">
        <ele>2451.7</ele>
        <time>1970-01-01T08:33:23.000Z</time>
      </trkpt>
      <trkpt lat="42.654555" lon="0.658796">
        <ele>2451.7</ele>
        <time>1970-01-01T08:33:24.000Z</time>
      </trkpt>
      <trkpt lat="42.654555" lon="0.658796">
        <ele>2451.7</ele>
        <time>1970-01-01T08:33:25.000Z</time>
      </trkpt>
      <trkpt lat="42.654555" lon="0.658796">
        <ele>2451.7</ele>
        <time>1970-01-01T08:33:26.000Z</time>
      </trkpt>
      <trkpt lat="42.654555" lon="0.658796">
        <ele>2451.7</ele>
        <time>1970-01-01T08:33:27.000Z</time>
      </trkpt>
      <trkpt lat="42.654555" lon="0.658796">
        <ele>2451.7</ele>
        <time>1970-01-01T08:33:28.000Z</time>
      </trkpt>
      <trkpt lat="42.654555" lon="0.658796">
        <ele>2451.7</ele>
        <time>1970-01-01T08:33:29.000Z</time>
      </trkpt>
      <trkpt lat="42.654555" lon="0.658796">
        <ele>2451.7</ele>
        <time>1970-01-01T08:33:30.000Z</time>
      </trkpt>
      <trkpt lat="42.654555" lon="0.658796">
        <ele>2451.7</ele>
        <time>1970-01-01T08:33:31.000Z</time>
      </trkpt>
      <trkpt lat="42.654555" lon="0.658796">
        <ele>2451.7</ele>
        <time>1970-01-01T08:33:32.000Z</time>
      </trkpt>
      <trkpt lat="42.654555" lon="0.658796">
        <ele>2451.7</ele>
        <time>1970-01-01T08:33:33.000Z</time>
      </trkpt>
      <trkpt lat="42.654555" lon="0.658796">
        <ele>2451.7</ele>
        <time>1970-01-01T08:33:34.000Z</time>
      </trkpt>
      <trkpt lat="42.654555" lon="0.658796">
        <ele>2451.7</ele>
        <time>1970-01-01T08:33:35.000Z</time>
      </trkpt>
      <trkpt lat="42.654555" lon="0.658796">
        <ele>2451.7</ele>
        <time>1970-01-01T08:33:36.000Z</time>
      </trkpt>
      <trkpt lat="42.654555" lon="0.658796">
        <ele>2451.7</ele>
        <time>1970-01-01T08:33:37.000Z</time>
      </trkpt>
      <trkpt lat="42.654555" lon="0.658796">
        <ele>2451.7</ele>
        <time>1970-01-01T08:33:38.000Z</time>
      </trkpt>
      <trkpt lat="42.654555" lon="0.658796">
        <ele>2451.7</ele>
        <time>1970-01-01T08:33:39.000Z</time>
      </trkpt>
      <trkpt lat="42.654555" lon="0.658796">
        <ele>2451.7</ele>
        <time>1970-01-01T08:33:40.000Z</time>
      </trkpt>
      <trkpt lat="42.654555" lon="0.658796">
        <ele>2451.7</ele>
        <time>1970-01-01T08:33:41.000Z</time>
      </trkpt>
      <trkpt lat="42.654555" lon="0.658796">
        <ele>2451.7</ele>
        <time>1970-01-01T08:33:42.000Z</time>
      </trkpt>
      <trkpt lat="42.654555" lon="0.658796">
        <ele>2451.7</ele>
        <time>1970-01-01T08:33:43.000Z</time>
      </trkpt>
      <trkpt lat="42.654555" lon="0.658796">
        <ele>2451.7</ele>
        <time>1970-01-01T08:33:44.000Z</time>
      </trkpt>
      <trkpt lat="42.654555" lon="0.658796">
        <ele>2451.7</ele>
        <time>1970-01-01T08:33:45.000Z</time>
      </trkpt>
      <trkpt lat="42.654555" lon="0.658796">
        <ele>2451.7</ele>
        <time>1970-01-01T08:33:46.000Z</time>
      </trkpt>
      <trkpt lat="42.654555" lon="0.658796">
        <ele>2451.7</ele>
        <time>1970-01-01T08:33:47.000Z</time>
      </trkpt>
      <trkpt lat="42.654555" lon="0.658796">
        <ele>2451.7</ele>
        <time>1970-01-01T08:33:48.000Z</time>
      </trkpt>
      <trkpt lat="42.654555" lon="0.658796">
        <ele>2451.7</ele>
        <time>1970-01-01T08:33:49.000Z</time>
      </trkpt>
      <trkpt lat="42.654555" lon="0.658796">
        <ele>2451.7</ele>
        <time>1970-01-01T08:33:50.000Z</time>
      </trkpt>
      <trkpt lat="42.654555" lon="0.658796">
        <ele>2451.7</ele>
        <time>1970-01-01T08:33:51.000Z</time>
      </trkpt>
      <trkpt lat="42.654555" lon="0.658796">
        <ele>2451.7</ele>
        <time>1970-01-01T08:33:52.000Z</time>
      </trkpt>
      <trkpt lat="42.654555" lon="0.658796">
        <ele>2451.7</ele>
        <time>1970-01-01T08:33:53.000Z</time>
      </trkpt>
      <trkpt lat="42.654555" lon="0.658796">
        <ele>2451.7</ele>
        <time>1970-01-01T08:33:54.000Z</time>
      </trkpt>
      <trkpt lat="42.654555" lon="0.658796">
        <ele>2451.7</ele>
        <time>1970-01-01T08:33:55.000Z</time>
      </trkpt>
      <trkpt lat="42.654555" lon="0.658796">
        <ele>2451.7</ele>
        <time>1970-01-01T08:33:56.000Z</time>
      </trkpt>
      <trkpt lat="42.654555" lon="0.658796">
        <ele>2451.7</ele>
        <time>1970-01-01T08:33:57.000Z</time>
      </trkpt>
      <trkpt lat="42.654555" lon="0.658796">
        <ele>2451.7</ele>
        <time>1970-01-01T08:33:58.000Z</time>
      </trkpt>
      <trkpt lat="42.654555" lon="0.658796">
        <ele>2451.7</ele>
        <time>1970-01-01T08:33:59.000Z</time>
      </trkpt>
      <trkpt lat="42.654555" lon="0.658796">
        <ele>2451.7</ele>
        <time>1970-01-01T08:34:00.000Z</time>
      </trkpt>
      <trkpt lat="42.654555" lon="0.658796">
        <ele>2451.7</ele>
        <time>1970-01-01T08:34:01.000Z</time>
      </trkpt>
      <trkpt lat="42.654555" lon="0.658796">
        <ele>2451.7</ele>
        <time>1970-01-01T08:34:02.000Z</time>
      </trkpt>
      <trkpt lat="42.654555" lon="0.658796">
        <ele>2451.7</ele>
        <time>1970-01-01T08:34:03.000Z</time>
      </trkpt>
      <trkpt lat="42.654555" lon="0.658796">
        <ele>2451.7</ele>
        <time>1970-01-01T08:34:04.000Z</time>
      </trkpt>
      <trkpt lat="42.654555" lon="0.658796">
        <ele>2451.7</ele>
        <time>1970-01-01T08:34:05.000Z</time>
      </trkpt>
      <trkpt lat="42.654555" lon="0.658796">
        <ele>2451.7</ele>
        <time>1970-01-01T08:34:06.000Z</time>
      </trkpt>
      <trkpt lat="42.654555" lon="0.658796">
        <ele>2451.7</ele>
        <time>1970-01-01T08:34:07.000Z</time>
      </trkpt>
      <trkpt lat="42.654555" lon="0.658796">
        <ele>2451.7</ele>
        <time>1970-01-01T08:34:08.000Z</time>
      </trkpt>
      <trkpt lat="42.654555" lon="0.658796">
        <ele>2451.7</ele>
        <time>1970-01-01T08:34:09.000Z</time>
      </trkpt>
      <trkpt lat="42.654555" lon="0.658796">
        <ele>2451.7</ele>
        <time>1970-01-01T08:34:10.000Z</time>
      </trkpt>
      <trkpt lat="42.654555" lon="0.658796">
        <ele>2451.7</ele>
        <time>1970-01-01T08:34:11.000Z</time>
      </trkpt>
      <trkpt lat="42.654555" lon="0.658796">
        <ele>2451.7</ele>
        <time>1970-01-01T08:34:12.000Z</time>
      </trkpt>
      <trkpt lat="42.654555" lon="0.658796">
        <ele>2451.7</ele>
        <time>1970-01-01T08:34:13.000Z</time>
      </trkpt>
      <trkpt lat="42.654555" lon="0.658796">
        <ele>2451.7</ele>
        <time>1970-01-01T08:34:14.000Z</time>
      </trkpt>
      <trkpt lat="42.654555" lon="0.658796">
        <ele>2451.7</ele>
        <time>1970-01-01T08:34:15.000Z</time>
      </trkpt>
      <trkpt lat="42.654555" lon="0.658796">
        <ele>2451.7</ele>
        <time>1970-01-01T08:34:16.000Z</time>
      </trkpt>
      <trkpt lat="42.654555" lon="0.658796">
        <ele>2451.7</ele>
        <time>1970-01-01T08:34:17.000Z</time>
      </trkpt>
      <trkpt lat="42.654555" lon="0.658796">
        <ele>2451.7</ele>
        <time>1970-01-01T08:34:18.000Z</time>
      </trkpt>
      <trkpt lat="42.654555" lon="0.658796">
        <ele>2451.7</ele>
        <time>1970-01-01T08:34:19.000Z</time>
      </trkpt>
      <trkpt lat="42.654555" lon="0.658797">
        <ele>2451.7</ele>
        <time>1970-01-01T08:34:20.000Z</time>
      </trkpt>
      <trkpt lat="42.654555" lon="0.658797">
        <ele>2451.7</ele>
        <time>1970-01-01T08:34:21.000Z</time>
      </trkpt>
      <trkpt lat="42.654555" lon="0.658797">
        <ele>2451.7</ele>
        <time>1970-01-01T08:34:22.000Z</time>
      </trkpt>
      <trkpt lat="42.654555" lon="0.658797">
        <ele>2451.7</ele>
        <time>1970-01-01T08:34:23.000Z</time>
      </trkpt>
      <trkpt lat="42.654555" lon="0.658797">
        <ele>2451.7</ele>
        <time>1970-01-01T08:34:24.000Z</time>
      </trkpt>
      <trkpt lat="42.654555" lon="0.658797">
        <ele>2451.7</ele>
        <time>1970-01-01T08:34:25.000Z</time>
      </trkpt>
      <trkpt lat="42.654555" lon="0.658797">
        <ele>2451.7</ele>
        <time>1970-01-01T08:34:26.000Z</time>
      </trkpt>
      <trkpt lat="42.654555" lon="0.658797">
        <ele>2451.7</ele>
        <time>1970-01-01T08:34:27.000Z</time>
      </trkpt>
      <trkpt lat="42.654555" lon="0.658797">
        <ele>2451.7</ele>
        <time>1970-01-01T08:34:28.000Z</time>
      </trkpt>
      <trkpt lat="42.654555" lon="0.658797">
        <ele>2451.7</ele>
        <time>1970-01-01T08:34:29.000Z</time>
      </trkpt>
      <trkpt lat="42.654555" lon="0.658797">
        <ele>2451.7</ele>
        <time>1970-01-01T08:34:30.000Z</time>
      </trkpt>
      <trkpt lat="42.654555" lon="0.658797">
        <ele>2451.7</ele>
        <time>1970-01-01T08:34:31.000Z</time>
      </trkpt>
      <trkpt lat="42.654555" lon="0.658797">
        <ele>2451.7</ele>
        <time>1970-01-01T08:34:32.000Z</time>
      </trkpt>
      <trkpt lat="42.654555" lon="0.658797">
        <ele>2451.7</ele>
        <time>1970-01-01T08:34:33.000Z</time>
      </trkpt>
      <trkpt lat="42.654555" lon="0.658797">
        <ele>2451.7</ele>
        <time>1970-01-01T08:34:34.000Z</time>
      </trkpt>
      <trkpt lat="42.654556" lon="0.658796">
        <ele>2451.7</ele>
        <time>1970-01-01T08:34:35.000Z</time>
      </trkpt>
      <trkpt lat="42.654556" lon="0.658796">
        <ele>2451.7</ele>
        <time>1970-01-01T08:34:36.000Z</time>
      </trkpt>
      <trkpt lat="42.654556" lon="0.658796">
        <ele>2451.7</ele>
        <time>1970-01-01T08:34:37.000Z</time>
      </trkpt>
      <trkpt lat="42.654555" lon="0.658792">
        <ele>2451.6</ele>
        <time>1970-01-01T08:34:38.000Z</time>
      </trkpt>
      <trkpt lat="42.654556" lon="0.658797">
        <ele>2451.6</ele>
        <time>1970-01-01T08:34:39.000Z</time>
      </trkpt>
      <trkpt lat="42.654556" lon="0.658798">
        <ele>2451.5</ele>
        <time>1970-01-01T08:34:40.000Z</time>
      </trkpt>
      <trkpt lat="42.654555" lon="0.658799">
        <ele>2451.5</ele>
        <time>1970-01-01T08:34:42.000Z</time>
      </trkpt>
      <trkpt lat="42.654553" lon="0.658798">
        <ele>2451.5</ele>
        <time>1970-01-01T08:34:43.000Z</time>
      </trkpt>
      <trkpt lat="42.654551" lon="0.658798">
        <ele>2451.5</ele>
        <time>1970-01-01T08:34:44.000Z</time>
      </trkpt>
      <trkpt lat="42.65455" lon="0.658798">
        <ele>2451.4</ele>
        <time>1970-01-01T08:34:45.000Z</time>
      </trkpt>
      <trkpt lat="42.654549" lon="0.658798">
        <ele>2451.4</ele>
        <time>1970-01-01T08:34:46.000Z</time>
      </trkpt>
      <trkpt lat="42.654549" lon="0.658798">
        <ele>2451.4</ele>
        <time>1970-01-01T08:34:47.000Z</time>
      </trkpt>
      <trkpt lat="42.654549" lon="0.658798">
        <ele>2451.4</ele>
        <time>1970-01-01T08:34:48.000Z</time>
      </trkpt>
      <trkpt lat="42.654549" lon="0.658798">
        <ele>2451.4</ele>
        <time>1970-01-01T08:34:49.000Z</time>
      </trkpt>
      <trkpt lat="42.654548" lon="0.658798">
        <ele>2451.4</ele>
        <time>1970-01-01T08:34:50.000Z</time>
      </trkpt>
      <trkpt lat="42.654548" lon="0.658798">
        <ele>2451.4</ele>
        <time>1970-01-01T08:34:51.000Z</time>
      </trkpt>
      <trkpt lat="42.654548" lon="0.658798">
        <ele>2451.4</ele>
        <time>1970-01-01T08:34:52.000Z</time>
      </trkpt>
      <trkpt lat="42.654547" lon="0.658798">
        <ele>2451.4</ele>
        <time>1970-01-01T08:34:53.000Z</time>
      </trkpt>
      <trkpt lat="42.654547" lon="0.658797">
        <ele>2451.4</ele>
        <time>1970-01-01T08:34:54.000Z</time>
      </trkpt>
      <trkpt lat="42.654546" lon="0.658797">
        <ele>2451.4</ele>
        <time>1970-01-01T08:34:55.000Z</time>
      </trkpt>
      <trkpt lat="42.654546" lon="0.658797">
        <ele>2451.4</ele>
        <time>1970-01-01T08:34:56.000Z</time>
      </trkpt>
      <trkpt lat="42.654547" lon="0.658797">
        <ele>2451.3</ele>
        <time>1970-01-01T08:34:57.000Z</time>
      </trkpt>
      <trkpt lat="42.654547" lon="0.658796">
        <ele>2451.3</ele>
        <time>1970-01-01T08:34:58.000Z</time>
      </trkpt>
      <trkpt lat="42.654548" lon="0.658795">
        <ele>2451.3</ele>
        <time>1970-01-01T08:34:59.000Z</time>
      </trkpt>
      <trkpt lat="42.654548" lon="0.658795">
        <ele>2451.3</ele>
        <time>1970-01-01T08:35:00.000Z</time>
      </trkpt>
      <trkpt lat="42.654548" lon="0.658795">
        <ele>2451.3</ele>
        <time>1970-01-01T08:35:01.000Z</time>
      </trkpt>
      <trkpt lat="42.654548" lon="0.658795">
        <ele>2451.3</ele>
        <time>1970-01-01T08:35:02.000Z</time>
      </trkpt>
      <trkpt lat="42.654548" lon="0.658795">
        <ele>2451.3</ele>
        <time>1970-01-01T08:35:03.000Z</time>
      </trkpt>
      <trkpt lat="42.654548" lon="0.658795">
        <ele>2451.3</ele>
        <time>1970-01-01T08:35:04.000Z</time>
      </trkpt>
      <trkpt lat="42.654548" lon="0.658795">
        <ele>2451.3</ele>
        <time>1970-01-01T08:35:05.000Z</time>
      </trkpt>
      <trkpt lat="42.654548" lon="0.658795">
        <ele>2451.3</ele>
        <time>1970-01-01T08:35:06.000Z</time>
      </trkpt>
      <trkpt lat="42.654548" lon="0.658795">
        <ele>2451.3</ele>
        <time>1970-01-01T08:35:07.000Z</time>
      </trkpt>
      <trkpt lat="42.654548" lon="0.658795">
        <ele>2451.3</ele>
        <time>1970-01-01T08:35:08.000Z</time>
      </trkpt>
      <trkpt lat="42.654548" lon="0.658795">
        <ele>2451.3</ele>
        <time>1970-01-01T08:35:09.000Z</time>
      </trkpt>
      <trkpt lat="42.654548" lon="0.658795">
        <ele>2451.3</ele>
        <time>1970-01-01T08:35:10.000Z</time>
      </trkpt>
      <trkpt lat="42.654548" lon="0.658795">
        <ele>2451.3</ele>
        <time>1970-01-01T08:35:11.000Z</time>
      </trkpt>
      <trkpt lat="42.654548" lon="0.658795">
        <ele>2451.3</ele>
        <time>1970-01-01T08:35:12.000Z</time>
      </trkpt>
      <trkpt lat="42.654548" lon="0.658795">
        <ele>2451.3</ele>
        <time>1970-01-01T08:35:13.000Z</time>
      </trkpt>
      <trkpt lat="42.654548" lon="0.658795">
        <ele>2451.3</ele>
        <time>1970-01-01T08:35:14.000Z</time>
      </trkpt>
      <trkpt lat="42.654548" lon="0.658795">
        <ele>2451.3</ele>
        <time>1970-01-01T08:35:15.000Z</time>
      </trkpt>
      <trkpt lat="42.654548" lon="0.658795">
        <ele>2451.3</ele>
        <time>1970-01-01T08:35:16.000Z</time>
      </trkpt>
      <trkpt lat="42.654548" lon="0.658795">
        <ele>2451.3</ele>
        <time>1970-01-01T08:35:17.000Z</time>
      </trkpt>
      <trkpt lat="42.654548" lon="0.658795">
        <ele>2451.3</ele>
        <time>1970-01-01T08:35:18.000Z</time>
      </trkpt>
      <trkpt lat="42.654548" lon="0.658795">
        <ele>2451.3</ele>
        <time>1970-01-01T08:35:19.000Z</time>
      </trkpt>
      <trkpt lat="42.654548" lon="0.658795">
        <ele>2451.3</ele>
        <time>1970-01-01T08:35:20.000Z</time>
      </trkpt>
      <trkpt lat="42.654548" lon="0.658795">
        <ele>2451.3</ele>
        <time>1970-01-01T08:35:21.000Z</time>
      </trkpt>
      <trkpt lat="42.654548" lon="0.658795">
        <ele>2451.3</ele>
        <time>1970-01-01T08:35:22.000Z</time>
      </trkpt>
      <trkpt lat="42.654548" lon="0.658795">
        <ele>2451.3</ele>
        <time>1970-01-01T08:35:23.000Z</time>
      </trkpt>
      <trkpt lat="42.654548" lon="0.658795">
        <ele>2451.3</ele>
        <time>1970-01-01T08:35:24.000Z</time>
      </trkpt>
      <trkpt lat="42.654548" lon="0.658795">
        <ele>2451.3</ele>
        <time>1970-01-01T08:35:25.000Z</time>
      </trkpt>
      <trkpt lat="42.654548" lon="0.658795">
        <ele>2451.3</ele>
        <time>1970-01-01T08:35:26.000Z</time>
      </trkpt>
      <trkpt lat="42.654548" lon="0.658795">
        <ele>2451.3</ele>
        <time>1970-01-01T08:35:27.000Z</time>
      </trkpt>
      <trkpt lat="42.654548" lon="0.658795">
        <ele>2451.3</ele>
        <time>1970-01-01T08:35:28.000Z</time>
      </trkpt>
      <trkpt lat="42.654548" lon="0.658795">
        <ele>2451.3</ele>
        <time>1970-01-01T08:35:29.000Z</time>
      </trkpt>
      <trkpt lat="42.654548" lon="0.658795">
        <ele>2451.3</ele>
        <time>1970-01-01T08:35:30.000Z</time>
      </trkpt>
      <trkpt lat="42.654548" lon="0.658795">
        <ele>2451.3</ele>
        <time>1970-01-01T08:35:31.000Z</time>
      </trkpt>
      <trkpt lat="42.654548" lon="0.658795">
        <ele>2451.3</ele>
        <time>1970-01-01T08:35:32.000Z</time>
      </trkpt>
      <trkpt lat="42.654548" lon="0.658795">
        <ele>2451.3</ele>
        <time>1970-01-01T08:35:33.000Z</time>
      </trkpt>
      <trkpt lat="42.654548" lon="0.658795">
        <ele>2451.3</ele>
        <time>1970-01-01T08:35:34.000Z</time>
      </trkpt>
      <trkpt lat="42.654548" lon="0.658795">
        <ele>2451.3</ele>
        <time>1970-01-01T08:35:35.000Z</time>
      </trkpt>
      <trkpt lat="42.654548" lon="0.658795">
        <ele>2451.3</ele>
        <time>1970-01-01T08:35:36.000Z</time>
      </trkpt>
      <trkpt lat="42.654548" lon="0.658795">
        <ele>2451.3</ele>
        <time>1970-01-01T08:35:37.000Z</time>
      </trkpt>
      <trkpt lat="42.654548" lon="0.658795">
        <ele>2451.3</ele>
        <time>1970-01-01T08:35:38.000Z</time>
      </trkpt>
      <trkpt lat="42.654549" lon="0.658795">
        <ele>2451.3</ele>
        <time>1970-01-01T08:35:39.000Z</time>
      </trkpt>
      <trkpt lat="42.654549" lon="0.658795">
        <ele>2451.3</ele>
        <time>1970-01-01T08:35:40.000Z</time>
      </trkpt>
      <trkpt lat="42.654549" lon="0.658795">
        <ele>2451.3</ele>
        <time>1970-01-01T08:35:41.000Z</time>
      </trkpt>
      <trkpt lat="42.654549" lon="0.658795">
        <ele>2451.3</ele>
        <time>1970-01-01T08:35:42.000Z</time>
      </trkpt>
      <trkpt lat="42.654549" lon="0.658795">
        <ele>2451.3</ele>
        <time>1970-01-01T08:35:43.000Z</time>
      </trkpt>
      <trkpt lat="42.654549" lon="0.658795">
        <ele>2451.3</ele>
        <time>1970-01-01T08:35:44.000Z</time>
      </trkpt>
      <trkpt lat="42.654549" lon="0.658795">
        <ele>2451.3</ele>
        <time>1970-01-01T08:35:45.000Z</time>
      </trkpt>
      <trkpt lat="42.654549" lon="0.658795">
        <ele>2451.3</ele>
        <time>1970-01-01T08:35:46.000Z</time>
      </trkpt>
      <trkpt lat="42.654549" lon="0.658795">
        <ele>2451.3</ele>
        <time>1970-01-01T08:35:47.000Z</time>
      </trkpt>
      <trkpt lat="42.654549" lon="0.658795">
        <ele>2451.3</ele>
        <time>1970-01-01T08:35:48.000Z</time>
      </trkpt>
      <trkpt lat="42.654549" lon="0.658795">
        <ele>2451.3</ele>
        <time>1970-01-01T08:35:49.000Z</time>
      </trkpt>
      <trkpt lat="42.654549" lon="0.658795">
        <ele>2451.3</ele>
        <time>1970-01-01T08:35:50.000Z</time>
      </trkpt>
      <trkpt lat="42.654549" lon="0.658795">
        <ele>2451.3</ele>
        <time>1970-01-01T08:35:51.000Z</time>
      </trkpt>
      <trkpt lat="42.654549" lon="0.658795">
        <ele>2451.3</ele>
        <time>1970-01-01T08:35:52.000Z</time>
      </trkpt>
      <trkpt lat="42.654549" lon="0.658795">
        <ele>2451.3</ele>
        <time>1970-01-01T08:35:53.000Z</time>
      </trkpt>
      <trkpt lat="42.654549" lon="0.658795">
        <ele>2451.3</ele>
        <time>1970-01-01T08:35:54.000Z</time>
      </trkpt>
      <trkpt lat="42.654549" lon="0.658795">
        <ele>2451.3</ele>
        <time>1970-01-01T08:35:55.000Z</time>
      </trkpt>
      <trkpt lat="42.654549" lon="0.658795">
        <ele>2451.3</ele>
        <time>1970-01-01T08:35:56.000Z</time>
      </trkpt>
      <trkpt lat="42.654549" lon="0.658795">
        <ele>2451.3</ele>
        <time>1970-01-01T08:35:57.000Z</time>
      </trkpt>
      <trkpt lat="42.654549" lon="0.658795">
        <ele>2451.3</ele>
        <time>1970-01-01T08:35:58.000Z</time>
      </trkpt>
      <trkpt lat="42.654549" lon="0.658795">
        <ele>2451.3</ele>
        <time>1970-01-01T08:35:59.000Z</time>
      </trkpt>
      <trkpt lat="42.654549" lon="0.658795">
        <ele>2451.3</ele>
        <time>1970-01-01T08:36:00.000Z</time>
      </trkpt>
      <trkpt lat="42.654549" lon="0.658795">
        <ele>2451.3</ele>
        <time>1970-01-01T08:36:01.000Z</time>
      </trkpt>
      <trkpt lat="42.654549" lon="0.658795">
        <ele>2451.3</ele>
        <time>1970-01-01T08:36:02.000Z</time>
      </trkpt>
      <trkpt lat="42.654549" lon="0.658795">
        <ele>2451.3</ele>
        <time>1970-01-01T08:36:03.000Z</time>
      </trkpt>
      <trkpt lat="42.654549" lon="0.658795">
        <ele>2451.3</ele>
        <time>1970-01-01T08:36:04.000Z</time>
      </trkpt>
      <trkpt lat="42.654549" lon="0.658795">
        <ele>2451.3</ele>
        <time>1970-01-01T08:36:05.000Z</time>
      </trkpt>
      <trkpt lat="42.654549" lon="0.658795">
        <ele>2451.3</ele>
        <time>1970-01-01T08:36:06.000Z</time>
      </trkpt>
      <trkpt lat="42.654549" lon="0.658795">
        <ele>2451.3</ele>
        <time>1970-01-01T08:36:07.000Z</time>
      </trkpt>
      <trkpt lat="42.654549" lon="0.658795">
        <ele>2451.3</ele>
        <time>1970-01-01T08:36:08.000Z</time>
      </trkpt>
      <trkpt lat="42.654549" lon="0.658795">
        <ele>2451.3</ele>
        <time>1970-01-01T08:36:09.000Z</time>
      </trkpt>
      <trkpt lat="42.654549" lon="0.658795">
        <ele>2451.3</ele>
        <time>1970-01-01T08:36:10.000Z</time>
      </trkpt>
      <trkpt lat="42.654549" lon="0.658795">
        <ele>2451.3</ele>
        <time>1970-01-01T08:36:11.000Z</time>
      </trkpt>
      <trkpt lat="42.654549" lon="0.658795">
        <ele>2451.3</ele>
        <time>1970-01-01T08:36:12.000Z</time>
      </trkpt>
      <trkpt lat="42.654549" lon="0.658795">
        <ele>2451.3</ele>
        <time>1970-01-01T08:36:13.000Z</time>
      </trkpt>
      <trkpt lat="42.654549" lon="0.658795">
        <ele>2451.3</ele>
        <time>1970-01-01T08:36:14.000Z</time>
      </trkpt>
      <trkpt lat="42.654549" lon="0.658795">
        <ele>2451.3</ele>
        <time>1970-01-01T08:36:15.000Z</time>
      </trkpt>
      <trkpt lat="42.654549" lon="0.658795">
        <ele>2451.3</ele>
        <time>1970-01-01T08:36:16.000Z</time>
      </trkpt>
      <trkpt lat="42.654549" lon="0.658795">
        <ele>2451.3</ele>
        <time>1970-01-01T08:36:17.000Z</time>
      </trkpt>
      <trkpt lat="42.654549" lon="0.658795">
        <ele>2451.3</ele>
        <time>1970-01-01T08:36:18.000Z</time>
      </trkpt>
      <trkpt lat="42.654549" lon="0.658795">
        <ele>2451.3</ele>
        <time>1970-01-01T08:36:19.000Z</time>
      </trkpt>
      <trkpt lat="42.654549" lon="0.658795">
        <ele>2451.3</ele>
        <time>1970-01-01T08:36:20.000Z</time>
      </trkpt>
      <trkpt lat="42.654549" lon="0.658795">
        <ele>2451.3</ele>
        <time>1970-01-01T08:36:21.000Z</time>
      </trkpt>
      <trkpt lat="42.654549" lon="0.658795">
        <ele>2451.3</ele>
        <time>1970-01-01T08:36:22.000Z</time>
      </trkpt>
      <trkpt lat="42.654549" lon="0.658795">
        <ele>2451.3</ele>
        <time>1970-01-01T08:36:23.000Z</time>
      </trkpt>
      <trkpt lat="42.654549" lon="0.658795">
        <ele>2451.3</ele>
        <time>1970-01-01T08:36:24.000Z</time>
      </trkpt>
      <trkpt lat="42.654549" lon="0.658795">
        <ele>2451.3</ele>
        <time>1970-01-01T08:36:25.000Z</time>
      </trkpt>
      <trkpt lat="42.654549" lon="0.658795">
        <ele>2451.3</ele>
        <time>1970-01-01T08:36:26.000Z</time>
      </trkpt>
      <trkpt lat="42.654549" lon="0.658795">
        <ele>2451.3</ele>
        <time>1970-01-01T08:36:27.000Z</time>
      </trkpt>
      <trkpt lat="42.654549" lon="0.658795">
        <ele>2451.3</ele>
        <time>1970-01-01T08:36:28.000Z</time>
      </trkpt>
      <trkpt lat="42.654549" lon="0.658795">
        <ele>2451.3</ele>
        <time>1970-01-01T08:36:29.000Z</time>
      </trkpt>
      <trkpt lat="42.654549" lon="0.658795">
        <ele>2451.3</ele>
        <time>1970-01-01T08:36:30.000Z</time>
      </trkpt>
      <trkpt lat="42.654549" lon="0.658795">
        <ele>2451.3</ele>
        <time>1970-01-01T08:36:31.000Z</time>
      </trkpt>
      <trkpt lat="42.654549" lon="0.658795">
        <ele>2451.3</ele>
        <time>1970-01-01T08:36:32.000Z</time>
      </trkpt>
      <trkpt lat="42.654549" lon="0.658795">
        <ele>2451.3</ele>
        <time>1970-01-01T08:36:33.000Z</time>
      </trkpt>
      <trkpt lat="42.654549" lon="0.658795">
        <ele>2451.3</ele>
        <time>1970-01-01T08:36:34.000Z</time>
      </trkpt>
      <trkpt lat="42.654549" lon="0.658795">
        <ele>2451.3</ele>
        <time>1970-01-01T08:36:35.000Z</time>
      </trkpt>
      <trkpt lat="42.654549" lon="0.658795">
        <ele>2451.3</ele>
        <time>1970-01-01T08:36:36.000Z</time>
      </trkpt>
      <trkpt lat="42.654549" lon="0.658795">
        <ele>2451.3</ele>
        <time>1970-01-01T08:36:37.000Z</time>
      </trkpt>
      <trkpt lat="42.654549" lon="0.658795">
        <ele>2451.3</ele>
        <time>1970-01-01T08:36:38.000Z</time>
      </trkpt>
      <trkpt lat="42.654549" lon="0.658795">
        <ele>2451.3</ele>
        <time>1970-01-01T08:36:39.000Z</time>
      </trkpt>
      <trkpt lat="42.654549" lon="0.658795">
        <ele>2451.3</ele>
        <time>1970-01-01T08:36:40.000Z</time>
      </trkpt>
      <trkpt lat="42.654549" lon="0.658795">
        <ele>2451.3</ele>
        <time>1970-01-01T08:36:41.000Z</time>
      </trkpt>
      <trkpt lat="42.654549" lon="0.658795">
        <ele>2451.3</ele>
        <time>1970-01-01T08:36:42.000Z</time>
      </trkpt>
      <trkpt lat="42.654549" lon="0.658795">
        <ele>2451.3</ele>
        <time>1970-01-01T08:36:43.000Z</time>
      </trkpt>
      <trkpt lat="42.654549" lon="0.658795">
        <ele>2451.3</ele>
        <time>1970-01-01T08:36:44.000Z</time>
      </trkpt>
      <trkpt lat="42.654549" lon="0.658795">
        <ele>2451.3</ele>
        <time>1970-01-01T08:36:45.000Z</time>
      </trkpt>
      <trkpt lat="42.654549" lon="0.658795">
        <ele>2451.3</ele>
        <time>1970-01-01T08:36:46.000Z</time>
      </trkpt>
      <trkpt lat="42.654549" lon="0.658795">
        <ele>2451.3</ele>
        <time>1970-01-01T08:36:47.000Z</time>
      </trkpt>
      <trkpt lat="42.654549" lon="0.658795">
        <ele>2451.3</ele>
        <time>1970-01-01T08:36:48.000Z</time>
      </trkpt>
      <trkpt lat="42.654549" lon="0.658795">
        <ele>2451.3</ele>
        <time>1970-01-01T08:36:49.000Z</time>
      </trkpt>
      <trkpt lat="42.654549" lon="0.658795">
        <ele>2451.3</ele>
        <time>1970-01-01T08:36:50.000Z</time>
      </trkpt>
      <trkpt lat="42.654549" lon="0.658795">
        <ele>2451.3</ele>
        <time>1970-01-01T08:36:51.000Z</time>
      </trkpt>
      <trkpt lat="42.654549" lon="0.658795">
        <ele>2451.3</ele>
        <time>1970-01-01T08:36:52.000Z</time>
      </trkpt>
      <trkpt lat="42.654549" lon="0.658795">
        <ele>2451.3</ele>
        <time>1970-01-01T08:36:53.000Z</time>
      </trkpt>
      <trkpt lat="42.654549" lon="0.658795">
        <ele>2451.3</ele>
        <time>1970-01-01T08:36:54.000Z</time>
      </trkpt>
      <trkpt lat="42.654549" lon="0.658795">
        <ele>2451.3</ele>
        <time>1970-01-01T08:36:55.000Z</time>
      </trkpt>
      <trkpt lat="42.654549" lon="0.658795">
        <ele>2451.3</ele>
        <time>1970-01-01T08:36:56.000Z</time>
      </trkpt>
      <trkpt lat="42.654549" lon="0.658795">
        <ele>2451.3</ele>
        <time>1970-01-01T08:36:57.000Z</time>
      </trkpt>
      <trkpt lat="42.654549" lon="0.658795">
        <ele>2451.3</ele>
        <time>1970-01-01T08:36:58.000Z</time>
      </trkpt>
      <trkpt lat="42.654549" lon="0.658795">
        <ele>2451.3</ele>
        <time>1970-01-01T08:36:59.000Z</time>
      </trkpt>
      <trkpt lat="42.654549" lon="0.658795">
        <ele>2451.3</ele>
        <time>1970-01-01T08:37:00.000Z</time>
      </trkpt>
      <trkpt lat="42.654549" lon="0.658795">
        <ele>2451.3</ele>
        <time>1970-01-01T08:37:01.000Z</time>
      </trkpt>
      <trkpt lat="42.654549" lon="0.658795">
        <ele>2451.3</ele>
        <time>1970-01-01T08:37:02.000Z</time>
      </trkpt>
      <trkpt lat="42.654549" lon="0.658795">
        <ele>2451.3</ele>
        <time>1970-01-01T08:37:03.000Z</time>
      </trkpt>
      <trkpt lat="42.654549" lon="0.658795">
        <ele>2451.3</ele>
        <time>1970-01-01T08:37:04.000Z</time>
      </trkpt>
      <trkpt lat="42.654549" lon="0.658795">
        <ele>2451.3</ele>
        <time>1970-01-01T08:37:05.000Z</time>
      </trkpt>
      <trkpt lat="42.654549" lon="0.658795">
        <ele>2451.3</ele>
        <time>1970-01-01T08:37:06.000Z</time>
      </trkpt>
      <trkpt lat="42.654549" lon="0.658795">
        <ele>2451.3</ele>
        <time>1970-01-01T08:37:07.000Z</time>
      </trkpt>
      <trkpt lat="42.654549" lon="0.658795">
        <ele>2451.3</ele>
        <time>1970-01-01T08:37:08.000Z</time>
      </trkpt>
      <trkpt lat="42.654549" lon="0.658795">
        <ele>2451.3</ele>
        <time>1970-01-01T08:37:09.000Z</time>
      </trkpt>
      <trkpt lat="42.654549" lon="0.658795">
        <ele>2451.3</ele>
        <time>1970-01-01T08:37:10.000Z</time>
      </trkpt>
      <trkpt lat="42.654549" lon="0.658795">
        <ele>2451.3</ele>
        <time>1970-01-01T08:37:11.000Z</time>
      </trkpt>
      <trkpt lat="42.654549" lon="0.658795">
        <ele>2451.3</ele>
        <time>1970-01-01T08:37:12.000Z</time>
      </trkpt>
      <trkpt lat="42.654549" lon="0.658795">
        <ele>2451.3</ele>
        <time>1970-01-01T08:37:13.000Z</time>
      </trkpt>
      <trkpt lat="42.654549" lon="0.658795">
        <ele>2451.3</ele>
        <time>1970-01-01T08:37:14.000Z</time>
      </trkpt>
      <trkpt lat="42.654549" lon="0.658795">
        <ele>2451.3</ele>
        <time>1970-01-01T08:37:15.000Z</time>
      </trkpt>
      <trkpt lat="42.654549" lon="0.658795">
        <ele>2451.3</ele>
        <time>1970-01-01T08:37:16.000Z</time>
      </trkpt>
      <trkpt lat="42.654549" lon="0.658795">
        <ele>2451.3</ele>
        <time>1970-01-01T08:37:17.000Z</time>
      </trkpt>
      <trkpt lat="42.654549" lon="0.658795">
        <ele>2451.3</ele>
        <time>1970-01-01T08:37:18.000Z</time>
      </trkpt>
      <trkpt lat="42.654549" lon="0.658795">
        <ele>2451.3</ele>
        <time>1970-01-01T08:37:19.000Z</time>
      </trkpt>
      <trkpt lat="42.654549" lon="0.658795">
        <ele>2451.3</ele>
        <time>1970-01-01T08:37:20.000Z</time>
      </trkpt>
      <trkpt lat="42.654549" lon="0.658795">
        <ele>2451.3</ele>
        <time>1970-01-01T08:37:21.000Z</time>
      </trkpt>
      <trkpt lat="42.654549" lon="0.658795">
        <ele>2451.3</ele>
        <time>1970-01-01T08:37:22.000Z</time>
      </trkpt>
      <trkpt lat="42.654549" lon="0.658795">
        <ele>2451.3</ele>
        <time>1970-01-01T08:37:23.000Z</time>
      </trkpt>
      <trkpt lat="42.654549" lon="0.658795">
        <ele>2451.3</ele>
        <time>1970-01-01T08:37:24.000Z</time>
      </trkpt>
      <trkpt lat="42.654549" lon="0.658795">
        <ele>2451.3</ele>
        <time>1970-01-01T08:37:25.000Z</time>
      </trkpt>
      <trkpt lat="42.654549" lon="0.658795">
        <ele>2451.3</ele>
        <time>1970-01-01T08:37:26.000Z</time>
      </trkpt>
      <trkpt lat="42.654549" lon="0.658795">
        <ele>2451.3</ele>
        <time>1970-01-01T08:37:27.000Z</time>
      </trkpt>
      <trkpt lat="42.654549" lon="0.658795">
        <ele>2451.3</ele>
        <time>1970-01-01T08:37:28.000Z</time>
      </trkpt>
      <trkpt lat="42.654549" lon="0.658795">
        <ele>2451.3</ele>
        <time>1970-01-01T08:37:29.000Z</time>
      </trkpt>
      <trkpt lat="42.654549" lon="0.658795">
        <ele>2451.3</ele>
        <time>1970-01-01T08:37:30.000Z</time>
      </trkpt>
      <trkpt lat="42.654549" lon="0.658795">
        <ele>2451.3</ele>
        <time>1970-01-01T08:37:31.000Z</time>
      </trkpt>
      <trkpt lat="42.654549" lon="0.658795">
        <ele>2451.3</ele>
        <time>1970-01-01T08:37:32.000Z</time>
      </trkpt>
      <trkpt lat="42.654549" lon="0.658795">
        <ele>2451.3</ele>
        <time>1970-01-01T08:37:33.000Z</time>
      </trkpt>
      <trkpt lat="42.654549" lon="0.658795">
        <ele>2451.3</ele>
        <time>1970-01-01T08:37:34.000Z</time>
      </trkpt>
      <trkpt lat="42.654549" lon="0.658795">
        <ele>2451.3</ele>
        <time>1970-01-01T08:37:35.000Z</time>
      </trkpt>
      <trkpt lat="42.654549" lon="0.658795">
        <ele>2451.3</ele>
        <time>1970-01-01T08:37:36.000Z</time>
      </trkpt>
      <trkpt lat="42.654549" lon="0.658795">
        <ele>2451.3</ele>
        <time>1970-01-01T08:37:37.000Z</time>
      </trkpt>
      <trkpt lat="42.654549" lon="0.658795">
        <ele>2451.3</ele>
        <time>1970-01-01T08:37:38.000Z</time>
      </trkpt>
      <trkpt lat="42.654549" lon="0.658795">
        <ele>2451.3</ele>
        <time>1970-01-01T08:37:39.000Z</time>
      </trkpt>
      <trkpt lat="42.654549" lon="0.658795">
        <ele>2451.3</ele>
        <time>1970-01-01T08:37:40.000Z</time>
      </trkpt>
      <trkpt lat="42.654549" lon="0.658795">
        <ele>2451.3</ele>
        <time>1970-01-01T08:37:41.000Z</time>
      </trkpt>
      <trkpt lat="42.654549" lon="0.658795">
        <ele>2451.3</ele>
        <time>1970-01-01T08:37:42.000Z</time>
      </trkpt>
      <trkpt lat="42.654549" lon="0.658795">
        <ele>2451.3</ele>
        <time>1970-01-01T08:37:43.000Z</time>
      </trkpt>
      <trkpt lat="42.654549" lon="0.658795">
        <ele>2451.3</ele>
        <time>1970-01-01T08:37:44.000Z</time>
      </trkpt>
      <trkpt lat="42.654549" lon="0.658795">
        <ele>2451.3</ele>
        <time>1970-01-01T08:37:45.000Z</time>
      </trkpt>
      <trkpt lat="42.654549" lon="0.658795">
        <ele>2451.3</ele>
        <time>1970-01-01T08:37:46.000Z</time>
      </trkpt>
      <trkpt lat="42.654549" lon="0.658795">
        <ele>2451.3</ele>
        <time>1970-01-01T08:37:47.000Z</time>
      </trkpt>
      <trkpt lat="42.654549" lon="0.658795">
        <ele>2451.3</ele>
        <time>1970-01-01T08:37:48.000Z</time>
      </trkpt>
      <trkpt lat="42.654549" lon="0.658795">
        <ele>2451.3</ele>
        <time>1970-01-01T08:37:49.000Z</time>
      </trkpt>
      <trkpt lat="42.654549" lon="0.658795">
        <ele>2451.3</ele>
        <time>1970-01-01T08:37:50.000Z</time>
      </trkpt>
      <trkpt lat="42.654549" lon="0.658795">
        <ele>2451.3</ele>
        <time>1970-01-01T08:37:51.000Z</time>
      </trkpt>
      <trkpt lat="42.654549" lon="0.658795">
        <ele>2451.3</ele>
        <time>1970-01-01T08:37:52.000Z</time>
      </trkpt>
      <trkpt lat="42.654549" lon="0.658795">
        <ele>2451.3</ele>
        <time>1970-01-01T08:37:53.000Z</time>
      </trkpt>
      <trkpt lat="42.654549" lon="0.658795">
        <ele>2451.3</ele>
        <time>1970-01-01T08:37:54.000Z</time>
      </trkpt>
      <trkpt lat="42.654549" lon="0.658795">
        <ele>2451.3</ele>
        <time>1970-01-01T08:37:55.000Z</time>
      </trkpt>
      <trkpt lat="42.654549" lon="0.658795">
        <ele>2451.3</ele>
        <time>1970-01-01T08:37:56.000Z</time>
      </trkpt>
      <trkpt lat="42.654549" lon="0.658795">
        <ele>2451.3</ele>
        <time>1970-01-01T08:37:57.000Z</time>
      </trkpt>
      <trkpt lat="42.654549" lon="0.658795">
        <ele>2451.3</ele>
        <time>1970-01-01T08:37:58.000Z</time>
      </trkpt>
      <trkpt lat="42.654549" lon="0.658795">
        <ele>2451.3</ele>
        <time>1970-01-01T08:37:59.000Z</time>
      </trkpt>
      <trkpt lat="42.654549" lon="0.658795">
        <ele>2451.3</ele>
        <time>1970-01-01T08:38:00.000Z</time>
      </trkpt>
      <trkpt lat="42.654549" lon="0.658795">
        <ele>2451.3</ele>
        <time>1970-01-01T08:38:01.000Z</time>
      </trkpt>
      <trkpt lat="42.654549" lon="0.658795">
        <ele>2451.3</ele>
        <time>1970-01-01T08:38:02.000Z</time>
      </trkpt>
      <trkpt lat="42.654549" lon="0.658795">
        <ele>2451.3</ele>
        <time>1970-01-01T08:38:03.000Z</time>
      </trkpt>
      <trkpt lat="42.654549" lon="0.658795">
        <ele>2451.3</ele>
        <time>1970-01-01T08:38:04.000Z</time>
      </trkpt>
      <trkpt lat="42.654549" lon="0.658795">
        <ele>2451.3</ele>
        <time>1970-01-01T08:38:05.000Z</time>
      </trkpt>
      <trkpt lat="42.654549" lon="0.658795">
        <ele>2451.3</ele>
        <time>1970-01-01T08:38:06.000Z</time>
      </trkpt>
      <trkpt lat="42.654549" lon="0.658795">
        <ele>2451.3</ele>
        <time>1970-01-01T08:38:07.000Z</time>
      </trkpt>
      <trkpt lat="42.654549" lon="0.658795">
        <ele>2451.3</ele>
        <time>1970-01-01T08:38:08.000Z</time>
      </trkpt>
      <trkpt lat="42.654549" lon="0.658795">
        <ele>2451.3</ele>
        <time>1970-01-01T08:38:09.000Z</time>
      </trkpt>
      <trkpt lat="42.654549" lon="0.658795">
        <ele>2451.3</ele>
        <time>1970-01-01T08:38:10.000Z</time>
      </trkpt>
      <trkpt lat="42.654549" lon="0.658795">
        <ele>2451.3</ele>
        <time>1970-01-01T08:38:11.000Z</time>
      </trkpt>
      <trkpt lat="42.654549" lon="0.658795">
        <ele>2451.3</ele>
        <time>1970-01-01T08:38:12.000Z</time>
      </trkpt>
      <trkpt lat="42.654549" lon="0.658795">
        <ele>2451.3</ele>
        <time>1970-01-01T08:38:13.000Z</time>
      </trkpt>
      <trkpt lat="42.654549" lon="0.658795">
        <ele>2451.3</ele>
        <time>1970-01-01T08:38:14.000Z</time>
      </trkpt>
      <trkpt lat="42.654549" lon="0.658795">
        <ele>2451.3</ele>
        <time>1970-01-01T08:38:15.000Z</time>
      </trkpt>
      <trkpt lat="42.654549" lon="0.658795">
        <ele>2451.3</ele>
        <time>1970-01-01T08:38:16.000Z</time>
      </trkpt>
      <trkpt lat="42.654549" lon="0.658795">
        <ele>2451.3</ele>
        <time>1970-01-01T08:38:17.000Z</time>
      </trkpt>
      <trkpt lat="42.654549" lon="0.658795">
        <ele>2451.3</ele>
        <time>1970-01-01T08:38:18.000Z</time>
      </trkpt>
      <trkpt lat="42.654549" lon="0.658795">
        <ele>2451.3</ele>
        <time>1970-01-01T08:38:19.000Z</time>
      </trkpt>
      <trkpt lat="42.654549" lon="0.658795">
        <ele>2451.3</ele>
        <time>1970-01-01T08:38:20.000Z</time>
      </trkpt>
      <trkpt lat="42.654549" lon="0.658795">
        <ele>2451.3</ele>
        <time>1970-01-01T08:38:21.000Z</time>
      </trkpt>
      <trkpt lat="42.654549" lon="0.658795">
        <ele>2451.3</ele>
        <time>1970-01-01T08:38:22.000Z</time>
      </trkpt>
      <trkpt lat="42.654549" lon="0.658795">
        <ele>2451.3</ele>
        <time>1970-01-01T08:38:23.000Z</time>
      </trkpt>
      <trkpt lat="42.654549" lon="0.658795">
        <ele>2451.3</ele>
        <time>1970-01-01T08:38:24.000Z</time>
      </trkpt>
      <trkpt lat="42.654549" lon="0.658795">
        <ele>2451.3</ele>
        <time>1970-01-01T08:38:25.000Z</time>
      </trkpt>
      <trkpt lat="42.654549" lon="0.658795">
        <ele>2451.3</ele>
        <time>1970-01-01T08:38:26.000Z</time>
      </trkpt>
      <trkpt lat="42.654549" lon="0.658795">
        <ele>2451.3</ele>
        <time>1970-01-01T08:38:27.000Z</time>
      </trkpt>
      <trkpt lat="42.654549" lon="0.658795">
        <ele>2451.3</ele>
        <time>1970-01-01T08:38:28.000Z</time>
      </trkpt>
      <trkpt lat="42.654549" lon="0.658795">
        <ele>2451.3</ele>
        <time>1970-01-01T08:38:29.000Z</time>
      </trkpt>
      <trkpt lat="42.654549" lon="0.658795">
        <ele>2451.3</ele>
        <time>1970-01-01T08:38:30.000Z</time>
      </trkpt>
      <trkpt lat="42.654549" lon="0.658795">
        <ele>2451.3</ele>
        <time>1970-01-01T08:38:31.000Z</time>
      </trkpt>
      <trkpt lat="42.654549" lon="0.658795">
        <ele>2451.3</ele>
        <time>1970-01-01T08:38:32.000Z</time>
      </trkpt>
      <trkpt lat="42.654549" lon="0.658795">
        <ele>2451.3</ele>
        <time>1970-01-01T08:38:33.000Z</time>
      </trkpt>
      <trkpt lat="42.654549" lon="0.658795">
        <ele>2451.3</ele>
        <time>1970-01-01T08:38:34.000Z</time>
      </trkpt>
      <trkpt lat="42.654549" lon="0.658795">
        <ele>2451.3</ele>
        <time>1970-01-01T08:38:35.000Z</time>
      </trkpt>
      <trkpt lat="42.654549" lon="0.658795">
        <ele>2451.3</ele>
        <time>1970-01-01T08:38:36.000Z</time>
      </trkpt>
      <trkpt lat="42.654549" lon="0.658795">
        <ele>2451.3</ele>
        <time>1970-01-01T08:38:37.000Z</time>
      </trkpt>
      <trkpt lat="42.654549" lon="0.658795">
        <ele>2451.3</ele>
        <time>1970-01-01T08:38:38.000Z</time>
      </trkpt>
      <trkpt lat="42.654549" lon="0.658795">
        <ele>2451.3</ele>
        <time>1970-01-01T08:38:39.000Z</time>
      </trkpt>
      <trkpt lat="42.654549" lon="0.658795">
        <ele>2451.3</ele>
        <time>1970-01-01T08:38:40.000Z</time>
      </trkpt>
      <trkpt lat="42.654549" lon="0.658795">
        <ele>2451.3</ele>
        <time>1970-01-01T08:38:41.000Z</time>
      </trkpt>
      <trkpt lat="42.654549" lon="0.658795">
        <ele>2451.3</ele>
        <time>1970-01-01T08:38:42.000Z</time>
      </trkpt>
      <trkpt lat="42.654549" lon="0.658795">
        <ele>2451.3</ele>
        <time>1970-01-01T08:38:43.000Z</time>
      </trkpt>
      <trkpt lat="42.654549" lon="0.658795">
        <ele>2451.3</ele>
        <time>1970-01-01T08:38:44.000Z</time>
      </trkpt>
      <trkpt lat="42.654549" lon="0.658795">
        <ele>2451.3</ele>
        <time>1970-01-01T08:38:45.000Z</time>
      </trkpt>
      <trkpt lat="42.654549" lon="0.658795">
        <ele>2451.3</ele>
        <time>1970-01-01T08:38:46.000Z</time>
      </trkpt>
      <trkpt lat="42.654549" lon="0.658795">
        <ele>2451.3</ele>
        <time>1970-01-01T08:38:47.000Z</time>
      </trkpt>
      <trkpt lat="42.654549" lon="0.658795">
        <ele>2451.3</ele>
        <time>1970-01-01T08:38:48.000Z</time>
      </trkpt>
      <trkpt lat="42.654549" lon="0.658795">
        <ele>2451.3</ele>
        <time>1970-01-01T08:38:49.000Z</time>
      </trkpt>
      <trkpt lat="42.654549" lon="0.658795">
        <ele>2451.3</ele>
        <time>1970-01-01T08:38:50.000Z</time>
      </trkpt>
      <trkpt lat="42.654549" lon="0.658795">
        <ele>2451.3</ele>
        <time>1970-01-01T08:38:51.000Z</time>
      </trkpt>
      <trkpt lat="42.654549" lon="0.658796">
        <ele>2451.3</ele>
        <time>1970-01-01T08:38:52.000Z</time>
      </trkpt>
      <trkpt lat="42.654549" lon="0.658795">
        <ele>2451.3</ele>
        <time>1970-01-01T08:38:53.000Z</time>
      </trkpt>
      <trkpt lat="42.654549" lon="0.658795">
        <ele>2451.3</ele>
        <time>1970-01-01T08:38:54.000Z</time>
      </trkpt>
      <trkpt lat="42.654549" lon="0.658795">
        <ele>2451.3</ele>
        <time>1970-01-01T08:38:55.000Z</time>
      </trkpt>
      <trkpt lat="42.654549" lon="0.658795">
        <ele>2451.3</ele>
        <time>1970-01-01T08:38:56.000Z</time>
      </trkpt>
      <trkpt lat="42.654549" lon="0.658795">
        <ele>2451.3</ele>
        <time>1970-01-01T08:38:57.000Z</time>
      </trkpt>
      <trkpt lat="42.654549" lon="0.658795">
        <ele>2451.3</ele>
        <time>1970-01-01T08:38:58.000Z</time>
      </trkpt>
      <trkpt lat="42.654549" lon="0.658795">
        <ele>2451.3</ele>
        <time>1970-01-01T08:38:59.000Z</time>
      </trkpt>
      <trkpt lat="42.654549" lon="0.658795">
        <ele>2451.3</ele>
        <time>1970-01-01T08:39:00.000Z</time>
      </trkpt>
      <trkpt lat="42.654549" lon="0.658795">
        <ele>2451.3</ele>
        <time>1970-01-01T08:39:01.000Z</time>
      </trkpt>
      <trkpt lat="42.654549" lon="0.658795">
        <ele>2451.3</ele>
        <time>1970-01-01T08:39:02.000Z</time>
      </trkpt>
      <trkpt lat="42.654549" lon="0.658795">
        <ele>2451.3</ele>
        <time>1970-01-01T08:39:03.000Z</time>
      </trkpt>
      <trkpt lat="42.654549" lon="0.658795">
        <ele>2451.3</ele>
        <time>1970-01-01T08:39:04.000Z</time>
      </trkpt>
      <trkpt lat="42.654549" lon="0.658795">
        <ele>2451.3</ele>
        <time>1970-01-01T08:39:05.000Z</time>
      </trkpt>
      <trkpt lat="42.654549" lon="0.658795">
        <ele>2451.3</ele>
        <time>1970-01-01T08:39:06.000Z</time>
      </trkpt>
      <trkpt lat="42.654549" lon="0.658795">
        <ele>2451.3</ele>
        <time>1970-01-01T08:39:07.000Z</time>
      </trkpt>
      <trkpt lat="42.654549" lon="0.658795">
        <ele>2451.3</ele>
        <time>1970-01-01T08:39:08.000Z</time>
      </trkpt>
      <trkpt lat="42.654549" lon="0.658795">
        <ele>2451.3</ele>
        <time>1970-01-01T08:39:09.000Z</time>
      </trkpt>
      <trkpt lat="42.654549" lon="0.658795">
        <ele>2451.3</ele>
        <time>1970-01-01T08:39:10.000Z</time>
      </trkpt>
      <trkpt lat="42.654549" lon="0.658795">
        <ele>2451.3</ele>
        <time>1970-01-01T08:39:11.000Z</time>
      </trkpt>
      <trkpt lat="42.654549" lon="0.658795">
        <ele>2451.3</ele>
        <time>1970-01-01T08:39:12.000Z</time>
      </trkpt>
      <trkpt lat="42.654549" lon="0.658795">
        <ele>2451.3</ele>
        <time>1970-01-01T08:39:13.000Z</time>
      </trkpt>
      <trkpt lat="42.654549" lon="0.658795">
        <ele>2451.3</ele>
        <time>1970-01-01T08:39:14.000Z</time>
      </trkpt>
      <trkpt lat="42.654549" lon="0.658795">
        <ele>2451.3</ele>
        <time>1970-01-01T08:39:15.000Z</time>
      </trkpt>
      <trkpt lat="42.654549" lon="0.658795">
        <ele>2451.3</ele>
        <time>1970-01-01T08:39:16.000Z</time>
      </trkpt>
      <trkpt lat="42.654549" lon="0.658795">
        <ele>2451.3</ele>
        <time>1970-01-01T08:39:17.000Z</time>
      </trkpt>
      <trkpt lat="42.654549" lon="0.658795">
        <ele>2451.3</ele>
        <time>1970-01-01T08:39:18.000Z</time>
      </trkpt>
      <trkpt lat="42.654549" lon="0.658795">
        <ele>2451.3</ele>
        <time>1970-01-01T08:39:19.000Z</time>
      </trkpt>
      <trkpt lat="42.654549" lon="0.658795">
        <ele>2451.3</ele>
        <time>1970-01-01T08:39:20.000Z</time>
      </trkpt>
      <trkpt lat="42.654549" lon="0.658795">
        <ele>2451.3</ele>
        <time>1970-01-01T08:39:21.000Z</time>
      </trkpt>
      <trkpt lat="42.654549" lon="0.658795">
        <ele>2451.3</ele>
        <time>1970-01-01T08:39:22.000Z</time>
      </trkpt>
      <trkpt lat="42.654549" lon="0.658795">
        <ele>2451.3</ele>
        <time>1970-01-01T08:39:23.000Z</time>
      </trkpt>
      <trkpt lat="42.654549" lon="0.658795">
        <ele>2451.3</ele>
        <time>1970-01-01T08:39:24.000Z</time>
      </trkpt>
      <trkpt lat="42.654549" lon="0.658795">
        <ele>2451.3</ele>
        <time>1970-01-01T08:39:25.000Z</time>
      </trkpt>
      <trkpt lat="42.654549" lon="0.658795">
        <ele>2451.3</ele>
        <time>1970-01-01T08:39:26.000Z</time>
      </trkpt>
      <trkpt lat="42.654549" lon="0.658795">
        <ele>2451.3</ele>
        <time>1970-01-01T08:39:27.000Z</time>
      </trkpt>
      <trkpt lat="42.654549" lon="0.658795">
        <ele>2451.3</ele>
        <time>1970-01-01T08:39:28.000Z</time>
      </trkpt>
      <trkpt lat="42.654549" lon="0.658795">
        <ele>2451.3</ele>
        <time>1970-01-01T08:39:29.000Z</time>
      </trkpt>
      <trkpt lat="42.654548" lon="0.658795">
        <ele>2451.3</ele>
        <time>1970-01-01T08:39:30.000Z</time>
      </trkpt>
      <trkpt lat="42.654548" lon="0.658795">
        <ele>2451.3</ele>
        <time>1970-01-01T08:39:31.000Z</time>
      </trkpt>
      <trkpt lat="42.654548" lon="0.658795">
        <ele>2451.3</ele>
        <time>1970-01-01T08:39:32.000Z</time>
      </trkpt>
      <trkpt lat="42.654548" lon="0.658796">
        <ele>2451.2</ele>
        <time>1970-01-01T08:39:33.000Z</time>
      </trkpt>
      <trkpt lat="42.654548" lon="0.658796">
        <ele>2451.2</ele>
        <time>1970-01-01T08:39:34.000Z</time>
      </trkpt>
      <trkpt lat="42.654548" lon="0.658796">
        <ele>2451.2</ele>
        <time>1970-01-01T08:39:35.000Z</time>
      </trkpt>
      <trkpt lat="42.654548" lon="0.658796">
        <ele>2451.2</ele>
        <time>1970-01-01T08:39:36.000Z</time>
      </trkpt>
      <trkpt lat="42.654548" lon="0.658796">
        <ele>2451.2</ele>
        <time>1970-01-01T08:39:37.000Z</time>
      </trkpt>
      <trkpt lat="42.654548" lon="0.658796">
        <ele>2451.2</ele>
        <time>1970-01-01T08:39:38.000Z</time>
      </trkpt>
      <trkpt lat="42.654548" lon="0.658796">
        <ele>2451.2</ele>
        <time>1970-01-01T08:39:39.000Z</time>
      </trkpt>
      <trkpt lat="42.654548" lon="0.658796">
        <ele>2451.2</ele>
        <time>1970-01-01T08:39:40.000Z</time>
      </trkpt>
      <trkpt lat="42.654548" lon="0.658796">
        <ele>2451.2</ele>
        <time>1970-01-01T08:39:41.000Z</time>
      </trkpt>
      <trkpt lat="42.654549" lon="0.658796">
        <ele>2451.2</ele>
        <time>1970-01-01T08:39:42.000Z</time>
      </trkpt>
      <trkpt lat="42.654549" lon="0.658796">
        <ele>2451.2</ele>
        <time>1970-01-01T08:39:43.000Z</time>
      </trkpt>
      <trkpt lat="42.65455" lon="0.658796">
        <ele>2451.2</ele>
        <time>1970-01-01T08:39:44.000Z</time>
      </trkpt>
      <trkpt lat="42.65455" lon="0.658796">
        <ele>2451.2</ele>
        <time>1970-01-01T08:39:45.000Z</time>
      </trkpt>
      <trkpt lat="42.65455" lon="0.658796">
        <ele>2451.2</ele>
        <time>1970-01-01T08:39:46.000Z</time>
      </trkpt>
      <trkpt lat="42.65455" lon="0.658796">
        <ele>2451.2</ele>
        <time>1970-01-01T08:39:47.000Z</time>
      </trkpt>
      <trkpt lat="42.65455" lon="0.658796">
        <ele>2451.2</ele>
        <time>1970-01-01T08:39:48.000Z</time>
      </trkpt>
      <trkpt lat="42.65455" lon="0.658796">
        <ele>2451.2</ele>
        <time>1970-01-01T08:39:49.000Z</time>
      </trkpt>
      <trkpt lat="42.654548" lon="0.658797">
        <ele>2451.2</ele>
        <time>1970-01-01T08:39:50.000Z</time>
      </trkpt>
      <trkpt lat="42.654549" lon="0.658799">
        <ele>2451.1</ele>
        <time>1970-01-01T08:39:51.000Z</time>
      </trkpt>
      <trkpt lat="42.654549" lon="0.658799">
        <ele>2451.1</ele>
        <time>1970-01-01T08:39:52.000Z</time>
      </trkpt>
      <trkpt lat="42.654549" lon="0.6588">
        <ele>2451.1</ele>
        <time>1970-01-01T08:39:53.000Z</time>
      </trkpt>
      <trkpt lat="42.654548" lon="0.6588">
        <ele>2451.1</ele>
        <time>1970-01-01T08:39:54.000Z</time>
      </trkpt>
      <trkpt lat="42.654548" lon="0.6588">
        <ele>2451.1</ele>
        <time>1970-01-01T08:39:55.000Z</time>
      </trkpt>
      <trkpt lat="42.654546" lon="0.6588">
        <ele>2451.1</ele>
        <time>1970-01-01T08:39:56.000Z</time>
      </trkpt>
      <trkpt lat="42.65454" lon="0.658801">
        <ele>2451</ele>
        <time>1970-01-01T08:39:57.000Z</time>
      </trkpt>
      <trkpt lat="42.654541" lon="0.658801">
        <ele>2451</ele>
        <time>1970-01-01T08:39:58.000Z</time>
      </trkpt>
      <trkpt lat="42.654543" lon="0.658798">
        <ele>2450.9</ele>
        <time>1970-01-01T08:39:59.000Z</time>
      </trkpt>
      <trkpt lat="42.654552" lon="0.658796">
        <ele>2450.8</ele>
        <time>1970-01-01T08:40:00.000Z</time>
      </trkpt>
      <trkpt lat="42.654558" lon="0.658794">
        <ele>2450.7</ele>
        <time>1970-01-01T08:40:02.000Z</time>
      </trkpt>
      <trkpt lat="42.654562" lon="0.658792">
        <ele>2450.6</ele>
        <time>1970-01-01T08:40:03.000Z</time>
      </trkpt>
      <trkpt lat="42.654564" lon="0.658791">
        <ele>2450.6</ele>
        <time>1970-01-01T08:40:04.000Z</time>
      </trkpt>
      <trkpt lat="42.654567" lon="0.65879">
        <ele>2450.5</ele>
        <time>1970-01-01T08:40:05.000Z</time>
      </trkpt>
      <trkpt lat="42.654569" lon="0.65879">
        <ele>2450.5</ele>
        <time>1970-01-01T08:40:06.000Z</time>
      </trkpt>
      <trkpt lat="42.654571" lon="0.65879">
        <ele>2450.4</ele>
        <time>1970-01-01T08:40:08.000Z</time>
      </trkpt>
      <trkpt lat="42.654572" lon="0.65879">
        <ele>2450.4</ele>
        <time>1970-01-01T08:40:09.000Z</time>
      </trkpt>
      <trkpt lat="42.654573" lon="0.65879">
        <ele>2450.4</ele>
        <time>1970-01-01T08:40:10.000Z</time>
      </trkpt>
      <trkpt lat="42.654573" lon="0.658789">
        <ele>2450.4</ele>
        <time>1970-01-01T08:40:11.000Z</time>
      </trkpt>
      <trkpt lat="42.654575" lon="0.658789">
        <ele>2450.4</ele>
        <time>1970-01-01T08:40:13.000Z</time>
      </trkpt>
      <trkpt lat="42.654576" lon="0.658789">
        <ele>2450.3</ele>
        <time>1970-01-01T08:40:14.000Z</time>
      </trkpt>
      <trkpt lat="42.654576" lon="0.658789">
        <ele>2450.3</ele>
        <time>1970-01-01T08:40:15.000Z</time>
      </trkpt>
      <trkpt lat="42.654576" lon="0.658789">
        <ele>2450.3</ele>
        <time>1970-01-01T08:40:16.000Z</time>
      </trkpt>
      <trkpt lat="42.654577" lon="0.658789">
        <ele>2450.3</ele>
        <time>1970-01-01T08:40:17.000Z</time>
      </trkpt>
      <trkpt lat="42.654577" lon="0.658788">
        <ele>2450.3</ele>
        <time>1970-01-01T08:40:18.000Z</time>
      </trkpt>
      <trkpt lat="42.654577" lon="0.658787">
        <ele>2450.3</ele>
        <time>1970-01-01T08:40:19.000Z</time>
      </trkpt>
      <trkpt lat="42.654577" lon="0.658787">
        <ele>2450.3</ele>
        <time>1970-01-01T08:40:20.000Z</time>
      </trkpt>
      <trkpt lat="42.654577" lon="0.658787">
        <ele>2450.3</ele>
        <time>1970-01-01T08:40:21.000Z</time>
      </trkpt>
      <trkpt lat="42.654577" lon="0.658786">
        <ele>2450.3</ele>
        <time>1970-01-01T08:40:22.000Z</time>
      </trkpt>
      <trkpt lat="42.654576" lon="0.658787">
        <ele>2450.3</ele>
        <time>1970-01-01T08:40:23.000Z</time>
      </trkpt>
      <trkpt lat="42.654576" lon="0.658787">
        <ele>2450.3</ele>
        <time>1970-01-01T08:40:24.000Z</time>
      </trkpt>
      <trkpt lat="42.654576" lon="0.658786">
        <ele>2450.3</ele>
        <time>1970-01-01T08:40:26.000Z</time>
      </trkpt>
      <trkpt lat="42.654576" lon="0.658786">
        <ele>2450.3</ele>
        <time>1970-01-01T08:40:27.000Z</time>
      </trkpt>
      <trkpt lat="42.654575" lon="0.658786">
        <ele>2450.2</ele>
        <time>1970-01-01T08:40:28.000Z</time>
      </trkpt>
      <trkpt lat="42.654574" lon="0.658786">
        <ele>2450.2</ele>
        <time>1970-01-01T08:40:29.000Z</time>
      </trkpt>
      <trkpt lat="42.654574" lon="0.658786">
        <ele>2450.2</ele>
        <time>1970-01-01T08:40:30.000Z</time>
      </trkpt>
      <trkpt lat="42.654574" lon="0.658786">
        <ele>2450.2</ele>
        <time>1970-01-01T08:40:31.000Z</time>
      </trkpt>
      <trkpt lat="42.654573" lon="0.658786">
        <ele>2450.2</ele>
        <time>1970-01-01T08:40:32.000Z</time>
      </trkpt>
      <trkpt lat="42.654573" lon="0.658787">
        <ele>2450.2</ele>
        <time>1970-01-01T08:40:33.000Z</time>
      </trkpt>
      <trkpt lat="42.654569" lon="0.658789">
        <ele>2450.1</ele>
        <time>1970-01-01T08:40:34.000Z</time>
      </trkpt>
      <trkpt lat="42.654568" lon="0.65879">
        <ele>2450.1</ele>
        <time>1970-01-01T08:40:35.000Z</time>
      </trkpt>
      <trkpt lat="42.654567" lon="0.65879">
        <ele>2450.1</ele>
        <time>1970-01-01T08:40:36.000Z</time>
      </trkpt>
      <trkpt lat="42.654572" lon="0.65879">
        <ele>2450</ele>
        <time>1970-01-01T08:40:38.000Z</time>
      </trkpt>
      <trkpt lat="42.654572" lon="0.658791">
        <ele>2450</ele>
        <time>1970-01-01T08:40:39.000Z</time>
      </trkpt>
      <trkpt lat="42.654572" lon="0.658792">
        <ele>2450</ele>
        <time>1970-01-01T08:40:40.000Z</time>
      </trkpt>
      <trkpt lat="42.654572" lon="0.658793">
        <ele>2450</ele>
        <time>1970-01-01T08:40:41.000Z</time>
      </trkpt>
      <trkpt lat="42.65457" lon="0.658793">
        <ele>2449.9</ele>
        <time>1970-01-01T08:40:43.000Z</time>
      </trkpt>
      <trkpt lat="42.65457" lon="0.658796">
        <ele>2449.9</ele>
        <time>1970-01-01T08:40:44.000Z</time>
      </trkpt>
      <trkpt lat="42.65457" lon="0.658799">
        <ele>2449.9</ele>
        <time>1970-01-01T08:40:45.000Z</time>
      </trkpt>
      <trkpt lat="42.654569" lon="0.6588">
        <ele>2449.8</ele>
        <time>1970-01-01T08:40:46.000Z</time>
      </trkpt>
      <trkpt lat="42.654568" lon="0.658801">
        <ele>2449.8</ele>
        <time>1970-01-01T08:40:47.000Z</time>
      </trkpt>
      <trkpt lat="42.654568" lon="0.658801">
        <ele>2449.8</ele>
        <time>1970-01-01T08:40:48.000Z</time>
      </trkpt>
      <trkpt lat="42.654568" lon="0.658803">
        <ele>2449.8</ele>
        <time>1970-01-01T08:40:49.000Z</time>
      </trkpt>
      <trkpt lat="42.654568" lon="0.658803">
        <ele>2449.8</ele>
        <time>1970-01-01T08:40:50.000Z</time>
      </trkpt>
      <trkpt lat="42.654569" lon="0.658804">
        <ele>2449.8</ele>
        <time>1970-01-01T08:40:51.000Z</time>
      </trkpt>
      <trkpt lat="42.65457" lon="0.658804">
        <ele>2449.8</ele>
        <time>1970-01-01T08:40:52.000Z</time>
      </trkpt>
      <trkpt lat="42.65457" lon="0.658805">
        <ele>2449.7</ele>
        <time>1970-01-01T08:40:53.000Z</time>
      </trkpt>
      <trkpt lat="42.654571" lon="0.658805">
        <ele>2449.7</ele>
        <time>1970-01-01T08:40:54.000Z</time>
      </trkpt>
      <trkpt lat="42.654571" lon="0.658805">
        <ele>2449.7</ele>
        <time>1970-01-01T08:40:55.000Z</time>
      </trkpt>
      <trkpt lat="42.65457" lon="0.658805">
        <ele>2449.7</ele>
        <time>1970-01-01T08:40:56.000Z</time>
      </trkpt>
      <trkpt lat="42.65457" lon="0.658805">
        <ele>2449.7</ele>
        <time>1970-01-01T08:40:57.000Z</time>
      </trkpt>
      <trkpt lat="42.65457" lon="0.658805">
        <ele>2449.7</ele>
        <time>1970-01-01T08:40:58.000Z</time>
      </trkpt>
      <trkpt lat="42.654565" lon="0.658808">
        <ele>2449.6</ele>
        <time>1970-01-01T08:40:59.000Z</time>
      </trkpt>
      <trkpt lat="42.654562" lon="0.658808">
        <ele>2449.6</ele>
        <time>1970-01-01T08:41:00.000Z</time>
      </trkpt>
      <trkpt lat="42.654561" lon="0.658808">
        <ele>2449.6</ele>
        <time>1970-01-01T08:41:01.000Z</time>
      </trkpt>
      <trkpt lat="42.654561" lon="0.658808">
        <ele>2449.6</ele>
        <time>1970-01-01T08:41:02.000Z</time>
      </trkpt>
      <trkpt lat="42.654561" lon="0.658808">
        <ele>2449.6</ele>
        <time>1970-01-01T08:41:03.000Z</time>
      </trkpt>
      <trkpt lat="42.654561" lon="0.658808">
        <ele>2449.6</ele>
        <time>1970-01-01T08:41:04.000Z</time>
      </trkpt>
      <trkpt lat="42.654561" lon="0.658808">
        <ele>2449.6</ele>
        <time>1970-01-01T08:41:05.000Z</time>
      </trkpt>
      <trkpt lat="42.654561" lon="0.658808">
        <ele>2449.6</ele>
        <time>1970-01-01T08:41:06.000Z</time>
      </trkpt>
      <trkpt lat="42.654561" lon="0.658808">
        <ele>2449.6</ele>
        <time>1970-01-01T08:41:07.000Z</time>
      </trkpt>
      <trkpt lat="42.654556" lon="0.658808">
        <ele>2449.5</ele>
        <time>1970-01-01T08:41:08.000Z</time>
      </trkpt>
      <trkpt lat="42.654552" lon="0.658809">
        <ele>2449.4</ele>
        <time>1970-01-01T08:41:09.000Z</time>
      </trkpt>
      <trkpt lat="42.654549" lon="0.658813">
        <ele>2449.3</ele>
        <time>1970-01-01T08:41:10.000Z</time>
      </trkpt>
      <trkpt lat="42.654548" lon="0.658816">
        <ele>2449.3</ele>
        <time>1970-01-01T08:41:11.000Z</time>
      </trkpt>
      <trkpt lat="42.654548" lon="0.658818">
        <ele>2449.3</ele>
        <time>1970-01-01T08:41:12.000Z</time>
      </trkpt>
      <trkpt lat="42.654548" lon="0.658818">
        <ele>2449.3</ele>
        <time>1970-01-01T08:41:13.000Z</time>
      </trkpt>
      <trkpt lat="42.654548" lon="0.658817">
        <ele>2449.3</ele>
        <time>1970-01-01T08:41:14.000Z</time>
      </trkpt>
      <trkpt lat="42.654548" lon="0.658818">
        <ele>2449.2</ele>
        <time>1970-01-01T08:41:15.000Z</time>
      </trkpt>
      <trkpt lat="42.654548" lon="0.658818">
        <ele>2449.2</ele>
        <time>1970-01-01T08:41:16.000Z</time>
      </trkpt>
      <trkpt lat="42.654548" lon="0.658818">
        <ele>2449.2</ele>
        <time>1970-01-01T08:41:17.000Z</time>
      </trkpt>
      <trkpt lat="42.654548" lon="0.658817">
        <ele>2449.2</ele>
        <time>1970-01-01T08:41:18.000Z</time>
      </trkpt>
      <trkpt lat="42.654549" lon="0.658814">
        <ele>2449.2</ele>
        <time>1970-01-01T08:41:19.000Z</time>
      </trkpt>
      <trkpt lat="42.654548" lon="0.658813">
        <ele>2449.2</ele>
        <time>1970-01-01T08:41:20.000Z</time>
      </trkpt>
      <trkpt lat="42.654546" lon="0.658816">
        <ele>2449.1</ele>
        <time>1970-01-01T08:41:21.000Z</time>
      </trkpt>
      <trkpt lat="42.654545" lon="0.658819">
        <ele>2449.1</ele>
        <time>1970-01-01T08:41:22.000Z</time>
      </trkpt>
      <trkpt lat="42.654546" lon="0.65882">
        <ele>2449.1</ele>
        <time>1970-01-01T08:41:23.000Z</time>
      </trkpt>
      <trkpt lat="42.654546" lon="0.658821">
        <ele>2449.1</ele>
        <time>1970-01-01T08:41:24.000Z</time>
      </trkpt>
      <trkpt lat="42.654546" lon="0.658821">
        <ele>2449.1</ele>
        <time>1970-01-01T08:41:25.000Z</time>
      </trkpt>
      <trkpt lat="42.654546" lon="0.658821">
        <ele>2449.1</ele>
        <time>1970-01-01T08:41:26.000Z</time>
      </trkpt>
      <trkpt lat="42.654546" lon="0.658821">
        <ele>2449.1</ele>
        <time>1970-01-01T08:41:27.000Z</time>
      </trkpt>
      <trkpt lat="42.654545" lon="0.658821">
        <ele>2449</ele>
        <time>1970-01-01T08:41:28.000Z</time>
      </trkpt>
      <trkpt lat="42.654545" lon="0.658821">
        <ele>2449</ele>
        <time>1970-01-01T08:41:29.000Z</time>
      </trkpt>
      <trkpt lat="42.654545" lon="0.658821">
        <ele>2449</ele>
        <time>1970-01-01T08:41:30.000Z</time>
      </trkpt>
      <trkpt lat="42.654545" lon="0.658822">
        <ele>2449</ele>
        <time>1970-01-01T08:41:31.000Z</time>
      </trkpt>
      <trkpt lat="42.65455" lon="0.658821">
        <ele>2448.9</ele>
        <time>1970-01-01T08:41:32.000Z</time>
      </trkpt>
      <trkpt lat="42.654553" lon="0.658816">
        <ele>2448.9</ele>
        <time>1970-01-01T08:41:33.000Z</time>
      </trkpt>
      <trkpt lat="42.654553" lon="0.658815">
        <ele>2448.8</ele>
        <time>1970-01-01T08:41:34.000Z</time>
      </trkpt>
      <trkpt lat="42.654551" lon="0.658817">
        <ele>2448.8</ele>
        <time>1970-01-01T08:41:35.000Z</time>
      </trkpt>
      <trkpt lat="42.654548" lon="0.65882">
        <ele>2448.7</ele>
        <time>1970-01-01T08:41:36.000Z</time>
      </trkpt>
      <trkpt lat="42.654548" lon="0.658822">
        <ele>2448.7</ele>
        <time>1970-01-01T08:41:37.000Z</time>
      </trkpt>
      <trkpt lat="42.654548" lon="0.658822">
        <ele>2448.7</ele>
        <time>1970-01-01T08:41:38.000Z</time>
      </trkpt>
      <trkpt lat="42.654548" lon="0.658822">
        <ele>2448.7</ele>
        <time>1970-01-01T08:41:39.000Z</time>
      </trkpt>
      <trkpt lat="42.654548" lon="0.658822">
        <ele>2448.7</ele>
        <time>1970-01-01T08:41:40.000Z</time>
      </trkpt>
      <trkpt lat="42.654548" lon="0.658822">
        <ele>2448.7</ele>
        <time>1970-01-01T08:41:41.000Z</time>
      </trkpt>
      <trkpt lat="42.654548" lon="0.658822">
        <ele>2448.7</ele>
        <time>1970-01-01T08:41:42.000Z</time>
      </trkpt>
      <trkpt lat="42.654548" lon="0.658822">
        <ele>2448.7</ele>
        <time>1970-01-01T08:41:43.000Z</time>
      </trkpt>
      <trkpt lat="42.654548" lon="0.658821">
        <ele>2448.7</ele>
        <time>1970-01-01T08:41:44.000Z</time>
      </trkpt>
      <trkpt lat="42.654547" lon="0.658822">
        <ele>2448.7</ele>
        <time>1970-01-01T08:41:45.000Z</time>
      </trkpt>
      <trkpt lat="42.654546" lon="0.658822">
        <ele>2448.7</ele>
        <time>1970-01-01T08:41:46.000Z</time>
      </trkpt>
      <trkpt lat="42.654546" lon="0.658822">
        <ele>2448.7</ele>
        <time>1970-01-01T08:41:47.000Z</time>
      </trkpt>
      <trkpt lat="42.654545" lon="0.658822">
        <ele>2448.7</ele>
        <time>1970-01-01T08:41:48.000Z</time>
      </trkpt>
      <trkpt lat="42.654545" lon="0.658823">
        <ele>2448.6</ele>
        <time>1970-01-01T08:41:49.000Z</time>
      </trkpt>
      <trkpt lat="42.654545" lon="0.658823">
        <ele>2448.6</ele>
        <time>1970-01-01T08:41:50.000Z</time>
      </trkpt>
      <trkpt lat="42.654545" lon="0.658824">
        <ele>2448.6</ele>
        <time>1970-01-01T08:41:51.000Z</time>
      </trkpt>
      <trkpt lat="42.654544" lon="0.658824">
        <ele>2448.6</ele>
        <time>1970-01-01T08:41:52.000Z</time>
      </trkpt>
      <trkpt lat="42.654544" lon="0.658824">
        <ele>2448.6</ele>
        <time>1970-01-01T08:41:53.000Z</time>
      </trkpt>
      <trkpt lat="42.654544" lon="0.658825">
        <ele>2448.6</ele>
        <time>1970-01-01T08:41:54.000Z</time>
      </trkpt>
      <trkpt lat="42.654544" lon="0.658825">
        <ele>2448.6</ele>
        <time>1970-01-01T08:41:55.000Z</time>
      </trkpt>
      <trkpt lat="42.654545" lon="0.658826">
        <ele>2448.6</ele>
        <time>1970-01-01T08:41:56.000Z</time>
      </trkpt>
      <trkpt lat="42.654545" lon="0.658826">
        <ele>2448.6</ele>
        <time>1970-01-01T08:41:57.000Z</time>
      </trkpt>
      <trkpt lat="42.654545" lon="0.658827">
        <ele>2448.6</ele>
        <time>1970-01-01T08:41:58.000Z</time>
      </trkpt>
      <trkpt lat="42.654545" lon="0.658828">
        <ele>2448.6</ele>
        <time>1970-01-01T08:41:59.000Z</time>
      </trkpt>
      <trkpt lat="42.654545" lon="0.658828">
        <ele>2448.6</ele>
        <time>1970-01-01T08:42:00.000Z</time>
      </trkpt>
      <trkpt lat="42.654545" lon="0.658828">
        <ele>2448.6</ele>
        <time>1970-01-01T08:42:01.000Z</time>
      </trkpt>
      <trkpt lat="42.654545" lon="0.658828">
        <ele>2448.6</ele>
        <time>1970-01-01T08:42:02.000Z</time>
      </trkpt>
      <trkpt lat="42.654545" lon="0.658828">
        <ele>2448.6</ele>
        <time>1970-01-01T08:42:03.000Z</time>
      </trkpt>
      <trkpt lat="42.654545" lon="0.658828">
        <ele>2448.6</ele>
        <time>1970-01-01T08:42:04.000Z</time>
      </trkpt>
      <trkpt lat="42.654545" lon="0.658828">
        <ele>2448.6</ele>
        <time>1970-01-01T08:42:05.000Z</time>
      </trkpt>
      <trkpt lat="42.654545" lon="0.658828">
        <ele>2448.6</ele>
        <time>1970-01-01T08:42:06.000Z</time>
      </trkpt>
      <trkpt lat="42.654545" lon="0.658828">
        <ele>2448.6</ele>
        <time>1970-01-01T08:42:07.000Z</time>
      </trkpt>
      <trkpt lat="42.654545" lon="0.658828">
        <ele>2448.6</ele>
        <time>1970-01-01T08:42:08.000Z</time>
      </trkpt>
      <trkpt lat="42.654545" lon="0.658828">
        <ele>2448.6</ele>
        <time>1970-01-01T08:42:09.000Z</time>
      </trkpt>
      <trkpt lat="42.654545" lon="0.658828">
        <ele>2448.6</ele>
        <time>1970-01-01T08:42:10.000Z</time>
      </trkpt>
      <trkpt lat="42.654545" lon="0.658828">
        <ele>2448.6</ele>
        <time>1970-01-01T08:42:11.000Z</time>
      </trkpt>
      <trkpt lat="42.654545" lon="0.658828">
        <ele>2448.6</ele>
        <time>1970-01-01T08:42:12.000Z</time>
      </trkpt>
      <trkpt lat="42.654546" lon="0.658829">
        <ele>2448.5</ele>
        <time>1970-01-01T08:42:13.000Z</time>
      </trkpt>
      <trkpt lat="42.654549" lon="0.65883">
        <ele>2448.5</ele>
        <time>1970-01-01T08:42:14.000Z</time>
      </trkpt>
      <trkpt lat="42.654554" lon="0.658829">
        <ele>2448.4</ele>
        <time>1970-01-01T08:42:15.000Z</time>
      </trkpt>
      <trkpt lat="42.654557" lon="0.658828">
        <ele>2448.4</ele>
        <time>1970-01-01T08:42:16.000Z</time>
      </trkpt>
      <trkpt lat="42.654559" lon="0.658828">
        <ele>2448.3</ele>
        <time>1970-01-01T08:42:17.000Z</time>
      </trkpt>
      <trkpt lat="42.654558" lon="0.65883">
        <ele>2448.3</ele>
        <time>1970-01-01T08:42:18.000Z</time>
      </trkpt>
      <trkpt lat="42.654557" lon="0.658831">
        <ele>2448.3</ele>
        <time>1970-01-01T08:42:19.000Z</time>
      </trkpt>
      <trkpt lat="42.654557" lon="0.658836">
        <ele>2448.2</ele>
        <time>1970-01-01T08:42:20.000Z</time>
      </trkpt>
      <trkpt lat="42.654558" lon="0.658841">
        <ele>2448.2</ele>
        <time>1970-01-01T08:42:21.000Z</time>
      </trkpt>
      <trkpt lat="42.654559" lon="0.658847">
        <ele>2448.1</ele>
        <time>1970-01-01T08:42:22.000Z</time>
      </trkpt>
      <trkpt lat="42.654557" lon="0.658844">
        <ele>2448</ele>
        <time>1970-01-01T08:42:23.000Z</time>
      </trkpt>
      <trkpt lat="42.654558" lon="0.658848">
        <ele>2448</ele>
        <time>1970-01-01T08:42:25.000Z</time>
      </trkpt>
      <trkpt lat="42.654558" lon="0.658853">
        <ele>2447.9</ele>
        <time>1970-01-01T08:42:26.000Z</time>
      </trkpt>
      <trkpt lat="42.654557" lon="0.658855">
        <ele>2447.9</ele>
        <time>1970-01-01T08:42:27.000Z</time>
      </trkpt>
      <trkpt lat="42.654558" lon="0.658859">
        <ele>2447.8</ele>
        <time>1970-01-01T08:42:28.000Z</time>
      </trkpt>
      <trkpt lat="42.65456" lon="0.658862">
        <ele>2447.8</ele>
        <time>1970-01-01T08:42:29.000Z</time>
      </trkpt>
      <trkpt lat="42.654562" lon="0.658866">
        <ele>2447.7</ele>
        <time>1970-01-01T08:42:30.000Z</time>
      </trkpt>
      <trkpt lat="42.65456" lon="0.658864">
        <ele>2447.7</ele>
        <time>1970-01-01T08:42:31.000Z</time>
      </trkpt>
      <trkpt lat="42.654559" lon="0.658864">
        <ele>2447.7</ele>
        <time>1970-01-01T08:42:32.000Z</time>
      </trkpt>
      <trkpt lat="42.654559" lon="0.658863">
        <ele>2447.7</ele>
        <time>1970-01-01T08:42:33.000Z</time>
      </trkpt>
      <trkpt lat="42.654558" lon="0.658864">
        <ele>2447.6</ele>
        <time>1970-01-01T08:42:34.000Z</time>
      </trkpt>
      <trkpt lat="42.654557" lon="0.658863">
        <ele>2447.6</ele>
        <time>1970-01-01T08:42:35.000Z</time>
      </trkpt>
      <trkpt lat="42.654557" lon="0.658862">
        <ele>2447.6</ele>
        <time>1970-01-01T08:42:36.000Z</time>
      </trkpt>
      <trkpt lat="42.654557" lon="0.658862">
        <ele>2447.6</ele>
        <time>1970-01-01T08:42:37.000Z</time>
      </trkpt>
      <trkpt lat="42.654557" lon="0.658862">
        <ele>2447.6</ele>
        <time>1970-01-01T08:42:38.000Z</time>
      </trkpt>
      <trkpt lat="42.654556" lon="0.658862">
        <ele>2447.6</ele>
        <time>1970-01-01T08:42:39.000Z</time>
      </trkpt>
      <trkpt lat="42.654556" lon="0.658861">
        <ele>2447.6</ele>
        <time>1970-01-01T08:42:40.000Z</time>
      </trkpt>
      <trkpt lat="42.654556" lon="0.658861">
        <ele>2447.6</ele>
        <time>1970-01-01T08:42:41.000Z</time>
      </trkpt>
      <trkpt lat="42.654556" lon="0.658862">
        <ele>2447.6</ele>
        <time>1970-01-01T08:42:42.000Z</time>
      </trkpt>
      <trkpt lat="42.654556" lon="0.658863">
        <ele>2447.6</ele>
        <time>1970-01-01T08:42:43.000Z</time>
      </trkpt>
      <trkpt lat="42.654556" lon="0.658866">
        <ele>2447.5</ele>
        <time>1970-01-01T08:42:44.000Z</time>
      </trkpt>
      <trkpt lat="42.654557" lon="0.658871">
        <ele>2447.5</ele>
        <time>1970-01-01T08:42:45.000Z</time>
      </trkpt>
      <trkpt lat="42.654558" lon="0.658875">
        <ele>2447.4</ele>
        <time>1970-01-01T08:42:46.000Z</time>
      </trkpt>
      <trkpt lat="42.65456" lon="0.658879">
        <ele>2447.4</ele>
        <time>1970-01-01T08:42:47.000Z</time>
      </trkpt>
      <trkpt lat="42.654563" lon="0.658884">
        <ele>2447.3</ele>
        <time>1970-01-01T08:42:48.000Z</time>
      </trkpt>
      <trkpt lat="42.654565" lon="0.658889">
        <ele>2447.2</ele>
        <time>1970-01-01T08:42:49.000Z</time>
      </trkpt>
      <trkpt lat="42.654568" lon="0.658892">
        <ele>2447.2</ele>
        <time>1970-01-01T08:42:50.000Z</time>
      </trkpt>
      <trkpt lat="42.654571" lon="0.658895">
        <ele>2447.1</ele>
        <time>1970-01-01T08:42:51.000Z</time>
      </trkpt>
      <trkpt lat="42.654575" lon="0.658899">
        <ele>2447</ele>
        <time>1970-01-01T08:42:52.000Z</time>
      </trkpt>
      <trkpt lat="42.654579" lon="0.658904">
        <ele>2446.9</ele>
        <time>1970-01-01T08:42:53.000Z</time>
      </trkpt>
      <trkpt lat="42.654582" lon="0.658913">
        <ele>2446.8</ele>
        <time>1970-01-01T08:42:54.000Z</time>
      </trkpt>
      <trkpt lat="42.654589" lon="0.658923">
        <ele>2446.6</ele>
        <time>1970-01-01T08:42:55.000Z</time>
      </trkpt>
      <trkpt lat="42.654599" lon="0.658946">
        <ele>2446.3</ele>
        <time>1970-01-01T08:42:57.000Z</time>
      </trkpt>
      <trkpt lat="42.654606" lon="0.658957">
        <ele>2446.1</ele>
        <time>1970-01-01T08:42:58.000Z</time>
      </trkpt>
      <trkpt lat="42.654609" lon="0.658967">
        <ele>2446</ele>
        <time>1970-01-01T08:42:59.000Z</time>
      </trkpt>
      <trkpt lat="42.654609" lon="0.658972">
        <ele>2446</ele>
        <time>1970-01-01T08:43:00.000Z</time>
      </trkpt>
      <trkpt lat="42.65461" lon="0.658977">
        <ele>2445.9</ele>
        <time>1970-01-01T08:43:01.000Z</time>
      </trkpt>
      <trkpt lat="42.654612" lon="0.658982">
        <ele>2445.8</ele>
        <time>1970-01-01T08:43:02.000Z</time>
      </trkpt>
      <trkpt lat="42.654614" lon="0.658986">
        <ele>2445.8</ele>
        <time>1970-01-01T08:43:03.000Z</time>
      </trkpt>
      <trkpt lat="42.654621" lon="0.658999">
        <ele>2445.6</ele>
        <time>1970-01-01T08:43:05.000Z</time>
      </trkpt>
      <trkpt lat="42.654629" lon="0.659008">
        <ele>2445.4</ele>
        <time>1970-01-01T08:43:06.000Z</time>
      </trkpt>
      <trkpt lat="42.654628" lon="0.659015">
        <ele>2445.3</ele>
        <time>1970-01-01T08:43:07.000Z</time>
      </trkpt>
      <trkpt lat="42.654627" lon="0.659017">
        <ele>2445.3</ele>
        <time>1970-01-01T08:43:08.000Z</time>
      </trkpt>
      <trkpt lat="42.654632" lon="0.659028">
        <ele>2445.2</ele>
        <time>1970-01-01T08:43:09.000Z</time>
      </trkpt>
      <trkpt lat="42.654636" lon="0.659039">
        <ele>2445</ele>
        <time>1970-01-01T08:43:11.000Z</time>
      </trkpt>
      <trkpt lat="42.654641" lon="0.659052">
        <ele>2444.9</ele>
        <time>1970-01-01T08:43:12.000Z</time>
      </trkpt>
      <trkpt lat="42.654647" lon="0.659061">
        <ele>2444.7</ele>
        <time>1970-01-01T08:43:14.000Z</time>
      </trkpt>
      <trkpt lat="42.654649" lon="0.659065">
        <ele>2444.7</ele>
        <time>1970-01-01T08:43:15.000Z</time>
      </trkpt>
      <trkpt lat="42.654652" lon="0.659074">
        <ele>2444.5</ele>
        <time>1970-01-01T08:43:16.000Z</time>
      </trkpt>
      <trkpt lat="42.654654" lon="0.659079">
        <ele>2444.5</ele>
        <time>1970-01-01T08:43:17.000Z</time>
      </trkpt>
      <trkpt lat="42.654653" lon="0.659082">
        <ele>2444.4</ele>
        <time>1970-01-01T08:43:18.000Z</time>
      </trkpt>
      <trkpt lat="42.654654" lon="0.659085">
        <ele>2444.4</ele>
        <time>1970-01-01T08:43:20.000Z</time>
      </trkpt>
      <trkpt lat="42.654656" lon="0.65909">
        <ele>2444.3</ele>
        <time>1970-01-01T08:43:21.000Z</time>
      </trkpt>
      <trkpt lat="42.654655" lon="0.65909">
        <ele>2444.3</ele>
        <time>1970-01-01T08:43:22.000Z</time>
      </trkpt>
      <trkpt lat="42.654654" lon="0.659089">
        <ele>2444.3</ele>
        <time>1970-01-01T08:43:23.000Z</time>
      </trkpt>
      <trkpt lat="42.654656" lon="0.659091">
        <ele>2444.3</ele>
        <time>1970-01-01T08:43:24.000Z</time>
      </trkpt>
      <trkpt lat="42.654658" lon="0.659095">
        <ele>2444.2</ele>
        <time>1970-01-01T08:43:25.000Z</time>
      </trkpt>
      <trkpt lat="42.654659" lon="0.659097">
        <ele>2444.2</ele>
        <time>1970-01-01T08:43:26.000Z</time>
      </trkpt>
      <trkpt lat="42.654662" lon="0.659101">
        <ele>2444.1</ele>
        <time>1970-01-01T08:43:28.000Z</time>
      </trkpt>
      <trkpt lat="42.654659" lon="0.659104">
        <ele>2444.1</ele>
        <time>1970-01-01T08:43:29.000Z</time>
      </trkpt>
      <trkpt lat="42.654657" lon="0.659104">
        <ele>2444</ele>
        <time>1970-01-01T08:43:30.000Z</time>
      </trkpt>
      <trkpt lat="42.654659" lon="0.659105">
        <ele>2444</ele>
        <time>1970-01-01T08:43:31.000Z</time>
      </trkpt>
      <trkpt lat="42.65466" lon="0.659105">
        <ele>2444</ele>
        <time>1970-01-01T08:43:32.000Z</time>
      </trkpt>
      <trkpt lat="42.654664" lon="0.659111">
        <ele>2443.9</ele>
        <time>1970-01-01T08:43:34.000Z</time>
      </trkpt>
      <trkpt lat="42.654669" lon="0.65912">
        <ele>2443.7</ele>
        <time>1970-01-01T08:43:35.000Z</time>
      </trkpt>
      <trkpt lat="42.654672" lon="0.659129">
        <ele>2443.6</ele>
        <time>1970-01-01T08:43:36.000Z</time>
      </trkpt>
      <trkpt lat="42.654674" lon="0.659136">
        <ele>2443.5</ele>
        <time>1970-01-01T08:43:37.000Z</time>
      </trkpt>
      <trkpt lat="42.654677" lon="0.659148">
        <ele>2443.4</ele>
        <time>1970-01-01T08:43:38.000Z</time>
      </trkpt>
      <trkpt lat="42.654681" lon="0.659159">
        <ele>2443.3</ele>
        <time>1970-01-01T08:43:39.000Z</time>
      </trkpt>
      <trkpt lat="42.654688" lon="0.659172">
        <ele>2443.1</ele>
        <time>1970-01-01T08:43:41.000Z</time>
      </trkpt>
      <trkpt lat="42.654693" lon="0.659179">
        <ele>2443</ele>
        <time>1970-01-01T08:43:42.000Z</time>
      </trkpt>
      <trkpt lat="42.654696" lon="0.659183">
        <ele>2442.9</ele>
        <time>1970-01-01T08:43:43.000Z</time>
      </trkpt>
      <trkpt lat="42.6547" lon="0.659188">
        <ele>2442.8</ele>
        <time>1970-01-01T08:43:44.000Z</time>
      </trkpt>
      <trkpt lat="42.654703" lon="0.659193">
        <ele>2442.7</ele>
        <time>1970-01-01T08:43:45.000Z</time>
      </trkpt>
      <trkpt lat="42.654708" lon="0.659197">
        <ele>2442.6</ele>
        <time>1970-01-01T08:43:46.000Z</time>
      </trkpt>
      <trkpt lat="42.654715" lon="0.659203">
        <ele>2442.5</ele>
        <time>1970-01-01T08:43:48.000Z</time>
      </trkpt>
      <trkpt lat="42.654717" lon="0.659206">
        <ele>2442.5</ele>
        <time>1970-01-01T08:43:49.000Z</time>
      </trkpt>
      <trkpt lat="42.654719" lon="0.65921">
        <ele>2442.4</ele>
        <time>1970-01-01T08:43:50.000Z</time>
      </trkpt>
      <trkpt lat="42.65472" lon="0.659214">
        <ele>2442.4</ele>
        <time>1970-01-01T08:43:51.000Z</time>
      </trkpt>
      <trkpt lat="42.654721" lon="0.659216">
        <ele>2442.3</ele>
        <time>1970-01-01T08:43:52.000Z</time>
      </trkpt>
      <trkpt lat="42.654722" lon="0.65922">
        <ele>2442.3</ele>
        <time>1970-01-01T08:43:53.000Z</time>
      </trkpt>
      <trkpt lat="42.654721" lon="0.659222">
        <ele>2442.3</ele>
        <time>1970-01-01T08:43:54.000Z</time>
      </trkpt>
      <trkpt lat="42.654722" lon="0.659226">
        <ele>2442.2</ele>
        <time>1970-01-01T08:43:55.000Z</time>
      </trkpt>
      <trkpt lat="42.654723" lon="0.659229">
        <ele>2442.2</ele>
        <time>1970-01-01T08:43:56.000Z</time>
      </trkpt>
      <trkpt lat="42.654727" lon="0.659235">
        <ele>2442.1</ele>
        <time>1970-01-01T08:43:58.000Z</time>
      </trkpt>
      <trkpt lat="42.654733" lon="0.659241">
        <ele>2442</ele>
        <time>1970-01-01T08:43:59.000Z</time>
      </trkpt>
      <trkpt lat="42.654737" lon="0.659245">
        <ele>2441.9</ele>
        <time>1970-01-01T08:44:00.000Z</time>
      </trkpt>
      <trkpt lat="42.654747" lon="0.659253">
        <ele>2441.7</ele>
        <time>1970-01-01T08:44:02.000Z</time>
      </trkpt>
      <trkpt lat="42.654757" lon="0.65926">
        <ele>2441.5</ele>
        <time>1970-01-01T08:44:03.000Z</time>
      </trkpt>
      <trkpt lat="42.654763" lon="0.659264">
        <ele>2441.4</ele>
        <time>1970-01-01T08:44:04.000Z</time>
      </trkpt>
      <trkpt lat="42.654773" lon="0.659274">
        <ele>2441.2</ele>
        <time>1970-01-01T08:44:06.000Z</time>
      </trkpt>
      <trkpt lat="42.654781" lon="0.659284">
        <ele>2441.1</ele>
        <time>1970-01-01T08:44:07.000Z</time>
      </trkpt>
      <trkpt lat="42.654785" lon="0.659291">
        <ele>2441</ele>
        <time>1970-01-01T08:44:08.000Z</time>
      </trkpt>
      <trkpt lat="42.654788" lon="0.659297">
        <ele>2440.9</ele>
        <time>1970-01-01T08:44:09.000Z</time>
      </trkpt>
      <trkpt lat="42.65479" lon="0.659303">
        <ele>2440.8</ele>
        <time>1970-01-01T08:44:10.000Z</time>
      </trkpt>
      <trkpt lat="42.654792" lon="0.659313">
        <ele>2440.7</ele>
        <time>1970-01-01T08:44:11.000Z</time>
      </trkpt>
      <trkpt lat="42.654795" lon="0.659322">
        <ele>2440.6</ele>
        <time>1970-01-01T08:44:12.000Z</time>
      </trkpt>
      <trkpt lat="42.654799" lon="0.659328">
        <ele>2440.5</ele>
        <time>1970-01-01T08:44:13.000Z</time>
      </trkpt>
      <trkpt lat="42.654804" lon="0.659332">
        <ele>2440.4</ele>
        <time>1970-01-01T08:44:14.000Z</time>
      </trkpt>
      <trkpt lat="42.65481" lon="0.659338">
        <ele>2440.3</ele>
        <time>1970-01-01T08:44:15.000Z</time>
      </trkpt>
      <trkpt lat="42.654815" lon="0.659348">
        <ele>2440.1</ele>
        <time>1970-01-01T08:44:16.000Z</time>
      </trkpt>
      <trkpt lat="42.654823" lon="0.659363">
        <ele>2439.9</ele>
        <time>1970-01-01T08:44:17.000Z</time>
      </trkpt>
      <trkpt lat="42.65483" lon="0.659378">
        <ele>2439.7</ele>
        <time>1970-01-01T08:44:18.000Z</time>
      </trkpt>
      <trkpt lat="42.65484" lon="0.659388">
        <ele>2439.5</ele>
        <time>1970-01-01T08:44:20.000Z</time>
      </trkpt>
      <trkpt lat="42.654848" lon="0.659392">
        <ele>2439.4</ele>
        <time>1970-01-01T08:44:21.000Z</time>
      </trkpt>
      <trkpt lat="42.654856" lon="0.659396">
        <ele>2439.3</ele>
        <time>1970-01-01T08:44:22.000Z</time>
      </trkpt>
      <trkpt lat="42.654864" lon="0.659401">
        <ele>2439.1</ele>
        <time>1970-01-01T08:44:23.000Z</time>
      </trkpt>
      <trkpt lat="42.65487" lon="0.659408">
        <ele>2439</ele>
        <time>1970-01-01T08:44:24.000Z</time>
      </trkpt>
      <trkpt lat="42.654878" lon="0.659434">
        <ele>2438.6</ele>
        <time>1970-01-01T08:44:26.000Z</time>
      </trkpt>
      <trkpt lat="42.654882" lon="0.659447">
        <ele>2438.5</ele>
        <time>1970-01-01T08:44:27.000Z</time>
      </trkpt>
      <trkpt lat="42.654885" lon="0.65946">
        <ele>2438.3</ele>
        <time>1970-01-01T08:44:29.000Z</time>
      </trkpt>
      <trkpt lat="42.654888" lon="0.659473">
        <ele>2438.2</ele>
        <time>1970-01-01T08:44:30.000Z</time>
      </trkpt>
      <trkpt lat="42.654891" lon="0.659486">
        <ele>2438</ele>
        <time>1970-01-01T08:44:32.000Z</time>
      </trkpt>
      <trkpt lat="42.654895" lon="0.659499">
        <ele>2437.8</ele>
        <time>1970-01-01T08:44:33.000Z</time>
      </trkpt>
      <trkpt lat="42.654898" lon="0.659507">
        <ele>2437.7</ele>
        <time>1970-01-01T08:44:34.000Z</time>
      </trkpt>
      <trkpt lat="42.654903" lon="0.659518">
        <ele>2437.6</ele>
        <time>1970-01-01T08:44:35.000Z</time>
      </trkpt>
      <trkpt lat="42.65491" lon="0.659534">
        <ele>2437.3</ele>
        <time>1970-01-01T08:44:37.000Z</time>
      </trkpt>
      <trkpt lat="42.654915" lon="0.65954">
        <ele>2437.2</ele>
        <time>1970-01-01T08:44:38.000Z</time>
      </trkpt>
      <trkpt lat="42.654918" lon="0.659544">
        <ele>2437.2</ele>
        <time>1970-01-01T08:44:39.000Z</time>
      </trkpt>
      <trkpt lat="42.654922" lon="0.659551">
        <ele>2437.1</ele>
        <time>1970-01-01T08:44:40.000Z</time>
      </trkpt>
      <trkpt lat="42.654926" lon="0.659559">
        <ele>2436.9</ele>
        <time>1970-01-01T08:44:41.000Z</time>
      </trkpt>
      <trkpt lat="42.65493" lon="0.659568">
        <ele>2436.8</ele>
        <time>1970-01-01T08:44:42.000Z</time>
      </trkpt>
      <trkpt lat="42.654934" lon="0.659574">
        <ele>2436.7</ele>
        <time>1970-01-01T08:44:43.000Z</time>
      </trkpt>
      <trkpt lat="42.654939" lon="0.659579">
        <ele>2436.6</ele>
        <time>1970-01-01T08:44:44.000Z</time>
      </trkpt>
      <trkpt lat="42.654945" lon="0.659585">
        <ele>2436.5</ele>
        <time>1970-01-01T08:44:45.000Z</time>
      </trkpt>
      <trkpt lat="42.654951" lon="0.659594">
        <ele>2436.4</ele>
        <time>1970-01-01T08:44:46.000Z</time>
      </trkpt>
      <trkpt lat="42.654959" lon="0.659605">
        <ele>2436.2</ele>
        <time>1970-01-01T08:44:47.000Z</time>
      </trkpt>
      <trkpt lat="42.654966" lon="0.659611">
        <ele>2436</ele>
        <time>1970-01-01T08:44:48.000Z</time>
      </trkpt>
      <trkpt lat="42.654975" lon="0.659618">
        <ele>2435.9</ele>
        <time>1970-01-01T08:44:49.000Z</time>
      </trkpt>
      <trkpt lat="42.654984" lon="0.659626">
        <ele>2435.7</ele>
        <time>1970-01-01T08:44:51.000Z</time>
      </trkpt>
      <trkpt lat="42.654994" lon="0.659634">
        <ele>2435.5</ele>
        <time>1970-01-01T08:44:52.000Z</time>
      </trkpt>
      <trkpt lat="42.655003" lon="0.659641">
        <ele>2435.4</ele>
        <time>1970-01-01T08:44:53.000Z</time>
      </trkpt>
      <trkpt lat="42.655011" lon="0.659649">
        <ele>2435.2</ele>
        <time>1970-01-01T08:44:54.000Z</time>
      </trkpt>
      <trkpt lat="42.655019" lon="0.659657">
        <ele>2435</ele>
        <time>1970-01-01T08:44:55.000Z</time>
      </trkpt>
      <trkpt lat="42.655026" lon="0.659666">
        <ele>2434.9</ele>
        <time>1970-01-01T08:44:57.000Z</time>
      </trkpt>
      <trkpt lat="42.655037" lon="0.659669">
        <ele>2434.7</ele>
        <time>1970-01-01T08:44:58.000Z</time>
      </trkpt>
      <trkpt lat="42.655049" lon="0.659668">
        <ele>2434.5</ele>
        <time>1970-01-01T08:44:59.000Z</time>
      </trkpt>
      <trkpt lat="42.655058" lon="0.659667">
        <ele>2434.4</ele>
        <time>1970-01-01T08:45:00.000Z</time>
      </trkpt>
      <trkpt lat="42.655066" lon="0.659666">
        <ele>2434.3</ele>
        <time>1970-01-01T08:45:01.000Z</time>
      </trkpt>
      <trkpt lat="42.655075" lon="0.659663">
        <ele>2434.1</ele>
        <time>1970-01-01T08:45:02.000Z</time>
      </trkpt>
      <trkpt lat="42.655083" lon="0.659657">
        <ele>2434</ele>
        <time>1970-01-01T08:45:03.000Z</time>
      </trkpt>
      <trkpt lat="42.655091" lon="0.659656">
        <ele>2433.9</ele>
        <time>1970-01-01T08:45:04.000Z</time>
      </trkpt>
      <trkpt lat="42.655096" lon="0.659657">
        <ele>2433.8</ele>
        <time>1970-01-01T08:45:05.000Z</time>
      </trkpt>
      <trkpt lat="42.655105" lon="0.659668">
        <ele>2433.6</ele>
        <time>1970-01-01T08:45:07.000Z</time>
      </trkpt>
      <trkpt lat="42.655109" lon="0.659681">
        <ele>2433.4</ele>
        <time>1970-01-01T08:45:08.000Z</time>
      </trkpt>
      <trkpt lat="42.655113" lon="0.659694">
        <ele>2433.3</ele>
        <time>1970-01-01T08:45:09.000Z</time>
      </trkpt>
      <trkpt lat="42.65512" lon="0.659702">
        <ele>2433.1</ele>
        <time>1970-01-01T08:45:10.000Z</time>
      </trkpt>
      <trkpt lat="42.655126" lon="0.659707">
        <ele>2433</ele>
        <time>1970-01-01T08:45:11.000Z</time>
      </trkpt>
      <trkpt lat="42.655135" lon="0.659711">
        <ele>2432.8</ele>
        <time>1970-01-01T08:45:12.000Z</time>
      </trkpt>
      <trkpt lat="42.655143" lon="0.659715">
        <ele>2432.7</ele>
        <time>1970-01-01T08:45:13.000Z</time>
      </trkpt>
      <trkpt lat="42.65515" lon="0.659719">
        <ele>2432.6</ele>
        <time>1970-01-01T08:45:14.000Z</time>
      </trkpt>
      <trkpt lat="42.655164" lon="0.659725">
        <ele>2432.4</ele>
        <time>1970-01-01T08:45:15.000Z</time>
      </trkpt>
      <trkpt lat="42.655175" lon="0.659731">
        <ele>2432.2</ele>
        <time>1970-01-01T08:45:16.000Z</time>
      </trkpt>
      <trkpt lat="42.655186" lon="0.659736">
        <ele>2432</ele>
        <time>1970-01-01T08:45:18.000Z</time>
      </trkpt>
      <trkpt lat="42.655195" lon="0.659741">
        <ele>2431.8</ele>
        <time>1970-01-01T08:45:19.000Z</time>
      </trkpt>
      <trkpt lat="42.655204" lon="0.659746">
        <ele>2431.7</ele>
        <time>1970-01-01T08:45:20.000Z</time>
      </trkpt>
      <trkpt lat="42.655211" lon="0.659748">
        <ele>2431.6</ele>
        <time>1970-01-01T08:45:21.000Z</time>
      </trkpt>
      <trkpt lat="42.655218" lon="0.65975">
        <ele>2431.4</ele>
        <time>1970-01-01T08:45:22.000Z</time>
      </trkpt>
      <trkpt lat="42.655218" lon="0.65975">
        <ele>2431.4</ele>
        <time>1970-01-01T08:45:23.000Z</time>
      </trkpt>
      <trkpt lat="42.655221" lon="0.659752">
        <ele>2431.4</ele>
        <time>1970-01-01T08:45:24.000Z</time>
      </trkpt>
      <trkpt lat="42.65523" lon="0.659754">
        <ele>2431.3</ele>
        <time>1970-01-01T08:45:25.000Z</time>
      </trkpt>
      <trkpt lat="42.655239" lon="0.659756">
        <ele>2431.1</ele>
        <time>1970-01-01T08:45:26.000Z</time>
      </trkpt>
      <trkpt lat="42.655248" lon="0.659763">
        <ele>2430.9</ele>
        <time>1970-01-01T08:45:27.000Z</time>
      </trkpt>
      <trkpt lat="42.655259" lon="0.659781">
        <ele>2430.7</ele>
        <time>1970-01-01T08:45:29.000Z</time>
      </trkpt>
      <trkpt lat="42.655264" lon="0.659792">
        <ele>2430.5</ele>
        <time>1970-01-01T08:45:30.000Z</time>
      </trkpt>
      <trkpt lat="42.655269" lon="0.659801">
        <ele>2430.4</ele>
        <time>1970-01-01T08:45:31.000Z</time>
      </trkpt>
      <trkpt lat="42.655281" lon="0.659813">
        <ele>2430.2</ele>
        <time>1970-01-01T08:45:33.000Z</time>
      </trkpt>
      <trkpt lat="42.655286" lon="0.659821">
        <ele>2430.1</ele>
        <time>1970-01-01T08:45:34.000Z</time>
      </trkpt>
      <trkpt lat="42.655289" lon="0.659831">
        <ele>2429.9</ele>
        <time>1970-01-01T08:45:36.000Z</time>
      </trkpt>
      <trkpt lat="42.65529" lon="0.659839">
        <ele>2429.8</ele>
        <time>1970-01-01T08:45:37.000Z</time>
      </trkpt>
      <trkpt lat="42.655298" lon="0.659844">
        <ele>2429.7</ele>
        <time>1970-01-01T08:45:39.000Z</time>
      </trkpt>
      <trkpt lat="42.655309" lon="0.65984">
        <ele>2429.5</ele>
        <time>1970-01-01T08:45:40.000Z</time>
      </trkpt>
      <trkpt lat="42.655321" lon="0.659842">
        <ele>2429.3</ele>
        <time>1970-01-01T08:45:41.000Z</time>
      </trkpt>
      <trkpt lat="42.65533" lon="0.659846">
        <ele>2429.2</ele>
        <time>1970-01-01T08:45:42.000Z</time>
      </trkpt>
      <trkpt lat="42.655341" lon="0.65985">
        <ele>2429</ele>
        <time>1970-01-01T08:45:43.000Z</time>
      </trkpt>
      <trkpt lat="42.655349" lon="0.659851">
        <ele>2428.9</ele>
        <time>1970-01-01T08:45:44.000Z</time>
      </trkpt>
      <trkpt lat="42.65536" lon="0.659845">
        <ele>2428.7</ele>
        <time>1970-01-01T08:45:45.000Z</time>
      </trkpt>
      <trkpt lat="42.655373" lon="0.659843">
        <ele>2428.6</ele>
        <time>1970-01-01T08:45:46.000Z</time>
      </trkpt>
      <trkpt lat="42.655383" lon="0.659846">
        <ele>2428.4</ele>
        <time>1970-01-01T08:45:47.000Z</time>
      </trkpt>
      <trkpt lat="42.655392" lon="0.65985">
        <ele>2428.3</ele>
        <time>1970-01-01T08:45:49.000Z</time>
      </trkpt>
      <trkpt lat="42.655402" lon="0.659853">
        <ele>2428.1</ele>
        <time>1970-01-01T08:45:50.000Z</time>
      </trkpt>
      <trkpt lat="42.655412" lon="0.659857">
        <ele>2428</ele>
        <time>1970-01-01T08:45:51.000Z</time>
      </trkpt>
      <trkpt lat="42.655421" lon="0.65986">
        <ele>2427.8</ele>
        <time>1970-01-01T08:45:52.000Z</time>
      </trkpt>
      <trkpt lat="42.65543" lon="0.659866">
        <ele>2427.7</ele>
        <time>1970-01-01T08:45:53.000Z</time>
      </trkpt>
      <trkpt lat="42.655438" lon="0.659871">
        <ele>2427.6</ele>
        <time>1970-01-01T08:45:54.000Z</time>
      </trkpt>
      <trkpt lat="42.655447" lon="0.659877">
        <ele>2427.4</ele>
        <time>1970-01-01T08:45:55.000Z</time>
      </trkpt>
      <trkpt lat="42.655456" lon="0.659888">
        <ele>2427.2</ele>
        <time>1970-01-01T08:45:57.000Z</time>
      </trkpt>
      <trkpt lat="42.65546" lon="0.659897">
        <ele>2427.1</ele>
        <time>1970-01-01T08:45:58.000Z</time>
      </trkpt>
      <trkpt lat="42.655466" lon="0.659901">
        <ele>2427</ele>
        <time>1970-01-01T08:45:59.000Z</time>
      </trkpt>
      <trkpt lat="42.655476" lon="0.659902">
        <ele>2426.9</ele>
        <time>1970-01-01T08:46:00.000Z</time>
      </trkpt>
      <trkpt lat="42.655484" lon="0.659899">
        <ele>2426.8</ele>
        <time>1970-01-01T08:46:02.000Z</time>
      </trkpt>
      <trkpt lat="42.655493" lon="0.659903">
        <ele>2426.6</ele>
        <time>1970-01-01T08:46:03.000Z</time>
      </trkpt>
      <trkpt lat="42.655504" lon="0.659908">
        <ele>2426.4</ele>
        <time>1970-01-01T08:46:04.000Z</time>
      </trkpt>
      <trkpt lat="42.655513" lon="0.659912">
        <ele>2426.3</ele>
        <time>1970-01-01T08:46:05.000Z</time>
      </trkpt>
      <trkpt lat="42.655523" lon="0.659919">
        <ele>2426.1</ele>
        <time>1970-01-01T08:46:06.000Z</time>
      </trkpt>
      <trkpt lat="42.655531" lon="0.659926">
        <ele>2426</ele>
        <time>1970-01-01T08:46:07.000Z</time>
      </trkpt>
      <trkpt lat="42.65554" lon="0.65993">
        <ele>2425.9</ele>
        <time>1970-01-01T08:46:09.000Z</time>
      </trkpt>
      <trkpt lat="42.65555" lon="0.65994">
        <ele>2425.7</ele>
        <time>1970-01-01T08:46:10.000Z</time>
      </trkpt>
      <trkpt lat="42.655555" lon="0.65995">
        <ele>2425.6</ele>
        <time>1970-01-01T08:46:11.000Z</time>
      </trkpt>
      <trkpt lat="42.655559" lon="0.659963">
        <ele>2425.4</ele>
        <time>1970-01-01T08:46:12.000Z</time>
      </trkpt>
      <trkpt lat="42.655565" lon="0.659971">
        <ele>2425.3</ele>
        <time>1970-01-01T08:46:13.000Z</time>
      </trkpt>
      <trkpt lat="42.655574" lon="0.659977">
        <ele>2425.1</ele>
        <time>1970-01-01T08:46:14.000Z</time>
      </trkpt>
      <trkpt lat="42.655583" lon="0.659988">
        <ele>2425</ele>
        <time>1970-01-01T08:46:16.000Z</time>
      </trkpt>
      <trkpt lat="42.655588" lon="0.66">
        <ele>2424.8</ele>
        <time>1970-01-01T08:46:17.000Z</time>
      </trkpt>
      <trkpt lat="42.655593" lon="0.660009">
        <ele>2424.7</ele>
        <time>1970-01-01T08:46:18.000Z</time>
      </trkpt>
      <trkpt lat="42.655598" lon="0.660021">
        <ele>2424.5</ele>
        <time>1970-01-01T08:46:19.000Z</time>
      </trkpt>
      <trkpt lat="42.655601" lon="0.660033">
        <ele>2424.4</ele>
        <time>1970-01-01T08:46:20.000Z</time>
      </trkpt>
      <trkpt lat="42.655609" lon="0.660042">
        <ele>2424.2</ele>
        <time>1970-01-01T08:46:21.000Z</time>
      </trkpt>
      <trkpt lat="42.655623" lon="0.66005">
        <ele>2424</ele>
        <time>1970-01-01T08:46:23.000Z</time>
      </trkpt>
      <trkpt lat="42.655629" lon="0.660058">
        <ele>2423.8</ele>
        <time>1970-01-01T08:46:24.000Z</time>
      </trkpt>
      <trkpt lat="42.655635" lon="0.660064">
        <ele>2423.7</ele>
        <time>1970-01-01T08:46:25.000Z</time>
      </trkpt>
      <trkpt lat="42.655645" lon="0.660071">
        <ele>2423.6</ele>
        <time>1970-01-01T08:46:26.000Z</time>
      </trkpt>
      <trkpt lat="42.655655" lon="0.660076">
        <ele>2423.4</ele>
        <time>1970-01-01T08:46:27.000Z</time>
      </trkpt>
      <trkpt lat="42.655661" lon="0.660084">
        <ele>2423.3</ele>
        <time>1970-01-01T08:46:29.000Z</time>
      </trkpt>
      <trkpt lat="42.655664" lon="0.660096">
        <ele>2423.1</ele>
        <time>1970-01-01T08:46:30.000Z</time>
      </trkpt>
      <trkpt lat="42.65567" lon="0.660107">
        <ele>2423</ele>
        <time>1970-01-01T08:46:31.000Z</time>
      </trkpt>
      <trkpt lat="42.65568" lon="0.660112">
        <ele>2422.8</ele>
        <time>1970-01-01T08:46:32.000Z</time>
      </trkpt>
      <trkpt lat="42.655689" lon="0.660118">
        <ele>2422.6</ele>
        <time>1970-01-01T08:46:33.000Z</time>
      </trkpt>
      <trkpt lat="42.655695" lon="0.660126">
        <ele>2422.5</ele>
        <time>1970-01-01T08:46:34.000Z</time>
      </trkpt>
      <trkpt lat="42.655701" lon="0.660137">
        <ele>2422.4</ele>
        <time>1970-01-01T08:46:35.000Z</time>
      </trkpt>
      <trkpt lat="42.655706" lon="0.660146">
        <ele>2422.2</ele>
        <time>1970-01-01T08:46:36.000Z</time>
      </trkpt>
      <trkpt lat="42.655713" lon="0.660161">
        <ele>2422</ele>
        <time>1970-01-01T08:46:38.000Z</time>
      </trkpt>
      <trkpt lat="42.655718" lon="0.660166">
        <ele>2421.9</ele>
        <time>1970-01-01T08:46:39.000Z</time>
      </trkpt>
      <trkpt lat="42.655721" lon="0.66017">
        <ele>2421.9</ele>
        <time>1970-01-01T08:46:40.000Z</time>
      </trkpt>
      <trkpt lat="42.655727" lon="0.660179">
        <ele>2421.7</ele>
        <time>1970-01-01T08:46:41.000Z</time>
      </trkpt>
      <trkpt lat="42.655739" lon="0.660191">
        <ele>2421.5</ele>
        <time>1970-01-01T08:46:43.000Z</time>
      </trkpt>
      <trkpt lat="42.655745" lon="0.660196">
        <ele>2421.4</ele>
        <time>1970-01-01T08:46:44.000Z</time>
      </trkpt>
      <trkpt lat="42.65575" lon="0.6602">
        <ele>2421.3</ele>
        <time>1970-01-01T08:46:45.000Z</time>
      </trkpt>
      <trkpt lat="42.655758" lon="0.660208">
        <ele>2421.1</ele>
        <time>1970-01-01T08:46:46.000Z</time>
      </trkpt>
      <trkpt lat="42.655767" lon="0.660211">
        <ele>2421</ele>
        <time>1970-01-01T08:46:47.000Z</time>
      </trkpt>
      <trkpt lat="42.655773" lon="0.6602">
        <ele>2420.8</ele>
        <time>1970-01-01T08:46:48.000Z</time>
      </trkpt>
      <trkpt lat="42.655779" lon="0.660191">
        <ele>2420.7</ele>
        <time>1970-01-01T08:46:49.000Z</time>
      </trkpt>
      <trkpt lat="42.655788" lon="0.660201">
        <ele>2420.5</ele>
        <time>1970-01-01T08:46:51.000Z</time>
      </trkpt>
      <trkpt lat="42.655796" lon="0.660219">
        <ele>2420.2</ele>
        <time>1970-01-01T08:46:52.000Z</time>
      </trkpt>
      <trkpt lat="42.655805" lon="0.660231">
        <ele>2420</ele>
        <time>1970-01-01T08:46:53.000Z</time>
      </trkpt>
      <trkpt lat="42.655812" lon="0.660241">
        <ele>2419.9</ele>
        <time>1970-01-01T08:46:54.000Z</time>
      </trkpt>
      <trkpt lat="42.65582" lon="0.66026">
        <ele>2419.6</ele>
        <time>1970-01-01T08:46:56.000Z</time>
      </trkpt>
      <trkpt lat="42.655816" lon="0.660275">
        <ele>2419.4</ele>
        <time>1970-01-01T08:46:57.000Z</time>
      </trkpt>
      <trkpt lat="42.655813" lon="0.660284">
        <ele>2419.3</ele>
        <time>1970-01-01T08:46:58.000Z</time>
      </trkpt>
      <trkpt lat="42.655818" lon="0.660298">
        <ele>2419.1</ele>
        <time>1970-01-01T08:46:59.000Z</time>
      </trkpt>
      <trkpt lat="42.655824" lon="0.660312">
        <ele>2418.9</ele>
        <time>1970-01-01T08:47:00.000Z</time>
      </trkpt>
      <trkpt lat="42.655833" lon="0.660321">
        <ele>2418.7</ele>
        <time>1970-01-01T08:47:01.000Z</time>
      </trkpt>
      <trkpt lat="42.655842" lon="0.660329">
        <ele>2418.5</ele>
        <time>1970-01-01T08:47:03.000Z</time>
      </trkpt>
      <trkpt lat="42.655844" lon="0.660342">
        <ele>2418.3</ele>
        <time>1970-01-01T08:47:04.000Z</time>
      </trkpt>
      <trkpt lat="42.655854" lon="0.660357">
        <ele>2418.1</ele>
        <time>1970-01-01T08:47:05.000Z</time>
      </trkpt>
      <trkpt lat="42.655867" lon="0.660364">
        <ele>2417.8</ele>
        <time>1970-01-01T08:47:07.000Z</time>
      </trkpt>
      <trkpt lat="42.655882" lon="0.660373">
        <ele>2417.5</ele>
        <time>1970-01-01T08:47:08.000Z</time>
      </trkpt>
      <trkpt lat="42.655892" lon="0.660379">
        <ele>2417.3</ele>
        <time>1970-01-01T08:47:09.000Z</time>
      </trkpt>
      <trkpt lat="42.655901" lon="0.660387">
        <ele>2417.1</ele>
        <time>1970-01-01T08:47:10.000Z</time>
      </trkpt>
      <trkpt lat="42.655911" lon="0.660394">
        <ele>2416.9</ele>
        <time>1970-01-01T08:47:11.000Z</time>
      </trkpt>
      <trkpt lat="42.655922" lon="0.6604">
        <ele>2416.7</ele>
        <time>1970-01-01T08:47:12.000Z</time>
      </trkpt>
      <trkpt lat="42.655934" lon="0.660402">
        <ele>2416.5</ele>
        <time>1970-01-01T08:47:14.000Z</time>
      </trkpt>
      <trkpt lat="42.655948" lon="0.660405">
        <ele>2416.2</ele>
        <time>1970-01-01T08:47:15.000Z</time>
      </trkpt>
      <trkpt lat="42.655962" lon="0.660405">
        <ele>2416</ele>
        <time>1970-01-01T08:47:17.000Z</time>
      </trkpt>
      <trkpt lat="42.655966" lon="0.660405">
        <ele>2415.9</ele>
        <time>1970-01-01T08:47:18.000Z</time>
      </trkpt>
      <trkpt lat="42.655969" lon="0.660406">
        <ele>2415.9</ele>
        <time>1970-01-01T08:47:19.000Z</time>
      </trkpt>
      <trkpt lat="42.655976" lon="0.660413">
        <ele>2415.7</ele>
        <time>1970-01-01T08:47:20.000Z</time>
      </trkpt>
      <trkpt lat="42.655985" lon="0.660426">
        <ele>2415.5</ele>
        <time>1970-01-01T08:47:21.000Z</time>
      </trkpt>
      <trkpt lat="42.655997" lon="0.660442">
        <ele>2415.2</ele>
        <time>1970-01-01T08:47:23.000Z</time>
      </trkpt>
      <trkpt lat="42.656008" lon="0.66045">
        <ele>2414.9</ele>
        <time>1970-01-01T08:47:24.000Z</time>
      </trkpt>
      <trkpt lat="42.656016" lon="0.660461">
        <ele>2414.7</ele>
        <time>1970-01-01T08:47:25.000Z</time>
      </trkpt>
      <trkpt lat="42.656025" lon="0.660472">
        <ele>2414.5</ele>
        <time>1970-01-01T08:47:26.000Z</time>
      </trkpt>
      <trkpt lat="42.656032" lon="0.660476">
        <ele>2414.4</ele>
        <time>1970-01-01T08:47:27.000Z</time>
      </trkpt>
      <trkpt lat="42.656044" lon="0.660486">
        <ele>2414.1</ele>
        <time>1970-01-01T08:47:29.000Z</time>
      </trkpt>
      <trkpt lat="42.656058" lon="0.660488">
        <ele>2413.8</ele>
        <time>1970-01-01T08:47:30.000Z</time>
      </trkpt>
      <trkpt lat="42.656067" lon="0.66049">
        <ele>2413.7</ele>
        <time>1970-01-01T08:47:31.000Z</time>
      </trkpt>
      <trkpt lat="42.656071" lon="0.660496">
        <ele>2413.6</ele>
        <time>1970-01-01T08:47:32.000Z</time>
      </trkpt>
      <trkpt lat="42.656076" lon="0.660503">
        <ele>2413.4</ele>
        <time>1970-01-01T08:47:33.000Z</time>
      </trkpt>
      <trkpt lat="42.656082" lon="0.660509">
        <ele>2413.3</ele>
        <time>1970-01-01T08:47:34.000Z</time>
      </trkpt>
      <trkpt lat="42.656087" lon="0.660516">
        <ele>2413.2</ele>
        <time>1970-01-01T08:47:35.000Z</time>
      </trkpt>
      <trkpt lat="42.656093" lon="0.660526">
        <ele>2413</ele>
        <time>1970-01-01T08:47:37.000Z</time>
      </trkpt>
      <trkpt lat="42.656103" lon="0.66053">
        <ele>2412.8</ele>
        <time>1970-01-01T08:47:38.000Z</time>
      </trkpt>
      <trkpt lat="42.656109" lon="0.660531">
        <ele>2412.7</ele>
        <time>1970-01-01T08:47:39.000Z</time>
      </trkpt>
      <trkpt lat="42.656112" lon="0.660533">
        <ele>2412.6</ele>
        <time>1970-01-01T08:47:40.000Z</time>
      </trkpt>
      <trkpt lat="42.656113" lon="0.660536">
        <ele>2412.6</ele>
        <time>1970-01-01T08:47:41.000Z</time>
      </trkpt>
      <trkpt lat="42.656111" lon="0.660538">
        <ele>2412.5</ele>
        <time>1970-01-01T08:47:42.000Z</time>
      </trkpt>
      <trkpt lat="42.656111" lon="0.660543">
        <ele>2412.5</ele>
        <time>1970-01-01T08:47:43.000Z</time>
      </trkpt>
      <trkpt lat="42.656116" lon="0.660548">
        <ele>2412.4</ele>
        <time>1970-01-01T08:47:44.000Z</time>
      </trkpt>
      <trkpt lat="42.656129" lon="0.660545">
        <ele>2412.1</ele>
        <time>1970-01-01T08:47:46.000Z</time>
      </trkpt>
      <trkpt lat="42.656139" lon="0.660544">
        <ele>2411.9</ele>
        <time>1970-01-01T08:47:47.000Z</time>
      </trkpt>
      <trkpt lat="42.656158" lon="0.660547">
        <ele>2411.6</ele>
        <time>1970-01-01T08:47:48.000Z</time>
      </trkpt>
      <trkpt lat="42.656168" lon="0.660551">
        <ele>2411.4</ele>
        <time>1970-01-01T08:47:50.000Z</time>
      </trkpt>
      <trkpt lat="42.656178" lon="0.660554">
        <ele>2411.2</ele>
        <time>1970-01-01T08:47:51.000Z</time>
      </trkpt>
      <trkpt lat="42.656184" lon="0.660565">
        <ele>2411</ele>
        <time>1970-01-01T08:47:52.000Z</time>
      </trkpt>
      <trkpt lat="42.656188" lon="0.660578">
        <ele>2410.8</ele>
        <time>1970-01-01T08:47:53.000Z</time>
      </trkpt>
      <trkpt lat="42.656191" lon="0.66059">
        <ele>2410.6</ele>
        <time>1970-01-01T08:47:54.000Z</time>
      </trkpt>
      <trkpt lat="42.656197" lon="0.660605">
        <ele>2410.4</ele>
        <time>1970-01-01T08:47:56.000Z</time>
      </trkpt>
      <trkpt lat="42.656205" lon="0.660616">
        <ele>2410.2</ele>
        <time>1970-01-01T08:47:57.000Z</time>
      </trkpt>
      <trkpt lat="42.656215" lon="0.660621">
        <ele>2409.9</ele>
        <time>1970-01-01T08:47:58.000Z</time>
      </trkpt>
      <trkpt lat="42.656226" lon="0.660625">
        <ele>2409.7</ele>
        <time>1970-01-01T08:47:59.000Z</time>
      </trkpt>
      <trkpt lat="42.656233" lon="0.660627">
        <ele>2409.6</ele>
        <time>1970-01-01T08:48:00.000Z</time>
      </trkpt>
      <trkpt lat="42.656242" lon="0.660636">
        <ele>2409.4</ele>
        <time>1970-01-01T08:48:01.000Z</time>
      </trkpt>
      <trkpt lat="42.656252" lon="0.66064">
        <ele>2409.2</ele>
        <time>1970-01-01T08:48:03.000Z</time>
      </trkpt>
      <trkpt lat="42.656264" lon="0.660641">
        <ele>2408.9</ele>
        <time>1970-01-01T08:48:04.000Z</time>
      </trkpt>
      <trkpt lat="42.656273" lon="0.660646">
        <ele>2408.7</ele>
        <time>1970-01-01T08:48:06.000Z</time>
      </trkpt>
      <trkpt lat="42.656284" lon="0.660648">
        <ele>2408.5</ele>
        <time>1970-01-01T08:48:07.000Z</time>
      </trkpt>
      <trkpt lat="42.656291" lon="0.66065">
        <ele>2408.3</ele>
        <time>1970-01-01T08:48:08.000Z</time>
      </trkpt>
      <trkpt lat="42.656303" lon="0.660643">
        <ele>2408</ele>
        <time>1970-01-01T08:48:10.000Z</time>
      </trkpt>
      <trkpt lat="42.656306" lon="0.660642">
        <ele>2408</ele>
        <time>1970-01-01T08:48:11.000Z</time>
      </trkpt>
      <trkpt lat="42.656314" lon="0.66065">
        <ele>2407.8</ele>
        <time>1970-01-01T08:48:12.000Z</time>
      </trkpt>
      <trkpt lat="42.656321" lon="0.660655">
        <ele>2407.6</ele>
        <time>1970-01-01T08:48:14.000Z</time>
      </trkpt>
      <trkpt lat="42.656323" lon="0.660659">
        <ele>2407.5</ele>
        <time>1970-01-01T08:48:15.000Z</time>
      </trkpt>
      <trkpt lat="42.656323" lon="0.660665">
        <ele>2407.4</ele>
        <time>1970-01-01T08:48:16.000Z</time>
      </trkpt>
      <trkpt lat="42.656323" lon="0.660667">
        <ele>2407.4</ele>
        <time>1970-01-01T08:48:17.000Z</time>
      </trkpt>
      <trkpt lat="42.656328" lon="0.660681">
        <ele>2407.2</ele>
        <time>1970-01-01T08:48:19.000Z</time>
      </trkpt>
      <trkpt lat="42.65633" lon="0.660694">
        <ele>2407</ele>
        <time>1970-01-01T08:48:20.000Z</time>
      </trkpt>
      <trkpt lat="42.656335" lon="0.66071">
        <ele>2406.7</ele>
        <time>1970-01-01T08:48:21.000Z</time>
      </trkpt>
      <trkpt lat="42.656345" lon="0.660726">
        <ele>2406.4</ele>
        <time>1970-01-01T08:48:22.000Z</time>
      </trkpt>
      <trkpt lat="42.656355" lon="0.660734">
        <ele>2406.1</ele>
        <time>1970-01-01T08:48:23.000Z</time>
      </trkpt>
      <trkpt lat="42.656368" lon="0.660742">
        <ele>2405.8</ele>
        <time>1970-01-01T08:48:25.000Z</time>
      </trkpt>
      <trkpt lat="42.656381" lon="0.660746">
        <ele>2405.6</ele>
        <time>1970-01-01T08:48:26.000Z</time>
      </trkpt>
      <trkpt lat="42.656391" lon="0.660755">
        <ele>2405.3</ele>
        <time>1970-01-01T08:48:28.000Z</time>
      </trkpt>
      <trkpt lat="42.656395" lon="0.660765">
        <ele>2405.1</ele>
        <time>1970-01-01T08:48:29.000Z</time>
      </trkpt>
      <trkpt lat="42.656401" lon="0.660773">
        <ele>2404.9</ele>
        <time>1970-01-01T08:48:30.000Z</time>
      </trkpt>
      <trkpt lat="42.656405" lon="0.660781">
        <ele>2404.8</ele>
        <time>1970-01-01T08:48:31.000Z</time>
      </trkpt>
      <trkpt lat="42.656411" lon="0.660791">
        <ele>2404.6</ele>
        <time>1970-01-01T08:48:32.000Z</time>
      </trkpt>
      <trkpt lat="42.656421" lon="0.6608">
        <ele>2404.3</ele>
        <time>1970-01-01T08:48:34.000Z</time>
      </trkpt>
      <trkpt lat="42.656431" lon="0.660805">
        <ele>2404.1</ele>
        <time>1970-01-01T08:48:35.000Z</time>
      </trkpt>
      <trkpt lat="42.65644" lon="0.660814">
        <ele>2403.8</ele>
        <time>1970-01-01T08:48:36.000Z</time>
      </trkpt>
      <trkpt lat="42.656448" lon="0.660824">
        <ele>2403.6</ele>
        <time>1970-01-01T08:48:37.000Z</time>
      </trkpt>
      <trkpt lat="42.656455" lon="0.660837">
        <ele>2403.3</ele>
        <time>1970-01-01T08:48:38.000Z</time>
      </trkpt>
      <trkpt lat="42.656462" lon="0.660849">
        <ele>2403.1</ele>
        <time>1970-01-01T08:48:39.000Z</time>
      </trkpt>
      <trkpt lat="42.656473" lon="0.660866">
        <ele>2402.7</ele>
        <time>1970-01-01T08:48:41.000Z</time>
      </trkpt>
      <trkpt lat="42.656481" lon="0.660876">
        <ele>2402.5</ele>
        <time>1970-01-01T08:48:42.000Z</time>
      </trkpt>
      <trkpt lat="42.656486" lon="0.660883">
        <ele>2402.3</ele>
        <time>1970-01-01T08:48:43.000Z</time>
      </trkpt>
      <trkpt lat="42.656492" lon="0.660896">
        <ele>2402</ele>
        <time>1970-01-01T08:48:44.000Z</time>
      </trkpt>
      <trkpt lat="42.656498" lon="0.660903">
        <ele>2401.8</ele>
        <time>1970-01-01T08:48:45.000Z</time>
      </trkpt>
      <trkpt lat="42.65651" lon="0.660914">
        <ele>2401.5</ele>
        <time>1970-01-01T08:48:46.000Z</time>
      </trkpt>
      <trkpt lat="42.656521" lon="0.66092">
        <ele>2401.2</ele>
        <time>1970-01-01T08:48:47.000Z</time>
      </trkpt>
      <trkpt lat="42.656532" lon="0.660921">
        <ele>2400.9</ele>
        <time>1970-01-01T08:48:48.000Z</time>
      </trkpt>
      <trkpt lat="42.656542" lon="0.660919">
        <ele>2400.7</ele>
        <time>1970-01-01T08:48:50.000Z</time>
      </trkpt>
      <trkpt lat="42.656552" lon="0.660917">
        <ele>2400.4</ele>
        <time>1970-01-01T08:48:51.000Z</time>
      </trkpt>
      <trkpt lat="42.656568" lon="0.660915">
        <ele>2400.1</ele>
        <time>1970-01-01T08:48:53.000Z</time>
      </trkpt>
      <trkpt lat="42.656583" lon="0.66091">
        <ele>2399.7</ele>
        <time>1970-01-01T08:48:54.000Z</time>
      </trkpt>
      <trkpt lat="42.656594" lon="0.660903">
        <ele>2399.3</ele>
        <time>1970-01-01T08:48:55.000Z</time>
      </trkpt>
      <trkpt lat="42.656604" lon="0.6609">
        <ele>2399.1</ele>
        <time>1970-01-01T08:48:56.000Z</time>
      </trkpt>
      <trkpt lat="42.656613" lon="0.660905">
        <ele>2398.8</ele>
        <time>1970-01-01T08:48:57.000Z</time>
      </trkpt>
      <trkpt lat="42.656621" lon="0.660915">
        <ele>2398.5</ele>
        <time>1970-01-01T08:48:58.000Z</time>
      </trkpt>
      <trkpt lat="42.656628" lon="0.660925">
        <ele>2398.3</ele>
        <time>1970-01-01T08:49:00.000Z</time>
      </trkpt>
      <trkpt lat="42.656633" lon="0.660938">
        <ele>2398</ele>
        <time>1970-01-01T08:49:01.000Z</time>
      </trkpt>
      <trkpt lat="42.656634" lon="0.660945">
        <ele>2397.8</ele>
        <time>1970-01-01T08:49:02.000Z</time>
      </trkpt>
      <trkpt lat="42.656635" lon="0.660963">
        <ele>2397.5</ele>
        <time>1970-01-01T08:49:04.000Z</time>
      </trkpt>
      <trkpt lat="42.656639" lon="0.660967">
        <ele>2397.3</ele>
        <time>1970-01-01T08:49:05.000Z</time>
      </trkpt>
      <trkpt lat="42.656641" lon="0.660969">
        <ele>2397.3</ele>
        <time>1970-01-01T08:49:06.000Z</time>
      </trkpt>
      <trkpt lat="42.656649" lon="0.660966">
        <ele>2397.1</ele>
        <time>1970-01-01T08:49:08.000Z</time>
      </trkpt>
      <trkpt lat="42.656656" lon="0.660953">
        <ele>2396.7</ele>
        <time>1970-01-01T08:49:10.000Z</time>
      </trkpt>
      <trkpt lat="42.656656" lon="0.660951">
        <ele>2396.7</ele>
        <time>1970-01-01T08:49:11.000Z</time>
      </trkpt>
      <trkpt lat="42.656658" lon="0.660949">
        <ele>2396.6</ele>
        <time>1970-01-01T08:49:12.000Z</time>
      </trkpt>
      <trkpt lat="42.656662" lon="0.660949">
        <ele>2396.5</ele>
        <time>1970-01-01T08:49:13.000Z</time>
      </trkpt>
      <trkpt lat="42.656668" lon="0.660951">
        <ele>2396.3</ele>
        <time>1970-01-01T08:49:14.000Z</time>
      </trkpt>
      <trkpt lat="42.656674" lon="0.660958">
        <ele>2396.1</ele>
        <time>1970-01-01T08:49:15.000Z</time>
      </trkpt>
      <trkpt lat="42.656679" lon="0.660958">
        <ele>2396</ele>
        <time>1970-01-01T08:49:16.000Z</time>
      </trkpt>
      <trkpt lat="42.656683" lon="0.660954">
        <ele>2395.8</ele>
        <time>1970-01-01T08:49:18.000Z</time>
      </trkpt>
      <trkpt lat="42.656684" lon="0.66095">
        <ele>2395.7</ele>
        <time>1970-01-01T08:49:19.000Z</time>
      </trkpt>
      <trkpt lat="42.656685" lon="0.660946">
        <ele>2395.6</ele>
        <time>1970-01-01T08:49:20.000Z</time>
      </trkpt>
      <trkpt lat="42.656685" lon="0.66094">
        <ele>2395.5</ele>
        <time>1970-01-01T08:49:21.000Z</time>
      </trkpt>
      <trkpt lat="42.656686" lon="0.660934">
        <ele>2395.4</ele>
        <time>1970-01-01T08:49:22.000Z</time>
      </trkpt>
      <trkpt lat="42.656688" lon="0.660929">
        <ele>2395.3</ele>
        <time>1970-01-01T08:49:23.000Z</time>
      </trkpt>
      <trkpt lat="42.656692" lon="0.660928">
        <ele>2395.1</ele>
        <time>1970-01-01T08:49:24.000Z</time>
      </trkpt>
      <trkpt lat="42.656698" lon="0.66093">
        <ele>2395</ele>
        <time>1970-01-01T08:49:25.000Z</time>
      </trkpt>
      <trkpt lat="42.656703" lon="0.660936">
        <ele>2394.8</ele>
        <time>1970-01-01T08:49:27.000Z</time>
      </trkpt>
      <trkpt lat="42.656707" lon="0.660937">
        <ele>2394.7</ele>
        <time>1970-01-01T08:49:28.000Z</time>
      </trkpt>
      <trkpt lat="42.656714" lon="0.660931">
        <ele>2394.4</ele>
        <time>1970-01-01T08:49:29.000Z</time>
      </trkpt>
      <trkpt lat="42.656714" lon="0.660923">
        <ele>2394.3</ele>
        <time>1970-01-01T08:49:30.000Z</time>
      </trkpt>
      <trkpt lat="42.656715" lon="0.660915">
        <ele>2394.1</ele>
        <time>1970-01-01T08:49:31.000Z</time>
      </trkpt>
      <trkpt lat="42.656717" lon="0.660913">
        <ele>2394</ele>
        <time>1970-01-01T08:49:32.000Z</time>
      </trkpt>
      <trkpt lat="42.656716" lon="0.660912">
        <ele>2394</ele>
        <time>1970-01-01T08:49:34.000Z</time>
      </trkpt>
      <trkpt lat="42.656717" lon="0.660909">
        <ele>2393.9</ele>
        <time>1970-01-01T08:49:35.000Z</time>
      </trkpt>
      <trkpt lat="42.65672" lon="0.660907">
        <ele>2393.8</ele>
        <time>1970-01-01T08:49:36.000Z</time>
      </trkpt>
      <trkpt lat="42.656722" lon="0.660905">
        <ele>2393.7</ele>
        <time>1970-01-01T08:49:37.000Z</time>
      </trkpt>
      <trkpt lat="42.656722" lon="0.660904">
        <ele>2393.7</ele>
        <time>1970-01-01T08:49:38.000Z</time>
      </trkpt>
      <trkpt lat="42.656725" lon="0.660903">
        <ele>2393.6</ele>
        <time>1970-01-01T08:49:39.000Z</time>
      </trkpt>
      <trkpt lat="42.656727" lon="0.6609">
        <ele>2393.6</ele>
        <time>1970-01-01T08:49:40.000Z</time>
      </trkpt>
      <trkpt lat="42.656729" lon="0.660896">
        <ele>2393.5</ele>
        <time>1970-01-01T08:49:41.000Z</time>
      </trkpt>
      <trkpt lat="42.65673" lon="0.660894">
        <ele>2393.4</ele>
        <time>1970-01-01T08:49:42.000Z</time>
      </trkpt>
      <trkpt lat="42.656732" lon="0.660893">
        <ele>2393.3</ele>
        <time>1970-01-01T08:49:43.000Z</time>
      </trkpt>
      <trkpt lat="42.656734" lon="0.66089">
        <ele>2393.3</ele>
        <time>1970-01-01T08:49:44.000Z</time>
      </trkpt>
      <trkpt lat="42.656736" lon="0.660886">
        <ele>2393.2</ele>
        <time>1970-01-01T08:49:45.000Z</time>
      </trkpt>
      <trkpt lat="42.656739" lon="0.660882">
        <ele>2393</ele>
        <time>1970-01-01T08:49:46.000Z</time>
      </trkpt>
      <trkpt lat="42.65674" lon="0.660881">
        <ele>2393</ele>
        <time>1970-01-01T08:49:47.000Z</time>
      </trkpt>
      <trkpt lat="42.656743" lon="0.660878">
        <ele>2392.9</ele>
        <time>1970-01-01T08:49:48.000Z</time>
      </trkpt>
      <trkpt lat="42.656746" lon="0.660878">
        <ele>2392.8</ele>
        <time>1970-01-01T08:49:49.000Z</time>
      </trkpt>
      <trkpt lat="42.656749" lon="0.660883">
        <ele>2392.7</ele>
        <time>1970-01-01T08:49:50.000Z</time>
      </trkpt>
      <trkpt lat="42.656753" lon="0.660888">
        <ele>2392.5</ele>
        <time>1970-01-01T08:49:51.000Z</time>
      </trkpt>
      <trkpt lat="42.656759" lon="0.660892">
        <ele>2392.3</ele>
        <time>1970-01-01T08:49:52.000Z</time>
      </trkpt>
      <trkpt lat="42.65677" lon="0.660898">
        <ele>2392</ele>
        <time>1970-01-01T08:49:54.000Z</time>
      </trkpt>
      <trkpt lat="42.656782" lon="0.6609">
        <ele>2391.6</ele>
        <time>1970-01-01T08:49:55.000Z</time>
      </trkpt>
      <trkpt lat="42.656792" lon="0.660901">
        <ele>2391.3</ele>
        <time>1970-01-01T08:49:56.000Z</time>
      </trkpt>
      <trkpt lat="42.656801" lon="0.660902">
        <ele>2391</ele>
        <time>1970-01-01T08:49:57.000Z</time>
      </trkpt>
      <trkpt lat="42.656809" lon="0.660903">
        <ele>2390.8</ele>
        <time>1970-01-01T08:49:58.000Z</time>
      </trkpt>
      <trkpt lat="42.656819" lon="0.660904">
        <ele>2390.5</ele>
        <time>1970-01-01T08:49:59.000Z</time>
      </trkpt>
      <trkpt lat="42.656829" lon="0.660903">
        <ele>2390.2</ele>
        <time>1970-01-01T08:50:00.000Z</time>
      </trkpt>
      <trkpt lat="42.656847" lon="0.660902">
        <ele>2389.7</ele>
        <time>1970-01-01T08:50:01.000Z</time>
      </trkpt>
      <trkpt lat="42.656858" lon="0.660899">
        <ele>2389.3</ele>
        <time>1970-01-01T08:50:02.000Z</time>
      </trkpt>
      <trkpt lat="42.656869" lon="0.660896">
        <ele>2389</ele>
        <time>1970-01-01T08:50:04.000Z</time>
      </trkpt>
      <trkpt lat="42.656879" lon="0.660893">
        <ele>2388.7</ele>
        <time>1970-01-01T08:50:05.000Z</time>
      </trkpt>
      <trkpt lat="42.65689" lon="0.66089">
        <ele>2388.4</ele>
        <time>1970-01-01T08:50:06.000Z</time>
      </trkpt>
      <trkpt lat="42.656901" lon="0.660887">
        <ele>2388</ele>
        <time>1970-01-01T08:50:07.000Z</time>
      </trkpt>
      <trkpt lat="42.656905" lon="0.660874">
        <ele>2387.7</ele>
        <time>1970-01-01T08:50:08.000Z</time>
      </trkpt>
      <trkpt lat="42.656908" lon="0.660862">
        <ele>2387.4</ele>
        <time>1970-01-01T08:50:10.000Z</time>
      </trkpt>
      <trkpt lat="42.656916" lon="0.66086">
        <ele>2387.2</ele>
        <time>1970-01-01T08:50:11.000Z</time>
      </trkpt>
      <trkpt lat="42.656925" lon="0.660854">
        <ele>2386.9</ele>
        <time>1970-01-01T08:50:12.000Z</time>
      </trkpt>
      <trkpt lat="42.656934" lon="0.66085">
        <ele>2386.6</ele>
        <time>1970-01-01T08:50:13.000Z</time>
      </trkpt>
      <trkpt lat="42.656945" lon="0.660844">
        <ele>2386.2</ele>
        <time>1970-01-01T08:50:14.000Z</time>
      </trkpt>
      <trkpt lat="42.656953" lon="0.660842">
        <ele>2386</ele>
        <time>1970-01-01T08:50:15.000Z</time>
      </trkpt>
      <trkpt lat="42.656961" lon="0.660841">
        <ele>2385.7</ele>
        <time>1970-01-01T08:50:17.000Z</time>
      </trkpt>
      <trkpt lat="42.656964" lon="0.660845">
        <ele>2385.6</ele>
        <time>1970-01-01T08:50:18.000Z</time>
      </trkpt>
      <trkpt lat="42.656967" lon="0.66085">
        <ele>2385.4</ele>
        <time>1970-01-01T08:50:19.000Z</time>
      </trkpt>
      <trkpt lat="42.656968" lon="0.660852">
        <ele>2385.4</ele>
        <time>1970-01-01T08:50:20.000Z</time>
      </trkpt>
      <trkpt lat="42.65697" lon="0.660853">
        <ele>2385.3</ele>
        <time>1970-01-01T08:50:21.000Z</time>
      </trkpt>
      <trkpt lat="42.656973" lon="0.660854">
        <ele>2385.2</ele>
        <time>1970-01-01T08:50:22.000Z</time>
      </trkpt>
      <trkpt lat="42.656976" lon="0.660856">
        <ele>2385.1</ele>
        <time>1970-01-01T08:50:23.000Z</time>
      </trkpt>
      <trkpt lat="42.656982" lon="0.660859">
        <ele>2384.9</ele>
        <time>1970-01-01T08:50:24.000Z</time>
      </trkpt>
      <trkpt lat="42.65699" lon="0.660856">
        <ele>2384.6</ele>
        <time>1970-01-01T08:50:26.000Z</time>
      </trkpt>
      <trkpt lat="42.656996" lon="0.660848">
        <ele>2384.4</ele>
        <time>1970-01-01T08:50:27.000Z</time>
      </trkpt>
      <trkpt lat="42.657001" lon="0.660849">
        <ele>2384.2</ele>
        <time>1970-01-01T08:50:28.000Z</time>
      </trkpt>
      <trkpt lat="42.657014" lon="0.66086">
        <ele>2383.7</ele>
        <time>1970-01-01T08:50:30.000Z</time>
      </trkpt>
      <trkpt lat="42.657022" lon="0.660863">
        <ele>2383.5</ele>
        <time>1970-01-01T08:50:31.000Z</time>
      </trkpt>
      <trkpt lat="42.657032" lon="0.660859">
        <ele>2383.2</ele>
        <time>1970-01-01T08:50:32.000Z</time>
      </trkpt>
      <trkpt lat="42.657042" lon="0.660851">
        <ele>2382.8</ele>
        <time>1970-01-01T08:50:33.000Z</time>
      </trkpt>
      <trkpt lat="42.657051" lon="0.660846">
        <ele>2382.5</ele>
        <time>1970-01-01T08:50:34.000Z</time>
      </trkpt>
      <trkpt lat="42.657063" lon="0.660842">
        <ele>2382.1</ele>
        <time>1970-01-01T08:50:35.000Z</time>
      </trkpt>
      <trkpt lat="42.657075" lon="0.660837">
        <ele>2381.7</ele>
        <time>1970-01-01T08:50:36.000Z</time>
      </trkpt>
      <trkpt lat="42.657085" lon="0.660828">
        <ele>2381.3</ele>
        <time>1970-01-01T08:50:38.000Z</time>
      </trkpt>
      <trkpt lat="42.65709" lon="0.660814">
        <ele>2381</ele>
        <time>1970-01-01T08:50:39.000Z</time>
      </trkpt>
      <trkpt lat="42.657096" lon="0.660803">
        <ele>2380.7</ele>
        <time>1970-01-01T08:50:40.000Z</time>
      </trkpt>
      <trkpt lat="42.657102" lon="0.660803">
        <ele>2380.5</ele>
        <time>1970-01-01T08:50:41.000Z</time>
      </trkpt>
      <trkpt lat="42.65711" lon="0.660808">
        <ele>2380.2</ele>
        <time>1970-01-01T08:50:42.000Z</time>
      </trkpt>
      <trkpt lat="42.657114" lon="0.660811">
        <ele>2380.1</ele>
        <time>1970-01-01T08:50:43.000Z</time>
      </trkpt>
      <trkpt lat="42.657117" lon="0.660815">
        <ele>2379.9</ele>
        <time>1970-01-01T08:50:44.000Z</time>
      </trkpt>
      <trkpt lat="42.657125" lon="0.660826">
        <ele>2379.6</ele>
        <time>1970-01-01T08:50:46.000Z</time>
      </trkpt>
      <trkpt lat="42.657128" lon="0.66083">
        <ele>2379.4</ele>
        <time>1970-01-01T08:50:47.000Z</time>
      </trkpt>
      <trkpt lat="42.657131" lon="0.660832">
        <ele>2379.3</ele>
        <time>1970-01-01T08:50:48.000Z</time>
      </trkpt>
      <trkpt lat="42.657128" lon="0.660831">
        <ele>2379.2</ele>
        <time>1970-01-01T08:50:49.000Z</time>
      </trkpt>
      <trkpt lat="42.657126" lon="0.660831">
        <ele>2379.2</ele>
        <time>1970-01-01T08:50:50.000Z</time>
      </trkpt>
      <trkpt lat="42.657126" lon="0.660831">
        <ele>2379.2</ele>
        <time>1970-01-01T08:50:51.000Z</time>
      </trkpt>
      <trkpt lat="42.657128" lon="0.660832">
        <ele>2379.1</ele>
        <time>1970-01-01T08:50:52.000Z</time>
      </trkpt>
      <trkpt lat="42.657129" lon="0.660833">
        <ele>2379.1</ele>
        <time>1970-01-01T08:50:53.000Z</time>
      </trkpt>
      <trkpt lat="42.65713" lon="0.660833">
        <ele>2379</ele>
        <time>1970-01-01T08:50:54.000Z</time>
      </trkpt>
      <trkpt lat="42.657134" lon="0.660834">
        <ele>2378.9</ele>
        <time>1970-01-01T08:50:56.000Z</time>
      </trkpt>
      <trkpt lat="42.657137" lon="0.660834">
        <ele>2378.8</ele>
        <time>1970-01-01T08:50:57.000Z</time>
      </trkpt>
      <trkpt lat="42.657138" lon="0.660834">
        <ele>2378.8</ele>
        <time>1970-01-01T08:50:58.000Z</time>
      </trkpt>
      <trkpt lat="42.657143" lon="0.660834">
        <ele>2378.6</ele>
        <time>1970-01-01T08:50:59.000Z</time>
      </trkpt>
      <trkpt lat="42.657145" lon="0.660837">
        <ele>2378.5</ele>
        <time>1970-01-01T08:51:00.000Z</time>
      </trkpt>
      <trkpt lat="42.657146" lon="0.660841">
        <ele>2378.4</ele>
        <time>1970-01-01T08:51:02.000Z</time>
      </trkpt>
      <trkpt lat="42.657149" lon="0.660848">
        <ele>2378.2</ele>
        <time>1970-01-01T08:51:03.000Z</time>
      </trkpt>
      <trkpt lat="42.657151" lon="0.660853">
        <ele>2378.1</ele>
        <time>1970-01-01T08:51:04.000Z</time>
      </trkpt>
      <trkpt lat="42.657153" lon="0.660859">
        <ele>2377.9</ele>
        <time>1970-01-01T08:51:05.000Z</time>
      </trkpt>
      <trkpt lat="42.657156" lon="0.660863">
        <ele>2377.8</ele>
        <time>1970-01-01T08:51:06.000Z</time>
      </trkpt>
      <trkpt lat="42.657163" lon="0.660862">
        <ele>2377.5</ele>
        <time>1970-01-01T08:51:07.000Z</time>
      </trkpt>
      <trkpt lat="42.657167" lon="0.660856">
        <ele>2377.3</ele>
        <time>1970-01-01T08:51:08.000Z</time>
      </trkpt>
      <trkpt lat="42.657168" lon="0.660853">
        <ele>2377.3</ele>
        <time>1970-01-01T08:51:09.000Z</time>
      </trkpt>
      <trkpt lat="42.65717" lon="0.660853">
        <ele>2377.2</ele>
        <time>1970-01-01T08:51:11.000Z</time>
      </trkpt>
      <trkpt lat="42.657172" lon="0.660853">
        <ele>2377.1</ele>
        <time>1970-01-01T08:51:12.000Z</time>
      </trkpt>
      <trkpt lat="42.657174" lon="0.66085">
        <ele>2377</ele>
        <time>1970-01-01T08:51:13.000Z</time>
      </trkpt>
      <trkpt lat="42.657177" lon="0.660841">
        <ele>2376.8</ele>
        <time>1970-01-01T08:51:14.000Z</time>
      </trkpt>
      <trkpt lat="42.657181" lon="0.660834">
        <ele>2376.6</ele>
        <time>1970-01-01T08:51:15.000Z</time>
      </trkpt>
      <trkpt lat="42.657185" lon="0.660833">
        <ele>2376.4</ele>
        <time>1970-01-01T08:51:16.000Z</time>
      </trkpt>
      <trkpt lat="42.657189" lon="0.660834">
        <ele>2376.3</ele>
        <time>1970-01-01T08:51:17.000Z</time>
      </trkpt>
      <trkpt lat="42.657194" lon="0.660835">
        <ele>2376.1</ele>
        <time>1970-01-01T08:51:19.000Z</time>
      </trkpt>
      <trkpt lat="42.657198" lon="0.660834">
        <ele>2376</ele>
        <time>1970-01-01T08:51:20.000Z</time>
      </trkpt>
      <trkpt lat="42.6572" lon="0.660834">
        <ele>2375.9</ele>
        <time>1970-01-01T08:51:21.000Z</time>
      </trkpt>
      <trkpt lat="42.657203" lon="0.660834">
        <ele>2375.8</ele>
        <time>1970-01-01T08:51:22.000Z</time>
      </trkpt>
      <trkpt lat="42.657208" lon="0.660834">
        <ele>2375.7</ele>
        <time>1970-01-01T08:51:23.000Z</time>
      </trkpt>
      <trkpt lat="42.657214" lon="0.660835">
        <ele>2375.5</ele>
        <time>1970-01-01T08:51:24.000Z</time>
      </trkpt>
      <trkpt lat="42.657218" lon="0.660835">
        <ele>2375.4</ele>
        <time>1970-01-01T08:51:25.000Z</time>
      </trkpt>
      <trkpt lat="42.657224" lon="0.660834">
        <ele>2375.2</ele>
        <time>1970-01-01T08:51:26.000Z</time>
      </trkpt>
      <trkpt lat="42.657228" lon="0.660833">
        <ele>2375</ele>
        <time>1970-01-01T08:51:27.000Z</time>
      </trkpt>
      <trkpt lat="42.657229" lon="0.660835">
        <ele>2375</ele>
        <time>1970-01-01T08:51:28.000Z</time>
      </trkpt>
      <trkpt lat="42.657235" lon="0.660834">
        <ele>2374.8</ele>
        <time>1970-01-01T08:51:29.000Z</time>
      </trkpt>
      <trkpt lat="42.657236" lon="0.660839">
        <ele>2374.6</ele>
        <time>1970-01-01T08:51:31.000Z</time>
      </trkpt>
      <trkpt lat="42.657235" lon="0.660842">
        <ele>2374.6</ele>
        <time>1970-01-01T08:51:32.000Z</time>
      </trkpt>
      <trkpt lat="42.657234" lon="0.660847">
        <ele>2374.4</ele>
        <time>1970-01-01T08:51:33.000Z</time>
      </trkpt>
      <trkpt lat="42.65724" lon="0.660854">
        <ele>2374.2</ele>
        <time>1970-01-01T08:51:35.000Z</time>
      </trkpt>
      <trkpt lat="42.657248" lon="0.66085">
        <ele>2373.9</ele>
        <time>1970-01-01T08:51:36.000Z</time>
      </trkpt>
      <trkpt lat="42.657254" lon="0.660843">
        <ele>2373.6</ele>
        <time>1970-01-01T08:51:37.000Z</time>
      </trkpt>
      <trkpt lat="42.657254" lon="0.660844">
        <ele>2373.6</ele>
        <time>1970-01-01T08:51:38.000Z</time>
      </trkpt>
      <trkpt lat="42.657258" lon="0.660843">
        <ele>2373.5</ele>
        <time>1970-01-01T08:51:39.000Z</time>
      </trkpt>
      <trkpt lat="42.657262" lon="0.660842">
        <ele>2373.3</ele>
        <time>1970-01-01T08:51:40.000Z</time>
      </trkpt>
      <trkpt lat="42.657272" lon="0.660844">
        <ele>2373</ele>
        <time>1970-01-01T08:51:41.000Z</time>
      </trkpt>
      <trkpt lat="42.657273" lon="0.66085">
        <ele>2372.9</ele>
        <time>1970-01-01T08:51:42.000Z</time>
      </trkpt>
      <trkpt lat="42.657274" lon="0.66086">
        <ele>2372.6</ele>
        <time>1970-01-01T08:51:44.000Z</time>
      </trkpt>
      <trkpt lat="42.657278" lon="0.660874">
        <ele>2372.2</ele>
        <time>1970-01-01T08:51:45.000Z</time>
      </trkpt>
      <trkpt lat="42.65728" lon="0.660878">
        <ele>2372.1</ele>
        <time>1970-01-01T08:51:46.000Z</time>
      </trkpt>
      <trkpt lat="42.657281" lon="0.66088">
        <ele>2372.1</ele>
        <time>1970-01-01T08:51:47.000Z</time>
      </trkpt>
      <trkpt lat="42.657281" lon="0.660884">
        <ele>2372</ele>
        <time>1970-01-01T08:51:48.000Z</time>
      </trkpt>
      <trkpt lat="42.657282" lon="0.660895">
        <ele>2371.7</ele>
        <time>1970-01-01T08:51:49.000Z</time>
      </trkpt>
      <trkpt lat="42.65729" lon="0.660898">
        <ele>2371.5</ele>
        <time>1970-01-01T08:51:50.000Z</time>
      </trkpt>
      <trkpt lat="42.657297" lon="0.660894">
        <ele>2371.2</ele>
        <time>1970-01-01T08:51:51.000Z</time>
      </trkpt>
      <trkpt lat="42.657309" lon="0.660886">
        <ele>2370.8</ele>
        <time>1970-01-01T08:51:53.000Z</time>
      </trkpt>
      <trkpt lat="42.657313" lon="0.660882">
        <ele>2370.6</ele>
        <time>1970-01-01T08:51:54.000Z</time>
      </trkpt>
      <trkpt lat="42.657316" lon="0.660883">
        <ele>2370.5</ele>
        <time>1970-01-01T08:51:55.000Z</time>
      </trkpt>
      <trkpt lat="42.657322" lon="0.660893">
        <ele>2370.2</ele>
        <time>1970-01-01T08:51:56.000Z</time>
      </trkpt>
      <trkpt lat="42.65733" lon="0.660918">
        <ele>2369.6</ele>
        <time>1970-01-01T08:51:57.000Z</time>
      </trkpt>
      <trkpt lat="42.657346" lon="0.660928">
        <ele>2369</ele>
        <time>1970-01-01T08:51:58.000Z</time>
      </trkpt>
      <trkpt lat="42.657346" lon="0.660923">
        <ele>2368.9</ele>
        <time>1970-01-01T08:52:00.000Z</time>
      </trkpt>
      <trkpt lat="42.657354" lon="0.660927">
        <ele>2368.6</ele>
        <time>1970-01-01T08:52:01.000Z</time>
      </trkpt>
      <trkpt lat="42.657358" lon="0.660931">
        <ele>2368.5</ele>
        <time>1970-01-01T08:52:02.000Z</time>
      </trkpt>
      <trkpt lat="42.657359" lon="0.660941">
        <ele>2368.3</ele>
        <time>1970-01-01T08:52:03.000Z</time>
      </trkpt>
      <trkpt lat="42.657365" lon="0.660946">
        <ele>2368</ele>
        <time>1970-01-01T08:52:05.000Z</time>
      </trkpt>
      <trkpt lat="42.657371" lon="0.660942">
        <ele>2367.8</ele>
        <time>1970-01-01T08:52:06.000Z</time>
      </trkpt>
      <trkpt lat="42.657375" lon="0.66094">
        <ele>2367.7</ele>
        <time>1970-01-01T08:52:07.000Z</time>
      </trkpt>
      <trkpt lat="42.657378" lon="0.660943">
        <ele>2367.6</ele>
        <time>1970-01-01T08:52:08.000Z</time>
      </trkpt>
      <trkpt lat="42.657381" lon="0.660945">
        <ele>2367.5</ele>
        <time>1970-01-01T08:52:09.000Z</time>
      </trkpt>
      <trkpt lat="42.657382" lon="0.660946">
        <ele>2367.4</ele>
        <time>1970-01-01T08:52:10.000Z</time>
      </trkpt>
      <trkpt lat="42.657383" lon="0.660948">
        <ele>2367.4</ele>
        <time>1970-01-01T08:52:11.000Z</time>
      </trkpt>
      <trkpt lat="42.657382" lon="0.660956">
        <ele>2367.2</ele>
        <time>1970-01-01T08:52:13.000Z</time>
      </trkpt>
      <trkpt lat="42.657383" lon="0.660957">
        <ele>2367.2</ele>
        <time>1970-01-01T08:52:15.000Z</time>
      </trkpt>
      <trkpt lat="42.657385" lon="0.660958">
        <ele>2367.1</ele>
        <time>1970-01-01T08:52:16.000Z</time>
      </trkpt>
      <trkpt lat="42.657386" lon="0.660957">
        <ele>2367.1</ele>
        <time>1970-01-01T08:52:18.000Z</time>
      </trkpt>
      <trkpt lat="42.657389" lon="0.660959">
        <ele>2367</ele>
        <time>1970-01-01T08:52:19.000Z</time>
      </trkpt>
      <trkpt lat="42.65739" lon="0.660959">
        <ele>2366.9</ele>
        <time>1970-01-01T08:52:20.000Z</time>
      </trkpt>
      <trkpt lat="42.657392" lon="0.66096">
        <ele>2366.9</ele>
        <time>1970-01-01T08:52:21.000Z</time>
      </trkpt>
      <trkpt lat="42.657396" lon="0.660965">
        <ele>2366.7</ele>
        <time>1970-01-01T08:52:23.000Z</time>
      </trkpt>
      <trkpt lat="42.657396" lon="0.660975">
        <ele>2366.5</ele>
        <time>1970-01-01T08:52:24.000Z</time>
      </trkpt>
      <trkpt lat="42.657396" lon="0.660983">
        <ele>2366.3</ele>
        <time>1970-01-01T08:52:25.000Z</time>
      </trkpt>
      <trkpt lat="42.657397" lon="0.66099">
        <ele>2366.1</ele>
        <time>1970-01-01T08:52:27.000Z</time>
      </trkpt>
      <trkpt lat="42.657399" lon="0.660995">
        <ele>2366</ele>
        <time>1970-01-01T08:52:28.000Z</time>
      </trkpt>
      <trkpt lat="42.657404" lon="0.660998">
        <ele>2365.8</ele>
        <time>1970-01-01T08:52:29.000Z</time>
      </trkpt>
      <trkpt lat="42.657407" lon="0.660997">
        <ele>2365.7</ele>
        <time>1970-01-01T08:52:30.000Z</time>
      </trkpt>
      <trkpt lat="42.657408" lon="0.660993">
        <ele>2365.6</ele>
        <time>1970-01-01T08:52:31.000Z</time>
      </trkpt>
      <trkpt lat="42.657412" lon="0.660989">
        <ele>2365.5</ele>
        <time>1970-01-01T08:52:33.000Z</time>
      </trkpt>
      <trkpt lat="42.657416" lon="0.660991">
        <ele>2365.3</ele>
        <time>1970-01-01T08:52:34.000Z</time>
      </trkpt>
      <trkpt lat="42.657417" lon="0.660993">
        <ele>2365.3</ele>
        <time>1970-01-01T08:52:35.000Z</time>
      </trkpt>
      <trkpt lat="42.657417" lon="0.660993">
        <ele>2365.3</ele>
        <time>1970-01-01T08:52:36.000Z</time>
      </trkpt>
      <trkpt lat="42.65742" lon="0.660994">
        <ele>2365.2</ele>
        <time>1970-01-01T08:52:37.000Z</time>
      </trkpt>
      <trkpt lat="42.657424" lon="0.660993">
        <ele>2365.1</ele>
        <time>1970-01-01T08:52:38.000Z</time>
      </trkpt>
      <trkpt lat="42.657427" lon="0.660993">
        <ele>2365</ele>
        <time>1970-01-01T08:52:39.000Z</time>
      </trkpt>
      <trkpt lat="42.65743" lon="0.660993">
        <ele>2364.9</ele>
        <time>1970-01-01T08:52:41.000Z</time>
      </trkpt>
      <trkpt lat="42.657431" lon="0.660994">
        <ele>2364.9</ele>
        <time>1970-01-01T08:52:42.000Z</time>
      </trkpt>
      <trkpt lat="42.657432" lon="0.660994">
        <ele>2364.8</ele>
        <time>1970-01-01T08:52:43.000Z</time>
      </trkpt>
      <trkpt lat="42.657432" lon="0.660994">
        <ele>2364.8</ele>
        <time>1970-01-01T08:52:44.000Z</time>
      </trkpt>
      <trkpt lat="42.657432" lon="0.660994">
        <ele>2364.8</ele>
        <time>1970-01-01T08:52:45.000Z</time>
      </trkpt>
      <trkpt lat="42.657433" lon="0.660994">
        <ele>2364.8</ele>
        <time>1970-01-01T08:52:46.000Z</time>
      </trkpt>
      <trkpt lat="42.657433" lon="0.660993">
        <ele>2364.8</ele>
        <time>1970-01-01T08:52:47.000Z</time>
      </trkpt>
      <trkpt lat="42.657434" lon="0.660993">
        <ele>2364.8</ele>
        <time>1970-01-01T08:52:48.000Z</time>
      </trkpt>
      <trkpt lat="42.657435" lon="0.660992">
        <ele>2364.7</ele>
        <time>1970-01-01T08:52:49.000Z</time>
      </trkpt>
      <trkpt lat="42.65744" lon="0.660994">
        <ele>2364.6</ele>
        <time>1970-01-01T08:52:51.000Z</time>
      </trkpt>
      <trkpt lat="42.657442" lon="0.660998">
        <ele>2364.5</ele>
        <time>1970-01-01T08:52:52.000Z</time>
      </trkpt>
      <trkpt lat="42.657443" lon="0.661002">
        <ele>2364.4</ele>
        <time>1970-01-01T08:52:53.000Z</time>
      </trkpt>
      <trkpt lat="42.657449" lon="0.661005">
        <ele>2364.2</ele>
        <time>1970-01-01T08:52:55.000Z</time>
      </trkpt>
      <trkpt lat="42.657453" lon="0.661002">
        <ele>2364</ele>
        <time>1970-01-01T08:52:56.000Z</time>
      </trkpt>
      <trkpt lat="42.657456" lon="0.661006">
        <ele>2363.9</ele>
        <time>1970-01-01T08:52:58.000Z</time>
      </trkpt>
      <trkpt lat="42.657458" lon="0.661008">
        <ele>2363.8</ele>
        <time>1970-01-01T08:52:59.000Z</time>
      </trkpt>
      <trkpt lat="42.657461" lon="0.66101">
        <ele>2363.7</ele>
        <time>1970-01-01T08:53:00.000Z</time>
      </trkpt>
      <trkpt lat="42.657469" lon="0.661016">
        <ele>2363.5</ele>
        <time>1970-01-01T08:53:01.000Z</time>
      </trkpt>
      <trkpt lat="42.657471" lon="0.661024">
        <ele>2363.3</ele>
        <time>1970-01-01T08:53:02.000Z</time>
      </trkpt>
      <trkpt lat="42.657471" lon="0.661026">
        <ele>2363.2</ele>
        <time>1970-01-01T08:53:04.000Z</time>
      </trkpt>
      <trkpt lat="42.657472" lon="0.661033">
        <ele>2363.1</ele>
        <time>1970-01-01T08:53:05.000Z</time>
      </trkpt>
      <trkpt lat="42.657475" lon="0.661034">
        <ele>2363</ele>
        <time>1970-01-01T08:53:06.000Z</time>
      </trkpt>
      <trkpt lat="42.657479" lon="0.661037">
        <ele>2362.8</ele>
        <time>1970-01-01T08:53:07.000Z</time>
      </trkpt>
      <trkpt lat="42.657481" lon="0.661042">
        <ele>2362.7</ele>
        <time>1970-01-01T08:53:08.000Z</time>
      </trkpt>
      <trkpt lat="42.657483" lon="0.661059">
        <ele>2362.3</ele>
        <time>1970-01-01T08:53:10.000Z</time>
      </trkpt>
      <trkpt lat="42.657485" lon="0.661072">
        <ele>2362.1</ele>
        <time>1970-01-01T08:53:11.000Z</time>
      </trkpt>
      <trkpt lat="42.657485" lon="0.661071">
        <ele>2362</ele>
        <time>1970-01-01T08:53:12.000Z</time>
      </trkpt>
      <trkpt lat="42.657486" lon="0.661076">
        <ele>2361.9</ele>
        <time>1970-01-01T08:53:13.000Z</time>
      </trkpt>
      <trkpt lat="42.65749" lon="0.661084">
        <ele>2361.7</ele>
        <time>1970-01-01T08:53:14.000Z</time>
      </trkpt>
      <trkpt lat="42.657492" lon="0.661088">
        <ele>2361.6</ele>
        <time>1970-01-01T08:53:16.000Z</time>
      </trkpt>
      <trkpt lat="42.657494" lon="0.661092">
        <ele>2361.5</ele>
        <time>1970-01-01T08:53:17.000Z</time>
      </trkpt>
      <trkpt lat="42.657499" lon="0.661092">
        <ele>2361.4</ele>
        <time>1970-01-01T08:53:18.000Z</time>
      </trkpt>
      <trkpt lat="42.657499" lon="0.661088">
        <ele>2361.3</ele>
        <time>1970-01-01T08:53:19.000Z</time>
      </trkpt>
      <trkpt lat="42.657502" lon="0.661088">
        <ele>2361.2</ele>
        <time>1970-01-01T08:53:21.000Z</time>
      </trkpt>
      <trkpt lat="42.657502" lon="0.661095">
        <ele>2361.1</ele>
        <time>1970-01-01T08:53:22.000Z</time>
      </trkpt>
      <trkpt lat="42.657502" lon="0.661102">
        <ele>2360.9</ele>
        <time>1970-01-01T08:53:23.000Z</time>
      </trkpt>
      <trkpt lat="42.6575" lon="0.661111">
        <ele>2360.7</ele>
        <time>1970-01-01T08:53:24.000Z</time>
      </trkpt>
      <trkpt lat="42.657499" lon="0.661118">
        <ele>2360.6</ele>
        <time>1970-01-01T08:53:25.000Z</time>
      </trkpt>
      <trkpt lat="42.657497" lon="0.661127">
        <ele>2360.4</ele>
        <time>1970-01-01T08:53:26.000Z</time>
      </trkpt>
      <trkpt lat="42.657496" lon="0.661137">
        <ele>2360.2</ele>
        <time>1970-01-01T08:53:27.000Z</time>
      </trkpt>
      <trkpt lat="42.657494" lon="0.661146">
        <ele>2360</ele>
        <time>1970-01-01T08:53:28.000Z</time>
      </trkpt>
      <trkpt lat="42.657495" lon="0.66115">
        <ele>2359.9</ele>
        <time>1970-01-01T08:53:29.000Z</time>
      </trkpt>
      <trkpt lat="42.657498" lon="0.661158">
        <ele>2359.7</ele>
        <time>1970-01-01T08:53:31.000Z</time>
      </trkpt>
      <trkpt lat="42.657494" lon="0.66117">
        <ele>2359.5</ele>
        <time>1970-01-01T08:53:32.000Z</time>
      </trkpt>
      <trkpt lat="42.657487" lon="0.661179">
        <ele>2359.2</ele>
        <time>1970-01-01T08:53:33.000Z</time>
      </trkpt>
      <trkpt lat="42.657484" lon="0.661186">
        <ele>2359</ele>
        <time>1970-01-01T08:53:34.000Z</time>
      </trkpt>
      <trkpt lat="42.657489" lon="0.661196">
        <ele>2358.8</ele>
        <time>1970-01-01T08:53:36.000Z</time>
      </trkpt>
      <trkpt lat="42.657494" lon="0.661197">
        <ele>2358.7</ele>
        <time>1970-01-01T08:53:37.000Z</time>
      </trkpt>
      <trkpt lat="42.657494" lon="0.6612">
        <ele>2358.6</ele>
        <time>1970-01-01T08:53:38.000Z</time>
      </trkpt>
      <trkpt lat="42.657493" lon="0.661209">
        <ele>2358.4</ele>
        <time>1970-01-01T08:53:39.000Z</time>
      </trkpt>
      <trkpt lat="42.65749" lon="0.661222">
        <ele>2358.1</ele>
        <time>1970-01-01T08:53:40.000Z</time>
      </trkpt>
      <trkpt lat="42.657488" lon="0.661231">
        <ele>2358</ele>
        <time>1970-01-01T08:53:41.000Z</time>
      </trkpt>
      <trkpt lat="42.657487" lon="0.661237">
        <ele>2357.8</ele>
        <time>1970-01-01T08:53:42.000Z</time>
      </trkpt>
      <trkpt lat="42.657488" lon="0.661242">
        <ele>2357.7</ele>
        <time>1970-01-01T08:53:43.000Z</time>
      </trkpt>
      <trkpt lat="42.65749" lon="0.661248">
        <ele>2357.6</ele>
        <time>1970-01-01T08:53:44.000Z</time>
      </trkpt>
      <trkpt lat="42.657493" lon="0.661252">
        <ele>2357.5</ele>
        <time>1970-01-01T08:53:46.000Z</time>
      </trkpt>
      <trkpt lat="42.657494" lon="0.661254">
        <ele>2357.5</ele>
        <time>1970-01-01T08:53:47.000Z</time>
      </trkpt>
      <trkpt lat="42.657497" lon="0.661255">
        <ele>2357.4</ele>
        <time>1970-01-01T08:53:48.000Z</time>
      </trkpt>
      <trkpt lat="42.657499" lon="0.661258">
        <ele>2357.3</ele>
        <time>1970-01-01T08:53:49.000Z</time>
      </trkpt>
      <trkpt lat="42.6575" lon="0.661262">
        <ele>2357.2</ele>
        <time>1970-01-01T08:53:50.000Z</time>
      </trkpt>
      <trkpt lat="42.657504" lon="0.66127">
        <ele>2357</ele>
        <time>1970-01-01T08:53:51.000Z</time>
      </trkpt>
      <trkpt lat="42.657508" lon="0.661274">
        <ele>2356.9</ele>
        <time>1970-01-01T08:53:52.000Z</time>
      </trkpt>
      <trkpt lat="42.657512" lon="0.661276">
        <ele>2356.8</ele>
        <time>1970-01-01T08:53:53.000Z</time>
      </trkpt>
      <trkpt lat="42.657517" lon="0.661279">
        <ele>2356.7</ele>
        <time>1970-01-01T08:53:54.000Z</time>
      </trkpt>
      <trkpt lat="42.657522" lon="0.661278">
        <ele>2356.6</ele>
        <time>1970-01-01T08:53:55.000Z</time>
      </trkpt>
      <trkpt lat="42.657527" lon="0.661276">
        <ele>2356.4</ele>
        <time>1970-01-01T08:53:56.000Z</time>
      </trkpt>
      <trkpt lat="42.65753" lon="0.66127">
        <ele>2356.3</ele>
        <time>1970-01-01T08:53:57.000Z</time>
      </trkpt>
      <trkpt lat="42.657532" lon="0.661266">
        <ele>2356.2</ele>
        <time>1970-01-01T08:53:58.000Z</time>
      </trkpt>
      <trkpt lat="42.657533" lon="0.661266">
        <ele>2356.2</ele>
        <time>1970-01-01T08:53:59.000Z</time>
      </trkpt>
      <trkpt lat="42.657533" lon="0.661266">
        <ele>2356.2</ele>
        <time>1970-01-01T08:54:00.000Z</time>
      </trkpt>
      <trkpt lat="42.657535" lon="0.661265">
        <ele>2356.1</ele>
        <time>1970-01-01T08:54:01.000Z</time>
      </trkpt>
      <trkpt lat="42.657536" lon="0.661264">
        <ele>2356.1</ele>
        <time>1970-01-01T08:54:02.000Z</time>
      </trkpt>
      <trkpt lat="42.657539" lon="0.661262">
        <ele>2356</ele>
        <time>1970-01-01T08:54:03.000Z</time>
      </trkpt>
      <trkpt lat="42.657541" lon="0.661261">
        <ele>2356</ele>
        <time>1970-01-01T08:54:04.000Z</time>
      </trkpt>
      <trkpt lat="42.657544" lon="0.661262">
        <ele>2355.9</ele>
        <time>1970-01-01T08:54:05.000Z</time>
      </trkpt>
      <trkpt lat="42.657547" lon="0.661266">
        <ele>2355.8</ele>
        <time>1970-01-01T08:54:06.000Z</time>
      </trkpt>
      <trkpt lat="42.657548" lon="0.661271">
        <ele>2355.7</ele>
        <time>1970-01-01T08:54:07.000Z</time>
      </trkpt>
      <trkpt lat="42.657546" lon="0.66128">
        <ele>2355.5</ele>
        <time>1970-01-01T08:54:08.000Z</time>
      </trkpt>
      <trkpt lat="42.657543" lon="0.661295">
        <ele>2355.3</ele>
        <time>1970-01-01T08:54:09.000Z</time>
      </trkpt>
      <trkpt lat="42.657544" lon="0.661307">
        <ele>2355</ele>
        <time>1970-01-01T08:54:10.000Z</time>
      </trkpt>
      <trkpt lat="42.657551" lon="0.66132">
        <ele>2354.7</ele>
        <time>1970-01-01T08:54:12.000Z</time>
      </trkpt>
      <trkpt lat="42.65756" lon="0.661328">
        <ele>2354.4</ele>
        <time>1970-01-01T08:54:13.000Z</time>
      </trkpt>
      <trkpt lat="42.657568" lon="0.661333">
        <ele>2354.2</ele>
        <time>1970-01-01T08:54:14.000Z</time>
      </trkpt>
      <trkpt lat="42.657572" lon="0.661335">
        <ele>2354</ele>
        <time>1970-01-01T08:54:15.000Z</time>
      </trkpt>
      <trkpt lat="42.657577" lon="0.661334">
        <ele>2353.9</ele>
        <time>1970-01-01T08:54:16.000Z</time>
      </trkpt>
      <trkpt lat="42.657583" lon="0.661325">
        <ele>2353.7</ele>
        <time>1970-01-01T08:54:17.000Z</time>
      </trkpt>
      <trkpt lat="42.657586" lon="0.661316">
        <ele>2353.5</ele>
        <time>1970-01-01T08:54:19.000Z</time>
      </trkpt>
      <trkpt lat="42.65759" lon="0.661309">
        <ele>2353.3</ele>
        <time>1970-01-01T08:54:20.000Z</time>
      </trkpt>
      <trkpt lat="42.657592" lon="0.661308">
        <ele>2353.2</ele>
        <time>1970-01-01T08:54:21.000Z</time>
      </trkpt>
      <trkpt lat="42.657593" lon="0.661307">
        <ele>2353.2</ele>
        <time>1970-01-01T08:54:22.000Z</time>
      </trkpt>
      <trkpt lat="42.657596" lon="0.661308">
        <ele>2353.1</ele>
        <time>1970-01-01T08:54:23.000Z</time>
      </trkpt>
      <trkpt lat="42.657599" lon="0.661307">
        <ele>2353</ele>
        <time>1970-01-01T08:54:24.000Z</time>
      </trkpt>
      <trkpt lat="42.657601" lon="0.661304">
        <ele>2352.9</ele>
        <time>1970-01-01T08:54:25.000Z</time>
      </trkpt>
      <trkpt lat="42.657601" lon="0.661303">
        <ele>2352.9</ele>
        <time>1970-01-01T08:54:26.000Z</time>
      </trkpt>
      <trkpt lat="42.657603" lon="0.661302">
        <ele>2352.8</ele>
        <time>1970-01-01T08:54:27.000Z</time>
      </trkpt>
      <trkpt lat="42.657605" lon="0.661301">
        <ele>2352.7</ele>
        <time>1970-01-01T08:54:28.000Z</time>
      </trkpt>
      <trkpt lat="42.657607" lon="0.661301">
        <ele>2352.7</ele>
        <time>1970-01-01T08:54:29.000Z</time>
      </trkpt>
      <trkpt lat="42.657608" lon="0.661301">
        <ele>2352.6</ele>
        <time>1970-01-01T08:54:30.000Z</time>
      </trkpt>
      <trkpt lat="42.657607" lon="0.661302">
        <ele>2352.5</ele>
        <time>1970-01-01T08:54:31.000Z</time>
      </trkpt>
      <trkpt lat="42.657608" lon="0.661301">
        <ele>2352.5</ele>
        <time>1970-01-01T08:54:32.000Z</time>
      </trkpt>
      <trkpt lat="42.657609" lon="0.661301">
        <ele>2352.4</ele>
        <time>1970-01-01T08:54:33.000Z</time>
      </trkpt>
      <trkpt lat="42.657611" lon="0.6613">
        <ele>2352.3</ele>
        <time>1970-01-01T08:54:34.000Z</time>
      </trkpt>
      <trkpt lat="42.657613" lon="0.6613">
        <ele>2352.3</ele>
        <time>1970-01-01T08:54:35.000Z</time>
      </trkpt>
      <trkpt lat="42.657614" lon="0.661299">
        <ele>2352.3</ele>
        <time>1970-01-01T08:54:36.000Z</time>
      </trkpt>
      <trkpt lat="42.657615" lon="0.661299">
        <ele>2352.1</ele>
        <time>1970-01-01T08:54:37.000Z</time>
      </trkpt>
      <trkpt lat="42.657617" lon="0.661299">
        <ele>2352.1</ele>
        <time>1970-01-01T08:54:38.000Z</time>
      </trkpt>
      <trkpt lat="42.65762" lon="0.661301">
        <ele>2352</ele>
        <time>1970-01-01T08:54:39.000Z</time>
      </trkpt>
      <trkpt lat="42.657621" lon="0.661301">
        <ele>2352</ele>
        <time>1970-01-01T08:54:40.000Z</time>
      </trkpt>
      <trkpt lat="42.657624" lon="0.661299">
        <ele>2351.9</ele>
        <time>1970-01-01T08:54:41.000Z</time>
      </trkpt>
      <trkpt lat="42.657627" lon="0.661299">
        <ele>2351.8</ele>
        <time>1970-01-01T08:54:42.000Z</time>
      </trkpt>
      <trkpt lat="42.65763" lon="0.661305">
        <ele>2351.7</ele>
        <time>1970-01-01T08:54:43.000Z</time>
      </trkpt>
      <trkpt lat="42.657631" lon="0.661307">
        <ele>2351.6</ele>
        <time>1970-01-01T08:54:44.000Z</time>
      </trkpt>
      <trkpt lat="42.657634" lon="0.661318">
        <ele>2351.4</ele>
        <time>1970-01-01T08:54:46.000Z</time>
      </trkpt>
      <trkpt lat="42.657636" lon="0.661324">
        <ele>2351.3</ele>
        <time>1970-01-01T08:54:47.000Z</time>
      </trkpt>
      <trkpt lat="42.657638" lon="0.661328">
        <ele>2351.2</ele>
        <time>1970-01-01T08:54:48.000Z</time>
      </trkpt>
      <trkpt lat="42.657642" lon="0.661327">
        <ele>2351.1</ele>
        <time>1970-01-01T08:54:49.000Z</time>
      </trkpt>
      <trkpt lat="42.657645" lon="0.661323">
        <ele>2351</ele>
        <time>1970-01-01T08:54:50.000Z</time>
      </trkpt>
      <trkpt lat="42.657647" lon="0.661322">
        <ele>2350.9</ele>
        <time>1970-01-01T08:54:51.000Z</time>
      </trkpt>
      <trkpt lat="42.65765" lon="0.661321">
        <ele>2350.8</ele>
        <time>1970-01-01T08:54:52.000Z</time>
      </trkpt>
      <trkpt lat="42.657651" lon="0.661321">
        <ele>2350.8</ele>
        <time>1970-01-01T08:54:53.000Z</time>
      </trkpt>
      <trkpt lat="42.657653" lon="0.66132">
        <ele>2350.8</ele>
        <time>1970-01-01T08:54:54.000Z</time>
      </trkpt>
      <trkpt lat="42.657668" lon="0.661305">
        <ele>2350.4</ele>
        <time>1970-01-01T08:54:56.000Z</time>
      </trkpt>
      <trkpt lat="42.657666" lon="0.661307">
        <ele>2350.3</ele>
        <time>1970-01-01T08:54:57.000Z</time>
      </trkpt>
      <trkpt lat="42.657665" lon="0.661308">
        <ele>2350.3</ele>
        <time>1970-01-01T08:54:58.000Z</time>
      </trkpt>
      <trkpt lat="42.657668" lon="0.661306">
        <ele>2350.2</ele>
        <time>1970-01-01T08:55:00.000Z</time>
      </trkpt>
      <trkpt lat="42.65767" lon="0.661305">
        <ele>2350.1</ele>
        <time>1970-01-01T08:55:01.000Z</time>
      </trkpt>
      <trkpt lat="42.657671" lon="0.661302">
        <ele>2350.1</ele>
        <time>1970-01-01T08:55:02.000Z</time>
      </trkpt>
      <trkpt lat="42.657672" lon="0.661301">
        <ele>2350</ele>
        <time>1970-01-01T08:55:03.000Z</time>
      </trkpt>
      <trkpt lat="42.657673" lon="0.661298">
        <ele>2350</ele>
        <time>1970-01-01T08:55:04.000Z</time>
      </trkpt>
      <trkpt lat="42.657677" lon="0.661292">
        <ele>2349.8</ele>
        <time>1970-01-01T08:55:05.000Z</time>
      </trkpt>
      <trkpt lat="42.657679" lon="0.66129">
        <ele>2349.8</ele>
        <time>1970-01-01T08:55:06.000Z</time>
      </trkpt>
      <trkpt lat="42.657683" lon="0.661292">
        <ele>2349.7</ele>
        <time>1970-01-01T08:55:07.000Z</time>
      </trkpt>
      <trkpt lat="42.657685" lon="0.661295">
        <ele>2349.6</ele>
        <time>1970-01-01T08:55:08.000Z</time>
      </trkpt>
      <trkpt lat="42.657687" lon="0.661299">
        <ele>2349.5</ele>
        <time>1970-01-01T08:55:09.000Z</time>
      </trkpt>
      <trkpt lat="42.657689" lon="0.661299">
        <ele>2349.5</ele>
        <time>1970-01-01T08:55:10.000Z</time>
      </trkpt>
      <trkpt lat="42.65769" lon="0.661298">
        <ele>2349.4</ele>
        <time>1970-01-01T08:55:12.000Z</time>
      </trkpt>
      <trkpt lat="42.657692" lon="0.661299">
        <ele>2349.4</ele>
        <time>1970-01-01T08:55:13.000Z</time>
      </trkpt>
      <trkpt lat="42.657694" lon="0.6613">
        <ele>2349.3</ele>
        <time>1970-01-01T08:55:14.000Z</time>
      </trkpt>
      <trkpt lat="42.657696" lon="0.6613">
        <ele>2349.3</ele>
        <time>1970-01-01T08:55:15.000Z</time>
      </trkpt>
      <trkpt lat="42.657697" lon="0.661299">
        <ele>2349.2</ele>
        <time>1970-01-01T08:55:16.000Z</time>
      </trkpt>
      <trkpt lat="42.657699" lon="0.661298">
        <ele>2349.2</ele>
        <time>1970-01-01T08:55:17.000Z</time>
      </trkpt>
      <trkpt lat="42.657703" lon="0.661296">
        <ele>2349.1</ele>
        <time>1970-01-01T08:55:18.000Z</time>
      </trkpt>
      <trkpt lat="42.657705" lon="0.661293">
        <ele>2349</ele>
        <time>1970-01-01T08:55:19.000Z</time>
      </trkpt>
      <trkpt lat="42.657707" lon="0.661292">
        <ele>2348.9</ele>
        <time>1970-01-01T08:55:20.000Z</time>
      </trkpt>
      <trkpt lat="42.657714" lon="0.661294">
        <ele>2348.8</ele>
        <time>1970-01-01T08:55:22.000Z</time>
      </trkpt>
      <trkpt lat="42.657716" lon="0.661305">
        <ele>2348.7</ele>
        <time>1970-01-01T08:55:23.000Z</time>
      </trkpt>
      <trkpt lat="42.657716" lon="0.661315">
        <ele>2348.6</ele>
        <time>1970-01-01T08:55:24.000Z</time>
      </trkpt>
      <trkpt lat="42.657715" lon="0.661317">
        <ele>2348.5</ele>
        <time>1970-01-01T08:55:25.000Z</time>
      </trkpt>
      <trkpt lat="42.657714" lon="0.661319">
        <ele>2348.5</ele>
        <time>1970-01-01T08:55:26.000Z</time>
      </trkpt>
      <trkpt lat="42.657713" lon="0.661319">
        <ele>2348.4</ele>
        <time>1970-01-01T08:55:27.000Z</time>
      </trkpt>
      <trkpt lat="42.657712" lon="0.661322">
        <ele>2348.4</ele>
        <time>1970-01-01T08:55:28.000Z</time>
      </trkpt>
      <trkpt lat="42.65771" lon="0.661327">
        <ele>2348.3</ele>
        <time>1970-01-01T08:55:29.000Z</time>
      </trkpt>
      <trkpt lat="42.657709" lon="0.661328">
        <ele>2348.3</ele>
        <time>1970-01-01T08:55:30.000Z</time>
      </trkpt>
      <trkpt lat="42.657708" lon="0.66133">
        <ele>2348.3</ele>
        <time>1970-01-01T08:55:31.000Z</time>
      </trkpt>
      <trkpt lat="42.657706" lon="0.661334">
        <ele>2348.1</ele>
        <time>1970-01-01T08:55:32.000Z</time>
      </trkpt>
      <trkpt lat="42.657705" lon="0.661336">
        <ele>2348.1</ele>
        <time>1970-01-01T08:55:33.000Z</time>
      </trkpt>
      <trkpt lat="42.657706" lon="0.661338">
        <ele>2348.1</ele>
        <time>1970-01-01T08:55:34.000Z</time>
      </trkpt>
      <trkpt lat="42.657707" lon="0.661338">
        <ele>2348</ele>
        <time>1970-01-01T08:55:35.000Z</time>
      </trkpt>
      <trkpt lat="42.657711" lon="0.661338">
        <ele>2347.9</ele>
        <time>1970-01-01T08:55:36.000Z</time>
      </trkpt>
      <trkpt lat="42.657715" lon="0.661329">
        <ele>2347.8</ele>
        <time>1970-01-01T08:55:37.000Z</time>
      </trkpt>
      <trkpt lat="42.657719" lon="0.661321">
        <ele>2347.8</ele>
        <time>1970-01-01T08:55:39.000Z</time>
      </trkpt>
      <trkpt lat="42.657721" lon="0.661312">
        <ele>2347.6</ele>
        <time>1970-01-01T08:55:40.000Z</time>
      </trkpt>
      <trkpt lat="42.65772" lon="0.661303">
        <ele>2347.5</ele>
        <time>1970-01-01T08:55:41.000Z</time>
      </trkpt>
      <trkpt lat="42.657719" lon="0.661296">
        <ele>2347.5</ele>
        <time>1970-01-01T08:55:42.000Z</time>
      </trkpt>
      <trkpt lat="42.657718" lon="0.661294">
        <ele>2347.4</ele>
        <time>1970-01-01T08:55:43.000Z</time>
      </trkpt>
      <trkpt lat="42.657717" lon="0.661292">
        <ele>2347.4</ele>
        <time>1970-01-01T08:55:44.000Z</time>
      </trkpt>
      <trkpt lat="42.657715" lon="0.661287">
        <ele>2347.3</ele>
        <time>1970-01-01T08:55:45.000Z</time>
      </trkpt>
      <trkpt lat="42.657714" lon="0.661277">
        <ele>2347.2</ele>
        <time>1970-01-01T08:55:46.000Z</time>
      </trkpt>
      <trkpt lat="42.657713" lon="0.661271">
        <ele>2347.1</ele>
        <time>1970-01-01T08:55:47.000Z</time>
      </trkpt>
      <trkpt lat="42.657712" lon="0.661267">
        <ele>2347.1</ele>
        <time>1970-01-01T08:55:48.000Z</time>
      </trkpt>
      <trkpt lat="42.657711" lon="0.661262">
        <ele>2347.1</ele>
        <time>1970-01-01T08:55:50.000Z</time>
      </trkpt>
      <trkpt lat="42.657711" lon="0.661259">
        <ele>2346.9</ele>
        <time>1970-01-01T08:55:51.000Z</time>
      </trkpt>
      <trkpt lat="42.65771" lon="0.661256">
        <ele>2346.9</ele>
        <time>1970-01-01T08:55:52.000Z</time>
      </trkpt>
      <trkpt lat="42.657709" lon="0.661255">
        <ele>2346.9</ele>
        <time>1970-01-01T08:55:53.000Z</time>
      </trkpt>
      <trkpt lat="42.657709" lon="0.661255">
        <ele>2346.9</ele>
        <time>1970-01-01T08:55:54.000Z</time>
      </trkpt>
      <trkpt lat="42.657709" lon="0.661254">
        <ele>2346.9</ele>
        <time>1970-01-01T08:55:55.000Z</time>
      </trkpt>
      <trkpt lat="42.657708" lon="0.661251">
        <ele>2346.8</ele>
        <time>1970-01-01T08:55:56.000Z</time>
      </trkpt>
      <trkpt lat="42.657707" lon="0.661247">
        <ele>2346.7</ele>
        <time>1970-01-01T08:55:57.000Z</time>
      </trkpt>
      <trkpt lat="42.657707" lon="0.661246">
        <ele>2346.7</ele>
        <time>1970-01-01T08:55:58.000Z</time>
      </trkpt>
      <trkpt lat="42.657707" lon="0.661239">
        <ele>2346.7</ele>
        <time>1970-01-01T08:56:00.000Z</time>
      </trkpt>
      <trkpt lat="42.657708" lon="0.66124">
        <ele>2346.7</ele>
        <time>1970-01-01T08:56:01.000Z</time>
      </trkpt>
      <trkpt lat="42.657708" lon="0.66124">
        <ele>2346.7</ele>
        <time>1970-01-01T08:56:02.000Z</time>
      </trkpt>
      <trkpt lat="42.657711" lon="0.661237">
        <ele>2346.6</ele>
        <time>1970-01-01T08:56:03.000Z</time>
      </trkpt>
      <trkpt lat="42.65771" lon="0.66123">
        <ele>2346.6</ele>
        <time>1970-01-01T08:56:05.000Z</time>
      </trkpt>
      <trkpt lat="42.657708" lon="0.661228">
        <ele>2346.5</ele>
        <time>1970-01-01T08:56:06.000Z</time>
      </trkpt>
      <trkpt lat="42.657706" lon="0.661224">
        <ele>2346.5</ele>
        <time>1970-01-01T08:56:08.000Z</time>
      </trkpt>
      <trkpt lat="42.657704" lon="0.661222">
        <ele>2346.5</ele>
        <time>1970-01-01T08:56:09.000Z</time>
      </trkpt>
      <trkpt lat="42.657704" lon="0.66122">
        <ele>2346.5</ele>
        <time>1970-01-01T08:56:10.000Z</time>
      </trkpt>
      <trkpt lat="42.657704" lon="0.661213">
        <ele>2346.4</ele>
        <time>1970-01-01T08:56:12.000Z</time>
      </trkpt>
      <trkpt lat="42.657707" lon="0.661207">
        <ele>2346.4</ele>
        <time>1970-01-01T08:56:13.000Z</time>
      </trkpt>
      <trkpt lat="42.657711" lon="0.661203">
        <ele>2346.3</ele>
        <time>1970-01-01T08:56:14.000Z</time>
      </trkpt>
      <trkpt lat="42.657714" lon="0.661203">
        <ele>2346.3</ele>
        <time>1970-01-01T08:56:15.000Z</time>
      </trkpt>
      <trkpt lat="42.65772" lon="0.661205">
        <ele>2346.2</ele>
        <time>1970-01-01T08:56:17.000Z</time>
      </trkpt>
      <trkpt lat="42.657722" lon="0.661209">
        <ele>2346.2</ele>
        <time>1970-01-01T08:56:18.000Z</time>
      </trkpt>
      <trkpt lat="42.657722" lon="0.661209">
        <ele>2346.2</ele>
        <time>1970-01-01T08:56:19.000Z</time>
      </trkpt>
      <trkpt lat="42.657721" lon="0.661209">
        <ele>2346.2</ele>
        <time>1970-01-01T08:56:20.000Z</time>
      </trkpt>
      <trkpt lat="42.657723" lon="0.661211">
        <ele>2346.1</ele>
        <time>1970-01-01T08:56:21.000Z</time>
      </trkpt>
      <trkpt lat="42.657722" lon="0.661212">
        <ele>2346.1</ele>
        <time>1970-01-01T08:56:22.000Z</time>
      </trkpt>
      <trkpt lat="42.657723" lon="0.661216">
        <ele>2346.1</ele>
        <time>1970-01-01T08:56:23.000Z</time>
      </trkpt>
      <trkpt lat="42.657725" lon="0.66122">
        <ele>2346.1</ele>
        <time>1970-01-01T08:56:24.000Z</time>
      </trkpt>
      <trkpt lat="42.657726" lon="0.661228">
        <ele>2346</ele>
        <time>1970-01-01T08:56:25.000Z</time>
      </trkpt>
      <trkpt lat="42.657727" lon="0.661235">
        <ele>2346</ele>
        <time>1970-01-01T08:56:26.000Z</time>
      </trkpt>
      <trkpt lat="42.657731" lon="0.661245">
        <ele>2345.9</ele>
        <time>1970-01-01T08:56:27.000Z</time>
      </trkpt>
      <trkpt lat="42.657734" lon="0.661251">
        <ele>2345.8</ele>
        <time>1970-01-01T08:56:28.000Z</time>
      </trkpt>
      <trkpt lat="42.657737" lon="0.661255">
        <ele>2345.8</ele>
        <time>1970-01-01T08:56:29.000Z</time>
      </trkpt>
      <trkpt lat="42.657742" lon="0.661259">
        <ele>2345.7</ele>
        <time>1970-01-01T08:56:30.000Z</time>
      </trkpt>
      <trkpt lat="42.657749" lon="0.661268">
        <ele>2345.7</ele>
        <time>1970-01-01T08:56:31.000Z</time>
      </trkpt>
      <trkpt lat="42.657754" lon="0.661277">
        <ele>2345.6</ele>
        <time>1970-01-01T08:56:33.000Z</time>
      </trkpt>
      <trkpt lat="42.657761" lon="0.661289">
        <ele>2345.5</ele>
        <time>1970-01-01T08:56:34.000Z</time>
      </trkpt>
      <trkpt lat="42.657766" lon="0.661299">
        <ele>2345.4</ele>
        <time>1970-01-01T08:56:35.000Z</time>
      </trkpt>
      <trkpt lat="42.65777" lon="0.661307">
        <ele>2345.3</ele>
        <time>1970-01-01T08:56:36.000Z</time>
      </trkpt>
      <trkpt lat="42.657773" lon="0.661316">
        <ele>2345.3</ele>
        <time>1970-01-01T08:56:37.000Z</time>
      </trkpt>
      <trkpt lat="42.657778" lon="0.661324">
        <ele>2345.2</ele>
        <time>1970-01-01T08:56:38.000Z</time>
      </trkpt>
      <trkpt lat="42.657781" lon="0.66133">
        <ele>2345.2</ele>
        <time>1970-01-01T08:56:39.000Z</time>
      </trkpt>
      <trkpt lat="42.657789" lon="0.661335">
        <ele>2345.1</ele>
        <time>1970-01-01T08:56:41.000Z</time>
      </trkpt>
      <trkpt lat="42.657797" lon="0.661338">
        <ele>2345</ele>
        <time>1970-01-01T08:56:42.000Z</time>
      </trkpt>
      <trkpt lat="42.657802" lon="0.661346">
        <ele>2344.9</ele>
        <time>1970-01-01T08:56:43.000Z</time>
      </trkpt>
      <trkpt lat="42.657806" lon="0.661351">
        <ele>2344.9</ele>
        <time>1970-01-01T08:56:44.000Z</time>
      </trkpt>
      <trkpt lat="42.65781" lon="0.661355">
        <ele>2344.9</ele>
        <time>1970-01-01T08:56:45.000Z</time>
      </trkpt>
      <trkpt lat="42.657812" lon="0.661361">
        <ele>2344.8</ele>
        <time>1970-01-01T08:56:47.000Z</time>
      </trkpt>
      <trkpt lat="42.657812" lon="0.661364">
        <ele>2344.8</ele>
        <time>1970-01-01T08:56:48.000Z</time>
      </trkpt>
      <trkpt lat="42.657814" lon="0.661367">
        <ele>2344.8</ele>
        <time>1970-01-01T08:56:50.000Z</time>
      </trkpt>
      <trkpt lat="42.657817" lon="0.661372">
        <ele>2344.7</ele>
        <time>1970-01-01T08:56:51.000Z</time>
      </trkpt>
      <trkpt lat="42.657818" lon="0.661375">
        <ele>2344.7</ele>
        <time>1970-01-01T08:56:52.000Z</time>
      </trkpt>
      <trkpt lat="42.657825" lon="0.661378">
        <ele>2344.6</ele>
        <time>1970-01-01T08:56:54.000Z</time>
      </trkpt>
      <trkpt lat="42.657826" lon="0.661377">
        <ele>2344.6</ele>
        <time>1970-01-01T08:56:55.000Z</time>
      </trkpt>
      <trkpt lat="42.657829" lon="0.66138">
        <ele>2344.6</ele>
        <time>1970-01-01T08:56:56.000Z</time>
      </trkpt>
      <trkpt lat="42.657831" lon="0.661381">
        <ele>2344.6</ele>
        <time>1970-01-01T08:56:57.000Z</time>
      </trkpt>
      <trkpt lat="42.657832" lon="0.66138">
        <ele>2344.6</ele>
        <time>1970-01-01T08:56:58.000Z</time>
      </trkpt>
      <trkpt lat="42.657839" lon="0.661381">
        <ele>2344.5</ele>
        <time>1970-01-01T08:56:59.000Z</time>
      </trkpt>
      <trkpt lat="42.657841" lon="0.661386">
        <ele>2344.5</ele>
        <time>1970-01-01T08:57:00.000Z</time>
      </trkpt>
      <trkpt lat="42.65784" lon="0.661391">
        <ele>2344.4</ele>
        <time>1970-01-01T08:57:01.000Z</time>
      </trkpt>
      <trkpt lat="42.657838" lon="0.661396">
        <ele>2344.4</ele>
        <time>1970-01-01T08:57:03.000Z</time>
      </trkpt>
      <trkpt lat="42.657839" lon="0.6614">
        <ele>2344.4</ele>
        <time>1970-01-01T08:57:04.000Z</time>
      </trkpt>
      <trkpt lat="42.657841" lon="0.661408">
        <ele>2344.3</ele>
        <time>1970-01-01T08:57:05.000Z</time>
      </trkpt>
      <trkpt lat="42.657841" lon="0.661418">
        <ele>2344.2</ele>
        <time>1970-01-01T08:57:06.000Z</time>
      </trkpt>
      <trkpt lat="42.657841" lon="0.661432">
        <ele>2344.1</ele>
        <time>1970-01-01T08:57:08.000Z</time>
      </trkpt>
      <trkpt lat="42.657842" lon="0.661439">
        <ele>2344.1</ele>
        <time>1970-01-01T08:57:09.000Z</time>
      </trkpt>
      <trkpt lat="42.657844" lon="0.661447">
        <ele>2344</ele>
        <time>1970-01-01T08:57:10.000Z</time>
      </trkpt>
      <trkpt lat="42.657848" lon="0.661451">
        <ele>2344</ele>
        <time>1970-01-01T08:57:12.000Z</time>
      </trkpt>
      <trkpt lat="42.657854" lon="0.661459">
        <ele>2343.9</ele>
        <time>1970-01-01T08:57:13.000Z</time>
      </trkpt>
      <trkpt lat="42.657863" lon="0.661465">
        <ele>2343.8</ele>
        <time>1970-01-01T08:57:14.000Z</time>
      </trkpt>
      <trkpt lat="42.657872" lon="0.661465">
        <ele>2343.7</ele>
        <time>1970-01-01T08:57:15.000Z</time>
      </trkpt>
      <trkpt lat="42.657885" lon="0.661459">
        <ele>2343.6</ele>
        <time>1970-01-01T08:57:17.000Z</time>
      </trkpt>
      <trkpt lat="42.657891" lon="0.661457">
        <ele>2343.5</ele>
        <time>1970-01-01T08:57:18.000Z</time>
      </trkpt>
      <trkpt lat="42.657894" lon="0.661454">
        <ele>2343.5</ele>
        <time>1970-01-01T08:57:20.000Z</time>
      </trkpt>
      <trkpt lat="42.657896" lon="0.661454">
        <ele>2343.5</ele>
        <time>1970-01-01T08:57:21.000Z</time>
      </trkpt>
      <trkpt lat="42.657899" lon="0.661455">
        <ele>2343.4</ele>
        <time>1970-01-01T08:57:22.000Z</time>
      </trkpt>
      <trkpt lat="42.657901" lon="0.661456">
        <ele>2343.4</ele>
        <time>1970-01-01T08:57:23.000Z</time>
      </trkpt>
      <trkpt lat="42.657903" lon="0.661457">
        <ele>2343.4</ele>
        <time>1970-01-01T08:57:24.000Z</time>
      </trkpt>
      <trkpt lat="42.657905" lon="0.66146">
        <ele>2343.4</ele>
        <time>1970-01-01T08:57:25.000Z</time>
      </trkpt>
      <trkpt lat="42.657907" lon="0.661463">
        <ele>2343.3</ele>
        <time>1970-01-01T08:57:26.000Z</time>
      </trkpt>
      <trkpt lat="42.65791" lon="0.661468">
        <ele>2343.3</ele>
        <time>1970-01-01T08:57:27.000Z</time>
      </trkpt>
      <trkpt lat="42.657913" lon="0.661471">
        <ele>2343.3</ele>
        <time>1970-01-01T08:57:28.000Z</time>
      </trkpt>
      <trkpt lat="42.657914" lon="0.661476">
        <ele>2343.2</ele>
        <time>1970-01-01T08:57:29.000Z</time>
      </trkpt>
      <trkpt lat="42.657917" lon="0.661482">
        <ele>2343.2</ele>
        <time>1970-01-01T08:57:30.000Z</time>
      </trkpt>
      <trkpt lat="42.657918" lon="0.66149">
        <ele>2343.1</ele>
        <time>1970-01-01T08:57:31.000Z</time>
      </trkpt>
      <trkpt lat="42.657919" lon="0.661496">
        <ele>2343</ele>
        <time>1970-01-01T08:57:32.000Z</time>
      </trkpt>
      <trkpt lat="42.657921" lon="0.661499">
        <ele>2343</ele>
        <time>1970-01-01T08:57:33.000Z</time>
      </trkpt>
      <trkpt lat="42.657921" lon="0.661504">
        <ele>2343</ele>
        <time>1970-01-01T08:57:34.000Z</time>
      </trkpt>
      <trkpt lat="42.657922" lon="0.661513">
        <ele>2342.9</ele>
        <time>1970-01-01T08:57:36.000Z</time>
      </trkpt>
      <trkpt lat="42.657923" lon="0.661517">
        <ele>2342.9</ele>
        <time>1970-01-01T08:57:37.000Z</time>
      </trkpt>
      <trkpt lat="42.657924" lon="0.661522">
        <ele>2342.8</ele>
        <time>1970-01-01T08:57:38.000Z</time>
      </trkpt>
      <trkpt lat="42.657926" lon="0.661526">
        <ele>2342.8</ele>
        <time>1970-01-01T08:57:39.000Z</time>
      </trkpt>
      <trkpt lat="42.657928" lon="0.661528">
        <ele>2342.7</ele>
        <time>1970-01-01T08:57:40.000Z</time>
      </trkpt>
      <trkpt lat="42.65793" lon="0.661531">
        <ele>2342.7</ele>
        <time>1970-01-01T08:57:41.000Z</time>
      </trkpt>
      <trkpt lat="42.657935" lon="0.661539">
        <ele>2342.6</ele>
        <time>1970-01-01T08:57:43.000Z</time>
      </trkpt>
      <trkpt lat="42.657936" lon="0.661542">
        <ele>2342.6</ele>
        <time>1970-01-01T08:57:44.000Z</time>
      </trkpt>
      <trkpt lat="42.657937" lon="0.661547">
        <ele>2342.5</ele>
        <time>1970-01-01T08:57:45.000Z</time>
      </trkpt>
      <trkpt lat="42.657939" lon="0.66155">
        <ele>2342.5</ele>
        <time>1970-01-01T08:57:46.000Z</time>
      </trkpt>
      <trkpt lat="42.657943" lon="0.661556">
        <ele>2342.4</ele>
        <time>1970-01-01T08:57:47.000Z</time>
      </trkpt>
      <trkpt lat="42.657948" lon="0.661563">
        <ele>2342.3</ele>
        <time>1970-01-01T08:57:49.000Z</time>
      </trkpt>
      <trkpt lat="42.657953" lon="0.661567">
        <ele>2342.3</ele>
        <time>1970-01-01T08:57:50.000Z</time>
      </trkpt>
      <trkpt lat="42.657958" lon="0.66157">
        <ele>2342.2</ele>
        <time>1970-01-01T08:57:51.000Z</time>
      </trkpt>
      <trkpt lat="42.657964" lon="0.661576">
        <ele>2342.1</ele>
        <time>1970-01-01T08:57:52.000Z</time>
      </trkpt>
      <trkpt lat="42.657974" lon="0.661584">
        <ele>2342</ele>
        <time>1970-01-01T08:57:54.000Z</time>
      </trkpt>
      <trkpt lat="42.65798" lon="0.66159">
        <ele>2341.9</ele>
        <time>1970-01-01T08:57:55.000Z</time>
      </trkpt>
      <trkpt lat="42.657985" lon="0.661594">
        <ele>2341.8</ele>
        <time>1970-01-01T08:57:56.000Z</time>
      </trkpt>
      <trkpt lat="42.657989" lon="0.661597">
        <ele>2341.7</ele>
        <time>1970-01-01T08:57:57.000Z</time>
      </trkpt>
      <trkpt lat="42.657996" lon="0.661606">
        <ele>2341.6</ele>
        <time>1970-01-01T08:57:58.000Z</time>
      </trkpt>
      <trkpt lat="42.658002" lon="0.661617">
        <ele>2341.4</ele>
        <time>1970-01-01T08:57:59.000Z</time>
      </trkpt>
      <trkpt lat="42.658006" lon="0.661625">
        <ele>2341.3</ele>
        <time>1970-01-01T08:58:00.000Z</time>
      </trkpt>
      <trkpt lat="42.658016" lon="0.661637">
        <ele>2341.2</ele>
        <time>1970-01-01T08:58:01.000Z</time>
      </trkpt>
      <trkpt lat="42.658025" lon="0.661647">
        <ele>2341</ele>
        <time>1970-01-01T08:58:02.000Z</time>
      </trkpt>
      <trkpt lat="42.658033" lon="0.661655">
        <ele>2340.9</ele>
        <time>1970-01-01T08:58:03.000Z</time>
      </trkpt>
      <trkpt lat="42.658043" lon="0.661662">
        <ele>2340.7</ele>
        <time>1970-01-01T08:58:04.000Z</time>
      </trkpt>
      <trkpt lat="42.658052" lon="0.66167">
        <ele>2340.5</ele>
        <time>1970-01-01T08:58:05.000Z</time>
      </trkpt>
      <trkpt lat="42.658058" lon="0.661676">
        <ele>2340.4</ele>
        <time>1970-01-01T08:58:06.000Z</time>
      </trkpt>
      <trkpt lat="42.658074" lon="0.661679">
        <ele>2340.2</ele>
        <time>1970-01-01T08:58:07.000Z</time>
      </trkpt>
      <trkpt lat="42.658088" lon="0.661681">
        <ele>2340</ele>
        <time>1970-01-01T08:58:09.000Z</time>
      </trkpt>
      <trkpt lat="42.658093" lon="0.661684">
        <ele>2339.9</ele>
        <time>1970-01-01T08:58:10.000Z</time>
      </trkpt>
      <trkpt lat="42.658101" lon="0.661683">
        <ele>2339.8</ele>
        <time>1970-01-01T08:58:11.000Z</time>
      </trkpt>
      <trkpt lat="42.658109" lon="0.661681">
        <ele>2339.7</ele>
        <time>1970-01-01T08:58:13.000Z</time>
      </trkpt>
      <trkpt lat="42.658109" lon="0.661687">
        <ele>2339.6</ele>
        <time>1970-01-01T08:58:14.000Z</time>
      </trkpt>
      <trkpt lat="42.658108" lon="0.661689">
        <ele>2339.6</ele>
        <time>1970-01-01T08:58:15.000Z</time>
      </trkpt>
      <trkpt lat="42.658107" lon="0.661692">
        <ele>2339.5</ele>
        <time>1970-01-01T08:58:16.000Z</time>
      </trkpt>
      <trkpt lat="42.65811" lon="0.661696">
        <ele>2339.5</ele>
        <time>1970-01-01T08:58:17.000Z</time>
      </trkpt>
      <trkpt lat="42.658114" lon="0.661695">
        <ele>2339.4</ele>
        <time>1970-01-01T08:58:18.000Z</time>
      </trkpt>
      <trkpt lat="42.658128" lon="0.661696">
        <ele>2339.2</ele>
        <time>1970-01-01T08:58:19.000Z</time>
      </trkpt>
      <trkpt lat="42.658136" lon="0.661698">
        <ele>2339.1</ele>
        <time>1970-01-01T08:58:21.000Z</time>
      </trkpt>
      <trkpt lat="42.658144" lon="0.661701">
        <ele>2339</ele>
        <time>1970-01-01T08:58:22.000Z</time>
      </trkpt>
      <trkpt lat="42.658152" lon="0.661704">
        <ele>2338.9</ele>
        <time>1970-01-01T08:58:23.000Z</time>
      </trkpt>
      <trkpt lat="42.658168" lon="0.661707">
        <ele>2338.6</ele>
        <time>1970-01-01T08:58:25.000Z</time>
      </trkpt>
      <trkpt lat="42.658175" lon="0.661714">
        <ele>2338.5</ele>
        <time>1970-01-01T08:58:26.000Z</time>
      </trkpt>
      <trkpt lat="42.658179" lon="0.66172">
        <ele>2338.4</ele>
        <time>1970-01-01T08:58:27.000Z</time>
      </trkpt>
      <trkpt lat="42.658186" lon="0.661729">
        <ele>2338.3</ele>
        <time>1970-01-01T08:58:28.000Z</time>
      </trkpt>
      <trkpt lat="42.658195" lon="0.661738">
        <ele>2338.1</ele>
        <time>1970-01-01T08:58:29.000Z</time>
      </trkpt>
      <trkpt lat="42.658202" lon="0.661746">
        <ele>2338</ele>
        <time>1970-01-01T08:58:31.000Z</time>
      </trkpt>
      <trkpt lat="42.658209" lon="0.661751">
        <ele>2337.9</ele>
        <time>1970-01-01T08:58:32.000Z</time>
      </trkpt>
      <trkpt lat="42.658219" lon="0.661759">
        <ele>2337.8</ele>
        <time>1970-01-01T08:58:33.000Z</time>
      </trkpt>
      <trkpt lat="42.658226" lon="0.661763">
        <ele>2337.6</ele>
        <time>1970-01-01T08:58:35.000Z</time>
      </trkpt>
      <trkpt lat="42.65823" lon="0.661775">
        <ele>2337.5</ele>
        <time>1970-01-01T08:58:36.000Z</time>
      </trkpt>
      <trkpt lat="42.658232" lon="0.661786">
        <ele>2337.4</ele>
        <time>1970-01-01T08:58:37.000Z</time>
      </trkpt>
      <trkpt lat="42.658242" lon="0.66179">
        <ele>2337.3</ele>
        <time>1970-01-01T08:58:39.000Z</time>
      </trkpt>
      <trkpt lat="42.65825" lon="0.661783">
        <ele>2337.1</ele>
        <time>1970-01-01T08:58:40.000Z</time>
      </trkpt>
      <trkpt lat="42.658256" lon="0.661782">
        <ele>2337.1</ele>
        <time>1970-01-01T08:58:41.000Z</time>
      </trkpt>
      <trkpt lat="42.658267" lon="0.661778">
        <ele>2336.9</ele>
        <time>1970-01-01T08:58:42.000Z</time>
      </trkpt>
      <trkpt lat="42.658276" lon="0.661775">
        <ele>2336.8</ele>
        <time>1970-01-01T08:58:44.000Z</time>
      </trkpt>
      <trkpt lat="42.658284" lon="0.661777">
        <ele>2336.7</ele>
        <time>1970-01-01T08:58:45.000Z</time>
      </trkpt>
      <trkpt lat="42.658296" lon="0.661777">
        <ele>2336.5</ele>
        <time>1970-01-01T08:58:46.000Z</time>
      </trkpt>
      <trkpt lat="42.658306" lon="0.661771">
        <ele>2336.4</ele>
        <time>1970-01-01T08:58:48.000Z</time>
      </trkpt>
      <trkpt lat="42.658317" lon="0.661772">
        <ele>2336.3</ele>
        <time>1970-01-01T08:58:49.000Z</time>
      </trkpt>
      <trkpt lat="42.658327" lon="0.661778">
        <ele>2336.1</ele>
        <time>1970-01-01T08:58:50.000Z</time>
      </trkpt>
      <trkpt lat="42.658337" lon="0.661784">
        <ele>2336</ele>
        <time>1970-01-01T08:58:51.000Z</time>
      </trkpt>
      <trkpt lat="42.658349" lon="0.661791">
        <ele>2335.8</ele>
        <time>1970-01-01T08:58:52.000Z</time>
      </trkpt>
      <trkpt lat="42.658362" lon="0.661789">
        <ele>2335.7</ele>
        <time>1970-01-01T08:58:53.000Z</time>
      </trkpt>
      <trkpt lat="42.658371" lon="0.661781">
        <ele>2335.5</ele>
        <time>1970-01-01T08:58:54.000Z</time>
      </trkpt>
      <trkpt lat="42.658389" lon="0.661781">
        <ele>2335.3</ele>
        <time>1970-01-01T08:58:56.000Z</time>
      </trkpt>
      <trkpt lat="42.658399" lon="0.661783">
        <ele>2335.2</ele>
        <time>1970-01-01T08:58:57.000Z</time>
      </trkpt>
      <trkpt lat="42.658406" lon="0.661783">
        <ele>2335.1</ele>
        <time>1970-01-01T08:58:58.000Z</time>
      </trkpt>
      <trkpt lat="42.658417" lon="0.661784">
        <ele>2335</ele>
        <time>1970-01-01T08:58:59.000Z</time>
      </trkpt>
      <trkpt lat="42.658429" lon="0.661785">
        <ele>2334.8</ele>
        <time>1970-01-01T08:59:00.000Z</time>
      </trkpt>
      <trkpt lat="42.658441" lon="0.661784">
        <ele>2334.7</ele>
        <time>1970-01-01T08:59:02.000Z</time>
      </trkpt>
      <trkpt lat="42.65845" lon="0.661785">
        <ele>2334.6</ele>
        <time>1970-01-01T08:59:03.000Z</time>
      </trkpt>
      <trkpt lat="42.658461" lon="0.661787">
        <ele>2334.4</ele>
        <time>1970-01-01T08:59:04.000Z</time>
      </trkpt>
      <trkpt lat="42.658472" lon="0.66179">
        <ele>2334.3</ele>
        <time>1970-01-01T08:59:05.000Z</time>
      </trkpt>
      <trkpt lat="42.658481" lon="0.661793">
        <ele>2334.2</ele>
        <time>1970-01-01T08:59:06.000Z</time>
      </trkpt>
      <trkpt lat="42.658501" lon="0.661791">
        <ele>2334</ele>
        <time>1970-01-01T08:59:07.000Z</time>
      </trkpt>
      <trkpt lat="42.658509" lon="0.66179">
        <ele>2333.9</ele>
        <time>1970-01-01T08:59:08.000Z</time>
      </trkpt>
      <trkpt lat="42.658517" lon="0.661789">
        <ele>2333.8</ele>
        <time>1970-01-01T08:59:09.000Z</time>
      </trkpt>
      <trkpt lat="42.658528" lon="0.661788">
        <ele>2333.6</ele>
        <time>1970-01-01T08:59:11.000Z</time>
      </trkpt>
      <trkpt lat="42.658538" lon="0.66179">
        <ele>2333.5</ele>
        <time>1970-01-01T08:59:12.000Z</time>
      </trkpt>
      <trkpt lat="42.658547" lon="0.661787">
        <ele>2333.4</ele>
        <time>1970-01-01T08:59:13.000Z</time>
      </trkpt>
      <trkpt lat="42.658555" lon="0.661779">
        <ele>2333.3</ele>
        <time>1970-01-01T08:59:14.000Z</time>
      </trkpt>
      <trkpt lat="42.658562" lon="0.661773">
        <ele>2333.2</ele>
        <time>1970-01-01T08:59:15.000Z</time>
      </trkpt>
      <trkpt lat="42.658566" lon="0.661767">
        <ele>2333.1</ele>
        <time>1970-01-01T08:59:16.000Z</time>
      </trkpt>
      <trkpt lat="42.658571" lon="0.66176">
        <ele>2333</ele>
        <time>1970-01-01T08:59:17.000Z</time>
      </trkpt>
      <trkpt lat="42.65858" lon="0.661756">
        <ele>2332.9</ele>
        <time>1970-01-01T08:59:18.000Z</time>
      </trkpt>
      <trkpt lat="42.65859" lon="0.661758">
        <ele>2332.8</ele>
        <time>1970-01-01T08:59:19.000Z</time>
      </trkpt>
      <trkpt lat="42.658599" lon="0.661758">
        <ele>2332.7</ele>
        <time>1970-01-01T08:59:20.000Z</time>
      </trkpt>
      <trkpt lat="42.658609" lon="0.661752">
        <ele>2332.6</ele>
        <time>1970-01-01T08:59:21.000Z</time>
      </trkpt>
      <trkpt lat="42.658618" lon="0.661746">
        <ele>2332.5</ele>
        <time>1970-01-01T08:59:23.000Z</time>
      </trkpt>
      <trkpt lat="42.658628" lon="0.661749">
        <ele>2332.4</ele>
        <time>1970-01-01T08:59:24.000Z</time>
      </trkpt>
      <trkpt lat="42.658642" lon="0.661769">
        <ele>2332.2</ele>
        <time>1970-01-01T08:59:25.000Z</time>
      </trkpt>
      <trkpt lat="42.658646" lon="0.661778">
        <ele>2332.1</ele>
        <time>1970-01-01T08:59:26.000Z</time>
      </trkpt>
      <trkpt lat="42.65865" lon="0.661788">
        <ele>2332.1</ele>
        <time>1970-01-01T08:59:27.000Z</time>
      </trkpt>
      <trkpt lat="42.658663" lon="0.661812">
        <ele>2331.9</ele>
        <time>1970-01-01T08:59:28.000Z</time>
      </trkpt>
      <trkpt lat="42.658668" lon="0.661821">
        <ele>2331.8</ele>
        <time>1970-01-01T08:59:29.000Z</time>
      </trkpt>
      <trkpt lat="42.658674" lon="0.66183">
        <ele>2331.7</ele>
        <time>1970-01-01T08:59:30.000Z</time>
      </trkpt>
      <trkpt lat="42.658686" lon="0.661839">
        <ele>2331.6</ele>
        <time>1970-01-01T08:59:32.000Z</time>
      </trkpt>
      <trkpt lat="42.658704" lon="0.66183">
        <ele>2331.4</ele>
        <time>1970-01-01T08:59:33.000Z</time>
      </trkpt>
      <trkpt lat="42.658713" lon="0.661825">
        <ele>2331.4</ele>
        <time>1970-01-01T08:59:34.000Z</time>
      </trkpt>
      <trkpt lat="42.658722" lon="0.661829">
        <ele>2331.3</ele>
        <time>1970-01-01T08:59:36.000Z</time>
      </trkpt>
      <trkpt lat="42.658729" lon="0.66184">
        <ele>2331.2</ele>
        <time>1970-01-01T08:59:37.000Z</time>
      </trkpt>
      <trkpt lat="42.658732" lon="0.661842">
        <ele>2331.2</ele>
        <time>1970-01-01T08:59:38.000Z</time>
      </trkpt>
      <trkpt lat="42.658741" lon="0.661843">
        <ele>2331.1</ele>
        <time>1970-01-01T08:59:39.000Z</time>
      </trkpt>
      <trkpt lat="42.658751" lon="0.661843">
        <ele>2331</ele>
        <time>1970-01-01T08:59:41.000Z</time>
      </trkpt>
      <trkpt lat="42.65876" lon="0.66184">
        <ele>2330.9</ele>
        <time>1970-01-01T08:59:42.000Z</time>
      </trkpt>
      <trkpt lat="42.658759" lon="0.661831">
        <ele>2330.9</ele>
        <time>1970-01-01T08:59:43.000Z</time>
      </trkpt>
      <trkpt lat="42.658762" lon="0.661828">
        <ele>2330.9</ele>
        <time>1970-01-01T08:59:44.000Z</time>
      </trkpt>
      <trkpt lat="42.658766" lon="0.661829">
        <ele>2330.8</ele>
        <time>1970-01-01T08:59:45.000Z</time>
      </trkpt>
      <trkpt lat="42.658773" lon="0.66183">
        <ele>2330.8</ele>
        <time>1970-01-01T08:59:46.000Z</time>
      </trkpt>
      <trkpt lat="42.658787" lon="0.661828">
        <ele>2330.7</ele>
        <time>1970-01-01T08:59:47.000Z</time>
      </trkpt>
      <trkpt lat="42.658802" lon="0.66182">
        <ele>2330.5</ele>
        <time>1970-01-01T08:59:49.000Z</time>
      </trkpt>
      <trkpt lat="42.658818" lon="0.661817">
        <ele>2330.4</ele>
        <time>1970-01-01T08:59:50.000Z</time>
      </trkpt>
      <trkpt lat="42.658827" lon="0.661815">
        <ele>2330.3</ele>
        <time>1970-01-01T08:59:52.000Z</time>
      </trkpt>
      <trkpt lat="42.658837" lon="0.661812">
        <ele>2330.2</ele>
        <time>1970-01-01T08:59:53.000Z</time>
      </trkpt>
      <trkpt lat="42.658843" lon="0.661809">
        <ele>2330.2</ele>
        <time>1970-01-01T08:59:54.000Z</time>
      </trkpt>
      <trkpt lat="42.658846" lon="0.661812">
        <ele>2330.1</ele>
        <time>1970-01-01T08:59:55.000Z</time>
      </trkpt>
      <trkpt lat="42.658852" lon="0.661816">
        <ele>2330.1</ele>
        <time>1970-01-01T08:59:56.000Z</time>
      </trkpt>
      <trkpt lat="42.658857" lon="0.661807">
        <ele>2330</ele>
        <time>1970-01-01T08:59:57.000Z</time>
      </trkpt>
      <trkpt lat="42.658862" lon="0.661802">
        <ele>2329.9</ele>
        <time>1970-01-01T08:59:58.000Z</time>
      </trkpt>
      <trkpt lat="42.658869" lon="0.661797">
        <ele>2329.9</ele>
        <time>1970-01-01T08:59:59.000Z</time>
      </trkpt>
      <trkpt lat="42.658885" lon="0.661794">
        <ele>2329.7</ele>
        <time>1970-01-01T09:00:01.000Z</time>
      </trkpt>
      <trkpt lat="42.658896" lon="0.661791">
        <ele>2329.6</ele>
        <time>1970-01-01T09:00:02.000Z</time>
      </trkpt>
      <trkpt lat="42.658907" lon="0.661788">
        <ele>2329.5</ele>
        <time>1970-01-01T09:00:03.000Z</time>
      </trkpt>
      <trkpt lat="42.65891" lon="0.661787">
        <ele>2329.5</ele>
        <time>1970-01-01T09:00:04.000Z</time>
      </trkpt>
      <trkpt lat="42.658909" lon="0.661789">
        <ele>2329.5</ele>
        <time>1970-01-01T09:00:05.000Z</time>
      </trkpt>
      <trkpt lat="42.65891" lon="0.661791">
        <ele>2329.4</ele>
        <time>1970-01-01T09:00:06.000Z</time>
      </trkpt>
      <trkpt lat="42.65892" lon="0.661789">
        <ele>2329.3</ele>
        <time>1970-01-01T09:00:07.000Z</time>
      </trkpt>
      <trkpt lat="42.65893" lon="0.661788">
        <ele>2329.3</ele>
        <time>1970-01-01T09:00:08.000Z</time>
      </trkpt>
      <trkpt lat="42.658941" lon="0.661791">
        <ele>2329.2</ele>
        <time>1970-01-01T09:00:09.000Z</time>
      </trkpt>
      <trkpt lat="42.65895" lon="0.6618">
        <ele>2329</ele>
        <time>1970-01-01T09:00:10.000Z</time>
      </trkpt>
      <trkpt lat="42.658968" lon="0.661805">
        <ele>2328.9</ele>
        <time>1970-01-01T09:00:12.000Z</time>
      </trkpt>
      <trkpt lat="42.658977" lon="0.661804">
        <ele>2328.8</ele>
        <time>1970-01-01T09:00:13.000Z</time>
      </trkpt>
      <trkpt lat="42.658987" lon="0.661803">
        <ele>2328.7</ele>
        <time>1970-01-01T09:00:14.000Z</time>
      </trkpt>
      <trkpt lat="42.659002" lon="0.661799">
        <ele>2328.5</ele>
        <time>1970-01-01T09:00:15.000Z</time>
      </trkpt>
      <trkpt lat="42.659014" lon="0.661789">
        <ele>2328.4</ele>
        <time>1970-01-01T09:00:16.000Z</time>
      </trkpt>
      <trkpt lat="42.659021" lon="0.661777">
        <ele>2328.3</ele>
        <time>1970-01-01T09:00:17.000Z</time>
      </trkpt>
      <trkpt lat="42.65903" lon="0.661748">
        <ele>2328</ele>
        <time>1970-01-01T09:00:18.000Z</time>
      </trkpt>
      <trkpt lat="42.659035" lon="0.66173">
        <ele>2328</ele>
        <time>1970-01-01T09:00:20.000Z</time>
      </trkpt>
      <trkpt lat="42.659042" lon="0.661704">
        <ele>2328.2</ele>
        <time>1970-01-01T09:00:21.000Z</time>
      </trkpt>
      <trkpt lat="42.659046" lon="0.661685">
        <ele>2328.3</ele>
        <time>1970-01-01T09:00:22.000Z</time>
      </trkpt>
      <trkpt lat="42.659051" lon="0.661667">
        <ele>2328.4</ele>
        <time>1970-01-01T09:00:23.000Z</time>
      </trkpt>
      <trkpt lat="42.659059" lon="0.661653">
        <ele>2328.5</ele>
        <time>1970-01-01T09:00:25.000Z</time>
      </trkpt>
      <trkpt lat="42.659069" lon="0.661645">
        <ele>2328.5</ele>
        <time>1970-01-01T09:00:26.000Z</time>
      </trkpt>
      <trkpt lat="42.65908" lon="0.661639">
        <ele>2328.6</ele>
        <time>1970-01-01T09:00:27.000Z</time>
      </trkpt>
      <trkpt lat="42.659093" lon="0.661628">
        <ele>2328.7</ele>
        <time>1970-01-01T09:00:28.000Z</time>
      </trkpt>
      <trkpt lat="42.659104" lon="0.661618">
        <ele>2328.8</ele>
        <time>1970-01-01T09:00:29.000Z</time>
      </trkpt>
      <trkpt lat="42.659124" lon="0.661612">
        <ele>2328.9</ele>
        <time>1970-01-01T09:00:30.000Z</time>
      </trkpt>
      <trkpt lat="42.659133" lon="0.661612">
        <ele>2328.9</ele>
        <time>1970-01-01T09:00:32.000Z</time>
      </trkpt>
      <trkpt lat="42.659142" lon="0.661611">
        <ele>2328.9</ele>
        <time>1970-01-01T09:00:33.000Z</time>
      </trkpt>
      <trkpt lat="42.659164" lon="0.661611">
        <ele>2328.9</ele>
        <time>1970-01-01T09:00:34.000Z</time>
      </trkpt>
      <trkpt lat="42.659171" lon="0.66161">
        <ele>2328.9</ele>
        <time>1970-01-01T09:00:35.000Z</time>
      </trkpt>
      <trkpt lat="42.659178" lon="0.661609">
        <ele>2328.9</ele>
        <time>1970-01-01T09:00:36.000Z</time>
      </trkpt>
      <trkpt lat="42.659188" lon="0.661608">
        <ele>2328.9</ele>
        <time>1970-01-01T09:00:38.000Z</time>
      </trkpt>
      <trkpt lat="42.659198" lon="0.661606">
        <ele>2328.9</ele>
        <time>1970-01-01T09:00:39.000Z</time>
      </trkpt>
      <trkpt lat="42.659204" lon="0.661602">
        <ele>2328.9</ele>
        <time>1970-01-01T09:00:40.000Z</time>
      </trkpt>
      <trkpt lat="42.65921" lon="0.661594">
        <ele>2328.8</ele>
        <time>1970-01-01T09:00:41.000Z</time>
      </trkpt>
      <trkpt lat="42.659219" lon="0.661588">
        <ele>2328.8</ele>
        <time>1970-01-01T09:00:42.000Z</time>
      </trkpt>
      <trkpt lat="42.659235" lon="0.661579">
        <ele>2328.7</ele>
        <time>1970-01-01T09:00:44.000Z</time>
      </trkpt>
      <trkpt lat="42.659245" lon="0.661572">
        <ele>2328.6</ele>
        <time>1970-01-01T09:00:45.000Z</time>
      </trkpt>
      <trkpt lat="42.65925" lon="0.66157">
        <ele>2328.6</ele>
        <time>1970-01-01T09:00:46.000Z</time>
      </trkpt>
      <trkpt lat="42.659257" lon="0.661569">
        <ele>2328.5</ele>
        <time>1970-01-01T09:00:47.000Z</time>
      </trkpt>
      <trkpt lat="42.659263" lon="0.661566">
        <ele>2328.5</ele>
        <time>1970-01-01T09:00:48.000Z</time>
      </trkpt>
      <trkpt lat="42.659266" lon="0.661565">
        <ele>2328.4</ele>
        <time>1970-01-01T09:00:49.000Z</time>
      </trkpt>
      <trkpt lat="42.659268" lon="0.661564">
        <ele>2328.4</ele>
        <time>1970-01-01T09:00:51.000Z</time>
      </trkpt>
      <trkpt lat="42.659271" lon="0.661562">
        <ele>2328.4</ele>
        <time>1970-01-01T09:00:52.000Z</time>
      </trkpt>
      <trkpt lat="42.65928" lon="0.661567">
        <ele>2328.3</ele>
        <time>1970-01-01T09:00:53.000Z</time>
      </trkpt>
      <trkpt lat="42.659289" lon="0.661569">
        <ele>2328.2</ele>
        <time>1970-01-01T09:00:54.000Z</time>
      </trkpt>
      <trkpt lat="42.659299" lon="0.661568">
        <ele>2328.1</ele>
        <time>1970-01-01T09:00:56.000Z</time>
      </trkpt>
      <trkpt lat="42.659308" lon="0.661561">
        <ele>2328</ele>
        <time>1970-01-01T09:00:57.000Z</time>
      </trkpt>
      <trkpt lat="42.659313" lon="0.661552">
        <ele>2327.9</ele>
        <time>1970-01-01T09:00:58.000Z</time>
      </trkpt>
      <trkpt lat="42.659317" lon="0.661546">
        <ele>2327.8</ele>
        <time>1970-01-01T09:00:59.000Z</time>
      </trkpt>
      <trkpt lat="42.659322" lon="0.661544">
        <ele>2327.8</ele>
        <time>1970-01-01T09:01:00.000Z</time>
      </trkpt>
      <trkpt lat="42.659324" lon="0.661546">
        <ele>2327.8</ele>
        <time>1970-01-01T09:01:01.000Z</time>
      </trkpt>
      <trkpt lat="42.659325" lon="0.661553">
        <ele>2327.7</ele>
        <time>1970-01-01T09:01:02.000Z</time>
      </trkpt>
      <trkpt lat="42.659329" lon="0.661559">
        <ele>2327.6</ele>
        <time>1970-01-01T09:01:03.000Z</time>
      </trkpt>
      <trkpt lat="42.659333" lon="0.66156">
        <ele>2327.6</ele>
        <time>1970-01-01T09:01:04.000Z</time>
      </trkpt>
      <trkpt lat="42.659341" lon="0.661562">
        <ele>2327.5</ele>
        <time>1970-01-01T09:01:06.000Z</time>
      </trkpt>
      <trkpt lat="42.659349" lon="0.661567">
        <ele>2327.4</ele>
        <time>1970-01-01T09:01:07.000Z</time>
      </trkpt>
      <trkpt lat="42.659366" lon="0.661584">
        <ele>2327</ele>
        <time>1970-01-01T09:01:08.000Z</time>
      </trkpt>
      <trkpt lat="42.659372" lon="0.661593">
        <ele>2326.8</ele>
        <time>1970-01-01T09:01:09.000Z</time>
      </trkpt>
      <trkpt lat="42.659378" lon="0.661601">
        <ele>2326.7</ele>
        <time>1970-01-01T09:01:10.000Z</time>
      </trkpt>
      <trkpt lat="42.659382" lon="0.661608">
        <ele>2326.6</ele>
        <time>1970-01-01T09:01:11.000Z</time>
      </trkpt>
      <trkpt lat="42.659388" lon="0.661621">
        <ele>2326.3</ele>
        <time>1970-01-01T09:01:12.000Z</time>
      </trkpt>
      <trkpt lat="42.659389" lon="0.661631">
        <ele>2326.2</ele>
        <time>1970-01-01T09:01:14.000Z</time>
      </trkpt>
      <trkpt lat="42.659388" lon="0.66164">
        <ele>2326</ele>
        <time>1970-01-01T09:01:15.000Z</time>
      </trkpt>
      <trkpt lat="42.659395" lon="0.661652">
        <ele>2325.8</ele>
        <time>1970-01-01T09:01:17.000Z</time>
      </trkpt>
      <trkpt lat="42.659404" lon="0.661654">
        <ele>2325.6</ele>
        <time>1970-01-01T09:01:18.000Z</time>
      </trkpt>
      <trkpt lat="42.659408" lon="0.66165">
        <ele>2325.5</ele>
        <time>1970-01-01T09:01:19.000Z</time>
      </trkpt>
      <trkpt lat="42.659423" lon="0.66165">
        <ele>2325.1</ele>
        <time>1970-01-01T09:01:21.000Z</time>
      </trkpt>
      <trkpt lat="42.659433" lon="0.661655">
        <ele>2324.9</ele>
        <time>1970-01-01T09:01:23.000Z</time>
      </trkpt>
      <trkpt lat="42.659444" lon="0.661652">
        <ele>2324.6</ele>
        <time>1970-01-01T09:01:24.000Z</time>
      </trkpt>
      <trkpt lat="42.659453" lon="0.661648">
        <ele>2324.3</ele>
        <time>1970-01-01T09:01:25.000Z</time>
      </trkpt>
      <trkpt lat="42.659462" lon="0.66164">
        <ele>2324.1</ele>
        <time>1970-01-01T09:01:27.000Z</time>
      </trkpt>
      <trkpt lat="42.659465" lon="0.661636">
        <ele>2324</ele>
        <time>1970-01-01T09:01:28.000Z</time>
      </trkpt>
      <trkpt lat="42.659468" lon="0.661633">
        <ele>2323.9</ele>
        <time>1970-01-01T09:01:29.000Z</time>
      </trkpt>
      <trkpt lat="42.659472" lon="0.661631">
        <ele>2323.8</ele>
        <time>1970-01-01T09:01:30.000Z</time>
      </trkpt>
      <trkpt lat="42.659475" lon="0.661628">
        <ele>2323.7</ele>
        <time>1970-01-01T09:01:31.000Z</time>
      </trkpt>
      <trkpt lat="42.659479" lon="0.661622">
        <ele>2323.5</ele>
        <time>1970-01-01T09:01:32.000Z</time>
      </trkpt>
      <trkpt lat="42.659485" lon="0.66162">
        <ele>2323.3</ele>
        <time>1970-01-01T09:01:33.000Z</time>
      </trkpt>
      <trkpt lat="42.659489" lon="0.661622">
        <ele>2323.2</ele>
        <time>1970-01-01T09:01:34.000Z</time>
      </trkpt>
      <trkpt lat="42.659495" lon="0.661633">
        <ele>2322.9</ele>
        <time>1970-01-01T09:01:35.000Z</time>
      </trkpt>
      <trkpt lat="42.659498" lon="0.661643">
        <ele>2322.7</ele>
        <time>1970-01-01T09:01:37.000Z</time>
      </trkpt>
      <trkpt lat="42.6595" lon="0.661656">
        <ele>2322.5</ele>
        <time>1970-01-01T09:01:38.000Z</time>
      </trkpt>
      <trkpt lat="42.659499" lon="0.661667">
        <ele>2322.2</ele>
        <time>1970-01-01T09:01:39.000Z</time>
      </trkpt>
      <trkpt lat="42.659503" lon="0.661682">
        <ele>2321.9</ele>
        <time>1970-01-01T09:01:41.000Z</time>
      </trkpt>
      <trkpt lat="42.659511" lon="0.661685">
        <ele>2321.7</ele>
        <time>1970-01-01T09:01:42.000Z</time>
      </trkpt>
      <trkpt lat="42.659516" lon="0.661686">
        <ele>2321.5</ele>
        <time>1970-01-01T09:01:43.000Z</time>
      </trkpt>
      <trkpt lat="42.659523" lon="0.661687">
        <ele>2321.3</ele>
        <time>1970-01-01T09:01:44.000Z</time>
      </trkpt>
      <trkpt lat="42.659529" lon="0.661683">
        <ele>2321.1</ele>
        <time>1970-01-01T09:01:45.000Z</time>
      </trkpt>
      <trkpt lat="42.659533" lon="0.661679">
        <ele>2321</ele>
        <time>1970-01-01T09:01:46.000Z</time>
      </trkpt>
      <trkpt lat="42.659535" lon="0.661671">
        <ele>2320.8</ele>
        <time>1970-01-01T09:01:47.000Z</time>
      </trkpt>
      <trkpt lat="42.65954" lon="0.661658">
        <ele>2320.5</ele>
        <time>1970-01-01T09:01:48.000Z</time>
      </trkpt>
      <trkpt lat="42.659547" lon="0.66165">
        <ele>2320.2</ele>
        <time>1970-01-01T09:01:50.000Z</time>
      </trkpt>
      <trkpt lat="42.659554" lon="0.661642">
        <ele>2320</ele>
        <time>1970-01-01T09:01:51.000Z</time>
      </trkpt>
      <trkpt lat="42.65956" lon="0.661635">
        <ele>2319.8</ele>
        <time>1970-01-01T09:01:52.000Z</time>
      </trkpt>
      <trkpt lat="42.65957" lon="0.661638">
        <ele>2319.5</ele>
        <time>1970-01-01T09:01:54.000Z</time>
      </trkpt>
      <trkpt lat="42.65958" lon="0.661653">
        <ele>2319</ele>
        <time>1970-01-01T09:01:55.000Z</time>
      </trkpt>
      <trkpt lat="42.659577" lon="0.661656">
        <ele>2318.9</ele>
        <time>1970-01-01T09:01:56.000Z</time>
      </trkpt>
      <trkpt lat="42.659578" lon="0.661658">
        <ele>2318.9</ele>
        <time>1970-01-01T09:01:57.000Z</time>
      </trkpt>
      <trkpt lat="42.659583" lon="0.661665">
        <ele>2318.7</ele>
        <time>1970-01-01T09:01:58.000Z</time>
      </trkpt>
      <trkpt lat="42.65959" lon="0.66167">
        <ele>2318.5</ele>
        <time>1970-01-01T09:01:59.000Z</time>
      </trkpt>
      <trkpt lat="42.6596" lon="0.661669">
        <ele>2318.2</ele>
        <time>1970-01-01T09:02:00.000Z</time>
      </trkpt>
      <trkpt lat="42.659608" lon="0.661665">
        <ele>2317.9</ele>
        <time>1970-01-01T09:02:01.000Z</time>
      </trkpt>
      <trkpt lat="42.659617" lon="0.661664">
        <ele>2317.7</ele>
        <time>1970-01-01T09:02:02.000Z</time>
      </trkpt>
      <trkpt lat="42.659632" lon="0.661664">
        <ele>2317.2</ele>
        <time>1970-01-01T09:02:04.000Z</time>
      </trkpt>
      <trkpt lat="42.659642" lon="0.661663">
        <ele>2317</ele>
        <time>1970-01-01T09:02:05.000Z</time>
      </trkpt>
      <trkpt lat="42.65965" lon="0.661658">
        <ele>2316.7</ele>
        <time>1970-01-01T09:02:06.000Z</time>
      </trkpt>
      <trkpt lat="42.659656" lon="0.66165">
        <ele>2316.5</ele>
        <time>1970-01-01T09:02:08.000Z</time>
      </trkpt>
      <trkpt lat="42.659662" lon="0.661642">
        <ele>2316.2</ele>
        <time>1970-01-01T09:02:09.000Z</time>
      </trkpt>
      <trkpt lat="42.659666" lon="0.661638">
        <ele>2316.1</ele>
        <time>1970-01-01T09:02:10.000Z</time>
      </trkpt>
      <trkpt lat="42.65967" lon="0.661635">
        <ele>2316</ele>
        <time>1970-01-01T09:02:11.000Z</time>
      </trkpt>
      <trkpt lat="42.659678" lon="0.661634">
        <ele>2315.7</ele>
        <time>1970-01-01T09:02:13.000Z</time>
      </trkpt>
      <trkpt lat="42.659682" lon="0.661635">
        <ele>2315.6</ele>
        <time>1970-01-01T09:02:14.000Z</time>
      </trkpt>
      <trkpt lat="42.659686" lon="0.661636">
        <ele>2315.5</ele>
        <time>1970-01-01T09:02:15.000Z</time>
      </trkpt>
      <trkpt lat="42.659691" lon="0.661635">
        <ele>2315.4</ele>
        <time>1970-01-01T09:02:17.000Z</time>
      </trkpt>
      <trkpt lat="42.659695" lon="0.661633">
        <ele>2315.2</ele>
        <time>1970-01-01T09:02:18.000Z</time>
      </trkpt>
      <trkpt lat="42.659703" lon="0.661635">
        <ele>2315</ele>
        <time>1970-01-01T09:02:19.000Z</time>
      </trkpt>
      <trkpt lat="42.659709" lon="0.661636">
        <ele>2314.8</ele>
        <time>1970-01-01T09:02:20.000Z</time>
      </trkpt>
      <trkpt lat="42.659718" lon="0.661642">
        <ele>2314.6</ele>
        <time>1970-01-01T09:02:22.000Z</time>
      </trkpt>
      <trkpt lat="42.659728" lon="0.661646">
        <ele>2314.4</ele>
        <time>1970-01-01T09:02:23.000Z</time>
      </trkpt>
      <trkpt lat="42.659738" lon="0.661649">
        <ele>2314.1</ele>
        <time>1970-01-01T09:02:24.000Z</time>
      </trkpt>
      <trkpt lat="42.659747" lon="0.661652">
        <ele>2313.9</ele>
        <time>1970-01-01T09:02:25.000Z</time>
      </trkpt>
      <trkpt lat="42.659754" lon="0.661664">
        <ele>2313.7</ele>
        <time>1970-01-01T09:02:26.000Z</time>
      </trkpt>
      <trkpt lat="42.659756" lon="0.661684">
        <ele>2313.3</ele>
        <time>1970-01-01T09:02:27.000Z</time>
      </trkpt>
      <trkpt lat="42.659753" lon="0.661702">
        <ele>2313</ele>
        <time>1970-01-01T09:02:28.000Z</time>
      </trkpt>
      <trkpt lat="42.65975" lon="0.661718">
        <ele>2312.8</ele>
        <time>1970-01-01T09:02:29.000Z</time>
      </trkpt>
      <trkpt lat="42.659747" lon="0.661734">
        <ele>2312.5</ele>
        <time>1970-01-01T09:02:30.000Z</time>
      </trkpt>
      <trkpt lat="42.659741" lon="0.661746">
        <ele>2312.2</ele>
        <time>1970-01-01T09:02:32.000Z</time>
      </trkpt>
      <trkpt lat="42.659733" lon="0.661756">
        <ele>2312</ele>
        <time>1970-01-01T09:02:33.000Z</time>
      </trkpt>
      <trkpt lat="42.659725" lon="0.661763">
        <ele>2311.7</ele>
        <time>1970-01-01T09:02:34.000Z</time>
      </trkpt>
      <trkpt lat="42.659719" lon="0.661773">
        <ele>2311.5</ele>
        <time>1970-01-01T09:02:36.000Z</time>
      </trkpt>
      <trkpt lat="42.659717" lon="0.661781">
        <ele>2311.4</ele>
        <time>1970-01-01T09:02:37.000Z</time>
      </trkpt>
      <trkpt lat="42.659715" lon="0.661786">
        <ele>2311.3</ele>
        <time>1970-01-01T09:02:39.000Z</time>
      </trkpt>
      <trkpt lat="42.659713" lon="0.66179">
        <ele>2311.2</ele>
        <time>1970-01-01T09:02:40.000Z</time>
      </trkpt>
      <trkpt lat="42.659712" lon="0.661797">
        <ele>2311.1</ele>
        <time>1970-01-01T09:02:41.000Z</time>
      </trkpt>
      <trkpt lat="42.659714" lon="0.661805">
        <ele>2310.9</ele>
        <time>1970-01-01T09:02:42.000Z</time>
      </trkpt>
      <trkpt lat="42.659718" lon="0.661812">
        <ele>2310.8</ele>
        <time>1970-01-01T09:02:43.000Z</time>
      </trkpt>
      <trkpt lat="42.659719" lon="0.661826">
        <ele>2310.5</ele>
        <time>1970-01-01T09:02:45.000Z</time>
      </trkpt>
      <trkpt lat="42.659714" lon="0.661836">
        <ele>2310.3</ele>
        <time>1970-01-01T09:02:46.000Z</time>
      </trkpt>
      <trkpt lat="42.659708" lon="0.661841">
        <ele>2310.1</ele>
        <time>1970-01-01T09:02:47.000Z</time>
      </trkpt>
      <trkpt lat="42.659706" lon="0.661848">
        <ele>2310</ele>
        <time>1970-01-01T09:02:48.000Z</time>
      </trkpt>
      <trkpt lat="42.659707" lon="0.661856">
        <ele>2309.9</ele>
        <time>1970-01-01T09:02:49.000Z</time>
      </trkpt>
      <trkpt lat="42.659709" lon="0.661864">
        <ele>2309.7</ele>
        <time>1970-01-01T09:02:50.000Z</time>
      </trkpt>
      <trkpt lat="42.659713" lon="0.661871">
        <ele>2309.6</ele>
        <time>1970-01-01T09:02:51.000Z</time>
      </trkpt>
      <trkpt lat="42.659721" lon="0.66188">
        <ele>2309.3</ele>
        <time>1970-01-01T09:02:52.000Z</time>
      </trkpt>
      <trkpt lat="42.659722" lon="0.661892">
        <ele>2309.1</ele>
        <time>1970-01-01T09:02:53.000Z</time>
      </trkpt>
      <trkpt lat="42.65972" lon="0.661902">
        <ele>2308.9</ele>
        <time>1970-01-01T09:02:55.000Z</time>
      </trkpt>
      <trkpt lat="42.659715" lon="0.661907">
        <ele>2307.9</ele>
        <time>1970-01-01T09:02:56.000Z</time>
      </trkpt>
      <trkpt lat="42.659712" lon="0.661906">
        <ele>2307.9</ele>
        <time>1970-01-01T09:02:57.000Z</time>
      </trkpt>
      <trkpt lat="42.659707" lon="0.661908">
        <ele>2307.8</ele>
        <time>1970-01-01T09:02:58.000Z</time>
      </trkpt>
      <trkpt lat="42.6597" lon="0.66191">
        <ele>2307.7</ele>
        <time>1970-01-01T09:03:00.000Z</time>
      </trkpt>
      <trkpt lat="42.659693" lon="0.661915">
        <ele>2307.6</ele>
        <time>1970-01-01T09:03:02.000Z</time>
      </trkpt>
      <trkpt lat="42.659684" lon="0.661924">
        <ele>2307.4</ele>
        <time>1970-01-01T09:03:03.000Z</time>
      </trkpt>
      <trkpt lat="42.659677" lon="0.661932">
        <ele>2307.2</ele>
        <time>1970-01-01T09:03:04.000Z</time>
      </trkpt>
      <trkpt lat="42.659674" lon="0.661936">
        <ele>2307.2</ele>
        <time>1970-01-01T09:03:05.000Z</time>
      </trkpt>
      <trkpt lat="42.659676" lon="0.66195">
        <ele>2307</ele>
        <time>1970-01-01T09:03:07.000Z</time>
      </trkpt>
      <trkpt lat="42.65968" lon="0.661954">
        <ele>2307</ele>
        <time>1970-01-01T09:03:08.000Z</time>
      </trkpt>
      <trkpt lat="42.659683" lon="0.661957">
        <ele>2306.9</ele>
        <time>1970-01-01T09:03:09.000Z</time>
      </trkpt>
      <trkpt lat="42.659683" lon="0.661961">
        <ele>2306.9</ele>
        <time>1970-01-01T09:03:10.000Z</time>
      </trkpt>
      <trkpt lat="42.65968" lon="0.661971">
        <ele>2306.7</ele>
        <time>1970-01-01T09:03:11.000Z</time>
      </trkpt>
      <trkpt lat="42.659672" lon="0.661981">
        <ele>2306.6</ele>
        <time>1970-01-01T09:03:13.000Z</time>
      </trkpt>
      <trkpt lat="42.65967" lon="0.66199">
        <ele>2306.5</ele>
        <time>1970-01-01T09:03:14.000Z</time>
      </trkpt>
      <trkpt lat="42.65967" lon="0.661997">
        <ele>2306.4</ele>
        <time>1970-01-01T09:03:15.000Z</time>
      </trkpt>
      <trkpt lat="42.659673" lon="0.662021">
        <ele>2306.1</ele>
        <time>1970-01-01T09:03:17.000Z</time>
      </trkpt>
      <trkpt lat="42.659676" lon="0.662035">
        <ele>2306</ele>
        <time>1970-01-01T09:03:18.000Z</time>
      </trkpt>
      <trkpt lat="42.659678" lon="0.662044">
        <ele>2305.9</ele>
        <time>1970-01-01T09:03:19.000Z</time>
      </trkpt>
      <trkpt lat="42.659683" lon="0.66205">
        <ele>2305.8</ele>
        <time>1970-01-01T09:03:20.000Z</time>
      </trkpt>
      <trkpt lat="42.659686" lon="0.662053">
        <ele>2305.7</ele>
        <time>1970-01-01T09:03:21.000Z</time>
      </trkpt>
      <trkpt lat="42.659693" lon="0.662067">
        <ele>2305.5</ele>
        <time>1970-01-01T09:03:23.000Z</time>
      </trkpt>
      <trkpt lat="42.659702" lon="0.662075">
        <ele>2305.4</ele>
        <time>1970-01-01T09:03:24.000Z</time>
      </trkpt>
      <trkpt lat="42.659699" lon="0.662083">
        <ele>2305.3</ele>
        <time>1970-01-01T09:03:26.000Z</time>
      </trkpt>
      <trkpt lat="42.659698" lon="0.662085">
        <ele>2305.2</ele>
        <time>1970-01-01T09:03:27.000Z</time>
      </trkpt>
      <trkpt lat="42.659698" lon="0.662091">
        <ele>2305.2</ele>
        <time>1970-01-01T09:03:28.000Z</time>
      </trkpt>
      <trkpt lat="42.659698" lon="0.662102">
        <ele>2305</ele>
        <time>1970-01-01T09:03:30.000Z</time>
      </trkpt>
      <trkpt lat="42.659696" lon="0.662111">
        <ele>2304.9</ele>
        <time>1970-01-01T09:03:31.000Z</time>
      </trkpt>
      <trkpt lat="42.659695" lon="0.662116">
        <ele>2304.9</ele>
        <time>1970-01-01T09:03:32.000Z</time>
      </trkpt>
      <trkpt lat="42.659693" lon="0.662118">
        <ele>2304.8</ele>
        <time>1970-01-01T09:03:33.000Z</time>
      </trkpt>
      <trkpt lat="42.659693" lon="0.662117">
        <ele>2304.8</ele>
        <time>1970-01-01T09:03:34.000Z</time>
      </trkpt>
      <trkpt lat="42.659693" lon="0.662118">
        <ele>2304.8</ele>
        <time>1970-01-01T09:03:35.000Z</time>
      </trkpt>
      <trkpt lat="42.659692" lon="0.662118">
        <ele>2304.8</ele>
        <time>1970-01-01T09:03:36.000Z</time>
      </trkpt>
      <trkpt lat="42.659691" lon="0.662119">
        <ele>2304.8</ele>
        <time>1970-01-01T09:03:37.000Z</time>
      </trkpt>
      <trkpt lat="42.659691" lon="0.66212">
        <ele>2304.7</ele>
        <time>1970-01-01T09:03:38.000Z</time>
      </trkpt>
      <trkpt lat="42.65969" lon="0.66212">
        <ele>2304.7</ele>
        <time>1970-01-01T09:03:39.000Z</time>
      </trkpt>
      <trkpt lat="42.659689" lon="0.662121">
        <ele>2304.7</ele>
        <time>1970-01-01T09:03:40.000Z</time>
      </trkpt>
      <trkpt lat="42.659689" lon="0.662122">
        <ele>2304.7</ele>
        <time>1970-01-01T09:03:41.000Z</time>
      </trkpt>
      <trkpt lat="42.659689" lon="0.662122">
        <ele>2304.7</ele>
        <time>1970-01-01T09:03:42.000Z</time>
      </trkpt>
      <trkpt lat="42.659688" lon="0.662123">
        <ele>2304.7</ele>
        <time>1970-01-01T09:03:43.000Z</time>
      </trkpt>
      <trkpt lat="42.659687" lon="0.662123">
        <ele>2304.7</ele>
        <time>1970-01-01T09:03:44.000Z</time>
      </trkpt>
      <trkpt lat="42.659687" lon="0.662123">
        <ele>2304.7</ele>
        <time>1970-01-01T09:03:45.000Z</time>
      </trkpt>
      <trkpt lat="42.659687" lon="0.662123">
        <ele>2304.7</ele>
        <time>1970-01-01T09:03:46.000Z</time>
      </trkpt>
      <trkpt lat="42.659687" lon="0.662123">
        <ele>2304.7</ele>
        <time>1970-01-01T09:03:47.000Z</time>
      </trkpt>
      <trkpt lat="42.659687" lon="0.662123">
        <ele>2304.7</ele>
        <time>1970-01-01T09:03:48.000Z</time>
      </trkpt>
      <trkpt lat="42.659686" lon="0.662123">
        <ele>2304.7</ele>
        <time>1970-01-01T09:03:49.000Z</time>
      </trkpt>
      <trkpt lat="42.659686" lon="0.66212">
        <ele>2304.6</ele>
        <time>1970-01-01T09:03:50.000Z</time>
      </trkpt>
      <trkpt lat="42.659686" lon="0.662117">
        <ele>2304.6</ele>
        <time>1970-01-01T09:03:51.000Z</time>
      </trkpt>
      <trkpt lat="42.659686" lon="0.662116">
        <ele>2304.6</ele>
        <time>1970-01-01T09:03:52.000Z</time>
      </trkpt>
      <trkpt lat="42.659687" lon="0.662114">
        <ele>2304.5</ele>
        <time>1970-01-01T09:03:53.000Z</time>
      </trkpt>
      <trkpt lat="42.659687" lon="0.662113">
        <ele>2304.5</ele>
        <time>1970-01-01T09:03:54.000Z</time>
      </trkpt>
      <trkpt lat="42.659687" lon="0.662113">
        <ele>2304.5</ele>
        <time>1970-01-01T09:03:55.000Z</time>
      </trkpt>
      <trkpt lat="42.65969" lon="0.662119">
        <ele>2304.4</ele>
        <time>1970-01-01T09:03:56.000Z</time>
      </trkpt>
      <trkpt lat="42.659695" lon="0.662124">
        <ele>2304.3</ele>
        <time>1970-01-01T09:03:57.000Z</time>
      </trkpt>
      <trkpt lat="42.6597" lon="0.662127">
        <ele>2304.2</ele>
        <time>1970-01-01T09:03:58.000Z</time>
      </trkpt>
      <trkpt lat="42.659705" lon="0.662131">
        <ele>2304.2</ele>
        <time>1970-01-01T09:03:59.000Z</time>
      </trkpt>
      <trkpt lat="42.659701" lon="0.662129">
        <ele>2304.1</ele>
        <time>1970-01-01T09:04:00.000Z</time>
      </trkpt>
      <trkpt lat="42.659708" lon="0.662127">
        <ele>2304</ele>
        <time>1970-01-01T09:04:02.000Z</time>
      </trkpt>
      <trkpt lat="42.65971" lon="0.662129">
        <ele>2303.9</ele>
        <time>1970-01-01T09:04:03.000Z</time>
      </trkpt>
      <trkpt lat="42.659712" lon="0.662131">
        <ele>2303.9</ele>
        <time>1970-01-01T09:04:04.000Z</time>
      </trkpt>
      <trkpt lat="42.659712" lon="0.662138">
        <ele>2303.8</ele>
        <time>1970-01-01T09:04:06.000Z</time>
      </trkpt>
      <trkpt lat="42.659712" lon="0.662141">
        <ele>2303.8</ele>
        <time>1970-01-01T09:04:07.000Z</time>
      </trkpt>
      <trkpt lat="42.659714" lon="0.662145">
        <ele>2303.7</ele>
        <time>1970-01-01T09:04:08.000Z</time>
      </trkpt>
      <trkpt lat="42.65972" lon="0.662151">
        <ele>2303.6</ele>
        <time>1970-01-01T09:04:09.000Z</time>
      </trkpt>
      <trkpt lat="42.659725" lon="0.662151">
        <ele>2303.5</ele>
        <time>1970-01-01T09:04:10.000Z</time>
      </trkpt>
      <trkpt lat="42.659728" lon="0.662148">
        <ele>2303.4</ele>
        <time>1970-01-01T09:04:11.000Z</time>
      </trkpt>
      <trkpt lat="42.659731" lon="0.662144">
        <ele>2303.4</ele>
        <time>1970-01-01T09:04:12.000Z</time>
      </trkpt>
      <trkpt lat="42.659735" lon="0.662147">
        <ele>2303.3</ele>
        <time>1970-01-01T09:04:14.000Z</time>
      </trkpt>
      <trkpt lat="42.659736" lon="0.662152">
        <ele>2303.2</ele>
        <time>1970-01-01T09:04:15.000Z</time>
      </trkpt>
      <trkpt lat="42.659736" lon="0.662152">
        <ele>2303.2</ele>
        <time>1970-01-01T09:04:16.000Z</time>
      </trkpt>
      <trkpt lat="42.659735" lon="0.662153">
        <ele>2303.2</ele>
        <time>1970-01-01T09:04:17.000Z</time>
      </trkpt>
      <trkpt lat="42.659735" lon="0.662155">
        <ele>2303.2</ele>
        <time>1970-01-01T09:04:18.000Z</time>
      </trkpt>
      <trkpt lat="42.659735" lon="0.662156">
        <ele>2303.2</ele>
        <time>1970-01-01T09:04:19.000Z</time>
      </trkpt>
      <trkpt lat="42.659735" lon="0.662156">
        <ele>2303.2</ele>
        <time>1970-01-01T09:04:20.000Z</time>
      </trkpt>
      <trkpt lat="42.659735" lon="0.662156">
        <ele>2303.2</ele>
        <time>1970-01-01T09:04:21.000Z</time>
      </trkpt>
      <trkpt lat="42.659734" lon="0.662157">
        <ele>2303.1</ele>
        <time>1970-01-01T09:04:22.000Z</time>
      </trkpt>
      <trkpt lat="42.659734" lon="0.662158">
        <ele>2303.1</ele>
        <time>1970-01-01T09:04:23.000Z</time>
      </trkpt>
      <trkpt lat="42.659731" lon="0.662159">
        <ele>2303.1</ele>
        <time>1970-01-01T09:04:24.000Z</time>
      </trkpt>
      <trkpt lat="42.659727" lon="0.662162">
        <ele>2303</ele>
        <time>1970-01-01T09:04:25.000Z</time>
      </trkpt>
      <trkpt lat="42.659728" lon="0.662162">
        <ele>2303</ele>
        <time>1970-01-01T09:04:26.000Z</time>
      </trkpt>
      <trkpt lat="42.659731" lon="0.662167">
        <ele>2302.9</ele>
        <time>1970-01-01T09:04:27.000Z</time>
      </trkpt>
      <trkpt lat="42.659735" lon="0.662169">
        <ele>2302.8</ele>
        <time>1970-01-01T09:04:28.000Z</time>
      </trkpt>
      <trkpt lat="42.659739" lon="0.66217">
        <ele>2302.8</ele>
        <time>1970-01-01T09:04:29.000Z</time>
      </trkpt>
      <trkpt lat="42.65974" lon="0.662172">
        <ele>2302.7</ele>
        <time>1970-01-01T09:04:30.000Z</time>
      </trkpt>
      <trkpt lat="42.659739" lon="0.662172">
        <ele>2302.7</ele>
        <time>1970-01-01T09:04:31.000Z</time>
      </trkpt>
      <trkpt lat="42.659738" lon="0.662173">
        <ele>2302.7</ele>
        <time>1970-01-01T09:04:32.000Z</time>
      </trkpt>
      <trkpt lat="42.659738" lon="0.662173">
        <ele>2302.7</ele>
        <time>1970-01-01T09:04:33.000Z</time>
      </trkpt>
      <trkpt lat="42.659738" lon="0.662172">
        <ele>2302.7</ele>
        <time>1970-01-01T09:04:34.000Z</time>
      </trkpt>
      <trkpt lat="42.659738" lon="0.662172">
        <ele>2302.7</ele>
        <time>1970-01-01T09:04:35.000Z</time>
      </trkpt>
      <trkpt lat="42.659737" lon="0.662173">
        <ele>2302.7</ele>
        <time>1970-01-01T09:04:36.000Z</time>
      </trkpt>
      <trkpt lat="42.659737" lon="0.662174">
        <ele>2302.7</ele>
        <time>1970-01-01T09:04:37.000Z</time>
      </trkpt>
      <trkpt lat="42.659737" lon="0.662173">
        <ele>2302.6</ele>
        <time>1970-01-01T09:04:38.000Z</time>
      </trkpt>
      <trkpt lat="42.659738" lon="0.662172">
        <ele>2302.6</ele>
        <time>1970-01-01T09:04:39.000Z</time>
      </trkpt>
      <trkpt lat="42.659737" lon="0.662172">
        <ele>2302.6</ele>
        <time>1970-01-01T09:04:40.000Z</time>
      </trkpt>
      <trkpt lat="42.659735" lon="0.662171">
        <ele>2302.6</ele>
        <time>1970-01-01T09:04:41.000Z</time>
      </trkpt>
      <trkpt lat="42.659734" lon="0.662169">
        <ele>2302.5</ele>
        <time>1970-01-01T09:04:42.000Z</time>
      </trkpt>
      <trkpt lat="42.659733" lon="0.662164">
        <ele>2302.5</ele>
        <time>1970-01-01T09:04:43.000Z</time>
      </trkpt>
      <trkpt lat="42.659731" lon="0.66216">
        <ele>2302.4</ele>
        <time>1970-01-01T09:04:44.000Z</time>
      </trkpt>
      <trkpt lat="42.659732" lon="0.662149">
        <ele>2302.3</ele>
        <time>1970-01-01T09:04:45.000Z</time>
      </trkpt>
      <trkpt lat="42.65974" lon="0.662143">
        <ele>2302.1</ele>
        <time>1970-01-01T09:04:47.000Z</time>
      </trkpt>
      <trkpt lat="42.659743" lon="0.662135">
        <ele>2302</ele>
        <time>1970-01-01T09:04:49.000Z</time>
      </trkpt>
      <trkpt lat="42.659741" lon="0.662131">
        <ele>2302</ele>
        <time>1970-01-01T09:04:50.000Z</time>
      </trkpt>
      <trkpt lat="42.65974" lon="0.662128">
        <ele>2301.9</ele>
        <time>1970-01-01T09:04:51.000Z</time>
      </trkpt>
      <trkpt lat="42.659736" lon="0.662127">
        <ele>2301.9</ele>
        <time>1970-01-01T09:04:52.000Z</time>
      </trkpt>
      <trkpt lat="42.659734" lon="0.662127">
        <ele>2301.8</ele>
        <time>1970-01-01T09:04:53.000Z</time>
      </trkpt>
      <trkpt lat="42.659733" lon="0.662129">
        <ele>2301.8</ele>
        <time>1970-01-01T09:04:54.000Z</time>
      </trkpt>
      <trkpt lat="42.65973" lon="0.662135">
        <ele>2301.7</ele>
        <time>1970-01-01T09:04:55.000Z</time>
      </trkpt>
      <trkpt lat="42.65973" lon="0.662141">
        <ele>2301.6</ele>
        <time>1970-01-01T09:04:56.000Z</time>
      </trkpt>
      <trkpt lat="42.65973" lon="0.662147">
        <ele>2301.6</ele>
        <time>1970-01-01T09:04:57.000Z</time>
      </trkpt>
      <trkpt lat="42.659729" lon="0.662148">
        <ele>2301.5</ele>
        <time>1970-01-01T09:04:58.000Z</time>
      </trkpt>
      <trkpt lat="42.659729" lon="0.662151">
        <ele>2301.5</ele>
        <time>1970-01-01T09:04:59.000Z</time>
      </trkpt>
      <trkpt lat="42.659728" lon="0.662155">
        <ele>2301.5</ele>
        <time>1970-01-01T09:05:00.000Z</time>
      </trkpt>
      <trkpt lat="42.65973" lon="0.662156">
        <ele>2301.4</ele>
        <time>1970-01-01T09:05:01.000Z</time>
      </trkpt>
      <trkpt lat="42.659731" lon="0.662157">
        <ele>2301.4</ele>
        <time>1970-01-01T09:05:02.000Z</time>
      </trkpt>
      <trkpt lat="42.659732" lon="0.662158">
        <ele>2301.4</ele>
        <time>1970-01-01T09:05:03.000Z</time>
      </trkpt>
      <trkpt lat="42.659733" lon="0.662159">
        <ele>2301.4</ele>
        <time>1970-01-01T09:05:04.000Z</time>
      </trkpt>
      <trkpt lat="42.659734" lon="0.662159">
        <ele>2301.4</ele>
        <time>1970-01-01T09:05:05.000Z</time>
      </trkpt>
      <trkpt lat="42.659734" lon="0.66216">
        <ele>2301.3</ele>
        <time>1970-01-01T09:05:06.000Z</time>
      </trkpt>
      <trkpt lat="42.659734" lon="0.66216">
        <ele>2301.3</ele>
        <time>1970-01-01T09:05:07.000Z</time>
      </trkpt>
      <trkpt lat="42.659734" lon="0.66216">
        <ele>2301.3</ele>
        <time>1970-01-01T09:05:08.000Z</time>
      </trkpt>
      <trkpt lat="42.659735" lon="0.662161">
        <ele>2301.3</ele>
        <time>1970-01-01T09:05:09.000Z</time>
      </trkpt>
      <trkpt lat="42.659738" lon="0.662165">
        <ele>2301.3</ele>
        <time>1970-01-01T09:05:10.000Z</time>
      </trkpt>
      <trkpt lat="42.65974" lon="0.662166">
        <ele>2301.2</ele>
        <time>1970-01-01T09:05:11.000Z</time>
      </trkpt>
      <trkpt lat="42.65974" lon="0.662166">
        <ele>2301.2</ele>
        <time>1970-01-01T09:05:12.000Z</time>
      </trkpt>
      <trkpt lat="42.65974" lon="0.662166">
        <ele>2301.2</ele>
        <time>1970-01-01T09:05:13.000Z</time>
      </trkpt>
      <trkpt lat="42.65974" lon="0.662167">
        <ele>2301.2</ele>
        <time>1970-01-01T09:05:14.000Z</time>
      </trkpt>
      <trkpt lat="42.659737" lon="0.662167">
        <ele>2301.2</ele>
        <time>1970-01-01T09:05:15.000Z</time>
      </trkpt>
      <trkpt lat="42.659733" lon="0.662167">
        <ele>2301.1</ele>
        <time>1970-01-01T09:05:16.000Z</time>
      </trkpt>
      <trkpt lat="42.65973" lon="0.662168">
        <ele>2301.1</ele>
        <time>1970-01-01T09:05:17.000Z</time>
      </trkpt>
      <trkpt lat="42.659729" lon="0.662168">
        <ele>2301</ele>
        <time>1970-01-01T09:05:18.000Z</time>
      </trkpt>
      <trkpt lat="42.659732" lon="0.662169">
        <ele>2301</ele>
        <time>1970-01-01T09:05:19.000Z</time>
      </trkpt>
      <trkpt lat="42.659732" lon="0.662171">
        <ele>2301</ele>
        <time>1970-01-01T09:05:20.000Z</time>
      </trkpt>
      <trkpt lat="42.659732" lon="0.662174">
        <ele>2300.9</ele>
        <time>1970-01-01T09:05:21.000Z</time>
      </trkpt>
      <trkpt lat="42.659734" lon="0.662185">
        <ele>2300.8</ele>
        <time>1970-01-01T09:05:22.000Z</time>
      </trkpt>
      <trkpt lat="42.659733" lon="0.662189">
        <ele>2300.8</ele>
        <time>1970-01-01T09:05:23.000Z</time>
      </trkpt>
      <trkpt lat="42.659734" lon="0.662192">
        <ele>2300.7</ele>
        <time>1970-01-01T09:05:24.000Z</time>
      </trkpt>
      <trkpt lat="42.659741" lon="0.662202">
        <ele>2300.6</ele>
        <time>1970-01-01T09:05:26.000Z</time>
      </trkpt>
      <trkpt lat="42.659751" lon="0.662208">
        <ele>2300.4</ele>
        <time>1970-01-01T09:05:27.000Z</time>
      </trkpt>
      <trkpt lat="42.659761" lon="0.662212">
        <ele>2300.2</ele>
        <time>1970-01-01T09:05:28.000Z</time>
      </trkpt>
      <trkpt lat="42.659771" lon="0.662211">
        <ele>2300.1</ele>
        <time>1970-01-01T09:05:30.000Z</time>
      </trkpt>
      <trkpt lat="42.659775" lon="0.662212">
        <ele>2300</ele>
        <time>1970-01-01T09:05:31.000Z</time>
      </trkpt>
      <trkpt lat="42.659783" lon="0.662214">
        <ele>2299.9</ele>
        <time>1970-01-01T09:05:32.000Z</time>
      </trkpt>
      <trkpt lat="42.659785" lon="0.66221">
        <ele>2299.8</ele>
        <time>1970-01-01T09:05:33.000Z</time>
      </trkpt>
      <trkpt lat="42.659785" lon="0.662211">
        <ele>2299.8</ele>
        <time>1970-01-01T09:05:34.000Z</time>
      </trkpt>
      <trkpt lat="42.659787" lon="0.662213">
        <ele>2299.8</ele>
        <time>1970-01-01T09:05:35.000Z</time>
      </trkpt>
      <trkpt lat="42.659804" lon="0.662209">
        <ele>2299.6</ele>
        <time>1970-01-01T09:05:36.000Z</time>
      </trkpt>
      <trkpt lat="42.659817" lon="0.662201">
        <ele>2299.4</ele>
        <time>1970-01-01T09:05:37.000Z</time>
      </trkpt>
      <trkpt lat="42.659823" lon="0.6622">
        <ele>2299.3</ele>
        <time>1970-01-01T09:05:39.000Z</time>
      </trkpt>
      <trkpt lat="42.659826" lon="0.662204">
        <ele>2299.2</ele>
        <time>1970-01-01T09:05:40.000Z</time>
      </trkpt>
      <trkpt lat="42.659832" lon="0.662205">
        <ele>2299.2</ele>
        <time>1970-01-01T09:05:41.000Z</time>
      </trkpt>
      <trkpt lat="42.659836" lon="0.662197">
        <ele>2299.1</ele>
        <time>1970-01-01T09:05:42.000Z</time>
      </trkpt>
      <trkpt lat="42.659841" lon="0.662189">
        <ele>2299</ele>
        <time>1970-01-01T09:05:43.000Z</time>
      </trkpt>
      <trkpt lat="42.659845" lon="0.662186">
        <ele>2298.9</ele>
        <time>1970-01-01T09:05:44.000Z</time>
      </trkpt>
      <trkpt lat="42.659852" lon="0.662178">
        <ele>2298.8</ele>
        <time>1970-01-01T09:05:45.000Z</time>
      </trkpt>
      <trkpt lat="42.659857" lon="0.662168">
        <ele>2298.7</ele>
        <time>1970-01-01T09:05:46.000Z</time>
      </trkpt>
      <trkpt lat="42.659863" lon="0.662162">
        <ele>2298.6</ele>
        <time>1970-01-01T09:05:47.000Z</time>
      </trkpt>
      <trkpt lat="42.659867" lon="0.66216">
        <ele>2298.5</ele>
        <time>1970-01-01T09:05:48.000Z</time>
      </trkpt>
      <trkpt lat="42.659876" lon="0.662158">
        <ele>2298.4</ele>
        <time>1970-01-01T09:05:49.000Z</time>
      </trkpt>
      <trkpt lat="42.659885" lon="0.662161">
        <ele>2298.3</ele>
        <time>1970-01-01T09:05:51.000Z</time>
      </trkpt>
      <trkpt lat="42.659887" lon="0.662162">
        <ele>2298.2</ele>
        <time>1970-01-01T09:05:52.000Z</time>
      </trkpt>
      <trkpt lat="42.659893" lon="0.662167">
        <ele>2298.1</ele>
        <time>1970-01-01T09:05:53.000Z</time>
      </trkpt>
      <trkpt lat="42.659901" lon="0.662175">
        <ele>2298</ele>
        <time>1970-01-01T09:05:54.000Z</time>
      </trkpt>
      <trkpt lat="42.659911" lon="0.662177">
        <ele>2297.9</ele>
        <time>1970-01-01T09:05:56.000Z</time>
      </trkpt>
      <trkpt lat="42.659915" lon="0.662176">
        <ele>2297.8</ele>
        <time>1970-01-01T09:05:57.000Z</time>
      </trkpt>
      <trkpt lat="42.659922" lon="0.66217">
        <ele>2297.7</ele>
        <time>1970-01-01T09:05:58.000Z</time>
      </trkpt>
      <trkpt lat="42.65993" lon="0.662163">
        <ele>2297.6</ele>
        <time>1970-01-01T09:05:59.000Z</time>
      </trkpt>
      <trkpt lat="42.65994" lon="0.66216">
        <ele>2297.5</ele>
        <time>1970-01-01T09:06:00.000Z</time>
      </trkpt>
      <trkpt lat="42.659946" lon="0.662162">
        <ele>2297.4</ele>
        <time>1970-01-01T09:06:01.000Z</time>
      </trkpt>
      <trkpt lat="42.659955" lon="0.662162">
        <ele>2297.3</ele>
        <time>1970-01-01T09:06:02.000Z</time>
      </trkpt>
      <trkpt lat="42.659963" lon="0.662164">
        <ele>2297.2</ele>
        <time>1970-01-01T09:06:03.000Z</time>
      </trkpt>
      <trkpt lat="42.659976" lon="0.662172">
        <ele>2297</ele>
        <time>1970-01-01T09:06:04.000Z</time>
      </trkpt>
      <trkpt lat="42.659982" lon="0.662176">
        <ele>2296.9</ele>
        <time>1970-01-01T09:06:05.000Z</time>
      </trkpt>
      <trkpt lat="42.659988" lon="0.662181">
        <ele>2296.8</ele>
        <time>1970-01-01T09:06:06.000Z</time>
      </trkpt>
      <trkpt lat="42.659994" lon="0.662185">
        <ele>2296.8</ele>
        <time>1970-01-01T09:06:08.000Z</time>
      </trkpt>
      <trkpt lat="42.659999" lon="0.66219">
        <ele>2296.7</ele>
        <time>1970-01-01T09:06:09.000Z</time>
      </trkpt>
      <trkpt lat="42.660005" lon="0.662194">
        <ele>2296.6</ele>
        <time>1970-01-01T09:06:10.000Z</time>
      </trkpt>
      <trkpt lat="42.660011" lon="0.662199">
        <ele>2296.5</ele>
        <time>1970-01-01T09:06:11.000Z</time>
      </trkpt>
      <trkpt lat="42.660017" lon="0.662203">
        <ele>2296.4</ele>
        <time>1970-01-01T09:06:12.000Z</time>
      </trkpt>
      <trkpt lat="42.660023" lon="0.662207">
        <ele>2296.4</ele>
        <time>1970-01-01T09:06:13.000Z</time>
      </trkpt>
      <trkpt lat="42.660036" lon="0.662211">
        <ele>2296.2</ele>
        <time>1970-01-01T09:06:14.000Z</time>
      </trkpt>
      <trkpt lat="42.660048" lon="0.662211">
        <ele>2296</ele>
        <time>1970-01-01T09:06:15.000Z</time>
      </trkpt>
      <trkpt lat="42.660061" lon="0.662208">
        <ele>2295.9</ele>
        <time>1970-01-01T09:06:17.000Z</time>
      </trkpt>
      <trkpt lat="42.660067" lon="0.6622">
        <ele>2295.8</ele>
        <time>1970-01-01T09:06:18.000Z</time>
      </trkpt>
      <trkpt lat="42.660079" lon="0.662186">
        <ele>2295.6</ele>
        <time>1970-01-01T09:06:19.000Z</time>
      </trkpt>
      <trkpt lat="42.660093" lon="0.662174">
        <ele>2295.4</ele>
        <time>1970-01-01T09:06:21.000Z</time>
      </trkpt>
      <trkpt lat="42.660104" lon="0.662168">
        <ele>2295.2</ele>
        <time>1970-01-01T09:06:22.000Z</time>
      </trkpt>
      <trkpt lat="42.660115" lon="0.662162">
        <ele>2295.1</ele>
        <time>1970-01-01T09:06:23.000Z</time>
      </trkpt>
      <trkpt lat="42.660125" lon="0.662154">
        <ele>2295</ele>
        <time>1970-01-01T09:06:24.000Z</time>
      </trkpt>
      <trkpt lat="42.660142" lon="0.662138">
        <ele>2294.7</ele>
        <time>1970-01-01T09:06:25.000Z</time>
      </trkpt>
      <trkpt lat="42.660149" lon="0.662134">
        <ele>2294.7</ele>
        <time>1970-01-01T09:06:26.000Z</time>
      </trkpt>
      <trkpt lat="42.660157" lon="0.66213">
        <ele>2294.6</ele>
        <time>1970-01-01T09:06:27.000Z</time>
      </trkpt>
      <trkpt lat="42.660169" lon="0.662127">
        <ele>2294.5</ele>
        <time>1970-01-01T09:06:28.000Z</time>
      </trkpt>
      <trkpt lat="42.660182" lon="0.662125">
        <ele>2294.4</ele>
        <time>1970-01-01T09:06:29.000Z</time>
      </trkpt>
      <trkpt lat="42.660192" lon="0.662124">
        <ele>2294.3</ele>
        <time>1970-01-01T09:06:31.000Z</time>
      </trkpt>
      <trkpt lat="42.660201" lon="0.662128">
        <ele>2294.2</ele>
        <time>1970-01-01T09:06:32.000Z</time>
      </trkpt>
      <trkpt lat="42.660216" lon="0.662128">
        <ele>2294.1</ele>
        <time>1970-01-01T09:06:33.000Z</time>
      </trkpt>
      <trkpt lat="42.660233" lon="0.662128">
        <ele>2294</ele>
        <time>1970-01-01T09:06:35.000Z</time>
      </trkpt>
      <trkpt lat="42.660244" lon="0.662126">
        <ele>2293.9</ele>
        <time>1970-01-01T09:06:36.000Z</time>
      </trkpt>
      <trkpt lat="42.660252" lon="0.662119">
        <ele>2293.9</ele>
        <time>1970-01-01T09:06:37.000Z</time>
      </trkpt>
      <trkpt lat="42.660262" lon="0.662109">
        <ele>2293.8</ele>
        <time>1970-01-01T09:06:38.000Z</time>
      </trkpt>
      <trkpt lat="42.660274" lon="0.6621">
        <ele>2293.8</ele>
        <time>1970-01-01T09:06:39.000Z</time>
      </trkpt>
      <trkpt lat="42.660287" lon="0.662086">
        <ele>2293.7</ele>
        <time>1970-01-01T09:06:41.000Z</time>
      </trkpt>
      <trkpt lat="42.660299" lon="0.662082">
        <ele>2293.6</ele>
        <time>1970-01-01T09:06:42.000Z</time>
      </trkpt>
      <trkpt lat="42.66031" lon="0.662089">
        <ele>2293.6</ele>
        <time>1970-01-01T09:06:43.000Z</time>
      </trkpt>
      <trkpt lat="42.660322" lon="0.662091">
        <ele>2293.6</ele>
        <time>1970-01-01T09:06:44.000Z</time>
      </trkpt>
      <trkpt lat="42.660333" lon="0.662081">
        <ele>2293.6</ele>
        <time>1970-01-01T09:06:45.000Z</time>
      </trkpt>
      <trkpt lat="42.66034" lon="0.662074">
        <ele>2293.5</ele>
        <time>1970-01-01T09:06:46.000Z</time>
      </trkpt>
      <trkpt lat="42.660346" lon="0.66207">
        <ele>2293.5</ele>
        <time>1970-01-01T09:06:47.000Z</time>
      </trkpt>
      <trkpt lat="42.660356" lon="0.662073">
        <ele>2293.5</ele>
        <time>1970-01-01T09:06:49.000Z</time>
      </trkpt>
      <trkpt lat="42.660366" lon="0.662074">
        <ele>2293.5</ele>
        <time>1970-01-01T09:06:50.000Z</time>
      </trkpt>
      <trkpt lat="42.660379" lon="0.662065">
        <ele>2293.5</ele>
        <time>1970-01-01T09:06:51.000Z</time>
      </trkpt>
      <trkpt lat="42.660397" lon="0.662029">
        <ele>2293.4</ele>
        <time>1970-01-01T09:06:53.000Z</time>
      </trkpt>
      <trkpt lat="42.660401" lon="0.662022">
        <ele>2293.4</ele>
        <time>1970-01-01T09:06:54.000Z</time>
      </trkpt>
      <trkpt lat="42.660416" lon="0.662006">
        <ele>2293.3</ele>
        <time>1970-01-01T09:06:55.000Z</time>
      </trkpt>
      <trkpt lat="42.660424" lon="0.661999">
        <ele>2293.3</ele>
        <time>1970-01-01T09:06:56.000Z</time>
      </trkpt>
      <trkpt lat="42.660432" lon="0.661992">
        <ele>2293.2</ele>
        <time>1970-01-01T09:06:57.000Z</time>
      </trkpt>
      <trkpt lat="42.660453" lon="0.661985">
        <ele>2293.1</ele>
        <time>1970-01-01T09:06:58.000Z</time>
      </trkpt>
      <trkpt lat="42.660461" lon="0.661984">
        <ele>2293.1</ele>
        <time>1970-01-01T09:06:59.000Z</time>
      </trkpt>
      <trkpt lat="42.660468" lon="0.661983">
        <ele>2293</ele>
        <time>1970-01-01T09:07:00.000Z</time>
      </trkpt>
      <trkpt lat="42.660482" lon="0.661984">
        <ele>2292.9</ele>
        <time>1970-01-01T09:07:01.000Z</time>
      </trkpt>
      <trkpt lat="42.660495" lon="0.661981">
        <ele>2292.8</ele>
        <time>1970-01-01T09:07:02.000Z</time>
      </trkpt>
      <trkpt lat="42.660507" lon="0.661977">
        <ele>2292.7</ele>
        <time>1970-01-01T09:07:04.000Z</time>
      </trkpt>
      <trkpt lat="42.660515" lon="0.66197">
        <ele>2292.6</ele>
        <time>1970-01-01T09:07:05.000Z</time>
      </trkpt>
      <trkpt lat="42.660521" lon="0.661959">
        <ele>2292.5</ele>
        <time>1970-01-01T09:07:06.000Z</time>
      </trkpt>
      <trkpt lat="42.660526" lon="0.66195">
        <ele>2292.4</ele>
        <time>1970-01-01T09:07:07.000Z</time>
      </trkpt>
      <trkpt lat="42.660534" lon="0.661946">
        <ele>2292.3</ele>
        <time>1970-01-01T09:07:08.000Z</time>
      </trkpt>
      <trkpt lat="42.660539" lon="0.661945">
        <ele>2292.3</ele>
        <time>1970-01-01T09:07:09.000Z</time>
      </trkpt>
      <trkpt lat="42.660547" lon="0.661942">
        <ele>2292.2</ele>
        <time>1970-01-01T09:07:10.000Z</time>
      </trkpt>
      <trkpt lat="42.660555" lon="0.661934">
        <ele>2292.1</ele>
        <time>1970-01-01T09:07:11.000Z</time>
      </trkpt>
      <trkpt lat="42.660561" lon="0.661923">
        <ele>2292</ele>
        <time>1970-01-01T09:07:12.000Z</time>
      </trkpt>
      <trkpt lat="42.660566" lon="0.661911">
        <ele>2291.9</ele>
        <time>1970-01-01T09:07:13.000Z</time>
      </trkpt>
      <trkpt lat="42.660571" lon="0.6619">
        <ele>2291.8</ele>
        <time>1970-01-01T09:07:14.000Z</time>
      </trkpt>
      <trkpt lat="42.660575" lon="0.661884">
        <ele>2291.6</ele>
        <time>1970-01-01T09:07:16.000Z</time>
      </trkpt>
      <trkpt lat="42.660586" lon="0.661871">
        <ele>2291.4</ele>
        <time>1970-01-01T09:07:17.000Z</time>
      </trkpt>
      <trkpt lat="42.660597" lon="0.661866">
        <ele>2291.3</ele>
        <time>1970-01-01T09:07:18.000Z</time>
      </trkpt>
      <trkpt lat="42.660608" lon="0.661864">
        <ele>2291.1</ele>
        <time>1970-01-01T09:07:19.000Z</time>
      </trkpt>
      <trkpt lat="42.66062" lon="0.66186">
        <ele>2291</ele>
        <time>1970-01-01T09:07:20.000Z</time>
      </trkpt>
      <trkpt lat="42.660631" lon="0.661856">
        <ele>2290.8</ele>
        <time>1970-01-01T09:07:21.000Z</time>
      </trkpt>
      <trkpt lat="42.660642" lon="0.661851">
        <ele>2290.7</ele>
        <time>1970-01-01T09:07:23.000Z</time>
      </trkpt>
      <trkpt lat="42.660652" lon="0.661844">
        <ele>2290.5</ele>
        <time>1970-01-01T09:07:24.000Z</time>
      </trkpt>
      <trkpt lat="42.66067" lon="0.661833">
        <ele>2290.3</ele>
        <time>1970-01-01T09:07:25.000Z</time>
      </trkpt>
      <trkpt lat="42.660677" lon="0.661827">
        <ele>2290.2</ele>
        <time>1970-01-01T09:07:26.000Z</time>
      </trkpt>
      <trkpt lat="42.660685" lon="0.661821">
        <ele>2290.1</ele>
        <time>1970-01-01T09:07:27.000Z</time>
      </trkpt>
      <trkpt lat="42.66069" lon="0.661813">
        <ele>2290</ele>
        <time>1970-01-01T09:07:28.000Z</time>
      </trkpt>
      <trkpt lat="42.660701" lon="0.661806">
        <ele>2289.8</ele>
        <time>1970-01-01T09:07:29.000Z</time>
      </trkpt>
      <trkpt lat="42.660713" lon="0.66181">
        <ele>2289.6</ele>
        <time>1970-01-01T09:07:30.000Z</time>
      </trkpt>
      <trkpt lat="42.660724" lon="0.661816">
        <ele>2289.5</ele>
        <time>1970-01-01T09:07:31.000Z</time>
      </trkpt>
      <trkpt lat="42.660733" lon="0.661825">
        <ele>2289.4</ele>
        <time>1970-01-01T09:07:32.000Z</time>
      </trkpt>
      <trkpt lat="42.660745" lon="0.661831">
        <ele>2289.2</ele>
        <time>1970-01-01T09:07:34.000Z</time>
      </trkpt>
      <trkpt lat="42.660756" lon="0.661834">
        <ele>2289.1</ele>
        <time>1970-01-01T09:07:35.000Z</time>
      </trkpt>
      <trkpt lat="42.660769" lon="0.661835">
        <ele>2289</ele>
        <time>1970-01-01T09:07:36.000Z</time>
      </trkpt>
      <trkpt lat="42.66078" lon="0.661832">
        <ele>2288.8</ele>
        <time>1970-01-01T09:07:37.000Z</time>
      </trkpt>
      <trkpt lat="42.6608" lon="0.661819">
        <ele>2288.6</ele>
        <time>1970-01-01T09:07:38.000Z</time>
      </trkpt>
      <trkpt lat="42.660808" lon="0.661814">
        <ele>2288.5</ele>
        <time>1970-01-01T09:07:39.000Z</time>
      </trkpt>
      <trkpt lat="42.660815" lon="0.661808">
        <ele>2288.4</ele>
        <time>1970-01-01T09:07:40.000Z</time>
      </trkpt>
      <trkpt lat="42.660825" lon="0.661798">
        <ele>2288.2</ele>
        <time>1970-01-01T09:07:41.000Z</time>
      </trkpt>
      <trkpt lat="42.660832" lon="0.661789">
        <ele>2288.1</ele>
        <time>1970-01-01T09:07:42.000Z</time>
      </trkpt>
      <trkpt lat="42.660841" lon="0.661778">
        <ele>2287.9</ele>
        <time>1970-01-01T09:07:43.000Z</time>
      </trkpt>
      <trkpt lat="42.660852" lon="0.661773">
        <ele>2287.8</ele>
        <time>1970-01-01T09:07:45.000Z</time>
      </trkpt>
      <trkpt lat="42.660864" lon="0.66177">
        <ele>2287.6</ele>
        <time>1970-01-01T09:07:46.000Z</time>
      </trkpt>
      <trkpt lat="42.660875" lon="0.661768">
        <ele>2287.4</ele>
        <time>1970-01-01T09:07:47.000Z</time>
      </trkpt>
      <trkpt lat="42.660885" lon="0.661765">
        <ele>2287.3</ele>
        <time>1970-01-01T09:07:48.000Z</time>
      </trkpt>
      <trkpt lat="42.660894" lon="0.661759">
        <ele>2287.2</ele>
        <time>1970-01-01T09:07:49.000Z</time>
      </trkpt>
      <trkpt lat="42.660901" lon="0.661753">
        <ele>2287</ele>
        <time>1970-01-01T09:07:50.000Z</time>
      </trkpt>
      <trkpt lat="42.660911" lon="0.661751">
        <ele>2286.8</ele>
        <time>1970-01-01T09:07:51.000Z</time>
      </trkpt>
      <trkpt lat="42.660922" lon="0.661749">
        <ele>2286.7</ele>
        <time>1970-01-01T09:07:52.000Z</time>
      </trkpt>
      <trkpt lat="42.660937" lon="0.66174">
        <ele>2286.4</ele>
        <time>1970-01-01T09:07:54.000Z</time>
      </trkpt>
      <trkpt lat="42.660946" lon="0.661739">
        <ele>2286.2</ele>
        <time>1970-01-01T09:07:55.000Z</time>
      </trkpt>
      <trkpt lat="42.660952" lon="0.661739">
        <ele>2286.1</ele>
        <time>1970-01-01T09:07:56.000Z</time>
      </trkpt>
      <trkpt lat="42.660966" lon="0.661754">
        <ele>2285.7</ele>
        <time>1970-01-01T09:07:58.000Z</time>
      </trkpt>
      <trkpt lat="42.660974" lon="0.661764">
        <ele>2285.5</ele>
        <time>1970-01-01T09:07:59.000Z</time>
      </trkpt>
      <trkpt lat="42.660982" lon="0.661758">
        <ele>2285.3</ele>
        <time>1970-01-01T09:08:00.000Z</time>
      </trkpt>
      <trkpt lat="42.660993" lon="0.661749">
        <ele>2285.1</ele>
        <time>1970-01-01T09:08:02.000Z</time>
      </trkpt>
      <trkpt lat="42.661004" lon="0.661752">
        <ele>2284.8</ele>
        <time>1970-01-01T09:08:03.000Z</time>
      </trkpt>
      <trkpt lat="42.661011" lon="0.661757">
        <ele>2284.6</ele>
        <time>1970-01-01T09:08:04.000Z</time>
      </trkpt>
      <trkpt lat="42.661015" lon="0.661769">
        <ele>2284.4</ele>
        <time>1970-01-01T09:08:05.000Z</time>
      </trkpt>
      <trkpt lat="42.661021" lon="0.661791">
        <ele>2284</ele>
        <time>1970-01-01T09:08:07.000Z</time>
      </trkpt>
      <trkpt lat="42.661026" lon="0.6618">
        <ele>2283.8</ele>
        <time>1970-01-01T09:08:08.000Z</time>
      </trkpt>
      <trkpt lat="42.661033" lon="0.661803">
        <ele>2283.6</ele>
        <time>1970-01-01T09:08:09.000Z</time>
      </trkpt>
      <trkpt lat="42.661042" lon="0.661805">
        <ele>2283.4</ele>
        <time>1970-01-01T09:08:10.000Z</time>
      </trkpt>
      <trkpt lat="42.661052" lon="0.661802">
        <ele>2283.1</ele>
        <time>1970-01-01T09:08:12.000Z</time>
      </trkpt>
      <trkpt lat="42.661059" lon="0.661798">
        <ele>2283</ele>
        <time>1970-01-01T09:08:13.000Z</time>
      </trkpt>
      <trkpt lat="42.661062" lon="0.661792">
        <ele>2282.8</ele>
        <time>1970-01-01T09:08:14.000Z</time>
      </trkpt>
      <trkpt lat="42.661065" lon="0.661781">
        <ele>2282.6</ele>
        <time>1970-01-01T09:08:15.000Z</time>
      </trkpt>
      <trkpt lat="42.661073" lon="0.66177">
        <ele>2282.3</ele>
        <time>1970-01-01T09:08:16.000Z</time>
      </trkpt>
      <trkpt lat="42.66108" lon="0.661754">
        <ele>2281.9</ele>
        <time>1970-01-01T09:08:18.000Z</time>
      </trkpt>
      <trkpt lat="42.661086" lon="0.661743">
        <ele>2281.7</ele>
        <time>1970-01-01T09:08:19.000Z</time>
      </trkpt>
      <trkpt lat="42.661092" lon="0.661742">
        <ele>2281.5</ele>
        <time>1970-01-01T09:08:20.000Z</time>
      </trkpt>
      <trkpt lat="42.6611" lon="0.661743">
        <ele>2281.3</ele>
        <time>1970-01-01T09:08:21.000Z</time>
      </trkpt>
      <trkpt lat="42.661108" lon="0.661744">
        <ele>2281.1</ele>
        <time>1970-01-01T09:08:22.000Z</time>
      </trkpt>
      <trkpt lat="42.661115" lon="0.661749">
        <ele>2280.9</ele>
        <time>1970-01-01T09:08:23.000Z</time>
      </trkpt>
      <trkpt lat="42.661119" lon="0.661756">
        <ele>2280.7</ele>
        <time>1970-01-01T09:08:24.000Z</time>
      </trkpt>
      <trkpt lat="42.661127" lon="0.661764">
        <ele>2280.4</ele>
        <time>1970-01-01T09:08:25.000Z</time>
      </trkpt>
      <trkpt lat="42.661139" lon="0.661773">
        <ele>2280</ele>
        <time>1970-01-01T09:08:27.000Z</time>
      </trkpt>
      <trkpt lat="42.661147" lon="0.661779">
        <ele>2279.7</ele>
        <time>1970-01-01T09:08:28.000Z</time>
      </trkpt>
      <trkpt lat="42.661151" lon="0.661791">
        <ele>2279.4</ele>
        <time>1970-01-01T09:08:29.000Z</time>
      </trkpt>
      <trkpt lat="42.661156" lon="0.6618">
        <ele>2279.2</ele>
        <time>1970-01-01T09:08:31.000Z</time>
      </trkpt>
      <trkpt lat="42.661164" lon="0.661804">
        <ele>2279</ele>
        <time>1970-01-01T09:08:32.000Z</time>
      </trkpt>
      <trkpt lat="42.661169" lon="0.661794">
        <ele>2278.7</ele>
        <time>1970-01-01T09:08:33.000Z</time>
      </trkpt>
      <trkpt lat="42.661173" lon="0.661767">
        <ele>2278.1</ele>
        <time>1970-01-01T09:08:35.000Z</time>
      </trkpt>
      <trkpt lat="42.661173" lon="0.661753">
        <ele>2277.7</ele>
        <time>1970-01-01T09:08:36.000Z</time>
      </trkpt>
      <trkpt lat="42.661172" lon="0.661742">
        <ele>2277.5</ele>
        <time>1970-01-01T09:08:37.000Z</time>
      </trkpt>
      <trkpt lat="42.661172" lon="0.661736">
        <ele>2277.4</ele>
        <time>1970-01-01T09:08:38.000Z</time>
      </trkpt>
      <trkpt lat="42.661174" lon="0.661728">
        <ele>2277.2</ele>
        <time>1970-01-01T09:08:39.000Z</time>
      </trkpt>
      <trkpt lat="42.661185" lon="0.661722">
        <ele>2276.8</ele>
        <time>1970-01-01T09:08:41.000Z</time>
      </trkpt>
      <trkpt lat="42.661196" lon="0.661726">
        <ele>2276.5</ele>
        <time>1970-01-01T09:08:42.000Z</time>
      </trkpt>
      <trkpt lat="42.661199" lon="0.66173">
        <ele>2276.3</ele>
        <time>1970-01-01T09:08:43.000Z</time>
      </trkpt>
      <trkpt lat="42.6612" lon="0.661732">
        <ele>2276.3</ele>
        <time>1970-01-01T09:08:44.000Z</time>
      </trkpt>
      <trkpt lat="42.6612" lon="0.661734">
        <ele>2276.2</ele>
        <time>1970-01-01T09:08:45.000Z</time>
      </trkpt>
      <trkpt lat="42.661203" lon="0.66174">
        <ele>2276.1</ele>
        <time>1970-01-01T09:08:46.000Z</time>
      </trkpt>
      <trkpt lat="42.661206" lon="0.661745">
        <ele>2275.9</ele>
        <time>1970-01-01T09:08:47.000Z</time>
      </trkpt>
      <trkpt lat="42.661208" lon="0.661756">
        <ele>2275.7</ele>
        <time>1970-01-01T09:08:48.000Z</time>
      </trkpt>
      <trkpt lat="42.661212" lon="0.661773">
        <ele>2275.3</ele>
        <time>1970-01-01T09:08:50.000Z</time>
      </trkpt>
      <trkpt lat="42.661217" lon="0.661777">
        <ele>2275.1</ele>
        <time>1970-01-01T09:08:51.000Z</time>
      </trkpt>
      <trkpt lat="42.661219" lon="0.661781">
        <ele>2275</ele>
        <time>1970-01-01T09:08:52.000Z</time>
      </trkpt>
      <trkpt lat="42.661218" lon="0.661785">
        <ele>2274.9</ele>
        <time>1970-01-01T09:08:54.000Z</time>
      </trkpt>
      <trkpt lat="42.661217" lon="0.661787">
        <ele>2274.8</ele>
        <time>1970-01-01T09:08:55.000Z</time>
      </trkpt>
      <trkpt lat="42.66122" lon="0.661792">
        <ele>2274.7</ele>
        <time>1970-01-01T09:08:57.000Z</time>
      </trkpt>
      <trkpt lat="42.661225" lon="0.661797">
        <ele>2274.5</ele>
        <time>1970-01-01T09:08:58.000Z</time>
      </trkpt>
      <trkpt lat="42.661228" lon="0.661801">
        <ele>2274.4</ele>
        <time>1970-01-01T09:08:59.000Z</time>
      </trkpt>
      <trkpt lat="42.661229" lon="0.661804">
        <ele>2274.3</ele>
        <time>1970-01-01T09:09:00.000Z</time>
      </trkpt>
      <trkpt lat="42.661232" lon="0.661811">
        <ele>2274.1</ele>
        <time>1970-01-01T09:09:01.000Z</time>
      </trkpt>
      <trkpt lat="42.661235" lon="0.661816">
        <ele>2274</ele>
        <time>1970-01-01T09:09:02.000Z</time>
      </trkpt>
      <trkpt lat="42.661238" lon="0.66182">
        <ele>2273.8</ele>
        <time>1970-01-01T09:09:03.000Z</time>
      </trkpt>
      <trkpt lat="42.66125" lon="0.661821">
        <ele>2273.5</ele>
        <time>1970-01-01T09:09:04.000Z</time>
      </trkpt>
      <trkpt lat="42.661259" lon="0.661816">
        <ele>2273.2</ele>
        <time>1970-01-01T09:09:06.000Z</time>
      </trkpt>
      <trkpt lat="42.661266" lon="0.66182">
        <ele>2272.9</ele>
        <time>1970-01-01T09:09:07.000Z</time>
      </trkpt>
      <trkpt lat="42.661272" lon="0.661829">
        <ele>2272.7</ele>
        <time>1970-01-01T09:09:08.000Z</time>
      </trkpt>
      <trkpt lat="42.661275" lon="0.661834">
        <ele>2272.5</ele>
        <time>1970-01-01T09:09:09.000Z</time>
      </trkpt>
      <trkpt lat="42.66128" lon="0.661838">
        <ele>2272.4</ele>
        <time>1970-01-01T09:09:10.000Z</time>
      </trkpt>
      <trkpt lat="42.661288" lon="0.661836">
        <ele>2272.1</ele>
        <time>1970-01-01T09:09:11.000Z</time>
      </trkpt>
      <trkpt lat="42.661297" lon="0.661839">
        <ele>2271.9</ele>
        <time>1970-01-01T09:09:13.000Z</time>
      </trkpt>
      <trkpt lat="42.661306" lon="0.661843">
        <ele>2271.6</ele>
        <time>1970-01-01T09:09:14.000Z</time>
      </trkpt>
      <trkpt lat="42.661314" lon="0.661837">
        <ele>2271.3</ele>
        <time>1970-01-01T09:09:15.000Z</time>
      </trkpt>
      <trkpt lat="42.661318" lon="0.661826">
        <ele>2271.1</ele>
        <time>1970-01-01T09:09:16.000Z</time>
      </trkpt>
      <trkpt lat="42.661323" lon="0.661813">
        <ele>2270.8</ele>
        <time>1970-01-01T09:09:17.000Z</time>
      </trkpt>
      <trkpt lat="42.661328" lon="0.661799">
        <ele>2270.5</ele>
        <time>1970-01-01T09:09:19.000Z</time>
      </trkpt>
      <trkpt lat="42.66133" lon="0.661786">
        <ele>2270.2</ele>
        <time>1970-01-01T09:09:20.000Z</time>
      </trkpt>
      <trkpt lat="42.661333" lon="0.661775">
        <ele>2270</ele>
        <time>1970-01-01T09:09:21.000Z</time>
      </trkpt>
      <trkpt lat="42.661335" lon="0.661772">
        <ele>2269.9</ele>
        <time>1970-01-01T09:09:22.000Z</time>
      </trkpt>
      <trkpt lat="42.661337" lon="0.661773">
        <ele>2269.8</ele>
        <time>1970-01-01T09:09:23.000Z</time>
      </trkpt>
      <trkpt lat="42.661339" lon="0.661773">
        <ele>2269.8</ele>
        <time>1970-01-01T09:09:24.000Z</time>
      </trkpt>
      <trkpt lat="42.661339" lon="0.661777">
        <ele>2269.7</ele>
        <time>1970-01-01T09:09:25.000Z</time>
      </trkpt>
      <trkpt lat="42.661339" lon="0.661778">
        <ele>2269.7</ele>
        <time>1970-01-01T09:09:26.000Z</time>
      </trkpt>
      <trkpt lat="42.66134" lon="0.661777">
        <ele>2269.7</ele>
        <time>1970-01-01T09:09:27.000Z</time>
      </trkpt>
      <trkpt lat="42.66134" lon="0.661774">
        <ele>2269.6</ele>
        <time>1970-01-01T09:09:28.000Z</time>
      </trkpt>
      <trkpt lat="42.661342" lon="0.661766">
        <ele>2269.4</ele>
        <time>1970-01-01T09:09:29.000Z</time>
      </trkpt>
      <trkpt lat="42.661345" lon="0.661757">
        <ele>2269.3</ele>
        <time>1970-01-01T09:09:30.000Z</time>
      </trkpt>
      <trkpt lat="42.661349" lon="0.661744">
        <ele>2269</ele>
        <time>1970-01-01T09:09:32.000Z</time>
      </trkpt>
      <trkpt lat="42.66135" lon="0.66173">
        <ele>2268.7</ele>
        <time>1970-01-01T09:09:33.000Z</time>
      </trkpt>
      <trkpt lat="42.661352" lon="0.661717">
        <ele>2268.5</ele>
        <time>1970-01-01T09:09:34.000Z</time>
      </trkpt>
      <trkpt lat="42.661355" lon="0.661705">
        <ele>2268.3</ele>
        <time>1970-01-01T09:09:35.000Z</time>
      </trkpt>
      <trkpt lat="42.661358" lon="0.661692">
        <ele>2268</ele>
        <time>1970-01-01T09:09:36.000Z</time>
      </trkpt>
      <trkpt lat="42.661361" lon="0.661679">
        <ele>2267.8</ele>
        <time>1970-01-01T09:09:37.000Z</time>
      </trkpt>
      <trkpt lat="42.661367" lon="0.661672">
        <ele>2267.6</ele>
        <time>1970-01-01T09:09:38.000Z</time>
      </trkpt>
      <trkpt lat="42.661373" lon="0.661663">
        <ele>2267.4</ele>
        <time>1970-01-01T09:09:39.000Z</time>
      </trkpt>
      <trkpt lat="42.66138" lon="0.661637">
        <ele>2266.9</ele>
        <time>1970-01-01T09:09:41.000Z</time>
      </trkpt>
      <trkpt lat="42.661383" lon="0.661626">
        <ele>2266.7</ele>
        <time>1970-01-01T09:09:42.000Z</time>
      </trkpt>
      <trkpt lat="42.661385" lon="0.661615">
        <ele>2266.5</ele>
        <time>1970-01-01T09:09:43.000Z</time>
      </trkpt>
      <trkpt lat="42.661389" lon="0.661603">
        <ele>2266.2</ele>
        <time>1970-01-01T09:09:45.000Z</time>
      </trkpt>
      <trkpt lat="42.661392" lon="0.661591">
        <ele>2266</ele>
        <time>1970-01-01T09:09:46.000Z</time>
      </trkpt>
      <trkpt lat="42.661394" lon="0.661576">
        <ele>2265.7</ele>
        <time>1970-01-01T09:09:47.000Z</time>
      </trkpt>
      <trkpt lat="42.661398" lon="0.661562">
        <ele>2265.5</ele>
        <time>1970-01-01T09:09:48.000Z</time>
      </trkpt>
      <trkpt lat="42.6614" lon="0.66155">
        <ele>2265.2</ele>
        <time>1970-01-01T09:09:49.000Z</time>
      </trkpt>
      <trkpt lat="42.661402" lon="0.661539">
        <ele>2265</ele>
        <time>1970-01-01T09:09:50.000Z</time>
      </trkpt>
      <trkpt lat="42.661403" lon="0.661528">
        <ele>2264.8</ele>
        <time>1970-01-01T09:09:51.000Z</time>
      </trkpt>
      <trkpt lat="42.6614" lon="0.661518">
        <ele>2264.6</ele>
        <time>1970-01-01T09:09:52.000Z</time>
      </trkpt>
      <trkpt lat="42.661397" lon="0.661507">
        <ele>2264.4</ele>
        <time>1970-01-01T09:09:53.000Z</time>
      </trkpt>
      <trkpt lat="42.661395" lon="0.661495">
        <ele>2264.2</ele>
        <time>1970-01-01T09:09:55.000Z</time>
      </trkpt>
      <trkpt lat="42.661393" lon="0.661481">
        <ele>2263.9</ele>
        <time>1970-01-01T09:09:56.000Z</time>
      </trkpt>
      <trkpt lat="42.661393" lon="0.661472">
        <ele>2263.8</ele>
        <time>1970-01-01T09:09:57.000Z</time>
      </trkpt>
      <trkpt lat="42.661398" lon="0.661466">
        <ele>2263.6</ele>
        <time>1970-01-01T09:09:59.000Z</time>
      </trkpt>
      <trkpt lat="42.661404" lon="0.661454">
        <ele>2263.4</ele>
        <time>1970-01-01T09:10:00.000Z</time>
      </trkpt>
      <trkpt lat="42.661406" lon="0.66144">
        <ele>2263.1</ele>
        <time>1970-01-01T09:10:02.000Z</time>
      </trkpt>
      <trkpt lat="42.6614" lon="0.661427">
        <ele>2262.8</ele>
        <time>1970-01-01T09:10:03.000Z</time>
      </trkpt>
      <trkpt lat="42.661399" lon="0.661414">
        <ele>2262.6</ele>
        <time>1970-01-01T09:10:04.000Z</time>
      </trkpt>
      <trkpt lat="42.661397" lon="0.661405">
        <ele>2262.4</ele>
        <time>1970-01-01T09:10:05.000Z</time>
      </trkpt>
      <trkpt lat="42.661396" lon="0.661395">
        <ele>2262.2</ele>
        <time>1970-01-01T09:10:06.000Z</time>
      </trkpt>
      <trkpt lat="42.66139" lon="0.661377">
        <ele>2261.9</ele>
        <time>1970-01-01T09:10:08.000Z</time>
      </trkpt>
      <trkpt lat="42.661386" lon="0.661365">
        <ele>2261.6</ele>
        <time>1970-01-01T09:10:09.000Z</time>
      </trkpt>
      <trkpt lat="42.661391" lon="0.661355">
        <ele>2261.4</ele>
        <time>1970-01-01T09:10:11.000Z</time>
      </trkpt>
      <trkpt lat="42.661395" lon="0.661345">
        <ele>2261.2</ele>
        <time>1970-01-01T09:10:12.000Z</time>
      </trkpt>
      <trkpt lat="42.661403" lon="0.661337">
        <ele>2261</ele>
        <time>1970-01-01T09:10:14.000Z</time>
      </trkpt>
      <trkpt lat="42.661417" lon="0.66133">
        <ele>2260.6</ele>
        <time>1970-01-01T09:10:15.000Z</time>
      </trkpt>
      <trkpt lat="42.661429" lon="0.661338">
        <ele>2260.3</ele>
        <time>1970-01-01T09:10:17.000Z</time>
      </trkpt>
      <trkpt lat="42.661438" lon="0.661346">
        <ele>2260</ele>
        <time>1970-01-01T09:10:18.000Z</time>
      </trkpt>
      <trkpt lat="42.661446" lon="0.661343">
        <ele>2259.8</ele>
        <time>1970-01-01T09:10:19.000Z</time>
      </trkpt>
      <trkpt lat="42.661455" lon="0.66134">
        <ele>2259.6</ele>
        <time>1970-01-01T09:10:21.000Z</time>
      </trkpt>
      <trkpt lat="42.661466" lon="0.661331">
        <ele>2259.2</ele>
        <time>1970-01-01T09:10:22.000Z</time>
      </trkpt>
      <trkpt lat="42.661475" lon="0.661327">
        <ele>2259</ele>
        <time>1970-01-01T09:10:23.000Z</time>
      </trkpt>
      <trkpt lat="42.661483" lon="0.661323">
        <ele>2258.8</ele>
        <time>1970-01-01T09:10:24.000Z</time>
      </trkpt>
      <trkpt lat="42.661492" lon="0.661319">
        <ele>2258.6</ele>
        <time>1970-01-01T09:10:25.000Z</time>
      </trkpt>
      <trkpt lat="42.661501" lon="0.661321">
        <ele>2258.3</ele>
        <time>1970-01-01T09:10:26.000Z</time>
      </trkpt>
      <trkpt lat="42.66151" lon="0.661327">
        <ele>2258.1</ele>
        <time>1970-01-01T09:10:28.000Z</time>
      </trkpt>
      <trkpt lat="42.661518" lon="0.661324">
        <ele>2257.9</ele>
        <time>1970-01-01T09:10:30.000Z</time>
      </trkpt>
      <trkpt lat="42.661521" lon="0.661317">
        <ele>2257.7</ele>
        <time>1970-01-01T09:10:31.000Z</time>
      </trkpt>
      <trkpt lat="42.661522" lon="0.661311">
        <ele>2257.6</ele>
        <time>1970-01-01T09:10:32.000Z</time>
      </trkpt>
      <trkpt lat="42.66152" lon="0.661304">
        <ele>2257.5</ele>
        <time>1970-01-01T09:10:33.000Z</time>
      </trkpt>
      <trkpt lat="42.661523" lon="0.661295">
        <ele>2257.3</ele>
        <time>1970-01-01T09:10:35.000Z</time>
      </trkpt>
      <trkpt lat="42.661526" lon="0.661289">
        <ele>2257.2</ele>
        <time>1970-01-01T09:10:36.000Z</time>
      </trkpt>
      <trkpt lat="42.66153" lon="0.661281">
        <ele>2257</ele>
        <time>1970-01-01T09:10:37.000Z</time>
      </trkpt>
      <trkpt lat="42.661534" lon="0.661274">
        <ele>2256.9</ele>
        <time>1970-01-01T09:10:38.000Z</time>
      </trkpt>
      <trkpt lat="42.661542" lon="0.661267">
        <ele>2256.6</ele>
        <time>1970-01-01T09:10:39.000Z</time>
      </trkpt>
      <trkpt lat="42.66155" lon="0.661265">
        <ele>2256.5</ele>
        <time>1970-01-01T09:10:40.000Z</time>
      </trkpt>
      <trkpt lat="42.661559" lon="0.661267">
        <ele>2256.2</ele>
        <time>1970-01-01T09:10:41.000Z</time>
      </trkpt>
      <trkpt lat="42.661571" lon="0.66127">
        <ele>2255.9</ele>
        <time>1970-01-01T09:10:42.000Z</time>
      </trkpt>
      <trkpt lat="42.661583" lon="0.661271">
        <ele>2255.7</ele>
        <time>1970-01-01T09:10:43.000Z</time>
      </trkpt>
      <trkpt lat="42.661594" lon="0.661269">
        <ele>2255.4</ele>
        <time>1970-01-01T09:10:44.000Z</time>
      </trkpt>
      <trkpt lat="42.661602" lon="0.661266">
        <ele>2255.2</ele>
        <time>1970-01-01T09:10:46.000Z</time>
      </trkpt>
      <trkpt lat="42.661617" lon="0.661263">
        <ele>2254.8</ele>
        <time>1970-01-01T09:10:48.000Z</time>
      </trkpt>
      <trkpt lat="42.661624" lon="0.661256">
        <ele>2254.6</ele>
        <time>1970-01-01T09:10:49.000Z</time>
      </trkpt>
      <trkpt lat="42.66163" lon="0.661244">
        <ele>2254.4</ele>
        <time>1970-01-01T09:10:50.000Z</time>
      </trkpt>
      <trkpt lat="42.661638" lon="0.66124">
        <ele>2254.2</ele>
        <time>1970-01-01T09:10:51.000Z</time>
      </trkpt>
      <trkpt lat="42.661646" lon="0.661237">
        <ele>2254</ele>
        <time>1970-01-01T09:10:52.000Z</time>
      </trkpt>
      <trkpt lat="42.661653" lon="0.661231">
        <ele>2253.8</ele>
        <time>1970-01-01T09:10:53.000Z</time>
      </trkpt>
      <trkpt lat="42.66166" lon="0.661225">
        <ele>2253.6</ele>
        <time>1970-01-01T09:10:55.000Z</time>
      </trkpt>
      <trkpt lat="42.661669" lon="0.661208">
        <ele>2253.2</ele>
        <time>1970-01-01T09:10:57.000Z</time>
      </trkpt>
      <trkpt lat="42.661672" lon="0.661205">
        <ele>2253.1</ele>
        <time>1970-01-01T09:10:58.000Z</time>
      </trkpt>
      <trkpt lat="42.66168" lon="0.661202">
        <ele>2252.9</ele>
        <time>1970-01-01T09:10:59.000Z</time>
      </trkpt>
      <trkpt lat="42.661686" lon="0.661199">
        <ele>2252.8</ele>
        <time>1970-01-01T09:11:00.000Z</time>
      </trkpt>
      <trkpt lat="42.661692" lon="0.661197">
        <ele>2252.6</ele>
        <time>1970-01-01T09:11:01.000Z</time>
      </trkpt>
      <trkpt lat="42.6617" lon="0.661197">
        <ele>2252.4</ele>
        <time>1970-01-01T09:11:02.000Z</time>
      </trkpt>
      <trkpt lat="42.661714" lon="0.661196">
        <ele>2252.1</ele>
        <time>1970-01-01T09:11:04.000Z</time>
      </trkpt>
      <trkpt lat="42.661723" lon="0.661192">
        <ele>2251.8</ele>
        <time>1970-01-01T09:11:05.000Z</time>
      </trkpt>
      <trkpt lat="42.661732" lon="0.661187">
        <ele>2251.6</ele>
        <time>1970-01-01T09:11:06.000Z</time>
      </trkpt>
      <trkpt lat="42.661748" lon="0.661181">
        <ele>2251.1</ele>
        <time>1970-01-01T09:11:08.000Z</time>
      </trkpt>
      <trkpt lat="42.661757" lon="0.661174">
        <ele>2250.9</ele>
        <time>1970-01-01T09:11:09.000Z</time>
      </trkpt>
      <trkpt lat="42.661764" lon="0.661167">
        <ele>2250.6</ele>
        <time>1970-01-01T09:11:10.000Z</time>
      </trkpt>
      <trkpt lat="42.661772" lon="0.66116">
        <ele>2250.4</ele>
        <time>1970-01-01T09:11:12.000Z</time>
      </trkpt>
      <trkpt lat="42.661779" lon="0.661155">
        <ele>2250.2</ele>
        <time>1970-01-01T09:11:13.000Z</time>
      </trkpt>
      <trkpt lat="42.661783" lon="0.661151">
        <ele>2250</ele>
        <time>1970-01-01T09:11:14.000Z</time>
      </trkpt>
      <trkpt lat="42.661788" lon="0.661146">
        <ele>2249.9</ele>
        <time>1970-01-01T09:11:15.000Z</time>
      </trkpt>
      <trkpt lat="42.661796" lon="0.661142">
        <ele>2249.7</ele>
        <time>1970-01-01T09:11:16.000Z</time>
      </trkpt>
      <trkpt lat="42.661804" lon="0.661142">
        <ele>2249.4</ele>
        <time>1970-01-01T09:11:18.000Z</time>
      </trkpt>
      <trkpt lat="42.661813" lon="0.661146">
        <ele>2249.2</ele>
        <time>1970-01-01T09:11:19.000Z</time>
      </trkpt>
      <trkpt lat="42.661819" lon="0.661143">
        <ele>2249</ele>
        <time>1970-01-01T09:11:20.000Z</time>
      </trkpt>
      <trkpt lat="42.661824" lon="0.661133">
        <ele>2248.8</ele>
        <time>1970-01-01T09:11:22.000Z</time>
      </trkpt>
      <trkpt lat="42.661829" lon="0.661121">
        <ele>2248.5</ele>
        <time>1970-01-01T09:11:23.000Z</time>
      </trkpt>
      <trkpt lat="42.661832" lon="0.66111">
        <ele>2248.2</ele>
        <time>1970-01-01T09:11:24.000Z</time>
      </trkpt>
      <trkpt lat="42.661833" lon="0.661097">
        <ele>2248</ele>
        <time>1970-01-01T09:11:25.000Z</time>
      </trkpt>
      <trkpt lat="42.661833" lon="0.661085">
        <ele>2247.7</ele>
        <time>1970-01-01T09:11:26.000Z</time>
      </trkpt>
      <trkpt lat="42.661836" lon="0.66108">
        <ele>2247.6</ele>
        <time>1970-01-01T09:11:27.000Z</time>
      </trkpt>
      <trkpt lat="42.661841" lon="0.661078">
        <ele>2247.4</ele>
        <time>1970-01-01T09:11:28.000Z</time>
      </trkpt>
      <trkpt lat="42.661845" lon="0.661077">
        <ele>2247.3</ele>
        <time>1970-01-01T09:11:29.000Z</time>
      </trkpt>
      <trkpt lat="42.661851" lon="0.661076">
        <ele>2247.1</ele>
        <time>1970-01-01T09:11:30.000Z</time>
      </trkpt>
      <trkpt lat="42.66186" lon="0.661075">
        <ele>2246.9</ele>
        <time>1970-01-01T09:11:32.000Z</time>
      </trkpt>
      <trkpt lat="42.661865" lon="0.661072">
        <ele>2246.7</ele>
        <time>1970-01-01T09:11:33.000Z</time>
      </trkpt>
      <trkpt lat="42.661868" lon="0.661061">
        <ele>2246.5</ele>
        <time>1970-01-01T09:11:35.000Z</time>
      </trkpt>
      <trkpt lat="42.661869" lon="0.661051">
        <ele>2246.3</ele>
        <time>1970-01-01T09:11:36.000Z</time>
      </trkpt>
      <trkpt lat="42.66187" lon="0.661047">
        <ele>2246.2</ele>
        <time>1970-01-01T09:11:37.000Z</time>
      </trkpt>
      <trkpt lat="42.66187" lon="0.661044">
        <ele>2246.1</ele>
        <time>1970-01-01T09:11:38.000Z</time>
      </trkpt>
      <trkpt lat="42.661872" lon="0.661042">
        <ele>2246</ele>
        <time>1970-01-01T09:11:39.000Z</time>
      </trkpt>
      <trkpt lat="42.661876" lon="0.661043">
        <ele>2245.9</ele>
        <time>1970-01-01T09:11:40.000Z</time>
      </trkpt>
      <trkpt lat="42.661883" lon="0.66104">
        <ele>2245.7</ele>
        <time>1970-01-01T09:11:42.000Z</time>
      </trkpt>
      <trkpt lat="42.661887" lon="0.661035">
        <ele>2245.6</ele>
        <time>1970-01-01T09:11:43.000Z</time>
      </trkpt>
      <trkpt lat="42.661892" lon="0.66103">
        <ele>2245.4</ele>
        <time>1970-01-01T09:11:44.000Z</time>
      </trkpt>
      <trkpt lat="42.6619" lon="0.66103">
        <ele>2245.2</ele>
        <time>1970-01-01T09:11:45.000Z</time>
      </trkpt>
      <trkpt lat="42.661903" lon="0.661031">
        <ele>2245.1</ele>
        <time>1970-01-01T09:11:46.000Z</time>
      </trkpt>
      <trkpt lat="42.661915" lon="0.661022">
        <ele>2244.7</ele>
        <time>1970-01-01T09:11:48.000Z</time>
      </trkpt>
      <trkpt lat="42.661919" lon="0.661013">
        <ele>2244.5</ele>
        <time>1970-01-01T09:11:49.000Z</time>
      </trkpt>
      <trkpt lat="42.661927" lon="0.661008">
        <ele>2244.2</ele>
        <time>1970-01-01T09:11:50.000Z</time>
      </trkpt>
      <trkpt lat="42.661934" lon="0.661003">
        <ele>2244</ele>
        <time>1970-01-01T09:11:52.000Z</time>
      </trkpt>
      <trkpt lat="42.661943" lon="0.661">
        <ele>2243.8</ele>
        <time>1970-01-01T09:11:53.000Z</time>
      </trkpt>
      <trkpt lat="42.661953" lon="0.661007">
        <ele>2243.5</ele>
        <time>1970-01-01T09:11:54.000Z</time>
      </trkpt>
      <trkpt lat="42.661962" lon="0.661018">
        <ele>2243.1</ele>
        <time>1970-01-01T09:11:55.000Z</time>
      </trkpt>
      <trkpt lat="42.66197" lon="0.661027">
        <ele>2242.9</ele>
        <time>1970-01-01T09:11:56.000Z</time>
      </trkpt>
      <trkpt lat="42.661979" lon="0.661033">
        <ele>2242.6</ele>
        <time>1970-01-01T09:11:57.000Z</time>
      </trkpt>
      <trkpt lat="42.661983" lon="0.661036">
        <ele>2242.5</ele>
        <time>1970-01-01T09:11:58.000Z</time>
      </trkpt>
      <trkpt lat="42.661989" lon="0.661041">
        <ele>2242.3</ele>
        <time>1970-01-01T09:12:00.000Z</time>
      </trkpt>
      <trkpt lat="42.661996" lon="0.661043">
        <ele>2242.1</ele>
        <time>1970-01-01T09:12:01.000Z</time>
      </trkpt>
      <trkpt lat="42.662002" lon="0.66104">
        <ele>2242</ele>
        <time>1970-01-01T09:12:02.000Z</time>
      </trkpt>
      <trkpt lat="42.662007" lon="0.661035">
        <ele>2241.8</ele>
        <time>1970-01-01T09:12:03.000Z</time>
      </trkpt>
      <trkpt lat="42.662012" lon="0.661027">
        <ele>2241.6</ele>
        <time>1970-01-01T09:12:04.000Z</time>
      </trkpt>
      <trkpt lat="42.662016" lon="0.661016">
        <ele>2241.4</ele>
        <time>1970-01-01T09:12:06.000Z</time>
      </trkpt>
      <trkpt lat="42.66202" lon="0.661005">
        <ele>2241.2</ele>
        <time>1970-01-01T09:12:07.000Z</time>
      </trkpt>
      <trkpt lat="42.662027" lon="0.661">
        <ele>2241</ele>
        <time>1970-01-01T09:12:08.000Z</time>
      </trkpt>
      <trkpt lat="42.662037" lon="0.661004">
        <ele>2240.7</ele>
        <time>1970-01-01T09:12:10.000Z</time>
      </trkpt>
      <trkpt lat="42.662045" lon="0.661005">
        <ele>2240.5</ele>
        <time>1970-01-01T09:12:11.000Z</time>
      </trkpt>
      <trkpt lat="42.662057" lon="0.661001">
        <ele>2240.2</ele>
        <time>1970-01-01T09:12:12.000Z</time>
      </trkpt>
      <trkpt lat="42.662066" lon="0.660991">
        <ele>2239.9</ele>
        <time>1970-01-01T09:12:13.000Z</time>
      </trkpt>
      <trkpt lat="42.662073" lon="0.660979">
        <ele>2239.7</ele>
        <time>1970-01-01T09:12:14.000Z</time>
      </trkpt>
      <trkpt lat="42.662078" lon="0.660967">
        <ele>2239.4</ele>
        <time>1970-01-01T09:12:15.000Z</time>
      </trkpt>
      <trkpt lat="42.662083" lon="0.660951">
        <ele>2239.1</ele>
        <time>1970-01-01T09:12:16.000Z</time>
      </trkpt>
      <trkpt lat="42.662087" lon="0.660929">
        <ele>2238.7</ele>
        <time>1970-01-01T09:12:18.000Z</time>
      </trkpt>
      <trkpt lat="42.662089" lon="0.660924">
        <ele>2238.6</ele>
        <time>1970-01-01T09:12:19.000Z</time>
      </trkpt>
      <trkpt lat="42.662098" lon="0.660916">
        <ele>2238.4</ele>
        <time>1970-01-01T09:12:20.000Z</time>
      </trkpt>
      <trkpt lat="42.662108" lon="0.660912">
        <ele>2238.2</ele>
        <time>1970-01-01T09:12:21.000Z</time>
      </trkpt>
      <trkpt lat="42.662119" lon="0.660909">
        <ele>2237.9</ele>
        <time>1970-01-01T09:12:22.000Z</time>
      </trkpt>
      <trkpt lat="42.662127" lon="0.66091">
        <ele>2237.7</ele>
        <time>1970-01-01T09:12:23.000Z</time>
      </trkpt>
      <trkpt lat="42.662132" lon="0.660909">
        <ele>2237.6</ele>
        <time>1970-01-01T09:12:24.000Z</time>
      </trkpt>
      <trkpt lat="42.66214" lon="0.660898">
        <ele>2237.3</ele>
        <time>1970-01-01T09:12:25.000Z</time>
      </trkpt>
      <trkpt lat="42.662149" lon="0.660883">
        <ele>2237</ele>
        <time>1970-01-01T09:12:27.000Z</time>
      </trkpt>
      <trkpt lat="42.662154" lon="0.660877">
        <ele>2236.8</ele>
        <time>1970-01-01T09:12:28.000Z</time>
      </trkpt>
      <trkpt lat="42.662159" lon="0.660874">
        <ele>2236.7</ele>
        <time>1970-01-01T09:12:29.000Z</time>
      </trkpt>
      <trkpt lat="42.662167" lon="0.660873">
        <ele>2236.5</ele>
        <time>1970-01-01T09:12:31.000Z</time>
      </trkpt>
      <trkpt lat="42.662172" lon="0.660872">
        <ele>2236.4</ele>
        <time>1970-01-01T09:12:32.000Z</time>
      </trkpt>
      <trkpt lat="42.662176" lon="0.660868">
        <ele>2236.3</ele>
        <time>1970-01-01T09:12:33.000Z</time>
      </trkpt>
      <trkpt lat="42.662183" lon="0.660864">
        <ele>2236.1</ele>
        <time>1970-01-01T09:12:35.000Z</time>
      </trkpt>
      <trkpt lat="42.662189" lon="0.660859">
        <ele>2235.9</ele>
        <time>1970-01-01T09:12:36.000Z</time>
      </trkpt>
      <trkpt lat="42.662196" lon="0.660853">
        <ele>2235.7</ele>
        <time>1970-01-01T09:12:37.000Z</time>
      </trkpt>
      <trkpt lat="42.662203" lon="0.660847">
        <ele>2235.6</ele>
        <time>1970-01-01T09:12:38.000Z</time>
      </trkpt>
      <trkpt lat="42.662219" lon="0.660839">
        <ele>2235.2</ele>
        <time>1970-01-01T09:12:40.000Z</time>
      </trkpt>
      <trkpt lat="42.662226" lon="0.660835">
        <ele>2235</ele>
        <time>1970-01-01T09:12:41.000Z</time>
      </trkpt>
      <trkpt lat="42.662231" lon="0.660835">
        <ele>2234.9</ele>
        <time>1970-01-01T09:12:42.000Z</time>
      </trkpt>
      <trkpt lat="42.662239" lon="0.660836">
        <ele>2234.7</ele>
        <time>1970-01-01T09:12:43.000Z</time>
      </trkpt>
      <trkpt lat="42.662249" lon="0.660838">
        <ele>2234.4</ele>
        <time>1970-01-01T09:12:44.000Z</time>
      </trkpt>
      <trkpt lat="42.662256" lon="0.660833">
        <ele>2234.2</ele>
        <time>1970-01-01T09:12:46.000Z</time>
      </trkpt>
      <trkpt lat="42.662263" lon="0.660834">
        <ele>2234</ele>
        <time>1970-01-01T09:12:47.000Z</time>
      </trkpt>
      <trkpt lat="42.662266" lon="0.660844">
        <ele>2233.8</ele>
        <time>1970-01-01T09:12:48.000Z</time>
      </trkpt>
      <trkpt lat="42.662273" lon="0.660851">
        <ele>2233.6</ele>
        <time>1970-01-01T09:12:49.000Z</time>
      </trkpt>
      <trkpt lat="42.662282" lon="0.660859">
        <ele>2233.3</ele>
        <time>1970-01-01T09:12:51.000Z</time>
      </trkpt>
      <trkpt lat="42.662289" lon="0.660861">
        <ele>2233.2</ele>
        <time>1970-01-01T09:12:52.000Z</time>
      </trkpt>
      <trkpt lat="42.662298" lon="0.660855">
        <ele>2232.9</ele>
        <time>1970-01-01T09:12:53.000Z</time>
      </trkpt>
      <trkpt lat="42.662305" lon="0.660848">
        <ele>2232.7</ele>
        <time>1970-01-01T09:12:54.000Z</time>
      </trkpt>
      <trkpt lat="42.662313" lon="0.660847">
        <ele>2232.5</ele>
        <time>1970-01-01T09:12:55.000Z</time>
      </trkpt>
      <trkpt lat="42.662319" lon="0.660848">
        <ele>2232.3</ele>
        <time>1970-01-01T09:12:56.000Z</time>
      </trkpt>
      <trkpt lat="42.662324" lon="0.66085">
        <ele>2232.2</ele>
        <time>1970-01-01T09:12:57.000Z</time>
      </trkpt>
      <trkpt lat="42.662334" lon="0.660851">
        <ele>2231.9</ele>
        <time>1970-01-01T09:12:58.000Z</time>
      </trkpt>
      <trkpt lat="42.66234" lon="0.660844">
        <ele>2231.7</ele>
        <time>1970-01-01T09:12:59.000Z</time>
      </trkpt>
      <trkpt lat="42.662344" lon="0.66083">
        <ele>2231.4</ele>
        <time>1970-01-01T09:13:01.000Z</time>
      </trkpt>
      <trkpt lat="42.662344" lon="0.660815">
        <ele>2231.2</ele>
        <time>1970-01-01T09:13:02.000Z</time>
      </trkpt>
      <trkpt lat="42.662339" lon="0.660801">
        <ele>2230.9</ele>
        <time>1970-01-01T09:13:03.000Z</time>
      </trkpt>
      <trkpt lat="42.66233" lon="0.660788">
        <ele>2230.5</ele>
        <time>1970-01-01T09:13:04.000Z</time>
      </trkpt>
      <trkpt lat="42.662321" lon="0.660779">
        <ele>2230.2</ele>
        <time>1970-01-01T09:13:05.000Z</time>
      </trkpt>
      <trkpt lat="42.662316" lon="0.660764">
        <ele>2229.9</ele>
        <time>1970-01-01T09:13:07.000Z</time>
      </trkpt>
      <trkpt lat="42.662318" lon="0.660753">
        <ele>2229.7</ele>
        <time>1970-01-01T09:13:08.000Z</time>
      </trkpt>
      <trkpt lat="42.662323" lon="0.660746">
        <ele>2229.5</ele>
        <time>1970-01-01T09:13:09.000Z</time>
      </trkpt>
      <trkpt lat="42.662332" lon="0.660742">
        <ele>2229.2</ele>
        <time>1970-01-01T09:13:11.000Z</time>
      </trkpt>
      <trkpt lat="42.662345" lon="0.660739">
        <ele>2228.9</ele>
        <time>1970-01-01T09:13:12.000Z</time>
      </trkpt>
      <trkpt lat="42.662352" lon="0.660739">
        <ele>2228.7</ele>
        <time>1970-01-01T09:13:13.000Z</time>
      </trkpt>
      <trkpt lat="42.662359" lon="0.66074">
        <ele>2228.5</ele>
        <time>1970-01-01T09:13:14.000Z</time>
      </trkpt>
      <trkpt lat="42.662369" lon="0.660735">
        <ele>2228.2</ele>
        <time>1970-01-01T09:13:15.000Z</time>
      </trkpt>
      <trkpt lat="42.662381" lon="0.660726">
        <ele>2227.9</ele>
        <time>1970-01-01T09:13:17.000Z</time>
      </trkpt>
      <trkpt lat="42.662386" lon="0.660726">
        <ele>2227.7</ele>
        <time>1970-01-01T09:13:18.000Z</time>
      </trkpt>
      <trkpt lat="42.662403" lon="0.660725">
        <ele>2227.3</ele>
        <time>1970-01-01T09:13:19.000Z</time>
      </trkpt>
      <trkpt lat="42.662414" lon="0.660718">
        <ele>2227</ele>
        <time>1970-01-01T09:13:20.000Z</time>
      </trkpt>
      <trkpt lat="42.662419" lon="0.660711">
        <ele>2226.8</ele>
        <time>1970-01-01T09:13:21.000Z</time>
      </trkpt>
      <trkpt lat="42.662424" lon="0.6607">
        <ele>2226.5</ele>
        <time>1970-01-01T09:13:23.000Z</time>
      </trkpt>
      <trkpt lat="42.662425" lon="0.660689">
        <ele>2226.3</ele>
        <time>1970-01-01T09:13:24.000Z</time>
      </trkpt>
      <trkpt lat="42.662428" lon="0.660682">
        <ele>2226.2</ele>
        <time>1970-01-01T09:13:25.000Z</time>
      </trkpt>
      <trkpt lat="42.662434" lon="0.660676">
        <ele>2226</ele>
        <time>1970-01-01T09:13:26.000Z</time>
      </trkpt>
      <trkpt lat="42.662439" lon="0.660669">
        <ele>2225.8</ele>
        <time>1970-01-01T09:13:27.000Z</time>
      </trkpt>
      <trkpt lat="42.662446" lon="0.660664">
        <ele>2225.6</ele>
        <time>1970-01-01T09:13:28.000Z</time>
      </trkpt>
      <trkpt lat="42.662456" lon="0.660659">
        <ele>2225.3</ele>
        <time>1970-01-01T09:13:29.000Z</time>
      </trkpt>
      <trkpt lat="42.662466" lon="0.660643">
        <ele>2224.9</ele>
        <time>1970-01-01T09:13:31.000Z</time>
      </trkpt>
      <trkpt lat="42.662469" lon="0.660633">
        <ele>2224.7</ele>
        <time>1970-01-01T09:13:32.000Z</time>
      </trkpt>
      <trkpt lat="42.662472" lon="0.660624">
        <ele>2224.5</ele>
        <time>1970-01-01T09:13:33.000Z</time>
      </trkpt>
      <trkpt lat="42.662474" lon="0.660615">
        <ele>2224.4</ele>
        <time>1970-01-01T09:13:34.000Z</time>
      </trkpt>
      <trkpt lat="42.662478" lon="0.660605">
        <ele>2224.2</ele>
        <time>1970-01-01T09:13:35.000Z</time>
      </trkpt>
      <trkpt lat="42.662482" lon="0.660597">
        <ele>2224</ele>
        <time>1970-01-01T09:13:36.000Z</time>
      </trkpt>
      <trkpt lat="42.662489" lon="0.660597">
        <ele>2223.9</ele>
        <time>1970-01-01T09:13:37.000Z</time>
      </trkpt>
      <trkpt lat="42.662494" lon="0.660595">
        <ele>2223.7</ele>
        <time>1970-01-01T09:13:38.000Z</time>
      </trkpt>
      <trkpt lat="42.662501" lon="0.660587">
        <ele>2223.5</ele>
        <time>1970-01-01T09:13:39.000Z</time>
      </trkpt>
      <trkpt lat="42.662504" lon="0.660574">
        <ele>2223.3</ele>
        <time>1970-01-01T09:13:40.000Z</time>
      </trkpt>
      <trkpt lat="42.662506" lon="0.660562">
        <ele>2223.1</ele>
        <time>1970-01-01T09:13:41.000Z</time>
      </trkpt>
      <trkpt lat="42.662505" lon="0.660541">
        <ele>2222.8</ele>
        <time>1970-01-01T09:13:43.000Z</time>
      </trkpt>
      <trkpt lat="42.662503" lon="0.660528">
        <ele>2222.5</ele>
        <time>1970-01-01T09:13:44.000Z</time>
      </trkpt>
      <trkpt lat="42.662508" lon="0.660519">
        <ele>2222.4</ele>
        <time>1970-01-01T09:13:45.000Z</time>
      </trkpt>
      <trkpt lat="42.662516" lon="0.660519">
        <ele>2222.2</ele>
        <time>1970-01-01T09:13:46.000Z</time>
      </trkpt>
      <trkpt lat="42.662524" lon="0.66052">
        <ele>2222</ele>
        <time>1970-01-01T09:13:47.000Z</time>
      </trkpt>
      <trkpt lat="42.662532" lon="0.660522">
        <ele>2221.9</ele>
        <time>1970-01-01T09:13:48.000Z</time>
      </trkpt>
      <trkpt lat="42.66254" lon="0.660522">
        <ele>2221.7</ele>
        <time>1970-01-01T09:13:50.000Z</time>
      </trkpt>
      <trkpt lat="42.662548" lon="0.660517">
        <ele>2221.5</ele>
        <time>1970-01-01T09:13:51.000Z</time>
      </trkpt>
      <trkpt lat="42.662557" lon="0.660511">
        <ele>2221.3</ele>
        <time>1970-01-01T09:13:52.000Z</time>
      </trkpt>
      <trkpt lat="42.662564" lon="0.660503">
        <ele>2221.2</ele>
        <time>1970-01-01T09:13:53.000Z</time>
      </trkpt>
      <trkpt lat="42.66257" lon="0.660492">
        <ele>2221</ele>
        <time>1970-01-01T09:13:54.000Z</time>
      </trkpt>
      <trkpt lat="42.662579" lon="0.660484">
        <ele>2220.8</ele>
        <time>1970-01-01T09:13:55.000Z</time>
      </trkpt>
      <trkpt lat="42.662588" lon="0.660479">
        <ele>2220.6</ele>
        <time>1970-01-01T09:13:56.000Z</time>
      </trkpt>
      <trkpt lat="42.662597" lon="0.660474">
        <ele>2220.4</ele>
        <time>1970-01-01T09:13:57.000Z</time>
      </trkpt>
      <trkpt lat="42.662607" lon="0.66047">
        <ele>2220.2</ele>
        <time>1970-01-01T09:13:59.000Z</time>
      </trkpt>
      <trkpt lat="42.662614" lon="0.660467">
        <ele>2220.1</ele>
        <time>1970-01-01T09:14:00.000Z</time>
      </trkpt>
      <trkpt lat="42.662623" lon="0.660462">
        <ele>2219.9</ele>
        <time>1970-01-01T09:14:01.000Z</time>
      </trkpt>
      <trkpt lat="42.662635" lon="0.66046">
        <ele>2219.7</ele>
        <time>1970-01-01T09:14:02.000Z</time>
      </trkpt>
      <trkpt lat="42.662649" lon="0.66046">
        <ele>2219.5</ele>
        <time>1970-01-01T09:14:03.000Z</time>
      </trkpt>
      <trkpt lat="42.662661" lon="0.66046">
        <ele>2219.3</ele>
        <time>1970-01-01T09:14:04.000Z</time>
      </trkpt>
      <trkpt lat="42.662674" lon="0.660457">
        <ele>2219.1</ele>
        <time>1970-01-01T09:14:05.000Z</time>
      </trkpt>
      <trkpt lat="42.662689" lon="0.660455">
        <ele>2218.8</ele>
        <time>1970-01-01T09:14:07.000Z</time>
      </trkpt>
      <trkpt lat="42.66271" lon="0.660446">
        <ele>2218.5</ele>
        <time>1970-01-01T09:14:08.000Z</time>
      </trkpt>
      <trkpt lat="42.662718" lon="0.660443">
        <ele>2218.4</ele>
        <time>1970-01-01T09:14:09.000Z</time>
      </trkpt>
      <trkpt lat="42.662726" lon="0.660441">
        <ele>2218.2</ele>
        <time>1970-01-01T09:14:10.000Z</time>
      </trkpt>
      <trkpt lat="42.66274" lon="0.660436">
        <ele>2218</ele>
        <time>1970-01-01T09:14:11.000Z</time>
      </trkpt>
      <trkpt lat="42.662759" lon="0.660426">
        <ele>2217.7</ele>
        <time>1970-01-01T09:14:13.000Z</time>
      </trkpt>
      <trkpt lat="42.662773" lon="0.660419">
        <ele>2217.5</ele>
        <time>1970-01-01T09:14:14.000Z</time>
      </trkpt>
      <trkpt lat="42.662785" lon="0.660414">
        <ele>2217.3</ele>
        <time>1970-01-01T09:14:15.000Z</time>
      </trkpt>
      <trkpt lat="42.662798" lon="0.660409">
        <ele>2217.1</ele>
        <time>1970-01-01T09:14:16.000Z</time>
      </trkpt>
      <trkpt lat="42.662812" lon="0.660401">
        <ele>2216.9</ele>
        <time>1970-01-01T09:14:17.000Z</time>
      </trkpt>
      <trkpt lat="42.662832" lon="0.660393">
        <ele>2216.6</ele>
        <time>1970-01-01T09:14:18.000Z</time>
      </trkpt>
      <trkpt lat="42.66284" lon="0.66039">
        <ele>2216.5</ele>
        <time>1970-01-01T09:14:19.000Z</time>
      </trkpt>
      <trkpt lat="42.662848" lon="0.660388">
        <ele>2216.4</ele>
        <time>1970-01-01T09:14:20.000Z</time>
      </trkpt>
      <trkpt lat="42.662859" lon="0.660384">
        <ele>2216.2</ele>
        <time>1970-01-01T09:14:21.000Z</time>
      </trkpt>
      <trkpt lat="42.662868" lon="0.660381">
        <ele>2216.1</ele>
        <time>1970-01-01T09:14:22.000Z</time>
      </trkpt>
      <trkpt lat="42.662879" lon="0.660379">
        <ele>2216</ele>
        <time>1970-01-01T09:14:23.000Z</time>
      </trkpt>
      <trkpt lat="42.6629" lon="0.660372">
        <ele>2215.7</ele>
        <time>1970-01-01T09:14:24.000Z</time>
      </trkpt>
      <trkpt lat="42.662909" lon="0.660369">
        <ele>2215.6</ele>
        <time>1970-01-01T09:14:25.000Z</time>
      </trkpt>
      <trkpt lat="42.662917" lon="0.660365">
        <ele>2215.5</ele>
        <time>1970-01-01T09:14:26.000Z</time>
      </trkpt>
      <trkpt lat="42.662937" lon="0.660358">
        <ele>2215.2</ele>
        <time>1970-01-01T09:14:27.000Z</time>
      </trkpt>
      <trkpt lat="42.662944" lon="0.660354">
        <ele>2215.1</ele>
        <time>1970-01-01T09:14:29.000Z</time>
      </trkpt>
      <trkpt lat="42.662952" lon="0.660351">
        <ele>2215</ele>
        <time>1970-01-01T09:14:30.000Z</time>
      </trkpt>
      <trkpt lat="42.662962" lon="0.660347">
        <ele>2214.9</ele>
        <time>1970-01-01T09:14:31.000Z</time>
      </trkpt>
      <trkpt lat="42.662974" lon="0.660343">
        <ele>2214.8</ele>
        <time>1970-01-01T09:14:32.000Z</time>
      </trkpt>
      <trkpt lat="42.662983" lon="0.660336">
        <ele>2214.7</ele>
        <time>1970-01-01T09:14:33.000Z</time>
      </trkpt>
      <trkpt lat="42.662998" lon="0.660321">
        <ele>2214.4</ele>
        <time>1970-01-01T09:14:34.000Z</time>
      </trkpt>
      <trkpt lat="42.663006" lon="0.660314">
        <ele>2214.3</ele>
        <time>1970-01-01T09:14:36.000Z</time>
      </trkpt>
      <trkpt lat="42.663014" lon="0.660306">
        <ele>2214.2</ele>
        <time>1970-01-01T09:14:37.000Z</time>
      </trkpt>
      <trkpt lat="42.663022" lon="0.660299">
        <ele>2214.1</ele>
        <time>1970-01-01T09:14:38.000Z</time>
      </trkpt>
      <trkpt lat="42.66303" lon="0.660294">
        <ele>2214</ele>
        <time>1970-01-01T09:14:39.000Z</time>
      </trkpt>
      <trkpt lat="42.663034" lon="0.660292">
        <ele>2214</ele>
        <time>1970-01-01T09:14:40.000Z</time>
      </trkpt>
      <trkpt lat="42.663045" lon="0.660286">
        <ele>2213.9</ele>
        <time>1970-01-01T09:14:42.000Z</time>
      </trkpt>
      <trkpt lat="42.663046" lon="0.660287">
        <ele>2213.9</ele>
        <time>1970-01-01T09:14:43.000Z</time>
      </trkpt>
      <trkpt lat="42.663043" lon="0.660289">
        <ele>2213.8</ele>
        <time>1970-01-01T09:14:44.000Z</time>
      </trkpt>
      <trkpt lat="42.663042" lon="0.660289">
        <ele>2213.8</ele>
        <time>1970-01-01T09:14:45.000Z</time>
      </trkpt>
      <trkpt lat="42.663042" lon="0.660288">
        <ele>2213.8</ele>
        <time>1970-01-01T09:14:46.000Z</time>
      </trkpt>
      <trkpt lat="42.663041" lon="0.660285">
        <ele>2213.8</ele>
        <time>1970-01-01T09:14:47.000Z</time>
      </trkpt>
      <trkpt lat="42.66304" lon="0.66028">
        <ele>2213.7</ele>
        <time>1970-01-01T09:14:48.000Z</time>
      </trkpt>
      <trkpt lat="42.663039" lon="0.66028">
        <ele>2213.7</ele>
        <time>1970-01-01T09:14:49.000Z</time>
      </trkpt>
      <trkpt lat="42.663039" lon="0.660279">
        <ele>2213.7</ele>
        <time>1970-01-01T09:14:50.000Z</time>
      </trkpt>
      <trkpt lat="42.663039" lon="0.660278">
        <ele>2213.7</ele>
        <time>1970-01-01T09:14:51.000Z</time>
      </trkpt>
      <trkpt lat="42.663039" lon="0.660278">
        <ele>2213.7</ele>
        <time>1970-01-01T09:14:53.000Z</time>
      </trkpt>
      <trkpt lat="42.663039" lon="0.660278">
        <ele>2213.7</ele>
        <time>1970-01-01T09:14:54.000Z</time>
      </trkpt>
      <trkpt lat="42.663039" lon="0.660278">
        <ele>2213.7</ele>
        <time>1970-01-01T09:14:55.000Z</time>
      </trkpt>
      <trkpt lat="42.663039" lon="0.660278">
        <ele>2213.7</ele>
        <time>1970-01-01T09:14:56.000Z</time>
      </trkpt>
      <trkpt lat="42.663039" lon="0.660278">
        <ele>2213.7</ele>
        <time>1970-01-01T09:14:57.000Z</time>
      </trkpt>
      <trkpt lat="42.663039" lon="0.660278">
        <ele>2213.7</ele>
        <time>1970-01-01T09:14:58.000Z</time>
      </trkpt>
      <trkpt lat="42.663039" lon="0.660278">
        <ele>2213.7</ele>
        <time>1970-01-01T09:14:59.000Z</time>
      </trkpt>
      <trkpt lat="42.663038" lon="0.660278">
        <ele>2213.7</ele>
        <time>1970-01-01T09:15:00.000Z</time>
      </trkpt>
      <trkpt lat="42.663034" lon="0.660282">
        <ele>2213.6</ele>
        <time>1970-01-01T09:15:01.000Z</time>
      </trkpt>
      <trkpt lat="42.663032" lon="0.660284">
        <ele>2213.6</ele>
        <time>1970-01-01T09:15:02.000Z</time>
      </trkpt>
      <trkpt lat="42.663032" lon="0.660284">
        <ele>2213.6</ele>
        <time>1970-01-01T09:15:03.000Z</time>
      </trkpt>
      <trkpt lat="42.663032" lon="0.660284">
        <ele>2213.6</ele>
        <time>1970-01-01T09:15:04.000Z</time>
      </trkpt>
      <trkpt lat="42.663032" lon="0.660284">
        <ele>2213.6</ele>
        <time>1970-01-01T09:15:05.000Z</time>
      </trkpt>
      <trkpt lat="42.663033" lon="0.660283">
        <ele>2213.6</ele>
        <time>1970-01-01T09:15:06.000Z</time>
      </trkpt>
      <trkpt lat="42.663034" lon="0.660283">
        <ele>2213.6</ele>
        <time>1970-01-01T09:15:07.000Z</time>
      </trkpt>
      <trkpt lat="42.663033" lon="0.660285">
        <ele>2213.6</ele>
        <time>1970-01-01T09:15:08.000Z</time>
      </trkpt>
      <trkpt lat="42.663031" lon="0.660288">
        <ele>2213.5</ele>
        <time>1970-01-01T09:15:09.000Z</time>
      </trkpt>
      <trkpt lat="42.663027" lon="0.660289">
        <ele>2213.5</ele>
        <time>1970-01-01T09:15:10.000Z</time>
      </trkpt>
      <trkpt lat="42.663026" lon="0.660289">
        <ele>2213.5</ele>
        <time>1970-01-01T09:15:11.000Z</time>
      </trkpt>
      <trkpt lat="42.663026" lon="0.660289">
        <ele>2213.5</ele>
        <time>1970-01-01T09:15:12.000Z</time>
      </trkpt>
      <trkpt lat="42.663026" lon="0.660289">
        <ele>2213.5</ele>
        <time>1970-01-01T09:15:13.000Z</time>
      </trkpt>
      <trkpt lat="42.663026" lon="0.660289">
        <ele>2213.5</ele>
        <time>1970-01-01T09:15:14.000Z</time>
      </trkpt>
      <trkpt lat="42.663026" lon="0.660289">
        <ele>2213.5</ele>
        <time>1970-01-01T09:15:15.000Z</time>
      </trkpt>
      <trkpt lat="42.663026" lon="0.660289">
        <ele>2213.5</ele>
        <time>1970-01-01T09:15:16.000Z</time>
      </trkpt>
      <trkpt lat="42.663026" lon="0.660289">
        <ele>2213.5</ele>
        <time>1970-01-01T09:15:17.000Z</time>
      </trkpt>
      <trkpt lat="42.663026" lon="0.660289">
        <ele>2213.5</ele>
        <time>1970-01-01T09:15:18.000Z</time>
      </trkpt>
      <trkpt lat="42.663025" lon="0.66029">
        <ele>2213.5</ele>
        <time>1970-01-01T09:15:19.000Z</time>
      </trkpt>
      <trkpt lat="42.663025" lon="0.660289">
        <ele>2213.5</ele>
        <time>1970-01-01T09:15:20.000Z</time>
      </trkpt>
      <trkpt lat="42.663027" lon="0.66029">
        <ele>2213.4</ele>
        <time>1970-01-01T09:15:21.000Z</time>
      </trkpt>
      <trkpt lat="42.663027" lon="0.660291">
        <ele>2213.4</ele>
        <time>1970-01-01T09:15:22.000Z</time>
      </trkpt>
      <trkpt lat="42.663027" lon="0.660291">
        <ele>2213.4</ele>
        <time>1970-01-01T09:15:23.000Z</time>
      </trkpt>
      <trkpt lat="42.663028" lon="0.660292">
        <ele>2213.4</ele>
        <time>1970-01-01T09:15:24.000Z</time>
      </trkpt>
      <trkpt lat="42.663028" lon="0.660292">
        <ele>2213.4</ele>
        <time>1970-01-01T09:15:25.000Z</time>
      </trkpt>
      <trkpt lat="42.663028" lon="0.660292">
        <ele>2213.4</ele>
        <time>1970-01-01T09:15:26.000Z</time>
      </trkpt>
      <trkpt lat="42.663028" lon="0.660292">
        <ele>2213.4</ele>
        <time>1970-01-01T09:15:27.000Z</time>
      </trkpt>
      <trkpt lat="42.663028" lon="0.660292">
        <ele>2213.4</ele>
        <time>1970-01-01T09:15:28.000Z</time>
      </trkpt>
      <trkpt lat="42.663028" lon="0.660292">
        <ele>2213.4</ele>
        <time>1970-01-01T09:15:29.000Z</time>
      </trkpt>
      <trkpt lat="42.663028" lon="0.660292">
        <ele>2213.4</ele>
        <time>1970-01-01T09:15:30.000Z</time>
      </trkpt>
      <trkpt lat="42.663028" lon="0.660292">
        <ele>2213.4</ele>
        <time>1970-01-01T09:15:31.000Z</time>
      </trkpt>
      <trkpt lat="42.663028" lon="0.660292">
        <ele>2213.4</ele>
        <time>1970-01-01T09:15:32.000Z</time>
      </trkpt>
      <trkpt lat="42.663028" lon="0.660292">
        <ele>2213.4</ele>
        <time>1970-01-01T09:15:33.000Z</time>
      </trkpt>
      <trkpt lat="42.663028" lon="0.660292">
        <ele>2213.4</ele>
        <time>1970-01-01T09:15:34.000Z</time>
      </trkpt>
      <trkpt lat="42.663028" lon="0.660292">
        <ele>2213.4</ele>
        <time>1970-01-01T09:15:35.000Z</time>
      </trkpt>
      <trkpt lat="42.663028" lon="0.660292">
        <ele>2213.4</ele>
        <time>1970-01-01T09:15:36.000Z</time>
      </trkpt>
      <trkpt lat="42.663028" lon="0.660292">
        <ele>2213.4</ele>
        <time>1970-01-01T09:15:37.000Z</time>
      </trkpt>
      <trkpt lat="42.663028" lon="0.660292">
        <ele>2213.4</ele>
        <time>1970-01-01T09:15:38.000Z</time>
      </trkpt>
      <trkpt lat="42.663028" lon="0.660292">
        <ele>2213.4</ele>
        <time>1970-01-01T09:15:39.000Z</time>
      </trkpt>
      <trkpt lat="42.663028" lon="0.660292">
        <ele>2213.4</ele>
        <time>1970-01-01T09:15:40.000Z</time>
      </trkpt>
      <trkpt lat="42.663028" lon="0.660292">
        <ele>2213.4</ele>
        <time>1970-01-01T09:15:41.000Z</time>
      </trkpt>
      <trkpt lat="42.663028" lon="0.660292">
        <ele>2213.4</ele>
        <time>1970-01-01T09:15:42.000Z</time>
      </trkpt>
      <trkpt lat="42.663028" lon="0.660292">
        <ele>2213.4</ele>
        <time>1970-01-01T09:15:43.000Z</time>
      </trkpt>
      <trkpt lat="42.663028" lon="0.660292">
        <ele>2213.4</ele>
        <time>1970-01-01T09:15:44.000Z</time>
      </trkpt>
      <trkpt lat="42.663028" lon="0.660292">
        <ele>2213.4</ele>
        <time>1970-01-01T09:15:45.000Z</time>
      </trkpt>
      <trkpt lat="42.663028" lon="0.660292">
        <ele>2213.4</ele>
        <time>1970-01-01T09:15:46.000Z</time>
      </trkpt>
      <trkpt lat="42.663028" lon="0.660292">
        <ele>2213.4</ele>
        <time>1970-01-01T09:15:47.000Z</time>
      </trkpt>
      <trkpt lat="42.663028" lon="0.660292">
        <ele>2213.4</ele>
        <time>1970-01-01T09:15:48.000Z</time>
      </trkpt>
      <trkpt lat="42.663028" lon="0.660292">
        <ele>2213.4</ele>
        <time>1970-01-01T09:15:49.000Z</time>
      </trkpt>
      <trkpt lat="42.663028" lon="0.660292">
        <ele>2213.4</ele>
        <time>1970-01-01T09:15:50.000Z</time>
      </trkpt>
      <trkpt lat="42.663028" lon="0.660292">
        <ele>2213.4</ele>
        <time>1970-01-01T09:15:51.000Z</time>
      </trkpt>
      <trkpt lat="42.663028" lon="0.660292">
        <ele>2213.4</ele>
        <time>1970-01-01T09:15:52.000Z</time>
      </trkpt>
      <trkpt lat="42.663028" lon="0.660292">
        <ele>2213.4</ele>
        <time>1970-01-01T09:15:53.000Z</time>
      </trkpt>
      <trkpt lat="42.663028" lon="0.660292">
        <ele>2213.4</ele>
        <time>1970-01-01T09:15:54.000Z</time>
      </trkpt>
      <trkpt lat="42.663028" lon="0.660292">
        <ele>2213.4</ele>
        <time>1970-01-01T09:15:55.000Z</time>
      </trkpt>
      <trkpt lat="42.663028" lon="0.660292">
        <ele>2213.4</ele>
        <time>1970-01-01T09:15:56.000Z</time>
      </trkpt>
      <trkpt lat="42.663028" lon="0.660292">
        <ele>2213.4</ele>
        <time>1970-01-01T09:15:57.000Z</time>
      </trkpt>
      <trkpt lat="42.663028" lon="0.660292">
        <ele>2213.4</ele>
        <time>1970-01-01T09:15:58.000Z</time>
      </trkpt>
      <trkpt lat="42.663028" lon="0.660292">
        <ele>2213.4</ele>
        <time>1970-01-01T09:15:59.000Z</time>
      </trkpt>
      <trkpt lat="42.663028" lon="0.660292">
        <ele>2213.4</ele>
        <time>1970-01-01T09:16:00.000Z</time>
      </trkpt>
      <trkpt lat="42.663031" lon="0.660293">
        <ele>2213.4</ele>
        <time>1970-01-01T09:16:01.000Z</time>
      </trkpt>
      <trkpt lat="42.663033" lon="0.660294">
        <ele>2213.4</ele>
        <time>1970-01-01T09:16:02.000Z</time>
      </trkpt>
      <trkpt lat="42.663033" lon="0.660294">
        <ele>2213.4</ele>
        <time>1970-01-01T09:16:03.000Z</time>
      </trkpt>
      <trkpt lat="42.663033" lon="0.660295">
        <ele>2213.4</ele>
        <time>1970-01-01T09:16:04.000Z</time>
      </trkpt>
      <trkpt lat="42.663033" lon="0.660294">
        <ele>2213.4</ele>
        <time>1970-01-01T09:16:05.000Z</time>
      </trkpt>
      <trkpt lat="42.663033" lon="0.660294">
        <ele>2213.4</ele>
        <time>1970-01-01T09:16:06.000Z</time>
      </trkpt>
      <trkpt lat="42.663033" lon="0.660294">
        <ele>2213.4</ele>
        <time>1970-01-01T09:16:07.000Z</time>
      </trkpt>
      <trkpt lat="42.663033" lon="0.660294">
        <ele>2213.4</ele>
        <time>1970-01-01T09:16:08.000Z</time>
      </trkpt>
      <trkpt lat="42.663033" lon="0.660294">
        <ele>2213.4</ele>
        <time>1970-01-01T09:16:09.000Z</time>
      </trkpt>
      <trkpt lat="42.663033" lon="0.660294">
        <ele>2213.4</ele>
        <time>1970-01-01T09:16:10.000Z</time>
      </trkpt>
      <trkpt lat="42.663034" lon="0.660295">
        <ele>2213.3</ele>
        <time>1970-01-01T09:16:11.000Z</time>
      </trkpt>
      <trkpt lat="42.663034" lon="0.660295">
        <ele>2213.3</ele>
        <time>1970-01-01T09:16:12.000Z</time>
      </trkpt>
      <trkpt lat="42.663034" lon="0.660295">
        <ele>2213.3</ele>
        <time>1970-01-01T09:16:13.000Z</time>
      </trkpt>
      <trkpt lat="42.663034" lon="0.660295">
        <ele>2213.3</ele>
        <time>1970-01-01T09:16:14.000Z</time>
      </trkpt>
      <trkpt lat="42.663034" lon="0.660295">
        <ele>2213.3</ele>
        <time>1970-01-01T09:16:15.000Z</time>
      </trkpt>
      <trkpt lat="42.663034" lon="0.660295">
        <ele>2213.3</ele>
        <time>1970-01-01T09:16:16.000Z</time>
      </trkpt>
      <trkpt lat="42.663034" lon="0.660295">
        <ele>2213.3</ele>
        <time>1970-01-01T09:16:17.000Z</time>
      </trkpt>
      <trkpt lat="42.663034" lon="0.660295">
        <ele>2213.3</ele>
        <time>1970-01-01T09:16:18.000Z</time>
      </trkpt>
      <trkpt lat="42.663034" lon="0.660295">
        <ele>2213.3</ele>
        <time>1970-01-01T09:16:19.000Z</time>
      </trkpt>
      <trkpt lat="42.663034" lon="0.660295">
        <ele>2213.3</ele>
        <time>1970-01-01T09:16:20.000Z</time>
      </trkpt>
      <trkpt lat="42.663034" lon="0.660295">
        <ele>2213.3</ele>
        <time>1970-01-01T09:16:21.000Z</time>
      </trkpt>
      <trkpt lat="42.663034" lon="0.660295">
        <ele>2213.3</ele>
        <time>1970-01-01T09:16:22.000Z</time>
      </trkpt>
      <trkpt lat="42.663034" lon="0.660295">
        <ele>2213.3</ele>
        <time>1970-01-01T09:16:23.000Z</time>
      </trkpt>
      <trkpt lat="42.663034" lon="0.660295">
        <ele>2213.3</ele>
        <time>1970-01-01T09:16:24.000Z</time>
      </trkpt>
      <trkpt lat="42.663034" lon="0.660295">
        <ele>2213.3</ele>
        <time>1970-01-01T09:16:25.000Z</time>
      </trkpt>
      <trkpt lat="42.663034" lon="0.660295">
        <ele>2213.3</ele>
        <time>1970-01-01T09:16:26.000Z</time>
      </trkpt>
      <trkpt lat="42.663034" lon="0.660295">
        <ele>2213.3</ele>
        <time>1970-01-01T09:16:27.000Z</time>
      </trkpt>
      <trkpt lat="42.663034" lon="0.660295">
        <ele>2213.3</ele>
        <time>1970-01-01T09:16:28.000Z</time>
      </trkpt>
      <trkpt lat="42.663034" lon="0.660294">
        <ele>2213.3</ele>
        <time>1970-01-01T09:16:29.000Z</time>
      </trkpt>
      <trkpt lat="42.663034" lon="0.660294">
        <ele>2213.3</ele>
        <time>1970-01-01T09:16:30.000Z</time>
      </trkpt>
      <trkpt lat="42.663034" lon="0.660294">
        <ele>2213.3</ele>
        <time>1970-01-01T09:16:31.000Z</time>
      </trkpt>
      <trkpt lat="42.663034" lon="0.660294">
        <ele>2213.3</ele>
        <time>1970-01-01T09:16:32.000Z</time>
      </trkpt>
      <trkpt lat="42.663034" lon="0.660294">
        <ele>2213.3</ele>
        <time>1970-01-01T09:16:33.000Z</time>
      </trkpt>
      <trkpt lat="42.663034" lon="0.660294">
        <ele>2213.3</ele>
        <time>1970-01-01T09:16:34.000Z</time>
      </trkpt>
      <trkpt lat="42.663034" lon="0.660294">
        <ele>2213.3</ele>
        <time>1970-01-01T09:16:35.000Z</time>
      </trkpt>
      <trkpt lat="42.663034" lon="0.660294">
        <ele>2213.3</ele>
        <time>1970-01-01T09:16:36.000Z</time>
      </trkpt>
      <trkpt lat="42.663034" lon="0.660294">
        <ele>2213.3</ele>
        <time>1970-01-01T09:16:37.000Z</time>
      </trkpt>
      <trkpt lat="42.663034" lon="0.660294">
        <ele>2213.3</ele>
        <time>1970-01-01T09:16:38.000Z</time>
      </trkpt>
      <trkpt lat="42.663034" lon="0.660294">
        <ele>2213.3</ele>
        <time>1970-01-01T09:16:39.000Z</time>
      </trkpt>
      <trkpt lat="42.663034" lon="0.660294">
        <ele>2213.3</ele>
        <time>1970-01-01T09:16:40.000Z</time>
      </trkpt>
      <trkpt lat="42.663034" lon="0.660294">
        <ele>2213.3</ele>
        <time>1970-01-01T09:16:41.000Z</time>
      </trkpt>
      <trkpt lat="42.663033" lon="0.660294">
        <ele>2213.3</ele>
        <time>1970-01-01T09:16:42.000Z</time>
      </trkpt>
      <trkpt lat="42.663033" lon="0.660294">
        <ele>2213.3</ele>
        <time>1970-01-01T09:16:43.000Z</time>
      </trkpt>
      <trkpt lat="42.663033" lon="0.660294">
        <ele>2213.3</ele>
        <time>1970-01-01T09:16:44.000Z</time>
      </trkpt>
      <trkpt lat="42.663033" lon="0.660294">
        <ele>2213.3</ele>
        <time>1970-01-01T09:16:45.000Z</time>
      </trkpt>
      <trkpt lat="42.663033" lon="0.660294">
        <ele>2213.3</ele>
        <time>1970-01-01T09:16:46.000Z</time>
      </trkpt>
      <trkpt lat="42.663033" lon="0.660294">
        <ele>2213.3</ele>
        <time>1970-01-01T09:16:47.000Z</time>
      </trkpt>
      <trkpt lat="42.663033" lon="0.660294">
        <ele>2213.3</ele>
        <time>1970-01-01T09:16:48.000Z</time>
      </trkpt>
      <trkpt lat="42.663033" lon="0.660294">
        <ele>2213.3</ele>
        <time>1970-01-01T09:16:49.000Z</time>
      </trkpt>
      <trkpt lat="42.663033" lon="0.660294">
        <ele>2213.3</ele>
        <time>1970-01-01T09:16:50.000Z</time>
      </trkpt>
      <trkpt lat="42.663033" lon="0.660294">
        <ele>2213.3</ele>
        <time>1970-01-01T09:16:51.000Z</time>
      </trkpt>
      <trkpt lat="42.663033" lon="0.660294">
        <ele>2213.3</ele>
        <time>1970-01-01T09:16:52.000Z</time>
      </trkpt>
      <trkpt lat="42.663033" lon="0.660294">
        <ele>2213.3</ele>
        <time>1970-01-01T09:16:53.000Z</time>
      </trkpt>
      <trkpt lat="42.663033" lon="0.660296">
        <ele>2213.3</ele>
        <time>1970-01-01T09:16:54.000Z</time>
      </trkpt>
      <trkpt lat="42.663033" lon="0.660296">
        <ele>2213.3</ele>
        <time>1970-01-01T09:16:55.000Z</time>
      </trkpt>
      <trkpt lat="42.663034" lon="0.660291">
        <ele>2213.3</ele>
        <time>1970-01-01T09:16:56.000Z</time>
      </trkpt>
      <trkpt lat="42.663032" lon="0.660289">
        <ele>2213.2</ele>
        <time>1970-01-01T09:16:57.000Z</time>
      </trkpt>
      <trkpt lat="42.663031" lon="0.660289">
        <ele>2213.2</ele>
        <time>1970-01-01T09:16:58.000Z</time>
      </trkpt>
      <trkpt lat="42.663031" lon="0.660288">
        <ele>2213.2</ele>
        <time>1970-01-01T09:16:59.000Z</time>
      </trkpt>
      <trkpt lat="42.66303" lon="0.660288">
        <ele>2213.2</ele>
        <time>1970-01-01T09:17:00.000Z</time>
      </trkpt>
      <trkpt lat="42.663029" lon="0.660286">
        <ele>2213.2</ele>
        <time>1970-01-01T09:17:02.000Z</time>
      </trkpt>
      <trkpt lat="42.663029" lon="0.660284">
        <ele>2213.2</ele>
        <time>1970-01-01T09:17:03.000Z</time>
      </trkpt>
      <trkpt lat="42.663032" lon="0.660283">
        <ele>2213.1</ele>
        <time>1970-01-01T09:17:04.000Z</time>
      </trkpt>
      <trkpt lat="42.663033" lon="0.66028">
        <ele>2213.1</ele>
        <time>1970-01-01T09:17:05.000Z</time>
      </trkpt>
      <trkpt lat="42.663034" lon="0.660279">
        <ele>2213.1</ele>
        <time>1970-01-01T09:17:06.000Z</time>
      </trkpt>
      <trkpt lat="42.663038" lon="0.660276">
        <ele>2213.1</ele>
        <time>1970-01-01T09:17:07.000Z</time>
      </trkpt>
      <trkpt lat="42.663049" lon="0.660272">
        <ele>2212.9</ele>
        <time>1970-01-01T09:17:08.000Z</time>
      </trkpt>
      <trkpt lat="42.663059" lon="0.660268">
        <ele>2212.8</ele>
        <time>1970-01-01T09:17:10.000Z</time>
      </trkpt>
      <trkpt lat="42.663065" lon="0.660266">
        <ele>2212.8</ele>
        <time>1970-01-01T09:17:11.000Z</time>
      </trkpt>
      <trkpt lat="42.66307" lon="0.660264">
        <ele>2212.7</ele>
        <time>1970-01-01T09:17:12.000Z</time>
      </trkpt>
      <trkpt lat="42.663071" lon="0.660264">
        <ele>2212.7</ele>
        <time>1970-01-01T09:17:13.000Z</time>
      </trkpt>
      <trkpt lat="42.663073" lon="0.660263">
        <ele>2212.7</ele>
        <time>1970-01-01T09:17:14.000Z</time>
      </trkpt>
      <trkpt lat="42.663076" lon="0.660261">
        <ele>2212.6</ele>
        <time>1970-01-01T09:17:16.000Z</time>
      </trkpt>
      <trkpt lat="42.663077" lon="0.66026">
        <ele>2212.6</ele>
        <time>1970-01-01T09:17:17.000Z</time>
      </trkpt>
      <trkpt lat="42.663081" lon="0.660256">
        <ele>2212.6</ele>
        <time>1970-01-01T09:17:18.000Z</time>
      </trkpt>
      <trkpt lat="42.663088" lon="0.660247">
        <ele>2212.5</ele>
        <time>1970-01-01T09:17:19.000Z</time>
      </trkpt>
      <trkpt lat="42.663102" lon="0.660239">
        <ele>2212.3</ele>
        <time>1970-01-01T09:17:21.000Z</time>
      </trkpt>
      <trkpt lat="42.663115" lon="0.660236">
        <ele>2212.2</ele>
        <time>1970-01-01T09:17:22.000Z</time>
      </trkpt>
      <trkpt lat="42.663124" lon="0.660238">
        <ele>2212.1</ele>
        <time>1970-01-01T09:17:23.000Z</time>
      </trkpt>
      <trkpt lat="42.663128" lon="0.660239">
        <ele>2212</ele>
        <time>1970-01-01T09:17:24.000Z</time>
      </trkpt>
      <trkpt lat="42.663133" lon="0.660236">
        <ele>2212</ele>
        <time>1970-01-01T09:17:25.000Z</time>
      </trkpt>
      <trkpt lat="42.663138" lon="0.660233">
        <ele>2211.9</ele>
        <time>1970-01-01T09:17:26.000Z</time>
      </trkpt>
      <trkpt lat="42.663142" lon="0.660231">
        <ele>2211.9</ele>
        <time>1970-01-01T09:17:27.000Z</time>
      </trkpt>
      <trkpt lat="42.663147" lon="0.660228">
        <ele>2211.8</ele>
        <time>1970-01-01T09:17:28.000Z</time>
      </trkpt>
      <trkpt lat="42.663149" lon="0.660226">
        <ele>2211.8</ele>
        <time>1970-01-01T09:17:29.000Z</time>
      </trkpt>
      <trkpt lat="42.663153" lon="0.660217">
        <ele>2211.7</ele>
        <time>1970-01-01T09:17:30.000Z</time>
      </trkpt>
      <trkpt lat="42.663157" lon="0.660207">
        <ele>2211.6</ele>
        <time>1970-01-01T09:17:32.000Z</time>
      </trkpt>
      <trkpt lat="42.663159" lon="0.6602">
        <ele>2211.5</ele>
        <time>1970-01-01T09:17:33.000Z</time>
      </trkpt>
      <trkpt lat="42.66316" lon="0.660197">
        <ele>2211.5</ele>
        <time>1970-01-01T09:17:34.000Z</time>
      </trkpt>
      <trkpt lat="42.663162" lon="0.660197">
        <ele>2211.5</ele>
        <time>1970-01-01T09:17:35.000Z</time>
      </trkpt>
      <trkpt lat="42.663162" lon="0.6602">
        <ele>2211.5</ele>
        <time>1970-01-01T09:17:36.000Z</time>
      </trkpt>
      <trkpt lat="42.66316" lon="0.660201">
        <ele>2211.4</ele>
        <time>1970-01-01T09:17:37.000Z</time>
      </trkpt>
      <trkpt lat="42.66316" lon="0.660202">
        <ele>2211.4</ele>
        <time>1970-01-01T09:17:38.000Z</time>
      </trkpt>
      <trkpt lat="42.663161" lon="0.660201">
        <ele>2211.4</ele>
        <time>1970-01-01T09:17:39.000Z</time>
      </trkpt>
      <trkpt lat="42.663162" lon="0.660198">
        <ele>2211.4</ele>
        <time>1970-01-01T09:17:40.000Z</time>
      </trkpt>
      <trkpt lat="42.663162" lon="0.660197">
        <ele>2211.4</ele>
        <time>1970-01-01T09:17:41.000Z</time>
      </trkpt>
      <trkpt lat="42.663162" lon="0.660199">
        <ele>2211.4</ele>
        <time>1970-01-01T09:17:42.000Z</time>
      </trkpt>
      <trkpt lat="42.663162" lon="0.6602">
        <ele>2211.4</ele>
        <time>1970-01-01T09:17:43.000Z</time>
      </trkpt>
      <trkpt lat="42.663162" lon="0.6602">
        <ele>2211.4</ele>
        <time>1970-01-01T09:17:44.000Z</time>
      </trkpt>
      <trkpt lat="42.663161" lon="0.660201">
        <ele>2211.3</ele>
        <time>1970-01-01T09:17:45.000Z</time>
      </trkpt>
      <trkpt lat="42.663161" lon="0.660201">
        <ele>2211.3</ele>
        <time>1970-01-01T09:17:46.000Z</time>
      </trkpt>
      <trkpt lat="42.663161" lon="0.660201">
        <ele>2211.3</ele>
        <time>1970-01-01T09:17:47.000Z</time>
      </trkpt>
      <trkpt lat="42.663161" lon="0.6602">
        <ele>2211.3</ele>
        <time>1970-01-01T09:17:48.000Z</time>
      </trkpt>
      <trkpt lat="42.663161" lon="0.660199">
        <ele>2211.3</ele>
        <time>1970-01-01T09:17:49.000Z</time>
      </trkpt>
      <trkpt lat="42.663161" lon="0.660199">
        <ele>2211.3</ele>
        <time>1970-01-01T09:17:50.000Z</time>
      </trkpt>
      <trkpt lat="42.663163" lon="0.660196">
        <ele>2211.2</ele>
        <time>1970-01-01T09:17:51.000Z</time>
      </trkpt>
      <trkpt lat="42.663166" lon="0.660191">
        <ele>2211.2</ele>
        <time>1970-01-01T09:17:52.000Z</time>
      </trkpt>
      <trkpt lat="42.663169" lon="0.660188">
        <ele>2211.1</ele>
        <time>1970-01-01T09:17:53.000Z</time>
      </trkpt>
      <trkpt lat="42.66317" lon="0.660186">
        <ele>2211.1</ele>
        <time>1970-01-01T09:17:54.000Z</time>
      </trkpt>
      <trkpt lat="42.663178" lon="0.660178">
        <ele>2211</ele>
        <time>1970-01-01T09:17:55.000Z</time>
      </trkpt>
      <trkpt lat="42.66318" lon="0.660163">
        <ele>2210.8</ele>
        <time>1970-01-01T09:17:57.000Z</time>
      </trkpt>
      <trkpt lat="42.663183" lon="0.660146">
        <ele>2210.7</ele>
        <time>1970-01-01T09:17:58.000Z</time>
      </trkpt>
      <trkpt lat="42.663186" lon="0.660131">
        <ele>2210.6</ele>
        <time>1970-01-01T09:17:59.000Z</time>
      </trkpt>
      <trkpt lat="42.663184" lon="0.660115">
        <ele>2210.4</ele>
        <time>1970-01-01T09:18:01.000Z</time>
      </trkpt>
      <trkpt lat="42.663176" lon="0.660103">
        <ele>2210.2</ele>
        <time>1970-01-01T09:18:02.000Z</time>
      </trkpt>
      <trkpt lat="42.663168" lon="0.660098">
        <ele>2210.1</ele>
        <time>1970-01-01T09:18:03.000Z</time>
      </trkpt>
      <trkpt lat="42.663157" lon="0.660091">
        <ele>2210</ele>
        <time>1970-01-01T09:18:05.000Z</time>
      </trkpt>
      <trkpt lat="42.663148" lon="0.660066">
        <ele>2209.7</ele>
        <time>1970-01-01T09:18:06.000Z</time>
      </trkpt>
      <trkpt lat="42.66315" lon="0.660054">
        <ele>2209.5</ele>
        <time>1970-01-01T09:18:07.000Z</time>
      </trkpt>
      <trkpt lat="42.663155" lon="0.660049">
        <ele>2209.4</ele>
        <time>1970-01-01T09:18:08.000Z</time>
      </trkpt>
      <trkpt lat="42.663159" lon="0.660044">
        <ele>2209.3</ele>
        <time>1970-01-01T09:18:10.000Z</time>
      </trkpt>
      <trkpt lat="42.663164" lon="0.660039">
        <ele>2209.2</ele>
        <time>1970-01-01T09:18:11.000Z</time>
      </trkpt>
      <trkpt lat="42.663168" lon="0.660034">
        <ele>2209.1</ele>
        <time>1970-01-01T09:18:12.000Z</time>
      </trkpt>
      <trkpt lat="42.663173" lon="0.660029">
        <ele>2209</ele>
        <time>1970-01-01T09:18:13.000Z</time>
      </trkpt>
      <trkpt lat="42.663188" lon="0.660028">
        <ele>2208.8</ele>
        <time>1970-01-01T09:18:14.000Z</time>
      </trkpt>
      <trkpt lat="42.663196" lon="0.660024">
        <ele>2208.6</ele>
        <time>1970-01-01T09:18:15.000Z</time>
      </trkpt>
      <trkpt lat="42.663197" lon="0.66002">
        <ele>2208.6</ele>
        <time>1970-01-01T09:18:16.000Z</time>
      </trkpt>
      <trkpt lat="42.663201" lon="0.660014">
        <ele>2208.5</ele>
        <time>1970-01-01T09:18:17.000Z</time>
      </trkpt>
      <trkpt lat="42.663208" lon="0.660003">
        <ele>2208.3</ele>
        <time>1970-01-01T09:18:19.000Z</time>
      </trkpt>
      <trkpt lat="42.663217" lon="0.660004">
        <ele>2208.1</ele>
        <time>1970-01-01T09:18:20.000Z</time>
      </trkpt>
      <trkpt lat="42.663224" lon="0.660004">
        <ele>2208</ele>
        <time>1970-01-01T09:18:21.000Z</time>
      </trkpt>
      <trkpt lat="42.663228" lon="0.659998">
        <ele>2207.9</ele>
        <time>1970-01-01T09:18:23.000Z</time>
      </trkpt>
      <trkpt lat="42.663226" lon="0.659997">
        <ele>2207.9</ele>
        <time>1970-01-01T09:18:24.000Z</time>
      </trkpt>
      <trkpt lat="42.663225" lon="0.659995">
        <ele>2207.8</ele>
        <time>1970-01-01T09:18:25.000Z</time>
      </trkpt>
      <trkpt lat="42.663225" lon="0.659992">
        <ele>2207.7</ele>
        <time>1970-01-01T09:18:26.000Z</time>
      </trkpt>
      <trkpt lat="42.663225" lon="0.659993">
        <ele>2207.7</ele>
        <time>1970-01-01T09:18:27.000Z</time>
      </trkpt>
      <trkpt lat="42.663224" lon="0.659996">
        <ele>2207.7</ele>
        <time>1970-01-01T09:18:28.000Z</time>
      </trkpt>
      <trkpt lat="42.663222" lon="0.659999">
        <ele>2207.6</ele>
        <time>1970-01-01T09:18:29.000Z</time>
      </trkpt>
      <trkpt lat="42.663222" lon="0.660001">
        <ele>2207.6</ele>
        <time>1970-01-01T09:18:30.000Z</time>
      </trkpt>
      <trkpt lat="42.663221" lon="0.660003">
        <ele>2207.6</ele>
        <time>1970-01-01T09:18:31.000Z</time>
      </trkpt>
      <trkpt lat="42.66322" lon="0.660004">
        <ele>2207.5</ele>
        <time>1970-01-01T09:18:32.000Z</time>
      </trkpt>
      <trkpt lat="42.663219" lon="0.660004">
        <ele>2207.5</ele>
        <time>1970-01-01T09:18:33.000Z</time>
      </trkpt>
      <trkpt lat="42.66322" lon="0.660004">
        <ele>2207.5</ele>
        <time>1970-01-01T09:18:34.000Z</time>
      </trkpt>
      <trkpt lat="42.66322" lon="0.660005">
        <ele>2207.5</ele>
        <time>1970-01-01T09:18:35.000Z</time>
      </trkpt>
      <trkpt lat="42.663221" lon="0.660006">
        <ele>2207.5</ele>
        <time>1970-01-01T09:18:36.000Z</time>
      </trkpt>
      <trkpt lat="42.66322" lon="0.660006">
        <ele>2207.4</ele>
        <time>1970-01-01T09:18:37.000Z</time>
      </trkpt>
      <trkpt lat="42.663219" lon="0.660006">
        <ele>2207.4</ele>
        <time>1970-01-01T09:18:38.000Z</time>
      </trkpt>
      <trkpt lat="42.663219" lon="0.660006">
        <ele>2207.4</ele>
        <time>1970-01-01T09:18:39.000Z</time>
      </trkpt>
      <trkpt lat="42.663221" lon="0.660008">
        <ele>2207.3</ele>
        <time>1970-01-01T09:18:41.000Z</time>
      </trkpt>
      <trkpt lat="42.663226" lon="0.660009">
        <ele>2207.2</ele>
        <time>1970-01-01T09:18:42.000Z</time>
      </trkpt>
      <trkpt lat="42.66323" lon="0.660018">
        <ele>2207.1</ele>
        <time>1970-01-01T09:18:43.000Z</time>
      </trkpt>
      <trkpt lat="42.663229" lon="0.660011">
        <ele>2207</ele>
        <time>1970-01-01T09:18:44.000Z</time>
      </trkpt>
      <trkpt lat="42.66323" lon="0.660003">
        <ele>2206.8</ele>
        <time>1970-01-01T09:18:45.000Z</time>
      </trkpt>
      <trkpt lat="42.663232" lon="0.659997">
        <ele>2206.7</ele>
        <time>1970-01-01T09:18:46.000Z</time>
      </trkpt>
      <trkpt lat="42.663237" lon="0.659992">
        <ele>2206.6</ele>
        <time>1970-01-01T09:18:48.000Z</time>
      </trkpt>
      <trkpt lat="42.663242" lon="0.659985">
        <ele>2206.4</ele>
        <time>1970-01-01T09:18:49.000Z</time>
      </trkpt>
      <trkpt lat="42.663247" lon="0.659981">
        <ele>2206.3</ele>
        <time>1970-01-01T09:18:50.000Z</time>
      </trkpt>
      <trkpt lat="42.663255" lon="0.659979">
        <ele>2206.1</ele>
        <time>1970-01-01T09:18:51.000Z</time>
      </trkpt>
      <trkpt lat="42.66326" lon="0.659969">
        <ele>2205.9</ele>
        <time>1970-01-01T09:18:53.000Z</time>
      </trkpt>
      <trkpt lat="42.663259" lon="0.659955">
        <ele>2205.7</ele>
        <time>1970-01-01T09:18:54.000Z</time>
      </trkpt>
      <trkpt lat="42.663256" lon="0.659945">
        <ele>2205.5</ele>
        <time>1970-01-01T09:18:55.000Z</time>
      </trkpt>
      <trkpt lat="42.663253" lon="0.659934">
        <ele>2205.4</ele>
        <time>1970-01-01T09:18:56.000Z</time>
      </trkpt>
      <trkpt lat="42.663249" lon="0.659923">
        <ele>2205.2</ele>
        <time>1970-01-01T09:18:57.000Z</time>
      </trkpt>
      <trkpt lat="42.663245" lon="0.659913">
        <ele>2205</ele>
        <time>1970-01-01T09:18:58.000Z</time>
      </trkpt>
      <trkpt lat="42.66324" lon="0.659907">
        <ele>2204.9</ele>
        <time>1970-01-01T09:18:59.000Z</time>
      </trkpt>
      <trkpt lat="42.663229" lon="0.659895">
        <ele>2204.6</ele>
        <time>1970-01-01T09:19:01.000Z</time>
      </trkpt>
      <trkpt lat="42.663223" lon="0.659879">
        <ele>2204.3</ele>
        <time>1970-01-01T09:19:02.000Z</time>
      </trkpt>
      <trkpt lat="42.663224" lon="0.65988">
        <ele>2204.3</ele>
        <time>1970-01-01T09:19:03.000Z</time>
      </trkpt>
      <trkpt lat="42.663224" lon="0.659874">
        <ele>2204.2</ele>
        <time>1970-01-01T09:19:05.000Z</time>
      </trkpt>
      <trkpt lat="42.663224" lon="0.659874">
        <ele>2204.2</ele>
        <time>1970-01-01T09:19:06.000Z</time>
      </trkpt>
      <trkpt lat="42.663225" lon="0.65987">
        <ele>2204.1</ele>
        <time>1970-01-01T09:19:07.000Z</time>
      </trkpt>
      <trkpt lat="42.663229" lon="0.659867">
        <ele>2204</ele>
        <time>1970-01-01T09:19:08.000Z</time>
      </trkpt>
      <trkpt lat="42.663234" lon="0.659861">
        <ele>2203.8</ele>
        <time>1970-01-01T09:19:10.000Z</time>
      </trkpt>
      <trkpt lat="42.663239" lon="0.65986">
        <ele>2203.7</ele>
        <time>1970-01-01T09:19:11.000Z</time>
      </trkpt>
      <trkpt lat="42.663242" lon="0.65986">
        <ele>2203.6</ele>
        <time>1970-01-01T09:19:12.000Z</time>
      </trkpt>
      <trkpt lat="42.663248" lon="0.659863">
        <ele>2203.5</ele>
        <time>1970-01-01T09:19:13.000Z</time>
      </trkpt>
      <trkpt lat="42.663257" lon="0.659861">
        <ele>2203.3</ele>
        <time>1970-01-01T09:19:14.000Z</time>
      </trkpt>
      <trkpt lat="42.663263" lon="0.659853">
        <ele>2203.1</ele>
        <time>1970-01-01T09:19:16.000Z</time>
      </trkpt>
      <trkpt lat="42.663268" lon="0.659849">
        <ele>2203</ele>
        <time>1970-01-01T09:19:17.000Z</time>
      </trkpt>
      <trkpt lat="42.663274" lon="0.659848">
        <ele>2202.9</ele>
        <time>1970-01-01T09:19:18.000Z</time>
      </trkpt>
      <trkpt lat="42.663284" lon="0.659848">
        <ele>2202.7</ele>
        <time>1970-01-01T09:19:19.000Z</time>
      </trkpt>
      <trkpt lat="42.663289" lon="0.659848">
        <ele>2202.6</ele>
        <time>1970-01-01T09:19:21.000Z</time>
      </trkpt>
      <trkpt lat="42.663294" lon="0.65985">
        <ele>2202.5</ele>
        <time>1970-01-01T09:19:22.000Z</time>
      </trkpt>
      <trkpt lat="42.663299" lon="0.659854">
        <ele>2202.4</ele>
        <time>1970-01-01T09:19:23.000Z</time>
      </trkpt>
      <trkpt lat="42.663305" lon="0.659855">
        <ele>2202.2</ele>
        <time>1970-01-01T09:19:24.000Z</time>
      </trkpt>
      <trkpt lat="42.663308" lon="0.659856">
        <ele>2202.2</ele>
        <time>1970-01-01T09:19:26.000Z</time>
      </trkpt>
      <trkpt lat="42.663311" lon="0.659858">
        <ele>2202.1</ele>
        <time>1970-01-01T09:19:27.000Z</time>
      </trkpt>
      <trkpt lat="42.663314" lon="0.65986">
        <ele>2202</ele>
        <time>1970-01-01T09:19:28.000Z</time>
      </trkpt>
      <trkpt lat="42.663319" lon="0.659861">
        <ele>2201.9</ele>
        <time>1970-01-01T09:19:29.000Z</time>
      </trkpt>
      <trkpt lat="42.663324" lon="0.659861">
        <ele>2201.8</ele>
        <time>1970-01-01T09:19:30.000Z</time>
      </trkpt>
      <trkpt lat="42.663327" lon="0.659861">
        <ele>2201.8</ele>
        <time>1970-01-01T09:19:31.000Z</time>
      </trkpt>
      <trkpt lat="42.663332" lon="0.65986">
        <ele>2201.7</ele>
        <time>1970-01-01T09:19:32.000Z</time>
      </trkpt>
      <trkpt lat="42.663332" lon="0.659862">
        <ele>2201.7</ele>
        <time>1970-01-01T09:19:33.000Z</time>
      </trkpt>
      <trkpt lat="42.663334" lon="0.659863">
        <ele>2201.6</ele>
        <time>1970-01-01T09:19:34.000Z</time>
      </trkpt>
      <trkpt lat="42.663336" lon="0.659864">
        <ele>2201.6</ele>
        <time>1970-01-01T09:19:35.000Z</time>
      </trkpt>
      <trkpt lat="42.663341" lon="0.659867">
        <ele>2201.5</ele>
        <time>1970-01-01T09:19:37.000Z</time>
      </trkpt>
      <trkpt lat="42.663345" lon="0.659868">
        <ele>2201.4</ele>
        <time>1970-01-01T09:19:38.000Z</time>
      </trkpt>
      <trkpt lat="42.663349" lon="0.659872">
        <ele>2201.3</ele>
        <time>1970-01-01T09:19:39.000Z</time>
      </trkpt>
      <trkpt lat="42.663351" lon="0.659875">
        <ele>2201.2</ele>
        <time>1970-01-01T09:19:40.000Z</time>
      </trkpt>
      <trkpt lat="42.663354" lon="0.659876">
        <ele>2201.2</ele>
        <time>1970-01-01T09:19:41.000Z</time>
      </trkpt>
      <trkpt lat="42.663357" lon="0.659878">
        <ele>2201.1</ele>
        <time>1970-01-01T09:19:42.000Z</time>
      </trkpt>
      <trkpt lat="42.66336" lon="0.65988">
        <ele>2201</ele>
        <time>1970-01-01T09:19:43.000Z</time>
      </trkpt>
      <trkpt lat="42.663363" lon="0.659882">
        <ele>2201</ele>
        <time>1970-01-01T09:19:44.000Z</time>
      </trkpt>
      <trkpt lat="42.663369" lon="0.659885">
        <ele>2200.9</ele>
        <time>1970-01-01T09:19:45.000Z</time>
      </trkpt>
      <trkpt lat="42.663384" lon="0.659886">
        <ele>2200.6</ele>
        <time>1970-01-01T09:19:47.000Z</time>
      </trkpt>
      <trkpt lat="42.663394" lon="0.659887">
        <ele>2200.4</ele>
        <time>1970-01-01T09:19:48.000Z</time>
      </trkpt>
      <trkpt lat="42.663403" lon="0.659888">
        <ele>2200.2</ele>
        <time>1970-01-01T09:19:49.000Z</time>
      </trkpt>
      <trkpt lat="42.663412" lon="0.659888">
        <ele>2200</ele>
        <time>1970-01-01T09:19:50.000Z</time>
      </trkpt>
      <trkpt lat="42.66342" lon="0.659891">
        <ele>2199.8</ele>
        <time>1970-01-01T09:19:51.000Z</time>
      </trkpt>
      <trkpt lat="42.663425" lon="0.659892">
        <ele>2199.7</ele>
        <time>1970-01-01T09:19:52.000Z</time>
      </trkpt>
      <trkpt lat="42.663433" lon="0.65989">
        <ele>2199.6</ele>
        <time>1970-01-01T09:19:53.000Z</time>
      </trkpt>
      <trkpt lat="42.66344" lon="0.659891">
        <ele>2199.4</ele>
        <time>1970-01-01T09:19:54.000Z</time>
      </trkpt>
      <trkpt lat="42.663446" lon="0.659892">
        <ele>2199.3</ele>
        <time>1970-01-01T09:19:56.000Z</time>
      </trkpt>
      <trkpt lat="42.663452" lon="0.659891">
        <ele>2199.2</ele>
        <time>1970-01-01T09:19:57.000Z</time>
      </trkpt>
      <trkpt lat="42.663458" lon="0.659894">
        <ele>2199.1</ele>
        <time>1970-01-01T09:19:58.000Z</time>
      </trkpt>
      <trkpt lat="42.663464" lon="0.659896">
        <ele>2199</ele>
        <time>1970-01-01T09:19:59.000Z</time>
      </trkpt>
      <trkpt lat="42.663472" lon="0.659898">
        <ele>2198.8</ele>
        <time>1970-01-01T09:20:01.000Z</time>
      </trkpt>
      <trkpt lat="42.663479" lon="0.659897">
        <ele>2198.7</ele>
        <time>1970-01-01T09:20:02.000Z</time>
      </trkpt>
      <trkpt lat="42.663483" lon="0.659897">
        <ele>2198.6</ele>
        <time>1970-01-01T09:20:03.000Z</time>
      </trkpt>
      <trkpt lat="42.663489" lon="0.659898">
        <ele>2198.5</ele>
        <time>1970-01-01T09:20:04.000Z</time>
      </trkpt>
      <trkpt lat="42.663493" lon="0.659899">
        <ele>2198.4</ele>
        <time>1970-01-01T09:20:05.000Z</time>
      </trkpt>
      <trkpt lat="42.663499" lon="0.659898">
        <ele>2198.3</ele>
        <time>1970-01-01T09:20:06.000Z</time>
      </trkpt>
      <trkpt lat="42.663507" lon="0.659894">
        <ele>2198.1</ele>
        <time>1970-01-01T09:20:08.000Z</time>
      </trkpt>
      <trkpt lat="42.663511" lon="0.659891">
        <ele>2198</ele>
        <time>1970-01-01T09:20:09.000Z</time>
      </trkpt>
      <trkpt lat="42.663525" lon="0.65989">
        <ele>2197.7</ele>
        <time>1970-01-01T09:20:10.000Z</time>
      </trkpt>
      <trkpt lat="42.663532" lon="0.659893">
        <ele>2197.6</ele>
        <time>1970-01-01T09:20:12.000Z</time>
      </trkpt>
      <trkpt lat="42.663535" lon="0.659897">
        <ele>2197.5</ele>
        <time>1970-01-01T09:20:13.000Z</time>
      </trkpt>
      <trkpt lat="42.663539" lon="0.659901">
        <ele>2197.4</ele>
        <time>1970-01-01T09:20:14.000Z</time>
      </trkpt>
      <trkpt lat="42.663555" lon="0.659896">
        <ele>2197</ele>
        <time>1970-01-01T09:20:16.000Z</time>
      </trkpt>
      <trkpt lat="42.663563" lon="0.659886">
        <ele>2196.8</ele>
        <time>1970-01-01T09:20:17.000Z</time>
      </trkpt>
      <trkpt lat="42.663571" lon="0.659881">
        <ele>2196.6</ele>
        <time>1970-01-01T09:20:18.000Z</time>
      </trkpt>
      <trkpt lat="42.663579" lon="0.659878">
        <ele>2196.5</ele>
        <time>1970-01-01T09:20:19.000Z</time>
      </trkpt>
      <trkpt lat="42.663588" lon="0.659882">
        <ele>2196.3</ele>
        <time>1970-01-01T09:20:21.000Z</time>
      </trkpt>
      <trkpt lat="42.663593" lon="0.65989">
        <ele>2196.1</ele>
        <time>1970-01-01T09:20:22.000Z</time>
      </trkpt>
      <trkpt lat="42.6636" lon="0.6599">
        <ele>2195.9</ele>
        <time>1970-01-01T09:20:23.000Z</time>
      </trkpt>
      <trkpt lat="42.66361" lon="0.659911">
        <ele>2195.6</ele>
        <time>1970-01-01T09:20:24.000Z</time>
      </trkpt>
      <trkpt lat="42.663618" lon="0.659912">
        <ele>2195.4</ele>
        <time>1970-01-01T09:20:25.000Z</time>
      </trkpt>
      <trkpt lat="42.663626" lon="0.659908">
        <ele>2195.2</ele>
        <time>1970-01-01T09:20:26.000Z</time>
      </trkpt>
      <trkpt lat="42.663633" lon="0.659908">
        <ele>2195.1</ele>
        <time>1970-01-01T09:20:27.000Z</time>
      </trkpt>
      <trkpt lat="42.663637" lon="0.659911">
        <ele>2195</ele>
        <time>1970-01-01T09:20:28.000Z</time>
      </trkpt>
      <trkpt lat="42.66364" lon="0.659917">
        <ele>2194.9</ele>
        <time>1970-01-01T09:20:29.000Z</time>
      </trkpt>
      <trkpt lat="42.663646" lon="0.659923">
        <ele>2194.7</ele>
        <time>1970-01-01T09:20:30.000Z</time>
      </trkpt>
      <trkpt lat="42.663654" lon="0.659928">
        <ele>2194.5</ele>
        <time>1970-01-01T09:20:31.000Z</time>
      </trkpt>
      <trkpt lat="42.663664" lon="0.65993">
        <ele>2194.3</ele>
        <time>1970-01-01T09:20:32.000Z</time>
      </trkpt>
      <trkpt lat="42.663676" lon="0.659929">
        <ele>2194.1</ele>
        <time>1970-01-01T09:20:34.000Z</time>
      </trkpt>
      <trkpt lat="42.663687" lon="0.659926">
        <ele>2193.8</ele>
        <time>1970-01-01T09:20:35.000Z</time>
      </trkpt>
      <trkpt lat="42.663698" lon="0.659924">
        <ele>2193.6</ele>
        <time>1970-01-01T09:20:36.000Z</time>
      </trkpt>
      <trkpt lat="42.663708" lon="0.659927">
        <ele>2193.4</ele>
        <time>1970-01-01T09:20:37.000Z</time>
      </trkpt>
      <trkpt lat="42.663717" lon="0.65993">
        <ele>2193.2</ele>
        <time>1970-01-01T09:20:38.000Z</time>
      </trkpt>
      <trkpt lat="42.663724" lon="0.659933">
        <ele>2193</ele>
        <time>1970-01-01T09:20:39.000Z</time>
      </trkpt>
      <trkpt lat="42.663729" lon="0.659937">
        <ele>2192.9</ele>
        <time>1970-01-01T09:20:40.000Z</time>
      </trkpt>
      <trkpt lat="42.663735" lon="0.659943">
        <ele>2192.7</ele>
        <time>1970-01-01T09:20:41.000Z</time>
      </trkpt>
      <trkpt lat="42.663744" lon="0.659951">
        <ele>2192.5</ele>
        <time>1970-01-01T09:20:42.000Z</time>
      </trkpt>
      <trkpt lat="42.663751" lon="0.659955">
        <ele>2192.3</ele>
        <time>1970-01-01T09:20:44.000Z</time>
      </trkpt>
      <trkpt lat="42.663757" lon="0.659961">
        <ele>2192.1</ele>
        <time>1970-01-01T09:20:45.000Z</time>
      </trkpt>
      <trkpt lat="42.663764" lon="0.659967">
        <ele>2192</ele>
        <time>1970-01-01T09:20:46.000Z</time>
      </trkpt>
      <trkpt lat="42.66377" lon="0.659974">
        <ele>2191.8</ele>
        <time>1970-01-01T09:20:47.000Z</time>
      </trkpt>
      <trkpt lat="42.663773" lon="0.659979">
        <ele>2191.7</ele>
        <time>1970-01-01T09:20:48.000Z</time>
      </trkpt>
      <trkpt lat="42.663783" lon="0.659989">
        <ele>2191.4</ele>
        <time>1970-01-01T09:20:49.000Z</time>
      </trkpt>
      <trkpt lat="42.66379" lon="0.659991">
        <ele>2191.3</ele>
        <time>1970-01-01T09:20:50.000Z</time>
      </trkpt>
      <trkpt lat="42.663789" lon="0.659988">
        <ele>2191.2</ele>
        <time>1970-01-01T09:20:51.000Z</time>
      </trkpt>
      <trkpt lat="42.663789" lon="0.659988">
        <ele>2191.2</ele>
        <time>1970-01-01T09:20:52.000Z</time>
      </trkpt>
      <trkpt lat="42.663789" lon="0.659989">
        <ele>2191.2</ele>
        <time>1970-01-01T09:20:53.000Z</time>
      </trkpt>
      <trkpt lat="42.663794" lon="0.659993">
        <ele>2191.1</ele>
        <time>1970-01-01T09:20:54.000Z</time>
      </trkpt>
      <trkpt lat="42.663797" lon="0.659996">
        <ele>2191</ele>
        <time>1970-01-01T09:20:55.000Z</time>
      </trkpt>
      <trkpt lat="42.663799" lon="0.659999">
        <ele>2190.9</ele>
        <time>1970-01-01T09:20:56.000Z</time>
      </trkpt>
      <trkpt lat="42.663804" lon="0.660005">
        <ele>2190.8</ele>
        <time>1970-01-01T09:20:57.000Z</time>
      </trkpt>
      <trkpt lat="42.663811" lon="0.660012">
        <ele>2190.6</ele>
        <time>1970-01-01T09:20:58.000Z</time>
      </trkpt>
      <trkpt lat="42.663817" lon="0.660016">
        <ele>2190.4</ele>
        <time>1970-01-01T09:20:59.000Z</time>
      </trkpt>
      <trkpt lat="42.663819" lon="0.660015">
        <ele>2190.4</ele>
        <time>1970-01-01T09:21:00.000Z</time>
      </trkpt>
      <trkpt lat="42.663822" lon="0.660015">
        <ele>2190.3</ele>
        <time>1970-01-01T09:21:01.000Z</time>
      </trkpt>
      <trkpt lat="42.66382" lon="0.660013">
        <ele>2190.3</ele>
        <time>1970-01-01T09:21:02.000Z</time>
      </trkpt>
      <trkpt lat="42.663819" lon="0.660012">
        <ele>2190.2</ele>
        <time>1970-01-01T09:21:03.000Z</time>
      </trkpt>
      <trkpt lat="42.663817" lon="0.660009">
        <ele>2190.2</ele>
        <time>1970-01-01T09:21:04.000Z</time>
      </trkpt>
      <trkpt lat="42.663816" lon="0.660009">
        <ele>2190.1</ele>
        <time>1970-01-01T09:21:05.000Z</time>
      </trkpt>
      <trkpt lat="42.663816" lon="0.66001">
        <ele>2190.1</ele>
        <time>1970-01-01T09:21:06.000Z</time>
      </trkpt>
      <trkpt lat="42.663816" lon="0.660011">
        <ele>2190.1</ele>
        <time>1970-01-01T09:21:07.000Z</time>
      </trkpt>
      <trkpt lat="42.663816" lon="0.660012">
        <ele>2190.1</ele>
        <time>1970-01-01T09:21:08.000Z</time>
      </trkpt>
      <trkpt lat="42.663818" lon="0.660013">
        <ele>2190</ele>
        <time>1970-01-01T09:21:09.000Z</time>
      </trkpt>
      <trkpt lat="42.663825" lon="0.660018">
        <ele>2189.9</ele>
        <time>1970-01-01T09:21:10.000Z</time>
      </trkpt>
      <trkpt lat="42.663835" lon="0.660019">
        <ele>2189.6</ele>
        <time>1970-01-01T09:21:11.000Z</time>
      </trkpt>
      <trkpt lat="42.663849" lon="0.66001">
        <ele>2189.3</ele>
        <time>1970-01-01T09:21:13.000Z</time>
      </trkpt>
      <trkpt lat="42.663854" lon="0.660007">
        <ele>2189.1</ele>
        <time>1970-01-01T09:21:14.000Z</time>
      </trkpt>
      <trkpt lat="42.663873" lon="0.660009">
        <ele>2188.7</ele>
        <time>1970-01-01T09:21:16.000Z</time>
      </trkpt>
      <trkpt lat="42.663878" lon="0.660014">
        <ele>2188.6</ele>
        <time>1970-01-01T09:21:17.000Z</time>
      </trkpt>
      <trkpt lat="42.663884" lon="0.660019">
        <ele>2188.4</ele>
        <time>1970-01-01T09:21:18.000Z</time>
      </trkpt>
      <trkpt lat="42.66389" lon="0.660021">
        <ele>2188.3</ele>
        <time>1970-01-01T09:21:19.000Z</time>
      </trkpt>
      <trkpt lat="42.663894" lon="0.660022">
        <ele>2188.2</ele>
        <time>1970-01-01T09:21:20.000Z</time>
      </trkpt>
      <trkpt lat="42.6639" lon="0.660017">
        <ele>2188</ele>
        <time>1970-01-01T09:21:21.000Z</time>
      </trkpt>
      <trkpt lat="42.663904" lon="0.660007">
        <ele>2187.8</ele>
        <time>1970-01-01T09:21:22.000Z</time>
      </trkpt>
      <trkpt lat="42.663907" lon="0.660002">
        <ele>2187.7</ele>
        <time>1970-01-01T09:21:23.000Z</time>
      </trkpt>
      <trkpt lat="42.663913" lon="0.659994">
        <ele>2187.5</ele>
        <time>1970-01-01T09:21:24.000Z</time>
      </trkpt>
      <trkpt lat="42.663919" lon="0.659988">
        <ele>2187.3</ele>
        <time>1970-01-01T09:21:25.000Z</time>
      </trkpt>
      <trkpt lat="42.663925" lon="0.659986">
        <ele>2187.2</ele>
        <time>1970-01-01T09:21:26.000Z</time>
      </trkpt>
      <trkpt lat="42.663931" lon="0.659986">
        <ele>2187.1</ele>
        <time>1970-01-01T09:21:27.000Z</time>
      </trkpt>
      <trkpt lat="42.663935" lon="0.659979">
        <ele>2186.9</ele>
        <time>1970-01-01T09:21:29.000Z</time>
      </trkpt>
      <trkpt lat="42.663936" lon="0.659974">
        <ele>2186.8</ele>
        <time>1970-01-01T09:21:30.000Z</time>
      </trkpt>
      <trkpt lat="42.663939" lon="0.659974">
        <ele>2186.8</ele>
        <time>1970-01-01T09:21:31.000Z</time>
      </trkpt>
      <trkpt lat="42.663941" lon="0.659972">
        <ele>2186.7</ele>
        <time>1970-01-01T09:21:32.000Z</time>
      </trkpt>
      <trkpt lat="42.663943" lon="0.659973">
        <ele>2186.6</ele>
        <time>1970-01-01T09:21:33.000Z</time>
      </trkpt>
      <trkpt lat="42.663942" lon="0.659977">
        <ele>2186.6</ele>
        <time>1970-01-01T09:21:34.000Z</time>
      </trkpt>
      <trkpt lat="42.663941" lon="0.659983">
        <ele>2186.5</ele>
        <time>1970-01-01T09:21:35.000Z</time>
      </trkpt>
      <trkpt lat="42.66394" lon="0.659984">
        <ele>2186.4</ele>
        <time>1970-01-01T09:21:36.000Z</time>
      </trkpt>
      <trkpt lat="42.66394" lon="0.659985">
        <ele>2186.4</ele>
        <time>1970-01-01T09:21:37.000Z</time>
      </trkpt>
      <trkpt lat="42.663942" lon="0.659979">
        <ele>2186.3</ele>
        <time>1970-01-01T09:21:39.000Z</time>
      </trkpt>
      <trkpt lat="42.66395" lon="0.659973">
        <ele>2186.1</ele>
        <time>1970-01-01T09:21:40.000Z</time>
      </trkpt>
      <trkpt lat="42.663966" lon="0.659966">
        <ele>2185.7</ele>
        <time>1970-01-01T09:21:42.000Z</time>
      </trkpt>
      <trkpt lat="42.663983" lon="0.659968">
        <ele>2185.3</ele>
        <time>1970-01-01T09:21:43.000Z</time>
      </trkpt>
      <trkpt lat="42.663997" lon="0.659973">
        <ele>2185</ele>
        <time>1970-01-01T09:21:44.000Z</time>
      </trkpt>
      <trkpt lat="42.664002" lon="0.659978">
        <ele>2184.9</ele>
        <time>1970-01-01T09:21:45.000Z</time>
      </trkpt>
      <trkpt lat="42.664003" lon="0.659982">
        <ele>2184.8</ele>
        <time>1970-01-01T09:21:47.000Z</time>
      </trkpt>
      <trkpt lat="42.664006" lon="0.659985">
        <ele>2184.7</ele>
        <time>1970-01-01T09:21:48.000Z</time>
      </trkpt>
      <trkpt lat="42.664011" lon="0.659985">
        <ele>2184.6</ele>
        <time>1970-01-01T09:21:49.000Z</time>
      </trkpt>
      <trkpt lat="42.664023" lon="0.659979">
        <ele>2184.3</ele>
        <time>1970-01-01T09:21:50.000Z</time>
      </trkpt>
      <trkpt lat="42.664033" lon="0.659973">
        <ele>2184</ele>
        <time>1970-01-01T09:21:51.000Z</time>
      </trkpt>
      <trkpt lat="42.664052" lon="0.659966">
        <ele>2183.6</ele>
        <time>1970-01-01T09:21:52.000Z</time>
      </trkpt>
      <trkpt lat="42.664077" lon="0.65996">
        <ele>2183</ele>
        <time>1970-01-01T09:21:54.000Z</time>
      </trkpt>
      <trkpt lat="42.664094" lon="0.659954">
        <ele>2182.6</ele>
        <time>1970-01-01T09:21:55.000Z</time>
      </trkpt>
      <trkpt lat="42.664106" lon="0.659944">
        <ele>2182.3</ele>
        <time>1970-01-01T09:21:57.000Z</time>
      </trkpt>
      <trkpt lat="42.664119" lon="0.659933">
        <ele>2182</ele>
        <time>1970-01-01T09:21:58.000Z</time>
      </trkpt>
      <trkpt lat="42.664127" lon="0.659917">
        <ele>2181.7</ele>
        <time>1970-01-01T09:21:59.000Z</time>
      </trkpt>
      <trkpt lat="42.664134" lon="0.659903">
        <ele>2181.5</ele>
        <time>1970-01-01T09:22:01.000Z</time>
      </trkpt>
      <trkpt lat="42.664152" lon="0.659892">
        <ele>2181.1</ele>
        <time>1970-01-01T09:22:02.000Z</time>
      </trkpt>
      <trkpt lat="42.66416" lon="0.659882">
        <ele>2180.9</ele>
        <time>1970-01-01T09:22:03.000Z</time>
      </trkpt>
      <trkpt lat="42.664166" lon="0.659879">
        <ele>2180.7</ele>
        <time>1970-01-01T09:22:04.000Z</time>
      </trkpt>
      <trkpt lat="42.664174" lon="0.659878">
        <ele>2180.6</ele>
        <time>1970-01-01T09:22:05.000Z</time>
      </trkpt>
      <trkpt lat="42.664184" lon="0.659874">
        <ele>2180.4</ele>
        <time>1970-01-01T09:22:06.000Z</time>
      </trkpt>
      <trkpt lat="42.664194" lon="0.65987">
        <ele>2180.2</ele>
        <time>1970-01-01T09:22:08.000Z</time>
      </trkpt>
      <trkpt lat="42.664202" lon="0.659858">
        <ele>2180</ele>
        <time>1970-01-01T09:22:09.000Z</time>
      </trkpt>
      <trkpt lat="42.664205" lon="0.659844">
        <ele>2179.8</ele>
        <time>1970-01-01T09:22:10.000Z</time>
      </trkpt>
      <trkpt lat="42.66421" lon="0.659831">
        <ele>2179.6</ele>
        <time>1970-01-01T09:22:11.000Z</time>
      </trkpt>
      <trkpt lat="42.664218" lon="0.65982">
        <ele>2179.4</ele>
        <time>1970-01-01T09:22:12.000Z</time>
      </trkpt>
      <trkpt lat="42.66423" lon="0.659813">
        <ele>2179.2</ele>
        <time>1970-01-01T09:22:13.000Z</time>
      </trkpt>
      <trkpt lat="42.664236" lon="0.659793">
        <ele>2178.9</ele>
        <time>1970-01-01T09:22:15.000Z</time>
      </trkpt>
      <trkpt lat="42.664239" lon="0.65978">
        <ele>2178.8</ele>
        <time>1970-01-01T09:22:16.000Z</time>
      </trkpt>
      <trkpt lat="42.664241" lon="0.659771">
        <ele>2178.7</ele>
        <time>1970-01-01T09:22:17.000Z</time>
      </trkpt>
      <trkpt lat="42.664244" lon="0.659759">
        <ele>2178.5</ele>
        <time>1970-01-01T09:22:18.000Z</time>
      </trkpt>
      <trkpt lat="42.664252" lon="0.659751">
        <ele>2178.4</ele>
        <time>1970-01-01T09:22:19.000Z</time>
      </trkpt>
      <trkpt lat="42.664266" lon="0.659735">
        <ele>2178.1</ele>
        <time>1970-01-01T09:22:21.000Z</time>
      </trkpt>
      <trkpt lat="42.664271" lon="0.659721">
        <ele>2177.9</ele>
        <time>1970-01-01T09:22:22.000Z</time>
      </trkpt>
      <trkpt lat="42.664279" lon="0.659707">
        <ele>2177.8</ele>
        <time>1970-01-01T09:22:23.000Z</time>
      </trkpt>
      <trkpt lat="42.664288" lon="0.659695">
        <ele>2177.6</ele>
        <time>1970-01-01T09:22:24.000Z</time>
      </trkpt>
      <trkpt lat="42.664292" lon="0.659692">
        <ele>2177.5</ele>
        <time>1970-01-01T09:22:26.000Z</time>
      </trkpt>
      <trkpt lat="42.664292" lon="0.659693">
        <ele>2177.5</ele>
        <time>1970-01-01T09:22:27.000Z</time>
      </trkpt>
      <trkpt lat="42.664292" lon="0.659698">
        <ele>2177.5</ele>
        <time>1970-01-01T09:22:28.000Z</time>
      </trkpt>
      <trkpt lat="42.664292" lon="0.659702">
        <ele>2177.4</ele>
        <time>1970-01-01T09:22:29.000Z</time>
      </trkpt>
      <trkpt lat="42.664294" lon="0.659704">
        <ele>2177.4</ele>
        <time>1970-01-01T09:22:30.000Z</time>
      </trkpt>
      <trkpt lat="42.664295" lon="0.659705">
        <ele>2177.4</ele>
        <time>1970-01-01T09:22:31.000Z</time>
      </trkpt>
      <trkpt lat="42.664297" lon="0.659704">
        <ele>2177.4</ele>
        <time>1970-01-01T09:22:33.000Z</time>
      </trkpt>
      <trkpt lat="42.664299" lon="0.659705">
        <ele>2177.3</ele>
        <time>1970-01-01T09:22:34.000Z</time>
      </trkpt>
      <trkpt lat="42.664301" lon="0.659707">
        <ele>2177.3</ele>
        <time>1970-01-01T09:22:35.000Z</time>
      </trkpt>
      <trkpt lat="42.664305" lon="0.659713">
        <ele>2177.2</ele>
        <time>1970-01-01T09:22:36.000Z</time>
      </trkpt>
      <trkpt lat="42.664312" lon="0.659715">
        <ele>2177.1</ele>
        <time>1970-01-01T09:22:37.000Z</time>
      </trkpt>
      <trkpt lat="42.66433" lon="0.659704">
        <ele>2176.9</ele>
        <time>1970-01-01T09:22:38.000Z</time>
      </trkpt>
      <trkpt lat="42.664337" lon="0.659697">
        <ele>2176.8</ele>
        <time>1970-01-01T09:22:40.000Z</time>
      </trkpt>
      <trkpt lat="42.664344" lon="0.65969">
        <ele>2176.7</ele>
        <time>1970-01-01T09:22:41.000Z</time>
      </trkpt>
      <trkpt lat="42.66435" lon="0.659676">
        <ele>2176.6</ele>
        <time>1970-01-01T09:22:42.000Z</time>
      </trkpt>
      <trkpt lat="42.664356" lon="0.659663">
        <ele>2176.5</ele>
        <time>1970-01-01T09:22:43.000Z</time>
      </trkpt>
      <trkpt lat="42.664365" lon="0.659655">
        <ele>2176.4</ele>
        <time>1970-01-01T09:22:44.000Z</time>
      </trkpt>
      <trkpt lat="42.664376" lon="0.659643">
        <ele>2176.2</ele>
        <time>1970-01-01T09:22:46.000Z</time>
      </trkpt>
      <trkpt lat="42.664379" lon="0.659635">
        <ele>2176.1</ele>
        <time>1970-01-01T09:22:47.000Z</time>
      </trkpt>
      <trkpt lat="42.664387" lon="0.659622">
        <ele>2176</ele>
        <time>1970-01-01T09:22:48.000Z</time>
      </trkpt>
      <trkpt lat="42.664392" lon="0.659615">
        <ele>2176</ele>
        <time>1970-01-01T09:22:49.000Z</time>
      </trkpt>
      <trkpt lat="42.664394" lon="0.659604">
        <ele>2175.9</ele>
        <time>1970-01-01T09:22:50.000Z</time>
      </trkpt>
      <trkpt lat="42.664392" lon="0.659591">
        <ele>2175.8</ele>
        <time>1970-01-01T09:22:51.000Z</time>
      </trkpt>
      <trkpt lat="42.66439" lon="0.659581">
        <ele>2175.7</ele>
        <time>1970-01-01T09:22:52.000Z</time>
      </trkpt>
      <trkpt lat="42.664396" lon="0.65957">
        <ele>2175.6</ele>
        <time>1970-01-01T09:22:53.000Z</time>
      </trkpt>
      <trkpt lat="42.664411" lon="0.659562">
        <ele>2175.5</ele>
        <time>1970-01-01T09:22:55.000Z</time>
      </trkpt>
      <trkpt lat="42.664421" lon="0.659555">
        <ele>2175.4</ele>
        <time>1970-01-01T09:22:56.000Z</time>
      </trkpt>
      <trkpt lat="42.664427" lon="0.659546">
        <ele>2175.3</ele>
        <time>1970-01-01T09:22:58.000Z</time>
      </trkpt>
      <trkpt lat="42.664428" lon="0.65953">
        <ele>2175.2</ele>
        <time>1970-01-01T09:22:59.000Z</time>
      </trkpt>
      <trkpt lat="42.664431" lon="0.659512">
        <ele>2175.1</ele>
        <time>1970-01-01T09:23:00.000Z</time>
      </trkpt>
      <trkpt lat="42.664439" lon="0.659503">
        <ele>2175</ele>
        <time>1970-01-01T09:23:01.000Z</time>
      </trkpt>
      <trkpt lat="42.664449" lon="0.659506">
        <ele>2174.9</ele>
        <time>1970-01-01T09:23:02.000Z</time>
      </trkpt>
      <trkpt lat="42.664458" lon="0.65951">
        <ele>2174.8</ele>
        <time>1970-01-01T09:23:03.000Z</time>
      </trkpt>
      <trkpt lat="42.664467" lon="0.659512">
        <ele>2174.7</ele>
        <time>1970-01-01T09:23:05.000Z</time>
      </trkpt>
      <trkpt lat="42.664477" lon="0.659508">
        <ele>2174.6</ele>
        <time>1970-01-01T09:23:06.000Z</time>
      </trkpt>
      <trkpt lat="42.664485" lon="0.659504">
        <ele>2174.5</ele>
        <time>1970-01-01T09:23:07.000Z</time>
      </trkpt>
      <trkpt lat="42.664491" lon="0.659497">
        <ele>2174.4</ele>
        <time>1970-01-01T09:23:08.000Z</time>
      </trkpt>
      <trkpt lat="42.664499" lon="0.659489">
        <ele>2174.3</ele>
        <time>1970-01-01T09:23:09.000Z</time>
      </trkpt>
      <trkpt lat="42.664506" lon="0.659486">
        <ele>2174.3</ele>
        <time>1970-01-01T09:23:10.000Z</time>
      </trkpt>
      <trkpt lat="42.664512" lon="0.659484">
        <ele>2174.2</ele>
        <time>1970-01-01T09:23:11.000Z</time>
      </trkpt>
      <trkpt lat="42.664518" lon="0.659481">
        <ele>2174.1</ele>
        <time>1970-01-01T09:23:12.000Z</time>
      </trkpt>
      <trkpt lat="42.664525" lon="0.65948">
        <ele>2174.1</ele>
        <time>1970-01-01T09:23:13.000Z</time>
      </trkpt>
      <trkpt lat="42.664534" lon="0.659481">
        <ele>2174</ele>
        <time>1970-01-01T09:23:15.000Z</time>
      </trkpt>
      <trkpt lat="42.664533" lon="0.659479">
        <ele>2173.9</ele>
        <time>1970-01-01T09:23:16.000Z</time>
      </trkpt>
      <trkpt lat="42.66453" lon="0.659479">
        <ele>2173.9</ele>
        <time>1970-01-01T09:23:17.000Z</time>
      </trkpt>
      <trkpt lat="42.664528" lon="0.659478">
        <ele>2173.9</ele>
        <time>1970-01-01T09:23:18.000Z</time>
      </trkpt>
      <trkpt lat="42.664527" lon="0.659479">
        <ele>2173.9</ele>
        <time>1970-01-01T09:23:19.000Z</time>
      </trkpt>
      <trkpt lat="42.664527" lon="0.659479">
        <ele>2173.9</ele>
        <time>1970-01-01T09:23:20.000Z</time>
      </trkpt>
      <trkpt lat="42.664527" lon="0.659478">
        <ele>2173.9</ele>
        <time>1970-01-01T09:23:21.000Z</time>
      </trkpt>
      <trkpt lat="42.664528" lon="0.659477">
        <ele>2173.8</ele>
        <time>1970-01-01T09:23:22.000Z</time>
      </trkpt>
      <trkpt lat="42.664529" lon="0.659478">
        <ele>2173.8</ele>
        <time>1970-01-01T09:23:23.000Z</time>
      </trkpt>
      <trkpt lat="42.664532" lon="0.65948">
        <ele>2173.8</ele>
        <time>1970-01-01T09:23:24.000Z</time>
      </trkpt>
      <trkpt lat="42.664536" lon="0.65948">
        <ele>2173.7</ele>
        <time>1970-01-01T09:23:26.000Z</time>
      </trkpt>
      <trkpt lat="42.664542" lon="0.659476">
        <ele>2173.7</ele>
        <time>1970-01-01T09:23:27.000Z</time>
      </trkpt>
      <trkpt lat="42.664548" lon="0.659467">
        <ele>2173.6</ele>
        <time>1970-01-01T09:23:28.000Z</time>
      </trkpt>
      <trkpt lat="42.664547" lon="0.659466">
        <ele>2173.6</ele>
        <time>1970-01-01T09:23:29.000Z</time>
      </trkpt>
      <trkpt lat="42.664545" lon="0.659467">
        <ele>2173.5</ele>
        <time>1970-01-01T09:23:30.000Z</time>
      </trkpt>
      <trkpt lat="42.664544" lon="0.659467">
        <ele>2173.5</ele>
        <time>1970-01-01T09:23:31.000Z</time>
      </trkpt>
      <trkpt lat="42.664544" lon="0.659468">
        <ele>2173.5</ele>
        <time>1970-01-01T09:23:32.000Z</time>
      </trkpt>
      <trkpt lat="42.664544" lon="0.659468">
        <ele>2173.5</ele>
        <time>1970-01-01T09:23:33.000Z</time>
      </trkpt>
      <trkpt lat="42.664543" lon="0.659468">
        <ele>2173.5</ele>
        <time>1970-01-01T09:23:34.000Z</time>
      </trkpt>
      <trkpt lat="42.664544" lon="0.659469">
        <ele>2173.5</ele>
        <time>1970-01-01T09:23:35.000Z</time>
      </trkpt>
      <trkpt lat="42.664543" lon="0.659469">
        <ele>2173.5</ele>
        <time>1970-01-01T09:23:36.000Z</time>
      </trkpt>
      <trkpt lat="42.664543" lon="0.659469">
        <ele>2173.5</ele>
        <time>1970-01-01T09:23:37.000Z</time>
      </trkpt>
      <trkpt lat="42.664544" lon="0.659467">
        <ele>2173.4</ele>
        <time>1970-01-01T09:23:38.000Z</time>
      </trkpt>
      <trkpt lat="42.664545" lon="0.659464">
        <ele>2173.4</ele>
        <time>1970-01-01T09:23:39.000Z</time>
      </trkpt>
      <trkpt lat="42.664547" lon="0.659462">
        <ele>2173.4</ele>
        <time>1970-01-01T09:23:40.000Z</time>
      </trkpt>
      <trkpt lat="42.66455" lon="0.65946">
        <ele>2173.4</ele>
        <time>1970-01-01T09:23:41.000Z</time>
      </trkpt>
      <trkpt lat="42.664551" lon="0.659458">
        <ele>2173.3</ele>
        <time>1970-01-01T09:23:42.000Z</time>
      </trkpt>
      <trkpt lat="42.66455" lon="0.659457">
        <ele>2173.3</ele>
        <time>1970-01-01T09:23:43.000Z</time>
      </trkpt>
      <trkpt lat="42.66455" lon="0.659457">
        <ele>2173.3</ele>
        <time>1970-01-01T09:23:44.000Z</time>
      </trkpt>
      <trkpt lat="42.664552" lon="0.659456">
        <ele>2173.3</ele>
        <time>1970-01-01T09:23:45.000Z</time>
      </trkpt>
      <trkpt lat="42.664552" lon="0.659455">
        <ele>2173.3</ele>
        <time>1970-01-01T09:23:46.000Z</time>
      </trkpt>
      <trkpt lat="42.664553" lon="0.659456">
        <ele>2173.3</ele>
        <time>1970-01-01T09:23:47.000Z</time>
      </trkpt>
      <trkpt lat="42.664556" lon="0.659456">
        <ele>2173.2</ele>
        <time>1970-01-01T09:23:48.000Z</time>
      </trkpt>
      <trkpt lat="42.664559" lon="0.659458">
        <ele>2173.2</ele>
        <time>1970-01-01T09:23:49.000Z</time>
      </trkpt>
      <trkpt lat="42.664564" lon="0.659464">
        <ele>2173.1</ele>
        <time>1970-01-01T09:23:50.000Z</time>
      </trkpt>
      <trkpt lat="42.664572" lon="0.659473">
        <ele>2173</ele>
        <time>1970-01-01T09:23:52.000Z</time>
      </trkpt>
      <trkpt lat="42.66458" lon="0.659474">
        <ele>2172.8</ele>
        <time>1970-01-01T09:23:53.000Z</time>
      </trkpt>
      <trkpt lat="42.664587" lon="0.659472">
        <ele>2172.8</ele>
        <time>1970-01-01T09:23:54.000Z</time>
      </trkpt>
      <trkpt lat="42.664595" lon="0.659471">
        <ele>2172.7</ele>
        <time>1970-01-01T09:23:55.000Z</time>
      </trkpt>
      <trkpt lat="42.664599" lon="0.659472">
        <ele>2172.6</ele>
        <time>1970-01-01T09:23:56.000Z</time>
      </trkpt>
      <trkpt lat="42.664601" lon="0.659474">
        <ele>2172.6</ele>
        <time>1970-01-01T09:23:57.000Z</time>
      </trkpt>
      <trkpt lat="42.664603" lon="0.65948">
        <ele>2172.5</ele>
        <time>1970-01-01T09:23:58.000Z</time>
      </trkpt>
      <trkpt lat="42.664605" lon="0.659489">
        <ele>2172.4</ele>
        <time>1970-01-01T09:23:59.000Z</time>
      </trkpt>
      <trkpt lat="42.664608" lon="0.659496">
        <ele>2172.3</ele>
        <time>1970-01-01T09:24:00.000Z</time>
      </trkpt>
      <trkpt lat="42.664612" lon="0.659503">
        <ele>2172.2</ele>
        <time>1970-01-01T09:24:01.000Z</time>
      </trkpt>
      <trkpt lat="42.664622" lon="0.659508">
        <ele>2172.1</ele>
        <time>1970-01-01T09:24:02.000Z</time>
      </trkpt>
      <trkpt lat="42.664631" lon="0.659511">
        <ele>2171.9</ele>
        <time>1970-01-01T09:24:03.000Z</time>
      </trkpt>
      <trkpt lat="42.664642" lon="0.659511">
        <ele>2171.8</ele>
        <time>1970-01-01T09:24:05.000Z</time>
      </trkpt>
      <trkpt lat="42.664649" lon="0.659515">
        <ele>2171.7</ele>
        <time>1970-01-01T09:24:06.000Z</time>
      </trkpt>
      <trkpt lat="42.664656" lon="0.659523">
        <ele>2171.5</ele>
        <time>1970-01-01T09:24:07.000Z</time>
      </trkpt>
      <trkpt lat="42.66466" lon="0.659537">
        <ele>2171.4</ele>
        <time>1970-01-01T09:24:08.000Z</time>
      </trkpt>
      <trkpt lat="42.664665" lon="0.659563">
        <ele>2171.1</ele>
        <time>1970-01-01T09:24:09.000Z</time>
      </trkpt>
      <trkpt lat="42.664668" lon="0.659574">
        <ele>2171</ele>
        <time>1970-01-01T09:24:11.000Z</time>
      </trkpt>
      <trkpt lat="42.664671" lon="0.659586">
        <ele>2170.8</ele>
        <time>1970-01-01T09:24:12.000Z</time>
      </trkpt>
      <trkpt lat="42.664674" lon="0.659596">
        <ele>2170.7</ele>
        <time>1970-01-01T09:24:13.000Z</time>
      </trkpt>
      <trkpt lat="42.664684" lon="0.659604">
        <ele>2170.6</ele>
        <time>1970-01-01T09:24:14.000Z</time>
      </trkpt>
      <trkpt lat="42.664698" lon="0.659605">
        <ele>2170.4</ele>
        <time>1970-01-01T09:24:15.000Z</time>
      </trkpt>
      <trkpt lat="42.664714" lon="0.659593">
        <ele>2170.1</ele>
        <time>1970-01-01T09:24:16.000Z</time>
      </trkpt>
      <trkpt lat="42.664726" lon="0.659582">
        <ele>2169.9</ele>
        <time>1970-01-01T09:24:17.000Z</time>
      </trkpt>
      <trkpt lat="42.664737" lon="0.659576">
        <ele>2169.7</ele>
        <time>1970-01-01T09:24:18.000Z</time>
      </trkpt>
      <trkpt lat="42.664753" lon="0.659577">
        <ele>2169.5</ele>
        <time>1970-01-01T09:24:20.000Z</time>
      </trkpt>
      <trkpt lat="42.66476" lon="0.659573">
        <ele>2169.4</ele>
        <time>1970-01-01T09:24:21.000Z</time>
      </trkpt>
      <trkpt lat="42.664767" lon="0.659571">
        <ele>2169.3</ele>
        <time>1970-01-01T09:24:23.000Z</time>
      </trkpt>
      <trkpt lat="42.664766" lon="0.65957">
        <ele>2169.3</ele>
        <time>1970-01-01T09:24:24.000Z</time>
      </trkpt>
      <trkpt lat="42.664763" lon="0.659569">
        <ele>2169.3</ele>
        <time>1970-01-01T09:24:25.000Z</time>
      </trkpt>
      <trkpt lat="42.664762" lon="0.659568">
        <ele>2169.3</ele>
        <time>1970-01-01T09:24:26.000Z</time>
      </trkpt>
      <trkpt lat="42.664762" lon="0.659567">
        <ele>2169.3</ele>
        <time>1970-01-01T09:24:27.000Z</time>
      </trkpt>
      <trkpt lat="42.664761" lon="0.659568">
        <ele>2169.3</ele>
        <time>1970-01-01T09:24:28.000Z</time>
      </trkpt>
      <trkpt lat="42.664761" lon="0.659567">
        <ele>2169.2</ele>
        <time>1970-01-01T09:24:29.000Z</time>
      </trkpt>
      <trkpt lat="42.66476" lon="0.659566">
        <ele>2169.2</ele>
        <time>1970-01-01T09:24:30.000Z</time>
      </trkpt>
      <trkpt lat="42.66476" lon="0.659566">
        <ele>2169.2</ele>
        <time>1970-01-01T09:24:31.000Z</time>
      </trkpt>
      <trkpt lat="42.66476" lon="0.659565">
        <ele>2169.2</ele>
        <time>1970-01-01T09:24:32.000Z</time>
      </trkpt>
      <trkpt lat="42.66476" lon="0.659565">
        <ele>2169.2</ele>
        <time>1970-01-01T09:24:33.000Z</time>
      </trkpt>
      <trkpt lat="42.66476" lon="0.659565">
        <ele>2169.2</ele>
        <time>1970-01-01T09:24:34.000Z</time>
      </trkpt>
      <trkpt lat="42.664761" lon="0.659565">
        <ele>2169.2</ele>
        <time>1970-01-01T09:24:35.000Z</time>
      </trkpt>
      <trkpt lat="42.664761" lon="0.659566">
        <ele>2169.2</ele>
        <time>1970-01-01T09:24:36.000Z</time>
      </trkpt>
      <trkpt lat="42.66476" lon="0.659566">
        <ele>2169.2</ele>
        <time>1970-01-01T09:24:37.000Z</time>
      </trkpt>
      <trkpt lat="42.664761" lon="0.659566">
        <ele>2169.2</ele>
        <time>1970-01-01T09:24:38.000Z</time>
      </trkpt>
      <trkpt lat="42.664763" lon="0.659567">
        <ele>2169.1</ele>
        <time>1970-01-01T09:24:39.000Z</time>
      </trkpt>
      <trkpt lat="42.664767" lon="0.659567">
        <ele>2169.1</ele>
        <time>1970-01-01T09:24:40.000Z</time>
      </trkpt>
      <trkpt lat="42.664769" lon="0.659562">
        <ele>2169</ele>
        <time>1970-01-01T09:24:41.000Z</time>
      </trkpt>
      <trkpt lat="42.664775" lon="0.659563">
        <ele>2169</ele>
        <time>1970-01-01T09:24:42.000Z</time>
      </trkpt>
      <trkpt lat="42.664783" lon="0.659565">
        <ele>2168.9</ele>
        <time>1970-01-01T09:24:43.000Z</time>
      </trkpt>
      <trkpt lat="42.664785" lon="0.659566">
        <ele>2168.8</ele>
        <time>1970-01-01T09:24:44.000Z</time>
      </trkpt>
      <trkpt lat="42.664783" lon="0.659566">
        <ele>2168.8</ele>
        <time>1970-01-01T09:24:45.000Z</time>
      </trkpt>
      <trkpt lat="42.664783" lon="0.659569">
        <ele>2168.8</ele>
        <time>1970-01-01T09:24:46.000Z</time>
      </trkpt>
      <trkpt lat="42.664786" lon="0.659571">
        <ele>2168.8</ele>
        <time>1970-01-01T09:24:47.000Z</time>
      </trkpt>
      <trkpt lat="42.664789" lon="0.659569">
        <ele>2168.7</ele>
        <time>1970-01-01T09:24:48.000Z</time>
      </trkpt>
      <trkpt lat="42.664791" lon="0.659566">
        <ele>2168.7</ele>
        <time>1970-01-01T09:24:49.000Z</time>
      </trkpt>
      <trkpt lat="42.664793" lon="0.659564">
        <ele>2168.7</ele>
        <time>1970-01-01T09:24:50.000Z</time>
      </trkpt>
      <trkpt lat="42.664797" lon="0.659563">
        <ele>2168.6</ele>
        <time>1970-01-01T09:24:51.000Z</time>
      </trkpt>
      <trkpt lat="42.6648" lon="0.659559">
        <ele>2168.6</ele>
        <time>1970-01-01T09:24:52.000Z</time>
      </trkpt>
      <trkpt lat="42.664797" lon="0.659568">
        <ele>2168.5</ele>
        <time>1970-01-01T09:24:53.000Z</time>
      </trkpt>
      <trkpt lat="42.664801" lon="0.659571">
        <ele>2168.4</ele>
        <time>1970-01-01T09:24:54.000Z</time>
      </trkpt>
      <trkpt lat="42.664807" lon="0.659577">
        <ele>2168.3</ele>
        <time>1970-01-01T09:24:55.000Z</time>
      </trkpt>
      <trkpt lat="42.664809" lon="0.659584">
        <ele>2168.3</ele>
        <time>1970-01-01T09:24:56.000Z</time>
      </trkpt>
      <trkpt lat="42.664812" lon="0.659595">
        <ele>2168.2</ele>
        <time>1970-01-01T09:24:57.000Z</time>
      </trkpt>
      <trkpt lat="42.664815" lon="0.659605">
        <ele>2168.1</ele>
        <time>1970-01-01T09:24:59.000Z</time>
      </trkpt>
      <trkpt lat="42.664822" lon="0.659609">
        <ele>2168</ele>
        <time>1970-01-01T09:25:00.000Z</time>
      </trkpt>
      <trkpt lat="42.664829" lon="0.659608">
        <ele>2167.9</ele>
        <time>1970-01-01T09:25:01.000Z</time>
      </trkpt>
      <trkpt lat="42.664835" lon="0.659608">
        <ele>2167.9</ele>
        <time>1970-01-01T09:25:02.000Z</time>
      </trkpt>
      <trkpt lat="42.664844" lon="0.659611">
        <ele>2167.8</ele>
        <time>1970-01-01T09:25:03.000Z</time>
      </trkpt>
      <trkpt lat="42.664853" lon="0.659614">
        <ele>2167.7</ele>
        <time>1970-01-01T09:25:04.000Z</time>
      </trkpt>
      <trkpt lat="42.66486" lon="0.659619">
        <ele>2167.6</ele>
        <time>1970-01-01T09:25:05.000Z</time>
      </trkpt>
      <trkpt lat="42.664867" lon="0.659626">
        <ele>2167.5</ele>
        <time>1970-01-01T09:25:06.000Z</time>
      </trkpt>
      <trkpt lat="42.664873" lon="0.659635">
        <ele>2167.4</ele>
        <time>1970-01-01T09:25:08.000Z</time>
      </trkpt>
      <trkpt lat="42.664879" lon="0.659644">
        <ele>2167.3</ele>
        <time>1970-01-01T09:25:09.000Z</time>
      </trkpt>
      <trkpt lat="42.664885" lon="0.659645">
        <ele>2167.2</ele>
        <time>1970-01-01T09:25:10.000Z</time>
      </trkpt>
      <trkpt lat="42.664896" lon="0.659648">
        <ele>2167.1</ele>
        <time>1970-01-01T09:25:12.000Z</time>
      </trkpt>
      <trkpt lat="42.664907" lon="0.659646">
        <ele>2166.9</ele>
        <time>1970-01-01T09:25:13.000Z</time>
      </trkpt>
      <trkpt lat="42.664914" lon="0.659638">
        <ele>2166.8</ele>
        <time>1970-01-01T09:25:14.000Z</time>
      </trkpt>
      <trkpt lat="42.664921" lon="0.659629">
        <ele>2166.7</ele>
        <time>1970-01-01T09:25:15.000Z</time>
      </trkpt>
      <trkpt lat="42.664927" lon="0.659619">
        <ele>2166.6</ele>
        <time>1970-01-01T09:25:16.000Z</time>
      </trkpt>
      <trkpt lat="42.664935" lon="0.659612">
        <ele>2166.5</ele>
        <time>1970-01-01T09:25:17.000Z</time>
      </trkpt>
      <trkpt lat="42.664943" lon="0.659608">
        <ele>2166.4</ele>
        <time>1970-01-01T09:25:18.000Z</time>
      </trkpt>
      <trkpt lat="42.664954" lon="0.659611">
        <ele>2166.2</ele>
        <time>1970-01-01T09:25:19.000Z</time>
      </trkpt>
      <trkpt lat="42.664966" lon="0.659608">
        <ele>2166.1</ele>
        <time>1970-01-01T09:25:21.000Z</time>
      </trkpt>
      <trkpt lat="42.664976" lon="0.659597">
        <ele>2165.9</ele>
        <time>1970-01-01T09:25:22.000Z</time>
      </trkpt>
      <trkpt lat="42.664983" lon="0.659583">
        <ele>2165.7</ele>
        <time>1970-01-01T09:25:23.000Z</time>
      </trkpt>
      <trkpt lat="42.664991" lon="0.659575">
        <ele>2165.6</ele>
        <time>1970-01-01T09:25:24.000Z</time>
      </trkpt>
      <trkpt lat="42.664999" lon="0.659574">
        <ele>2165.5</ele>
        <time>1970-01-01T09:25:25.000Z</time>
      </trkpt>
      <trkpt lat="42.665005" lon="0.659573">
        <ele>2165.4</ele>
        <time>1970-01-01T09:25:26.000Z</time>
      </trkpt>
      <trkpt lat="42.665015" lon="0.659563">
        <ele>2165.2</ele>
        <time>1970-01-01T09:25:27.000Z</time>
      </trkpt>
      <trkpt lat="42.665024" lon="0.659556">
        <ele>2165.1</ele>
        <time>1970-01-01T09:25:28.000Z</time>
      </trkpt>
      <trkpt lat="42.665034" lon="0.659551">
        <ele>2165</ele>
        <time>1970-01-01T09:25:30.000Z</time>
      </trkpt>
      <trkpt lat="42.665043" lon="0.659546">
        <ele>2164.8</ele>
        <time>1970-01-01T09:25:31.000Z</time>
      </trkpt>
      <trkpt lat="42.665051" lon="0.659542">
        <ele>2164.7</ele>
        <time>1970-01-01T09:25:32.000Z</time>
      </trkpt>
      <trkpt lat="42.665059" lon="0.659539">
        <ele>2164.6</ele>
        <time>1970-01-01T09:25:33.000Z</time>
      </trkpt>
      <trkpt lat="42.665067" lon="0.659536">
        <ele>2164.5</ele>
        <time>1970-01-01T09:25:34.000Z</time>
      </trkpt>
      <trkpt lat="42.665079" lon="0.659533">
        <ele>2164.3</ele>
        <time>1970-01-01T09:25:36.000Z</time>
      </trkpt>
      <trkpt lat="42.665091" lon="0.659529">
        <ele>2164.1</ele>
        <time>1970-01-01T09:25:37.000Z</time>
      </trkpt>
      <trkpt lat="42.665098" lon="0.659523">
        <ele>2164</ele>
        <time>1970-01-01T09:25:38.000Z</time>
      </trkpt>
      <trkpt lat="42.665102" lon="0.659519">
        <ele>2164</ele>
        <time>1970-01-01T09:25:39.000Z</time>
      </trkpt>
      <trkpt lat="42.665108" lon="0.659513">
        <ele>2163.9</ele>
        <time>1970-01-01T09:25:40.000Z</time>
      </trkpt>
      <trkpt lat="42.665117" lon="0.659507">
        <ele>2163.7</ele>
        <time>1970-01-01T09:25:41.000Z</time>
      </trkpt>
      <trkpt lat="42.665124" lon="0.659498">
        <ele>2163.6</ele>
        <time>1970-01-01T09:25:42.000Z</time>
      </trkpt>
      <trkpt lat="42.665126" lon="0.659493">
        <ele>2163.5</ele>
        <time>1970-01-01T09:25:43.000Z</time>
      </trkpt>
      <trkpt lat="42.665128" lon="0.659486">
        <ele>2163.4</ele>
        <time>1970-01-01T09:25:44.000Z</time>
      </trkpt>
      <trkpt lat="42.665132" lon="0.65948">
        <ele>2163.4</ele>
        <time>1970-01-01T09:25:45.000Z</time>
      </trkpt>
      <trkpt lat="42.665139" lon="0.659476">
        <ele>2161.7</ele>
        <time>1970-01-01T09:25:46.000Z</time>
      </trkpt>
      <trkpt lat="42.665143" lon="0.659477">
        <ele>2161.7</ele>
        <time>1970-01-01T09:25:47.000Z</time>
      </trkpt>
      <trkpt lat="42.665146" lon="0.659476">
        <ele>2161.7</ele>
        <time>1970-01-01T09:25:48.000Z</time>
      </trkpt>
      <trkpt lat="42.665151" lon="0.659477">
        <ele>2161.6</ele>
        <time>1970-01-01T09:25:49.000Z</time>
      </trkpt>
      <trkpt lat="42.665156" lon="0.659473">
        <ele>2161.6</ele>
        <time>1970-01-01T09:25:50.000Z</time>
      </trkpt>
      <trkpt lat="42.665154" lon="0.659471">
        <ele>2161.6</ele>
        <time>1970-01-01T09:25:51.000Z</time>
      </trkpt>
      <trkpt lat="42.665153" lon="0.659473">
        <ele>2161.6</ele>
        <time>1970-01-01T09:25:52.000Z</time>
      </trkpt>
      <trkpt lat="42.665152" lon="0.659473">
        <ele>2161.6</ele>
        <time>1970-01-01T09:25:53.000Z</time>
      </trkpt>
      <trkpt lat="42.665152" lon="0.659473">
        <ele>2161.6</ele>
        <time>1970-01-01T09:25:54.000Z</time>
      </trkpt>
      <trkpt lat="42.665152" lon="0.659474">
        <ele>2161.6</ele>
        <time>1970-01-01T09:25:55.000Z</time>
      </trkpt>
      <trkpt lat="42.665152" lon="0.659475">
        <ele>2161.6</ele>
        <time>1970-01-01T09:25:56.000Z</time>
      </trkpt>
      <trkpt lat="42.665153" lon="0.659475">
        <ele>2161.6</ele>
        <time>1970-01-01T09:25:57.000Z</time>
      </trkpt>
      <trkpt lat="42.665155" lon="0.659473">
        <ele>2161.5</ele>
        <time>1970-01-01T09:25:58.000Z</time>
      </trkpt>
      <trkpt lat="42.665155" lon="0.659469">
        <ele>2161.5</ele>
        <time>1970-01-01T09:25:59.000Z</time>
      </trkpt>
      <trkpt lat="42.665154" lon="0.659465">
        <ele>2161.5</ele>
        <time>1970-01-01T09:26:00.000Z</time>
      </trkpt>
      <trkpt lat="42.665154" lon="0.659462">
        <ele>2161.5</ele>
        <time>1970-01-01T09:26:02.000Z</time>
      </trkpt>
      <trkpt lat="42.665154" lon="0.659456">
        <ele>2161.5</ele>
        <time>1970-01-01T09:26:03.000Z</time>
      </trkpt>
      <trkpt lat="42.665155" lon="0.659447">
        <ele>2161.4</ele>
        <time>1970-01-01T09:26:04.000Z</time>
      </trkpt>
      <trkpt lat="42.665154" lon="0.659442">
        <ele>2161.4</ele>
        <time>1970-01-01T09:26:05.000Z</time>
      </trkpt>
      <trkpt lat="42.665153" lon="0.65943">
        <ele>2161.4</ele>
        <time>1970-01-01T09:26:06.000Z</time>
      </trkpt>
      <trkpt lat="42.665147" lon="0.659407">
        <ele>2161.3</ele>
        <time>1970-01-01T09:26:07.000Z</time>
      </trkpt>
      <trkpt lat="42.665142" lon="0.659391">
        <ele>2161.2</ele>
        <time>1970-01-01T09:26:09.000Z</time>
      </trkpt>
      <trkpt lat="42.665142" lon="0.65938">
        <ele>2161.1</ele>
        <time>1970-01-01T09:26:10.000Z</time>
      </trkpt>
      <trkpt lat="42.665145" lon="0.659372">
        <ele>2161.1</ele>
        <time>1970-01-01T09:26:11.000Z</time>
      </trkpt>
      <trkpt lat="42.665151" lon="0.659361">
        <ele>2161.1</ele>
        <time>1970-01-01T09:26:12.000Z</time>
      </trkpt>
      <trkpt lat="42.66515" lon="0.659346">
        <ele>2161</ele>
        <time>1970-01-01T09:26:13.000Z</time>
      </trkpt>
      <trkpt lat="42.66514" lon="0.659338">
        <ele>2160.9</ele>
        <time>1970-01-01T09:26:14.000Z</time>
      </trkpt>
      <trkpt lat="42.665133" lon="0.659332">
        <ele>2160.9</ele>
        <time>1970-01-01T09:26:15.000Z</time>
      </trkpt>
      <trkpt lat="42.665129" lon="0.659323">
        <ele>2160.8</ele>
        <time>1970-01-01T09:26:16.000Z</time>
      </trkpt>
      <trkpt lat="42.665128" lon="0.659312">
        <ele>2160.8</ele>
        <time>1970-01-01T09:26:17.000Z</time>
      </trkpt>
      <trkpt lat="42.665128" lon="0.659303">
        <ele>2160.7</ele>
        <time>1970-01-01T09:26:18.000Z</time>
      </trkpt>
      <trkpt lat="42.665129" lon="0.659295">
        <ele>2160.7</ele>
        <time>1970-01-01T09:26:19.000Z</time>
      </trkpt>
      <trkpt lat="42.665136" lon="0.659282">
        <ele>2160.6</ele>
        <time>1970-01-01T09:26:21.000Z</time>
      </trkpt>
      <trkpt lat="42.665147" lon="0.659275">
        <ele>2160.6</ele>
        <time>1970-01-01T09:26:22.000Z</time>
      </trkpt>
      <trkpt lat="42.665154" lon="0.659274">
        <ele>2160.5</ele>
        <time>1970-01-01T09:26:23.000Z</time>
      </trkpt>
      <trkpt lat="42.665162" lon="0.659271">
        <ele>2160.5</ele>
        <time>1970-01-01T09:26:24.000Z</time>
      </trkpt>
      <trkpt lat="42.665166" lon="0.659272">
        <ele>2160.4</ele>
        <time>1970-01-01T09:26:25.000Z</time>
      </trkpt>
      <trkpt lat="42.665176" lon="0.65927">
        <ele>2160.4</ele>
        <time>1970-01-01T09:26:27.000Z</time>
      </trkpt>
      <trkpt lat="42.66518" lon="0.659264">
        <ele>2160.3</ele>
        <time>1970-01-01T09:26:28.000Z</time>
      </trkpt>
      <trkpt lat="42.665189" lon="0.659267">
        <ele>2160.2</ele>
        <time>1970-01-01T09:26:29.000Z</time>
      </trkpt>
      <trkpt lat="42.665197" lon="0.659265">
        <ele>2160.2</ele>
        <time>1970-01-01T09:26:31.000Z</time>
      </trkpt>
      <trkpt lat="42.665209" lon="0.659263">
        <ele>2160.1</ele>
        <time>1970-01-01T09:26:32.000Z</time>
      </trkpt>
      <trkpt lat="42.665219" lon="0.659263">
        <ele>2160</ele>
        <time>1970-01-01T09:26:33.000Z</time>
      </trkpt>
      <trkpt lat="42.665225" lon="0.659262">
        <ele>2160</ele>
        <time>1970-01-01T09:26:34.000Z</time>
      </trkpt>
      <trkpt lat="42.665235" lon="0.65926">
        <ele>2159.9</ele>
        <time>1970-01-01T09:26:35.000Z</time>
      </trkpt>
      <trkpt lat="42.665241" lon="0.65926">
        <ele>2159.9</ele>
        <time>1970-01-01T09:26:37.000Z</time>
      </trkpt>
      <trkpt lat="42.665245" lon="0.659257">
        <ele>2159.8</ele>
        <time>1970-01-01T09:26:38.000Z</time>
      </trkpt>
      <trkpt lat="42.66525" lon="0.659253">
        <ele>2159.8</ele>
        <time>1970-01-01T09:26:39.000Z</time>
      </trkpt>
      <trkpt lat="42.665255" lon="0.659251">
        <ele>2159.8</ele>
        <time>1970-01-01T09:26:40.000Z</time>
      </trkpt>
      <trkpt lat="42.665257" lon="0.659247">
        <ele>2159.7</ele>
        <time>1970-01-01T09:26:41.000Z</time>
      </trkpt>
      <trkpt lat="42.665257" lon="0.659243">
        <ele>2159.7</ele>
        <time>1970-01-01T09:26:42.000Z</time>
      </trkpt>
      <trkpt lat="42.66526" lon="0.65923">
        <ele>2159.6</ele>
        <time>1970-01-01T09:26:44.000Z</time>
      </trkpt>
      <trkpt lat="42.665261" lon="0.65923">
        <ele>2159.6</ele>
        <time>1970-01-01T09:26:45.000Z</time>
      </trkpt>
      <trkpt lat="42.665264" lon="0.659227">
        <ele>2159.6</ele>
        <time>1970-01-01T09:26:46.000Z</time>
      </trkpt>
      <trkpt lat="42.665279" lon="0.659223">
        <ele>2159.5</ele>
        <time>1970-01-01T09:26:47.000Z</time>
      </trkpt>
      <trkpt lat="42.66529" lon="0.659217">
        <ele>2159.4</ele>
        <time>1970-01-01T09:26:48.000Z</time>
      </trkpt>
      <trkpt lat="42.6653" lon="0.659206">
        <ele>2159.3</ele>
        <time>1970-01-01T09:26:50.000Z</time>
      </trkpt>
      <trkpt lat="42.665307" lon="0.659194">
        <ele>2159.2</ele>
        <time>1970-01-01T09:26:51.000Z</time>
      </trkpt>
      <trkpt lat="42.665314" lon="0.659181">
        <ele>2159.1</ele>
        <time>1970-01-01T09:26:52.000Z</time>
      </trkpt>
      <trkpt lat="42.665325" lon="0.659173">
        <ele>2159</ele>
        <time>1970-01-01T09:26:53.000Z</time>
      </trkpt>
      <trkpt lat="42.665335" lon="0.65917">
        <ele>2159</ele>
        <time>1970-01-01T09:26:54.000Z</time>
      </trkpt>
      <trkpt lat="42.665346" lon="0.659167">
        <ele>2158.9</ele>
        <time>1970-01-01T09:26:55.000Z</time>
      </trkpt>
      <trkpt lat="42.665357" lon="0.659165">
        <ele>2158.8</ele>
        <time>1970-01-01T09:26:56.000Z</time>
      </trkpt>
      <trkpt lat="42.665366" lon="0.659162">
        <ele>2158.7</ele>
        <time>1970-01-01T09:26:58.000Z</time>
      </trkpt>
      <trkpt lat="42.665374" lon="0.659159">
        <ele>2158.7</ele>
        <time>1970-01-01T09:26:59.000Z</time>
      </trkpt>
      <trkpt lat="42.665385" lon="0.659141">
        <ele>2158.5</ele>
        <time>1970-01-01T09:27:01.000Z</time>
      </trkpt>
      <trkpt lat="42.665387" lon="0.659131">
        <ele>2158.5</ele>
        <time>1970-01-01T09:27:02.000Z</time>
      </trkpt>
      <trkpt lat="42.665389" lon="0.659124">
        <ele>2158.4</ele>
        <time>1970-01-01T09:27:03.000Z</time>
      </trkpt>
      <trkpt lat="42.665395" lon="0.659111">
        <ele>2158.3</ele>
        <time>1970-01-01T09:27:04.000Z</time>
      </trkpt>
      <trkpt lat="42.665403" lon="0.659103">
        <ele>2158.3</ele>
        <time>1970-01-01T09:27:06.000Z</time>
      </trkpt>
      <trkpt lat="42.665413" lon="0.6591">
        <ele>2158.2</ele>
        <time>1970-01-01T09:27:07.000Z</time>
      </trkpt>
      <trkpt lat="42.665423" lon="0.6591">
        <ele>2158.1</ele>
        <time>1970-01-01T09:27:08.000Z</time>
      </trkpt>
      <trkpt lat="42.665432" lon="0.659108">
        <ele>2158</ele>
        <time>1970-01-01T09:27:09.000Z</time>
      </trkpt>
      <trkpt lat="42.665441" lon="0.659117">
        <ele>2157.9</ele>
        <time>1970-01-01T09:27:10.000Z</time>
      </trkpt>
      <trkpt lat="42.665458" lon="0.659119">
        <ele>2157.8</ele>
        <time>1970-01-01T09:27:11.000Z</time>
      </trkpt>
      <trkpt lat="42.665466" lon="0.659118">
        <ele>2157.7</ele>
        <time>1970-01-01T09:27:12.000Z</time>
      </trkpt>
      <trkpt lat="42.665473" lon="0.659116">
        <ele>2157.7</ele>
        <time>1970-01-01T09:27:13.000Z</time>
      </trkpt>
      <trkpt lat="42.66548" lon="0.659115">
        <ele>2157.6</ele>
        <time>1970-01-01T09:27:14.000Z</time>
      </trkpt>
      <trkpt lat="42.665492" lon="0.659105">
        <ele>2157.5</ele>
        <time>1970-01-01T09:27:16.000Z</time>
      </trkpt>
      <trkpt lat="42.6655" lon="0.659097">
        <ele>2157.4</ele>
        <time>1970-01-01T09:27:17.000Z</time>
      </trkpt>
      <trkpt lat="42.66551" lon="0.659087">
        <ele>2157.2</ele>
        <time>1970-01-01T09:27:18.000Z</time>
      </trkpt>
      <trkpt lat="42.665517" lon="0.659077">
        <ele>2157.1</ele>
        <time>1970-01-01T09:27:19.000Z</time>
      </trkpt>
      <trkpt lat="42.665524" lon="0.659069">
        <ele>2157</ele>
        <time>1970-01-01T09:27:20.000Z</time>
      </trkpt>
      <trkpt lat="42.665532" lon="0.659071">
        <ele>2157</ele>
        <time>1970-01-01T09:27:21.000Z</time>
      </trkpt>
      <trkpt lat="42.665542" lon="0.659078">
        <ele>2156.8</ele>
        <time>1970-01-01T09:27:22.000Z</time>
      </trkpt>
      <trkpt lat="42.665553" lon="0.659083">
        <ele>2156.7</ele>
        <time>1970-01-01T09:27:24.000Z</time>
      </trkpt>
      <trkpt lat="42.665564" lon="0.659089">
        <ele>2156.6</ele>
        <time>1970-01-01T09:27:25.000Z</time>
      </trkpt>
      <trkpt lat="42.665575" lon="0.659096">
        <ele>2156.5</ele>
        <time>1970-01-01T09:27:26.000Z</time>
      </trkpt>
      <trkpt lat="42.665585" lon="0.659098">
        <ele>2167.6</ele>
        <time>1970-01-01T09:27:27.000Z</time>
      </trkpt>
      <trkpt lat="42.665594" lon="0.659094">
        <ele>2168</ele>
        <time>1970-01-01T09:27:28.000Z</time>
      </trkpt>
      <trkpt lat="42.665597" lon="0.65908">
        <ele>2168.4</ele>
        <time>1970-01-01T09:27:29.000Z</time>
      </trkpt>
      <trkpt lat="42.665604" lon="0.659057">
        <ele>2169</ele>
        <time>1970-01-01T09:27:31.000Z</time>
      </trkpt>
      <trkpt lat="42.66561" lon="0.659043">
        <ele>2169.4</ele>
        <time>1970-01-01T09:27:32.000Z</time>
      </trkpt>
      <trkpt lat="42.665614" lon="0.659031">
        <ele>2169.8</ele>
        <time>1970-01-01T09:27:33.000Z</time>
      </trkpt>
      <trkpt lat="42.665619" lon="0.659015">
        <ele>2170.3</ele>
        <time>1970-01-01T09:27:35.000Z</time>
      </trkpt>
      <trkpt lat="42.665625" lon="0.659006">
        <ele>2170.6</ele>
        <time>1970-01-01T09:27:36.000Z</time>
      </trkpt>
      <trkpt lat="42.665631" lon="0.658999">
        <ele>2170.9</ele>
        <time>1970-01-01T09:27:37.000Z</time>
      </trkpt>
      <trkpt lat="42.66564" lon="0.65899">
        <ele>2171.3</ele>
        <time>1970-01-01T09:27:38.000Z</time>
      </trkpt>
      <trkpt lat="42.665648" lon="0.658985">
        <ele>2171.6</ele>
        <time>1970-01-01T09:27:40.000Z</time>
      </trkpt>
      <trkpt lat="42.665659" lon="0.658992">
        <ele>2172</ele>
        <time>1970-01-01T09:27:41.000Z</time>
      </trkpt>
      <trkpt lat="42.665668" lon="0.659">
        <ele>2172.4</ele>
        <time>1970-01-01T09:27:42.000Z</time>
      </trkpt>
      <trkpt lat="42.665677" lon="0.659002">
        <ele>2172.7</ele>
        <time>1970-01-01T09:27:43.000Z</time>
      </trkpt>
      <trkpt lat="42.665688" lon="0.659007">
        <ele>2173.1</ele>
        <time>1970-01-01T09:27:45.000Z</time>
      </trkpt>
      <trkpt lat="42.665695" lon="0.659015">
        <ele>2173.5</ele>
        <time>1970-01-01T09:27:46.000Z</time>
      </trkpt>
      <trkpt lat="42.665702" lon="0.659018">
        <ele>2173.7</ele>
        <time>1970-01-01T09:27:47.000Z</time>
      </trkpt>
      <trkpt lat="42.665709" lon="0.659012">
        <ele>2174</ele>
        <time>1970-01-01T09:27:48.000Z</time>
      </trkpt>
      <trkpt lat="42.665715" lon="0.659003">
        <ele>2174.3</ele>
        <time>1970-01-01T09:27:49.000Z</time>
      </trkpt>
      <trkpt lat="42.665721" lon="0.659001">
        <ele>2174.5</ele>
        <time>1970-01-01T09:27:50.000Z</time>
      </trkpt>
      <trkpt lat="42.665722" lon="0.659003">
        <ele>2174.5</ele>
        <time>1970-01-01T09:27:51.000Z</time>
      </trkpt>
      <trkpt lat="42.665727" lon="0.659004">
        <ele>2174.7</ele>
        <time>1970-01-01T09:27:52.000Z</time>
      </trkpt>
      <trkpt lat="42.665733" lon="0.658999">
        <ele>2174.9</ele>
        <time>1970-01-01T09:27:53.000Z</time>
      </trkpt>
      <trkpt lat="42.665737" lon="0.658991">
        <ele>2175.1</ele>
        <time>1970-01-01T09:27:54.000Z</time>
      </trkpt>
      <trkpt lat="42.665741" lon="0.658982">
        <ele>2175.4</ele>
        <time>1970-01-01T09:27:55.000Z</time>
      </trkpt>
      <trkpt lat="42.665753" lon="0.65897">
        <ele>2175.8</ele>
        <time>1970-01-01T09:27:57.000Z</time>
      </trkpt>
      <trkpt lat="42.665755" lon="0.658968">
        <ele>2175.9</ele>
        <time>1970-01-01T09:27:58.000Z</time>
      </trkpt>
      <trkpt lat="42.665751" lon="0.65897">
        <ele>2176</ele>
        <time>1970-01-01T09:27:59.000Z</time>
      </trkpt>
      <trkpt lat="42.665749" lon="0.65897">
        <ele>2176.1</ele>
        <time>1970-01-01T09:28:00.000Z</time>
      </trkpt>
      <trkpt lat="42.66575" lon="0.658968">
        <ele>2176.1</ele>
        <time>1970-01-01T09:28:01.000Z</time>
      </trkpt>
      <trkpt lat="42.665751" lon="0.658959">
        <ele>2176.3</ele>
        <time>1970-01-01T09:28:03.000Z</time>
      </trkpt>
      <trkpt lat="42.665755" lon="0.658951">
        <ele>2176.5</ele>
        <time>1970-01-01T09:28:04.000Z</time>
      </trkpt>
      <trkpt lat="42.66576" lon="0.658945">
        <ele>2176.7</ele>
        <time>1970-01-01T09:28:05.000Z</time>
      </trkpt>
      <trkpt lat="42.665768" lon="0.65894">
        <ele>2177</ele>
        <time>1970-01-01T09:28:06.000Z</time>
      </trkpt>
      <trkpt lat="42.665783" lon="0.658935">
        <ele>2177.4</ele>
        <time>1970-01-01T09:28:08.000Z</time>
      </trkpt>
      <trkpt lat="42.665789" lon="0.658935">
        <ele>2177.6</ele>
        <time>1970-01-01T09:28:10.000Z</time>
      </trkpt>
      <trkpt lat="42.665792" lon="0.658935">
        <ele>2177.7</ele>
        <time>1970-01-01T09:28:11.000Z</time>
      </trkpt>
      <trkpt lat="42.665792" lon="0.658934">
        <ele>2177.7</ele>
        <time>1970-01-01T09:28:12.000Z</time>
      </trkpt>
      <trkpt lat="42.665793" lon="0.658934">
        <ele>2177.7</ele>
        <time>1970-01-01T09:28:13.000Z</time>
      </trkpt>
      <trkpt lat="42.665794" lon="0.658935">
        <ele>2177.8</ele>
        <time>1970-01-01T09:28:14.000Z</time>
      </trkpt>
      <trkpt lat="42.665797" lon="0.658936">
        <ele>2177.9</ele>
        <time>1970-01-01T09:28:15.000Z</time>
      </trkpt>
      <trkpt lat="42.665798" lon="0.658937">
        <ele>2177.9</ele>
        <time>1970-01-01T09:28:16.000Z</time>
      </trkpt>
      <trkpt lat="42.665798" lon="0.658937">
        <ele>2177.9</ele>
        <time>1970-01-01T09:28:17.000Z</time>
      </trkpt>
      <trkpt lat="42.665801" lon="0.658939">
        <ele>2178</ele>
        <time>1970-01-01T09:28:18.000Z</time>
      </trkpt>
      <trkpt lat="42.665803" lon="0.658939">
        <ele>2178.1</ele>
        <time>1970-01-01T09:28:19.000Z</time>
      </trkpt>
      <trkpt lat="42.66581" lon="0.658937">
        <ele>2178.3</ele>
        <time>1970-01-01T09:28:20.000Z</time>
      </trkpt>
      <trkpt lat="42.665815" lon="0.658935">
        <ele>2178.4</ele>
        <time>1970-01-01T09:28:21.000Z</time>
      </trkpt>
      <trkpt lat="42.665817" lon="0.658935">
        <ele>2178.5</ele>
        <time>1970-01-01T09:28:22.000Z</time>
      </trkpt>
      <trkpt lat="42.66582" lon="0.658937">
        <ele>2178.6</ele>
        <time>1970-01-01T09:28:23.000Z</time>
      </trkpt>
      <trkpt lat="42.665825" lon="0.658943">
        <ele>2178.7</ele>
        <time>1970-01-01T09:28:24.000Z</time>
      </trkpt>
      <trkpt lat="42.665835" lon="0.658946">
        <ele>2179</ele>
        <time>1970-01-01T09:28:25.000Z</time>
      </trkpt>
      <trkpt lat="42.665845" lon="0.658948">
        <ele>2179.3</ele>
        <time>1970-01-01T09:28:26.000Z</time>
      </trkpt>
      <trkpt lat="42.665854" lon="0.658946">
        <ele>2179.6</ele>
        <time>1970-01-01T09:28:27.000Z</time>
      </trkpt>
      <trkpt lat="42.66586" lon="0.658937">
        <ele>2179.8</ele>
        <time>1970-01-01T09:28:29.000Z</time>
      </trkpt>
      <trkpt lat="42.665869" lon="0.658933">
        <ele>2180.1</ele>
        <time>1970-01-01T09:28:30.000Z</time>
      </trkpt>
      <trkpt lat="42.665874" lon="0.658934">
        <ele>2180.2</ele>
        <time>1970-01-01T09:28:31.000Z</time>
      </trkpt>
      <trkpt lat="42.665884" lon="0.658935">
        <ele>2180.5</ele>
        <time>1970-01-01T09:28:32.000Z</time>
      </trkpt>
      <trkpt lat="42.665894" lon="0.658935">
        <ele>2180.8</ele>
        <time>1970-01-01T09:28:34.000Z</time>
      </trkpt>
      <trkpt lat="42.665904" lon="0.658939">
        <ele>2181.1</ele>
        <time>1970-01-01T09:28:35.000Z</time>
      </trkpt>
      <trkpt lat="42.665909" lon="0.658941">
        <ele>2181.2</ele>
        <time>1970-01-01T09:28:36.000Z</time>
      </trkpt>
      <trkpt lat="42.665917" lon="0.658941">
        <ele>2181.5</ele>
        <time>1970-01-01T09:28:37.000Z</time>
      </trkpt>
      <trkpt lat="42.665923" lon="0.658938">
        <ele>2181.7</ele>
        <time>1970-01-01T09:28:39.000Z</time>
      </trkpt>
      <trkpt lat="42.66593" lon="0.658934">
        <ele>2181.9</ele>
        <time>1970-01-01T09:28:40.000Z</time>
      </trkpt>
      <trkpt lat="42.665936" lon="0.658929">
        <ele>2182.1</ele>
        <time>1970-01-01T09:28:41.000Z</time>
      </trkpt>
      <trkpt lat="42.665955" lon="0.658924">
        <ele>2182.6</ele>
        <time>1970-01-01T09:28:42.000Z</time>
      </trkpt>
      <trkpt lat="42.665965" lon="0.658922">
        <ele>2182.9</ele>
        <time>1970-01-01T09:28:44.000Z</time>
      </trkpt>
      <trkpt lat="42.665975" lon="0.65892">
        <ele>2183.2</ele>
        <time>1970-01-01T09:28:45.000Z</time>
      </trkpt>
      <trkpt lat="42.665984" lon="0.658916">
        <ele>2183.5</ele>
        <time>1970-01-01T09:28:46.000Z</time>
      </trkpt>
      <trkpt lat="42.665994" lon="0.65891">
        <ele>2183.8</ele>
        <time>1970-01-01T09:28:48.000Z</time>
      </trkpt>
      <trkpt lat="42.666002" lon="0.658897">
        <ele>2184.2</ele>
        <time>1970-01-01T09:28:49.000Z</time>
      </trkpt>
      <trkpt lat="42.666004" lon="0.658893">
        <ele>2184.3</ele>
        <time>1970-01-01T09:28:50.000Z</time>
      </trkpt>
      <trkpt lat="42.666009" lon="0.658896">
        <ele>2184.5</ele>
        <time>1970-01-01T09:28:51.000Z</time>
      </trkpt>
      <trkpt lat="42.666015" lon="0.6589">
        <ele>2184.7</ele>
        <time>1970-01-01T09:28:52.000Z</time>
      </trkpt>
      <trkpt lat="42.666023" lon="0.658904">
        <ele>2185</ele>
        <time>1970-01-01T09:28:53.000Z</time>
      </trkpt>
      <trkpt lat="42.666028" lon="0.658899">
        <ele>2185.2</ele>
        <time>1970-01-01T09:28:55.000Z</time>
      </trkpt>
      <trkpt lat="42.666032" lon="0.65889">
        <ele>2185.4</ele>
        <time>1970-01-01T09:28:56.000Z</time>
      </trkpt>
      <trkpt lat="42.666042" lon="0.65889">
        <ele>2185.7</ele>
        <time>1970-01-01T09:28:58.000Z</time>
      </trkpt>
      <trkpt lat="42.666053" lon="0.658894">
        <ele>2186.1</ele>
        <time>1970-01-01T09:28:59.000Z</time>
      </trkpt>
      <trkpt lat="42.666056" lon="0.658897">
        <ele>2186.2</ele>
        <time>1970-01-01T09:29:00.000Z</time>
      </trkpt>
      <trkpt lat="42.666063" lon="0.658896">
        <ele>2186.4</ele>
        <time>1970-01-01T09:29:01.000Z</time>
      </trkpt>
      <trkpt lat="42.666071" lon="0.658889">
        <ele>2186.7</ele>
        <time>1970-01-01T09:29:03.000Z</time>
      </trkpt>
      <trkpt lat="42.666078" lon="0.658879">
        <ele>2187.1</ele>
        <time>1970-01-01T09:29:04.000Z</time>
      </trkpt>
      <trkpt lat="42.666081" lon="0.65887">
        <ele>2187.3</ele>
        <time>1970-01-01T09:29:05.000Z</time>
      </trkpt>
      <trkpt lat="42.666087" lon="0.658867">
        <ele>2187.5</ele>
        <time>1970-01-01T09:29:06.000Z</time>
      </trkpt>
      <trkpt lat="42.666094" lon="0.658866">
        <ele>2187.7</ele>
        <time>1970-01-01T09:29:08.000Z</time>
      </trkpt>
      <trkpt lat="42.666103" lon="0.658868">
        <ele>2188</ele>
        <time>1970-01-01T09:29:09.000Z</time>
      </trkpt>
      <trkpt lat="42.666113" lon="0.658867">
        <ele>2188.3</ele>
        <time>1970-01-01T09:29:10.000Z</time>
      </trkpt>
      <trkpt lat="42.666119" lon="0.65886">
        <ele>2188.6</ele>
        <time>1970-01-01T09:29:11.000Z</time>
      </trkpt>
      <trkpt lat="42.666127" lon="0.658852">
        <ele>2188.9</ele>
        <time>1970-01-01T09:29:12.000Z</time>
      </trkpt>
      <trkpt lat="42.666138" lon="0.658848">
        <ele>2189.3</ele>
        <time>1970-01-01T09:29:14.000Z</time>
      </trkpt>
      <trkpt lat="42.666149" lon="0.658843">
        <ele>2189.7</ele>
        <time>1970-01-01T09:29:15.000Z</time>
      </trkpt>
      <trkpt lat="42.666158" lon="0.658839">
        <ele>2190</ele>
        <time>1970-01-01T09:29:16.000Z</time>
      </trkpt>
      <trkpt lat="42.666169" lon="0.658839">
        <ele>2190.3</ele>
        <time>1970-01-01T09:29:17.000Z</time>
      </trkpt>
      <trkpt lat="42.666178" lon="0.658846">
        <ele>2190.6</ele>
        <time>1970-01-01T09:29:19.000Z</time>
      </trkpt>
      <trkpt lat="42.666187" lon="0.65885">
        <ele>2190.9</ele>
        <time>1970-01-01T09:29:20.000Z</time>
      </trkpt>
      <trkpt lat="42.666197" lon="0.658848">
        <ele>2191.2</ele>
        <time>1970-01-01T09:29:21.000Z</time>
      </trkpt>
      <trkpt lat="42.666206" lon="0.658847">
        <ele>2191.5</ele>
        <time>1970-01-01T09:29:22.000Z</time>
      </trkpt>
      <trkpt lat="42.666216" lon="0.658849">
        <ele>2191.8</ele>
        <time>1970-01-01T09:29:23.000Z</time>
      </trkpt>
      <trkpt lat="42.666226" lon="0.658851">
        <ele>2192.1</ele>
        <time>1970-01-01T09:29:24.000Z</time>
      </trkpt>
      <trkpt lat="42.666235" lon="0.658853">
        <ele>2192.4</ele>
        <time>1970-01-01T09:29:26.000Z</time>
      </trkpt>
      <trkpt lat="42.666242" lon="0.658852">
        <ele>2192.6</ele>
        <time>1970-01-01T09:29:27.000Z</time>
      </trkpt>
      <trkpt lat="42.666248" lon="0.658848">
        <ele>2192.8</ele>
        <time>1970-01-01T09:29:28.000Z</time>
      </trkpt>
      <trkpt lat="42.66625" lon="0.658845">
        <ele>2192.9</ele>
        <time>1970-01-01T09:29:29.000Z</time>
      </trkpt>
      <trkpt lat="42.666254" lon="0.658841">
        <ele>2193</ele>
        <time>1970-01-01T09:29:30.000Z</time>
      </trkpt>
      <trkpt lat="42.666259" lon="0.658836">
        <ele>2193.2</ele>
        <time>1970-01-01T09:29:31.000Z</time>
      </trkpt>
      <trkpt lat="42.666261" lon="0.658827">
        <ele>2193.4</ele>
        <time>1970-01-01T09:29:32.000Z</time>
      </trkpt>
      <trkpt lat="42.666259" lon="0.65882">
        <ele>2193.6</ele>
        <time>1970-01-01T09:29:33.000Z</time>
      </trkpt>
      <trkpt lat="42.666255" lon="0.658815">
        <ele>2193.7</ele>
        <time>1970-01-01T09:29:34.000Z</time>
      </trkpt>
      <trkpt lat="42.666253" lon="0.658811">
        <ele>2193.8</ele>
        <time>1970-01-01T09:29:35.000Z</time>
      </trkpt>
      <trkpt lat="42.666256" lon="0.6588">
        <ele>2194.1</ele>
        <time>1970-01-01T09:29:36.000Z</time>
      </trkpt>
      <trkpt lat="42.666268" lon="0.658789">
        <ele>2194.6</ele>
        <time>1970-01-01T09:29:38.000Z</time>
      </trkpt>
      <trkpt lat="42.666266" lon="0.658781">
        <ele>2194.8</ele>
        <time>1970-01-01T09:29:39.000Z</time>
      </trkpt>
      <trkpt lat="42.666261" lon="0.658776">
        <ele>2195</ele>
        <time>1970-01-01T09:29:40.000Z</time>
      </trkpt>
      <trkpt lat="42.666259" lon="0.658779">
        <ele>2195.1</ele>
        <time>1970-01-01T09:29:41.000Z</time>
      </trkpt>
      <trkpt lat="42.666258" lon="0.658781">
        <ele>2195.1</ele>
        <time>1970-01-01T09:29:42.000Z</time>
      </trkpt>
      <trkpt lat="42.666259" lon="0.658781">
        <ele>2195.2</ele>
        <time>1970-01-01T09:29:43.000Z</time>
      </trkpt>
      <trkpt lat="42.666264" lon="0.658779">
        <ele>2195.3</ele>
        <time>1970-01-01T09:29:44.000Z</time>
      </trkpt>
      <trkpt lat="42.666271" lon="0.658775">
        <ele>2195.6</ele>
        <time>1970-01-01T09:29:45.000Z</time>
      </trkpt>
      <trkpt lat="42.666279" lon="0.65877">
        <ele>2195.9</ele>
        <time>1970-01-01T09:29:47.000Z</time>
      </trkpt>
      <trkpt lat="42.666287" lon="0.658759">
        <ele>2196.2</ele>
        <time>1970-01-01T09:29:48.000Z</time>
      </trkpt>
      <trkpt lat="42.666297" lon="0.658747">
        <ele>2196.7</ele>
        <time>1970-01-01T09:29:50.000Z</time>
      </trkpt>
      <trkpt lat="42.6663" lon="0.658739">
        <ele>2197</ele>
        <time>1970-01-01T09:29:51.000Z</time>
      </trkpt>
      <trkpt lat="42.6663" lon="0.658733">
        <ele>2197.1</ele>
        <time>1970-01-01T09:29:52.000Z</time>
      </trkpt>
      <trkpt lat="42.666292" lon="0.658718">
        <ele>2197.6</ele>
        <time>1970-01-01T09:29:54.000Z</time>
      </trkpt>
      <trkpt lat="42.666291" lon="0.658711">
        <ele>2197.8</ele>
        <time>1970-01-01T09:29:56.000Z</time>
      </trkpt>
      <trkpt lat="42.666296" lon="0.658698">
        <ele>2198.2</ele>
        <time>1970-01-01T09:29:58.000Z</time>
      </trkpt>
      <trkpt lat="42.666298" lon="0.658687">
        <ele>2198.5</ele>
        <time>1970-01-01T09:30:00.000Z</time>
      </trkpt>
      <trkpt lat="42.666301" lon="0.658681">
        <ele>2198.8</ele>
        <time>1970-01-01T09:30:01.000Z</time>
      </trkpt>
      <trkpt lat="42.66631" lon="0.658677">
        <ele>2199.1</ele>
        <time>1970-01-01T09:30:03.000Z</time>
      </trkpt>
      <trkpt lat="42.666312" lon="0.658672">
        <ele>2199.3</ele>
        <time>1970-01-01T09:30:04.000Z</time>
      </trkpt>
      <trkpt lat="42.666315" lon="0.658667">
        <ele>2199.5</ele>
        <time>1970-01-01T09:30:05.000Z</time>
      </trkpt>
      <trkpt lat="42.666319" lon="0.658667">
        <ele>2199.7</ele>
        <time>1970-01-01T09:30:06.000Z</time>
      </trkpt>
      <trkpt lat="42.666328" lon="0.658668">
        <ele>2200</ele>
        <time>1970-01-01T09:30:07.000Z</time>
      </trkpt>
      <trkpt lat="42.666336" lon="0.658664">
        <ele>2200.4</ele>
        <time>1970-01-01T09:30:08.000Z</time>
      </trkpt>
      <trkpt lat="42.66634" lon="0.65866">
        <ele>2200.6</ele>
        <time>1970-01-01T09:30:09.000Z</time>
      </trkpt>
      <trkpt lat="42.666346" lon="0.658648">
        <ele>2201</ele>
        <time>1970-01-01T09:30:10.000Z</time>
      </trkpt>
      <trkpt lat="42.666345" lon="0.65864">
        <ele>2201.3</ele>
        <time>1970-01-01T09:30:11.000Z</time>
      </trkpt>
      <trkpt lat="42.666339" lon="0.658632">
        <ele>2201.6</ele>
        <time>1970-01-01T09:30:12.000Z</time>
      </trkpt>
      <trkpt lat="42.666333" lon="0.658623">
        <ele>2202</ele>
        <time>1970-01-01T09:30:13.000Z</time>
      </trkpt>
      <trkpt lat="42.666328" lon="0.658611">
        <ele>2202.4</ele>
        <time>1970-01-01T09:30:14.000Z</time>
      </trkpt>
      <trkpt lat="42.666327" lon="0.658603">
        <ele>2202.6</ele>
        <time>1970-01-01T09:30:15.000Z</time>
      </trkpt>
      <trkpt lat="42.66633" lon="0.658598">
        <ele>2202.8</ele>
        <time>1970-01-01T09:30:16.000Z</time>
      </trkpt>
      <trkpt lat="42.666334" lon="0.658604">
        <ele>2203.1</ele>
        <time>1970-01-01T09:30:17.000Z</time>
      </trkpt>
      <trkpt lat="42.666332" lon="0.658607">
        <ele>2203.2</ele>
        <time>1970-01-01T09:30:18.000Z</time>
      </trkpt>
      <trkpt lat="42.666332" lon="0.658607">
        <ele>2203.2</ele>
        <time>1970-01-01T09:30:19.000Z</time>
      </trkpt>
      <trkpt lat="42.666331" lon="0.658608">
        <ele>2203.2</ele>
        <time>1970-01-01T09:30:20.000Z</time>
      </trkpt>
      <trkpt lat="42.66633" lon="0.658608">
        <ele>2203.3</ele>
        <time>1970-01-01T09:30:21.000Z</time>
      </trkpt>
      <trkpt lat="42.66633" lon="0.658608">
        <ele>2203.3</ele>
        <time>1970-01-01T09:30:22.000Z</time>
      </trkpt>
      <trkpt lat="42.66633" lon="0.658603">
        <ele>2203.4</ele>
        <time>1970-01-01T09:30:23.000Z</time>
      </trkpt>
      <trkpt lat="42.666331" lon="0.658597">
        <ele>2203.6</ele>
        <time>1970-01-01T09:30:25.000Z</time>
      </trkpt>
      <trkpt lat="42.666333" lon="0.658587">
        <ele>2203.9</ele>
        <time>1970-01-01T09:30:26.000Z</time>
      </trkpt>
      <trkpt lat="42.666331" lon="0.658578">
        <ele>2204.1</ele>
        <time>1970-01-01T09:30:27.000Z</time>
      </trkpt>
      <trkpt lat="42.666328" lon="0.658574">
        <ele>2204.3</ele>
        <time>1970-01-01T09:30:28.000Z</time>
      </trkpt>
      <trkpt lat="42.666325" lon="0.658572">
        <ele>2204.4</ele>
        <time>1970-01-01T09:30:29.000Z</time>
      </trkpt>
      <trkpt lat="42.666322" lon="0.658566">
        <ele>2204.6</ele>
        <time>1970-01-01T09:30:30.000Z</time>
      </trkpt>
      <trkpt lat="42.666319" lon="0.658558">
        <ele>2204.9</ele>
        <time>1970-01-01T09:30:31.000Z</time>
      </trkpt>
      <trkpt lat="42.666316" lon="0.658548">
        <ele>2205.2</ele>
        <time>1970-01-01T09:30:32.000Z</time>
      </trkpt>
      <trkpt lat="42.666311" lon="0.658535">
        <ele>2205.6</ele>
        <time>1970-01-01T09:30:34.000Z</time>
      </trkpt>
      <trkpt lat="42.666308" lon="0.658531">
        <ele>2205.8</ele>
        <time>1970-01-01T09:30:35.000Z</time>
      </trkpt>
      <trkpt lat="42.666303" lon="0.658524">
        <ele>2206</ele>
        <time>1970-01-01T09:30:36.000Z</time>
      </trkpt>
      <trkpt lat="42.666305" lon="0.658514">
        <ele>2206.3</ele>
        <time>1970-01-01T09:30:38.000Z</time>
      </trkpt>
      <trkpt lat="42.666308" lon="0.658508">
        <ele>2206.5</ele>
        <time>1970-01-01T09:30:39.000Z</time>
      </trkpt>
      <trkpt lat="42.666308" lon="0.658499">
        <ele>2206.7</ele>
        <time>1970-01-01T09:30:41.000Z</time>
      </trkpt>
      <trkpt lat="42.666305" lon="0.658485">
        <ele>2207.1</ele>
        <time>1970-01-01T09:30:42.000Z</time>
      </trkpt>
      <trkpt lat="42.666306" lon="0.658479">
        <ele>2207.3</ele>
        <time>1970-01-01T09:30:43.000Z</time>
      </trkpt>
      <trkpt lat="42.666309" lon="0.658472">
        <ele>2207.5</ele>
        <time>1970-01-01T09:30:44.000Z</time>
      </trkpt>
      <trkpt lat="42.666312" lon="0.65846">
        <ele>2207.8</ele>
        <time>1970-01-01T09:30:46.000Z</time>
      </trkpt>
      <trkpt lat="42.666306" lon="0.658449">
        <ele>2208.2</ele>
        <time>1970-01-01T09:30:47.000Z</time>
      </trkpt>
      <trkpt lat="42.666302" lon="0.658445">
        <ele>2208.3</ele>
        <time>1970-01-01T09:30:48.000Z</time>
      </trkpt>
      <trkpt lat="42.666293" lon="0.658443">
        <ele>2208.7</ele>
        <time>1970-01-01T09:30:49.000Z</time>
      </trkpt>
      <trkpt lat="42.666287" lon="0.658444">
        <ele>2208.9</ele>
        <time>1970-01-01T09:30:50.000Z</time>
      </trkpt>
      <trkpt lat="42.666272" lon="0.658441">
        <ele>2209.4</ele>
        <time>1970-01-01T09:30:51.000Z</time>
      </trkpt>
      <trkpt lat="42.666262" lon="0.658431">
        <ele>2209.8</ele>
        <time>1970-01-01T09:30:53.000Z</time>
      </trkpt>
      <trkpt lat="42.66626" lon="0.658424">
        <ele>2210</ele>
        <time>1970-01-01T09:30:54.000Z</time>
      </trkpt>
      <trkpt lat="42.666257" lon="0.658421">
        <ele>2210.1</ele>
        <time>1970-01-01T09:30:55.000Z</time>
      </trkpt>
      <trkpt lat="42.666253" lon="0.658417">
        <ele>2210.3</ele>
        <time>1970-01-01T09:30:56.000Z</time>
      </trkpt>
      <trkpt lat="42.666251" lon="0.658411">
        <ele>2210.5</ele>
        <time>1970-01-01T09:30:57.000Z</time>
      </trkpt>
      <trkpt lat="42.666257" lon="0.658396">
        <ele>2210.9</ele>
        <time>1970-01-01T09:30:58.000Z</time>
      </trkpt>
      <trkpt lat="42.666264" lon="0.658386">
        <ele>2211.3</ele>
        <time>1970-01-01T09:30:59.000Z</time>
      </trkpt>
      <trkpt lat="42.666264" lon="0.658376">
        <ele>2211.5</ele>
        <time>1970-01-01T09:31:01.000Z</time>
      </trkpt>
      <trkpt lat="42.666259" lon="0.658375">
        <ele>2211.7</ele>
        <time>1970-01-01T09:31:03.000Z</time>
      </trkpt>
      <trkpt lat="42.666257" lon="0.658376">
        <ele>2211.8</ele>
        <time>1970-01-01T09:31:04.000Z</time>
      </trkpt>
      <trkpt lat="42.666254" lon="0.658378">
        <ele>2211.9</ele>
        <time>1970-01-01T09:31:05.000Z</time>
      </trkpt>
      <trkpt lat="42.666251" lon="0.658379">
        <ele>2212</ele>
        <time>1970-01-01T09:31:06.000Z</time>
      </trkpt>
      <trkpt lat="42.666245" lon="0.658379">
        <ele>2212.2</ele>
        <time>1970-01-01T09:31:07.000Z</time>
      </trkpt>
      <trkpt lat="42.66624" lon="0.658386">
        <ele>2212.5</ele>
        <time>1970-01-01T09:31:09.000Z</time>
      </trkpt>
      <trkpt lat="42.666238" lon="0.65839">
        <ele>2212.6</ele>
        <time>1970-01-01T09:31:10.000Z</time>
      </trkpt>
      <trkpt lat="42.666234" lon="0.658391">
        <ele>2212.7</ele>
        <time>1970-01-01T09:31:11.000Z</time>
      </trkpt>
      <trkpt lat="42.666228" lon="0.658389">
        <ele>2212.9</ele>
        <time>1970-01-01T09:31:12.000Z</time>
      </trkpt>
      <trkpt lat="42.66622" lon="0.658381">
        <ele>2213.3</ele>
        <time>1970-01-01T09:31:14.000Z</time>
      </trkpt>
      <trkpt lat="42.666216" lon="0.658377">
        <ele>2213.4</ele>
        <time>1970-01-01T09:31:15.000Z</time>
      </trkpt>
      <trkpt lat="42.666212" lon="0.658375">
        <ele>2213.6</ele>
        <time>1970-01-01T09:31:16.000Z</time>
      </trkpt>
      <trkpt lat="42.666209" lon="0.658372">
        <ele>2213.7</ele>
        <time>1970-01-01T09:31:17.000Z</time>
      </trkpt>
      <trkpt lat="42.66621" lon="0.65836">
        <ele>2214</ele>
        <time>1970-01-01T09:31:19.000Z</time>
      </trkpt>
      <trkpt lat="42.666214" lon="0.658358">
        <ele>2214.2</ele>
        <time>1970-01-01T09:31:20.000Z</time>
      </trkpt>
      <trkpt lat="42.666218" lon="0.658357">
        <ele>2214.3</ele>
        <time>1970-01-01T09:31:22.000Z</time>
      </trkpt>
      <trkpt lat="42.666221" lon="0.658349">
        <ele>2214.5</ele>
        <time>1970-01-01T09:31:23.000Z</time>
      </trkpt>
      <trkpt lat="42.666223" lon="0.658346">
        <ele>2214.7</ele>
        <time>1970-01-01T09:31:24.000Z</time>
      </trkpt>
      <trkpt lat="42.666224" lon="0.658338">
        <ele>2214.9</ele>
        <time>1970-01-01T09:31:26.000Z</time>
      </trkpt>
      <trkpt lat="42.666225" lon="0.658328">
        <ele>2215.1</ele>
        <time>1970-01-01T09:31:27.000Z</time>
      </trkpt>
      <trkpt lat="42.666225" lon="0.658325">
        <ele>2215.2</ele>
        <time>1970-01-01T09:31:28.000Z</time>
      </trkpt>
      <trkpt lat="42.666225" lon="0.658322">
        <ele>2215.3</ele>
        <time>1970-01-01T09:31:29.000Z</time>
      </trkpt>
      <trkpt lat="42.666222" lon="0.65832">
        <ele>2215.4</ele>
        <time>1970-01-01T09:31:30.000Z</time>
      </trkpt>
      <trkpt lat="42.666216" lon="0.65832">
        <ele>2215.6</ele>
        <time>1970-01-01T09:31:31.000Z</time>
      </trkpt>
      <trkpt lat="42.666209" lon="0.658325">
        <ele>2215.9</ele>
        <time>1970-01-01T09:31:32.000Z</time>
      </trkpt>
      <trkpt lat="42.666203" lon="0.658329">
        <ele>2216.1</ele>
        <time>1970-01-01T09:31:33.000Z</time>
      </trkpt>
      <trkpt lat="42.666193" lon="0.65833">
        <ele>2216.4</ele>
        <time>1970-01-01T09:31:34.000Z</time>
      </trkpt>
      <trkpt lat="42.66618" lon="0.658318">
        <ele>2217</ele>
        <time>1970-01-01T09:31:35.000Z</time>
      </trkpt>
      <trkpt lat="42.666177" lon="0.658303">
        <ele>2217.3</ele>
        <time>1970-01-01T09:31:36.000Z</time>
      </trkpt>
      <trkpt lat="42.666177" lon="0.658299">
        <ele>2217.3</ele>
        <time>1970-01-01T09:31:37.000Z</time>
      </trkpt>
      <trkpt lat="42.666173" lon="0.658295">
        <ele>2217.3</ele>
        <time>1970-01-01T09:31:38.000Z</time>
      </trkpt>
      <trkpt lat="42.666169" lon="0.65829">
        <ele>2217.3</ele>
        <time>1970-01-01T09:31:39.000Z</time>
      </trkpt>
      <trkpt lat="42.666161" lon="0.658282">
        <ele>2217.3</ele>
        <time>1970-01-01T09:31:40.000Z</time>
      </trkpt>
      <trkpt lat="42.666162" lon="0.658262">
        <ele>2219</ele>
        <time>1970-01-01T09:31:41.000Z</time>
      </trkpt>
      <trkpt lat="42.66618" lon="0.658236">
        <ele>2219</ele>
        <time>1970-01-01T09:31:43.000Z</time>
      </trkpt>
      <trkpt lat="42.666184" lon="0.658238">
        <ele>2219</ele>
        <time>1970-01-01T09:31:44.000Z</time>
      </trkpt>
      <trkpt lat="42.666195" lon="0.658234">
        <ele>2220.1</ele>
        <time>1970-01-01T09:31:45.000Z</time>
      </trkpt>
      <trkpt lat="42.666205" lon="0.65823">
        <ele>2220.1</ele>
        <time>1970-01-01T09:31:46.000Z</time>
      </trkpt>
      <trkpt lat="42.666216" lon="0.658221">
        <ele>2220.1</ele>
        <time>1970-01-01T09:31:48.000Z</time>
      </trkpt>
      <trkpt lat="42.666221" lon="0.658214">
        <ele>2219.8</ele>
        <time>1970-01-01T09:31:49.000Z</time>
      </trkpt>
      <trkpt lat="42.666225" lon="0.65821">
        <ele>2219.8</ele>
        <time>1970-01-01T09:31:50.000Z</time>
      </trkpt>
      <trkpt lat="42.666237" lon="0.658208">
        <ele>2219.8</ele>
        <time>1970-01-01T09:31:52.000Z</time>
      </trkpt>
      <trkpt lat="42.666245" lon="0.658206">
        <ele>2219.8</ele>
        <time>1970-01-01T09:31:53.000Z</time>
      </trkpt>
      <trkpt lat="42.666252" lon="0.658206">
        <ele>2219.6</ele>
        <time>1970-01-01T09:31:54.000Z</time>
      </trkpt>
      <trkpt lat="42.666259" lon="0.658208">
        <ele>2219.6</ele>
        <time>1970-01-01T09:31:55.000Z</time>
      </trkpt>
      <trkpt lat="42.666264" lon="0.658208">
        <ele>2219.6</ele>
        <time>1970-01-01T09:31:56.000Z</time>
      </trkpt>
      <trkpt lat="42.666275" lon="0.658203">
        <ele>2219.6</ele>
        <time>1970-01-01T09:31:58.000Z</time>
      </trkpt>
      <trkpt lat="42.666274" lon="0.658199">
        <ele>2219.6</ele>
        <time>1970-01-01T09:31:59.000Z</time>
      </trkpt>
      <trkpt lat="42.666272" lon="0.658195">
        <ele>2219.6</ele>
        <time>1970-01-01T09:32:00.000Z</time>
      </trkpt>
      <trkpt lat="42.666288" lon="0.658166">
        <ele>2220.7</ele>
        <time>1970-01-01T09:32:02.000Z</time>
      </trkpt>
      <trkpt lat="42.666307" lon="0.65815">
        <ele>2220.7</ele>
        <time>1970-01-01T09:32:03.000Z</time>
      </trkpt>
      <trkpt lat="42.666313" lon="0.658151">
        <ele>2220.5</ele>
        <time>1970-01-01T09:32:04.000Z</time>
      </trkpt>
      <trkpt lat="42.666321" lon="0.658145">
        <ele>2221.9</ele>
        <time>1970-01-01T09:32:05.000Z</time>
      </trkpt>
      <trkpt lat="42.666328" lon="0.658135">
        <ele>2221.9</ele>
        <time>1970-01-01T09:32:06.000Z</time>
      </trkpt>
      <trkpt lat="42.666335" lon="0.658127">
        <ele>2221.9</ele>
        <time>1970-01-01T09:32:08.000Z</time>
      </trkpt>
      <trkpt lat="42.666343" lon="0.658125">
        <ele>2221.9</ele>
        <time>1970-01-01T09:32:09.000Z</time>
      </trkpt>
      <trkpt lat="42.666349" lon="0.658122">
        <ele>2221.8</ele>
        <time>1970-01-01T09:32:10.000Z</time>
      </trkpt>
      <trkpt lat="42.666356" lon="0.65812">
        <ele>2221.8</ele>
        <time>1970-01-01T09:32:11.000Z</time>
      </trkpt>
      <trkpt lat="42.666363" lon="0.658118">
        <ele>2221.8</ele>
        <time>1970-01-01T09:32:12.000Z</time>
      </trkpt>
      <trkpt lat="42.666367" lon="0.658117">
        <ele>2221.8</ele>
        <time>1970-01-01T09:32:13.000Z</time>
      </trkpt>
      <trkpt lat="42.666376" lon="0.658118">
        <ele>2221.7</ele>
        <time>1970-01-01T09:32:14.000Z</time>
      </trkpt>
      <trkpt lat="42.666384" lon="0.658117">
        <ele>2221.7</ele>
        <time>1970-01-01T09:32:16.000Z</time>
      </trkpt>
      <trkpt lat="42.66639" lon="0.658118">
        <ele>2221.7</ele>
        <time>1970-01-01T09:32:17.000Z</time>
      </trkpt>
      <trkpt lat="42.666397" lon="0.658117">
        <ele>2221.7</ele>
        <time>1970-01-01T09:32:18.000Z</time>
      </trkpt>
      <trkpt lat="42.666402" lon="0.658122">
        <ele>2221.7</ele>
        <time>1970-01-01T09:32:19.000Z</time>
      </trkpt>
      <trkpt lat="42.666409" lon="0.658125">
        <ele>2221.6</ele>
        <time>1970-01-01T09:32:20.000Z</time>
      </trkpt>
      <trkpt lat="42.666418" lon="0.658123">
        <ele>2221.6</ele>
        <time>1970-01-01T09:32:22.000Z</time>
      </trkpt>
      <trkpt lat="42.666422" lon="0.658124">
        <ele>2221.6</ele>
        <time>1970-01-01T09:32:23.000Z</time>
      </trkpt>
      <trkpt lat="42.666425" lon="0.658121">
        <ele>2221.6</ele>
        <time>1970-01-01T09:32:24.000Z</time>
      </trkpt>
      <trkpt lat="42.666429" lon="0.658115">
        <ele>2221.6</ele>
        <time>1970-01-01T09:32:25.000Z</time>
      </trkpt>
      <trkpt lat="42.666438" lon="0.658111">
        <ele>2221.6</ele>
        <time>1970-01-01T09:32:27.000Z</time>
      </trkpt>
      <trkpt lat="42.666447" lon="0.658109">
        <ele>2221.5</ele>
        <time>1970-01-01T09:32:29.000Z</time>
      </trkpt>
      <trkpt lat="42.666454" lon="0.658105">
        <ele>2222.9</ele>
        <time>1970-01-01T09:32:30.000Z</time>
      </trkpt>
      <trkpt lat="42.66646" lon="0.658101">
        <ele>2222.9</ele>
        <time>1970-01-01T09:32:31.000Z</time>
      </trkpt>
      <trkpt lat="42.666466" lon="0.658096">
        <ele>2222.9</ele>
        <time>1970-01-01T09:32:32.000Z</time>
      </trkpt>
      <trkpt lat="42.666469" lon="0.65809">
        <ele>2222.9</ele>
        <time>1970-01-01T09:32:33.000Z</time>
      </trkpt>
      <trkpt lat="42.666472" lon="0.658086">
        <ele>2222.9</ele>
        <time>1970-01-01T09:32:34.000Z</time>
      </trkpt>
      <trkpt lat="42.666477" lon="0.658082">
        <ele>2222.9</ele>
        <time>1970-01-01T09:32:35.000Z</time>
      </trkpt>
      <trkpt lat="42.666486" lon="0.658084">
        <ele>2222.9</ele>
        <time>1970-01-01T09:32:36.000Z</time>
      </trkpt>
      <trkpt lat="42.666495" lon="0.658084">
        <ele>2222.9</ele>
        <time>1970-01-01T09:32:37.000Z</time>
      </trkpt>
      <trkpt lat="42.666499" lon="0.658081">
        <ele>2222.9</ele>
        <time>1970-01-01T09:32:38.000Z</time>
      </trkpt>
      <trkpt lat="42.666505" lon="0.658076">
        <ele>2223</ele>
        <time>1970-01-01T09:32:39.000Z</time>
      </trkpt>
      <trkpt lat="42.666511" lon="0.658069">
        <ele>2223</ele>
        <time>1970-01-01T09:32:40.000Z</time>
      </trkpt>
      <trkpt lat="42.666517" lon="0.658064">
        <ele>2223</ele>
        <time>1970-01-01T09:32:41.000Z</time>
      </trkpt>
      <trkpt lat="42.666521" lon="0.65806">
        <ele>2224.3</ele>
        <time>1970-01-01T09:32:42.000Z</time>
      </trkpt>
      <trkpt lat="42.666528" lon="0.658051">
        <ele>2224.3</ele>
        <time>1970-01-01T09:32:43.000Z</time>
      </trkpt>
      <trkpt lat="42.666533" lon="0.658037">
        <ele>2224.3</ele>
        <time>1970-01-01T09:32:45.000Z</time>
      </trkpt>
      <trkpt lat="42.666536" lon="0.658036">
        <ele>2224.4</ele>
        <time>1970-01-01T09:32:46.000Z</time>
      </trkpt>
      <trkpt lat="42.666539" lon="0.658034">
        <ele>2224.4</ele>
        <time>1970-01-01T09:32:47.000Z</time>
      </trkpt>
      <trkpt lat="42.666543" lon="0.658034">
        <ele>2224.4</ele>
        <time>1970-01-01T09:32:48.000Z</time>
      </trkpt>
      <trkpt lat="42.666554" lon="0.658037">
        <ele>2224.4</ele>
        <time>1970-01-01T09:32:50.000Z</time>
      </trkpt>
      <trkpt lat="42.666561" lon="0.65804">
        <ele>2224.4</ele>
        <time>1970-01-01T09:32:51.000Z</time>
      </trkpt>
      <trkpt lat="42.666572" lon="0.658041">
        <ele>2224.5</ele>
        <time>1970-01-01T09:32:52.000Z</time>
      </trkpt>
      <trkpt lat="42.666582" lon="0.658038">
        <ele>2224.5</ele>
        <time>1970-01-01T09:32:54.000Z</time>
      </trkpt>
      <trkpt lat="42.666593" lon="0.658043">
        <ele>2224.5</ele>
        <time>1970-01-01T09:32:56.000Z</time>
      </trkpt>
      <trkpt lat="42.666603" lon="0.658047">
        <ele>2224.6</ele>
        <time>1970-01-01T09:32:57.000Z</time>
      </trkpt>
      <trkpt lat="42.666614" lon="0.658046">
        <ele>2224.6</ele>
        <time>1970-01-01T09:32:58.000Z</time>
      </trkpt>
      <trkpt lat="42.666624" lon="0.658042">
        <ele>2224.6</ele>
        <time>1970-01-01T09:32:59.000Z</time>
      </trkpt>
      <trkpt lat="42.666633" lon="0.658037">
        <ele>2224.7</ele>
        <time>1970-01-01T09:33:01.000Z</time>
      </trkpt>
      <trkpt lat="42.666646" lon="0.658032">
        <ele>2224.7</ele>
        <time>1970-01-01T09:33:02.000Z</time>
      </trkpt>
      <trkpt lat="42.666652" lon="0.65803">
        <ele>2224.7</ele>
        <time>1970-01-01T09:33:03.000Z</time>
      </trkpt>
      <trkpt lat="42.666659" lon="0.658024">
        <ele>2224.7</ele>
        <time>1970-01-01T09:33:04.000Z</time>
      </trkpt>
      <trkpt lat="42.666665" lon="0.658018">
        <ele>2226.1</ele>
        <time>1970-01-01T09:33:06.000Z</time>
      </trkpt>
      <trkpt lat="42.666676" lon="0.658014">
        <ele>2226.1</ele>
        <time>1970-01-01T09:33:07.000Z</time>
      </trkpt>
      <trkpt lat="42.666683" lon="0.658015">
        <ele>2226.1</ele>
        <time>1970-01-01T09:33:09.000Z</time>
      </trkpt>
      <trkpt lat="42.666693" lon="0.65801">
        <ele>2226.2</ele>
        <time>1970-01-01T09:33:10.000Z</time>
      </trkpt>
      <trkpt lat="42.666701" lon="0.658007">
        <ele>2226.2</ele>
        <time>1970-01-01T09:33:11.000Z</time>
      </trkpt>
      <trkpt lat="42.666705" lon="0.658006">
        <ele>2226.2</ele>
        <time>1970-01-01T09:33:12.000Z</time>
      </trkpt>
      <trkpt lat="42.666714" lon="0.658002">
        <ele>2226.2</ele>
        <time>1970-01-01T09:33:14.000Z</time>
      </trkpt>
      <trkpt lat="42.66672" lon="0.657995">
        <ele>2226.2</ele>
        <time>1970-01-01T09:33:15.000Z</time>
      </trkpt>
      <trkpt lat="42.666726" lon="0.657993">
        <ele>2226.3</ele>
        <time>1970-01-01T09:33:16.000Z</time>
      </trkpt>
      <trkpt lat="42.666735" lon="0.657996">
        <ele>2226.3</ele>
        <time>1970-01-01T09:33:17.000Z</time>
      </trkpt>
      <trkpt lat="42.666746" lon="0.657996">
        <ele>2226.3</ele>
        <time>1970-01-01T09:33:19.000Z</time>
      </trkpt>
      <trkpt lat="42.66675" lon="0.657996">
        <ele>2226.3</ele>
        <time>1970-01-01T09:33:20.000Z</time>
      </trkpt>
      <trkpt lat="42.666753" lon="0.657986">
        <ele>2226.3</ele>
        <time>1970-01-01T09:33:21.000Z</time>
      </trkpt>
      <trkpt lat="42.666754" lon="0.657979">
        <ele>2226.3</ele>
        <time>1970-01-01T09:33:22.000Z</time>
      </trkpt>
      <trkpt lat="42.666764" lon="0.657968">
        <ele>2227.9</ele>
        <time>1970-01-01T09:33:24.000Z</time>
      </trkpt>
      <trkpt lat="42.666771" lon="0.657962">
        <ele>2227.9</ele>
        <time>1970-01-01T09:33:25.000Z</time>
      </trkpt>
      <trkpt lat="42.666776" lon="0.657958">
        <ele>2227.9</ele>
        <time>1970-01-01T09:33:26.000Z</time>
      </trkpt>
      <trkpt lat="42.666782" lon="0.657953">
        <ele>2227.9</ele>
        <time>1970-01-01T09:33:27.000Z</time>
      </trkpt>
      <trkpt lat="42.666788" lon="0.657947">
        <ele>2228</ele>
        <time>1970-01-01T09:33:28.000Z</time>
      </trkpt>
      <trkpt lat="42.666793" lon="0.657941">
        <ele>2228</ele>
        <time>1970-01-01T09:33:29.000Z</time>
      </trkpt>
      <trkpt lat="42.666801" lon="0.657938">
        <ele>2228</ele>
        <time>1970-01-01T09:33:30.000Z</time>
      </trkpt>
      <trkpt lat="42.666806" lon="0.657935">
        <ele>2229.4</ele>
        <time>1970-01-01T09:33:31.000Z</time>
      </trkpt>
      <trkpt lat="42.666814" lon="0.657924">
        <ele>2229.4</ele>
        <time>1970-01-01T09:33:33.000Z</time>
      </trkpt>
      <trkpt lat="42.666821" lon="0.657914">
        <ele>2229.6</ele>
        <time>1970-01-01T09:33:34.000Z</time>
      </trkpt>
      <trkpt lat="42.666828" lon="0.657907">
        <ele>2229.6</ele>
        <time>1970-01-01T09:33:36.000Z</time>
      </trkpt>
      <trkpt lat="42.66684" lon="0.657907">
        <ele>2229.6</ele>
        <time>1970-01-01T09:33:37.000Z</time>
      </trkpt>
      <trkpt lat="42.666847" lon="0.657909">
        <ele>2229.6</ele>
        <time>1970-01-01T09:33:38.000Z</time>
      </trkpt>
      <trkpt lat="42.666853" lon="0.657913">
        <ele>2229.8</ele>
        <time>1970-01-01T09:33:39.000Z</time>
      </trkpt>
      <trkpt lat="42.66686" lon="0.657913">
        <ele>2229.8</ele>
        <time>1970-01-01T09:33:41.000Z</time>
      </trkpt>
      <trkpt lat="42.666869" lon="0.657912">
        <ele>2229.8</ele>
        <time>1970-01-01T09:33:42.000Z</time>
      </trkpt>
      <trkpt lat="42.666872" lon="0.657912">
        <ele>2229.8</ele>
        <time>1970-01-01T09:33:43.000Z</time>
      </trkpt>
      <trkpt lat="42.66688" lon="0.657911">
        <ele>2229.8</ele>
        <time>1970-01-01T09:33:45.000Z</time>
      </trkpt>
      <trkpt lat="42.666884" lon="0.657902">
        <ele>2230</ele>
        <time>1970-01-01T09:33:46.000Z</time>
      </trkpt>
      <trkpt lat="42.666887" lon="0.657901">
        <ele>2230</ele>
        <time>1970-01-01T09:33:47.000Z</time>
      </trkpt>
      <trkpt lat="42.66689" lon="0.657899">
        <ele>2230</ele>
        <time>1970-01-01T09:33:48.000Z</time>
      </trkpt>
      <trkpt lat="42.666898" lon="0.657901">
        <ele>2230</ele>
        <time>1970-01-01T09:33:49.000Z</time>
      </trkpt>
      <trkpt lat="42.666911" lon="0.657912">
        <ele>2230</ele>
        <time>1970-01-01T09:33:51.000Z</time>
      </trkpt>
      <trkpt lat="42.666915" lon="0.657921">
        <ele>2230.2</ele>
        <time>1970-01-01T09:33:52.000Z</time>
      </trkpt>
      <trkpt lat="42.666919" lon="0.657927">
        <ele>2230.2</ele>
        <time>1970-01-01T09:33:53.000Z</time>
      </trkpt>
      <trkpt lat="42.666922" lon="0.657935">
        <ele>2230.2</ele>
        <time>1970-01-01T09:33:54.000Z</time>
      </trkpt>
      <trkpt lat="42.666925" lon="0.657942">
        <ele>2228.8</ele>
        <time>1970-01-01T09:33:55.000Z</time>
      </trkpt>
      <trkpt lat="42.666928" lon="0.657951">
        <ele>2228.8</ele>
        <time>1970-01-01T09:33:57.000Z</time>
      </trkpt>
      <trkpt lat="42.666931" lon="0.657955">
        <ele>2228.8</ele>
        <time>1970-01-01T09:33:58.000Z</time>
      </trkpt>
      <trkpt lat="42.666935" lon="0.657957">
        <ele>2228.8</ele>
        <time>1970-01-01T09:33:59.000Z</time>
      </trkpt>
      <trkpt lat="42.666939" lon="0.65796">
        <ele>2228.8</ele>
        <time>1970-01-01T09:34:00.000Z</time>
      </trkpt>
      <trkpt lat="42.666946" lon="0.657962">
        <ele>2228.9</ele>
        <time>1970-01-01T09:34:02.000Z</time>
      </trkpt>
      <trkpt lat="42.666955" lon="0.657961">
        <ele>2228.9</ele>
        <time>1970-01-01T09:34:03.000Z</time>
      </trkpt>
      <trkpt lat="42.666962" lon="0.657962">
        <ele>2228.9</ele>
        <time>1970-01-01T09:34:04.000Z</time>
      </trkpt>
      <trkpt lat="42.666966" lon="0.657975">
        <ele>2228.9</ele>
        <time>1970-01-01T09:34:06.000Z</time>
      </trkpt>
      <trkpt lat="42.666964" lon="0.657985">
        <ele>2227.5</ele>
        <time>1970-01-01T09:34:07.000Z</time>
      </trkpt>
      <trkpt lat="42.66696" lon="0.657987">
        <ele>2227.5</ele>
        <time>1970-01-01T09:34:08.000Z</time>
      </trkpt>
      <trkpt lat="42.666958" lon="0.657987">
        <ele>2227.5</ele>
        <time>1970-01-01T09:34:09.000Z</time>
      </trkpt>
      <trkpt lat="42.666957" lon="0.657988">
        <ele>2227.5</ele>
        <time>1970-01-01T09:34:10.000Z</time>
      </trkpt>
      <trkpt lat="42.666956" lon="0.657989">
        <ele>2227.5</ele>
        <time>1970-01-01T09:34:11.000Z</time>
      </trkpt>
      <trkpt lat="42.666956" lon="0.657991">
        <ele>2227.5</ele>
        <time>1970-01-01T09:34:12.000Z</time>
      </trkpt>
      <trkpt lat="42.666957" lon="0.657992">
        <ele>2227.5</ele>
        <time>1970-01-01T09:34:13.000Z</time>
      </trkpt>
      <trkpt lat="42.666962" lon="0.657993">
        <ele>2227.5</ele>
        <time>1970-01-01T09:34:14.000Z</time>
      </trkpt>
      <trkpt lat="42.666965" lon="0.657994">
        <ele>2227.5</ele>
        <time>1970-01-01T09:34:15.000Z</time>
      </trkpt>
      <trkpt lat="42.66697" lon="0.657994">
        <ele>2227.5</ele>
        <time>1970-01-01T09:34:16.000Z</time>
      </trkpt>
      <trkpt lat="42.666977" lon="0.657994">
        <ele>2227.7</ele>
        <time>1970-01-01T09:34:17.000Z</time>
      </trkpt>
      <trkpt lat="42.666989" lon="0.657996">
        <ele>2227.7</ele>
        <time>1970-01-01T09:34:19.000Z</time>
      </trkpt>
      <trkpt lat="42.667003" lon="0.657998">
        <ele>2227.7</ele>
        <time>1970-01-01T09:34:20.000Z</time>
      </trkpt>
      <trkpt lat="42.66701" lon="0.658006">
        <ele>2227.9</ele>
        <time>1970-01-01T09:34:21.000Z</time>
      </trkpt>
      <trkpt lat="42.667009" lon="0.658015">
        <ele>2227.9</ele>
        <time>1970-01-01T09:34:22.000Z</time>
      </trkpt>
      <trkpt lat="42.667004" lon="0.658022">
        <ele>2226.3</ele>
        <time>1970-01-01T09:34:23.000Z</time>
      </trkpt>
      <trkpt lat="42.667004" lon="0.658023">
        <ele>2226.3</ele>
        <time>1970-01-01T09:34:24.000Z</time>
      </trkpt>
      <trkpt lat="42.667003" lon="0.658024">
        <ele>2226.3</ele>
        <time>1970-01-01T09:34:25.000Z</time>
      </trkpt>
      <trkpt lat="42.667003" lon="0.658025">
        <ele>2226.3</ele>
        <time>1970-01-01T09:34:26.000Z</time>
      </trkpt>
      <trkpt lat="42.667003" lon="0.658026">
        <ele>2226.3</ele>
        <time>1970-01-01T09:34:27.000Z</time>
      </trkpt>
      <trkpt lat="42.667002" lon="0.658027">
        <ele>2226.3</ele>
        <time>1970-01-01T09:34:28.000Z</time>
      </trkpt>
      <trkpt lat="42.667002" lon="0.658028">
        <ele>2226.3</ele>
        <time>1970-01-01T09:34:29.000Z</time>
      </trkpt>
      <trkpt lat="42.667002" lon="0.658028">
        <ele>2226.3</ele>
        <time>1970-01-01T09:34:30.000Z</time>
      </trkpt>
      <trkpt lat="42.667002" lon="0.658028">
        <ele>2226.3</ele>
        <time>1970-01-01T09:34:31.000Z</time>
      </trkpt>
      <trkpt lat="42.667002" lon="0.658029">
        <ele>2226.3</ele>
        <time>1970-01-01T09:34:32.000Z</time>
      </trkpt>
      <trkpt lat="42.667001" lon="0.65803">
        <ele>2226.3</ele>
        <time>1970-01-01T09:34:33.000Z</time>
      </trkpt>
      <trkpt lat="42.667001" lon="0.65803">
        <ele>2226.3</ele>
        <time>1970-01-01T09:34:34.000Z</time>
      </trkpt>
      <trkpt lat="42.667" lon="0.658031">
        <ele>2226.3</ele>
        <time>1970-01-01T09:34:35.000Z</time>
      </trkpt>
      <trkpt lat="42.667" lon="0.658031">
        <ele>2226.3</ele>
        <time>1970-01-01T09:34:36.000Z</time>
      </trkpt>
      <trkpt lat="42.667" lon="0.658032">
        <ele>2226.3</ele>
        <time>1970-01-01T09:34:37.000Z</time>
      </trkpt>
      <trkpt lat="42.667001" lon="0.658033">
        <ele>2226.3</ele>
        <time>1970-01-01T09:34:38.000Z</time>
      </trkpt>
      <trkpt lat="42.667003" lon="0.658035">
        <ele>2226.3</ele>
        <time>1970-01-01T09:34:39.000Z</time>
      </trkpt>
      <trkpt lat="42.667005" lon="0.658037">
        <ele>2226.3</ele>
        <time>1970-01-01T09:34:40.000Z</time>
      </trkpt>
      <trkpt lat="42.66701" lon="0.658034">
        <ele>2226.5</ele>
        <time>1970-01-01T09:34:41.000Z</time>
      </trkpt>
      <trkpt lat="42.667014" lon="0.658035">
        <ele>2226.5</ele>
        <time>1970-01-01T09:34:42.000Z</time>
      </trkpt>
      <trkpt lat="42.667015" lon="0.658029">
        <ele>2226.5</ele>
        <time>1970-01-01T09:34:43.000Z</time>
      </trkpt>
      <trkpt lat="42.667018" lon="0.658033">
        <ele>2226.5</ele>
        <time>1970-01-01T09:34:45.000Z</time>
      </trkpt>
      <trkpt lat="42.667023" lon="0.658021">
        <ele>2226.5</ele>
        <time>1970-01-01T09:34:46.000Z</time>
      </trkpt>
      <trkpt lat="42.667028" lon="0.65801">
        <ele>2227.9</ele>
        <time>1970-01-01T09:34:47.000Z</time>
      </trkpt>
      <trkpt lat="42.667031" lon="0.658003">
        <ele>2227.9</ele>
        <time>1970-01-01T09:34:48.000Z</time>
      </trkpt>
      <trkpt lat="42.667044" lon="0.657994">
        <ele>2228</ele>
        <time>1970-01-01T09:34:50.000Z</time>
      </trkpt>
      <trkpt lat="42.66706" lon="0.657991">
        <ele>2228</ele>
        <time>1970-01-01T09:34:51.000Z</time>
      </trkpt>
      <trkpt lat="42.667067" lon="0.65799">
        <ele>2228</ele>
        <time>1970-01-01T09:34:52.000Z</time>
      </trkpt>
      <trkpt lat="42.667077" lon="0.657986">
        <ele>2228.2</ele>
        <time>1970-01-01T09:34:53.000Z</time>
      </trkpt>
      <trkpt lat="42.667086" lon="0.657981">
        <ele>2228.2</ele>
        <time>1970-01-01T09:34:54.000Z</time>
      </trkpt>
      <trkpt lat="42.667096" lon="0.65798">
        <ele>2228.2</ele>
        <time>1970-01-01T09:34:55.000Z</time>
      </trkpt>
      <trkpt lat="42.667105" lon="0.657983">
        <ele>2228.3</ele>
        <time>1970-01-01T09:34:56.000Z</time>
      </trkpt>
      <trkpt lat="42.667119" lon="0.657986">
        <ele>2228.3</ele>
        <time>1970-01-01T09:34:57.000Z</time>
      </trkpt>
      <trkpt lat="42.66713" lon="0.657985">
        <ele>2228.3</ele>
        <time>1970-01-01T09:34:58.000Z</time>
      </trkpt>
      <trkpt lat="42.667141" lon="0.657986">
        <ele>2228.4</ele>
        <time>1970-01-01T09:34:59.000Z</time>
      </trkpt>
      <trkpt lat="42.667151" lon="0.657989">
        <ele>2228.4</ele>
        <time>1970-01-01T09:35:00.000Z</time>
      </trkpt>
      <trkpt lat="42.667162" lon="0.657985">
        <ele>2228.4</ele>
        <time>1970-01-01T09:35:02.000Z</time>
      </trkpt>
      <trkpt lat="42.667175" lon="0.657979">
        <ele>2228.5</ele>
        <time>1970-01-01T09:35:03.000Z</time>
      </trkpt>
      <trkpt lat="42.667182" lon="0.657975">
        <ele>2229.9</ele>
        <time>1970-01-01T09:35:04.000Z</time>
      </trkpt>
      <trkpt lat="42.667192" lon="0.657973">
        <ele>2229.9</ele>
        <time>1970-01-01T09:35:05.000Z</time>
      </trkpt>
      <trkpt lat="42.667203" lon="0.657966">
        <ele>2230</ele>
        <time>1970-01-01T09:35:07.000Z</time>
      </trkpt>
      <trkpt lat="42.66721" lon="0.65796">
        <ele>2230</ele>
        <time>1970-01-01T09:35:08.000Z</time>
      </trkpt>
      <trkpt lat="42.667217" lon="0.657955">
        <ele>2230</ele>
        <time>1970-01-01T09:35:09.000Z</time>
      </trkpt>
      <trkpt lat="42.667226" lon="0.657951">
        <ele>2230</ele>
        <time>1970-01-01T09:35:10.000Z</time>
      </trkpt>
      <trkpt lat="42.667237" lon="0.657942">
        <ele>2230</ele>
        <time>1970-01-01T09:35:12.000Z</time>
      </trkpt>
      <trkpt lat="42.667244" lon="0.657936">
        <ele>2230</ele>
        <time>1970-01-01T09:35:13.000Z</time>
      </trkpt>
      <trkpt lat="42.66725" lon="0.657931">
        <ele>2231.5</ele>
        <time>1970-01-01T09:35:14.000Z</time>
      </trkpt>
      <trkpt lat="42.667257" lon="0.657923">
        <ele>2231.5</ele>
        <time>1970-01-01T09:35:15.000Z</time>
      </trkpt>
      <trkpt lat="42.667265" lon="0.657917">
        <ele>2231.5</ele>
        <time>1970-01-01T09:35:17.000Z</time>
      </trkpt>
      <trkpt lat="42.667274" lon="0.657923">
        <ele>2231.5</ele>
        <time>1970-01-01T09:35:18.000Z</time>
      </trkpt>
      <trkpt lat="42.667278" lon="0.657927">
        <ele>2231.5</ele>
        <time>1970-01-01T09:35:19.000Z</time>
      </trkpt>
      <trkpt lat="42.667282" lon="0.657931">
        <ele>2231.5</ele>
        <time>1970-01-01T09:35:20.000Z</time>
      </trkpt>
      <trkpt lat="42.667285" lon="0.657935">
        <ele>2231.5</ele>
        <time>1970-01-01T09:35:21.000Z</time>
      </trkpt>
      <trkpt lat="42.667284" lon="0.657939">
        <ele>2230.1</ele>
        <time>1970-01-01T09:35:22.000Z</time>
      </trkpt>
      <trkpt lat="42.667283" lon="0.657939">
        <ele>2230.1</ele>
        <time>1970-01-01T09:35:23.000Z</time>
      </trkpt>
      <trkpt lat="42.667282" lon="0.65794">
        <ele>2230.1</ele>
        <time>1970-01-01T09:35:24.000Z</time>
      </trkpt>
      <trkpt lat="42.667285" lon="0.657939">
        <ele>2230.1</ele>
        <time>1970-01-01T09:35:25.000Z</time>
      </trkpt>
      <trkpt lat="42.667289" lon="0.657937">
        <ele>2230.1</ele>
        <time>1970-01-01T09:35:26.000Z</time>
      </trkpt>
      <trkpt lat="42.667297" lon="0.657934">
        <ele>2231.5</ele>
        <time>1970-01-01T09:35:28.000Z</time>
      </trkpt>
      <trkpt lat="42.6673" lon="0.657939">
        <ele>2230.1</ele>
        <time>1970-01-01T09:35:29.000Z</time>
      </trkpt>
      <trkpt lat="42.667301" lon="0.657944">
        <ele>2230.1</ele>
        <time>1970-01-01T09:35:30.000Z</time>
      </trkpt>
      <trkpt lat="42.667302" lon="0.657946">
        <ele>2230.1</ele>
        <time>1970-01-01T09:35:31.000Z</time>
      </trkpt>
      <trkpt lat="42.667302" lon="0.657947">
        <ele>2230.1</ele>
        <time>1970-01-01T09:35:32.000Z</time>
      </trkpt>
      <trkpt lat="42.667303" lon="0.657948">
        <ele>2230.1</ele>
        <time>1970-01-01T09:35:33.000Z</time>
      </trkpt>
      <trkpt lat="42.667304" lon="0.65795">
        <ele>2230.1</ele>
        <time>1970-01-01T09:35:34.000Z</time>
      </trkpt>
      <trkpt lat="42.667308" lon="0.657951">
        <ele>2230.1</ele>
        <time>1970-01-01T09:35:35.000Z</time>
      </trkpt>
      <trkpt lat="42.667317" lon="0.657952">
        <ele>2230.1</ele>
        <time>1970-01-01T09:35:36.000Z</time>
      </trkpt>
      <trkpt lat="42.667326" lon="0.657956">
        <ele>2230.1</ele>
        <time>1970-01-01T09:35:37.000Z</time>
      </trkpt>
      <trkpt lat="42.667339" lon="0.657959">
        <ele>2230.1</ele>
        <time>1970-01-01T09:35:39.000Z</time>
      </trkpt>
      <trkpt lat="42.667352" lon="0.657958">
        <ele>2230.1</ele>
        <time>1970-01-01T09:35:40.000Z</time>
      </trkpt>
      <trkpt lat="42.667364" lon="0.657956">
        <ele>2230.1</ele>
        <time>1970-01-01T09:35:41.000Z</time>
      </trkpt>
      <trkpt lat="42.667375" lon="0.657954">
        <ele>2230.1</ele>
        <time>1970-01-01T09:35:42.000Z</time>
      </trkpt>
      <trkpt lat="42.667387" lon="0.65795">
        <ele>2230</ele>
        <time>1970-01-01T09:35:43.000Z</time>
      </trkpt>
      <trkpt lat="42.667395" lon="0.657944">
        <ele>2230</ele>
        <time>1970-01-01T09:35:44.000Z</time>
      </trkpt>
      <trkpt lat="42.667403" lon="0.65794">
        <ele>2230</ele>
        <time>1970-01-01T09:35:45.000Z</time>
      </trkpt>
      <trkpt lat="42.667415" lon="0.657936">
        <ele>2230</ele>
        <time>1970-01-01T09:35:47.000Z</time>
      </trkpt>
      <trkpt lat="42.66742" lon="0.657929">
        <ele>2231.4</ele>
        <time>1970-01-01T09:35:48.000Z</time>
      </trkpt>
      <trkpt lat="42.667426" lon="0.657922">
        <ele>2231.4</ele>
        <time>1970-01-01T09:35:49.000Z</time>
      </trkpt>
      <trkpt lat="42.667435" lon="0.657919">
        <ele>2231.4</ele>
        <time>1970-01-01T09:35:51.000Z</time>
      </trkpt>
      <trkpt lat="42.667445" lon="0.657917">
        <ele>2231.4</ele>
        <time>1970-01-01T09:35:52.000Z</time>
      </trkpt>
      <trkpt lat="42.66745" lon="0.657917">
        <ele>2231.4</ele>
        <time>1970-01-01T09:35:53.000Z</time>
      </trkpt>
      <trkpt lat="42.667457" lon="0.657914">
        <ele>2231.4</ele>
        <time>1970-01-01T09:35:54.000Z</time>
      </trkpt>
      <trkpt lat="42.667466" lon="0.657908">
        <ele>2231.4</ele>
        <time>1970-01-01T09:35:56.000Z</time>
      </trkpt>
      <trkpt lat="42.667472" lon="0.657904">
        <ele>2231.4</ele>
        <time>1970-01-01T09:35:57.000Z</time>
      </trkpt>
      <trkpt lat="42.667476" lon="0.657899">
        <ele>2231.4</ele>
        <time>1970-01-01T09:35:58.000Z</time>
      </trkpt>
      <trkpt lat="42.66748" lon="0.657892">
        <ele>2232.9</ele>
        <time>1970-01-01T09:35:59.000Z</time>
      </trkpt>
      <trkpt lat="42.667487" lon="0.657886">
        <ele>2232.9</ele>
        <time>1970-01-01T09:36:01.000Z</time>
      </trkpt>
      <trkpt lat="42.667497" lon="0.657881">
        <ele>2232.9</ele>
        <time>1970-01-01T09:36:02.000Z</time>
      </trkpt>
      <trkpt lat="42.667501" lon="0.657878">
        <ele>2232.9</ele>
        <time>1970-01-01T09:36:03.000Z</time>
      </trkpt>
      <trkpt lat="42.667505" lon="0.657874">
        <ele>2232.9</ele>
        <time>1970-01-01T09:36:04.000Z</time>
      </trkpt>
      <trkpt lat="42.667513" lon="0.657872">
        <ele>2232.9</ele>
        <time>1970-01-01T09:36:05.000Z</time>
      </trkpt>
      <trkpt lat="42.667518" lon="0.657871">
        <ele>2232.9</ele>
        <time>1970-01-01T09:36:06.000Z</time>
      </trkpt>
      <trkpt lat="42.667528" lon="0.657869">
        <ele>2232.9</ele>
        <time>1970-01-01T09:36:07.000Z</time>
      </trkpt>
      <trkpt lat="42.667539" lon="0.657865">
        <ele>2232.9</ele>
        <time>1970-01-01T09:36:09.000Z</time>
      </trkpt>
      <trkpt lat="42.667547" lon="0.657863">
        <ele>2232.8</ele>
        <time>1970-01-01T09:36:10.000Z</time>
      </trkpt>
      <trkpt lat="42.667556" lon="0.657859">
        <ele>2232.8</ele>
        <time>1970-01-01T09:36:11.000Z</time>
      </trkpt>
      <trkpt lat="42.667564" lon="0.657857">
        <ele>2232.8</ele>
        <time>1970-01-01T09:36:12.000Z</time>
      </trkpt>
      <trkpt lat="42.667577" lon="0.657852">
        <ele>2232.8</ele>
        <time>1970-01-01T09:36:13.000Z</time>
      </trkpt>
      <trkpt lat="42.667587" lon="0.657847">
        <ele>2234.4</ele>
        <time>1970-01-01T09:36:15.000Z</time>
      </trkpt>
      <trkpt lat="42.667596" lon="0.65784">
        <ele>2234.4</ele>
        <time>1970-01-01T09:36:16.000Z</time>
      </trkpt>
      <trkpt lat="42.667604" lon="0.657826">
        <ele>2234.4</ele>
        <time>1970-01-01T09:36:17.000Z</time>
      </trkpt>
      <trkpt lat="42.667611" lon="0.657816">
        <ele>2234.3</ele>
        <time>1970-01-01T09:36:19.000Z</time>
      </trkpt>
      <trkpt lat="42.667622" lon="0.657804">
        <ele>2235.9</ele>
        <time>1970-01-01T09:36:20.000Z</time>
      </trkpt>
      <trkpt lat="42.667632" lon="0.657799">
        <ele>2235.9</ele>
        <time>1970-01-01T09:36:21.000Z</time>
      </trkpt>
      <trkpt lat="42.667643" lon="0.657795">
        <ele>2235.8</ele>
        <time>1970-01-01T09:36:23.000Z</time>
      </trkpt>
      <trkpt lat="42.667654" lon="0.657788">
        <ele>2235.8</ele>
        <time>1970-01-01T09:36:24.000Z</time>
      </trkpt>
      <trkpt lat="42.667663" lon="0.657788">
        <ele>2235.8</ele>
        <time>1970-01-01T09:36:25.000Z</time>
      </trkpt>
      <trkpt lat="42.667673" lon="0.657782">
        <ele>2235.8</ele>
        <time>1970-01-01T09:36:27.000Z</time>
      </trkpt>
      <trkpt lat="42.667684" lon="0.657771">
        <ele>2235.8</ele>
        <time>1970-01-01T09:36:28.000Z</time>
      </trkpt>
      <trkpt lat="42.667691" lon="0.657763">
        <ele>2237.2</ele>
        <time>1970-01-01T09:36:29.000Z</time>
      </trkpt>
      <trkpt lat="42.667697" lon="0.657759">
        <ele>2237.2</ele>
        <time>1970-01-01T09:36:30.000Z</time>
      </trkpt>
      <trkpt lat="42.667707" lon="0.65775">
        <ele>2237.2</ele>
        <time>1970-01-01T09:36:31.000Z</time>
      </trkpt>
      <trkpt lat="42.667715" lon="0.657743">
        <ele>2237.2</ele>
        <time>1970-01-01T09:36:32.000Z</time>
      </trkpt>
      <trkpt lat="42.667725" lon="0.657737">
        <ele>2237.2</ele>
        <time>1970-01-01T09:36:34.000Z</time>
      </trkpt>
      <trkpt lat="42.667739" lon="0.657734">
        <ele>2237.1</ele>
        <time>1970-01-01T09:36:35.000Z</time>
      </trkpt>
      <trkpt lat="42.66775" lon="0.657732">
        <ele>2237.1</ele>
        <time>1970-01-01T09:36:36.000Z</time>
      </trkpt>
      <trkpt lat="42.667762" lon="0.657731">
        <ele>2237.1</ele>
        <time>1970-01-01T09:36:38.000Z</time>
      </trkpt>
      <trkpt lat="42.667773" lon="0.657726">
        <ele>2237</ele>
        <time>1970-01-01T09:36:39.000Z</time>
      </trkpt>
      <trkpt lat="42.667784" lon="0.657717">
        <ele>2238.3</ele>
        <time>1970-01-01T09:36:40.000Z</time>
      </trkpt>
      <trkpt lat="42.667793" lon="0.657703">
        <ele>2238.3</ele>
        <time>1970-01-01T09:36:42.000Z</time>
      </trkpt>
      <trkpt lat="42.667798" lon="0.657691">
        <ele>2238.2</ele>
        <time>1970-01-01T09:36:43.000Z</time>
      </trkpt>
      <trkpt lat="42.667799" lon="0.657684">
        <ele>2238.2</ele>
        <time>1970-01-01T09:36:44.000Z</time>
      </trkpt>
      <trkpt lat="42.667802" lon="0.657673">
        <ele>2239.4</ele>
        <time>1970-01-01T09:36:45.000Z</time>
      </trkpt>
      <trkpt lat="42.667809" lon="0.657659">
        <ele>2239.4</ele>
        <time>1970-01-01T09:36:47.000Z</time>
      </trkpt>
      <trkpt lat="42.667819" lon="0.657652">
        <ele>2239.4</ele>
        <time>1970-01-01T09:36:48.000Z</time>
      </trkpt>
      <trkpt lat="42.66783" lon="0.657645">
        <ele>2239.3</ele>
        <time>1970-01-01T09:36:49.000Z</time>
      </trkpt>
      <trkpt lat="42.667841" lon="0.657641">
        <ele>2239.3</ele>
        <time>1970-01-01T09:36:51.000Z</time>
      </trkpt>
      <trkpt lat="42.667852" lon="0.657634">
        <ele>2240.5</ele>
        <time>1970-01-01T09:36:52.000Z</time>
      </trkpt>
      <trkpt lat="42.667858" lon="0.657626">
        <ele>2240.5</ele>
        <time>1970-01-01T09:36:53.000Z</time>
      </trkpt>
      <trkpt lat="42.667864" lon="0.657618">
        <ele>2240.3</ele>
        <time>1970-01-01T09:36:54.000Z</time>
      </trkpt>
      <trkpt lat="42.66787" lon="0.657611">
        <ele>2240.3</ele>
        <time>1970-01-01T09:36:55.000Z</time>
      </trkpt>
      <trkpt lat="42.667875" lon="0.657609">
        <ele>2240.3</ele>
        <time>1970-01-01T09:36:56.000Z</time>
      </trkpt>
      <trkpt lat="42.667878" lon="0.657607">
        <ele>2240.3</ele>
        <time>1970-01-01T09:36:57.000Z</time>
      </trkpt>
      <trkpt lat="42.667884" lon="0.657606">
        <ele>2240.3</ele>
        <time>1970-01-01T09:36:58.000Z</time>
      </trkpt>
      <trkpt lat="42.667891" lon="0.657603">
        <ele>2240.1</ele>
        <time>1970-01-01T09:36:59.000Z</time>
      </trkpt>
      <trkpt lat="42.667899" lon="0.6576">
        <ele>2240.1</ele>
        <time>1970-01-01T09:37:00.000Z</time>
      </trkpt>
      <trkpt lat="42.667907" lon="0.657594">
        <ele>2240.1</ele>
        <time>1970-01-01T09:37:01.000Z</time>
      </trkpt>
      <trkpt lat="42.667912" lon="0.657591">
        <ele>2241.3</ele>
        <time>1970-01-01T09:37:02.000Z</time>
      </trkpt>
      <trkpt lat="42.667921" lon="0.657585">
        <ele>2241.3</ele>
        <time>1970-01-01T09:37:03.000Z</time>
      </trkpt>
      <trkpt lat="42.667931" lon="0.657582">
        <ele>2241.2</ele>
        <time>1970-01-01T09:37:04.000Z</time>
      </trkpt>
      <trkpt lat="42.667937" lon="0.657583">
        <ele>2241.2</ele>
        <time>1970-01-01T09:37:05.000Z</time>
      </trkpt>
      <trkpt lat="42.667947" lon="0.657583">
        <ele>2241.2</ele>
        <time>1970-01-01T09:37:06.000Z</time>
      </trkpt>
      <trkpt lat="42.667955" lon="0.657578">
        <ele>2241</ele>
        <time>1970-01-01T09:37:07.000Z</time>
      </trkpt>
      <trkpt lat="42.667963" lon="0.657572">
        <ele>2241</ele>
        <time>1970-01-01T09:37:08.000Z</time>
      </trkpt>
      <trkpt lat="42.667968" lon="0.657566">
        <ele>2241</ele>
        <time>1970-01-01T09:37:09.000Z</time>
      </trkpt>
      <trkpt lat="42.667974" lon="0.657559">
        <ele>2241</ele>
        <time>1970-01-01T09:37:10.000Z</time>
      </trkpt>
      <trkpt lat="42.667986" lon="0.657553">
        <ele>2240.9</ele>
        <time>1970-01-01T09:37:12.000Z</time>
      </trkpt>
      <trkpt lat="42.668001" lon="0.657547">
        <ele>2242.2</ele>
        <time>1970-01-01T09:37:13.000Z</time>
      </trkpt>
      <trkpt lat="42.668008" lon="0.657542">
        <ele>2242.2</ele>
        <time>1970-01-01T09:37:14.000Z</time>
      </trkpt>
      <trkpt lat="42.668015" lon="0.657537">
        <ele>2242.2</ele>
        <time>1970-01-01T09:37:15.000Z</time>
      </trkpt>
      <trkpt lat="42.668022" lon="0.657532">
        <ele>2242.1</ele>
        <time>1970-01-01T09:37:17.000Z</time>
      </trkpt>
      <trkpt lat="42.668029" lon="0.657527">
        <ele>2242.1</ele>
        <time>1970-01-01T09:37:18.000Z</time>
      </trkpt>
      <trkpt lat="42.668035" lon="0.657522">
        <ele>2242.1</ele>
        <time>1970-01-01T09:37:19.000Z</time>
      </trkpt>
      <trkpt lat="42.668042" lon="0.657517">
        <ele>2242.1</ele>
        <time>1970-01-01T09:37:21.000Z</time>
      </trkpt>
      <trkpt lat="42.668049" lon="0.657512">
        <ele>2242.1</ele>
        <time>1970-01-01T09:37:22.000Z</time>
      </trkpt>
      <trkpt lat="42.668057" lon="0.657509">
        <ele>2242.1</ele>
        <time>1970-01-01T09:37:23.000Z</time>
      </trkpt>
      <trkpt lat="42.668062" lon="0.657508">
        <ele>2242.1</ele>
        <time>1970-01-01T09:37:24.000Z</time>
      </trkpt>
      <trkpt lat="42.668076" lon="0.6575">
        <ele>2243.3</ele>
        <time>1970-01-01T09:37:26.000Z</time>
      </trkpt>
      <trkpt lat="42.66808" lon="0.657495">
        <ele>2243.3</ele>
        <time>1970-01-01T09:37:27.000Z</time>
      </trkpt>
      <trkpt lat="42.668083" lon="0.65749">
        <ele>2243.3</ele>
        <time>1970-01-01T09:37:28.000Z</time>
      </trkpt>
      <trkpt lat="42.668087" lon="0.657481">
        <ele>2243.3</ele>
        <time>1970-01-01T09:37:30.000Z</time>
      </trkpt>
      <trkpt lat="42.668092" lon="0.657468">
        <ele>2243.3</ele>
        <time>1970-01-01T09:37:31.000Z</time>
      </trkpt>
      <trkpt lat="42.668097" lon="0.657459">
        <ele>2244.6</ele>
        <time>1970-01-01T09:37:33.000Z</time>
      </trkpt>
      <trkpt lat="42.668103" lon="0.657454">
        <ele>2244.6</ele>
        <time>1970-01-01T09:37:34.000Z</time>
      </trkpt>
      <trkpt lat="42.668108" lon="0.657448">
        <ele>2244.6</ele>
        <time>1970-01-01T09:37:35.000Z</time>
      </trkpt>
      <trkpt lat="42.668112" lon="0.657445">
        <ele>2244.6</ele>
        <time>1970-01-01T09:37:36.000Z</time>
      </trkpt>
      <trkpt lat="42.668117" lon="0.657439">
        <ele>2244.6</ele>
        <time>1970-01-01T09:37:37.000Z</time>
      </trkpt>
      <trkpt lat="42.668124" lon="0.657433">
        <ele>2244.6</ele>
        <time>1970-01-01T09:37:39.000Z</time>
      </trkpt>
      <trkpt lat="42.668129" lon="0.657421">
        <ele>2244.6</ele>
        <time>1970-01-01T09:37:40.000Z</time>
      </trkpt>
      <trkpt lat="42.668133" lon="0.657415">
        <ele>2245.9</ele>
        <time>1970-01-01T09:37:41.000Z</time>
      </trkpt>
      <trkpt lat="42.66814" lon="0.657405">
        <ele>2245.9</ele>
        <time>1970-01-01T09:37:43.000Z</time>
      </trkpt>
      <trkpt lat="42.668147" lon="0.6574">
        <ele>2246</ele>
        <time>1970-01-01T09:37:44.000Z</time>
      </trkpt>
      <trkpt lat="42.668151" lon="0.657396">
        <ele>2246</ele>
        <time>1970-01-01T09:37:45.000Z</time>
      </trkpt>
      <trkpt lat="42.668156" lon="0.657391">
        <ele>2246</ele>
        <time>1970-01-01T09:37:46.000Z</time>
      </trkpt>
      <trkpt lat="42.66816" lon="0.657386">
        <ele>2246</ele>
        <time>1970-01-01T09:37:47.000Z</time>
      </trkpt>
      <trkpt lat="42.668162" lon="0.657378">
        <ele>2246</ele>
        <time>1970-01-01T09:37:48.000Z</time>
      </trkpt>
      <trkpt lat="42.668162" lon="0.657373">
        <ele>2247.2</ele>
        <time>1970-01-01T09:37:49.000Z</time>
      </trkpt>
      <trkpt lat="42.668164" lon="0.657366">
        <ele>2247.2</ele>
        <time>1970-01-01T09:37:51.000Z</time>
      </trkpt>
      <trkpt lat="42.668171" lon="0.657355">
        <ele>2247.2</ele>
        <time>1970-01-01T09:37:52.000Z</time>
      </trkpt>
      <trkpt lat="42.66818" lon="0.657353">
        <ele>2247.3</ele>
        <time>1970-01-01T09:37:53.000Z</time>
      </trkpt>
      <trkpt lat="42.668186" lon="0.657351">
        <ele>2247.3</ele>
        <time>1970-01-01T09:37:54.000Z</time>
      </trkpt>
      <trkpt lat="42.668198" lon="0.657332">
        <ele>2248.5</ele>
        <time>1970-01-01T09:37:55.000Z</time>
      </trkpt>
      <trkpt lat="42.668204" lon="0.657322">
        <ele>2248.5</ele>
        <time>1970-01-01T09:37:57.000Z</time>
      </trkpt>
      <trkpt lat="42.66821" lon="0.657312">
        <ele>2248.6</ele>
        <time>1970-01-01T09:37:58.000Z</time>
      </trkpt>
      <trkpt lat="42.668231" lon="0.65731">
        <ele>2248.6</ele>
        <time>1970-01-01T09:37:59.000Z</time>
      </trkpt>
      <trkpt lat="42.668239" lon="0.657309">
        <ele>2248.6</ele>
        <time>1970-01-01T09:38:01.000Z</time>
      </trkpt>
      <trkpt lat="42.668246" lon="0.657308">
        <ele>2248.6</ele>
        <time>1970-01-01T09:38:02.000Z</time>
      </trkpt>
      <trkpt lat="42.668251" lon="0.657298">
        <ele>2248.6</ele>
        <time>1970-01-01T09:38:03.000Z</time>
      </trkpt>
      <trkpt lat="42.668253" lon="0.657289">
        <ele>2249.8</ele>
        <time>1970-01-01T09:38:04.000Z</time>
      </trkpt>
      <trkpt lat="42.668261" lon="0.657285">
        <ele>2249.8</ele>
        <time>1970-01-01T09:38:05.000Z</time>
      </trkpt>
      <trkpt lat="42.668271" lon="0.657285">
        <ele>2249.9</ele>
        <time>1970-01-01T09:38:06.000Z</time>
      </trkpt>
      <trkpt lat="42.66828" lon="0.657283">
        <ele>2249.9</ele>
        <time>1970-01-01T09:38:07.000Z</time>
      </trkpt>
      <trkpt lat="42.668289" lon="0.657279">
        <ele>2249.9</ele>
        <time>1970-01-01T09:38:08.000Z</time>
      </trkpt>
      <trkpt lat="42.6683" lon="0.657272">
        <ele>2249.9</ele>
        <time>1970-01-01T09:38:09.000Z</time>
      </trkpt>
      <trkpt lat="42.668313" lon="0.657256">
        <ele>2250</ele>
        <time>1970-01-01T09:38:11.000Z</time>
      </trkpt>
      <trkpt lat="42.668318" lon="0.65725">
        <ele>2250</ele>
        <time>1970-01-01T09:38:12.000Z</time>
      </trkpt>
      <trkpt lat="42.668322" lon="0.657245">
        <ele>2251.1</ele>
        <time>1970-01-01T09:38:13.000Z</time>
      </trkpt>
      <trkpt lat="42.668327" lon="0.657239">
        <ele>2251.1</ele>
        <time>1970-01-01T09:38:14.000Z</time>
      </trkpt>
      <trkpt lat="42.668333" lon="0.657231">
        <ele>2251.2</ele>
        <time>1970-01-01T09:38:16.000Z</time>
      </trkpt>
      <trkpt lat="42.66834" lon="0.657218">
        <ele>2251.2</ele>
        <time>1970-01-01T09:38:17.000Z</time>
      </trkpt>
      <trkpt lat="42.668342" lon="0.657204">
        <ele>2252.3</ele>
        <time>1970-01-01T09:38:18.000Z</time>
      </trkpt>
      <trkpt lat="42.668346" lon="0.657192">
        <ele>2252.3</ele>
        <time>1970-01-01T09:38:20.000Z</time>
      </trkpt>
      <trkpt lat="42.668351" lon="0.65718">
        <ele>2252.3</ele>
        <time>1970-01-01T09:38:21.000Z</time>
      </trkpt>
      <trkpt lat="42.668352" lon="0.657175">
        <ele>2252.3</ele>
        <time>1970-01-01T09:38:22.000Z</time>
      </trkpt>
      <trkpt lat="42.668362" lon="0.65717">
        <ele>2252.3</ele>
        <time>1970-01-01T09:38:23.000Z</time>
      </trkpt>
      <trkpt lat="42.668374" lon="0.657162">
        <ele>2253.4</ele>
        <time>1970-01-01T09:38:25.000Z</time>
      </trkpt>
      <trkpt lat="42.66838" lon="0.657156">
        <ele>2253.4</ele>
        <time>1970-01-01T09:38:26.000Z</time>
      </trkpt>
      <trkpt lat="42.668381" lon="0.657149">
        <ele>2253.4</ele>
        <time>1970-01-01T09:38:27.000Z</time>
      </trkpt>
      <trkpt lat="42.668383" lon="0.657143">
        <ele>2253.4</ele>
        <time>1970-01-01T09:38:28.000Z</time>
      </trkpt>
      <trkpt lat="42.668386" lon="0.657134">
        <ele>2253.4</ele>
        <time>1970-01-01T09:38:29.000Z</time>
      </trkpt>
      <trkpt lat="42.66839" lon="0.657128">
        <ele>2253.4</ele>
        <time>1970-01-01T09:38:30.000Z</time>
      </trkpt>
      <trkpt lat="42.668394" lon="0.657123">
        <ele>2253.4</ele>
        <time>1970-01-01T09:38:31.000Z</time>
      </trkpt>
      <trkpt lat="42.668398" lon="0.657116">
        <ele>2254.4</ele>
        <time>1970-01-01T09:38:32.000Z</time>
      </trkpt>
      <trkpt lat="42.668401" lon="0.657111">
        <ele>2254.4</ele>
        <time>1970-01-01T09:38:33.000Z</time>
      </trkpt>
      <trkpt lat="42.668407" lon="0.657104">
        <ele>2254.4</ele>
        <time>1970-01-01T09:38:34.000Z</time>
      </trkpt>
      <trkpt lat="42.668411" lon="0.657096">
        <ele>2254.4</ele>
        <time>1970-01-01T09:38:35.000Z</time>
      </trkpt>
      <trkpt lat="42.668415" lon="0.657087">
        <ele>2254.4</ele>
        <time>1970-01-01T09:38:36.000Z</time>
      </trkpt>
      <trkpt lat="42.66842" lon="0.657082">
        <ele>2254.4</ele>
        <time>1970-01-01T09:38:37.000Z</time>
      </trkpt>
      <trkpt lat="42.668428" lon="0.657078">
        <ele>2254.5</ele>
        <time>1970-01-01T09:38:38.000Z</time>
      </trkpt>
      <trkpt lat="42.668438" lon="0.657075">
        <ele>2255.4</ele>
        <time>1970-01-01T09:38:39.000Z</time>
      </trkpt>
      <trkpt lat="42.668447" lon="0.657069">
        <ele>2255.4</ele>
        <time>1970-01-01T09:38:41.000Z</time>
      </trkpt>
      <trkpt lat="42.668458" lon="0.65707">
        <ele>2255.4</ele>
        <time>1970-01-01T09:38:42.000Z</time>
      </trkpt>
      <trkpt lat="42.66847" lon="0.657067">
        <ele>2255.5</ele>
        <time>1970-01-01T09:38:44.000Z</time>
      </trkpt>
      <trkpt lat="42.668477" lon="0.657066">
        <ele>2255.5</ele>
        <time>1970-01-01T09:38:45.000Z</time>
      </trkpt>
      <trkpt lat="42.668481" lon="0.657065">
        <ele>2255.5</ele>
        <time>1970-01-01T09:38:46.000Z</time>
      </trkpt>
      <trkpt lat="42.668491" lon="0.657061">
        <ele>2255.5</ele>
        <time>1970-01-01T09:38:48.000Z</time>
      </trkpt>
      <trkpt lat="42.668501" lon="0.657055">
        <ele>2255.5</ele>
        <time>1970-01-01T09:38:49.000Z</time>
      </trkpt>
      <trkpt lat="42.668509" lon="0.657049">
        <ele>2255.5</ele>
        <time>1970-01-01T09:38:50.000Z</time>
      </trkpt>
      <trkpt lat="42.668518" lon="0.657043">
        <ele>2255.5</ele>
        <time>1970-01-01T09:38:52.000Z</time>
      </trkpt>
      <trkpt lat="42.66853" lon="0.657034">
        <ele>2255.5</ele>
        <time>1970-01-01T09:38:53.000Z</time>
      </trkpt>
      <trkpt lat="42.668535" lon="0.657024">
        <ele>2256.4</ele>
        <time>1970-01-01T09:38:54.000Z</time>
      </trkpt>
      <trkpt lat="42.668539" lon="0.657012">
        <ele>2256.4</ele>
        <time>1970-01-01T09:38:56.000Z</time>
      </trkpt>
      <trkpt lat="42.668546" lon="0.656998">
        <ele>2256.4</ele>
        <time>1970-01-01T09:38:57.000Z</time>
      </trkpt>
      <trkpt lat="42.668551" lon="0.656991">
        <ele>2257.3</ele>
        <time>1970-01-01T09:38:58.000Z</time>
      </trkpt>
      <trkpt lat="42.668554" lon="0.656987">
        <ele>2257.3</ele>
        <time>1970-01-01T09:38:59.000Z</time>
      </trkpt>
      <trkpt lat="42.668559" lon="0.656981">
        <ele>2257.3</ele>
        <time>1970-01-01T09:39:00.000Z</time>
      </trkpt>
      <trkpt lat="42.668564" lon="0.656976">
        <ele>2257.3</ele>
        <time>1970-01-01T09:39:01.000Z</time>
      </trkpt>
      <trkpt lat="42.668569" lon="0.656969">
        <ele>2257.3</ele>
        <time>1970-01-01T09:39:02.000Z</time>
      </trkpt>
      <trkpt lat="42.668574" lon="0.656959">
        <ele>2257.3</ele>
        <time>1970-01-01T09:39:04.000Z</time>
      </trkpt>
      <trkpt lat="42.668575" lon="0.656948">
        <ele>2258.2</ele>
        <time>1970-01-01T09:39:05.000Z</time>
      </trkpt>
      <trkpt lat="42.668577" lon="0.656941">
        <ele>2258.2</ele>
        <time>1970-01-01T09:39:06.000Z</time>
      </trkpt>
      <trkpt lat="42.668581" lon="0.656934">
        <ele>2258.2</ele>
        <time>1970-01-01T09:39:08.000Z</time>
      </trkpt>
      <trkpt lat="42.668582" lon="0.656932">
        <ele>2258.2</ele>
        <time>1970-01-01T09:39:09.000Z</time>
      </trkpt>
      <trkpt lat="42.668583" lon="0.65693">
        <ele>2258.2</ele>
        <time>1970-01-01T09:39:10.000Z</time>
      </trkpt>
      <trkpt lat="42.668586" lon="0.656928">
        <ele>2258.1</ele>
        <time>1970-01-01T09:39:11.000Z</time>
      </trkpt>
      <trkpt lat="42.668591" lon="0.656926">
        <ele>2258.1</ele>
        <time>1970-01-01T09:39:13.000Z</time>
      </trkpt>
      <trkpt lat="42.668596" lon="0.656923">
        <ele>2258.1</ele>
        <time>1970-01-01T09:39:14.000Z</time>
      </trkpt>
      <trkpt lat="42.6686" lon="0.656918">
        <ele>2258.1</ele>
        <time>1970-01-01T09:39:15.000Z</time>
      </trkpt>
      <trkpt lat="42.668602" lon="0.656913">
        <ele>2258.1</ele>
        <time>1970-01-01T09:39:16.000Z</time>
      </trkpt>
      <trkpt lat="42.668604" lon="0.656907">
        <ele>2258.1</ele>
        <time>1970-01-01T09:39:17.000Z</time>
      </trkpt>
      <trkpt lat="42.668608" lon="0.6569">
        <ele>2259</ele>
        <time>1970-01-01T09:39:18.000Z</time>
      </trkpt>
      <trkpt lat="42.668614" lon="0.656895">
        <ele>2259</ele>
        <time>1970-01-01T09:39:19.000Z</time>
      </trkpt>
      <trkpt lat="42.668616" lon="0.656894">
        <ele>2258.9</ele>
        <time>1970-01-01T09:39:20.000Z</time>
      </trkpt>
      <trkpt lat="42.668618" lon="0.656893">
        <ele>2258.9</ele>
        <time>1970-01-01T09:39:21.000Z</time>
      </trkpt>
      <trkpt lat="42.668621" lon="0.656888">
        <ele>2258.9</ele>
        <time>1970-01-01T09:39:22.000Z</time>
      </trkpt>
      <trkpt lat="42.668622" lon="0.656885">
        <ele>2258.9</ele>
        <time>1970-01-01T09:39:23.000Z</time>
      </trkpt>
      <trkpt lat="42.668625" lon="0.656879">
        <ele>2258.9</ele>
        <time>1970-01-01T09:39:24.000Z</time>
      </trkpt>
      <trkpt lat="42.668628" lon="0.656876">
        <ele>2258.9</ele>
        <time>1970-01-01T09:39:25.000Z</time>
      </trkpt>
      <trkpt lat="42.668633" lon="0.656874">
        <ele>2258.9</ele>
        <time>1970-01-01T09:39:26.000Z</time>
      </trkpt>
      <trkpt lat="42.668639" lon="0.656873">
        <ele>2258.9</ele>
        <time>1970-01-01T09:39:27.000Z</time>
      </trkpt>
      <trkpt lat="42.668646" lon="0.656873">
        <ele>2258.9</ele>
        <time>1970-01-01T09:39:28.000Z</time>
      </trkpt>
      <trkpt lat="42.668653" lon="0.65687">
        <ele>2258.9</ele>
        <time>1970-01-01T09:39:30.000Z</time>
      </trkpt>
      <trkpt lat="42.66866" lon="0.656867">
        <ele>2258.9</ele>
        <time>1970-01-01T09:39:31.000Z</time>
      </trkpt>
      <trkpt lat="42.668663" lon="0.656865">
        <ele>2258.9</ele>
        <time>1970-01-01T09:39:32.000Z</time>
      </trkpt>
      <trkpt lat="42.668667" lon="0.656859">
        <ele>2259.6</ele>
        <time>1970-01-01T09:39:33.000Z</time>
      </trkpt>
      <trkpt lat="42.668673" lon="0.656846">
        <ele>2259.6</ele>
        <time>1970-01-01T09:39:35.000Z</time>
      </trkpt>
      <trkpt lat="42.668675" lon="0.656832">
        <ele>2259.6</ele>
        <time>1970-01-01T09:39:36.000Z</time>
      </trkpt>
      <trkpt lat="42.668672" lon="0.656824">
        <ele>2259.6</ele>
        <time>1970-01-01T09:39:37.000Z</time>
      </trkpt>
      <trkpt lat="42.668667" lon="0.656816">
        <ele>2260.3</ele>
        <time>1970-01-01T09:39:38.000Z</time>
      </trkpt>
      <trkpt lat="42.668673" lon="0.656802">
        <ele>2260.3</ele>
        <time>1970-01-01T09:39:40.000Z</time>
      </trkpt>
      <trkpt lat="42.668684" lon="0.656797">
        <ele>2260.3</ele>
        <time>1970-01-01T09:39:41.000Z</time>
      </trkpt>
      <trkpt lat="42.668689" lon="0.65679">
        <ele>2260.3</ele>
        <time>1970-01-01T09:39:42.000Z</time>
      </trkpt>
      <trkpt lat="42.668692" lon="0.656785">
        <ele>2260.3</ele>
        <time>1970-01-01T09:39:43.000Z</time>
      </trkpt>
      <trkpt lat="42.668696" lon="0.656769">
        <ele>2260.9</ele>
        <time>1970-01-01T09:39:45.000Z</time>
      </trkpt>
      <trkpt lat="42.668697" lon="0.656763">
        <ele>2260.9</ele>
        <time>1970-01-01T09:39:46.000Z</time>
      </trkpt>
      <trkpt lat="42.668698" lon="0.656759">
        <ele>2260.9</ele>
        <time>1970-01-01T09:39:47.000Z</time>
      </trkpt>
      <trkpt lat="42.668699" lon="0.656755">
        <ele>2260.9</ele>
        <time>1970-01-01T09:39:48.000Z</time>
      </trkpt>
      <trkpt lat="42.6687" lon="0.656749">
        <ele>2260.9</ele>
        <time>1970-01-01T09:39:50.000Z</time>
      </trkpt>
      <trkpt lat="42.668705" lon="0.656746">
        <ele>2260.9</ele>
        <time>1970-01-01T09:39:51.000Z</time>
      </trkpt>
      <trkpt lat="42.66871" lon="0.656744">
        <ele>2260.9</ele>
        <time>1970-01-01T09:39:52.000Z</time>
      </trkpt>
      <trkpt lat="42.668714" lon="0.656741">
        <ele>2260.9</ele>
        <time>1970-01-01T09:39:53.000Z</time>
      </trkpt>
      <trkpt lat="42.668717" lon="0.656732">
        <ele>2261.5</ele>
        <time>1970-01-01T09:39:54.000Z</time>
      </trkpt>
      <trkpt lat="42.668714" lon="0.656724">
        <ele>2261.5</ele>
        <time>1970-01-01T09:39:55.000Z</time>
      </trkpt>
      <trkpt lat="42.668711" lon="0.656716">
        <ele>2261.5</ele>
        <time>1970-01-01T09:39:56.000Z</time>
      </trkpt>
      <trkpt lat="42.66871" lon="0.656707">
        <ele>2261.6</ele>
        <time>1970-01-01T09:39:57.000Z</time>
      </trkpt>
      <trkpt lat="42.66871" lon="0.656701">
        <ele>2261.6</ele>
        <time>1970-01-01T09:39:58.000Z</time>
      </trkpt>
      <trkpt lat="42.668711" lon="0.656693">
        <ele>2261.5</ele>
        <time>1970-01-01T09:39:59.000Z</time>
      </trkpt>
      <trkpt lat="42.668713" lon="0.656683">
        <ele>2262.2</ele>
        <time>1970-01-01T09:40:01.000Z</time>
      </trkpt>
      <trkpt lat="42.668714" lon="0.656677">
        <ele>2262.2</ele>
        <time>1970-01-01T09:40:02.000Z</time>
      </trkpt>
      <trkpt lat="42.668714" lon="0.656675">
        <ele>2262.2</ele>
        <time>1970-01-01T09:40:03.000Z</time>
      </trkpt>
      <trkpt lat="42.668713" lon="0.656667">
        <ele>2262.2</ele>
        <time>1970-01-01T09:40:04.000Z</time>
      </trkpt>
      <trkpt lat="42.668716" lon="0.656663">
        <ele>2262.2</ele>
        <time>1970-01-01T09:40:05.000Z</time>
      </trkpt>
      <trkpt lat="42.668722" lon="0.656657">
        <ele>2262.2</ele>
        <time>1970-01-01T09:40:07.000Z</time>
      </trkpt>
      <trkpt lat="42.668727" lon="0.656654">
        <ele>2262.2</ele>
        <time>1970-01-01T09:40:08.000Z</time>
      </trkpt>
      <trkpt lat="42.668731" lon="0.656654">
        <ele>2262.2</ele>
        <time>1970-01-01T09:40:09.000Z</time>
      </trkpt>
      <trkpt lat="42.66874" lon="0.656659">
        <ele>2262.2</ele>
        <time>1970-01-01T09:40:10.000Z</time>
      </trkpt>
      <trkpt lat="42.668749" lon="0.656655">
        <ele>2262.1</ele>
        <time>1970-01-01T09:40:12.000Z</time>
      </trkpt>
      <trkpt lat="42.668752" lon="0.656651">
        <ele>2262.1</ele>
        <time>1970-01-01T09:40:13.000Z</time>
      </trkpt>
      <trkpt lat="42.668753" lon="0.656646">
        <ele>2262.7</ele>
        <time>1970-01-01T09:40:14.000Z</time>
      </trkpt>
      <trkpt lat="42.668755" lon="0.656638">
        <ele>2262.7</ele>
        <time>1970-01-01T09:40:15.000Z</time>
      </trkpt>
      <trkpt lat="42.66876" lon="0.656629">
        <ele>2262.7</ele>
        <time>1970-01-01T09:40:17.000Z</time>
      </trkpt>
      <trkpt lat="42.668764" lon="0.656624">
        <ele>2262.7</ele>
        <time>1970-01-01T09:40:18.000Z</time>
      </trkpt>
      <trkpt lat="42.66877" lon="0.65662">
        <ele>2262.7</ele>
        <time>1970-01-01T09:40:19.000Z</time>
      </trkpt>
      <trkpt lat="42.668777" lon="0.656612">
        <ele>2262.7</ele>
        <time>1970-01-01T09:40:21.000Z</time>
      </trkpt>
      <trkpt lat="42.668779" lon="0.656601">
        <ele>2263.3</ele>
        <time>1970-01-01T09:40:22.000Z</time>
      </trkpt>
      <trkpt lat="42.66878" lon="0.656595">
        <ele>2263.3</ele>
        <time>1970-01-01T09:40:23.000Z</time>
      </trkpt>
      <trkpt lat="42.668781" lon="0.656586">
        <ele>2263.3</ele>
        <time>1970-01-01T09:40:24.000Z</time>
      </trkpt>
      <trkpt lat="42.668785" lon="0.656576">
        <ele>2263.3</ele>
        <time>1970-01-01T09:40:26.000Z</time>
      </trkpt>
      <trkpt lat="42.668788" lon="0.656567">
        <ele>2263.3</ele>
        <time>1970-01-01T09:40:27.000Z</time>
      </trkpt>
      <trkpt lat="42.66879" lon="0.656564">
        <ele>2263.3</ele>
        <time>1970-01-01T09:40:28.000Z</time>
      </trkpt>
      <trkpt lat="42.668793" lon="0.65656">
        <ele>2263.9</ele>
        <time>1970-01-01T09:40:29.000Z</time>
      </trkpt>
      <trkpt lat="42.668799" lon="0.656556">
        <ele>2263.9</ele>
        <time>1970-01-01T09:40:30.000Z</time>
      </trkpt>
      <trkpt lat="42.668804" lon="0.656553">
        <ele>2263.9</ele>
        <time>1970-01-01T09:40:31.000Z</time>
      </trkpt>
      <trkpt lat="42.668808" lon="0.65655">
        <ele>2263.8</ele>
        <time>1970-01-01T09:40:32.000Z</time>
      </trkpt>
      <trkpt lat="42.66881" lon="0.656548">
        <ele>2263.8</ele>
        <time>1970-01-01T09:40:33.000Z</time>
      </trkpt>
      <trkpt lat="42.66881" lon="0.656549">
        <ele>2263.8</ele>
        <time>1970-01-01T09:40:34.000Z</time>
      </trkpt>
      <trkpt lat="42.668809" lon="0.656549">
        <ele>2263.8</ele>
        <time>1970-01-01T09:40:35.000Z</time>
      </trkpt>
      <trkpt lat="42.668809" lon="0.656551">
        <ele>2263.8</ele>
        <time>1970-01-01T09:40:36.000Z</time>
      </trkpt>
      <trkpt lat="42.66881" lon="0.656552">
        <ele>2263.8</ele>
        <time>1970-01-01T09:40:37.000Z</time>
      </trkpt>
      <trkpt lat="42.668811" lon="0.656552">
        <ele>2263.8</ele>
        <time>1970-01-01T09:40:38.000Z</time>
      </trkpt>
      <trkpt lat="42.668816" lon="0.65655">
        <ele>2263.8</ele>
        <time>1970-01-01T09:40:40.000Z</time>
      </trkpt>
      <trkpt lat="42.66882" lon="0.656546">
        <ele>2263.8</ele>
        <time>1970-01-01T09:40:41.000Z</time>
      </trkpt>
      <trkpt lat="42.668827" lon="0.656542">
        <ele>2263.8</ele>
        <time>1970-01-01T09:40:42.000Z</time>
      </trkpt>
      <trkpt lat="42.668839" lon="0.65653">
        <ele>2263.7</ele>
        <time>1970-01-01T09:40:44.000Z</time>
      </trkpt>
      <trkpt lat="42.668843" lon="0.656521">
        <ele>2263.7</ele>
        <time>1970-01-01T09:40:45.000Z</time>
      </trkpt>
      <trkpt lat="42.668845" lon="0.656512">
        <ele>2264.3</ele>
        <time>1970-01-01T09:40:46.000Z</time>
      </trkpt>
      <trkpt lat="42.668848" lon="0.656505">
        <ele>2264.3</ele>
        <time>1970-01-01T09:40:47.000Z</time>
      </trkpt>
      <trkpt lat="42.668851" lon="0.656499">
        <ele>2264.3</ele>
        <time>1970-01-01T09:40:48.000Z</time>
      </trkpt>
      <trkpt lat="42.668857" lon="0.656493">
        <ele>2264.3</ele>
        <time>1970-01-01T09:40:49.000Z</time>
      </trkpt>
      <trkpt lat="42.668863" lon="0.656487">
        <ele>2264.3</ele>
        <time>1970-01-01T09:40:50.000Z</time>
      </trkpt>
      <trkpt lat="42.668867" lon="0.656481">
        <ele>2264.3</ele>
        <time>1970-01-01T09:40:51.000Z</time>
      </trkpt>
      <trkpt lat="42.668873" lon="0.656469">
        <ele>2264.8</ele>
        <time>1970-01-01T09:40:53.000Z</time>
      </trkpt>
      <trkpt lat="42.668877" lon="0.656463">
        <ele>2264.8</ele>
        <time>1970-01-01T09:40:54.000Z</time>
      </trkpt>
      <trkpt lat="42.668879" lon="0.656457">
        <ele>2264.8</ele>
        <time>1970-01-01T09:40:55.000Z</time>
      </trkpt>
      <trkpt lat="42.668879" lon="0.65645">
        <ele>2264.8</ele>
        <time>1970-01-01T09:40:56.000Z</time>
      </trkpt>
      <trkpt lat="42.668876" lon="0.65644">
        <ele>2264.8</ele>
        <time>1970-01-01T09:40:57.000Z</time>
      </trkpt>
      <trkpt lat="42.668871" lon="0.656434">
        <ele>2264.8</ele>
        <time>1970-01-01T09:40:58.000Z</time>
      </trkpt>
      <trkpt lat="42.668868" lon="0.656428">
        <ele>2265.5</ele>
        <time>1970-01-01T09:40:59.000Z</time>
      </trkpt>
      <trkpt lat="42.668867" lon="0.656425">
        <ele>2265.5</ele>
        <time>1970-01-01T09:41:00.000Z</time>
      </trkpt>
      <trkpt lat="42.668865" lon="0.65642">
        <ele>2265.5</ele>
        <time>1970-01-01T09:41:01.000Z</time>
      </trkpt>
      <trkpt lat="42.668862" lon="0.656414">
        <ele>2265.5</ele>
        <time>1970-01-01T09:41:02.000Z</time>
      </trkpt>
      <trkpt lat="42.668858" lon="0.656409">
        <ele>2265.5</ele>
        <time>1970-01-01T09:41:03.000Z</time>
      </trkpt>
      <trkpt lat="42.668856" lon="0.656404">
        <ele>2265.5</ele>
        <time>1970-01-01T09:41:04.000Z</time>
      </trkpt>
      <trkpt lat="42.668853" lon="0.656397">
        <ele>2265.5</ele>
        <time>1970-01-01T09:41:05.000Z</time>
      </trkpt>
      <trkpt lat="42.668853" lon="0.65639">
        <ele>2266.1</ele>
        <time>1970-01-01T09:41:06.000Z</time>
      </trkpt>
      <trkpt lat="42.668855" lon="0.656385">
        <ele>2266.1</ele>
        <time>1970-01-01T09:41:07.000Z</time>
      </trkpt>
      <trkpt lat="42.668858" lon="0.65638">
        <ele>2266</ele>
        <time>1970-01-01T09:41:08.000Z</time>
      </trkpt>
      <trkpt lat="42.668858" lon="0.656374">
        <ele>2266</ele>
        <time>1970-01-01T09:41:09.000Z</time>
      </trkpt>
      <trkpt lat="42.668857" lon="0.656368">
        <ele>2266</ele>
        <time>1970-01-01T09:41:11.000Z</time>
      </trkpt>
      <trkpt lat="42.668855" lon="0.656364">
        <ele>2265.9</ele>
        <time>1970-01-01T09:41:12.000Z</time>
      </trkpt>
      <trkpt lat="42.668854" lon="0.65636">
        <ele>2265.9</ele>
        <time>1970-01-01T09:41:13.000Z</time>
      </trkpt>
      <trkpt lat="42.668854" lon="0.656354">
        <ele>2265.9</ele>
        <time>1970-01-01T09:41:14.000Z</time>
      </trkpt>
      <trkpt lat="42.668856" lon="0.65635">
        <ele>2265.8</ele>
        <time>1970-01-01T09:41:15.000Z</time>
      </trkpt>
      <trkpt lat="42.668857" lon="0.656347">
        <ele>2266.3</ele>
        <time>1970-01-01T09:41:16.000Z</time>
      </trkpt>
      <trkpt lat="42.668863" lon="0.656345">
        <ele>2266.3</ele>
        <time>1970-01-01T09:41:18.000Z</time>
      </trkpt>
      <trkpt lat="42.668869" lon="0.656342">
        <ele>2266</ele>
        <time>1970-01-01T09:41:19.000Z</time>
      </trkpt>
      <trkpt lat="42.668874" lon="0.656338">
        <ele>2266</ele>
        <time>1970-01-01T09:41:20.000Z</time>
      </trkpt>
      <trkpt lat="42.668878" lon="0.656336">
        <ele>2266</ele>
        <time>1970-01-01T09:41:21.000Z</time>
      </trkpt>
      <trkpt lat="42.668881" lon="0.656331">
        <ele>2265.9</ele>
        <time>1970-01-01T09:41:22.000Z</time>
      </trkpt>
      <trkpt lat="42.668884" lon="0.656324">
        <ele>2265.9</ele>
        <time>1970-01-01T09:41:23.000Z</time>
      </trkpt>
      <trkpt lat="42.668886" lon="0.656318">
        <ele>2265.9</ele>
        <time>1970-01-01T09:41:24.000Z</time>
      </trkpt>
      <trkpt lat="42.668887" lon="0.656314">
        <ele>2265.8</ele>
        <time>1970-01-01T09:41:25.000Z</time>
      </trkpt>
      <trkpt lat="42.668889" lon="0.656312">
        <ele>2265.8</ele>
        <time>1970-01-01T09:41:26.000Z</time>
      </trkpt>
      <trkpt lat="42.668891" lon="0.656309">
        <ele>2265.8</ele>
        <time>1970-01-01T09:41:27.000Z</time>
      </trkpt>
      <trkpt lat="42.668893" lon="0.656307">
        <ele>2265.7</ele>
        <time>1970-01-01T09:41:28.000Z</time>
      </trkpt>
      <trkpt lat="42.668895" lon="0.656303">
        <ele>2266.2</ele>
        <time>1970-01-01T09:41:30.000Z</time>
      </trkpt>
      <trkpt lat="42.668897" lon="0.656296">
        <ele>2266.1</ele>
        <time>1970-01-01T09:41:32.000Z</time>
      </trkpt>
      <trkpt lat="42.668901" lon="0.656289">
        <ele>2265.9</ele>
        <time>1970-01-01T09:41:33.000Z</time>
      </trkpt>
      <trkpt lat="42.668904" lon="0.656288">
        <ele>2265.9</ele>
        <time>1970-01-01T09:41:34.000Z</time>
      </trkpt>
      <trkpt lat="42.668909" lon="0.656285">
        <ele>2265.9</ele>
        <time>1970-01-01T09:41:35.000Z</time>
      </trkpt>
      <trkpt lat="42.668914" lon="0.65628">
        <ele>2265.8</ele>
        <time>1970-01-01T09:41:37.000Z</time>
      </trkpt>
      <trkpt lat="42.668915" lon="0.656275">
        <ele>2265.8</ele>
        <time>1970-01-01T09:41:38.000Z</time>
      </trkpt>
      <trkpt lat="42.668915" lon="0.656273">
        <ele>2265.7</ele>
        <time>1970-01-01T09:41:39.000Z</time>
      </trkpt>
      <trkpt lat="42.668915" lon="0.656269">
        <ele>2265.7</ele>
        <time>1970-01-01T09:41:40.000Z</time>
      </trkpt>
      <trkpt lat="42.668915" lon="0.656263">
        <ele>2265.7</ele>
        <time>1970-01-01T09:41:41.000Z</time>
      </trkpt>
      <trkpt lat="42.668914" lon="0.656257">
        <ele>2266.1</ele>
        <time>1970-01-01T09:41:42.000Z</time>
      </trkpt>
      <trkpt lat="42.668915" lon="0.656254">
        <ele>2266.1</ele>
        <time>1970-01-01T09:41:43.000Z</time>
      </trkpt>
      <trkpt lat="42.668917" lon="0.656251">
        <ele>2266</ele>
        <time>1970-01-01T09:41:44.000Z</time>
      </trkpt>
      <trkpt lat="42.668918" lon="0.656251">
        <ele>2266</ele>
        <time>1970-01-01T09:41:45.000Z</time>
      </trkpt>
      <trkpt lat="42.668917" lon="0.656252">
        <ele>2266</ele>
        <time>1970-01-01T09:41:46.000Z</time>
      </trkpt>
      <trkpt lat="42.668914" lon="0.656253">
        <ele>2265.9</ele>
        <time>1970-01-01T09:41:47.000Z</time>
      </trkpt>
      <trkpt lat="42.668913" lon="0.656253">
        <ele>2265.9</ele>
        <time>1970-01-01T09:41:48.000Z</time>
      </trkpt>
      <trkpt lat="42.668913" lon="0.656254">
        <ele>2265.9</ele>
        <time>1970-01-01T09:41:49.000Z</time>
      </trkpt>
      <trkpt lat="42.668912" lon="0.656254">
        <ele>2265.8</ele>
        <time>1970-01-01T09:41:50.000Z</time>
      </trkpt>
      <trkpt lat="42.668912" lon="0.656254">
        <ele>2265.8</ele>
        <time>1970-01-01T09:41:51.000Z</time>
      </trkpt>
      <trkpt lat="42.668912" lon="0.656254">
        <ele>2265.8</ele>
        <time>1970-01-01T09:41:52.000Z</time>
      </trkpt>
      <trkpt lat="42.668912" lon="0.656255">
        <ele>2265.7</ele>
        <time>1970-01-01T09:41:53.000Z</time>
      </trkpt>
      <trkpt lat="42.668913" lon="0.656255">
        <ele>2265.7</ele>
        <time>1970-01-01T09:41:54.000Z</time>
      </trkpt>
      <trkpt lat="42.668914" lon="0.656253">
        <ele>2265.7</ele>
        <time>1970-01-01T09:41:55.000Z</time>
      </trkpt>
      <trkpt lat="42.668915" lon="0.656252">
        <ele>2265.6</ele>
        <time>1970-01-01T09:41:56.000Z</time>
      </trkpt>
      <trkpt lat="42.668915" lon="0.65625">
        <ele>2265.6</ele>
        <time>1970-01-01T09:41:57.000Z</time>
      </trkpt>
      <trkpt lat="42.668915" lon="0.656249">
        <ele>2265.6</ele>
        <time>1970-01-01T09:41:58.000Z</time>
      </trkpt>
      <trkpt lat="42.668914" lon="0.656248">
        <ele>2265.5</ele>
        <time>1970-01-01T09:41:59.000Z</time>
      </trkpt>
      <trkpt lat="42.668912" lon="0.656248">
        <ele>2265.5</ele>
        <time>1970-01-01T09:42:00.000Z</time>
      </trkpt>
      <trkpt lat="42.668912" lon="0.656247">
        <ele>2265.5</ele>
        <time>1970-01-01T09:42:01.000Z</time>
      </trkpt>
      <trkpt lat="42.668911" lon="0.656246">
        <ele>2265.4</ele>
        <time>1970-01-01T09:42:02.000Z</time>
      </trkpt>
      <trkpt lat="42.66891" lon="0.656251">
        <ele>2265.4</ele>
        <time>1970-01-01T09:42:03.000Z</time>
      </trkpt>
      <trkpt lat="42.668909" lon="0.656252">
        <ele>2265.3</ele>
        <time>1970-01-01T09:42:04.000Z</time>
      </trkpt>
      <trkpt lat="42.668909" lon="0.656253">
        <ele>2265.3</ele>
        <time>1970-01-01T09:42:05.000Z</time>
      </trkpt>
      <trkpt lat="42.668909" lon="0.656253">
        <ele>2265.3</ele>
        <time>1970-01-01T09:42:06.000Z</time>
      </trkpt>
      <trkpt lat="42.668909" lon="0.656252">
        <ele>2265.2</ele>
        <time>1970-01-01T09:42:07.000Z</time>
      </trkpt>
      <trkpt lat="42.668909" lon="0.656252">
        <ele>2265.2</ele>
        <time>1970-01-01T09:42:08.000Z</time>
      </trkpt>
      <trkpt lat="42.668909" lon="0.656252">
        <ele>2265.2</ele>
        <time>1970-01-01T09:42:09.000Z</time>
      </trkpt>
      <trkpt lat="42.668909" lon="0.656252">
        <ele>2265.1</ele>
        <time>1970-01-01T09:42:10.000Z</time>
      </trkpt>
      <trkpt lat="42.668909" lon="0.656252">
        <ele>2265.1</ele>
        <time>1970-01-01T09:42:11.000Z</time>
      </trkpt>
      <trkpt lat="42.668909" lon="0.656252">
        <ele>2265.1</ele>
        <time>1970-01-01T09:42:12.000Z</time>
      </trkpt>
      <trkpt lat="42.668909" lon="0.656252">
        <ele>2265</ele>
        <time>1970-01-01T09:42:13.000Z</time>
      </trkpt>
      <trkpt lat="42.668909" lon="0.656252">
        <ele>2265</ele>
        <time>1970-01-01T09:42:14.000Z</time>
      </trkpt>
      <trkpt lat="42.668909" lon="0.656252">
        <ele>2265</ele>
        <time>1970-01-01T09:42:15.000Z</time>
      </trkpt>
      <trkpt lat="42.668909" lon="0.656252">
        <ele>2264.9</ele>
        <time>1970-01-01T09:42:16.000Z</time>
      </trkpt>
      <trkpt lat="42.66891" lon="0.656253">
        <ele>2264.9</ele>
        <time>1970-01-01T09:42:17.000Z</time>
      </trkpt>
      <trkpt lat="42.668914" lon="0.656252">
        <ele>2264.9</ele>
        <time>1970-01-01T09:42:18.000Z</time>
      </trkpt>
      <trkpt lat="42.668915" lon="0.656252">
        <ele>2264.8</ele>
        <time>1970-01-01T09:42:19.000Z</time>
      </trkpt>
      <trkpt lat="42.668914" lon="0.656252">
        <ele>2264.8</ele>
        <time>1970-01-01T09:42:20.000Z</time>
      </trkpt>
      <trkpt lat="42.668914" lon="0.656252">
        <ele>2264.8</ele>
        <time>1970-01-01T09:42:21.000Z</time>
      </trkpt>
      <trkpt lat="42.668913" lon="0.656252">
        <ele>2264.7</ele>
        <time>1970-01-01T09:42:22.000Z</time>
      </trkpt>
      <trkpt lat="42.668913" lon="0.656252">
        <ele>2264.7</ele>
        <time>1970-01-01T09:42:23.000Z</time>
      </trkpt>
      <trkpt lat="42.668913" lon="0.656252">
        <ele>2264.6</ele>
        <time>1970-01-01T09:42:24.000Z</time>
      </trkpt>
      <trkpt lat="42.668913" lon="0.656252">
        <ele>2264.6</ele>
        <time>1970-01-01T09:42:25.000Z</time>
      </trkpt>
      <trkpt lat="42.668913" lon="0.656252">
        <ele>2264.6</ele>
        <time>1970-01-01T09:42:26.000Z</time>
      </trkpt>
      <trkpt lat="42.668913" lon="0.656251">
        <ele>2264.5</ele>
        <time>1970-01-01T09:42:27.000Z</time>
      </trkpt>
      <trkpt lat="42.668912" lon="0.65625">
        <ele>2264.5</ele>
        <time>1970-01-01T09:42:28.000Z</time>
      </trkpt>
      <trkpt lat="42.668913" lon="0.656251">
        <ele>2264.5</ele>
        <time>1970-01-01T09:42:29.000Z</time>
      </trkpt>
      <trkpt lat="42.668913" lon="0.65625">
        <ele>2264.4</ele>
        <time>1970-01-01T09:42:30.000Z</time>
      </trkpt>
      <trkpt lat="42.668913" lon="0.656251">
        <ele>2264.4</ele>
        <time>1970-01-01T09:42:31.000Z</time>
      </trkpt>
      <trkpt lat="42.668914" lon="0.656251">
        <ele>2264.4</ele>
        <time>1970-01-01T09:42:32.000Z</time>
      </trkpt>
      <trkpt lat="42.668915" lon="0.656251">
        <ele>2264.3</ele>
        <time>1970-01-01T09:42:33.000Z</time>
      </trkpt>
      <trkpt lat="42.668915" lon="0.656251">
        <ele>2264.3</ele>
        <time>1970-01-01T09:42:34.000Z</time>
      </trkpt>
      <trkpt lat="42.668915" lon="0.656251">
        <ele>2264.3</ele>
        <time>1970-01-01T09:42:35.000Z</time>
      </trkpt>
      <trkpt lat="42.668913" lon="0.656255">
        <ele>2264.2</ele>
        <time>1970-01-01T09:42:36.000Z</time>
      </trkpt>
      <trkpt lat="42.668912" lon="0.656258">
        <ele>2264.2</ele>
        <time>1970-01-01T09:42:37.000Z</time>
      </trkpt>
      <trkpt lat="42.668912" lon="0.656259">
        <ele>2264.2</ele>
        <time>1970-01-01T09:42:38.000Z</time>
      </trkpt>
      <trkpt lat="42.668912" lon="0.656259">
        <ele>2264.1</ele>
        <time>1970-01-01T09:42:39.000Z</time>
      </trkpt>
      <trkpt lat="42.668912" lon="0.656259">
        <ele>2264.1</ele>
        <time>1970-01-01T09:42:40.000Z</time>
      </trkpt>
      <trkpt lat="42.668912" lon="0.656259">
        <ele>2264</ele>
        <time>1970-01-01T09:42:41.000Z</time>
      </trkpt>
      <trkpt lat="42.668912" lon="0.656259">
        <ele>2264</ele>
        <time>1970-01-01T09:42:42.000Z</time>
      </trkpt>
      <trkpt lat="42.668912" lon="0.656259">
        <ele>2264</ele>
        <time>1970-01-01T09:42:43.000Z</time>
      </trkpt>
      <trkpt lat="42.668912" lon="0.656259">
        <ele>2263.9</ele>
        <time>1970-01-01T09:42:44.000Z</time>
      </trkpt>
      <trkpt lat="42.668912" lon="0.656259">
        <ele>2263.9</ele>
        <time>1970-01-01T09:42:45.000Z</time>
      </trkpt>
      <trkpt lat="42.668912" lon="0.656259">
        <ele>2263.9</ele>
        <time>1970-01-01T09:42:46.000Z</time>
      </trkpt>
      <trkpt lat="42.668912" lon="0.656259">
        <ele>2263.8</ele>
        <time>1970-01-01T09:42:47.000Z</time>
      </trkpt>
      <trkpt lat="42.668912" lon="0.656259">
        <ele>2263.8</ele>
        <time>1970-01-01T09:42:48.000Z</time>
      </trkpt>
      <trkpt lat="42.668911" lon="0.656259">
        <ele>2263.8</ele>
        <time>1970-01-01T09:42:49.000Z</time>
      </trkpt>
      <trkpt lat="42.668911" lon="0.656259">
        <ele>2263.7</ele>
        <time>1970-01-01T09:42:50.000Z</time>
      </trkpt>
      <trkpt lat="42.668911" lon="0.656259">
        <ele>2263.7</ele>
        <time>1970-01-01T09:42:51.000Z</time>
      </trkpt>
      <trkpt lat="42.668911" lon="0.656259">
        <ele>2263.7</ele>
        <time>1970-01-01T09:42:52.000Z</time>
      </trkpt>
      <trkpt lat="42.668912" lon="0.656259">
        <ele>2263.7</ele>
        <time>1970-01-01T09:42:53.000Z</time>
      </trkpt>
      <trkpt lat="42.66891" lon="0.656258">
        <ele>2263.7</ele>
        <time>1970-01-01T09:42:54.000Z</time>
      </trkpt>
      <trkpt lat="42.668909" lon="0.656257">
        <ele>2263.7</ele>
        <time>1970-01-01T09:42:55.000Z</time>
      </trkpt>
      <trkpt lat="42.668909" lon="0.656256">
        <ele>2263.7</ele>
        <time>1970-01-01T09:42:56.000Z</time>
      </trkpt>
      <trkpt lat="42.668909" lon="0.656256">
        <ele>2263.7</ele>
        <time>1970-01-01T09:42:57.000Z</time>
      </trkpt>
      <trkpt lat="42.668909" lon="0.656256">
        <ele>2263.7</ele>
        <time>1970-01-01T09:42:58.000Z</time>
      </trkpt>
      <trkpt lat="42.668909" lon="0.656256">
        <ele>2263.7</ele>
        <time>1970-01-01T09:42:59.000Z</time>
      </trkpt>
      <trkpt lat="42.668909" lon="0.656256">
        <ele>2263.7</ele>
        <time>1970-01-01T09:43:00.000Z</time>
      </trkpt>
      <trkpt lat="42.668909" lon="0.656256">
        <ele>2263.7</ele>
        <time>1970-01-01T09:43:01.000Z</time>
      </trkpt>
      <trkpt lat="42.668909" lon="0.656256">
        <ele>2263.7</ele>
        <time>1970-01-01T09:43:02.000Z</time>
      </trkpt>
      <trkpt lat="42.668909" lon="0.656256">
        <ele>2263.7</ele>
        <time>1970-01-01T09:43:03.000Z</time>
      </trkpt>
      <trkpt lat="42.668908" lon="0.656256">
        <ele>2263.7</ele>
        <time>1970-01-01T09:43:04.000Z</time>
      </trkpt>
      <trkpt lat="42.668908" lon="0.656255">
        <ele>2263.7</ele>
        <time>1970-01-01T09:43:05.000Z</time>
      </trkpt>
      <trkpt lat="42.668908" lon="0.656255">
        <ele>2263.7</ele>
        <time>1970-01-01T09:43:06.000Z</time>
      </trkpt>
      <trkpt lat="42.668908" lon="0.656255">
        <ele>2263.7</ele>
        <time>1970-01-01T09:43:07.000Z</time>
      </trkpt>
      <trkpt lat="42.668908" lon="0.656255">
        <ele>2263.7</ele>
        <time>1970-01-01T09:43:08.000Z</time>
      </trkpt>
      <trkpt lat="42.668908" lon="0.656255">
        <ele>2263.7</ele>
        <time>1970-01-01T09:43:09.000Z</time>
      </trkpt>
      <trkpt lat="42.668908" lon="0.656255">
        <ele>2263.7</ele>
        <time>1970-01-01T09:43:10.000Z</time>
      </trkpt>
      <trkpt lat="42.668908" lon="0.656255">
        <ele>2263.7</ele>
        <time>1970-01-01T09:43:11.000Z</time>
      </trkpt>
      <trkpt lat="42.668908" lon="0.656255">
        <ele>2263.7</ele>
        <time>1970-01-01T09:43:12.000Z</time>
      </trkpt>
      <trkpt lat="42.668908" lon="0.656255">
        <ele>2263.7</ele>
        <time>1970-01-01T09:43:13.000Z</time>
      </trkpt>
      <trkpt lat="42.668908" lon="0.656255">
        <ele>2263.7</ele>
        <time>1970-01-01T09:43:14.000Z</time>
      </trkpt>
      <trkpt lat="42.668908" lon="0.656255">
        <ele>2263.7</ele>
        <time>1970-01-01T09:43:15.000Z</time>
      </trkpt>
      <trkpt lat="42.668908" lon="0.656255">
        <ele>2263.7</ele>
        <time>1970-01-01T09:43:16.000Z</time>
      </trkpt>
      <trkpt lat="42.668908" lon="0.656255">
        <ele>2263.7</ele>
        <time>1970-01-01T09:43:17.000Z</time>
      </trkpt>
      <trkpt lat="42.668908" lon="0.656255">
        <ele>2263.7</ele>
        <time>1970-01-01T09:43:18.000Z</time>
      </trkpt>
      <trkpt lat="42.668908" lon="0.656255">
        <ele>2263.7</ele>
        <time>1970-01-01T09:43:19.000Z</time>
      </trkpt>
      <trkpt lat="42.668908" lon="0.656255">
        <ele>2263.7</ele>
        <time>1970-01-01T09:43:20.000Z</time>
      </trkpt>
      <trkpt lat="42.668908" lon="0.656255">
        <ele>2263.7</ele>
        <time>1970-01-01T09:43:21.000Z</time>
      </trkpt>
      <trkpt lat="42.668908" lon="0.656255">
        <ele>2263.7</ele>
        <time>1970-01-01T09:43:22.000Z</time>
      </trkpt>
      <trkpt lat="42.668908" lon="0.656255">
        <ele>2263.7</ele>
        <time>1970-01-01T09:43:23.000Z</time>
      </trkpt>
      <trkpt lat="42.668908" lon="0.656255">
        <ele>2263.7</ele>
        <time>1970-01-01T09:43:24.000Z</time>
      </trkpt>
      <trkpt lat="42.668908" lon="0.656255">
        <ele>2263.7</ele>
        <time>1970-01-01T09:43:25.000Z</time>
      </trkpt>
      <trkpt lat="42.668908" lon="0.656255">
        <ele>2263.7</ele>
        <time>1970-01-01T09:43:26.000Z</time>
      </trkpt>
      <trkpt lat="42.668907" lon="0.656255">
        <ele>2263.7</ele>
        <time>1970-01-01T09:43:27.000Z</time>
      </trkpt>
      <trkpt lat="42.668907" lon="0.656255">
        <ele>2263.7</ele>
        <time>1970-01-01T09:43:28.000Z</time>
      </trkpt>
      <trkpt lat="42.668907" lon="0.656255">
        <ele>2263.7</ele>
        <time>1970-01-01T09:43:29.000Z</time>
      </trkpt>
      <trkpt lat="42.668907" lon="0.656255">
        <ele>2263.7</ele>
        <time>1970-01-01T09:43:30.000Z</time>
      </trkpt>
      <trkpt lat="42.668907" lon="0.656255">
        <ele>2263.7</ele>
        <time>1970-01-01T09:43:31.000Z</time>
      </trkpt>
      <trkpt lat="42.668907" lon="0.656255">
        <ele>2263.7</ele>
        <time>1970-01-01T09:43:32.000Z</time>
      </trkpt>
      <trkpt lat="42.668907" lon="0.656255">
        <ele>2263.7</ele>
        <time>1970-01-01T09:43:33.000Z</time>
      </trkpt>
      <trkpt lat="42.668907" lon="0.656255">
        <ele>2263.7</ele>
        <time>1970-01-01T09:43:34.000Z</time>
      </trkpt>
      <trkpt lat="42.668907" lon="0.656255">
        <ele>2263.7</ele>
        <time>1970-01-01T09:43:35.000Z</time>
      </trkpt>
      <trkpt lat="42.66891" lon="0.656257">
        <ele>2263.7</ele>
        <time>1970-01-01T09:43:36.000Z</time>
      </trkpt>
      <trkpt lat="42.668912" lon="0.656259">
        <ele>2263.7</ele>
        <time>1970-01-01T09:43:37.000Z</time>
      </trkpt>
      <trkpt lat="42.668913" lon="0.65626">
        <ele>2263.7</ele>
        <time>1970-01-01T09:43:38.000Z</time>
      </trkpt>
      <trkpt lat="42.668913" lon="0.65626">
        <ele>2263.7</ele>
        <time>1970-01-01T09:43:39.000Z</time>
      </trkpt>
      <trkpt lat="42.668912" lon="0.65626">
        <ele>2263.7</ele>
        <time>1970-01-01T09:43:40.000Z</time>
      </trkpt>
      <trkpt lat="42.668912" lon="0.65626">
        <ele>2263.7</ele>
        <time>1970-01-01T09:43:41.000Z</time>
      </trkpt>
      <trkpt lat="42.668912" lon="0.65626">
        <ele>2263.7</ele>
        <time>1970-01-01T09:43:42.000Z</time>
      </trkpt>
      <trkpt lat="42.668912" lon="0.65626">
        <ele>2263.7</ele>
        <time>1970-01-01T09:43:43.000Z</time>
      </trkpt>
      <trkpt lat="42.668912" lon="0.65626">
        <ele>2263.7</ele>
        <time>1970-01-01T09:43:44.000Z</time>
      </trkpt>
      <trkpt lat="42.668914" lon="0.656258">
        <ele>2263.7</ele>
        <time>1970-01-01T09:43:45.000Z</time>
      </trkpt>
      <trkpt lat="42.668916" lon="0.656252">
        <ele>2263.7</ele>
        <time>1970-01-01T09:43:46.000Z</time>
      </trkpt>
      <trkpt lat="42.668916" lon="0.656248">
        <ele>2263.7</ele>
        <time>1970-01-01T09:43:47.000Z</time>
      </trkpt>
      <trkpt lat="42.668917" lon="0.656245">
        <ele>2263.7</ele>
        <time>1970-01-01T09:43:48.000Z</time>
      </trkpt>
      <trkpt lat="42.668921" lon="0.656244">
        <ele>2263.7</ele>
        <time>1970-01-01T09:43:49.000Z</time>
      </trkpt>
      <trkpt lat="42.668928" lon="0.656244">
        <ele>2263.7</ele>
        <time>1970-01-01T09:43:50.000Z</time>
      </trkpt>
      <trkpt lat="42.668935" lon="0.656246">
        <ele>2263.6</ele>
        <time>1970-01-01T09:43:51.000Z</time>
      </trkpt>
      <trkpt lat="42.668941" lon="0.65625">
        <ele>2263.6</ele>
        <time>1970-01-01T09:43:52.000Z</time>
      </trkpt>
      <trkpt lat="42.668945" lon="0.656251">
        <ele>2263.6</ele>
        <time>1970-01-01T09:43:53.000Z</time>
      </trkpt>
      <trkpt lat="42.668951" lon="0.65625">
        <ele>2263.6</ele>
        <time>1970-01-01T09:43:55.000Z</time>
      </trkpt>
      <trkpt lat="42.668953" lon="0.656248">
        <ele>2263.6</ele>
        <time>1970-01-01T09:43:56.000Z</time>
      </trkpt>
      <trkpt lat="42.668957" lon="0.656245">
        <ele>2263.6</ele>
        <time>1970-01-01T09:43:57.000Z</time>
      </trkpt>
      <trkpt lat="42.66896" lon="0.65624">
        <ele>2263.6</ele>
        <time>1970-01-01T09:43:58.000Z</time>
      </trkpt>
      <trkpt lat="42.668963" lon="0.656233">
        <ele>2263.4</ele>
        <time>1970-01-01T09:44:00.000Z</time>
      </trkpt>
      <trkpt lat="42.668968" lon="0.656227">
        <ele>2263.4</ele>
        <time>1970-01-01T09:44:01.000Z</time>
      </trkpt>
      <trkpt lat="42.668973" lon="0.656219">
        <ele>2263.4</ele>
        <time>1970-01-01T09:44:02.000Z</time>
      </trkpt>
      <trkpt lat="42.668974" lon="0.656214">
        <ele>2263.8</ele>
        <time>1970-01-01T09:44:03.000Z</time>
      </trkpt>
      <trkpt lat="42.668977" lon="0.656206">
        <ele>2263.8</ele>
        <time>1970-01-01T09:44:04.000Z</time>
      </trkpt>
      <trkpt lat="42.668979" lon="0.656198">
        <ele>2263.8</ele>
        <time>1970-01-01T09:44:05.000Z</time>
      </trkpt>
      <trkpt lat="42.668981" lon="0.656189">
        <ele>2263.8</ele>
        <time>1970-01-01T09:44:06.000Z</time>
      </trkpt>
      <trkpt lat="42.668987" lon="0.656159">
        <ele>2264.2</ele>
        <time>1970-01-01T09:44:08.000Z</time>
      </trkpt>
      <trkpt lat="42.668988" lon="0.656145">
        <ele>2264.2</ele>
        <time>1970-01-01T09:44:09.000Z</time>
      </trkpt>
      <trkpt lat="42.668989" lon="0.656133">
        <ele>2264.2</ele>
        <time>1970-01-01T09:44:10.000Z</time>
      </trkpt>
      <trkpt lat="42.668989" lon="0.656122">
        <ele>2264.6</ele>
        <time>1970-01-01T09:44:11.000Z</time>
      </trkpt>
      <trkpt lat="42.668988" lon="0.656114">
        <ele>2264.6</ele>
        <time>1970-01-01T09:44:13.000Z</time>
      </trkpt>
      <trkpt lat="42.668986" lon="0.656106">
        <ele>2264.6</ele>
        <time>1970-01-01T09:44:14.000Z</time>
      </trkpt>
      <trkpt lat="42.668983" lon="0.656096">
        <ele>2264.6</ele>
        <time>1970-01-01T09:44:15.000Z</time>
      </trkpt>
      <trkpt lat="42.66898" lon="0.656085">
        <ele>2265</ele>
        <time>1970-01-01T09:44:16.000Z</time>
      </trkpt>
      <trkpt lat="42.668976" lon="0.656075">
        <ele>2265</ele>
        <time>1970-01-01T09:44:17.000Z</time>
      </trkpt>
      <trkpt lat="42.668977" lon="0.656059">
        <ele>2265</ele>
        <time>1970-01-01T09:44:19.000Z</time>
      </trkpt>
      <trkpt lat="42.668983" lon="0.656049">
        <ele>2265</ele>
        <time>1970-01-01T09:44:20.000Z</time>
      </trkpt>
      <trkpt lat="42.668986" lon="0.656044">
        <ele>2265.3</ele>
        <time>1970-01-01T09:44:21.000Z</time>
      </trkpt>
      <trkpt lat="42.668995" lon="0.656029">
        <ele>2265.1</ele>
        <time>1970-01-01T09:44:23.000Z</time>
      </trkpt>
      <trkpt lat="42.668999" lon="0.65602">
        <ele>2265.1</ele>
        <time>1970-01-01T09:44:24.000Z</time>
      </trkpt>
      <trkpt lat="42.669001" lon="0.656011">
        <ele>2265.1</ele>
        <time>1970-01-01T09:44:25.000Z</time>
      </trkpt>
      <trkpt lat="42.669004" lon="0.656005">
        <ele>2265.1</ele>
        <time>1970-01-01T09:44:26.000Z</time>
      </trkpt>
      <trkpt lat="42.669009" lon="0.655999">
        <ele>2265.4</ele>
        <time>1970-01-01T09:44:27.000Z</time>
      </trkpt>
      <trkpt lat="42.669012" lon="0.655998">
        <ele>2265.4</ele>
        <time>1970-01-01T09:44:28.000Z</time>
      </trkpt>
      <trkpt lat="42.669013" lon="0.655998">
        <ele>2265.4</ele>
        <time>1970-01-01T09:44:29.000Z</time>
      </trkpt>
      <trkpt lat="42.669015" lon="0.655997">
        <ele>2265.4</ele>
        <time>1970-01-01T09:44:30.000Z</time>
      </trkpt>
      <trkpt lat="42.669017" lon="0.655996">
        <ele>2265.4</ele>
        <time>1970-01-01T09:44:31.000Z</time>
      </trkpt>
      <trkpt lat="42.669019" lon="0.655994">
        <ele>2265.4</ele>
        <time>1970-01-01T09:44:32.000Z</time>
      </trkpt>
      <trkpt lat="42.669022" lon="0.65599">
        <ele>2265.4</ele>
        <time>1970-01-01T09:44:33.000Z</time>
      </trkpt>
      <trkpt lat="42.669024" lon="0.655987">
        <ele>2265.4</ele>
        <time>1970-01-01T09:44:34.000Z</time>
      </trkpt>
      <trkpt lat="42.669027" lon="0.655978">
        <ele>2265.2</ele>
        <time>1970-01-01T09:44:36.000Z</time>
      </trkpt>
      <trkpt lat="42.669029" lon="0.655969">
        <ele>2265.2</ele>
        <time>1970-01-01T09:44:37.000Z</time>
      </trkpt>
      <trkpt lat="42.669032" lon="0.655963">
        <ele>2265.2</ele>
        <time>1970-01-01T09:44:38.000Z</time>
      </trkpt>
      <trkpt lat="42.669037" lon="0.655958">
        <ele>2265.4</ele>
        <time>1970-01-01T09:44:39.000Z</time>
      </trkpt>
      <trkpt lat="42.66904" lon="0.655954">
        <ele>2265.4</ele>
        <time>1970-01-01T09:44:40.000Z</time>
      </trkpt>
      <trkpt lat="42.669041" lon="0.655953">
        <ele>2265.4</ele>
        <time>1970-01-01T09:44:41.000Z</time>
      </trkpt>
      <trkpt lat="42.669042" lon="0.65595">
        <ele>2265.4</ele>
        <time>1970-01-01T09:44:42.000Z</time>
      </trkpt>
      <trkpt lat="42.669044" lon="0.655945">
        <ele>2265.4</ele>
        <time>1970-01-01T09:44:43.000Z</time>
      </trkpt>
      <trkpt lat="42.669044" lon="0.655939">
        <ele>2265.4</ele>
        <time>1970-01-01T09:44:44.000Z</time>
      </trkpt>
      <trkpt lat="42.669042" lon="0.655931">
        <ele>2265.4</ele>
        <time>1970-01-01T09:44:45.000Z</time>
      </trkpt>
      <trkpt lat="42.669038" lon="0.655922">
        <ele>2265.4</ele>
        <time>1970-01-01T09:44:46.000Z</time>
      </trkpt>
      <trkpt lat="42.669036" lon="0.655912">
        <ele>2265.6</ele>
        <time>1970-01-01T09:44:48.000Z</time>
      </trkpt>
      <trkpt lat="42.669036" lon="0.655905">
        <ele>2265.6</ele>
        <time>1970-01-01T09:44:49.000Z</time>
      </trkpt>
      <trkpt lat="42.669035" lon="0.655892">
        <ele>2265.6</ele>
        <time>1970-01-01T09:44:50.000Z</time>
      </trkpt>
      <trkpt lat="42.669033" lon="0.655877">
        <ele>2265.6</ele>
        <time>1970-01-01T09:44:52.000Z</time>
      </trkpt>
      <trkpt lat="42.669036" lon="0.655869">
        <ele>2265.8</ele>
        <time>1970-01-01T09:44:53.000Z</time>
      </trkpt>
      <trkpt lat="42.669039" lon="0.655857">
        <ele>2265.8</ele>
        <time>1970-01-01T09:44:54.000Z</time>
      </trkpt>
      <trkpt lat="42.669043" lon="0.655845">
        <ele>2265.8</ele>
        <time>1970-01-01T09:44:55.000Z</time>
      </trkpt>
      <trkpt lat="42.669049" lon="0.655835">
        <ele>2265.8</ele>
        <time>1970-01-01T09:44:57.000Z</time>
      </trkpt>
      <trkpt lat="42.669061" lon="0.655825">
        <ele>2265.7</ele>
        <time>1970-01-01T09:44:58.000Z</time>
      </trkpt>
      <trkpt lat="42.669069" lon="0.655819">
        <ele>2265.7</ele>
        <time>1970-01-01T09:44:59.000Z</time>
      </trkpt>
      <trkpt lat="42.669075" lon="0.655815">
        <ele>2265.7</ele>
        <time>1970-01-01T09:45:00.000Z</time>
      </trkpt>
      <trkpt lat="42.669086" lon="0.655806">
        <ele>2265.7</ele>
        <time>1970-01-01T09:45:02.000Z</time>
      </trkpt>
      <trkpt lat="42.669094" lon="0.655795">
        <ele>2265.4</ele>
        <time>1970-01-01T09:45:03.000Z</time>
      </trkpt>
      <trkpt lat="42.669099" lon="0.65578">
        <ele>2265.6</ele>
        <time>1970-01-01T09:45:05.000Z</time>
      </trkpt>
      <trkpt lat="42.6691" lon="0.655769">
        <ele>2265.6</ele>
        <time>1970-01-01T09:45:06.000Z</time>
      </trkpt>
      <trkpt lat="42.669104" lon="0.655756">
        <ele>2265.6</ele>
        <time>1970-01-01T09:45:07.000Z</time>
      </trkpt>
      <trkpt lat="42.66911" lon="0.655747">
        <ele>2265.6</ele>
        <time>1970-01-01T09:45:09.000Z</time>
      </trkpt>
      <trkpt lat="42.669116" lon="0.655736">
        <ele>2265.7</ele>
        <time>1970-01-01T09:45:10.000Z</time>
      </trkpt>
      <trkpt lat="42.66912" lon="0.655724">
        <ele>2265.7</ele>
        <time>1970-01-01T09:45:12.000Z</time>
      </trkpt>
      <trkpt lat="42.669125" lon="0.655709">
        <ele>2265.3</ele>
        <time>1970-01-01T09:45:13.000Z</time>
      </trkpt>
      <trkpt lat="42.669127" lon="0.655703">
        <ele>2265.4</ele>
        <time>1970-01-01T09:45:14.000Z</time>
      </trkpt>
      <trkpt lat="42.669132" lon="0.655687">
        <ele>2265.4</ele>
        <time>1970-01-01T09:45:16.000Z</time>
      </trkpt>
      <trkpt lat="42.669137" lon="0.655671">
        <ele>2265.4</ele>
        <time>1970-01-01T09:45:17.000Z</time>
      </trkpt>
      <trkpt lat="42.66914" lon="0.655658">
        <ele>2265.4</ele>
        <time>1970-01-01T09:45:18.000Z</time>
      </trkpt>
      <trkpt lat="42.669143" lon="0.655651">
        <ele>2265.4</ele>
        <time>1970-01-01T09:45:19.000Z</time>
      </trkpt>
      <trkpt lat="42.66915" lon="0.655637">
        <ele>2265.4</ele>
        <time>1970-01-01T09:45:21.000Z</time>
      </trkpt>
      <trkpt lat="42.669153" lon="0.655624">
        <ele>2264.9</ele>
        <time>1970-01-01T09:45:22.000Z</time>
      </trkpt>
      <trkpt lat="42.669154" lon="0.655616">
        <ele>2264.9</ele>
        <time>1970-01-01T09:45:23.000Z</time>
      </trkpt>
      <trkpt lat="42.669155" lon="0.655606">
        <ele>2264.9</ele>
        <time>1970-01-01T09:45:24.000Z</time>
      </trkpt>
      <trkpt lat="42.66916" lon="0.655595">
        <ele>2264.9</ele>
        <time>1970-01-01T09:45:25.000Z</time>
      </trkpt>
      <trkpt lat="42.669163" lon="0.655586">
        <ele>2264.9</ele>
        <time>1970-01-01T09:45:26.000Z</time>
      </trkpt>
      <trkpt lat="42.669166" lon="0.655572">
        <ele>2264.9</ele>
        <time>1970-01-01T09:45:27.000Z</time>
      </trkpt>
      <trkpt lat="42.669165" lon="0.655557">
        <ele>2264.9</ele>
        <time>1970-01-01T09:45:29.000Z</time>
      </trkpt>
      <trkpt lat="42.669159" lon="0.655541">
        <ele>2264.9</ele>
        <time>1970-01-01T09:45:30.000Z</time>
      </trkpt>
      <trkpt lat="42.669157" lon="0.655533">
        <ele>2264.9</ele>
        <time>1970-01-01T09:45:31.000Z</time>
      </trkpt>
      <trkpt lat="42.669152" lon="0.655516">
        <ele>2265.3</ele>
        <time>1970-01-01T09:45:32.000Z</time>
      </trkpt>
      <trkpt lat="42.669152" lon="0.655486">
        <ele>2265.2</ele>
        <time>1970-01-01T09:45:34.000Z</time>
      </trkpt>
      <trkpt lat="42.669154" lon="0.655474">
        <ele>2264.6</ele>
        <time>1970-01-01T09:45:35.000Z</time>
      </trkpt>
      <trkpt lat="42.669156" lon="0.655462">
        <ele>2264.6</ele>
        <time>1970-01-01T09:45:36.000Z</time>
      </trkpt>
      <trkpt lat="42.66916" lon="0.655453">
        <ele>2264.6</ele>
        <time>1970-01-01T09:45:37.000Z</time>
      </trkpt>
      <trkpt lat="42.669162" lon="0.655436">
        <ele>2264.5</ele>
        <time>1970-01-01T09:45:39.000Z</time>
      </trkpt>
      <trkpt lat="42.669162" lon="0.655423">
        <ele>2264.5</ele>
        <time>1970-01-01T09:45:40.000Z</time>
      </trkpt>
      <trkpt lat="42.669163" lon="0.655409">
        <ele>2264.5</ele>
        <time>1970-01-01T09:45:41.000Z</time>
      </trkpt>
      <trkpt lat="42.669164" lon="0.6554">
        <ele>2264.3</ele>
        <time>1970-01-01T09:45:43.000Z</time>
      </trkpt>
      <trkpt lat="42.669165" lon="0.65539">
        <ele>2264.3</ele>
        <time>1970-01-01T09:45:44.000Z</time>
      </trkpt>
      <trkpt lat="42.669166" lon="0.655381">
        <ele>2264.3</ele>
        <time>1970-01-01T09:45:45.000Z</time>
      </trkpt>
      <trkpt lat="42.669168" lon="0.655372">
        <ele>2264.3</ele>
        <time>1970-01-01T09:45:46.000Z</time>
      </trkpt>
      <trkpt lat="42.669172" lon="0.655358">
        <ele>2264</ele>
        <time>1970-01-01T09:45:47.000Z</time>
      </trkpt>
      <trkpt lat="42.669172" lon="0.655343">
        <ele>2264</ele>
        <time>1970-01-01T09:45:49.000Z</time>
      </trkpt>
      <trkpt lat="42.669167" lon="0.655325">
        <ele>2264</ele>
        <time>1970-01-01T09:45:50.000Z</time>
      </trkpt>
      <trkpt lat="42.669161" lon="0.655309">
        <ele>2263.6</ele>
        <time>1970-01-01T09:45:52.000Z</time>
      </trkpt>
      <trkpt lat="42.669157" lon="0.655297">
        <ele>2263.6</ele>
        <time>1970-01-01T09:45:53.000Z</time>
      </trkpt>
      <trkpt lat="42.669156" lon="0.655285">
        <ele>2263.6</ele>
        <time>1970-01-01T09:45:54.000Z</time>
      </trkpt>
      <trkpt lat="42.669157" lon="0.655278">
        <ele>2263.6</ele>
        <time>1970-01-01T09:45:55.000Z</time>
      </trkpt>
      <trkpt lat="42.669156" lon="0.655266">
        <ele>2263.2</ele>
        <time>1970-01-01T09:45:56.000Z</time>
      </trkpt>
      <trkpt lat="42.669152" lon="0.655257">
        <ele>2263.8</ele>
        <time>1970-01-01T09:45:57.000Z</time>
      </trkpt>
      <trkpt lat="42.669151" lon="0.655245">
        <ele>2263.8</ele>
        <time>1970-01-01T09:45:58.000Z</time>
      </trkpt>
      <trkpt lat="42.669151" lon="0.655236">
        <ele>2263.8</ele>
        <time>1970-01-01T09:45:59.000Z</time>
      </trkpt>
      <trkpt lat="42.669151" lon="0.655227">
        <ele>2263.3</ele>
        <time>1970-01-01T09:46:00.000Z</time>
      </trkpt>
      <trkpt lat="42.669151" lon="0.655218">
        <ele>2263.3</ele>
        <time>1970-01-01T09:46:01.000Z</time>
      </trkpt>
      <trkpt lat="42.66915" lon="0.655206">
        <ele>2263.3</ele>
        <time>1970-01-01T09:46:02.000Z</time>
      </trkpt>
      <trkpt lat="42.66915" lon="0.655197">
        <ele>2263.3</ele>
        <time>1970-01-01T09:46:03.000Z</time>
      </trkpt>
      <trkpt lat="42.669155" lon="0.655184">
        <ele>2262.2</ele>
        <time>1970-01-01T09:46:04.000Z</time>
      </trkpt>
      <trkpt lat="42.66916" lon="0.65517">
        <ele>2262.2</ele>
        <time>1970-01-01T09:46:05.000Z</time>
      </trkpt>
      <trkpt lat="42.669162" lon="0.655154">
        <ele>2262.2</ele>
        <time>1970-01-01T09:46:06.000Z</time>
      </trkpt>
      <trkpt lat="42.669161" lon="0.655133">
        <ele>2261.5</ele>
        <time>1970-01-01T09:46:08.000Z</time>
      </trkpt>
      <trkpt lat="42.669158" lon="0.655121">
        <ele>2261.5</ele>
        <time>1970-01-01T09:46:09.000Z</time>
      </trkpt>
      <trkpt lat="42.669158" lon="0.655109">
        <ele>2261.5</ele>
        <time>1970-01-01T09:46:11.000Z</time>
      </trkpt>
      <trkpt lat="42.669162" lon="0.655091">
        <ele>2260.9</ele>
        <time>1970-01-01T09:46:12.000Z</time>
      </trkpt>
      <trkpt lat="42.669167" lon="0.655078">
        <ele>2260.9</ele>
        <time>1970-01-01T09:46:13.000Z</time>
      </trkpt>
      <trkpt lat="42.66917" lon="0.655066">
        <ele>2260.9</ele>
        <time>1970-01-01T09:46:15.000Z</time>
      </trkpt>
      <trkpt lat="42.669174" lon="0.655051">
        <ele>2260.2</ele>
        <time>1970-01-01T09:46:16.000Z</time>
      </trkpt>
      <trkpt lat="42.669172" lon="0.655043">
        <ele>2260.2</ele>
        <time>1970-01-01T09:46:17.000Z</time>
      </trkpt>
      <trkpt lat="42.669168" lon="0.655033">
        <ele>2260.2</ele>
        <time>1970-01-01T09:46:18.000Z</time>
      </trkpt>
      <trkpt lat="42.669164" lon="0.655018">
        <ele>2260.2</ele>
        <time>1970-01-01T09:46:20.000Z</time>
      </trkpt>
      <trkpt lat="42.669161" lon="0.65501">
        <ele>2259.5</ele>
        <time>1970-01-01T09:46:21.000Z</time>
      </trkpt>
      <trkpt lat="42.669161" lon="0.654999">
        <ele>2259.5</ele>
        <time>1970-01-01T09:46:22.000Z</time>
      </trkpt>
      <trkpt lat="42.669167" lon="0.654985">
        <ele>2259.5</ele>
        <time>1970-01-01T09:46:24.000Z</time>
      </trkpt>
      <trkpt lat="42.669171" lon="0.654974">
        <ele>2259.5</ele>
        <time>1970-01-01T09:46:25.000Z</time>
      </trkpt>
      <trkpt lat="42.669175" lon="0.654959">
        <ele>2258.7</ele>
        <time>1970-01-01T09:46:27.000Z</time>
      </trkpt>
      <trkpt lat="42.669178" lon="0.654948">
        <ele>2258.7</ele>
        <time>1970-01-01T09:46:28.000Z</time>
      </trkpt>
      <trkpt lat="42.66918" lon="0.654939">
        <ele>2258.7</ele>
        <time>1970-01-01T09:46:29.000Z</time>
      </trkpt>
      <trkpt lat="42.669184" lon="0.654927">
        <ele>2257.3</ele>
        <time>1970-01-01T09:46:30.000Z</time>
      </trkpt>
      <trkpt lat="42.669187" lon="0.654917">
        <ele>2257.3</ele>
        <time>1970-01-01T09:46:31.000Z</time>
      </trkpt>
      <trkpt lat="42.669188" lon="0.654903">
        <ele>2257.3</ele>
        <time>1970-01-01T09:46:33.000Z</time>
      </trkpt>
      <trkpt lat="42.669188" lon="0.654884">
        <ele>2256.5</ele>
        <time>1970-01-01T09:46:34.000Z</time>
      </trkpt>
      <trkpt lat="42.66919" lon="0.654871">
        <ele>2256.5</ele>
        <time>1970-01-01T09:46:35.000Z</time>
      </trkpt>
      <trkpt lat="42.66919" lon="0.654857">
        <ele>2256.5</ele>
        <time>1970-01-01T09:46:36.000Z</time>
      </trkpt>
      <trkpt lat="42.669186" lon="0.654842">
        <ele>2255.7</ele>
        <time>1970-01-01T09:46:38.000Z</time>
      </trkpt>
      <trkpt lat="42.669181" lon="0.654825">
        <ele>2256.4</ele>
        <time>1970-01-01T09:46:39.000Z</time>
      </trkpt>
      <trkpt lat="42.669176" lon="0.654813">
        <ele>2256.4</ele>
        <time>1970-01-01T09:46:40.000Z</time>
      </trkpt>
      <trkpt lat="42.669173" lon="0.654806">
        <ele>2256.4</ele>
        <time>1970-01-01T09:46:41.000Z</time>
      </trkpt>
      <trkpt lat="42.66917" lon="0.654789">
        <ele>2255.4</ele>
        <time>1970-01-01T09:46:43.000Z</time>
      </trkpt>
      <trkpt lat="42.669169" lon="0.654773">
        <ele>2255.4</ele>
        <time>1970-01-01T09:46:44.000Z</time>
      </trkpt>
      <trkpt lat="42.669165" lon="0.65476">
        <ele>2255.4</ele>
        <time>1970-01-01T09:46:45.000Z</time>
      </trkpt>
      <trkpt lat="42.669158" lon="0.654747">
        <ele>2254.4</ele>
        <time>1970-01-01T09:46:47.000Z</time>
      </trkpt>
      <trkpt lat="42.669155" lon="0.654738">
        <ele>2254.4</ele>
        <time>1970-01-01T09:46:48.000Z</time>
      </trkpt>
      <trkpt lat="42.669152" lon="0.654731">
        <ele>2255.1</ele>
        <time>1970-01-01T09:46:49.000Z</time>
      </trkpt>
      <trkpt lat="42.66915" lon="0.654718">
        <ele>2255.1</ele>
        <time>1970-01-01T09:46:51.000Z</time>
      </trkpt>
      <trkpt lat="42.669146" lon="0.654702">
        <ele>2254.1</ele>
        <time>1970-01-01T09:46:52.000Z</time>
      </trkpt>
      <trkpt lat="42.669145" lon="0.654695">
        <ele>2254.1</ele>
        <time>1970-01-01T09:46:53.000Z</time>
      </trkpt>
      <trkpt lat="42.669147" lon="0.654677">
        <ele>2254.1</ele>
        <time>1970-01-01T09:46:54.000Z</time>
      </trkpt>
      <trkpt lat="42.669149" lon="0.654658">
        <ele>2253</ele>
        <time>1970-01-01T09:46:55.000Z</time>
      </trkpt>
      <trkpt lat="42.66915" lon="0.65465">
        <ele>2253</ele>
        <time>1970-01-01T09:46:56.000Z</time>
      </trkpt>
      <trkpt lat="42.669153" lon="0.654637">
        <ele>2252.3</ele>
        <time>1970-01-01T09:46:58.000Z</time>
      </trkpt>
      <trkpt lat="42.669156" lon="0.654627">
        <ele>2251.2</ele>
        <time>1970-01-01T09:46:59.000Z</time>
      </trkpt>
      <trkpt lat="42.669157" lon="0.65462">
        <ele>2251.2</ele>
        <time>1970-01-01T09:47:00.000Z</time>
      </trkpt>
      <trkpt lat="42.669158" lon="0.654607">
        <ele>2251.2</ele>
        <time>1970-01-01T09:47:02.000Z</time>
      </trkpt>
      <trkpt lat="42.669156" lon="0.654596">
        <ele>2251.2</ele>
        <time>1970-01-01T09:47:03.000Z</time>
      </trkpt>
      <trkpt lat="42.66915" lon="0.65459">
        <ele>2251.9</ele>
        <time>1970-01-01T09:47:04.000Z</time>
      </trkpt>
      <trkpt lat="42.66914" lon="0.654583">
        <ele>2250.9</ele>
        <time>1970-01-01T09:47:05.000Z</time>
      </trkpt>
      <trkpt lat="42.669133" lon="0.654577">
        <ele>2250.9</ele>
        <time>1970-01-01T09:47:06.000Z</time>
      </trkpt>
      <trkpt lat="42.669126" lon="0.654572">
        <ele>2250.9</ele>
        <time>1970-01-01T09:47:07.000Z</time>
      </trkpt>
      <trkpt lat="42.669114" lon="0.654562">
        <ele>2251.6</ele>
        <time>1970-01-01T09:47:09.000Z</time>
      </trkpt>
      <trkpt lat="42.669106" lon="0.654559">
        <ele>2251.6</ele>
        <time>1970-01-01T09:47:10.000Z</time>
      </trkpt>
      <trkpt lat="42.6691" lon="0.654561">
        <ele>2251.6</ele>
        <time>1970-01-01T09:47:11.000Z</time>
      </trkpt>
      <trkpt lat="42.669091" lon="0.654557">
        <ele>2251.6</ele>
        <time>1970-01-01T09:47:12.000Z</time>
      </trkpt>
      <trkpt lat="42.669084" lon="0.654551">
        <ele>2252.2</ele>
        <time>1970-01-01T09:47:13.000Z</time>
      </trkpt>
      <trkpt lat="42.669078" lon="0.654544">
        <ele>2251.1</ele>
        <time>1970-01-01T09:47:15.000Z</time>
      </trkpt>
      <trkpt lat="42.669078" lon="0.654516">
        <ele>2251.1</ele>
        <time>1970-01-01T09:47:16.000Z</time>
      </trkpt>
      <trkpt lat="42.669081" lon="0.654505">
        <ele>2251.1</ele>
        <time>1970-01-01T09:47:18.000Z</time>
      </trkpt>
      <trkpt lat="42.669077" lon="0.654494">
        <ele>2250</ele>
        <time>1970-01-01T09:47:19.000Z</time>
      </trkpt>
      <trkpt lat="42.66907" lon="0.654486">
        <ele>2250</ele>
        <time>1970-01-01T09:47:20.000Z</time>
      </trkpt>
      <trkpt lat="42.669068" lon="0.654477">
        <ele>2250</ele>
        <time>1970-01-01T09:47:21.000Z</time>
      </trkpt>
      <trkpt lat="42.669075" lon="0.654463">
        <ele>2250</ele>
        <time>1970-01-01T09:47:22.000Z</time>
      </trkpt>
      <trkpt lat="42.669088" lon="0.654456">
        <ele>2248.8</ele>
        <time>1970-01-01T09:47:23.000Z</time>
      </trkpt>
      <trkpt lat="42.669105" lon="0.654455">
        <ele>2248.2</ele>
        <time>1970-01-01T09:47:24.000Z</time>
      </trkpt>
      <trkpt lat="42.669121" lon="0.654459">
        <ele>2248.7</ele>
        <time>1970-01-01T09:47:25.000Z</time>
      </trkpt>
      <trkpt lat="42.669133" lon="0.654462">
        <ele>2248.7</ele>
        <time>1970-01-01T09:47:27.000Z</time>
      </trkpt>
      <trkpt lat="42.669144" lon="0.654463">
        <ele>2248.7</ele>
        <time>1970-01-01T09:47:28.000Z</time>
      </trkpt>
      <trkpt lat="42.669155" lon="0.654462">
        <ele>2247.9</ele>
        <time>1970-01-01T09:47:29.000Z</time>
      </trkpt>
      <trkpt lat="42.669161" lon="0.654453">
        <ele>2246.7</ele>
        <time>1970-01-01T09:47:30.000Z</time>
      </trkpt>
      <trkpt lat="42.669155" lon="0.654439">
        <ele>2246.7</ele>
        <time>1970-01-01T09:47:31.000Z</time>
      </trkpt>
      <trkpt lat="42.669144" lon="0.654433">
        <ele>2247.5</ele>
        <time>1970-01-01T09:47:32.000Z</time>
      </trkpt>
      <trkpt lat="42.669136" lon="0.654431">
        <ele>2247.5</ele>
        <time>1970-01-01T09:47:33.000Z</time>
      </trkpt>
      <trkpt lat="42.669127" lon="0.65443">
        <ele>2247.5</ele>
        <time>1970-01-01T09:47:34.000Z</time>
      </trkpt>
      <trkpt lat="42.669121" lon="0.654423">
        <ele>2247.5</ele>
        <time>1970-01-01T09:47:35.000Z</time>
      </trkpt>
      <trkpt lat="42.669109" lon="0.654406">
        <ele>2246.9</ele>
        <time>1970-01-01T09:47:37.000Z</time>
      </trkpt>
      <trkpt lat="42.669099" lon="0.654397">
        <ele>2246.9</ele>
        <time>1970-01-01T09:47:38.000Z</time>
      </trkpt>
      <trkpt lat="42.669085" lon="0.654385">
        <ele>2247.6</ele>
        <time>1970-01-01T09:47:40.000Z</time>
      </trkpt>
      <trkpt lat="42.669077" lon="0.654371">
        <ele>2246.2</ele>
        <time>1970-01-01T09:47:41.000Z</time>
      </trkpt>
      <trkpt lat="42.669067" lon="0.654364">
        <ele>2246.2</ele>
        <time>1970-01-01T09:47:42.000Z</time>
      </trkpt>
      <trkpt lat="42.669058" lon="0.65436">
        <ele>2246.2</ele>
        <time>1970-01-01T09:47:43.000Z</time>
      </trkpt>
      <trkpt lat="42.66904" lon="0.654348">
        <ele>2246.9</ele>
        <time>1970-01-01T09:47:44.000Z</time>
      </trkpt>
      <trkpt lat="42.669034" lon="0.654342">
        <ele>2246.9</ele>
        <time>1970-01-01T09:47:45.000Z</time>
      </trkpt>
      <trkpt lat="42.669027" lon="0.654335">
        <ele>2246.9</ele>
        <time>1970-01-01T09:47:46.000Z</time>
      </trkpt>
      <trkpt lat="42.66902" lon="0.654326">
        <ele>2246.1</ele>
        <time>1970-01-01T09:47:47.000Z</time>
      </trkpt>
      <trkpt lat="42.669004" lon="0.65432">
        <ele>2246.1</ele>
        <time>1970-01-01T09:47:49.000Z</time>
      </trkpt>
      <trkpt lat="42.668997" lon="0.654329">
        <ele>2246.1</ele>
        <time>1970-01-01T09:47:50.000Z</time>
      </trkpt>
      <trkpt lat="42.668994" lon="0.654338">
        <ele>2248.2</ele>
        <time>1970-01-01T09:47:51.000Z</time>
      </trkpt>
      <trkpt lat="42.668987" lon="0.654345">
        <ele>2248.2</ele>
        <time>1970-01-01T09:47:53.000Z</time>
      </trkpt>
      <trkpt lat="42.668985" lon="0.654346">
        <ele>2248.2</ele>
        <time>1970-01-01T09:47:54.000Z</time>
      </trkpt>
      <trkpt lat="42.668985" lon="0.654344">
        <ele>2248.2</ele>
        <time>1970-01-01T09:47:55.000Z</time>
      </trkpt>
      <trkpt lat="42.668986" lon="0.654344">
        <ele>2248.2</ele>
        <time>1970-01-01T09:47:56.000Z</time>
      </trkpt>
      <trkpt lat="42.668988" lon="0.654342">
        <ele>2248.2</ele>
        <time>1970-01-01T09:47:57.000Z</time>
      </trkpt>
      <trkpt lat="42.668991" lon="0.654341">
        <ele>2248.2</ele>
        <time>1970-01-01T09:47:58.000Z</time>
      </trkpt>
      <trkpt lat="42.668992" lon="0.65434">
        <ele>2248.2</ele>
        <time>1970-01-01T09:47:59.000Z</time>
      </trkpt>
      <trkpt lat="42.668991" lon="0.654339">
        <ele>2248.2</ele>
        <time>1970-01-01T09:48:00.000Z</time>
      </trkpt>
      <trkpt lat="42.668989" lon="0.654336">
        <ele>2248.2</ele>
        <time>1970-01-01T09:48:02.000Z</time>
      </trkpt>
      <trkpt lat="42.668985" lon="0.65433">
        <ele>2246.8</ele>
        <time>1970-01-01T09:48:03.000Z</time>
      </trkpt>
      <trkpt lat="42.668979" lon="0.654319">
        <ele>2246.8</ele>
        <time>1970-01-01T09:48:05.000Z</time>
      </trkpt>
      <trkpt lat="42.668972" lon="0.654306">
        <ele>2246.8</ele>
        <time>1970-01-01T09:48:06.000Z</time>
      </trkpt>
      <trkpt lat="42.668965" lon="0.654299">
        <ele>2246.8</ele>
        <time>1970-01-01T09:48:07.000Z</time>
      </trkpt>
      <trkpt lat="42.668958" lon="0.654297">
        <ele>2247.6</ele>
        <time>1970-01-01T09:48:08.000Z</time>
      </trkpt>
      <trkpt lat="42.668938" lon="0.654301">
        <ele>2247.6</ele>
        <time>1970-01-01T09:48:10.000Z</time>
      </trkpt>
      <trkpt lat="42.668925" lon="0.654305">
        <ele>2248.4</ele>
        <time>1970-01-01T09:48:11.000Z</time>
      </trkpt>
      <trkpt lat="42.668916" lon="0.654302">
        <ele>2248.4</ele>
        <time>1970-01-01T09:48:12.000Z</time>
      </trkpt>
      <trkpt lat="42.66891" lon="0.65428">
        <ele>2246.9</ele>
        <time>1970-01-01T09:48:14.000Z</time>
      </trkpt>
      <trkpt lat="42.668919" lon="0.654239">
        <ele>2245.3</ele>
        <time>1970-01-01T09:48:15.000Z</time>
      </trkpt>
      <trkpt lat="42.668944" lon="0.654223">
        <ele>2244.5</ele>
        <time>1970-01-01T09:48:16.000Z</time>
      </trkpt>
      <trkpt lat="42.668954" lon="0.654222">
        <ele>2244.5</ele>
        <time>1970-01-01T09:48:17.000Z</time>
      </trkpt>
      <trkpt lat="42.668966" lon="0.654214">
        <ele>2243.8</ele>
        <time>1970-01-01T09:48:18.000Z</time>
      </trkpt>
      <trkpt lat="42.668971" lon="0.654205">
        <ele>2243.8</ele>
        <time>1970-01-01T09:48:19.000Z</time>
      </trkpt>
      <trkpt lat="42.668965" lon="0.6542">
        <ele>2242.1</ele>
        <time>1970-01-01T09:48:20.000Z</time>
      </trkpt>
      <trkpt lat="42.668948" lon="0.654203">
        <ele>2244.5</ele>
        <time>1970-01-01T09:48:21.000Z</time>
      </trkpt>
      <trkpt lat="42.66894" lon="0.65421">
        <ele>2244.5</ele>
        <time>1970-01-01T09:48:22.000Z</time>
      </trkpt>
      <trkpt lat="42.668933" lon="0.654218">
        <ele>2244.5</ele>
        <time>1970-01-01T09:48:23.000Z</time>
      </trkpt>
      <trkpt lat="42.668921" lon="0.654224">
        <ele>2245.3</ele>
        <time>1970-01-01T09:48:24.000Z</time>
      </trkpt>
      <trkpt lat="42.668915" lon="0.654227">
        <ele>2245.3</ele>
        <time>1970-01-01T09:48:25.000Z</time>
      </trkpt>
      <trkpt lat="42.668909" lon="0.654228">
        <ele>2245.3</ele>
        <time>1970-01-01T09:48:26.000Z</time>
      </trkpt>
      <trkpt lat="42.668903" lon="0.654225">
        <ele>2245.3</ele>
        <time>1970-01-01T09:48:27.000Z</time>
      </trkpt>
      <trkpt lat="42.668909" lon="0.654218">
        <ele>2245.3</ele>
        <time>1970-01-01T09:48:29.000Z</time>
      </trkpt>
      <trkpt lat="42.668921" lon="0.654204">
        <ele>2245.3</ele>
        <time>1970-01-01T09:48:30.000Z</time>
      </trkpt>
      <trkpt lat="42.668933" lon="0.654189">
        <ele>2242.9</ele>
        <time>1970-01-01T09:48:31.000Z</time>
      </trkpt>
      <trkpt lat="42.668933" lon="0.65418">
        <ele>2242.9</ele>
        <time>1970-01-01T09:48:32.000Z</time>
      </trkpt>
      <trkpt lat="42.668929" lon="0.654175">
        <ele>2243.7</ele>
        <time>1970-01-01T09:48:34.000Z</time>
      </trkpt>
      <trkpt lat="42.668925" lon="0.654176">
        <ele>2243.7</ele>
        <time>1970-01-01T09:48:35.000Z</time>
      </trkpt>
      <trkpt lat="42.66892" lon="0.654178">
        <ele>2243.7</ele>
        <time>1970-01-01T09:48:36.000Z</time>
      </trkpt>
      <trkpt lat="42.668916" lon="0.654184">
        <ele>2243.7</ele>
        <time>1970-01-01T09:48:37.000Z</time>
      </trkpt>
      <trkpt lat="42.668911" lon="0.654189">
        <ele>2243.7</ele>
        <time>1970-01-01T09:48:38.000Z</time>
      </trkpt>
      <trkpt lat="42.668908" lon="0.654193">
        <ele>2243.7</ele>
        <time>1970-01-01T09:48:39.000Z</time>
      </trkpt>
      <trkpt lat="42.668902" lon="0.654194">
        <ele>2243.7</ele>
        <time>1970-01-01T09:48:40.000Z</time>
      </trkpt>
      <trkpt lat="42.668897" lon="0.65419">
        <ele>2244.5</ele>
        <time>1970-01-01T09:48:41.000Z</time>
      </trkpt>
      <trkpt lat="42.668897" lon="0.654179">
        <ele>2244.5</ele>
        <time>1970-01-01T09:48:43.000Z</time>
      </trkpt>
      <trkpt lat="42.668898" lon="0.654171">
        <ele>2244.5</ele>
        <time>1970-01-01T09:48:44.000Z</time>
      </trkpt>
      <trkpt lat="42.668899" lon="0.654162">
        <ele>2244.5</ele>
        <time>1970-01-01T09:48:45.000Z</time>
      </trkpt>
      <trkpt lat="42.668902" lon="0.654157">
        <ele>2242.1</ele>
        <time>1970-01-01T09:48:46.000Z</time>
      </trkpt>
      <trkpt lat="42.668904" lon="0.654152">
        <ele>2242.1</ele>
        <time>1970-01-01T09:48:47.000Z</time>
      </trkpt>
      <trkpt lat="42.668906" lon="0.654154">
        <ele>2242.1</ele>
        <time>1970-01-01T09:48:48.000Z</time>
      </trkpt>
      <trkpt lat="42.66891" lon="0.654142">
        <ele>2242.1</ele>
        <time>1970-01-01T09:48:49.000Z</time>
      </trkpt>
      <trkpt lat="42.668912" lon="0.65414">
        <ele>2242.1</ele>
        <time>1970-01-01T09:48:50.000Z</time>
      </trkpt>
      <trkpt lat="42.668912" lon="0.654148">
        <ele>2242.1</ele>
        <time>1970-01-01T09:48:51.000Z</time>
      </trkpt>
      <trkpt lat="42.668917" lon="0.654149">
        <ele>2242.1</ele>
        <time>1970-01-01T09:48:52.000Z</time>
      </trkpt>
      <trkpt lat="42.668918" lon="0.654144">
        <ele>2242.1</ele>
        <time>1970-01-01T09:48:53.000Z</time>
      </trkpt>
      <trkpt lat="42.66892" lon="0.654147">
        <ele>2242.1</ele>
        <time>1970-01-01T09:48:54.000Z</time>
      </trkpt>
      <trkpt lat="42.668927" lon="0.654145">
        <ele>2242.1</ele>
        <time>1970-01-01T09:48:56.000Z</time>
      </trkpt>
      <trkpt lat="42.668934" lon="0.654143">
        <ele>2241.3</ele>
        <time>1970-01-01T09:48:57.000Z</time>
      </trkpt>
      <trkpt lat="42.668938" lon="0.654139">
        <ele>2241.3</ele>
        <time>1970-01-01T09:48:58.000Z</time>
      </trkpt>
      <trkpt lat="42.668942" lon="0.654138">
        <ele>2241.3</ele>
        <time>1970-01-01T09:48:59.000Z</time>
      </trkpt>
      <trkpt lat="42.668946" lon="0.654136">
        <ele>2241.3</ele>
        <time>1970-01-01T09:49:01.000Z</time>
      </trkpt>
      <trkpt lat="42.668944" lon="0.654132">
        <ele>2241.3</ele>
        <time>1970-01-01T09:49:02.000Z</time>
      </trkpt>
      <trkpt lat="42.668944" lon="0.65413">
        <ele>2241.3</ele>
        <time>1970-01-01T09:49:03.000Z</time>
      </trkpt>
      <trkpt lat="42.668945" lon="0.654127">
        <ele>2241.3</ele>
        <time>1970-01-01T09:49:04.000Z</time>
      </trkpt>
      <trkpt lat="42.668955" lon="0.654122">
        <ele>2241.3</ele>
        <time>1970-01-01T09:49:05.000Z</time>
      </trkpt>
      <trkpt lat="42.668961" lon="0.654122">
        <ele>2241.3</ele>
        <time>1970-01-01T09:49:06.000Z</time>
      </trkpt>
      <trkpt lat="42.668973" lon="0.654117">
        <ele>2240.5</ele>
        <time>1970-01-01T09:49:08.000Z</time>
      </trkpt>
      <trkpt lat="42.668981" lon="0.654118">
        <ele>2240.5</ele>
        <time>1970-01-01T09:49:09.000Z</time>
      </trkpt>
      <trkpt lat="42.668986" lon="0.654118">
        <ele>2240.5</ele>
        <time>1970-01-01T09:49:10.000Z</time>
      </trkpt>
      <trkpt lat="42.668991" lon="0.65412">
        <ele>2240.5</ele>
        <time>1970-01-01T09:49:11.000Z</time>
      </trkpt>
      <trkpt lat="42.668998" lon="0.654115">
        <ele>2238.2</ele>
        <time>1970-01-01T09:49:12.000Z</time>
      </trkpt>
      <trkpt lat="42.669" lon="0.65411">
        <ele>2238.2</ele>
        <time>1970-01-01T09:49:13.000Z</time>
      </trkpt>
      <trkpt lat="42.669" lon="0.654109">
        <ele>2238.2</ele>
        <time>1970-01-01T09:49:14.000Z</time>
      </trkpt>
      <trkpt lat="42.669005" lon="0.654103">
        <ele>2238.2</ele>
        <time>1970-01-01T09:49:16.000Z</time>
      </trkpt>
      <trkpt lat="42.669012" lon="0.654103">
        <ele>2238.2</ele>
        <time>1970-01-01T09:49:17.000Z</time>
      </trkpt>
      <trkpt lat="42.669016" lon="0.654098">
        <ele>2238.2</ele>
        <time>1970-01-01T09:49:18.000Z</time>
      </trkpt>
      <trkpt lat="42.669017" lon="0.654092">
        <ele>2238.2</ele>
        <time>1970-01-01T09:49:19.000Z</time>
      </trkpt>
      <trkpt lat="42.669014" lon="0.654077">
        <ele>2238.2</ele>
        <time>1970-01-01T09:49:21.000Z</time>
      </trkpt>
      <trkpt lat="42.669012" lon="0.654069">
        <ele>2236.6</ele>
        <time>1970-01-01T09:49:22.000Z</time>
      </trkpt>
      <trkpt lat="42.669011" lon="0.654064">
        <ele>2236.6</ele>
        <time>1970-01-01T09:49:23.000Z</time>
      </trkpt>
      <trkpt lat="42.66901" lon="0.65406">
        <ele>2236.6</ele>
        <time>1970-01-01T09:49:24.000Z</time>
      </trkpt>
      <trkpt lat="42.669008" lon="0.654055">
        <ele>2236.6</ele>
        <time>1970-01-01T09:49:26.000Z</time>
      </trkpt>
      <trkpt lat="42.669003" lon="0.654052">
        <ele>2236.6</ele>
        <time>1970-01-01T09:49:27.000Z</time>
      </trkpt>
      <trkpt lat="42.669" lon="0.65405">
        <ele>2236.6</ele>
        <time>1970-01-01T09:49:28.000Z</time>
      </trkpt>
      <trkpt lat="42.668998" lon="0.654049">
        <ele>2236.6</ele>
        <time>1970-01-01T09:49:29.000Z</time>
      </trkpt>
      <trkpt lat="42.668996" lon="0.654046">
        <ele>2236.6</ele>
        <time>1970-01-01T09:49:30.000Z</time>
      </trkpt>
      <trkpt lat="42.668995" lon="0.654042">
        <ele>2236.6</ele>
        <time>1970-01-01T09:49:31.000Z</time>
      </trkpt>
      <trkpt lat="42.668994" lon="0.65404">
        <ele>2237.3</ele>
        <time>1970-01-01T09:49:32.000Z</time>
      </trkpt>
      <trkpt lat="42.668992" lon="0.654036">
        <ele>2237.3</ele>
        <time>1970-01-01T09:49:33.000Z</time>
      </trkpt>
      <trkpt lat="42.668988" lon="0.654031">
        <ele>2237.3</ele>
        <time>1970-01-01T09:49:35.000Z</time>
      </trkpt>
      <trkpt lat="42.668982" lon="0.654025">
        <ele>2235.7</ele>
        <time>1970-01-01T09:49:36.000Z</time>
      </trkpt>
      <trkpt lat="42.668978" lon="0.65402">
        <ele>2235.7</ele>
        <time>1970-01-01T09:49:37.000Z</time>
      </trkpt>
      <trkpt lat="42.668975" lon="0.654015">
        <ele>2235.7</ele>
        <time>1970-01-01T09:49:39.000Z</time>
      </trkpt>
      <trkpt lat="42.668971" lon="0.654008">
        <ele>2235.7</ele>
        <time>1970-01-01T09:49:40.000Z</time>
      </trkpt>
      <trkpt lat="42.668966" lon="0.654002">
        <ele>2235.7</ele>
        <time>1970-01-01T09:49:41.000Z</time>
      </trkpt>
      <trkpt lat="42.668966" lon="0.653995">
        <ele>2235.7</ele>
        <time>1970-01-01T09:49:42.000Z</time>
      </trkpt>
      <trkpt lat="42.668978" lon="0.653983">
        <ele>2234</ele>
        <time>1970-01-01T09:49:43.000Z</time>
      </trkpt>
      <trkpt lat="42.66899" lon="0.653979">
        <ele>2234</ele>
        <time>1970-01-01T09:49:44.000Z</time>
      </trkpt>
      <trkpt lat="42.668995" lon="0.653966">
        <ele>2233.2</ele>
        <time>1970-01-01T09:49:45.000Z</time>
      </trkpt>
      <trkpt lat="42.668993" lon="0.653953">
        <ele>2234</ele>
        <time>1970-01-01T09:49:46.000Z</time>
      </trkpt>
      <trkpt lat="42.668991" lon="0.65394">
        <ele>2232.1</ele>
        <time>1970-01-01T09:49:47.000Z</time>
      </trkpt>
      <trkpt lat="42.668991" lon="0.653927">
        <ele>2232.1</ele>
        <time>1970-01-01T09:49:49.000Z</time>
      </trkpt>
      <trkpt lat="42.668987" lon="0.653914">
        <ele>2232.1</ele>
        <time>1970-01-01T09:49:50.000Z</time>
      </trkpt>
      <trkpt lat="42.668979" lon="0.653903">
        <ele>2232.1</ele>
        <time>1970-01-01T09:49:52.000Z</time>
      </trkpt>
      <trkpt lat="42.668975" lon="0.653893">
        <ele>2230.1</ele>
        <time>1970-01-01T09:49:53.000Z</time>
      </trkpt>
      <trkpt lat="42.668973" lon="0.653882">
        <ele>2230.1</ele>
        <time>1970-01-01T09:49:54.000Z</time>
      </trkpt>
      <trkpt lat="42.668973" lon="0.653869">
        <ele>2230.1</ele>
        <time>1970-01-01T09:49:55.000Z</time>
      </trkpt>
      <trkpt lat="42.668975" lon="0.653856">
        <ele>2228</ele>
        <time>1970-01-01T09:49:56.000Z</time>
      </trkpt>
      <trkpt lat="42.668979" lon="0.653849">
        <ele>2228</ele>
        <time>1970-01-01T09:49:57.000Z</time>
      </trkpt>
      <trkpt lat="42.668981" lon="0.653844">
        <ele>2228</ele>
        <time>1970-01-01T09:49:58.000Z</time>
      </trkpt>
      <trkpt lat="42.668983" lon="0.653838">
        <ele>2228</ele>
        <time>1970-01-01T09:49:59.000Z</time>
      </trkpt>
      <trkpt lat="42.668984" lon="0.65383">
        <ele>2228</ele>
        <time>1970-01-01T09:50:00.000Z</time>
      </trkpt>
      <trkpt lat="42.668983" lon="0.653821">
        <ele>2228</ele>
        <time>1970-01-01T09:50:01.000Z</time>
      </trkpt>
      <trkpt lat="42.668983" lon="0.653818">
        <ele>2228</ele>
        <time>1970-01-01T09:50:02.000Z</time>
      </trkpt>
      <trkpt lat="42.668984" lon="0.653814">
        <ele>2225.8</ele>
        <time>1970-01-01T09:50:03.000Z</time>
      </trkpt>
      <trkpt lat="42.668984" lon="0.653813">
        <ele>2225.8</ele>
        <time>1970-01-01T09:50:04.000Z</time>
      </trkpt>
      <trkpt lat="42.668984" lon="0.653811">
        <ele>2225.8</ele>
        <time>1970-01-01T09:50:05.000Z</time>
      </trkpt>
      <trkpt lat="42.668985" lon="0.653808">
        <ele>2225.8</ele>
        <time>1970-01-01T09:50:06.000Z</time>
      </trkpt>
      <trkpt lat="42.668987" lon="0.653802">
        <ele>2225.8</ele>
        <time>1970-01-01T09:50:07.000Z</time>
      </trkpt>
      <trkpt lat="42.668985" lon="0.653794">
        <ele>2225.8</ele>
        <time>1970-01-01T09:50:08.000Z</time>
      </trkpt>
      <trkpt lat="42.668977" lon="0.653783">
        <ele>2225.8</ele>
        <time>1970-01-01T09:50:10.000Z</time>
      </trkpt>
      <trkpt lat="42.668971" lon="0.653779">
        <ele>2225.8</ele>
        <time>1970-01-01T09:50:11.000Z</time>
      </trkpt>
      <trkpt lat="42.668964" lon="0.653774">
        <ele>2225.8</ele>
        <time>1970-01-01T09:50:12.000Z</time>
      </trkpt>
      <trkpt lat="42.668958" lon="0.653766">
        <ele>2224.6</ele>
        <time>1970-01-01T09:50:13.000Z</time>
      </trkpt>
      <trkpt lat="42.668959" lon="0.653768">
        <ele>2224.6</ele>
        <time>1970-01-01T09:50:14.000Z</time>
      </trkpt>
      <trkpt lat="42.668961" lon="0.653771">
        <ele>2224.6</ele>
        <time>1970-01-01T09:50:15.000Z</time>
      </trkpt>
      <trkpt lat="42.668962" lon="0.653773">
        <ele>2226.7</ele>
        <time>1970-01-01T09:50:17.000Z</time>
      </trkpt>
      <trkpt lat="42.668962" lon="0.65377">
        <ele>2224.6</ele>
        <time>1970-01-01T09:50:18.000Z</time>
      </trkpt>
      <trkpt lat="42.668963" lon="0.653768">
        <ele>2223.7</ele>
        <time>1970-01-01T09:50:19.000Z</time>
      </trkpt>
      <trkpt lat="42.668962" lon="0.653764">
        <ele>2224.6</ele>
        <time>1970-01-01T09:50:20.000Z</time>
      </trkpt>
      <trkpt lat="42.668963" lon="0.653759">
        <ele>2223.7</ele>
        <time>1970-01-01T09:50:21.000Z</time>
      </trkpt>
      <trkpt lat="42.668963" lon="0.653757">
        <ele>2223.7</ele>
        <time>1970-01-01T09:50:22.000Z</time>
      </trkpt>
      <trkpt lat="42.668962" lon="0.653756">
        <ele>2224.6</ele>
        <time>1970-01-01T09:50:23.000Z</time>
      </trkpt>
      <trkpt lat="42.668962" lon="0.653753">
        <ele>2224.6</ele>
        <time>1970-01-01T09:50:24.000Z</time>
      </trkpt>
      <trkpt lat="42.668962" lon="0.653749">
        <ele>2224.6</ele>
        <time>1970-01-01T09:50:25.000Z</time>
      </trkpt>
      <trkpt lat="42.668964" lon="0.653747">
        <ele>2223.7</ele>
        <time>1970-01-01T09:50:26.000Z</time>
      </trkpt>
      <trkpt lat="42.668966" lon="0.653744">
        <ele>2223.7</ele>
        <time>1970-01-01T09:50:28.000Z</time>
      </trkpt>
      <trkpt lat="42.668968" lon="0.653741">
        <ele>2223.7</ele>
        <time>1970-01-01T09:50:29.000Z</time>
      </trkpt>
      <trkpt lat="42.668969" lon="0.653735">
        <ele>2223.7</ele>
        <time>1970-01-01T09:50:30.000Z</time>
      </trkpt>
      <trkpt lat="42.668968" lon="0.653729">
        <ele>2221.5</ele>
        <time>1970-01-01T09:50:31.000Z</time>
      </trkpt>
      <trkpt lat="42.668968" lon="0.653722">
        <ele>2221.5</ele>
        <time>1970-01-01T09:50:33.000Z</time>
      </trkpt>
      <trkpt lat="42.668969" lon="0.653716">
        <ele>2221.5</ele>
        <time>1970-01-01T09:50:34.000Z</time>
      </trkpt>
      <trkpt lat="42.66897" lon="0.653716">
        <ele>2221.5</ele>
        <time>1970-01-01T09:50:35.000Z</time>
      </trkpt>
      <trkpt lat="42.66897" lon="0.653717">
        <ele>2221.5</ele>
        <time>1970-01-01T09:50:36.000Z</time>
      </trkpt>
      <trkpt lat="42.668971" lon="0.653717">
        <ele>2221.5</ele>
        <time>1970-01-01T09:50:37.000Z</time>
      </trkpt>
      <trkpt lat="42.668971" lon="0.653716">
        <ele>2221.5</ele>
        <time>1970-01-01T09:50:38.000Z</time>
      </trkpt>
      <trkpt lat="42.668972" lon="0.653716">
        <ele>2221.5</ele>
        <time>1970-01-01T09:50:39.000Z</time>
      </trkpt>
      <trkpt lat="42.668972" lon="0.653716">
        <ele>2221.5</ele>
        <time>1970-01-01T09:50:40.000Z</time>
      </trkpt>
      <trkpt lat="42.668972" lon="0.653716">
        <ele>2221.5</ele>
        <time>1970-01-01T09:50:41.000Z</time>
      </trkpt>
      <trkpt lat="42.668972" lon="0.653715">
        <ele>2221.5</ele>
        <time>1970-01-01T09:50:42.000Z</time>
      </trkpt>
      <trkpt lat="42.668972" lon="0.653715">
        <ele>2221.5</ele>
        <time>1970-01-01T09:50:43.000Z</time>
      </trkpt>
      <trkpt lat="42.668972" lon="0.653715">
        <ele>2221.5</ele>
        <time>1970-01-01T09:50:44.000Z</time>
      </trkpt>
      <trkpt lat="42.668971" lon="0.653714">
        <ele>2221.5</ele>
        <time>1970-01-01T09:50:45.000Z</time>
      </trkpt>
      <trkpt lat="42.668971" lon="0.653714">
        <ele>2221.5</ele>
        <time>1970-01-01T09:50:46.000Z</time>
      </trkpt>
      <trkpt lat="42.66897" lon="0.653714">
        <ele>2221.5</ele>
        <time>1970-01-01T09:50:47.000Z</time>
      </trkpt>
      <trkpt lat="42.66897" lon="0.653715">
        <ele>2221.5</ele>
        <time>1970-01-01T09:50:48.000Z</time>
      </trkpt>
      <trkpt lat="42.66897" lon="0.653714">
        <ele>2221.5</ele>
        <time>1970-01-01T09:50:49.000Z</time>
      </trkpt>
      <trkpt lat="42.668971" lon="0.653715">
        <ele>2221.5</ele>
        <time>1970-01-01T09:50:50.000Z</time>
      </trkpt>
      <trkpt lat="42.668971" lon="0.653715">
        <ele>2221.5</ele>
        <time>1970-01-01T09:50:51.000Z</time>
      </trkpt>
      <trkpt lat="42.668971" lon="0.653713">
        <ele>2221.5</ele>
        <time>1970-01-01T09:50:52.000Z</time>
      </trkpt>
      <trkpt lat="42.668971" lon="0.653707">
        <ele>2221.5</ele>
        <time>1970-01-01T09:50:54.000Z</time>
      </trkpt>
      <trkpt lat="42.66897" lon="0.653703">
        <ele>2221.5</ele>
        <time>1970-01-01T09:50:55.000Z</time>
      </trkpt>
      <trkpt lat="42.668969" lon="0.6537">
        <ele>2221.5</ele>
        <time>1970-01-01T09:50:56.000Z</time>
      </trkpt>
      <trkpt lat="42.668968" lon="0.653698">
        <ele>2221.5</ele>
        <time>1970-01-01T09:50:57.000Z</time>
      </trkpt>
      <trkpt lat="42.668968" lon="0.653695">
        <ele>2221.5</ele>
        <time>1970-01-01T09:50:58.000Z</time>
      </trkpt>
      <trkpt lat="42.668967" lon="0.653692">
        <ele>2221.5</ele>
        <time>1970-01-01T09:50:59.000Z</time>
      </trkpt>
      <trkpt lat="42.668967" lon="0.653689">
        <ele>2221.5</ele>
        <time>1970-01-01T09:51:01.000Z</time>
      </trkpt>
      <trkpt lat="42.668965" lon="0.653685">
        <ele>2219.4</ele>
        <time>1970-01-01T09:51:03.000Z</time>
      </trkpt>
      <trkpt lat="42.668963" lon="0.653682">
        <ele>2219.4</ele>
        <time>1970-01-01T09:51:04.000Z</time>
      </trkpt>
      <trkpt lat="42.668963" lon="0.653681">
        <ele>2219.4</ele>
        <time>1970-01-01T09:51:06.000Z</time>
      </trkpt>
      <trkpt lat="42.668962" lon="0.65368">
        <ele>2220.4</ele>
        <time>1970-01-01T09:51:07.000Z</time>
      </trkpt>
      <trkpt lat="42.668962" lon="0.653679">
        <ele>2220.4</ele>
        <time>1970-01-01T09:51:08.000Z</time>
      </trkpt>
      <trkpt lat="42.668962" lon="0.65368">
        <ele>2220.4</ele>
        <time>1970-01-01T09:51:09.000Z</time>
      </trkpt>
      <trkpt lat="42.668962" lon="0.65368">
        <ele>2220.4</ele>
        <time>1970-01-01T09:51:10.000Z</time>
      </trkpt>
      <trkpt lat="42.668962" lon="0.653679">
        <ele>2220.4</ele>
        <time>1970-01-01T09:51:11.000Z</time>
      </trkpt>
      <trkpt lat="42.668962" lon="0.653679">
        <ele>2220.4</ele>
        <time>1970-01-01T09:51:12.000Z</time>
      </trkpt>
      <trkpt lat="42.668962" lon="0.653679">
        <ele>2220.4</ele>
        <time>1970-01-01T09:51:13.000Z</time>
      </trkpt>
      <trkpt lat="42.668962" lon="0.65368">
        <ele>2220.4</ele>
        <time>1970-01-01T09:51:14.000Z</time>
      </trkpt>
      <trkpt lat="42.668961" lon="0.653679">
        <ele>2220.4</ele>
        <time>1970-01-01T09:51:15.000Z</time>
      </trkpt>
      <trkpt lat="42.668962" lon="0.653679">
        <ele>2220.4</ele>
        <time>1970-01-01T09:51:16.000Z</time>
      </trkpt>
      <trkpt lat="42.668962" lon="0.653675">
        <ele>2220.4</ele>
        <time>1970-01-01T09:51:17.000Z</time>
      </trkpt>
      <trkpt lat="42.668961" lon="0.65367">
        <ele>2220.4</ele>
        <time>1970-01-01T09:51:19.000Z</time>
      </trkpt>
      <trkpt lat="42.668961" lon="0.653666">
        <ele>2220.4</ele>
        <time>1970-01-01T09:51:20.000Z</time>
      </trkpt>
      <trkpt lat="42.668955" lon="0.653652">
        <ele>2220.4</ele>
        <time>1970-01-01T09:51:21.000Z</time>
      </trkpt>
      <trkpt lat="42.668949" lon="0.653642">
        <ele>2218.3</ele>
        <time>1970-01-01T09:51:22.000Z</time>
      </trkpt>
      <trkpt lat="42.668942" lon="0.653632">
        <ele>2218.3</ele>
        <time>1970-01-01T09:51:24.000Z</time>
      </trkpt>
      <trkpt lat="42.668936" lon="0.653623">
        <ele>2218.3</ele>
        <time>1970-01-01T09:51:25.000Z</time>
      </trkpt>
      <trkpt lat="42.668931" lon="0.65362">
        <ele>2219.4</ele>
        <time>1970-01-01T09:51:26.000Z</time>
      </trkpt>
      <trkpt lat="42.668928" lon="0.653618">
        <ele>2219.4</ele>
        <time>1970-01-01T09:51:27.000Z</time>
      </trkpt>
      <trkpt lat="42.668927" lon="0.653618">
        <ele>2219.4</ele>
        <time>1970-01-01T09:51:28.000Z</time>
      </trkpt>
      <trkpt lat="42.668927" lon="0.653621">
        <ele>2219.4</ele>
        <time>1970-01-01T09:51:29.000Z</time>
      </trkpt>
      <trkpt lat="42.668926" lon="0.65362">
        <ele>2219.4</ele>
        <time>1970-01-01T09:51:30.000Z</time>
      </trkpt>
      <trkpt lat="42.668927" lon="0.653619">
        <ele>2219.4</ele>
        <time>1970-01-01T09:51:31.000Z</time>
      </trkpt>
      <trkpt lat="42.668929" lon="0.65362">
        <ele>2219.4</ele>
        <time>1970-01-01T09:51:32.000Z</time>
      </trkpt>
      <trkpt lat="42.668929" lon="0.65362">
        <ele>2219.4</ele>
        <time>1970-01-01T09:51:33.000Z</time>
      </trkpt>
      <trkpt lat="42.66893" lon="0.653621">
        <ele>2219.4</ele>
        <time>1970-01-01T09:51:34.000Z</time>
      </trkpt>
      <trkpt lat="42.668931" lon="0.653621">
        <ele>2219.4</ele>
        <time>1970-01-01T09:51:35.000Z</time>
      </trkpt>
      <trkpt lat="42.668931" lon="0.653621">
        <ele>2219.4</ele>
        <time>1970-01-01T09:51:36.000Z</time>
      </trkpt>
      <trkpt lat="42.668931" lon="0.653622">
        <ele>2219.4</ele>
        <time>1970-01-01T09:51:37.000Z</time>
      </trkpt>
      <trkpt lat="42.668932" lon="0.653623">
        <ele>2218.3</ele>
        <time>1970-01-01T09:51:38.000Z</time>
      </trkpt>
      <trkpt lat="42.668931" lon="0.653623">
        <ele>2219.4</ele>
        <time>1970-01-01T09:51:39.000Z</time>
      </trkpt>
      <trkpt lat="42.668931" lon="0.653623">
        <ele>2219.4</ele>
        <time>1970-01-01T09:51:40.000Z</time>
      </trkpt>
      <trkpt lat="42.668931" lon="0.653623">
        <ele>2219.4</ele>
        <time>1970-01-01T09:51:41.000Z</time>
      </trkpt>
      <trkpt lat="42.668932" lon="0.653623">
        <ele>2218.3</ele>
        <time>1970-01-01T09:51:42.000Z</time>
      </trkpt>
      <trkpt lat="42.668933" lon="0.65363">
        <ele>2218.3</ele>
        <time>1970-01-01T09:51:43.000Z</time>
      </trkpt>
      <trkpt lat="42.668934" lon="0.653633">
        <ele>2218.3</ele>
        <time>1970-01-01T09:51:44.000Z</time>
      </trkpt>
      <trkpt lat="42.668934" lon="0.653633">
        <ele>2218.3</ele>
        <time>1970-01-01T09:51:45.000Z</time>
      </trkpt>
      <trkpt lat="42.668934" lon="0.653633">
        <ele>2218.3</ele>
        <time>1970-01-01T09:51:46.000Z</time>
      </trkpt>
      <trkpt lat="42.668934" lon="0.653633">
        <ele>2218.3</ele>
        <time>1970-01-01T09:51:47.000Z</time>
      </trkpt>
      <trkpt lat="42.668934" lon="0.653633">
        <ele>2218.3</ele>
        <time>1970-01-01T09:51:48.000Z</time>
      </trkpt>
      <trkpt lat="42.668934" lon="0.653633">
        <ele>2218.3</ele>
        <time>1970-01-01T09:51:49.000Z</time>
      </trkpt>
      <trkpt lat="42.668934" lon="0.653633">
        <ele>2218.3</ele>
        <time>1970-01-01T09:51:50.000Z</time>
      </trkpt>
      <trkpt lat="42.668934" lon="0.653633">
        <ele>2218.3</ele>
        <time>1970-01-01T09:51:51.000Z</time>
      </trkpt>
      <trkpt lat="42.668933" lon="0.653631">
        <ele>2218.3</ele>
        <time>1970-01-01T09:51:52.000Z</time>
      </trkpt>
      <trkpt lat="42.66893" lon="0.653629">
        <ele>2219.4</ele>
        <time>1970-01-01T09:51:53.000Z</time>
      </trkpt>
      <trkpt lat="42.668926" lon="0.653626">
        <ele>2219.4</ele>
        <time>1970-01-01T09:51:54.000Z</time>
      </trkpt>
      <trkpt lat="42.668923" lon="0.653625">
        <ele>2219.4</ele>
        <time>1970-01-01T09:51:55.000Z</time>
      </trkpt>
      <trkpt lat="42.668922" lon="0.653625">
        <ele>2219.4</ele>
        <time>1970-01-01T09:51:56.000Z</time>
      </trkpt>
      <trkpt lat="42.668921" lon="0.653625">
        <ele>2219.4</ele>
        <time>1970-01-01T09:51:57.000Z</time>
      </trkpt>
      <trkpt lat="42.668922" lon="0.653625">
        <ele>2219.4</ele>
        <time>1970-01-01T09:51:58.000Z</time>
      </trkpt>
      <trkpt lat="42.668922" lon="0.653626">
        <ele>2219.4</ele>
        <time>1970-01-01T09:51:59.000Z</time>
      </trkpt>
      <trkpt lat="42.668922" lon="0.653626">
        <ele>2219.4</ele>
        <time>1970-01-01T09:52:00.000Z</time>
      </trkpt>
      <trkpt lat="42.668922" lon="0.653626">
        <ele>2219.4</ele>
        <time>1970-01-01T09:52:01.000Z</time>
      </trkpt>
      <trkpt lat="42.668922" lon="0.653626">
        <ele>2219.4</ele>
        <time>1970-01-01T09:52:02.000Z</time>
      </trkpt>
      <trkpt lat="42.66892" lon="0.653625">
        <ele>2219.4</ele>
        <time>1970-01-01T09:52:03.000Z</time>
      </trkpt>
      <trkpt lat="42.668917" lon="0.653626">
        <ele>2219.4</ele>
        <time>1970-01-01T09:52:04.000Z</time>
      </trkpt>
      <trkpt lat="42.668921" lon="0.653616">
        <ele>2219.4</ele>
        <time>1970-01-01T09:52:05.000Z</time>
      </trkpt>
      <trkpt lat="42.668922" lon="0.653614">
        <ele>2219.4</ele>
        <time>1970-01-01T09:52:06.000Z</time>
      </trkpt>
      <trkpt lat="42.668922" lon="0.653614">
        <ele>2219.4</ele>
        <time>1970-01-01T09:52:07.000Z</time>
      </trkpt>
      <trkpt lat="42.668922" lon="0.653614">
        <ele>2219.4</ele>
        <time>1970-01-01T09:52:08.000Z</time>
      </trkpt>
      <trkpt lat="42.668922" lon="0.653613">
        <ele>2219.4</ele>
        <time>1970-01-01T09:52:09.000Z</time>
      </trkpt>
      <trkpt lat="42.668929" lon="0.653604">
        <ele>2219.4</ele>
        <time>1970-01-01T09:52:10.000Z</time>
      </trkpt>
      <trkpt lat="42.668937" lon="0.653592">
        <ele>2216.2</ele>
        <time>1970-01-01T09:52:11.000Z</time>
      </trkpt>
      <trkpt lat="42.668944" lon="0.653584">
        <ele>2216.2</ele>
        <time>1970-01-01T09:52:12.000Z</time>
      </trkpt>
      <trkpt lat="42.668949" lon="0.653577">
        <ele>2216.2</ele>
        <time>1970-01-01T09:52:13.000Z</time>
      </trkpt>
      <trkpt lat="42.668958" lon="0.653574">
        <ele>2216.2</ele>
        <time>1970-01-01T09:52:14.000Z</time>
      </trkpt>
      <trkpt lat="42.668967" lon="0.653574">
        <ele>2215.2</ele>
        <time>1970-01-01T09:52:15.000Z</time>
      </trkpt>
      <trkpt lat="42.668976" lon="0.653577">
        <ele>2215.2</ele>
        <time>1970-01-01T09:52:16.000Z</time>
      </trkpt>
      <trkpt lat="42.668981" lon="0.65358">
        <ele>2215.2</ele>
        <time>1970-01-01T09:52:17.000Z</time>
      </trkpt>
      <trkpt lat="42.668992" lon="0.653585">
        <ele>2215.2</ele>
        <time>1970-01-01T09:52:19.000Z</time>
      </trkpt>
      <trkpt lat="42.668998" lon="0.653588">
        <ele>2214.2</ele>
        <time>1970-01-01T09:52:20.000Z</time>
      </trkpt>
      <trkpt lat="42.669008" lon="0.653591">
        <ele>2214.2</ele>
        <time>1970-01-01T09:52:22.000Z</time>
      </trkpt>
      <trkpt lat="42.669012" lon="0.65359">
        <ele>2214.2</ele>
        <time>1970-01-01T09:52:23.000Z</time>
      </trkpt>
      <trkpt lat="42.669015" lon="0.653586">
        <ele>2214.2</ele>
        <time>1970-01-01T09:52:24.000Z</time>
      </trkpt>
      <trkpt lat="42.669014" lon="0.653572">
        <ele>2214.2</ele>
        <time>1970-01-01T09:52:25.000Z</time>
      </trkpt>
      <trkpt lat="42.669002" lon="0.653554">
        <ele>2212.1</ele>
        <time>1970-01-01T09:52:26.000Z</time>
      </trkpt>
      <trkpt lat="42.668997" lon="0.653544">
        <ele>2212.1</ele>
        <time>1970-01-01T09:52:27.000Z</time>
      </trkpt>
      <trkpt lat="42.668973" lon="0.653528">
        <ele>2213.1</ele>
        <time>1970-01-01T09:52:29.000Z</time>
      </trkpt>
      <trkpt lat="42.668959" lon="0.653531">
        <ele>2214.2</ele>
        <time>1970-01-01T09:52:30.000Z</time>
      </trkpt>
      <trkpt lat="42.668948" lon="0.653534">
        <ele>2214.2</ele>
        <time>1970-01-01T09:52:31.000Z</time>
      </trkpt>
      <trkpt lat="42.668937" lon="0.653536">
        <ele>2214.2</ele>
        <time>1970-01-01T09:52:32.000Z</time>
      </trkpt>
      <trkpt lat="42.668929" lon="0.653536">
        <ele>2215.3</ele>
        <time>1970-01-01T09:52:33.000Z</time>
      </trkpt>
      <trkpt lat="42.668925" lon="0.653535">
        <ele>2215.3</ele>
        <time>1970-01-01T09:52:34.000Z</time>
      </trkpt>
      <trkpt lat="42.668918" lon="0.653535">
        <ele>2215.3</ele>
        <time>1970-01-01T09:52:35.000Z</time>
      </trkpt>
      <trkpt lat="42.668916" lon="0.653537">
        <ele>2215.3</ele>
        <time>1970-01-01T09:52:36.000Z</time>
      </trkpt>
      <trkpt lat="42.668918" lon="0.653538">
        <ele>2215.3</ele>
        <time>1970-01-01T09:52:37.000Z</time>
      </trkpt>
      <trkpt lat="42.668918" lon="0.653539">
        <ele>2215.3</ele>
        <time>1970-01-01T09:52:38.000Z</time>
      </trkpt>
      <trkpt lat="42.668918" lon="0.653541">
        <ele>2215.3</ele>
        <time>1970-01-01T09:52:39.000Z</time>
      </trkpt>
      <trkpt lat="42.668918" lon="0.653541">
        <ele>2215.3</ele>
        <time>1970-01-01T09:52:40.000Z</time>
      </trkpt>
      <trkpt lat="42.668916" lon="0.65354">
        <ele>2215.3</ele>
        <time>1970-01-01T09:52:42.000Z</time>
      </trkpt>
      <trkpt lat="42.668915" lon="0.653538">
        <ele>2215.3</ele>
        <time>1970-01-01T09:52:43.000Z</time>
      </trkpt>
      <trkpt lat="42.668914" lon="0.653536">
        <ele>2215.3</ele>
        <time>1970-01-01T09:52:44.000Z</time>
      </trkpt>
      <trkpt lat="42.668914" lon="0.653536">
        <ele>2215.3</ele>
        <time>1970-01-01T09:52:45.000Z</time>
      </trkpt>
      <trkpt lat="42.668914" lon="0.653534">
        <ele>2215.3</ele>
        <time>1970-01-01T09:52:46.000Z</time>
      </trkpt>
      <trkpt lat="42.668914" lon="0.653534">
        <ele>2215.3</ele>
        <time>1970-01-01T09:52:47.000Z</time>
      </trkpt>
      <trkpt lat="42.668915" lon="0.653534">
        <ele>2215.3</ele>
        <time>1970-01-01T09:52:48.000Z</time>
      </trkpt>
      <trkpt lat="42.668915" lon="0.653534">
        <ele>2215.3</ele>
        <time>1970-01-01T09:52:49.000Z</time>
      </trkpt>
      <trkpt lat="42.668916" lon="0.653533">
        <ele>2215.3</ele>
        <time>1970-01-01T09:52:50.000Z</time>
      </trkpt>
      <trkpt lat="42.668916" lon="0.653532">
        <ele>2215.3</ele>
        <time>1970-01-01T09:52:51.000Z</time>
      </trkpt>
      <trkpt lat="42.668918" lon="0.65353">
        <ele>2215.3</ele>
        <time>1970-01-01T09:52:52.000Z</time>
      </trkpt>
      <trkpt lat="42.668917" lon="0.653528">
        <ele>2215.3</ele>
        <time>1970-01-01T09:52:53.000Z</time>
      </trkpt>
      <trkpt lat="42.668919" lon="0.653528">
        <ele>2215.3</ele>
        <time>1970-01-01T09:52:54.000Z</time>
      </trkpt>
      <trkpt lat="42.668919" lon="0.653526">
        <ele>2215.3</ele>
        <time>1970-01-01T09:52:55.000Z</time>
      </trkpt>
      <trkpt lat="42.668925" lon="0.653532">
        <ele>2215.3</ele>
        <time>1970-01-01T09:52:56.000Z</time>
      </trkpt>
      <trkpt lat="42.668929" lon="0.653534">
        <ele>2215.3</ele>
        <time>1970-01-01T09:52:57.000Z</time>
      </trkpt>
      <trkpt lat="42.66893" lon="0.653534">
        <ele>2215.3</ele>
        <time>1970-01-01T09:52:58.000Z</time>
      </trkpt>
      <trkpt lat="42.66893" lon="0.653534">
        <ele>2215.3</ele>
        <time>1970-01-01T09:52:59.000Z</time>
      </trkpt>
      <trkpt lat="42.66893" lon="0.653534">
        <ele>2215.3</ele>
        <time>1970-01-01T09:53:00.000Z</time>
      </trkpt>
      <trkpt lat="42.66893" lon="0.653534">
        <ele>2215.3</ele>
        <time>1970-01-01T09:53:01.000Z</time>
      </trkpt>
      <trkpt lat="42.66893" lon="0.653534">
        <ele>2215.3</ele>
        <time>1970-01-01T09:53:02.000Z</time>
      </trkpt>
      <trkpt lat="42.66893" lon="0.653534">
        <ele>2215.3</ele>
        <time>1970-01-01T09:53:03.000Z</time>
      </trkpt>
      <trkpt lat="42.66893" lon="0.653534">
        <ele>2215.3</ele>
        <time>1970-01-01T09:53:04.000Z</time>
      </trkpt>
      <trkpt lat="42.66893" lon="0.653534">
        <ele>2215.3</ele>
        <time>1970-01-01T09:53:05.000Z</time>
      </trkpt>
      <trkpt lat="42.66893" lon="0.653534">
        <ele>2215.3</ele>
        <time>1970-01-01T09:53:06.000Z</time>
      </trkpt>
      <trkpt lat="42.66893" lon="0.653534">
        <ele>2215.3</ele>
        <time>1970-01-01T09:53:07.000Z</time>
      </trkpt>
      <trkpt lat="42.66893" lon="0.653534">
        <ele>2215.3</ele>
        <time>1970-01-01T09:53:08.000Z</time>
      </trkpt>
      <trkpt lat="42.66893" lon="0.653534">
        <ele>2215.3</ele>
        <time>1970-01-01T09:53:09.000Z</time>
      </trkpt>
      <trkpt lat="42.66893" lon="0.653534">
        <ele>2215.3</ele>
        <time>1970-01-01T09:53:10.000Z</time>
      </trkpt>
      <trkpt lat="42.66893" lon="0.653534">
        <ele>2215.3</ele>
        <time>1970-01-01T09:53:11.000Z</time>
      </trkpt>
      <trkpt lat="42.66893" lon="0.653534">
        <ele>2215.3</ele>
        <time>1970-01-01T09:53:12.000Z</time>
      </trkpt>
      <trkpt lat="42.66893" lon="0.653534">
        <ele>2215.3</ele>
        <time>1970-01-01T09:53:13.000Z</time>
      </trkpt>
      <trkpt lat="42.66893" lon="0.653534">
        <ele>2215.3</ele>
        <time>1970-01-01T09:53:14.000Z</time>
      </trkpt>
      <trkpt lat="42.66893" lon="0.653534">
        <ele>2215.3</ele>
        <time>1970-01-01T09:53:15.000Z</time>
      </trkpt>
      <trkpt lat="42.66893" lon="0.653533">
        <ele>2215.3</ele>
        <time>1970-01-01T09:53:16.000Z</time>
      </trkpt>
      <trkpt lat="42.668929" lon="0.653532">
        <ele>2215.3</ele>
        <time>1970-01-01T09:53:17.000Z</time>
      </trkpt>
      <trkpt lat="42.668929" lon="0.653533">
        <ele>2215.3</ele>
        <time>1970-01-01T09:53:18.000Z</time>
      </trkpt>
      <trkpt lat="42.66893" lon="0.653534">
        <ele>2215.3</ele>
        <time>1970-01-01T09:53:19.000Z</time>
      </trkpt>
      <trkpt lat="42.66893" lon="0.653534">
        <ele>2215.3</ele>
        <time>1970-01-01T09:53:20.000Z</time>
      </trkpt>
      <trkpt lat="42.668931" lon="0.653534">
        <ele>2215.3</ele>
        <time>1970-01-01T09:53:21.000Z</time>
      </trkpt>
      <trkpt lat="42.668931" lon="0.653534">
        <ele>2215.3</ele>
        <time>1970-01-01T09:53:22.000Z</time>
      </trkpt>
      <trkpt lat="42.668931" lon="0.653534">
        <ele>2215.3</ele>
        <time>1970-01-01T09:53:23.000Z</time>
      </trkpt>
      <trkpt lat="42.668921" lon="0.653527">
        <ele>2215.3</ele>
        <time>1970-01-01T09:53:24.000Z</time>
      </trkpt>
      <trkpt lat="42.668912" lon="0.653521">
        <ele>2215.3</ele>
        <time>1970-01-01T09:53:25.000Z</time>
      </trkpt>
      <trkpt lat="42.668912" lon="0.653519">
        <ele>2215.3</ele>
        <time>1970-01-01T09:53:26.000Z</time>
      </trkpt>
      <trkpt lat="42.668914" lon="0.653527">
        <ele>2215.3</ele>
        <time>1970-01-01T09:53:27.000Z</time>
      </trkpt>
      <trkpt lat="42.668913" lon="0.653529">
        <ele>2215.3</ele>
        <time>1970-01-01T09:53:28.000Z</time>
      </trkpt>
      <trkpt lat="42.668911" lon="0.653529">
        <ele>2215.3</ele>
        <time>1970-01-01T09:53:29.000Z</time>
      </trkpt>
      <trkpt lat="42.668909" lon="0.653528">
        <ele>2215.3</ele>
        <time>1970-01-01T09:53:30.000Z</time>
      </trkpt>
      <trkpt lat="42.668908" lon="0.653527">
        <ele>2215.3</ele>
        <time>1970-01-01T09:53:31.000Z</time>
      </trkpt>
      <trkpt lat="42.668907" lon="0.653527">
        <ele>2215.3</ele>
        <time>1970-01-01T09:53:32.000Z</time>
      </trkpt>
      <trkpt lat="42.668904" lon="0.653528">
        <ele>2215.3</ele>
        <time>1970-01-01T09:53:33.000Z</time>
      </trkpt>
      <trkpt lat="42.668902" lon="0.653526">
        <ele>2215.3</ele>
        <time>1970-01-01T09:53:34.000Z</time>
      </trkpt>
      <trkpt lat="42.668899" lon="0.653524">
        <ele>2216.4</ele>
        <time>1970-01-01T09:53:35.000Z</time>
      </trkpt>
      <trkpt lat="42.668895" lon="0.653521">
        <ele>2216.4</ele>
        <time>1970-01-01T09:53:36.000Z</time>
      </trkpt>
      <trkpt lat="42.668895" lon="0.65352">
        <ele>2216.4</ele>
        <time>1970-01-01T09:53:37.000Z</time>
      </trkpt>
      <trkpt lat="42.668893" lon="0.653519">
        <ele>2216.4</ele>
        <time>1970-01-01T09:53:38.000Z</time>
      </trkpt>
      <trkpt lat="42.668891" lon="0.653518">
        <ele>2216.4</ele>
        <time>1970-01-01T09:53:39.000Z</time>
      </trkpt>
      <trkpt lat="42.66889" lon="0.653515">
        <ele>2216.4</ele>
        <time>1970-01-01T09:53:40.000Z</time>
      </trkpt>
      <trkpt lat="42.668889" lon="0.653514">
        <ele>2214.4</ele>
        <time>1970-01-01T09:53:41.000Z</time>
      </trkpt>
      <trkpt lat="42.668889" lon="0.653512">
        <ele>2214.4</ele>
        <time>1970-01-01T09:53:42.000Z</time>
      </trkpt>
      <trkpt lat="42.668889" lon="0.653508">
        <ele>2214.4</ele>
        <time>1970-01-01T09:53:43.000Z</time>
      </trkpt>
      <trkpt lat="42.668889" lon="0.653505">
        <ele>2214.4</ele>
        <time>1970-01-01T09:53:44.000Z</time>
      </trkpt>
      <trkpt lat="42.668889" lon="0.653503">
        <ele>2214.4</ele>
        <time>1970-01-01T09:53:45.000Z</time>
      </trkpt>
      <trkpt lat="42.668891" lon="0.653496">
        <ele>2214.4</ele>
        <time>1970-01-01T09:53:47.000Z</time>
      </trkpt>
      <trkpt lat="42.668892" lon="0.653494">
        <ele>2214.4</ele>
        <time>1970-01-01T09:53:48.000Z</time>
      </trkpt>
      <trkpt lat="42.668893" lon="0.653492">
        <ele>2214.4</ele>
        <time>1970-01-01T09:53:49.000Z</time>
      </trkpt>
      <trkpt lat="42.668891" lon="0.65349">
        <ele>2214.4</ele>
        <time>1970-01-01T09:53:51.000Z</time>
      </trkpt>
      <trkpt lat="42.668892" lon="0.653487">
        <ele>2214.4</ele>
        <time>1970-01-01T09:53:52.000Z</time>
      </trkpt>
      <trkpt lat="42.668892" lon="0.653484">
        <ele>2214.4</ele>
        <time>1970-01-01T09:53:53.000Z</time>
      </trkpt>
      <trkpt lat="42.668891" lon="0.653482">
        <ele>2214.4</ele>
        <time>1970-01-01T09:53:54.000Z</time>
      </trkpt>
      <trkpt lat="42.668889" lon="0.653479">
        <ele>2214.4</ele>
        <time>1970-01-01T09:53:55.000Z</time>
      </trkpt>
      <trkpt lat="42.66889" lon="0.653478">
        <ele>2214.4</ele>
        <time>1970-01-01T09:53:56.000Z</time>
      </trkpt>
      <trkpt lat="42.668891" lon="0.653476">
        <ele>2214.4</ele>
        <time>1970-01-01T09:53:57.000Z</time>
      </trkpt>
      <trkpt lat="42.66889" lon="0.653475">
        <ele>2214.4</ele>
        <time>1970-01-01T09:53:58.000Z</time>
      </trkpt>
      <trkpt lat="42.66889" lon="0.653475">
        <ele>2214.4</ele>
        <time>1970-01-01T09:53:59.000Z</time>
      </trkpt>
      <trkpt lat="42.668892" lon="0.653475">
        <ele>2214.4</ele>
        <time>1970-01-01T09:54:00.000Z</time>
      </trkpt>
      <trkpt lat="42.668894" lon="0.653475">
        <ele>2214.4</ele>
        <time>1970-01-01T09:54:01.000Z</time>
      </trkpt>
      <trkpt lat="42.668895" lon="0.653475">
        <ele>2214.4</ele>
        <time>1970-01-01T09:54:02.000Z</time>
      </trkpt>
      <trkpt lat="42.668894" lon="0.653474">
        <ele>2214.4</ele>
        <time>1970-01-01T09:54:03.000Z</time>
      </trkpt>
      <trkpt lat="42.668894" lon="0.653474">
        <ele>2214.4</ele>
        <time>1970-01-01T09:54:04.000Z</time>
      </trkpt>
      <trkpt lat="42.668895" lon="0.653473">
        <ele>2214.4</ele>
        <time>1970-01-01T09:54:05.000Z</time>
      </trkpt>
      <trkpt lat="42.668896" lon="0.653473">
        <ele>2214.4</ele>
        <time>1970-01-01T09:54:06.000Z</time>
      </trkpt>
      <trkpt lat="42.668895" lon="0.653472">
        <ele>2214.4</ele>
        <time>1970-01-01T09:54:07.000Z</time>
      </trkpt>
      <trkpt lat="42.668896" lon="0.653469">
        <ele>2212.3</ele>
        <time>1970-01-01T09:54:08.000Z</time>
      </trkpt>
      <trkpt lat="42.668895" lon="0.653465">
        <ele>2212.3</ele>
        <time>1970-01-01T09:54:09.000Z</time>
      </trkpt>
      <trkpt lat="42.668894" lon="0.653462">
        <ele>2212.3</ele>
        <time>1970-01-01T09:54:10.000Z</time>
      </trkpt>
      <trkpt lat="42.668894" lon="0.653462">
        <ele>2212.3</ele>
        <time>1970-01-01T09:54:11.000Z</time>
      </trkpt>
      <trkpt lat="42.668894" lon="0.653461">
        <ele>2212.3</ele>
        <time>1970-01-01T09:54:12.000Z</time>
      </trkpt>
      <trkpt lat="42.668894" lon="0.653459">
        <ele>2212.3</ele>
        <time>1970-01-01T09:54:14.000Z</time>
      </trkpt>
      <trkpt lat="42.66889" lon="0.653452">
        <ele>2212.3</ele>
        <time>1970-01-01T09:54:15.000Z</time>
      </trkpt>
      <trkpt lat="42.668888" lon="0.653454">
        <ele>2212.3</ele>
        <time>1970-01-01T09:54:16.000Z</time>
      </trkpt>
      <trkpt lat="42.668879" lon="0.653458">
        <ele>2212.3</ele>
        <time>1970-01-01T09:54:17.000Z</time>
      </trkpt>
      <trkpt lat="42.66887" lon="0.653466">
        <ele>2212.3</ele>
        <time>1970-01-01T09:54:18.000Z</time>
      </trkpt>
      <trkpt lat="42.668865" lon="0.653467">
        <ele>2213.4</ele>
        <time>1970-01-01T09:54:19.000Z</time>
      </trkpt>
      <trkpt lat="42.668854" lon="0.653464">
        <ele>2213.4</ele>
        <time>1970-01-01T09:54:20.000Z</time>
      </trkpt>
      <trkpt lat="42.668839" lon="0.653464">
        <ele>2213.4</ele>
        <time>1970-01-01T09:54:22.000Z</time>
      </trkpt>
      <trkpt lat="42.668834" lon="0.653453">
        <ele>2214.4</ele>
        <time>1970-01-01T09:54:23.000Z</time>
      </trkpt>
      <trkpt lat="42.668831" lon="0.653437">
        <ele>2214.4</ele>
        <time>1970-01-01T09:54:24.000Z</time>
      </trkpt>
      <trkpt lat="42.668829" lon="0.653429">
        <ele>2212.3</ele>
        <time>1970-01-01T09:54:25.000Z</time>
      </trkpt>
      <trkpt lat="42.668826" lon="0.653417">
        <ele>2212.3</ele>
        <time>1970-01-01T09:54:27.000Z</time>
      </trkpt>
      <trkpt lat="42.668825" lon="0.6534">
        <ele>2212.3</ele>
        <time>1970-01-01T09:54:29.000Z</time>
      </trkpt>
      <trkpt lat="42.668824" lon="0.653391">
        <ele>2212.3</ele>
        <time>1970-01-01T09:54:30.000Z</time>
      </trkpt>
      <trkpt lat="42.668821" lon="0.653382">
        <ele>2210.1</ele>
        <time>1970-01-01T09:54:31.000Z</time>
      </trkpt>
      <trkpt lat="42.66882" lon="0.653379">
        <ele>2210.1</ele>
        <time>1970-01-01T09:54:32.000Z</time>
      </trkpt>
      <trkpt lat="42.668818" lon="0.653374">
        <ele>2210.1</ele>
        <time>1970-01-01T09:54:34.000Z</time>
      </trkpt>
      <trkpt lat="42.668819" lon="0.653371">
        <ele>2210.1</ele>
        <time>1970-01-01T09:54:35.000Z</time>
      </trkpt>
      <trkpt lat="42.668813" lon="0.653365">
        <ele>2210.1</ele>
        <time>1970-01-01T09:54:36.000Z</time>
      </trkpt>
      <trkpt lat="42.66881" lon="0.653363">
        <ele>2210.1</ele>
        <time>1970-01-01T09:54:38.000Z</time>
      </trkpt>
      <trkpt lat="42.668811" lon="0.653363">
        <ele>2210.1</ele>
        <time>1970-01-01T09:54:39.000Z</time>
      </trkpt>
      <trkpt lat="42.668812" lon="0.653364">
        <ele>2210.1</ele>
        <time>1970-01-01T09:54:40.000Z</time>
      </trkpt>
      <trkpt lat="42.668813" lon="0.653363">
        <ele>2210.1</ele>
        <time>1970-01-01T09:54:41.000Z</time>
      </trkpt>
      <trkpt lat="42.668813" lon="0.653359">
        <ele>2210.1</ele>
        <time>1970-01-01T09:54:42.000Z</time>
      </trkpt>
      <trkpt lat="42.668815" lon="0.653355">
        <ele>2210.1</ele>
        <time>1970-01-01T09:54:43.000Z</time>
      </trkpt>
      <trkpt lat="42.668819" lon="0.653348">
        <ele>2210.1</ele>
        <time>1970-01-01T09:54:44.000Z</time>
      </trkpt>
      <trkpt lat="42.668817" lon="0.653341">
        <ele>2207.9</ele>
        <time>1970-01-01T09:54:45.000Z</time>
      </trkpt>
      <trkpt lat="42.668813" lon="0.653336">
        <ele>2207.9</ele>
        <time>1970-01-01T09:54:46.000Z</time>
      </trkpt>
      <trkpt lat="42.668811" lon="0.653335">
        <ele>2207.9</ele>
        <time>1970-01-01T09:54:47.000Z</time>
      </trkpt>
      <trkpt lat="42.668808" lon="0.65333">
        <ele>2207.9</ele>
        <time>1970-01-01T09:54:48.000Z</time>
      </trkpt>
      <trkpt lat="42.668804" lon="0.653327">
        <ele>2208.8</ele>
        <time>1970-01-01T09:54:50.000Z</time>
      </trkpt>
      <trkpt lat="42.668802" lon="0.653322">
        <ele>2208.8</ele>
        <time>1970-01-01T09:54:51.000Z</time>
      </trkpt>
      <trkpt lat="42.668799" lon="0.653315">
        <ele>2208.8</ele>
        <time>1970-01-01T09:54:52.000Z</time>
      </trkpt>
      <trkpt lat="42.668799" lon="0.653312">
        <ele>2208.8</ele>
        <time>1970-01-01T09:54:53.000Z</time>
      </trkpt>
      <trkpt lat="42.668795" lon="0.653306">
        <ele>2208.8</ele>
        <time>1970-01-01T09:54:55.000Z</time>
      </trkpt>
      <trkpt lat="42.668791" lon="0.653299">
        <ele>2206.7</ele>
        <time>1970-01-01T09:54:56.000Z</time>
      </trkpt>
      <trkpt lat="42.668789" lon="0.653295">
        <ele>2206.7</ele>
        <time>1970-01-01T09:54:57.000Z</time>
      </trkpt>
      <trkpt lat="42.668787" lon="0.653288">
        <ele>2206.7</ele>
        <time>1970-01-01T09:54:58.000Z</time>
      </trkpt>
      <trkpt lat="42.668786" lon="0.653283">
        <ele>2206.7</ele>
        <time>1970-01-01T09:54:59.000Z</time>
      </trkpt>
      <trkpt lat="42.668784" lon="0.653276">
        <ele>2206.7</ele>
        <time>1970-01-01T09:55:01.000Z</time>
      </trkpt>
      <trkpt lat="42.668782" lon="0.653267">
        <ele>2206.7</ele>
        <time>1970-01-01T09:55:02.000Z</time>
      </trkpt>
      <trkpt lat="42.668781" lon="0.653259">
        <ele>2206.7</ele>
        <time>1970-01-01T09:55:03.000Z</time>
      </trkpt>
      <trkpt lat="42.668777" lon="0.653252">
        <ele>2204.6</ele>
        <time>1970-01-01T09:55:05.000Z</time>
      </trkpt>
      <trkpt lat="42.668776" lon="0.653248">
        <ele>2204.6</ele>
        <time>1970-01-01T09:55:06.000Z</time>
      </trkpt>
      <trkpt lat="42.668769" lon="0.653242">
        <ele>2205.5</ele>
        <time>1970-01-01T09:55:08.000Z</time>
      </trkpt>
      <trkpt lat="42.668767" lon="0.65324">
        <ele>2205.5</ele>
        <time>1970-01-01T09:55:09.000Z</time>
      </trkpt>
      <trkpt lat="42.668764" lon="0.653234">
        <ele>2205.5</ele>
        <time>1970-01-01T09:55:10.000Z</time>
      </trkpt>
      <trkpt lat="42.668762" lon="0.653229">
        <ele>2205.5</ele>
        <time>1970-01-01T09:55:11.000Z</time>
      </trkpt>
      <trkpt lat="42.668761" lon="0.653225">
        <ele>2205.5</ele>
        <time>1970-01-01T09:55:12.000Z</time>
      </trkpt>
      <trkpt lat="42.668759" lon="0.653223">
        <ele>2205.5</ele>
        <time>1970-01-01T09:55:13.000Z</time>
      </trkpt>
      <trkpt lat="42.668754" lon="0.65322">
        <ele>2205.5</ele>
        <time>1970-01-01T09:55:14.000Z</time>
      </trkpt>
      <trkpt lat="42.66875" lon="0.653218">
        <ele>2205.5</ele>
        <time>1970-01-01T09:55:16.000Z</time>
      </trkpt>
      <trkpt lat="42.668749" lon="0.653216">
        <ele>2205.5</ele>
        <time>1970-01-01T09:55:17.000Z</time>
      </trkpt>
      <trkpt lat="42.668747" lon="0.653214">
        <ele>2203.5</ele>
        <time>1970-01-01T09:55:18.000Z</time>
      </trkpt>
      <trkpt lat="42.668747" lon="0.653211">
        <ele>2203.5</ele>
        <time>1970-01-01T09:55:19.000Z</time>
      </trkpt>
      <trkpt lat="42.668748" lon="0.653202">
        <ele>2203.5</ele>
        <time>1970-01-01T09:55:21.000Z</time>
      </trkpt>
      <trkpt lat="42.668747" lon="0.653196">
        <ele>2203.5</ele>
        <time>1970-01-01T09:55:22.000Z</time>
      </trkpt>
      <trkpt lat="42.668746" lon="0.653194">
        <ele>2203.5</ele>
        <time>1970-01-01T09:55:23.000Z</time>
      </trkpt>
      <trkpt lat="42.668738" lon="0.653184">
        <ele>2204.4</ele>
        <time>1970-01-01T09:55:25.000Z</time>
      </trkpt>
      <trkpt lat="42.66873" lon="0.653178">
        <ele>2204.4</ele>
        <time>1970-01-01T09:55:26.000Z</time>
      </trkpt>
      <trkpt lat="42.668728" lon="0.653177">
        <ele>2204.4</ele>
        <time>1970-01-01T09:55:27.000Z</time>
      </trkpt>
      <trkpt lat="42.668727" lon="0.653177">
        <ele>2204.4</ele>
        <time>1970-01-01T09:55:28.000Z</time>
      </trkpt>
      <trkpt lat="42.668728" lon="0.653176">
        <ele>2204.4</ele>
        <time>1970-01-01T09:55:29.000Z</time>
      </trkpt>
      <trkpt lat="42.668728" lon="0.653174">
        <ele>2204.4</ele>
        <time>1970-01-01T09:55:30.000Z</time>
      </trkpt>
      <trkpt lat="42.668727" lon="0.653168">
        <ele>2202.6</ele>
        <time>1970-01-01T09:55:31.000Z</time>
      </trkpt>
      <trkpt lat="42.668725" lon="0.653165">
        <ele>2202.6</ele>
        <time>1970-01-01T09:55:32.000Z</time>
      </trkpt>
      <trkpt lat="42.668715" lon="0.653157">
        <ele>2202.6</ele>
        <time>1970-01-01T09:55:34.000Z</time>
      </trkpt>
      <trkpt lat="42.668718" lon="0.653155">
        <ele>2202.6</ele>
        <time>1970-01-01T09:55:35.000Z</time>
      </trkpt>
      <trkpt lat="42.668718" lon="0.653153">
        <ele>2202.6</ele>
        <time>1970-01-01T09:55:36.000Z</time>
      </trkpt>
      <trkpt lat="42.668716" lon="0.653149">
        <ele>2202.6</ele>
        <time>1970-01-01T09:55:37.000Z</time>
      </trkpt>
      <trkpt lat="42.668714" lon="0.653146">
        <ele>2202.6</ele>
        <time>1970-01-01T09:55:38.000Z</time>
      </trkpt>
      <trkpt lat="42.668712" lon="0.653143">
        <ele>2202.6</ele>
        <time>1970-01-01T09:55:39.000Z</time>
      </trkpt>
      <trkpt lat="42.668711" lon="0.653141">
        <ele>2202.6</ele>
        <time>1970-01-01T09:55:40.000Z</time>
      </trkpt>
      <trkpt lat="42.668709" lon="0.653138">
        <ele>2203.5</ele>
        <time>1970-01-01T09:55:41.000Z</time>
      </trkpt>
      <trkpt lat="42.668708" lon="0.653134">
        <ele>2203.5</ele>
        <time>1970-01-01T09:55:42.000Z</time>
      </trkpt>
      <trkpt lat="42.668706" lon="0.653128">
        <ele>2201.6</ele>
        <time>1970-01-01T09:55:43.000Z</time>
      </trkpt>
      <trkpt lat="42.668705" lon="0.653126">
        <ele>2201.6</ele>
        <time>1970-01-01T09:55:44.000Z</time>
      </trkpt>
      <trkpt lat="42.668704" lon="0.653121">
        <ele>2201.6</ele>
        <time>1970-01-01T09:55:45.000Z</time>
      </trkpt>
      <trkpt lat="42.668702" lon="0.653117">
        <ele>2201.6</ele>
        <time>1970-01-01T09:55:46.000Z</time>
      </trkpt>
      <trkpt lat="42.6687" lon="0.653115">
        <ele>2201.6</ele>
        <time>1970-01-01T09:55:47.000Z</time>
      </trkpt>
      <trkpt lat="42.668699" lon="0.653113">
        <ele>2201.6</ele>
        <time>1970-01-01T09:55:48.000Z</time>
      </trkpt>
      <trkpt lat="42.668694" lon="0.653107">
        <ele>2201.6</ele>
        <time>1970-01-01T09:55:49.000Z</time>
      </trkpt>
      <trkpt lat="42.668685" lon="0.653094">
        <ele>2201.6</ele>
        <time>1970-01-01T09:55:51.000Z</time>
      </trkpt>
      <trkpt lat="42.668682" lon="0.653089">
        <ele>2201.6</ele>
        <time>1970-01-01T09:55:52.000Z</time>
      </trkpt>
      <trkpt lat="42.668679" lon="0.653087">
        <ele>2201.6</ele>
        <time>1970-01-01T09:55:53.000Z</time>
      </trkpt>
      <trkpt lat="42.668679" lon="0.653086">
        <ele>2201.6</ele>
        <time>1970-01-01T09:55:54.000Z</time>
      </trkpt>
      <trkpt lat="42.66868" lon="0.653084">
        <ele>2199.7</ele>
        <time>1970-01-01T09:55:55.000Z</time>
      </trkpt>
      <trkpt lat="42.66868" lon="0.653073">
        <ele>2199.7</ele>
        <time>1970-01-01T09:55:56.000Z</time>
      </trkpt>
      <trkpt lat="42.66868" lon="0.653068">
        <ele>2199.7</ele>
        <time>1970-01-01T09:55:57.000Z</time>
      </trkpt>
      <trkpt lat="42.668681" lon="0.65305">
        <ele>2199.7</ele>
        <time>1970-01-01T09:55:58.000Z</time>
      </trkpt>
      <trkpt lat="42.66868" lon="0.653042">
        <ele>2197.8</ele>
        <time>1970-01-01T09:56:00.000Z</time>
      </trkpt>
      <trkpt lat="42.668676" lon="0.653037">
        <ele>2198.8</ele>
        <time>1970-01-01T09:56:01.000Z</time>
      </trkpt>
      <trkpt lat="42.668673" lon="0.653031">
        <ele>2198.8</ele>
        <time>1970-01-01T09:56:02.000Z</time>
      </trkpt>
      <trkpt lat="42.668668" lon="0.653026">
        <ele>2198.8</ele>
        <time>1970-01-01T09:56:03.000Z</time>
      </trkpt>
      <trkpt lat="42.668663" lon="0.65302">
        <ele>2198.8</ele>
        <time>1970-01-01T09:56:05.000Z</time>
      </trkpt>
      <trkpt lat="42.668658" lon="0.653014">
        <ele>2198.8</ele>
        <time>1970-01-01T09:56:06.000Z</time>
      </trkpt>
      <trkpt lat="42.668657" lon="0.653011">
        <ele>2198.8</ele>
        <time>1970-01-01T09:56:07.000Z</time>
      </trkpt>
      <trkpt lat="42.668655" lon="0.653008">
        <ele>2198.8</ele>
        <time>1970-01-01T09:56:08.000Z</time>
      </trkpt>
      <trkpt lat="42.668652" lon="0.653005">
        <ele>2198.8</ele>
        <time>1970-01-01T09:56:09.000Z</time>
      </trkpt>
      <trkpt lat="42.668648" lon="0.652999">
        <ele>2196.9</ele>
        <time>1970-01-01T09:56:10.000Z</time>
      </trkpt>
      <trkpt lat="42.668645" lon="0.652995">
        <ele>2197.8</ele>
        <time>1970-01-01T09:56:11.000Z</time>
      </trkpt>
      <trkpt lat="42.668642" lon="0.652989">
        <ele>2197.8</ele>
        <time>1970-01-01T09:56:12.000Z</time>
      </trkpt>
      <trkpt lat="42.668642" lon="0.652985">
        <ele>2197.8</ele>
        <time>1970-01-01T09:56:13.000Z</time>
      </trkpt>
      <trkpt lat="42.668638" lon="0.652982">
        <ele>2197.8</ele>
        <time>1970-01-01T09:56:14.000Z</time>
      </trkpt>
      <trkpt lat="42.668633" lon="0.652977">
        <ele>2197.8</ele>
        <time>1970-01-01T09:56:15.000Z</time>
      </trkpt>
      <trkpt lat="42.668627" lon="0.652971">
        <ele>2197.8</ele>
        <time>1970-01-01T09:56:17.000Z</time>
      </trkpt>
      <trkpt lat="42.668622" lon="0.652962">
        <ele>2197.8</ele>
        <time>1970-01-01T09:56:18.000Z</time>
      </trkpt>
      <trkpt lat="42.668617" lon="0.652951">
        <ele>2195.9</ele>
        <time>1970-01-01T09:56:19.000Z</time>
      </trkpt>
      <trkpt lat="42.66861" lon="0.652938">
        <ele>2196.8</ele>
        <time>1970-01-01T09:56:20.000Z</time>
      </trkpt>
      <trkpt lat="42.668603" lon="0.652929">
        <ele>2196.8</ele>
        <time>1970-01-01T09:56:21.000Z</time>
      </trkpt>
      <trkpt lat="42.668595" lon="0.652917">
        <ele>2196.8</ele>
        <time>1970-01-01T09:56:22.000Z</time>
      </trkpt>
      <trkpt lat="42.668583" lon="0.652906">
        <ele>2195.8</ele>
        <time>1970-01-01T09:56:23.000Z</time>
      </trkpt>
      <trkpt lat="42.668572" lon="0.652896">
        <ele>2195.8</ele>
        <time>1970-01-01T09:56:24.000Z</time>
      </trkpt>
      <trkpt lat="42.668555" lon="0.652876">
        <ele>2195.8</ele>
        <time>1970-01-01T09:56:25.000Z</time>
      </trkpt>
      <trkpt lat="42.668549" lon="0.652869">
        <ele>2194.9</ele>
        <time>1970-01-01T09:56:27.000Z</time>
      </trkpt>
      <trkpt lat="42.668544" lon="0.652861">
        <ele>2194.9</ele>
        <time>1970-01-01T09:56:28.000Z</time>
      </trkpt>
      <trkpt lat="42.668538" lon="0.652848">
        <ele>2194.9</ele>
        <time>1970-01-01T09:56:29.000Z</time>
      </trkpt>
      <trkpt lat="42.668535" lon="0.652838">
        <ele>2194.9</ele>
        <time>1970-01-01T09:56:30.000Z</time>
      </trkpt>
      <trkpt lat="42.66853" lon="0.652828">
        <ele>2193.1</ele>
        <time>1970-01-01T09:56:31.000Z</time>
      </trkpt>
      <trkpt lat="42.668529" lon="0.652824">
        <ele>2193.1</ele>
        <time>1970-01-01T09:56:32.000Z</time>
      </trkpt>
      <trkpt lat="42.668528" lon="0.652819">
        <ele>2193.1</ele>
        <time>1970-01-01T09:56:33.000Z</time>
      </trkpt>
      <trkpt lat="42.66853" lon="0.652819">
        <ele>2193.1</ele>
        <time>1970-01-01T09:56:34.000Z</time>
      </trkpt>
      <trkpt lat="42.668532" lon="0.652821">
        <ele>2193.1</ele>
        <time>1970-01-01T09:56:35.000Z</time>
      </trkpt>
      <trkpt lat="42.668532" lon="0.652816">
        <ele>2193.1</ele>
        <time>1970-01-01T09:56:36.000Z</time>
      </trkpt>
      <trkpt lat="42.668531" lon="0.652813">
        <ele>2193.1</ele>
        <time>1970-01-01T09:56:37.000Z</time>
      </trkpt>
      <trkpt lat="42.668531" lon="0.652812">
        <ele>2193.1</ele>
        <time>1970-01-01T09:56:38.000Z</time>
      </trkpt>
      <trkpt lat="42.668529" lon="0.652808">
        <ele>2193.1</ele>
        <time>1970-01-01T09:56:39.000Z</time>
      </trkpt>
      <trkpt lat="42.668528" lon="0.652804">
        <ele>2193.1</ele>
        <time>1970-01-01T09:56:40.000Z</time>
      </trkpt>
      <trkpt lat="42.668528" lon="0.652802">
        <ele>2193.1</ele>
        <time>1970-01-01T09:56:41.000Z</time>
      </trkpt>
      <trkpt lat="42.668529" lon="0.652798">
        <ele>2193.1</ele>
        <time>1970-01-01T09:56:42.000Z</time>
      </trkpt>
      <trkpt lat="42.668528" lon="0.652795">
        <ele>2193.1</ele>
        <time>1970-01-01T09:56:43.000Z</time>
      </trkpt>
      <trkpt lat="42.668528" lon="0.65279">
        <ele>2193.1</ele>
        <time>1970-01-01T09:56:44.000Z</time>
      </trkpt>
      <trkpt lat="42.668527" lon="0.652788">
        <ele>2193.1</ele>
        <time>1970-01-01T09:56:45.000Z</time>
      </trkpt>
      <trkpt lat="42.668527" lon="0.652788">
        <ele>2193.1</ele>
        <time>1970-01-01T09:56:46.000Z</time>
      </trkpt>
      <trkpt lat="42.668527" lon="0.652788">
        <ele>2193.1</ele>
        <time>1970-01-01T09:56:47.000Z</time>
      </trkpt>
      <trkpt lat="42.668527" lon="0.652788">
        <ele>2193.1</ele>
        <time>1970-01-01T09:56:48.000Z</time>
      </trkpt>
      <trkpt lat="42.668527" lon="0.652788">
        <ele>2193.1</ele>
        <time>1970-01-01T09:56:49.000Z</time>
      </trkpt>
      <trkpt lat="42.668527" lon="0.652786">
        <ele>2193.1</ele>
        <time>1970-01-01T09:56:50.000Z</time>
      </trkpt>
      <trkpt lat="42.668525" lon="0.652782">
        <ele>2191.4</ele>
        <time>1970-01-01T09:56:51.000Z</time>
      </trkpt>
      <trkpt lat="42.668521" lon="0.652777">
        <ele>2192.3</ele>
        <time>1970-01-01T09:56:52.000Z</time>
      </trkpt>
      <trkpt lat="42.668516" lon="0.652772">
        <ele>2192.3</ele>
        <time>1970-01-01T09:56:54.000Z</time>
      </trkpt>
      <trkpt lat="42.668509" lon="0.652768">
        <ele>2192.3</ele>
        <time>1970-01-01T09:56:55.000Z</time>
      </trkpt>
      <trkpt lat="42.668504" lon="0.652763">
        <ele>2192.3</ele>
        <time>1970-01-01T09:56:56.000Z</time>
      </trkpt>
      <trkpt lat="42.668501" lon="0.652759">
        <ele>2192.3</ele>
        <time>1970-01-01T09:56:57.000Z</time>
      </trkpt>
      <trkpt lat="42.668494" lon="0.652751">
        <ele>2192.3</ele>
        <time>1970-01-01T09:56:58.000Z</time>
      </trkpt>
      <trkpt lat="42.668492" lon="0.652744">
        <ele>2192.3</ele>
        <time>1970-01-01T09:56:59.000Z</time>
      </trkpt>
      <trkpt lat="42.66849" lon="0.652737">
        <ele>2190.6</ele>
        <time>1970-01-01T09:57:00.000Z</time>
      </trkpt>
      <trkpt lat="42.668486" lon="0.652724">
        <ele>2191.4</ele>
        <time>1970-01-01T09:57:01.000Z</time>
      </trkpt>
      <trkpt lat="42.668482" lon="0.652715">
        <ele>2191.4</ele>
        <time>1970-01-01T09:57:02.000Z</time>
      </trkpt>
      <trkpt lat="42.668476" lon="0.652705">
        <ele>2191.4</ele>
        <time>1970-01-01T09:57:04.000Z</time>
      </trkpt>
      <trkpt lat="42.668474" lon="0.652697">
        <ele>2189.8</ele>
        <time>1970-01-01T09:57:05.000Z</time>
      </trkpt>
      <trkpt lat="42.668471" lon="0.652691">
        <ele>2189.8</ele>
        <time>1970-01-01T09:57:06.000Z</time>
      </trkpt>
      <trkpt lat="42.668468" lon="0.652684">
        <ele>2189.8</ele>
        <time>1970-01-01T09:57:07.000Z</time>
      </trkpt>
      <trkpt lat="42.668465" lon="0.652678">
        <ele>2189.8</ele>
        <time>1970-01-01T09:57:08.000Z</time>
      </trkpt>
      <trkpt lat="42.668463" lon="0.652674">
        <ele>2189.8</ele>
        <time>1970-01-01T09:57:09.000Z</time>
      </trkpt>
      <trkpt lat="42.668461" lon="0.65267">
        <ele>2189.8</ele>
        <time>1970-01-01T09:57:10.000Z</time>
      </trkpt>
      <trkpt lat="42.668459" lon="0.652668">
        <ele>2189.8</ele>
        <time>1970-01-01T09:57:12.000Z</time>
      </trkpt>
      <trkpt lat="42.668457" lon="0.652666">
        <ele>2190.6</ele>
        <time>1970-01-01T09:57:13.000Z</time>
      </trkpt>
      <trkpt lat="42.668454" lon="0.652664">
        <ele>2190.6</ele>
        <time>1970-01-01T09:57:14.000Z</time>
      </trkpt>
      <trkpt lat="42.668453" lon="0.652661">
        <ele>2190.6</ele>
        <time>1970-01-01T09:57:15.000Z</time>
      </trkpt>
      <trkpt lat="42.668452" lon="0.652657">
        <ele>2190.6</ele>
        <time>1970-01-01T09:57:16.000Z</time>
      </trkpt>
      <trkpt lat="42.668451" lon="0.652652">
        <ele>2189</ele>
        <time>1970-01-01T09:57:17.000Z</time>
      </trkpt>
      <trkpt lat="42.668451" lon="0.65265">
        <ele>2189</ele>
        <time>1970-01-01T09:57:18.000Z</time>
      </trkpt>
      <trkpt lat="42.66845" lon="0.652649">
        <ele>2189</ele>
        <time>1970-01-01T09:57:19.000Z</time>
      </trkpt>
      <trkpt lat="42.668449" lon="0.652646">
        <ele>2189</ele>
        <time>1970-01-01T09:57:20.000Z</time>
      </trkpt>
      <trkpt lat="42.668448" lon="0.652644">
        <ele>2189</ele>
        <time>1970-01-01T09:57:21.000Z</time>
      </trkpt>
      <trkpt lat="42.668446" lon="0.652642">
        <ele>2189</ele>
        <time>1970-01-01T09:57:22.000Z</time>
      </trkpt>
      <trkpt lat="42.668447" lon="0.652639">
        <ele>2189</ele>
        <time>1970-01-01T09:57:24.000Z</time>
      </trkpt>
      <trkpt lat="42.668447" lon="0.652632">
        <ele>2189</ele>
        <time>1970-01-01T09:57:25.000Z</time>
      </trkpt>
      <trkpt lat="42.668445" lon="0.652623">
        <ele>2189</ele>
        <time>1970-01-01T09:57:26.000Z</time>
      </trkpt>
      <trkpt lat="42.668441" lon="0.652614">
        <ele>2189</ele>
        <time>1970-01-01T09:57:27.000Z</time>
      </trkpt>
      <trkpt lat="42.668439" lon="0.652607">
        <ele>2187.5</ele>
        <time>1970-01-01T09:57:28.000Z</time>
      </trkpt>
      <trkpt lat="42.668439" lon="0.652602">
        <ele>2187.5</ele>
        <time>1970-01-01T09:57:30.000Z</time>
      </trkpt>
      <trkpt lat="42.668442" lon="0.652596">
        <ele>2187.5</ele>
        <time>1970-01-01T09:57:31.000Z</time>
      </trkpt>
      <trkpt lat="42.668447" lon="0.652591">
        <ele>2187.5</ele>
        <time>1970-01-01T09:57:33.000Z</time>
      </trkpt>
      <trkpt lat="42.668451" lon="0.652584">
        <ele>2187.5</ele>
        <time>1970-01-01T09:57:34.000Z</time>
      </trkpt>
      <trkpt lat="42.668449" lon="0.652575">
        <ele>2187.5</ele>
        <time>1970-01-01T09:57:35.000Z</time>
      </trkpt>
      <trkpt lat="42.668446" lon="0.652567">
        <ele>2185.9</ele>
        <time>1970-01-01T09:57:36.000Z</time>
      </trkpt>
      <trkpt lat="42.668443" lon="0.652559">
        <ele>2185.9</ele>
        <time>1970-01-01T09:57:37.000Z</time>
      </trkpt>
      <trkpt lat="42.668441" lon="0.652551">
        <ele>2185.9</ele>
        <time>1970-01-01T09:57:38.000Z</time>
      </trkpt>
      <trkpt lat="42.668438" lon="0.652544">
        <ele>2185.9</ele>
        <time>1970-01-01T09:57:39.000Z</time>
      </trkpt>
      <trkpt lat="42.668435" lon="0.652536">
        <ele>2185.9</ele>
        <time>1970-01-01T09:57:40.000Z</time>
      </trkpt>
      <trkpt lat="42.668433" lon="0.652528">
        <ele>2185.9</ele>
        <time>1970-01-01T09:57:42.000Z</time>
      </trkpt>
      <trkpt lat="42.66843" lon="0.65252">
        <ele>2184.3</ele>
        <time>1970-01-01T09:57:43.000Z</time>
      </trkpt>
      <trkpt lat="42.668427" lon="0.652513">
        <ele>2184.3</ele>
        <time>1970-01-01T09:57:44.000Z</time>
      </trkpt>
      <trkpt lat="42.668425" lon="0.652505">
        <ele>2185</ele>
        <time>1970-01-01T09:57:45.000Z</time>
      </trkpt>
      <trkpt lat="42.668405" lon="0.65249">
        <ele>2185</ele>
        <time>1970-01-01T09:57:46.000Z</time>
      </trkpt>
      <trkpt lat="42.668399" lon="0.652485">
        <ele>2185</ele>
        <time>1970-01-01T09:57:47.000Z</time>
      </trkpt>
      <trkpt lat="42.668392" lon="0.652479">
        <ele>2184.2</ele>
        <time>1970-01-01T09:57:48.000Z</time>
      </trkpt>
      <trkpt lat="42.668393" lon="0.652475">
        <ele>2184.2</ele>
        <time>1970-01-01T09:57:49.000Z</time>
      </trkpt>
      <trkpt lat="42.668395" lon="0.652482">
        <ele>2183.4</ele>
        <time>1970-01-01T09:57:50.000Z</time>
      </trkpt>
      <trkpt lat="42.668392" lon="0.652478">
        <ele>2184.2</ele>
        <time>1970-01-01T09:57:51.000Z</time>
      </trkpt>
      <trkpt lat="42.668387" lon="0.652479">
        <ele>2184.2</ele>
        <time>1970-01-01T09:57:52.000Z</time>
      </trkpt>
      <trkpt lat="42.66839" lon="0.652487">
        <ele>2185.8</ele>
        <time>1970-01-01T09:57:53.000Z</time>
      </trkpt>
      <trkpt lat="42.668395" lon="0.652495">
        <ele>2185</ele>
        <time>1970-01-01T09:57:54.000Z</time>
      </trkpt>
      <trkpt lat="42.668393" lon="0.652495">
        <ele>2185.8</ele>
        <time>1970-01-01T09:57:56.000Z</time>
      </trkpt>
      <trkpt lat="42.668388" lon="0.652493">
        <ele>2185.8</ele>
        <time>1970-01-01T09:57:57.000Z</time>
      </trkpt>
      <trkpt lat="42.668384" lon="0.652485">
        <ele>2185.8</ele>
        <time>1970-01-01T09:57:58.000Z</time>
      </trkpt>
      <trkpt lat="42.668383" lon="0.65248">
        <ele>2184.2</ele>
        <time>1970-01-01T09:57:59.000Z</time>
      </trkpt>
      <trkpt lat="42.668378" lon="0.652463">
        <ele>2184.2</ele>
        <time>1970-01-01T09:58:00.000Z</time>
      </trkpt>
      <trkpt lat="42.668369" lon="0.652447">
        <ele>2184.2</ele>
        <time>1970-01-01T09:58:01.000Z</time>
      </trkpt>
      <trkpt lat="42.668367" lon="0.65242">
        <ele>2182.6</ele>
        <time>1970-01-01T09:58:03.000Z</time>
      </trkpt>
      <trkpt lat="42.668369" lon="0.652408">
        <ele>2182.6</ele>
        <time>1970-01-01T09:58:04.000Z</time>
      </trkpt>
      <trkpt lat="42.668371" lon="0.652397">
        <ele>2181.1</ele>
        <time>1970-01-01T09:58:05.000Z</time>
      </trkpt>
      <trkpt lat="42.668377" lon="0.652383">
        <ele>2181.1</ele>
        <time>1970-01-01T09:58:06.000Z</time>
      </trkpt>
      <trkpt lat="42.668383" lon="0.652369">
        <ele>2181.1</ele>
        <time>1970-01-01T09:58:07.000Z</time>
      </trkpt>
      <trkpt lat="42.668385" lon="0.652355">
        <ele>2179.8</ele>
        <time>1970-01-01T09:58:08.000Z</time>
      </trkpt>
      <trkpt lat="42.668383" lon="0.652342">
        <ele>2179.8</ele>
        <time>1970-01-01T09:58:10.000Z</time>
      </trkpt>
      <trkpt lat="42.668377" lon="0.652331">
        <ele>2179.8</ele>
        <time>1970-01-01T09:58:11.000Z</time>
      </trkpt>
      <trkpt lat="42.668365" lon="0.652322">
        <ele>2179.8</ele>
        <time>1970-01-01T09:58:12.000Z</time>
      </trkpt>
      <trkpt lat="42.668356" lon="0.652317">
        <ele>2180.6</ele>
        <time>1970-01-01T09:58:14.000Z</time>
      </trkpt>
      <trkpt lat="42.668345" lon="0.652309">
        <ele>2179.3</ele>
        <time>1970-01-01T09:58:15.000Z</time>
      </trkpt>
      <trkpt lat="42.668337" lon="0.652295">
        <ele>2179.3</ele>
        <time>1970-01-01T09:58:17.000Z</time>
      </trkpt>
      <trkpt lat="42.668334" lon="0.652284">
        <ele>2179.3</ele>
        <time>1970-01-01T09:58:18.000Z</time>
      </trkpt>
      <trkpt lat="42.668334" lon="0.652266">
        <ele>2178.1</ele>
        <time>1970-01-01T09:58:19.000Z</time>
      </trkpt>
      <trkpt lat="42.66833" lon="0.652252">
        <ele>2179</ele>
        <time>1970-01-01T09:58:21.000Z</time>
      </trkpt>
      <trkpt lat="42.668329" lon="0.652244">
        <ele>2179</ele>
        <time>1970-01-01T09:58:22.000Z</time>
      </trkpt>
      <trkpt lat="42.668326" lon="0.652231">
        <ele>2179</ele>
        <time>1970-01-01T09:58:23.000Z</time>
      </trkpt>
      <trkpt lat="42.668325" lon="0.652218">
        <ele>2177.8</ele>
        <time>1970-01-01T09:58:24.000Z</time>
      </trkpt>
      <trkpt lat="42.668325" lon="0.652207">
        <ele>2177.8</ele>
        <time>1970-01-01T09:58:25.000Z</time>
      </trkpt>
      <trkpt lat="42.668327" lon="0.652195">
        <ele>2177.6</ele>
        <time>1970-01-01T09:58:26.000Z</time>
      </trkpt>
      <trkpt lat="42.66833" lon="0.652188">
        <ele>2177.4</ele>
        <time>1970-01-01T09:58:27.000Z</time>
      </trkpt>
      <trkpt lat="42.668337" lon="0.652184">
        <ele>2177.2</ele>
        <time>1970-01-01T09:58:28.000Z</time>
      </trkpt>
      <trkpt lat="42.668348" lon="0.652178">
        <ele>2176.9</ele>
        <time>1970-01-01T09:58:29.000Z</time>
      </trkpt>
      <trkpt lat="42.668353" lon="0.652165">
        <ele>2176.6</ele>
        <time>1970-01-01T09:58:30.000Z</time>
      </trkpt>
      <trkpt lat="42.66835" lon="0.65215">
        <ele>2176.3</ele>
        <time>1970-01-01T09:58:31.000Z</time>
      </trkpt>
      <trkpt lat="42.668343" lon="0.652134">
        <ele>2176</ele>
        <time>1970-01-01T09:58:32.000Z</time>
      </trkpt>
      <trkpt lat="42.668338" lon="0.652121">
        <ele>2175.7</ele>
        <time>1970-01-01T09:58:33.000Z</time>
      </trkpt>
      <trkpt lat="42.668331" lon="0.65211">
        <ele>2175.4</ele>
        <time>1970-01-01T09:58:35.000Z</time>
      </trkpt>
      <trkpt lat="42.668325" lon="0.652104">
        <ele>2175.2</ele>
        <time>1970-01-01T09:58:36.000Z</time>
      </trkpt>
      <trkpt lat="42.668321" lon="0.652092">
        <ele>2175</ele>
        <time>1970-01-01T09:58:38.000Z</time>
      </trkpt>
      <trkpt lat="42.668321" lon="0.652081">
        <ele>2174.8</ele>
        <time>1970-01-01T09:58:39.000Z</time>
      </trkpt>
      <trkpt lat="42.668321" lon="0.652068">
        <ele>2174.5</ele>
        <time>1970-01-01T09:58:40.000Z</time>
      </trkpt>
      <trkpt lat="42.66832" lon="0.652058">
        <ele>2174.3</ele>
        <time>1970-01-01T09:58:41.000Z</time>
      </trkpt>
      <trkpt lat="42.668316" lon="0.652043">
        <ele>2174</ele>
        <time>1970-01-01T09:58:42.000Z</time>
      </trkpt>
      <trkpt lat="42.668304" lon="0.652037">
        <ele>2173.7</ele>
        <time>1970-01-01T09:58:43.000Z</time>
      </trkpt>
      <trkpt lat="42.668291" lon="0.652041">
        <ele>2173.4</ele>
        <time>1970-01-01T09:58:44.000Z</time>
      </trkpt>
      <trkpt lat="42.668278" lon="0.652043">
        <ele>2173</ele>
        <time>1970-01-01T09:58:45.000Z</time>
      </trkpt>
      <trkpt lat="42.668267" lon="0.652047">
        <ele>2172.7</ele>
        <time>1970-01-01T09:58:46.000Z</time>
      </trkpt>
      <trkpt lat="42.668256" lon="0.652048">
        <ele>2172.4</ele>
        <time>1970-01-01T09:58:48.000Z</time>
      </trkpt>
      <trkpt lat="42.668241" lon="0.652046">
        <ele>2172.1</ele>
        <time>1970-01-01T09:58:49.000Z</time>
      </trkpt>
      <trkpt lat="42.668234" lon="0.652045">
        <ele>2171.9</ele>
        <time>1970-01-01T09:58:50.000Z</time>
      </trkpt>
      <trkpt lat="42.668227" lon="0.652048">
        <ele>2171.7</ele>
        <time>1970-01-01T09:58:51.000Z</time>
      </trkpt>
      <trkpt lat="42.668218" lon="0.652047">
        <ele>2171.5</ele>
        <time>1970-01-01T09:58:52.000Z</time>
      </trkpt>
      <trkpt lat="42.668208" lon="0.652043">
        <ele>2171.2</ele>
        <time>1970-01-01T09:58:54.000Z</time>
      </trkpt>
      <trkpt lat="42.668198" lon="0.652039">
        <ele>2170.9</ele>
        <time>1970-01-01T09:58:55.000Z</time>
      </trkpt>
      <trkpt lat="42.66819" lon="0.652031">
        <ele>2170.7</ele>
        <time>1970-01-01T09:58:56.000Z</time>
      </trkpt>
      <trkpt lat="42.668189" lon="0.652017">
        <ele>2170.4</ele>
        <time>1970-01-01T09:58:57.000Z</time>
      </trkpt>
      <trkpt lat="42.668196" lon="0.652001">
        <ele>2170.1</ele>
        <time>1970-01-01T09:58:58.000Z</time>
      </trkpt>
      <trkpt lat="42.668203" lon="0.65199">
        <ele>2169.8</ele>
        <time>1970-01-01T09:58:59.000Z</time>
      </trkpt>
      <trkpt lat="42.668211" lon="0.65198">
        <ele>2169.5</ele>
        <time>1970-01-01T09:59:00.000Z</time>
      </trkpt>
      <trkpt lat="42.668217" lon="0.651971">
        <ele>2169.3</ele>
        <time>1970-01-01T09:59:01.000Z</time>
      </trkpt>
      <trkpt lat="42.668222" lon="0.651953">
        <ele>2168.9</ele>
        <time>1970-01-01T09:59:03.000Z</time>
      </trkpt>
      <trkpt lat="42.668225" lon="0.651941">
        <ele>2168.7</ele>
        <time>1970-01-01T09:59:04.000Z</time>
      </trkpt>
      <trkpt lat="42.66823" lon="0.651928">
        <ele>2168.4</ele>
        <time>1970-01-01T09:59:05.000Z</time>
      </trkpt>
      <trkpt lat="42.668234" lon="0.651913">
        <ele>2168.2</ele>
        <time>1970-01-01T09:59:06.000Z</time>
      </trkpt>
      <trkpt lat="42.668232" lon="0.651899">
        <ele>2167.9</ele>
        <time>1970-01-01T09:59:07.000Z</time>
      </trkpt>
      <trkpt lat="42.668226" lon="0.651886">
        <ele>2167.7</ele>
        <time>1970-01-01T09:59:08.000Z</time>
      </trkpt>
      <trkpt lat="42.668228" lon="0.651875">
        <ele>2167.5</ele>
        <time>1970-01-01T09:59:09.000Z</time>
      </trkpt>
      <trkpt lat="42.668236" lon="0.651862">
        <ele>2167.3</ele>
        <time>1970-01-01T09:59:10.000Z</time>
      </trkpt>
      <trkpt lat="42.668246" lon="0.651851">
        <ele>2167</ele>
        <time>1970-01-01T09:59:11.000Z</time>
      </trkpt>
      <trkpt lat="42.668259" lon="0.651835">
        <ele>2166.6</ele>
        <time>1970-01-01T09:59:13.000Z</time>
      </trkpt>
      <trkpt lat="42.668267" lon="0.651824">
        <ele>2166.4</ele>
        <time>1970-01-01T09:59:14.000Z</time>
      </trkpt>
      <trkpt lat="42.66828" lon="0.651804">
        <ele>2166.1</ele>
        <time>1970-01-01T09:59:15.000Z</time>
      </trkpt>
      <trkpt lat="42.668285" lon="0.651794">
        <ele>2165.9</ele>
        <time>1970-01-01T09:59:16.000Z</time>
      </trkpt>
      <trkpt lat="42.66829" lon="0.651785">
        <ele>2165.8</ele>
        <time>1970-01-01T09:59:17.000Z</time>
      </trkpt>
      <trkpt lat="42.6683" lon="0.651765">
        <ele>2165.5</ele>
        <time>1970-01-01T09:59:18.000Z</time>
      </trkpt>
      <trkpt lat="42.668304" lon="0.651758">
        <ele>2165.3</ele>
        <time>1970-01-01T09:59:19.000Z</time>
      </trkpt>
      <trkpt lat="42.668308" lon="0.651752">
        <ele>2165.2</ele>
        <time>1970-01-01T09:59:20.000Z</time>
      </trkpt>
      <trkpt lat="42.668312" lon="0.651745">
        <ele>2165.1</ele>
        <time>1970-01-01T09:59:21.000Z</time>
      </trkpt>
      <trkpt lat="42.668321" lon="0.651741">
        <ele>2165</ele>
        <time>1970-01-01T09:59:22.000Z</time>
      </trkpt>
      <trkpt lat="42.668328" lon="0.651731">
        <ele>2164.8</ele>
        <time>1970-01-01T09:59:23.000Z</time>
      </trkpt>
      <trkpt lat="42.668332" lon="0.651717">
        <ele>2164.6</ele>
        <time>1970-01-01T09:59:24.000Z</time>
      </trkpt>
      <trkpt lat="42.668334" lon="0.651702">
        <ele>2164.4</ele>
        <time>1970-01-01T09:59:25.000Z</time>
      </trkpt>
      <trkpt lat="42.668335" lon="0.651688">
        <ele>2164.2</ele>
        <time>1970-01-01T09:59:26.000Z</time>
      </trkpt>
      <trkpt lat="42.668338" lon="0.651672">
        <ele>2164</ele>
        <time>1970-01-01T09:59:27.000Z</time>
      </trkpt>
      <trkpt lat="42.668339" lon="0.651658">
        <ele>2163.9</ele>
        <time>1970-01-01T09:59:28.000Z</time>
      </trkpt>
      <trkpt lat="42.668338" lon="0.651635">
        <ele>2163.6</ele>
        <time>1970-01-01T09:59:30.000Z</time>
      </trkpt>
      <trkpt lat="42.668339" lon="0.65162">
        <ele>2163.4</ele>
        <time>1970-01-01T09:59:31.000Z</time>
      </trkpt>
      <trkpt lat="42.668343" lon="0.651603">
        <ele>2163.2</ele>
        <time>1970-01-01T09:59:33.000Z</time>
      </trkpt>
      <trkpt lat="42.668346" lon="0.651587">
        <ele>2163</ele>
        <time>1970-01-01T09:59:34.000Z</time>
      </trkpt>
      <trkpt lat="42.668351" lon="0.651574">
        <ele>2162.9</ele>
        <time>1970-01-01T09:59:35.000Z</time>
      </trkpt>
      <trkpt lat="42.668355" lon="0.651559">
        <ele>2162.7</ele>
        <time>1970-01-01T09:59:36.000Z</time>
      </trkpt>
      <trkpt lat="42.668359" lon="0.651545">
        <ele>2162.5</ele>
        <time>1970-01-01T09:59:37.000Z</time>
      </trkpt>
      <trkpt lat="42.668367" lon="0.651531">
        <ele>2162.3</ele>
        <time>1970-01-01T09:59:38.000Z</time>
      </trkpt>
      <trkpt lat="42.668375" lon="0.651523">
        <ele>2162.1</ele>
        <time>1970-01-01T09:59:39.000Z</time>
      </trkpt>
      <trkpt lat="42.668382" lon="0.651518">
        <ele>2162</ele>
        <time>1970-01-01T09:59:40.000Z</time>
      </trkpt>
      <trkpt lat="42.668388" lon="0.651511">
        <ele>2161.9</ele>
        <time>1970-01-01T09:59:41.000Z</time>
      </trkpt>
      <trkpt lat="42.668392" lon="0.6515">
        <ele>2161.7</ele>
        <time>1970-01-01T09:59:42.000Z</time>
      </trkpt>
      <trkpt lat="42.668397" lon="0.651493">
        <ele>2161.6</ele>
        <time>1970-01-01T09:59:43.000Z</time>
      </trkpt>
      <trkpt lat="42.668401" lon="0.651486">
        <ele>2161.5</ele>
        <time>1970-01-01T09:59:44.000Z</time>
      </trkpt>
      <trkpt lat="42.668404" lon="0.65148">
        <ele>2161.4</ele>
        <time>1970-01-01T09:59:45.000Z</time>
      </trkpt>
      <trkpt lat="42.668403" lon="0.651468">
        <ele>2161.3</ele>
        <time>1970-01-01T09:59:47.000Z</time>
      </trkpt>
      <trkpt lat="42.668401" lon="0.651462">
        <ele>2161.2</ele>
        <time>1970-01-01T09:59:48.000Z</time>
      </trkpt>
      <trkpt lat="42.668403" lon="0.651457">
        <ele>2161.1</ele>
        <time>1970-01-01T09:59:49.000Z</time>
      </trkpt>
      <trkpt lat="42.668408" lon="0.651452">
        <ele>2161</ele>
        <time>1970-01-01T09:59:50.000Z</time>
      </trkpt>
      <trkpt lat="42.668412" lon="0.651446">
        <ele>2160.9</ele>
        <time>1970-01-01T09:59:51.000Z</time>
      </trkpt>
      <trkpt lat="42.668418" lon="0.651436">
        <ele>2160.8</ele>
        <time>1970-01-01T09:59:52.000Z</time>
      </trkpt>
      <trkpt lat="42.668421" lon="0.651425">
        <ele>2160.6</ele>
        <time>1970-01-01T09:59:53.000Z</time>
      </trkpt>
      <trkpt lat="42.66842" lon="0.651411">
        <ele>2160.4</ele>
        <time>1970-01-01T09:59:54.000Z</time>
      </trkpt>
      <trkpt lat="42.668416" lon="0.651398">
        <ele>2160.2</ele>
        <time>1970-01-01T09:59:55.000Z</time>
      </trkpt>
      <trkpt lat="42.668413" lon="0.651389">
        <ele>2160.1</ele>
        <time>1970-01-01T09:59:56.000Z</time>
      </trkpt>
      <trkpt lat="42.66841" lon="0.651379">
        <ele>2160</ele>
        <time>1970-01-01T09:59:57.000Z</time>
      </trkpt>
      <trkpt lat="42.668403" lon="0.651368">
        <ele>2159.8</ele>
        <time>1970-01-01T09:59:59.000Z</time>
      </trkpt>
      <trkpt lat="42.668395" lon="0.651365">
        <ele>2159.6</ele>
        <time>1970-01-01T10:00:00.000Z</time>
      </trkpt>
      <trkpt lat="42.668386" lon="0.651355">
        <ele>2159.4</ele>
        <time>1970-01-01T10:00:02.000Z</time>
      </trkpt>
      <trkpt lat="42.668379" lon="0.651348">
        <ele>2159.3</ele>
        <time>1970-01-01T10:00:04.000Z</time>
      </trkpt>
      <trkpt lat="42.668377" lon="0.651342">
        <ele>2159.2</ele>
        <time>1970-01-01T10:00:05.000Z</time>
      </trkpt>
      <trkpt lat="42.668377" lon="0.651336">
        <ele>2159.1</ele>
        <time>1970-01-01T10:00:06.000Z</time>
      </trkpt>
      <trkpt lat="42.668379" lon="0.65133">
        <ele>2159</ele>
        <time>1970-01-01T10:00:07.000Z</time>
      </trkpt>
      <trkpt lat="42.668382" lon="0.651327">
        <ele>2159</ele>
        <time>1970-01-01T10:00:08.000Z</time>
      </trkpt>
      <trkpt lat="42.668385" lon="0.651325">
        <ele>2158.9</ele>
        <time>1970-01-01T10:00:09.000Z</time>
      </trkpt>
      <trkpt lat="42.668385" lon="0.651322">
        <ele>2158.9</ele>
        <time>1970-01-01T10:00:10.000Z</time>
      </trkpt>
      <trkpt lat="42.668387" lon="0.651315">
        <ele>2158.8</ele>
        <time>1970-01-01T10:00:11.000Z</time>
      </trkpt>
      <trkpt lat="42.668389" lon="0.651309">
        <ele>2158.7</ele>
        <time>1970-01-01T10:00:13.000Z</time>
      </trkpt>
      <trkpt lat="42.668392" lon="0.651299">
        <ele>2158.6</ele>
        <time>1970-01-01T10:00:14.000Z</time>
      </trkpt>
      <trkpt lat="42.668394" lon="0.65129">
        <ele>2158.5</ele>
        <time>1970-01-01T10:00:15.000Z</time>
      </trkpt>
      <trkpt lat="42.668394" lon="0.65128">
        <ele>2158.3</ele>
        <time>1970-01-01T10:00:17.000Z</time>
      </trkpt>
      <trkpt lat="42.668395" lon="0.651266">
        <ele>2158.2</ele>
        <time>1970-01-01T10:00:18.000Z</time>
      </trkpt>
      <trkpt lat="42.6684" lon="0.651255">
        <ele>2158.1</ele>
        <time>1970-01-01T10:00:19.000Z</time>
      </trkpt>
      <trkpt lat="42.668402" lon="0.651242">
        <ele>2157.9</ele>
        <time>1970-01-01T10:00:20.000Z</time>
      </trkpt>
      <trkpt lat="42.668399" lon="0.651228">
        <ele>2157.8</ele>
        <time>1970-01-01T10:00:21.000Z</time>
      </trkpt>
      <trkpt lat="42.668396" lon="0.651217">
        <ele>2157.7</ele>
        <time>1970-01-01T10:00:23.000Z</time>
      </trkpt>
      <trkpt lat="42.668399" lon="0.651201">
        <ele>2157.5</ele>
        <time>1970-01-01T10:00:24.000Z</time>
      </trkpt>
      <trkpt lat="42.668408" lon="0.65119">
        <ele>2157.4</ele>
        <time>1970-01-01T10:00:25.000Z</time>
      </trkpt>
      <trkpt lat="42.668422" lon="0.651187">
        <ele>2157.3</ele>
        <time>1970-01-01T10:00:27.000Z</time>
      </trkpt>
      <trkpt lat="42.668436" lon="0.651184">
        <ele>2157.1</ele>
        <time>1970-01-01T10:00:28.000Z</time>
      </trkpt>
      <trkpt lat="42.668447" lon="0.651173">
        <ele>2157</ele>
        <time>1970-01-01T10:00:29.000Z</time>
      </trkpt>
      <trkpt lat="42.668454" lon="0.651158">
        <ele>2156.9</ele>
        <time>1970-01-01T10:00:30.000Z</time>
      </trkpt>
      <trkpt lat="42.668462" lon="0.651143">
        <ele>2156.8</ele>
        <time>1970-01-01T10:00:32.000Z</time>
      </trkpt>
      <trkpt lat="42.668469" lon="0.651135">
        <ele>2156.7</ele>
        <time>1970-01-01T10:00:33.000Z</time>
      </trkpt>
      <trkpt lat="42.668473" lon="0.651127">
        <ele>2156.7</ele>
        <time>1970-01-01T10:00:34.000Z</time>
      </trkpt>
      <trkpt lat="42.668473" lon="0.651112">
        <ele>2156.6</ele>
        <time>1970-01-01T10:00:35.000Z</time>
      </trkpt>
      <trkpt lat="42.668471" lon="0.651097">
        <ele>2156.5</ele>
        <time>1970-01-01T10:00:36.000Z</time>
      </trkpt>
      <trkpt lat="42.668468" lon="0.651086">
        <ele>2156.4</ele>
        <time>1970-01-01T10:00:37.000Z</time>
      </trkpt>
      <trkpt lat="42.668462" lon="0.651074">
        <ele>2156.4</ele>
        <time>1970-01-01T10:00:38.000Z</time>
      </trkpt>
      <trkpt lat="42.668458" lon="0.651061">
        <ele>2156.3</ele>
        <time>1970-01-01T10:00:39.000Z</time>
      </trkpt>
      <trkpt lat="42.668456" lon="0.65105">
        <ele>2155.9</ele>
        <time>1970-01-01T10:00:40.000Z</time>
      </trkpt>
      <trkpt lat="42.668455" lon="0.651037">
        <ele>2155.8</ele>
        <time>1970-01-01T10:00:41.000Z</time>
      </trkpt>
      <trkpt lat="42.668455" lon="0.651023">
        <ele>2155.6</ele>
        <time>1970-01-01T10:00:42.000Z</time>
      </trkpt>
      <trkpt lat="42.668456" lon="0.651006">
        <ele>2155.4</ele>
        <time>1970-01-01T10:00:44.000Z</time>
      </trkpt>
      <trkpt lat="42.668462" lon="0.650992">
        <ele>2155.3</ele>
        <time>1970-01-01T10:00:45.000Z</time>
      </trkpt>
      <trkpt lat="42.668469" lon="0.650981">
        <ele>2155.1</ele>
        <time>1970-01-01T10:00:46.000Z</time>
      </trkpt>
      <trkpt lat="42.668479" lon="0.650972">
        <ele>2155</ele>
        <time>1970-01-01T10:00:47.000Z</time>
      </trkpt>
      <trkpt lat="42.668491" lon="0.65097">
        <ele>2154.8</ele>
        <time>1970-01-01T10:00:48.000Z</time>
      </trkpt>
      <trkpt lat="42.668501" lon="0.650975">
        <ele>2154.6</ele>
        <time>1970-01-01T10:00:49.000Z</time>
      </trkpt>
      <trkpt lat="42.668512" lon="0.650974">
        <ele>2154.5</ele>
        <time>1970-01-01T10:00:50.000Z</time>
      </trkpt>
      <trkpt lat="42.668519" lon="0.650962">
        <ele>2154.3</ele>
        <time>1970-01-01T10:00:51.000Z</time>
      </trkpt>
      <trkpt lat="42.668523" lon="0.65095">
        <ele>2154.2</ele>
        <time>1970-01-01T10:00:52.000Z</time>
      </trkpt>
      <trkpt lat="42.668526" lon="0.65094">
        <ele>2154</ele>
        <time>1970-01-01T10:00:53.000Z</time>
      </trkpt>
      <trkpt lat="42.66853" lon="0.650923">
        <ele>2153.8</ele>
        <time>1970-01-01T10:00:54.000Z</time>
      </trkpt>
      <trkpt lat="42.668534" lon="0.65091">
        <ele>2153.6</ele>
        <time>1970-01-01T10:00:55.000Z</time>
      </trkpt>
      <trkpt lat="42.668537" lon="0.65089">
        <ele>2153.4</ele>
        <time>1970-01-01T10:00:57.000Z</time>
      </trkpt>
      <trkpt lat="42.668534" lon="0.65088">
        <ele>2153.3</ele>
        <time>1970-01-01T10:00:58.000Z</time>
      </trkpt>
      <trkpt lat="42.668531" lon="0.650866">
        <ele>2153.1</ele>
        <time>1970-01-01T10:00:59.000Z</time>
      </trkpt>
      <trkpt lat="42.668532" lon="0.650853">
        <ele>2152.9</ele>
        <time>1970-01-01T10:01:01.000Z</time>
      </trkpt>
      <trkpt lat="42.668535" lon="0.650834">
        <ele>2152.6</ele>
        <time>1970-01-01T10:01:02.000Z</time>
      </trkpt>
      <trkpt lat="42.668534" lon="0.650823">
        <ele>2152.5</ele>
        <time>1970-01-01T10:01:03.000Z</time>
      </trkpt>
      <trkpt lat="42.668529" lon="0.650812">
        <ele>2152.3</ele>
        <time>1970-01-01T10:01:04.000Z</time>
      </trkpt>
      <trkpt lat="42.668523" lon="0.650801">
        <ele>2152.1</ele>
        <time>1970-01-01T10:01:06.000Z</time>
      </trkpt>
      <trkpt lat="42.668512" lon="0.650797">
        <ele>2151.8</ele>
        <time>1970-01-01T10:01:07.000Z</time>
      </trkpt>
      <trkpt lat="42.668503" lon="0.650792">
        <ele>2151.6</ele>
        <time>1970-01-01T10:01:08.000Z</time>
      </trkpt>
      <trkpt lat="42.668501" lon="0.650779">
        <ele>2151.4</ele>
        <time>1970-01-01T10:01:09.000Z</time>
      </trkpt>
      <trkpt lat="42.668504" lon="0.650758">
        <ele>2151.1</ele>
        <time>1970-01-01T10:01:11.000Z</time>
      </trkpt>
      <trkpt lat="42.6685" lon="0.650743">
        <ele>2150.9</ele>
        <time>1970-01-01T10:01:12.000Z</time>
      </trkpt>
      <trkpt lat="42.668492" lon="0.650732">
        <ele>2150.6</ele>
        <time>1970-01-01T10:01:13.000Z</time>
      </trkpt>
      <trkpt lat="42.668486" lon="0.650724">
        <ele>2150.4</ele>
        <time>1970-01-01T10:01:14.000Z</time>
      </trkpt>
      <trkpt lat="42.668484" lon="0.650713">
        <ele>2150.2</ele>
        <time>1970-01-01T10:01:15.000Z</time>
      </trkpt>
      <trkpt lat="42.668485" lon="0.650712">
        <ele>2150.2</ele>
        <time>1970-01-01T10:01:16.000Z</time>
      </trkpt>
      <trkpt lat="42.668482" lon="0.650702">
        <ele>2150</ele>
        <time>1970-01-01T10:01:17.000Z</time>
      </trkpt>
      <trkpt lat="42.668489" lon="0.650691">
        <ele>2149.8</ele>
        <time>1970-01-01T10:01:19.000Z</time>
      </trkpt>
      <trkpt lat="42.668489" lon="0.650699">
        <ele>2149.7</ele>
        <time>1970-01-01T10:01:20.000Z</time>
      </trkpt>
      <trkpt lat="42.668489" lon="0.650702">
        <ele>2149.6</ele>
        <time>1970-01-01T10:01:21.000Z</time>
      </trkpt>
      <trkpt lat="42.668492" lon="0.650703">
        <ele>2149.6</ele>
        <time>1970-01-01T10:01:23.000Z</time>
      </trkpt>
      <trkpt lat="42.668496" lon="0.650702">
        <ele>2149.5</ele>
        <time>1970-01-01T10:01:24.000Z</time>
      </trkpt>
      <trkpt lat="42.668499" lon="0.650699">
        <ele>2149.4</ele>
        <time>1970-01-01T10:01:25.000Z</time>
      </trkpt>
      <trkpt lat="42.668501" lon="0.650696">
        <ele>2149.3</ele>
        <time>1970-01-01T10:01:26.000Z</time>
      </trkpt>
      <trkpt lat="42.668515" lon="0.650684">
        <ele>2149</ele>
        <time>1970-01-01T10:01:28.000Z</time>
      </trkpt>
      <trkpt lat="42.668522" lon="0.650668">
        <ele>2148.7</ele>
        <time>1970-01-01T10:01:29.000Z</time>
      </trkpt>
      <trkpt lat="42.668528" lon="0.65065">
        <ele>2148.4</ele>
        <time>1970-01-01T10:01:30.000Z</time>
      </trkpt>
      <trkpt lat="42.668538" lon="0.650643">
        <ele>2148.1</ele>
        <time>1970-01-01T10:01:31.000Z</time>
      </trkpt>
      <trkpt lat="42.668553" lon="0.650644">
        <ele>2147.8</ele>
        <time>1970-01-01T10:01:32.000Z</time>
      </trkpt>
      <trkpt lat="42.668565" lon="0.650644">
        <ele>2147.6</ele>
        <time>1970-01-01T10:01:34.000Z</time>
      </trkpt>
      <trkpt lat="42.668575" lon="0.650641">
        <ele>2147.3</ele>
        <time>1970-01-01T10:01:35.000Z</time>
      </trkpt>
      <trkpt lat="42.668582" lon="0.650632">
        <ele>2147.2</ele>
        <time>1970-01-01T10:01:36.000Z</time>
      </trkpt>
      <trkpt lat="42.668587" lon="0.650626">
        <ele>2147</ele>
        <time>1970-01-01T10:01:37.000Z</time>
      </trkpt>
      <trkpt lat="42.668594" lon="0.650621">
        <ele>2146.9</ele>
        <time>1970-01-01T10:01:38.000Z</time>
      </trkpt>
      <trkpt lat="42.668599" lon="0.650615">
        <ele>2146.7</ele>
        <time>1970-01-01T10:01:39.000Z</time>
      </trkpt>
      <trkpt lat="42.668607" lon="0.650602">
        <ele>2146.5</ele>
        <time>1970-01-01T10:01:41.000Z</time>
      </trkpt>
      <trkpt lat="42.668612" lon="0.650593">
        <ele>2146.3</ele>
        <time>1970-01-01T10:01:42.000Z</time>
      </trkpt>
      <trkpt lat="42.668618" lon="0.650584">
        <ele>2146.2</ele>
        <time>1970-01-01T10:01:43.000Z</time>
      </trkpt>
      <trkpt lat="42.668624" lon="0.650576">
        <ele>2146</ele>
        <time>1970-01-01T10:01:44.000Z</time>
      </trkpt>
      <trkpt lat="42.668631" lon="0.650571">
        <ele>2145.9</ele>
        <time>1970-01-01T10:01:45.000Z</time>
      </trkpt>
      <trkpt lat="42.668638" lon="0.65057">
        <ele>2145.8</ele>
        <time>1970-01-01T10:01:46.000Z</time>
      </trkpt>
      <trkpt lat="42.668647" lon="0.650567">
        <ele>2145.6</ele>
        <time>1970-01-01T10:01:47.000Z</time>
      </trkpt>
      <trkpt lat="42.668655" lon="0.650562">
        <ele>2145.5</ele>
        <time>1970-01-01T10:01:48.000Z</time>
      </trkpt>
      <trkpt lat="42.668665" lon="0.650556">
        <ele>2145.3</ele>
        <time>1970-01-01T10:01:49.000Z</time>
      </trkpt>
      <trkpt lat="42.668678" lon="0.650544">
        <ele>2145</ele>
        <time>1970-01-01T10:01:50.000Z</time>
      </trkpt>
      <trkpt lat="42.668683" lon="0.650538">
        <ele>2144.9</ele>
        <time>1970-01-01T10:01:52.000Z</time>
      </trkpt>
      <trkpt lat="42.668688" lon="0.650532">
        <ele>2144.8</ele>
        <time>1970-01-01T10:01:53.000Z</time>
      </trkpt>
      <trkpt lat="42.668694" lon="0.650527">
        <ele>2144.7</ele>
        <time>1970-01-01T10:01:54.000Z</time>
      </trkpt>
      <trkpt lat="42.668699" lon="0.650515">
        <ele>2144.6</ele>
        <time>1970-01-01T10:01:55.000Z</time>
      </trkpt>
      <trkpt lat="42.668707" lon="0.650505">
        <ele>2144.4</ele>
        <time>1970-01-01T10:01:56.000Z</time>
      </trkpt>
      <trkpt lat="42.668711" lon="0.6505">
        <ele>2144.3</ele>
        <time>1970-01-01T10:01:57.000Z</time>
      </trkpt>
      <trkpt lat="42.66872" lon="0.650494">
        <ele>2144.2</ele>
        <time>1970-01-01T10:01:58.000Z</time>
      </trkpt>
      <trkpt lat="42.66873" lon="0.650489">
        <ele>2144.1</ele>
        <time>1970-01-01T10:01:59.000Z</time>
      </trkpt>
      <trkpt lat="42.668742" lon="0.650485">
        <ele>2143.9</ele>
        <time>1970-01-01T10:02:00.000Z</time>
      </trkpt>
      <trkpt lat="42.668754" lon="0.65048">
        <ele>2143.7</ele>
        <time>1970-01-01T10:02:01.000Z</time>
      </trkpt>
      <trkpt lat="42.668762" lon="0.650478">
        <ele>2143.6</ele>
        <time>1970-01-01T10:02:02.000Z</time>
      </trkpt>
      <trkpt lat="42.668772" lon="0.650477">
        <ele>2143.5</ele>
        <time>1970-01-01T10:02:03.000Z</time>
      </trkpt>
      <trkpt lat="42.668791" lon="0.650476">
        <ele>2143.3</ele>
        <time>1970-01-01T10:02:05.000Z</time>
      </trkpt>
      <trkpt lat="42.668802" lon="0.65048">
        <ele>2143.1</ele>
        <time>1970-01-01T10:02:06.000Z</time>
      </trkpt>
      <trkpt lat="42.668813" lon="0.650485">
        <ele>2143</ele>
        <time>1970-01-01T10:02:07.000Z</time>
      </trkpt>
      <trkpt lat="42.66882" lon="0.650488">
        <ele>2142.9</ele>
        <time>1970-01-01T10:02:08.000Z</time>
      </trkpt>
      <trkpt lat="42.66883" lon="0.650492">
        <ele>2142.8</ele>
        <time>1970-01-01T10:02:09.000Z</time>
      </trkpt>
      <trkpt lat="42.668839" lon="0.650495">
        <ele>2142.7</ele>
        <time>1970-01-01T10:02:10.000Z</time>
      </trkpt>
      <trkpt lat="42.668848" lon="0.650494">
        <ele>2142.5</ele>
        <time>1970-01-01T10:02:11.000Z</time>
      </trkpt>
      <trkpt lat="42.668855" lon="0.650488">
        <ele>2142.4</ele>
        <time>1970-01-01T10:02:12.000Z</time>
      </trkpt>
      <trkpt lat="42.668862" lon="0.650486">
        <ele>2142.4</ele>
        <time>1970-01-01T10:02:13.000Z</time>
      </trkpt>
      <trkpt lat="42.668876" lon="0.650488">
        <ele>2142.2</ele>
        <time>1970-01-01T10:02:14.000Z</time>
      </trkpt>
      <trkpt lat="42.668889" lon="0.650497">
        <ele>2142</ele>
        <time>1970-01-01T10:02:16.000Z</time>
      </trkpt>
      <trkpt lat="42.668902" lon="0.65049">
        <ele>2141.8</ele>
        <time>1970-01-01T10:02:18.000Z</time>
      </trkpt>
      <trkpt lat="42.668909" lon="0.65048">
        <ele>2141.7</ele>
        <time>1970-01-01T10:02:19.000Z</time>
      </trkpt>
      <trkpt lat="42.668918" lon="0.650472">
        <ele>2141.5</ele>
        <time>1970-01-01T10:02:20.000Z</time>
      </trkpt>
      <trkpt lat="42.668928" lon="0.650468">
        <ele>2141.4</ele>
        <time>1970-01-01T10:02:21.000Z</time>
      </trkpt>
      <trkpt lat="42.668939" lon="0.650463">
        <ele>2141.2</ele>
        <time>1970-01-01T10:02:22.000Z</time>
      </trkpt>
      <trkpt lat="42.668957" lon="0.650457">
        <ele>2140.9</ele>
        <time>1970-01-01T10:02:23.000Z</time>
      </trkpt>
      <trkpt lat="42.668965" lon="0.650454">
        <ele>2140.8</ele>
        <time>1970-01-01T10:02:24.000Z</time>
      </trkpt>
      <trkpt lat="42.668974" lon="0.650452">
        <ele>2140.7</ele>
        <time>1970-01-01T10:02:25.000Z</time>
      </trkpt>
      <trkpt lat="42.668986" lon="0.65045">
        <ele>2140.5</ele>
        <time>1970-01-01T10:02:27.000Z</time>
      </trkpt>
      <trkpt lat="42.668996" lon="0.650446">
        <ele>2140.4</ele>
        <time>1970-01-01T10:02:28.000Z</time>
      </trkpt>
      <trkpt lat="42.669006" lon="0.650446">
        <ele>2140.2</ele>
        <time>1970-01-01T10:02:29.000Z</time>
      </trkpt>
      <trkpt lat="42.669017" lon="0.650445">
        <ele>2140</ele>
        <time>1970-01-01T10:02:30.000Z</time>
      </trkpt>
      <trkpt lat="42.669028" lon="0.650439">
        <ele>2139.9</ele>
        <time>1970-01-01T10:02:31.000Z</time>
      </trkpt>
      <trkpt lat="42.669037" lon="0.650432">
        <ele>2139.7</ele>
        <time>1970-01-01T10:02:32.000Z</time>
      </trkpt>
      <trkpt lat="42.669049" lon="0.650429">
        <ele>2139.1</ele>
        <time>1970-01-01T10:02:33.000Z</time>
      </trkpt>
      <trkpt lat="42.66906" lon="0.650426">
        <ele>2138.9</ele>
        <time>1970-01-01T10:02:34.000Z</time>
      </trkpt>
      <trkpt lat="42.669071" lon="0.650422">
        <ele>2138.7</ele>
        <time>1970-01-01T10:02:36.000Z</time>
      </trkpt>
      <trkpt lat="42.669079" lon="0.65042">
        <ele>2138.6</ele>
        <time>1970-01-01T10:02:37.000Z</time>
      </trkpt>
      <trkpt lat="42.669087" lon="0.650415">
        <ele>2138.5</ele>
        <time>1970-01-01T10:02:38.000Z</time>
      </trkpt>
      <trkpt lat="42.669096" lon="0.650409">
        <ele>2138.3</ele>
        <time>1970-01-01T10:02:39.000Z</time>
      </trkpt>
      <trkpt lat="42.669103" lon="0.650402">
        <ele>2138.2</ele>
        <time>1970-01-01T10:02:40.000Z</time>
      </trkpt>
      <trkpt lat="42.669108" lon="0.650397">
        <ele>2138.1</ele>
        <time>1970-01-01T10:02:41.000Z</time>
      </trkpt>
      <trkpt lat="42.669115" lon="0.650395">
        <ele>2138</ele>
        <time>1970-01-01T10:02:42.000Z</time>
      </trkpt>
      <trkpt lat="42.669126" lon="0.650395">
        <ele>2137.8</ele>
        <time>1970-01-01T10:02:43.000Z</time>
      </trkpt>
      <trkpt lat="42.669135" lon="0.650392">
        <ele>2137.7</ele>
        <time>1970-01-01T10:02:44.000Z</time>
      </trkpt>
      <trkpt lat="42.669143" lon="0.650389">
        <ele>2137.6</ele>
        <time>1970-01-01T10:02:45.000Z</time>
      </trkpt>
      <trkpt lat="42.669152" lon="0.650387">
        <ele>2137.5</ele>
        <time>1970-01-01T10:02:46.000Z</time>
      </trkpt>
      <trkpt lat="42.66916" lon="0.650381">
        <ele>2137.3</ele>
        <time>1970-01-01T10:02:47.000Z</time>
      </trkpt>
      <trkpt lat="42.669169" lon="0.650379">
        <ele>2137.2</ele>
        <time>1970-01-01T10:02:48.000Z</time>
      </trkpt>
      <trkpt lat="42.66919" lon="0.650379">
        <ele>2137</ele>
        <time>1970-01-01T10:02:49.000Z</time>
      </trkpt>
      <trkpt lat="42.669198" lon="0.650378">
        <ele>2136.9</ele>
        <time>1970-01-01T10:02:51.000Z</time>
      </trkpt>
      <trkpt lat="42.669206" lon="0.650377">
        <ele>2136.7</ele>
        <time>1970-01-01T10:02:52.000Z</time>
      </trkpt>
      <trkpt lat="42.669216" lon="0.650382">
        <ele>2136.6</ele>
        <time>1970-01-01T10:02:53.000Z</time>
      </trkpt>
      <trkpt lat="42.669225" lon="0.650386">
        <ele>2136.5</ele>
        <time>1970-01-01T10:02:54.000Z</time>
      </trkpt>
      <trkpt lat="42.669232" lon="0.650392">
        <ele>2136.4</ele>
        <time>1970-01-01T10:02:55.000Z</time>
      </trkpt>
      <trkpt lat="42.669238" lon="0.650409">
        <ele>2136.2</ele>
        <time>1970-01-01T10:02:56.000Z</time>
      </trkpt>
      <trkpt lat="42.669242" lon="0.650419">
        <ele>2136.1</ele>
        <time>1970-01-01T10:02:58.000Z</time>
      </trkpt>
      <trkpt lat="42.669245" lon="0.650429">
        <ele>2135.7</ele>
        <time>1970-01-01T10:02:59.000Z</time>
      </trkpt>
      <trkpt lat="42.669248" lon="0.650439">
        <ele>2135.7</ele>
        <time>1970-01-01T10:03:00.000Z</time>
      </trkpt>
      <trkpt lat="42.66925" lon="0.650455">
        <ele>2135.6</ele>
        <time>1970-01-01T10:03:01.000Z</time>
      </trkpt>
      <trkpt lat="42.669252" lon="0.650466">
        <ele>2135.6</ele>
        <time>1970-01-01T10:03:02.000Z</time>
      </trkpt>
      <trkpt lat="42.669254" lon="0.650476">
        <ele>2135.5</ele>
        <time>1970-01-01T10:03:03.000Z</time>
      </trkpt>
      <trkpt lat="42.669255" lon="0.650489">
        <ele>2135.4</ele>
        <time>1970-01-01T10:03:05.000Z</time>
      </trkpt>
      <trkpt lat="42.669257" lon="0.650504">
        <ele>2135.4</ele>
        <time>1970-01-01T10:03:06.000Z</time>
      </trkpt>
      <trkpt lat="42.669266" lon="0.650513">
        <ele>2135.3</ele>
        <time>1970-01-01T10:03:07.000Z</time>
      </trkpt>
      <trkpt lat="42.669275" lon="0.650523">
        <ele>2135.2</ele>
        <time>1970-01-01T10:03:08.000Z</time>
      </trkpt>
      <trkpt lat="42.66928" lon="0.650527">
        <ele>2135.2</ele>
        <time>1970-01-01T10:03:09.000Z</time>
      </trkpt>
      <trkpt lat="42.669286" lon="0.650537">
        <ele>2135.1</ele>
        <time>1970-01-01T10:03:10.000Z</time>
      </trkpt>
      <trkpt lat="42.669288" lon="0.65055">
        <ele>2135.1</ele>
        <time>1970-01-01T10:03:12.000Z</time>
      </trkpt>
      <trkpt lat="42.66929" lon="0.650564">
        <ele>2135</ele>
        <time>1970-01-01T10:03:13.000Z</time>
      </trkpt>
      <trkpt lat="42.669291" lon="0.650579">
        <ele>2134.9</ele>
        <time>1970-01-01T10:03:14.000Z</time>
      </trkpt>
      <trkpt lat="42.669291" lon="0.650592">
        <ele>2134.9</ele>
        <time>1970-01-01T10:03:15.000Z</time>
      </trkpt>
      <trkpt lat="42.669295" lon="0.650604">
        <ele>2134.8</ele>
        <time>1970-01-01T10:03:16.000Z</time>
      </trkpt>
      <trkpt lat="42.6693" lon="0.650615">
        <ele>2134.7</ele>
        <time>1970-01-01T10:03:17.000Z</time>
      </trkpt>
      <trkpt lat="42.669302" lon="0.650634">
        <ele>2134.7</ele>
        <time>1970-01-01T10:03:19.000Z</time>
      </trkpt>
      <trkpt lat="42.669306" lon="0.650653">
        <ele>2134.6</ele>
        <time>1970-01-01T10:03:20.000Z</time>
      </trkpt>
      <trkpt lat="42.669309" lon="0.65066">
        <ele>2134.5</ele>
        <time>1970-01-01T10:03:21.000Z</time>
      </trkpt>
      <trkpt lat="42.66931" lon="0.650668">
        <ele>2134.5</ele>
        <time>1970-01-01T10:03:22.000Z</time>
      </trkpt>
      <trkpt lat="42.669311" lon="0.650675">
        <ele>2134.4</ele>
        <time>1970-01-01T10:03:23.000Z</time>
      </trkpt>
      <trkpt lat="42.669312" lon="0.650676">
        <ele>2134.4</ele>
        <time>1970-01-01T10:03:24.000Z</time>
      </trkpt>
      <trkpt lat="42.669312" lon="0.650673">
        <ele>2134.4</ele>
        <time>1970-01-01T10:03:25.000Z</time>
      </trkpt>
      <trkpt lat="42.669312" lon="0.650671">
        <ele>2134.4</ele>
        <time>1970-01-01T10:03:26.000Z</time>
      </trkpt>
      <trkpt lat="42.669311" lon="0.65067">
        <ele>2134.4</ele>
        <time>1970-01-01T10:03:27.000Z</time>
      </trkpt>
      <trkpt lat="42.669311" lon="0.650671">
        <ele>2134.4</ele>
        <time>1970-01-01T10:03:28.000Z</time>
      </trkpt>
      <trkpt lat="42.669311" lon="0.650672">
        <ele>2134.4</ele>
        <time>1970-01-01T10:03:29.000Z</time>
      </trkpt>
      <trkpt lat="42.669311" lon="0.650671">
        <ele>2134.4</ele>
        <time>1970-01-01T10:03:30.000Z</time>
      </trkpt>
      <trkpt lat="42.669311" lon="0.65067">
        <ele>2134.4</ele>
        <time>1970-01-01T10:03:31.000Z</time>
      </trkpt>
      <trkpt lat="42.66931" lon="0.65067">
        <ele>2134.4</ele>
        <time>1970-01-01T10:03:32.000Z</time>
      </trkpt>
      <trkpt lat="42.66931" lon="0.650672">
        <ele>2134.4</ele>
        <time>1970-01-01T10:03:33.000Z</time>
      </trkpt>
      <trkpt lat="42.669309" lon="0.650672">
        <ele>2134.4</ele>
        <time>1970-01-01T10:03:34.000Z</time>
      </trkpt>
      <trkpt lat="42.669308" lon="0.650672">
        <ele>2134.4</ele>
        <time>1970-01-01T10:03:36.000Z</time>
      </trkpt>
      <trkpt lat="42.669308" lon="0.650673">
        <ele>2134.4</ele>
        <time>1970-01-01T10:03:37.000Z</time>
      </trkpt>
      <trkpt lat="42.669308" lon="0.650673">
        <ele>2134.4</ele>
        <time>1970-01-01T10:03:38.000Z</time>
      </trkpt>
      <trkpt lat="42.669309" lon="0.650673">
        <ele>2134.4</ele>
        <time>1970-01-01T10:03:39.000Z</time>
      </trkpt>
      <trkpt lat="42.66931" lon="0.650672">
        <ele>2134.3</ele>
        <time>1970-01-01T10:03:40.000Z</time>
      </trkpt>
      <trkpt lat="42.669308" lon="0.650664">
        <ele>2134.3</ele>
        <time>1970-01-01T10:03:41.000Z</time>
      </trkpt>
      <trkpt lat="42.669307" lon="0.650663">
        <ele>2134.3</ele>
        <time>1970-01-01T10:03:42.000Z</time>
      </trkpt>
      <trkpt lat="42.669306" lon="0.650668">
        <ele>2134.3</ele>
        <time>1970-01-01T10:03:43.000Z</time>
      </trkpt>
      <trkpt lat="42.669305" lon="0.650671">
        <ele>2134.3</ele>
        <time>1970-01-01T10:03:44.000Z</time>
      </trkpt>
      <trkpt lat="42.669302" lon="0.650675">
        <ele>2134.2</ele>
        <time>1970-01-01T10:03:45.000Z</time>
      </trkpt>
      <trkpt lat="42.669302" lon="0.650686">
        <ele>2134.2</ele>
        <time>1970-01-01T10:03:46.000Z</time>
      </trkpt>
      <trkpt lat="42.669304" lon="0.650692">
        <ele>2134.1</ele>
        <time>1970-01-01T10:03:47.000Z</time>
      </trkpt>
      <trkpt lat="42.669301" lon="0.650701">
        <ele>2134.1</ele>
        <time>1970-01-01T10:03:48.000Z</time>
      </trkpt>
      <trkpt lat="42.669299" lon="0.650708">
        <ele>2134</ele>
        <time>1970-01-01T10:03:49.000Z</time>
      </trkpt>
      <trkpt lat="42.669298" lon="0.650715">
        <ele>2134</ele>
        <time>1970-01-01T10:03:50.000Z</time>
      </trkpt>
      <trkpt lat="42.669298" lon="0.650718">
        <ele>2134</ele>
        <time>1970-01-01T10:03:51.000Z</time>
      </trkpt>
      <trkpt lat="42.669298" lon="0.650721">
        <ele>2134</ele>
        <time>1970-01-01T10:03:52.000Z</time>
      </trkpt>
      <trkpt lat="42.669298" lon="0.65072">
        <ele>2134</ele>
        <time>1970-01-01T10:03:53.000Z</time>
      </trkpt>
      <trkpt lat="42.669299" lon="0.650719">
        <ele>2134</ele>
        <time>1970-01-01T10:03:54.000Z</time>
      </trkpt>
      <trkpt lat="42.6693" lon="0.650716">
        <ele>2134</ele>
        <time>1970-01-01T10:03:55.000Z</time>
      </trkpt>
      <trkpt lat="42.6693" lon="0.650715">
        <ele>2133.9</ele>
        <time>1970-01-01T10:03:56.000Z</time>
      </trkpt>
      <trkpt lat="42.6693" lon="0.650714">
        <ele>2133.9</ele>
        <time>1970-01-01T10:03:57.000Z</time>
      </trkpt>
      <trkpt lat="42.6693" lon="0.650715">
        <ele>2133.9</ele>
        <time>1970-01-01T10:03:58.000Z</time>
      </trkpt>
      <trkpt lat="42.6693" lon="0.650718">
        <ele>2133.9</ele>
        <time>1970-01-01T10:03:59.000Z</time>
      </trkpt>
      <trkpt lat="42.669297" lon="0.650716">
        <ele>2133.9</ele>
        <time>1970-01-01T10:04:01.000Z</time>
      </trkpt>
      <trkpt lat="42.669295" lon="0.650715">
        <ele>2133.9</ele>
        <time>1970-01-01T10:04:02.000Z</time>
      </trkpt>
      <trkpt lat="42.669294" lon="0.650714">
        <ele>2133.9</ele>
        <time>1970-01-01T10:04:03.000Z</time>
      </trkpt>
      <trkpt lat="42.669294" lon="0.650714">
        <ele>2133.9</ele>
        <time>1970-01-01T10:04:04.000Z</time>
      </trkpt>
      <trkpt lat="42.669293" lon="0.650713">
        <ele>2133.9</ele>
        <time>1970-01-01T10:04:05.000Z</time>
      </trkpt>
      <trkpt lat="42.669294" lon="0.650713">
        <ele>2133.9</ele>
        <time>1970-01-01T10:04:06.000Z</time>
      </trkpt>
      <trkpt lat="42.669294" lon="0.650712">
        <ele>2133.9</ele>
        <time>1970-01-01T10:04:07.000Z</time>
      </trkpt>
      <trkpt lat="42.669294" lon="0.650712">
        <ele>2133.9</ele>
        <time>1970-01-01T10:04:08.000Z</time>
      </trkpt>
      <trkpt lat="42.669295" lon="0.650711">
        <ele>2133.8</ele>
        <time>1970-01-01T10:04:09.000Z</time>
      </trkpt>
      <trkpt lat="42.669295" lon="0.650711">
        <ele>2133.8</ele>
        <time>1970-01-01T10:04:10.000Z</time>
      </trkpt>
      <trkpt lat="42.669295" lon="0.65071">
        <ele>2133.8</ele>
        <time>1970-01-01T10:04:12.000Z</time>
      </trkpt>
      <trkpt lat="42.66917" lon="0.650449">
        <ele>2136</ele>
        <time>1970-01-01T00:00:00.000Z</time>
      </trkpt>
      <trkpt lat="42.669177" lon="0.650602">
        <ele>2135.1</ele>
        <time>1970-01-01T00:00:01.000Z</time>
      </trkpt>
      <trkpt lat="42.669194" lon="0.650676">
        <ele>2134.8</ele>
        <time>1970-01-01T00:00:02.000Z</time>
      </trkpt>
      <trkpt lat="42.669221" lon="0.650679">
        <ele>2134.6</ele>
        <time>1970-01-01T00:00:03.000Z</time>
      </trkpt>
      <trkpt lat="42.669227" lon="0.650672">
        <ele>2134.6</ele>
        <time>1970-01-01T00:00:04.000Z</time>
      </trkpt>
      <trkpt lat="42.669222" lon="0.650671">
        <ele>2134.6</ele>
        <time>1970-01-01T00:00:05.000Z</time>
      </trkpt>
      <trkpt lat="42.669224" lon="0.650671">
        <ele>2134.5</ele>
        <time>1970-01-01T00:00:06.000Z</time>
      </trkpt>
      <trkpt lat="42.669227" lon="0.65067">
        <ele>2134.5</ele>
        <time>1970-01-01T00:00:07.000Z</time>
      </trkpt>
      <trkpt lat="42.669245" lon="0.650666">
        <ele>2134.4</ele>
        <time>1970-01-01T00:00:09.000Z</time>
      </trkpt>
      <trkpt lat="42.669249" lon="0.650668">
        <ele>2134.4</ele>
        <time>1970-01-01T00:00:10.000Z</time>
      </trkpt>
      <trkpt lat="42.669251" lon="0.650672">
        <ele>2134.4</ele>
        <time>1970-01-01T00:00:11.000Z</time>
      </trkpt>
      <trkpt lat="42.669252" lon="0.650675">
        <ele>2134.4</ele>
        <time>1970-01-01T00:00:12.000Z</time>
      </trkpt>
      <trkpt lat="42.669254" lon="0.650677">
        <ele>2134.4</ele>
        <time>1970-01-01T00:00:13.000Z</time>
      </trkpt>
      <trkpt lat="42.669254" lon="0.650679">
        <ele>2134.4</ele>
        <time>1970-01-01T00:00:14.000Z</time>
      </trkpt>
      <trkpt lat="42.669254" lon="0.650681">
        <ele>2134.3</ele>
        <time>1970-01-01T00:00:15.000Z</time>
      </trkpt>
      <trkpt lat="42.669254" lon="0.650682">
        <ele>2134.3</ele>
        <time>1970-01-01T00:00:16.000Z</time>
      </trkpt>
      <trkpt lat="42.669254" lon="0.650683">
        <ele>2134.3</ele>
        <time>1970-01-01T00:00:17.000Z</time>
      </trkpt>
      <trkpt lat="42.669253" lon="0.650684">
        <ele>2134.3</ele>
        <time>1970-01-01T00:00:18.000Z</time>
      </trkpt>
      <trkpt lat="42.669252" lon="0.650683">
        <ele>2134.3</ele>
        <time>1970-01-01T00:00:19.000Z</time>
      </trkpt>
      <trkpt lat="42.669253" lon="0.650685">
        <ele>2134.3</ele>
        <time>1970-01-01T00:00:20.000Z</time>
      </trkpt>
      <trkpt lat="42.669253" lon="0.650685">
        <ele>2134.3</ele>
        <time>1970-01-01T00:00:21.000Z</time>
      </trkpt>
      <trkpt lat="42.669255" lon="0.650685">
        <ele>2134.3</ele>
        <time>1970-01-01T00:00:22.000Z</time>
      </trkpt>
      <trkpt lat="42.669257" lon="0.650686">
        <ele>2134.3</ele>
        <time>1970-01-01T00:00:23.000Z</time>
      </trkpt>
      <trkpt lat="42.669259" lon="0.650687">
        <ele>2134.3</ele>
        <time>1970-01-01T00:00:24.000Z</time>
      </trkpt>
      <trkpt lat="42.66926" lon="0.650687">
        <ele>2134.3</ele>
        <time>1970-01-01T00:00:25.000Z</time>
      </trkpt>
      <trkpt lat="42.669262" lon="0.650688">
        <ele>2134.3</ele>
        <time>1970-01-01T00:00:26.000Z</time>
      </trkpt>
      <trkpt lat="42.669263" lon="0.650688">
        <ele>2134.3</ele>
        <time>1970-01-01T00:00:27.000Z</time>
      </trkpt>
      <trkpt lat="42.669265" lon="0.650689">
        <ele>2134.3</ele>
        <time>1970-01-01T00:00:29.000Z</time>
      </trkpt>
      <trkpt lat="42.669266" lon="0.650688">
        <ele>2134.2</ele>
        <time>1970-01-01T00:00:30.000Z</time>
      </trkpt>
      <trkpt lat="42.669268" lon="0.650685">
        <ele>2134.2</ele>
        <time>1970-01-01T00:00:32.000Z</time>
      </trkpt>
      <trkpt lat="42.669269" lon="0.650683">
        <ele>2134.2</ele>
        <time>1970-01-01T00:00:33.000Z</time>
      </trkpt>
      <trkpt lat="42.669271" lon="0.650681">
        <ele>2134.2</ele>
        <time>1970-01-01T00:00:34.000Z</time>
      </trkpt>
      <trkpt lat="42.669273" lon="0.650679">
        <ele>2134.2</ele>
        <time>1970-01-01T00:00:35.000Z</time>
      </trkpt>
      <trkpt lat="42.669273" lon="0.650678">
        <ele>2134.2</ele>
        <time>1970-01-01T00:00:36.000Z</time>
      </trkpt>
      <trkpt lat="42.669275" lon="0.650677">
        <ele>2134.2</ele>
        <time>1970-01-01T00:00:37.000Z</time>
      </trkpt>
      <trkpt lat="42.669277" lon="0.650675">
        <ele>2134.2</ele>
        <time>1970-01-01T00:00:38.000Z</time>
      </trkpt>
      <trkpt lat="42.669278" lon="0.650675">
        <ele>2134.2</ele>
        <time>1970-01-01T00:00:39.000Z</time>
      </trkpt>
      <trkpt lat="42.669279" lon="0.650675">
        <ele>2134.1</ele>
        <time>1970-01-01T00:00:40.000Z</time>
      </trkpt>
      <trkpt lat="42.669286" lon="0.65067">
        <ele>2134.1</ele>
        <time>1970-01-01T00:00:42.000Z</time>
      </trkpt>
      <trkpt lat="42.669289" lon="0.65067">
        <ele>2134.1</ele>
        <time>1970-01-01T00:00:43.000Z</time>
      </trkpt>
      <trkpt lat="42.669291" lon="0.650673">
        <ele>2134.1</ele>
        <time>1970-01-01T00:00:44.000Z</time>
      </trkpt>
      <trkpt lat="42.669291" lon="0.650675">
        <ele>2134.1</ele>
        <time>1970-01-01T00:00:45.000Z</time>
      </trkpt>
      <trkpt lat="42.66929" lon="0.650676">
        <ele>2134</ele>
        <time>1970-01-01T00:00:46.000Z</time>
      </trkpt>
      <trkpt lat="42.669288" lon="0.650676">
        <ele>2134</ele>
        <time>1970-01-01T00:00:47.000Z</time>
      </trkpt>
      <trkpt lat="42.669287" lon="0.650674">
        <ele>2134</ele>
        <time>1970-01-01T00:00:48.000Z</time>
      </trkpt>
      <trkpt lat="42.669286" lon="0.650671">
        <ele>2134</ele>
        <time>1970-01-01T00:00:49.000Z</time>
      </trkpt>
      <trkpt lat="42.669285" lon="0.65067">
        <ele>2134</ele>
        <time>1970-01-01T00:00:50.000Z</time>
      </trkpt>
      <trkpt lat="42.669284" lon="0.650669">
        <ele>2134</ele>
        <time>1970-01-01T00:00:51.000Z</time>
      </trkpt>
      <trkpt lat="42.669283" lon="0.650667">
        <ele>2134</ele>
        <time>1970-01-01T00:00:52.000Z</time>
      </trkpt>
      <trkpt lat="42.669281" lon="0.650665">
        <ele>2134</ele>
        <time>1970-01-01T00:00:53.000Z</time>
      </trkpt>
      <trkpt lat="42.66928" lon="0.650664">
        <ele>2134</ele>
        <time>1970-01-01T00:00:54.000Z</time>
      </trkpt>
      <trkpt lat="42.669278" lon="0.650663">
        <ele>2134</ele>
        <time>1970-01-01T00:00:55.000Z</time>
      </trkpt>
      <trkpt lat="42.669276" lon="0.65066">
        <ele>2133.9</ele>
        <time>1970-01-01T00:00:56.000Z</time>
      </trkpt>
      <trkpt lat="42.669275" lon="0.650657">
        <ele>2133.9</ele>
        <time>1970-01-01T00:00:57.000Z</time>
      </trkpt>
      <trkpt lat="42.669275" lon="0.650654">
        <ele>2133.9</ele>
        <time>1970-01-01T00:00:58.000Z</time>
      </trkpt>
      <trkpt lat="42.669275" lon="0.650652">
        <ele>2133.9</ele>
        <time>1970-01-01T00:00:59.000Z</time>
      </trkpt>
      <trkpt lat="42.669276" lon="0.65065">
        <ele>2133.9</ele>
        <time>1970-01-01T00:01:00.000Z</time>
      </trkpt>
      <trkpt lat="42.669278" lon="0.650646">
        <ele>2133.9</ele>
        <time>1970-01-01T00:01:01.000Z</time>
      </trkpt>
      <trkpt lat="42.669279" lon="0.650645">
        <ele>2133.9</ele>
        <time>1970-01-01T00:01:02.000Z</time>
      </trkpt>
      <trkpt lat="42.669279" lon="0.650644">
        <ele>2133.9</ele>
        <time>1970-01-01T00:01:03.000Z</time>
      </trkpt>
      <trkpt lat="42.669279" lon="0.650642">
        <ele>2133.9</ele>
        <time>1970-01-01T00:01:04.000Z</time>
      </trkpt>
      <trkpt lat="42.669284" lon="0.650628">
        <ele>2133.8</ele>
        <time>1970-01-01T00:01:05.000Z</time>
      </trkpt>
      <trkpt lat="42.669288" lon="0.65062">
        <ele>2133.7</ele>
        <time>1970-01-01T00:01:06.000Z</time>
      </trkpt>
      <trkpt lat="42.669297" lon="0.650613">
        <ele>2133.7</ele>
        <time>1970-01-01T00:01:07.000Z</time>
      </trkpt>
      <trkpt lat="42.669303" lon="0.65061">
        <ele>2133.6</ele>
        <time>1970-01-01T00:01:08.000Z</time>
      </trkpt>
      <trkpt lat="42.669308" lon="0.650606">
        <ele>2133.6</ele>
        <time>1970-01-01T00:01:09.000Z</time>
      </trkpt>
      <trkpt lat="42.669311" lon="0.650602">
        <ele>2133.6</ele>
        <time>1970-01-01T00:01:10.000Z</time>
      </trkpt>
      <trkpt lat="42.669306" lon="0.650601">
        <ele>2133.6</ele>
        <time>1970-01-01T00:01:11.000Z</time>
      </trkpt>
      <trkpt lat="42.669304" lon="0.650601">
        <ele>2133.5</ele>
        <time>1970-01-01T00:01:12.000Z</time>
      </trkpt>
      <trkpt lat="42.669304" lon="0.650604">
        <ele>2133.5</ele>
        <time>1970-01-01T00:01:13.000Z</time>
      </trkpt>
      <trkpt lat="42.6693" lon="0.650607">
        <ele>2133.5</ele>
        <time>1970-01-01T00:01:14.000Z</time>
      </trkpt>
      <trkpt lat="42.669298" lon="0.650608">
        <ele>2133.5</ele>
        <time>1970-01-01T00:01:15.000Z</time>
      </trkpt>
      <trkpt lat="42.6693" lon="0.650607">
        <ele>2133.5</ele>
        <time>1970-01-01T00:01:16.000Z</time>
      </trkpt>
      <trkpt lat="42.669305" lon="0.650608">
        <ele>2133.5</ele>
        <time>1970-01-01T00:01:17.000Z</time>
      </trkpt>
      <trkpt lat="42.669314" lon="0.650608">
        <ele>2133.4</ele>
        <time>1970-01-01T00:01:18.000Z</time>
      </trkpt>
      <trkpt lat="42.669323" lon="0.650606">
        <ele>2133.3</ele>
        <time>1970-01-01T00:01:19.000Z</time>
      </trkpt>
      <trkpt lat="42.669322" lon="0.650606">
        <ele>2133.3</ele>
        <time>1970-01-01T00:01:20.000Z</time>
      </trkpt>
      <trkpt lat="42.66932" lon="0.650604">
        <ele>2133.3</ele>
        <time>1970-01-01T00:01:21.000Z</time>
      </trkpt>
      <trkpt lat="42.669322" lon="0.650613">
        <ele>2133.3</ele>
        <time>1970-01-01T00:01:22.000Z</time>
      </trkpt>
      <trkpt lat="42.66931" lon="0.650618">
        <ele>2133.2</ele>
        <time>1970-01-01T00:01:23.000Z</time>
      </trkpt>
      <trkpt lat="42.669303" lon="0.650624">
        <ele>2133.2</ele>
        <time>1970-01-01T00:01:24.000Z</time>
      </trkpt>
      <trkpt lat="42.669305" lon="0.650629">
        <ele>2133.1</ele>
        <time>1970-01-01T00:01:25.000Z</time>
      </trkpt>
      <trkpt lat="42.669306" lon="0.650637">
        <ele>2133.1</ele>
        <time>1970-01-01T00:01:26.000Z</time>
      </trkpt>
      <trkpt lat="42.669305" lon="0.65064">
        <ele>2133.1</ele>
        <time>1970-01-01T00:01:27.000Z</time>
      </trkpt>
      <trkpt lat="42.669305" lon="0.650641">
        <ele>2133.1</ele>
        <time>1970-01-01T00:01:28.000Z</time>
      </trkpt>
      <trkpt lat="42.669305" lon="0.650642">
        <ele>2133.1</ele>
        <time>1970-01-01T00:01:29.000Z</time>
      </trkpt>
      <trkpt lat="42.669306" lon="0.650643">
        <ele>2133.1</ele>
        <time>1970-01-01T00:01:30.000Z</time>
      </trkpt>
      <trkpt lat="42.669308" lon="0.650642">
        <ele>2133.1</ele>
        <time>1970-01-01T00:01:31.000Z</time>
      </trkpt>
      <trkpt lat="42.669309" lon="0.650641">
        <ele>2133.1</ele>
        <time>1970-01-01T00:01:32.000Z</time>
      </trkpt>
      <trkpt lat="42.669313" lon="0.650631">
        <ele>2133</ele>
        <time>1970-01-01T00:01:33.000Z</time>
      </trkpt>
      <trkpt lat="42.669316" lon="0.65062">
        <ele>2133</ele>
        <time>1970-01-01T00:01:34.000Z</time>
      </trkpt>
      <trkpt lat="42.669317" lon="0.650615">
        <ele>2132.9</ele>
        <time>1970-01-01T00:01:35.000Z</time>
      </trkpt>
      <trkpt lat="42.66932" lon="0.650612">
        <ele>2132.9</ele>
        <time>1970-01-01T00:01:36.000Z</time>
      </trkpt>
      <trkpt lat="42.669316" lon="0.650616">
        <ele>2132.9</ele>
        <time>1970-01-01T00:01:37.000Z</time>
      </trkpt>
      <trkpt lat="42.66932" lon="0.650617">
        <ele>2132.9</ele>
        <time>1970-01-01T00:01:39.000Z</time>
      </trkpt>
      <trkpt lat="42.669327" lon="0.650618">
        <ele>2132.8</ele>
        <time>1970-01-01T00:01:40.000Z</time>
      </trkpt>
      <trkpt lat="42.669336" lon="0.650622">
        <ele>2132.8</ele>
        <time>1970-01-01T00:01:41.000Z</time>
      </trkpt>
      <trkpt lat="42.669347" lon="0.65063">
        <ele>2132.7</ele>
        <time>1970-01-01T00:01:43.000Z</time>
      </trkpt>
      <trkpt lat="42.669358" lon="0.650636">
        <ele>2132.6</ele>
        <time>1970-01-01T00:01:44.000Z</time>
      </trkpt>
      <trkpt lat="42.66937" lon="0.65064">
        <ele>2132.6</ele>
        <time>1970-01-01T00:01:45.000Z</time>
      </trkpt>
      <trkpt lat="42.669391" lon="0.650646">
        <ele>2132.4</ele>
        <time>1970-01-01T00:01:47.000Z</time>
      </trkpt>
      <trkpt lat="42.669423" lon="0.650654">
        <ele>2132.2</ele>
        <time>1970-01-01T00:01:48.000Z</time>
      </trkpt>
      <trkpt lat="42.669429" lon="0.650656">
        <ele>2132.2</ele>
        <time>1970-01-01T00:01:49.000Z</time>
      </trkpt>
      <trkpt lat="42.669447" lon="0.650662">
        <ele>2131.9</ele>
        <time>1970-01-01T00:01:50.000Z</time>
      </trkpt>
      <trkpt lat="42.669459" lon="0.65067">
        <ele>2131.9</ele>
        <time>1970-01-01T00:01:51.000Z</time>
      </trkpt>
      <trkpt lat="42.66947" lon="0.650685">
        <ele>2132</ele>
        <time>1970-01-01T00:01:52.000Z</time>
      </trkpt>
      <trkpt lat="42.669479" lon="0.6507">
        <ele>2132</ele>
        <time>1970-01-01T00:01:54.000Z</time>
      </trkpt>
      <trkpt lat="42.669486" lon="0.650712">
        <ele>2132.1</ele>
        <time>1970-01-01T00:01:55.000Z</time>
      </trkpt>
      <trkpt lat="42.669495" lon="0.650726">
        <ele>2132.1</ele>
        <time>1970-01-01T00:01:56.000Z</time>
      </trkpt>
      <trkpt lat="42.6695" lon="0.650734">
        <ele>2132.1</ele>
        <time>1970-01-01T00:01:57.000Z</time>
      </trkpt>
      <trkpt lat="42.669505" lon="0.650739">
        <ele>2132.2</ele>
        <time>1970-01-01T00:01:58.000Z</time>
      </trkpt>
      <trkpt lat="42.66951" lon="0.650746">
        <ele>2132.2</ele>
        <time>1970-01-01T00:01:59.000Z</time>
      </trkpt>
      <trkpt lat="42.669515" lon="0.650757">
        <ele>2132.2</ele>
        <time>1970-01-01T00:02:00.000Z</time>
      </trkpt>
      <trkpt lat="42.669517" lon="0.650766">
        <ele>2132.2</ele>
        <time>1970-01-01T00:02:01.000Z</time>
      </trkpt>
      <trkpt lat="42.669521" lon="0.650786">
        <ele>2132.3</ele>
        <time>1970-01-01T00:02:02.000Z</time>
      </trkpt>
      <trkpt lat="42.669521" lon="0.650795">
        <ele>2132.3</ele>
        <time>1970-01-01T00:02:04.000Z</time>
      </trkpt>
      <trkpt lat="42.669521" lon="0.650803">
        <ele>2132.3</ele>
        <time>1970-01-01T00:02:05.000Z</time>
      </trkpt>
      <trkpt lat="42.669521" lon="0.650812">
        <ele>2132.3</ele>
        <time>1970-01-01T00:02:06.000Z</time>
      </trkpt>
      <trkpt lat="42.669521" lon="0.650821">
        <ele>2132.3</ele>
        <time>1970-01-01T00:02:07.000Z</time>
      </trkpt>
      <trkpt lat="42.669521" lon="0.650829">
        <ele>2132.4</ele>
        <time>1970-01-01T00:02:09.000Z</time>
      </trkpt>
      <trkpt lat="42.669521" lon="0.650838">
        <ele>2132.4</ele>
        <time>1970-01-01T00:02:10.000Z</time>
      </trkpt>
      <trkpt lat="42.669521" lon="0.650847">
        <ele>2132.4</ele>
        <time>1970-01-01T00:02:12.000Z</time>
      </trkpt>
      <trkpt lat="42.669521" lon="0.650856">
        <ele>2132.4</ele>
        <time>1970-01-01T00:02:13.000Z</time>
      </trkpt>
      <trkpt lat="42.669513" lon="0.650867">
        <ele>2132.4</ele>
        <time>1970-01-01T00:02:14.000Z</time>
      </trkpt>
      <trkpt lat="42.669505" lon="0.650876">
        <ele>2132.4</ele>
        <time>1970-01-01T00:02:15.000Z</time>
      </trkpt>
      <trkpt lat="42.669498" lon="0.650888">
        <ele>2132.5</ele>
        <time>1970-01-01T00:02:17.000Z</time>
      </trkpt>
      <trkpt lat="42.669498" lon="0.650895">
        <ele>2132.5</ele>
        <time>1970-01-01T00:02:18.000Z</time>
      </trkpt>
      <trkpt lat="42.669499" lon="0.650901">
        <ele>2132.5</ele>
        <time>1970-01-01T00:02:19.000Z</time>
      </trkpt>
      <trkpt lat="42.669505" lon="0.650913">
        <ele>2132.5</ele>
        <time>1970-01-01T00:02:21.000Z</time>
      </trkpt>
      <trkpt lat="42.669516" lon="0.650922">
        <ele>2132.5</ele>
        <time>1970-01-01T00:02:22.000Z</time>
      </trkpt>
      <trkpt lat="42.669524" lon="0.650927">
        <ele>2132.5</ele>
        <time>1970-01-01T00:02:23.000Z</time>
      </trkpt>
      <trkpt lat="42.66953" lon="0.650934">
        <ele>2132.5</ele>
        <time>1970-01-01T00:02:24.000Z</time>
      </trkpt>
      <trkpt lat="42.669541" lon="0.650942">
        <ele>2132.5</ele>
        <time>1970-01-01T00:02:25.000Z</time>
      </trkpt>
      <trkpt lat="42.669552" lon="0.650944">
        <ele>2132.5</ele>
        <time>1970-01-01T00:02:27.000Z</time>
      </trkpt>
      <trkpt lat="42.669566" lon="0.650941">
        <ele>2132.5</ele>
        <time>1970-01-01T00:02:28.000Z</time>
      </trkpt>
      <trkpt lat="42.669572" lon="0.650943">
        <ele>2132.5</ele>
        <time>1970-01-01T00:02:29.000Z</time>
      </trkpt>
      <trkpt lat="42.669577" lon="0.650952">
        <ele>2132.5</ele>
        <time>1970-01-01T00:02:30.000Z</time>
      </trkpt>
      <trkpt lat="42.669581" lon="0.650964">
        <ele>2132.5</ele>
        <time>1970-01-01T00:02:31.000Z</time>
      </trkpt>
      <trkpt lat="42.669584" lon="0.650976">
        <ele>2132.5</ele>
        <time>1970-01-01T00:02:32.000Z</time>
      </trkpt>
      <trkpt lat="42.669587" lon="0.650986">
        <ele>2132.5</ele>
        <time>1970-01-01T00:02:33.000Z</time>
      </trkpt>
      <trkpt lat="42.66959" lon="0.650993">
        <ele>2132.5</ele>
        <time>1970-01-01T00:02:34.000Z</time>
      </trkpt>
      <trkpt lat="42.669594" lon="0.651004">
        <ele>2132.5</ele>
        <time>1970-01-01T00:02:35.000Z</time>
      </trkpt>
      <trkpt lat="42.669598" lon="0.651013">
        <ele>2132.5</ele>
        <time>1970-01-01T00:02:36.000Z</time>
      </trkpt>
      <trkpt lat="42.669604" lon="0.651024">
        <ele>2132.5</ele>
        <time>1970-01-01T00:02:37.000Z</time>
      </trkpt>
      <trkpt lat="42.669607" lon="0.65103">
        <ele>2132.4</ele>
        <time>1970-01-01T00:02:38.000Z</time>
      </trkpt>
      <trkpt lat="42.669611" lon="0.651038">
        <ele>2132.4</ele>
        <time>1970-01-01T00:02:39.000Z</time>
      </trkpt>
      <trkpt lat="42.669615" lon="0.651046">
        <ele>2132.4</ele>
        <time>1970-01-01T00:02:40.000Z</time>
      </trkpt>
      <trkpt lat="42.669619" lon="0.651054">
        <ele>2132.4</ele>
        <time>1970-01-01T00:02:41.000Z</time>
      </trkpt>
      <trkpt lat="42.669622" lon="0.651061">
        <ele>2132.4</ele>
        <time>1970-01-01T00:02:42.000Z</time>
      </trkpt>
      <trkpt lat="42.669629" lon="0.651075">
        <ele>2132.3</ele>
        <time>1970-01-01T00:02:44.000Z</time>
      </trkpt>
      <trkpt lat="42.669632" lon="0.651084">
        <ele>2132.3</ele>
        <time>1970-01-01T00:02:45.000Z</time>
      </trkpt>
      <trkpt lat="42.669633" lon="0.651093">
        <ele>2132.3</ele>
        <time>1970-01-01T00:02:46.000Z</time>
      </trkpt>
      <trkpt lat="42.669631" lon="0.651099">
        <ele>2132.3</ele>
        <time>1970-01-01T00:02:47.000Z</time>
      </trkpt>
      <trkpt lat="42.669628" lon="0.651107">
        <ele>2132.3</ele>
        <time>1970-01-01T00:02:48.000Z</time>
      </trkpt>
      <trkpt lat="42.669626" lon="0.65112">
        <ele>2132.2</ele>
        <time>1970-01-01T00:02:50.000Z</time>
      </trkpt>
      <trkpt lat="42.669625" lon="0.651128">
        <ele>2132.2</ele>
        <time>1970-01-01T00:02:51.000Z</time>
      </trkpt>
      <trkpt lat="42.669623" lon="0.651133">
        <ele>2132.2</ele>
        <time>1970-01-01T00:02:52.000Z</time>
      </trkpt>
      <trkpt lat="42.669622" lon="0.651141">
        <ele>2132.2</ele>
        <time>1970-01-01T00:02:53.000Z</time>
      </trkpt>
      <trkpt lat="42.669621" lon="0.651148">
        <ele>2132.2</ele>
        <time>1970-01-01T00:02:54.000Z</time>
      </trkpt>
      <trkpt lat="42.669619" lon="0.651149">
        <ele>2132.1</ele>
        <time>1970-01-01T00:02:55.000Z</time>
      </trkpt>
      <trkpt lat="42.669618" lon="0.651146">
        <ele>2132.1</ele>
        <time>1970-01-01T00:02:56.000Z</time>
      </trkpt>
      <trkpt lat="42.669617" lon="0.651144">
        <ele>2132.1</ele>
        <time>1970-01-01T00:02:57.000Z</time>
      </trkpt>
      <trkpt lat="42.669617" lon="0.651142">
        <ele>2132.1</ele>
        <time>1970-01-01T00:02:58.000Z</time>
      </trkpt>
      <trkpt lat="42.669616" lon="0.651143">
        <ele>2132.1</ele>
        <time>1970-01-01T00:02:59.000Z</time>
      </trkpt>
      <trkpt lat="42.669614" lon="0.651144">
        <ele>2132.1</ele>
        <time>1970-01-01T00:03:00.000Z</time>
      </trkpt>
      <trkpt lat="42.669614" lon="0.651144">
        <ele>2132.1</ele>
        <time>1970-01-01T00:03:01.000Z</time>
      </trkpt>
      <trkpt lat="42.669611" lon="0.65115">
        <ele>2132.1</ele>
        <time>1970-01-01T00:03:03.000Z</time>
      </trkpt>
      <trkpt lat="42.669609" lon="0.651161">
        <ele>2132.1</ele>
        <time>1970-01-01T00:03:04.000Z</time>
      </trkpt>
      <trkpt lat="42.669614" lon="0.651174">
        <ele>2132</ele>
        <time>1970-01-01T00:03:05.000Z</time>
      </trkpt>
      <trkpt lat="42.669617" lon="0.651184">
        <ele>2132</ele>
        <time>1970-01-01T00:03:06.000Z</time>
      </trkpt>
      <trkpt lat="42.66962" lon="0.651194">
        <ele>2131.9</ele>
        <time>1970-01-01T00:03:07.000Z</time>
      </trkpt>
      <trkpt lat="42.669623" lon="0.651204">
        <ele>2131.9</ele>
        <time>1970-01-01T00:03:08.000Z</time>
      </trkpt>
      <trkpt lat="42.669626" lon="0.651214">
        <ele>2131.9</ele>
        <time>1970-01-01T00:03:09.000Z</time>
      </trkpt>
      <trkpt lat="42.669629" lon="0.651224">
        <ele>2131.8</ele>
        <time>1970-01-01T00:03:11.000Z</time>
      </trkpt>
      <trkpt lat="42.669633" lon="0.651234">
        <ele>2131.8</ele>
        <time>1970-01-01T00:03:12.000Z</time>
      </trkpt>
      <trkpt lat="42.66963" lon="0.65126">
        <ele>2131.7</ele>
        <time>1970-01-01T00:03:13.000Z</time>
      </trkpt>
      <trkpt lat="42.669636" lon="0.651256">
        <ele>2131.7</ele>
        <time>1970-01-01T00:03:14.000Z</time>
      </trkpt>
      <trkpt lat="42.669635" lon="0.651257">
        <ele>2131.7</ele>
        <time>1970-01-01T00:03:15.000Z</time>
      </trkpt>
      <trkpt lat="42.669633" lon="0.651258">
        <ele>2131.6</ele>
        <time>1970-01-01T00:03:16.000Z</time>
      </trkpt>
      <trkpt lat="42.669635" lon="0.651265">
        <ele>2131.6</ele>
        <time>1970-01-01T00:03:17.000Z</time>
      </trkpt>
      <trkpt lat="42.669638" lon="0.651273">
        <ele>2131.6</ele>
        <time>1970-01-01T00:03:18.000Z</time>
      </trkpt>
      <trkpt lat="42.669635" lon="0.651302">
        <ele>2131.5</ele>
        <time>1970-01-01T00:03:19.000Z</time>
      </trkpt>
      <trkpt lat="42.669632" lon="0.651312">
        <ele>2131.4</ele>
        <time>1970-01-01T00:03:21.000Z</time>
      </trkpt>
      <trkpt lat="42.669629" lon="0.651322">
        <ele>2130.8</ele>
        <time>1970-01-01T00:03:22.000Z</time>
      </trkpt>
      <trkpt lat="42.669622" lon="0.651329">
        <ele>2130.7</ele>
        <time>1970-01-01T00:03:23.000Z</time>
      </trkpt>
      <trkpt lat="42.669617" lon="0.651335">
        <ele>2130.5</ele>
        <time>1970-01-01T00:03:24.000Z</time>
      </trkpt>
      <trkpt lat="42.669607" lon="0.651336">
        <ele>2130.3</ele>
        <time>1970-01-01T00:03:25.000Z</time>
      </trkpt>
      <trkpt lat="42.669597" lon="0.651334">
        <ele>2130.2</ele>
        <time>1970-01-01T00:03:26.000Z</time>
      </trkpt>
      <trkpt lat="42.669594" lon="0.651338">
        <ele>2130.1</ele>
        <time>1970-01-01T00:03:27.000Z</time>
      </trkpt>
      <trkpt lat="42.669592" lon="0.651341">
        <ele>2130</ele>
        <time>1970-01-01T00:03:28.000Z</time>
      </trkpt>
      <trkpt lat="42.669589" lon="0.651345">
        <ele>2129.9</ele>
        <time>1970-01-01T00:03:29.000Z</time>
      </trkpt>
      <trkpt lat="42.669576" lon="0.651348">
        <ele>2129.7</ele>
        <time>1970-01-01T00:03:30.000Z</time>
      </trkpt>
      <trkpt lat="42.669568" lon="0.651352">
        <ele>2129.5</ele>
        <time>1970-01-01T00:03:32.000Z</time>
      </trkpt>
      <trkpt lat="42.669564" lon="0.651361">
        <ele>2129.4</ele>
        <time>1970-01-01T00:03:34.000Z</time>
      </trkpt>
      <trkpt lat="42.669558" lon="0.651371">
        <ele>2129.2</ele>
        <time>1970-01-01T00:03:35.000Z</time>
      </trkpt>
      <trkpt lat="42.669553" lon="0.651379">
        <ele>2129.1</ele>
        <time>1970-01-01T00:03:36.000Z</time>
      </trkpt>
      <trkpt lat="42.669545" lon="0.651387">
        <ele>2128.9</ele>
        <time>1970-01-01T00:03:38.000Z</time>
      </trkpt>
      <trkpt lat="42.669543" lon="0.651391">
        <ele>2128.8</ele>
        <time>1970-01-01T00:03:39.000Z</time>
      </trkpt>
      <trkpt lat="42.669539" lon="0.651401">
        <ele>2128.6</ele>
        <time>1970-01-01T00:03:40.000Z</time>
      </trkpt>
      <trkpt lat="42.669537" lon="0.651407">
        <ele>2128.6</ele>
        <time>1970-01-01T00:03:41.000Z</time>
      </trkpt>
      <trkpt lat="42.669536" lon="0.651416">
        <ele>2128.4</ele>
        <time>1970-01-01T00:03:42.000Z</time>
      </trkpt>
      <trkpt lat="42.669532" lon="0.651427">
        <ele>2128.3</ele>
        <time>1970-01-01T00:03:43.000Z</time>
      </trkpt>
      <trkpt lat="42.669526" lon="0.651437">
        <ele>2128.1</ele>
        <time>1970-01-01T00:03:44.000Z</time>
      </trkpt>
      <trkpt lat="42.669519" lon="0.651444">
        <ele>2127.9</ele>
        <time>1970-01-01T00:03:45.000Z</time>
      </trkpt>
      <trkpt lat="42.669511" lon="0.651454">
        <ele>2127.7</ele>
        <time>1970-01-01T00:03:47.000Z</time>
      </trkpt>
      <trkpt lat="42.669501" lon="0.651465">
        <ele>2127.5</ele>
        <time>1970-01-01T00:03:48.000Z</time>
      </trkpt>
      <trkpt lat="42.669489" lon="0.651475">
        <ele>2127.2</ele>
        <time>1970-01-01T00:03:50.000Z</time>
      </trkpt>
      <trkpt lat="42.669479" lon="0.651476">
        <ele>2127</ele>
        <time>1970-01-01T00:03:52.000Z</time>
      </trkpt>
      <trkpt lat="42.669478" lon="0.651473">
        <ele>2127</ele>
        <time>1970-01-01T00:03:53.000Z</time>
      </trkpt>
      <trkpt lat="42.669475" lon="0.651474">
        <ele>2126.9</ele>
        <time>1970-01-01T00:03:54.000Z</time>
      </trkpt>
      <trkpt lat="42.669482" lon="0.65147">
        <ele>2126.8</ele>
        <time>1970-01-01T00:03:56.000Z</time>
      </trkpt>
      <trkpt lat="42.669485" lon="0.651471">
        <ele>2126.7</ele>
        <time>1970-01-01T00:03:57.000Z</time>
      </trkpt>
      <trkpt lat="42.669486" lon="0.651474">
        <ele>2126.7</ele>
        <time>1970-01-01T00:03:58.000Z</time>
      </trkpt>
      <trkpt lat="42.669483" lon="0.651478">
        <ele>2126.6</ele>
        <time>1970-01-01T00:03:59.000Z</time>
      </trkpt>
      <trkpt lat="42.669478" lon="0.651486">
        <ele>2126.4</ele>
        <time>1970-01-01T00:04:00.000Z</time>
      </trkpt>
      <trkpt lat="42.669474" lon="0.651494">
        <ele>2126.3</ele>
        <time>1970-01-01T00:04:01.000Z</time>
      </trkpt>
      <trkpt lat="42.669469" lon="0.651511">
        <ele>2126</ele>
        <time>1970-01-01T00:04:03.000Z</time>
      </trkpt>
      <trkpt lat="42.669466" lon="0.651516">
        <ele>2126</ele>
        <time>1970-01-01T00:04:04.000Z</time>
      </trkpt>
      <trkpt lat="42.669461" lon="0.651521">
        <ele>2125.9</ele>
        <time>1970-01-01T00:04:05.000Z</time>
      </trkpt>
      <trkpt lat="42.669454" lon="0.65153">
        <ele>2125.7</ele>
        <time>1970-01-01T00:04:06.000Z</time>
      </trkpt>
      <trkpt lat="42.669448" lon="0.65154">
        <ele>2125.5</ele>
        <time>1970-01-01T00:04:07.000Z</time>
      </trkpt>
      <trkpt lat="42.669443" lon="0.651548">
        <ele>2125.4</ele>
        <time>1970-01-01T00:04:08.000Z</time>
      </trkpt>
      <trkpt lat="42.669439" lon="0.651556">
        <ele>2125.3</ele>
        <time>1970-01-01T00:04:09.000Z</time>
      </trkpt>
      <trkpt lat="42.669436" lon="0.65156">
        <ele>2125.2</ele>
        <time>1970-01-01T00:04:11.000Z</time>
      </trkpt>
      <trkpt lat="42.669432" lon="0.651566">
        <ele>2125.1</ele>
        <time>1970-01-01T00:04:12.000Z</time>
      </trkpt>
      <trkpt lat="42.669426" lon="0.651574">
        <ele>2125</ele>
        <time>1970-01-01T00:04:13.000Z</time>
      </trkpt>
      <trkpt lat="42.669422" lon="0.651582">
        <ele>2124.8</ele>
        <time>1970-01-01T00:04:14.000Z</time>
      </trkpt>
      <trkpt lat="42.669419" lon="0.651588">
        <ele>2124.8</ele>
        <time>1970-01-01T00:04:15.000Z</time>
      </trkpt>
      <trkpt lat="42.669417" lon="0.651598">
        <ele>2124.6</ele>
        <time>1970-01-01T00:04:16.000Z</time>
      </trkpt>
      <trkpt lat="42.669413" lon="0.651613">
        <ele>2124.5</ele>
        <time>1970-01-01T00:04:18.000Z</time>
      </trkpt>
      <trkpt lat="42.669415" lon="0.651618">
        <ele>2124.4</ele>
        <time>1970-01-01T00:04:19.000Z</time>
      </trkpt>
      <trkpt lat="42.669415" lon="0.65163">
        <ele>2124.2</ele>
        <time>1970-01-01T00:04:20.000Z</time>
      </trkpt>
      <trkpt lat="42.669417" lon="0.651646">
        <ele>2124.1</ele>
        <time>1970-01-01T00:04:21.000Z</time>
      </trkpt>
      <trkpt lat="42.669427" lon="0.651654">
        <ele>2123.9</ele>
        <time>1970-01-01T00:04:23.000Z</time>
      </trkpt>
      <trkpt lat="42.669433" lon="0.651659">
        <ele>2123.8</ele>
        <time>1970-01-01T00:04:25.000Z</time>
      </trkpt>
      <trkpt lat="42.669435" lon="0.651669">
        <ele>2123.6</ele>
        <time>1970-01-01T00:04:26.000Z</time>
      </trkpt>
      <trkpt lat="42.66944" lon="0.651678">
        <ele>2123.5</ele>
        <time>1970-01-01T00:04:27.000Z</time>
      </trkpt>
      <trkpt lat="42.669443" lon="0.651685">
        <ele>2123.4</ele>
        <time>1970-01-01T00:04:28.000Z</time>
      </trkpt>
      <trkpt lat="42.669445" lon="0.651693">
        <ele>2123.3</ele>
        <time>1970-01-01T00:04:29.000Z</time>
      </trkpt>
      <trkpt lat="42.669448" lon="0.651705">
        <ele>2123.2</ele>
        <time>1970-01-01T00:04:30.000Z</time>
      </trkpt>
      <trkpt lat="42.669455" lon="0.651714">
        <ele>2123</ele>
        <time>1970-01-01T00:04:31.000Z</time>
      </trkpt>
      <trkpt lat="42.669463" lon="0.651724">
        <ele>2122.8</ele>
        <time>1970-01-01T00:04:32.000Z</time>
      </trkpt>
      <trkpt lat="42.669469" lon="0.651732">
        <ele>2122.7</ele>
        <time>1970-01-01T00:04:33.000Z</time>
      </trkpt>
      <trkpt lat="42.669477" lon="0.651743">
        <ele>2122.5</ele>
        <time>1970-01-01T00:04:34.000Z</time>
      </trkpt>
      <trkpt lat="42.669484" lon="0.651755">
        <ele>2122.3</ele>
        <time>1970-01-01T00:04:35.000Z</time>
      </trkpt>
      <trkpt lat="42.66949" lon="0.65177">
        <ele>2122.1</ele>
        <time>1970-01-01T00:04:36.000Z</time>
      </trkpt>
      <trkpt lat="42.669496" lon="0.651788">
        <ele>2121.9</ele>
        <time>1970-01-01T00:04:37.000Z</time>
      </trkpt>
      <trkpt lat="42.669499" lon="0.651803">
        <ele>2121.7</ele>
        <time>1970-01-01T00:04:39.000Z</time>
      </trkpt>
      <trkpt lat="42.6695" lon="0.651825">
        <ele>2121.4</ele>
        <time>1970-01-01T00:04:40.000Z</time>
      </trkpt>
      <trkpt lat="42.669504" lon="0.651839">
        <ele>2121.2</ele>
        <time>1970-01-01T00:04:41.000Z</time>
      </trkpt>
      <trkpt lat="42.669508" lon="0.651847">
        <ele>2121.1</ele>
        <time>1970-01-01T00:04:42.000Z</time>
      </trkpt>
      <trkpt lat="42.669517" lon="0.651861">
        <ele>2120.9</ele>
        <time>1970-01-01T00:04:44.000Z</time>
      </trkpt>
      <trkpt lat="42.669526" lon="0.651872">
        <ele>2120.7</ele>
        <time>1970-01-01T00:04:45.000Z</time>
      </trkpt>
      <trkpt lat="42.669534" lon="0.651879">
        <ele>2120.5</ele>
        <time>1970-01-01T00:04:46.000Z</time>
      </trkpt>
      <trkpt lat="42.669544" lon="0.651884">
        <ele>2120.3</ele>
        <time>1970-01-01T00:04:47.000Z</time>
      </trkpt>
      <trkpt lat="42.669555" lon="0.651888">
        <ele>2120.1</ele>
        <time>1970-01-01T00:04:49.000Z</time>
      </trkpt>
      <trkpt lat="42.669565" lon="0.651895">
        <ele>2119.9</ele>
        <time>1970-01-01T00:04:50.000Z</time>
      </trkpt>
      <trkpt lat="42.669573" lon="0.651902">
        <ele>2119.8</ele>
        <time>1970-01-01T00:04:51.000Z</time>
      </trkpt>
      <trkpt lat="42.669582" lon="0.651923">
        <ele>2119.5</ele>
        <time>1970-01-01T00:04:52.000Z</time>
      </trkpt>
      <trkpt lat="42.669584" lon="0.651935">
        <ele>2119.4</ele>
        <time>1970-01-01T00:04:54.000Z</time>
      </trkpt>
      <trkpt lat="42.669586" lon="0.651947">
        <ele>2119.2</ele>
        <time>1970-01-01T00:04:55.000Z</time>
      </trkpt>
      <trkpt lat="42.6696" lon="0.651978">
        <ele>2118.9</ele>
        <time>1970-01-01T00:04:57.000Z</time>
      </trkpt>
      <trkpt lat="42.669608" lon="0.651988">
        <ele>2118.7</ele>
        <time>1970-01-01T00:04:59.000Z</time>
      </trkpt>
      <trkpt lat="42.669616" lon="0.651999">
        <ele>2118.6</ele>
        <time>1970-01-01T00:05:01.000Z</time>
      </trkpt>
      <trkpt lat="42.669624" lon="0.652009">
        <ele>2118.5</ele>
        <time>1970-01-01T00:05:02.000Z</time>
      </trkpt>
      <trkpt lat="42.669632" lon="0.65202">
        <ele>2118.3</ele>
        <time>1970-01-01T00:05:03.000Z</time>
      </trkpt>
      <trkpt lat="42.669644" lon="0.65203">
        <ele>2118.2</ele>
        <time>1970-01-01T00:05:04.000Z</time>
      </trkpt>
      <trkpt lat="42.669651" lon="0.652034">
        <ele>2118.1</ele>
        <time>1970-01-01T00:05:05.000Z</time>
      </trkpt>
      <trkpt lat="42.669659" lon="0.652038">
        <ele>2118.1</ele>
        <time>1970-01-01T00:05:07.000Z</time>
      </trkpt>
      <trkpt lat="42.669666" lon="0.652042">
        <ele>2118</ele>
        <time>1970-01-01T00:05:08.000Z</time>
      </trkpt>
      <trkpt lat="42.669678" lon="0.652041">
        <ele>2117.9</ele>
        <time>1970-01-01T00:05:09.000Z</time>
      </trkpt>
      <trkpt lat="42.669686" lon="0.65204">
        <ele>2117.8</ele>
        <time>1970-01-01T00:05:10.000Z</time>
      </trkpt>
      <trkpt lat="42.669698" lon="0.652039">
        <ele>2117.8</ele>
        <time>1970-01-01T00:05:12.000Z</time>
      </trkpt>
      <trkpt lat="42.669713" lon="0.652033">
        <ele>2117.7</ele>
        <time>1970-01-01T00:05:14.000Z</time>
      </trkpt>
      <trkpt lat="42.669724" lon="0.65202">
        <ele>2117.6</ele>
        <time>1970-01-01T00:05:15.000Z</time>
      </trkpt>
      <trkpt lat="42.669731" lon="0.65201">
        <ele>2117.6</ele>
        <time>1970-01-01T00:05:16.000Z</time>
      </trkpt>
      <trkpt lat="42.669737" lon="0.652003">
        <ele>2117.5</ele>
        <time>1970-01-01T00:05:17.000Z</time>
      </trkpt>
      <trkpt lat="42.669757" lon="0.652003">
        <ele>2117.5</ele>
        <time>1970-01-01T00:05:18.000Z</time>
      </trkpt>
      <trkpt lat="42.669769" lon="0.652012">
        <ele>2117.4</ele>
        <time>1970-01-01T00:05:20.000Z</time>
      </trkpt>
      <trkpt lat="42.669779" lon="0.652019">
        <ele>2117.4</ele>
        <time>1970-01-01T00:05:21.000Z</time>
      </trkpt>
      <trkpt lat="42.669791" lon="0.65202">
        <ele>2117.4</ele>
        <time>1970-01-01T00:05:22.000Z</time>
      </trkpt>
      <trkpt lat="42.669802" lon="0.652024">
        <ele>2117.3</ele>
        <time>1970-01-01T00:05:24.000Z</time>
      </trkpt>
      <trkpt lat="42.669811" lon="0.652029">
        <ele>2117.3</ele>
        <time>1970-01-01T00:05:25.000Z</time>
      </trkpt>
      <trkpt lat="42.669822" lon="0.652039">
        <ele>2117.3</ele>
        <time>1970-01-01T00:05:26.000Z</time>
      </trkpt>
      <trkpt lat="42.669828" lon="0.652049">
        <ele>2117.3</ele>
        <time>1970-01-01T00:05:27.000Z</time>
      </trkpt>
      <trkpt lat="42.669836" lon="0.652054">
        <ele>2117.2</ele>
        <time>1970-01-01T00:05:29.000Z</time>
      </trkpt>
      <trkpt lat="42.669848" lon="0.652057">
        <ele>2117.2</ele>
        <time>1970-01-01T00:05:30.000Z</time>
      </trkpt>
      <trkpt lat="42.669857" lon="0.652061">
        <ele>2117.2</ele>
        <time>1970-01-01T00:05:31.000Z</time>
      </trkpt>
      <trkpt lat="42.669871" lon="0.652072">
        <ele>2117.2</ele>
        <time>1970-01-01T00:05:32.000Z</time>
      </trkpt>
      <trkpt lat="42.669881" lon="0.65208">
        <ele>2117.1</ele>
        <time>1970-01-01T00:05:34.000Z</time>
      </trkpt>
      <trkpt lat="42.669897" lon="0.652103">
        <ele>2117.1</ele>
        <time>1970-01-01T00:05:35.000Z</time>
      </trkpt>
      <trkpt lat="42.669902" lon="0.65211">
        <ele>2117</ele>
        <time>1970-01-01T00:05:36.000Z</time>
      </trkpt>
      <trkpt lat="42.669907" lon="0.652118">
        <ele>2117</ele>
        <time>1970-01-01T00:05:37.000Z</time>
      </trkpt>
      <trkpt lat="42.669914" lon="0.652133">
        <ele>2117</ele>
        <time>1970-01-01T00:05:38.000Z</time>
      </trkpt>
      <trkpt lat="42.669921" lon="0.652148">
        <ele>2116.9</ele>
        <time>1970-01-01T00:05:39.000Z</time>
      </trkpt>
      <trkpt lat="42.669928" lon="0.652164">
        <ele>2116.9</ele>
        <time>1970-01-01T00:05:41.000Z</time>
      </trkpt>
      <trkpt lat="42.669936" lon="0.652173">
        <ele>2116.8</ele>
        <time>1970-01-01T00:05:42.000Z</time>
      </trkpt>
      <trkpt lat="42.669942" lon="0.652182">
        <ele>2116.8</ele>
        <time>1970-01-01T00:05:43.000Z</time>
      </trkpt>
      <trkpt lat="42.669946" lon="0.652192">
        <ele>2116.7</ele>
        <time>1970-01-01T00:05:44.000Z</time>
      </trkpt>
      <trkpt lat="42.669947" lon="0.652205">
        <ele>2116.7</ele>
        <time>1970-01-01T00:05:45.000Z</time>
      </trkpt>
      <trkpt lat="42.669951" lon="0.652219">
        <ele>2116.6</ele>
        <time>1970-01-01T00:05:46.000Z</time>
      </trkpt>
      <trkpt lat="42.669954" lon="0.652233">
        <ele>2116.5</ele>
        <time>1970-01-01T00:05:47.000Z</time>
      </trkpt>
      <trkpt lat="42.669966" lon="0.65226">
        <ele>2116.4</ele>
        <time>1970-01-01T00:05:48.000Z</time>
      </trkpt>
      <trkpt lat="42.669972" lon="0.65227">
        <ele>2116.3</ele>
        <time>1970-01-01T00:05:50.000Z</time>
      </trkpt>
      <trkpt lat="42.669979" lon="0.652281">
        <ele>2116.3</ele>
        <time>1970-01-01T00:05:51.000Z</time>
      </trkpt>
      <trkpt lat="42.670001" lon="0.652305">
        <ele>2116.1</ele>
        <time>1970-01-01T00:05:52.000Z</time>
      </trkpt>
      <trkpt lat="42.670008" lon="0.652315">
        <ele>2116</ele>
        <time>1970-01-01T00:05:54.000Z</time>
      </trkpt>
      <trkpt lat="42.670015" lon="0.652326">
        <ele>2116</ele>
        <time>1970-01-01T00:05:55.000Z</time>
      </trkpt>
      <trkpt lat="42.670022" lon="0.652336">
        <ele>2115.9</ele>
        <time>1970-01-01T00:05:56.000Z</time>
      </trkpt>
      <trkpt lat="42.670029" lon="0.652346">
        <ele>2115.8</ele>
        <time>1970-01-01T00:05:57.000Z</time>
      </trkpt>
      <trkpt lat="42.670028" lon="0.652364">
        <ele>2115.7</ele>
        <time>1970-01-01T00:05:59.000Z</time>
      </trkpt>
      <trkpt lat="42.670033" lon="0.652373">
        <ele>2115.7</ele>
        <time>1970-01-01T00:06:00.000Z</time>
      </trkpt>
      <trkpt lat="42.670038" lon="0.652384">
        <ele>2115.6</ele>
        <time>1970-01-01T00:06:02.000Z</time>
      </trkpt>
      <trkpt lat="42.670045" lon="0.652398">
        <ele>2115.5</ele>
        <time>1970-01-01T00:06:03.000Z</time>
      </trkpt>
      <trkpt lat="42.670052" lon="0.652408">
        <ele>2115.4</ele>
        <time>1970-01-01T00:06:04.000Z</time>
      </trkpt>
      <trkpt lat="42.670055" lon="0.65242">
        <ele>2115.3</ele>
        <time>1970-01-01T00:06:06.000Z</time>
      </trkpt>
      <trkpt lat="42.670061" lon="0.652432">
        <ele>2115.2</ele>
        <time>1970-01-01T00:06:07.000Z</time>
      </trkpt>
      <trkpt lat="42.670072" lon="0.652439">
        <ele>2115.1</ele>
        <time>1970-01-01T00:06:08.000Z</time>
      </trkpt>
      <trkpt lat="42.670084" lon="0.65244">
        <ele>2115</ele>
        <time>1970-01-01T00:06:09.000Z</time>
      </trkpt>
      <trkpt lat="42.670094" lon="0.652443">
        <ele>2114.9</ele>
        <time>1970-01-01T00:06:11.000Z</time>
      </trkpt>
      <trkpt lat="42.670101" lon="0.652455">
        <ele>2114.8</ele>
        <time>1970-01-01T00:06:12.000Z</time>
      </trkpt>
      <trkpt lat="42.670103" lon="0.652475">
        <ele>2114.6</ele>
        <time>1970-01-01T00:06:13.000Z</time>
      </trkpt>
      <trkpt lat="42.670101" lon="0.652491">
        <ele>2114.5</ele>
        <time>1970-01-01T00:06:15.000Z</time>
      </trkpt>
      <trkpt lat="42.670097" lon="0.652502">
        <ele>2114.4</ele>
        <time>1970-01-01T00:06:16.000Z</time>
      </trkpt>
      <trkpt lat="42.670093" lon="0.652513">
        <ele>2114.2</ele>
        <time>1970-01-01T00:06:17.000Z</time>
      </trkpt>
      <trkpt lat="42.670089" lon="0.652527">
        <ele>2114.1</ele>
        <time>1970-01-01T00:06:19.000Z</time>
      </trkpt>
      <trkpt lat="42.670091" lon="0.652544">
        <ele>2113.9</ele>
        <time>1970-01-01T00:06:20.000Z</time>
      </trkpt>
      <trkpt lat="42.670093" lon="0.652554">
        <ele>2113.8</ele>
        <time>1970-01-01T00:06:21.000Z</time>
      </trkpt>
      <trkpt lat="42.670092" lon="0.652566">
        <ele>2113.7</ele>
        <time>1970-01-01T00:06:22.000Z</time>
      </trkpt>
      <trkpt lat="42.670093" lon="0.652579">
        <ele>2113.5</ele>
        <time>1970-01-01T00:06:23.000Z</time>
      </trkpt>
      <trkpt lat="42.670098" lon="0.65259">
        <ele>2113.4</ele>
        <time>1970-01-01T00:06:25.000Z</time>
      </trkpt>
      <trkpt lat="42.670104" lon="0.6526">
        <ele>2113.2</ele>
        <time>1970-01-01T00:06:26.000Z</time>
      </trkpt>
      <trkpt lat="42.67011" lon="0.652609">
        <ele>2113.1</ele>
        <time>1970-01-01T00:06:27.000Z</time>
      </trkpt>
      <trkpt lat="42.670112" lon="0.652618">
        <ele>2112.9</ele>
        <time>1970-01-01T00:06:28.000Z</time>
      </trkpt>
      <trkpt lat="42.670114" lon="0.652628">
        <ele>2112.8</ele>
        <time>1970-01-01T00:06:29.000Z</time>
      </trkpt>
      <trkpt lat="42.670117" lon="0.652641">
        <ele>2112.6</ele>
        <time>1970-01-01T00:06:30.000Z</time>
      </trkpt>
      <trkpt lat="42.670118" lon="0.652652">
        <ele>2112.5</ele>
        <time>1970-01-01T00:06:31.000Z</time>
      </trkpt>
      <trkpt lat="42.670121" lon="0.652664">
        <ele>2112.3</ele>
        <time>1970-01-01T00:06:32.000Z</time>
      </trkpt>
      <trkpt lat="42.670126" lon="0.652677">
        <ele>2112.1</ele>
        <time>1970-01-01T00:06:33.000Z</time>
      </trkpt>
      <trkpt lat="42.670138" lon="0.652693">
        <ele>2111.8</ele>
        <time>1970-01-01T00:06:35.000Z</time>
      </trkpt>
      <trkpt lat="42.670145" lon="0.652705">
        <ele>2111.6</ele>
        <time>1970-01-01T00:06:36.000Z</time>
      </trkpt>
      <trkpt lat="42.670155" lon="0.652725">
        <ele>2111.2</ele>
        <time>1970-01-01T00:06:38.000Z</time>
      </trkpt>
      <trkpt lat="42.670163" lon="0.652737">
        <ele>2111</ele>
        <time>1970-01-01T00:06:39.000Z</time>
      </trkpt>
      <trkpt lat="42.670174" lon="0.652746">
        <ele>2110.8</ele>
        <time>1970-01-01T00:06:40.000Z</time>
      </trkpt>
      <trkpt lat="42.670184" lon="0.652754">
        <ele>2110.5</ele>
        <time>1970-01-01T00:06:41.000Z</time>
      </trkpt>
      <trkpt lat="42.670192" lon="0.652764">
        <ele>2110.3</ele>
        <time>1970-01-01T00:06:43.000Z</time>
      </trkpt>
      <trkpt lat="42.670195" lon="0.652776">
        <ele>2110.2</ele>
        <time>1970-01-01T00:06:44.000Z</time>
      </trkpt>
      <trkpt lat="42.670197" lon="0.652787">
        <ele>2110</ele>
        <time>1970-01-01T00:06:45.000Z</time>
      </trkpt>
      <trkpt lat="42.670202" lon="0.652798">
        <ele>2109.8</ele>
        <time>1970-01-01T00:06:46.000Z</time>
      </trkpt>
      <trkpt lat="42.670208" lon="0.652808">
        <ele>2109.6</ele>
        <time>1970-01-01T00:06:47.000Z</time>
      </trkpt>
      <trkpt lat="42.670216" lon="0.652814">
        <ele>2109.5</ele>
        <time>1970-01-01T00:06:48.000Z</time>
      </trkpt>
      <trkpt lat="42.670226" lon="0.65282">
        <ele>2109.3</ele>
        <time>1970-01-01T00:06:49.000Z</time>
      </trkpt>
      <trkpt lat="42.67024" lon="0.652825">
        <ele>2109</ele>
        <time>1970-01-01T00:06:51.000Z</time>
      </trkpt>
      <trkpt lat="42.67025" lon="0.652826">
        <ele>2108.8</ele>
        <time>1970-01-01T00:06:52.000Z</time>
      </trkpt>
      <trkpt lat="42.670256" lon="0.652828">
        <ele>2108.7</ele>
        <time>1970-01-01T00:06:53.000Z</time>
      </trkpt>
      <trkpt lat="42.670269" lon="0.652833">
        <ele>2108.4</ele>
        <time>1970-01-01T00:06:55.000Z</time>
      </trkpt>
      <trkpt lat="42.670282" lon="0.652834">
        <ele>2108.2</ele>
        <time>1970-01-01T00:06:56.000Z</time>
      </trkpt>
      <trkpt lat="42.670289" lon="0.652834">
        <ele>2108.1</ele>
        <time>1970-01-01T00:06:57.000Z</time>
      </trkpt>
      <trkpt lat="42.670303" lon="0.652834">
        <ele>2107.8</ele>
        <time>1970-01-01T00:06:59.000Z</time>
      </trkpt>
      <trkpt lat="42.670316" lon="0.652841">
        <ele>2107.5</ele>
        <time>1970-01-01T00:07:00.000Z</time>
      </trkpt>
      <trkpt lat="42.670327" lon="0.652848">
        <ele>2107.3</ele>
        <time>1970-01-01T00:07:02.000Z</time>
      </trkpt>
      <trkpt lat="42.670336" lon="0.652854">
        <ele>2107.1</ele>
        <time>1970-01-01T00:07:03.000Z</time>
      </trkpt>
      <trkpt lat="42.670346" lon="0.652865">
        <ele>2106.9</ele>
        <time>1970-01-01T00:07:04.000Z</time>
      </trkpt>
      <trkpt lat="42.670349" lon="0.65287">
        <ele>2106.8</ele>
        <time>1970-01-01T00:07:05.000Z</time>
      </trkpt>
      <trkpt lat="42.670357" lon="0.652876">
        <ele>2106.6</ele>
        <time>1970-01-01T00:07:07.000Z</time>
      </trkpt>
      <trkpt lat="42.670366" lon="0.65288">
        <ele>2106.5</ele>
        <time>1970-01-01T00:07:08.000Z</time>
      </trkpt>
      <trkpt lat="42.670377" lon="0.652886">
        <ele>2106.2</ele>
        <time>1970-01-01T00:07:09.000Z</time>
      </trkpt>
      <trkpt lat="42.670388" lon="0.652891">
        <ele>2106</ele>
        <time>1970-01-01T00:07:10.000Z</time>
      </trkpt>
      <trkpt lat="42.670401" lon="0.652897">
        <ele>2105.7</ele>
        <time>1970-01-01T00:07:12.000Z</time>
      </trkpt>
      <trkpt lat="42.670407" lon="0.652897">
        <ele>2105.6</ele>
        <time>1970-01-01T00:07:13.000Z</time>
      </trkpt>
      <trkpt lat="42.670411" lon="0.652894">
        <ele>2105.5</ele>
        <time>1970-01-01T00:07:14.000Z</time>
      </trkpt>
      <trkpt lat="42.670417" lon="0.652883">
        <ele>2105.3</ele>
        <time>1970-01-01T00:07:16.000Z</time>
      </trkpt>
      <trkpt lat="42.670422" lon="0.652874">
        <ele>2105.2</ele>
        <time>1970-01-01T00:07:17.000Z</time>
      </trkpt>
      <trkpt lat="42.670423" lon="0.652867">
        <ele>2105.1</ele>
        <time>1970-01-01T00:07:18.000Z</time>
      </trkpt>
      <trkpt lat="42.670421" lon="0.652856">
        <ele>2104.9</ele>
        <time>1970-01-01T00:07:19.000Z</time>
      </trkpt>
      <trkpt lat="42.670417" lon="0.652844">
        <ele>2104.7</ele>
        <time>1970-01-01T00:07:20.000Z</time>
      </trkpt>
      <trkpt lat="42.670413" lon="0.65283">
        <ele>2104.5</ele>
        <time>1970-01-01T00:07:21.000Z</time>
      </trkpt>
      <trkpt lat="42.670409" lon="0.652814">
        <ele>2104.3</ele>
        <time>1970-01-01T00:07:23.000Z</time>
      </trkpt>
      <trkpt lat="42.670404" lon="0.652791">
        <ele>2103.9</ele>
        <time>1970-01-01T00:07:24.000Z</time>
      </trkpt>
      <trkpt lat="42.670403" lon="0.652766">
        <ele>2103.6</ele>
        <time>1970-01-01T00:07:25.000Z</time>
      </trkpt>
      <trkpt lat="42.670401" lon="0.652743">
        <ele>2103.2</ele>
        <time>1970-01-01T00:07:26.000Z</time>
      </trkpt>
      <trkpt lat="42.670407" lon="0.652726">
        <ele>2103</ele>
        <time>1970-01-01T00:07:28.000Z</time>
      </trkpt>
      <trkpt lat="42.670423" lon="0.652719">
        <ele>2102.7</ele>
        <time>1970-01-01T00:07:29.000Z</time>
      </trkpt>
      <trkpt lat="42.670435" lon="0.652721">
        <ele>2102.4</ele>
        <time>1970-01-01T00:07:30.000Z</time>
      </trkpt>
      <trkpt lat="42.670447" lon="0.652725">
        <ele>2102.2</ele>
        <time>1970-01-01T00:07:31.000Z</time>
      </trkpt>
      <trkpt lat="42.670456" lon="0.652731">
        <ele>2102</ele>
        <time>1970-01-01T00:07:32.000Z</time>
      </trkpt>
      <trkpt lat="42.670468" lon="0.652736">
        <ele>2101.7</ele>
        <time>1970-01-01T00:07:34.000Z</time>
      </trkpt>
      <trkpt lat="42.670477" lon="0.65274">
        <ele>2101.6</ele>
        <time>1970-01-01T00:07:35.000Z</time>
      </trkpt>
      <trkpt lat="42.670483" lon="0.652749">
        <ele>2101.4</ele>
        <time>1970-01-01T00:07:36.000Z</time>
      </trkpt>
      <trkpt lat="42.670488" lon="0.652762">
        <ele>2101.2</ele>
        <time>1970-01-01T00:07:37.000Z</time>
      </trkpt>
      <trkpt lat="42.670495" lon="0.652771">
        <ele>2101</ele>
        <time>1970-01-01T00:07:38.000Z</time>
      </trkpt>
      <trkpt lat="42.670502" lon="0.652777">
        <ele>2100.8</ele>
        <time>1970-01-01T00:07:39.000Z</time>
      </trkpt>
      <trkpt lat="42.670507" lon="0.652782">
        <ele>2100.7</ele>
        <time>1970-01-01T00:07:40.000Z</time>
      </trkpt>
      <trkpt lat="42.670512" lon="0.652786">
        <ele>2100.6</ele>
        <time>1970-01-01T00:07:41.000Z</time>
      </trkpt>
      <trkpt lat="42.67052" lon="0.65279">
        <ele>2100.4</ele>
        <time>1970-01-01T00:07:42.000Z</time>
      </trkpt>
      <trkpt lat="42.670527" lon="0.652794">
        <ele>2100.3</ele>
        <time>1970-01-01T00:07:44.000Z</time>
      </trkpt>
      <trkpt lat="42.670532" lon="0.652799">
        <ele>2100.2</ele>
        <time>1970-01-01T00:07:45.000Z</time>
      </trkpt>
      <trkpt lat="42.670537" lon="0.652801">
        <ele>2100.1</ele>
        <time>1970-01-01T00:07:46.000Z</time>
      </trkpt>
      <trkpt lat="42.670543" lon="0.652801">
        <ele>2099.9</ele>
        <time>1970-01-01T00:07:47.000Z</time>
      </trkpt>
      <trkpt lat="42.670549" lon="0.652804">
        <ele>2099.8</ele>
        <time>1970-01-01T00:07:48.000Z</time>
      </trkpt>
      <trkpt lat="42.67056" lon="0.652808">
        <ele>2099.6</ele>
        <time>1970-01-01T00:07:50.000Z</time>
      </trkpt>
      <trkpt lat="42.670569" lon="0.652814">
        <ele>2099.4</ele>
        <time>1970-01-01T00:07:51.000Z</time>
      </trkpt>
      <trkpt lat="42.670578" lon="0.652818">
        <ele>2099.2</ele>
        <time>1970-01-01T00:07:53.000Z</time>
      </trkpt>
      <trkpt lat="42.670586" lon="0.652822">
        <ele>2099</ele>
        <time>1970-01-01T00:07:54.000Z</time>
      </trkpt>
      <trkpt lat="42.670599" lon="0.652835">
        <ele>2098.7</ele>
        <time>1970-01-01T00:07:55.000Z</time>
      </trkpt>
      <trkpt lat="42.670604" lon="0.652841">
        <ele>2098.6</ele>
        <time>1970-01-01T00:07:56.000Z</time>
      </trkpt>
      <trkpt lat="42.67061" lon="0.652848">
        <ele>2098.4</ele>
        <time>1970-01-01T00:07:57.000Z</time>
      </trkpt>
      <trkpt lat="42.670615" lon="0.652854">
        <ele>2098.3</ele>
        <time>1970-01-01T00:07:58.000Z</time>
      </trkpt>
      <trkpt lat="42.670622" lon="0.652863">
        <ele>2098.1</ele>
        <time>1970-01-01T00:07:59.000Z</time>
      </trkpt>
      <trkpt lat="42.670633" lon="0.65287">
        <ele>2097.8</ele>
        <time>1970-01-01T00:08:01.000Z</time>
      </trkpt>
      <trkpt lat="42.670643" lon="0.652877">
        <ele>2097.6</ele>
        <time>1970-01-01T00:08:02.000Z</time>
      </trkpt>
      <trkpt lat="42.670653" lon="0.652884">
        <ele>2097.3</ele>
        <time>1970-01-01T00:08:03.000Z</time>
      </trkpt>
      <trkpt lat="42.670661" lon="0.652891">
        <ele>2097.1</ele>
        <time>1970-01-01T00:08:04.000Z</time>
      </trkpt>
      <trkpt lat="42.670669" lon="0.652892">
        <ele>2097</ele>
        <time>1970-01-01T00:08:05.000Z</time>
      </trkpt>
      <trkpt lat="42.670676" lon="0.65289">
        <ele>2096.8</ele>
        <time>1970-01-01T00:08:06.000Z</time>
      </trkpt>
      <trkpt lat="42.670686" lon="0.652884">
        <ele>2096.6</ele>
        <time>1970-01-01T00:08:07.000Z</time>
      </trkpt>
      <trkpt lat="42.670692" lon="0.652879">
        <ele>2096.4</ele>
        <time>1970-01-01T00:08:09.000Z</time>
      </trkpt>
      <trkpt lat="42.6707" lon="0.652877">
        <ele>2096.3</ele>
        <time>1970-01-01T00:08:10.000Z</time>
      </trkpt>
      <trkpt lat="42.670707" lon="0.65288">
        <ele>2096.1</ele>
        <time>1970-01-01T00:08:12.000Z</time>
      </trkpt>
      <trkpt lat="42.670711" lon="0.652882">
        <ele>2096</ele>
        <time>1970-01-01T00:08:13.000Z</time>
      </trkpt>
      <trkpt lat="42.670715" lon="0.652884">
        <ele>2095.9</ele>
        <time>1970-01-01T00:08:14.000Z</time>
      </trkpt>
      <trkpt lat="42.670722" lon="0.652885">
        <ele>2095.8</ele>
        <time>1970-01-01T00:08:15.000Z</time>
      </trkpt>
      <trkpt lat="42.670728" lon="0.652886">
        <ele>2095.6</ele>
        <time>1970-01-01T00:08:16.000Z</time>
      </trkpt>
      <trkpt lat="42.670737" lon="0.652888">
        <ele>2095.4</ele>
        <time>1970-01-01T00:08:18.000Z</time>
      </trkpt>
      <trkpt lat="42.670746" lon="0.652893">
        <ele>2095.2</ele>
        <time>1970-01-01T00:08:19.000Z</time>
      </trkpt>
      <trkpt lat="42.670755" lon="0.652897">
        <ele>2095</ele>
        <time>1970-01-01T00:08:20.000Z</time>
      </trkpt>
      <trkpt lat="42.670764" lon="0.652901">
        <ele>2094.8</ele>
        <time>1970-01-01T00:08:21.000Z</time>
      </trkpt>
      <trkpt lat="42.670772" lon="0.652909">
        <ele>2094.6</ele>
        <time>1970-01-01T00:08:22.000Z</time>
      </trkpt>
      <trkpt lat="42.670777" lon="0.652917">
        <ele>2094.5</ele>
        <time>1970-01-01T00:08:23.000Z</time>
      </trkpt>
      <trkpt lat="42.670783" lon="0.652922">
        <ele>2094.3</ele>
        <time>1970-01-01T00:08:24.000Z</time>
      </trkpt>
      <trkpt lat="42.670791" lon="0.652926">
        <ele>2094.1</ele>
        <time>1970-01-01T00:08:25.000Z</time>
      </trkpt>
      <trkpt lat="42.670798" lon="0.652926">
        <ele>2094</ele>
        <time>1970-01-01T00:08:26.000Z</time>
      </trkpt>
      <trkpt lat="42.670808" lon="0.652927">
        <ele>2093.8</ele>
        <time>1970-01-01T00:08:27.000Z</time>
      </trkpt>
      <trkpt lat="42.670814" lon="0.652928">
        <ele>2093.6</ele>
        <time>1970-01-01T00:08:28.000Z</time>
      </trkpt>
      <trkpt lat="42.670827" lon="0.652928">
        <ele>2093.4</ele>
        <time>1970-01-01T00:08:29.000Z</time>
      </trkpt>
      <trkpt lat="42.670839" lon="0.652923">
        <ele>2093.1</ele>
        <time>1970-01-01T00:08:31.000Z</time>
      </trkpt>
      <trkpt lat="42.670844" lon="0.652924">
        <ele>2093</ele>
        <time>1970-01-01T00:08:32.000Z</time>
      </trkpt>
      <trkpt lat="42.67085" lon="0.652929">
        <ele>2092.9</ele>
        <time>1970-01-01T00:08:34.000Z</time>
      </trkpt>
      <trkpt lat="42.670858" lon="0.652933">
        <ele>2092.7</ele>
        <time>1970-01-01T00:08:35.000Z</time>
      </trkpt>
      <trkpt lat="42.670865" lon="0.652935">
        <ele>2092.6</ele>
        <time>1970-01-01T00:08:36.000Z</time>
      </trkpt>
      <trkpt lat="42.670872" lon="0.652936">
        <ele>2092.4</ele>
        <time>1970-01-01T00:08:37.000Z</time>
      </trkpt>
      <trkpt lat="42.67088" lon="0.652943">
        <ele>2092.2</ele>
        <time>1970-01-01T00:08:38.000Z</time>
      </trkpt>
      <trkpt lat="42.670891" lon="0.65295">
        <ele>2092</ele>
        <time>1970-01-01T00:08:40.000Z</time>
      </trkpt>
      <trkpt lat="42.670901" lon="0.652954">
        <ele>2091.8</ele>
        <time>1970-01-01T00:08:41.000Z</time>
      </trkpt>
      <trkpt lat="42.670909" lon="0.652957">
        <ele>2091.6</ele>
        <time>1970-01-01T00:08:42.000Z</time>
      </trkpt>
      <trkpt lat="42.670922" lon="0.652967">
        <ele>2091.3</ele>
        <time>1970-01-01T00:08:43.000Z</time>
      </trkpt>
      <trkpt lat="42.670934" lon="0.652973">
        <ele>2091.1</ele>
        <time>1970-01-01T00:08:44.000Z</time>
      </trkpt>
      <trkpt lat="42.670947" lon="0.652983">
        <ele>2090.8</ele>
        <time>1970-01-01T00:08:46.000Z</time>
      </trkpt>
      <trkpt lat="42.67096" lon="0.652989">
        <ele>2090.5</ele>
        <time>1970-01-01T00:08:48.000Z</time>
      </trkpt>
      <trkpt lat="42.670977" lon="0.652989">
        <ele>2090.2</ele>
        <time>1970-01-01T00:08:49.000Z</time>
      </trkpt>
      <trkpt lat="42.670987" lon="0.652984">
        <ele>2090</ele>
        <time>1970-01-01T00:08:50.000Z</time>
      </trkpt>
      <trkpt lat="42.670995" lon="0.652981">
        <ele>2089.8</ele>
        <time>1970-01-01T00:08:51.000Z</time>
      </trkpt>
      <trkpt lat="42.671002" lon="0.652982">
        <ele>2089.6</ele>
        <time>1970-01-01T00:08:52.000Z</time>
      </trkpt>
      <trkpt lat="42.671016" lon="0.65298">
        <ele>2089.4</ele>
        <time>1970-01-01T00:08:53.000Z</time>
      </trkpt>
      <trkpt lat="42.671026" lon="0.652977">
        <ele>2089.2</ele>
        <time>1970-01-01T00:08:55.000Z</time>
      </trkpt>
      <trkpt lat="42.671036" lon="0.652973">
        <ele>2089</ele>
        <time>1970-01-01T00:08:56.000Z</time>
      </trkpt>
      <trkpt lat="42.671045" lon="0.652976">
        <ele>2088.8</ele>
        <time>1970-01-01T00:08:57.000Z</time>
      </trkpt>
      <trkpt lat="42.671058" lon="0.652981">
        <ele>2088.5</ele>
        <time>1970-01-01T00:08:59.000Z</time>
      </trkpt>
      <trkpt lat="42.671066" lon="0.652983">
        <ele>2088.4</ele>
        <time>1970-01-01T00:09:00.000Z</time>
      </trkpt>
      <trkpt lat="42.671075" lon="0.652986">
        <ele>2088.2</ele>
        <time>1970-01-01T00:09:01.000Z</time>
      </trkpt>
      <trkpt lat="42.671083" lon="0.652987">
        <ele>2088</ele>
        <time>1970-01-01T00:09:02.000Z</time>
      </trkpt>
      <trkpt lat="42.671091" lon="0.652986">
        <ele>2087.8</ele>
        <time>1970-01-01T00:09:03.000Z</time>
      </trkpt>
      <trkpt lat="42.671098" lon="0.652987">
        <ele>2087.7</ele>
        <time>1970-01-01T00:09:04.000Z</time>
      </trkpt>
      <trkpt lat="42.671103" lon="0.65299">
        <ele>2087.6</ele>
        <time>1970-01-01T00:09:05.000Z</time>
      </trkpt>
      <trkpt lat="42.671113" lon="0.652996">
        <ele>2087.4</ele>
        <time>1970-01-01T00:09:06.000Z</time>
      </trkpt>
      <trkpt lat="42.671123" lon="0.653001">
        <ele>2087.1</ele>
        <time>1970-01-01T00:09:07.000Z</time>
      </trkpt>
      <trkpt lat="42.671135" lon="0.653001">
        <ele>2086.9</ele>
        <time>1970-01-01T00:09:09.000Z</time>
      </trkpt>
      <trkpt lat="42.671145" lon="0.652999">
        <ele>2086.7</ele>
        <time>1970-01-01T00:09:10.000Z</time>
      </trkpt>
      <trkpt lat="42.671153" lon="0.653002">
        <ele>2086.5</ele>
        <time>1970-01-01T00:09:11.000Z</time>
      </trkpt>
      <trkpt lat="42.671162" lon="0.653007">
        <ele>2086.3</ele>
        <time>1970-01-01T00:09:12.000Z</time>
      </trkpt>
      <trkpt lat="42.671167" lon="0.65301">
        <ele>2086.2</ele>
        <time>1970-01-01T00:09:13.000Z</time>
      </trkpt>
      <trkpt lat="42.671173" lon="0.65301">
        <ele>2086</ele>
        <time>1970-01-01T00:09:14.000Z</time>
      </trkpt>
      <trkpt lat="42.671183" lon="0.653011">
        <ele>2085.8</ele>
        <time>1970-01-01T00:09:16.000Z</time>
      </trkpt>
      <trkpt lat="42.671194" lon="0.653013">
        <ele>2085.6</ele>
        <time>1970-01-01T00:09:17.000Z</time>
      </trkpt>
      <trkpt lat="42.671205" lon="0.653016">
        <ele>2085.3</ele>
        <time>1970-01-01T00:09:18.000Z</time>
      </trkpt>
      <trkpt lat="42.671214" lon="0.653017">
        <ele>2085.1</ele>
        <time>1970-01-01T00:09:20.000Z</time>
      </trkpt>
      <trkpt lat="42.671226" lon="0.653018">
        <ele>2085.1</ele>
        <time>1970-01-01T00:09:21.000Z</time>
      </trkpt>
      <trkpt lat="42.671238" lon="0.653019">
        <ele>2083.5</ele>
        <time>1970-01-01T00:09:23.000Z</time>
      </trkpt>
      <trkpt lat="42.671246" lon="0.653019">
        <ele>2083.5</ele>
        <time>1970-01-01T00:09:24.000Z</time>
      </trkpt>
      <trkpt lat="42.671253" lon="0.653021">
        <ele>2083.5</ele>
        <time>1970-01-01T00:09:25.000Z</time>
      </trkpt>
      <trkpt lat="42.671263" lon="0.653025">
        <ele>2083.5</ele>
        <time>1970-01-01T00:09:27.000Z</time>
      </trkpt>
      <trkpt lat="42.67127" lon="0.653028">
        <ele>2081.9</ele>
        <time>1970-01-01T00:09:28.000Z</time>
      </trkpt>
      <trkpt lat="42.671276" lon="0.653029">
        <ele>2081.9</ele>
        <time>1970-01-01T00:09:29.000Z</time>
      </trkpt>
      <trkpt lat="42.67128" lon="0.65303">
        <ele>2081.9</ele>
        <time>1970-01-01T00:09:30.000Z</time>
      </trkpt>
      <trkpt lat="42.671289" lon="0.653038">
        <ele>2081.9</ele>
        <time>1970-01-01T00:09:32.000Z</time>
      </trkpt>
      <trkpt lat="42.671296" lon="0.653043">
        <ele>2083.2</ele>
        <time>1970-01-01T00:09:33.000Z</time>
      </trkpt>
      <trkpt lat="42.671306" lon="0.653048">
        <ele>2081.5</ele>
        <time>1970-01-01T00:09:34.000Z</time>
      </trkpt>
      <trkpt lat="42.671317" lon="0.653053">
        <ele>2081.5</ele>
        <time>1970-01-01T00:09:35.000Z</time>
      </trkpt>
      <trkpt lat="42.671333" lon="0.653056">
        <ele>2079.8</ele>
        <time>1970-01-01T00:09:37.000Z</time>
      </trkpt>
      <trkpt lat="42.671341" lon="0.653052">
        <ele>2079.8</ele>
        <time>1970-01-01T00:09:38.000Z</time>
      </trkpt>
      <trkpt lat="42.671347" lon="0.653052">
        <ele>2079.8</ele>
        <time>1970-01-01T00:09:39.000Z</time>
      </trkpt>
      <trkpt lat="42.671356" lon="0.653054">
        <ele>2079.8</ele>
        <time>1970-01-01T00:09:40.000Z</time>
      </trkpt>
      <trkpt lat="42.671366" lon="0.653056">
        <ele>2078.1</ele>
        <time>1970-01-01T00:09:41.000Z</time>
      </trkpt>
      <trkpt lat="42.671379" lon="0.653058">
        <ele>2078.1</ele>
        <time>1970-01-01T00:09:43.000Z</time>
      </trkpt>
      <trkpt lat="42.671389" lon="0.653059">
        <ele>2078.1</ele>
        <time>1970-01-01T00:09:44.000Z</time>
      </trkpt>
      <trkpt lat="42.6714" lon="0.653061">
        <ele>2076.4</ele>
        <time>1970-01-01T00:09:46.000Z</time>
      </trkpt>
      <trkpt lat="42.671408" lon="0.653064">
        <ele>2076.4</ele>
        <time>1970-01-01T00:09:47.000Z</time>
      </trkpt>
      <trkpt lat="42.67142" lon="0.653065">
        <ele>2076.4</ele>
        <time>1970-01-01T00:09:48.000Z</time>
      </trkpt>
      <trkpt lat="42.671428" lon="0.653063">
        <ele>2074.9</ele>
        <time>1970-01-01T00:09:49.000Z</time>
      </trkpt>
      <trkpt lat="42.671441" lon="0.653062">
        <ele>2074.9</ele>
        <time>1970-01-01T00:09:50.000Z</time>
      </trkpt>
      <trkpt lat="42.67146" lon="0.653065">
        <ele>2073.4</ele>
        <time>1970-01-01T00:09:52.000Z</time>
      </trkpt>
      <trkpt lat="42.671468" lon="0.653067">
        <ele>2073.4</ele>
        <time>1970-01-01T00:09:53.000Z</time>
      </trkpt>
      <trkpt lat="42.671477" lon="0.653069">
        <ele>2073.4</ele>
        <time>1970-01-01T00:09:54.000Z</time>
      </trkpt>
      <trkpt lat="42.671488" lon="0.653074">
        <ele>2071.9</ele>
        <time>1970-01-01T00:09:55.000Z</time>
      </trkpt>
      <trkpt lat="42.671498" lon="0.653078">
        <ele>2071.9</ele>
        <time>1970-01-01T00:09:57.000Z</time>
      </trkpt>
      <trkpt lat="42.671509" lon="0.653081">
        <ele>2071.9</ele>
        <time>1970-01-01T00:09:58.000Z</time>
      </trkpt>
      <trkpt lat="42.671517" lon="0.653087">
        <ele>2073</ele>
        <time>1970-01-01T00:09:59.000Z</time>
      </trkpt>
      <trkpt lat="42.671526" lon="0.653096">
        <ele>2071.6</ele>
        <time>1970-01-01T00:10:00.000Z</time>
      </trkpt>
      <trkpt lat="42.671533" lon="0.653098">
        <ele>2071.6</ele>
        <time>1970-01-01T00:10:02.000Z</time>
      </trkpt>
      <trkpt lat="42.671542" lon="0.653095">
        <ele>2071.6</ele>
        <time>1970-01-01T00:10:03.000Z</time>
      </trkpt>
      <trkpt lat="42.671548" lon="0.653096">
        <ele>2071.6</ele>
        <time>1970-01-01T00:10:04.000Z</time>
      </trkpt>
      <trkpt lat="42.671555" lon="0.653098">
        <ele>2070.3</ele>
        <time>1970-01-01T00:10:06.000Z</time>
      </trkpt>
      <trkpt lat="42.671561" lon="0.653099">
        <ele>2070.3</ele>
        <time>1970-01-01T00:10:07.000Z</time>
      </trkpt>
      <trkpt lat="42.67157" lon="0.6531">
        <ele>2070.3</ele>
        <time>1970-01-01T00:10:08.000Z</time>
      </trkpt>
      <trkpt lat="42.671577" lon="0.6531">
        <ele>2070.3</ele>
        <time>1970-01-01T00:10:09.000Z</time>
      </trkpt>
      <trkpt lat="42.671584" lon="0.6531">
        <ele>2069</ele>
        <time>1970-01-01T00:10:10.000Z</time>
      </trkpt>
      <trkpt lat="42.671594" lon="0.653099">
        <ele>2069</ele>
        <time>1970-01-01T00:10:11.000Z</time>
      </trkpt>
      <trkpt lat="42.671603" lon="0.6531">
        <ele>2069</ele>
        <time>1970-01-01T00:10:12.000Z</time>
      </trkpt>
      <trkpt lat="42.67161" lon="0.653099">
        <ele>2069</ele>
        <time>1970-01-01T00:10:13.000Z</time>
      </trkpt>
      <trkpt lat="42.67162" lon="0.653101">
        <ele>2067.7</ele>
        <time>1970-01-01T00:10:14.000Z</time>
      </trkpt>
      <trkpt lat="42.671629" lon="0.653105">
        <ele>2067.7</ele>
        <time>1970-01-01T00:10:15.000Z</time>
      </trkpt>
      <trkpt lat="42.671636" lon="0.653109">
        <ele>2067.7</ele>
        <time>1970-01-01T00:10:16.000Z</time>
      </trkpt>
      <trkpt lat="42.671645" lon="0.653112">
        <ele>2067.7</ele>
        <time>1970-01-01T00:10:17.000Z</time>
      </trkpt>
      <trkpt lat="42.671656" lon="0.653112">
        <ele>2066.3</ele>
        <time>1970-01-01T00:10:19.000Z</time>
      </trkpt>
      <trkpt lat="42.671666" lon="0.65311">
        <ele>2066.3</ele>
        <time>1970-01-01T00:10:20.000Z</time>
      </trkpt>
      <trkpt lat="42.671675" lon="0.653103">
        <ele>2066.3</ele>
        <time>1970-01-01T00:10:21.000Z</time>
      </trkpt>
      <trkpt lat="42.671681" lon="0.653097">
        <ele>2064.9</ele>
        <time>1970-01-01T00:10:22.000Z</time>
      </trkpt>
      <trkpt lat="42.671686" lon="0.653092">
        <ele>2064.9</ele>
        <time>1970-01-01T00:10:23.000Z</time>
      </trkpt>
      <trkpt lat="42.671697" lon="0.65309">
        <ele>2064.9</ele>
        <time>1970-01-01T00:10:24.000Z</time>
      </trkpt>
      <trkpt lat="42.671704" lon="0.653093">
        <ele>2064.9</ele>
        <time>1970-01-01T00:10:26.000Z</time>
      </trkpt>
      <trkpt lat="42.671709" lon="0.653089">
        <ele>2063.6</ele>
        <time>1970-01-01T00:10:27.000Z</time>
      </trkpt>
      <trkpt lat="42.671711" lon="0.653079">
        <ele>2062.7</ele>
        <time>1970-01-01T00:10:28.000Z</time>
      </trkpt>
      <trkpt lat="42.67171" lon="0.653067">
        <ele>2062.7</ele>
        <time>1970-01-01T00:10:29.000Z</time>
      </trkpt>
      <trkpt lat="42.671707" lon="0.653055">
        <ele>2064</ele>
        <time>1970-01-01T00:10:30.000Z</time>
      </trkpt>
      <trkpt lat="42.671695" lon="0.653031">
        <ele>2063.1</ele>
        <time>1970-01-01T00:10:31.000Z</time>
      </trkpt>
      <trkpt lat="42.671689" lon="0.653022">
        <ele>2063.1</ele>
        <time>1970-01-01T00:10:33.000Z</time>
      </trkpt>
      <trkpt lat="42.671682" lon="0.653012">
        <ele>2063.1</ele>
        <time>1970-01-01T00:10:34.000Z</time>
      </trkpt>
      <trkpt lat="42.671677" lon="0.653004">
        <ele>2063.1</ele>
        <time>1970-01-01T00:10:35.000Z</time>
      </trkpt>
      <trkpt lat="42.671668" lon="0.652982">
        <ele>2063.5</ele>
        <time>1970-01-01T00:10:37.000Z</time>
      </trkpt>
      <trkpt lat="42.671663" lon="0.652975">
        <ele>2063.5</ele>
        <time>1970-01-01T00:10:38.000Z</time>
      </trkpt>
      <trkpt lat="42.671656" lon="0.652965">
        <ele>2063.5</ele>
        <time>1970-01-01T00:10:39.000Z</time>
      </trkpt>
      <trkpt lat="42.671648" lon="0.652955">
        <ele>2062.6</ele>
        <time>1970-01-01T00:10:40.000Z</time>
      </trkpt>
      <trkpt lat="42.671639" lon="0.652951">
        <ele>2063.9</ele>
        <time>1970-01-01T00:10:42.000Z</time>
      </trkpt>
      <trkpt lat="42.671631" lon="0.652943">
        <ele>2063.9</ele>
        <time>1970-01-01T00:10:43.000Z</time>
      </trkpt>
      <trkpt lat="42.671625" lon="0.652933">
        <ele>2063.9</ele>
        <time>1970-01-01T00:10:44.000Z</time>
      </trkpt>
      <trkpt lat="42.671619" lon="0.652916">
        <ele>2063.9</ele>
        <time>1970-01-01T00:10:46.000Z</time>
      </trkpt>
      <trkpt lat="42.671616" lon="0.652903">
        <ele>2063.1</ele>
        <time>1970-01-01T00:10:47.000Z</time>
      </trkpt>
      <trkpt lat="42.671612" lon="0.652892">
        <ele>2064.2</ele>
        <time>1970-01-01T00:10:48.000Z</time>
      </trkpt>
      <trkpt lat="42.671608" lon="0.652886">
        <ele>2064.2</ele>
        <time>1970-01-01T00:10:49.000Z</time>
      </trkpt>
      <trkpt lat="42.671606" lon="0.652877">
        <ele>2064.2</ele>
        <time>1970-01-01T00:10:50.000Z</time>
      </trkpt>
      <trkpt lat="42.671604" lon="0.652866">
        <ele>2063.5</ele>
        <time>1970-01-01T00:10:51.000Z</time>
      </trkpt>
      <trkpt lat="42.671603" lon="0.652856">
        <ele>2063.5</ele>
        <time>1970-01-01T00:10:52.000Z</time>
      </trkpt>
      <trkpt lat="42.671599" lon="0.652845">
        <ele>2063.5</ele>
        <time>1970-01-01T00:10:53.000Z</time>
      </trkpt>
      <trkpt lat="42.671594" lon="0.652836">
        <ele>2063.5</ele>
        <time>1970-01-01T00:10:54.000Z</time>
      </trkpt>
      <trkpt lat="42.671589" lon="0.652825">
        <ele>2062.8</ele>
        <time>1970-01-01T00:10:56.000Z</time>
      </trkpt>
      <trkpt lat="42.671588" lon="0.652815">
        <ele>2062.8</ele>
        <time>1970-01-01T00:10:57.000Z</time>
      </trkpt>
      <trkpt lat="42.671591" lon="0.652804">
        <ele>2062.8</ele>
        <time>1970-01-01T00:10:58.000Z</time>
      </trkpt>
      <trkpt lat="42.6716" lon="0.652797">
        <ele>2062.8</ele>
        <time>1970-01-01T00:11:00.000Z</time>
      </trkpt>
      <trkpt lat="42.671606" lon="0.652794">
        <ele>2062.8</ele>
        <time>1970-01-01T00:11:01.000Z</time>
      </trkpt>
      <trkpt lat="42.671611" lon="0.652792">
        <ele>2062.8</ele>
        <time>1970-01-01T00:11:02.000Z</time>
      </trkpt>
      <trkpt lat="42.671619" lon="0.65279">
        <ele>2061.7</ele>
        <time>1970-01-01T00:11:03.000Z</time>
      </trkpt>
      <trkpt lat="42.671627" lon="0.652788">
        <ele>2061.7</ele>
        <time>1970-01-01T00:11:04.000Z</time>
      </trkpt>
      <trkpt lat="42.671636" lon="0.652786">
        <ele>2061.7</ele>
        <time>1970-01-01T00:11:05.000Z</time>
      </trkpt>
      <trkpt lat="42.671646" lon="0.652784">
        <ele>2060</ele>
        <time>1970-01-01T00:11:06.000Z</time>
      </trkpt>
      <trkpt lat="42.671654" lon="0.652784">
        <ele>2060</ele>
        <time>1970-01-01T00:11:07.000Z</time>
      </trkpt>
      <trkpt lat="42.671661" lon="0.652785">
        <ele>2060</ele>
        <time>1970-01-01T00:11:08.000Z</time>
      </trkpt>
      <trkpt lat="42.671667" lon="0.652784">
        <ele>2060</ele>
        <time>1970-01-01T00:11:10.000Z</time>
      </trkpt>
      <trkpt lat="42.671671" lon="0.652786">
        <ele>2060.5</ele>
        <time>1970-01-01T00:11:11.000Z</time>
      </trkpt>
      <trkpt lat="42.671671" lon="0.65279">
        <ele>2060.5</ele>
        <time>1970-01-01T00:11:12.000Z</time>
      </trkpt>
      <trkpt lat="42.671672" lon="0.652797">
        <ele>2060.5</ele>
        <time>1970-01-01T00:11:14.000Z</time>
      </trkpt>
      <trkpt lat="42.671668" lon="0.652801">
        <ele>2060.5</ele>
        <time>1970-01-01T00:11:15.000Z</time>
      </trkpt>
      <trkpt lat="42.671666" lon="0.652808">
        <ele>2060.5</ele>
        <time>1970-01-01T00:11:16.000Z</time>
      </trkpt>
      <trkpt lat="42.671667" lon="0.652817">
        <ele>2060.5</ele>
        <time>1970-01-01T00:11:17.000Z</time>
      </trkpt>
      <trkpt lat="42.671669" lon="0.652823">
        <ele>2060.5</ele>
        <time>1970-01-01T00:11:19.000Z</time>
      </trkpt>
      <trkpt lat="42.671676" lon="0.652826">
        <ele>2060.5</ele>
        <time>1970-01-01T00:11:20.000Z</time>
      </trkpt>
      <trkpt lat="42.671678" lon="0.652824">
        <ele>2059.4</ele>
        <time>1970-01-01T00:11:21.000Z</time>
      </trkpt>
      <trkpt lat="42.67168" lon="0.652819">
        <ele>2059.4</ele>
        <time>1970-01-01T00:11:22.000Z</time>
      </trkpt>
      <trkpt lat="42.671681" lon="0.652813">
        <ele>2059.4</ele>
        <time>1970-01-01T00:11:23.000Z</time>
      </trkpt>
      <trkpt lat="42.671681" lon="0.652805">
        <ele>2059.4</ele>
        <time>1970-01-01T00:11:24.000Z</time>
      </trkpt>
      <trkpt lat="42.671677" lon="0.652796">
        <ele>2059.4</ele>
        <time>1970-01-01T00:11:25.000Z</time>
      </trkpt>
      <trkpt lat="42.671669" lon="0.652787">
        <ele>2060.5</ele>
        <time>1970-01-01T00:11:26.000Z</time>
      </trkpt>
      <trkpt lat="42.671658" lon="0.652779">
        <ele>2060</ele>
        <time>1970-01-01T00:11:27.000Z</time>
      </trkpt>
      <trkpt lat="42.671645" lon="0.652771">
        <ele>2061.1</ele>
        <time>1970-01-01T00:11:29.000Z</time>
      </trkpt>
      <trkpt lat="42.671632" lon="0.652762">
        <ele>2061.1</ele>
        <time>1970-01-01T00:11:30.000Z</time>
      </trkpt>
      <trkpt lat="42.671619" lon="0.652758">
        <ele>2061.1</ele>
        <time>1970-01-01T00:11:31.000Z</time>
      </trkpt>
      <trkpt lat="42.671608" lon="0.652753">
        <ele>2062.2</ele>
        <time>1970-01-01T00:11:32.000Z</time>
      </trkpt>
      <trkpt lat="42.671599" lon="0.652746">
        <ele>2062.2</ele>
        <time>1970-01-01T00:11:33.000Z</time>
      </trkpt>
      <trkpt lat="42.671593" lon="0.652739">
        <ele>2061.6</ele>
        <time>1970-01-01T00:11:34.000Z</time>
      </trkpt>
      <trkpt lat="42.671586" lon="0.652729">
        <ele>2061.6</ele>
        <time>1970-01-01T00:11:35.000Z</time>
      </trkpt>
      <trkpt lat="42.671565" lon="0.652706">
        <ele>2062.7</ele>
        <time>1970-01-01T00:11:37.000Z</time>
      </trkpt>
      <trkpt lat="42.671551" lon="0.652685">
        <ele>2062.2</ele>
        <time>1970-01-01T00:11:38.000Z</time>
      </trkpt>
      <trkpt lat="42.671545" lon="0.652677">
        <ele>2063.2</ele>
        <time>1970-01-01T00:11:39.000Z</time>
      </trkpt>
      <trkpt lat="42.671539" lon="0.652669">
        <ele>2063.2</ele>
        <time>1970-01-01T00:11:40.000Z</time>
      </trkpt>
      <trkpt lat="42.671523" lon="0.65265">
        <ele>2062.7</ele>
        <time>1970-01-01T00:11:41.000Z</time>
      </trkpt>
      <trkpt lat="42.671516" lon="0.652644">
        <ele>2063.7</ele>
        <time>1970-01-01T00:11:43.000Z</time>
      </trkpt>
      <trkpt lat="42.671509" lon="0.652637">
        <ele>2063.7</ele>
        <time>1970-01-01T00:11:44.000Z</time>
      </trkpt>
      <trkpt lat="42.671498" lon="0.652628">
        <ele>2063.7</ele>
        <time>1970-01-01T00:11:45.000Z</time>
      </trkpt>
      <trkpt lat="42.67149" lon="0.652619">
        <ele>2063.7</ele>
        <time>1970-01-01T00:11:46.000Z</time>
      </trkpt>
      <trkpt lat="42.671483" lon="0.652607">
        <ele>2064.3</ele>
        <time>1970-01-01T00:11:47.000Z</time>
      </trkpt>
      <trkpt lat="42.67148" lon="0.652593">
        <ele>2064.3</ele>
        <time>1970-01-01T00:11:48.000Z</time>
      </trkpt>
      <trkpt lat="42.671479" lon="0.652578">
        <ele>2064.3</ele>
        <time>1970-01-01T00:11:50.000Z</time>
      </trkpt>
      <trkpt lat="42.67148" lon="0.652564">
        <ele>2063.8</ele>
        <time>1970-01-01T00:11:51.000Z</time>
      </trkpt>
      <trkpt lat="42.671484" lon="0.652552">
        <ele>2063.8</ele>
        <time>1970-01-01T00:11:52.000Z</time>
      </trkpt>
      <trkpt lat="42.671486" lon="0.652541">
        <ele>2063.8</ele>
        <time>1970-01-01T00:11:53.000Z</time>
      </trkpt>
      <trkpt lat="42.671484" lon="0.652535">
        <ele>2063.8</ele>
        <time>1970-01-01T00:11:54.000Z</time>
      </trkpt>
      <trkpt lat="42.67148" lon="0.652532">
        <ele>2063.8</ele>
        <time>1970-01-01T00:11:55.000Z</time>
      </trkpt>
      <trkpt lat="42.671475" lon="0.652526">
        <ele>2063.3</ele>
        <time>1970-01-01T00:11:56.000Z</time>
      </trkpt>
      <trkpt lat="42.671469" lon="0.652521">
        <ele>2063.3</ele>
        <time>1970-01-01T00:11:57.000Z</time>
      </trkpt>
      <trkpt lat="42.671462" lon="0.652517">
        <ele>2063.3</ele>
        <time>1970-01-01T00:11:59.000Z</time>
      </trkpt>
      <trkpt lat="42.671453" lon="0.652516">
        <ele>2064.4</ele>
        <time>1970-01-01T00:12:00.000Z</time>
      </trkpt>
      <trkpt lat="42.671441" lon="0.652512">
        <ele>2064.4</ele>
        <time>1970-01-01T00:12:02.000Z</time>
      </trkpt>
      <trkpt lat="42.671435" lon="0.652503">
        <ele>2064.4</ele>
        <time>1970-01-01T00:12:03.000Z</time>
      </trkpt>
      <trkpt lat="42.671438" lon="0.652491">
        <ele>2064.4</ele>
        <time>1970-01-01T00:12:04.000Z</time>
      </trkpt>
      <trkpt lat="42.671445" lon="0.652483">
        <ele>2064</ele>
        <time>1970-01-01T00:12:06.000Z</time>
      </trkpt>
      <trkpt lat="42.671451" lon="0.652484">
        <ele>2064</ele>
        <time>1970-01-01T00:12:07.000Z</time>
      </trkpt>
      <trkpt lat="42.671455" lon="0.652486">
        <ele>2064.4</ele>
        <time>1970-01-01T00:12:08.000Z</time>
      </trkpt>
      <trkpt lat="42.671469" lon="0.652495">
        <ele>2063.3</ele>
        <time>1970-01-01T00:12:10.000Z</time>
      </trkpt>
      <trkpt lat="42.671474" lon="0.6525">
        <ele>2063.3</ele>
        <time>1970-01-01T00:12:11.000Z</time>
      </trkpt>
      <trkpt lat="42.671478" lon="0.652508">
        <ele>2063.3</ele>
        <time>1970-01-01T00:12:12.000Z</time>
      </trkpt>
      <trkpt lat="42.671484" lon="0.652518">
        <ele>2063.3</ele>
        <time>1970-01-01T00:12:14.000Z</time>
      </trkpt>
      <trkpt lat="42.671488" lon="0.652525">
        <ele>2062.3</ele>
        <time>1970-01-01T00:12:15.000Z</time>
      </trkpt>
      <trkpt lat="42.671496" lon="0.652532">
        <ele>2062.8</ele>
        <time>1970-01-01T00:12:16.000Z</time>
      </trkpt>
      <trkpt lat="42.671501" lon="0.652532">
        <ele>2062.8</ele>
        <time>1970-01-01T00:12:17.000Z</time>
      </trkpt>
      <trkpt lat="42.671513" lon="0.652527">
        <ele>2062.3</ele>
        <time>1970-01-01T00:12:18.000Z</time>
      </trkpt>
      <trkpt lat="42.671522" lon="0.652521">
        <ele>2061.4</ele>
        <time>1970-01-01T00:12:20.000Z</time>
      </trkpt>
      <trkpt lat="42.671527" lon="0.652513">
        <ele>2061.4</ele>
        <time>1970-01-01T00:12:21.000Z</time>
      </trkpt>
      <trkpt lat="42.671536" lon="0.652509">
        <ele>2061.4</ele>
        <time>1970-01-01T00:12:23.000Z</time>
      </trkpt>
      <trkpt lat="42.671541" lon="0.652508">
        <ele>2061.4</ele>
        <time>1970-01-01T00:12:24.000Z</time>
      </trkpt>
      <trkpt lat="42.671544" lon="0.652509">
        <ele>2061.4</ele>
        <time>1970-01-01T00:12:25.000Z</time>
      </trkpt>
      <trkpt lat="42.671554" lon="0.65251">
        <ele>2060.4</ele>
        <time>1970-01-01T00:12:26.000Z</time>
      </trkpt>
      <trkpt lat="42.671559" lon="0.652512">
        <ele>2060.4</ele>
        <time>1970-01-01T00:12:27.000Z</time>
      </trkpt>
      <trkpt lat="42.671564" lon="0.652524">
        <ele>2060.4</ele>
        <time>1970-01-01T00:12:29.000Z</time>
      </trkpt>
      <trkpt lat="42.671565" lon="0.652535">
        <ele>2060.8</ele>
        <time>1970-01-01T00:12:30.000Z</time>
      </trkpt>
      <trkpt lat="42.671568" lon="0.652547">
        <ele>2060.8</ele>
        <time>1970-01-01T00:12:31.000Z</time>
      </trkpt>
      <trkpt lat="42.671574" lon="0.652551">
        <ele>2060.8</ele>
        <time>1970-01-01T00:12:32.000Z</time>
      </trkpt>
      <trkpt lat="42.671581" lon="0.652546">
        <ele>2060.8</ele>
        <time>1970-01-01T00:12:33.000Z</time>
      </trkpt>
      <trkpt lat="42.671584" lon="0.652536">
        <ele>2059.9</ele>
        <time>1970-01-01T00:12:34.000Z</time>
      </trkpt>
      <trkpt lat="42.671582" lon="0.652527">
        <ele>2059.5</ele>
        <time>1970-01-01T00:12:35.000Z</time>
      </trkpt>
      <trkpt lat="42.671577" lon="0.652511">
        <ele>2060.4</ele>
        <time>1970-01-01T00:12:36.000Z</time>
      </trkpt>
      <trkpt lat="42.671575" lon="0.652494">
        <ele>2060.4</ele>
        <time>1970-01-01T00:12:38.000Z</time>
      </trkpt>
      <trkpt lat="42.671574" lon="0.652482">
        <ele>2060.1</ele>
        <time>1970-01-01T00:12:39.000Z</time>
      </trkpt>
      <trkpt lat="42.671571" lon="0.65247">
        <ele>2060.1</ele>
        <time>1970-01-01T00:12:40.000Z</time>
      </trkpt>
      <trkpt lat="42.671568" lon="0.652462">
        <ele>2060.1</ele>
        <time>1970-01-01T00:12:41.000Z</time>
      </trkpt>
      <trkpt lat="42.671561" lon="0.652449">
        <ele>2060.1</ele>
        <time>1970-01-01T00:12:42.000Z</time>
      </trkpt>
      <trkpt lat="42.671548" lon="0.652431">
        <ele>2060.7</ele>
        <time>1970-01-01T00:12:44.000Z</time>
      </trkpt>
      <trkpt lat="42.671542" lon="0.652416">
        <ele>2060.7</ele>
        <time>1970-01-01T00:12:45.000Z</time>
      </trkpt>
      <trkpt lat="42.671535" lon="0.652398">
        <ele>2060.4</ele>
        <time>1970-01-01T00:12:46.000Z</time>
      </trkpt>
      <trkpt lat="42.671529" lon="0.652379">
        <ele>2060.4</ele>
        <time>1970-01-01T00:12:47.000Z</time>
      </trkpt>
      <trkpt lat="42.671527" lon="0.652358">
        <ele>2060.4</ele>
        <time>1970-01-01T00:12:48.000Z</time>
      </trkpt>
      <trkpt lat="42.671532" lon="0.652344">
        <ele>2060.3</ele>
        <time>1970-01-01T00:12:50.000Z</time>
      </trkpt>
      <trkpt lat="42.671545" lon="0.652344">
        <ele>2060.3</ele>
        <time>1970-01-01T00:12:51.000Z</time>
      </trkpt>
      <trkpt lat="42.671553" lon="0.652353">
        <ele>2059.4</ele>
        <time>1970-01-01T00:12:52.000Z</time>
      </trkpt>
      <trkpt lat="42.67156" lon="0.652364">
        <ele>2059.5</ele>
        <time>1970-01-01T00:12:53.000Z</time>
      </trkpt>
      <trkpt lat="42.671567" lon="0.652374">
        <ele>2059.5</ele>
        <time>1970-01-01T00:12:54.000Z</time>
      </trkpt>
      <trkpt lat="42.671573" lon="0.652384">
        <ele>2059.5</ele>
        <time>1970-01-01T00:12:55.000Z</time>
      </trkpt>
      <trkpt lat="42.67158" lon="0.65239">
        <ele>2059.5</ele>
        <time>1970-01-01T00:12:56.000Z</time>
      </trkpt>
      <trkpt lat="42.671589" lon="0.6524">
        <ele>2058.9</ele>
        <time>1970-01-01T00:12:58.000Z</time>
      </trkpt>
      <trkpt lat="42.671595" lon="0.652412">
        <ele>2058.9</ele>
        <time>1970-01-01T00:12:59.000Z</time>
      </trkpt>
      <trkpt lat="42.671603" lon="0.652419">
        <ele>2058.9</ele>
        <time>1970-01-01T00:13:00.000Z</time>
      </trkpt>
      <trkpt lat="42.671614" lon="0.652423">
        <ele>2058</ele>
        <time>1970-01-01T00:13:01.000Z</time>
      </trkpt>
      <trkpt lat="42.671624" lon="0.652429">
        <ele>2058</ele>
        <time>1970-01-01T00:13:03.000Z</time>
      </trkpt>
      <trkpt lat="42.671633" lon="0.652435">
        <ele>2058</ele>
        <time>1970-01-01T00:13:04.000Z</time>
      </trkpt>
      <trkpt lat="42.671638" lon="0.652441">
        <ele>2058</ele>
        <time>1970-01-01T00:13:05.000Z</time>
      </trkpt>
      <trkpt lat="42.671645" lon="0.652448">
        <ele>2058.3</ele>
        <time>1970-01-01T00:13:06.000Z</time>
      </trkpt>
      <trkpt lat="42.671653" lon="0.652454">
        <ele>2057.4</ele>
        <time>1970-01-01T00:13:07.000Z</time>
      </trkpt>
      <trkpt lat="42.671659" lon="0.65246">
        <ele>2057.4</ele>
        <time>1970-01-01T00:13:08.000Z</time>
      </trkpt>
      <trkpt lat="42.671666" lon="0.652466">
        <ele>2057.4</ele>
        <time>1970-01-01T00:13:10.000Z</time>
      </trkpt>
      <trkpt lat="42.671676" lon="0.652475">
        <ele>2057.4</ele>
        <time>1970-01-01T00:13:11.000Z</time>
      </trkpt>
      <trkpt lat="42.671681" lon="0.652479">
        <ele>2056.4</ele>
        <time>1970-01-01T00:13:12.000Z</time>
      </trkpt>
      <trkpt lat="42.671686" lon="0.652482">
        <ele>2056.4</ele>
        <time>1970-01-01T00:13:13.000Z</time>
      </trkpt>
      <trkpt lat="42.671694" lon="0.652483">
        <ele>2056.4</ele>
        <time>1970-01-01T00:13:14.000Z</time>
      </trkpt>
      <trkpt lat="42.671703" lon="0.652472">
        <ele>2056.4</ele>
        <time>1970-01-01T00:13:16.000Z</time>
      </trkpt>
      <trkpt lat="42.671709" lon="0.652466">
        <ele>2055.4</ele>
        <time>1970-01-01T00:13:17.000Z</time>
      </trkpt>
      <trkpt lat="42.671715" lon="0.652462">
        <ele>2055.4</ele>
        <time>1970-01-01T00:13:18.000Z</time>
      </trkpt>
      <trkpt lat="42.671719" lon="0.652461">
        <ele>2055.4</ele>
        <time>1970-01-01T00:13:19.000Z</time>
      </trkpt>
      <trkpt lat="42.671726" lon="0.652462">
        <ele>2055.4</ele>
        <time>1970-01-01T00:13:20.000Z</time>
      </trkpt>
      <trkpt lat="42.671733" lon="0.652463">
        <ele>2055.4</ele>
        <time>1970-01-01T00:13:21.000Z</time>
      </trkpt>
      <trkpt lat="42.671741" lon="0.652461">
        <ele>2054.5</ele>
        <time>1970-01-01T00:13:22.000Z</time>
      </trkpt>
      <trkpt lat="42.671748" lon="0.652454">
        <ele>2054.5</ele>
        <time>1970-01-01T00:13:24.000Z</time>
      </trkpt>
      <trkpt lat="42.671756" lon="0.652445">
        <ele>2054.5</ele>
        <time>1970-01-01T00:13:25.000Z</time>
      </trkpt>
      <trkpt lat="42.671765" lon="0.65244">
        <ele>2054.3</ele>
        <time>1970-01-01T00:13:26.000Z</time>
      </trkpt>
      <trkpt lat="42.671774" lon="0.652442">
        <ele>2053.6</ele>
        <time>1970-01-01T00:13:27.000Z</time>
      </trkpt>
      <trkpt lat="42.671785" lon="0.652447">
        <ele>2053.6</ele>
        <time>1970-01-01T00:13:28.000Z</time>
      </trkpt>
      <trkpt lat="42.671795" lon="0.652452">
        <ele>2053.6</ele>
        <time>1970-01-01T00:13:30.000Z</time>
      </trkpt>
      <trkpt lat="42.671806" lon="0.652452">
        <ele>2052.8</ele>
        <time>1970-01-01T00:13:31.000Z</time>
      </trkpt>
      <trkpt lat="42.671815" lon="0.652449">
        <ele>2052.8</ele>
        <time>1970-01-01T00:13:32.000Z</time>
      </trkpt>
      <trkpt lat="42.671825" lon="0.652444">
        <ele>2052.8</ele>
        <time>1970-01-01T00:13:33.000Z</time>
      </trkpt>
      <trkpt lat="42.671835" lon="0.652443">
        <ele>2052</ele>
        <time>1970-01-01T00:13:34.000Z</time>
      </trkpt>
      <trkpt lat="42.671843" lon="0.652446">
        <ele>2052</ele>
        <time>1970-01-01T00:13:35.000Z</time>
      </trkpt>
      <trkpt lat="42.671849" lon="0.65245">
        <ele>2052</ele>
        <time>1970-01-01T00:13:37.000Z</time>
      </trkpt>
      <trkpt lat="42.671857" lon="0.652447">
        <ele>2052</ele>
        <time>1970-01-01T00:13:38.000Z</time>
      </trkpt>
      <trkpt lat="42.671858" lon="0.652432">
        <ele>2051.9</ele>
        <time>1970-01-01T00:13:40.000Z</time>
      </trkpt>
      <trkpt lat="42.671859" lon="0.65242">
        <ele>2051.9</ele>
        <time>1970-01-01T00:13:41.000Z</time>
      </trkpt>
      <trkpt lat="42.671866" lon="0.652415">
        <ele>2051.1</ele>
        <time>1970-01-01T00:13:42.000Z</time>
      </trkpt>
      <trkpt lat="42.671872" lon="0.652413">
        <ele>2051.1</ele>
        <time>1970-01-01T00:13:43.000Z</time>
      </trkpt>
      <trkpt lat="42.671878" lon="0.65241">
        <ele>2051.1</ele>
        <time>1970-01-01T00:13:44.000Z</time>
      </trkpt>
      <trkpt lat="42.671882" lon="0.652408">
        <ele>2051.1</ele>
        <time>1970-01-01T00:13:45.000Z</time>
      </trkpt>
      <trkpt lat="42.671886" lon="0.652407">
        <ele>2051.1</ele>
        <time>1970-01-01T00:13:46.000Z</time>
      </trkpt>
      <trkpt lat="42.671892" lon="0.652405">
        <ele>2051.1</ele>
        <time>1970-01-01T00:13:47.000Z</time>
      </trkpt>
      <trkpt lat="42.671898" lon="0.652403">
        <ele>2050.2</ele>
        <time>1970-01-01T00:13:48.000Z</time>
      </trkpt>
      <trkpt lat="42.6719" lon="0.6524">
        <ele>2050.2</ele>
        <time>1970-01-01T00:13:49.000Z</time>
      </trkpt>
      <trkpt lat="42.671903" lon="0.652388">
        <ele>2050.1</ele>
        <time>1970-01-01T00:13:51.000Z</time>
      </trkpt>
      <trkpt lat="42.671903" lon="0.652379">
        <ele>2050.1</ele>
        <time>1970-01-01T00:13:52.000Z</time>
      </trkpt>
      <trkpt lat="42.671902" lon="0.652372">
        <ele>2050.1</ele>
        <time>1970-01-01T00:13:53.000Z</time>
      </trkpt>
      <trkpt lat="42.6719" lon="0.65236">
        <ele>2050.1</ele>
        <time>1970-01-01T00:13:55.000Z</time>
      </trkpt>
      <trkpt lat="42.6719" lon="0.652349">
        <ele>2050</ele>
        <time>1970-01-01T00:13:56.000Z</time>
      </trkpt>
      <trkpt lat="42.671905" lon="0.652342">
        <ele>2050</ele>
        <time>1970-01-01T00:13:57.000Z</time>
      </trkpt>
      <trkpt lat="42.671914" lon="0.65234">
        <ele>2050</ele>
        <time>1970-01-01T00:13:58.000Z</time>
      </trkpt>
      <trkpt lat="42.671931" lon="0.652345">
        <ele>2049</ele>
        <time>1970-01-01T00:13:59.000Z</time>
      </trkpt>
      <trkpt lat="42.67194" lon="0.652349">
        <ele>2049</ele>
        <time>1970-01-01T00:14:00.000Z</time>
      </trkpt>
      <trkpt lat="42.67195" lon="0.652352">
        <ele>2049</ele>
        <time>1970-01-01T00:14:02.000Z</time>
      </trkpt>
      <trkpt lat="42.67196" lon="0.652356">
        <ele>2049</ele>
        <time>1970-01-01T00:14:03.000Z</time>
      </trkpt>
      <trkpt lat="42.67197" lon="0.65236">
        <ele>2048.1</ele>
        <time>1970-01-01T00:14:04.000Z</time>
      </trkpt>
      <trkpt lat="42.671979" lon="0.652364">
        <ele>2048.1</ele>
        <time>1970-01-01T00:14:05.000Z</time>
      </trkpt>
      <trkpt lat="42.671998" lon="0.652378">
        <ele>2047.1</ele>
        <time>1970-01-01T00:14:06.000Z</time>
      </trkpt>
      <trkpt lat="42.672005" lon="0.652384">
        <ele>2047.1</ele>
        <time>1970-01-01T00:14:07.000Z</time>
      </trkpt>
      <trkpt lat="42.672012" lon="0.652389">
        <ele>2047.1</ele>
        <time>1970-01-01T00:14:08.000Z</time>
      </trkpt>
      <trkpt lat="42.67202" lon="0.652399">
        <ele>2047.1</ele>
        <time>1970-01-01T00:14:09.000Z</time>
      </trkpt>
      <trkpt lat="42.672029" lon="0.652407">
        <ele>2046.2</ele>
        <time>1970-01-01T00:14:11.000Z</time>
      </trkpt>
      <trkpt lat="42.672038" lon="0.652413">
        <ele>2046.2</ele>
        <time>1970-01-01T00:14:12.000Z</time>
      </trkpt>
      <trkpt lat="42.672044" lon="0.652422">
        <ele>2046.2</ele>
        <time>1970-01-01T00:14:13.000Z</time>
      </trkpt>
      <trkpt lat="42.672052" lon="0.652428">
        <ele>2046.2</ele>
        <time>1970-01-01T00:14:15.000Z</time>
      </trkpt>
      <trkpt lat="42.672058" lon="0.652422">
        <ele>2045.4</ele>
        <time>1970-01-01T00:14:16.000Z</time>
      </trkpt>
      <trkpt lat="42.672057" lon="0.652408">
        <ele>2045.4</ele>
        <time>1970-01-01T00:14:17.000Z</time>
      </trkpt>
      <trkpt lat="42.672049" lon="0.652395">
        <ele>2046.2</ele>
        <time>1970-01-01T00:14:18.000Z</time>
      </trkpt>
      <trkpt lat="42.672042" lon="0.652383">
        <ele>2046.2</ele>
        <time>1970-01-01T00:14:19.000Z</time>
      </trkpt>
      <trkpt lat="42.672039" lon="0.652369">
        <ele>2046.2</ele>
        <time>1970-01-01T00:14:20.000Z</time>
      </trkpt>
      <trkpt lat="42.672041" lon="0.652355">
        <ele>2046.2</ele>
        <time>1970-01-01T00:14:21.000Z</time>
      </trkpt>
      <trkpt lat="42.67205" lon="0.652343">
        <ele>2046.2</ele>
        <time>1970-01-01T00:14:23.000Z</time>
      </trkpt>
      <trkpt lat="42.672059" lon="0.652337">
        <ele>2045.4</ele>
        <time>1970-01-01T00:14:24.000Z</time>
      </trkpt>
      <trkpt lat="42.672069" lon="0.652335">
        <ele>2045.4</ele>
        <time>1970-01-01T00:14:25.000Z</time>
      </trkpt>
      <trkpt lat="42.672076" lon="0.652332">
        <ele>2045.4</ele>
        <time>1970-01-01T00:14:26.000Z</time>
      </trkpt>
      <trkpt lat="42.672083" lon="0.652326">
        <ele>2045.4</ele>
        <time>1970-01-01T00:14:28.000Z</time>
      </trkpt>
      <trkpt lat="42.672085" lon="0.652318">
        <ele>2045.4</ele>
        <time>1970-01-01T00:14:29.000Z</time>
      </trkpt>
      <trkpt lat="42.672079" lon="0.652305">
        <ele>2045.4</ele>
        <time>1970-01-01T00:14:30.000Z</time>
      </trkpt>
      <trkpt lat="42.672071" lon="0.652298">
        <ele>2045.4</ele>
        <time>1970-01-01T00:14:31.000Z</time>
      </trkpt>
      <trkpt lat="42.672064" lon="0.652289">
        <ele>2045.4</ele>
        <time>1970-01-01T00:14:32.000Z</time>
      </trkpt>
      <trkpt lat="42.672059" lon="0.652284">
        <ele>2045.4</ele>
        <time>1970-01-01T00:14:33.000Z</time>
      </trkpt>
      <trkpt lat="42.672052" lon="0.652279">
        <ele>2046.2</ele>
        <time>1970-01-01T00:14:34.000Z</time>
      </trkpt>
      <trkpt lat="42.672045" lon="0.65227">
        <ele>2046.3</ele>
        <time>1970-01-01T00:14:35.000Z</time>
      </trkpt>
      <trkpt lat="42.672043" lon="0.652257">
        <ele>2046.3</ele>
        <time>1970-01-01T00:14:36.000Z</time>
      </trkpt>
      <trkpt lat="42.67205" lon="0.652225">
        <ele>2046.4</ele>
        <time>1970-01-01T00:14:38.000Z</time>
      </trkpt>
      <trkpt lat="42.672051" lon="0.652216">
        <ele>2046.4</ele>
        <time>1970-01-01T00:14:39.000Z</time>
      </trkpt>
      <trkpt lat="42.672052" lon="0.652206">
        <ele>2046.4</ele>
        <time>1970-01-01T00:14:40.000Z</time>
      </trkpt>
      <trkpt lat="42.672049" lon="0.652192">
        <ele>2046.4</ele>
        <time>1970-01-01T00:14:41.000Z</time>
      </trkpt>
      <trkpt lat="42.672045" lon="0.652179">
        <ele>2046.5</ele>
        <time>1970-01-01T00:14:42.000Z</time>
      </trkpt>
      <trkpt lat="42.672041" lon="0.652165">
        <ele>2046.5</ele>
        <time>1970-01-01T00:14:43.000Z</time>
      </trkpt>
      <trkpt lat="42.672033" lon="0.652146">
        <ele>2046.5</ele>
        <time>1970-01-01T00:14:44.000Z</time>
      </trkpt>
      <trkpt lat="42.672021" lon="0.652129">
        <ele>2047.5</ele>
        <time>1970-01-01T00:14:46.000Z</time>
      </trkpt>
      <trkpt lat="42.672011" lon="0.652112">
        <ele>2047.5</ele>
        <time>1970-01-01T00:14:47.000Z</time>
      </trkpt>
      <trkpt lat="42.672002" lon="0.652095">
        <ele>2047.7</ele>
        <time>1970-01-01T00:14:48.000Z</time>
      </trkpt>
      <trkpt lat="42.671996" lon="0.652078">
        <ele>2047.7</ele>
        <time>1970-01-01T00:14:49.000Z</time>
      </trkpt>
      <trkpt lat="42.671991" lon="0.652066">
        <ele>2048.6</ele>
        <time>1970-01-01T00:14:50.000Z</time>
      </trkpt>
      <trkpt lat="42.671984" lon="0.652055">
        <ele>2048.8</ele>
        <time>1970-01-01T00:14:51.000Z</time>
      </trkpt>
      <trkpt lat="42.671977" lon="0.652045">
        <ele>2048.8</ele>
        <time>1970-01-01T00:14:52.000Z</time>
      </trkpt>
      <trkpt lat="42.671969" lon="0.652032">
        <ele>2048.8</ele>
        <time>1970-01-01T00:14:53.000Z</time>
      </trkpt>
      <trkpt lat="42.671965" lon="0.652022">
        <ele>2048.8</ele>
        <time>1970-01-01T00:14:54.000Z</time>
      </trkpt>
      <trkpt lat="42.671962" lon="0.65201">
        <ele>2049.2</ele>
        <time>1970-01-01T00:14:55.000Z</time>
      </trkpt>
      <trkpt lat="42.67196" lon="0.651997">
        <ele>2050.1</ele>
        <time>1970-01-01T00:14:57.000Z</time>
      </trkpt>
      <trkpt lat="42.671963" lon="0.651985">
        <ele>2049.2</ele>
        <time>1970-01-01T00:14:58.000Z</time>
      </trkpt>
      <trkpt lat="42.671965" lon="0.651979">
        <ele>2049.2</ele>
        <time>1970-01-01T00:14:59.000Z</time>
      </trkpt>
      <trkpt lat="42.671968" lon="0.651971">
        <ele>2049.2</ele>
        <time>1970-01-01T00:15:00.000Z</time>
      </trkpt>
      <trkpt lat="42.671973" lon="0.651962">
        <ele>2049.6</ele>
        <time>1970-01-01T00:15:01.000Z</time>
      </trkpt>
      <trkpt lat="42.671981" lon="0.651954">
        <ele>2049.6</ele>
        <time>1970-01-01T00:15:02.000Z</time>
      </trkpt>
      <trkpt lat="42.671989" lon="0.651945">
        <ele>2049.6</ele>
        <time>1970-01-01T00:15:03.000Z</time>
      </trkpt>
      <trkpt lat="42.671997" lon="0.651932">
        <ele>2048.6</ele>
        <time>1970-01-01T00:15:05.000Z</time>
      </trkpt>
      <trkpt lat="42.672006" lon="0.65193">
        <ele>2048.6</ele>
        <time>1970-01-01T00:15:06.000Z</time>
      </trkpt>
      <trkpt lat="42.672019" lon="0.651938">
        <ele>2048.6</ele>
        <time>1970-01-01T00:15:07.000Z</time>
      </trkpt>
      <trkpt lat="42.67203" lon="0.651939">
        <ele>2047.8</ele>
        <time>1970-01-01T00:15:09.000Z</time>
      </trkpt>
      <trkpt lat="42.67204" lon="0.65194">
        <ele>2047.8</ele>
        <time>1970-01-01T00:15:10.000Z</time>
      </trkpt>
      <trkpt lat="42.672059" lon="0.651952">
        <ele>2047</ele>
        <time>1970-01-01T00:15:11.000Z</time>
      </trkpt>
      <trkpt lat="42.672066" lon="0.65196">
        <ele>2047</ele>
        <time>1970-01-01T00:15:12.000Z</time>
      </trkpt>
      <trkpt lat="42.672073" lon="0.651968">
        <ele>2047</ele>
        <time>1970-01-01T00:15:13.000Z</time>
      </trkpt>
      <trkpt lat="42.672082" lon="0.651983">
        <ele>2046.6</ele>
        <time>1970-01-01T00:15:14.000Z</time>
      </trkpt>
      <trkpt lat="42.67209" lon="0.651997">
        <ele>2045.9</ele>
        <time>1970-01-01T00:15:15.000Z</time>
      </trkpt>
      <trkpt lat="42.672097" lon="0.652008">
        <ele>2045.9</ele>
        <time>1970-01-01T00:15:16.000Z</time>
      </trkpt>
      <trkpt lat="42.672106" lon="0.65202">
        <ele>2045.6</ele>
        <time>1970-01-01T00:15:17.000Z</time>
      </trkpt>
      <trkpt lat="42.672114" lon="0.652032">
        <ele>2045.6</ele>
        <time>1970-01-01T00:15:18.000Z</time>
      </trkpt>
      <trkpt lat="42.67213" lon="0.652052">
        <ele>2044.8</ele>
        <time>1970-01-01T00:15:19.000Z</time>
      </trkpt>
      <trkpt lat="42.672136" lon="0.652058">
        <ele>2044.5</ele>
        <time>1970-01-01T00:15:20.000Z</time>
      </trkpt>
      <trkpt lat="42.672143" lon="0.652065">
        <ele>2044.5</ele>
        <time>1970-01-01T00:15:21.000Z</time>
      </trkpt>
      <trkpt lat="42.672148" lon="0.65208">
        <ele>2044.5</ele>
        <time>1970-01-01T00:15:23.000Z</time>
      </trkpt>
      <trkpt lat="42.672156" lon="0.652093">
        <ele>2043.6</ele>
        <time>1970-01-01T00:15:24.000Z</time>
      </trkpt>
      <trkpt lat="42.672163" lon="0.652105">
        <ele>2043.4</ele>
        <time>1970-01-01T00:15:25.000Z</time>
      </trkpt>
      <trkpt lat="42.672174" lon="0.652118">
        <ele>2043.4</ele>
        <time>1970-01-01T00:15:27.000Z</time>
      </trkpt>
      <trkpt lat="42.672182" lon="0.652127">
        <ele>2042.4</ele>
        <time>1970-01-01T00:15:28.000Z</time>
      </trkpt>
      <trkpt lat="42.672188" lon="0.652139">
        <ele>2042.4</ele>
        <time>1970-01-01T00:15:29.000Z</time>
      </trkpt>
      <trkpt lat="42.672193" lon="0.65215">
        <ele>2042.3</ele>
        <time>1970-01-01T00:15:30.000Z</time>
      </trkpt>
      <trkpt lat="42.672202" lon="0.652167">
        <ele>2042.3</ele>
        <time>1970-01-01T00:15:31.000Z</time>
      </trkpt>
      <trkpt lat="42.672213" lon="0.652187">
        <ele>2041.1</ele>
        <time>1970-01-01T00:15:33.000Z</time>
      </trkpt>
      <trkpt lat="42.67223" lon="0.652196">
        <ele>2041.1</ele>
        <time>1970-01-01T00:15:34.000Z</time>
      </trkpt>
      <trkpt lat="42.67224" lon="0.652198">
        <ele>2041.1</ele>
        <time>1970-01-01T00:15:36.000Z</time>
      </trkpt>
      <trkpt lat="42.67225" lon="0.652201">
        <ele>2040</ele>
        <time>1970-01-01T00:15:37.000Z</time>
      </trkpt>
      <trkpt lat="42.672259" lon="0.652211">
        <ele>2040</ele>
        <time>1970-01-01T00:15:38.000Z</time>
      </trkpt>
      <trkpt lat="42.672262" lon="0.652221">
        <ele>2040</ele>
        <time>1970-01-01T00:15:39.000Z</time>
      </trkpt>
      <trkpt lat="42.672266" lon="0.652232">
        <ele>2039.9</ele>
        <time>1970-01-01T00:15:40.000Z</time>
      </trkpt>
      <trkpt lat="42.672271" lon="0.652243">
        <ele>2039.9</ele>
        <time>1970-01-01T00:15:41.000Z</time>
      </trkpt>
      <trkpt lat="42.67228" lon="0.652254">
        <ele>2039</ele>
        <time>1970-01-01T00:15:42.000Z</time>
      </trkpt>
      <trkpt lat="42.672291" lon="0.652264">
        <ele>2039</ele>
        <time>1970-01-01T00:15:43.000Z</time>
      </trkpt>
      <trkpt lat="42.672307" lon="0.652282">
        <ele>2038.9</ele>
        <time>1970-01-01T00:15:44.000Z</time>
      </trkpt>
      <trkpt lat="42.672314" lon="0.652288">
        <ele>2038</ele>
        <time>1970-01-01T00:15:46.000Z</time>
      </trkpt>
      <trkpt lat="42.672321" lon="0.652295">
        <ele>2038</ele>
        <time>1970-01-01T00:15:47.000Z</time>
      </trkpt>
      <trkpt lat="42.672331" lon="0.652297">
        <ele>2038</ele>
        <time>1970-01-01T00:15:48.000Z</time>
      </trkpt>
      <trkpt lat="42.672339" lon="0.652302">
        <ele>2038</ele>
        <time>1970-01-01T00:15:49.000Z</time>
      </trkpt>
      <trkpt lat="42.672345" lon="0.652311">
        <ele>2037.1</ele>
        <time>1970-01-01T00:15:50.000Z</time>
      </trkpt>
      <trkpt lat="42.672351" lon="0.65233">
        <ele>2037.1</ele>
        <time>1970-01-01T00:15:52.000Z</time>
      </trkpt>
      <trkpt lat="42.672354" lon="0.652343">
        <ele>2037.1</ele>
        <time>1970-01-01T00:15:53.000Z</time>
      </trkpt>
      <trkpt lat="42.672358" lon="0.652354">
        <ele>2037.1</ele>
        <time>1970-01-01T00:15:54.000Z</time>
      </trkpt>
      <trkpt lat="42.672365" lon="0.652365">
        <ele>2037.1</ele>
        <time>1970-01-01T00:15:56.000Z</time>
      </trkpt>
      <trkpt lat="42.67237" lon="0.652368">
        <ele>2037.1</ele>
        <time>1970-01-01T00:15:57.000Z</time>
      </trkpt>
      <trkpt lat="42.672375" lon="0.652372">
        <ele>2036.2</ele>
        <time>1970-01-01T00:15:58.000Z</time>
      </trkpt>
      <trkpt lat="42.67238" lon="0.652379">
        <ele>2036.2</ele>
        <time>1970-01-01T00:15:59.000Z</time>
      </trkpt>
      <trkpt lat="42.672384" lon="0.652386">
        <ele>2036.2</ele>
        <time>1970-01-01T00:16:00.000Z</time>
      </trkpt>
      <trkpt lat="42.672388" lon="0.652395">
        <ele>2036.2</ele>
        <time>1970-01-01T00:16:01.000Z</time>
      </trkpt>
      <trkpt lat="42.672394" lon="0.652403">
        <ele>2036.3</ele>
        <time>1970-01-01T00:16:02.000Z</time>
      </trkpt>
      <trkpt lat="42.672401" lon="0.652411">
        <ele>2036.3</ele>
        <time>1970-01-01T00:16:03.000Z</time>
      </trkpt>
      <trkpt lat="42.672407" lon="0.652417">
        <ele>2035.3</ele>
        <time>1970-01-01T00:16:05.000Z</time>
      </trkpt>
      <trkpt lat="42.672417" lon="0.652414">
        <ele>2035.3</ele>
        <time>1970-01-01T00:16:06.000Z</time>
      </trkpt>
      <trkpt lat="42.672421" lon="0.652415">
        <ele>2035.3</ele>
        <time>1970-01-01T00:16:07.000Z</time>
      </trkpt>
      <trkpt lat="42.672426" lon="0.652422">
        <ele>2035.3</ele>
        <time>1970-01-01T00:16:08.000Z</time>
      </trkpt>
      <trkpt lat="42.672431" lon="0.65243">
        <ele>2035.3</ele>
        <time>1970-01-01T00:16:09.000Z</time>
      </trkpt>
      <trkpt lat="42.672438" lon="0.652438">
        <ele>2034.3</ele>
        <time>1970-01-01T00:16:11.000Z</time>
      </trkpt>
      <trkpt lat="42.672445" lon="0.652441">
        <ele>2034.3</ele>
        <time>1970-01-01T00:16:12.000Z</time>
      </trkpt>
      <trkpt lat="42.672451" lon="0.652438">
        <ele>2034.3</ele>
        <time>1970-01-01T00:16:13.000Z</time>
      </trkpt>
      <trkpt lat="42.672459" lon="0.652425">
        <ele>2034.3</ele>
        <time>1970-01-01T00:16:15.000Z</time>
      </trkpt>
      <trkpt lat="42.672461" lon="0.652412">
        <ele>2034.3</ele>
        <time>1970-01-01T00:16:16.000Z</time>
      </trkpt>
      <trkpt lat="42.67246" lon="0.652399">
        <ele>2034.2</ele>
        <time>1970-01-01T00:16:17.000Z</time>
      </trkpt>
      <trkpt lat="42.672462" lon="0.652381">
        <ele>2034.2</ele>
        <time>1970-01-01T00:16:19.000Z</time>
      </trkpt>
      <trkpt lat="42.672462" lon="0.652369">
        <ele>2034.2</ele>
        <time>1970-01-01T00:16:20.000Z</time>
      </trkpt>
      <trkpt lat="42.672464" lon="0.652356">
        <ele>2034.2</ele>
        <time>1970-01-01T00:16:21.000Z</time>
      </trkpt>
      <trkpt lat="42.67247" lon="0.652348">
        <ele>2033.1</ele>
        <time>1970-01-01T00:16:22.000Z</time>
      </trkpt>
      <trkpt lat="42.67248" lon="0.65235">
        <ele>2033.1</ele>
        <time>1970-01-01T00:16:23.000Z</time>
      </trkpt>
      <trkpt lat="42.672489" lon="0.65236">
        <ele>2033.1</ele>
        <time>1970-01-01T00:16:24.000Z</time>
      </trkpt>
      <trkpt lat="42.672494" lon="0.652373">
        <ele>2033.1</ele>
        <time>1970-01-01T00:16:25.000Z</time>
      </trkpt>
      <trkpt lat="42.672498" lon="0.652384">
        <ele>2032</ele>
        <time>1970-01-01T00:16:27.000Z</time>
      </trkpt>
      <trkpt lat="42.672504" lon="0.652397">
        <ele>2032</ele>
        <time>1970-01-01T00:16:28.000Z</time>
      </trkpt>
      <trkpt lat="42.67251" lon="0.652408">
        <ele>2032</ele>
        <time>1970-01-01T00:16:29.000Z</time>
      </trkpt>
      <trkpt lat="42.672518" lon="0.652417">
        <ele>2032</ele>
        <time>1970-01-01T00:16:30.000Z</time>
      </trkpt>
      <trkpt lat="42.672529" lon="0.652424">
        <ele>2030.9</ele>
        <time>1970-01-01T00:16:32.000Z</time>
      </trkpt>
      <trkpt lat="42.672539" lon="0.652428">
        <ele>2030.9</ele>
        <time>1970-01-01T00:16:33.000Z</time>
      </trkpt>
      <trkpt lat="42.672547" lon="0.652434">
        <ele>2030.9</ele>
        <time>1970-01-01T00:16:34.000Z</time>
      </trkpt>
      <trkpt lat="42.672553" lon="0.652443">
        <ele>2030.9</ele>
        <time>1970-01-01T00:16:35.000Z</time>
      </trkpt>
      <trkpt lat="42.672558" lon="0.652452">
        <ele>2030.9</ele>
        <time>1970-01-01T00:16:36.000Z</time>
      </trkpt>
      <trkpt lat="42.672563" lon="0.65246">
        <ele>2029.8</ele>
        <time>1970-01-01T00:16:37.000Z</time>
      </trkpt>
      <trkpt lat="42.67257" lon="0.652467">
        <ele>2029.8</ele>
        <time>1970-01-01T00:16:38.000Z</time>
      </trkpt>
      <trkpt lat="42.672577" lon="0.652472">
        <ele>2029.8</ele>
        <time>1970-01-01T00:16:39.000Z</time>
      </trkpt>
      <trkpt lat="42.672584" lon="0.652484">
        <ele>2029.8</ele>
        <time>1970-01-01T00:16:40.000Z</time>
      </trkpt>
      <trkpt lat="42.672586" lon="0.6525">
        <ele>2029.9</ele>
        <time>1970-01-01T00:16:41.000Z</time>
      </trkpt>
      <trkpt lat="42.672589" lon="0.652515">
        <ele>2029.9</ele>
        <time>1970-01-01T00:16:43.000Z</time>
      </trkpt>
      <trkpt lat="42.672598" lon="0.652522">
        <ele>2028.8</ele>
        <time>1970-01-01T00:16:44.000Z</time>
      </trkpt>
      <trkpt lat="42.672609" lon="0.652523">
        <ele>2028.8</ele>
        <time>1970-01-01T00:16:46.000Z</time>
      </trkpt>
      <trkpt lat="42.672621" lon="0.652524">
        <ele>2028.8</ele>
        <time>1970-01-01T00:16:47.000Z</time>
      </trkpt>
      <trkpt lat="42.672629" lon="0.652531">
        <ele>2027.8</ele>
        <time>1970-01-01T00:16:48.000Z</time>
      </trkpt>
      <trkpt lat="42.672631" lon="0.652544">
        <ele>2027.8</ele>
        <time>1970-01-01T00:16:50.000Z</time>
      </trkpt>
      <trkpt lat="42.672633" lon="0.652555">
        <ele>2027.8</ele>
        <time>1970-01-01T00:16:51.000Z</time>
      </trkpt>
      <trkpt lat="42.672635" lon="0.652563">
        <ele>2027.8</ele>
        <time>1970-01-01T00:16:52.000Z</time>
      </trkpt>
      <trkpt lat="42.672647" lon="0.652567">
        <ele>2027.8</ele>
        <time>1970-01-01T00:16:53.000Z</time>
      </trkpt>
      <trkpt lat="42.672656" lon="0.652565">
        <ele>2026.7</ele>
        <time>1970-01-01T00:16:55.000Z</time>
      </trkpt>
      <trkpt lat="42.672666" lon="0.652566">
        <ele>2026.7</ele>
        <time>1970-01-01T00:16:56.000Z</time>
      </trkpt>
      <trkpt lat="42.672676" lon="0.65257">
        <ele>2026.7</ele>
        <time>1970-01-01T00:16:57.000Z</time>
      </trkpt>
      <trkpt lat="42.672686" lon="0.652575">
        <ele>2026.8</ele>
        <time>1970-01-01T00:16:58.000Z</time>
      </trkpt>
      <trkpt lat="42.672694" lon="0.652586">
        <ele>2025.6</ele>
        <time>1970-01-01T00:16:59.000Z</time>
      </trkpt>
      <trkpt lat="42.672702" lon="0.652599">
        <ele>2025.6</ele>
        <time>1970-01-01T00:17:00.000Z</time>
      </trkpt>
      <trkpt lat="42.672705" lon="0.652618">
        <ele>2025.7</ele>
        <time>1970-01-01T00:17:01.000Z</time>
      </trkpt>
      <trkpt lat="42.672709" lon="0.652634">
        <ele>2025.7</ele>
        <time>1970-01-01T00:17:03.000Z</time>
      </trkpt>
      <trkpt lat="42.672714" lon="0.65265">
        <ele>2025.7</ele>
        <time>1970-01-01T00:17:04.000Z</time>
      </trkpt>
      <trkpt lat="42.672721" lon="0.652662">
        <ele>2024.5</ele>
        <time>1970-01-01T00:17:05.000Z</time>
      </trkpt>
      <trkpt lat="42.67273" lon="0.652668">
        <ele>2024.5</ele>
        <time>1970-01-01T00:17:06.000Z</time>
      </trkpt>
      <trkpt lat="42.672745" lon="0.652679">
        <ele>2024.5</ele>
        <time>1970-01-01T00:17:07.000Z</time>
      </trkpt>
      <trkpt lat="42.67275" lon="0.652685">
        <ele>2023.2</ele>
        <time>1970-01-01T00:17:08.000Z</time>
      </trkpt>
      <trkpt lat="42.672755" lon="0.652691">
        <ele>2023.2</ele>
        <time>1970-01-01T00:17:09.000Z</time>
      </trkpt>
      <trkpt lat="42.67276" lon="0.652697">
        <ele>2023.2</ele>
        <time>1970-01-01T00:17:10.000Z</time>
      </trkpt>
      <trkpt lat="42.672767" lon="0.652706">
        <ele>2023.3</ele>
        <time>1970-01-01T00:17:12.000Z</time>
      </trkpt>
      <trkpt lat="42.672774" lon="0.652716">
        <ele>2023.3</ele>
        <time>1970-01-01T00:17:13.000Z</time>
      </trkpt>
      <trkpt lat="42.672778" lon="0.652725">
        <ele>2023.3</ele>
        <time>1970-01-01T00:17:14.000Z</time>
      </trkpt>
      <trkpt lat="42.672783" lon="0.652732">
        <ele>2022</ele>
        <time>1970-01-01T00:17:16.000Z</time>
      </trkpt>
      <trkpt lat="42.672784" lon="0.65274">
        <ele>2022</ele>
        <time>1970-01-01T00:17:17.000Z</time>
      </trkpt>
      <trkpt lat="42.672781" lon="0.652749">
        <ele>2022.1</ele>
        <time>1970-01-01T00:17:18.000Z</time>
      </trkpt>
      <trkpt lat="42.672779" lon="0.652755">
        <ele>2023.4</ele>
        <time>1970-01-01T00:17:19.000Z</time>
      </trkpt>
      <trkpt lat="42.672771" lon="0.652769">
        <ele>2023.4</ele>
        <time>1970-01-01T00:17:21.000Z</time>
      </trkpt>
      <trkpt lat="42.672764" lon="0.65278">
        <ele>2023.4</ele>
        <time>1970-01-01T00:17:22.000Z</time>
      </trkpt>
      <trkpt lat="42.672765" lon="0.65279">
        <ele>2023.6</ele>
        <time>1970-01-01T00:17:23.000Z</time>
      </trkpt>
      <trkpt lat="42.67277" lon="0.652797">
        <ele>2023.6</ele>
        <time>1970-01-01T00:17:25.000Z</time>
      </trkpt>
      <trkpt lat="42.672774" lon="0.652801">
        <ele>2023.6</ele>
        <time>1970-01-01T00:17:26.000Z</time>
      </trkpt>
      <trkpt lat="42.672779" lon="0.652806">
        <ele>2023.6</ele>
        <time>1970-01-01T00:17:27.000Z</time>
      </trkpt>
      <trkpt lat="42.672785" lon="0.652813">
        <ele>2022.2</ele>
        <time>1970-01-01T00:17:28.000Z</time>
      </trkpt>
      <trkpt lat="42.672788" lon="0.652818">
        <ele>2022.2</ele>
        <time>1970-01-01T00:17:29.000Z</time>
      </trkpt>
      <trkpt lat="42.67279" lon="0.652828">
        <ele>2022.2</ele>
        <time>1970-01-01T00:17:30.000Z</time>
      </trkpt>
      <trkpt lat="42.672791" lon="0.652837">
        <ele>2022.3</ele>
        <time>1970-01-01T00:17:31.000Z</time>
      </trkpt>
      <trkpt lat="42.672794" lon="0.652854">
        <ele>2022.3</ele>
        <time>1970-01-01T00:17:33.000Z</time>
      </trkpt>
      <trkpt lat="42.672796" lon="0.652867">
        <ele>2022.3</ele>
        <time>1970-01-01T00:17:34.000Z</time>
      </trkpt>
      <trkpt lat="42.672796" lon="0.65288">
        <ele>2022.5</ele>
        <time>1970-01-01T00:17:35.000Z</time>
      </trkpt>
      <trkpt lat="42.672792" lon="0.652893">
        <ele>2022.5</ele>
        <time>1970-01-01T00:17:36.000Z</time>
      </trkpt>
      <trkpt lat="42.672788" lon="0.652908">
        <ele>2022.5</ele>
        <time>1970-01-01T00:17:37.000Z</time>
      </trkpt>
      <trkpt lat="42.672783" lon="0.652923">
        <ele>2022.6</ele>
        <time>1970-01-01T00:17:38.000Z</time>
      </trkpt>
      <trkpt lat="42.672785" lon="0.652939">
        <ele>2022.6</ele>
        <time>1970-01-01T00:17:40.000Z</time>
      </trkpt>
      <trkpt lat="42.67279" lon="0.652949">
        <ele>2022.6</ele>
        <time>1970-01-01T00:17:41.000Z</time>
      </trkpt>
      <trkpt lat="42.672798" lon="0.652958">
        <ele>2022.8</ele>
        <time>1970-01-01T00:17:42.000Z</time>
      </trkpt>
      <trkpt lat="42.672805" lon="0.652964">
        <ele>2022.8</ele>
        <time>1970-01-01T00:17:43.000Z</time>
      </trkpt>
      <trkpt lat="42.672811" lon="0.652973">
        <ele>2022.8</ele>
        <time>1970-01-01T00:17:44.000Z</time>
      </trkpt>
      <trkpt lat="42.672822" lon="0.652977">
        <ele>2021.3</ele>
        <time>1970-01-01T00:17:45.000Z</time>
      </trkpt>
      <trkpt lat="42.672835" lon="0.652984">
        <ele>2021.3</ele>
        <time>1970-01-01T00:17:47.000Z</time>
      </trkpt>
      <trkpt lat="42.672843" lon="0.65299">
        <ele>2021.3</ele>
        <time>1970-01-01T00:17:48.000Z</time>
      </trkpt>
      <trkpt lat="42.672848" lon="0.652999">
        <ele>2019.8</ele>
        <time>1970-01-01T00:17:49.000Z</time>
      </trkpt>
      <trkpt lat="42.672851" lon="0.653005">
        <ele>2019.9</ele>
        <time>1970-01-01T00:17:50.000Z</time>
      </trkpt>
      <trkpt lat="42.672855" lon="0.653013">
        <ele>2019.9</ele>
        <time>1970-01-01T00:17:51.000Z</time>
      </trkpt>
      <trkpt lat="42.672857" lon="0.653022">
        <ele>2019.9</ele>
        <time>1970-01-01T00:17:52.000Z</time>
      </trkpt>
      <trkpt lat="42.672859" lon="0.653031">
        <ele>2019.9</ele>
        <time>1970-01-01T00:17:53.000Z</time>
      </trkpt>
      <trkpt lat="42.67286" lon="0.653038">
        <ele>2019.9</ele>
        <time>1970-01-01T00:17:54.000Z</time>
      </trkpt>
      <trkpt lat="42.672863" lon="0.653049">
        <ele>2020.1</ele>
        <time>1970-01-01T00:17:55.000Z</time>
      </trkpt>
      <trkpt lat="42.672867" lon="0.653059">
        <ele>2020.1</ele>
        <time>1970-01-01T00:17:56.000Z</time>
      </trkpt>
      <trkpt lat="42.672874" lon="0.653069">
        <ele>2020.1</ele>
        <time>1970-01-01T00:17:57.000Z</time>
      </trkpt>
      <trkpt lat="42.672881" lon="0.653074">
        <ele>2018.6</ele>
        <time>1970-01-01T00:17:58.000Z</time>
      </trkpt>
      <trkpt lat="42.672888" lon="0.653075">
        <ele>2018.6</ele>
        <time>1970-01-01T00:17:59.000Z</time>
      </trkpt>
      <trkpt lat="42.672902" lon="0.653072">
        <ele>2018.6</ele>
        <time>1970-01-01T00:18:00.000Z</time>
      </trkpt>
      <trkpt lat="42.672912" lon="0.653068">
        <ele>2017.1</ele>
        <time>1970-01-01T00:18:02.000Z</time>
      </trkpt>
      <trkpt lat="42.67292" lon="0.653061">
        <ele>2017.1</ele>
        <time>1970-01-01T00:18:03.000Z</time>
      </trkpt>
      <trkpt lat="42.672927" lon="0.653054">
        <ele>2017.1</ele>
        <time>1970-01-01T00:18:04.000Z</time>
      </trkpt>
      <trkpt lat="42.672931" lon="0.653043">
        <ele>2017.1</ele>
        <time>1970-01-01T00:18:05.000Z</time>
      </trkpt>
      <trkpt lat="42.672936" lon="0.653027">
        <ele>2017</ele>
        <time>1970-01-01T00:18:07.000Z</time>
      </trkpt>
      <trkpt lat="42.672946" lon="0.65302">
        <ele>2015.6</ele>
        <time>1970-01-01T00:18:08.000Z</time>
      </trkpt>
      <trkpt lat="42.672955" lon="0.653023">
        <ele>2015.6</ele>
        <time>1970-01-01T00:18:09.000Z</time>
      </trkpt>
      <trkpt lat="42.672963" lon="0.653032">
        <ele>2015.6</ele>
        <time>1970-01-01T00:18:10.000Z</time>
      </trkpt>
      <trkpt lat="42.67297" lon="0.653041">
        <ele>2015.6</ele>
        <time>1970-01-01T00:18:12.000Z</time>
      </trkpt>
      <trkpt lat="42.672978" lon="0.653052">
        <ele>2014.3</ele>
        <time>1970-01-01T00:18:13.000Z</time>
      </trkpt>
      <trkpt lat="42.67298" lon="0.653064">
        <ele>2014.3</ele>
        <time>1970-01-01T00:18:14.000Z</time>
      </trkpt>
      <trkpt lat="42.67298" lon="0.653094">
        <ele>2014.4</ele>
        <time>1970-01-01T00:18:16.000Z</time>
      </trkpt>
      <trkpt lat="42.672978" lon="0.653104">
        <ele>2014.4</ele>
        <time>1970-01-01T00:18:17.000Z</time>
      </trkpt>
      <trkpt lat="42.672977" lon="0.653114">
        <ele>2014.4</ele>
        <time>1970-01-01T00:18:18.000Z</time>
      </trkpt>
      <trkpt lat="42.672972" lon="0.653131">
        <ele>2014.5</ele>
        <time>1970-01-01T00:18:19.000Z</time>
      </trkpt>
      <trkpt lat="42.672964" lon="0.653149">
        <ele>2016</ele>
        <time>1970-01-01T00:18:20.000Z</time>
      </trkpt>
      <trkpt lat="42.672958" lon="0.653164">
        <ele>2016</ele>
        <time>1970-01-01T00:18:21.000Z</time>
      </trkpt>
      <trkpt lat="42.672951" lon="0.65318">
        <ele>2016.1</ele>
        <time>1970-01-01T00:18:22.000Z</time>
      </trkpt>
      <trkpt lat="42.672947" lon="0.653199">
        <ele>2016.1</ele>
        <time>1970-01-01T00:18:24.000Z</time>
      </trkpt>
      <trkpt lat="42.67294" lon="0.653227">
        <ele>2016.3</ele>
        <time>1970-01-01T00:18:25.000Z</time>
      </trkpt>
      <trkpt lat="42.672936" lon="0.653237">
        <ele>2017.8</ele>
        <time>1970-01-01T00:18:26.000Z</time>
      </trkpt>
      <trkpt lat="42.672932" lon="0.653248">
        <ele>2017.8</ele>
        <time>1970-01-01T00:18:27.000Z</time>
      </trkpt>
      <trkpt lat="42.672923" lon="0.653274">
        <ele>2018</ele>
        <time>1970-01-01T00:18:28.000Z</time>
      </trkpt>
      <trkpt lat="42.672919" lon="0.653284">
        <ele>2018</ele>
        <time>1970-01-01T00:18:29.000Z</time>
      </trkpt>
      <trkpt lat="42.672915" lon="0.653293">
        <ele>2018</ele>
        <time>1970-01-01T00:18:30.000Z</time>
      </trkpt>
      <trkpt lat="42.672909" lon="0.653307">
        <ele>2018.3</ele>
        <time>1970-01-01T00:18:31.000Z</time>
      </trkpt>
      <trkpt lat="42.672902" lon="0.653329">
        <ele>2019.9</ele>
        <time>1970-01-01T00:18:33.000Z</time>
      </trkpt>
      <trkpt lat="42.672901" lon="0.653344">
        <ele>2020.3</ele>
        <time>1970-01-01T00:18:34.000Z</time>
      </trkpt>
      <trkpt lat="42.6729" lon="0.653359">
        <ele>2020.3</ele>
        <time>1970-01-01T00:18:35.000Z</time>
      </trkpt>
      <trkpt lat="42.6729" lon="0.653375">
        <ele>2020.3</ele>
        <time>1970-01-01T00:18:37.000Z</time>
      </trkpt>
      <trkpt lat="42.672901" lon="0.653389">
        <ele>2020.7</ele>
        <time>1970-01-01T00:18:38.000Z</time>
      </trkpt>
      <trkpt lat="42.672903" lon="0.653401">
        <ele>2020.7</ele>
        <time>1970-01-01T00:18:39.000Z</time>
      </trkpt>
      <trkpt lat="42.672906" lon="0.653415">
        <ele>2020.7</ele>
        <time>1970-01-01T00:18:40.000Z</time>
      </trkpt>
      <trkpt lat="42.672912" lon="0.653432">
        <ele>2019.3</ele>
        <time>1970-01-01T00:18:41.000Z</time>
      </trkpt>
      <trkpt lat="42.67292" lon="0.653449">
        <ele>2019.3</ele>
        <time>1970-01-01T00:18:42.000Z</time>
      </trkpt>
      <trkpt lat="42.672931" lon="0.653465">
        <ele>2019.3</ele>
        <time>1970-01-01T00:18:43.000Z</time>
      </trkpt>
      <trkpt lat="42.672938" lon="0.653481">
        <ele>2019.7</ele>
        <time>1970-01-01T00:18:44.000Z</time>
      </trkpt>
      <trkpt lat="42.672945" lon="0.653493">
        <ele>2018</ele>
        <time>1970-01-01T00:18:45.000Z</time>
      </trkpt>
      <trkpt lat="42.672952" lon="0.653507">
        <ele>2018</ele>
        <time>1970-01-01T00:18:47.000Z</time>
      </trkpt>
      <trkpt lat="42.672957" lon="0.65352">
        <ele>2018.3</ele>
        <time>1970-01-01T00:18:48.000Z</time>
      </trkpt>
      <trkpt lat="42.67296" lon="0.653533">
        <ele>2018.3</ele>
        <time>1970-01-01T00:18:49.000Z</time>
      </trkpt>
      <trkpt lat="42.672961" lon="0.653546">
        <ele>2018.3</ele>
        <time>1970-01-01T00:18:50.000Z</time>
      </trkpt>
      <trkpt lat="42.672962" lon="0.653561">
        <ele>2018.7</ele>
        <time>1970-01-01T00:18:51.000Z</time>
      </trkpt>
      <trkpt lat="42.672962" lon="0.653588">
        <ele>2018.7</ele>
        <time>1970-01-01T00:18:52.000Z</time>
      </trkpt>
      <trkpt lat="42.672963" lon="0.653601">
        <ele>2019</ele>
        <time>1970-01-01T00:18:53.000Z</time>
      </trkpt>
      <trkpt lat="42.672965" lon="0.653614">
        <ele>2019</ele>
        <time>1970-01-01T00:18:55.000Z</time>
      </trkpt>
      <trkpt lat="42.672967" lon="0.653627">
        <ele>2019</ele>
        <time>1970-01-01T00:18:56.000Z</time>
      </trkpt>
      <trkpt lat="42.672969" lon="0.653639">
        <ele>2019</ele>
        <time>1970-01-01T00:18:57.000Z</time>
      </trkpt>
      <trkpt lat="42.67297" lon="0.653652">
        <ele>2019.3</ele>
        <time>1970-01-01T00:18:59.000Z</time>
      </trkpt>
      <trkpt lat="42.672972" lon="0.653665">
        <ele>2017.6</ele>
        <time>1970-01-01T00:19:00.000Z</time>
      </trkpt>
      <trkpt lat="42.672974" lon="0.653678">
        <ele>2017.6</ele>
        <time>1970-01-01T00:19:01.000Z</time>
      </trkpt>
      <trkpt lat="42.672976" lon="0.65369">
        <ele>2017.8</ele>
        <time>1970-01-01T00:19:03.000Z</time>
      </trkpt>
      <trkpt lat="42.672978" lon="0.653703">
        <ele>2017.8</ele>
        <time>1970-01-01T00:19:04.000Z</time>
      </trkpt>
      <trkpt lat="42.672979" lon="0.653716">
        <ele>2017.8</ele>
        <time>1970-01-01T00:19:05.000Z</time>
      </trkpt>
      <trkpt lat="42.672981" lon="0.653729">
        <ele>2017.8</ele>
        <time>1970-01-01T00:19:06.000Z</time>
      </trkpt>
      <trkpt lat="42.672983" lon="0.653742">
        <ele>2018.1</ele>
        <time>1970-01-01T00:19:07.000Z</time>
      </trkpt>
      <trkpt lat="42.672987" lon="0.653754">
        <ele>2018.1</ele>
        <time>1970-01-01T00:19:08.000Z</time>
      </trkpt>
      <trkpt lat="42.672991" lon="0.65377">
        <ele>2018.1</ele>
        <time>1970-01-01T00:19:09.000Z</time>
      </trkpt>
      <trkpt lat="42.672995" lon="0.653788">
        <ele>2018.4</ele>
        <time>1970-01-01T00:19:11.000Z</time>
      </trkpt>
      <trkpt lat="42.672998" lon="0.653801">
        <ele>2018.4</ele>
        <time>1970-01-01T00:19:12.000Z</time>
      </trkpt>
      <trkpt lat="42.672996" lon="0.653818">
        <ele>2018.6</ele>
        <time>1970-01-01T00:19:13.000Z</time>
      </trkpt>
      <trkpt lat="42.672995" lon="0.653833">
        <ele>2018.6</ele>
        <time>1970-01-01T00:19:15.000Z</time>
      </trkpt>
      <trkpt lat="42.672996" lon="0.653846">
        <ele>2018.6</ele>
        <time>1970-01-01T00:19:16.000Z</time>
      </trkpt>
      <trkpt lat="42.672999" lon="0.653859">
        <ele>2018.9</ele>
        <time>1970-01-01T00:19:17.000Z</time>
      </trkpt>
      <trkpt lat="42.673003" lon="0.653878">
        <ele>2016.8</ele>
        <time>1970-01-01T00:19:19.000Z</time>
      </trkpt>
      <trkpt lat="42.673004" lon="0.653889">
        <ele>2016.8</ele>
        <time>1970-01-01T00:19:20.000Z</time>
      </trkpt>
      <trkpt lat="42.673001" lon="0.6539">
        <ele>2018.9</ele>
        <time>1970-01-01T00:19:21.000Z</time>
      </trkpt>
      <trkpt lat="42.672999" lon="0.653912">
        <ele>2019.1</ele>
        <time>1970-01-01T00:19:22.000Z</time>
      </trkpt>
      <trkpt lat="42.672999" lon="0.653924">
        <ele>2019.1</ele>
        <time>1970-01-01T00:19:23.000Z</time>
      </trkpt>
      <trkpt lat="42.673002" lon="0.653936">
        <ele>2017</ele>
        <time>1970-01-01T00:19:25.000Z</time>
      </trkpt>
      <trkpt lat="42.673009" lon="0.653938">
        <ele>2017</ele>
        <time>1970-01-01T00:19:26.000Z</time>
      </trkpt>
      <trkpt lat="42.673017" lon="0.653931">
        <ele>2017</ele>
        <time>1970-01-01T00:19:27.000Z</time>
      </trkpt>
      <trkpt lat="42.673025" lon="0.653919">
        <ele>2017</ele>
        <time>1970-01-01T00:19:28.000Z</time>
      </trkpt>
      <trkpt lat="42.673029" lon="0.653908">
        <ele>2017</ele>
        <time>1970-01-01T00:19:29.000Z</time>
      </trkpt>
      <trkpt lat="42.673031" lon="0.65389">
        <ele>2016.8</ele>
        <time>1970-01-01T00:19:30.000Z</time>
      </trkpt>
      <trkpt lat="42.673033" lon="0.653869">
        <ele>2016.8</ele>
        <time>1970-01-01T00:19:31.000Z</time>
      </trkpt>
      <trkpt lat="42.673034" lon="0.653851">
        <ele>2014.6</ele>
        <time>1970-01-01T00:19:33.000Z</time>
      </trkpt>
      <trkpt lat="42.673034" lon="0.653829">
        <ele>2014.6</ele>
        <time>1970-01-01T00:19:34.000Z</time>
      </trkpt>
      <trkpt lat="42.673033" lon="0.653807">
        <ele>2016.5</ele>
        <time>1970-01-01T00:19:35.000Z</time>
      </trkpt>
      <trkpt lat="42.673033" lon="0.653792">
        <ele>2016.5</ele>
        <time>1970-01-01T00:19:36.000Z</time>
      </trkpt>
      <trkpt lat="42.673032" lon="0.653774">
        <ele>2016.5</ele>
        <time>1970-01-01T00:19:37.000Z</time>
      </trkpt>
      <trkpt lat="42.673037" lon="0.653753">
        <ele>2014.3</ele>
        <time>1970-01-01T00:19:39.000Z</time>
      </trkpt>
      <trkpt lat="42.673042" lon="0.653749">
        <ele>2014.3</ele>
        <time>1970-01-01T00:19:40.000Z</time>
      </trkpt>
      <trkpt lat="42.673049" lon="0.65375">
        <ele>2014.3</ele>
        <time>1970-01-01T00:19:41.000Z</time>
      </trkpt>
      <trkpt lat="42.673054" lon="0.65376">
        <ele>2014.3</ele>
        <time>1970-01-01T00:19:42.000Z</time>
      </trkpt>
      <trkpt lat="42.673058" lon="0.653769">
        <ele>2014.3</ele>
        <time>1970-01-01T00:19:43.000Z</time>
      </trkpt>
      <trkpt lat="42.673062" lon="0.653781">
        <ele>2014.3</ele>
        <time>1970-01-01T00:19:45.000Z</time>
      </trkpt>
      <trkpt lat="42.673067" lon="0.653793">
        <ele>2012.3</ele>
        <time>1970-01-01T00:19:46.000Z</time>
      </trkpt>
      <trkpt lat="42.673071" lon="0.65381">
        <ele>2012.3</ele>
        <time>1970-01-01T00:19:47.000Z</time>
      </trkpt>
      <trkpt lat="42.673075" lon="0.653823">
        <ele>2012.4</ele>
        <time>1970-01-01T00:19:49.000Z</time>
      </trkpt>
      <trkpt lat="42.673079" lon="0.653833">
        <ele>2012.3</ele>
        <time>1970-01-01T00:19:50.000Z</time>
      </trkpt>
      <trkpt lat="42.673083" lon="0.653838">
        <ele>2012.3</ele>
        <time>1970-01-01T00:19:51.000Z</time>
      </trkpt>
      <trkpt lat="42.673089" lon="0.653842">
        <ele>2012.3</ele>
        <time>1970-01-01T00:19:52.000Z</time>
      </trkpt>
      <trkpt lat="42.673093" lon="0.653849">
        <ele>2012.3</ele>
        <time>1970-01-01T00:19:53.000Z</time>
      </trkpt>
      <trkpt lat="42.673095" lon="0.653857">
        <ele>2012.2</ele>
        <time>1970-01-01T00:19:54.000Z</time>
      </trkpt>
      <trkpt lat="42.673096" lon="0.653867">
        <ele>2012.3</ele>
        <time>1970-01-01T00:19:55.000Z</time>
      </trkpt>
      <trkpt lat="42.673097" lon="0.653874">
        <ele>2010.2</ele>
        <time>1970-01-01T00:19:56.000Z</time>
      </trkpt>
      <trkpt lat="42.673098" lon="0.653883">
        <ele>2010.2</ele>
        <time>1970-01-01T00:19:57.000Z</time>
      </trkpt>
      <trkpt lat="42.673099" lon="0.653893">
        <ele>2010.1</ele>
        <time>1970-01-01T00:19:58.000Z</time>
      </trkpt>
      <trkpt lat="42.6731" lon="0.653905">
        <ele>2010.1</ele>
        <time>1970-01-01T00:19:59.000Z</time>
      </trkpt>
      <trkpt lat="42.6731" lon="0.653915">
        <ele>2010.1</ele>
        <time>1970-01-01T00:20:00.000Z</time>
      </trkpt>
      <trkpt lat="42.673102" lon="0.653927">
        <ele>2010.1</ele>
        <time>1970-01-01T00:20:01.000Z</time>
      </trkpt>
      <trkpt lat="42.673105" lon="0.653944">
        <ele>2010</ele>
        <time>1970-01-01T00:20:03.000Z</time>
      </trkpt>
      <trkpt lat="42.673108" lon="0.653956">
        <ele>2010</ele>
        <time>1970-01-01T00:20:04.000Z</time>
      </trkpt>
      <trkpt lat="42.673112" lon="0.653964">
        <ele>2010</ele>
        <time>1970-01-01T00:20:05.000Z</time>
      </trkpt>
      <trkpt lat="42.673114" lon="0.653971">
        <ele>2010</ele>
        <time>1970-01-01T00:20:06.000Z</time>
      </trkpt>
      <trkpt lat="42.673117" lon="0.653979">
        <ele>2009.9</ele>
        <time>1970-01-01T00:20:07.000Z</time>
      </trkpt>
      <trkpt lat="42.673118" lon="0.653987">
        <ele>2009.9</ele>
        <time>1970-01-01T00:20:08.000Z</time>
      </trkpt>
      <trkpt lat="42.673119" lon="0.653999">
        <ele>2009.9</ele>
        <time>1970-01-01T00:20:09.000Z</time>
      </trkpt>
      <trkpt lat="42.673121" lon="0.654011">
        <ele>2009.8</ele>
        <time>1970-01-01T00:20:11.000Z</time>
      </trkpt>
      <trkpt lat="42.673122" lon="0.654023">
        <ele>2009.8</ele>
        <time>1970-01-01T00:20:12.000Z</time>
      </trkpt>
      <trkpt lat="42.673122" lon="0.654029">
        <ele>2009.8</ele>
        <time>1970-01-01T00:20:13.000Z</time>
      </trkpt>
      <trkpt lat="42.673125" lon="0.654038">
        <ele>2009.7</ele>
        <time>1970-01-01T00:20:14.000Z</time>
      </trkpt>
      <trkpt lat="42.673128" lon="0.654045">
        <ele>2009.7</ele>
        <time>1970-01-01T00:20:16.000Z</time>
      </trkpt>
      <trkpt lat="42.67313" lon="0.654053">
        <ele>2007.6</ele>
        <time>1970-01-01T00:20:17.000Z</time>
      </trkpt>
      <trkpt lat="42.673129" lon="0.65406">
        <ele>2007.5</ele>
        <time>1970-01-01T00:20:18.000Z</time>
      </trkpt>
      <trkpt lat="42.673129" lon="0.654069">
        <ele>2007.5</ele>
        <time>1970-01-01T00:20:19.000Z</time>
      </trkpt>
      <trkpt lat="42.673129" lon="0.65408">
        <ele>2007.4</ele>
        <time>1970-01-01T00:20:20.000Z</time>
      </trkpt>
      <trkpt lat="42.673129" lon="0.654095">
        <ele>2007.4</ele>
        <time>1970-01-01T00:20:21.000Z</time>
      </trkpt>
      <trkpt lat="42.67313" lon="0.65411">
        <ele>2007.4</ele>
        <time>1970-01-01T00:20:23.000Z</time>
      </trkpt>
      <trkpt lat="42.67313" lon="0.654132">
        <ele>2007.3</ele>
        <time>1970-01-01T00:20:24.000Z</time>
      </trkpt>
      <trkpt lat="42.67313" lon="0.654147">
        <ele>2007.2</ele>
        <time>1970-01-01T00:20:25.000Z</time>
      </trkpt>
      <trkpt lat="42.67313" lon="0.654159">
        <ele>2007.2</ele>
        <time>1970-01-01T00:20:26.000Z</time>
      </trkpt>
      <trkpt lat="42.673129" lon="0.65417">
        <ele>2007.2</ele>
        <time>1970-01-01T00:20:27.000Z</time>
      </trkpt>
      <trkpt lat="42.673129" lon="0.654182">
        <ele>2007.2</ele>
        <time>1970-01-01T00:20:28.000Z</time>
      </trkpt>
      <trkpt lat="42.67313" lon="0.654193">
        <ele>2007.1</ele>
        <time>1970-01-01T00:20:29.000Z</time>
      </trkpt>
      <trkpt lat="42.673133" lon="0.654212">
        <ele>2007.2</ele>
        <time>1970-01-01T00:20:30.000Z</time>
      </trkpt>
      <trkpt lat="42.673135" lon="0.654222">
        <ele>2007.1</ele>
        <time>1970-01-01T00:20:31.000Z</time>
      </trkpt>
      <trkpt lat="42.673137" lon="0.654231">
        <ele>2007.1</ele>
        <time>1970-01-01T00:20:33.000Z</time>
      </trkpt>
      <trkpt lat="42.673138" lon="0.654241">
        <ele>2007</ele>
        <time>1970-01-01T00:20:34.000Z</time>
      </trkpt>
      <trkpt lat="42.673142" lon="0.65425">
        <ele>2007</ele>
        <time>1970-01-01T00:20:35.000Z</time>
      </trkpt>
      <trkpt lat="42.673147" lon="0.654259">
        <ele>2007</ele>
        <time>1970-01-01T00:20:36.000Z</time>
      </trkpt>
      <trkpt lat="42.673151" lon="0.654269">
        <ele>2006.9</ele>
        <time>1970-01-01T00:20:38.000Z</time>
      </trkpt>
      <trkpt lat="42.673153" lon="0.654277">
        <ele>2006.9</ele>
        <time>1970-01-01T00:20:39.000Z</time>
      </trkpt>
      <trkpt lat="42.673153" lon="0.654286">
        <ele>2006.9</ele>
        <time>1970-01-01T00:20:40.000Z</time>
      </trkpt>
      <trkpt lat="42.673154" lon="0.654296">
        <ele>2006.8</ele>
        <time>1970-01-01T00:20:41.000Z</time>
      </trkpt>
      <trkpt lat="42.673156" lon="0.654306">
        <ele>2006.8</ele>
        <time>1970-01-01T00:20:42.000Z</time>
      </trkpt>
      <trkpt lat="42.67316" lon="0.654309">
        <ele>2004.6</ele>
        <time>1970-01-01T00:20:43.000Z</time>
      </trkpt>
      <trkpt lat="42.673165" lon="0.654309">
        <ele>2004.6</ele>
        <time>1970-01-01T00:20:44.000Z</time>
      </trkpt>
      <trkpt lat="42.673176" lon="0.654302">
        <ele>2004.6</ele>
        <time>1970-01-01T00:20:45.000Z</time>
      </trkpt>
      <trkpt lat="42.673183" lon="0.654293">
        <ele>2004.5</ele>
        <time>1970-01-01T00:20:47.000Z</time>
      </trkpt>
      <trkpt lat="42.673186" lon="0.654281">
        <ele>2004.4</ele>
        <time>1970-01-01T00:20:48.000Z</time>
      </trkpt>
      <trkpt lat="42.673187" lon="0.654264">
        <ele>2004.4</ele>
        <time>1970-01-01T00:20:50.000Z</time>
      </trkpt>
      <trkpt lat="42.673187" lon="0.654247">
        <ele>2004.4</ele>
        <time>1970-01-01T00:20:51.000Z</time>
      </trkpt>
      <trkpt lat="42.673186" lon="0.654232">
        <ele>2004.3</ele>
        <time>1970-01-01T00:20:52.000Z</time>
      </trkpt>
      <trkpt lat="42.673187" lon="0.654224">
        <ele>2004.3</ele>
        <time>1970-01-01T00:20:53.000Z</time>
      </trkpt>
      <trkpt lat="42.673186" lon="0.654213">
        <ele>2004.2</ele>
        <time>1970-01-01T00:20:54.000Z</time>
      </trkpt>
      <trkpt lat="42.673184" lon="0.6542">
        <ele>2004.2</ele>
        <time>1970-01-01T00:20:55.000Z</time>
      </trkpt>
      <trkpt lat="42.673183" lon="0.654186">
        <ele>2004.2</ele>
        <time>1970-01-01T00:20:56.000Z</time>
      </trkpt>
      <trkpt lat="42.673181" lon="0.654162">
        <ele>2004.1</ele>
        <time>1970-01-01T00:20:57.000Z</time>
      </trkpt>
      <trkpt lat="42.67318" lon="0.654136">
        <ele>2004.1</ele>
        <time>1970-01-01T00:20:59.000Z</time>
      </trkpt>
      <trkpt lat="42.673179" lon="0.654111">
        <ele>2004.1</ele>
        <time>1970-01-01T00:21:00.000Z</time>
      </trkpt>
      <trkpt lat="42.673178" lon="0.654093">
        <ele>2004</ele>
        <time>1970-01-01T00:21:01.000Z</time>
      </trkpt>
      <trkpt lat="42.673176" lon="0.654077">
        <ele>2004</ele>
        <time>1970-01-01T00:21:02.000Z</time>
      </trkpt>
      <trkpt lat="42.673173" lon="0.654067">
        <ele>2004</ele>
        <time>1970-01-01T00:21:03.000Z</time>
      </trkpt>
      <trkpt lat="42.673166" lon="0.654048">
        <ele>2003.9</ele>
        <time>1970-01-01T00:21:05.000Z</time>
      </trkpt>
      <trkpt lat="42.673165" lon="0.654042">
        <ele>2003.9</ele>
        <time>1970-01-01T00:21:06.000Z</time>
      </trkpt>
      <trkpt lat="42.673164" lon="0.654033">
        <ele>2003.8</ele>
        <time>1970-01-01T00:21:07.000Z</time>
      </trkpt>
      <trkpt lat="42.673164" lon="0.654014">
        <ele>2003.9</ele>
        <time>1970-01-01T00:21:08.000Z</time>
      </trkpt>
      <trkpt lat="42.673166" lon="0.653994">
        <ele>2003.7</ele>
        <time>1970-01-01T00:21:10.000Z</time>
      </trkpt>
      <trkpt lat="42.673175" lon="0.653968">
        <ele>2003.8</ele>
        <time>1970-01-01T00:21:11.000Z</time>
      </trkpt>
      <trkpt lat="42.673179" lon="0.653957">
        <ele>2003.7</ele>
        <time>1970-01-01T00:21:12.000Z</time>
      </trkpt>
      <trkpt lat="42.673184" lon="0.653945">
        <ele>2003.6</ele>
        <time>1970-01-01T00:21:13.000Z</time>
      </trkpt>
      <trkpt lat="42.673186" lon="0.653934">
        <ele>2003.6</ele>
        <time>1970-01-01T00:21:14.000Z</time>
      </trkpt>
      <trkpt lat="42.673188" lon="0.653921">
        <ele>2003.6</ele>
        <time>1970-01-01T00:21:15.000Z</time>
      </trkpt>
      <trkpt lat="42.673189" lon="0.653908">
        <ele>2003.5</ele>
        <time>1970-01-01T00:21:16.000Z</time>
      </trkpt>
      <trkpt lat="42.673194" lon="0.653886">
        <ele>2001.7</ele>
        <time>1970-01-01T00:21:17.000Z</time>
      </trkpt>
      <trkpt lat="42.673199" lon="0.653867">
        <ele>2001.7</ele>
        <time>1970-01-01T00:21:18.000Z</time>
      </trkpt>
      <trkpt lat="42.673205" lon="0.653846">
        <ele>2001.6</ele>
        <time>1970-01-01T00:21:20.000Z</time>
      </trkpt>
      <trkpt lat="42.673209" lon="0.653825">
        <ele>2001.6</ele>
        <time>1970-01-01T00:21:21.000Z</time>
      </trkpt>
      <trkpt lat="42.673214" lon="0.653795">
        <ele>2001.6</ele>
        <time>1970-01-01T00:21:22.000Z</time>
      </trkpt>
      <trkpt lat="42.673219" lon="0.653768">
        <ele>2001.4</ele>
        <time>1970-01-01T00:21:24.000Z</time>
      </trkpt>
      <trkpt lat="42.673224" lon="0.653744">
        <ele>1999.8</ele>
        <time>1970-01-01T00:21:25.000Z</time>
      </trkpt>
      <trkpt lat="42.673231" lon="0.653726">
        <ele>1999.8</ele>
        <time>1970-01-01T00:21:26.000Z</time>
      </trkpt>
      <trkpt lat="42.673247" lon="0.653696">
        <ele>1999.6</ele>
        <time>1970-01-01T00:21:27.000Z</time>
      </trkpt>
      <trkpt lat="42.673258" lon="0.653674">
        <ele>1998</ele>
        <time>1970-01-01T00:21:29.000Z</time>
      </trkpt>
      <trkpt lat="42.673266" lon="0.653656">
        <ele>1998</ele>
        <time>1970-01-01T00:21:30.000Z</time>
      </trkpt>
      <trkpt lat="42.673271" lon="0.653638">
        <ele>1997.8</ele>
        <time>1970-01-01T00:21:31.000Z</time>
      </trkpt>
      <trkpt lat="42.673279" lon="0.653617">
        <ele>1997.8</ele>
        <time>1970-01-01T00:21:32.000Z</time>
      </trkpt>
      <trkpt lat="42.673286" lon="0.653597">
        <ele>1996.1</ele>
        <time>1970-01-01T00:21:33.000Z</time>
      </trkpt>
      <trkpt lat="42.673296" lon="0.653579">
        <ele>1996</ele>
        <time>1970-01-01T00:21:34.000Z</time>
      </trkpt>
      <trkpt lat="42.673313" lon="0.653537">
        <ele>1995.9</ele>
        <time>1970-01-01T00:21:36.000Z</time>
      </trkpt>
      <trkpt lat="42.673317" lon="0.653527">
        <ele>1995.8</ele>
        <time>1970-01-01T00:21:37.000Z</time>
      </trkpt>
      <trkpt lat="42.673327" lon="0.653504">
        <ele>1994</ele>
        <time>1970-01-01T00:21:38.000Z</time>
      </trkpt>
      <trkpt lat="42.673332" lon="0.653488">
        <ele>1994</ele>
        <time>1970-01-01T00:21:39.000Z</time>
      </trkpt>
      <trkpt lat="42.673336" lon="0.653477">
        <ele>1994</ele>
        <time>1970-01-01T00:21:40.000Z</time>
      </trkpt>
      <trkpt lat="42.673338" lon="0.653472">
        <ele>1994</ele>
        <time>1970-01-01T00:21:41.000Z</time>
      </trkpt>
      <trkpt lat="42.673334" lon="0.653466">
        <ele>1994</ele>
        <time>1970-01-01T00:21:43.000Z</time>
      </trkpt>
      <trkpt lat="42.67333" lon="0.653462">
        <ele>1993.9</ele>
        <time>1970-01-01T00:21:44.000Z</time>
      </trkpt>
      <trkpt lat="42.673335" lon="0.653458">
        <ele>1993.9</ele>
        <time>1970-01-01T00:21:46.000Z</time>
      </trkpt>
      <trkpt lat="42.673339" lon="0.653456">
        <ele>1993.9</ele>
        <time>1970-01-01T00:21:47.000Z</time>
      </trkpt>
      <trkpt lat="42.673342" lon="0.653454">
        <ele>1993.9</ele>
        <time>1970-01-01T00:21:48.000Z</time>
      </trkpt>
      <trkpt lat="42.673344" lon="0.653452">
        <ele>1993.9</ele>
        <time>1970-01-01T00:21:49.000Z</time>
      </trkpt>
      <trkpt lat="42.673354" lon="0.653443">
        <ele>1992.1</ele>
        <time>1970-01-01T00:21:50.000Z</time>
      </trkpt>
      <trkpt lat="42.673362" lon="0.653436">
        <ele>1992</ele>
        <time>1970-01-01T00:21:51.000Z</time>
      </trkpt>
      <trkpt lat="42.673369" lon="0.653429">
        <ele>1992</ele>
        <time>1970-01-01T00:21:52.000Z</time>
      </trkpt>
      <trkpt lat="42.673376" lon="0.653422">
        <ele>1992</ele>
        <time>1970-01-01T00:21:53.000Z</time>
      </trkpt>
      <trkpt lat="42.67339" lon="0.65341">
        <ele>1990.3</ele>
        <time>1970-01-01T00:21:55.000Z</time>
      </trkpt>
      <trkpt lat="42.673405" lon="0.653395">
        <ele>1990.2</ele>
        <time>1970-01-01T00:21:56.000Z</time>
      </trkpt>
      <trkpt lat="42.673414" lon="0.653384">
        <ele>1988.6</ele>
        <time>1970-01-01T00:21:57.000Z</time>
      </trkpt>
      <trkpt lat="42.673423" lon="0.653358">
        <ele>1988.6</ele>
        <time>1970-01-01T00:21:58.000Z</time>
      </trkpt>
      <trkpt lat="42.673435" lon="0.653322">
        <ele>1988.6</ele>
        <time>1970-01-01T00:22:00.000Z</time>
      </trkpt>
      <trkpt lat="42.673438" lon="0.653311">
        <ele>1988.6</ele>
        <time>1970-01-01T00:22:01.000Z</time>
      </trkpt>
      <trkpt lat="42.673445" lon="0.653289">
        <ele>1987.2</ele>
        <time>1970-01-01T00:22:02.000Z</time>
      </trkpt>
      <trkpt lat="42.673451" lon="0.653273">
        <ele>1987.2</ele>
        <time>1970-01-01T00:22:03.000Z</time>
      </trkpt>
      <trkpt lat="42.673458" lon="0.653253">
        <ele>1987.2</ele>
        <time>1970-01-01T00:22:05.000Z</time>
      </trkpt>
      <trkpt lat="42.673462" lon="0.65324">
        <ele>1987.2</ele>
        <time>1970-01-01T00:22:06.000Z</time>
      </trkpt>
      <trkpt lat="42.673468" lon="0.653229">
        <ele>1987.1</ele>
        <time>1970-01-01T00:22:08.000Z</time>
      </trkpt>
      <trkpt lat="42.673472" lon="0.653227">
        <ele>1987.1</ele>
        <time>1970-01-01T00:22:09.000Z</time>
      </trkpt>
      <trkpt lat="42.673476" lon="0.653228">
        <ele>1985.8</ele>
        <time>1970-01-01T00:22:10.000Z</time>
      </trkpt>
      <trkpt lat="42.673478" lon="0.653226">
        <ele>1985.7</ele>
        <time>1970-01-01T00:22:11.000Z</time>
      </trkpt>
      <trkpt lat="42.673479" lon="0.653221">
        <ele>1985.7</ele>
        <time>1970-01-01T00:22:12.000Z</time>
      </trkpt>
      <trkpt lat="42.673481" lon="0.653215">
        <ele>1985.7</ele>
        <time>1970-01-01T00:22:13.000Z</time>
      </trkpt>
      <trkpt lat="42.673485" lon="0.65321">
        <ele>1985.7</ele>
        <time>1970-01-01T00:22:14.000Z</time>
      </trkpt>
      <trkpt lat="42.673488" lon="0.653206">
        <ele>1985.7</ele>
        <time>1970-01-01T00:22:15.000Z</time>
      </trkpt>
      <trkpt lat="42.673492" lon="0.653203">
        <ele>1985.7</ele>
        <time>1970-01-01T00:22:16.000Z</time>
      </trkpt>
      <trkpt lat="42.673496" lon="0.653202">
        <ele>1985.7</ele>
        <time>1970-01-01T00:22:17.000Z</time>
      </trkpt>
      <trkpt lat="42.673499" lon="0.653204">
        <ele>1985.6</ele>
        <time>1970-01-01T00:22:18.000Z</time>
      </trkpt>
      <trkpt lat="42.673498" lon="0.653209">
        <ele>1985.6</ele>
        <time>1970-01-01T00:22:19.000Z</time>
      </trkpt>
      <trkpt lat="42.673498" lon="0.653209">
        <ele>1985.6</ele>
        <time>1970-01-01T00:22:20.000Z</time>
      </trkpt>
      <trkpt lat="42.673501" lon="0.653204">
        <ele>1985.6</ele>
        <time>1970-01-01T00:22:22.000Z</time>
      </trkpt>
      <trkpt lat="42.673502" lon="0.653197">
        <ele>1985.6</ele>
        <time>1970-01-01T00:22:23.000Z</time>
      </trkpt>
      <trkpt lat="42.673501" lon="0.653189">
        <ele>1985.6</ele>
        <time>1970-01-01T00:22:24.000Z</time>
      </trkpt>
      <trkpt lat="42.673501" lon="0.65318">
        <ele>1985.5</ele>
        <time>1970-01-01T00:22:25.000Z</time>
      </trkpt>
      <trkpt lat="42.673502" lon="0.653172">
        <ele>1985.5</ele>
        <time>1970-01-01T00:22:26.000Z</time>
      </trkpt>
      <trkpt lat="42.673505" lon="0.653161">
        <ele>1985.5</ele>
        <time>1970-01-01T00:22:28.000Z</time>
      </trkpt>
      <trkpt lat="42.673505" lon="0.653153">
        <ele>1985.5</ele>
        <time>1970-01-01T00:22:29.000Z</time>
      </trkpt>
      <trkpt lat="42.673504" lon="0.653144">
        <ele>1985.5</ele>
        <time>1970-01-01T00:22:30.000Z</time>
      </trkpt>
      <trkpt lat="42.673505" lon="0.653137">
        <ele>1985.5</ele>
        <time>1970-01-01T00:22:31.000Z</time>
      </trkpt>
      <trkpt lat="42.67351" lon="0.653126">
        <ele>1984.2</ele>
        <time>1970-01-01T00:22:33.000Z</time>
      </trkpt>
      <trkpt lat="42.673517" lon="0.653119">
        <ele>1984.1</ele>
        <time>1970-01-01T00:22:34.000Z</time>
      </trkpt>
      <trkpt lat="42.673522" lon="0.653116">
        <ele>1984.1</ele>
        <time>1970-01-01T00:22:35.000Z</time>
      </trkpt>
      <trkpt lat="42.673527" lon="0.653112">
        <ele>1984.1</ele>
        <time>1970-01-01T00:22:36.000Z</time>
      </trkpt>
      <trkpt lat="42.673532" lon="0.653111">
        <ele>1984.1</ele>
        <time>1970-01-01T00:22:37.000Z</time>
      </trkpt>
      <trkpt lat="42.673537" lon="0.653112">
        <ele>1984.1</ele>
        <time>1970-01-01T00:22:38.000Z</time>
      </trkpt>
      <trkpt lat="42.673542" lon="0.653115">
        <ele>1982.7</ele>
        <time>1970-01-01T00:22:40.000Z</time>
      </trkpt>
      <trkpt lat="42.673545" lon="0.653119">
        <ele>1982.7</ele>
        <time>1970-01-01T00:22:41.000Z</time>
      </trkpt>
      <trkpt lat="42.673549" lon="0.653123">
        <ele>1982.6</ele>
        <time>1970-01-01T00:22:42.000Z</time>
      </trkpt>
      <trkpt lat="42.673554" lon="0.653126">
        <ele>1982.6</ele>
        <time>1970-01-01T00:22:43.000Z</time>
      </trkpt>
      <trkpt lat="42.673558" lon="0.653129">
        <ele>1982.6</ele>
        <time>1970-01-01T00:22:44.000Z</time>
      </trkpt>
      <trkpt lat="42.673561" lon="0.653132">
        <ele>1982.6</ele>
        <time>1970-01-01T00:22:45.000Z</time>
      </trkpt>
      <trkpt lat="42.673564" lon="0.653138">
        <ele>1982.5</ele>
        <time>1970-01-01T00:22:46.000Z</time>
      </trkpt>
      <trkpt lat="42.673568" lon="0.653146">
        <ele>1982.5</ele>
        <time>1970-01-01T00:22:47.000Z</time>
      </trkpt>
      <trkpt lat="42.673572" lon="0.653156">
        <ele>1981</ele>
        <time>1970-01-01T00:22:48.000Z</time>
      </trkpt>
      <trkpt lat="42.673575" lon="0.653173">
        <ele>1981</ele>
        <time>1970-01-01T00:22:49.000Z</time>
      </trkpt>
      <trkpt lat="42.673578" lon="0.65319">
        <ele>1981</ele>
        <time>1970-01-01T00:22:51.000Z</time>
      </trkpt>
      <trkpt lat="42.673576" lon="0.653209">
        <ele>1980.9</ele>
        <time>1970-01-01T00:22:52.000Z</time>
      </trkpt>
      <trkpt lat="42.673575" lon="0.653229">
        <ele>1980.9</ele>
        <time>1970-01-01T00:22:53.000Z</time>
      </trkpt>
      <trkpt lat="42.673575" lon="0.653261">
        <ele>1980.9</ele>
        <time>1970-01-01T00:22:54.000Z</time>
      </trkpt>
      <trkpt lat="42.673573" lon="0.653274">
        <ele>1980.8</ele>
        <time>1970-01-01T00:22:56.000Z</time>
      </trkpt>
      <trkpt lat="42.673572" lon="0.653288">
        <ele>1980.8</ele>
        <time>1970-01-01T00:22:57.000Z</time>
      </trkpt>
      <trkpt lat="42.67357" lon="0.653302">
        <ele>1980.8</ele>
        <time>1970-01-01T00:22:58.000Z</time>
      </trkpt>
      <trkpt lat="42.673568" lon="0.653316">
        <ele>1982.2</ele>
        <time>1970-01-01T00:22:59.000Z</time>
      </trkpt>
      <trkpt lat="42.673567" lon="0.653331">
        <ele>1982.2</ele>
        <time>1970-01-01T00:23:01.000Z</time>
      </trkpt>
      <trkpt lat="42.673564" lon="0.653349">
        <ele>1982.2</ele>
        <time>1970-01-01T00:23:02.000Z</time>
      </trkpt>
      <trkpt lat="42.673561" lon="0.653362">
        <ele>1982.1</ele>
        <time>1970-01-01T00:23:03.000Z</time>
      </trkpt>
      <trkpt lat="42.673556" lon="0.653383">
        <ele>1982.1</ele>
        <time>1970-01-01T00:23:04.000Z</time>
      </trkpt>
      <trkpt lat="42.673554" lon="0.653399">
        <ele>1982.1</ele>
        <time>1970-01-01T00:23:06.000Z</time>
      </trkpt>
      <trkpt lat="42.673555" lon="0.653415">
        <ele>1982.1</ele>
        <time>1970-01-01T00:23:07.000Z</time>
      </trkpt>
      <trkpt lat="42.673561" lon="0.653428">
        <ele>1982</ele>
        <time>1970-01-01T00:23:08.000Z</time>
      </trkpt>
      <trkpt lat="42.673567" lon="0.653445">
        <ele>1982</ele>
        <time>1970-01-01T00:23:10.000Z</time>
      </trkpt>
      <trkpt lat="42.67357" lon="0.653454">
        <ele>1980.5</ele>
        <time>1970-01-01T00:23:11.000Z</time>
      </trkpt>
      <trkpt lat="42.673574" lon="0.653475">
        <ele>1980.4</ele>
        <time>1970-01-01T00:23:13.000Z</time>
      </trkpt>
      <trkpt lat="42.673575" lon="0.653488">
        <ele>1980.4</ele>
        <time>1970-01-01T00:23:14.000Z</time>
      </trkpt>
      <trkpt lat="42.673576" lon="0.6535">
        <ele>1980.4</ele>
        <time>1970-01-01T00:23:15.000Z</time>
      </trkpt>
      <trkpt lat="42.673577" lon="0.653519">
        <ele>1980.3</ele>
        <time>1970-01-01T00:23:16.000Z</time>
      </trkpt>
      <trkpt lat="42.673576" lon="0.653535">
        <ele>1980.3</ele>
        <time>1970-01-01T00:23:17.000Z</time>
      </trkpt>
      <trkpt lat="42.673573" lon="0.653552">
        <ele>1980.3</ele>
        <time>1970-01-01T00:23:19.000Z</time>
      </trkpt>
      <trkpt lat="42.673572" lon="0.653566">
        <ele>1980.2</ele>
        <time>1970-01-01T00:23:20.000Z</time>
      </trkpt>
      <trkpt lat="42.673572" lon="0.65358">
        <ele>1980.2</ele>
        <time>1970-01-01T00:23:21.000Z</time>
      </trkpt>
      <trkpt lat="42.673572" lon="0.653593">
        <ele>1980.2</ele>
        <time>1970-01-01T00:23:22.000Z</time>
      </trkpt>
      <trkpt lat="42.673573" lon="0.653607">
        <ele>1980.1</ele>
        <time>1970-01-01T00:23:23.000Z</time>
      </trkpt>
      <trkpt lat="42.673574" lon="0.653621">
        <ele>1980.1</ele>
        <time>1970-01-01T00:23:24.000Z</time>
      </trkpt>
      <trkpt lat="42.673576" lon="0.653641">
        <ele>1980.1</ele>
        <time>1970-01-01T00:23:25.000Z</time>
      </trkpt>
      <trkpt lat="42.673576" lon="0.653661">
        <ele>1980</ele>
        <time>1970-01-01T00:23:27.000Z</time>
      </trkpt>
      <trkpt lat="42.673577" lon="0.653681">
        <ele>1980</ele>
        <time>1970-01-01T00:23:28.000Z</time>
      </trkpt>
      <trkpt lat="42.673578" lon="0.653697">
        <ele>1980</ele>
        <time>1970-01-01T00:23:29.000Z</time>
      </trkpt>
      <trkpt lat="42.673578" lon="0.653709">
        <ele>1979.9</ele>
        <time>1970-01-01T00:23:30.000Z</time>
      </trkpt>
      <trkpt lat="42.673579" lon="0.653723">
        <ele>1979.9</ele>
        <time>1970-01-01T00:23:31.000Z</time>
      </trkpt>
      <trkpt lat="42.673581" lon="0.653735">
        <ele>1979.9</ele>
        <time>1970-01-01T00:23:32.000Z</time>
      </trkpt>
      <trkpt lat="42.673584" lon="0.653743">
        <ele>1979.9</ele>
        <time>1970-01-01T00:23:33.000Z</time>
      </trkpt>
      <trkpt lat="42.673587" lon="0.653748">
        <ele>1979.8</ele>
        <time>1970-01-01T00:23:34.000Z</time>
      </trkpt>
      <trkpt lat="42.67359" lon="0.653752">
        <ele>1979.8</ele>
        <time>1970-01-01T00:23:35.000Z</time>
      </trkpt>
      <trkpt lat="42.673593" lon="0.653754">
        <ele>1979.8</ele>
        <time>1970-01-01T00:23:36.000Z</time>
      </trkpt>
      <trkpt lat="42.673596" lon="0.653755">
        <ele>1979.8</ele>
        <time>1970-01-01T00:23:37.000Z</time>
      </trkpt>
      <trkpt lat="42.673599" lon="0.653754">
        <ele>1979.8</ele>
        <time>1970-01-01T00:23:38.000Z</time>
      </trkpt>
      <trkpt lat="42.673604" lon="0.653749">
        <ele>1978.2</ele>
        <time>1970-01-01T00:23:39.000Z</time>
      </trkpt>
      <trkpt lat="42.673606" lon="0.653745">
        <ele>1978.2</ele>
        <time>1970-01-01T00:23:40.000Z</time>
      </trkpt>
      <trkpt lat="42.673609" lon="0.653738">
        <ele>1978.2</ele>
        <time>1970-01-01T00:23:42.000Z</time>
      </trkpt>
      <trkpt lat="42.673612" lon="0.653734">
        <ele>1978.1</ele>
        <time>1970-01-01T00:23:43.000Z</time>
      </trkpt>
      <trkpt lat="42.673615" lon="0.653733">
        <ele>1978.1</ele>
        <time>1970-01-01T00:23:44.000Z</time>
      </trkpt>
      <trkpt lat="42.673619" lon="0.653734">
        <ele>1978.1</ele>
        <time>1970-01-01T00:23:45.000Z</time>
      </trkpt>
      <trkpt lat="42.673623" lon="0.653737">
        <ele>1978.1</ele>
        <time>1970-01-01T00:23:46.000Z</time>
      </trkpt>
      <trkpt lat="42.673625" lon="0.653743">
        <ele>1978.1</ele>
        <time>1970-01-01T00:23:47.000Z</time>
      </trkpt>
      <trkpt lat="42.673627" lon="0.653754">
        <ele>1978.1</ele>
        <time>1970-01-01T00:23:49.000Z</time>
      </trkpt>
      <trkpt lat="42.67363" lon="0.653764">
        <ele>1978</ele>
        <time>1970-01-01T00:23:50.000Z</time>
      </trkpt>
      <trkpt lat="42.673633" lon="0.653776">
        <ele>1976.5</ele>
        <time>1970-01-01T00:23:51.000Z</time>
      </trkpt>
      <trkpt lat="42.673635" lon="0.653786">
        <ele>1976.5</ele>
        <time>1970-01-01T00:23:52.000Z</time>
      </trkpt>
      <trkpt lat="42.673633" lon="0.653802">
        <ele>1976.5</ele>
        <time>1970-01-01T00:23:53.000Z</time>
      </trkpt>
      <trkpt lat="42.673638" lon="0.653824">
        <ele>1976.4</ele>
        <time>1970-01-01T00:23:54.000Z</time>
      </trkpt>
      <trkpt lat="42.673645" lon="0.65383">
        <ele>1976.4</ele>
        <time>1970-01-01T00:23:55.000Z</time>
      </trkpt>
      <trkpt lat="42.673651" lon="0.653837">
        <ele>1976.4</ele>
        <time>1970-01-01T00:23:57.000Z</time>
      </trkpt>
      <trkpt lat="42.673657" lon="0.653844">
        <ele>1976.4</ele>
        <time>1970-01-01T00:23:58.000Z</time>
      </trkpt>
      <trkpt lat="42.673664" lon="0.65385">
        <ele>1976.4</ele>
        <time>1970-01-01T00:23:59.000Z</time>
      </trkpt>
      <trkpt lat="42.67367" lon="0.653857">
        <ele>1975</ele>
        <time>1970-01-01T00:24:00.000Z</time>
      </trkpt>
      <trkpt lat="42.673676" lon="0.653864">
        <ele>1974.9</ele>
        <time>1970-01-01T00:24:01.000Z</time>
      </trkpt>
      <trkpt lat="42.673691" lon="0.653863">
        <ele>1974.9</ele>
        <time>1970-01-01T00:24:02.000Z</time>
      </trkpt>
      <trkpt lat="42.673703" lon="0.653865">
        <ele>1973.7</ele>
        <time>1970-01-01T00:24:03.000Z</time>
      </trkpt>
      <trkpt lat="42.673722" lon="0.653871">
        <ele>1973.7</ele>
        <time>1970-01-01T00:24:05.000Z</time>
      </trkpt>
      <trkpt lat="42.673734" lon="0.653876">
        <ele>1972.6</ele>
        <time>1970-01-01T00:24:06.000Z</time>
      </trkpt>
      <trkpt lat="42.673744" lon="0.653881">
        <ele>1972.5</ele>
        <time>1970-01-01T00:24:07.000Z</time>
      </trkpt>
      <trkpt lat="42.673754" lon="0.653886">
        <ele>1972.5</ele>
        <time>1970-01-01T00:24:08.000Z</time>
      </trkpt>
      <trkpt lat="42.673765" lon="0.653891">
        <ele>1971.5</ele>
        <time>1970-01-01T00:24:09.000Z</time>
      </trkpt>
      <trkpt lat="42.673776" lon="0.653894">
        <ele>1971.4</ele>
        <time>1970-01-01T00:24:10.000Z</time>
      </trkpt>
      <trkpt lat="42.673786" lon="0.653896">
        <ele>1971.4</ele>
        <time>1970-01-01T00:24:11.000Z</time>
      </trkpt>
      <trkpt lat="42.673793" lon="0.653898">
        <ele>1970.3</ele>
        <time>1970-01-01T00:24:12.000Z</time>
      </trkpt>
      <trkpt lat="42.673801" lon="0.653897">
        <ele>1970.3</ele>
        <time>1970-01-01T00:24:13.000Z</time>
      </trkpt>
      <trkpt lat="42.67381" lon="0.653896">
        <ele>1970.3</ele>
        <time>1970-01-01T00:24:14.000Z</time>
      </trkpt>
      <trkpt lat="42.673821" lon="0.653893">
        <ele>1970.3</ele>
        <time>1970-01-01T00:24:15.000Z</time>
      </trkpt>
      <trkpt lat="42.673833" lon="0.653885">
        <ele>1969.1</ele>
        <time>1970-01-01T00:24:16.000Z</time>
      </trkpt>
      <trkpt lat="42.673841" lon="0.653867">
        <ele>1969.1</ele>
        <time>1970-01-01T00:24:17.000Z</time>
      </trkpt>
      <trkpt lat="42.673847" lon="0.653844">
        <ele>1969.1</ele>
        <time>1970-01-01T00:24:19.000Z</time>
      </trkpt>
      <trkpt lat="42.673851" lon="0.653823">
        <ele>1969.1</ele>
        <time>1970-01-01T00:24:20.000Z</time>
      </trkpt>
      <trkpt lat="42.673852" lon="0.653793">
        <ele>1969.1</ele>
        <time>1970-01-01T00:24:21.000Z</time>
      </trkpt>
      <trkpt lat="42.673854" lon="0.653779">
        <ele>1967.9</ele>
        <time>1970-01-01T00:24:22.000Z</time>
      </trkpt>
      <trkpt lat="42.673859" lon="0.653763">
        <ele>1967.9</ele>
        <time>1970-01-01T00:24:23.000Z</time>
      </trkpt>
      <trkpt lat="42.673871" lon="0.653751">
        <ele>1967.9</ele>
        <time>1970-01-01T00:24:24.000Z</time>
      </trkpt>
      <trkpt lat="42.67388" lon="0.653739">
        <ele>1967.8</ele>
        <time>1970-01-01T00:24:26.000Z</time>
      </trkpt>
      <trkpt lat="42.673885" lon="0.65372">
        <ele>1967.8</ele>
        <time>1970-01-01T00:24:28.000Z</time>
      </trkpt>
      <trkpt lat="42.673884" lon="0.653713">
        <ele>1967.8</ele>
        <time>1970-01-01T00:24:29.000Z</time>
      </trkpt>
      <trkpt lat="42.673884" lon="0.653708">
        <ele>1967.8</ele>
        <time>1970-01-01T00:24:30.000Z</time>
      </trkpt>
      <trkpt lat="42.673882" lon="0.653708">
        <ele>1967.8</ele>
        <time>1970-01-01T00:24:31.000Z</time>
      </trkpt>
      <trkpt lat="42.67388" lon="0.653708">
        <ele>1967.8</ele>
        <time>1970-01-01T00:24:32.000Z</time>
      </trkpt>
      <trkpt lat="42.67388" lon="0.653706">
        <ele>1967.7</ele>
        <time>1970-01-01T00:24:33.000Z</time>
      </trkpt>
      <trkpt lat="42.673881" lon="0.653706">
        <ele>1967.7</ele>
        <time>1970-01-01T00:24:34.000Z</time>
      </trkpt>
      <trkpt lat="42.673884" lon="0.653708">
        <ele>1967.7</ele>
        <time>1970-01-01T00:24:35.000Z</time>
      </trkpt>
      <trkpt lat="42.673887" lon="0.65371">
        <ele>1966.5</ele>
        <time>1970-01-01T00:24:36.000Z</time>
      </trkpt>
      <trkpt lat="42.673891" lon="0.653722">
        <ele>1966.5</ele>
        <time>1970-01-01T00:24:37.000Z</time>
      </trkpt>
      <trkpt lat="42.673893" lon="0.653732">
        <ele>1966.5</ele>
        <time>1970-01-01T00:24:38.000Z</time>
      </trkpt>
      <trkpt lat="42.673896" lon="0.653745">
        <ele>1966.5</ele>
        <time>1970-01-01T00:24:40.000Z</time>
      </trkpt>
      <trkpt lat="42.673899" lon="0.65376">
        <ele>1966.5</ele>
        <time>1970-01-01T00:24:41.000Z</time>
      </trkpt>
      <trkpt lat="42.6739" lon="0.653774">
        <ele>1966.5</ele>
        <time>1970-01-01T00:24:42.000Z</time>
      </trkpt>
      <trkpt lat="42.673899" lon="0.653802">
        <ele>1966.4</ele>
        <time>1970-01-01T00:24:43.000Z</time>
      </trkpt>
      <trkpt lat="42.673899" lon="0.653816">
        <ele>1966.5</ele>
        <time>1970-01-01T00:24:44.000Z</time>
      </trkpt>
      <trkpt lat="42.673899" lon="0.65383">
        <ele>1966.4</ele>
        <time>1970-01-01T00:24:45.000Z</time>
      </trkpt>
      <trkpt lat="42.673901" lon="0.65385">
        <ele>1966.4</ele>
        <time>1970-01-01T00:24:46.000Z</time>
      </trkpt>
      <trkpt lat="42.673901" lon="0.65387">
        <ele>1966.4</ele>
        <time>1970-01-01T00:24:48.000Z</time>
      </trkpt>
      <trkpt lat="42.673901" lon="0.65389">
        <ele>1966.4</ele>
        <time>1970-01-01T00:24:49.000Z</time>
      </trkpt>
      <trkpt lat="42.673902" lon="0.653911">
        <ele>1966.4</ele>
        <time>1970-01-01T00:24:50.000Z</time>
      </trkpt>
      <trkpt lat="42.673904" lon="0.653927">
        <ele>1966.3</ele>
        <time>1970-01-01T00:24:51.000Z</time>
      </trkpt>
      <trkpt lat="42.673905" lon="0.653943">
        <ele>1966.1</ele>
        <time>1970-01-01T00:24:53.000Z</time>
      </trkpt>
      <trkpt lat="42.673905" lon="0.653956">
        <ele>1966</ele>
        <time>1970-01-01T00:24:54.000Z</time>
      </trkpt>
      <trkpt lat="42.673908" lon="0.653971">
        <ele>1965.8</ele>
        <time>1970-01-01T00:24:55.000Z</time>
      </trkpt>
      <trkpt lat="42.673911" lon="0.653981">
        <ele>1965.7</ele>
        <time>1970-01-01T00:24:56.000Z</time>
      </trkpt>
      <trkpt lat="42.673918" lon="0.653988">
        <ele>1965.5</ele>
        <time>1970-01-01T00:24:57.000Z</time>
      </trkpt>
      <trkpt lat="42.673927" lon="0.653986">
        <ele>1965.4</ele>
        <time>1970-01-01T00:24:58.000Z</time>
      </trkpt>
      <trkpt lat="42.673933" lon="0.653984">
        <ele>1965.3</ele>
        <time>1970-01-01T00:24:59.000Z</time>
      </trkpt>
      <trkpt lat="42.673942" lon="0.653976">
        <ele>1965.2</ele>
        <time>1970-01-01T00:25:00.000Z</time>
      </trkpt>
      <trkpt lat="42.673951" lon="0.653966">
        <ele>1965</ele>
        <time>1970-01-01T00:25:01.000Z</time>
      </trkpt>
      <trkpt lat="42.67396" lon="0.653953">
        <ele>1964.8</ele>
        <time>1970-01-01T00:25:02.000Z</time>
      </trkpt>
      <trkpt lat="42.673968" lon="0.653935">
        <ele>1964.6</ele>
        <time>1970-01-01T00:25:03.000Z</time>
      </trkpt>
      <trkpt lat="42.673973" lon="0.653919">
        <ele>1964.5</ele>
        <time>1970-01-01T00:25:04.000Z</time>
      </trkpt>
      <trkpt lat="42.67398" lon="0.653897">
        <ele>1964.2</ele>
        <time>1970-01-01T00:25:06.000Z</time>
      </trkpt>
      <trkpt lat="42.673984" lon="0.653872">
        <ele>1964</ele>
        <time>1970-01-01T00:25:07.000Z</time>
      </trkpt>
      <trkpt lat="42.673986" lon="0.653859">
        <ele>1963.8</ele>
        <time>1970-01-01T00:25:08.000Z</time>
      </trkpt>
      <trkpt lat="42.673985" lon="0.65383">
        <ele>1963.5</ele>
        <time>1970-01-01T00:25:09.000Z</time>
      </trkpt>
      <trkpt lat="42.673983" lon="0.653819">
        <ele>1963.4</ele>
        <time>1970-01-01T00:25:10.000Z</time>
      </trkpt>
      <trkpt lat="42.673981" lon="0.653808">
        <ele>1963.3</ele>
        <time>1970-01-01T00:25:11.000Z</time>
      </trkpt>
      <trkpt lat="42.673976" lon="0.653792">
        <ele>1963.1</ele>
        <time>1970-01-01T00:25:12.000Z</time>
      </trkpt>
      <trkpt lat="42.673972" lon="0.653779">
        <ele>1963</ele>
        <time>1970-01-01T00:25:13.000Z</time>
      </trkpt>
      <trkpt lat="42.673967" lon="0.653763">
        <ele>1962.8</ele>
        <time>1970-01-01T00:25:14.000Z</time>
      </trkpt>
      <trkpt lat="42.673965" lon="0.653736">
        <ele>1962.5</ele>
        <time>1970-01-01T00:25:15.000Z</time>
      </trkpt>
      <trkpt lat="42.673965" lon="0.653724">
        <ele>1962.4</ele>
        <time>1970-01-01T00:25:16.000Z</time>
      </trkpt>
      <trkpt lat="42.673965" lon="0.653712">
        <ele>1962.2</ele>
        <time>1970-01-01T00:25:17.000Z</time>
      </trkpt>
      <trkpt lat="42.67397" lon="0.653697">
        <ele>1962.1</ele>
        <time>1970-01-01T00:25:19.000Z</time>
      </trkpt>
      <trkpt lat="42.673974" lon="0.653684">
        <ele>1961.9</ele>
        <time>1970-01-01T00:25:20.000Z</time>
      </trkpt>
      <trkpt lat="42.67398" lon="0.65367">
        <ele>1961.7</ele>
        <time>1970-01-01T00:25:21.000Z</time>
      </trkpt>
      <trkpt lat="42.673985" lon="0.653663">
        <ele>1961.6</ele>
        <time>1970-01-01T00:25:22.000Z</time>
      </trkpt>
      <trkpt lat="42.673991" lon="0.653658">
        <ele>1961.5</ele>
        <time>1970-01-01T00:25:23.000Z</time>
      </trkpt>
      <trkpt lat="42.673996" lon="0.653654">
        <ele>1961.4</ele>
        <time>1970-01-01T00:25:24.000Z</time>
      </trkpt>
      <trkpt lat="42.674004" lon="0.653661">
        <ele>1961.2</ele>
        <time>1970-01-01T00:25:25.000Z</time>
      </trkpt>
      <trkpt lat="42.67401" lon="0.653664">
        <ele>1961.1</ele>
        <time>1970-01-01T00:25:26.000Z</time>
      </trkpt>
      <trkpt lat="42.674017" lon="0.653667">
        <ele>1961</ele>
        <time>1970-01-01T00:25:27.000Z</time>
      </trkpt>
      <trkpt lat="42.674029" lon="0.653665">
        <ele>1960.8</ele>
        <time>1970-01-01T00:25:29.000Z</time>
      </trkpt>
      <trkpt lat="42.674035" lon="0.65366">
        <ele>1960.7</ele>
        <time>1970-01-01T00:25:30.000Z</time>
      </trkpt>
      <trkpt lat="42.674039" lon="0.653652">
        <ele>1960.6</ele>
        <time>1970-01-01T00:25:31.000Z</time>
      </trkpt>
      <trkpt lat="42.674034" lon="0.653634">
        <ele>1960.4</ele>
        <time>1970-01-01T00:25:32.000Z</time>
      </trkpt>
      <trkpt lat="42.67403" lon="0.653625">
        <ele>1960.2</ele>
        <time>1970-01-01T00:25:33.000Z</time>
      </trkpt>
      <trkpt lat="42.674026" lon="0.653615">
        <ele>1960.1</ele>
        <time>1970-01-01T00:25:34.000Z</time>
      </trkpt>
      <trkpt lat="42.674022" lon="0.653605">
        <ele>1960</ele>
        <time>1970-01-01T00:25:35.000Z</time>
      </trkpt>
      <trkpt lat="42.674019" lon="0.653591">
        <ele>1959.8</ele>
        <time>1970-01-01T00:25:36.000Z</time>
      </trkpt>
      <trkpt lat="42.674018" lon="0.653573">
        <ele>1959.6</ele>
        <time>1970-01-01T00:25:37.000Z</time>
      </trkpt>
      <trkpt lat="42.674022" lon="0.653558">
        <ele>1959.4</ele>
        <time>1970-01-01T00:25:39.000Z</time>
      </trkpt>
      <trkpt lat="42.674029" lon="0.653547">
        <ele>1959.2</ele>
        <time>1970-01-01T00:25:40.000Z</time>
      </trkpt>
      <trkpt lat="42.674038" lon="0.65354">
        <ele>1959</ele>
        <time>1970-01-01T00:25:41.000Z</time>
      </trkpt>
      <trkpt lat="42.674048" lon="0.653539">
        <ele>1958.9</ele>
        <time>1970-01-01T00:25:43.000Z</time>
      </trkpt>
      <trkpt lat="42.674057" lon="0.653542">
        <ele>1958.7</ele>
        <time>1970-01-01T00:25:44.000Z</time>
      </trkpt>
      <trkpt lat="42.674067" lon="0.653547">
        <ele>1958.6</ele>
        <time>1970-01-01T00:25:45.000Z</time>
      </trkpt>
      <trkpt lat="42.674081" lon="0.653557">
        <ele>1958.3</ele>
        <time>1970-01-01T00:25:47.000Z</time>
      </trkpt>
      <trkpt lat="42.674087" lon="0.653561">
        <ele>1958.2</ele>
        <time>1970-01-01T00:25:48.000Z</time>
      </trkpt>
      <trkpt lat="42.674092" lon="0.653562">
        <ele>1958.1</ele>
        <time>1970-01-01T00:25:49.000Z</time>
      </trkpt>
      <trkpt lat="42.674099" lon="0.653562">
        <ele>1958</ele>
        <time>1970-01-01T00:25:50.000Z</time>
      </trkpt>
      <trkpt lat="42.674105" lon="0.653565">
        <ele>1957.9</ele>
        <time>1970-01-01T00:25:52.000Z</time>
      </trkpt>
      <trkpt lat="42.674111" lon="0.653571">
        <ele>1957.8</ele>
        <time>1970-01-01T00:25:53.000Z</time>
      </trkpt>
      <trkpt lat="42.674118" lon="0.653574">
        <ele>1957.7</ele>
        <time>1970-01-01T00:25:54.000Z</time>
      </trkpt>
      <trkpt lat="42.674127" lon="0.653573">
        <ele>1957.5</ele>
        <time>1970-01-01T00:25:56.000Z</time>
      </trkpt>
      <trkpt lat="42.674133" lon="0.653566">
        <ele>1957.4</ele>
        <time>1970-01-01T00:25:57.000Z</time>
      </trkpt>
      <trkpt lat="42.674138" lon="0.653559">
        <ele>1957.3</ele>
        <time>1970-01-01T00:25:58.000Z</time>
      </trkpt>
      <trkpt lat="42.674144" lon="0.653555">
        <ele>1957.2</ele>
        <time>1970-01-01T00:25:59.000Z</time>
      </trkpt>
      <trkpt lat="42.674149" lon="0.653551">
        <ele>1957.1</ele>
        <time>1970-01-01T00:26:00.000Z</time>
      </trkpt>
      <trkpt lat="42.674156" lon="0.653544">
        <ele>1957</ele>
        <time>1970-01-01T00:26:01.000Z</time>
      </trkpt>
      <trkpt lat="42.674161" lon="0.653535">
        <ele>1956.9</ele>
        <time>1970-01-01T00:26:03.000Z</time>
      </trkpt>
      <trkpt lat="42.674164" lon="0.653526">
        <ele>1956.8</ele>
        <time>1970-01-01T00:26:04.000Z</time>
      </trkpt>
      <trkpt lat="42.674166" lon="0.653515">
        <ele>1956.7</ele>
        <time>1970-01-01T00:26:06.000Z</time>
      </trkpt>
      <trkpt lat="42.674164" lon="0.653501">
        <ele>1956.5</ele>
        <time>1970-01-01T00:26:07.000Z</time>
      </trkpt>
      <trkpt lat="42.674161" lon="0.653487">
        <ele>1956.4</ele>
        <time>1970-01-01T00:26:08.000Z</time>
      </trkpt>
      <trkpt lat="42.674159" lon="0.65347">
        <ele>1956.2</ele>
        <time>1970-01-01T00:26:09.000Z</time>
      </trkpt>
      <trkpt lat="42.674158" lon="0.653452">
        <ele>1956</ele>
        <time>1970-01-01T00:26:10.000Z</time>
      </trkpt>
      <trkpt lat="42.674162" lon="0.653441">
        <ele>1955.9</ele>
        <time>1970-01-01T00:26:11.000Z</time>
      </trkpt>
      <trkpt lat="42.674169" lon="0.653435">
        <ele>1955.8</ele>
        <time>1970-01-01T00:26:13.000Z</time>
      </trkpt>
      <trkpt lat="42.67418" lon="0.653432">
        <ele>1955.7</ele>
        <time>1970-01-01T00:26:14.000Z</time>
      </trkpt>
      <trkpt lat="42.674189" lon="0.653434">
        <ele>1955.6</ele>
        <time>1970-01-01T00:26:15.000Z</time>
      </trkpt>
      <trkpt lat="42.6742" lon="0.653436">
        <ele>1955.4</ele>
        <time>1970-01-01T00:26:16.000Z</time>
      </trkpt>
      <trkpt lat="42.67421" lon="0.653435">
        <ele>1955.3</ele>
        <time>1970-01-01T00:26:17.000Z</time>
      </trkpt>
      <trkpt lat="42.674218" lon="0.653434">
        <ele>1955.2</ele>
        <time>1970-01-01T00:26:18.000Z</time>
      </trkpt>
      <trkpt lat="42.67423" lon="0.653435">
        <ele>1955</ele>
        <time>1970-01-01T00:26:19.000Z</time>
      </trkpt>
      <trkpt lat="42.674238" lon="0.653437">
        <ele>1954.9</ele>
        <time>1970-01-01T00:26:20.000Z</time>
      </trkpt>
      <trkpt lat="42.674246" lon="0.653439">
        <ele>1954.8</ele>
        <time>1970-01-01T00:26:22.000Z</time>
      </trkpt>
      <trkpt lat="42.674251" lon="0.653443">
        <ele>1954.7</ele>
        <time>1970-01-01T00:26:23.000Z</time>
      </trkpt>
      <trkpt lat="42.674257" lon="0.653445">
        <ele>1954.7</ele>
        <time>1970-01-01T00:26:24.000Z</time>
      </trkpt>
      <trkpt lat="42.674262" lon="0.653446">
        <ele>1954.6</ele>
        <time>1970-01-01T00:26:25.000Z</time>
      </trkpt>
      <trkpt lat="42.674266" lon="0.65345">
        <ele>1954.5</ele>
        <time>1970-01-01T00:26:26.000Z</time>
      </trkpt>
      <trkpt lat="42.674271" lon="0.653456">
        <ele>1954.4</ele>
        <time>1970-01-01T00:26:28.000Z</time>
      </trkpt>
      <trkpt lat="42.674277" lon="0.653458">
        <ele>1954.4</ele>
        <time>1970-01-01T00:26:29.000Z</time>
      </trkpt>
      <trkpt lat="42.67428" lon="0.653457">
        <ele>1954.3</ele>
        <time>1970-01-01T00:26:30.000Z</time>
      </trkpt>
      <trkpt lat="42.674283" lon="0.65345">
        <ele>1954.2</ele>
        <time>1970-01-01T00:26:31.000Z</time>
      </trkpt>
      <trkpt lat="42.674282" lon="0.65344">
        <ele>1954.1</ele>
        <time>1970-01-01T00:26:32.000Z</time>
      </trkpt>
      <trkpt lat="42.674279" lon="0.653428">
        <ele>1954</ele>
        <time>1970-01-01T00:26:33.000Z</time>
      </trkpt>
      <trkpt lat="42.674277" lon="0.653415">
        <ele>1953.9</ele>
        <time>1970-01-01T00:26:34.000Z</time>
      </trkpt>
      <trkpt lat="42.674277" lon="0.653406">
        <ele>1953.8</ele>
        <time>1970-01-01T00:26:35.000Z</time>
      </trkpt>
      <trkpt lat="42.674281" lon="0.653399">
        <ele>1953.7</ele>
        <time>1970-01-01T00:26:36.000Z</time>
      </trkpt>
      <trkpt lat="42.674286" lon="0.653397">
        <ele>1953.7</ele>
        <time>1970-01-01T00:26:37.000Z</time>
      </trkpt>
      <trkpt lat="42.674292" lon="0.653396">
        <ele>1953.6</ele>
        <time>1970-01-01T00:26:38.000Z</time>
      </trkpt>
      <trkpt lat="42.674299" lon="0.653398">
        <ele>1953.5</ele>
        <time>1970-01-01T00:26:39.000Z</time>
      </trkpt>
      <trkpt lat="42.674306" lon="0.6534">
        <ele>1953.4</ele>
        <time>1970-01-01T00:26:40.000Z</time>
      </trkpt>
      <trkpt lat="42.674312" lon="0.653398">
        <ele>1953.3</ele>
        <time>1970-01-01T00:26:42.000Z</time>
      </trkpt>
      <trkpt lat="42.674316" lon="0.653389">
        <ele>1953.2</ele>
        <time>1970-01-01T00:26:43.000Z</time>
      </trkpt>
      <trkpt lat="42.674319" lon="0.653376">
        <ele>1953.1</ele>
        <time>1970-01-01T00:26:44.000Z</time>
      </trkpt>
      <trkpt lat="42.674325" lon="0.653365">
        <ele>1952.9</ele>
        <time>1970-01-01T00:26:45.000Z</time>
      </trkpt>
      <trkpt lat="42.67433" lon="0.653354">
        <ele>1952.8</ele>
        <time>1970-01-01T00:26:46.000Z</time>
      </trkpt>
      <trkpt lat="42.674335" lon="0.653342">
        <ele>1952.7</ele>
        <time>1970-01-01T00:26:47.000Z</time>
      </trkpt>
      <trkpt lat="42.67434" lon="0.653327">
        <ele>1952.5</ele>
        <time>1970-01-01T00:26:48.000Z</time>
      </trkpt>
      <trkpt lat="42.674345" lon="0.653311">
        <ele>1952.3</ele>
        <time>1970-01-01T00:26:50.000Z</time>
      </trkpt>
      <trkpt lat="42.674346" lon="0.653297">
        <ele>1952.2</ele>
        <time>1970-01-01T00:26:51.000Z</time>
      </trkpt>
      <trkpt lat="42.674348" lon="0.653279">
        <ele>1952</ele>
        <time>1970-01-01T00:26:52.000Z</time>
      </trkpt>
      <trkpt lat="42.674352" lon="0.653262">
        <ele>1951.8</ele>
        <time>1970-01-01T00:26:53.000Z</time>
      </trkpt>
      <trkpt lat="42.67436" lon="0.653253">
        <ele>1951.7</ele>
        <time>1970-01-01T00:26:54.000Z</time>
      </trkpt>
      <trkpt lat="42.674374" lon="0.653248">
        <ele>1951.5</ele>
        <time>1970-01-01T00:26:56.000Z</time>
      </trkpt>
      <trkpt lat="42.674383" lon="0.653248">
        <ele>1951.3</ele>
        <time>1970-01-01T00:26:57.000Z</time>
      </trkpt>
      <trkpt lat="42.674394" lon="0.653249">
        <ele>1951.2</ele>
        <time>1970-01-01T00:26:58.000Z</time>
      </trkpt>
      <trkpt lat="42.674401" lon="0.653249">
        <ele>1951.1</ele>
        <time>1970-01-01T00:26:59.000Z</time>
      </trkpt>
      <trkpt lat="42.674408" lon="0.653248">
        <ele>1951</ele>
        <time>1970-01-01T00:27:01.000Z</time>
      </trkpt>
      <trkpt lat="42.674414" lon="0.653247">
        <ele>1950.9</ele>
        <time>1970-01-01T00:27:02.000Z</time>
      </trkpt>
      <trkpt lat="42.674418" lon="0.653247">
        <ele>1950.8</ele>
        <time>1970-01-01T00:27:03.000Z</time>
      </trkpt>
      <trkpt lat="42.674423" lon="0.653245">
        <ele>1950.8</ele>
        <time>1970-01-01T00:27:05.000Z</time>
      </trkpt>
      <trkpt lat="42.674423" lon="0.653236">
        <ele>1950.7</ele>
        <time>1970-01-01T00:27:06.000Z</time>
      </trkpt>
      <trkpt lat="42.674424" lon="0.653228">
        <ele>1950.6</ele>
        <time>1970-01-01T00:27:07.000Z</time>
      </trkpt>
      <trkpt lat="42.674426" lon="0.653221">
        <ele>1950.5</ele>
        <time>1970-01-01T00:27:08.000Z</time>
      </trkpt>
      <trkpt lat="42.674429" lon="0.653215">
        <ele>1950.4</ele>
        <time>1970-01-01T00:27:09.000Z</time>
      </trkpt>
      <trkpt lat="42.674436" lon="0.653209">
        <ele>1950.3</ele>
        <time>1970-01-01T00:27:10.000Z</time>
      </trkpt>
      <trkpt lat="42.674442" lon="0.653205">
        <ele>1950.2</ele>
        <time>1970-01-01T00:27:11.000Z</time>
      </trkpt>
      <trkpt lat="42.674448" lon="0.6532">
        <ele>1950.1</ele>
        <time>1970-01-01T00:27:12.000Z</time>
      </trkpt>
      <trkpt lat="42.674455" lon="0.653196">
        <ele>1950</ele>
        <time>1970-01-01T00:27:14.000Z</time>
      </trkpt>
      <trkpt lat="42.674462" lon="0.653192">
        <ele>1949.9</ele>
        <time>1970-01-01T00:27:15.000Z</time>
      </trkpt>
      <trkpt lat="42.674469" lon="0.653188">
        <ele>1949.7</ele>
        <time>1970-01-01T00:27:16.000Z</time>
      </trkpt>
      <trkpt lat="42.674475" lon="0.653182">
        <ele>1949.6</ele>
        <time>1970-01-01T00:27:17.000Z</time>
      </trkpt>
      <trkpt lat="42.67448" lon="0.653175">
        <ele>1949.5</ele>
        <time>1970-01-01T00:27:18.000Z</time>
      </trkpt>
      <trkpt lat="42.674485" lon="0.653168">
        <ele>1949.4</ele>
        <time>1970-01-01T00:27:20.000Z</time>
      </trkpt>
      <trkpt lat="42.67449" lon="0.653161">
        <ele>1949.3</ele>
        <time>1970-01-01T00:27:21.000Z</time>
      </trkpt>
      <trkpt lat="42.674494" lon="0.653155">
        <ele>1949.2</ele>
        <time>1970-01-01T00:27:22.000Z</time>
      </trkpt>
      <trkpt lat="42.674497" lon="0.653152">
        <ele>1949.1</ele>
        <time>1970-01-01T00:27:23.000Z</time>
      </trkpt>
      <trkpt lat="42.6745" lon="0.653149">
        <ele>1949.1</ele>
        <time>1970-01-01T00:27:24.000Z</time>
      </trkpt>
      <trkpt lat="42.674502" lon="0.653145">
        <ele>1949</ele>
        <time>1970-01-01T00:27:25.000Z</time>
      </trkpt>
      <trkpt lat="42.674505" lon="0.65314">
        <ele>1948.9</ele>
        <time>1970-01-01T00:27:27.000Z</time>
      </trkpt>
      <trkpt lat="42.674504" lon="0.653135">
        <ele>1948.8</ele>
        <time>1970-01-01T00:27:28.000Z</time>
      </trkpt>
      <trkpt lat="42.674502" lon="0.653129">
        <ele>1948.8</ele>
        <time>1970-01-01T00:27:29.000Z</time>
      </trkpt>
      <trkpt lat="42.674502" lon="0.653121">
        <ele>1948.7</ele>
        <time>1970-01-01T00:27:30.000Z</time>
      </trkpt>
      <trkpt lat="42.674503" lon="0.653114">
        <ele>1948.6</ele>
        <time>1970-01-01T00:27:31.000Z</time>
      </trkpt>
      <trkpt lat="42.674504" lon="0.653108">
        <ele>1948.5</ele>
        <time>1970-01-01T00:27:32.000Z</time>
      </trkpt>
      <trkpt lat="42.674502" lon="0.653102">
        <ele>1948.4</ele>
        <time>1970-01-01T00:27:33.000Z</time>
      </trkpt>
      <trkpt lat="42.674501" lon="0.653094">
        <ele>1948.3</ele>
        <time>1970-01-01T00:27:34.000Z</time>
      </trkpt>
      <trkpt lat="42.674501" lon="0.653086">
        <ele>1948.2</ele>
        <time>1970-01-01T00:27:35.000Z</time>
      </trkpt>
      <trkpt lat="42.6745" lon="0.653076">
        <ele>1948</ele>
        <time>1970-01-01T00:27:36.000Z</time>
      </trkpt>
      <trkpt lat="42.674499" lon="0.653066">
        <ele>1947.9</ele>
        <time>1970-01-01T00:27:38.000Z</time>
      </trkpt>
      <trkpt lat="42.674501" lon="0.653059">
        <ele>1947.8</ele>
        <time>1970-01-01T00:27:39.000Z</time>
      </trkpt>
      <trkpt lat="42.674505" lon="0.653048">
        <ele>1947.6</ele>
        <time>1970-01-01T00:27:40.000Z</time>
      </trkpt>
      <trkpt lat="42.674504" lon="0.653037">
        <ele>1947.5</ele>
        <time>1970-01-01T00:27:41.000Z</time>
      </trkpt>
      <trkpt lat="42.674504" lon="0.653027">
        <ele>1947.3</ele>
        <time>1970-01-01T00:27:43.000Z</time>
      </trkpt>
      <trkpt lat="42.674506" lon="0.653013">
        <ele>1947.1</ele>
        <time>1970-01-01T00:27:44.000Z</time>
      </trkpt>
      <trkpt lat="42.674507" lon="0.653004">
        <ele>1947</ele>
        <time>1970-01-01T00:27:45.000Z</time>
      </trkpt>
      <trkpt lat="42.674508" lon="0.652993">
        <ele>1946.8</ele>
        <time>1970-01-01T00:27:46.000Z</time>
      </trkpt>
      <trkpt lat="42.674516" lon="0.65298">
        <ele>1946.5</ele>
        <time>1970-01-01T00:27:47.000Z</time>
      </trkpt>
      <trkpt lat="42.674527" lon="0.652975">
        <ele>1946.3</ele>
        <time>1970-01-01T00:27:49.000Z</time>
      </trkpt>
      <trkpt lat="42.674539" lon="0.652974">
        <ele>1946</ele>
        <time>1970-01-01T00:27:50.000Z</time>
      </trkpt>
      <trkpt lat="42.674551" lon="0.652973">
        <ele>1945.7</ele>
        <time>1970-01-01T00:27:51.000Z</time>
      </trkpt>
      <trkpt lat="42.674563" lon="0.65297">
        <ele>1945.4</ele>
        <time>1970-01-01T00:27:52.000Z</time>
      </trkpt>
      <trkpt lat="42.674573" lon="0.652965">
        <ele>1945.2</ele>
        <time>1970-01-01T00:27:53.000Z</time>
      </trkpt>
      <trkpt lat="42.674592" lon="0.652952">
        <ele>1944.7</ele>
        <time>1970-01-01T00:27:54.000Z</time>
      </trkpt>
      <trkpt lat="42.6746" lon="0.652948">
        <ele>1944.5</ele>
        <time>1970-01-01T00:27:55.000Z</time>
      </trkpt>
      <trkpt lat="42.674608" lon="0.652944">
        <ele>1944.3</ele>
        <time>1970-01-01T00:27:56.000Z</time>
      </trkpt>
      <trkpt lat="42.67463" lon="0.652936">
        <ele>1943.7</ele>
        <time>1970-01-01T00:27:57.000Z</time>
      </trkpt>
      <trkpt lat="42.674639" lon="0.652934">
        <ele>1943.5</ele>
        <time>1970-01-01T00:27:59.000Z</time>
      </trkpt>
      <trkpt lat="42.674648" lon="0.652931">
        <ele>1943.3</ele>
        <time>1970-01-01T00:28:00.000Z</time>
      </trkpt>
      <trkpt lat="42.674668" lon="0.652929">
        <ele>1942.8</ele>
        <time>1970-01-01T00:28:01.000Z</time>
      </trkpt>
      <trkpt lat="42.674677" lon="0.652926">
        <ele>1942.6</ele>
        <time>1970-01-01T00:28:02.000Z</time>
      </trkpt>
      <trkpt lat="42.674685" lon="0.652923">
        <ele>1942.4</ele>
        <time>1970-01-01T00:28:03.000Z</time>
      </trkpt>
      <trkpt lat="42.674698" lon="0.652915">
        <ele>1942.2</ele>
        <time>1970-01-01T00:28:05.000Z</time>
      </trkpt>
      <trkpt lat="42.674706" lon="0.652906">
        <ele>1942</ele>
        <time>1970-01-01T00:28:06.000Z</time>
      </trkpt>
      <trkpt lat="42.674714" lon="0.652897">
        <ele>1941.8</ele>
        <time>1970-01-01T00:28:07.000Z</time>
      </trkpt>
      <trkpt lat="42.674724" lon="0.652891">
        <ele>1941.5</ele>
        <time>1970-01-01T00:28:08.000Z</time>
      </trkpt>
      <trkpt lat="42.674734" lon="0.652886">
        <ele>1941.3</ele>
        <time>1970-01-01T00:28:09.000Z</time>
      </trkpt>
      <trkpt lat="42.674743" lon="0.652882">
        <ele>1941.2</ele>
        <time>1970-01-01T00:28:10.000Z</time>
      </trkpt>
      <trkpt lat="42.674753" lon="0.652877">
        <ele>1941</ele>
        <time>1970-01-01T00:28:12.000Z</time>
      </trkpt>
      <trkpt lat="42.67476" lon="0.652876">
        <ele>1940.9</ele>
        <time>1970-01-01T00:28:13.000Z</time>
      </trkpt>
      <trkpt lat="42.674768" lon="0.652876">
        <ele>1940.8</ele>
        <time>1970-01-01T00:28:14.000Z</time>
      </trkpt>
      <trkpt lat="42.674778" lon="0.652876">
        <ele>1940.6</ele>
        <time>1970-01-01T00:28:15.000Z</time>
      </trkpt>
      <trkpt lat="42.674785" lon="0.652876">
        <ele>1940.5</ele>
        <time>1970-01-01T00:28:16.000Z</time>
      </trkpt>
      <trkpt lat="42.67479" lon="0.652875">
        <ele>1940.4</ele>
        <time>1970-01-01T00:28:17.000Z</time>
      </trkpt>
      <trkpt lat="42.674797" lon="0.652872">
        <ele>1940.3</ele>
        <time>1970-01-01T00:28:18.000Z</time>
      </trkpt>
      <trkpt lat="42.674804" lon="0.652868">
        <ele>1940.2</ele>
        <time>1970-01-01T00:28:19.000Z</time>
      </trkpt>
      <trkpt lat="42.674811" lon="0.652863">
        <ele>1940.2</ele>
        <time>1970-01-01T00:28:20.000Z</time>
      </trkpt>
      <trkpt lat="42.674816" lon="0.652857">
        <ele>1940.1</ele>
        <time>1970-01-01T00:28:21.000Z</time>
      </trkpt>
      <trkpt lat="42.674824" lon="0.652848">
        <ele>1940</ele>
        <time>1970-01-01T00:28:22.000Z</time>
      </trkpt>
      <trkpt lat="42.674832" lon="0.65284">
        <ele>1939.8</ele>
        <time>1970-01-01T00:28:24.000Z</time>
      </trkpt>
      <trkpt lat="42.674839" lon="0.652833">
        <ele>1939.7</ele>
        <time>1970-01-01T00:28:25.000Z</time>
      </trkpt>
      <trkpt lat="42.674847" lon="0.652827">
        <ele>1939.6</ele>
        <time>1970-01-01T00:28:26.000Z</time>
      </trkpt>
      <trkpt lat="42.674851" lon="0.652823">
        <ele>1939.6</ele>
        <time>1970-01-01T00:28:27.000Z</time>
      </trkpt>
      <trkpt lat="42.674857" lon="0.652816">
        <ele>1939.5</ele>
        <time>1970-01-01T00:28:29.000Z</time>
      </trkpt>
      <trkpt lat="42.674862" lon="0.652812">
        <ele>1939.5</ele>
        <time>1970-01-01T00:28:30.000Z</time>
      </trkpt>
      <trkpt lat="42.674868" lon="0.652808">
        <ele>1939.4</ele>
        <time>1970-01-01T00:28:31.000Z</time>
      </trkpt>
      <trkpt lat="42.674873" lon="0.652805">
        <ele>1939.4</ele>
        <time>1970-01-01T00:28:32.000Z</time>
      </trkpt>
      <trkpt lat="42.674877" lon="0.652801">
        <ele>1939.3</ele>
        <time>1970-01-01T00:28:33.000Z</time>
      </trkpt>
      <trkpt lat="42.674882" lon="0.652795">
        <ele>1939.3</ele>
        <time>1970-01-01T00:28:34.000Z</time>
      </trkpt>
      <trkpt lat="42.674888" lon="0.65279">
        <ele>1939.2</ele>
        <time>1970-01-01T00:28:35.000Z</time>
      </trkpt>
      <trkpt lat="42.674895" lon="0.652787">
        <ele>1939.1</ele>
        <time>1970-01-01T00:28:36.000Z</time>
      </trkpt>
      <trkpt lat="42.674904" lon="0.652789">
        <ele>1939.1</ele>
        <time>1970-01-01T00:28:37.000Z</time>
      </trkpt>
      <trkpt lat="42.674911" lon="0.652789">
        <ele>1939</ele>
        <time>1970-01-01T00:28:39.000Z</time>
      </trkpt>
      <trkpt lat="42.674916" lon="0.652786">
        <ele>1939</ele>
        <time>1970-01-01T00:28:40.000Z</time>
      </trkpt>
      <trkpt lat="42.674921" lon="0.65278">
        <ele>1938.9</ele>
        <time>1970-01-01T00:28:41.000Z</time>
      </trkpt>
      <trkpt lat="42.674924" lon="0.652776">
        <ele>1938.9</ele>
        <time>1970-01-01T00:28:42.000Z</time>
      </trkpt>
      <trkpt lat="42.674928" lon="0.652773">
        <ele>1938.9</ele>
        <time>1970-01-01T00:28:43.000Z</time>
      </trkpt>
      <trkpt lat="42.674933" lon="0.65277">
        <ele>1938.8</ele>
        <time>1970-01-01T00:28:44.000Z</time>
      </trkpt>
      <trkpt lat="42.674939" lon="0.652768">
        <ele>1938.8</ele>
        <time>1970-01-01T00:28:45.000Z</time>
      </trkpt>
      <trkpt lat="42.674944" lon="0.652766">
        <ele>1938.8</ele>
        <time>1970-01-01T00:28:46.000Z</time>
      </trkpt>
      <trkpt lat="42.674952" lon="0.652764">
        <ele>1938.7</ele>
        <time>1970-01-01T00:28:47.000Z</time>
      </trkpt>
      <trkpt lat="42.67496" lon="0.652762">
        <ele>1938.7</ele>
        <time>1970-01-01T00:28:49.000Z</time>
      </trkpt>
      <trkpt lat="42.674968" lon="0.65276">
        <ele>1938.6</ele>
        <time>1970-01-01T00:28:50.000Z</time>
      </trkpt>
      <trkpt lat="42.67497" lon="0.652762">
        <ele>1938.6</ele>
        <time>1970-01-01T00:28:51.000Z</time>
      </trkpt>
      <trkpt lat="42.674972" lon="0.652762">
        <ele>1938.6</ele>
        <time>1970-01-01T00:28:52.000Z</time>
      </trkpt>
      <trkpt lat="42.674973" lon="0.652762">
        <ele>1938.6</ele>
        <time>1970-01-01T00:28:53.000Z</time>
      </trkpt>
      <trkpt lat="42.674975" lon="0.652764">
        <ele>1938.5</ele>
        <time>1970-01-01T00:28:54.000Z</time>
      </trkpt>
      <trkpt lat="42.674974" lon="0.652765">
        <ele>1938.5</ele>
        <time>1970-01-01T00:28:55.000Z</time>
      </trkpt>
      <trkpt lat="42.674973" lon="0.652766">
        <ele>1938.5</ele>
        <time>1970-01-01T00:28:56.000Z</time>
      </trkpt>
      <trkpt lat="42.674974" lon="0.652765">
        <ele>1938.5</ele>
        <time>1970-01-01T00:28:57.000Z</time>
      </trkpt>
      <trkpt lat="42.674973" lon="0.652764">
        <ele>1938.5</ele>
        <time>1970-01-01T00:28:58.000Z</time>
      </trkpt>
      <trkpt lat="42.674975" lon="0.652762">
        <ele>1938.5</ele>
        <time>1970-01-01T00:28:59.000Z</time>
      </trkpt>
      <trkpt lat="42.674975" lon="0.652761">
        <ele>1938.5</ele>
        <time>1970-01-01T00:29:00.000Z</time>
      </trkpt>
      <trkpt lat="42.674983" lon="0.652756">
        <ele>1938.4</ele>
        <time>1970-01-01T00:29:02.000Z</time>
      </trkpt>
      <trkpt lat="42.674989" lon="0.652752">
        <ele>1938.4</ele>
        <time>1970-01-01T00:29:03.000Z</time>
      </trkpt>
      <trkpt lat="42.675" lon="0.652745">
        <ele>1938.3</ele>
        <time>1970-01-01T00:29:05.000Z</time>
      </trkpt>
      <trkpt lat="42.675014" lon="0.652739">
        <ele>1938.2</ele>
        <time>1970-01-01T00:29:06.000Z</time>
      </trkpt>
      <trkpt lat="42.675026" lon="0.652734">
        <ele>1938.1</ele>
        <time>1970-01-01T00:29:07.000Z</time>
      </trkpt>
      <trkpt lat="42.675039" lon="0.652727">
        <ele>1938</ele>
        <time>1970-01-01T00:29:08.000Z</time>
      </trkpt>
      <trkpt lat="42.67505" lon="0.652718">
        <ele>1937.9</ele>
        <time>1970-01-01T00:29:09.000Z</time>
      </trkpt>
      <trkpt lat="42.675061" lon="0.652703">
        <ele>1937.7</ele>
        <time>1970-01-01T00:29:11.000Z</time>
      </trkpt>
      <trkpt lat="42.675068" lon="0.652687">
        <ele>1937.6</ele>
        <time>1970-01-01T00:29:12.000Z</time>
      </trkpt>
      <trkpt lat="42.675074" lon="0.65267">
        <ele>1937.5</ele>
        <time>1970-01-01T00:29:13.000Z</time>
      </trkpt>
      <trkpt lat="42.675083" lon="0.652657">
        <ele>1937.4</ele>
        <time>1970-01-01T00:29:14.000Z</time>
      </trkpt>
      <trkpt lat="42.675092" lon="0.652648">
        <ele>1937.3</ele>
        <time>1970-01-01T00:29:15.000Z</time>
      </trkpt>
      <trkpt lat="42.675106" lon="0.652638">
        <ele>1937.1</ele>
        <time>1970-01-01T00:29:17.000Z</time>
      </trkpt>
      <trkpt lat="42.675117" lon="0.652631">
        <ele>1937</ele>
        <time>1970-01-01T00:29:18.000Z</time>
      </trkpt>
      <trkpt lat="42.675125" lon="0.652623">
        <ele>1936.9</ele>
        <time>1970-01-01T00:29:19.000Z</time>
      </trkpt>
      <trkpt lat="42.675133" lon="0.652613">
        <ele>1936.8</ele>
        <time>1970-01-01T00:29:20.000Z</time>
      </trkpt>
      <trkpt lat="42.675138" lon="0.652599">
        <ele>1936.7</ele>
        <time>1970-01-01T00:29:21.000Z</time>
      </trkpt>
      <trkpt lat="42.675141" lon="0.652585">
        <ele>1936.6</ele>
        <time>1970-01-01T00:29:22.000Z</time>
      </trkpt>
      <trkpt lat="42.675142" lon="0.652568">
        <ele>1936.5</ele>
        <time>1970-01-01T00:29:23.000Z</time>
      </trkpt>
      <trkpt lat="42.675143" lon="0.652552">
        <ele>1936.3</ele>
        <time>1970-01-01T00:29:24.000Z</time>
      </trkpt>
      <trkpt lat="42.675144" lon="0.652535">
        <ele>1936.2</ele>
        <time>1970-01-01T00:29:26.000Z</time>
      </trkpt>
      <trkpt lat="42.675145" lon="0.65252">
        <ele>1936.1</ele>
        <time>1970-01-01T00:29:27.000Z</time>
      </trkpt>
      <trkpt lat="42.675147" lon="0.652506">
        <ele>1935.9</ele>
        <time>1970-01-01T00:29:28.000Z</time>
      </trkpt>
      <trkpt lat="42.675151" lon="0.65249">
        <ele>1935.8</ele>
        <time>1970-01-01T00:29:29.000Z</time>
      </trkpt>
      <trkpt lat="42.675154" lon="0.652475">
        <ele>1935.7</ele>
        <time>1970-01-01T00:29:30.000Z</time>
      </trkpt>
      <trkpt lat="42.675157" lon="0.652463">
        <ele>1935.6</ele>
        <time>1970-01-01T00:29:31.000Z</time>
      </trkpt>
      <trkpt lat="42.675163" lon="0.652449">
        <ele>1935.4</ele>
        <time>1970-01-01T00:29:32.000Z</time>
      </trkpt>
      <trkpt lat="42.675169" lon="0.652434">
        <ele>1935.3</ele>
        <time>1970-01-01T00:29:33.000Z</time>
      </trkpt>
      <trkpt lat="42.675178" lon="0.65241">
        <ele>1935</ele>
        <time>1970-01-01T00:29:35.000Z</time>
      </trkpt>
      <trkpt lat="42.675183" lon="0.652396">
        <ele>1934.9</ele>
        <time>1970-01-01T00:29:36.000Z</time>
      </trkpt>
      <trkpt lat="42.675186" lon="0.652383">
        <ele>1934.7</ele>
        <time>1970-01-01T00:29:37.000Z</time>
      </trkpt>
      <trkpt lat="42.675188" lon="0.652368">
        <ele>1934.6</ele>
        <time>1970-01-01T00:29:38.000Z</time>
      </trkpt>
      <trkpt lat="42.675191" lon="0.652355">
        <ele>1934.5</ele>
        <time>1970-01-01T00:29:39.000Z</time>
      </trkpt>
      <trkpt lat="42.675196" lon="0.652337">
        <ele>1934.3</ele>
        <time>1970-01-01T00:29:40.000Z</time>
      </trkpt>
      <trkpt lat="42.675201" lon="0.652321">
        <ele>1934.1</ele>
        <time>1970-01-01T00:29:41.000Z</time>
      </trkpt>
      <trkpt lat="42.675205" lon="0.652302">
        <ele>1933.9</ele>
        <time>1970-01-01T00:29:43.000Z</time>
      </trkpt>
      <trkpt lat="42.675208" lon="0.652289">
        <ele>1933.7</ele>
        <time>1970-01-01T00:29:44.000Z</time>
      </trkpt>
      <trkpt lat="42.675211" lon="0.652281">
        <ele>1933.7</ele>
        <time>1970-01-01T00:29:45.000Z</time>
      </trkpt>
      <trkpt lat="42.675221" lon="0.652261">
        <ele>1933.4</ele>
        <time>1970-01-01T00:29:47.000Z</time>
      </trkpt>
      <trkpt lat="42.675228" lon="0.652253">
        <ele>1933.3</ele>
        <time>1970-01-01T00:29:48.000Z</time>
      </trkpt>
      <trkpt lat="42.675235" lon="0.652245">
        <ele>1933.1</ele>
        <time>1970-01-01T00:29:49.000Z</time>
      </trkpt>
      <trkpt lat="42.675242" lon="0.652236">
        <ele>1933</ele>
        <time>1970-01-01T00:29:50.000Z</time>
      </trkpt>
      <trkpt lat="42.675251" lon="0.652219">
        <ele>1932.7</ele>
        <time>1970-01-01T00:29:52.000Z</time>
      </trkpt>
      <trkpt lat="42.675256" lon="0.652207">
        <ele>1932.5</ele>
        <time>1970-01-01T00:29:53.000Z</time>
      </trkpt>
      <trkpt lat="42.675259" lon="0.652194">
        <ele>1932.4</ele>
        <time>1970-01-01T00:29:54.000Z</time>
      </trkpt>
      <trkpt lat="42.675261" lon="0.652179">
        <ele>1932.2</ele>
        <time>1970-01-01T00:29:55.000Z</time>
      </trkpt>
      <trkpt lat="42.675264" lon="0.652162">
        <ele>1931.9</ele>
        <time>1970-01-01T00:29:57.000Z</time>
      </trkpt>
      <trkpt lat="42.675266" lon="0.652152">
        <ele>1931.8</ele>
        <time>1970-01-01T00:29:58.000Z</time>
      </trkpt>
      <trkpt lat="42.675268" lon="0.65214">
        <ele>1931.6</ele>
        <time>1970-01-01T00:29:59.000Z</time>
      </trkpt>
      <trkpt lat="42.675272" lon="0.652129">
        <ele>1931.5</ele>
        <time>1970-01-01T00:30:00.000Z</time>
      </trkpt>
      <trkpt lat="42.67528" lon="0.65212">
        <ele>1931.3</ele>
        <time>1970-01-01T00:30:01.000Z</time>
      </trkpt>
      <trkpt lat="42.675291" lon="0.652116">
        <ele>1931</ele>
        <time>1970-01-01T00:30:02.000Z</time>
      </trkpt>
      <trkpt lat="42.6753" lon="0.652114">
        <ele>1930.8</ele>
        <time>1970-01-01T00:30:03.000Z</time>
      </trkpt>
      <trkpt lat="42.675311" lon="0.652114">
        <ele>1930.6</ele>
        <time>1970-01-01T00:30:04.000Z</time>
      </trkpt>
      <trkpt lat="42.675322" lon="0.652118">
        <ele>1930.3</ele>
        <time>1970-01-01T00:30:05.000Z</time>
      </trkpt>
      <trkpt lat="42.67533" lon="0.652127">
        <ele>1930.1</ele>
        <time>1970-01-01T00:30:06.000Z</time>
      </trkpt>
      <trkpt lat="42.675332" lon="0.652143">
        <ele>1929.8</ele>
        <time>1970-01-01T00:30:07.000Z</time>
      </trkpt>
      <trkpt lat="42.675333" lon="0.652157">
        <ele>1929.6</ele>
        <time>1970-01-01T00:30:08.000Z</time>
      </trkpt>
      <trkpt lat="42.675333" lon="0.652172">
        <ele>1929.3</ele>
        <time>1970-01-01T00:30:10.000Z</time>
      </trkpt>
      <trkpt lat="42.675333" lon="0.652186">
        <ele>1929.1</ele>
        <time>1970-01-01T00:30:11.000Z</time>
      </trkpt>
      <trkpt lat="42.675333" lon="0.652199">
        <ele>1928.9</ele>
        <time>1970-01-01T00:30:12.000Z</time>
      </trkpt>
      <trkpt lat="42.675335" lon="0.652218">
        <ele>1928.5</ele>
        <time>1970-01-01T00:30:13.000Z</time>
      </trkpt>
      <trkpt lat="42.675339" lon="0.652229">
        <ele>1928.3</ele>
        <time>1970-01-01T00:30:15.000Z</time>
      </trkpt>
      <trkpt lat="42.675345" lon="0.652233">
        <ele>1928.1</ele>
        <time>1970-01-01T00:30:16.000Z</time>
      </trkpt>
      <trkpt lat="42.675351" lon="0.65223">
        <ele>1928</ele>
        <time>1970-01-01T00:30:17.000Z</time>
      </trkpt>
      <trkpt lat="42.675356" lon="0.652224">
        <ele>1927.8</ele>
        <time>1970-01-01T00:30:18.000Z</time>
      </trkpt>
      <trkpt lat="42.675361" lon="0.65222">
        <ele>1927.7</ele>
        <time>1970-01-01T00:30:19.000Z</time>
      </trkpt>
      <trkpt lat="42.675364" lon="0.652215">
        <ele>1927.6</ele>
        <time>1970-01-01T00:30:20.000Z</time>
      </trkpt>
      <trkpt lat="42.675368" lon="0.652208">
        <ele>1927.4</ele>
        <time>1970-01-01T00:30:21.000Z</time>
      </trkpt>
      <trkpt lat="42.675375" lon="0.652203">
        <ele>1927.2</ele>
        <time>1970-01-01T00:30:23.000Z</time>
      </trkpt>
      <trkpt lat="42.675378" lon="0.652199">
        <ele>1927.1</ele>
        <time>1970-01-01T00:30:24.000Z</time>
      </trkpt>
      <trkpt lat="42.675383" lon="0.652193">
        <ele>1926.9</ele>
        <time>1970-01-01T00:30:25.000Z</time>
      </trkpt>
      <trkpt lat="42.67539" lon="0.652187">
        <ele>1926.7</ele>
        <time>1970-01-01T00:30:26.000Z</time>
      </trkpt>
      <trkpt lat="42.675398" lon="0.652181">
        <ele>1926.5</ele>
        <time>1970-01-01T00:30:27.000Z</time>
      </trkpt>
      <trkpt lat="42.675406" lon="0.652171">
        <ele>1926.2</ele>
        <time>1970-01-01T00:30:28.000Z</time>
      </trkpt>
      <trkpt lat="42.675413" lon="0.652164">
        <ele>1926</ele>
        <time>1970-01-01T00:30:29.000Z</time>
      </trkpt>
      <trkpt lat="42.675418" lon="0.652152">
        <ele>1925.8</ele>
        <time>1970-01-01T00:30:30.000Z</time>
      </trkpt>
      <trkpt lat="42.675423" lon="0.652139">
        <ele>1925.5</ele>
        <time>1970-01-01T00:30:31.000Z</time>
      </trkpt>
      <trkpt lat="42.675425" lon="0.652125">
        <ele>1925.3</ele>
        <time>1970-01-01T00:30:32.000Z</time>
      </trkpt>
      <trkpt lat="42.675426" lon="0.652113">
        <ele>1925</ele>
        <time>1970-01-01T00:30:33.000Z</time>
      </trkpt>
      <trkpt lat="42.675424" lon="0.652094">
        <ele>1924.7</ele>
        <time>1970-01-01T00:30:34.000Z</time>
      </trkpt>
      <trkpt lat="42.675426" lon="0.652078">
        <ele>1924.4</ele>
        <time>1970-01-01T00:30:36.000Z</time>
      </trkpt>
      <trkpt lat="42.67543" lon="0.652063">
        <ele>1924.1</ele>
        <time>1970-01-01T00:30:37.000Z</time>
      </trkpt>
      <trkpt lat="42.675431" lon="0.65205">
        <ele>1923.9</ele>
        <time>1970-01-01T00:30:38.000Z</time>
      </trkpt>
      <trkpt lat="42.67543" lon="0.652036">
        <ele>1923.7</ele>
        <time>1970-01-01T00:30:39.000Z</time>
      </trkpt>
      <trkpt lat="42.675433" lon="0.652018">
        <ele>1923.4</ele>
        <time>1970-01-01T00:30:41.000Z</time>
      </trkpt>
      <trkpt lat="42.675437" lon="0.652007">
        <ele>1923.2</ele>
        <time>1970-01-01T00:30:42.000Z</time>
      </trkpt>
      <trkpt lat="42.675441" lon="0.651997">
        <ele>1923</ele>
        <time>1970-01-01T00:30:43.000Z</time>
      </trkpt>
      <trkpt lat="42.675444" lon="0.651984">
        <ele>1922.8</ele>
        <time>1970-01-01T00:30:44.000Z</time>
      </trkpt>
      <trkpt lat="42.675447" lon="0.651971">
        <ele>1922.6</ele>
        <time>1970-01-01T00:30:45.000Z</time>
      </trkpt>
      <trkpt lat="42.675453" lon="0.651959">
        <ele>1922.3</ele>
        <time>1970-01-01T00:30:46.000Z</time>
      </trkpt>
      <trkpt lat="42.675469" lon="0.651937">
        <ele>1921.9</ele>
        <time>1970-01-01T00:30:48.000Z</time>
      </trkpt>
      <trkpt lat="42.675476" lon="0.65193">
        <ele>1921.7</ele>
        <time>1970-01-01T00:30:49.000Z</time>
      </trkpt>
      <trkpt lat="42.675483" lon="0.651923">
        <ele>1921.5</ele>
        <time>1970-01-01T00:30:50.000Z</time>
      </trkpt>
      <trkpt lat="42.675501" lon="0.65191">
        <ele>1921.2</ele>
        <time>1970-01-01T00:30:52.000Z</time>
      </trkpt>
      <trkpt lat="42.675509" lon="0.651907">
        <ele>1921</ele>
        <time>1970-01-01T00:30:53.000Z</time>
      </trkpt>
      <trkpt lat="42.675518" lon="0.651904">
        <ele>1920.8</ele>
        <time>1970-01-01T00:30:54.000Z</time>
      </trkpt>
      <trkpt lat="42.675527" lon="0.6519">
        <ele>1920.7</ele>
        <time>1970-01-01T00:30:55.000Z</time>
      </trkpt>
      <trkpt lat="42.675536" lon="0.651889">
        <ele>1920.5</ele>
        <time>1970-01-01T00:30:56.000Z</time>
      </trkpt>
      <trkpt lat="42.675544" lon="0.651877">
        <ele>1920.3</ele>
        <time>1970-01-01T00:30:57.000Z</time>
      </trkpt>
      <trkpt lat="42.675552" lon="0.651863">
        <ele>1920</ele>
        <time>1970-01-01T00:30:58.000Z</time>
      </trkpt>
      <trkpt lat="42.675557" lon="0.651845">
        <ele>1919.8</ele>
        <time>1970-01-01T00:30:59.000Z</time>
      </trkpt>
      <trkpt lat="42.675561" lon="0.651827">
        <ele>1919.6</ele>
        <time>1970-01-01T00:31:01.000Z</time>
      </trkpt>
      <trkpt lat="42.675567" lon="0.651801">
        <ele>1919.3</ele>
        <time>1970-01-01T00:31:02.000Z</time>
      </trkpt>
      <trkpt lat="42.67557" lon="0.65179">
        <ele>1919.2</ele>
        <time>1970-01-01T00:31:03.000Z</time>
      </trkpt>
      <trkpt lat="42.675573" lon="0.65178">
        <ele>1919.1</ele>
        <time>1970-01-01T00:31:04.000Z</time>
      </trkpt>
      <trkpt lat="42.675584" lon="0.651757">
        <ele>1918.8</ele>
        <time>1970-01-01T00:31:05.000Z</time>
      </trkpt>
      <trkpt lat="42.675589" lon="0.651748">
        <ele>1918.7</ele>
        <time>1970-01-01T00:31:06.000Z</time>
      </trkpt>
      <trkpt lat="42.675594" lon="0.651738">
        <ele>1918.6</ele>
        <time>1970-01-01T00:31:07.000Z</time>
      </trkpt>
      <trkpt lat="42.67561" lon="0.651716">
        <ele>1918.3</ele>
        <time>1970-01-01T00:31:08.000Z</time>
      </trkpt>
      <trkpt lat="42.675616" lon="0.651708">
        <ele>1918.2</ele>
        <time>1970-01-01T00:31:09.000Z</time>
      </trkpt>
      <trkpt lat="42.675622" lon="0.6517">
        <ele>1918.1</ele>
        <time>1970-01-01T00:31:10.000Z</time>
      </trkpt>
      <trkpt lat="42.67563" lon="0.651686">
        <ele>1918</ele>
        <time>1970-01-01T00:31:12.000Z</time>
      </trkpt>
      <trkpt lat="42.675637" lon="0.651675">
        <ele>1917.8</ele>
        <time>1970-01-01T00:31:13.000Z</time>
      </trkpt>
      <trkpt lat="42.675644" lon="0.651665">
        <ele>1917.7</ele>
        <time>1970-01-01T00:31:14.000Z</time>
      </trkpt>
      <trkpt lat="42.67565" lon="0.651653">
        <ele>1917.6</ele>
        <time>1970-01-01T00:31:15.000Z</time>
      </trkpt>
      <trkpt lat="42.675655" lon="0.651634">
        <ele>1917.5</ele>
        <time>1970-01-01T00:31:16.000Z</time>
      </trkpt>
      <trkpt lat="42.67566" lon="0.651618">
        <ele>1917.4</ele>
        <time>1970-01-01T00:31:18.000Z</time>
      </trkpt>
      <trkpt lat="42.675661" lon="0.651599">
        <ele>1917.3</ele>
        <time>1970-01-01T00:31:19.000Z</time>
      </trkpt>
      <trkpt lat="42.675659" lon="0.65158">
        <ele>1917.1</ele>
        <time>1970-01-01T00:31:21.000Z</time>
      </trkpt>
      <trkpt lat="42.675657" lon="0.651566">
        <ele>1917.1</ele>
        <time>1970-01-01T00:31:22.000Z</time>
      </trkpt>
      <trkpt lat="42.675658" lon="0.651552">
        <ele>1917</ele>
        <time>1970-01-01T00:31:23.000Z</time>
      </trkpt>
      <trkpt lat="42.675662" lon="0.651539">
        <ele>1916.9</ele>
        <time>1970-01-01T00:31:24.000Z</time>
      </trkpt>
      <trkpt lat="42.675669" lon="0.65153">
        <ele>1916.8</ele>
        <time>1970-01-01T00:31:25.000Z</time>
      </trkpt>
      <trkpt lat="42.675675" lon="0.651525">
        <ele>1916.8</ele>
        <time>1970-01-01T00:31:26.000Z</time>
      </trkpt>
      <trkpt lat="42.675684" lon="0.651526">
        <ele>1916.7</ele>
        <time>1970-01-01T00:31:27.000Z</time>
      </trkpt>
      <trkpt lat="42.675697" lon="0.651532">
        <ele>1916.6</ele>
        <time>1970-01-01T00:31:29.000Z</time>
      </trkpt>
      <trkpt lat="42.675707" lon="0.651536">
        <ele>1916.5</ele>
        <time>1970-01-01T00:31:30.000Z</time>
      </trkpt>
      <trkpt lat="42.675713" lon="0.651539">
        <ele>1916.5</ele>
        <time>1970-01-01T00:31:31.000Z</time>
      </trkpt>
      <trkpt lat="42.675725" lon="0.65155">
        <ele>1916.4</ele>
        <time>1970-01-01T00:31:32.000Z</time>
      </trkpt>
      <trkpt lat="42.675733" lon="0.651561">
        <ele>1916.3</ele>
        <time>1970-01-01T00:31:33.000Z</time>
      </trkpt>
      <trkpt lat="42.675736" lon="0.651575">
        <ele>1916.2</ele>
        <time>1970-01-01T00:31:35.000Z</time>
      </trkpt>
      <trkpt lat="42.675735" lon="0.65159">
        <ele>1916.1</ele>
        <time>1970-01-01T00:31:36.000Z</time>
      </trkpt>
      <trkpt lat="42.675732" lon="0.651604">
        <ele>1916</ele>
        <time>1970-01-01T00:31:37.000Z</time>
      </trkpt>
      <trkpt lat="42.675731" lon="0.651616">
        <ele>1915.9</ele>
        <time>1970-01-01T00:31:38.000Z</time>
      </trkpt>
      <trkpt lat="42.67573" lon="0.651633">
        <ele>1915.8</ele>
        <time>1970-01-01T00:31:39.000Z</time>
      </trkpt>
      <trkpt lat="42.675732" lon="0.651648">
        <ele>1915.7</ele>
        <time>1970-01-01T00:31:40.000Z</time>
      </trkpt>
      <trkpt lat="42.675735" lon="0.651662">
        <ele>1915.6</ele>
        <time>1970-01-01T00:31:42.000Z</time>
      </trkpt>
      <trkpt lat="42.675737" lon="0.651677">
        <ele>1915.5</ele>
        <time>1970-01-01T00:31:43.000Z</time>
      </trkpt>
      <trkpt lat="42.675736" lon="0.651689">
        <ele>1915.5</ele>
        <time>1970-01-01T00:31:44.000Z</time>
      </trkpt>
      <trkpt lat="42.675735" lon="0.6517">
        <ele>1915.4</ele>
        <time>1970-01-01T00:31:45.000Z</time>
      </trkpt>
      <trkpt lat="42.675732" lon="0.651712">
        <ele>1915.3</ele>
        <time>1970-01-01T00:31:47.000Z</time>
      </trkpt>
      <trkpt lat="42.675729" lon="0.651722">
        <ele>1915.2</ele>
        <time>1970-01-01T00:31:48.000Z</time>
      </trkpt>
      <trkpt lat="42.675726" lon="0.651732">
        <ele>1915.1</ele>
        <time>1970-01-01T00:31:49.000Z</time>
      </trkpt>
      <trkpt lat="42.675721" lon="0.651746">
        <ele>1915</ele>
        <time>1970-01-01T00:31:50.000Z</time>
      </trkpt>
      <trkpt lat="42.675718" lon="0.651757">
        <ele>1914.9</ele>
        <time>1970-01-01T00:31:51.000Z</time>
      </trkpt>
      <trkpt lat="42.675714" lon="0.651768">
        <ele>1914.8</ele>
        <time>1970-01-01T00:31:52.000Z</time>
      </trkpt>
      <trkpt lat="42.675711" lon="0.651779">
        <ele>1914.7</ele>
        <time>1970-01-01T00:31:54.000Z</time>
      </trkpt>
      <trkpt lat="42.67571" lon="0.651788">
        <ele>1914.7</ele>
        <time>1970-01-01T00:31:55.000Z</time>
      </trkpt>
      <trkpt lat="42.675706" lon="0.651807">
        <ele>1914.5</ele>
        <time>1970-01-01T00:31:57.000Z</time>
      </trkpt>
      <trkpt lat="42.675706" lon="0.651819">
        <ele>1914.4</ele>
        <time>1970-01-01T00:31:58.000Z</time>
      </trkpt>
      <trkpt lat="42.675706" lon="0.651829">
        <ele>1914.3</ele>
        <time>1970-01-01T00:31:59.000Z</time>
      </trkpt>
      <trkpt lat="42.675703" lon="0.651839">
        <ele>1914.2</ele>
        <time>1970-01-01T00:32:01.000Z</time>
      </trkpt>
      <trkpt lat="42.675698" lon="0.651849">
        <ele>1914.1</ele>
        <time>1970-01-01T00:32:02.000Z</time>
      </trkpt>
      <trkpt lat="42.675695" lon="0.651858">
        <ele>1914</ele>
        <time>1970-01-01T00:32:03.000Z</time>
      </trkpt>
      <trkpt lat="42.675693" lon="0.651864">
        <ele>1914</ele>
        <time>1970-01-01T00:32:04.000Z</time>
      </trkpt>
      <trkpt lat="42.675689" lon="0.651872">
        <ele>1913.9</ele>
        <time>1970-01-01T00:32:05.000Z</time>
      </trkpt>
      <trkpt lat="42.675685" lon="0.65188">
        <ele>1913.8</ele>
        <time>1970-01-01T00:32:06.000Z</time>
      </trkpt>
      <trkpt lat="42.675682" lon="0.651891">
        <ele>1913.7</ele>
        <time>1970-01-01T00:32:07.000Z</time>
      </trkpt>
      <trkpt lat="42.675681" lon="0.651901">
        <ele>1913.6</ele>
        <time>1970-01-01T00:32:08.000Z</time>
      </trkpt>
      <trkpt lat="42.675683" lon="0.651911">
        <ele>1913.6</ele>
        <time>1970-01-01T00:32:09.000Z</time>
      </trkpt>
      <trkpt lat="42.675687" lon="0.651919">
        <ele>1913.5</ele>
        <time>1970-01-01T00:32:10.000Z</time>
      </trkpt>
      <trkpt lat="42.675693" lon="0.651926">
        <ele>1913.4</ele>
        <time>1970-01-01T00:32:11.000Z</time>
      </trkpt>
      <trkpt lat="42.675696" lon="0.651929">
        <ele>1913.3</ele>
        <time>1970-01-01T00:32:12.000Z</time>
      </trkpt>
      <trkpt lat="42.675701" lon="0.651937">
        <ele>1913.3</ele>
        <time>1970-01-01T00:32:13.000Z</time>
      </trkpt>
      <trkpt lat="42.675705" lon="0.651944">
        <ele>1913.2</ele>
        <time>1970-01-01T00:32:15.000Z</time>
      </trkpt>
      <trkpt lat="42.67571" lon="0.651953">
        <ele>1913.1</ele>
        <time>1970-01-01T00:32:16.000Z</time>
      </trkpt>
      <trkpt lat="42.675714" lon="0.651962">
        <ele>1913</ele>
        <time>1970-01-01T00:32:17.000Z</time>
      </trkpt>
      <trkpt lat="42.675717" lon="0.651972">
        <ele>1912.9</ele>
        <time>1970-01-01T00:32:18.000Z</time>
      </trkpt>
      <trkpt lat="42.67572" lon="0.651984">
        <ele>1912.8</ele>
        <time>1970-01-01T00:32:19.000Z</time>
      </trkpt>
      <trkpt lat="42.675721" lon="0.651998">
        <ele>1912.7</ele>
        <time>1970-01-01T00:32:20.000Z</time>
      </trkpt>
      <trkpt lat="42.67572" lon="0.652014">
        <ele>1912.6</ele>
        <time>1970-01-01T00:32:21.000Z</time>
      </trkpt>
      <trkpt lat="42.675719" lon="0.652034">
        <ele>1912.4</ele>
        <time>1970-01-01T00:32:22.000Z</time>
      </trkpt>
      <trkpt lat="42.675722" lon="0.65205">
        <ele>1912.3</ele>
        <time>1970-01-01T00:32:24.000Z</time>
      </trkpt>
      <trkpt lat="42.675725" lon="0.652065">
        <ele>1912.2</ele>
        <time>1970-01-01T00:32:25.000Z</time>
      </trkpt>
      <trkpt lat="42.675728" lon="0.65208">
        <ele>1912.1</ele>
        <time>1970-01-01T00:32:26.000Z</time>
      </trkpt>
      <trkpt lat="42.67573" lon="0.652105">
        <ele>1911.9</ele>
        <time>1970-01-01T00:32:28.000Z</time>
      </trkpt>
      <trkpt lat="42.675731" lon="0.652122">
        <ele>1911.8</ele>
        <time>1970-01-01T00:32:29.000Z</time>
      </trkpt>
      <trkpt lat="42.675732" lon="0.652137">
        <ele>1911.7</ele>
        <time>1970-01-01T00:32:30.000Z</time>
      </trkpt>
      <trkpt lat="42.67573" lon="0.652151">
        <ele>1911.6</ele>
        <time>1970-01-01T00:32:31.000Z</time>
      </trkpt>
      <trkpt lat="42.675728" lon="0.652162">
        <ele>1911.5</ele>
        <time>1970-01-01T00:32:32.000Z</time>
      </trkpt>
      <trkpt lat="42.675723" lon="0.652179">
        <ele>1911.4</ele>
        <time>1970-01-01T00:32:34.000Z</time>
      </trkpt>
      <trkpt lat="42.675721" lon="0.652193">
        <ele>1911.3</ele>
        <time>1970-01-01T00:32:35.000Z</time>
      </trkpt>
      <trkpt lat="42.675719" lon="0.6522">
        <ele>1911.3</ele>
        <time>1970-01-01T00:32:36.000Z</time>
      </trkpt>
      <trkpt lat="42.675717" lon="0.652207">
        <ele>1911.2</ele>
        <time>1970-01-01T00:32:37.000Z</time>
      </trkpt>
      <trkpt lat="42.675715" lon="0.652214">
        <ele>1911.2</ele>
        <time>1970-01-01T00:32:38.000Z</time>
      </trkpt>
      <trkpt lat="42.675714" lon="0.652218">
        <ele>1911.2</ele>
        <time>1970-01-01T00:32:39.000Z</time>
      </trkpt>
      <trkpt lat="42.675714" lon="0.65222">
        <ele>1911.1</ele>
        <time>1970-01-01T00:32:40.000Z</time>
      </trkpt>
      <trkpt lat="42.675714" lon="0.652223">
        <ele>1911.1</ele>
        <time>1970-01-01T00:32:41.000Z</time>
      </trkpt>
      <trkpt lat="42.675715" lon="0.652225">
        <ele>1911.1</ele>
        <time>1970-01-01T00:32:42.000Z</time>
      </trkpt>
      <trkpt lat="42.675715" lon="0.652226">
        <ele>1911.1</ele>
        <time>1970-01-01T00:32:43.000Z</time>
      </trkpt>
      <trkpt lat="42.675715" lon="0.652225">
        <ele>1911.1</ele>
        <time>1970-01-01T00:32:44.000Z</time>
      </trkpt>
      <trkpt lat="42.675715" lon="0.652222">
        <ele>1911.1</ele>
        <time>1970-01-01T00:32:45.000Z</time>
      </trkpt>
      <trkpt lat="42.675716" lon="0.652223">
        <ele>1911.1</ele>
        <time>1970-01-01T00:32:47.000Z</time>
      </trkpt>
      <trkpt lat="42.675718" lon="0.652223">
        <ele>1911.1</ele>
        <time>1970-01-01T00:32:48.000Z</time>
      </trkpt>
      <trkpt lat="42.675718" lon="0.652224">
        <ele>1911.1</ele>
        <time>1970-01-01T00:32:49.000Z</time>
      </trkpt>
      <trkpt lat="42.675719" lon="0.652226">
        <ele>1911</ele>
        <time>1970-01-01T00:32:50.000Z</time>
      </trkpt>
      <trkpt lat="42.675719" lon="0.652232">
        <ele>1911</ele>
        <time>1970-01-01T00:32:52.000Z</time>
      </trkpt>
      <trkpt lat="42.675718" lon="0.65224">
        <ele>1911</ele>
        <time>1970-01-01T00:32:53.000Z</time>
      </trkpt>
      <trkpt lat="42.675715" lon="0.652248">
        <ele>1910.9</ele>
        <time>1970-01-01T00:32:54.000Z</time>
      </trkpt>
      <trkpt lat="42.675713" lon="0.652259">
        <ele>1910.9</ele>
        <time>1970-01-01T00:32:55.000Z</time>
      </trkpt>
      <trkpt lat="42.675712" lon="0.652273">
        <ele>1910.8</ele>
        <time>1970-01-01T00:32:57.000Z</time>
      </trkpt>
      <trkpt lat="42.675712" lon="0.652282">
        <ele>1910.7</ele>
        <time>1970-01-01T00:32:58.000Z</time>
      </trkpt>
      <trkpt lat="42.675712" lon="0.652291">
        <ele>1910.7</ele>
        <time>1970-01-01T00:32:59.000Z</time>
      </trkpt>
      <trkpt lat="42.675715" lon="0.652305">
        <ele>1910.6</ele>
        <time>1970-01-01T00:33:01.000Z</time>
      </trkpt>
      <trkpt lat="42.675717" lon="0.652314">
        <ele>1910.6</ele>
        <time>1970-01-01T00:33:02.000Z</time>
      </trkpt>
      <trkpt lat="42.675718" lon="0.652324">
        <ele>1910.5</ele>
        <time>1970-01-01T00:33:03.000Z</time>
      </trkpt>
      <trkpt lat="42.67572" lon="0.652342">
        <ele>1910.5</ele>
        <time>1970-01-01T00:33:05.000Z</time>
      </trkpt>
      <trkpt lat="42.675722" lon="0.652356">
        <ele>1910.4</ele>
        <time>1970-01-01T00:33:06.000Z</time>
      </trkpt>
      <trkpt lat="42.675729" lon="0.652368">
        <ele>1910.3</ele>
        <time>1970-01-01T00:33:07.000Z</time>
      </trkpt>
      <trkpt lat="42.675737" lon="0.652375">
        <ele>1910.3</ele>
        <time>1970-01-01T00:33:09.000Z</time>
      </trkpt>
      <trkpt lat="42.675748" lon="0.652377">
        <ele>1910.2</ele>
        <time>1970-01-01T00:33:10.000Z</time>
      </trkpt>
      <trkpt lat="42.67577" lon="0.652374">
        <ele>1910.1</ele>
        <time>1970-01-01T00:33:11.000Z</time>
      </trkpt>
      <trkpt lat="42.675778" lon="0.652373">
        <ele>1910.1</ele>
        <time>1970-01-01T00:33:13.000Z</time>
      </trkpt>
      <trkpt lat="42.675786" lon="0.652371">
        <ele>1910.1</ele>
        <time>1970-01-01T00:33:14.000Z</time>
      </trkpt>
      <trkpt lat="42.675798" lon="0.652361">
        <ele>1910</ele>
        <time>1970-01-01T00:33:15.000Z</time>
      </trkpt>
      <trkpt lat="42.675805" lon="0.652355">
        <ele>1910</ele>
        <time>1970-01-01T00:33:16.000Z</time>
      </trkpt>
      <trkpt lat="42.675813" lon="0.652347">
        <ele>1909.9</ele>
        <time>1970-01-01T00:33:17.000Z</time>
      </trkpt>
      <trkpt lat="42.675823" lon="0.652337">
        <ele>1909.9</ele>
        <time>1970-01-01T00:33:18.000Z</time>
      </trkpt>
      <trkpt lat="42.675831" lon="0.652328">
        <ele>1909.8</ele>
        <time>1970-01-01T00:33:19.000Z</time>
      </trkpt>
      <trkpt lat="42.675841" lon="0.652315">
        <ele>1909.8</ele>
        <time>1970-01-01T00:33:21.000Z</time>
      </trkpt>
      <trkpt lat="42.675854" lon="0.652291">
        <ele>1909.7</ele>
        <time>1970-01-01T00:33:22.000Z</time>
      </trkpt>
      <trkpt lat="42.675858" lon="0.652281">
        <ele>1909.7</ele>
        <time>1970-01-01T00:33:23.000Z</time>
      </trkpt>
      <trkpt lat="42.675863" lon="0.65227">
        <ele>1909.6</ele>
        <time>1970-01-01T00:33:24.000Z</time>
      </trkpt>
      <trkpt lat="42.675869" lon="0.652253">
        <ele>1909.6</ele>
        <time>1970-01-01T00:33:25.000Z</time>
      </trkpt>
      <trkpt lat="42.675876" lon="0.652236">
        <ele>1909.6</ele>
        <time>1970-01-01T00:33:26.000Z</time>
      </trkpt>
      <trkpt lat="42.675891" lon="0.652215">
        <ele>1909.5</ele>
        <time>1970-01-01T00:33:27.000Z</time>
      </trkpt>
      <trkpt lat="42.675897" lon="0.652208">
        <ele>1909.5</ele>
        <time>1970-01-01T00:33:28.000Z</time>
      </trkpt>
      <trkpt lat="42.675904" lon="0.652201">
        <ele>1909.5</ele>
        <time>1970-01-01T00:33:29.000Z</time>
      </trkpt>
      <trkpt lat="42.675916" lon="0.652196">
        <ele>1909.5</ele>
        <time>1970-01-01T00:33:30.000Z</time>
      </trkpt>
      <trkpt lat="42.675927" lon="0.652191">
        <ele>1909.5</ele>
        <time>1970-01-01T00:33:31.000Z</time>
      </trkpt>
      <trkpt lat="42.675938" lon="0.652183">
        <ele>1909.5</ele>
        <time>1970-01-01T00:33:33.000Z</time>
      </trkpt>
      <trkpt lat="42.675947" lon="0.652175">
        <ele>1909.5</ele>
        <time>1970-01-01T00:33:34.000Z</time>
      </trkpt>
      <trkpt lat="42.675955" lon="0.652168">
        <ele>1909.5</ele>
        <time>1970-01-01T00:33:35.000Z</time>
      </trkpt>
      <trkpt lat="42.675962" lon="0.65216">
        <ele>1909.6</ele>
        <time>1970-01-01T00:33:36.000Z</time>
      </trkpt>
      <trkpt lat="42.675971" lon="0.652152">
        <ele>1909.6</ele>
        <time>1970-01-01T00:33:37.000Z</time>
      </trkpt>
      <trkpt lat="42.67598" lon="0.652144">
        <ele>1909.6</ele>
        <time>1970-01-01T00:33:39.000Z</time>
      </trkpt>
      <trkpt lat="42.675988" lon="0.652136">
        <ele>1909.7</ele>
        <time>1970-01-01T00:33:40.000Z</time>
      </trkpt>
      <trkpt lat="42.675996" lon="0.652126">
        <ele>1909.7</ele>
        <time>1970-01-01T00:33:41.000Z</time>
      </trkpt>
      <trkpt lat="42.676001" lon="0.652116">
        <ele>1909.7</ele>
        <time>1970-01-01T00:33:42.000Z</time>
      </trkpt>
      <trkpt lat="42.676009" lon="0.652099">
        <ele>1909.8</ele>
        <time>1970-01-01T00:33:44.000Z</time>
      </trkpt>
      <trkpt lat="42.676017" lon="0.652085">
        <ele>1909.8</ele>
        <time>1970-01-01T00:33:45.000Z</time>
      </trkpt>
      <trkpt lat="42.676025" lon="0.652071">
        <ele>1909.9</ele>
        <time>1970-01-01T00:33:46.000Z</time>
      </trkpt>
      <trkpt lat="42.676035" lon="0.652061">
        <ele>1909.9</ele>
        <time>1970-01-01T00:33:48.000Z</time>
      </trkpt>
      <trkpt lat="42.676053" lon="0.65205">
        <ele>1910.1</ele>
        <time>1970-01-01T00:33:49.000Z</time>
      </trkpt>
      <trkpt lat="42.676061" lon="0.652046">
        <ele>1910.2</ele>
        <time>1970-01-01T00:33:50.000Z</time>
      </trkpt>
      <trkpt lat="42.676069" lon="0.652041">
        <ele>1910.2</ele>
        <time>1970-01-01T00:33:51.000Z</time>
      </trkpt>
      <trkpt lat="42.676078" lon="0.652033">
        <ele>1910.2</ele>
        <time>1970-01-01T00:33:52.000Z</time>
      </trkpt>
      <trkpt lat="42.676085" lon="0.652021">
        <ele>1910.3</ele>
        <time>1970-01-01T00:33:54.000Z</time>
      </trkpt>
      <trkpt lat="42.67609" lon="0.652007">
        <ele>1910.3</ele>
        <time>1970-01-01T00:33:55.000Z</time>
      </trkpt>
      <trkpt lat="42.676094" lon="0.651996">
        <ele>1910.4</ele>
        <time>1970-01-01T00:33:56.000Z</time>
      </trkpt>
      <trkpt lat="42.676099" lon="0.651985">
        <ele>1910.4</ele>
        <time>1970-01-01T00:33:57.000Z</time>
      </trkpt>
      <trkpt lat="42.676104" lon="0.651977">
        <ele>1910.4</ele>
        <time>1970-01-01T00:33:58.000Z</time>
      </trkpt>
      <trkpt lat="42.676111" lon="0.65197">
        <ele>1910.5</ele>
        <time>1970-01-01T00:33:59.000Z</time>
      </trkpt>
      <trkpt lat="42.676128" lon="0.651957">
        <ele>1910.5</ele>
        <time>1970-01-01T00:34:00.000Z</time>
      </trkpt>
      <trkpt lat="42.676137" lon="0.651952">
        <ele>1910.6</ele>
        <time>1970-01-01T00:34:02.000Z</time>
      </trkpt>
      <trkpt lat="42.676145" lon="0.651946">
        <ele>1910.6</ele>
        <time>1970-01-01T00:34:03.000Z</time>
      </trkpt>
      <trkpt lat="42.676153" lon="0.651936">
        <ele>1910.6</ele>
        <time>1970-01-01T00:34:04.000Z</time>
      </trkpt>
      <trkpt lat="42.676158" lon="0.651926">
        <ele>1910.7</ele>
        <time>1970-01-01T00:34:05.000Z</time>
      </trkpt>
      <trkpt lat="42.676165" lon="0.651911">
        <ele>1910.7</ele>
        <time>1970-01-01T00:34:07.000Z</time>
      </trkpt>
      <trkpt lat="42.676171" lon="0.651893">
        <ele>1910.8</ele>
        <time>1970-01-01T00:34:08.000Z</time>
      </trkpt>
      <trkpt lat="42.676175" lon="0.651876">
        <ele>1910.8</ele>
        <time>1970-01-01T00:34:09.000Z</time>
      </trkpt>
      <trkpt lat="42.676177" lon="0.651856">
        <ele>1910.9</ele>
        <time>1970-01-01T00:34:10.000Z</time>
      </trkpt>
      <trkpt lat="42.67618" lon="0.651836">
        <ele>1910.9</ele>
        <time>1970-01-01T00:34:11.000Z</time>
      </trkpt>
      <trkpt lat="42.676183" lon="0.65182">
        <ele>1911</ele>
        <time>1970-01-01T00:34:13.000Z</time>
      </trkpt>
      <trkpt lat="42.676186" lon="0.651804">
        <ele>1911</ele>
        <time>1970-01-01T00:34:14.000Z</time>
      </trkpt>
      <trkpt lat="42.676189" lon="0.651791">
        <ele>1911</ele>
        <time>1970-01-01T00:34:15.000Z</time>
      </trkpt>
      <trkpt lat="42.676193" lon="0.65178">
        <ele>1911</ele>
        <time>1970-01-01T00:34:16.000Z</time>
      </trkpt>
      <trkpt lat="42.676198" lon="0.651769">
        <ele>1911</ele>
        <time>1970-01-01T00:34:17.000Z</time>
      </trkpt>
      <trkpt lat="42.676203" lon="0.651761">
        <ele>1911.1</ele>
        <time>1970-01-01T00:34:18.000Z</time>
      </trkpt>
      <trkpt lat="42.676214" lon="0.651744">
        <ele>1911.1</ele>
        <time>1970-01-01T00:34:20.000Z</time>
      </trkpt>
      <trkpt lat="42.676221" lon="0.65174">
        <ele>1911.1</ele>
        <time>1970-01-01T00:34:21.000Z</time>
      </trkpt>
      <trkpt lat="42.67623" lon="0.651737">
        <ele>1911.1</ele>
        <time>1970-01-01T00:34:22.000Z</time>
      </trkpt>
      <trkpt lat="42.676237" lon="0.651737">
        <ele>1911.1</ele>
        <time>1970-01-01T00:34:23.000Z</time>
      </trkpt>
      <trkpt lat="42.676246" lon="0.651734">
        <ele>1911.1</ele>
        <time>1970-01-01T00:34:25.000Z</time>
      </trkpt>
      <trkpt lat="42.676253" lon="0.651729">
        <ele>1911</ele>
        <time>1970-01-01T00:34:26.000Z</time>
      </trkpt>
      <trkpt lat="42.676258" lon="0.65172">
        <ele>1911</ele>
        <time>1970-01-01T00:34:27.000Z</time>
      </trkpt>
      <trkpt lat="42.676259" lon="0.651711">
        <ele>1911</ele>
        <time>1970-01-01T00:34:28.000Z</time>
      </trkpt>
      <trkpt lat="42.676264" lon="0.651699">
        <ele>1911</ele>
        <time>1970-01-01T00:34:29.000Z</time>
      </trkpt>
      <trkpt lat="42.676283" lon="0.65168">
        <ele>1910.9</ele>
        <time>1970-01-01T00:34:30.000Z</time>
      </trkpt>
      <trkpt lat="42.676292" lon="0.651672">
        <ele>1910.9</ele>
        <time>1970-01-01T00:34:32.000Z</time>
      </trkpt>
      <trkpt lat="42.676301" lon="0.651664">
        <ele>1910.8</ele>
        <time>1970-01-01T00:34:33.000Z</time>
      </trkpt>
      <trkpt lat="42.67631" lon="0.651656">
        <ele>1910.8</ele>
        <time>1970-01-01T00:34:35.000Z</time>
      </trkpt>
      <trkpt lat="42.676319" lon="0.651648">
        <ele>1910.7</ele>
        <time>1970-01-01T00:34:36.000Z</time>
      </trkpt>
      <trkpt lat="42.676332" lon="0.651639">
        <ele>1910.6</ele>
        <time>1970-01-01T00:34:37.000Z</time>
      </trkpt>
      <trkpt lat="42.676345" lon="0.651634">
        <ele>1910.5</ele>
        <time>1970-01-01T00:34:38.000Z</time>
      </trkpt>
      <trkpt lat="42.676362" lon="0.651628">
        <ele>1910.4</ele>
        <time>1970-01-01T00:34:40.000Z</time>
      </trkpt>
      <trkpt lat="42.676373" lon="0.651622">
        <ele>1910.3</ele>
        <time>1970-01-01T00:34:41.000Z</time>
      </trkpt>
      <trkpt lat="42.676384" lon="0.651616">
        <ele>1910.2</ele>
        <time>1970-01-01T00:34:42.000Z</time>
      </trkpt>
      <trkpt lat="42.676393" lon="0.651608">
        <ele>1910.1</ele>
        <time>1970-01-01T00:34:43.000Z</time>
      </trkpt>
      <trkpt lat="42.676403" lon="0.651599">
        <ele>1909.9</ele>
        <time>1970-01-01T00:34:44.000Z</time>
      </trkpt>
      <trkpt lat="42.676418" lon="0.65158">
        <ele>1909.8</ele>
        <time>1970-01-01T00:34:45.000Z</time>
      </trkpt>
      <trkpt lat="42.676424" lon="0.651572">
        <ele>1909.7</ele>
        <time>1970-01-01T00:34:47.000Z</time>
      </trkpt>
      <trkpt lat="42.676429" lon="0.651563">
        <ele>1909.6</ele>
        <time>1970-01-01T00:34:48.000Z</time>
      </trkpt>
      <trkpt lat="42.676439" lon="0.651551">
        <ele>1909.5</ele>
        <time>1970-01-01T00:34:49.000Z</time>
      </trkpt>
      <trkpt lat="42.676447" lon="0.651541">
        <ele>1909.4</ele>
        <time>1970-01-01T00:34:50.000Z</time>
      </trkpt>
      <trkpt lat="42.676456" lon="0.651532">
        <ele>1909.3</ele>
        <time>1970-01-01T00:34:51.000Z</time>
      </trkpt>
      <trkpt lat="42.676464" lon="0.651523">
        <ele>1909.2</ele>
        <time>1970-01-01T00:34:52.000Z</time>
      </trkpt>
      <trkpt lat="42.676469" lon="0.651516">
        <ele>1909.1</ele>
        <time>1970-01-01T00:34:53.000Z</time>
      </trkpt>
      <trkpt lat="42.676476" lon="0.651502">
        <ele>1909</ele>
        <time>1970-01-01T00:34:54.000Z</time>
      </trkpt>
      <trkpt lat="42.676485" lon="0.651478">
        <ele>1908.8</ele>
        <time>1970-01-01T00:34:56.000Z</time>
      </trkpt>
      <trkpt lat="42.676488" lon="0.651467">
        <ele>1908.7</ele>
        <time>1970-01-01T00:34:57.000Z</time>
      </trkpt>
      <trkpt lat="42.676492" lon="0.651457">
        <ele>1908.6</ele>
        <time>1970-01-01T00:34:58.000Z</time>
      </trkpt>
      <trkpt lat="42.676497" lon="0.651441">
        <ele>1908.5</ele>
        <time>1970-01-01T00:35:00.000Z</time>
      </trkpt>
      <trkpt lat="42.676502" lon="0.651426">
        <ele>1908.4</ele>
        <time>1970-01-01T00:35:01.000Z</time>
      </trkpt>
      <trkpt lat="42.676507" lon="0.651417">
        <ele>1908.4</ele>
        <time>1970-01-01T00:35:02.000Z</time>
      </trkpt>
      <trkpt lat="42.676514" lon="0.651411">
        <ele>1908.3</ele>
        <time>1970-01-01T00:35:03.000Z</time>
      </trkpt>
      <trkpt lat="42.676523" lon="0.651404">
        <ele>1908.2</ele>
        <time>1970-01-01T00:35:04.000Z</time>
      </trkpt>
      <trkpt lat="42.67653" lon="0.651398">
        <ele>1908.1</ele>
        <time>1970-01-01T00:35:05.000Z</time>
      </trkpt>
      <trkpt lat="42.676538" lon="0.651389">
        <ele>1908.1</ele>
        <time>1970-01-01T00:35:07.000Z</time>
      </trkpt>
      <trkpt lat="42.676545" lon="0.651381">
        <ele>1908</ele>
        <time>1970-01-01T00:35:08.000Z</time>
      </trkpt>
      <trkpt lat="42.676552" lon="0.651372">
        <ele>1907.9</ele>
        <time>1970-01-01T00:35:09.000Z</time>
      </trkpt>
      <trkpt lat="42.676565" lon="0.65136">
        <ele>1907.8</ele>
        <time>1970-01-01T00:35:11.000Z</time>
      </trkpt>
      <trkpt lat="42.676574" lon="0.651352">
        <ele>1907.8</ele>
        <time>1970-01-01T00:35:12.000Z</time>
      </trkpt>
      <trkpt lat="42.676581" lon="0.651352">
        <ele>1907.7</ele>
        <time>1970-01-01T00:35:13.000Z</time>
      </trkpt>
      <trkpt lat="42.676584" lon="0.651359">
        <ele>1907.7</ele>
        <time>1970-01-01T00:35:14.000Z</time>
      </trkpt>
      <trkpt lat="42.676588" lon="0.651362">
        <ele>1907.6</ele>
        <time>1970-01-01T00:35:15.000Z</time>
      </trkpt>
      <trkpt lat="42.676587" lon="0.651373">
        <ele>1907.6</ele>
        <time>1970-01-01T00:35:16.000Z</time>
      </trkpt>
      <trkpt lat="42.676583" lon="0.651398">
        <ele>1907.5</ele>
        <time>1970-01-01T00:35:18.000Z</time>
      </trkpt>
      <trkpt lat="42.676581" lon="0.651426">
        <ele>1907.4</ele>
        <time>1970-01-01T00:35:19.000Z</time>
      </trkpt>
      <trkpt lat="42.676583" lon="0.651438">
        <ele>1907.3</ele>
        <time>1970-01-01T00:35:20.000Z</time>
      </trkpt>
      <trkpt lat="42.676587" lon="0.651447">
        <ele>1907.3</ele>
        <time>1970-01-01T00:35:21.000Z</time>
      </trkpt>
      <trkpt lat="42.6766" lon="0.651448">
        <ele>1907.2</ele>
        <time>1970-01-01T00:35:23.000Z</time>
      </trkpt>
      <trkpt lat="42.67661" lon="0.651443">
        <ele>1907.2</ele>
        <time>1970-01-01T00:35:24.000Z</time>
      </trkpt>
      <trkpt lat="42.676618" lon="0.651437">
        <ele>1907.1</ele>
        <time>1970-01-01T00:35:25.000Z</time>
      </trkpt>
      <trkpt lat="42.676625" lon="0.651432">
        <ele>1907.1</ele>
        <time>1970-01-01T00:35:27.000Z</time>
      </trkpt>
      <trkpt lat="42.67663" lon="0.651427">
        <ele>1907.1</ele>
        <time>1970-01-01T00:35:28.000Z</time>
      </trkpt>
      <trkpt lat="42.676635" lon="0.651419">
        <ele>1907</ele>
        <time>1970-01-01T00:35:29.000Z</time>
      </trkpt>
      <trkpt lat="42.676639" lon="0.651411">
        <ele>1907</ele>
        <time>1970-01-01T00:35:30.000Z</time>
      </trkpt>
      <trkpt lat="42.676644" lon="0.651402">
        <ele>1906.9</ele>
        <time>1970-01-01T00:35:31.000Z</time>
      </trkpt>
      <trkpt lat="42.676648" lon="0.651392">
        <ele>1906.9</ele>
        <time>1970-01-01T00:35:32.000Z</time>
      </trkpt>
      <trkpt lat="42.676649" lon="0.651376">
        <ele>1906.8</ele>
        <time>1970-01-01T00:35:33.000Z</time>
      </trkpt>
      <trkpt lat="42.676652" lon="0.651358">
        <ele>1906.7</ele>
        <time>1970-01-01T00:35:35.000Z</time>
      </trkpt>
      <trkpt lat="42.676653" lon="0.651339">
        <ele>1906.6</ele>
        <time>1970-01-01T00:35:36.000Z</time>
      </trkpt>
      <trkpt lat="42.676649" lon="0.651304">
        <ele>1906.3</ele>
        <time>1970-01-01T00:35:37.000Z</time>
      </trkpt>
      <trkpt lat="42.676646" lon="0.651291">
        <ele>1906.2</ele>
        <time>1970-01-01T00:35:38.000Z</time>
      </trkpt>
      <trkpt lat="42.676645" lon="0.651267">
        <ele>1906</ele>
        <time>1970-01-01T00:35:40.000Z</time>
      </trkpt>
      <trkpt lat="42.676649" lon="0.651247">
        <ele>1905.8</ele>
        <time>1970-01-01T00:35:41.000Z</time>
      </trkpt>
      <trkpt lat="42.676659" lon="0.651238">
        <ele>1905.7</ele>
        <time>1970-01-01T00:35:42.000Z</time>
      </trkpt>
      <trkpt lat="42.676673" lon="0.651242">
        <ele>1905.5</ele>
        <time>1970-01-01T00:35:44.000Z</time>
      </trkpt>
      <trkpt lat="42.676684" lon="0.651249">
        <ele>1905.3</ele>
        <time>1970-01-01T00:35:45.000Z</time>
      </trkpt>
      <trkpt lat="42.676702" lon="0.651263">
        <ele>1905</ele>
        <time>1970-01-01T00:35:46.000Z</time>
      </trkpt>
      <trkpt lat="42.676709" lon="0.651269">
        <ele>1904.9</ele>
        <time>1970-01-01T00:35:47.000Z</time>
      </trkpt>
      <trkpt lat="42.676716" lon="0.651275">
        <ele>1904.8</ele>
        <time>1970-01-01T00:35:48.000Z</time>
      </trkpt>
      <trkpt lat="42.676737" lon="0.651277">
        <ele>1904.5</ele>
        <time>1970-01-01T00:35:49.000Z</time>
      </trkpt>
      <trkpt lat="42.676745" lon="0.651277">
        <ele>1904.4</ele>
        <time>1970-01-01T00:35:50.000Z</time>
      </trkpt>
      <trkpt lat="42.676754" lon="0.651276">
        <ele>1904.2</ele>
        <time>1970-01-01T00:35:51.000Z</time>
      </trkpt>
      <trkpt lat="42.676773" lon="0.65127">
        <ele>1904</ele>
        <time>1970-01-01T00:35:53.000Z</time>
      </trkpt>
      <trkpt lat="42.676782" lon="0.651264">
        <ele>1903.8</ele>
        <time>1970-01-01T00:35:54.000Z</time>
      </trkpt>
      <trkpt lat="42.676794" lon="0.651242">
        <ele>1903.5</ele>
        <time>1970-01-01T00:35:55.000Z</time>
      </trkpt>
      <trkpt lat="42.676799" lon="0.651232">
        <ele>1903.4</ele>
        <time>1970-01-01T00:35:56.000Z</time>
      </trkpt>
      <trkpt lat="42.676804" lon="0.651221">
        <ele>1903.3</ele>
        <time>1970-01-01T00:35:57.000Z</time>
      </trkpt>
      <trkpt lat="42.676819" lon="0.651205">
        <ele>1903.1</ele>
        <time>1970-01-01T00:35:58.000Z</time>
      </trkpt>
      <trkpt lat="42.676826" lon="0.651198">
        <ele>1902.9</ele>
        <time>1970-01-01T00:35:59.000Z</time>
      </trkpt>
      <trkpt lat="42.676834" lon="0.651192">
        <ele>1902.8</ele>
        <time>1970-01-01T00:36:00.000Z</time>
      </trkpt>
      <trkpt lat="42.676853" lon="0.651181">
        <ele>1902.6</ele>
        <time>1970-01-01T00:36:01.000Z</time>
      </trkpt>
      <trkpt lat="42.676861" lon="0.651178">
        <ele>1902.5</ele>
        <time>1970-01-01T00:36:02.000Z</time>
      </trkpt>
      <trkpt lat="42.676868" lon="0.651175">
        <ele>1902.4</ele>
        <time>1970-01-01T00:36:03.000Z</time>
      </trkpt>
      <trkpt lat="42.676887" lon="0.651172">
        <ele>1902.2</ele>
        <time>1970-01-01T00:36:04.000Z</time>
      </trkpt>
      <trkpt lat="42.676896" lon="0.651172">
        <ele>1902.1</ele>
        <time>1970-01-01T00:36:05.000Z</time>
      </trkpt>
      <trkpt lat="42.676904" lon="0.651172">
        <ele>1902</ele>
        <time>1970-01-01T00:36:06.000Z</time>
      </trkpt>
      <trkpt lat="42.676916" lon="0.651177">
        <ele>1901.9</ele>
        <time>1970-01-01T00:36:07.000Z</time>
      </trkpt>
      <trkpt lat="42.676929" lon="0.651181">
        <ele>1901.8</ele>
        <time>1970-01-01T00:36:08.000Z</time>
      </trkpt>
      <trkpt lat="42.676942" lon="0.651185">
        <ele>1901.7</ele>
        <time>1970-01-01T00:36:10.000Z</time>
      </trkpt>
      <trkpt lat="42.676961" lon="0.651194">
        <ele>1901.5</ele>
        <time>1970-01-01T00:36:11.000Z</time>
      </trkpt>
      <trkpt lat="42.676969" lon="0.651198">
        <ele>1901.4</ele>
        <time>1970-01-01T00:36:12.000Z</time>
      </trkpt>
      <trkpt lat="42.676976" lon="0.651203">
        <ele>1901.4</ele>
        <time>1970-01-01T00:36:13.000Z</time>
      </trkpt>
      <trkpt lat="42.676991" lon="0.651195">
        <ele>1901.3</ele>
        <time>1970-01-01T00:36:14.000Z</time>
      </trkpt>
      <trkpt lat="42.677004" lon="0.651186">
        <ele>1901.2</ele>
        <time>1970-01-01T00:36:15.000Z</time>
      </trkpt>
      <trkpt lat="42.677015" lon="0.651174">
        <ele>1901.1</ele>
        <time>1970-01-01T00:36:17.000Z</time>
      </trkpt>
      <trkpt lat="42.677026" lon="0.651159">
        <ele>1901</ele>
        <time>1970-01-01T00:36:18.000Z</time>
      </trkpt>
      <trkpt lat="42.677035" lon="0.651147">
        <ele>1900.9</ele>
        <time>1970-01-01T00:36:19.000Z</time>
      </trkpt>
      <trkpt lat="42.677045" lon="0.651132">
        <ele>1900.8</ele>
        <time>1970-01-01T00:36:20.000Z</time>
      </trkpt>
      <trkpt lat="42.677055" lon="0.651118">
        <ele>1900.7</ele>
        <time>1970-01-01T00:36:21.000Z</time>
      </trkpt>
      <trkpt lat="42.677065" lon="0.651103">
        <ele>1900.7</ele>
        <time>1970-01-01T00:36:22.000Z</time>
      </trkpt>
      <trkpt lat="42.677076" lon="0.65108">
        <ele>1900.6</ele>
        <time>1970-01-01T00:36:24.000Z</time>
      </trkpt>
      <trkpt lat="42.677083" lon="0.651064">
        <ele>1900.6</ele>
        <time>1970-01-01T00:36:25.000Z</time>
      </trkpt>
      <trkpt lat="42.677091" lon="0.651049">
        <ele>1900.5</ele>
        <time>1970-01-01T00:36:26.000Z</time>
      </trkpt>
      <trkpt lat="42.677099" lon="0.651033">
        <ele>1900.5</ele>
        <time>1970-01-01T00:36:27.000Z</time>
      </trkpt>
      <trkpt lat="42.677107" lon="0.651019">
        <ele>1900.5</ele>
        <time>1970-01-01T00:36:28.000Z</time>
      </trkpt>
      <trkpt lat="42.677114" lon="0.651009">
        <ele>1900.4</ele>
        <time>1970-01-01T00:36:29.000Z</time>
      </trkpt>
      <trkpt lat="42.677133" lon="0.650994">
        <ele>1900.4</ele>
        <time>1970-01-01T00:36:31.000Z</time>
      </trkpt>
      <trkpt lat="42.677147" lon="0.650987">
        <ele>1900.4</ele>
        <time>1970-01-01T00:36:32.000Z</time>
      </trkpt>
      <trkpt lat="42.67716" lon="0.650984">
        <ele>1900.4</ele>
        <time>1970-01-01T00:36:33.000Z</time>
      </trkpt>
      <trkpt lat="42.67718" lon="0.650982">
        <ele>1900.5</ele>
        <time>1970-01-01T00:36:34.000Z</time>
      </trkpt>
      <trkpt lat="42.677188" lon="0.65098">
        <ele>1900.5</ele>
        <time>1970-01-01T00:36:35.000Z</time>
      </trkpt>
      <trkpt lat="42.677196" lon="0.650979">
        <ele>1900.5</ele>
        <time>1970-01-01T00:36:36.000Z</time>
      </trkpt>
      <trkpt lat="42.677208" lon="0.650969">
        <ele>1900.5</ele>
        <time>1970-01-01T00:36:38.000Z</time>
      </trkpt>
      <trkpt lat="42.677217" lon="0.650964">
        <ele>1900.6</ele>
        <time>1970-01-01T00:36:39.000Z</time>
      </trkpt>
      <trkpt lat="42.677224" lon="0.650963">
        <ele>1900.6</ele>
        <time>1970-01-01T00:36:40.000Z</time>
      </trkpt>
      <trkpt lat="42.677237" lon="0.650965">
        <ele>1900.7</ele>
        <time>1970-01-01T00:36:42.000Z</time>
      </trkpt>
      <trkpt lat="42.677247" lon="0.650962">
        <ele>1900.7</ele>
        <time>1970-01-01T00:36:43.000Z</time>
      </trkpt>
      <trkpt lat="42.677252" lon="0.650949">
        <ele>1900.7</ele>
        <time>1970-01-01T00:36:44.000Z</time>
      </trkpt>
      <trkpt lat="42.677256" lon="0.650922">
        <ele>1900.9</ele>
        <time>1970-01-01T00:36:46.000Z</time>
      </trkpt>
      <trkpt lat="42.677258" lon="0.65091">
        <ele>1900.9</ele>
        <time>1970-01-01T00:36:47.000Z</time>
      </trkpt>
      <trkpt lat="42.677261" lon="0.650898">
        <ele>1900.9</ele>
        <time>1970-01-01T00:36:48.000Z</time>
      </trkpt>
      <trkpt lat="42.677267" lon="0.650878">
        <ele>1901</ele>
        <time>1970-01-01T00:36:50.000Z</time>
      </trkpt>
      <trkpt lat="42.677273" lon="0.650861">
        <ele>1901.1</ele>
        <time>1970-01-01T00:36:51.000Z</time>
      </trkpt>
      <trkpt lat="42.677284" lon="0.650851">
        <ele>1901.5</ele>
        <time>1970-01-01T00:36:53.000Z</time>
      </trkpt>
      <trkpt lat="42.677294" lon="0.650849">
        <ele>1901.6</ele>
        <time>1970-01-01T00:36:54.000Z</time>
      </trkpt>
      <trkpt lat="42.677303" lon="0.650851">
        <ele>1901.6</ele>
        <time>1970-01-01T00:36:55.000Z</time>
      </trkpt>
      <trkpt lat="42.677312" lon="0.650854">
        <ele>1901.7</ele>
        <time>1970-01-01T00:36:56.000Z</time>
      </trkpt>
      <trkpt lat="42.677322" lon="0.650857">
        <ele>1901.7</ele>
        <time>1970-01-01T00:36:57.000Z</time>
      </trkpt>
      <trkpt lat="42.677331" lon="0.650864">
        <ele>1901.7</ele>
        <time>1970-01-01T00:36:58.000Z</time>
      </trkpt>
      <trkpt lat="42.67734" lon="0.650875">
        <ele>1901.8</ele>
        <time>1970-01-01T00:36:59.000Z</time>
      </trkpt>
      <trkpt lat="42.677346" lon="0.650886">
        <ele>1901.8</ele>
        <time>1970-01-01T00:37:01.000Z</time>
      </trkpt>
      <trkpt lat="42.677352" lon="0.650899">
        <ele>1901.8</ele>
        <time>1970-01-01T00:37:02.000Z</time>
      </trkpt>
      <trkpt lat="42.677359" lon="0.650911">
        <ele>1901.8</ele>
        <time>1970-01-01T00:37:03.000Z</time>
      </trkpt>
      <trkpt lat="42.677367" lon="0.650918">
        <ele>1901.8</ele>
        <time>1970-01-01T00:37:04.000Z</time>
      </trkpt>
      <trkpt lat="42.677382" lon="0.65092">
        <ele>1901.8</ele>
        <time>1970-01-01T00:37:06.000Z</time>
      </trkpt>
      <trkpt lat="42.677392" lon="0.650922">
        <ele>1901.8</ele>
        <time>1970-01-01T00:37:07.000Z</time>
      </trkpt>
      <trkpt lat="42.677403" lon="0.650922">
        <ele>1901.7</ele>
        <time>1970-01-01T00:37:08.000Z</time>
      </trkpt>
      <trkpt lat="42.677413" lon="0.650921">
        <ele>1901.7</ele>
        <time>1970-01-01T00:37:09.000Z</time>
      </trkpt>
      <trkpt lat="42.677421" lon="0.650919">
        <ele>1901.7</ele>
        <time>1970-01-01T00:37:10.000Z</time>
      </trkpt>
      <trkpt lat="42.677433" lon="0.650913">
        <ele>1901.6</ele>
        <time>1970-01-01T00:37:11.000Z</time>
      </trkpt>
      <trkpt lat="42.677444" lon="0.650906">
        <ele>1901.5</ele>
        <time>1970-01-01T00:37:12.000Z</time>
      </trkpt>
      <trkpt lat="42.677461" lon="0.650893">
        <ele>1901.4</ele>
        <time>1970-01-01T00:37:13.000Z</time>
      </trkpt>
      <trkpt lat="42.677468" lon="0.650887">
        <ele>1901.3</ele>
        <time>1970-01-01T00:37:14.000Z</time>
      </trkpt>
      <trkpt lat="42.677475" lon="0.650881">
        <ele>1901.3</ele>
        <time>1970-01-01T00:37:15.000Z</time>
      </trkpt>
      <trkpt lat="42.677494" lon="0.650867">
        <ele>1901.1</ele>
        <time>1970-01-01T00:37:16.000Z</time>
      </trkpt>
      <trkpt lat="42.6775" lon="0.650861">
        <ele>1901.1</ele>
        <time>1970-01-01T00:37:17.000Z</time>
      </trkpt>
      <trkpt lat="42.677507" lon="0.650855">
        <ele>1901</ele>
        <time>1970-01-01T00:37:18.000Z</time>
      </trkpt>
      <trkpt lat="42.677519" lon="0.650845">
        <ele>1900.9</ele>
        <time>1970-01-01T00:37:19.000Z</time>
      </trkpt>
      <trkpt lat="42.677533" lon="0.650833">
        <ele>1900.7</ele>
        <time>1970-01-01T00:37:21.000Z</time>
      </trkpt>
      <trkpt lat="42.677542" lon="0.650824">
        <ele>1900.6</ele>
        <time>1970-01-01T00:37:22.000Z</time>
      </trkpt>
      <trkpt lat="42.677551" lon="0.650813">
        <ele>1900.5</ele>
        <time>1970-01-01T00:37:23.000Z</time>
      </trkpt>
      <trkpt lat="42.677559" lon="0.650802">
        <ele>1900.4</ele>
        <time>1970-01-01T00:37:24.000Z</time>
      </trkpt>
      <trkpt lat="42.677572" lon="0.650779">
        <ele>1900.2</ele>
        <time>1970-01-01T00:37:25.000Z</time>
      </trkpt>
      <trkpt lat="42.677577" lon="0.650769">
        <ele>1900.2</ele>
        <time>1970-01-01T00:37:26.000Z</time>
      </trkpt>
      <trkpt lat="42.677582" lon="0.650759">
        <ele>1900.1</ele>
        <time>1970-01-01T00:37:27.000Z</time>
      </trkpt>
      <trkpt lat="42.677595" lon="0.650737">
        <ele>1899.9</ele>
        <time>1970-01-01T00:37:28.000Z</time>
      </trkpt>
      <trkpt lat="42.6776" lon="0.650728">
        <ele>1899.9</ele>
        <time>1970-01-01T00:37:30.000Z</time>
      </trkpt>
      <trkpt lat="42.677605" lon="0.65072">
        <ele>1899.8</ele>
        <time>1970-01-01T00:37:31.000Z</time>
      </trkpt>
      <trkpt lat="42.677613" lon="0.650709">
        <ele>1899.7</ele>
        <time>1970-01-01T00:37:32.000Z</time>
      </trkpt>
      <trkpt lat="42.677621" lon="0.650698">
        <ele>1899.7</ele>
        <time>1970-01-01T00:37:33.000Z</time>
      </trkpt>
      <trkpt lat="42.677629" lon="0.650687">
        <ele>1899.6</ele>
        <time>1970-01-01T00:37:34.000Z</time>
      </trkpt>
      <trkpt lat="42.677638" lon="0.650674">
        <ele>1899.5</ele>
        <time>1970-01-01T00:37:35.000Z</time>
      </trkpt>
      <trkpt lat="42.677644" lon="0.650664">
        <ele>1899.4</ele>
        <time>1970-01-01T00:37:36.000Z</time>
      </trkpt>
      <trkpt lat="42.677649" lon="0.650652">
        <ele>1899.3</ele>
        <time>1970-01-01T00:37:37.000Z</time>
      </trkpt>
      <trkpt lat="42.677659" lon="0.650628">
        <ele>1899.2</ele>
        <time>1970-01-01T00:37:38.000Z</time>
      </trkpt>
      <trkpt lat="42.677662" lon="0.650618">
        <ele>1899.1</ele>
        <time>1970-01-01T00:37:39.000Z</time>
      </trkpt>
      <trkpt lat="42.677666" lon="0.650608">
        <ele>1899.1</ele>
        <time>1970-01-01T00:37:40.000Z</time>
      </trkpt>
      <trkpt lat="42.677674" lon="0.650596">
        <ele>1899</ele>
        <time>1970-01-01T00:37:41.000Z</time>
      </trkpt>
      <trkpt lat="42.677681" lon="0.650585">
        <ele>1898.9</ele>
        <time>1970-01-01T00:37:42.000Z</time>
      </trkpt>
      <trkpt lat="42.677688" lon="0.650575">
        <ele>1898.9</ele>
        <time>1970-01-01T00:37:44.000Z</time>
      </trkpt>
      <trkpt lat="42.677695" lon="0.650565">
        <ele>1898.8</ele>
        <time>1970-01-01T00:37:45.000Z</time>
      </trkpt>
      <trkpt lat="42.677701" lon="0.650556">
        <ele>1898.8</ele>
        <time>1970-01-01T00:37:46.000Z</time>
      </trkpt>
      <trkpt lat="42.677707" lon="0.650547">
        <ele>1898.7</ele>
        <time>1970-01-01T00:37:47.000Z</time>
      </trkpt>
      <trkpt lat="42.677714" lon="0.650537">
        <ele>1898.7</ele>
        <time>1970-01-01T00:37:48.000Z</time>
      </trkpt>
      <trkpt lat="42.677722" lon="0.650526">
        <ele>1898.6</ele>
        <time>1970-01-01T00:37:49.000Z</time>
      </trkpt>
      <trkpt lat="42.677729" lon="0.650517">
        <ele>1898.6</ele>
        <time>1970-01-01T00:37:50.000Z</time>
      </trkpt>
      <trkpt lat="42.677737" lon="0.650509">
        <ele>1898.5</ele>
        <time>1970-01-01T00:37:51.000Z</time>
      </trkpt>
      <trkpt lat="42.677746" lon="0.650501">
        <ele>1898.5</ele>
        <time>1970-01-01T00:37:52.000Z</time>
      </trkpt>
      <trkpt lat="42.677754" lon="0.650494">
        <ele>1898.4</ele>
        <time>1970-01-01T00:37:53.000Z</time>
      </trkpt>
      <trkpt lat="42.677763" lon="0.650486">
        <ele>1898.4</ele>
        <time>1970-01-01T00:37:54.000Z</time>
      </trkpt>
      <trkpt lat="42.67777" lon="0.65048">
        <ele>1898.3</ele>
        <time>1970-01-01T00:37:55.000Z</time>
      </trkpt>
      <trkpt lat="42.677784" lon="0.650474">
        <ele>1898.3</ele>
        <time>1970-01-01T00:37:56.000Z</time>
      </trkpt>
      <trkpt lat="42.677803" lon="0.650464">
        <ele>1898.2</ele>
        <time>1970-01-01T00:37:58.000Z</time>
      </trkpt>
      <trkpt lat="42.67781" lon="0.65046">
        <ele>1898.2</ele>
        <time>1970-01-01T00:37:59.000Z</time>
      </trkpt>
      <trkpt lat="42.677818" lon="0.650456">
        <ele>1898.1</ele>
        <time>1970-01-01T00:38:00.000Z</time>
      </trkpt>
      <trkpt lat="42.677829" lon="0.650449">
        <ele>1898.1</ele>
        <time>1970-01-01T00:38:02.000Z</time>
      </trkpt>
      <trkpt lat="42.67784" lon="0.650447">
        <ele>1898.1</ele>
        <time>1970-01-01T00:38:03.000Z</time>
      </trkpt>
      <trkpt lat="42.67784" lon="0.650451">
        <ele>1898.1</ele>
        <time>1970-01-01T00:38:04.000Z</time>
      </trkpt>
      <trkpt lat="42.677842" lon="0.65046">
        <ele>1898</ele>
        <time>1970-01-01T00:38:05.000Z</time>
      </trkpt>
      <trkpt lat="42.677844" lon="0.650467">
        <ele>1898</ele>
        <time>1970-01-01T00:38:06.000Z</time>
      </trkpt>
      <trkpt lat="42.677845" lon="0.650473">
        <ele>1898</ele>
        <time>1970-01-01T00:38:07.000Z</time>
      </trkpt>
      <trkpt lat="42.677846" lon="0.650478">
        <ele>1898</ele>
        <time>1970-01-01T00:38:08.000Z</time>
      </trkpt>
      <trkpt lat="42.677853" lon="0.650487">
        <ele>1898</ele>
        <time>1970-01-01T00:38:10.000Z</time>
      </trkpt>
      <trkpt lat="42.67786" lon="0.650486">
        <ele>1898</ele>
        <time>1970-01-01T00:38:11.000Z</time>
      </trkpt>
      <trkpt lat="42.677869" lon="0.650486">
        <ele>1897.9</ele>
        <time>1970-01-01T00:38:12.000Z</time>
      </trkpt>
      <trkpt lat="42.67788" lon="0.650484">
        <ele>1897.9</ele>
        <time>1970-01-01T00:38:13.000Z</time>
      </trkpt>
      <trkpt lat="42.677893" lon="0.650484">
        <ele>1897.9</ele>
        <time>1970-01-01T00:38:15.000Z</time>
      </trkpt>
      <trkpt lat="42.677903" lon="0.650486">
        <ele>1897.9</ele>
        <time>1970-01-01T00:38:16.000Z</time>
      </trkpt>
      <trkpt lat="42.677914" lon="0.650493">
        <ele>1897.9</ele>
        <time>1970-01-01T00:38:17.000Z</time>
      </trkpt>
      <trkpt lat="42.677922" lon="0.650501">
        <ele>1897.9</ele>
        <time>1970-01-01T00:38:18.000Z</time>
      </trkpt>
      <trkpt lat="42.677925" lon="0.650507">
        <ele>1897.9</ele>
        <time>1970-01-01T00:38:19.000Z</time>
      </trkpt>
      <trkpt lat="42.677929" lon="0.650513">
        <ele>1897.9</ele>
        <time>1970-01-01T00:38:20.000Z</time>
      </trkpt>
      <trkpt lat="42.677933" lon="0.650517">
        <ele>1897.9</ele>
        <time>1970-01-01T00:38:21.000Z</time>
      </trkpt>
      <trkpt lat="42.677942" lon="0.65052">
        <ele>1897.9</ele>
        <time>1970-01-01T00:38:22.000Z</time>
      </trkpt>
      <trkpt lat="42.677947" lon="0.650521">
        <ele>1897.9</ele>
        <time>1970-01-01T00:38:23.000Z</time>
      </trkpt>
      <trkpt lat="42.677957" lon="0.650518">
        <ele>1897.9</ele>
        <time>1970-01-01T00:38:25.000Z</time>
      </trkpt>
      <trkpt lat="42.677967" lon="0.650512">
        <ele>1897.9</ele>
        <time>1970-01-01T00:38:26.000Z</time>
      </trkpt>
      <trkpt lat="42.677972" lon="0.650505">
        <ele>1897.9</ele>
        <time>1970-01-01T00:38:28.000Z</time>
      </trkpt>
      <trkpt lat="42.677974" lon="0.650499">
        <ele>1897.9</ele>
        <time>1970-01-01T00:38:29.000Z</time>
      </trkpt>
      <trkpt lat="42.677976" lon="0.650494">
        <ele>1897.9</ele>
        <time>1970-01-01T00:38:30.000Z</time>
      </trkpt>
      <trkpt lat="42.677975" lon="0.650489">
        <ele>1897.9</ele>
        <time>1970-01-01T00:38:31.000Z</time>
      </trkpt>
      <trkpt lat="42.677976" lon="0.650484">
        <ele>1897.9</ele>
        <time>1970-01-01T00:38:32.000Z</time>
      </trkpt>
      <trkpt lat="42.677975" lon="0.65048">
        <ele>1897.9</ele>
        <time>1970-01-01T00:38:33.000Z</time>
      </trkpt>
      <trkpt lat="42.677975" lon="0.650476">
        <ele>1897.9</ele>
        <time>1970-01-01T00:38:34.000Z</time>
      </trkpt>
      <trkpt lat="42.677974" lon="0.650473">
        <ele>1897.9</ele>
        <time>1970-01-01T00:38:35.000Z</time>
      </trkpt>
      <trkpt lat="42.677974" lon="0.65047">
        <ele>1897.9</ele>
        <time>1970-01-01T00:38:36.000Z</time>
      </trkpt>
      <trkpt lat="42.677974" lon="0.650466">
        <ele>1897.9</ele>
        <time>1970-01-01T00:38:37.000Z</time>
      </trkpt>
      <trkpt lat="42.677977" lon="0.650459">
        <ele>1897.9</ele>
        <time>1970-01-01T00:38:38.000Z</time>
      </trkpt>
      <trkpt lat="42.677979" lon="0.650454">
        <ele>1897.9</ele>
        <time>1970-01-01T00:38:39.000Z</time>
      </trkpt>
      <trkpt lat="42.677982" lon="0.650448">
        <ele>1897.9</ele>
        <time>1970-01-01T00:38:41.000Z</time>
      </trkpt>
      <trkpt lat="42.677985" lon="0.650442">
        <ele>1897.9</ele>
        <time>1970-01-01T00:38:42.000Z</time>
      </trkpt>
      <trkpt lat="42.677988" lon="0.650432">
        <ele>1897.9</ele>
        <time>1970-01-01T00:38:43.000Z</time>
      </trkpt>
      <trkpt lat="42.677995" lon="0.650416">
        <ele>1897.9</ele>
        <time>1970-01-01T00:38:44.000Z</time>
      </trkpt>
      <trkpt lat="42.678006" lon="0.650399">
        <ele>1897.9</ele>
        <time>1970-01-01T00:38:46.000Z</time>
      </trkpt>
      <trkpt lat="42.678009" lon="0.650392">
        <ele>1897.9</ele>
        <time>1970-01-01T00:38:47.000Z</time>
      </trkpt>
      <trkpt lat="42.678016" lon="0.650375">
        <ele>1897.9</ele>
        <time>1970-01-01T00:38:48.000Z</time>
      </trkpt>
      <trkpt lat="42.67802" lon="0.650365">
        <ele>1897.9</ele>
        <time>1970-01-01T00:38:49.000Z</time>
      </trkpt>
      <trkpt lat="42.678024" lon="0.650353">
        <ele>1898</ele>
        <time>1970-01-01T00:38:51.000Z</time>
      </trkpt>
      <trkpt lat="42.678027" lon="0.650342">
        <ele>1898</ele>
        <time>1970-01-01T00:38:52.000Z</time>
      </trkpt>
      <trkpt lat="42.678031" lon="0.65033">
        <ele>1898</ele>
        <time>1970-01-01T00:38:53.000Z</time>
      </trkpt>
      <trkpt lat="42.678036" lon="0.650319">
        <ele>1898</ele>
        <time>1970-01-01T00:38:54.000Z</time>
      </trkpt>
      <trkpt lat="42.67804" lon="0.650312">
        <ele>1898</ele>
        <time>1970-01-01T00:38:55.000Z</time>
      </trkpt>
      <trkpt lat="42.67805" lon="0.650299">
        <ele>1898</ele>
        <time>1970-01-01T00:38:56.000Z</time>
      </trkpt>
      <trkpt lat="42.678061" lon="0.650285">
        <ele>1898</ele>
        <time>1970-01-01T00:38:57.000Z</time>
      </trkpt>
      <trkpt lat="42.678071" lon="0.650269">
        <ele>1898</ele>
        <time>1970-01-01T00:38:59.000Z</time>
      </trkpt>
      <trkpt lat="42.678078" lon="0.650255">
        <ele>1898</ele>
        <time>1970-01-01T00:39:00.000Z</time>
      </trkpt>
      <trkpt lat="42.678084" lon="0.650243">
        <ele>1898</ele>
        <time>1970-01-01T00:39:01.000Z</time>
      </trkpt>
      <trkpt lat="42.678088" lon="0.650233">
        <ele>1898</ele>
        <time>1970-01-01T00:39:02.000Z</time>
      </trkpt>
      <trkpt lat="42.678093" lon="0.650221">
        <ele>1898</ele>
        <time>1970-01-01T00:39:03.000Z</time>
      </trkpt>
    </trkseg>
  </trk>
</gpx>
